﻿<?xml version="1.0" encoding="utf-8"?><gpx version="1.1" creator="izvne.com" xmlns="http://www.topografix.com/GPX/1/1"><trk><name>cyprus-overview</name><trkseg><trkpt lat="34.7788826" lon="32.4223243"><ele>82.9</ele><time>2015-04-24T14:49:17.0000000+00:00</time></trkpt><trkpt lat="34.7789096" lon="32.422414"><ele>82.8</ele><time>2015-04-24T14:49:20.0000000+00:00</time></trkpt><trkpt lat="34.7789328" lon="32.422495"><ele>80.1</ele><time>2015-04-24T14:49:22.0000000+00:00</time></trkpt><trkpt lat="34.7788978" lon="32.4224515"><ele>81.4</ele><time>2015-04-24T14:53:04.0000000+00:00</time></trkpt><trkpt lat="34.7788753" lon="32.4223952"><ele>83.1</ele><time>2015-04-24T14:53:07.0000000+00:00</time></trkpt><trkpt lat="34.7788477" lon="32.4223357"><ele>85.6</ele><time>2015-04-24T14:53:10.0000000+00:00</time></trkpt><trkpt lat="34.7787914" lon="32.4223399"><ele>84.5</ele><time>2015-04-24T14:53:13.0000000+00:00</time></trkpt><trkpt lat="34.7787435" lon="32.4223896"><ele>84.0</ele><time>2015-04-24T14:53:16.0000000+00:00</time></trkpt><trkpt lat="34.7786894" lon="32.422419"><ele>83.9</ele><time>2015-04-24T14:53:18.0000000+00:00</time></trkpt><trkpt lat="34.7786374" lon="32.4224455"><ele>84.4</ele><time>2015-04-24T14:53:20.0000000+00:00</time></trkpt><trkpt lat="34.7785902" lon="32.4224864"><ele>84.8</ele><time>2015-04-24T14:53:22.0000000+00:00</time></trkpt><trkpt lat="34.7785314" lon="32.4225219"><ele>84.4</ele><time>2015-04-24T14:53:24.0000000+00:00</time></trkpt><trkpt lat="34.7784702" lon="32.4225528"><ele>83.8</ele><time>2015-04-24T14:53:26.0000000+00:00</time></trkpt><trkpt lat="34.7784128" lon="32.4225841"><ele>83.1</ele><time>2015-04-24T14:53:28.0000000+00:00</time></trkpt><trkpt lat="34.7783551" lon="32.4226122"><ele>83.0</ele><time>2015-04-24T14:53:30.0000000+00:00</time></trkpt><trkpt lat="34.778298" lon="32.4226395"><ele>82.9</ele><time>2015-04-24T14:53:32.0000000+00:00</time></trkpt><trkpt lat="34.7782317" lon="32.422664"><ele>82.9</ele><time>2015-04-24T14:53:34.0000000+00:00</time></trkpt><trkpt lat="34.7781579" lon="32.4226798"><ele>82.4</ele><time>2015-04-24T14:53:36.0000000+00:00</time></trkpt><trkpt lat="34.7780887" lon="32.422691"><ele>82.8</ele><time>2015-04-24T14:53:38.0000000+00:00</time></trkpt><trkpt lat="34.7780308" lon="32.4226976"><ele>82.1</ele><time>2015-04-24T14:53:40.0000000+00:00</time></trkpt><trkpt lat="34.7779795" lon="32.4227059"><ele>81.5</ele><time>2015-04-24T14:53:42.0000000+00:00</time></trkpt><trkpt lat="34.7779263" lon="32.4227149"><ele>81.9</ele><time>2015-04-24T14:53:47.0000000+00:00</time></trkpt><trkpt lat="34.7778736" lon="32.4226882"><ele>81.2</ele><time>2015-04-24T14:53:49.0000000+00:00</time></trkpt><trkpt lat="34.7778275" lon="32.4226282"><ele>81.0</ele><time>2015-04-24T14:53:51.0000000+00:00</time></trkpt><trkpt lat="34.7778156" lon="32.422561"><ele>80.9</ele><time>2015-04-24T14:53:53.0000000+00:00</time></trkpt><trkpt lat="34.7778184" lon="32.4224969"><ele>81.4</ele><time>2015-04-24T14:53:55.0000000+00:00</time></trkpt><trkpt lat="34.7778207" lon="32.4224346"><ele>81.8</ele><time>2015-04-24T14:53:57.0000000+00:00</time></trkpt><trkpt lat="34.7777976" lon="32.4223859"><ele>82.1</ele><time>2015-04-24T14:53:59.0000000+00:00</time></trkpt><trkpt lat="34.7777527" lon="32.4223679"><ele>81.2</ele><time>2015-04-24T14:54:01.0000000+00:00</time></trkpt><trkpt lat="34.7777571" lon="32.4222996"><ele>82.1</ele><time>2015-04-24T14:54:07.0000000+00:00</time></trkpt><trkpt lat="34.7777364" lon="32.4222228"><ele>83.2</ele><time>2015-04-24T14:54:09.0000000+00:00</time></trkpt><trkpt lat="34.7777057" lon="32.4221325"><ele>83.5</ele><time>2015-04-24T14:54:11.0000000+00:00</time></trkpt><trkpt lat="34.7776725" lon="32.4220416"><ele>83.1</ele><time>2015-04-24T14:54:13.0000000+00:00</time></trkpt><trkpt lat="34.7776431" lon="32.4219493"><ele>82.2</ele><time>2015-04-24T14:54:15.0000000+00:00</time></trkpt><trkpt lat="34.7776242" lon="32.4218669"><ele>82.5</ele><time>2015-04-24T14:54:17.0000000+00:00</time></trkpt><trkpt lat="34.777615" lon="32.421796"><ele>83.3</ele><time>2015-04-24T14:54:19.0000000+00:00</time></trkpt><trkpt lat="34.7776185" lon="32.421723"><ele>85.1</ele><time>2015-04-24T14:54:22.0000000+00:00</time></trkpt><trkpt lat="34.7776163" lon="32.4216655"><ele>85.7</ele><time>2015-04-24T14:54:24.0000000+00:00</time></trkpt><trkpt lat="34.7776286" lon="32.4216086"><ele>84.6</ele><time>2015-04-24T14:54:26.0000000+00:00</time></trkpt><trkpt lat="34.7776602" lon="32.4215664"><ele>82.9</ele><time>2015-04-24T14:54:28.0000000+00:00</time></trkpt><trkpt lat="34.7776845" lon="32.4215126"><ele>82.0</ele><time>2015-04-24T14:54:31.0000000+00:00</time></trkpt><trkpt lat="34.777685" lon="32.4214405"><ele>80.6</ele><time>2015-04-24T14:54:34.0000000+00:00</time></trkpt><trkpt lat="34.7776697" lon="32.4213494"><ele>79.1</ele><time>2015-04-24T14:54:36.0000000+00:00</time></trkpt><trkpt lat="34.7776587" lon="32.421296"><ele>78.5</ele><time>2015-04-24T14:54:37.0000000+00:00</time></trkpt><trkpt lat="34.777646" lon="32.4212424"><ele>78.2</ele><time>2015-04-24T14:54:38.0000000+00:00</time></trkpt><trkpt lat="34.7776318" lon="32.4211899"><ele>78.1</ele><time>2015-04-24T14:54:39.0000000+00:00</time></trkpt><trkpt lat="34.7775982" lon="32.4210952"><ele>78.5</ele><time>2015-04-24T14:54:41.0000000+00:00</time></trkpt><trkpt lat="34.7775531" lon="32.4210084"><ele>77.6</ele><time>2015-04-24T14:54:43.0000000+00:00</time></trkpt><trkpt lat="34.7775003" lon="32.4209297"><ele>77.1</ele><time>2015-04-24T14:54:45.0000000+00:00</time></trkpt><trkpt lat="34.7774371" lon="32.4208678"><ele>77.2</ele><time>2015-04-24T14:54:47.0000000+00:00</time></trkpt><trkpt lat="34.7773712" lon="32.4208167"><ele>77.0</ele><time>2015-04-24T14:54:49.0000000+00:00</time></trkpt><trkpt lat="34.7773058" lon="32.4207608"><ele>76.4</ele><time>2015-04-24T14:54:51.0000000+00:00</time></trkpt><trkpt lat="34.7772528" lon="32.420704"><ele>74.8</ele><time>2015-04-24T14:54:53.0000000+00:00</time></trkpt><trkpt lat="34.7772282" lon="32.4206442"><ele>75.0</ele><time>2015-04-24T14:54:57.0000000+00:00</time></trkpt><trkpt lat="34.7772681" lon="32.4206081"><ele>74.7</ele><time>2015-04-24T14:54:59.0000000+00:00</time></trkpt><trkpt lat="34.7773372" lon="32.4205725"><ele>74.4</ele><time>2015-04-24T14:55:01.0000000+00:00</time></trkpt><trkpt lat="34.7774048" lon="32.4205369"><ele>74.8</ele><time>2015-04-24T14:55:03.0000000+00:00</time></trkpt><trkpt lat="34.7774698" lon="32.4205012"><ele>74.9</ele><time>2015-04-24T14:55:05.0000000+00:00</time></trkpt><trkpt lat="34.777523" lon="32.4204706"><ele>73.4</ele><time>2015-04-24T14:55:07.0000000+00:00</time></trkpt><trkpt lat="34.7775674" lon="32.4204332"><ele>71.2</ele><time>2015-04-24T14:55:10.0000000+00:00</time></trkpt><trkpt lat="34.7776108" lon="32.4203917"><ele>71.7</ele><time>2015-04-24T14:55:27.0000000+00:00</time></trkpt><trkpt lat="34.7776629" lon="32.4203426"><ele>70.6</ele><time>2015-04-24T14:55:29.0000000+00:00</time></trkpt><trkpt lat="34.7777254" lon="32.4202782"><ele>70.6</ele><time>2015-04-24T14:55:31.0000000+00:00</time></trkpt><trkpt lat="34.7777862" lon="32.4202098"><ele>70.8</ele><time>2015-04-24T14:55:33.0000000+00:00</time></trkpt><trkpt lat="34.7778482" lon="32.4201456"><ele>70.9</ele><time>2015-04-24T14:55:35.0000000+00:00</time></trkpt><trkpt lat="34.7778992" lon="32.4200711"><ele>70.2</ele><time>2015-04-24T14:55:37.0000000+00:00</time></trkpt><trkpt lat="34.7779513" lon="32.4199962"><ele>70.7</ele><time>2015-04-24T14:55:39.0000000+00:00</time></trkpt><trkpt lat="34.7780079" lon="32.4199234"><ele>70.1</ele><time>2015-04-24T14:55:41.0000000+00:00</time></trkpt><trkpt lat="34.7780498" lon="32.4198647"><ele>70.5</ele><time>2015-04-24T14:55:42.0000000+00:00</time></trkpt><trkpt lat="34.7781071" lon="32.4197884"><ele>70.6</ele><time>2015-04-24T14:55:44.0000000+00:00</time></trkpt><trkpt lat="34.7781674" lon="32.4197218"><ele>70.8</ele><time>2015-04-24T14:55:46.0000000+00:00</time></trkpt><trkpt lat="34.7782172" lon="32.4196378"><ele>70.9</ele><time>2015-04-24T14:55:48.0000000+00:00</time></trkpt><trkpt lat="34.7782678" lon="32.4195834"><ele>70.2</ele><time>2015-04-24T14:55:50.0000000+00:00</time></trkpt><trkpt lat="34.778318" lon="32.4195519"><ele>70.0</ele><time>2015-04-24T14:55:52.0000000+00:00</time></trkpt><trkpt lat="34.7783695" lon="32.4195846"><ele>68.9</ele><time>2015-04-24T14:55:54.0000000+00:00</time></trkpt><trkpt lat="34.7784114" lon="32.419614"><ele>67.7</ele><time>2015-04-24T14:55:56.0000000+00:00</time></trkpt><trkpt lat="34.7784693" lon="32.419631"><ele>66.6</ele><time>2015-04-24T14:55:58.0000000+00:00</time></trkpt><trkpt lat="34.7785285" lon="32.419657"><ele>68.1</ele><time>2015-04-24T14:56:00.0000000+00:00</time></trkpt><trkpt lat="34.7785922" lon="32.4196907"><ele>69.7</ele><time>2015-04-24T14:56:02.0000000+00:00</time></trkpt><trkpt lat="34.7786568" lon="32.419733"><ele>72.6</ele><time>2015-04-24T14:56:04.0000000+00:00</time></trkpt><trkpt lat="34.7787212" lon="32.4197664"><ele>74.1</ele><time>2015-04-24T14:56:06.0000000+00:00</time></trkpt><trkpt lat="34.7787764" lon="32.4198069"><ele>73.5</ele><time>2015-04-24T14:56:08.0000000+00:00</time></trkpt><trkpt lat="34.7787921" lon="32.4198877"><ele>75.3</ele><time>2015-04-24T14:56:10.0000000+00:00</time></trkpt><trkpt lat="34.778832" lon="32.4199387"><ele>77.6</ele><time>2015-04-24T14:56:13.0000000+00:00</time></trkpt><trkpt lat="34.7788959" lon="32.4199052"><ele>74.1</ele><time>2015-04-24T14:56:15.0000000+00:00</time></trkpt><trkpt lat="34.7789608" lon="32.4198551"><ele>72.0</ele><time>2015-04-24T14:56:17.0000000+00:00</time></trkpt><trkpt lat="34.7790256" lon="32.4197979"><ele>70.7</ele><time>2015-04-24T14:56:19.0000000+00:00</time></trkpt><trkpt lat="34.779084" lon="32.4197183"><ele>70.6</ele><time>2015-04-24T14:56:21.0000000+00:00</time></trkpt><trkpt lat="34.779143" lon="32.4196476"><ele>70.6</ele><time>2015-04-24T14:56:23.0000000+00:00</time></trkpt><trkpt lat="34.7792073" lon="32.4195897"><ele>70.8</ele><time>2015-04-24T14:56:25.0000000+00:00</time></trkpt><trkpt lat="34.7792711" lon="32.4195378"><ele>70.9</ele><time>2015-04-24T14:56:27.0000000+00:00</time></trkpt><trkpt lat="34.7793257" lon="32.4195035"><ele>70.9</ele><time>2015-04-24T14:56:29.0000000+00:00</time></trkpt><trkpt lat="34.7793734" lon="32.4194626"><ele>70.9</ele><time>2015-04-24T14:56:32.0000000+00:00</time></trkpt><trkpt lat="34.7794198" lon="32.4193946"><ele>70.8</ele><time>2015-04-24T14:56:35.0000000+00:00</time></trkpt><trkpt lat="34.77947" lon="32.4193356"><ele>71.6</ele><time>2015-04-24T14:56:37.0000000+00:00</time></trkpt><trkpt lat="34.7795296" lon="32.4192843"><ele>71.9</ele><time>2015-04-24T14:56:39.0000000+00:00</time></trkpt><trkpt lat="34.7795896" lon="32.4192325"><ele>72.7</ele><time>2015-04-24T14:56:41.0000000+00:00</time></trkpt><trkpt lat="34.7796422" lon="32.4191764"><ele>72.9</ele><time>2015-04-24T14:56:43.0000000+00:00</time></trkpt><trkpt lat="34.7796864" lon="32.4191116"><ele>72.9</ele><time>2015-04-24T14:56:45.0000000+00:00</time></trkpt><trkpt lat="34.7797251" lon="32.41905"><ele>72.9</ele><time>2015-04-24T14:56:47.0000000+00:00</time></trkpt><trkpt lat="34.7797491" lon="32.4189909"><ele>72.4</ele><time>2015-04-24T14:56:49.0000000+00:00</time></trkpt><trkpt lat="34.7797701" lon="32.4189201"><ele>72.8</ele><time>2015-04-24T14:56:51.0000000+00:00</time></trkpt><trkpt lat="34.7797899" lon="32.4188411"><ele>72.9</ele><time>2015-04-24T14:56:53.0000000+00:00</time></trkpt><trkpt lat="34.7798096" lon="32.4187712"><ele>72.9</ele><time>2015-04-24T14:56:55.0000000+00:00</time></trkpt><trkpt lat="34.7798311" lon="32.4186956"><ele>72.1</ele><time>2015-04-24T14:56:58.0000000+00:00</time></trkpt><trkpt lat="34.7798542" lon="32.4186326"><ele>72.0</ele><time>2015-04-24T14:57:00.0000000+00:00</time></trkpt><trkpt lat="34.7799104" lon="32.4185425"><ele>72.7</ele><time>2015-04-24T14:57:02.0000000+00:00</time></trkpt><trkpt lat="34.7799658" lon="32.4185044"><ele>72.8</ele><time>2015-04-24T14:57:03.0000000+00:00</time></trkpt><trkpt lat="34.7800306" lon="32.4184358"><ele>71.1</ele><time>2015-04-24T14:57:05.0000000+00:00</time></trkpt><trkpt lat="34.7800671" lon="32.4184"><ele>71.0</ele><time>2015-04-24T14:57:06.0000000+00:00</time></trkpt><trkpt lat="34.7801086" lon="32.4183718"><ele>71.0</ele><time>2015-04-24T14:57:07.0000000+00:00</time></trkpt><trkpt lat="34.780151" lon="32.4183406"><ele>71.5</ele><time>2015-04-24T14:57:08.0000000+00:00</time></trkpt><trkpt lat="34.780201" lon="32.418307"><ele>71.2</ele><time>2015-04-24T14:57:09.0000000+00:00</time></trkpt><trkpt lat="34.7802492" lon="32.4182815"><ele>71.6</ele><time>2015-04-24T14:57:10.0000000+00:00</time></trkpt><trkpt lat="34.7802917" lon="32.4182515"><ele>70.7</ele><time>2015-04-24T14:57:11.0000000+00:00</time></trkpt><trkpt lat="34.7803475" lon="32.4182346"><ele>70.3</ele><time>2015-04-24T14:57:12.0000000+00:00</time></trkpt><trkpt lat="34.7803935" lon="32.4182092"><ele>69.6</ele><time>2015-04-24T14:57:13.0000000+00:00</time></trkpt><trkpt lat="34.7804416" lon="32.4181907"><ele>69.3</ele><time>2015-04-24T14:57:14.0000000+00:00</time></trkpt><trkpt lat="34.7804874" lon="32.4181703"><ele>69.1</ele><time>2015-04-24T14:57:15.0000000+00:00</time></trkpt><trkpt lat="34.7805327" lon="32.4181536"><ele>69.0</ele><time>2015-04-24T14:57:16.0000000+00:00</time></trkpt><trkpt lat="34.780625" lon="32.4181154"><ele>69.5</ele><time>2015-04-24T14:57:18.0000000+00:00</time></trkpt><trkpt lat="34.7807036" lon="32.4180796"><ele>70.3</ele><time>2015-04-24T14:57:20.0000000+00:00</time></trkpt><trkpt lat="34.7807799" lon="32.4180464"><ele>70.8</ele><time>2015-04-24T14:57:22.0000000+00:00</time></trkpt><trkpt lat="34.7808437" lon="32.4179867"><ele>70.1</ele><time>2015-04-24T14:57:24.0000000+00:00</time></trkpt><trkpt lat="34.7808966" lon="32.4179547"><ele>70.0</ele><time>2015-04-24T14:57:26.0000000+00:00</time></trkpt><trkpt lat="34.7809473" lon="32.4179335"><ele>69.9</ele><time>2015-04-24T14:57:28.0000000+00:00</time></trkpt><trkpt lat="34.7810072" lon="32.4179049"><ele>71.2</ele><time>2015-04-24T14:57:30.0000000+00:00</time></trkpt><trkpt lat="34.7810647" lon="32.4178732"><ele>72.2</ele><time>2015-04-24T14:57:32.0000000+00:00</time></trkpt><trkpt lat="34.7811195" lon="32.4178459"><ele>73.3</ele><time>2015-04-24T14:57:34.0000000+00:00</time></trkpt><trkpt lat="34.781168" lon="32.417809"><ele>74.8</ele><time>2015-04-24T14:57:36.0000000+00:00</time></trkpt><trkpt lat="34.7811774" lon="32.417737"><ele>75.9</ele><time>2015-04-24T14:57:38.0000000+00:00</time></trkpt><trkpt lat="34.7811783" lon="32.4176607"><ele>76.2</ele><time>2015-04-24T14:57:40.0000000+00:00</time></trkpt><trkpt lat="34.7811832" lon="32.4176008"><ele>76.5</ele><time>2015-04-24T14:57:42.0000000+00:00</time></trkpt><trkpt lat="34.7812031" lon="32.4175308"><ele>76.9</ele><time>2015-04-24T14:57:45.0000000+00:00</time></trkpt><trkpt lat="34.7812449" lon="32.4174679"><ele>76.9</ele><time>2015-04-24T14:57:48.0000000+00:00</time></trkpt><trkpt lat="34.7812896" lon="32.4174286"><ele>78.4</ele><time>2015-04-24T14:57:51.0000000+00:00</time></trkpt><trkpt lat="34.7813186" lon="32.4173731"><ele>79.7</ele><time>2015-04-24T14:57:54.0000000+00:00</time></trkpt><trkpt lat="34.781344" lon="32.417307"><ele>80.4</ele><time>2015-04-24T14:57:57.0000000+00:00</time></trkpt><trkpt lat="34.7813766" lon="32.4172521"><ele>81.4</ele><time>2015-04-24T14:58:00.0000000+00:00</time></trkpt><trkpt lat="34.7813968" lon="32.417192"><ele>81.5</ele><time>2015-04-24T14:58:03.0000000+00:00</time></trkpt><trkpt lat="34.7814202" lon="32.417135"><ele>81.8</ele><time>2015-04-24T14:58:05.0000000+00:00</time></trkpt><trkpt lat="34.781463" lon="32.4170796"><ele>81.9</ele><time>2015-04-24T14:58:07.0000000+00:00</time></trkpt><trkpt lat="34.7815074" lon="32.4170223"><ele>81.9</ele><time>2015-04-24T14:58:09.0000000+00:00</time></trkpt><trkpt lat="34.7815451" lon="32.4169603"><ele>81.9</ele><time>2015-04-24T14:58:11.0000000+00:00</time></trkpt><trkpt lat="34.7815657" lon="32.4168876"><ele>82.4</ele><time>2015-04-24T14:58:13.0000000+00:00</time></trkpt><trkpt lat="34.7815757" lon="32.4168153"><ele>82.3</ele><time>2015-04-24T14:58:15.0000000+00:00</time></trkpt><trkpt lat="34.7815634" lon="32.4167464"><ele>82.0</ele><time>2015-04-24T14:58:17.0000000+00:00</time></trkpt><trkpt lat="34.7815332" lon="32.4166879"><ele>81.5</ele><time>2015-04-24T14:58:19.0000000+00:00</time></trkpt><trkpt lat="34.7815207" lon="32.4166218"><ele>81.7</ele><time>2015-04-24T14:58:22.0000000+00:00</time></trkpt><trkpt lat="34.7815294" lon="32.4165658"><ele>85.0</ele><time>2015-04-24T14:58:26.0000000+00:00</time></trkpt><trkpt lat="34.7815261" lon="32.4164991"><ele>86.8</ele><time>2015-04-24T14:58:31.0000000+00:00</time></trkpt><trkpt lat="34.7815144" lon="32.4164421"><ele>87.7</ele><time>2015-04-24T14:58:35.0000000+00:00</time></trkpt><trkpt lat="34.7814934" lon="32.4163676"><ele>87.9</ele><time>2015-04-24T14:58:38.0000000+00:00</time></trkpt><trkpt lat="34.7814701" lon="32.4162994"><ele>87.2</ele><time>2015-04-24T14:58:40.0000000+00:00</time></trkpt><trkpt lat="34.7814487" lon="32.4162247"><ele>86.5</ele><time>2015-04-24T14:58:42.0000000+00:00</time></trkpt><trkpt lat="34.7814359" lon="32.4161712"><ele>85.7</ele><time>2015-04-24T14:58:43.0000000+00:00</time></trkpt><trkpt lat="34.7814234" lon="32.4161028"><ele>84.8</ele><time>2015-04-24T14:58:44.0000000+00:00</time></trkpt><trkpt lat="34.7814021" lon="32.4159916"><ele>83.4</ele><time>2015-04-24T14:58:45.0000000+00:00</time></trkpt><trkpt lat="34.7813923" lon="32.4158962"><ele>81.7</ele><time>2015-04-24T14:58:46.0000000+00:00</time></trkpt><trkpt lat="34.7813814" lon="32.4157906"><ele>79.8</ele><time>2015-04-24T14:58:47.0000000+00:00</time></trkpt><trkpt lat="34.7813707" lon="32.4156842"><ele>77.9</ele><time>2015-04-24T14:58:48.0000000+00:00</time></trkpt><trkpt lat="34.781357" lon="32.4155655"><ele>76.4</ele><time>2015-04-24T14:58:49.0000000+00:00</time></trkpt><trkpt lat="34.781343" lon="32.4154505"><ele>75.2</ele><time>2015-04-24T14:58:50.0000000+00:00</time></trkpt><trkpt lat="34.7813412" lon="32.4153419"><ele>74.5</ele><time>2015-04-24T14:58:51.0000000+00:00</time></trkpt><trkpt lat="34.7813424" lon="32.4152377"><ele>73.7</ele><time>2015-04-24T14:58:52.0000000+00:00</time></trkpt><trkpt lat="34.7813442" lon="32.415133"><ele>72.8</ele><time>2015-04-24T14:58:53.0000000+00:00</time></trkpt><trkpt lat="34.78135" lon="32.4150271"><ele>71.9</ele><time>2015-04-24T14:58:54.0000000+00:00</time></trkpt><trkpt lat="34.7813603" lon="32.4149236"><ele>71.4</ele><time>2015-04-24T14:58:55.0000000+00:00</time></trkpt><trkpt lat="34.7813671" lon="32.4148137"><ele>70.7</ele><time>2015-04-24T14:58:56.0000000+00:00</time></trkpt><trkpt lat="34.7813907" lon="32.4147141"><ele>69.8</ele><time>2015-04-24T14:58:57.0000000+00:00</time></trkpt><trkpt lat="34.7814102" lon="32.4146159"><ele>68.9</ele><time>2015-04-24T14:58:58.0000000+00:00</time></trkpt><trkpt lat="34.7814321" lon="32.4145168"><ele>67.9</ele><time>2015-04-24T14:58:59.0000000+00:00</time></trkpt><trkpt lat="34.7814633" lon="32.4144149"><ele>67.4</ele><time>2015-04-24T14:59:00.0000000+00:00</time></trkpt><trkpt lat="34.7815017" lon="32.4143213"><ele>66.7</ele><time>2015-04-24T14:59:01.0000000+00:00</time></trkpt><trkpt lat="34.7815431" lon="32.4142345"><ele>66.8</ele><time>2015-04-24T14:59:02.0000000+00:00</time></trkpt><trkpt lat="34.7815812" lon="32.4141527"><ele>66.4</ele><time>2015-04-24T14:59:03.0000000+00:00</time></trkpt><trkpt lat="34.7816181" lon="32.4140706"><ele>65.6</ele><time>2015-04-24T14:59:04.0000000+00:00</time></trkpt><trkpt lat="34.7816546" lon="32.4139972"><ele>65.3</ele><time>2015-04-24T14:59:05.0000000+00:00</time></trkpt><trkpt lat="34.7816891" lon="32.4139269"><ele>65.1</ele><time>2015-04-24T14:59:06.0000000+00:00</time></trkpt><trkpt lat="34.7817183" lon="32.4138612"><ele>64.5</ele><time>2015-04-24T14:59:07.0000000+00:00</time></trkpt><trkpt lat="34.7817456" lon="32.4137987"><ele>64.2</ele><time>2015-04-24T14:59:08.0000000+00:00</time></trkpt><trkpt lat="34.7817688" lon="32.4137417"><ele>64.1</ele><time>2015-04-24T14:59:09.0000000+00:00</time></trkpt><trkpt lat="34.781787" lon="32.4136895"><ele>64.0</ele><time>2015-04-24T14:59:10.0000000+00:00</time></trkpt><trkpt lat="34.7818064" lon="32.4136397"><ele>64.0</ele><time>2015-04-24T14:59:11.0000000+00:00</time></trkpt><trkpt lat="34.7818357" lon="32.4135524"><ele>64.4</ele><time>2015-04-24T14:59:13.0000000+00:00</time></trkpt><trkpt lat="34.7818529" lon="32.4134738"><ele>64.8</ele><time>2015-04-24T14:59:15.0000000+00:00</time></trkpt><trkpt lat="34.7818749" lon="32.4134149"><ele>64.9</ele><time>2015-04-24T14:59:17.0000000+00:00</time></trkpt><trkpt lat="34.7819199" lon="32.4134208"><ele>64.9</ele><time>2015-04-24T14:59:20.0000000+00:00</time></trkpt><trkpt lat="34.7818981" lon="32.4135001"><ele>65.2</ele><time>2015-04-24T14:59:23.0000000+00:00</time></trkpt><trkpt lat="34.7818739" lon="32.4135633"><ele>65.5</ele><time>2015-04-24T14:59:25.0000000+00:00</time></trkpt><trkpt lat="34.7818478" lon="32.4136332"><ele>65.8</ele><time>2015-04-24T14:59:27.0000000+00:00</time></trkpt><trkpt lat="34.7818189" lon="32.4137"><ele>65.9</ele><time>2015-04-24T14:59:29.0000000+00:00</time></trkpt><trkpt lat="34.7817759" lon="32.413753"><ele>65.4</ele><time>2015-04-24T14:59:31.0000000+00:00</time></trkpt><trkpt lat="34.7817248" lon="32.4138016"><ele>64.6</ele><time>2015-04-24T14:59:33.0000000+00:00</time></trkpt><trkpt lat="34.7816439" lon="32.4138653"><ele>63.6</ele><time>2015-04-24T14:59:35.0000000+00:00</time></trkpt><trkpt lat="34.7815827" lon="32.4138971"><ele>62.8</ele><time>2015-04-24T14:59:36.0000000+00:00</time></trkpt><trkpt lat="34.7815369" lon="32.4139371"><ele>61.8</ele><time>2015-04-24T14:59:37.0000000+00:00</time></trkpt><trkpt lat="34.7814964" lon="32.4139738"><ele>61.4</ele><time>2015-04-24T14:59:38.0000000+00:00</time></trkpt><trkpt lat="34.7814518" lon="32.4140192"><ele>61.2</ele><time>2015-04-24T14:59:39.0000000+00:00</time></trkpt><trkpt lat="34.7814088" lon="32.41406"><ele>60.5</ele><time>2015-04-24T14:59:40.0000000+00:00</time></trkpt><trkpt lat="34.7813678" lon="32.414095"><ele>59.7</ele><time>2015-04-24T14:59:41.0000000+00:00</time></trkpt><trkpt lat="34.7813232" lon="32.4141292"><ele>58.8</ele><time>2015-04-24T14:59:42.0000000+00:00</time></trkpt><trkpt lat="34.7812721" lon="32.4141641"><ele>57.9</ele><time>2015-04-24T14:59:43.0000000+00:00</time></trkpt><trkpt lat="34.7812169" lon="32.4142028"><ele>56.9</ele><time>2015-04-24T14:59:44.0000000+00:00</time></trkpt><trkpt lat="34.7811623" lon="32.414243"><ele>55.9</ele><time>2015-04-24T14:59:45.0000000+00:00</time></trkpt><trkpt lat="34.7811068" lon="32.4142766"><ele>54.9</ele><time>2015-04-24T14:59:46.0000000+00:00</time></trkpt><trkpt lat="34.7810544" lon="32.4143051"><ele>53.9</ele><time>2015-04-24T14:59:47.0000000+00:00</time></trkpt><trkpt lat="34.7810062" lon="32.4143183"><ele>52.9</ele><time>2015-04-24T14:59:48.0000000+00:00</time></trkpt><trkpt lat="34.780944" lon="32.4143302"><ele>51.4</ele><time>2015-04-24T14:59:50.0000000+00:00</time></trkpt><trkpt lat="34.7808916" lon="32.4142777"><ele>51.1</ele><time>2015-04-24T14:59:52.0000000+00:00</time></trkpt><trkpt lat="34.7808962" lon="32.4141913"><ele>51.0</ele><time>2015-04-24T14:59:54.0000000+00:00</time></trkpt><trkpt lat="34.7809033" lon="32.4141008"><ele>50.2</ele><time>2015-04-24T14:59:56.0000000+00:00</time></trkpt><trkpt lat="34.7809047" lon="32.4140046"><ele>50.0</ele><time>2015-04-24T14:59:58.0000000+00:00</time></trkpt><trkpt lat="34.780912" lon="32.4139151"><ele>49.4</ele><time>2015-04-24T15:00:00.0000000+00:00</time></trkpt><trkpt lat="34.7809136" lon="32.4138157"><ele>49.1</ele><time>2015-04-24T15:00:02.0000000+00:00</time></trkpt><trkpt lat="34.7809116" lon="32.4137587"><ele>49.5</ele><time>2015-04-24T15:00:03.0000000+00:00</time></trkpt><trkpt lat="34.7809059" lon="32.4136968"><ele>49.7</ele><time>2015-04-24T15:00:04.0000000+00:00</time></trkpt><trkpt lat="34.7808918" lon="32.4136358"><ele>50.3</ele><time>2015-04-24T15:00:05.0000000+00:00</time></trkpt><trkpt lat="34.7808585" lon="32.4135258"><ele>50.8</ele><time>2015-04-24T15:00:07.0000000+00:00</time></trkpt><trkpt lat="34.780842" lon="32.4134707"><ele>50.4</ele><time>2015-04-24T15:00:08.0000000+00:00</time></trkpt><trkpt lat="34.7808379" lon="32.4133582"><ele>50.0</ele><time>2015-04-24T15:00:10.0000000+00:00</time></trkpt><trkpt lat="34.7808455" lon="32.4132926"><ele>50.0</ele><time>2015-04-24T15:00:11.0000000+00:00</time></trkpt><trkpt lat="34.7808493" lon="32.4132166"><ele>49.5</ele><time>2015-04-24T15:00:12.0000000+00:00</time></trkpt><trkpt lat="34.7808548" lon="32.4131461"><ele>49.7</ele><time>2015-04-24T15:00:13.0000000+00:00</time></trkpt><trkpt lat="34.7808601" lon="32.4130756"><ele>50.3</ele><time>2015-04-24T15:00:14.0000000+00:00</time></trkpt><trkpt lat="34.7808588" lon="32.4130071"><ele>50.6</ele><time>2015-04-24T15:00:15.0000000+00:00</time></trkpt><trkpt lat="34.7808566" lon="32.4129374"><ele>50.8</ele><time>2015-04-24T15:00:16.0000000+00:00</time></trkpt><trkpt lat="34.7808511" lon="32.4128611"><ele>50.9</ele><time>2015-04-24T15:00:17.0000000+00:00</time></trkpt><trkpt lat="34.7808423" lon="32.4127871"><ele>50.4</ele><time>2015-04-24T15:00:18.0000000+00:00</time></trkpt><trkpt lat="34.7808332" lon="32.4127174"><ele>50.2</ele><time>2015-04-24T15:00:19.0000000+00:00</time></trkpt><trkpt lat="34.7808251" lon="32.4126463"><ele>50.0</ele><time>2015-04-24T15:00:20.0000000+00:00</time></trkpt><trkpt lat="34.7808259" lon="32.4125779"><ele>50.0</ele><time>2015-04-24T15:00:21.0000000+00:00</time></trkpt><trkpt lat="34.7808223" lon="32.4125082"><ele>49.5</ele><time>2015-04-24T15:00:22.0000000+00:00</time></trkpt><trkpt lat="34.780826" lon="32.4124072"><ele>48.6</ele><time>2015-04-24T15:00:24.0000000+00:00</time></trkpt><trkpt lat="34.7808124" lon="32.4123514"><ele>48.8</ele><time>2015-04-24T15:00:26.0000000+00:00</time></trkpt><trkpt lat="34.7807611" lon="32.4123619"><ele>48.8</ele><time>2015-04-24T15:00:32.0000000+00:00</time></trkpt><trkpt lat="34.7807152" lon="32.4123849"><ele>48.9</ele><time>2015-04-24T15:00:37.0000000+00:00</time></trkpt><trkpt lat="34.7806705" lon="32.4123398"><ele>48.9</ele><time>2015-04-24T15:00:40.0000000+00:00</time></trkpt><trkpt lat="34.78063" lon="32.4122985"><ele>48.9</ele><time>2015-04-24T15:00:42.0000000+00:00</time></trkpt><trkpt lat="34.7805707" lon="32.4122443"><ele>48.4</ele><time>2015-04-24T15:00:44.0000000+00:00</time></trkpt><trkpt lat="34.7805252" lon="32.4121536"><ele>48.1</ele><time>2015-04-24T15:00:46.0000000+00:00</time></trkpt><trkpt lat="34.7805074" lon="32.4120999"><ele>48.0</ele><time>2015-04-24T15:00:47.0000000+00:00</time></trkpt><trkpt lat="34.7804847" lon="32.4120207"><ele>48.0</ele><time>2015-04-24T15:00:48.0000000+00:00</time></trkpt><trkpt lat="34.7804581" lon="32.4119566"><ele>47.4</ele><time>2015-04-24T15:00:49.0000000+00:00</time></trkpt><trkpt lat="34.7804309" lon="32.4118894"><ele>47.2</ele><time>2015-04-24T15:00:50.0000000+00:00</time></trkpt><trkpt lat="34.7804035" lon="32.4118248"><ele>46.6</ele><time>2015-04-24T15:00:51.0000000+00:00</time></trkpt><trkpt lat="34.780378" lon="32.4117543"><ele>46.2</ele><time>2015-04-24T15:00:52.0000000+00:00</time></trkpt><trkpt lat="34.7803523" lon="32.4116916"><ele>46.1</ele><time>2015-04-24T15:00:53.0000000+00:00</time></trkpt><trkpt lat="34.7803263" lon="32.4116274"><ele>46.0</ele><time>2015-04-24T15:00:54.0000000+00:00</time></trkpt><trkpt lat="34.7803006" lon="32.4115555"><ele>45.5</ele><time>2015-04-24T15:00:55.0000000+00:00</time></trkpt><trkpt lat="34.7802757" lon="32.4114967"><ele>45.2</ele><time>2015-04-24T15:00:56.0000000+00:00</time></trkpt><trkpt lat="34.7802553" lon="32.4114449"><ele>45.6</ele><time>2015-04-24T15:00:57.0000000+00:00</time></trkpt><trkpt lat="34.7802304" lon="32.4113986"><ele>45.7</ele><time>2015-04-24T15:00:58.0000000+00:00</time></trkpt><trkpt lat="34.7802049" lon="32.4113524"><ele>45.8</ele><time>2015-04-24T15:00:59.0000000+00:00</time></trkpt><trkpt lat="34.7801718" lon="32.4112654"><ele>45.9</ele><time>2015-04-24T15:01:01.0000000+00:00</time></trkpt><trkpt lat="34.7801418" lon="32.41117"><ele>45.9</ele><time>2015-04-24T15:01:03.0000000+00:00</time></trkpt><trkpt lat="34.7800855" lon="32.4110904"><ele>45.9</ele><time>2015-04-24T15:01:05.0000000+00:00</time></trkpt><trkpt lat="34.7800293" lon="32.4110057"><ele>45.7</ele><time>2015-04-24T15:01:07.0000000+00:00</time></trkpt><trkpt lat="34.7799998" lon="32.410956"><ele>45.8</ele><time>2015-04-24T15:01:08.0000000+00:00</time></trkpt><trkpt lat="34.779968" lon="32.4109033"><ele>45.9</ele><time>2015-04-24T15:01:09.0000000+00:00</time></trkpt><trkpt lat="34.7799376" lon="32.4108609"><ele>45.4</ele><time>2015-04-24T15:01:10.0000000+00:00</time></trkpt><trkpt lat="34.7799034" lon="32.4108161"><ele>44.7</ele><time>2015-04-24T15:01:11.0000000+00:00</time></trkpt><trkpt lat="34.7798706" lon="32.4107725"><ele>44.3</ele><time>2015-04-24T15:01:12.0000000+00:00</time></trkpt><trkpt lat="34.7798355" lon="32.4107305"><ele>44.1</ele><time>2015-04-24T15:01:13.0000000+00:00</time></trkpt><trkpt lat="34.7798008" lon="32.410678"><ele>44.0</ele><time>2015-04-24T15:01:14.0000000+00:00</time></trkpt><trkpt lat="34.7797422" lon="32.4105922"><ele>43.5</ele><time>2015-04-24T15:01:16.0000000+00:00</time></trkpt><trkpt lat="34.7797125" lon="32.4105422"><ele>43.7</ele><time>2015-04-24T15:01:17.0000000+00:00</time></trkpt><trkpt lat="34.7796785" lon="32.4104926"><ele>43.3</ele><time>2015-04-24T15:01:18.0000000+00:00</time></trkpt><trkpt lat="34.7796478" lon="32.410446"><ele>43.1</ele><time>2015-04-24T15:01:19.0000000+00:00</time></trkpt><trkpt lat="34.7796164" lon="32.410394"><ele>42.5</ele><time>2015-04-24T15:01:20.0000000+00:00</time></trkpt><trkpt lat="34.7795871" lon="32.4103434"><ele>42.2</ele><time>2015-04-24T15:01:21.0000000+00:00</time></trkpt><trkpt lat="34.7795564" lon="32.4102924"><ele>42.1</ele><time>2015-04-24T15:01:22.0000000+00:00</time></trkpt><trkpt lat="34.7795241" lon="32.4102471"><ele>42.0</ele><time>2015-04-24T15:01:23.0000000+00:00</time></trkpt><trkpt lat="34.7794932" lon="32.4101986"><ele>42.0</ele><time>2015-04-24T15:01:24.0000000+00:00</time></trkpt><trkpt lat="34.779464" lon="32.4101487"><ele>41.9</ele><time>2015-04-24T15:01:25.0000000+00:00</time></trkpt><trkpt lat="34.7794317" lon="32.4100987"><ele>41.9</ele><time>2015-04-24T15:01:26.0000000+00:00</time></trkpt><trkpt lat="34.7793996" lon="32.410048"><ele>41.4</ele><time>2015-04-24T15:01:27.0000000+00:00</time></trkpt><trkpt lat="34.7793703" lon="32.4099958"><ele>41.2</ele><time>2015-04-24T15:01:28.0000000+00:00</time></trkpt><trkpt lat="34.7793415" lon="32.4099398"><ele>41.1</ele><time>2015-04-24T15:01:29.0000000+00:00</time></trkpt><trkpt lat="34.7793155" lon="32.4098813"><ele>41.0</ele><time>2015-04-24T15:01:30.0000000+00:00</time></trkpt><trkpt lat="34.7792919" lon="32.4098253"><ele>40.5</ele><time>2015-04-24T15:01:31.0000000+00:00</time></trkpt><trkpt lat="34.7792719" lon="32.4097736"><ele>40.2</ele><time>2015-04-24T15:01:32.0000000+00:00</time></trkpt><trkpt lat="34.7792522" lon="32.4097138"><ele>40.1</ele><time>2015-04-24T15:01:33.0000000+00:00</time></trkpt><trkpt lat="34.7792344" lon="32.4096592"><ele>40.0</ele><time>2015-04-24T15:01:34.0000000+00:00</time></trkpt><trkpt lat="34.7792185" lon="32.4096031"><ele>40.0</ele><time>2015-04-24T15:01:35.0000000+00:00</time></trkpt><trkpt lat="34.7792055" lon="32.4095452"><ele>39.4</ele><time>2015-04-24T15:01:36.0000000+00:00</time></trkpt><trkpt lat="34.779189" lon="32.4094864"><ele>39.2</ele><time>2015-04-24T15:01:37.0000000+00:00</time></trkpt><trkpt lat="34.7791726" lon="32.4094337"><ele>39.1</ele><time>2015-04-24T15:01:38.0000000+00:00</time></trkpt><trkpt lat="34.7791651" lon="32.4093781"><ele>39.0</ele><time>2015-04-24T15:01:39.0000000+00:00</time></trkpt><trkpt lat="34.7791562" lon="32.4093185"><ele>39.0</ele><time>2015-04-24T15:01:40.0000000+00:00</time></trkpt><trkpt lat="34.7791434" lon="32.4092601"><ele>38.4</ele><time>2015-04-24T15:01:41.0000000+00:00</time></trkpt><trkpt lat="34.7791295" lon="32.4092024"><ele>38.2</ele><time>2015-04-24T15:01:42.0000000+00:00</time></trkpt><trkpt lat="34.7791186" lon="32.4091436"><ele>38.1</ele><time>2015-04-24T15:01:43.0000000+00:00</time></trkpt><trkpt lat="34.7791028" lon="32.4090827"><ele>38.0</ele><time>2015-04-24T15:01:44.0000000+00:00</time></trkpt><trkpt lat="34.7790913" lon="32.4090242"><ele>37.5</ele><time>2015-04-24T15:01:45.0000000+00:00</time></trkpt><trkpt lat="34.7790769" lon="32.4089586"><ele>37.2</ele><time>2015-04-24T15:01:46.0000000+00:00</time></trkpt><trkpt lat="34.7790637" lon="32.4088946"><ele>36.6</ele><time>2015-04-24T15:01:47.0000000+00:00</time></trkpt><trkpt lat="34.7790483" lon="32.4088309"><ele>36.2</ele><time>2015-04-24T15:01:48.0000000+00:00</time></trkpt><trkpt lat="34.7790334" lon="32.4087675"><ele>36.1</ele><time>2015-04-24T15:01:49.0000000+00:00</time></trkpt><trkpt lat="34.779021" lon="32.4087042"><ele>35.5</ele><time>2015-04-24T15:01:50.0000000+00:00</time></trkpt><trkpt lat="34.7790133" lon="32.4086448"><ele>35.2</ele><time>2015-04-24T15:01:51.0000000+00:00</time></trkpt><trkpt lat="34.7789988" lon="32.4085523"><ele>35.0</ele><time>2015-04-24T15:01:53.0000000+00:00</time></trkpt><trkpt lat="34.7789806" lon="32.4084794"><ele>34.2</ele><time>2015-04-24T15:01:55.0000000+00:00</time></trkpt><trkpt lat="34.7789639" lon="32.4084273"><ele>34.0</ele><time>2015-04-24T15:01:57.0000000+00:00</time></trkpt><trkpt lat="34.778951" lon="32.4083713"><ele>34.7</ele><time>2015-04-24T15:01:59.0000000+00:00</time></trkpt><trkpt lat="34.7789343" lon="32.4082906"><ele>34.9</ele><time>2015-04-24T15:02:01.0000000+00:00</time></trkpt><trkpt lat="34.778914" lon="32.4082024"><ele>34.9</ele><time>2015-04-24T15:02:03.0000000+00:00</time></trkpt><trkpt lat="34.7788955" lon="32.4080997"><ele>34.9</ele><time>2015-04-24T15:02:05.0000000+00:00</time></trkpt><trkpt lat="34.7788868" lon="32.4080359"><ele>34.4</ele><time>2015-04-24T15:02:06.0000000+00:00</time></trkpt><trkpt lat="34.7788773" lon="32.4079765"><ele>34.2</ele><time>2015-04-24T15:02:07.0000000+00:00</time></trkpt><trkpt lat="34.7788709" lon="32.4079151"><ele>34.6</ele><time>2015-04-24T15:02:08.0000000+00:00</time></trkpt><trkpt lat="34.7788661" lon="32.407847"><ele>34.7</ele><time>2015-04-24T15:02:09.0000000+00:00</time></trkpt><trkpt lat="34.7788427" lon="32.4077586"><ele>34.9</ele><time>2015-04-24T15:02:11.0000000+00:00</time></trkpt><trkpt lat="34.7788298" lon="32.4076532"><ele>35.7</ele><time>2015-04-24T15:02:13.0000000+00:00</time></trkpt><trkpt lat="34.7788194" lon="32.4075997"><ele>35.8</ele><time>2015-04-24T15:02:14.0000000+00:00</time></trkpt><trkpt lat="34.7788096" lon="32.4075447"><ele>35.9</ele><time>2015-04-24T15:02:15.0000000+00:00</time></trkpt><trkpt lat="34.778782" lon="32.4074291"><ele>36.4</ele><time>2015-04-24T15:02:17.0000000+00:00</time></trkpt><trkpt lat="34.7787728" lon="32.4073667"><ele>36.2</ele><time>2015-04-24T15:02:18.0000000+00:00</time></trkpt><trkpt lat="34.7787566" lon="32.4073128"><ele>36.1</ele><time>2015-04-24T15:02:19.0000000+00:00</time></trkpt><trkpt lat="34.778745" lon="32.4072529"><ele>36.0</ele><time>2015-04-24T15:02:20.0000000+00:00</time></trkpt><trkpt lat="34.7787346" lon="32.4071905"><ele>35.5</ele><time>2015-04-24T15:02:21.0000000+00:00</time></trkpt><trkpt lat="34.7787198" lon="32.4071347"><ele>35.7</ele><time>2015-04-24T15:02:22.0000000+00:00</time></trkpt><trkpt lat="34.7787026" lon="32.4070271"><ele>35.9</ele><time>2015-04-24T15:02:24.0000000+00:00</time></trkpt><trkpt lat="34.7786821" lon="32.4069225"><ele>35.9</ele><time>2015-04-24T15:02:26.0000000+00:00</time></trkpt><trkpt lat="34.7786702" lon="32.4068627"><ele>35.9</ele><time>2015-04-24T15:02:27.0000000+00:00</time></trkpt><trkpt lat="34.7786599" lon="32.4068053"><ele>35.4</ele><time>2015-04-24T15:02:28.0000000+00:00</time></trkpt><trkpt lat="34.7786474" lon="32.4067492"><ele>35.2</ele><time>2015-04-24T15:02:29.0000000+00:00</time></trkpt><trkpt lat="34.778635" lon="32.4066935"><ele>34.6</ele><time>2015-04-24T15:02:30.0000000+00:00</time></trkpt><trkpt lat="34.77861" lon="32.4066212"><ele>34.1</ele><time>2015-04-24T15:02:32.0000000+00:00</time></trkpt><trkpt lat="34.7785973" lon="32.4065646"><ele>33.2</ele><time>2015-04-24T15:02:34.0000000+00:00</time></trkpt><trkpt lat="34.7785898" lon="32.4065093"><ele>33.0</ele><time>2015-04-24T15:02:36.0000000+00:00</time></trkpt><trkpt lat="34.778572" lon="32.4064439"><ele>34.3</ele><time>2015-04-24T15:02:39.0000000+00:00</time></trkpt><trkpt lat="34.7786197" lon="32.4064593"><ele>33.3</ele><time>2015-04-24T15:02:44.0000000+00:00</time></trkpt><trkpt lat="34.7786086" lon="32.4065183"><ele>33.9</ele><time>2015-04-24T15:02:48.0000000+00:00</time></trkpt><trkpt lat="34.778558" lon="32.406492"><ele>31.4</ele><time>2015-04-24T15:02:52.0000000+00:00</time></trkpt><trkpt lat="34.7785569" lon="32.4064349"><ele>33.9</ele><time>2015-04-24T15:03:14.0000000+00:00</time></trkpt><trkpt lat="34.7786058" lon="32.4063796"><ele>34.6</ele><time>2015-04-24T15:03:18.0000000+00:00</time></trkpt><trkpt lat="34.7786749" lon="32.4063541"><ele>34.9</ele><time>2015-04-24T15:03:20.0000000+00:00</time></trkpt><trkpt lat="34.778752" lon="32.4063361"><ele>34.4</ele><time>2015-04-24T15:03:22.0000000+00:00</time></trkpt><trkpt lat="34.778821" lon="32.406322"><ele>33.8</ele><time>2015-04-24T15:03:24.0000000+00:00</time></trkpt><trkpt lat="34.7788703" lon="32.4062845"><ele>33.1</ele><time>2015-04-24T15:03:26.0000000+00:00</time></trkpt><trkpt lat="34.7789238" lon="32.4062523"><ele>33.0</ele><time>2015-04-24T15:03:28.0000000+00:00</time></trkpt><trkpt lat="34.7789913" lon="32.4062333"><ele>32.4</ele><time>2015-04-24T15:03:30.0000000+00:00</time></trkpt><trkpt lat="34.7790682" lon="32.4062168"><ele>32.1</ele><time>2015-04-24T15:03:32.0000000+00:00</time></trkpt><trkpt lat="34.779139" lon="32.4062147"><ele>32.0</ele><time>2015-04-24T15:03:33.0000000+00:00</time></trkpt><trkpt lat="34.7792234" lon="32.4062023"><ele>31.9</ele><time>2015-04-24T15:03:35.0000000+00:00</time></trkpt><trkpt lat="34.7792685" lon="32.4061886"><ele>31.4</ele><time>2015-04-24T15:03:36.0000000+00:00</time></trkpt><trkpt lat="34.7793142" lon="32.4061844"><ele>31.2</ele><time>2015-04-24T15:03:37.0000000+00:00</time></trkpt><trkpt lat="34.7793621" lon="32.4061697"><ele>31.1</ele><time>2015-04-24T15:03:38.0000000+00:00</time></trkpt><trkpt lat="34.7794063" lon="32.4061586"><ele>31.0</ele><time>2015-04-24T15:03:39.0000000+00:00</time></trkpt><trkpt lat="34.7794574" lon="32.4061516"><ele>30.5</ele><time>2015-04-24T15:03:40.0000000+00:00</time></trkpt><trkpt lat="34.7795045" lon="32.4061322"><ele>30.2</ele><time>2015-04-24T15:03:41.0000000+00:00</time></trkpt><trkpt lat="34.7795904" lon="32.4061075"><ele>31.2</ele><time>2015-04-24T15:03:43.0000000+00:00</time></trkpt><trkpt lat="34.7796352" lon="32.4060939"><ele>31.6</ele><time>2015-04-24T15:03:44.0000000+00:00</time></trkpt><trkpt lat="34.7796804" lon="32.4060832"><ele>31.8</ele><time>2015-04-24T15:03:45.0000000+00:00</time></trkpt><trkpt lat="34.7797287" lon="32.4060728"><ele>31.8</ele><time>2015-04-24T15:03:46.0000000+00:00</time></trkpt><trkpt lat="34.779776" lon="32.4060616"><ele>31.9</ele><time>2015-04-24T15:03:47.0000000+00:00</time></trkpt><trkpt lat="34.7798216" lon="32.4060487"><ele>32.4</ele><time>2015-04-24T15:03:48.0000000+00:00</time></trkpt><trkpt lat="34.7798705" lon="32.4060411"><ele>32.7</ele><time>2015-04-24T15:03:49.0000000+00:00</time></trkpt><trkpt lat="34.7799159" lon="32.4060398"><ele>32.3</ele><time>2015-04-24T15:03:50.0000000+00:00</time></trkpt><trkpt lat="34.7799956" lon="32.4060183"><ele>32.0</ele><time>2015-04-24T15:03:52.0000000+00:00</time></trkpt><trkpt lat="34.7800744" lon="32.4059969"><ele>32.0</ele><time>2015-04-24T15:03:54.0000000+00:00</time></trkpt><trkpt lat="34.7801503" lon="32.4059887"><ele>31.2</ele><time>2015-04-24T15:03:56.0000000+00:00</time></trkpt><trkpt lat="34.7802198" lon="32.4059693"><ele>31.0</ele><time>2015-04-24T15:03:58.0000000+00:00</time></trkpt><trkpt lat="34.7802754" lon="32.4059345"><ele>30.9</ele><time>2015-04-24T15:04:00.0000000+00:00</time></trkpt><trkpt lat="34.7802983" lon="32.405867"><ele>30.9</ele><time>2015-04-24T15:04:02.0000000+00:00</time></trkpt><trkpt lat="34.7802972" lon="32.4057902"><ele>31.2</ele><time>2015-04-24T15:04:04.0000000+00:00</time></trkpt><trkpt lat="34.7803172" lon="32.4057396"><ele>31.0</ele><time>2015-04-24T15:04:06.0000000+00:00</time></trkpt><trkpt lat="34.7803543" lon="32.4057756"><ele>33.3</ele><time>2015-04-24T15:04:36.0000000+00:00</time></trkpt><trkpt lat="34.7803753" lon="32.4058242"><ele>34.6</ele><time>2015-04-24T15:04:39.0000000+00:00</time></trkpt><trkpt lat="34.7804038" lon="32.4058741"><ele>34.9</ele><time>2015-04-24T15:04:42.0000000+00:00</time></trkpt><trkpt lat="34.7804408" lon="32.4059214"><ele>35.4</ele><time>2015-04-24T15:04:46.0000000+00:00</time></trkpt><trkpt lat="34.7804689" lon="32.4059734"><ele>33.7</ele><time>2015-04-24T15:05:15.0000000+00:00</time></trkpt><trkpt lat="34.78049" lon="32.4060332"><ele>34.4</ele><time>2015-04-24T15:05:17.0000000+00:00</time></trkpt><trkpt lat="34.7805009" lon="32.4061011"><ele>34.8</ele><time>2015-04-24T15:05:19.0000000+00:00</time></trkpt><trkpt lat="34.7805097" lon="32.4061733"><ele>35.1</ele><time>2015-04-24T15:05:21.0000000+00:00</time></trkpt><trkpt lat="34.780522" lon="32.4062425"><ele>35.0</ele><time>2015-04-24T15:05:23.0000000+00:00</time></trkpt><trkpt lat="34.7805664" lon="32.4062738"><ele>35.4</ele><time>2015-04-24T15:05:25.0000000+00:00</time></trkpt><trkpt lat="34.7806253" lon="32.4062478"><ele>35.1</ele><time>2015-04-24T15:05:27.0000000+00:00</time></trkpt><trkpt lat="34.780687" lon="32.406229"><ele>34.2</ele><time>2015-04-24T15:05:29.0000000+00:00</time></trkpt><trkpt lat="34.7807466" lon="32.4062111"><ele>34.8</ele><time>2015-04-24T15:05:31.0000000+00:00</time></trkpt><trkpt lat="34.7808124" lon="32.4061908"><ele>34.4</ele><time>2015-04-24T15:05:33.0000000+00:00</time></trkpt><trkpt lat="34.7808732" lon="32.4061762"><ele>34.8</ele><time>2015-04-24T15:05:35.0000000+00:00</time></trkpt><trkpt lat="34.7809198" lon="32.4061662"><ele>35.1</ele><time>2015-04-24T15:05:37.0000000+00:00</time></trkpt><trkpt lat="34.780962" lon="32.4061857"><ele>31.9</ele><time>2015-04-24T15:06:49.0000000+00:00</time></trkpt><trkpt lat="34.780921" lon="32.406163"><ele>33.7</ele><time>2015-04-24T15:19:15.0000000+00:00</time></trkpt><trkpt lat="34.7808669" lon="32.4061612"><ele>34.7</ele><time>2015-04-24T15:19:19.0000000+00:00</time></trkpt><trkpt lat="34.7808212" lon="32.40616"><ele>34.9</ele><time>2015-04-24T15:19:21.0000000+00:00</time></trkpt><trkpt lat="34.7807626" lon="32.4061626"><ele>34.9</ele><time>2015-04-24T15:19:24.0000000+00:00</time></trkpt><trkpt lat="34.7807129" lon="32.4061772"><ele>35.1</ele><time>2015-04-24T15:19:27.0000000+00:00</time></trkpt><trkpt lat="34.780653" lon="32.4061748"><ele>35.1</ele><time>2015-04-24T15:19:30.0000000+00:00</time></trkpt><trkpt lat="34.7805895" lon="32.4061578"><ele>34.4</ele><time>2015-04-24T15:19:33.0000000+00:00</time></trkpt><trkpt lat="34.7805296" lon="32.4061312"><ele>34.0</ele><time>2015-04-24T15:19:36.0000000+00:00</time></trkpt><trkpt lat="34.7804877" lon="32.4060752"><ele>33.9</ele><time>2015-04-24T15:19:39.0000000+00:00</time></trkpt><trkpt lat="34.7804632" lon="32.4060218"><ele>33.4</ele><time>2015-04-24T15:19:43.0000000+00:00</time></trkpt><trkpt lat="34.7804912" lon="32.4059669"><ele>32.2</ele><time>2015-04-24T15:20:19.0000000+00:00</time></trkpt><trkpt lat="34.7805348" lon="32.4059486"><ele>32.7</ele><time>2015-04-24T15:20:21.0000000+00:00</time></trkpt><trkpt lat="34.7805871" lon="32.4059306"><ele>32.9</ele><time>2015-04-24T15:20:23.0000000+00:00</time></trkpt><trkpt lat="34.7806422" lon="32.4059128"><ele>33.9</ele><time>2015-04-24T15:20:25.0000000+00:00</time></trkpt><trkpt lat="34.7806835" lon="32.4058735"><ele>34.7</ele><time>2015-04-24T15:20:27.0000000+00:00</time></trkpt><trkpt lat="34.7807333" lon="32.4058346"><ele>34.9</ele><time>2015-04-24T15:20:29.0000000+00:00</time></trkpt><trkpt lat="34.7807925" lon="32.4058149"><ele>34.2</ele><time>2015-04-24T15:20:31.0000000+00:00</time></trkpt><trkpt lat="34.7808563" lon="32.405805"><ele>35.2</ele><time>2015-04-24T15:20:33.0000000+00:00</time></trkpt><trkpt lat="34.7809241" lon="32.4057892"><ele>35.8</ele><time>2015-04-24T15:20:35.0000000+00:00</time></trkpt><trkpt lat="34.7809947" lon="32.4057656"><ele>35.9</ele><time>2015-04-24T15:20:37.0000000+00:00</time></trkpt><trkpt lat="34.7810636" lon="32.405744"><ele>35.4</ele><time>2015-04-24T15:20:39.0000000+00:00</time></trkpt><trkpt lat="34.7811361" lon="32.4057256"><ele>35.8</ele><time>2015-04-24T15:20:41.0000000+00:00</time></trkpt><trkpt lat="34.7812105" lon="32.4057081"><ele>37.6</ele><time>2015-04-24T15:20:43.0000000+00:00</time></trkpt><trkpt lat="34.7812878" lon="32.4056932"><ele>38.1</ele><time>2015-04-24T15:20:45.0000000+00:00</time></trkpt><trkpt lat="34.7813622" lon="32.4056864"><ele>37.5</ele><time>2015-04-24T15:20:47.0000000+00:00</time></trkpt><trkpt lat="34.7814371" lon="32.4056871"><ele>37.1</ele><time>2015-04-24T15:20:49.0000000+00:00</time></trkpt><trkpt lat="34.7815102" lon="32.405689"><ele>37.0</ele><time>2015-04-24T15:20:51.0000000+00:00</time></trkpt><trkpt lat="34.7815883" lon="32.4056769"><ele>37.7</ele><time>2015-04-24T15:20:53.0000000+00:00</time></trkpt><trkpt lat="34.7816699" lon="32.4056655"><ele>37.4</ele><time>2015-04-24T15:20:55.0000000+00:00</time></trkpt><trkpt lat="34.7817531" lon="32.4056584"><ele>37.0</ele><time>2015-04-24T15:20:57.0000000+00:00</time></trkpt><trkpt lat="34.7818367" lon="32.4056518"><ele>36.7</ele><time>2015-04-24T15:20:59.0000000+00:00</time></trkpt><trkpt lat="34.7819206" lon="32.4056468"><ele>36.9</ele><time>2015-04-24T15:21:01.0000000+00:00</time></trkpt><trkpt lat="34.7819992" lon="32.4056426"><ele>37.4</ele><time>2015-04-24T15:21:03.0000000+00:00</time></trkpt><trkpt lat="34.7820787" lon="32.4056388"><ele>37.6</ele><time>2015-04-24T15:21:05.0000000+00:00</time></trkpt><trkpt lat="34.7821567" lon="32.4056287"><ele>37.6</ele><time>2015-04-24T15:21:07.0000000+00:00</time></trkpt><trkpt lat="34.7822374" lon="32.4056201"><ele>37.3</ele><time>2015-04-24T15:21:09.0000000+00:00</time></trkpt><trkpt lat="34.7823138" lon="32.405617"><ele>37.0</ele><time>2015-04-24T15:21:11.0000000+00:00</time></trkpt><trkpt lat="34.7823968" lon="32.4056158"><ele>37.0</ele><time>2015-04-24T15:21:13.0000000+00:00</time></trkpt><trkpt lat="34.7824758" lon="32.4056145"><ele>37.4</ele><time>2015-04-24T15:21:15.0000000+00:00</time></trkpt><trkpt lat="34.7825476" lon="32.4056011"><ele>37.1</ele><time>2015-04-24T15:21:17.0000000+00:00</time></trkpt><trkpt lat="34.7826056" lon="32.4055735"><ele>37.5</ele><time>2015-04-24T15:21:19.0000000+00:00</time></trkpt><trkpt lat="34.7826603" lon="32.4055424"><ele>38.3</ele><time>2015-04-24T15:21:21.0000000+00:00</time></trkpt><trkpt lat="34.7827119" lon="32.4055385"><ele>38.3</ele><time>2015-04-24T15:21:23.0000000+00:00</time></trkpt><trkpt lat="34.7827612" lon="32.4055697"><ele>37.8</ele><time>2015-04-24T15:21:25.0000000+00:00</time></trkpt><trkpt lat="34.7828044" lon="32.4056121"><ele>37.9</ele><time>2015-04-24T15:21:27.0000000+00:00</time></trkpt><trkpt lat="34.7828541" lon="32.405637"><ele>37.9</ele><time>2015-04-24T15:21:29.0000000+00:00</time></trkpt><trkpt lat="34.7829136" lon="32.4056348"><ele>38.7</ele><time>2015-04-24T15:21:31.0000000+00:00</time></trkpt><trkpt lat="34.7829822" lon="32.4056289"><ele>39.6</ele><time>2015-04-24T15:21:33.0000000+00:00</time></trkpt><trkpt lat="34.7830525" lon="32.4056235"><ele>40.6</ele><time>2015-04-24T15:21:35.0000000+00:00</time></trkpt><trkpt lat="34.783127" lon="32.4056149"><ele>40.8</ele><time>2015-04-24T15:21:37.0000000+00:00</time></trkpt><trkpt lat="34.7831966" lon="32.4055993"><ele>40.2</ele><time>2015-04-24T15:21:39.0000000+00:00</time></trkpt><trkpt lat="34.7832682" lon="32.4055812"><ele>40.5</ele><time>2015-04-24T15:21:41.0000000+00:00</time></trkpt><trkpt lat="34.783341" lon="32.4055806"><ele>41.3</ele><time>2015-04-24T15:21:43.0000000+00:00</time></trkpt><trkpt lat="34.7834116" lon="32.4055923"><ele>41.5</ele><time>2015-04-24T15:21:45.0000000+00:00</time></trkpt><trkpt lat="34.7834766" lon="32.4056064"><ele>42.3</ele><time>2015-04-24T15:21:47.0000000+00:00</time></trkpt><trkpt lat="34.7835461" lon="32.40561"><ele>42.8</ele><time>2015-04-24T15:21:49.0000000+00:00</time></trkpt><trkpt lat="34.7836168" lon="32.4056066"><ele>42.9</ele><time>2015-04-24T15:21:51.0000000+00:00</time></trkpt><trkpt lat="34.7836921" lon="32.4056049"><ele>42.9</ele><time>2015-04-24T15:21:53.0000000+00:00</time></trkpt><trkpt lat="34.7837666" lon="32.4056015"><ele>43.7</ele><time>2015-04-24T15:21:55.0000000+00:00</time></trkpt><trkpt lat="34.7838479" lon="32.4055984"><ele>43.4</ele><time>2015-04-24T15:21:57.0000000+00:00</time></trkpt><trkpt lat="34.7839305" lon="32.4055996"><ele>43.0</ele><time>2015-04-24T15:21:59.0000000+00:00</time></trkpt><trkpt lat="34.7840152" lon="32.4055991"><ele>43.7</ele><time>2015-04-24T15:22:01.0000000+00:00</time></trkpt><trkpt lat="34.7840977" lon="32.405603"><ele>43.9</ele><time>2015-04-24T15:22:03.0000000+00:00</time></trkpt><trkpt lat="34.78418" lon="32.405606"><ele>44.7</ele><time>2015-04-24T15:22:05.0000000+00:00</time></trkpt><trkpt lat="34.7842622" lon="32.4056087"><ele>45.1</ele><time>2015-04-24T15:22:07.0000000+00:00</time></trkpt><trkpt lat="34.7843486" lon="32.4056132"><ele>45.2</ele><time>2015-04-24T15:22:09.0000000+00:00</time></trkpt><trkpt lat="34.7844312" lon="32.4056187"><ele>45.0</ele><time>2015-04-24T15:22:11.0000000+00:00</time></trkpt><trkpt lat="34.7845139" lon="32.4056286"><ele>45.4</ele><time>2015-04-24T15:22:13.0000000+00:00</time></trkpt><trkpt lat="34.7845891" lon="32.4056384"><ele>45.8</ele><time>2015-04-24T15:22:15.0000000+00:00</time></trkpt><trkpt lat="34.784661" lon="32.4056304"><ele>45.4</ele><time>2015-04-24T15:22:17.0000000+00:00</time></trkpt><trkpt lat="34.7847192" lon="32.4055841"><ele>44.5</ele><time>2015-04-24T15:22:19.0000000+00:00</time></trkpt><trkpt lat="34.7847611" lon="32.4055226"><ele>42.8</ele><time>2015-04-24T15:22:21.0000000+00:00</time></trkpt><trkpt lat="34.7848173" lon="32.4055027"><ele>42.4</ele><time>2015-04-24T15:22:23.0000000+00:00</time></trkpt><trkpt lat="34.7848681" lon="32.405543"><ele>41.3</ele><time>2015-04-24T15:22:25.0000000+00:00</time></trkpt><trkpt lat="34.784896" lon="32.4056038"><ele>41.8</ele><time>2015-04-24T15:22:27.0000000+00:00</time></trkpt><trkpt lat="34.7849315" lon="32.4056405"><ele>41.6</ele><time>2015-04-24T15:22:29.0000000+00:00</time></trkpt><trkpt lat="34.7849772" lon="32.4056452"><ele>42.4</ele><time>2015-04-24T15:22:31.0000000+00:00</time></trkpt><trkpt lat="34.7850237" lon="32.405634"><ele>43.3</ele><time>2015-04-24T15:22:33.0000000+00:00</time></trkpt><trkpt lat="34.7850715" lon="32.4056171"><ele>44.3</ele><time>2015-04-24T15:22:35.0000000+00:00</time></trkpt><trkpt lat="34.7851373" lon="32.4055973"><ele>43.5</ele><time>2015-04-24T15:22:37.0000000+00:00</time></trkpt><trkpt lat="34.785217" lon="32.405576"><ele>43.1</ele><time>2015-04-24T15:22:39.0000000+00:00</time></trkpt><trkpt lat="34.7852624" lon="32.4055672"><ele>43.0</ele><time>2015-04-24T15:22:40.0000000+00:00</time></trkpt><trkpt lat="34.7853278" lon="32.405557"><ele>43.0</ele><time>2015-04-24T15:22:41.0000000+00:00</time></trkpt><trkpt lat="34.7854097" lon="32.4055434"><ele>43.2</ele><time>2015-04-24T15:22:43.0000000+00:00</time></trkpt><trkpt lat="34.7854865" lon="32.4055466"><ele>43.5</ele><time>2015-04-24T15:22:45.0000000+00:00</time></trkpt><trkpt lat="34.7855577" lon="32.4055435"><ele>43.8</ele><time>2015-04-24T15:22:47.0000000+00:00</time></trkpt><trkpt lat="34.785631" lon="32.4055251"><ele>44.4</ele><time>2015-04-24T15:22:49.0000000+00:00</time></trkpt><trkpt lat="34.7856963" lon="32.405505"><ele>44.3</ele><time>2015-04-24T15:22:51.0000000+00:00</time></trkpt><trkpt lat="34.7857686" lon="32.4054859"><ele>43.5</ele><time>2015-04-24T15:22:53.0000000+00:00</time></trkpt><trkpt lat="34.7858435" lon="32.4054664"><ele>43.1</ele><time>2015-04-24T15:22:55.0000000+00:00</time></trkpt><trkpt lat="34.7859206" lon="32.4054408"><ele>43.0</ele><time>2015-04-24T15:22:57.0000000+00:00</time></trkpt><trkpt lat="34.7859934" lon="32.4054237"><ele>42.7</ele><time>2015-04-24T15:22:59.0000000+00:00</time></trkpt><trkpt lat="34.7860619" lon="32.4053988"><ele>42.9</ele><time>2015-04-24T15:23:01.0000000+00:00</time></trkpt><trkpt lat="34.7861199" lon="32.4053661"><ele>42.9</ele><time>2015-04-24T15:23:03.0000000+00:00</time></trkpt><trkpt lat="34.7861721" lon="32.4053646"><ele>42.9</ele><time>2015-04-24T15:23:05.0000000+00:00</time></trkpt><trkpt lat="34.7862166" lon="32.4054198"><ele>42.2</ele><time>2015-04-24T15:23:08.0000000+00:00</time></trkpt><trkpt lat="34.7862814" lon="32.4054059"><ele>41.6</ele><time>2015-04-24T15:23:11.0000000+00:00</time></trkpt><trkpt lat="34.786343" lon="32.4053691"><ele>41.8</ele><time>2015-04-24T15:23:13.0000000+00:00</time></trkpt><trkpt lat="34.7864166" lon="32.4053305"><ele>41.9</ele><time>2015-04-24T15:23:15.0000000+00:00</time></trkpt><trkpt lat="34.7864977" lon="32.4052989"><ele>40.7</ele><time>2015-04-24T15:23:17.0000000+00:00</time></trkpt><trkpt lat="34.7865748" lon="32.4052616"><ele>40.6</ele><time>2015-04-24T15:23:19.0000000+00:00</time></trkpt><trkpt lat="34.7866494" lon="32.4052167"><ele>40.9</ele><time>2015-04-24T15:23:21.0000000+00:00</time></trkpt><trkpt lat="34.7867235" lon="32.4051698"><ele>41.2</ele><time>2015-04-24T15:23:23.0000000+00:00</time></trkpt><trkpt lat="34.7867983" lon="32.4051249"><ele>41.0</ele><time>2015-04-24T15:23:25.0000000+00:00</time></trkpt><trkpt lat="34.7868703" lon="32.4050816"><ele>40.9</ele><time>2015-04-24T15:23:27.0000000+00:00</time></trkpt><trkpt lat="34.7869458" lon="32.4050362"><ele>40.9</ele><time>2015-04-24T15:23:29.0000000+00:00</time></trkpt><trkpt lat="34.7869978" lon="32.4049962"><ele>41.4</ele><time>2015-04-24T15:23:30.0000000+00:00</time></trkpt><trkpt lat="34.7870397" lon="32.4049669"><ele>41.7</ele><time>2015-04-24T15:23:31.0000000+00:00</time></trkpt><trkpt lat="34.7870798" lon="32.4049345"><ele>42.8</ele><time>2015-04-24T15:23:32.0000000+00:00</time></trkpt><trkpt lat="34.7871575" lon="32.4048726"><ele>44.4</ele><time>2015-04-24T15:23:34.0000000+00:00</time></trkpt><trkpt lat="34.7872027" lon="32.4048359"><ele>45.2</ele><time>2015-04-24T15:23:35.0000000+00:00</time></trkpt><trkpt lat="34.7872811" lon="32.4047652"><ele>47.0</ele><time>2015-04-24T15:23:37.0000000+00:00</time></trkpt><trkpt lat="34.7873166" lon="32.4047199"><ele>48.0</ele><time>2015-04-24T15:23:38.0000000+00:00</time></trkpt><trkpt lat="34.7873545" lon="32.4046892"><ele>48.4</ele><time>2015-04-24T15:23:39.0000000+00:00</time></trkpt><trkpt lat="34.787395" lon="32.4046499"><ele>48.7</ele><time>2015-04-24T15:23:40.0000000+00:00</time></trkpt><trkpt lat="34.7874273" lon="32.4046044"><ele>48.8</ele><time>2015-04-24T15:23:41.0000000+00:00</time></trkpt><trkpt lat="34.7874622" lon="32.4045644"><ele>49.9</ele><time>2015-04-24T15:23:42.0000000+00:00</time></trkpt><trkpt lat="34.7874976" lon="32.4045269"><ele>50.4</ele><time>2015-04-24T15:23:43.0000000+00:00</time></trkpt><trkpt lat="34.7875368" lon="32.4044814"><ele>50.7</ele><time>2015-04-24T15:23:44.0000000+00:00</time></trkpt><trkpt lat="34.7875739" lon="32.4044466"><ele>50.8</ele><time>2015-04-24T15:23:45.0000000+00:00</time></trkpt><trkpt lat="34.7876386" lon="32.4043817"><ele>51.6</ele><time>2015-04-24T15:23:47.0000000+00:00</time></trkpt><trkpt lat="34.7876765" lon="32.4043393"><ele>51.8</ele><time>2015-04-24T15:23:48.0000000+00:00</time></trkpt><trkpt lat="34.7877145" lon="32.4043086"><ele>51.9</ele><time>2015-04-24T15:23:49.0000000+00:00</time></trkpt><trkpt lat="34.7877586" lon="32.4042822"><ele>51.9</ele><time>2015-04-24T15:23:50.0000000+00:00</time></trkpt><trkpt lat="34.787794" lon="32.4042444"><ele>50.9</ele><time>2015-04-24T15:23:51.0000000+00:00</time></trkpt><trkpt lat="34.7878267" lon="32.4042064"><ele>49.9</ele><time>2015-04-24T15:23:52.0000000+00:00</time></trkpt><trkpt lat="34.787876" lon="32.4041183"><ele>48.4</ele><time>2015-04-24T15:23:54.0000000+00:00</time></trkpt><trkpt lat="34.7879137" lon="32.4040749"><ele>48.2</ele><time>2015-04-24T15:23:55.0000000+00:00</time></trkpt><trkpt lat="34.787941" lon="32.4040307"><ele>47.6</ele><time>2015-04-24T15:23:56.0000000+00:00</time></trkpt><trkpt lat="34.7879946" lon="32.4039608"><ele>47.3</ele><time>2015-04-24T15:23:58.0000000+00:00</time></trkpt><trkpt lat="34.7880301" lon="32.4039052"><ele>47.1</ele><time>2015-04-24T15:23:59.0000000+00:00</time></trkpt><trkpt lat="34.7880662" lon="32.4038681"><ele>47.0</ele><time>2015-04-24T15:24:00.0000000+00:00</time></trkpt><trkpt lat="34.7881034" lon="32.4038275"><ele>47.0</ele><time>2015-04-24T15:24:01.0000000+00:00</time></trkpt><trkpt lat="34.7881318" lon="32.4037743"><ele>48.0</ele><time>2015-04-24T15:24:02.0000000+00:00</time></trkpt><trkpt lat="34.7881723" lon="32.4037372"><ele>48.9</ele><time>2015-04-24T15:24:03.0000000+00:00</time></trkpt><trkpt lat="34.7882142" lon="32.403712"><ele>48.9</ele><time>2015-04-24T15:24:04.0000000+00:00</time></trkpt><trkpt lat="34.7882848" lon="32.4036344"><ele>50.4</ele><time>2015-04-24T15:24:06.0000000+00:00</time></trkpt><trkpt lat="34.7883592" lon="32.4035578"><ele>50.6</ele><time>2015-04-24T15:24:08.0000000+00:00</time></trkpt><trkpt lat="34.7884212" lon="32.4034874"><ele>51.6</ele><time>2015-04-24T15:24:10.0000000+00:00</time></trkpt><trkpt lat="34.7884772" lon="32.4034238"><ele>51.8</ele><time>2015-04-24T15:24:12.0000000+00:00</time></trkpt><trkpt lat="34.788539" lon="32.4033562"><ele>51.2</ele><time>2015-04-24T15:24:14.0000000+00:00</time></trkpt><trkpt lat="34.7885789" lon="32.4033281"><ele>51.0</ele><time>2015-04-24T15:24:15.0000000+00:00</time></trkpt><trkpt lat="34.7886399" lon="32.4032636"><ele>50.7</ele><time>2015-04-24T15:24:17.0000000+00:00</time></trkpt><trkpt lat="34.7886882" lon="32.4032117"><ele>49.6</ele><time>2015-04-24T15:24:19.0000000+00:00</time></trkpt><trkpt lat="34.788745" lon="32.4031532"><ele>49.1</ele><time>2015-04-24T15:24:21.0000000+00:00</time></trkpt><trkpt lat="34.7887982" lon="32.403096"><ele>48.5</ele><time>2015-04-24T15:24:23.0000000+00:00</time></trkpt><trkpt lat="34.7888528" lon="32.4030388"><ele>48.1</ele><time>2015-04-24T15:24:25.0000000+00:00</time></trkpt><trkpt lat="34.7889052" lon="32.4029838"><ele>48.5</ele><time>2015-04-24T15:24:27.0000000+00:00</time></trkpt><trkpt lat="34.7889586" lon="32.4029293"><ele>49.3</ele><time>2015-04-24T15:24:29.0000000+00:00</time></trkpt><trkpt lat="34.7890103" lon="32.4028777"><ele>49.8</ele><time>2015-04-24T15:24:31.0000000+00:00</time></trkpt><trkpt lat="34.7890629" lon="32.4028184"><ele>49.9</ele><time>2015-04-24T15:24:33.0000000+00:00</time></trkpt><trkpt lat="34.7891168" lon="32.4027572"><ele>49.4</ele><time>2015-04-24T15:24:35.0000000+00:00</time></trkpt><trkpt lat="34.7891749" lon="32.402702"><ele>49.6</ele><time>2015-04-24T15:24:37.0000000+00:00</time></trkpt><trkpt lat="34.7892332" lon="32.402646"><ele>49.3</ele><time>2015-04-24T15:24:39.0000000+00:00</time></trkpt><trkpt lat="34.7892923" lon="32.4025923"><ele>48.8</ele><time>2015-04-24T15:24:41.0000000+00:00</time></trkpt><trkpt lat="34.7893536" lon="32.4025378"><ele>48.9</ele><time>2015-04-24T15:24:43.0000000+00:00</time></trkpt><trkpt lat="34.7894196" lon="32.4024784"><ele>48.4</ele><time>2015-04-24T15:24:45.0000000+00:00</time></trkpt><trkpt lat="34.7894868" lon="32.4024202"><ele>48.1</ele><time>2015-04-24T15:24:47.0000000+00:00</time></trkpt><trkpt lat="34.7895599" lon="32.4023605"><ele>48.7</ele><time>2015-04-24T15:24:49.0000000+00:00</time></trkpt><trkpt lat="34.789627" lon="32.4023011"><ele>48.4</ele><time>2015-04-24T15:24:51.0000000+00:00</time></trkpt><trkpt lat="34.789696" lon="32.4022432"><ele>48.0</ele><time>2015-04-24T15:24:53.0000000+00:00</time></trkpt><trkpt lat="34.7897678" lon="32.4021875"><ele>48.0</ele><time>2015-04-24T15:24:55.0000000+00:00</time></trkpt><trkpt lat="34.7898697" lon="32.4021263"><ele>47.9</ele><time>2015-04-24T15:24:57.0000000+00:00</time></trkpt><trkpt lat="34.7899474" lon="32.4020869"><ele>47.9</ele><time>2015-04-24T15:24:59.0000000+00:00</time></trkpt><trkpt lat="34.7900222" lon="32.4020318"><ele>47.2</ele><time>2015-04-24T15:25:01.0000000+00:00</time></trkpt><trkpt lat="34.7900938" lon="32.4019885"><ele>47.7</ele><time>2015-04-24T15:25:03.0000000+00:00</time></trkpt><trkpt lat="34.7901643" lon="32.4019472"><ele>48.6</ele><time>2015-04-24T15:25:05.0000000+00:00</time></trkpt><trkpt lat="34.7902341" lon="32.401903"><ele>48.9</ele><time>2015-04-24T15:25:07.0000000+00:00</time></trkpt><trkpt lat="34.7903116" lon="32.4018625"><ele>48.9</ele><time>2015-04-24T15:25:09.0000000+00:00</time></trkpt><trkpt lat="34.7904014" lon="32.4018264"><ele>48.2</ele><time>2015-04-24T15:25:11.0000000+00:00</time></trkpt><trkpt lat="34.7904516" lon="32.4018061"><ele>48.1</ele><time>2015-04-24T15:25:12.0000000+00:00</time></trkpt><trkpt lat="34.7904963" lon="32.401788"><ele>48.5</ele><time>2015-04-24T15:25:13.0000000+00:00</time></trkpt><trkpt lat="34.7905477" lon="32.401764"><ele>48.2</ele><time>2015-04-24T15:25:14.0000000+00:00</time></trkpt><trkpt lat="34.7906008" lon="32.4017436"><ele>48.1</ele><time>2015-04-24T15:25:15.0000000+00:00</time></trkpt><trkpt lat="34.7906558" lon="32.4017273"><ele>47.5</ele><time>2015-04-24T15:25:16.0000000+00:00</time></trkpt><trkpt lat="34.7907093" lon="32.401708"><ele>47.2</ele><time>2015-04-24T15:25:17.0000000+00:00</time></trkpt><trkpt lat="34.7907639" lon="32.4016961"><ele>47.1</ele><time>2015-04-24T15:25:18.0000000+00:00</time></trkpt><trkpt lat="34.790809" lon="32.4016813"><ele>47.0</ele><time>2015-04-24T15:25:19.0000000+00:00</time></trkpt><trkpt lat="34.7908632" lon="32.4016622"><ele>46.5</ele><time>2015-04-24T15:25:20.0000000+00:00</time></trkpt><trkpt lat="34.7909154" lon="32.4016356"><ele>46.2</ele><time>2015-04-24T15:25:21.0000000+00:00</time></trkpt><trkpt lat="34.7909632" lon="32.4016245"><ele>46.6</ele><time>2015-04-24T15:25:22.0000000+00:00</time></trkpt><trkpt lat="34.7910569" lon="32.4016085"><ele>46.1</ele><time>2015-04-24T15:25:24.0000000+00:00</time></trkpt><trkpt lat="34.791101" lon="32.4015921"><ele>46.0</ele><time>2015-04-24T15:25:25.0000000+00:00</time></trkpt><trkpt lat="34.7911935" lon="32.4015746"><ele>46.7</ele><time>2015-04-24T15:25:27.0000000+00:00</time></trkpt><trkpt lat="34.7912388" lon="32.4015758"><ele>46.8</ele><time>2015-04-24T15:25:28.0000000+00:00</time></trkpt><trkpt lat="34.7912891" lon="32.4015785"><ele>46.4</ele><time>2015-04-24T15:25:29.0000000+00:00</time></trkpt><trkpt lat="34.791334" lon="32.4015694"><ele>46.7</ele><time>2015-04-24T15:25:30.0000000+00:00</time></trkpt><trkpt lat="34.7913839" lon="32.40157"><ele>46.3</ele><time>2015-04-24T15:25:31.0000000+00:00</time></trkpt><trkpt lat="34.7914733" lon="32.4015676"><ele>46.8</ele><time>2015-04-24T15:25:33.0000000+00:00</time></trkpt><trkpt lat="34.7915513" lon="32.4015646"><ele>46.9</ele><time>2015-04-24T15:25:35.0000000+00:00</time></trkpt><trkpt lat="34.7916251" lon="32.4015646"><ele>46.2</ele><time>2015-04-24T15:25:37.0000000+00:00</time></trkpt><trkpt lat="34.7917088" lon="32.4015667"><ele>45.7</ele><time>2015-04-24T15:25:39.0000000+00:00</time></trkpt><trkpt lat="34.79176" lon="32.4015639"><ele>45.3</ele><time>2015-04-24T15:25:40.0000000+00:00</time></trkpt><trkpt lat="34.791854" lon="32.4015603"><ele>45.0</ele><time>2015-04-24T15:25:42.0000000+00:00</time></trkpt><trkpt lat="34.7919003" lon="32.401565"><ele>44.5</ele><time>2015-04-24T15:25:43.0000000+00:00</time></trkpt><trkpt lat="34.7919562" lon="32.401578"><ele>44.2</ele><time>2015-04-24T15:25:44.0000000+00:00</time></trkpt><trkpt lat="34.7920102" lon="32.4015817"><ele>44.1</ele><time>2015-04-24T15:25:45.0000000+00:00</time></trkpt><trkpt lat="34.7920633" lon="32.4015948"><ele>44.0</ele><time>2015-04-24T15:25:46.0000000+00:00</time></trkpt><trkpt lat="34.7921153" lon="32.4016101"><ele>44.0</ele><time>2015-04-24T15:25:47.0000000+00:00</time></trkpt><trkpt lat="34.7921721" lon="32.4016112"><ele>44.4</ele><time>2015-04-24T15:25:48.0000000+00:00</time></trkpt><trkpt lat="34.7922302" lon="32.4016272"><ele>44.7</ele><time>2015-04-24T15:25:49.0000000+00:00</time></trkpt><trkpt lat="34.792283" lon="32.4016362"><ele>44.8</ele><time>2015-04-24T15:25:50.0000000+00:00</time></trkpt><trkpt lat="34.7923328" lon="32.4016501"><ele>45.4</ele><time>2015-04-24T15:25:51.0000000+00:00</time></trkpt><trkpt lat="34.7923909" lon="32.4016554"><ele>45.6</ele><time>2015-04-24T15:25:52.0000000+00:00</time></trkpt><trkpt lat="34.7924487" lon="32.4016656"><ele>46.3</ele><time>2015-04-24T15:25:53.0000000+00:00</time></trkpt><trkpt lat="34.7925014" lon="32.4016743"><ele>46.1</ele><time>2015-04-24T15:25:54.0000000+00:00</time></trkpt><trkpt lat="34.7925496" lon="32.4016836"><ele>46.0</ele><time>2015-04-24T15:25:55.0000000+00:00</time></trkpt><trkpt lat="34.7926125" lon="32.4016913"><ele>46.0</ele><time>2015-04-24T15:25:56.0000000+00:00</time></trkpt><trkpt lat="34.7926663" lon="32.4016972"><ele>46.0</ele><time>2015-04-24T15:25:57.0000000+00:00</time></trkpt><trkpt lat="34.7927201" lon="32.4016815"><ele>46.4</ele><time>2015-04-24T15:25:58.0000000+00:00</time></trkpt><trkpt lat="34.7927693" lon="32.4016827"><ele>47.2</ele><time>2015-04-24T15:25:59.0000000+00:00</time></trkpt><trkpt lat="34.7928186" lon="32.4016874"><ele>47.6</ele><time>2015-04-24T15:26:00.0000000+00:00</time></trkpt><trkpt lat="34.7928655" lon="32.4016878"><ele>48.2</ele><time>2015-04-24T15:26:01.0000000+00:00</time></trkpt><trkpt lat="34.7929128" lon="32.4016777"><ele>49.1</ele><time>2015-04-24T15:26:02.0000000+00:00</time></trkpt><trkpt lat="34.7929663" lon="32.4016799"><ele>49.0</ele><time>2015-04-24T15:26:03.0000000+00:00</time></trkpt><trkpt lat="34.7930202" lon="32.4016736"><ele>49.0</ele><time>2015-04-24T15:26:04.0000000+00:00</time></trkpt><trkpt lat="34.7930848" lon="32.4016679"><ele>49.4</ele><time>2015-04-24T15:26:05.0000000+00:00</time></trkpt><trkpt lat="34.7931834" lon="32.4016881"><ele>49.6</ele><time>2015-04-24T15:26:07.0000000+00:00</time></trkpt><trkpt lat="34.7932285" lon="32.4016884"><ele>49.7</ele><time>2015-04-24T15:26:08.0000000+00:00</time></trkpt><trkpt lat="34.7932743" lon="32.401698"><ele>50.3</ele><time>2015-04-24T15:26:09.0000000+00:00</time></trkpt><trkpt lat="34.7933574" lon="32.4017202"><ele>50.5</ele><time>2015-04-24T15:26:11.0000000+00:00</time></trkpt><trkpt lat="34.7934379" lon="32.4017368"><ele>49.8</ele><time>2015-04-24T15:26:13.0000000+00:00</time></trkpt><trkpt lat="34.7935218" lon="32.4017495"><ele>49.4</ele><time>2015-04-24T15:26:15.0000000+00:00</time></trkpt><trkpt lat="34.7936117" lon="32.4017745"><ele>48.5</ele><time>2015-04-24T15:26:17.0000000+00:00</time></trkpt><trkpt lat="34.7936544" lon="32.4017951"><ele>47.7</ele><time>2015-04-24T15:26:18.0000000+00:00</time></trkpt><trkpt lat="34.7937497" lon="32.4018107"><ele>46.4</ele><time>2015-04-24T15:26:20.0000000+00:00</time></trkpt><trkpt lat="34.7938307" lon="32.4018332"><ele>45.5</ele><time>2015-04-24T15:26:22.0000000+00:00</time></trkpt><trkpt lat="34.7939134" lon="32.401829"><ele>45.1</ele><time>2015-04-24T15:26:24.0000000+00:00</time></trkpt><trkpt lat="34.7939679" lon="32.4018368"><ele>45.0</ele><time>2015-04-24T15:26:25.0000000+00:00</time></trkpt><trkpt lat="34.7940184" lon="32.401846"><ele>45.0</ele><time>2015-04-24T15:26:26.0000000+00:00</time></trkpt><trkpt lat="34.7940647" lon="32.401845"><ele>44.4</ele><time>2015-04-24T15:26:27.0000000+00:00</time></trkpt><trkpt lat="34.7941331" lon="32.4018336"><ele>44.1</ele><time>2015-04-24T15:26:29.0000000+00:00</time></trkpt><trkpt lat="34.7942087" lon="32.4018262"><ele>44.0</ele><time>2015-04-24T15:26:31.0000000+00:00</time></trkpt><trkpt lat="34.794256" lon="32.4018127"><ele>43.9</ele><time>2015-04-24T15:26:32.0000000+00:00</time></trkpt><trkpt lat="34.7943079" lon="32.4018036"><ele>43.4</ele><time>2015-04-24T15:26:33.0000000+00:00</time></trkpt><trkpt lat="34.7943618" lon="32.401776"><ele>42.2</ele><time>2015-04-24T15:26:34.0000000+00:00</time></trkpt><trkpt lat="34.7944063" lon="32.4017569"><ele>41.1</ele><time>2015-04-24T15:26:35.0000000+00:00</time></trkpt><trkpt lat="34.7944533" lon="32.4017456"><ele>40.0</ele><time>2015-04-24T15:26:36.0000000+00:00</time></trkpt><trkpt lat="34.7945431" lon="32.4017271"><ele>39.2</ele><time>2015-04-24T15:26:38.0000000+00:00</time></trkpt><trkpt lat="34.7945891" lon="32.4017157"><ele>39.1</ele><time>2015-04-24T15:26:39.0000000+00:00</time></trkpt><trkpt lat="34.7946708" lon="32.4016936"><ele>38.5</ele><time>2015-04-24T15:26:41.0000000+00:00</time></trkpt><trkpt lat="34.7947568" lon="32.4016678"><ele>37.6</ele><time>2015-04-24T15:26:43.0000000+00:00</time></trkpt><trkpt lat="34.7948437" lon="32.4016517"><ele>36.6</ele><time>2015-04-24T15:26:45.0000000+00:00</time></trkpt><trkpt lat="34.794888" lon="32.4016351"><ele>36.3</ele><time>2015-04-24T15:26:46.0000000+00:00</time></trkpt><trkpt lat="34.794936" lon="32.4016179"><ele>36.6</ele><time>2015-04-24T15:26:47.0000000+00:00</time></trkpt><trkpt lat="34.7949802" lon="32.4015933"><ele>37.3</ele><time>2015-04-24T15:26:48.0000000+00:00</time></trkpt><trkpt lat="34.795064" lon="32.4015502"><ele>38.5</ele><time>2015-04-24T15:26:50.0000000+00:00</time></trkpt><trkpt lat="34.7951363" lon="32.4015126"><ele>38.6</ele><time>2015-04-24T15:26:52.0000000+00:00</time></trkpt><trkpt lat="34.7951783" lon="32.4014878"><ele>39.3</ele><time>2015-04-24T15:26:53.0000000+00:00</time></trkpt><trkpt lat="34.7952706" lon="32.4014412"><ele>39.8</ele><time>2015-04-24T15:26:55.0000000+00:00</time></trkpt><trkpt lat="34.7953147" lon="32.4014202"><ele>40.3</ele><time>2015-04-24T15:26:56.0000000+00:00</time></trkpt><trkpt lat="34.7953599" lon="32.4014057"><ele>41.1</ele><time>2015-04-24T15:26:57.0000000+00:00</time></trkpt><trkpt lat="34.7954032" lon="32.4013902"><ele>41.0</ele><time>2015-04-24T15:26:58.0000000+00:00</time></trkpt><trkpt lat="34.7954922" lon="32.4013571"><ele>40.5</ele><time>2015-04-24T15:27:00.0000000+00:00</time></trkpt><trkpt lat="34.7955371" lon="32.40134"><ele>40.2</ele><time>2015-04-24T15:27:01.0000000+00:00</time></trkpt><trkpt lat="34.795618" lon="32.4012822"><ele>40.0</ele><time>2015-04-24T15:27:03.0000000+00:00</time></trkpt><trkpt lat="34.7956999" lon="32.4012502"><ele>41.9</ele><time>2015-04-24T15:27:05.0000000+00:00</time></trkpt><trkpt lat="34.7957818" lon="32.4012155"><ele>43.2</ele><time>2015-04-24T15:27:07.0000000+00:00</time></trkpt><trkpt lat="34.795831" lon="32.4012001"><ele>44.1</ele><time>2015-04-24T15:27:08.0000000+00:00</time></trkpt><trkpt lat="34.7958766" lon="32.4011813"><ele>44.0</ele><time>2015-04-24T15:27:09.0000000+00:00</time></trkpt><trkpt lat="34.7959523" lon="32.4011361"><ele>44.7</ele><time>2015-04-24T15:27:11.0000000+00:00</time></trkpt><trkpt lat="34.795995" lon="32.4011176"><ele>44.8</ele><time>2015-04-24T15:27:12.0000000+00:00</time></trkpt><trkpt lat="34.7960746" lon="32.4010845"><ele>45.7</ele><time>2015-04-24T15:27:14.0000000+00:00</time></trkpt><trkpt lat="34.7961192" lon="32.4010642"><ele>46.3</ele><time>2015-04-24T15:27:15.0000000+00:00</time></trkpt><trkpt lat="34.7962074" lon="32.4010498"><ele>46.0</ele><time>2015-04-24T15:27:17.0000000+00:00</time></trkpt><trkpt lat="34.7962882" lon="32.401023"><ele>45.7</ele><time>2015-04-24T15:27:19.0000000+00:00</time></trkpt><trkpt lat="34.7963762" lon="32.4009959"><ele>45.1</ele><time>2015-04-24T15:27:21.0000000+00:00</time></trkpt><trkpt lat="34.7964462" lon="32.4009672"><ele>45.0</ele><time>2015-04-24T15:27:23.0000000+00:00</time></trkpt><trkpt lat="34.7965288" lon="32.4009568"><ele>44.4</ele><time>2015-04-24T15:27:25.0000000+00:00</time></trkpt><trkpt lat="34.796608" lon="32.4009307"><ele>44.1</ele><time>2015-04-24T15:27:27.0000000+00:00</time></trkpt><trkpt lat="34.7966535" lon="32.4009203"><ele>44.0</ele><time>2015-04-24T15:27:28.0000000+00:00</time></trkpt><trkpt lat="34.7966968" lon="32.4008924"><ele>44.5</ele><time>2015-04-24T15:27:29.0000000+00:00</time></trkpt><trkpt lat="34.796782" lon="32.4008659"><ele>44.8</ele><time>2015-04-24T15:27:31.0000000+00:00</time></trkpt><trkpt lat="34.796827" lon="32.4008596"><ele>44.9</ele><time>2015-04-24T15:27:32.0000000+00:00</time></trkpt><trkpt lat="34.7969132" lon="32.4008385"><ele>45.7</ele><time>2015-04-24T15:27:34.0000000+00:00</time></trkpt><trkpt lat="34.7969932" lon="32.4008336"><ele>46.1</ele><time>2015-04-24T15:27:36.0000000+00:00</time></trkpt><trkpt lat="34.797069" lon="32.4008374"><ele>45.5</ele><time>2015-04-24T15:27:38.0000000+00:00</time></trkpt><trkpt lat="34.7971445" lon="32.4008314"><ele>44.6</ele><time>2015-04-24T15:27:40.0000000+00:00</time></trkpt><trkpt lat="34.7972127" lon="32.4008204"><ele>44.1</ele><time>2015-04-24T15:27:42.0000000+00:00</time></trkpt><trkpt lat="34.797279" lon="32.4008083"><ele>44.0</ele><time>2015-04-24T15:27:44.0000000+00:00</time></trkpt><trkpt lat="34.7973512" lon="32.400792"><ele>43.9</ele><time>2015-04-24T15:27:46.0000000+00:00</time></trkpt><trkpt lat="34.7974301" lon="32.4007771"><ele>44.4</ele><time>2015-04-24T15:27:48.0000000+00:00</time></trkpt><trkpt lat="34.7975136" lon="32.4007618"><ele>44.8</ele><time>2015-04-24T15:27:50.0000000+00:00</time></trkpt><trkpt lat="34.7976019" lon="32.4007484"><ele>45.4</ele><time>2015-04-24T15:27:52.0000000+00:00</time></trkpt><trkpt lat="34.797688" lon="32.4007454"><ele>46.5</ele><time>2015-04-24T15:27:54.0000000+00:00</time></trkpt><trkpt lat="34.797733" lon="32.4007427"><ele>46.7</ele><time>2015-04-24T15:27:55.0000000+00:00</time></trkpt><trkpt lat="34.7978023" lon="32.4007369"><ele>47.3</ele><time>2015-04-24T15:27:56.0000000+00:00</time></trkpt><trkpt lat="34.7978946" lon="32.4007193"><ele>47.8</ele><time>2015-04-24T15:27:58.0000000+00:00</time></trkpt><trkpt lat="34.7979438" lon="32.4007094"><ele>47.9</ele><time>2015-04-24T15:27:59.0000000+00:00</time></trkpt><trkpt lat="34.7979941" lon="32.4007112"><ele>47.9</ele><time>2015-04-24T15:28:00.0000000+00:00</time></trkpt><trkpt lat="34.7980774" lon="32.4006822"><ele>49.2</ele><time>2015-04-24T15:28:02.0000000+00:00</time></trkpt><trkpt lat="34.798129" lon="32.4006677"><ele>48.6</ele><time>2015-04-24T15:28:03.0000000+00:00</time></trkpt><trkpt lat="34.7981772" lon="32.4006572"><ele>47.7</ele><time>2015-04-24T15:28:04.0000000+00:00</time></trkpt><trkpt lat="34.798226" lon="32.4006393"><ele>47.3</ele><time>2015-04-24T15:28:05.0000000+00:00</time></trkpt><trkpt lat="34.7982782" lon="32.4006282"><ele>47.6</ele><time>2015-04-24T15:28:06.0000000+00:00</time></trkpt><trkpt lat="34.7983288" lon="32.400614"><ele>47.3</ele><time>2015-04-24T15:28:07.0000000+00:00</time></trkpt><trkpt lat="34.7983785" lon="32.4006022"><ele>47.1</ele><time>2015-04-24T15:28:08.0000000+00:00</time></trkpt><trkpt lat="34.7984264" lon="32.4005827"><ele>47.5</ele><time>2015-04-24T15:28:09.0000000+00:00</time></trkpt><trkpt lat="34.7984759" lon="32.4005621"><ele>48.2</ele><time>2015-04-24T15:28:10.0000000+00:00</time></trkpt><trkpt lat="34.7985291" lon="32.4005512"><ele>48.6</ele><time>2015-04-24T15:28:11.0000000+00:00</time></trkpt><trkpt lat="34.7985796" lon="32.4005132"><ele>49.3</ele><time>2015-04-24T15:28:12.0000000+00:00</time></trkpt><trkpt lat="34.7986302" lon="32.4004981"><ele>49.6</ele><time>2015-04-24T15:28:13.0000000+00:00</time></trkpt><trkpt lat="34.7986754" lon="32.4004771"><ele>49.3</ele><time>2015-04-24T15:28:14.0000000+00:00</time></trkpt><trkpt lat="34.7987202" lon="32.4004591"><ele>48.6</ele><time>2015-04-24T15:28:15.0000000+00:00</time></trkpt><trkpt lat="34.798773" lon="32.4004348"><ele>47.8</ele><time>2015-04-24T15:28:16.0000000+00:00</time></trkpt><trkpt lat="34.7988526" lon="32.4004123"><ele>46.4</ele><time>2015-04-24T15:28:18.0000000+00:00</time></trkpt><trkpt lat="34.7989421" lon="32.4003739"><ele>48.8</ele><time>2015-04-24T15:28:20.0000000+00:00</time></trkpt><trkpt lat="34.7989911" lon="32.4003521"><ele>49.4</ele><time>2015-04-24T15:28:21.0000000+00:00</time></trkpt><trkpt lat="34.7990397" lon="32.4003243"><ele>50.6</ele><time>2015-04-24T15:28:22.0000000+00:00</time></trkpt><trkpt lat="34.7990665" lon="32.4002604"><ele>52.8</ele><time>2015-04-24T15:28:23.0000000+00:00</time></trkpt><trkpt lat="34.7991158" lon="32.4002434"><ele>53.9</ele><time>2015-04-24T15:28:24.0000000+00:00</time></trkpt><trkpt lat="34.7991704" lon="32.4002265"><ele>54.4</ele><time>2015-04-24T15:28:25.0000000+00:00</time></trkpt><trkpt lat="34.7992286" lon="32.4001986"><ele>54.2</ele><time>2015-04-24T15:28:26.0000000+00:00</time></trkpt><trkpt lat="34.7992875" lon="32.4001752"><ele>54.0</ele><time>2015-04-24T15:28:27.0000000+00:00</time></trkpt><trkpt lat="34.7993447" lon="32.4001463"><ele>53.5</ele><time>2015-04-24T15:28:28.0000000+00:00</time></trkpt><trkpt lat="34.7993998" lon="32.400118"><ele>53.2</ele><time>2015-04-24T15:28:29.0000000+00:00</time></trkpt><trkpt lat="34.799452" lon="32.4000882"><ele>53.1</ele><time>2015-04-24T15:28:30.0000000+00:00</time></trkpt><trkpt lat="34.7995132" lon="32.4000743"><ele>52.5</ele><time>2015-04-24T15:28:31.0000000+00:00</time></trkpt><trkpt lat="34.7995782" lon="32.4000449"><ele>52.2</ele><time>2015-04-24T15:28:32.0000000+00:00</time></trkpt><trkpt lat="34.7996481" lon="32.400049"><ele>50.6</ele><time>2015-04-24T15:28:33.0000000+00:00</time></trkpt><trkpt lat="34.7997103" lon="32.4000243"><ele>49.8</ele><time>2015-04-24T15:28:34.0000000+00:00</time></trkpt><trkpt lat="34.7997659" lon="32.3999856"><ele>48.8</ele><time>2015-04-24T15:28:35.0000000+00:00</time></trkpt><trkpt lat="34.799827" lon="32.3999555"><ele>48.9</ele><time>2015-04-24T15:28:36.0000000+00:00</time></trkpt><trkpt lat="34.799882" lon="32.3999303"><ele>48.9</ele><time>2015-04-24T15:28:37.0000000+00:00</time></trkpt><trkpt lat="34.7999442" lon="32.3998907"><ele>48.9</ele><time>2015-04-24T15:28:38.0000000+00:00</time></trkpt><trkpt lat="34.8000128" lon="32.399893"><ele>47.4</ele><time>2015-04-24T15:28:39.0000000+00:00</time></trkpt><trkpt lat="34.8000677" lon="32.3998762"><ele>46.7</ele><time>2015-04-24T15:28:40.0000000+00:00</time></trkpt><trkpt lat="34.8001232" lon="32.3998322"><ele>47.3</ele><time>2015-04-24T15:28:41.0000000+00:00</time></trkpt><trkpt lat="34.8001792" lon="32.3998044"><ele>47.6</ele><time>2015-04-24T15:28:42.0000000+00:00</time></trkpt><trkpt lat="34.8002314" lon="32.3997732"><ele>47.8</ele><time>2015-04-24T15:28:43.0000000+00:00</time></trkpt><trkpt lat="34.8002811" lon="32.3997448"><ele>47.9</ele><time>2015-04-24T15:28:44.0000000+00:00</time></trkpt><trkpt lat="34.8003283" lon="32.399717"><ele>48.4</ele><time>2015-04-24T15:28:45.0000000+00:00</time></trkpt><trkpt lat="34.8003815" lon="32.3996858"><ele>48.7</ele><time>2015-04-24T15:28:46.0000000+00:00</time></trkpt><trkpt lat="34.8004317" lon="32.3996566"><ele>48.8</ele><time>2015-04-24T15:28:47.0000000+00:00</time></trkpt><trkpt lat="34.8004912" lon="32.3996224"><ele>49.4</ele><time>2015-04-24T15:28:48.0000000+00:00</time></trkpt><trkpt lat="34.8005492" lon="32.3995881"><ele>49.6</ele><time>2015-04-24T15:28:49.0000000+00:00</time></trkpt><trkpt lat="34.8005997" lon="32.3995579"><ele>49.8</ele><time>2015-04-24T15:28:50.0000000+00:00</time></trkpt><trkpt lat="34.8006504" lon="32.3995297"><ele>48.9</ele><time>2015-04-24T15:28:51.0000000+00:00</time></trkpt><trkpt lat="34.8007074" lon="32.3994972"><ele>48.9</ele><time>2015-04-24T15:28:52.0000000+00:00</time></trkpt><trkpt lat="34.8007623" lon="32.3994676"><ele>48.9</ele><time>2015-04-24T15:28:53.0000000+00:00</time></trkpt><trkpt lat="34.8008119" lon="32.3994394"><ele>48.9</ele><time>2015-04-24T15:28:54.0000000+00:00</time></trkpt><trkpt lat="34.8008558" lon="32.3994013"><ele>48.4</ele><time>2015-04-24T15:28:55.0000000+00:00</time></trkpt><trkpt lat="34.8009031" lon="32.3993572"><ele>48.2</ele><time>2015-04-24T15:28:56.0000000+00:00</time></trkpt><trkpt lat="34.8009528" lon="32.3993272"><ele>48.1</ele><time>2015-04-24T15:28:57.0000000+00:00</time></trkpt><trkpt lat="34.8010091" lon="32.3992937"><ele>47.5</ele><time>2015-04-24T15:28:58.0000000+00:00</time></trkpt><trkpt lat="34.8010572" lon="32.3992587"><ele>47.7</ele><time>2015-04-24T15:28:59.0000000+00:00</time></trkpt><trkpt lat="34.8011096" lon="32.3992231"><ele>47.8</ele><time>2015-04-24T15:29:00.0000000+00:00</time></trkpt><trkpt lat="34.8011588" lon="32.3992032"><ele>47.9</ele><time>2015-04-24T15:29:01.0000000+00:00</time></trkpt><trkpt lat="34.8012089" lon="32.3991979"><ele>46.9</ele><time>2015-04-24T15:29:02.0000000+00:00</time></trkpt><trkpt lat="34.801258" lon="32.3991707"><ele>46.4</ele><time>2015-04-24T15:29:03.0000000+00:00</time></trkpt><trkpt lat="34.8013107" lon="32.399143"><ele>46.2</ele><time>2015-04-24T15:29:04.0000000+00:00</time></trkpt><trkpt lat="34.8013597" lon="32.3991248"><ele>45.1</ele><time>2015-04-24T15:29:05.0000000+00:00</time></trkpt><trkpt lat="34.8014142" lon="32.3990962"><ele>45.0</ele><time>2015-04-24T15:29:06.0000000+00:00</time></trkpt><trkpt lat="34.8014614" lon="32.3990518"><ele>45.0</ele><time>2015-04-24T15:29:07.0000000+00:00</time></trkpt><trkpt lat="34.8015201" lon="32.3990182"><ele>44.9</ele><time>2015-04-24T15:29:08.0000000+00:00</time></trkpt><trkpt lat="34.8015718" lon="32.3989837"><ele>45.4</ele><time>2015-04-24T15:29:09.0000000+00:00</time></trkpt><trkpt lat="34.8016226" lon="32.3989642"><ele>45.7</ele><time>2015-04-24T15:29:10.0000000+00:00</time></trkpt><trkpt lat="34.8016701" lon="32.3989349"><ele>45.8</ele><time>2015-04-24T15:29:11.0000000+00:00</time></trkpt><trkpt lat="34.8017224" lon="32.3989043"><ele>45.4</ele><time>2015-04-24T15:29:12.0000000+00:00</time></trkpt><trkpt lat="34.8017741" lon="32.3988752"><ele>45.6</ele><time>2015-04-24T15:29:13.0000000+00:00</time></trkpt><trkpt lat="34.8018248" lon="32.3988496"><ele>46.3</ele><time>2015-04-24T15:29:14.0000000+00:00</time></trkpt><trkpt lat="34.8018747" lon="32.3988204"><ele>46.1</ele><time>2015-04-24T15:29:15.0000000+00:00</time></trkpt><trkpt lat="34.8019248" lon="32.3988086"><ele>45.5</ele><time>2015-04-24T15:29:16.0000000+00:00</time></trkpt><trkpt lat="34.8019816" lon="32.3987784"><ele>45.2</ele><time>2015-04-24T15:29:17.0000000+00:00</time></trkpt><trkpt lat="34.8020326" lon="32.3987382"><ele>44.6</ele><time>2015-04-24T15:29:18.0000000+00:00</time></trkpt><trkpt lat="34.8020942" lon="32.3987168"><ele>44.8</ele><time>2015-04-24T15:29:19.0000000+00:00</time></trkpt><trkpt lat="34.8021413" lon="32.3986785"><ele>44.3</ele><time>2015-04-24T15:29:20.0000000+00:00</time></trkpt><trkpt lat="34.8021916" lon="32.3986312"><ele>44.6</ele><time>2015-04-24T15:29:21.0000000+00:00</time></trkpt><trkpt lat="34.8022408" lon="32.398613"><ele>44.8</ele><time>2015-04-24T15:29:22.0000000+00:00</time></trkpt><trkpt lat="34.802295" lon="32.3985986"><ele>44.4</ele><time>2015-04-24T15:29:23.0000000+00:00</time></trkpt><trkpt lat="34.8023471" lon="32.3985592"><ele>43.6</ele><time>2015-04-24T15:29:24.0000000+00:00</time></trkpt><trkpt lat="34.802398" lon="32.3985303"><ele>43.3</ele><time>2015-04-24T15:29:25.0000000+00:00</time></trkpt><trkpt lat="34.8024526" lon="32.3984965"><ele>43.1</ele><time>2015-04-24T15:29:26.0000000+00:00</time></trkpt><trkpt lat="34.8025106" lon="32.3984576"><ele>43.5</ele><time>2015-04-24T15:29:27.0000000+00:00</time></trkpt><trkpt lat="34.802571" lon="32.3984122"><ele>44.2</ele><time>2015-04-24T15:29:28.0000000+00:00</time></trkpt><trkpt lat="34.8026337" lon="32.3983813"><ele>45.1</ele><time>2015-04-24T15:29:29.0000000+00:00</time></trkpt><trkpt lat="34.8026836" lon="32.3983487"><ele>45.5</ele><time>2015-04-24T15:29:30.0000000+00:00</time></trkpt><trkpt lat="34.8027409" lon="32.3983167"><ele>45.7</ele><time>2015-04-24T15:29:31.0000000+00:00</time></trkpt><trkpt lat="34.8027946" lon="32.3982858"><ele>45.3</ele><time>2015-04-24T15:29:32.0000000+00:00</time></trkpt><trkpt lat="34.8028515" lon="32.3982473"><ele>44.6</ele><time>2015-04-24T15:29:33.0000000+00:00</time></trkpt><trkpt lat="34.8029196" lon="32.3982112"><ele>44.8</ele><time>2015-04-24T15:29:34.0000000+00:00</time></trkpt><trkpt lat="34.8029768" lon="32.3981763"><ele>44.9</ele><time>2015-04-24T15:29:35.0000000+00:00</time></trkpt><trkpt lat="34.8030383" lon="32.398156"><ele>44.4</ele><time>2015-04-24T15:29:36.0000000+00:00</time></trkpt><trkpt lat="34.8030986" lon="32.3981255"><ele>44.2</ele><time>2015-04-24T15:29:37.0000000+00:00</time></trkpt><trkpt lat="34.8031581" lon="32.3980891"><ele>43.5</ele><time>2015-04-24T15:29:38.0000000+00:00</time></trkpt><trkpt lat="34.8032176" lon="32.3980536"><ele>43.7</ele><time>2015-04-24T15:29:39.0000000+00:00</time></trkpt><trkpt lat="34.8032796" lon="32.3980161"><ele>43.3</ele><time>2015-04-24T15:29:40.0000000+00:00</time></trkpt><trkpt lat="34.8033418" lon="32.397981"><ele>43.1</ele><time>2015-04-24T15:29:41.0000000+00:00</time></trkpt><trkpt lat="34.8033947" lon="32.3979379"><ele>43.0</ele><time>2015-04-24T15:29:42.0000000+00:00</time></trkpt><trkpt lat="34.8034488" lon="32.397912"><ele>43.0</ele><time>2015-04-24T15:29:43.0000000+00:00</time></trkpt><trkpt lat="34.8035037" lon="32.3978878"><ele>42.5</ele><time>2015-04-24T15:29:44.0000000+00:00</time></trkpt><trkpt lat="34.8035575" lon="32.3978545"><ele>42.2</ele><time>2015-04-24T15:29:45.0000000+00:00</time></trkpt><trkpt lat="34.803606" lon="32.3978286"><ele>42.1</ele><time>2015-04-24T15:29:46.0000000+00:00</time></trkpt><trkpt lat="34.8036566" lon="32.3978063"><ele>42.0</ele><time>2015-04-24T15:29:47.0000000+00:00</time></trkpt><trkpt lat="34.8037138" lon="32.3977849"><ele>42.0</ele><time>2015-04-24T15:29:48.0000000+00:00</time></trkpt><trkpt lat="34.803762" lon="32.3977614"><ele>41.9</ele><time>2015-04-24T15:29:49.0000000+00:00</time></trkpt><trkpt lat="34.8038115" lon="32.3977395"><ele>41.9</ele><time>2015-04-24T15:29:50.0000000+00:00</time></trkpt><trkpt lat="34.8038576" lon="32.3977093"><ele>41.9</ele><time>2015-04-24T15:29:51.0000000+00:00</time></trkpt><trkpt lat="34.803908" lon="32.3976924"><ele>41.9</ele><time>2015-04-24T15:29:52.0000000+00:00</time></trkpt><trkpt lat="34.8039569" lon="32.3976669"><ele>42.4</ele><time>2015-04-24T15:29:53.0000000+00:00</time></trkpt><trkpt lat="34.8040028" lon="32.3976383"><ele>42.7</ele><time>2015-04-24T15:29:54.0000000+00:00</time></trkpt><trkpt lat="34.8040739" lon="32.3975888"><ele>42.1</ele><time>2015-04-24T15:29:56.0000000+00:00</time></trkpt><trkpt lat="34.8041141" lon="32.3975639"><ele>41.5</ele><time>2015-04-24T15:29:57.0000000+00:00</time></trkpt><trkpt lat="34.8041527" lon="32.3975293"><ele>41.2</ele><time>2015-04-24T15:29:58.0000000+00:00</time></trkpt><trkpt lat="34.8042289" lon="32.397509"><ele>40.3</ele><time>2015-04-24T15:30:00.0000000+00:00</time></trkpt><trkpt lat="34.804281" lon="32.3974768"><ele>38.3</ele><time>2015-04-24T15:30:02.0000000+00:00</time></trkpt><trkpt lat="34.804326" lon="32.397438"><ele>38.3</ele><time>2015-04-24T15:30:04.0000000+00:00</time></trkpt><trkpt lat="34.8043925" lon="32.3974214"><ele>38.0</ele><time>2015-04-24T15:30:06.0000000+00:00</time></trkpt><trkpt lat="34.8044639" lon="32.397382"><ele>38.0</ele><time>2015-04-24T15:30:08.0000000+00:00</time></trkpt><trkpt lat="34.8045447" lon="32.3973485"><ele>38.7</ele><time>2015-04-24T15:30:10.0000000+00:00</time></trkpt><trkpt lat="34.8046284" lon="32.3973239"><ele>38.9</ele><time>2015-04-24T15:30:12.0000000+00:00</time></trkpt><trkpt lat="34.804718" lon="32.3972851"><ele>38.4</ele><time>2015-04-24T15:30:14.0000000+00:00</time></trkpt><trkpt lat="34.8047644" lon="32.397261"><ele>38.2</ele><time>2015-04-24T15:30:15.0000000+00:00</time></trkpt><trkpt lat="34.8048113" lon="32.3972238"><ele>38.6</ele><time>2015-04-24T15:30:16.0000000+00:00</time></trkpt><trkpt lat="34.8048629" lon="32.397209"><ele>38.2</ele><time>2015-04-24T15:30:17.0000000+00:00</time></trkpt><trkpt lat="34.8049514" lon="32.397185"><ele>38.5</ele><time>2015-04-24T15:30:19.0000000+00:00</time></trkpt><trkpt lat="34.8049962" lon="32.397178"><ele>38.7</ele><time>2015-04-24T15:30:20.0000000+00:00</time></trkpt><trkpt lat="34.8050376" lon="32.3971534"><ele>40.3</ele><time>2015-04-24T15:30:21.0000000+00:00</time></trkpt><trkpt lat="34.8051093" lon="32.3971422"><ele>41.5</ele><time>2015-04-24T15:30:23.0000000+00:00</time></trkpt><trkpt lat="34.8052027" lon="32.3971262"><ele>41.3</ele><time>2015-04-24T15:30:25.0000000+00:00</time></trkpt><trkpt lat="34.8052452" lon="32.3971033"><ele>40.6</ele><time>2015-04-24T15:30:26.0000000+00:00</time></trkpt><trkpt lat="34.8052901" lon="32.3970855"><ele>39.8</ele><time>2015-04-24T15:30:27.0000000+00:00</time></trkpt><trkpt lat="34.8053368" lon="32.3970736"><ele>39.4</ele><time>2015-04-24T15:30:28.0000000+00:00</time></trkpt><trkpt lat="34.8053896" lon="32.397052"><ele>39.6</ele><time>2015-04-24T15:30:29.0000000+00:00</time></trkpt><trkpt lat="34.8054355" lon="32.3970343"><ele>39.3</ele><time>2015-04-24T15:30:30.0000000+00:00</time></trkpt><trkpt lat="34.805486" lon="32.3970201"><ele>39.6</ele><time>2015-04-24T15:30:31.0000000+00:00</time></trkpt><trkpt lat="34.8055384" lon="32.3970057"><ele>39.3</ele><time>2015-04-24T15:30:32.0000000+00:00</time></trkpt><trkpt lat="34.8055878" lon="32.3969869"><ele>39.1</ele><time>2015-04-24T15:30:33.0000000+00:00</time></trkpt><trkpt lat="34.8056441" lon="32.3969735"><ele>39.0</ele><time>2015-04-24T15:30:34.0000000+00:00</time></trkpt><trkpt lat="34.8056901" lon="32.3969525"><ele>39.0</ele><time>2015-04-24T15:30:35.0000000+00:00</time></trkpt><trkpt lat="34.8057419" lon="32.3969253"><ele>39.5</ele><time>2015-04-24T15:30:36.0000000+00:00</time></trkpt><trkpt lat="34.8057855" lon="32.3969058"><ele>39.7</ele><time>2015-04-24T15:30:37.0000000+00:00</time></trkpt><trkpt lat="34.805839" lon="32.3968902"><ele>39.8</ele><time>2015-04-24T15:30:38.0000000+00:00</time></trkpt><trkpt lat="34.8059319" lon="32.3968897"><ele>38.7</ele><time>2015-04-24T15:30:40.0000000+00:00</time></trkpt><trkpt lat="34.8060085" lon="32.3968872"><ele>37.6</ele><time>2015-04-24T15:30:42.0000000+00:00</time></trkpt><trkpt lat="34.8060891" lon="32.3968713"><ele>38.4</ele><time>2015-04-24T15:30:44.0000000+00:00</time></trkpt><trkpt lat="34.8061372" lon="32.3968559"><ele>38.6</ele><time>2015-04-24T15:30:45.0000000+00:00</time></trkpt><trkpt lat="34.8061852" lon="32.3968518"><ele>39.3</ele><time>2015-04-24T15:30:46.0000000+00:00</time></trkpt><trkpt lat="34.8062333" lon="32.3968471"><ele>40.1</ele><time>2015-04-24T15:30:47.0000000+00:00</time></trkpt><trkpt lat="34.8062843" lon="32.3968396"><ele>40.5</ele><time>2015-04-24T15:30:48.0000000+00:00</time></trkpt><trkpt lat="34.8063368" lon="32.3968409"><ele>40.7</ele><time>2015-04-24T15:30:49.0000000+00:00</time></trkpt><trkpt lat="34.8063888" lon="32.3968348"><ele>40.3</ele><time>2015-04-24T15:30:50.0000000+00:00</time></trkpt><trkpt lat="34.8064453" lon="32.3968236"><ele>40.1</ele><time>2015-04-24T15:30:51.0000000+00:00</time></trkpt><trkpt lat="34.8065025" lon="32.3968163"><ele>40.5</ele><time>2015-04-24T15:30:52.0000000+00:00</time></trkpt><trkpt lat="34.806555" lon="32.396813"><ele>40.2</ele><time>2015-04-24T15:30:53.0000000+00:00</time></trkpt><trkpt lat="34.8066088" lon="32.3968073"><ele>40.6</ele><time>2015-04-24T15:30:54.0000000+00:00</time></trkpt><trkpt lat="34.8066655" lon="32.396818"><ele>40.3</ele><time>2015-04-24T15:30:55.0000000+00:00</time></trkpt><trkpt lat="34.8067228" lon="32.3968165"><ele>39.6</ele><time>2015-04-24T15:30:56.0000000+00:00</time></trkpt><trkpt lat="34.8067747" lon="32.3968187"><ele>39.3</ele><time>2015-04-24T15:30:57.0000000+00:00</time></trkpt><trkpt lat="34.8068243" lon="32.396811"><ele>39.6</ele><time>2015-04-24T15:30:58.0000000+00:00</time></trkpt><trkpt lat="34.8068822" lon="32.3968021"><ele>40.3</ele><time>2015-04-24T15:30:59.0000000+00:00</time></trkpt><trkpt lat="34.8069367" lon="32.3967979"><ele>40.6</ele><time>2015-04-24T15:31:00.0000000+00:00</time></trkpt><trkpt lat="34.8069877" lon="32.3967922"><ele>41.3</ele><time>2015-04-24T15:31:01.0000000+00:00</time></trkpt><trkpt lat="34.8070362" lon="32.3967872"><ele>41.6</ele><time>2015-04-24T15:31:02.0000000+00:00</time></trkpt><trkpt lat="34.8071139" lon="32.396783"><ele>43.3</ele><time>2015-04-24T15:31:04.0000000+00:00</time></trkpt><trkpt lat="34.8072065" lon="32.3967694"><ele>43.0</ele><time>2015-04-24T15:31:06.0000000+00:00</time></trkpt><trkpt lat="34.8072606" lon="32.3967538"><ele>43.0</ele><time>2015-04-24T15:31:07.0000000+00:00</time></trkpt><trkpt lat="34.807314" lon="32.3967399"><ele>42.5</ele><time>2015-04-24T15:31:08.0000000+00:00</time></trkpt><trkpt lat="34.8073606" lon="32.3967367"><ele>42.7</ele><time>2015-04-24T15:31:09.0000000+00:00</time></trkpt><trkpt lat="34.8074108" lon="32.3967315"><ele>42.8</ele><time>2015-04-24T15:31:10.0000000+00:00</time></trkpt><trkpt lat="34.8074659" lon="32.3967216"><ele>42.9</ele><time>2015-04-24T15:31:11.0000000+00:00</time></trkpt><trkpt lat="34.807553" lon="32.3967065"><ele>43.9</ele><time>2015-04-24T15:31:13.0000000+00:00</time></trkpt><trkpt lat="34.8076071" lon="32.3967093"><ele>43.4</ele><time>2015-04-24T15:31:14.0000000+00:00</time></trkpt><trkpt lat="34.8076604" lon="32.3966952"><ele>43.2</ele><time>2015-04-24T15:31:15.0000000+00:00</time></trkpt><trkpt lat="34.8077138" lon="32.3966878"><ele>43.1</ele><time>2015-04-24T15:31:16.0000000+00:00</time></trkpt><trkpt lat="34.8077673" lon="32.3966721"><ele>42.5</ele><time>2015-04-24T15:31:17.0000000+00:00</time></trkpt><trkpt lat="34.8078178" lon="32.3966559"><ele>42.2</ele><time>2015-04-24T15:31:18.0000000+00:00</time></trkpt><trkpt lat="34.8078712" lon="32.3966435"><ele>42.1</ele><time>2015-04-24T15:31:19.0000000+00:00</time></trkpt><trkpt lat="34.807924" lon="32.3966312"><ele>42.0</ele><time>2015-04-24T15:31:20.0000000+00:00</time></trkpt><trkpt lat="34.8079823" lon="32.3966241"><ele>41.5</ele><time>2015-04-24T15:31:21.0000000+00:00</time></trkpt><trkpt lat="34.8080379" lon="32.3966071"><ele>41.2</ele><time>2015-04-24T15:31:22.0000000+00:00</time></trkpt><trkpt lat="34.8080925" lon="32.3965817"><ele>40.6</ele><time>2015-04-24T15:31:23.0000000+00:00</time></trkpt><trkpt lat="34.8081481" lon="32.3965758"><ele>39.7</ele><time>2015-04-24T15:31:24.0000000+00:00</time></trkpt><trkpt lat="34.8082075" lon="32.396566"><ele>39.3</ele><time>2015-04-24T15:31:25.0000000+00:00</time></trkpt><trkpt lat="34.8082627" lon="32.3965512"><ele>39.1</ele><time>2015-04-24T15:31:26.0000000+00:00</time></trkpt><trkpt lat="34.8083206" lon="32.39653"><ele>39.5</ele><time>2015-04-24T15:31:27.0000000+00:00</time></trkpt><trkpt lat="34.8083749" lon="32.396517"><ele>39.7</ele><time>2015-04-24T15:31:28.0000000+00:00</time></trkpt><trkpt lat="34.8084248" lon="32.3964948"><ele>39.8</ele><time>2015-04-24T15:31:29.0000000+00:00</time></trkpt><trkpt lat="34.8084785" lon="32.3964736"><ele>39.9</ele><time>2015-04-24T15:31:30.0000000+00:00</time></trkpt><trkpt lat="34.808529" lon="32.396459"><ele>39.9</ele><time>2015-04-24T15:31:31.0000000+00:00</time></trkpt><trkpt lat="34.8085791" lon="32.3964409"><ele>39.9</ele><time>2015-04-24T15:31:32.0000000+00:00</time></trkpt><trkpt lat="34.808635" lon="32.3964287"><ele>38.9</ele><time>2015-04-24T15:31:33.0000000+00:00</time></trkpt><trkpt lat="34.8086802" lon="32.3963924"><ele>38.9</ele><time>2015-04-24T15:31:34.0000000+00:00</time></trkpt><trkpt lat="34.8087286" lon="32.3963694"><ele>38.9</ele><time>2015-04-24T15:31:35.0000000+00:00</time></trkpt><trkpt lat="34.8087772" lon="32.396344"><ele>38.9</ele><time>2015-04-24T15:31:36.0000000+00:00</time></trkpt><trkpt lat="34.8088269" lon="32.3963223"><ele>38.9</ele><time>2015-04-24T15:31:37.0000000+00:00</time></trkpt><trkpt lat="34.8088758" lon="32.3963048"><ele>38.9</ele><time>2015-04-24T15:31:38.0000000+00:00</time></trkpt><trkpt lat="34.8089243" lon="32.3962807"><ele>39.4</ele><time>2015-04-24T15:31:39.0000000+00:00</time></trkpt><trkpt lat="34.8089728" lon="32.3962644"><ele>39.7</ele><time>2015-04-24T15:31:40.0000000+00:00</time></trkpt><trkpt lat="34.809027" lon="32.3962395"><ele>39.3</ele><time>2015-04-24T15:31:41.0000000+00:00</time></trkpt><trkpt lat="34.8090805" lon="32.3962275"><ele>38.1</ele><time>2015-04-24T15:31:42.0000000+00:00</time></trkpt><trkpt lat="34.8091275" lon="32.3962138"><ele>37.5</ele><time>2015-04-24T15:31:43.0000000+00:00</time></trkpt><trkpt lat="34.8091762" lon="32.3961946"><ele>37.2</ele><time>2015-04-24T15:31:44.0000000+00:00</time></trkpt><trkpt lat="34.809227" lon="32.3961839"><ele>36.6</ele><time>2015-04-24T15:31:45.0000000+00:00</time></trkpt><trkpt lat="34.8093099" lon="32.3961685"><ele>35.3</ele><time>2015-04-24T15:31:47.0000000+00:00</time></trkpt><trkpt lat="34.8093657" lon="32.3961515"><ele>35.1</ele><time>2015-04-24T15:31:48.0000000+00:00</time></trkpt><trkpt lat="34.8094178" lon="32.3961338"><ele>35.0</ele><time>2015-04-24T15:31:49.0000000+00:00</time></trkpt><trkpt lat="34.809466" lon="32.3961223"><ele>35.0</ele><time>2015-04-24T15:31:50.0000000+00:00</time></trkpt><trkpt lat="34.8095558" lon="32.396108"><ele>35.7</ele><time>2015-04-24T15:31:52.0000000+00:00</time></trkpt><trkpt lat="34.8096375" lon="32.3960818"><ele>35.4</ele><time>2015-04-24T15:31:54.0000000+00:00</time></trkpt><trkpt lat="34.8097209" lon="32.3960653"><ele>34.3</ele><time>2015-04-24T15:31:56.0000000+00:00</time></trkpt><trkpt lat="34.8097717" lon="32.3960572"><ele>34.1</ele><time>2015-04-24T15:31:57.0000000+00:00</time></trkpt><trkpt lat="34.8098275" lon="32.3960513"><ele>34.0</ele><time>2015-04-24T15:31:58.0000000+00:00</time></trkpt><trkpt lat="34.8098848" lon="32.3960539"><ele>34.0</ele><time>2015-04-24T15:31:59.0000000+00:00</time></trkpt><trkpt lat="34.8099376" lon="32.3960496"><ele>33.5</ele><time>2015-04-24T15:32:00.0000000+00:00</time></trkpt><trkpt lat="34.8099881" lon="32.39604"><ele>33.2</ele><time>2015-04-24T15:32:01.0000000+00:00</time></trkpt><trkpt lat="34.8100365" lon="32.3960446"><ele>32.6</ele><time>2015-04-24T15:32:02.0000000+00:00</time></trkpt><trkpt lat="34.8100857" lon="32.396048"><ele>32.2</ele><time>2015-04-24T15:32:03.0000000+00:00</time></trkpt><trkpt lat="34.8101385" lon="32.3960505"><ele>32.6</ele><time>2015-04-24T15:32:04.0000000+00:00</time></trkpt><trkpt lat="34.8101917" lon="32.3960607"><ele>32.3</ele><time>2015-04-24T15:32:05.0000000+00:00</time></trkpt><trkpt lat="34.8102468" lon="32.3960662"><ele>32.1</ele><time>2015-04-24T15:32:06.0000000+00:00</time></trkpt><trkpt lat="34.8103047" lon="32.3960701"><ele>32.0</ele><time>2015-04-24T15:32:07.0000000+00:00</time></trkpt><trkpt lat="34.810364" lon="32.3960768"><ele>32.0</ele><time>2015-04-24T15:32:08.0000000+00:00</time></trkpt><trkpt lat="34.8104247" lon="32.3960771"><ele>32.5</ele><time>2015-04-24T15:32:09.0000000+00:00</time></trkpt><trkpt lat="34.8104852" lon="32.3960779"><ele>33.2</ele><time>2015-04-24T15:32:10.0000000+00:00</time></trkpt><trkpt lat="34.8105431" lon="32.3960864"><ele>33.6</ele><time>2015-04-24T15:32:11.0000000+00:00</time></trkpt><trkpt lat="34.8106055" lon="32.3961065"><ele>33.2</ele><time>2015-04-24T15:32:12.0000000+00:00</time></trkpt><trkpt lat="34.8106598" lon="32.3961094"><ele>33.1</ele><time>2015-04-24T15:32:13.0000000+00:00</time></trkpt><trkpt lat="34.8107181" lon="32.3961268"><ele>32.5</ele><time>2015-04-24T15:32:14.0000000+00:00</time></trkpt><trkpt lat="34.8107778" lon="32.3961509"><ele>32.2</ele><time>2015-04-24T15:32:15.0000000+00:00</time></trkpt><trkpt lat="34.8108313" lon="32.3961654"><ele>32.6</ele><time>2015-04-24T15:32:16.0000000+00:00</time></trkpt><trkpt lat="34.8108909" lon="32.3961676"><ele>31.8</ele><time>2015-04-24T15:32:17.0000000+00:00</time></trkpt><trkpt lat="34.810943" lon="32.396183"><ele>31.8</ele><time>2015-04-24T15:32:18.0000000+00:00</time></trkpt><trkpt lat="34.8110006" lon="32.3961956"><ele>31.9</ele><time>2015-04-24T15:32:19.0000000+00:00</time></trkpt><trkpt lat="34.8110608" lon="32.39622"><ele>31.9</ele><time>2015-04-24T15:32:20.0000000+00:00</time></trkpt><trkpt lat="34.8111152" lon="32.3962389"><ele>31.9</ele><time>2015-04-24T15:32:21.0000000+00:00</time></trkpt><trkpt lat="34.8111646" lon="32.3962645"><ele>31.9</ele><time>2015-04-24T15:32:22.0000000+00:00</time></trkpt><trkpt lat="34.8112195" lon="32.3962888"><ele>31.9</ele><time>2015-04-24T15:32:23.0000000+00:00</time></trkpt><trkpt lat="34.8112738" lon="32.3963147"><ele>31.9</ele><time>2015-04-24T15:32:24.0000000+00:00</time></trkpt><trkpt lat="34.8113318" lon="32.3963365"><ele>32.4</ele><time>2015-04-24T15:32:25.0000000+00:00</time></trkpt><trkpt lat="34.8113872" lon="32.3963642"><ele>32.7</ele><time>2015-04-24T15:32:26.0000000+00:00</time></trkpt><trkpt lat="34.8114417" lon="32.396383"><ele>32.8</ele><time>2015-04-24T15:32:27.0000000+00:00</time></trkpt><trkpt lat="34.8114969" lon="32.3964095"><ele>32.4</ele><time>2015-04-24T15:32:28.0000000+00:00</time></trkpt><trkpt lat="34.8115538" lon="32.3964331"><ele>31.6</ele><time>2015-04-24T15:32:29.0000000+00:00</time></trkpt><trkpt lat="34.811608" lon="32.3964586"><ele>31.8</ele><time>2015-04-24T15:32:30.0000000+00:00</time></trkpt><trkpt lat="34.8116582" lon="32.3964734"><ele>31.4</ele><time>2015-04-24T15:32:31.0000000+00:00</time></trkpt><trkpt lat="34.8117152" lon="32.3964977"><ele>31.1</ele><time>2015-04-24T15:32:32.0000000+00:00</time></trkpt><trkpt lat="34.8117678" lon="32.3965274"><ele>31.0</ele><time>2015-04-24T15:32:33.0000000+00:00</time></trkpt><trkpt lat="34.8118253" lon="32.3965529"><ele>31.0</ele><time>2015-04-24T15:32:34.0000000+00:00</time></trkpt><trkpt lat="34.8118714" lon="32.396576"><ele>31.0</ele><time>2015-04-24T15:32:35.0000000+00:00</time></trkpt><trkpt lat="34.811937" lon="32.3966044"><ele>30.9</ele><time>2015-04-24T15:32:36.0000000+00:00</time></trkpt><trkpt lat="34.8120003" lon="32.396626"><ele>30.9</ele><time>2015-04-24T15:32:37.0000000+00:00</time></trkpt><trkpt lat="34.8120568" lon="32.3966448"><ele>30.4</ele><time>2015-04-24T15:32:38.0000000+00:00</time></trkpt><trkpt lat="34.8121188" lon="32.3966697"><ele>29.7</ele><time>2015-04-24T15:32:39.0000000+00:00</time></trkpt><trkpt lat="34.8121849" lon="32.3966746"><ele>29.3</ele><time>2015-04-24T15:32:40.0000000+00:00</time></trkpt><trkpt lat="34.8122452" lon="32.3966827"><ele>28.6</ele><time>2015-04-24T15:32:41.0000000+00:00</time></trkpt><trkpt lat="34.812302" lon="32.396705"><ele>28.8</ele><time>2015-04-24T15:32:42.0000000+00:00</time></trkpt><trkpt lat="34.8123588" lon="32.3967115"><ele>28.9</ele><time>2015-04-24T15:32:43.0000000+00:00</time></trkpt><trkpt lat="34.8124186" lon="32.3967255"><ele>29.4</ele><time>2015-04-24T15:32:44.0000000+00:00</time></trkpt><trkpt lat="34.8124847" lon="32.3967256"><ele>29.7</ele><time>2015-04-24T15:32:45.0000000+00:00</time></trkpt><trkpt lat="34.8125488" lon="32.396727"><ele>29.8</ele><time>2015-04-24T15:32:46.0000000+00:00</time></trkpt><trkpt lat="34.8126117" lon="32.3967377"><ele>29.4</ele><time>2015-04-24T15:32:47.0000000+00:00</time></trkpt><trkpt lat="34.8126808" lon="32.3967407"><ele>29.1</ele><time>2015-04-24T15:32:48.0000000+00:00</time></trkpt><trkpt lat="34.8127511" lon="32.3967343"><ele>29.5</ele><time>2015-04-24T15:32:49.0000000+00:00</time></trkpt><trkpt lat="34.8128236" lon="32.3967237"><ele>29.7</ele><time>2015-04-24T15:32:50.0000000+00:00</time></trkpt><trkpt lat="34.8128925" lon="32.3967131"><ele>29.8</ele><time>2015-04-24T15:32:51.0000000+00:00</time></trkpt><trkpt lat="34.8129613" lon="32.3966949"><ele>29.9</ele><time>2015-04-24T15:32:52.0000000+00:00</time></trkpt><trkpt lat="34.8130285" lon="32.3966619"><ele>29.9</ele><time>2015-04-24T15:32:53.0000000+00:00</time></trkpt><trkpt lat="34.8130915" lon="32.3966362"><ele>29.9</ele><time>2015-04-24T15:32:54.0000000+00:00</time></trkpt><trkpt lat="34.8131579" lon="32.3966078"><ele>29.4</ele><time>2015-04-24T15:32:55.0000000+00:00</time></trkpt><trkpt lat="34.8132186" lon="32.3965736"><ele>29.2</ele><time>2015-04-24T15:32:56.0000000+00:00</time></trkpt><trkpt lat="34.8132752" lon="32.3965439"><ele>29.1</ele><time>2015-04-24T15:32:57.0000000+00:00</time></trkpt><trkpt lat="34.8133328" lon="32.3965074"><ele>29.0</ele><time>2015-04-24T15:32:58.0000000+00:00</time></trkpt><trkpt lat="34.8133922" lon="32.3964685"><ele>29.0</ele><time>2015-04-24T15:32:59.0000000+00:00</time></trkpt><trkpt lat="34.8134491" lon="32.3964319"><ele>28.9</ele><time>2015-04-24T15:33:00.0000000+00:00</time></trkpt><trkpt lat="34.8134937" lon="32.3963944"><ele>28.9</ele><time>2015-04-24T15:33:01.0000000+00:00</time></trkpt><trkpt lat="34.8135445" lon="32.3963589"><ele>29.4</ele><time>2015-04-24T15:33:02.0000000+00:00</time></trkpt><trkpt lat="34.8135888" lon="32.3963246"><ele>29.7</ele><time>2015-04-24T15:33:03.0000000+00:00</time></trkpt><trkpt lat="34.8136361" lon="32.3962783"><ele>29.8</ele><time>2015-04-24T15:33:04.0000000+00:00</time></trkpt><trkpt lat="34.8136766" lon="32.3962306"><ele>29.9</ele><time>2015-04-24T15:33:05.0000000+00:00</time></trkpt><trkpt lat="34.8137212" lon="32.3961886"><ele>29.9</ele><time>2015-04-24T15:33:06.0000000+00:00</time></trkpt><trkpt lat="34.8137679" lon="32.3961569"><ele>29.9</ele><time>2015-04-24T15:33:07.0000000+00:00</time></trkpt><trkpt lat="34.8138107" lon="32.3961162"><ele>29.9</ele><time>2015-04-24T15:33:08.0000000+00:00</time></trkpt><trkpt lat="34.8138516" lon="32.3960836"><ele>29.4</ele><time>2015-04-24T15:33:09.0000000+00:00</time></trkpt><trkpt lat="34.813894" lon="32.3960542"><ele>29.2</ele><time>2015-04-24T15:33:10.0000000+00:00</time></trkpt><trkpt lat="34.8139371" lon="32.3960112"><ele>29.6</ele><time>2015-04-24T15:33:11.0000000+00:00</time></trkpt><trkpt lat="34.8139812" lon="32.3959678"><ele>30.2</ele><time>2015-04-24T15:33:12.0000000+00:00</time></trkpt><trkpt lat="34.8140199" lon="32.3959369"><ele>30.6</ele><time>2015-04-24T15:33:13.0000000+00:00</time></trkpt><trkpt lat="34.8140599" lon="32.3958965"><ele>30.3</ele><time>2015-04-24T15:33:14.0000000+00:00</time></trkpt><trkpt lat="34.8140984" lon="32.39586"><ele>30.1</ele><time>2015-04-24T15:33:15.0000000+00:00</time></trkpt><trkpt lat="34.8141434" lon="32.3958251"><ele>30.0</ele><time>2015-04-24T15:33:16.0000000+00:00</time></trkpt><trkpt lat="34.8141918" lon="32.3957985"><ele>30.0</ele><time>2015-04-24T15:33:17.0000000+00:00</time></trkpt><trkpt lat="34.8142249" lon="32.3957576"><ele>30.0</ele><time>2015-04-24T15:33:18.0000000+00:00</time></trkpt><trkpt lat="34.8142608" lon="32.3957192"><ele>29.4</ele><time>2015-04-24T15:33:19.0000000+00:00</time></trkpt><trkpt lat="34.8143074" lon="32.3956907"><ele>28.7</ele><time>2015-04-24T15:33:20.0000000+00:00</time></trkpt><trkpt lat="34.8143542" lon="32.3956681"><ele>28.3</ele><time>2015-04-24T15:33:21.0000000+00:00</time></trkpt><trkpt lat="34.8144032" lon="32.3956334"><ele>28.1</ele><time>2015-04-24T15:33:22.0000000+00:00</time></trkpt><trkpt lat="34.8144509" lon="32.3956002"><ele>28.0</ele><time>2015-04-24T15:33:23.0000000+00:00</time></trkpt><trkpt lat="34.8144951" lon="32.3955756"><ele>28.0</ele><time>2015-04-24T15:33:24.0000000+00:00</time></trkpt><trkpt lat="34.8145866" lon="32.3955262"><ele>27.4</ele><time>2015-04-24T15:33:26.0000000+00:00</time></trkpt><trkpt lat="34.8146378" lon="32.3955123"><ele>26.7</ele><time>2015-04-24T15:33:27.0000000+00:00</time></trkpt><trkpt lat="34.814716" lon="32.3954581"><ele>26.1</ele><time>2015-04-24T15:33:29.0000000+00:00</time></trkpt><trkpt lat="34.814763" lon="32.3954349"><ele>25.5</ele><time>2015-04-24T15:33:30.0000000+00:00</time></trkpt><trkpt lat="34.814812" lon="32.395418"><ele>25.2</ele><time>2015-04-24T15:33:31.0000000+00:00</time></trkpt><trkpt lat="34.8148611" lon="32.3953875"><ele>25.1</ele><time>2015-04-24T15:33:32.0000000+00:00</time></trkpt><trkpt lat="34.8149137" lon="32.3953692"><ele>25.0</ele><time>2015-04-24T15:33:33.0000000+00:00</time></trkpt><trkpt lat="34.8149618" lon="32.395347"><ele>25.0</ele><time>2015-04-24T15:33:34.0000000+00:00</time></trkpt><trkpt lat="34.8150204" lon="32.3953249"><ele>25.4</ele><time>2015-04-24T15:33:35.0000000+00:00</time></trkpt><trkpt lat="34.8150774" lon="32.395299"><ele>25.7</ele><time>2015-04-24T15:33:36.0000000+00:00</time></trkpt><trkpt lat="34.8151355" lon="32.3952753"><ele>25.8</ele><time>2015-04-24T15:33:37.0000000+00:00</time></trkpt><trkpt lat="34.815186" lon="32.3952581"><ele>25.9</ele><time>2015-04-24T15:33:38.0000000+00:00</time></trkpt><trkpt lat="34.8152339" lon="32.3952383"><ele>25.4</ele><time>2015-04-24T15:33:39.0000000+00:00</time></trkpt><trkpt lat="34.8152876" lon="32.3952268"><ele>25.2</ele><time>2015-04-24T15:33:40.0000000+00:00</time></trkpt><trkpt lat="34.8153329" lon="32.3952093"><ele>25.0</ele><time>2015-04-24T15:33:41.0000000+00:00</time></trkpt><trkpt lat="34.8153869" lon="32.3951879"><ele>24.5</ele><time>2015-04-24T15:33:42.0000000+00:00</time></trkpt><trkpt lat="34.815436" lon="32.3951685"><ele>24.2</ele><time>2015-04-24T15:33:43.0000000+00:00</time></trkpt><trkpt lat="34.8154896" lon="32.3951533"><ele>23.6</ele><time>2015-04-24T15:33:44.0000000+00:00</time></trkpt><trkpt lat="34.8155373" lon="32.3951398"><ele>23.2</ele><time>2015-04-24T15:33:45.0000000+00:00</time></trkpt><trkpt lat="34.8155911" lon="32.3951323"><ele>23.1</ele><time>2015-04-24T15:33:46.0000000+00:00</time></trkpt><trkpt lat="34.8156796" lon="32.39511"><ele>23.0</ele><time>2015-04-24T15:33:48.0000000+00:00</time></trkpt><trkpt lat="34.8157265" lon="32.3950954"><ele>22.4</ele><time>2015-04-24T15:33:49.0000000+00:00</time></trkpt><trkpt lat="34.8158134" lon="32.3950654"><ele>23.6</ele><time>2015-04-24T15:33:51.0000000+00:00</time></trkpt><trkpt lat="34.8158741" lon="32.3950442"><ele>23.7</ele><time>2015-04-24T15:33:52.0000000+00:00</time></trkpt><trkpt lat="34.8159306" lon="32.3950404"><ele>23.3</ele><time>2015-04-24T15:33:53.0000000+00:00</time></trkpt><trkpt lat="34.8159814" lon="32.3950312"><ele>23.1</ele><time>2015-04-24T15:33:54.0000000+00:00</time></trkpt><trkpt lat="34.8160444" lon="32.3950105"><ele>23.5</ele><time>2015-04-24T15:33:55.0000000+00:00</time></trkpt><trkpt lat="34.8160985" lon="32.3950007"><ele>23.7</ele><time>2015-04-24T15:33:56.0000000+00:00</time></trkpt><trkpt lat="34.8161489" lon="32.3950061"><ele>23.3</ele><time>2015-04-24T15:33:57.0000000+00:00</time></trkpt><trkpt lat="34.816209" lon="32.3950183"><ele>22.1</ele><time>2015-04-24T15:33:58.0000000+00:00</time></trkpt><trkpt lat="34.8162596" lon="32.3950132"><ele>21.0</ele><time>2015-04-24T15:33:59.0000000+00:00</time></trkpt><trkpt lat="34.8163169" lon="32.3950061"><ele>21.5</ele><time>2015-04-24T15:34:00.0000000+00:00</time></trkpt><trkpt lat="34.8163662" lon="32.395012"><ele>21.7</ele><time>2015-04-24T15:34:01.0000000+00:00</time></trkpt><trkpt lat="34.8164318" lon="32.3950129"><ele>22.3</ele><time>2015-04-24T15:34:02.0000000+00:00</time></trkpt><trkpt lat="34.8164942" lon="32.3950093"><ele>23.1</ele><time>2015-04-24T15:34:03.0000000+00:00</time></trkpt><trkpt lat="34.8165507" lon="32.3950083"><ele>24.0</ele><time>2015-04-24T15:34:04.0000000+00:00</time></trkpt><trkpt lat="34.8166107" lon="32.3950168"><ele>24.5</ele><time>2015-04-24T15:34:05.0000000+00:00</time></trkpt><trkpt lat="34.816677" lon="32.3950253"><ele>24.2</ele><time>2015-04-24T15:34:06.0000000+00:00</time></trkpt><trkpt lat="34.8167378" lon="32.3950272"><ele>24.1</ele><time>2015-04-24T15:34:07.0000000+00:00</time></trkpt><trkpt lat="34.8167944" lon="32.3950244"><ele>24.0</ele><time>2015-04-24T15:34:08.0000000+00:00</time></trkpt><trkpt lat="34.8168494" lon="32.3950252"><ele>24.0</ele><time>2015-04-24T15:34:09.0000000+00:00</time></trkpt><trkpt lat="34.8169059" lon="32.3950261"><ele>23.9</ele><time>2015-04-24T15:34:10.0000000+00:00</time></trkpt><trkpt lat="34.8169599" lon="32.3950325"><ele>23.9</ele><time>2015-04-24T15:34:11.0000000+00:00</time></trkpt><trkpt lat="34.8170187" lon="32.3950304"><ele>24.9</ele><time>2015-04-24T15:34:12.0000000+00:00</time></trkpt><trkpt lat="34.817076" lon="32.3950319"><ele>25.4</ele><time>2015-04-24T15:34:13.0000000+00:00</time></trkpt><trkpt lat="34.8171323" lon="32.3950293"><ele>26.2</ele><time>2015-04-24T15:34:14.0000000+00:00</time></trkpt><trkpt lat="34.8171897" lon="32.3950296"><ele>27.1</ele><time>2015-04-24T15:34:15.0000000+00:00</time></trkpt><trkpt lat="34.8172518" lon="32.3950311"><ele>27.5</ele><time>2015-04-24T15:34:16.0000000+00:00</time></trkpt><trkpt lat="34.8173163" lon="32.3950383"><ele>28.2</ele><time>2015-04-24T15:34:17.0000000+00:00</time></trkpt><trkpt lat="34.8173707" lon="32.3950459"><ele>28.6</ele><time>2015-04-24T15:34:18.0000000+00:00</time></trkpt><trkpt lat="34.817431" lon="32.3950525"><ele>28.8</ele><time>2015-04-24T15:34:19.0000000+00:00</time></trkpt><trkpt lat="34.8174999" lon="32.3950558"><ele>28.8</ele><time>2015-04-24T15:34:20.0000000+00:00</time></trkpt><trkpt lat="34.8175672" lon="32.3950509"><ele>29.9</ele><time>2015-04-24T15:34:21.0000000+00:00</time></trkpt><trkpt lat="34.8176281" lon="32.3950508"><ele>29.9</ele><time>2015-04-24T15:34:22.0000000+00:00</time></trkpt><trkpt lat="34.8176834" lon="32.3950526"><ele>29.9</ele><time>2015-04-24T15:34:23.0000000+00:00</time></trkpt><trkpt lat="34.8177438" lon="32.3950567"><ele>28.9</ele><time>2015-04-24T15:34:24.0000000+00:00</time></trkpt><trkpt lat="34.8178186" lon="32.3950673"><ele>27.9</ele><time>2015-04-24T15:34:25.0000000+00:00</time></trkpt><trkpt lat="34.8178835" lon="32.3950831"><ele>27.4</ele><time>2015-04-24T15:34:26.0000000+00:00</time></trkpt><trkpt lat="34.8179405" lon="32.3950823"><ele>26.7</ele><time>2015-04-24T15:34:27.0000000+00:00</time></trkpt><trkpt lat="34.8180009" lon="32.3950864"><ele>26.8</ele><time>2015-04-24T15:34:28.0000000+00:00</time></trkpt><trkpt lat="34.8180666" lon="32.395089"><ele>27.4</ele><time>2015-04-24T15:34:29.0000000+00:00</time></trkpt><trkpt lat="34.8181235" lon="32.3950882"><ele>27.1</ele><time>2015-04-24T15:34:30.0000000+00:00</time></trkpt><trkpt lat="34.8181763" lon="32.3950963"><ele>27.0</ele><time>2015-04-24T15:34:31.0000000+00:00</time></trkpt><trkpt lat="34.8182383" lon="32.3950975"><ele>27.0</ele><time>2015-04-24T15:34:32.0000000+00:00</time></trkpt><trkpt lat="34.8183044" lon="32.3951076"><ele>27.0</ele><time>2015-04-24T15:34:33.0000000+00:00</time></trkpt><trkpt lat="34.8183609" lon="32.395105"><ele>26.9</ele><time>2015-04-24T15:34:34.0000000+00:00</time></trkpt><trkpt lat="34.818415" lon="32.3951057"><ele>27.4</ele><time>2015-04-24T15:34:35.0000000+00:00</time></trkpt><trkpt lat="34.8184786" lon="32.3951072"><ele>27.7</ele><time>2015-04-24T15:34:36.0000000+00:00</time></trkpt><trkpt lat="34.8185359" lon="32.3951022"><ele>27.8</ele><time>2015-04-24T15:34:37.0000000+00:00</time></trkpt><trkpt lat="34.8186001" lon="32.3950968"><ele>27.9</ele><time>2015-04-24T15:34:38.0000000+00:00</time></trkpt><trkpt lat="34.8186636" lon="32.3950935"><ele>27.9</ele><time>2015-04-24T15:34:39.0000000+00:00</time></trkpt><trkpt lat="34.8187249" lon="32.3950959"><ele>27.4</ele><time>2015-04-24T15:34:40.0000000+00:00</time></trkpt><trkpt lat="34.818784" lon="32.395095"><ele>27.2</ele><time>2015-04-24T15:34:41.0000000+00:00</time></trkpt><trkpt lat="34.8188449" lon="32.3950995"><ele>27.1</ele><time>2015-04-24T15:34:42.0000000+00:00</time></trkpt><trkpt lat="34.8189066" lon="32.3950963"><ele>26.5</ele><time>2015-04-24T15:34:43.0000000+00:00</time></trkpt><trkpt lat="34.8189756" lon="32.3950858"><ele>26.2</ele><time>2015-04-24T15:34:44.0000000+00:00</time></trkpt><trkpt lat="34.8190338" lon="32.3950958"><ele>25.1</ele><time>2015-04-24T15:34:45.0000000+00:00</time></trkpt><trkpt lat="34.8190945" lon="32.3950877"><ele>25.0</ele><time>2015-04-24T15:34:46.0000000+00:00</time></trkpt><trkpt lat="34.8191538" lon="32.3950704"><ele>24.5</ele><time>2015-04-24T15:34:47.0000000+00:00</time></trkpt><trkpt lat="34.8192104" lon="32.3950496"><ele>24.2</ele><time>2015-04-24T15:34:48.0000000+00:00</time></trkpt><trkpt lat="34.8192627" lon="32.3950321"><ele>24.1</ele><time>2015-04-24T15:34:49.0000000+00:00</time></trkpt><trkpt lat="34.8193247" lon="32.3950149"><ele>24.0</ele><time>2015-04-24T15:34:50.0000000+00:00</time></trkpt><trkpt lat="34.8193828" lon="32.3949898"><ele>23.5</ele><time>2015-04-24T15:34:51.0000000+00:00</time></trkpt><trkpt lat="34.8194454" lon="32.3949688"><ele>23.7</ele><time>2015-04-24T15:34:52.0000000+00:00</time></trkpt><trkpt lat="34.819506" lon="32.3949297"><ele>24.3</ele><time>2015-04-24T15:34:53.0000000+00:00</time></trkpt><trkpt lat="34.819558" lon="32.3949129"><ele>24.1</ele><time>2015-04-24T15:34:54.0000000+00:00</time></trkpt><trkpt lat="34.8196043" lon="32.3948866"><ele>24.0</ele><time>2015-04-24T15:34:55.0000000+00:00</time></trkpt><trkpt lat="34.8196637" lon="32.3948561"><ele>24.0</ele><time>2015-04-24T15:34:56.0000000+00:00</time></trkpt><trkpt lat="34.8197176" lon="32.3948275"><ele>24.0</ele><time>2015-04-24T15:34:57.0000000+00:00</time></trkpt><trkpt lat="34.8197684" lon="32.3948023"><ele>23.4</ele><time>2015-04-24T15:34:58.0000000+00:00</time></trkpt><trkpt lat="34.8198122" lon="32.3947615"><ele>23.2</ele><time>2015-04-24T15:34:59.0000000+00:00</time></trkpt><trkpt lat="34.8198668" lon="32.394731"><ele>23.6</ele><time>2015-04-24T15:35:00.0000000+00:00</time></trkpt><trkpt lat="34.819913" lon="32.3946988"><ele>23.2</ele><time>2015-04-24T15:35:01.0000000+00:00</time></trkpt><trkpt lat="34.8199617" lon="32.3946706"><ele>23.1</ele><time>2015-04-24T15:35:02.0000000+00:00</time></trkpt><trkpt lat="34.8200014" lon="32.3946397"><ele>23.5</ele><time>2015-04-24T15:35:03.0000000+00:00</time></trkpt><trkpt lat="34.8200393" lon="32.3945996"><ele>23.2</ele><time>2015-04-24T15:35:04.0000000+00:00</time></trkpt><trkpt lat="34.8200828" lon="32.3945508"><ele>24.1</ele><time>2015-04-24T15:35:05.0000000+00:00</time></trkpt><trkpt lat="34.8201419" lon="32.3945138"><ele>25.5</ele><time>2015-04-24T15:35:06.0000000+00:00</time></trkpt><trkpt lat="34.820188" lon="32.3944849"><ele>25.7</ele><time>2015-04-24T15:35:07.0000000+00:00</time></trkpt><trkpt lat="34.820236" lon="32.3944433"><ele>26.3</ele><time>2015-04-24T15:35:08.0000000+00:00</time></trkpt><trkpt lat="34.8202778" lon="32.3943922"><ele>27.1</ele><time>2015-04-24T15:35:09.0000000+00:00</time></trkpt><trkpt lat="34.8203202" lon="32.3943594"><ele>27.5</ele><time>2015-04-24T15:35:10.0000000+00:00</time></trkpt><trkpt lat="34.8203639" lon="32.3943193"><ele>27.7</ele><time>2015-04-24T15:35:11.0000000+00:00</time></trkpt><trkpt lat="34.8204125" lon="32.3942876"><ele>27.8</ele><time>2015-04-24T15:35:12.0000000+00:00</time></trkpt><trkpt lat="34.8204601" lon="32.3942525"><ele>28.4</ele><time>2015-04-24T15:35:13.0000000+00:00</time></trkpt><trkpt lat="34.8205076" lon="32.3942218"><ele>29.2</ele><time>2015-04-24T15:35:14.0000000+00:00</time></trkpt><trkpt lat="34.8205542" lon="32.3941911"><ele>29.5</ele><time>2015-04-24T15:35:15.0000000+00:00</time></trkpt><trkpt lat="34.8206048" lon="32.3941519"><ele>29.7</ele><time>2015-04-24T15:35:16.0000000+00:00</time></trkpt><trkpt lat="34.8206503" lon="32.3941158"><ele>29.8</ele><time>2015-04-24T15:35:17.0000000+00:00</time></trkpt><trkpt lat="34.8206897" lon="32.394084"><ele>29.9</ele><time>2015-04-24T15:35:18.0000000+00:00</time></trkpt><trkpt lat="34.820731" lon="32.3940548"><ele>29.9</ele><time>2015-04-24T15:35:19.0000000+00:00</time></trkpt><trkpt lat="34.8208057" lon="32.3940025"><ele>29.9</ele><time>2015-04-24T15:35:21.0000000+00:00</time></trkpt><trkpt lat="34.8208719" lon="32.3939496"><ele>29.2</ele><time>2015-04-24T15:35:23.0000000+00:00</time></trkpt><trkpt lat="34.8209356" lon="32.3939062"><ele>29.0</ele><time>2015-04-24T15:35:25.0000000+00:00</time></trkpt><trkpt lat="34.8209903" lon="32.3938404"><ele>27.9</ele><time>2015-04-24T15:35:27.0000000+00:00</time></trkpt><trkpt lat="34.8210508" lon="32.3937866"><ele>28.4</ele><time>2015-04-24T15:35:29.0000000+00:00</time></trkpt><trkpt lat="34.8211188" lon="32.3937282"><ele>28.8</ele><time>2015-04-24T15:35:31.0000000+00:00</time></trkpt><trkpt lat="34.8211906" lon="32.3936712"><ele>29.4</ele><time>2015-04-24T15:35:33.0000000+00:00</time></trkpt><trkpt lat="34.8212614" lon="32.3936169"><ele>30.3</ele><time>2015-04-24T15:35:35.0000000+00:00</time></trkpt><trkpt lat="34.8213296" lon="32.3935636"><ele>30.3</ele><time>2015-04-24T15:35:37.0000000+00:00</time></trkpt><trkpt lat="34.8213902" lon="32.393499"><ele>29.3</ele><time>2015-04-24T15:35:39.0000000+00:00</time></trkpt><trkpt lat="34.8214524" lon="32.3934359"><ele>28.5</ele><time>2015-04-24T15:35:41.0000000+00:00</time></trkpt><trkpt lat="34.8215224" lon="32.3933808"><ele>28.1</ele><time>2015-04-24T15:35:43.0000000+00:00</time></trkpt><trkpt lat="34.8215922" lon="32.3933131"><ele>28.5</ele><time>2015-04-24T15:35:45.0000000+00:00</time></trkpt><trkpt lat="34.8216326" lon="32.3932785"><ele>28.7</ele><time>2015-04-24T15:35:46.0000000+00:00</time></trkpt><trkpt lat="34.8217204" lon="32.393226"><ele>28.9</ele><time>2015-04-24T15:35:48.0000000+00:00</time></trkpt><trkpt lat="34.8217578" lon="32.3931902"><ele>29.4</ele><time>2015-04-24T15:35:49.0000000+00:00</time></trkpt><trkpt lat="34.8217949" lon="32.3931551"><ele>30.2</ele><time>2015-04-24T15:35:50.0000000+00:00</time></trkpt><trkpt lat="34.8218767" lon="32.3930979"><ele>30.7</ele><time>2015-04-24T15:35:52.0000000+00:00</time></trkpt><trkpt lat="34.8219155" lon="32.393062"><ele>30.3</ele><time>2015-04-24T15:35:53.0000000+00:00</time></trkpt><trkpt lat="34.8219966" lon="32.3930086"><ele>28.0</ele><time>2015-04-24T15:35:55.0000000+00:00</time></trkpt><trkpt lat="34.8220405" lon="32.3929816"><ele>27.0</ele><time>2015-04-24T15:35:56.0000000+00:00</time></trkpt><trkpt lat="34.8221228" lon="32.3929328"><ele>27.2</ele><time>2015-04-24T15:35:58.0000000+00:00</time></trkpt><trkpt lat="34.8221609" lon="32.392898"><ele>27.1</ele><time>2015-04-24T15:35:59.0000000+00:00</time></trkpt><trkpt lat="34.8222417" lon="32.3928408"><ele>26.7</ele><time>2015-04-24T15:36:01.0000000+00:00</time></trkpt><trkpt lat="34.8222826" lon="32.3928026"><ele>26.8</ele><time>2015-04-24T15:36:02.0000000+00:00</time></trkpt><trkpt lat="34.8223569" lon="32.3927586"><ele>26.9</ele><time>2015-04-24T15:36:04.0000000+00:00</time></trkpt><trkpt lat="34.8224298" lon="32.3927218"><ele>26.9</ele><time>2015-04-24T15:36:06.0000000+00:00</time></trkpt><trkpt lat="34.8224957" lon="32.3926734"><ele>27.2</ele><time>2015-04-24T15:36:08.0000000+00:00</time></trkpt><trkpt lat="34.8225668" lon="32.3926383"><ele>28.2</ele><time>2015-04-24T15:36:10.0000000+00:00</time></trkpt><trkpt lat="34.822631" lon="32.3925981"><ele>28.3</ele><time>2015-04-24T15:36:12.0000000+00:00</time></trkpt><trkpt lat="34.8227013" lon="32.3925691"><ele>28.8</ele><time>2015-04-24T15:36:14.0000000+00:00</time></trkpt><trkpt lat="34.8227717" lon="32.3925527"><ele>30.4</ele><time>2015-04-24T15:36:16.0000000+00:00</time></trkpt><trkpt lat="34.8228397" lon="32.3925214"><ele>30.8</ele><time>2015-04-24T15:36:18.0000000+00:00</time></trkpt><trkpt lat="34.822911" lon="32.3924934"><ele>31.4</ele><time>2015-04-24T15:36:20.0000000+00:00</time></trkpt><trkpt lat="34.822987" lon="32.3924698"><ele>31.8</ele><time>2015-04-24T15:36:22.0000000+00:00</time></trkpt><trkpt lat="34.8230656" lon="32.3924442"><ele>33.9</ele><time>2015-04-24T15:36:24.0000000+00:00</time></trkpt><trkpt lat="34.8231439" lon="32.392424"><ele>34.7</ele><time>2015-04-24T15:36:26.0000000+00:00</time></trkpt><trkpt lat="34.8232232" lon="32.3924043"><ele>35.1</ele><time>2015-04-24T15:36:28.0000000+00:00</time></trkpt><trkpt lat="34.8233018" lon="32.3923919"><ele>34.2</ele><time>2015-04-24T15:36:30.0000000+00:00</time></trkpt><trkpt lat="34.8233785" lon="32.3923775"><ele>33.3</ele><time>2015-04-24T15:36:32.0000000+00:00</time></trkpt><trkpt lat="34.8234561" lon="32.3923698"><ele>34.3</ele><time>2015-04-24T15:36:34.0000000+00:00</time></trkpt><trkpt lat="34.8235012" lon="32.392373"><ele>34.6</ele><time>2015-04-24T15:36:35.0000000+00:00</time></trkpt><trkpt lat="34.8235796" lon="32.3923594"><ele>36.1</ele><time>2015-04-24T15:36:37.0000000+00:00</time></trkpt><trkpt lat="34.8236545" lon="32.3923483"><ele>36.7</ele><time>2015-04-24T15:36:39.0000000+00:00</time></trkpt><trkpt lat="34.8237176" lon="32.3923547"><ele>36.9</ele><time>2015-04-24T15:36:41.0000000+00:00</time></trkpt><trkpt lat="34.8237881" lon="32.3923551"><ele>37.7</ele><time>2015-04-24T15:36:43.0000000+00:00</time></trkpt><trkpt lat="34.8238532" lon="32.3923515"><ele>37.1</ele><time>2015-04-24T15:36:45.0000000+00:00</time></trkpt><trkpt lat="34.8239228" lon="32.3923497"><ele>37.7</ele><time>2015-04-24T15:36:47.0000000+00:00</time></trkpt><trkpt lat="34.823993" lon="32.3923452"><ele>37.6</ele><time>2015-04-24T15:36:49.0000000+00:00</time></trkpt><trkpt lat="34.8240594" lon="32.3923428"><ele>37.6</ele><time>2015-04-24T15:36:51.0000000+00:00</time></trkpt><trkpt lat="34.8241281" lon="32.3923336"><ele>38.1</ele><time>2015-04-24T15:36:53.0000000+00:00</time></trkpt><trkpt lat="34.8241934" lon="32.3923245"><ele>38.7</ele><time>2015-04-24T15:36:55.0000000+00:00</time></trkpt><trkpt lat="34.8242575" lon="32.3923266"><ele>38.9</ele><time>2015-04-24T15:36:57.0000000+00:00</time></trkpt><trkpt lat="34.8243165" lon="32.392336"><ele>38.9</ele><time>2015-04-24T15:36:59.0000000+00:00</time></trkpt><trkpt lat="34.8243764" lon="32.3923428"><ele>38.9</ele><time>2015-04-24T15:37:01.0000000+00:00</time></trkpt><trkpt lat="34.8244363" lon="32.3923473"><ele>37.9</ele><time>2015-04-24T15:37:03.0000000+00:00</time></trkpt><trkpt lat="34.8245037" lon="32.39235"><ele>37.2</ele><time>2015-04-24T15:37:05.0000000+00:00</time></trkpt><trkpt lat="34.82457" lon="32.3923561"><ele>37.2</ele><time>2015-04-24T15:37:07.0000000+00:00</time></trkpt><trkpt lat="34.8246391" lon="32.3923622"><ele>37.5</ele><time>2015-04-24T15:37:09.0000000+00:00</time></trkpt><trkpt lat="34.8247086" lon="32.392359"><ele>38.6</ele><time>2015-04-24T15:37:11.0000000+00:00</time></trkpt><trkpt lat="34.8247794" lon="32.3923556"><ele>38.6</ele><time>2015-04-24T15:37:13.0000000+00:00</time></trkpt><trkpt lat="34.8248463" lon="32.3923571"><ele>39.6</ele><time>2015-04-24T15:37:15.0000000+00:00</time></trkpt><trkpt lat="34.8249169" lon="32.3923572"><ele>40.1</ele><time>2015-04-24T15:37:17.0000000+00:00</time></trkpt><trkpt lat="34.8249831" lon="32.3923611"><ele>40.7</ele><time>2015-04-24T15:37:19.0000000+00:00</time></trkpt><trkpt lat="34.8250544" lon="32.3923639"><ele>40.9</ele><time>2015-04-24T15:37:21.0000000+00:00</time></trkpt><trkpt lat="34.8251224" lon="32.3923632"><ele>41.7</ele><time>2015-04-24T15:37:23.0000000+00:00</time></trkpt><trkpt lat="34.8251891" lon="32.3923614"><ele>42.4</ele><time>2015-04-24T15:37:25.0000000+00:00</time></trkpt><trkpt lat="34.8252515" lon="32.3923535"><ele>43.5</ele><time>2015-04-24T15:37:27.0000000+00:00</time></trkpt><trkpt lat="34.8253165" lon="32.3923447"><ele>44.8</ele><time>2015-04-24T15:37:29.0000000+00:00</time></trkpt><trkpt lat="34.8253846" lon="32.3923395"><ele>46.4</ele><time>2015-04-24T15:37:31.0000000+00:00</time></trkpt><trkpt lat="34.8254562" lon="32.3923341"><ele>47.3</ele><time>2015-04-24T15:37:33.0000000+00:00</time></trkpt><trkpt lat="34.8255245" lon="32.3923297"><ele>47.0</ele><time>2015-04-24T15:37:35.0000000+00:00</time></trkpt><trkpt lat="34.8255944" lon="32.3923259"><ele>47.0</ele><time>2015-04-24T15:37:37.0000000+00:00</time></trkpt><trkpt lat="34.825664" lon="32.3923208"><ele>46.9</ele><time>2015-04-24T15:37:39.0000000+00:00</time></trkpt><trkpt lat="34.8257376" lon="32.3923204"><ele>46.2</ele><time>2015-04-24T15:37:41.0000000+00:00</time></trkpt><trkpt lat="34.8258118" lon="32.3923198"><ele>45.5</ele><time>2015-04-24T15:37:43.0000000+00:00</time></trkpt><trkpt lat="34.8258884" lon="32.3923138"><ele>45.8</ele><time>2015-04-24T15:37:45.0000000+00:00</time></trkpt><trkpt lat="34.8259657" lon="32.3923136"><ele>45.2</ele><time>2015-04-24T15:37:47.0000000+00:00</time></trkpt><trkpt lat="34.826047" lon="32.3923132"><ele>45.0</ele><time>2015-04-24T15:37:49.0000000+00:00</time></trkpt><trkpt lat="34.8261251" lon="32.392315"><ele>44.2</ele><time>2015-04-24T15:37:51.0000000+00:00</time></trkpt><trkpt lat="34.8262073" lon="32.3923172"><ele>43.2</ele><time>2015-04-24T15:37:53.0000000+00:00</time></trkpt><trkpt lat="34.8262889" lon="32.3923151"><ele>43.5</ele><time>2015-04-24T15:37:55.0000000+00:00</time></trkpt><trkpt lat="34.8263721" lon="32.3923069"><ele>43.8</ele><time>2015-04-24T15:37:57.0000000+00:00</time></trkpt><trkpt lat="34.8264566" lon="32.3923029"><ele>44.4</ele><time>2015-04-24T15:37:59.0000000+00:00</time></trkpt><trkpt lat="34.8265734" lon="32.3922999"><ele>45.3</ele><time>2015-04-24T15:38:01.0000000+00:00</time></trkpt><trkpt lat="34.8266184" lon="32.3923031"><ele>45.1</ele><time>2015-04-24T15:38:02.0000000+00:00</time></trkpt><trkpt lat="34.8267081" lon="32.3922961"><ele>45.2</ele><time>2015-04-24T15:38:04.0000000+00:00</time></trkpt><trkpt lat="34.8267781" lon="32.3922974"><ele>46.3</ele><time>2015-04-24T15:38:06.0000000+00:00</time></trkpt><trkpt lat="34.8268675" lon="32.3922864"><ele>46.3</ele><time>2015-04-24T15:38:08.0000000+00:00</time></trkpt><trkpt lat="34.8269556" lon="32.3922887"><ele>46.5</ele><time>2015-04-24T15:38:10.0000000+00:00</time></trkpt><trkpt lat="34.8270402" lon="32.3922863"><ele>46.8</ele><time>2015-04-24T15:38:12.0000000+00:00</time></trkpt><trkpt lat="34.8270866" lon="32.3922817"><ele>46.4</ele><time>2015-04-24T15:38:13.0000000+00:00</time></trkpt><trkpt lat="34.8271362" lon="32.3922781"><ele>45.2</ele><time>2015-04-24T15:38:14.0000000+00:00</time></trkpt><trkpt lat="34.8272148" lon="32.3922746"><ele>45.0</ele><time>2015-04-24T15:38:16.0000000+00:00</time></trkpt><trkpt lat="34.8272868" lon="32.3922609"><ele>44.9</ele><time>2015-04-24T15:38:18.0000000+00:00</time></trkpt><trkpt lat="34.8273631" lon="32.3922551"><ele>44.4</ele><time>2015-04-24T15:38:20.0000000+00:00</time></trkpt><trkpt lat="34.8274406" lon="32.3922527"><ele>44.1</ele><time>2015-04-24T15:38:22.0000000+00:00</time></trkpt><trkpt lat="34.8275197" lon="32.3922532"><ele>44.5</ele><time>2015-04-24T15:38:24.0000000+00:00</time></trkpt><trkpt lat="34.8275978" lon="32.3922554"><ele>45.6</ele><time>2015-04-24T15:38:26.0000000+00:00</time></trkpt><trkpt lat="34.8276453" lon="32.3922531"><ele>45.2</ele><time>2015-04-24T15:38:27.0000000+00:00</time></trkpt><trkpt lat="34.8277291" lon="32.3922497"><ele>45.0</ele><time>2015-04-24T15:38:29.0000000+00:00</time></trkpt><trkpt lat="34.8277979" lon="32.3922488"><ele>44.2</ele><time>2015-04-24T15:38:31.0000000+00:00</time></trkpt><trkpt lat="34.8278737" lon="32.3922518"><ele>44.0</ele><time>2015-04-24T15:38:33.0000000+00:00</time></trkpt><trkpt lat="34.8279599" lon="32.3922505"><ele>43.7</ele><time>2015-04-24T15:38:35.0000000+00:00</time></trkpt><trkpt lat="34.8280376" lon="32.3922439"><ele>43.9</ele><time>2015-04-24T15:38:37.0000000+00:00</time></trkpt><trkpt lat="34.8281163" lon="32.3922392"><ele>43.4</ele><time>2015-04-24T15:38:39.0000000+00:00</time></trkpt><trkpt lat="34.8282012" lon="32.3922342"><ele>43.1</ele><time>2015-04-24T15:38:41.0000000+00:00</time></trkpt><trkpt lat="34.8282887" lon="32.3922353"><ele>42.0</ele><time>2015-04-24T15:38:43.0000000+00:00</time></trkpt><trkpt lat="34.8283479" lon="32.3922391"><ele>40.9</ele><time>2015-04-24T15:38:44.0000000+00:00</time></trkpt><trkpt lat="34.8283933" lon="32.3922418"><ele>40.4</ele><time>2015-04-24T15:38:45.0000000+00:00</time></trkpt><trkpt lat="34.8284461" lon="32.3922533"><ele>39.2</ele><time>2015-04-24T15:38:46.0000000+00:00</time></trkpt><trkpt lat="34.8284948" lon="32.3922496"><ele>38.6</ele><time>2015-04-24T15:38:47.0000000+00:00</time></trkpt><trkpt lat="34.8285424" lon="32.3922395"><ele>38.2</ele><time>2015-04-24T15:38:48.0000000+00:00</time></trkpt><trkpt lat="34.828593" lon="32.3922359"><ele>38.6</ele><time>2015-04-24T15:38:49.0000000+00:00</time></trkpt><trkpt lat="34.8286449" lon="32.3922444"><ele>38.3</ele><time>2015-04-24T15:38:50.0000000+00:00</time></trkpt><trkpt lat="34.8287022" lon="32.3922393"><ele>38.1</ele><time>2015-04-24T15:38:51.0000000+00:00</time></trkpt><trkpt lat="34.8287577" lon="32.3922346"><ele>38.0</ele><time>2015-04-24T15:38:52.0000000+00:00</time></trkpt><trkpt lat="34.8288125" lon="32.3922308"><ele>38.0</ele><time>2015-04-24T15:38:53.0000000+00:00</time></trkpt><trkpt lat="34.8288653" lon="32.3922299"><ele>38.0</ele><time>2015-04-24T15:38:54.0000000+00:00</time></trkpt><trkpt lat="34.8289231" lon="32.3922467"><ele>36.9</ele><time>2015-04-24T15:38:55.0000000+00:00</time></trkpt><trkpt lat="34.8289776" lon="32.3922489"><ele>36.4</ele><time>2015-04-24T15:38:56.0000000+00:00</time></trkpt><trkpt lat="34.8290317" lon="32.3922529"><ele>36.2</ele><time>2015-04-24T15:38:57.0000000+00:00</time></trkpt><trkpt lat="34.8290891" lon="32.392255"><ele>36.6</ele><time>2015-04-24T15:38:58.0000000+00:00</time></trkpt><trkpt lat="34.8291379" lon="32.3922634"><ele>37.2</ele><time>2015-04-24T15:38:59.0000000+00:00</time></trkpt><trkpt lat="34.8291952" lon="32.3922704"><ele>37.6</ele><time>2015-04-24T15:39:00.0000000+00:00</time></trkpt><trkpt lat="34.8292559" lon="32.3922843"><ele>37.3</ele><time>2015-04-24T15:39:01.0000000+00:00</time></trkpt><trkpt lat="34.8293196" lon="32.3922832"><ele>37.1</ele><time>2015-04-24T15:39:02.0000000+00:00</time></trkpt><trkpt lat="34.8293773" lon="32.3922926"><ele>36.5</ele><time>2015-04-24T15:39:03.0000000+00:00</time></trkpt><trkpt lat="34.8294375" lon="32.3922958"><ele>36.7</ele><time>2015-04-24T15:39:04.0000000+00:00</time></trkpt><trkpt lat="34.8294983" lon="32.3923043"><ele>36.8</ele><time>2015-04-24T15:39:05.0000000+00:00</time></trkpt><trkpt lat="34.8295599" lon="32.3923181"><ele>36.4</ele><time>2015-04-24T15:39:06.0000000+00:00</time></trkpt><trkpt lat="34.8296135" lon="32.3923299"><ele>36.7</ele><time>2015-04-24T15:39:07.0000000+00:00</time></trkpt><trkpt lat="34.8296764" lon="32.3923462"><ele>36.3</ele><time>2015-04-24T15:39:08.0000000+00:00</time></trkpt><trkpt lat="34.8297397" lon="32.392353"><ele>36.6</ele><time>2015-04-24T15:39:09.0000000+00:00</time></trkpt><trkpt lat="34.8297992" lon="32.392357"><ele>36.8</ele><time>2015-04-24T15:39:10.0000000+00:00</time></trkpt><trkpt lat="34.8298624" lon="32.3923688"><ele>36.9</ele><time>2015-04-24T15:39:11.0000000+00:00</time></trkpt><trkpt lat="34.8299303" lon="32.3923813"><ele>36.9</ele><time>2015-04-24T15:39:12.0000000+00:00</time></trkpt><trkpt lat="34.8299951" lon="32.3924042"><ele>36.4</ele><time>2015-04-24T15:39:13.0000000+00:00</time></trkpt><trkpt lat="34.8300561" lon="32.3924232"><ele>36.2</ele><time>2015-04-24T15:39:14.0000000+00:00</time></trkpt><trkpt lat="34.8301259" lon="32.3924479"><ele>35.6</ele><time>2015-04-24T15:39:15.0000000+00:00</time></trkpt><trkpt lat="34.8301969" lon="32.3924626"><ele>35.2</ele><time>2015-04-24T15:39:16.0000000+00:00</time></trkpt><trkpt lat="34.8302655" lon="32.3924769"><ele>35.1</ele><time>2015-04-24T15:39:17.0000000+00:00</time></trkpt><trkpt lat="34.8303312" lon="32.3924937"><ele>35.0</ele><time>2015-04-24T15:39:18.0000000+00:00</time></trkpt><trkpt lat="34.8303978" lon="32.3925122"><ele>34.5</ele><time>2015-04-24T15:39:19.0000000+00:00</time></trkpt><trkpt lat="34.830466" lon="32.3925336"><ele>33.7</ele><time>2015-04-24T15:39:20.0000000+00:00</time></trkpt><trkpt lat="34.8305349" lon="32.3925566"><ele>32.8</ele><time>2015-04-24T15:39:21.0000000+00:00</time></trkpt><trkpt lat="34.8306029" lon="32.3925781"><ele>32.4</ele><time>2015-04-24T15:39:22.0000000+00:00</time></trkpt><trkpt lat="34.8306682" lon="32.3926032"><ele>32.2</ele><time>2015-04-24T15:39:23.0000000+00:00</time></trkpt><trkpt lat="34.8307448" lon="32.3926295"><ele>31.5</ele><time>2015-04-24T15:39:24.0000000+00:00</time></trkpt><trkpt lat="34.8308108" lon="32.3926521"><ele>31.2</ele><time>2015-04-24T15:39:25.0000000+00:00</time></trkpt><trkpt lat="34.8308811" lon="32.3926681"><ele>30.6</ele><time>2015-04-24T15:39:26.0000000+00:00</time></trkpt><trkpt lat="34.8309366" lon="32.3926826"><ele>30.3</ele><time>2015-04-24T15:39:27.0000000+00:00</time></trkpt><trkpt lat="34.830986" lon="32.3927021"><ele>30.6</ele><time>2015-04-24T15:39:28.0000000+00:00</time></trkpt><trkpt lat="34.8310296" lon="32.3927155"><ele>31.3</ele><time>2015-04-24T15:39:29.0000000+00:00</time></trkpt><trkpt lat="34.8310817" lon="32.3927337"><ele>31.6</ele><time>2015-04-24T15:39:30.0000000+00:00</time></trkpt><trkpt lat="34.8311329" lon="32.3927511"><ele>31.8</ele><time>2015-04-24T15:39:31.0000000+00:00</time></trkpt><trkpt lat="34.8311874" lon="32.392771"><ele>31.3</ele><time>2015-04-24T15:39:32.0000000+00:00</time></trkpt><trkpt lat="34.8312411" lon="32.3927958"><ele>31.1</ele><time>2015-04-24T15:39:33.0000000+00:00</time></trkpt><trkpt lat="34.8313009" lon="32.3927983"><ele>30.5</ele><time>2015-04-24T15:39:34.0000000+00:00</time></trkpt><trkpt lat="34.8313578" lon="32.3928162"><ele>30.7</ele><time>2015-04-24T15:39:35.0000000+00:00</time></trkpt><trkpt lat="34.8314325" lon="32.3928217"><ele>29.8</ele><time>2015-04-24T15:39:36.0000000+00:00</time></trkpt><trkpt lat="34.83149" lon="32.3928449"><ele>29.4</ele><time>2015-04-24T15:39:37.0000000+00:00</time></trkpt><trkpt lat="34.83155" lon="32.392862"><ele>28.7</ele><time>2015-04-24T15:39:38.0000000+00:00</time></trkpt><trkpt lat="34.8316238" lon="32.3928872"><ele>28.3</ele><time>2015-04-24T15:39:39.0000000+00:00</time></trkpt><trkpt lat="34.8316957" lon="32.3929013"><ele>27.6</ele><time>2015-04-24T15:39:40.0000000+00:00</time></trkpt><trkpt lat="34.8317683" lon="32.3929131"><ele>27.3</ele><time>2015-04-24T15:39:41.0000000+00:00</time></trkpt><trkpt lat="34.83184" lon="32.3929282"><ele>27.1</ele><time>2015-04-24T15:39:42.0000000+00:00</time></trkpt><trkpt lat="34.8319103" lon="32.3929385"><ele>27.0</ele><time>2015-04-24T15:39:43.0000000+00:00</time></trkpt><trkpt lat="34.8319898" lon="32.3929495"><ele>27.0</ele><time>2015-04-24T15:39:44.0000000+00:00</time></trkpt><trkpt lat="34.8320618" lon="32.3929594"><ele>26.0</ele><time>2015-04-24T15:39:45.0000000+00:00</time></trkpt><trkpt lat="34.8321281" lon="32.3929647"><ele>24.9</ele><time>2015-04-24T15:39:46.0000000+00:00</time></trkpt><trkpt lat="34.8322013" lon="32.3929698"><ele>24.4</ele><time>2015-04-24T15:39:47.0000000+00:00</time></trkpt><trkpt lat="34.8322775" lon="32.3929617"><ele>23.7</ele><time>2015-04-24T15:39:48.0000000+00:00</time></trkpt><trkpt lat="34.8323412" lon="32.3929565"><ele>23.3</ele><time>2015-04-24T15:39:49.0000000+00:00</time></trkpt><trkpt lat="34.8324073" lon="32.3929439"><ele>22.6</ele><time>2015-04-24T15:39:50.0000000+00:00</time></trkpt><trkpt lat="34.8324791" lon="32.3929282"><ele>22.3</ele><time>2015-04-24T15:39:51.0000000+00:00</time></trkpt><trkpt lat="34.8325445" lon="32.3929104"><ele>21.6</ele><time>2015-04-24T15:39:52.0000000+00:00</time></trkpt><trkpt lat="34.8326069" lon="32.3928841"><ele>21.8</ele><time>2015-04-24T15:39:53.0000000+00:00</time></trkpt><trkpt lat="34.832672" lon="32.3928598"><ele>21.8</ele><time>2015-04-24T15:39:54.0000000+00:00</time></trkpt><trkpt lat="34.8327429" lon="32.3928329"><ele>20.9</ele><time>2015-04-24T15:39:55.0000000+00:00</time></trkpt><trkpt lat="34.8328059" lon="32.3928064"><ele>20.4</ele><time>2015-04-24T15:39:56.0000000+00:00</time></trkpt><trkpt lat="34.8328648" lon="32.3927829"><ele>20.2</ele><time>2015-04-24T15:39:57.0000000+00:00</time></trkpt><trkpt lat="34.83293" lon="32.3927557"><ele>20.5</ele><time>2015-04-24T15:39:58.0000000+00:00</time></trkpt><trkpt lat="34.8329924" lon="32.3927245"><ele>20.7</ele><time>2015-04-24T15:39:59.0000000+00:00</time></trkpt><trkpt lat="34.8330571" lon="32.3926915"><ele>21.3</ele><time>2015-04-24T15:40:00.0000000+00:00</time></trkpt><trkpt lat="34.8331164" lon="32.3926471"><ele>21.6</ele><time>2015-04-24T15:40:01.0000000+00:00</time></trkpt><trkpt lat="34.8331759" lon="32.392607"><ele>21.3</ele><time>2015-04-24T15:40:02.0000000+00:00</time></trkpt><trkpt lat="34.8332394" lon="32.3925792"><ele>21.1</ele><time>2015-04-24T15:40:03.0000000+00:00</time></trkpt><trkpt lat="34.8333021" lon="32.3925351"><ele>21.0</ele><time>2015-04-24T15:40:04.0000000+00:00</time></trkpt><trkpt lat="34.8333589" lon="32.3924957"><ele>20.5</ele><time>2015-04-24T15:40:05.0000000+00:00</time></trkpt><trkpt lat="34.833423" lon="32.3924515"><ele>20.2</ele><time>2015-04-24T15:40:06.0000000+00:00</time></trkpt><trkpt lat="34.8334882" lon="32.3924038"><ele>19.6</ele><time>2015-04-24T15:40:07.0000000+00:00</time></trkpt><trkpt lat="34.8335483" lon="32.3923597"><ele>19.2</ele><time>2015-04-24T15:40:08.0000000+00:00</time></trkpt><trkpt lat="34.8336094" lon="32.3923204"><ele>19.1</ele><time>2015-04-24T15:40:09.0000000+00:00</time></trkpt><trkpt lat="34.8336748" lon="32.3922758"><ele>20.0</ele><time>2015-04-24T15:40:10.0000000+00:00</time></trkpt><trkpt lat="34.8337269" lon="32.3922392"><ele>20.5</ele><time>2015-04-24T15:40:11.0000000+00:00</time></trkpt><trkpt lat="34.8337831" lon="32.3921945"><ele>20.7</ele><time>2015-04-24T15:40:12.0000000+00:00</time></trkpt><trkpt lat="34.8338468" lon="32.3921493"><ele>21.3</ele><time>2015-04-24T15:40:13.0000000+00:00</time></trkpt><trkpt lat="34.8339068" lon="32.3920994"><ele>21.6</ele><time>2015-04-24T15:40:14.0000000+00:00</time></trkpt><trkpt lat="34.8339695" lon="32.3920633"><ele>22.3</ele><time>2015-04-24T15:40:15.0000000+00:00</time></trkpt><trkpt lat="34.8340249" lon="32.3920154"><ele>21.6</ele><time>2015-04-24T15:40:16.0000000+00:00</time></trkpt><trkpt lat="34.8340779" lon="32.3919731"><ele>21.8</ele><time>2015-04-24T15:40:17.0000000+00:00</time></trkpt><trkpt lat="34.8341297" lon="32.3919276"><ele>21.8</ele><time>2015-04-24T15:40:18.0000000+00:00</time></trkpt><trkpt lat="34.8341805" lon="32.3918867"><ele>21.4</ele><time>2015-04-24T15:40:19.0000000+00:00</time></trkpt><trkpt lat="34.8342318" lon="32.3918394"><ele>21.2</ele><time>2015-04-24T15:40:20.0000000+00:00</time></trkpt><trkpt lat="34.8342847" lon="32.3917971"><ele>21.5</ele><time>2015-04-24T15:40:21.0000000+00:00</time></trkpt><trkpt lat="34.834337" lon="32.391762"><ele>21.2</ele><time>2015-04-24T15:40:22.0000000+00:00</time></trkpt><trkpt lat="34.8343864" lon="32.3917263"><ele>20.6</ele><time>2015-04-24T15:40:23.0000000+00:00</time></trkpt><trkpt lat="34.8344366" lon="32.3916822"><ele>20.8</ele><time>2015-04-24T15:40:24.0000000+00:00</time></trkpt><trkpt lat="34.8344811" lon="32.3916401"><ele>20.3</ele><time>2015-04-24T15:40:25.0000000+00:00</time></trkpt><trkpt lat="34.8345261" lon="32.3915976"><ele>19.6</ele><time>2015-04-24T15:40:26.0000000+00:00</time></trkpt><trkpt lat="34.8345797" lon="32.391565"><ele>19.3</ele><time>2015-04-24T15:40:27.0000000+00:00</time></trkpt><trkpt lat="34.8346205" lon="32.3915244"><ele>19.1</ele><time>2015-04-24T15:40:28.0000000+00:00</time></trkpt><trkpt lat="34.8346668" lon="32.3914909"><ele>19.0</ele><time>2015-04-24T15:40:29.0000000+00:00</time></trkpt><trkpt lat="34.8347134" lon="32.3914575"><ele>19.0</ele><time>2015-04-24T15:40:30.0000000+00:00</time></trkpt><trkpt lat="34.8347684" lon="32.39142"><ele>19.0</ele><time>2015-04-24T15:40:31.0000000+00:00</time></trkpt><trkpt lat="34.8348183" lon="32.3913795"><ele>18.9</ele><time>2015-04-24T15:40:32.0000000+00:00</time></trkpt><trkpt lat="34.834871" lon="32.391339"><ele>18.9</ele><time>2015-04-24T15:40:33.0000000+00:00</time></trkpt><trkpt lat="34.8349202" lon="32.391307"><ele>18.4</ele><time>2015-04-24T15:40:34.0000000+00:00</time></trkpt><trkpt lat="34.8349716" lon="32.3912819"><ele>18.2</ele><time>2015-04-24T15:40:35.0000000+00:00</time></trkpt><trkpt lat="34.8350265" lon="32.3912429"><ele>18.6</ele><time>2015-04-24T15:40:36.0000000+00:00</time></trkpt><trkpt lat="34.8350769" lon="32.3912077"><ele>18.2</ele><time>2015-04-24T15:40:37.0000000+00:00</time></trkpt><trkpt lat="34.8351291" lon="32.3911712"><ele>18.6</ele><time>2015-04-24T15:40:38.0000000+00:00</time></trkpt><trkpt lat="34.8351779" lon="32.3911372"><ele>18.3</ele><time>2015-04-24T15:40:39.0000000+00:00</time></trkpt><trkpt lat="34.8352299" lon="32.3911011"><ele>18.6</ele><time>2015-04-24T15:40:40.0000000+00:00</time></trkpt><trkpt lat="34.8352894" lon="32.3910596"><ele>18.8</ele><time>2015-04-24T15:40:41.0000000+00:00</time></trkpt><trkpt lat="34.8353511" lon="32.3910256"><ele>18.8</ele><time>2015-04-24T15:40:42.0000000+00:00</time></trkpt><trkpt lat="34.8354094" lon="32.3909902"><ele>17.9</ele><time>2015-04-24T15:40:43.0000000+00:00</time></trkpt><trkpt lat="34.8354662" lon="32.3909507"><ele>17.9</ele><time>2015-04-24T15:40:44.0000000+00:00</time></trkpt><trkpt lat="34.8355214" lon="32.3909082"><ele>17.9</ele><time>2015-04-24T15:40:45.0000000+00:00</time></trkpt><trkpt lat="34.8355727" lon="32.3908714"><ele>17.4</ele><time>2015-04-24T15:40:46.0000000+00:00</time></trkpt><trkpt lat="34.8356317" lon="32.3908371"><ele>16.7</ele><time>2015-04-24T15:40:47.0000000+00:00</time></trkpt><trkpt lat="34.8356941" lon="32.3908073"><ele>15.8</ele><time>2015-04-24T15:40:48.0000000+00:00</time></trkpt><trkpt lat="34.8357466" lon="32.3907753"><ele>15.9</ele><time>2015-04-24T15:40:49.0000000+00:00</time></trkpt><trkpt lat="34.8357958" lon="32.3907506"><ele>15.9</ele><time>2015-04-24T15:40:50.0000000+00:00</time></trkpt><trkpt lat="34.8358388" lon="32.3907287"><ele>15.4</ele><time>2015-04-24T15:40:51.0000000+00:00</time></trkpt><trkpt lat="34.8358913" lon="32.3906969"><ele>15.7</ele><time>2015-04-24T15:40:52.0000000+00:00</time></trkpt><trkpt lat="34.8359297" lon="32.3906658"><ele>16.3</ele><time>2015-04-24T15:40:53.0000000+00:00</time></trkpt><trkpt lat="34.8359782" lon="32.3906324"><ele>16.6</ele><time>2015-04-24T15:40:54.0000000+00:00</time></trkpt><trkpt lat="34.8360309" lon="32.3906067"><ele>16.8</ele><time>2015-04-24T15:40:55.0000000+00:00</time></trkpt><trkpt lat="34.836079" lon="32.3905794"><ele>16.9</ele><time>2015-04-24T15:40:56.0000000+00:00</time></trkpt><trkpt lat="34.8361351" lon="32.3905488"><ele>15.9</ele><time>2015-04-24T15:40:57.0000000+00:00</time></trkpt><trkpt lat="34.8361896" lon="32.3905184"><ele>15.9</ele><time>2015-04-24T15:40:58.0000000+00:00</time></trkpt><trkpt lat="34.8362464" lon="32.390489"><ele>15.9</ele><time>2015-04-24T15:40:59.0000000+00:00</time></trkpt><trkpt lat="34.8363063" lon="32.3904476"><ele>16.9</ele><time>2015-04-24T15:41:00.0000000+00:00</time></trkpt><trkpt lat="34.836368" lon="32.3904187"><ele>17.4</ele><time>2015-04-24T15:41:01.0000000+00:00</time></trkpt><trkpt lat="34.8364178" lon="32.3903929"><ele>18.2</ele><time>2015-04-24T15:41:02.0000000+00:00</time></trkpt><trkpt lat="34.8364726" lon="32.3903612"><ele>18.1</ele><time>2015-04-24T15:41:03.0000000+00:00</time></trkpt><trkpt lat="34.8365372" lon="32.3903227"><ele>18.0</ele><time>2015-04-24T15:41:04.0000000+00:00</time></trkpt><trkpt lat="34.8365969" lon="32.3902878"><ele>18.0</ele><time>2015-04-24T15:41:05.0000000+00:00</time></trkpt><trkpt lat="34.8366557" lon="32.3902481"><ele>17.4</ele><time>2015-04-24T15:41:06.0000000+00:00</time></trkpt><trkpt lat="34.836719" lon="32.3902166"><ele>16.7</ele><time>2015-04-24T15:41:07.0000000+00:00</time></trkpt><trkpt lat="34.8367773" lon="32.3901824"><ele>16.8</ele><time>2015-04-24T15:41:08.0000000+00:00</time></trkpt><trkpt lat="34.8368368" lon="32.3901441"><ele>16.4</ele><time>2015-04-24T15:41:09.0000000+00:00</time></trkpt><trkpt lat="34.8368959" lon="32.3901036"><ele>16.6</ele><time>2015-04-24T15:41:10.0000000+00:00</time></trkpt><trkpt lat="34.8369489" lon="32.3900743"><ele>18.3</ele><time>2015-04-24T15:41:11.0000000+00:00</time></trkpt><trkpt lat="34.8370027" lon="32.3900488"><ele>18.6</ele><time>2015-04-24T15:41:12.0000000+00:00</time></trkpt><trkpt lat="34.8370614" lon="32.3900208"><ele>18.8</ele><time>2015-04-24T15:41:13.0000000+00:00</time></trkpt><trkpt lat="34.8371144" lon="32.3899852"><ele>19.3</ele><time>2015-04-24T15:41:14.0000000+00:00</time></trkpt><trkpt lat="34.8371692" lon="32.3899556"><ele>19.1</ele><time>2015-04-24T15:41:15.0000000+00:00</time></trkpt><trkpt lat="34.8372215" lon="32.3899286"><ele>19.0</ele><time>2015-04-24T15:41:16.0000000+00:00</time></trkpt><trkpt lat="34.8372813" lon="32.3898987"><ele>19.0</ele><time>2015-04-24T15:41:17.0000000+00:00</time></trkpt><trkpt lat="34.8373336" lon="32.3898687"><ele>19.0</ele><time>2015-04-24T15:41:18.0000000+00:00</time></trkpt><trkpt lat="34.8373908" lon="32.3898291"><ele>18.9</ele><time>2015-04-24T15:41:19.0000000+00:00</time></trkpt><trkpt lat="34.8374496" lon="32.3898076"><ele>18.9</ele><time>2015-04-24T15:41:20.0000000+00:00</time></trkpt><trkpt lat="34.837499" lon="32.3897879"><ele>18.4</ele><time>2015-04-24T15:41:21.0000000+00:00</time></trkpt><trkpt lat="34.8375449" lon="32.3897587"><ele>18.2</ele><time>2015-04-24T15:41:22.0000000+00:00</time></trkpt><trkpt lat="34.8375945" lon="32.3897323"><ele>18.1</ele><time>2015-04-24T15:41:23.0000000+00:00</time></trkpt><trkpt lat="34.8376482" lon="32.3897036"><ele>18.0</ele><time>2015-04-24T15:41:24.0000000+00:00</time></trkpt><trkpt lat="34.8376999" lon="32.389672"><ele>18.0</ele><time>2015-04-24T15:41:25.0000000+00:00</time></trkpt><trkpt lat="34.8377474" lon="32.3896484"><ele>17.9</ele><time>2015-04-24T15:41:26.0000000+00:00</time></trkpt><trkpt lat="34.8378312" lon="32.3896083"><ele>17.2</ele><time>2015-04-24T15:41:28.0000000+00:00</time></trkpt><trkpt lat="34.837877" lon="32.3895938"><ele>17.1</ele><time>2015-04-24T15:41:29.0000000+00:00</time></trkpt><trkpt lat="34.8379617" lon="32.3895601"><ele>17.0</ele><time>2015-04-24T15:41:31.0000000+00:00</time></trkpt><trkpt lat="34.8380055" lon="32.3895473"><ele>16.9</ele><time>2015-04-24T15:41:32.0000000+00:00</time></trkpt><trkpt lat="34.8380836" lon="32.3895199"><ele>17.4</ele><time>2015-04-24T15:41:34.0000000+00:00</time></trkpt><trkpt lat="34.8381526" lon="32.3894852"><ele>17.3</ele><time>2015-04-24T15:41:36.0000000+00:00</time></trkpt><trkpt lat="34.8381995" lon="32.3894615"><ele>17.6</ele><time>2015-04-24T15:41:37.0000000+00:00</time></trkpt><trkpt lat="34.8382468" lon="32.3894476"><ele>16.8</ele><time>2015-04-24T15:41:38.0000000+00:00</time></trkpt><trkpt lat="34.8382946" lon="32.3894242"><ele>16.9</ele><time>2015-04-24T15:41:39.0000000+00:00</time></trkpt><trkpt lat="34.8383468" lon="32.3893954"><ele>16.4</ele><time>2015-04-24T15:41:40.0000000+00:00</time></trkpt><trkpt lat="34.838399" lon="32.3893771"><ele>15.7</ele><time>2015-04-24T15:41:41.0000000+00:00</time></trkpt><trkpt lat="34.838456" lon="32.3893571"><ele>15.8</ele><time>2015-04-24T15:41:42.0000000+00:00</time></trkpt><trkpt lat="34.8385097" lon="32.3893389"><ele>15.9</ele><time>2015-04-24T15:41:43.0000000+00:00</time></trkpt><trkpt lat="34.8385673" lon="32.3893186"><ele>15.9</ele><time>2015-04-24T15:41:44.0000000+00:00</time></trkpt><trkpt lat="34.8386239" lon="32.3892987"><ele>16.4</ele><time>2015-04-24T15:41:45.0000000+00:00</time></trkpt><trkpt lat="34.8386735" lon="32.3892835"><ele>16.2</ele><time>2015-04-24T15:41:46.0000000+00:00</time></trkpt><trkpt lat="34.8387207" lon="32.3892609"><ele>16.1</ele><time>2015-04-24T15:41:47.0000000+00:00</time></trkpt><trkpt lat="34.8387748" lon="32.3892297"><ele>16.5</ele><time>2015-04-24T15:41:48.0000000+00:00</time></trkpt><trkpt lat="34.8388298" lon="32.3892052"><ele>16.7</ele><time>2015-04-24T15:41:49.0000000+00:00</time></trkpt><trkpt lat="34.8388932" lon="32.3891813"><ele>16.8</ele><time>2015-04-24T15:41:50.0000000+00:00</time></trkpt><trkpt lat="34.8389491" lon="32.3891621"><ele>17.4</ele><time>2015-04-24T15:41:51.0000000+00:00</time></trkpt><trkpt lat="34.8390062" lon="32.3891334"><ele>17.7</ele><time>2015-04-24T15:41:52.0000000+00:00</time></trkpt><trkpt lat="34.8390671" lon="32.3891108"><ele>17.8</ele><time>2015-04-24T15:41:53.0000000+00:00</time></trkpt><trkpt lat="34.839122" lon="32.3890887"><ele>17.9</ele><time>2015-04-24T15:41:54.0000000+00:00</time></trkpt><trkpt lat="34.8391738" lon="32.3890659"><ele>18.4</ele><time>2015-04-24T15:41:55.0000000+00:00</time></trkpt><trkpt lat="34.8392344" lon="32.3890528"><ele>18.2</ele><time>2015-04-24T15:41:56.0000000+00:00</time></trkpt><trkpt lat="34.8392888" lon="32.3890297"><ele>17.5</ele><time>2015-04-24T15:41:57.0000000+00:00</time></trkpt><trkpt lat="34.8393401" lon="32.3890079"><ele>17.2</ele><time>2015-04-24T15:41:58.0000000+00:00</time></trkpt><trkpt lat="34.8393901" lon="32.3889875"><ele>17.6</ele><time>2015-04-24T15:41:59.0000000+00:00</time></trkpt><trkpt lat="34.8394441" lon="32.3889676"><ele>17.8</ele><time>2015-04-24T15:42:00.0000000+00:00</time></trkpt><trkpt lat="34.839501" lon="32.3889487"><ele>18.3</ele><time>2015-04-24T15:42:01.0000000+00:00</time></trkpt><trkpt lat="34.8395502" lon="32.3889282"><ele>18.6</ele><time>2015-04-24T15:42:02.0000000+00:00</time></trkpt><trkpt lat="34.8396003" lon="32.3889061"><ele>18.8</ele><time>2015-04-24T15:42:03.0000000+00:00</time></trkpt><trkpt lat="34.839661" lon="32.3888742"><ele>18.9</ele><time>2015-04-24T15:42:04.0000000+00:00</time></trkpt><trkpt lat="34.8397086" lon="32.3888584"><ele>18.9</ele><time>2015-04-24T15:42:05.0000000+00:00</time></trkpt><trkpt lat="34.8397603" lon="32.3888378"><ele>18.4</ele><time>2015-04-24T15:42:06.0000000+00:00</time></trkpt><trkpt lat="34.8398132" lon="32.3888202"><ele>17.2</ele><time>2015-04-24T15:42:07.0000000+00:00</time></trkpt><trkpt lat="34.8398752" lon="32.3887908"><ele>17.1</ele><time>2015-04-24T15:42:08.0000000+00:00</time></trkpt><trkpt lat="34.8399361" lon="32.3887567"><ele>17.5</ele><time>2015-04-24T15:42:09.0000000+00:00</time></trkpt><trkpt lat="34.8399911" lon="32.3887348"><ele>17.7</ele><time>2015-04-24T15:42:10.0000000+00:00</time></trkpt><trkpt lat="34.8400431" lon="32.3887059"><ele>17.8</ele><time>2015-04-24T15:42:11.0000000+00:00</time></trkpt><trkpt lat="34.8400919" lon="32.3886803"><ele>17.4</ele><time>2015-04-24T15:42:12.0000000+00:00</time></trkpt><trkpt lat="34.8401514" lon="32.3886727"><ele>16.2</ele><time>2015-04-24T15:42:13.0000000+00:00</time></trkpt><trkpt lat="34.8402021" lon="32.3886595"><ele>15.5</ele><time>2015-04-24T15:42:14.0000000+00:00</time></trkpt><trkpt lat="34.8402464" lon="32.3886329"><ele>15.2</ele><time>2015-04-24T15:42:15.0000000+00:00</time></trkpt><trkpt lat="34.8402904" lon="32.388613"><ele>15.1</ele><time>2015-04-24T15:42:16.0000000+00:00</time></trkpt><trkpt lat="34.8403563" lon="32.3885842"><ele>15.0</ele><time>2015-04-24T15:42:18.0000000+00:00</time></trkpt><trkpt lat="34.8404386" lon="32.3885553"><ele>14.9</ele><time>2015-04-24T15:42:20.0000000+00:00</time></trkpt><trkpt lat="34.8404893" lon="32.388543"><ele>14.9</ele><time>2015-04-24T15:42:21.0000000+00:00</time></trkpt><trkpt lat="34.8405703" lon="32.3884995"><ele>14.7</ele><time>2015-04-24T15:42:23.0000000+00:00</time></trkpt><trkpt lat="34.8406489" lon="32.3884597"><ele>14.4</ele><time>2015-04-24T15:42:25.0000000+00:00</time></trkpt><trkpt lat="34.8406998" lon="32.3884158"><ele>14.0</ele><time>2015-04-24T15:42:27.0000000+00:00</time></trkpt><trkpt lat="34.8407632" lon="32.3883719"><ele>14.0</ele><time>2015-04-24T15:42:29.0000000+00:00</time></trkpt><trkpt lat="34.8407978" lon="32.388323"><ele>13.4</ele><time>2015-04-24T15:42:31.0000000+00:00</time></trkpt><trkpt lat="34.8408353" lon="32.3882875"><ele>13.8</ele><time>2015-04-24T15:42:39.0000000+00:00</time></trkpt><trkpt lat="34.8408918" lon="32.3882851"><ele>14.8</ele><time>2015-04-24T15:46:19.0000000+00:00</time></trkpt><trkpt lat="34.8409589" lon="32.3882689"><ele>14.9</ele><time>2015-04-24T15:46:22.0000000+00:00</time></trkpt><trkpt lat="34.8410061" lon="32.3882575"><ele>14.4</ele><time>2015-04-24T15:46:24.0000000+00:00</time></trkpt><trkpt lat="34.8410563" lon="32.3882429"><ele>11.9</ele><time>2015-04-24T15:46:55.0000000+00:00</time></trkpt><trkpt lat="34.8411063" lon="32.3882214"><ele>12.4</ele><time>2015-04-24T15:46:59.0000000+00:00</time></trkpt><trkpt lat="34.8411714" lon="32.3881962"><ele>12.9</ele><time>2015-04-24T15:47:02.0000000+00:00</time></trkpt><trkpt lat="34.8412417" lon="32.3881767"><ele>12.9</ele><time>2015-04-24T15:47:04.0000000+00:00</time></trkpt><trkpt lat="34.8413143" lon="32.3881465"><ele>12.9</ele><time>2015-04-24T15:47:06.0000000+00:00</time></trkpt><trkpt lat="34.8413897" lon="32.3881151"><ele>12.9</ele><time>2015-04-24T15:47:08.0000000+00:00</time></trkpt><trkpt lat="34.841467" lon="32.3880837"><ele>13.2</ele><time>2015-04-24T15:47:10.0000000+00:00</time></trkpt><trkpt lat="34.8415508" lon="32.3880523"><ele>13.0</ele><time>2015-04-24T15:47:12.0000000+00:00</time></trkpt><trkpt lat="34.841633" lon="32.3880199"><ele>12.9</ele><time>2015-04-24T15:47:14.0000000+00:00</time></trkpt><trkpt lat="34.8417161" lon="32.3879864"><ele>12.9</ele><time>2015-04-24T15:47:16.0000000+00:00</time></trkpt><trkpt lat="34.8417945" lon="32.3879556"><ele>12.9</ele><time>2015-04-24T15:47:18.0000000+00:00</time></trkpt><trkpt lat="34.8418698" lon="32.3879273"><ele>12.9</ele><time>2015-04-24T15:47:20.0000000+00:00</time></trkpt><trkpt lat="34.8419483" lon="32.3878963"><ele>13.7</ele><time>2015-04-24T15:47:22.0000000+00:00</time></trkpt><trkpt lat="34.8419943" lon="32.3878776"><ele>13.8</ele><time>2015-04-24T15:47:23.0000000+00:00</time></trkpt><trkpt lat="34.8420478" lon="32.3878584"><ele>13.9</ele><time>2015-04-24T15:47:24.0000000+00:00</time></trkpt><trkpt lat="34.8420933" lon="32.3878383"><ele>13.9</ele><time>2015-04-24T15:47:25.0000000+00:00</time></trkpt><trkpt lat="34.8421417" lon="32.38782"><ele>13.9</ele><time>2015-04-24T15:47:26.0000000+00:00</time></trkpt><trkpt lat="34.8421896" lon="32.3877985"><ele>13.9</ele><time>2015-04-24T15:47:27.0000000+00:00</time></trkpt><trkpt lat="34.842235" lon="32.3877792"><ele>13.9</ele><time>2015-04-24T15:47:28.0000000+00:00</time></trkpt><trkpt lat="34.8422823" lon="32.3877586"><ele>13.9</ele><time>2015-04-24T15:47:29.0000000+00:00</time></trkpt><trkpt lat="34.8423258" lon="32.3877423"><ele>13.9</ele><time>2015-04-24T15:47:30.0000000+00:00</time></trkpt><trkpt lat="34.8423738" lon="32.3877203"><ele>13.9</ele><time>2015-04-24T15:47:31.0000000+00:00</time></trkpt><trkpt lat="34.8424191" lon="32.3877004"><ele>13.9</ele><time>2015-04-24T15:47:32.0000000+00:00</time></trkpt><trkpt lat="34.8424667" lon="32.3876829"><ele>14.4</ele><time>2015-04-24T15:47:33.0000000+00:00</time></trkpt><trkpt lat="34.8425116" lon="32.3876642"><ele>14.2</ele><time>2015-04-24T15:47:34.0000000+00:00</time></trkpt><trkpt lat="34.8425584" lon="32.3876505"><ele>14.1</ele><time>2015-04-24T15:47:35.0000000+00:00</time></trkpt><trkpt lat="34.842604" lon="32.3876316"><ele>14.0</ele><time>2015-04-24T15:47:36.0000000+00:00</time></trkpt><trkpt lat="34.8426526" lon="32.3876109"><ele>14.5</ele><time>2015-04-24T15:47:37.0000000+00:00</time></trkpt><trkpt lat="34.8426998" lon="32.3875942"><ele>14.2</ele><time>2015-04-24T15:47:38.0000000+00:00</time></trkpt><trkpt lat="34.8427473" lon="32.3875758"><ele>14.1</ele><time>2015-04-24T15:47:39.0000000+00:00</time></trkpt><trkpt lat="34.8427954" lon="32.3875573"><ele>14.5</ele><time>2015-04-24T15:47:40.0000000+00:00</time></trkpt><trkpt lat="34.842846" lon="32.3875372"><ele>14.7</ele><time>2015-04-24T15:47:41.0000000+00:00</time></trkpt><trkpt lat="34.8428902" lon="32.3875191"><ele>14.8</ele><time>2015-04-24T15:47:42.0000000+00:00</time></trkpt><trkpt lat="34.8429375" lon="32.3875006"><ele>14.9</ele><time>2015-04-24T15:47:43.0000000+00:00</time></trkpt><trkpt lat="34.8429836" lon="32.3874826"><ele>14.9</ele><time>2015-04-24T15:47:44.0000000+00:00</time></trkpt><trkpt lat="34.8430305" lon="32.3874664"><ele>14.9</ele><time>2015-04-24T15:47:45.0000000+00:00</time></trkpt><trkpt lat="34.8430768" lon="32.3874464"><ele>14.9</ele><time>2015-04-24T15:47:46.0000000+00:00</time></trkpt><trkpt lat="34.8431234" lon="32.3874247"><ele>14.9</ele><time>2015-04-24T15:47:47.0000000+00:00</time></trkpt><trkpt lat="34.843166" lon="32.3874049"><ele>14.9</ele><time>2015-04-24T15:47:48.0000000+00:00</time></trkpt><trkpt lat="34.8432515" lon="32.3873676"><ele>14.9</ele><time>2015-04-24T15:47:50.0000000+00:00</time></trkpt><trkpt lat="34.8432984" lon="32.3873505"><ele>15.4</ele><time>2015-04-24T15:47:51.0000000+00:00</time></trkpt><trkpt lat="34.8433444" lon="32.3873357"><ele>15.7</ele><time>2015-04-24T15:47:52.0000000+00:00</time></trkpt><trkpt lat="34.8433919" lon="32.3873154"><ele>15.3</ele><time>2015-04-24T15:47:53.0000000+00:00</time></trkpt><trkpt lat="34.8434382" lon="32.3872943"><ele>15.6</ele><time>2015-04-24T15:47:54.0000000+00:00</time></trkpt><trkpt lat="34.8434811" lon="32.387272"><ele>15.8</ele><time>2015-04-24T15:47:55.0000000+00:00</time></trkpt><trkpt lat="34.8435278" lon="32.3872549"><ele>15.9</ele><time>2015-04-24T15:47:56.0000000+00:00</time></trkpt><trkpt lat="34.8435737" lon="32.3872384"><ele>15.9</ele><time>2015-04-24T15:47:57.0000000+00:00</time></trkpt><trkpt lat="34.8436185" lon="32.3872237"><ele>16.4</ele><time>2015-04-24T15:47:58.0000000+00:00</time></trkpt><trkpt lat="34.8436666" lon="32.3871973"><ele>17.2</ele><time>2015-04-24T15:47:59.0000000+00:00</time></trkpt><trkpt lat="34.8437196" lon="32.3871843"><ele>17.6</ele><time>2015-04-24T15:48:00.0000000+00:00</time></trkpt><trkpt lat="34.8437658" lon="32.3871684"><ele>17.2</ele><time>2015-04-24T15:48:01.0000000+00:00</time></trkpt><trkpt lat="34.843854" lon="32.3871465"><ele>17.0</ele><time>2015-04-24T15:48:03.0000000+00:00</time></trkpt><trkpt lat="34.8438964" lon="32.3871248"><ele>17.5</ele><time>2015-04-24T15:48:04.0000000+00:00</time></trkpt><trkpt lat="34.8439475" lon="32.3871004"><ele>17.7</ele><time>2015-04-24T15:48:05.0000000+00:00</time></trkpt><trkpt lat="34.8439936" lon="32.3870861"><ele>17.8</ele><time>2015-04-24T15:48:06.0000000+00:00</time></trkpt><trkpt lat="34.8440356" lon="32.3870658"><ele>17.9</ele><time>2015-04-24T15:48:07.0000000+00:00</time></trkpt><trkpt lat="34.8440886" lon="32.3870555"><ele>17.4</ele><time>2015-04-24T15:48:08.0000000+00:00</time></trkpt><trkpt lat="34.8441378" lon="32.3870411"><ele>18.2</ele><time>2015-04-24T15:48:09.0000000+00:00</time></trkpt><trkpt lat="34.8442213" lon="32.387013"><ele>18.0</ele><time>2015-04-24T15:48:11.0000000+00:00</time></trkpt><trkpt lat="34.8442682" lon="32.3869918"><ele>18.5</ele><time>2015-04-24T15:48:12.0000000+00:00</time></trkpt><trkpt lat="34.8443251" lon="32.3869816"><ele>17.2</ele><time>2015-04-24T15:48:13.0000000+00:00</time></trkpt><trkpt lat="34.8443736" lon="32.3869683"><ele>16.6</ele><time>2015-04-24T15:48:14.0000000+00:00</time></trkpt><trkpt lat="34.844466" lon="32.386925"><ele>16.8</ele><time>2015-04-24T15:48:16.0000000+00:00</time></trkpt><trkpt lat="34.8445191" lon="32.3868944"><ele>16.4</ele><time>2015-04-24T15:48:17.0000000+00:00</time></trkpt><trkpt lat="34.8445638" lon="32.386877"><ele>15.7</ele><time>2015-04-24T15:48:18.0000000+00:00</time></trkpt><trkpt lat="34.844611" lon="32.386862"><ele>15.3</ele><time>2015-04-24T15:48:19.0000000+00:00</time></trkpt><trkpt lat="34.8446598" lon="32.3868406"><ele>16.1</ele><time>2015-04-24T15:48:20.0000000+00:00</time></trkpt><trkpt lat="34.8447051" lon="32.3868195"><ele>16.0</ele><time>2015-04-24T15:48:21.0000000+00:00</time></trkpt><trkpt lat="34.8447487" lon="32.3867997"><ele>16.0</ele><time>2015-04-24T15:48:22.0000000+00:00</time></trkpt><trkpt lat="34.8447912" lon="32.3867741"><ele>16.5</ele><time>2015-04-24T15:48:23.0000000+00:00</time></trkpt><trkpt lat="34.8448823" lon="32.3867275"><ele>16.6</ele><time>2015-04-24T15:48:25.0000000+00:00</time></trkpt><trkpt lat="34.8449654" lon="32.3866921"><ele>16.3</ele><time>2015-04-24T15:48:27.0000000+00:00</time></trkpt><trkpt lat="34.8450154" lon="32.3866528"><ele>16.6</ele><time>2015-04-24T15:48:28.0000000+00:00</time></trkpt><trkpt lat="34.8450609" lon="32.3866416"><ele>16.3</ele><time>2015-04-24T15:48:29.0000000+00:00</time></trkpt><trkpt lat="34.8451434" lon="32.3866109"><ele>14.5</ele><time>2015-04-24T15:48:31.0000000+00:00</time></trkpt><trkpt lat="34.8451924" lon="32.3865976"><ele>14.2</ele><time>2015-04-24T15:48:32.0000000+00:00</time></trkpt><trkpt lat="34.8452382" lon="32.3865785"><ele>14.1</ele><time>2015-04-24T15:48:33.0000000+00:00</time></trkpt><trkpt lat="34.8453226" lon="32.3865491"><ele>13.5</ele><time>2015-04-24T15:48:35.0000000+00:00</time></trkpt><trkpt lat="34.8453677" lon="32.3865271"><ele>13.7</ele><time>2015-04-24T15:48:36.0000000+00:00</time></trkpt><trkpt lat="34.8454161" lon="32.3865076"><ele>13.8</ele><time>2015-04-24T15:48:37.0000000+00:00</time></trkpt><trkpt lat="34.8454589" lon="32.3864888"><ele>14.4</ele><time>2015-04-24T15:48:38.0000000+00:00</time></trkpt><trkpt lat="34.8455471" lon="32.3864505"><ele>14.8</ele><time>2015-04-24T15:48:40.0000000+00:00</time></trkpt><trkpt lat="34.8456306" lon="32.3864172"><ele>14.9</ele><time>2015-04-24T15:48:42.0000000+00:00</time></trkpt><trkpt lat="34.8457247" lon="32.3863737"><ele>16.7</ele><time>2015-04-24T15:48:44.0000000+00:00</time></trkpt><trkpt lat="34.845773" lon="32.3863544"><ele>17.3</ele><time>2015-04-24T15:48:45.0000000+00:00</time></trkpt><trkpt lat="34.8458191" lon="32.3863351"><ele>18.1</ele><time>2015-04-24T15:48:46.0000000+00:00</time></trkpt><trkpt lat="34.8459178" lon="32.3863315"><ele>17.5</ele><time>2015-04-24T15:48:48.0000000+00:00</time></trkpt><trkpt lat="34.8459658" lon="32.3863114"><ele>16.7</ele><time>2015-04-24T15:48:49.0000000+00:00</time></trkpt><trkpt lat="34.8460189" lon="32.3862956"><ele>16.8</ele><time>2015-04-24T15:48:50.0000000+00:00</time></trkpt><trkpt lat="34.8460651" lon="32.3862758"><ele>16.4</ele><time>2015-04-24T15:48:51.0000000+00:00</time></trkpt><trkpt lat="34.8461234" lon="32.3862768"><ele>14.2</ele><time>2015-04-24T15:48:52.0000000+00:00</time></trkpt><trkpt lat="34.8462054" lon="32.3862518"><ele>11.0</ele><time>2015-04-24T15:48:54.0000000+00:00</time></trkpt><trkpt lat="34.8462817" lon="32.3862026"><ele>9.9</ele><time>2015-04-24T15:48:56.0000000+00:00</time></trkpt><trkpt lat="34.8463264" lon="32.3861794"><ele>8.9</ele><time>2015-04-24T15:48:57.0000000+00:00</time></trkpt><trkpt lat="34.8463685" lon="32.3861584"><ele>8.9</ele><time>2015-04-24T15:48:58.0000000+00:00</time></trkpt><trkpt lat="34.8464173" lon="32.386143"><ele>9.4</ele><time>2015-04-24T15:48:59.0000000+00:00</time></trkpt><trkpt lat="34.8464595" lon="32.3861219"><ele>9.7</ele><time>2015-04-24T15:49:00.0000000+00:00</time></trkpt><trkpt lat="34.8465087" lon="32.3861061"><ele>9.3</ele><time>2015-04-24T15:49:01.0000000+00:00</time></trkpt><trkpt lat="34.8465826" lon="32.3860735"><ele>9.3</ele><time>2015-04-24T15:49:03.0000000+00:00</time></trkpt><trkpt lat="34.8466669" lon="32.386037"><ele>9.0</ele><time>2015-04-24T15:49:05.0000000+00:00</time></trkpt><trkpt lat="34.8467104" lon="32.3860152"><ele>9.5</ele><time>2015-04-24T15:49:06.0000000+00:00</time></trkpt><trkpt lat="34.8468033" lon="32.3859697"><ele>10.8</ele><time>2015-04-24T15:49:08.0000000+00:00</time></trkpt><trkpt lat="34.8468821" lon="32.3859279"><ele>12.2</ele><time>2015-04-24T15:49:10.0000000+00:00</time></trkpt><trkpt lat="34.8469702" lon="32.3858966"><ele>14.0</ele><time>2015-04-24T15:49:12.0000000+00:00</time></trkpt><trkpt lat="34.8470142" lon="32.3858826"><ele>14.5</ele><time>2015-04-24T15:49:13.0000000+00:00</time></trkpt><trkpt lat="34.8470957" lon="32.3858553"><ele>15.6</ele><time>2015-04-24T15:49:15.0000000+00:00</time></trkpt><trkpt lat="34.847186" lon="32.3858327"><ele>15.3</ele><time>2015-04-24T15:49:17.0000000+00:00</time></trkpt><trkpt lat="34.8472634" lon="32.3857913"><ele>15.8</ele><time>2015-04-24T15:49:19.0000000+00:00</time></trkpt><trkpt lat="34.8473073" lon="32.3857733"><ele>16.4</ele><time>2015-04-24T15:49:20.0000000+00:00</time></trkpt><trkpt lat="34.8473534" lon="32.385758"><ele>15.6</ele><time>2015-04-24T15:49:21.0000000+00:00</time></trkpt><trkpt lat="34.8474006" lon="32.3857345"><ele>15.8</ele><time>2015-04-24T15:49:22.0000000+00:00</time></trkpt><trkpt lat="34.8474872" lon="32.3857079"><ele>15.4</ele><time>2015-04-24T15:49:24.0000000+00:00</time></trkpt><trkpt lat="34.8475298" lon="32.3856757"><ele>16.2</ele><time>2015-04-24T15:49:25.0000000+00:00</time></trkpt><trkpt lat="34.8475757" lon="32.385655"><ele>17.0</ele><time>2015-04-24T15:49:26.0000000+00:00</time></trkpt><trkpt lat="34.8476584" lon="32.3856155"><ele>17.0</ele><time>2015-04-24T15:49:28.0000000+00:00</time></trkpt><trkpt lat="34.8477044" lon="32.3855969"><ele>17.4</ele><time>2015-04-24T15:49:29.0000000+00:00</time></trkpt><trkpt lat="34.8477568" lon="32.3855828"><ele>17.2</ele><time>2015-04-24T15:49:30.0000000+00:00</time></trkpt><trkpt lat="34.8478021" lon="32.3855641"><ele>17.1</ele><time>2015-04-24T15:49:31.0000000+00:00</time></trkpt><trkpt lat="34.8478533" lon="32.3855397"><ele>17.0</ele><time>2015-04-24T15:49:32.0000000+00:00</time></trkpt><trkpt lat="34.8479011" lon="32.3855233"><ele>17.0</ele><time>2015-04-24T15:49:33.0000000+00:00</time></trkpt><trkpt lat="34.8479487" lon="32.3855068"><ele>17.4</ele><time>2015-04-24T15:49:34.0000000+00:00</time></trkpt><trkpt lat="34.8480005" lon="32.3854901"><ele>17.2</ele><time>2015-04-24T15:49:35.0000000+00:00</time></trkpt><trkpt lat="34.8480574" lon="32.3854633"><ele>18.1</ele><time>2015-04-24T15:49:36.0000000+00:00</time></trkpt><trkpt lat="34.8481062" lon="32.3854458"><ele>19.0</ele><time>2015-04-24T15:49:37.0000000+00:00</time></trkpt><trkpt lat="34.8481517" lon="32.3854234"><ele>19.0</ele><time>2015-04-24T15:49:38.0000000+00:00</time></trkpt><trkpt lat="34.8482028" lon="32.3854057"><ele>18.9</ele><time>2015-04-24T15:49:39.0000000+00:00</time></trkpt><trkpt lat="34.8482554" lon="32.3853815"><ele>18.4</ele><time>2015-04-24T15:49:40.0000000+00:00</time></trkpt><trkpt lat="34.8483085" lon="32.3853628"><ele>18.2</ele><time>2015-04-24T15:49:41.0000000+00:00</time></trkpt><trkpt lat="34.848352" lon="32.3853358"><ele>18.6</ele><time>2015-04-24T15:49:42.0000000+00:00</time></trkpt><trkpt lat="34.8484357" lon="32.3852875"><ele>20.1</ele><time>2015-04-24T15:49:44.0000000+00:00</time></trkpt><trkpt lat="34.8484785" lon="32.3852681"><ele>21.0</ele><time>2015-04-24T15:49:45.0000000+00:00</time></trkpt><trkpt lat="34.8485203" lon="32.3852448"><ele>21.0</ele><time>2015-04-24T15:49:46.0000000+00:00</time></trkpt><trkpt lat="34.8485698" lon="32.3852157"><ele>22.4</ele><time>2015-04-24T15:49:47.0000000+00:00</time></trkpt><trkpt lat="34.8486194" lon="32.3851998"><ele>23.2</ele><time>2015-04-24T15:49:48.0000000+00:00</time></trkpt><trkpt lat="34.848667" lon="32.385178"><ele>23.1</ele><time>2015-04-24T15:49:49.0000000+00:00</time></trkpt><trkpt lat="34.8487091" lon="32.3851556"><ele>23.5</ele><time>2015-04-24T15:49:50.0000000+00:00</time></trkpt><trkpt lat="34.8487991" lon="32.3851054"><ele>24.3</ele><time>2015-04-24T15:49:52.0000000+00:00</time></trkpt><trkpt lat="34.8488459" lon="32.3850723"><ele>25.1</ele><time>2015-04-24T15:49:53.0000000+00:00</time></trkpt><trkpt lat="34.8488869" lon="32.3850458"><ele>25.5</ele><time>2015-04-24T15:49:54.0000000+00:00</time></trkpt><trkpt lat="34.8489805" lon="32.385006"><ele>26.3</ele><time>2015-04-24T15:49:56.0000000+00:00</time></trkpt><trkpt lat="34.84902" lon="32.3849784"><ele>26.6</ele><time>2015-04-24T15:49:57.0000000+00:00</time></trkpt><trkpt lat="34.8490984" lon="32.3849399"><ele>25.4</ele><time>2015-04-24T15:49:59.0000000+00:00</time></trkpt><trkpt lat="34.8491868" lon="32.3848971"><ele>25.3</ele><time>2015-04-24T15:50:01.0000000+00:00</time></trkpt><trkpt lat="34.8492324" lon="32.3848669"><ele>25.1</ele><time>2015-04-24T15:50:02.0000000+00:00</time></trkpt><trkpt lat="34.8493152" lon="32.3848319"><ele>25.0</ele><time>2015-04-24T15:50:04.0000000+00:00</time></trkpt><trkpt lat="34.8493907" lon="32.3847716"><ele>24.2</ele><time>2015-04-24T15:50:06.0000000+00:00</time></trkpt><trkpt lat="34.8494364" lon="32.3847518"><ele>23.1</ele><time>2015-04-24T15:50:07.0000000+00:00</time></trkpt><trkpt lat="34.8495136" lon="32.3846996"><ele>22.7</ele><time>2015-04-24T15:50:09.0000000+00:00</time></trkpt><trkpt lat="34.8495486" lon="32.3846647"><ele>23.3</ele><time>2015-04-24T15:50:10.0000000+00:00</time></trkpt><trkpt lat="34.849588" lon="32.3846272"><ele>24.1</ele><time>2015-04-24T15:50:11.0000000+00:00</time></trkpt><trkpt lat="34.8496675" lon="32.384568"><ele>24.5</ele><time>2015-04-24T15:50:13.0000000+00:00</time></trkpt><trkpt lat="34.8497192" lon="32.3845303"><ele>26.2</ele><time>2015-04-24T15:50:14.0000000+00:00</time></trkpt><trkpt lat="34.8497874" lon="32.3844716"><ele>27.0</ele><time>2015-04-24T15:50:16.0000000+00:00</time></trkpt><trkpt lat="34.84983" lon="32.3844432"><ele>27.5</ele><time>2015-04-24T15:50:17.0000000+00:00</time></trkpt><trkpt lat="34.8498718" lon="32.3844209"><ele>27.2</ele><time>2015-04-24T15:50:18.0000000+00:00</time></trkpt><trkpt lat="34.8499156" lon="32.3843851"><ele>27.1</ele><time>2015-04-24T15:50:19.0000000+00:00</time></trkpt><trkpt lat="34.8499639" lon="32.384353"><ele>27.5</ele><time>2015-04-24T15:50:20.0000000+00:00</time></trkpt><trkpt lat="34.8500078" lon="32.3843274"><ele>27.7</ele><time>2015-04-24T15:50:21.0000000+00:00</time></trkpt><trkpt lat="34.85005" lon="32.3842979"><ele>27.8</ele><time>2015-04-24T15:50:22.0000000+00:00</time></trkpt><trkpt lat="34.850097" lon="32.3842719"><ele>28.4</ele><time>2015-04-24T15:50:23.0000000+00:00</time></trkpt><trkpt lat="34.8501428" lon="32.38424"><ele>29.2</ele><time>2015-04-24T15:50:24.0000000+00:00</time></trkpt><trkpt lat="34.8502064" lon="32.3841794"><ele>29.2</ele><time>2015-04-24T15:50:26.0000000+00:00</time></trkpt><trkpt lat="34.8502814" lon="32.3841198"><ele>29.0</ele><time>2015-04-24T15:50:28.0000000+00:00</time></trkpt><trkpt lat="34.8503196" lon="32.3840876"><ele>29.0</ele><time>2015-04-24T15:50:29.0000000+00:00</time></trkpt><trkpt lat="34.8503603" lon="32.3840519"><ele>29.4</ele><time>2015-04-24T15:50:30.0000000+00:00</time></trkpt><trkpt lat="34.8504398" lon="32.3839821"><ele>29.1</ele><time>2015-04-24T15:50:32.0000000+00:00</time></trkpt><trkpt lat="34.8505127" lon="32.3839228"><ele>28.2</ele><time>2015-04-24T15:50:34.0000000+00:00</time></trkpt><trkpt lat="34.8505759" lon="32.3838674"><ele>27.8</ele><time>2015-04-24T15:50:36.0000000+00:00</time></trkpt><trkpt lat="34.8506356" lon="32.3837986"><ele>28.6</ele><time>2015-04-24T15:50:38.0000000+00:00</time></trkpt><trkpt lat="34.8506756" lon="32.3837724"><ele>28.3</ele><time>2015-04-24T15:50:39.0000000+00:00</time></trkpt><trkpt lat="34.8507364" lon="32.3837161"><ele>27.3</ele><time>2015-04-24T15:50:41.0000000+00:00</time></trkpt><trkpt lat="34.8507753" lon="32.383682"><ele>27.6</ele><time>2015-04-24T15:50:42.0000000+00:00</time></trkpt><trkpt lat="34.850848" lon="32.3836377"><ele>27.3</ele><time>2015-04-24T15:50:44.0000000+00:00</time></trkpt><trkpt lat="34.8509156" lon="32.3835883"><ele>27.0</ele><time>2015-04-24T15:50:46.0000000+00:00</time></trkpt><trkpt lat="34.850976" lon="32.3835349"><ele>27.0</ele><time>2015-04-24T15:50:48.0000000+00:00</time></trkpt><trkpt lat="34.8510381" lon="32.3834668"><ele>26.4</ele><time>2015-04-24T15:50:50.0000000+00:00</time></trkpt><trkpt lat="34.851104" lon="32.3833991"><ele>26.6</ele><time>2015-04-24T15:50:52.0000000+00:00</time></trkpt><trkpt lat="34.8511528" lon="32.3833421"><ele>26.8</ele><time>2015-04-24T15:50:54.0000000+00:00</time></trkpt><trkpt lat="34.8512079" lon="32.3832801"><ele>26.9</ele><time>2015-04-24T15:50:56.0000000+00:00</time></trkpt><trkpt lat="34.8512875" lon="32.3831922"><ele>27.9</ele><time>2015-04-24T15:50:58.0000000+00:00</time></trkpt><trkpt lat="34.8513252" lon="32.3831557"><ele>28.4</ele><time>2015-04-24T15:50:59.0000000+00:00</time></trkpt><trkpt lat="34.8513632" lon="32.3831187"><ele>29.2</ele><time>2015-04-24T15:51:00.0000000+00:00</time></trkpt><trkpt lat="34.8513938" lon="32.383077"><ele>29.1</ele><time>2015-04-24T15:51:01.0000000+00:00</time></trkpt><trkpt lat="34.8514526" lon="32.3830216"><ele>29.7</ele><time>2015-04-24T15:51:03.0000000+00:00</time></trkpt><trkpt lat="34.851504" lon="32.3829741"><ele>30.6</ele><time>2015-04-24T15:51:05.0000000+00:00</time></trkpt><trkpt lat="34.8515511" lon="32.3829206"><ele>31.6</ele><time>2015-04-24T15:51:07.0000000+00:00</time></trkpt><trkpt lat="34.8516074" lon="32.3828692"><ele>30.3</ele><time>2015-04-24T15:51:09.0000000+00:00</time></trkpt><trkpt lat="34.8516604" lon="32.3828177"><ele>30.5</ele><time>2015-04-24T15:51:11.0000000+00:00</time></trkpt><trkpt lat="34.8517083" lon="32.3827577"><ele>30.8</ele><time>2015-04-24T15:51:13.0000000+00:00</time></trkpt><trkpt lat="34.8517588" lon="32.3827019"><ele>31.4</ele><time>2015-04-24T15:51:15.0000000+00:00</time></trkpt><trkpt lat="34.8518111" lon="32.3826454"><ele>31.3</ele><time>2015-04-24T15:51:17.0000000+00:00</time></trkpt><trkpt lat="34.8518606" lon="32.382594"><ele>31.5</ele><time>2015-04-24T15:51:19.0000000+00:00</time></trkpt><trkpt lat="34.851907" lon="32.3825391"><ele>32.8</ele><time>2015-04-24T15:51:21.0000000+00:00</time></trkpt><trkpt lat="34.8519526" lon="32.3824908"><ele>32.9</ele><time>2015-04-24T15:51:23.0000000+00:00</time></trkpt><trkpt lat="34.8519997" lon="32.3824389"><ele>32.9</ele><time>2015-04-24T15:51:25.0000000+00:00</time></trkpt><trkpt lat="34.8520479" lon="32.3823902"><ele>32.9</ele><time>2015-04-24T15:51:27.0000000+00:00</time></trkpt><trkpt lat="34.852096" lon="32.3823401"><ele>33.7</ele><time>2015-04-24T15:51:29.0000000+00:00</time></trkpt><trkpt lat="34.8521434" lon="32.3822935"><ele>34.4</ele><time>2015-04-24T15:51:31.0000000+00:00</time></trkpt><trkpt lat="34.8521954" lon="32.3822459"><ele>34.0</ele><time>2015-04-24T15:51:33.0000000+00:00</time></trkpt><trkpt lat="34.8522447" lon="32.3821996"><ele>34.0</ele><time>2015-04-24T15:51:35.0000000+00:00</time></trkpt><trkpt lat="34.8522961" lon="32.3821486"><ele>33.9</ele><time>2015-04-24T15:51:37.0000000+00:00</time></trkpt><trkpt lat="34.8523464" lon="32.3820996"><ele>34.4</ele><time>2015-04-24T15:51:39.0000000+00:00</time></trkpt><trkpt lat="34.852396" lon="32.3820427"><ele>35.6</ele><time>2015-04-24T15:51:41.0000000+00:00</time></trkpt><trkpt lat="34.8524427" lon="32.3819875"><ele>37.3</ele><time>2015-04-24T15:51:43.0000000+00:00</time></trkpt><trkpt lat="34.8524909" lon="32.3819289"><ele>38.5</ele><time>2015-04-24T15:51:45.0000000+00:00</time></trkpt><trkpt lat="34.8525372" lon="32.3818731"><ele>38.3</ele><time>2015-04-24T15:51:47.0000000+00:00</time></trkpt><trkpt lat="34.8525852" lon="32.3818206"><ele>39.3</ele><time>2015-04-24T15:51:49.0000000+00:00</time></trkpt><trkpt lat="34.8526309" lon="32.3817719"><ele>40.3</ele><time>2015-04-24T15:51:51.0000000+00:00</time></trkpt><trkpt lat="34.8526747" lon="32.3817246"><ele>40.3</ele><time>2015-04-24T15:51:53.0000000+00:00</time></trkpt><trkpt lat="34.8527135" lon="32.3816793"><ele>40.0</ele><time>2015-04-24T15:51:55.0000000+00:00</time></trkpt><trkpt lat="34.8527573" lon="32.3816341"><ele>39.5</ele><time>2015-04-24T15:51:57.0000000+00:00</time></trkpt><trkpt lat="34.852803" lon="32.381596"><ele>39.1</ele><time>2015-04-24T15:51:59.0000000+00:00</time></trkpt><trkpt lat="34.852838" lon="32.381552"><ele>39.0</ele><time>2015-04-24T15:52:01.0000000+00:00</time></trkpt><trkpt lat="34.8528699" lon="32.3815004"><ele>38.4</ele><time>2015-04-24T15:52:03.0000000+00:00</time></trkpt><trkpt lat="34.8529139" lon="32.3814506"><ele>38.1</ele><time>2015-04-24T15:52:05.0000000+00:00</time></trkpt><trkpt lat="34.852957" lon="32.3814037"><ele>38.0</ele><time>2015-04-24T15:52:07.0000000+00:00</time></trkpt><trkpt lat="34.8529948" lon="32.381353"><ele>39.2</ele><time>2015-04-24T15:52:09.0000000+00:00</time></trkpt><trkpt lat="34.8530305" lon="32.3813094"><ele>39.7</ele><time>2015-04-24T15:52:11.0000000+00:00</time></trkpt><trkpt lat="34.8530694" lon="32.3812698"><ele>39.9</ele><time>2015-04-24T15:52:13.0000000+00:00</time></trkpt><trkpt lat="34.8531199" lon="32.3812154"><ele>40.4</ele><time>2015-04-24T15:52:16.0000000+00:00</time></trkpt><trkpt lat="34.8531545" lon="32.3811681"><ele>39.9</ele><time>2015-04-24T15:52:19.0000000+00:00</time></trkpt><trkpt lat="34.8531894" lon="32.3811254"><ele>39.5</ele><time>2015-04-24T15:52:22.0000000+00:00</time></trkpt><trkpt lat="34.8532345" lon="32.3810728"><ele>40.4</ele><time>2015-04-24T15:52:25.0000000+00:00</time></trkpt><trkpt lat="34.8532845" lon="32.3810251"><ele>40.2</ele><time>2015-04-24T15:52:28.0000000+00:00</time></trkpt><trkpt lat="34.8533278" lon="32.3809885"><ele>38.5</ele><time>2015-04-24T15:52:31.0000000+00:00</time></trkpt><trkpt lat="34.8533636" lon="32.3809516"><ele>39.1</ele><time>2015-04-24T15:52:34.0000000+00:00</time></trkpt><trkpt lat="34.8534066" lon="32.3809182"><ele>39.8</ele><time>2015-04-24T15:52:37.0000000+00:00</time></trkpt><trkpt lat="34.8534633" lon="32.3809298"><ele>40.4</ele><time>2015-04-24T15:52:40.0000000+00:00</time></trkpt><trkpt lat="34.853507" lon="32.3809452"><ele>40.8</ele><time>2015-04-24T15:52:42.0000000+00:00</time></trkpt><trkpt lat="34.8535566" lon="32.3809434"><ele>41.6</ele><time>2015-04-24T15:52:44.0000000+00:00</time></trkpt><trkpt lat="34.8536122" lon="32.380949"><ele>43.1</ele><time>2015-04-24T15:52:46.0000000+00:00</time></trkpt><trkpt lat="34.8536623" lon="32.3809837"><ele>44.2</ele><time>2015-04-24T15:52:48.0000000+00:00</time></trkpt><trkpt lat="34.853703" lon="32.3810332"><ele>45.3</ele><time>2015-04-24T15:52:50.0000000+00:00</time></trkpt><trkpt lat="34.8537449" lon="32.3810842"><ele>45.8</ele><time>2015-04-24T15:52:52.0000000+00:00</time></trkpt><trkpt lat="34.8537874" lon="32.3811297"><ele>45.1</ele><time>2015-04-24T15:52:54.0000000+00:00</time></trkpt><trkpt lat="34.8538287" lon="32.3811773"><ele>44.2</ele><time>2015-04-24T15:52:56.0000000+00:00</time></trkpt><trkpt lat="34.8538676" lon="32.3812218"><ele>44.8</ele><time>2015-04-24T15:52:58.0000000+00:00</time></trkpt><trkpt lat="34.8539034" lon="32.381263"><ele>45.6</ele><time>2015-04-24T15:53:00.0000000+00:00</time></trkpt><trkpt lat="34.853939" lon="32.381304"><ele>48.2</ele><time>2015-04-24T15:53:23.0000000+00:00</time></trkpt><trkpt lat="34.853979" lon="32.381337"><ele>49.3</ele><time>2015-04-24T15:53:30.0000000+00:00</time></trkpt><trkpt lat="34.8540164" lon="32.3813741"><ele>50.2</ele><time>2015-04-24T15:53:52.0000000+00:00</time></trkpt><trkpt lat="34.8540596" lon="32.3814107"><ele>50.8</ele><time>2015-04-24T15:53:56.0000000+00:00</time></trkpt><trkpt lat="34.8540969" lon="32.381445"><ele>50.9</ele><time>2015-04-24T15:53:59.0000000+00:00</time></trkpt><trkpt lat="34.8541328" lon="32.3814824"><ele>50.2</ele><time>2015-04-24T15:54:02.0000000+00:00</time></trkpt><trkpt lat="34.8541718" lon="32.381516"><ele>50.7</ele><time>2015-04-24T15:54:05.0000000+00:00</time></trkpt><trkpt lat="34.854212" lon="32.3815452"><ele>50.9</ele><time>2015-04-24T15:54:08.0000000+00:00</time></trkpt><trkpt lat="34.854281" lon="32.3815635"><ele>51.8</ele><time>2015-04-24T15:54:11.0000000+00:00</time></trkpt><trkpt lat="34.8543467" lon="32.3816028"><ele>51.9</ele><time>2015-04-24T15:54:13.0000000+00:00</time></trkpt><trkpt lat="34.8544136" lon="32.3816506"><ele>52.4</ele><time>2015-04-24T15:54:15.0000000+00:00</time></trkpt><trkpt lat="34.854482" lon="32.3817049"><ele>53.3</ele><time>2015-04-24T15:54:17.0000000+00:00</time></trkpt><trkpt lat="34.8545478" lon="32.3817541"><ele>53.8</ele><time>2015-04-24T15:54:19.0000000+00:00</time></trkpt><trkpt lat="34.8546145" lon="32.3818077"><ele>55.1</ele><time>2015-04-24T15:54:21.0000000+00:00</time></trkpt><trkpt lat="34.8546772" lon="32.3818569"><ele>55.0</ele><time>2015-04-24T15:54:23.0000000+00:00</time></trkpt><trkpt lat="34.8547388" lon="32.3819086"><ele>56.2</ele><time>2015-04-24T15:54:25.0000000+00:00</time></trkpt><trkpt lat="34.8548021" lon="32.3819513"><ele>56.7</ele><time>2015-04-24T15:54:27.0000000+00:00</time></trkpt><trkpt lat="34.8548679" lon="32.381994"><ele>57.4</ele><time>2015-04-24T15:54:29.0000000+00:00</time></trkpt><trkpt lat="34.8549292" lon="32.3820341"><ele>57.0</ele><time>2015-04-24T15:54:31.0000000+00:00</time></trkpt><trkpt lat="34.8549947" lon="32.3820649"><ele>57.0</ele><time>2015-04-24T15:54:33.0000000+00:00</time></trkpt><trkpt lat="34.8550602" lon="32.3820869"><ele>56.9</ele><time>2015-04-24T15:54:35.0000000+00:00</time></trkpt><trkpt lat="34.8551263" lon="32.3820962"><ele>57.4</ele><time>2015-04-24T15:54:37.0000000+00:00</time></trkpt><trkpt lat="34.8551874" lon="32.3820887"><ele>57.8</ele><time>2015-04-24T15:54:39.0000000+00:00</time></trkpt><trkpt lat="34.8552455" lon="32.382066"><ele>58.4</ele><time>2015-04-24T15:54:41.0000000+00:00</time></trkpt><trkpt lat="34.8552955" lon="32.3820319"><ele>58.3</ele><time>2015-04-24T15:54:43.0000000+00:00</time></trkpt><trkpt lat="34.8553415" lon="32.381991"><ele>58.3</ele><time>2015-04-24T15:54:45.0000000+00:00</time></trkpt><trkpt lat="34.8553813" lon="32.3819462"><ele>58.8</ele><time>2015-04-24T15:54:47.0000000+00:00</time></trkpt><trkpt lat="34.8554225" lon="32.3819026"><ele>59.6</ele><time>2015-04-24T15:54:49.0000000+00:00</time></trkpt><trkpt lat="34.8554651" lon="32.3818596"><ele>59.1</ele><time>2015-04-24T15:54:51.0000000+00:00</time></trkpt><trkpt lat="34.8555107" lon="32.3818106"><ele>59.0</ele><time>2015-04-24T15:54:53.0000000+00:00</time></trkpt><trkpt lat="34.8555568" lon="32.3817681"><ele>58.2</ele><time>2015-04-24T15:54:55.0000000+00:00</time></trkpt><trkpt lat="34.8556012" lon="32.3817219"><ele>58.7</ele><time>2015-04-24T15:54:57.0000000+00:00</time></trkpt><trkpt lat="34.855646" lon="32.3816761"><ele>58.1</ele><time>2015-04-24T15:54:59.0000000+00:00</time></trkpt><trkpt lat="34.8556943" lon="32.3816301"><ele>58.0</ele><time>2015-04-24T15:55:01.0000000+00:00</time></trkpt><trkpt lat="34.8557439" lon="32.3815853"><ele>58.7</ele><time>2015-04-24T15:55:03.0000000+00:00</time></trkpt><trkpt lat="34.8557991" lon="32.381536"><ele>58.4</ele><time>2015-04-24T15:55:05.0000000+00:00</time></trkpt><trkpt lat="34.8558558" lon="32.3814852"><ele>58.0</ele><time>2015-04-24T15:55:07.0000000+00:00</time></trkpt><trkpt lat="34.8559118" lon="32.3814275"><ele>58.7</ele><time>2015-04-24T15:55:09.0000000+00:00</time></trkpt><trkpt lat="34.8559678" lon="32.3813692"><ele>59.4</ele><time>2015-04-24T15:55:11.0000000+00:00</time></trkpt><trkpt lat="34.8560287" lon="32.3813109"><ele>59.8</ele><time>2015-04-24T15:55:13.0000000+00:00</time></trkpt><trkpt lat="34.8560879" lon="32.381252"><ele>59.6</ele><time>2015-04-24T15:55:15.0000000+00:00</time></trkpt><trkpt lat="34.8561479" lon="32.3811933"><ele>59.1</ele><time>2015-04-24T15:55:17.0000000+00:00</time></trkpt><trkpt lat="34.8562024" lon="32.3811387"><ele>59.7</ele><time>2015-04-24T15:55:19.0000000+00:00</time></trkpt><trkpt lat="34.856261" lon="32.381089"><ele>60.6</ele><time>2015-04-24T15:55:21.0000000+00:00</time></trkpt><trkpt lat="34.8563202" lon="32.3810358"><ele>61.6</ele><time>2015-04-24T15:55:23.0000000+00:00</time></trkpt><trkpt lat="34.8563836" lon="32.3809871"><ele>61.3</ele><time>2015-04-24T15:55:25.0000000+00:00</time></trkpt><trkpt lat="34.8564408" lon="32.3809465"><ele>60.8</ele><time>2015-04-24T15:55:27.0000000+00:00</time></trkpt><trkpt lat="34.8564969" lon="32.3809045"><ele>60.9</ele><time>2015-04-24T15:55:29.0000000+00:00</time></trkpt><trkpt lat="34.856553" lon="32.380865"><ele>60.9</ele><time>2015-04-24T15:55:31.0000000+00:00</time></trkpt><trkpt lat="34.8566064" lon="32.3808264"><ele>60.9</ele><time>2015-04-24T15:55:33.0000000+00:00</time></trkpt><trkpt lat="34.8566513" lon="32.3807868"><ele>61.7</ele><time>2015-04-24T15:55:35.0000000+00:00</time></trkpt><trkpt lat="34.8567035" lon="32.3807418"><ele>61.9</ele><time>2015-04-24T15:55:38.0000000+00:00</time></trkpt><trkpt lat="34.8567587" lon="32.380694"><ele>62.8</ele><time>2015-04-24T15:55:41.0000000+00:00</time></trkpt><trkpt lat="34.8568061" lon="32.3806625"><ele>62.9</ele><time>2015-04-24T15:55:43.0000000+00:00</time></trkpt><trkpt lat="34.8568542" lon="32.3806292"><ele>63.4</ele><time>2015-04-24T15:55:45.0000000+00:00</time></trkpt><trkpt lat="34.8568956" lon="32.3805979"><ele>63.8</ele><time>2015-04-24T15:55:47.0000000+00:00</time></trkpt><trkpt lat="34.8569476" lon="32.3805544"><ele>63.9</ele><time>2015-04-24T15:55:50.0000000+00:00</time></trkpt><trkpt lat="34.856989" lon="32.3805292"><ele>64.7</ele><time>2015-04-24T15:55:52.0000000+00:00</time></trkpt><trkpt lat="34.8570392" lon="32.3805007"><ele>63.6</ele><time>2015-04-24T15:55:54.0000000+00:00</time></trkpt><trkpt lat="34.8570904" lon="32.3804648"><ele>63.4</ele><time>2015-04-24T15:55:56.0000000+00:00</time></trkpt><trkpt lat="34.8571403" lon="32.3804229"><ele>62.3</ele><time>2015-04-24T15:55:58.0000000+00:00</time></trkpt><trkpt lat="34.8571864" lon="32.3803876"><ele>62.0</ele><time>2015-04-24T15:56:00.0000000+00:00</time></trkpt><trkpt lat="34.8572247" lon="32.3803533"><ele>62.0</ele><time>2015-04-24T15:56:02.0000000+00:00</time></trkpt><trkpt lat="34.8572124" lon="32.3802858"><ele>62.8</ele><time>2015-04-24T15:56:06.0000000+00:00</time></trkpt><trkpt lat="34.857159" lon="32.3802497"><ele>61.9</ele><time>2015-04-24T15:56:09.0000000+00:00</time></trkpt><trkpt lat="34.8571296" lon="32.3802971"><ele>60.2</ele><time>2015-04-24T15:58:55.0000000+00:00</time></trkpt><trkpt lat="34.8571751" lon="32.3802978"><ele>64.3</ele><time>2015-04-24T16:00:54.0000000+00:00</time></trkpt><trkpt lat="34.8572271" lon="32.3803202"><ele>64.9</ele><time>2015-04-24T16:01:01.0000000+00:00</time></trkpt><trkpt lat="34.8572781" lon="32.3803421"><ele>64.4</ele><time>2015-04-24T16:01:04.0000000+00:00</time></trkpt><trkpt lat="34.8573281" lon="32.3803165"><ele>63.6</ele><time>2015-04-24T16:01:07.0000000+00:00</time></trkpt><trkpt lat="34.8573791" lon="32.3802863"><ele>63.8</ele><time>2015-04-24T16:01:10.0000000+00:00</time></trkpt><trkpt lat="34.857437" lon="32.380249"><ele>63.0</ele><time>2015-04-24T16:01:13.0000000+00:00</time></trkpt><trkpt lat="34.8574781" lon="32.3802239"><ele>63.5</ele><time>2015-04-24T16:01:15.0000000+00:00</time></trkpt><trkpt lat="34.8575236" lon="32.3801992"><ele>63.8</ele><time>2015-04-24T16:01:17.0000000+00:00</time></trkpt><trkpt lat="34.8575697" lon="32.3801744"><ele>63.9</ele><time>2015-04-24T16:01:19.0000000+00:00</time></trkpt><trkpt lat="34.8576262" lon="32.3801449"><ele>64.7</ele><time>2015-04-24T16:01:21.0000000+00:00</time></trkpt><trkpt lat="34.857681" lon="32.3801192"><ele>65.4</ele><time>2015-04-24T16:01:23.0000000+00:00</time></trkpt><trkpt lat="34.8577354" lon="32.3800948"><ele>65.5</ele><time>2015-04-24T16:01:25.0000000+00:00</time></trkpt><trkpt lat="34.8577896" lon="32.380068"><ele>65.8</ele><time>2015-04-24T16:01:27.0000000+00:00</time></trkpt><trkpt lat="34.8578541" lon="32.3800409"><ele>65.9</ele><time>2015-04-24T16:01:29.0000000+00:00</time></trkpt><trkpt lat="34.8579222" lon="32.3800148"><ele>65.9</ele><time>2015-04-24T16:01:31.0000000+00:00</time></trkpt><trkpt lat="34.8579937" lon="32.3799912"><ele>65.9</ele><time>2015-04-24T16:01:33.0000000+00:00</time></trkpt><trkpt lat="34.8580631" lon="32.3799676"><ele>65.9</ele><time>2015-04-24T16:01:35.0000000+00:00</time></trkpt><trkpt lat="34.8581347" lon="32.3799422"><ele>66.7</ele><time>2015-04-24T16:01:37.0000000+00:00</time></trkpt><trkpt lat="34.8582041" lon="32.3799195"><ele>66.9</ele><time>2015-04-24T16:01:39.0000000+00:00</time></trkpt><trkpt lat="34.8582741" lon="32.3798954"><ele>66.2</ele><time>2015-04-24T16:01:41.0000000+00:00</time></trkpt><trkpt lat="34.8583406" lon="32.3798711"><ele>66.5</ele><time>2015-04-24T16:01:43.0000000+00:00</time></trkpt><trkpt lat="34.8584098" lon="32.3798509"><ele>66.8</ele><time>2015-04-24T16:01:45.0000000+00:00</time></trkpt><trkpt lat="34.8584568" lon="32.3798363"><ele>66.9</ele><time>2015-04-24T16:01:47.0000000+00:00</time></trkpt><trkpt lat="34.8584991" lon="32.3798153"><ele>66.7</ele><time>2015-04-24T16:01:55.0000000+00:00</time></trkpt><trkpt lat="34.8585592" lon="32.379823"><ele>64.5</ele><time>2015-04-24T16:02:13.0000000+00:00</time></trkpt><trkpt lat="34.8586068" lon="32.3798148"><ele>64.1</ele><time>2015-04-24T16:02:15.0000000+00:00</time></trkpt><trkpt lat="34.8586577" lon="32.3798091"><ele>64.0</ele><time>2015-04-24T16:02:17.0000000+00:00</time></trkpt><trkpt lat="34.858704" lon="32.379803"><ele>63.9</ele><time>2015-04-24T16:02:19.0000000+00:00</time></trkpt><trkpt lat="34.8587511" lon="32.3797936"><ele>63.9</ele><time>2015-04-24T16:02:21.0000000+00:00</time></trkpt><trkpt lat="34.8587969" lon="32.3797838"><ele>64.7</ele><time>2015-04-24T16:02:23.0000000+00:00</time></trkpt><trkpt lat="34.8588538" lon="32.3797564"><ele>64.9</ele><time>2015-04-24T16:02:26.0000000+00:00</time></trkpt><trkpt lat="34.8589049" lon="32.3797276"><ele>64.9</ele><time>2015-04-24T16:02:29.0000000+00:00</time></trkpt><trkpt lat="34.858971" lon="32.3797288"><ele>65.4</ele><time>2015-04-24T16:02:32.0000000+00:00</time></trkpt><trkpt lat="34.8590189" lon="32.3797304"><ele>65.8</ele><time>2015-04-24T16:02:34.0000000+00:00</time></trkpt><trkpt lat="34.859084" lon="32.3797272"><ele>65.9</ele><time>2015-04-24T16:02:36.0000000+00:00</time></trkpt><trkpt lat="34.8591488" lon="32.3797199"><ele>65.9</ele><time>2015-04-24T16:02:38.0000000+00:00</time></trkpt><trkpt lat="34.8592138" lon="32.3797123"><ele>65.7</ele><time>2015-04-24T16:02:40.0000000+00:00</time></trkpt><trkpt lat="34.8592801" lon="32.3797066"><ele>65.6</ele><time>2015-04-24T16:02:42.0000000+00:00</time></trkpt><trkpt lat="34.8593472" lon="32.379701"><ele>65.1</ele><time>2015-04-24T16:02:44.0000000+00:00</time></trkpt><trkpt lat="34.8594114" lon="32.379694"><ele>65.7</ele><time>2015-04-24T16:02:46.0000000+00:00</time></trkpt><trkpt lat="34.8594736" lon="32.3796868"><ele>66.4</ele><time>2015-04-24T16:02:48.0000000+00:00</time></trkpt><trkpt lat="34.8595358" lon="32.3796872"><ele>66.8</ele><time>2015-04-24T16:02:50.0000000+00:00</time></trkpt><trkpt lat="34.8596008" lon="32.3796845"><ele>67.4</ele><time>2015-04-24T16:02:52.0000000+00:00</time></trkpt><trkpt lat="34.8596678" lon="32.3796809"><ele>68.3</ele><time>2015-04-24T16:02:54.0000000+00:00</time></trkpt><trkpt lat="34.8597295" lon="32.3796799"><ele>68.3</ele><time>2015-04-24T16:02:56.0000000+00:00</time></trkpt><trkpt lat="34.8597912" lon="32.379676"><ele>68.0</ele><time>2015-04-24T16:02:58.0000000+00:00</time></trkpt><trkpt lat="34.8598554" lon="32.3796719"><ele>68.0</ele><time>2015-04-24T16:03:00.0000000+00:00</time></trkpt><trkpt lat="34.8599233" lon="32.3796701"><ele>68.7</ele><time>2015-04-24T16:03:02.0000000+00:00</time></trkpt><trkpt lat="34.8599908" lon="32.3796671"><ele>68.4</ele><time>2015-04-24T16:03:04.0000000+00:00</time></trkpt><trkpt lat="34.8600582" lon="32.3796646"><ele>68.5</ele><time>2015-04-24T16:03:06.0000000+00:00</time></trkpt><trkpt lat="34.8601233" lon="32.3796591"><ele>68.3</ele><time>2015-04-24T16:03:08.0000000+00:00</time></trkpt><trkpt lat="34.8601811" lon="32.3796559"><ele>68.0</ele><time>2015-04-24T16:03:10.0000000+00:00</time></trkpt><trkpt lat="34.860242" lon="32.3796537"><ele>68.7</ele><time>2015-04-24T16:03:12.0000000+00:00</time></trkpt><trkpt lat="34.8603128" lon="32.3796507"><ele>68.9</ele><time>2015-04-24T16:03:14.0000000+00:00</time></trkpt><trkpt lat="34.8603863" lon="32.3796486"><ele>68.9</ele><time>2015-04-24T16:03:16.0000000+00:00</time></trkpt><trkpt lat="34.8604578" lon="32.3796477"><ele>68.9</ele><time>2015-04-24T16:03:18.0000000+00:00</time></trkpt><trkpt lat="34.8605254" lon="32.3796482"><ele>69.4</ele><time>2015-04-24T16:03:20.0000000+00:00</time></trkpt><trkpt lat="34.860588" lon="32.3796509"><ele>70.3</ele><time>2015-04-24T16:03:22.0000000+00:00</time></trkpt><trkpt lat="34.8606573" lon="32.3796563"><ele>70.8</ele><time>2015-04-24T16:03:24.0000000+00:00</time></trkpt><trkpt lat="34.8607261" lon="32.3796641"><ele>70.4</ele><time>2015-04-24T16:03:26.0000000+00:00</time></trkpt><trkpt lat="34.8607951" lon="32.3796679"><ele>71.3</ele><time>2015-04-24T16:03:28.0000000+00:00</time></trkpt><trkpt lat="34.8608615" lon="32.3796725"><ele>72.3</ele><time>2015-04-24T16:03:30.0000000+00:00</time></trkpt><trkpt lat="34.860927" lon="32.3796793"><ele>72.8</ele><time>2015-04-24T16:03:32.0000000+00:00</time></trkpt><trkpt lat="34.8609944" lon="32.3796871"><ele>72.9</ele><time>2015-04-24T16:03:34.0000000+00:00</time></trkpt><trkpt lat="34.8610627" lon="32.3796964"><ele>73.4</ele><time>2015-04-24T16:03:36.0000000+00:00</time></trkpt><trkpt lat="34.8611314" lon="32.3797052"><ele>73.3</ele><time>2015-04-24T16:03:38.0000000+00:00</time></trkpt><trkpt lat="34.8612044" lon="32.3797102"><ele>73.0</ele><time>2015-04-24T16:03:40.0000000+00:00</time></trkpt><trkpt lat="34.8612775" lon="32.3797229"><ele>73.0</ele><time>2015-04-24T16:03:42.0000000+00:00</time></trkpt><trkpt lat="34.8613504" lon="32.3797348"><ele>72.2</ele><time>2015-04-24T16:03:44.0000000+00:00</time></trkpt><trkpt lat="34.8614229" lon="32.3797483"><ele>72.5</ele><time>2015-04-24T16:03:46.0000000+00:00</time></trkpt><trkpt lat="34.8614939" lon="32.3797641"><ele>72.1</ele><time>2015-04-24T16:03:48.0000000+00:00</time></trkpt><trkpt lat="34.8615597" lon="32.3797783"><ele>72.0</ele><time>2015-04-24T16:03:50.0000000+00:00</time></trkpt><trkpt lat="34.8616218" lon="32.3797919"><ele>71.9</ele><time>2015-04-24T16:03:53.0000000+00:00</time></trkpt><trkpt lat="34.8616694" lon="32.3797937"><ele>71.9</ele><time>2015-04-24T16:03:55.0000000+00:00</time></trkpt><trkpt lat="34.8617225" lon="32.3798012"><ele>71.9</ele><time>2015-04-24T16:03:57.0000000+00:00</time></trkpt><trkpt lat="34.8617838" lon="32.3798128"><ele>72.4</ele><time>2015-04-24T16:03:59.0000000+00:00</time></trkpt><trkpt lat="34.8618557" lon="32.3798205"><ele>73.3</ele><time>2015-04-24T16:04:01.0000000+00:00</time></trkpt><trkpt lat="34.861928" lon="32.3798258"><ele>73.5</ele><time>2015-04-24T16:04:03.0000000+00:00</time></trkpt><trkpt lat="34.8620022" lon="32.3798364"><ele>73.8</ele><time>2015-04-24T16:04:05.0000000+00:00</time></trkpt><trkpt lat="34.8620753" lon="32.3798467"><ele>73.9</ele><time>2015-04-24T16:04:07.0000000+00:00</time></trkpt><trkpt lat="34.8621496" lon="32.379858"><ele>73.9</ele><time>2015-04-24T16:04:09.0000000+00:00</time></trkpt><trkpt lat="34.8622215" lon="32.3798668"><ele>73.9</ele><time>2015-04-24T16:04:11.0000000+00:00</time></trkpt><trkpt lat="34.8622947" lon="32.3798741"><ele>73.9</ele><time>2015-04-24T16:04:13.0000000+00:00</time></trkpt><trkpt lat="34.8623652" lon="32.3798791"><ele>73.9</ele><time>2015-04-24T16:04:15.0000000+00:00</time></trkpt><trkpt lat="34.86244" lon="32.3798787"><ele>74.4</ele><time>2015-04-24T16:04:17.0000000+00:00</time></trkpt><trkpt lat="34.862514" lon="32.3798741"><ele>74.8</ele><time>2015-04-24T16:04:19.0000000+00:00</time></trkpt><trkpt lat="34.8625901" lon="32.3798651"><ele>74.1</ele><time>2015-04-24T16:04:21.0000000+00:00</time></trkpt><trkpt lat="34.862664" lon="32.3798433"><ele>74.0</ele><time>2015-04-24T16:04:23.0000000+00:00</time></trkpt><trkpt lat="34.8627496" lon="32.3798199"><ele>73.9</ele><time>2015-04-24T16:04:25.0000000+00:00</time></trkpt><trkpt lat="34.862831" lon="32.3798047"><ele>75.2</ele><time>2015-04-24T16:04:27.0000000+00:00</time></trkpt><trkpt lat="34.8629134" lon="32.3797912"><ele>75.0</ele><time>2015-04-24T16:04:29.0000000+00:00</time></trkpt><trkpt lat="34.8629909" lon="32.3797804"><ele>74.9</ele><time>2015-04-24T16:04:31.0000000+00:00</time></trkpt><trkpt lat="34.8630677" lon="32.3797689"><ele>74.9</ele><time>2015-04-24T16:04:33.0000000+00:00</time></trkpt><trkpt lat="34.8631297" lon="32.3797515"><ele>75.4</ele><time>2015-04-24T16:04:35.0000000+00:00</time></trkpt><trkpt lat="34.8631898" lon="32.3797405"><ele>75.8</ele><time>2015-04-24T16:04:37.0000000+00:00</time></trkpt><trkpt lat="34.8632466" lon="32.3797307"><ele>75.9</ele><time>2015-04-24T16:04:39.0000000+00:00</time></trkpt><trkpt lat="34.8633071" lon="32.379718"><ele>75.9</ele><time>2015-04-24T16:04:41.0000000+00:00</time></trkpt><trkpt lat="34.8633662" lon="32.3797023"><ele>75.9</ele><time>2015-04-24T16:04:43.0000000+00:00</time></trkpt><trkpt lat="34.8634292" lon="32.379685"><ele>75.9</ele><time>2015-04-24T16:04:45.0000000+00:00</time></trkpt><trkpt lat="34.8634893" lon="32.3796663"><ele>75.9</ele><time>2015-04-24T16:04:47.0000000+00:00</time></trkpt><trkpt lat="34.8635509" lon="32.3796409"><ele>76.7</ele><time>2015-04-24T16:04:49.0000000+00:00</time></trkpt><trkpt lat="34.8636095" lon="32.3796106"><ele>76.9</ele><time>2015-04-24T16:04:51.0000000+00:00</time></trkpt><trkpt lat="34.8636695" lon="32.379575"><ele>76.9</ele><time>2015-04-24T16:04:53.0000000+00:00</time></trkpt><trkpt lat="34.8637247" lon="32.3795339"><ele>77.7</ele><time>2015-04-24T16:04:55.0000000+00:00</time></trkpt><trkpt lat="34.8637816" lon="32.3794971"><ele>77.9</ele><time>2015-04-24T16:04:57.0000000+00:00</time></trkpt><trkpt lat="34.8638371" lon="32.3794623"><ele>77.9</ele><time>2015-04-24T16:04:59.0000000+00:00</time></trkpt><trkpt lat="34.8638957" lon="32.3794264"><ele>77.9</ele><time>2015-04-24T16:05:01.0000000+00:00</time></trkpt><trkpt lat="34.863953" lon="32.3793858"><ele>77.9</ele><time>2015-04-24T16:05:03.0000000+00:00</time></trkpt><trkpt lat="34.8640161" lon="32.3793364"><ele>77.9</ele><time>2015-04-24T16:05:05.0000000+00:00</time></trkpt><trkpt lat="34.8640756" lon="32.379291"><ele>78.7</ele><time>2015-04-24T16:05:07.0000000+00:00</time></trkpt><trkpt lat="34.8641339" lon="32.3792464"><ele>79.4</ele><time>2015-04-24T16:05:09.0000000+00:00</time></trkpt><trkpt lat="34.8641885" lon="32.3792078"><ele>79.8</ele><time>2015-04-24T16:05:11.0000000+00:00</time></trkpt><trkpt lat="34.8642439" lon="32.3791668"><ele>79.9</ele><time>2015-04-24T16:05:13.0000000+00:00</time></trkpt><trkpt lat="34.8642985" lon="32.3791238"><ele>79.9</ele><time>2015-04-24T16:05:15.0000000+00:00</time></trkpt><trkpt lat="34.8643561" lon="32.3790791"><ele>80.4</ele><time>2015-04-24T16:05:17.0000000+00:00</time></trkpt><trkpt lat="34.8644124" lon="32.3790368"><ele>80.8</ele><time>2015-04-24T16:05:19.0000000+00:00</time></trkpt><trkpt lat="34.8644706" lon="32.3789917"><ele>81.6</ele><time>2015-04-24T16:05:21.0000000+00:00</time></trkpt><trkpt lat="34.8645265" lon="32.3789528"><ele>81.9</ele><time>2015-04-24T16:05:23.0000000+00:00</time></trkpt><trkpt lat="34.8645828" lon="32.3789133"><ele>81.9</ele><time>2015-04-24T16:05:25.0000000+00:00</time></trkpt><trkpt lat="34.8646358" lon="32.3788739"><ele>81.9</ele><time>2015-04-24T16:05:27.0000000+00:00</time></trkpt><trkpt lat="34.8646923" lon="32.378834"><ele>82.4</ele><time>2015-04-24T16:05:29.0000000+00:00</time></trkpt><trkpt lat="34.864746" lon="32.378795"><ele>82.8</ele><time>2015-04-24T16:05:31.0000000+00:00</time></trkpt><trkpt lat="34.8647994" lon="32.3787521"><ele>83.4</ele><time>2015-04-24T16:05:33.0000000+00:00</time></trkpt><trkpt lat="34.8648516" lon="32.3787088"><ele>84.5</ele><time>2015-04-24T16:05:35.0000000+00:00</time></trkpt><trkpt lat="34.8649066" lon="32.3786662"><ele>85.3</ele><time>2015-04-24T16:05:37.0000000+00:00</time></trkpt><trkpt lat="34.8649619" lon="32.3786264"><ele>86.3</ele><time>2015-04-24T16:05:39.0000000+00:00</time></trkpt><trkpt lat="34.8650171" lon="32.3785868"><ele>86.0</ele><time>2015-04-24T16:05:41.0000000+00:00</time></trkpt><trkpt lat="34.8650686" lon="32.37855"><ele>86.5</ele><time>2015-04-24T16:05:43.0000000+00:00</time></trkpt><trkpt lat="34.865118" lon="32.37851"><ele>86.8</ele><time>2015-04-24T16:05:45.0000000+00:00</time></trkpt><trkpt lat="34.8651655" lon="32.3784746"><ele>86.9</ele><time>2015-04-24T16:05:47.0000000+00:00</time></trkpt><trkpt lat="34.8652117" lon="32.3784387"><ele>87.7</ele><time>2015-04-24T16:05:49.0000000+00:00</time></trkpt><trkpt lat="34.865256" lon="32.3784046"><ele>88.4</ele><time>2015-04-24T16:05:51.0000000+00:00</time></trkpt><trkpt lat="34.8653005" lon="32.3783698"><ele>88.8</ele><time>2015-04-24T16:05:53.0000000+00:00</time></trkpt><trkpt lat="34.8653397" lon="32.3783391"><ele>89.4</ele><time>2015-04-24T16:05:55.0000000+00:00</time></trkpt><trkpt lat="34.8653856" lon="32.3783092"><ele>89.0</ele><time>2015-04-24T16:05:57.0000000+00:00</time></trkpt><trkpt lat="34.8654315" lon="32.3782789"><ele>89.5</ele><time>2015-04-24T16:05:59.0000000+00:00</time></trkpt><trkpt lat="34.8654807" lon="32.3782505"><ele>89.8</ele><time>2015-04-24T16:06:01.0000000+00:00</time></trkpt><trkpt lat="34.8655301" lon="32.3782248"><ele>89.4</ele><time>2015-04-24T16:06:03.0000000+00:00</time></trkpt><trkpt lat="34.8655816" lon="32.3781988"><ele>89.8</ele><time>2015-04-24T16:06:05.0000000+00:00</time></trkpt><trkpt lat="34.8656313" lon="32.378177"><ele>89.9</ele><time>2015-04-24T16:06:07.0000000+00:00</time></trkpt><trkpt lat="34.8656796" lon="32.3781543"><ele>89.9</ele><time>2015-04-24T16:06:09.0000000+00:00</time></trkpt><trkpt lat="34.8657266" lon="32.3781308"><ele>89.4</ele><time>2015-04-24T16:06:11.0000000+00:00</time></trkpt><trkpt lat="34.865777" lon="32.3781068"><ele>89.8</ele><time>2015-04-24T16:06:13.0000000+00:00</time></trkpt><trkpt lat="34.8658263" lon="32.3780856"><ele>89.9</ele><time>2015-04-24T16:06:15.0000000+00:00</time></trkpt><trkpt lat="34.8658755" lon="32.3780658"><ele>90.2</ele><time>2015-04-24T16:06:17.0000000+00:00</time></trkpt><trkpt lat="34.8659235" lon="32.3780466"><ele>90.0</ele><time>2015-04-24T16:06:19.0000000+00:00</time></trkpt><trkpt lat="34.8659738" lon="32.3780252"><ele>89.9</ele><time>2015-04-24T16:06:21.0000000+00:00</time></trkpt><trkpt lat="34.8660228" lon="32.3780027"><ele>90.4</ele><time>2015-04-24T16:06:23.0000000+00:00</time></trkpt><trkpt lat="34.8660744" lon="32.3779815"><ele>90.8</ele><time>2015-04-24T16:06:25.0000000+00:00</time></trkpt><trkpt lat="34.8661256" lon="32.3779628"><ele>90.9</ele><time>2015-04-24T16:06:27.0000000+00:00</time></trkpt><trkpt lat="34.8661762" lon="32.3779452"><ele>90.9</ele><time>2015-04-24T16:06:29.0000000+00:00</time></trkpt><trkpt lat="34.8662245" lon="32.3779289"><ele>90.9</ele><time>2015-04-24T16:06:31.0000000+00:00</time></trkpt><trkpt lat="34.866273" lon="32.377914"><ele>91.7</ele><time>2015-04-24T16:06:33.0000000+00:00</time></trkpt><trkpt lat="34.8663191" lon="32.3778953"><ele>91.9</ele><time>2015-04-24T16:06:35.0000000+00:00</time></trkpt><trkpt lat="34.8663646" lon="32.3778769"><ele>92.2</ele><time>2015-04-24T16:06:37.0000000+00:00</time></trkpt><trkpt lat="34.8664084" lon="32.377859"><ele>92.0</ele><time>2015-04-24T16:06:39.0000000+00:00</time></trkpt><trkpt lat="34.8664566" lon="32.3778419"><ele>91.4</ele><time>2015-04-24T16:06:41.0000000+00:00</time></trkpt><trkpt lat="34.8665052" lon="32.377828"><ele>91.1</ele><time>2015-04-24T16:06:43.0000000+00:00</time></trkpt><trkpt lat="34.8665558" lon="32.3778156"><ele>91.7</ele><time>2015-04-24T16:06:45.0000000+00:00</time></trkpt><trkpt lat="34.8666039" lon="32.3778019"><ele>91.9</ele><time>2015-04-24T16:06:47.0000000+00:00</time></trkpt><trkpt lat="34.8666506" lon="32.3777858"><ele>91.9</ele><time>2015-04-24T16:06:49.0000000+00:00</time></trkpt><trkpt lat="34.8667051" lon="32.3777635"><ele>91.9</ele><time>2015-04-24T16:06:52.0000000+00:00</time></trkpt><trkpt lat="34.866753" lon="32.377746"><ele>91.9</ele><time>2015-04-24T16:06:55.0000000+00:00</time></trkpt><trkpt lat="34.8668039" lon="32.3777341"><ele>92.4</ele><time>2015-04-24T16:06:58.0000000+00:00</time></trkpt><trkpt lat="34.8668502" lon="32.3777246"><ele>92.8</ele><time>2015-04-24T16:07:00.0000000+00:00</time></trkpt><trkpt lat="34.8669056" lon="32.3777216"><ele>92.1</ele><time>2015-04-24T16:07:02.0000000+00:00</time></trkpt><trkpt lat="34.86697" lon="32.3777297"><ele>91.2</ele><time>2015-04-24T16:07:04.0000000+00:00</time></trkpt><trkpt lat="34.8670559" lon="32.3777448"><ele>91.0</ele><time>2015-04-24T16:07:06.0000000+00:00</time></trkpt><trkpt lat="34.8671472" lon="32.3777612"><ele>90.4</ele><time>2015-04-24T16:07:08.0000000+00:00</time></trkpt><trkpt lat="34.8672131" lon="32.3777723"><ele>90.2</ele><time>2015-04-24T16:07:09.0000000+00:00</time></trkpt><trkpt lat="34.8672688" lon="32.377784"><ele>90.1</ele><time>2015-04-24T16:07:10.0000000+00:00</time></trkpt><trkpt lat="34.8673235" lon="32.3777912"><ele>89.5</ele><time>2015-04-24T16:07:11.0000000+00:00</time></trkpt><trkpt lat="34.8673857" lon="32.3778016"><ele>89.2</ele><time>2015-04-24T16:07:12.0000000+00:00</time></trkpt><trkpt lat="34.8674423" lon="32.3778117"><ele>89.1</ele><time>2015-04-24T16:07:13.0000000+00:00</time></trkpt><trkpt lat="34.8674996" lon="32.3778223"><ele>89.0</ele><time>2015-04-24T16:07:14.0000000+00:00</time></trkpt><trkpt lat="34.8675589" lon="32.3778305"><ele>89.0</ele><time>2015-04-24T16:07:15.0000000+00:00</time></trkpt><trkpt lat="34.867622" lon="32.3778466"><ele>88.9</ele><time>2015-04-24T16:07:16.0000000+00:00</time></trkpt><trkpt lat="34.8676762" lon="32.3778528"><ele>88.9</ele><time>2015-04-24T16:07:17.0000000+00:00</time></trkpt><trkpt lat="34.867729" lon="32.3778626"><ele>89.4</ele><time>2015-04-24T16:07:18.0000000+00:00</time></trkpt><trkpt lat="34.8677779" lon="32.3778693"><ele>89.7</ele><time>2015-04-24T16:07:19.0000000+00:00</time></trkpt><trkpt lat="34.8678283" lon="32.3778774"><ele>90.3</ele><time>2015-04-24T16:07:20.0000000+00:00</time></trkpt><trkpt lat="34.8678747" lon="32.3778843"><ele>90.6</ele><time>2015-04-24T16:07:21.0000000+00:00</time></trkpt><trkpt lat="34.8679565" lon="32.3778951"><ele>91.4</ele><time>2015-04-24T16:07:23.0000000+00:00</time></trkpt><trkpt lat="34.8680313" lon="32.3779043"><ele>93.0</ele><time>2015-04-24T16:07:25.0000000+00:00</time></trkpt><trkpt lat="34.8680846" lon="32.3779151"><ele>94.2</ele><time>2015-04-24T16:07:27.0000000+00:00</time></trkpt><trkpt lat="34.8681468" lon="32.3779227"><ele>95.7</ele><time>2015-04-24T16:07:30.0000000+00:00</time></trkpt><trkpt lat="34.8682091" lon="32.3779385"><ele>95.2</ele><time>2015-04-24T16:07:33.0000000+00:00</time></trkpt><trkpt lat="34.8682724" lon="32.3779529"><ele>95.5</ele><time>2015-04-24T16:07:36.0000000+00:00</time></trkpt><trkpt lat="34.8683244" lon="32.3779668"><ele>95.7</ele><time>2015-04-24T16:07:39.0000000+00:00</time></trkpt><trkpt lat="34.8683738" lon="32.3779765"><ele>96.7</ele><time>2015-04-24T16:07:42.0000000+00:00</time></trkpt><trkpt lat="34.8684246" lon="32.3779875"><ele>98.3</ele><time>2015-04-24T16:07:45.0000000+00:00</time></trkpt><trkpt lat="34.8684777" lon="32.3779961"><ele>99.6</ele><time>2015-04-24T16:07:48.0000000+00:00</time></trkpt><trkpt lat="34.8685302" lon="32.3780028"><ele>99.9</ele><time>2015-04-24T16:07:51.0000000+00:00</time></trkpt><trkpt lat="34.8685822" lon="32.3780072"><ele>100.9</ele><time>2015-04-24T16:07:55.0000000+00:00</time></trkpt><trkpt lat="34.8686337" lon="32.378011"><ele>99.0</ele><time>2015-04-24T16:08:00.0000000+00:00</time></trkpt><trkpt lat="34.8686802" lon="32.3780186"><ele>96.9</ele><time>2015-04-24T16:08:29.0000000+00:00</time></trkpt><trkpt lat="34.8687248" lon="32.37803"><ele>98.7</ele><time>2015-04-24T16:08:38.0000000+00:00</time></trkpt><trkpt lat="34.868783" lon="32.378031"><ele>99.7</ele><time>2015-04-24T16:08:41.0000000+00:00</time></trkpt><trkpt lat="34.8688452" lon="32.3780292"><ele>100.6</ele><time>2015-04-24T16:08:44.0000000+00:00</time></trkpt><trkpt lat="34.8689076" lon="32.3780292"><ele>100.9</ele><time>2015-04-24T16:08:47.0000000+00:00</time></trkpt><trkpt lat="34.8689732" lon="32.3780302"><ele>100.2</ele><time>2015-04-24T16:08:50.0000000+00:00</time></trkpt><trkpt lat="34.8690363" lon="32.3780275"><ele>101.3</ele><time>2015-04-24T16:08:53.0000000+00:00</time></trkpt><trkpt lat="34.8690977" lon="32.3780264"><ele>101.7</ele><time>2015-04-24T16:08:56.0000000+00:00</time></trkpt><trkpt lat="34.8691552" lon="32.3780294"><ele>103.5</ele><time>2015-04-24T16:08:59.0000000+00:00</time></trkpt><trkpt lat="34.8692136" lon="32.3780351"><ele>103.9</ele><time>2015-04-24T16:09:02.0000000+00:00</time></trkpt><trkpt lat="34.8692711" lon="32.378049"><ele>103.9</ele><time>2015-04-24T16:09:05.0000000+00:00</time></trkpt><trkpt lat="34.8693266" lon="32.378055"><ele>103.9</ele><time>2015-04-24T16:09:08.0000000+00:00</time></trkpt><trkpt lat="34.8693812" lon="32.3780504"><ele>104.7</ele><time>2015-04-24T16:09:11.0000000+00:00</time></trkpt><trkpt lat="34.8694376" lon="32.3780506"><ele>104.9</ele><time>2015-04-24T16:09:14.0000000+00:00</time></trkpt><trkpt lat="34.8694912" lon="32.37806"><ele>105.7</ele><time>2015-04-24T16:09:17.0000000+00:00</time></trkpt><trkpt lat="34.8695338" lon="32.3780805"><ele>105.9</ele><time>2015-04-24T16:09:20.0000000+00:00</time></trkpt><trkpt lat="34.8695757" lon="32.3781012"><ele>105.9</ele><time>2015-04-24T16:09:23.0000000+00:00</time></trkpt><trkpt lat="34.8696261" lon="32.3781246"><ele>106.8</ele><time>2015-04-24T16:09:26.0000000+00:00</time></trkpt><trkpt lat="34.869668" lon="32.3781454"><ele>106.6</ele><time>2015-04-24T16:09:47.0000000+00:00</time></trkpt><trkpt lat="34.869725" lon="32.3781716"><ele>106.9</ele><time>2015-04-24T16:09:51.0000000+00:00</time></trkpt><trkpt lat="34.8697878" lon="32.3782034"><ele>107.7</ele><time>2015-04-24T16:09:54.0000000+00:00</time></trkpt><trkpt lat="34.8698297" lon="32.3782246"><ele>107.9</ele><time>2015-04-24T16:09:56.0000000+00:00</time></trkpt><trkpt lat="34.8698696" lon="32.3782499"><ele>108.4</ele><time>2015-04-24T16:09:58.0000000+00:00</time></trkpt><trkpt lat="34.869925" lon="32.3782846"><ele>108.9</ele><time>2015-04-24T16:10:01.0000000+00:00</time></trkpt><trkpt lat="34.8699812" lon="32.3783173"><ele>109.4</ele><time>2015-04-24T16:10:04.0000000+00:00</time></trkpt><trkpt lat="34.8700384" lon="32.3783462"><ele>111.2</ele><time>2015-04-24T16:10:07.0000000+00:00</time></trkpt><trkpt lat="34.8700952" lon="32.3783677"><ele>111.8</ele><time>2015-04-24T16:10:10.0000000+00:00</time></trkpt><trkpt lat="34.8701521" lon="32.3783829"><ele>112.7</ele><time>2015-04-24T16:10:13.0000000+00:00</time></trkpt><trkpt lat="34.8702128" lon="32.3784024"><ele>113.4</ele><time>2015-04-24T16:10:16.0000000+00:00</time></trkpt><trkpt lat="34.870279" lon="32.3784134"><ele>113.9</ele><time>2015-04-24T16:10:19.0000000+00:00</time></trkpt><trkpt lat="34.8703246" lon="32.3784178"><ele>114.7</ele><time>2015-04-24T16:10:21.0000000+00:00</time></trkpt><trkpt lat="34.87039" lon="32.3784264"><ele>113.8</ele><time>2015-04-24T16:10:24.0000000+00:00</time></trkpt><trkpt lat="34.8704446" lon="32.3784306"><ele>114.8</ele><time>2015-04-24T16:10:27.0000000+00:00</time></trkpt><trkpt lat="34.8704935" lon="32.3784155"><ele>116.3</ele><time>2015-04-24T16:10:30.0000000+00:00</time></trkpt><trkpt lat="34.8705489" lon="32.3783849"><ele>116.8</ele><time>2015-04-24T16:10:33.0000000+00:00</time></trkpt><trkpt lat="34.8706075" lon="32.3783583"><ele>117.0</ele><time>2015-04-24T16:10:36.0000000+00:00</time></trkpt><trkpt lat="34.8706622" lon="32.3783417"><ele>117.8</ele><time>2015-04-24T16:10:39.0000000+00:00</time></trkpt><trkpt lat="34.8707188" lon="32.3783282"><ele>117.8</ele><time>2015-04-24T16:10:42.0000000+00:00</time></trkpt><trkpt lat="34.8707809" lon="32.378314"><ele>117.9</ele><time>2015-04-24T16:10:45.0000000+00:00</time></trkpt><trkpt lat="34.870831" lon="32.3782978"><ele>118.4</ele><time>2015-04-24T16:10:47.0000000+00:00</time></trkpt><trkpt lat="34.8708761" lon="32.3782781"><ele>118.8</ele><time>2015-04-24T16:10:49.0000000+00:00</time></trkpt><trkpt lat="34.8709181" lon="32.3782579"><ele>118.9</ele><time>2015-04-24T16:10:51.0000000+00:00</time></trkpt><trkpt lat="34.8709675" lon="32.3782398"><ele>118.9</ele><time>2015-04-24T16:10:53.0000000+00:00</time></trkpt><trkpt lat="34.8710144" lon="32.37822"><ele>118.9</ele><time>2015-04-24T16:10:55.0000000+00:00</time></trkpt><trkpt lat="34.8710646" lon="32.3782029"><ele>118.9</ele><time>2015-04-24T16:10:57.0000000+00:00</time></trkpt><trkpt lat="34.8711147" lon="32.3781852"><ele>118.9</ele><time>2015-04-24T16:10:59.0000000+00:00</time></trkpt><trkpt lat="34.8711665" lon="32.3781672"><ele>119.7</ele><time>2015-04-24T16:11:01.0000000+00:00</time></trkpt><trkpt lat="34.8712172" lon="32.3781496"><ele>119.9</ele><time>2015-04-24T16:11:03.0000000+00:00</time></trkpt><trkpt lat="34.8712696" lon="32.3781334"><ele>120.4</ele><time>2015-04-24T16:11:05.0000000+00:00</time></trkpt><trkpt lat="34.8713182" lon="32.3781095"><ele>122.1</ele><time>2015-04-24T16:11:07.0000000+00:00</time></trkpt><trkpt lat="34.8713688" lon="32.3780861"><ele>122.7</ele><time>2015-04-24T16:11:09.0000000+00:00</time></trkpt><trkpt lat="34.8714186" lon="32.378068"><ele>123.6</ele><time>2015-04-24T16:11:11.0000000+00:00</time></trkpt><trkpt lat="34.8714726" lon="32.3780509"><ele>123.9</ele><time>2015-04-24T16:11:13.0000000+00:00</time></trkpt><trkpt lat="34.8715288" lon="32.378036"><ele>124.7</ele><time>2015-04-24T16:11:15.0000000+00:00</time></trkpt><trkpt lat="34.8715848" lon="32.3780264"><ele>124.1</ele><time>2015-04-24T16:11:17.0000000+00:00</time></trkpt><trkpt lat="34.8716349" lon="32.3780156"><ele>124.0</ele><time>2015-04-24T16:11:19.0000000+00:00</time></trkpt><trkpt lat="34.8716869" lon="32.378003"><ele>124.7</ele><time>2015-04-24T16:11:22.0000000+00:00</time></trkpt><trkpt lat="34.8717317" lon="32.3779926"><ele>125.6</ele><time>2015-04-24T16:11:25.0000000+00:00</time></trkpt><trkpt lat="34.871781" lon="32.3779807"><ele>126.6</ele><time>2015-04-24T16:11:27.0000000+00:00</time></trkpt><trkpt lat="34.8718443" lon="32.3779594"><ele>127.6</ele><time>2015-04-24T16:11:29.0000000+00:00</time></trkpt><trkpt lat="34.8719169" lon="32.3779431"><ele>127.8</ele><time>2015-04-24T16:11:31.0000000+00:00</time></trkpt><trkpt lat="34.8719961" lon="32.3779343"><ele>127.2</ele><time>2015-04-24T16:11:33.0000000+00:00</time></trkpt><trkpt lat="34.8720686" lon="32.3779265"><ele>127.0</ele><time>2015-04-24T16:11:35.0000000+00:00</time></trkpt><trkpt lat="34.872142" lon="32.3779244"><ele>126.9</ele><time>2015-04-24T16:11:37.0000000+00:00</time></trkpt><trkpt lat="34.8722129" lon="32.3779254"><ele>127.7</ele><time>2015-04-24T16:11:39.0000000+00:00</time></trkpt><trkpt lat="34.8722857" lon="32.3779271"><ele>127.9</ele><time>2015-04-24T16:11:41.0000000+00:00</time></trkpt><trkpt lat="34.8723556" lon="32.3779337"><ele>127.4</ele><time>2015-04-24T16:11:43.0000000+00:00</time></trkpt><trkpt lat="34.8724307" lon="32.3779428"><ele>127.1</ele><time>2015-04-24T16:11:45.0000000+00:00</time></trkpt><trkpt lat="34.872503" lon="32.3779513"><ele>127.0</ele><time>2015-04-24T16:11:47.0000000+00:00</time></trkpt><trkpt lat="34.872574" lon="32.377961"><ele>126.2</ele><time>2015-04-24T16:11:49.0000000+00:00</time></trkpt><trkpt lat="34.8726315" lon="32.3779694"><ele>126.0</ele><time>2015-04-24T16:11:51.0000000+00:00</time></trkpt><trkpt lat="34.8726922" lon="32.3779794"><ele>125.9</ele><time>2015-04-24T16:11:53.0000000+00:00</time></trkpt><trkpt lat="34.872753" lon="32.3779961"><ele>125.2</ele><time>2015-04-24T16:11:55.0000000+00:00</time></trkpt><trkpt lat="34.8728162" lon="32.3780195"><ele>125.0</ele><time>2015-04-24T16:11:57.0000000+00:00</time></trkpt><trkpt lat="34.8728783" lon="32.3780421"><ele>124.9</ele><time>2015-04-24T16:11:59.0000000+00:00</time></trkpt><trkpt lat="34.8729436" lon="32.3780588"><ele>124.4</ele><time>2015-04-24T16:12:01.0000000+00:00</time></trkpt><trkpt lat="34.8730051" lon="32.3780752"><ele>124.6</ele><time>2015-04-24T16:12:03.0000000+00:00</time></trkpt><trkpt lat="34.8730672" lon="32.3780934"><ele>124.3</ele><time>2015-04-24T16:12:05.0000000+00:00</time></trkpt><trkpt lat="34.8731283" lon="32.3781119"><ele>124.0</ele><time>2015-04-24T16:12:07.0000000+00:00</time></trkpt><trkpt lat="34.8731925" lon="32.3781281"><ele>124.0</ele><time>2015-04-24T16:12:09.0000000+00:00</time></trkpt><trkpt lat="34.8732499" lon="32.3781457"><ele>124.4</ele><time>2015-04-24T16:12:11.0000000+00:00</time></trkpt><trkpt lat="34.8733073" lon="32.3781662"><ele>124.8</ele><time>2015-04-24T16:12:13.0000000+00:00</time></trkpt><trkpt lat="34.8733643" lon="32.3781825"><ele>125.4</ele><time>2015-04-24T16:12:15.0000000+00:00</time></trkpt><trkpt lat="34.8734148" lon="32.3782091"><ele>126.5</ele><time>2015-04-24T16:12:17.0000000+00:00</time></trkpt><trkpt lat="34.8734619" lon="32.3782294"><ele>126.8</ele><time>2015-04-24T16:12:19.0000000+00:00</time></trkpt><trkpt lat="34.8735166" lon="32.378247"><ele>126.4</ele><time>2015-04-24T16:12:21.0000000+00:00</time></trkpt><trkpt lat="34.8735808" lon="32.3782658"><ele>126.3</ele><time>2015-04-24T16:12:23.0000000+00:00</time></trkpt><trkpt lat="34.8736476" lon="32.3782898"><ele>126.0</ele><time>2015-04-24T16:12:25.0000000+00:00</time></trkpt><trkpt lat="34.8737062" lon="32.3783127"><ele>126.7</ele><time>2015-04-24T16:12:27.0000000+00:00</time></trkpt><trkpt lat="34.8737616" lon="32.378346"><ele>127.6</ele><time>2015-04-24T16:12:29.0000000+00:00</time></trkpt><trkpt lat="34.8738176" lon="32.378372"><ele>128.6</ele><time>2015-04-24T16:12:31.0000000+00:00</time></trkpt><trkpt lat="34.8738778" lon="32.3783912"><ele>129.1</ele><time>2015-04-24T16:12:33.0000000+00:00</time></trkpt><trkpt lat="34.8739295" lon="32.378426"><ele>129.0</ele><time>2015-04-24T16:12:35.0000000+00:00</time></trkpt><trkpt lat="34.8739803" lon="32.3784643"><ele>128.9</ele><time>2015-04-24T16:12:37.0000000+00:00</time></trkpt><trkpt lat="34.8740327" lon="32.3784918"><ele>128.9</ele><time>2015-04-24T16:12:39.0000000+00:00</time></trkpt><trkpt lat="34.8740908" lon="32.3785178"><ele>129.7</ele><time>2015-04-24T16:12:41.0000000+00:00</time></trkpt><trkpt lat="34.874147" lon="32.378551"><ele>129.9</ele><time>2015-04-24T16:12:43.0000000+00:00</time></trkpt><trkpt lat="34.8742027" lon="32.3785925"><ele>129.9</ele><time>2015-04-24T16:12:45.0000000+00:00</time></trkpt><trkpt lat="34.8742585" lon="32.378628"><ele>129.9</ele><time>2015-04-24T16:12:47.0000000+00:00</time></trkpt><trkpt lat="34.8743142" lon="32.3786676"><ele>130.4</ele><time>2015-04-24T16:12:49.0000000+00:00</time></trkpt><trkpt lat="34.8743636" lon="32.3787105"><ele>130.6</ele><time>2015-04-24T16:12:51.0000000+00:00</time></trkpt><trkpt lat="34.8744123" lon="32.3787535"><ele>130.1</ele><time>2015-04-24T16:12:53.0000000+00:00</time></trkpt><trkpt lat="34.8744595" lon="32.3787908"><ele>130.0</ele><time>2015-04-24T16:12:55.0000000+00:00</time></trkpt><trkpt lat="34.8745065" lon="32.3788322"><ele>129.9</ele><time>2015-04-24T16:12:57.0000000+00:00</time></trkpt><trkpt lat="34.8745529" lon="32.378869"><ele>129.9</ele><time>2015-04-24T16:12:59.0000000+00:00</time></trkpt><trkpt lat="34.8745995" lon="32.3789086"><ele>129.9</ele><time>2015-04-24T16:13:01.0000000+00:00</time></trkpt><trkpt lat="34.874644" lon="32.3789487"><ele>129.9</ele><time>2015-04-24T16:13:03.0000000+00:00</time></trkpt><trkpt lat="34.8746873" lon="32.3789923"><ele>129.9</ele><time>2015-04-24T16:13:05.0000000+00:00</time></trkpt><trkpt lat="34.8747332" lon="32.3790303"><ele>129.9</ele><time>2015-04-24T16:13:07.0000000+00:00</time></trkpt><trkpt lat="34.8747806" lon="32.3790684"><ele>129.4</ele><time>2015-04-24T16:13:09.0000000+00:00</time></trkpt><trkpt lat="34.8748278" lon="32.3791041"><ele>129.1</ele><time>2015-04-24T16:13:11.0000000+00:00</time></trkpt><trkpt lat="34.8748769" lon="32.3791378"><ele>129.5</ele><time>2015-04-24T16:13:13.0000000+00:00</time></trkpt><trkpt lat="34.8749243" lon="32.3791726"><ele>129.8</ele><time>2015-04-24T16:13:15.0000000+00:00</time></trkpt><trkpt lat="34.874974" lon="32.379209"><ele>131.2</ele><time>2015-04-24T16:13:17.0000000+00:00</time></trkpt><trkpt lat="34.8750202" lon="32.3792488"><ele>131.7</ele><time>2015-04-24T16:13:19.0000000+00:00</time></trkpt><trkpt lat="34.8750674" lon="32.3792926"><ele>131.4</ele><time>2015-04-24T16:13:21.0000000+00:00</time></trkpt><trkpt lat="34.8751113" lon="32.3793356"><ele>130.5</ele><time>2015-04-24T16:13:23.0000000+00:00</time></trkpt><trkpt lat="34.8751513" lon="32.3793794"><ele>130.6</ele><time>2015-04-24T16:13:25.0000000+00:00</time></trkpt><trkpt lat="34.8752088" lon="32.3794291"><ele>130.9</ele><time>2015-04-24T16:13:28.0000000+00:00</time></trkpt><trkpt lat="34.8752602" lon="32.3794667"><ele>130.9</ele><time>2015-04-24T16:13:30.0000000+00:00</time></trkpt><trkpt lat="34.8753128" lon="32.3795121"><ele>131.7</ele><time>2015-04-24T16:13:32.0000000+00:00</time></trkpt><trkpt lat="34.8753638" lon="32.3795574"><ele>132.1</ele><time>2015-04-24T16:13:34.0000000+00:00</time></trkpt><trkpt lat="34.8754166" lon="32.37959"><ele>132.5</ele><time>2015-04-24T16:13:36.0000000+00:00</time></trkpt><trkpt lat="34.875469" lon="32.3796251"><ele>132.8</ele><time>2015-04-24T16:13:38.0000000+00:00</time></trkpt><trkpt lat="34.8755226" lon="32.379661"><ele>132.9</ele><time>2015-04-24T16:13:40.0000000+00:00</time></trkpt><trkpt lat="34.8755787" lon="32.3796956"><ele>133.7</ele><time>2015-04-24T16:13:42.0000000+00:00</time></trkpt><trkpt lat="34.875632" lon="32.3797349"><ele>133.9</ele><time>2015-04-24T16:13:44.0000000+00:00</time></trkpt><trkpt lat="34.8756819" lon="32.3797749"><ele>133.9</ele><time>2015-04-24T16:13:46.0000000+00:00</time></trkpt><trkpt lat="34.8757286" lon="32.3798147"><ele>133.9</ele><time>2015-04-24T16:13:48.0000000+00:00</time></trkpt><trkpt lat="34.875776" lon="32.3798534"><ele>133.9</ele><time>2015-04-24T16:13:50.0000000+00:00</time></trkpt><trkpt lat="34.8758237" lon="32.3798892"><ele>133.9</ele><time>2015-04-24T16:13:52.0000000+00:00</time></trkpt><trkpt lat="34.8758698" lon="32.379926"><ele>134.4</ele><time>2015-04-24T16:13:54.0000000+00:00</time></trkpt><trkpt lat="34.8759158" lon="32.3799631"><ele>134.8</ele><time>2015-04-24T16:13:56.0000000+00:00</time></trkpt><trkpt lat="34.8759626" lon="32.3799994"><ele>135.1</ele><time>2015-04-24T16:13:58.0000000+00:00</time></trkpt><trkpt lat="34.8760061" lon="32.380042"><ele>135.7</ele><time>2015-04-24T16:14:00.0000000+00:00</time></trkpt><trkpt lat="34.8760532" lon="32.3800798"><ele>136.4</ele><time>2015-04-24T16:14:02.0000000+00:00</time></trkpt><trkpt lat="34.8761049" lon="32.380108"><ele>136.8</ele><time>2015-04-24T16:14:04.0000000+00:00</time></trkpt><trkpt lat="34.8761554" lon="32.3801377"><ele>136.6</ele><time>2015-04-24T16:14:06.0000000+00:00</time></trkpt><trkpt lat="34.8762055" lon="32.3801724"><ele>136.9</ele><time>2015-04-24T16:14:08.0000000+00:00</time></trkpt><trkpt lat="34.876259" lon="32.3802157"><ele>137.4</ele><time>2015-04-24T16:14:10.0000000+00:00</time></trkpt><trkpt lat="34.8763131" lon="32.3802557"><ele>137.8</ele><time>2015-04-24T16:14:12.0000000+00:00</time></trkpt><trkpt lat="34.8763681" lon="32.3802891"><ele>137.9</ele><time>2015-04-24T16:14:14.0000000+00:00</time></trkpt><trkpt lat="34.8764214" lon="32.3803174"><ele>137.9</ele><time>2015-04-24T16:14:16.0000000+00:00</time></trkpt><trkpt lat="34.8764633" lon="32.3803386"><ele>137.9</ele><time>2015-04-24T16:14:18.0000000+00:00</time></trkpt><trkpt lat="34.8765299" lon="32.3803684"><ele>138.4</ele><time>2015-04-24T16:14:21.0000000+00:00</time></trkpt><trkpt lat="34.8765936" lon="32.3803837"><ele>138.8</ele><time>2015-04-24T16:14:23.0000000+00:00</time></trkpt><trkpt lat="34.8766569" lon="32.380393"><ele>138.4</ele><time>2015-04-24T16:14:25.0000000+00:00</time></trkpt><trkpt lat="34.8767147" lon="32.3803887"><ele>137.5</ele><time>2015-04-24T16:14:27.0000000+00:00</time></trkpt><trkpt lat="34.8767712" lon="32.3803728"><ele>135.8</ele><time>2015-04-24T16:14:29.0000000+00:00</time></trkpt><trkpt lat="34.8768244" lon="32.3803577"><ele>136.7</ele><time>2015-04-24T16:14:31.0000000+00:00</time></trkpt><trkpt lat="34.8768745" lon="32.3803375"><ele>138.4</ele><time>2015-04-24T16:14:33.0000000+00:00</time></trkpt><trkpt lat="34.8769309" lon="32.3803107"><ele>139.2</ele><time>2015-04-24T16:14:36.0000000+00:00</time></trkpt><trkpt lat="34.8769953" lon="32.3802916"><ele>139.0</ele><time>2015-04-24T16:14:39.0000000+00:00</time></trkpt><trkpt lat="34.8770403" lon="32.3802779"><ele>138.7</ele><time>2015-04-24T16:14:41.0000000+00:00</time></trkpt><trkpt lat="34.8771028" lon="32.380256"><ele>139.4</ele><time>2015-04-24T16:14:44.0000000+00:00</time></trkpt><trkpt lat="34.8771475" lon="32.380245"><ele>139.8</ele><time>2015-04-24T16:14:46.0000000+00:00</time></trkpt><trkpt lat="34.877193" lon="32.3802375"><ele>138.6</ele><time>2015-04-24T16:14:48.0000000+00:00</time></trkpt><trkpt lat="34.877254" lon="32.3802186"><ele>138.0</ele><time>2015-04-24T16:14:51.0000000+00:00</time></trkpt><trkpt lat="34.8773165" lon="32.3802049"><ele>137.9</ele><time>2015-04-24T16:14:54.0000000+00:00</time></trkpt><trkpt lat="34.8773791" lon="32.3801923"><ele>139.6</ele><time>2015-04-24T16:14:57.0000000+00:00</time></trkpt><trkpt lat="34.8774397" lon="32.3801798"><ele>141.5</ele><time>2015-04-24T16:15:00.0000000+00:00</time></trkpt><trkpt lat="34.8774894" lon="32.3801632"><ele>143.6</ele><time>2015-04-24T16:15:03.0000000+00:00</time></trkpt><trkpt lat="34.8775401" lon="32.3801498"><ele>146.4</ele><time>2015-04-24T16:15:06.0000000+00:00</time></trkpt><trkpt lat="34.8775948" lon="32.3801283"><ele>146.9</ele><time>2015-04-24T16:15:09.0000000+00:00</time></trkpt><trkpt lat="34.8776456" lon="32.3801124"><ele>148.2</ele><time>2015-04-24T16:15:12.0000000+00:00</time></trkpt><trkpt lat="34.8776941" lon="32.3800919"><ele>148.0</ele><time>2015-04-24T16:15:15.0000000+00:00</time></trkpt><trkpt lat="34.877752" lon="32.3800679"><ele>148.4</ele><time>2015-04-24T16:15:18.0000000+00:00</time></trkpt><trkpt lat="34.8778197" lon="32.3800573"><ele>150.1</ele><time>2015-04-24T16:15:21.0000000+00:00</time></trkpt><trkpt lat="34.8778751" lon="32.3800488"><ele>150.2</ele><time>2015-04-24T16:15:23.0000000+00:00</time></trkpt><trkpt lat="34.8779276" lon="32.3800362"><ele>149.8</ele><time>2015-04-24T16:15:25.0000000+00:00</time></trkpt><trkpt lat="34.8779751" lon="32.380021"><ele>151.6</ele><time>2015-04-24T16:15:27.0000000+00:00</time></trkpt><trkpt lat="34.8780185" lon="32.3800044"><ele>153.1</ele><time>2015-04-24T16:15:29.0000000+00:00</time></trkpt><trkpt lat="34.8780838" lon="32.3799877"><ele>154.3</ele><time>2015-04-24T16:15:32.0000000+00:00</time></trkpt><trkpt lat="34.8781279" lon="32.3799751"><ele>154.8</ele><time>2015-04-24T16:15:34.0000000+00:00</time></trkpt><trkpt lat="34.8781725" lon="32.3799595"><ele>154.6</ele><time>2015-04-24T16:15:36.0000000+00:00</time></trkpt><trkpt lat="34.8782195" lon="32.3799485"><ele>155.4</ele><time>2015-04-24T16:15:38.0000000+00:00</time></trkpt><trkpt lat="34.8782808" lon="32.3799325"><ele>156.2</ele><time>2015-04-24T16:15:41.0000000+00:00</time></trkpt><trkpt lat="34.8783396" lon="32.3799058"><ele>155.8</ele><time>2015-04-24T16:15:44.0000000+00:00</time></trkpt><trkpt lat="34.8784057" lon="32.3798837"><ele>155.4</ele><time>2015-04-24T16:15:47.0000000+00:00</time></trkpt><trkpt lat="34.8784526" lon="32.3798676"><ele>153.8</ele><time>2015-04-24T16:15:49.0000000+00:00</time></trkpt><trkpt lat="34.8784979" lon="32.3798558"><ele>153.4</ele><time>2015-04-24T16:15:51.0000000+00:00</time></trkpt><trkpt lat="34.878563" lon="32.3798328"><ele>153.4</ele><time>2015-04-24T16:15:54.0000000+00:00</time></trkpt><trkpt lat="34.8786064" lon="32.379818"><ele>152.3</ele><time>2015-04-24T16:15:56.0000000+00:00</time></trkpt><trkpt lat="34.8786661" lon="32.379792"><ele>152.3</ele><time>2015-04-24T16:15:59.0000000+00:00</time></trkpt><trkpt lat="34.8787269" lon="32.3797845"><ele>151.9</ele><time>2015-04-24T16:16:02.0000000+00:00</time></trkpt><trkpt lat="34.878788" lon="32.3797819"><ele>151.7</ele><time>2015-04-24T16:16:05.0000000+00:00</time></trkpt><trkpt lat="34.8788486" lon="32.3797713"><ele>150.9</ele><time>2015-04-24T16:16:08.0000000+00:00</time></trkpt><trkpt lat="34.8789106" lon="32.3797685"><ele>153.3</ele><time>2015-04-24T16:16:11.0000000+00:00</time></trkpt><trkpt lat="34.8789753" lon="32.3797782"><ele>151.7</ele><time>2015-04-24T16:16:14.0000000+00:00</time></trkpt><trkpt lat="34.8790424" lon="32.3797769"><ele>152.2</ele><time>2015-04-24T16:16:17.0000000+00:00</time></trkpt><trkpt lat="34.8790902" lon="32.3797722"><ele>151.7</ele><time>2015-04-24T16:16:19.0000000+00:00</time></trkpt><trkpt lat="34.8791358" lon="32.379767"><ele>152.9</ele><time>2015-04-24T16:16:21.0000000+00:00</time></trkpt><trkpt lat="34.8791815" lon="32.3797629"><ele>154.9</ele><time>2015-04-24T16:16:23.0000000+00:00</time></trkpt><trkpt lat="34.8792305" lon="32.3797527"><ele>155.4</ele><time>2015-04-24T16:16:25.0000000+00:00</time></trkpt><trkpt lat="34.87928" lon="32.3797434"><ele>155.6</ele><time>2015-04-24T16:16:27.0000000+00:00</time></trkpt><trkpt lat="34.8793328" lon="32.3797388"><ele>156.3</ele><time>2015-04-24T16:16:29.0000000+00:00</time></trkpt><trkpt lat="34.8793826" lon="32.3797431"><ele>157.3</ele><time>2015-04-24T16:16:31.0000000+00:00</time></trkpt><trkpt lat="34.879428" lon="32.3797415"><ele>159.0</ele><time>2015-04-24T16:16:33.0000000+00:00</time></trkpt><trkpt lat="34.879473" lon="32.3797397"><ele>159.7</ele><time>2015-04-24T16:16:35.0000000+00:00</time></trkpt><trkpt lat="34.8795192" lon="32.3797403"><ele>159.9</ele><time>2015-04-24T16:16:37.0000000+00:00</time></trkpt><trkpt lat="34.8795679" lon="32.3797437"><ele>160.4</ele><time>2015-04-24T16:16:39.0000000+00:00</time></trkpt><trkpt lat="34.8796147" lon="32.3797494"><ele>161.6</ele><time>2015-04-24T16:16:41.0000000+00:00</time></trkpt><trkpt lat="34.8796714" lon="32.3797653"><ele>163.3</ele><time>2015-04-24T16:16:44.0000000+00:00</time></trkpt><trkpt lat="34.87973" lon="32.3797666"><ele>163.1</ele><time>2015-04-24T16:16:47.0000000+00:00</time></trkpt><trkpt lat="34.8797889" lon="32.3797633"><ele>165.1</ele><time>2015-04-24T16:16:50.0000000+00:00</time></trkpt><trkpt lat="34.879852" lon="32.3797664"><ele>164.9</ele><time>2015-04-24T16:16:53.0000000+00:00</time></trkpt><trkpt lat="34.8799184" lon="32.3797782"><ele>165.7</ele><time>2015-04-24T16:16:56.0000000+00:00</time></trkpt><trkpt lat="34.8799638" lon="32.3797858"><ele>165.4</ele><time>2015-04-24T16:16:58.0000000+00:00</time></trkpt><trkpt lat="34.8800308" lon="32.3797934"><ele>164.5</ele><time>2015-04-24T16:17:01.0000000+00:00</time></trkpt><trkpt lat="34.8800994" lon="32.3798009"><ele>164.0</ele><time>2015-04-24T16:17:04.0000000+00:00</time></trkpt><trkpt lat="34.8801464" lon="32.3798066"><ele>164.2</ele><time>2015-04-24T16:17:06.0000000+00:00</time></trkpt><trkpt lat="34.8801974" lon="32.3798111"><ele>164.2</ele><time>2015-04-24T16:17:08.0000000+00:00</time></trkpt><trkpt lat="34.8802477" lon="32.3798178"><ele>164.0</ele><time>2015-04-24T16:17:10.0000000+00:00</time></trkpt><trkpt lat="34.8802954" lon="32.3798235"><ele>163.9</ele><time>2015-04-24T16:17:12.0000000+00:00</time></trkpt><trkpt lat="34.8803433" lon="32.3798281"><ele>163.9</ele><time>2015-04-24T16:17:14.0000000+00:00</time></trkpt><trkpt lat="34.8804138" lon="32.3798335"><ele>163.4</ele><time>2015-04-24T16:17:17.0000000+00:00</time></trkpt><trkpt lat="34.88046" lon="32.3798407"><ele>162.8</ele><time>2015-04-24T16:17:19.0000000+00:00</time></trkpt><trkpt lat="34.8805055" lon="32.3798465"><ele>164.4</ele><time>2015-04-24T16:17:21.0000000+00:00</time></trkpt><trkpt lat="34.8805509" lon="32.3798561"><ele>167.0</ele><time>2015-04-24T16:17:23.0000000+00:00</time></trkpt><trkpt lat="34.8806154" lon="32.3798667"><ele>168.3</ele><time>2015-04-24T16:17:26.0000000+00:00</time></trkpt><trkpt lat="34.880679" lon="32.3798706"><ele>169.5</ele><time>2015-04-24T16:17:29.0000000+00:00</time></trkpt><trkpt lat="34.8807265" lon="32.3798785"><ele>169.8</ele><time>2015-04-24T16:17:31.0000000+00:00</time></trkpt><trkpt lat="34.8807736" lon="32.3798847"><ele>169.9</ele><time>2015-04-24T16:17:33.0000000+00:00</time></trkpt><trkpt lat="34.8808365" lon="32.3798924"><ele>171.4</ele><time>2015-04-24T16:17:36.0000000+00:00</time></trkpt><trkpt lat="34.8809043" lon="32.3798992"><ele>172.6</ele><time>2015-04-24T16:17:39.0000000+00:00</time></trkpt><trkpt lat="34.8809546" lon="32.3799068"><ele>173.4</ele><time>2015-04-24T16:17:41.0000000+00:00</time></trkpt><trkpt lat="34.881008" lon="32.3799157"><ele>174.0</ele><time>2015-04-24T16:17:43.0000000+00:00</time></trkpt><trkpt lat="34.8810584" lon="32.3799293"><ele>174.0</ele><time>2015-04-24T16:17:45.0000000+00:00</time></trkpt><trkpt lat="34.8811119" lon="32.3799402"><ele>173.2</ele><time>2015-04-24T16:17:47.0000000+00:00</time></trkpt><trkpt lat="34.8811646" lon="32.3799435"><ele>173.7</ele><time>2015-04-24T16:17:49.0000000+00:00</time></trkpt><trkpt lat="34.8812136" lon="32.3799438"><ele>172.1</ele><time>2015-04-24T16:17:51.0000000+00:00</time></trkpt><trkpt lat="34.8812594" lon="32.3799436"><ele>170.5</ele><time>2015-04-24T16:17:53.0000000+00:00</time></trkpt><trkpt lat="34.8813058" lon="32.3799482"><ele>169.8</ele><time>2015-04-24T16:17:55.0000000+00:00</time></trkpt><trkpt lat="34.8813511" lon="32.3799523"><ele>168.9</ele><time>2015-04-24T16:17:57.0000000+00:00</time></trkpt><trkpt lat="34.8814135" lon="32.3799446"><ele>171.3</ele><time>2015-04-24T16:18:00.0000000+00:00</time></trkpt><trkpt lat="34.8814805" lon="32.3799444"><ele>172.1</ele><time>2015-04-24T16:18:03.0000000+00:00</time></trkpt><trkpt lat="34.8815451" lon="32.3799504"><ele>173.8</ele><time>2015-04-24T16:18:06.0000000+00:00</time></trkpt><trkpt lat="34.8816037" lon="32.3799485"><ele>174.7</ele><time>2015-04-24T16:18:09.0000000+00:00</time></trkpt><trkpt lat="34.8816715" lon="32.3799495"><ele>174.4</ele><time>2015-04-24T16:18:12.0000000+00:00</time></trkpt><trkpt lat="34.8817202" lon="32.3799566"><ele>174.8</ele><time>2015-04-24T16:18:14.0000000+00:00</time></trkpt><trkpt lat="34.8817663" lon="32.3799564"><ele>175.4</ele><time>2015-04-24T16:18:16.0000000+00:00</time></trkpt><trkpt lat="34.8818152" lon="32.3799453"><ele>177.3</ele><time>2015-04-24T16:18:18.0000000+00:00</time></trkpt><trkpt lat="34.8818643" lon="32.3799451"><ele>178.3</ele><time>2015-04-24T16:18:20.0000000+00:00</time></trkpt><trkpt lat="34.881931" lon="32.3799587"><ele>179.1</ele><time>2015-04-24T16:18:23.0000000+00:00</time></trkpt><trkpt lat="34.8819771" lon="32.3799568"><ele>180.2</ele><time>2015-04-24T16:18:25.0000000+00:00</time></trkpt><trkpt lat="34.8820421" lon="32.3799606"><ele>181.7</ele><time>2015-04-24T16:18:28.0000000+00:00</time></trkpt><trkpt lat="34.8820891" lon="32.3799671"><ele>181.6</ele><time>2015-04-24T16:18:30.0000000+00:00</time></trkpt><trkpt lat="34.8821351" lon="32.3799822"><ele>180.4</ele><time>2015-04-24T16:18:32.0000000+00:00</time></trkpt><trkpt lat="34.8821889" lon="32.3800217"><ele>178.9</ele><time>2015-04-24T16:18:35.0000000+00:00</time></trkpt><trkpt lat="34.8822441" lon="32.3800448"><ele>177.3</ele><time>2015-04-24T16:18:38.0000000+00:00</time></trkpt><trkpt lat="34.8822989" lon="32.3800635"><ele>177.4</ele><time>2015-04-24T16:18:41.0000000+00:00</time></trkpt><trkpt lat="34.8823454" lon="32.3801001"><ele>177.0</ele><time>2015-04-24T16:18:44.0000000+00:00</time></trkpt><trkpt lat="34.8823857" lon="32.380136"><ele>178.6</ele><time>2015-04-24T16:18:47.0000000+00:00</time></trkpt><trkpt lat="34.8824269" lon="32.3801739"><ele>182.4</ele><time>2015-04-24T16:18:50.0000000+00:00</time></trkpt><trkpt lat="34.8824658" lon="32.3802124"><ele>184.2</ele><time>2015-04-24T16:18:53.0000000+00:00</time></trkpt><trkpt lat="34.8825021" lon="32.3802499"><ele>185.6</ele><time>2015-04-24T16:18:56.0000000+00:00</time></trkpt><trkpt lat="34.8825363" lon="32.3802874"><ele>185.9</ele><time>2015-04-24T16:18:59.0000000+00:00</time></trkpt><trkpt lat="34.8825721" lon="32.3803217"><ele>185.8</ele><time>2015-04-24T16:19:02.0000000+00:00</time></trkpt><trkpt lat="34.8826124" lon="32.3803515"><ele>186.8</ele><time>2015-04-24T16:19:05.0000000+00:00</time></trkpt><trkpt lat="34.8826552" lon="32.3803845"><ele>188.2</ele><time>2015-04-24T16:19:08.0000000+00:00</time></trkpt><trkpt lat="34.8827038" lon="32.3804139"><ele>188.8</ele><time>2015-04-24T16:19:11.0000000+00:00</time></trkpt><trkpt lat="34.88275" lon="32.3804433"><ele>190.3</ele><time>2015-04-24T16:19:14.0000000+00:00</time></trkpt><trkpt lat="34.8827945" lon="32.3804837"><ele>190.1</ele><time>2015-04-24T16:19:17.0000000+00:00</time></trkpt><trkpt lat="34.8828277" lon="32.3805295"><ele>189.2</ele><time>2015-04-24T16:19:20.0000000+00:00</time></trkpt><trkpt lat="34.88286" lon="32.3805764"><ele>188.2</ele><time>2015-04-24T16:19:23.0000000+00:00</time></trkpt><trkpt lat="34.8829036" lon="32.380623"><ele>187.8</ele><time>2015-04-24T16:19:27.0000000+00:00</time></trkpt><trkpt lat="34.8829549" lon="32.3806595"><ele>186.0</ele><time>2015-04-24T16:19:31.0000000+00:00</time></trkpt><trkpt lat="34.8829982" lon="32.3807027"><ele>184.7</ele><time>2015-04-24T16:19:35.0000000+00:00</time></trkpt><trkpt lat="34.8830315" lon="32.380748"><ele>183.5</ele><time>2015-04-24T16:19:39.0000000+00:00</time></trkpt><trkpt lat="34.8830646" lon="32.3808008"><ele>183.5</ele><time>2015-04-24T16:19:43.0000000+00:00</time></trkpt><trkpt lat="34.8830961" lon="32.3808426"><ele>184.7</ele><time>2015-04-24T16:19:46.0000000+00:00</time></trkpt><trkpt lat="34.8831387" lon="32.380893"><ele>185.4</ele><time>2015-04-24T16:19:50.0000000+00:00</time></trkpt><trkpt lat="34.8831727" lon="32.3809303"><ele>186.6</ele><time>2015-04-24T16:19:53.0000000+00:00</time></trkpt><trkpt lat="34.8832081" lon="32.3809683"><ele>189.0</ele><time>2015-04-24T16:19:56.0000000+00:00</time></trkpt><trkpt lat="34.8832418" lon="32.3810147"><ele>189.4</ele><time>2015-04-24T16:19:59.0000000+00:00</time></trkpt><trkpt lat="34.8832803" lon="32.3810537"><ele>191.2</ele><time>2015-04-24T16:20:02.0000000+00:00</time></trkpt><trkpt lat="34.8833195" lon="32.3810967"><ele>192.6</ele><time>2015-04-24T16:20:05.0000000+00:00</time></trkpt><trkpt lat="34.8833607" lon="32.3811393"><ele>192.6</ele><time>2015-04-24T16:20:08.0000000+00:00</time></trkpt><trkpt lat="34.8833892" lon="32.3811942"><ele>192.3</ele><time>2015-04-24T16:20:11.0000000+00:00</time></trkpt><trkpt lat="34.8834186" lon="32.3812408"><ele>194.7</ele><time>2015-04-24T16:20:14.0000000+00:00</time></trkpt><trkpt lat="34.8834544" lon="32.3812824"><ele>196.3</ele><time>2015-04-24T16:20:17.0000000+00:00</time></trkpt><trkpt lat="34.8834921" lon="32.3813339"><ele>196.2</ele><time>2015-04-24T16:20:21.0000000+00:00</time></trkpt><trkpt lat="34.8835226" lon="32.381388"><ele>195.1</ele><time>2015-04-24T16:20:25.0000000+00:00</time></trkpt><trkpt lat="34.8835558" lon="32.3814358"><ele>197.2</ele><time>2015-04-24T16:20:29.0000000+00:00</time></trkpt><trkpt lat="34.8835811" lon="32.3814924"><ele>197.9</ele><time>2015-04-24T16:20:33.0000000+00:00</time></trkpt><trkpt lat="34.8835996" lon="32.3815521"><ele>199.4</ele><time>2015-04-24T16:20:37.0000000+00:00</time></trkpt><trkpt lat="34.8836346" lon="32.3816014"><ele>199.0</ele><time>2015-04-24T16:20:42.0000000+00:00</time></trkpt><trkpt lat="34.8836748" lon="32.3816336"><ele>199.1</ele><time>2015-04-24T16:20:46.0000000+00:00</time></trkpt><trkpt lat="34.883714" lon="32.3816834"><ele>201.3</ele><time>2015-04-24T16:20:50.0000000+00:00</time></trkpt><trkpt lat="34.8837523" lon="32.381735"><ele>201.0</ele><time>2015-04-24T16:20:54.0000000+00:00</time></trkpt><trkpt lat="34.8837888" lon="32.3817877"><ele>201.7</ele><time>2015-04-24T16:20:58.0000000+00:00</time></trkpt><trkpt lat="34.8838282" lon="32.3818348"><ele>203.1</ele><time>2015-04-24T16:21:02.0000000+00:00</time></trkpt><trkpt lat="34.8838667" lon="32.3818786"><ele>203.0</ele><time>2015-04-24T16:21:06.0000000+00:00</time></trkpt><trkpt lat="34.8839041" lon="32.3819164"><ele>203.7</ele><time>2015-04-24T16:21:10.0000000+00:00</time></trkpt><trkpt lat="34.8839423" lon="32.3819479"><ele>204.6</ele><time>2015-04-24T16:21:14.0000000+00:00</time></trkpt><trkpt lat="34.8839777" lon="32.3819883"><ele>205.4</ele><time>2015-04-24T16:21:18.0000000+00:00</time></trkpt><trkpt lat="34.8840258" lon="32.3820163"><ele>205.5</ele><time>2015-04-24T16:21:22.0000000+00:00</time></trkpt><trkpt lat="34.8840736" lon="32.3820428"><ele>206.3</ele><time>2015-04-24T16:21:26.0000000+00:00</time></trkpt><trkpt lat="34.8841209" lon="32.3820551"><ele>207.2</ele><time>2015-04-24T16:21:30.0000000+00:00</time></trkpt><trkpt lat="34.8841709" lon="32.3820613"><ele>209.8</ele><time>2015-04-24T16:22:56.0000000+00:00</time></trkpt><trkpt lat="34.88422" lon="32.3820491"><ele>208.5</ele><time>2015-04-24T16:22:59.0000000+00:00</time></trkpt><trkpt lat="34.884267" lon="32.3820238"><ele>210.1</ele><time>2015-04-24T16:23:02.0000000+00:00</time></trkpt><trkpt lat="34.8843054" lon="32.3819793"><ele>212.1</ele><time>2015-04-24T16:23:05.0000000+00:00</time></trkpt><trkpt lat="34.8843476" lon="32.3819486"><ele>212.8</ele><time>2015-04-24T16:23:08.0000000+00:00</time></trkpt><trkpt lat="34.8843903" lon="32.381921"><ele>211.8</ele><time>2015-04-24T16:23:11.0000000+00:00</time></trkpt><trkpt lat="34.8844185" lon="32.3818749"><ele>215.4</ele><time>2015-04-24T16:23:14.0000000+00:00</time></trkpt><trkpt lat="34.8844206" lon="32.3818128"><ele>217.2</ele><time>2015-04-24T16:23:17.0000000+00:00</time></trkpt><trkpt lat="34.8844609" lon="32.3817658"><ele>216.5</ele><time>2015-04-24T16:23:20.0000000+00:00</time></trkpt><trkpt lat="34.8845022" lon="32.3817389"><ele>214.6</ele><time>2015-04-24T16:23:22.0000000+00:00</time></trkpt><trkpt lat="34.8845501" lon="32.3816873"><ele>216.0</ele><time>2015-04-24T16:23:25.0000000+00:00</time></trkpt><trkpt lat="34.8845779" lon="32.3816322"><ele>217.3</ele><time>2015-04-24T16:23:28.0000000+00:00</time></trkpt><trkpt lat="34.8845887" lon="32.3815747"><ele>217.1</ele><time>2015-04-24T16:23:31.0000000+00:00</time></trkpt><trkpt lat="34.8845978" lon="32.3815113"><ele>217.0</ele><time>2015-04-24T16:23:34.0000000+00:00</time></trkpt><trkpt lat="34.8845916" lon="32.3814415"><ele>216.7</ele><time>2015-04-24T16:23:37.0000000+00:00</time></trkpt><trkpt lat="34.8845669" lon="32.3813713"><ele>216.0</ele><time>2015-04-24T16:23:40.0000000+00:00</time></trkpt><trkpt lat="34.8845428" lon="32.3813202"><ele>215.7</ele><time>2015-04-24T16:23:42.0000000+00:00</time></trkpt><trkpt lat="34.8845174" lon="32.3812671"><ele>216.4</ele><time>2015-04-24T16:23:44.0000000+00:00</time></trkpt><trkpt lat="34.8844776" lon="32.3811677"><ele>218.2</ele><time>2015-04-24T16:23:47.0000000+00:00</time></trkpt><trkpt lat="34.884449" lon="32.3810784"><ele>218.8</ele><time>2015-04-24T16:23:49.0000000+00:00</time></trkpt><trkpt lat="34.8844322" lon="32.3809971"><ele>220.1</ele><time>2015-04-24T16:23:51.0000000+00:00</time></trkpt><trkpt lat="34.8844142" lon="32.3809218"><ele>220.7</ele><time>2015-04-24T16:23:53.0000000+00:00</time></trkpt><trkpt lat="34.8843971" lon="32.3808511"><ele>221.4</ele><time>2015-04-24T16:23:55.0000000+00:00</time></trkpt><trkpt lat="34.8843789" lon="32.3807795"><ele>221.8</ele><time>2015-04-24T16:23:57.0000000+00:00</time></trkpt><trkpt lat="34.8843677" lon="32.3807125"><ele>220.6</ele><time>2015-04-24T16:23:59.0000000+00:00</time></trkpt><trkpt lat="34.8843565" lon="32.3806567"><ele>220.6</ele><time>2015-04-24T16:24:01.0000000+00:00</time></trkpt><trkpt lat="34.8843492" lon="32.3805938"><ele>220.6</ele><time>2015-04-24T16:24:03.0000000+00:00</time></trkpt><trkpt lat="34.8843487" lon="32.3805264"><ele>220.1</ele><time>2015-04-24T16:24:05.0000000+00:00</time></trkpt><trkpt lat="34.8843454" lon="32.3804632"><ele>220.0</ele><time>2015-04-24T16:24:07.0000000+00:00</time></trkpt><trkpt lat="34.8843452" lon="32.3803983"><ele>219.9</ele><time>2015-04-24T16:24:09.0000000+00:00</time></trkpt><trkpt lat="34.8843471" lon="32.3803353"><ele>219.9</ele><time>2015-04-24T16:24:11.0000000+00:00</time></trkpt><trkpt lat="34.8843518" lon="32.3802629"><ele>220.4</ele><time>2015-04-24T16:24:13.0000000+00:00</time></trkpt><trkpt lat="34.8843673" lon="32.3801701"><ele>221.3</ele><time>2015-04-24T16:24:15.0000000+00:00</time></trkpt><trkpt lat="34.8843945" lon="32.3800879"><ele>222.3</ele><time>2015-04-24T16:24:17.0000000+00:00</time></trkpt><trkpt lat="34.8844145" lon="32.3800335"><ele>223.3</ele><time>2015-04-24T16:24:19.0000000+00:00</time></trkpt><trkpt lat="34.8844413" lon="32.3799731"><ele>224.1</ele><time>2015-04-24T16:24:22.0000000+00:00</time></trkpt><trkpt lat="34.884476" lon="32.3799212"><ele>224.0</ele><time>2015-04-24T16:24:25.0000000+00:00</time></trkpt><trkpt lat="34.8845019" lon="32.3798652"><ele>225.3</ele><time>2015-04-24T16:24:28.0000000+00:00</time></trkpt><trkpt lat="34.8845283" lon="32.3798087"><ele>226.7</ele><time>2015-04-24T16:24:31.0000000+00:00</time></trkpt><trkpt lat="34.8845599" lon="32.3797555"><ele>227.7</ele><time>2015-04-24T16:24:34.0000000+00:00</time></trkpt><trkpt lat="34.8845888" lon="32.3797021"><ele>227.4</ele><time>2015-04-24T16:24:37.0000000+00:00</time></trkpt><trkpt lat="34.8846189" lon="32.3796533"><ele>228.2</ele><time>2015-04-24T16:24:40.0000000+00:00</time></trkpt><trkpt lat="34.8846484" lon="32.379599"><ele>228.8</ele><time>2015-04-24T16:24:43.0000000+00:00</time></trkpt><trkpt lat="34.8846826" lon="32.3795429"><ele>230.4</ele><time>2015-04-24T16:24:46.0000000+00:00</time></trkpt><trkpt lat="34.8847166" lon="32.3794785"><ele>231.7</ele><time>2015-04-24T16:24:49.0000000+00:00</time></trkpt><trkpt lat="34.8847418" lon="32.3794318"><ele>231.9</ele><time>2015-04-24T16:24:51.0000000+00:00</time></trkpt><trkpt lat="34.8847712" lon="32.3793835"><ele>231.9</ele><time>2015-04-24T16:24:53.0000000+00:00</time></trkpt><trkpt lat="34.8847996" lon="32.3793338"><ele>232.7</ele><time>2015-04-24T16:24:55.0000000+00:00</time></trkpt><trkpt lat="34.8848249" lon="32.3792836"><ele>231.6</ele><time>2015-04-24T16:24:57.0000000+00:00</time></trkpt><trkpt lat="34.8848467" lon="32.379233"><ele>231.1</ele><time>2015-04-24T16:24:59.0000000+00:00</time></trkpt><trkpt lat="34.8848665" lon="32.3791801"><ele>230.2</ele><time>2015-04-24T16:25:01.0000000+00:00</time></trkpt><trkpt lat="34.8848965" lon="32.3791048"><ele>231.1</ele><time>2015-04-24T16:25:04.0000000+00:00</time></trkpt><trkpt lat="34.8849261" lon="32.3790325"><ele>231.7</ele><time>2015-04-24T16:25:07.0000000+00:00</time></trkpt><trkpt lat="34.8849493" lon="32.3789808"><ele>231.4</ele><time>2015-04-24T16:25:09.0000000+00:00</time></trkpt><trkpt lat="34.8849768" lon="32.3789306"><ele>231.0</ele><time>2015-04-24T16:25:11.0000000+00:00</time></trkpt><trkpt lat="34.8850046" lon="32.378885"><ele>231.0</ele><time>2015-04-24T16:25:13.0000000+00:00</time></trkpt><trkpt lat="34.8850366" lon="32.3788201"><ele>232.6</ele><time>2015-04-24T16:25:16.0000000+00:00</time></trkpt><trkpt lat="34.8850707" lon="32.3787619"><ele>233.1</ele><time>2015-04-24T16:25:19.0000000+00:00</time></trkpt><trkpt lat="34.8851099" lon="32.3787072"><ele>233.5</ele><time>2015-04-24T16:25:22.0000000+00:00</time></trkpt><trkpt lat="34.8851432" lon="32.3786457"><ele>233.1</ele><time>2015-04-24T16:25:25.0000000+00:00</time></trkpt><trkpt lat="34.8851705" lon="32.3785824"><ele>233.3</ele><time>2015-04-24T16:25:28.0000000+00:00</time></trkpt><trkpt lat="34.8851937" lon="32.3785226"><ele>234.6</ele><time>2015-04-24T16:25:31.0000000+00:00</time></trkpt><trkpt lat="34.885216" lon="32.378462"><ele>234.4</ele><time>2015-04-24T16:25:34.0000000+00:00</time></trkpt><trkpt lat="34.885243" lon="32.3784006"><ele>234.9</ele><time>2015-04-24T16:25:37.0000000+00:00</time></trkpt><trkpt lat="34.8852767" lon="32.3783399"><ele>235.5</ele><time>2015-04-24T16:25:40.0000000+00:00</time></trkpt><trkpt lat="34.8853104" lon="32.3782764"><ele>236.8</ele><time>2015-04-24T16:25:43.0000000+00:00</time></trkpt><trkpt lat="34.8853345" lon="32.3782113"><ele>237.4</ele><time>2015-04-24T16:25:46.0000000+00:00</time></trkpt><trkpt lat="34.8853621" lon="32.3781433"><ele>237.0</ele><time>2015-04-24T16:25:49.0000000+00:00</time></trkpt><trkpt lat="34.8853923" lon="32.3780772"><ele>236.9</ele><time>2015-04-24T16:25:52.0000000+00:00</time></trkpt><trkpt lat="34.8854189" lon="32.378012"><ele>236.2</ele><time>2015-04-24T16:25:55.0000000+00:00</time></trkpt><trkpt lat="34.8854511" lon="32.3779476"><ele>237.3</ele><time>2015-04-24T16:25:58.0000000+00:00</time></trkpt><trkpt lat="34.8854709" lon="32.3778787"><ele>237.7</ele><time>2015-04-24T16:26:01.0000000+00:00</time></trkpt><trkpt lat="34.8854968" lon="32.377815"><ele>238.7</ele><time>2015-04-24T16:26:04.0000000+00:00</time></trkpt><trkpt lat="34.8855282" lon="32.377756"><ele>238.5</ele><time>2015-04-24T16:26:07.0000000+00:00</time></trkpt><trkpt lat="34.8855646" lon="32.3776988"><ele>236.3</ele><time>2015-04-24T16:26:10.0000000+00:00</time></trkpt><trkpt lat="34.8855907" lon="32.377634"><ele>236.5</ele><time>2015-04-24T16:26:13.0000000+00:00</time></trkpt><trkpt lat="34.8856157" lon="32.3775727"><ele>236.1</ele><time>2015-04-24T16:26:16.0000000+00:00</time></trkpt><trkpt lat="34.8856351" lon="32.3775113"><ele>237.3</ele><time>2015-04-24T16:26:19.0000000+00:00</time></trkpt><trkpt lat="34.8856571" lon="32.3774547"><ele>238.4</ele><time>2015-04-24T16:26:22.0000000+00:00</time></trkpt><trkpt lat="34.8856872" lon="32.3773987"><ele>239.6</ele><time>2015-04-24T16:26:25.0000000+00:00</time></trkpt><trkpt lat="34.8857122" lon="32.3773373"><ele>240.8</ele><time>2015-04-24T16:26:28.0000000+00:00</time></trkpt><trkpt lat="34.8857369" lon="32.3772854"><ele>241.8</ele><time>2015-04-24T16:26:31.0000000+00:00</time></trkpt><trkpt lat="34.8857553" lon="32.3772284"><ele>242.8</ele><time>2015-04-24T16:26:34.0000000+00:00</time></trkpt><trkpt lat="34.8857871" lon="32.3771749"><ele>242.9</ele><time>2015-04-24T16:26:37.0000000+00:00</time></trkpt><trkpt lat="34.8858266" lon="32.3771258"><ele>244.6</ele><time>2015-04-24T16:26:40.0000000+00:00</time></trkpt><trkpt lat="34.8858605" lon="32.3770759"><ele>243.3</ele><time>2015-04-24T16:26:43.0000000+00:00</time></trkpt><trkpt lat="34.8859001" lon="32.3770306"><ele>243.2</ele><time>2015-04-24T16:26:46.0000000+00:00</time></trkpt><trkpt lat="34.8859432" lon="32.3769898"><ele>243.1</ele><time>2015-04-24T16:26:49.0000000+00:00</time></trkpt><trkpt lat="34.8859927" lon="32.3769566"><ele>242.2</ele><time>2015-04-24T16:26:52.0000000+00:00</time></trkpt><trkpt lat="34.8860435" lon="32.376932"><ele>243.3</ele><time>2015-04-24T16:26:55.0000000+00:00</time></trkpt><trkpt lat="34.886097" lon="32.3769135"><ele>243.9</ele><time>2015-04-24T16:26:58.0000000+00:00</time></trkpt><trkpt lat="34.8861544" lon="32.3769133"><ele>243.4</ele><time>2015-04-24T16:27:01.0000000+00:00</time></trkpt><trkpt lat="34.8862156" lon="32.3769261"><ele>244.1</ele><time>2015-04-24T16:27:04.0000000+00:00</time></trkpt><trkpt lat="34.8862717" lon="32.376954"><ele>245.3</ele><time>2015-04-24T16:27:07.0000000+00:00</time></trkpt><trkpt lat="34.8863235" lon="32.3769965"><ele>243.6</ele><time>2015-04-24T16:27:10.0000000+00:00</time></trkpt><trkpt lat="34.8863534" lon="32.3770387"><ele>244.1</ele><time>2015-04-24T16:27:12.0000000+00:00</time></trkpt><trkpt lat="34.8863737" lon="32.3770907"><ele>244.7</ele><time>2015-04-24T16:27:14.0000000+00:00</time></trkpt><trkpt lat="34.886387" lon="32.3771511"><ele>244.6</ele><time>2015-04-24T16:27:16.0000000+00:00</time></trkpt><trkpt lat="34.8863898" lon="32.3772148"><ele>244.4</ele><time>2015-04-24T16:27:18.0000000+00:00</time></trkpt><trkpt lat="34.8863774" lon="32.3772915"><ele>246.3</ele><time>2015-04-24T16:27:20.0000000+00:00</time></trkpt><trkpt lat="34.8863505" lon="32.3773738"><ele>246.8</ele><time>2015-04-24T16:27:22.0000000+00:00</time></trkpt><trkpt lat="34.8863176" lon="32.3774486"><ele>246.9</ele><time>2015-04-24T16:27:24.0000000+00:00</time></trkpt><trkpt lat="34.8862828" lon="32.3775208"><ele>248.2</ele><time>2015-04-24T16:27:26.0000000+00:00</time></trkpt><trkpt lat="34.8862508" lon="32.3775941"><ele>248.7</ele><time>2015-04-24T16:27:28.0000000+00:00</time></trkpt><trkpt lat="34.8862193" lon="32.3776585"><ele>249.6</ele><time>2015-04-24T16:27:30.0000000+00:00</time></trkpt><trkpt lat="34.8861909" lon="32.3777205"><ele>249.4</ele><time>2015-04-24T16:27:32.0000000+00:00</time></trkpt><trkpt lat="34.8861669" lon="32.3777818"><ele>249.8</ele><time>2015-04-24T16:27:34.0000000+00:00</time></trkpt><trkpt lat="34.886141" lon="32.3778339"><ele>250.4</ele><time>2015-04-24T16:27:36.0000000+00:00</time></trkpt><trkpt lat="34.8861145" lon="32.3778911"><ele>252.5</ele><time>2015-04-24T16:27:39.0000000+00:00</time></trkpt><trkpt lat="34.8861036" lon="32.3779581"><ele>254.7</ele><time>2015-04-24T16:27:42.0000000+00:00</time></trkpt><trkpt lat="34.8861004" lon="32.378031"><ele>256.3</ele><time>2015-04-24T16:27:45.0000000+00:00</time></trkpt><trkpt lat="34.8861199" lon="32.3780978"><ele>257.1</ele><time>2015-04-24T16:27:48.0000000+00:00</time></trkpt><trkpt lat="34.8861527" lon="32.3781401"><ele>257.1</ele><time>2015-04-24T16:27:51.0000000+00:00</time></trkpt><trkpt lat="34.8862099" lon="32.3781798"><ele>257.4</ele><time>2015-04-24T16:27:54.0000000+00:00</time></trkpt><trkpt lat="34.8862711" lon="32.3782007"><ele>258.4</ele><time>2015-04-24T16:27:57.0000000+00:00</time></trkpt><trkpt lat="34.8863213" lon="32.3782008"><ele>259.4</ele><time>2015-04-24T16:28:00.0000000+00:00</time></trkpt><trkpt lat="34.8863684" lon="32.3781965"><ele>259.9</ele><time>2015-04-24T16:28:03.0000000+00:00</time></trkpt><trkpt lat="34.8864214" lon="32.3781664"><ele>261.6</ele><time>2015-04-24T16:28:07.0000000+00:00</time></trkpt><trkpt lat="34.8864553" lon="32.3781154"><ele>262.8</ele><time>2015-04-24T16:28:10.0000000+00:00</time></trkpt><trkpt lat="34.8864948" lon="32.378058"><ele>263.4</ele><time>2015-04-24T16:28:13.0000000+00:00</time></trkpt><trkpt lat="34.8865308" lon="32.3779969"><ele>263.9</ele><time>2015-04-24T16:28:16.0000000+00:00</time></trkpt><trkpt lat="34.8865699" lon="32.3779377"><ele>264.4</ele><time>2015-04-24T16:28:19.0000000+00:00</time></trkpt><trkpt lat="34.8866107" lon="32.3778788"><ele>264.9</ele><time>2015-04-24T16:28:22.0000000+00:00</time></trkpt><trkpt lat="34.8866523" lon="32.3778237"><ele>265.7</ele><time>2015-04-24T16:28:25.0000000+00:00</time></trkpt><trkpt lat="34.8866882" lon="32.3777697"><ele>266.0</ele><time>2015-04-24T16:28:28.0000000+00:00</time></trkpt><trkpt lat="34.8867298" lon="32.3777222"><ele>266.4</ele><time>2015-04-24T16:28:31.0000000+00:00</time></trkpt><trkpt lat="34.8867704" lon="32.3776798"><ele>267.4</ele><time>2015-04-24T16:28:34.0000000+00:00</time></trkpt><trkpt lat="34.8868123" lon="32.377635"><ele>267.4</ele><time>2015-04-24T16:28:37.0000000+00:00</time></trkpt><trkpt lat="34.8868565" lon="32.3775993"><ele>267.9</ele><time>2015-04-24T16:28:40.0000000+00:00</time></trkpt><trkpt lat="34.8869023" lon="32.3775605"><ele>268.8</ele><time>2015-04-24T16:28:43.0000000+00:00</time></trkpt><trkpt lat="34.8869516" lon="32.3775181"><ele>268.9</ele><time>2015-04-24T16:28:46.0000000+00:00</time></trkpt><trkpt lat="34.8870022" lon="32.3774781"><ele>270.3</ele><time>2015-04-24T16:28:49.0000000+00:00</time></trkpt><trkpt lat="34.887052" lon="32.3774452"><ele>270.9</ele><time>2015-04-24T16:28:52.0000000+00:00</time></trkpt><trkpt lat="34.8871037" lon="32.3774177"><ele>271.8</ele><time>2015-04-24T16:28:55.0000000+00:00</time></trkpt><trkpt lat="34.887157" lon="32.3773866"><ele>271.9</ele><time>2015-04-24T16:28:58.0000000+00:00</time></trkpt><trkpt lat="34.887206" lon="32.3773488"><ele>272.7</ele><time>2015-04-24T16:29:01.0000000+00:00</time></trkpt><trkpt lat="34.8872675" lon="32.3773107"><ele>272.9</ele><time>2015-04-24T16:29:04.0000000+00:00</time></trkpt><trkpt lat="34.8873143" lon="32.3772803"><ele>273.4</ele><time>2015-04-24T16:29:06.0000000+00:00</time></trkpt><trkpt lat="34.8873611" lon="32.3772528"><ele>273.8</ele><time>2015-04-24T16:29:08.0000000+00:00</time></trkpt><trkpt lat="34.887407" lon="32.3772256"><ele>273.4</ele><time>2015-04-24T16:29:10.0000000+00:00</time></trkpt><trkpt lat="34.8874523" lon="32.377195"><ele>272.5</ele><time>2015-04-24T16:29:12.0000000+00:00</time></trkpt><trkpt lat="34.8874949" lon="32.3771631"><ele>272.8</ele><time>2015-04-24T16:29:14.0000000+00:00</time></trkpt><trkpt lat="34.8875346" lon="32.3771279"><ele>273.9</ele><time>2015-04-24T16:29:16.0000000+00:00</time></trkpt><trkpt lat="34.8875713" lon="32.3770892"><ele>274.7</ele><time>2015-04-24T16:29:18.0000000+00:00</time></trkpt><trkpt lat="34.8876019" lon="32.3770476"><ele>276.1</ele><time>2015-04-24T16:29:20.0000000+00:00</time></trkpt><trkpt lat="34.8876406" lon="32.3769812"><ele>277.3</ele><time>2015-04-24T16:29:23.0000000+00:00</time></trkpt><trkpt lat="34.8876628" lon="32.3769313"><ele>277.8</ele><time>2015-04-24T16:29:25.0000000+00:00</time></trkpt><trkpt lat="34.8876953" lon="32.3768617"><ele>278.4</ele><time>2015-04-24T16:29:28.0000000+00:00</time></trkpt><trkpt lat="34.8877267" lon="32.3767891"><ele>278.9</ele><time>2015-04-24T16:29:31.0000000+00:00</time></trkpt><trkpt lat="34.8877463" lon="32.3767345"><ele>279.4</ele><time>2015-04-24T16:29:33.0000000+00:00</time></trkpt><trkpt lat="34.8877696" lon="32.3766608"><ele>279.6</ele><time>2015-04-24T16:29:35.0000000+00:00</time></trkpt><trkpt lat="34.8877888" lon="32.3765865"><ele>279.9</ele><time>2015-04-24T16:29:38.0000000+00:00</time></trkpt><trkpt lat="34.8878033" lon="32.3765095"><ele>279.9</ele><time>2015-04-24T16:29:41.0000000+00:00</time></trkpt><trkpt lat="34.887816" lon="32.376429"><ele>280.4</ele><time>2015-04-24T16:29:44.0000000+00:00</time></trkpt><trkpt lat="34.8878192" lon="32.3763721"><ele>281.3</ele><time>2015-04-24T16:29:46.0000000+00:00</time></trkpt><trkpt lat="34.8878209" lon="32.376312"><ele>281.8</ele><time>2015-04-24T16:29:48.0000000+00:00</time></trkpt><trkpt lat="34.8878219" lon="32.3762547"><ele>281.9</ele><time>2015-04-24T16:29:50.0000000+00:00</time></trkpt><trkpt lat="34.88782" lon="32.3761852"><ele>282.4</ele><time>2015-04-24T16:29:53.0000000+00:00</time></trkpt><trkpt lat="34.8878146" lon="32.3761183"><ele>283.6</ele><time>2015-04-24T16:29:56.0000000+00:00</time></trkpt><trkpt lat="34.8878082" lon="32.3760363"><ele>284.4</ele><time>2015-04-24T16:29:59.0000000+00:00</time></trkpt><trkpt lat="34.8878051" lon="32.3759726"><ele>284.8</ele><time>2015-04-24T16:30:01.0000000+00:00</time></trkpt><trkpt lat="34.8878024" lon="32.3759116"><ele>284.9</ele><time>2015-04-24T16:30:03.0000000+00:00</time></trkpt><trkpt lat="34.8878007" lon="32.3758491"><ele>284.4</ele><time>2015-04-24T16:30:05.0000000+00:00</time></trkpt><trkpt lat="34.8878017" lon="32.3757906"><ele>283.6</ele><time>2015-04-24T16:30:07.0000000+00:00</time></trkpt><trkpt lat="34.8878012" lon="32.3757308"><ele>283.8</ele><time>2015-04-24T16:30:09.0000000+00:00</time></trkpt><trkpt lat="34.8878011" lon="32.3756748"><ele>283.9</ele><time>2015-04-24T16:30:11.0000000+00:00</time></trkpt><trkpt lat="34.8877986" lon="32.375599"><ele>284.7</ele><time>2015-04-24T16:30:14.0000000+00:00</time></trkpt><trkpt lat="34.8877961" lon="32.3755291"><ele>284.9</ele><time>2015-04-24T16:30:17.0000000+00:00</time></trkpt><trkpt lat="34.8877936" lon="32.3754672"><ele>284.9</ele><time>2015-04-24T16:30:20.0000000+00:00</time></trkpt><trkpt lat="34.88779" lon="32.3753943"><ele>285.8</ele><time>2015-04-24T16:30:23.0000000+00:00</time></trkpt><trkpt lat="34.8877882" lon="32.3753094"><ele>286.4</ele><time>2015-04-24T16:30:26.0000000+00:00</time></trkpt><trkpt lat="34.887783" lon="32.3752425"><ele>287.3</ele><time>2015-04-24T16:30:28.0000000+00:00</time></trkpt><trkpt lat="34.8877783" lon="32.3751752"><ele>287.8</ele><time>2015-04-24T16:30:30.0000000+00:00</time></trkpt><trkpt lat="34.8877762" lon="32.3751048"><ele>287.9</ele><time>2015-04-24T16:30:32.0000000+00:00</time></trkpt><trkpt lat="34.8877728" lon="32.3750368"><ele>288.4</ele><time>2015-04-24T16:30:34.0000000+00:00</time></trkpt><trkpt lat="34.887775" lon="32.3749781"><ele>289.3</ele><time>2015-04-24T16:30:36.0000000+00:00</time></trkpt><trkpt lat="34.8877734" lon="32.3749233"><ele>289.8</ele><time>2015-04-24T16:30:38.0000000+00:00</time></trkpt><trkpt lat="34.887768" lon="32.374867"><ele>290.4</ele><time>2015-04-24T16:30:40.0000000+00:00</time></trkpt><trkpt lat="34.8877662" lon="32.374809"><ele>290.8</ele><time>2015-04-24T16:30:42.0000000+00:00</time></trkpt><trkpt lat="34.8877652" lon="32.3747518"><ele>290.9</ele><time>2015-04-24T16:30:44.0000000+00:00</time></trkpt><trkpt lat="34.8877615" lon="32.374694"><ele>291.4</ele><time>2015-04-24T16:30:46.0000000+00:00</time></trkpt><trkpt lat="34.8877554" lon="32.3746381"><ele>291.6</ele><time>2015-04-24T16:30:48.0000000+00:00</time></trkpt><trkpt lat="34.8877514" lon="32.374581"><ele>291.8</ele><time>2015-04-24T16:30:50.0000000+00:00</time></trkpt><trkpt lat="34.8877494" lon="32.3745258"><ele>292.4</ele><time>2015-04-24T16:30:52.0000000+00:00</time></trkpt><trkpt lat="34.8877497" lon="32.3744454"><ele>292.9</ele><time>2015-04-24T16:30:55.0000000+00:00</time></trkpt><trkpt lat="34.8877382" lon="32.3743666"><ele>293.8</ele><time>2015-04-24T16:30:58.0000000+00:00</time></trkpt><trkpt lat="34.8877329" lon="32.3742893"><ele>294.8</ele><time>2015-04-24T16:31:01.0000000+00:00</time></trkpt><trkpt lat="34.8877351" lon="32.3742189"><ele>294.0</ele><time>2015-04-24T16:31:04.0000000+00:00</time></trkpt><trkpt lat="34.8877324" lon="32.3741445"><ele>294.2</ele><time>2015-04-24T16:31:07.0000000+00:00</time></trkpt><trkpt lat="34.8877364" lon="32.3740692"><ele>293.7</ele><time>2015-04-24T16:31:10.0000000+00:00</time></trkpt><trkpt lat="34.8877402" lon="32.373992"><ele>294.2</ele><time>2015-04-24T16:31:13.0000000+00:00</time></trkpt><trkpt lat="34.8877443" lon="32.3739144"><ele>294.8</ele><time>2015-04-24T16:31:16.0000000+00:00</time></trkpt><trkpt lat="34.8877513" lon="32.3738357"><ele>294.9</ele><time>2015-04-24T16:31:19.0000000+00:00</time></trkpt><trkpt lat="34.8877566" lon="32.3737809"><ele>294.9</ele><time>2015-04-24T16:31:21.0000000+00:00</time></trkpt><trkpt lat="34.8877637" lon="32.3737221"><ele>295.7</ele><time>2015-04-24T16:31:23.0000000+00:00</time></trkpt><trkpt lat="34.887771" lon="32.3736438"><ele>296.6</ele><time>2015-04-24T16:31:26.0000000+00:00</time></trkpt><trkpt lat="34.8877739" lon="32.3735632"><ele>297.6</ele><time>2015-04-24T16:31:29.0000000+00:00</time></trkpt><trkpt lat="34.8877769" lon="32.3735014"><ele>297.9</ele><time>2015-04-24T16:31:31.0000000+00:00</time></trkpt><trkpt lat="34.8877817" lon="32.373441"><ele>297.9</ele><time>2015-04-24T16:31:33.0000000+00:00</time></trkpt><trkpt lat="34.8877861" lon="32.3733843"><ele>298.2</ele><time>2015-04-24T16:31:35.0000000+00:00</time></trkpt><trkpt lat="34.8877929" lon="32.3733269"><ele>298.7</ele><time>2015-04-24T16:31:37.0000000+00:00</time></trkpt><trkpt lat="34.8878015" lon="32.3732704"><ele>298.9</ele><time>2015-04-24T16:31:39.0000000+00:00</time></trkpt><trkpt lat="34.8878068" lon="32.3732114"><ele>299.7</ele><time>2015-04-24T16:31:41.0000000+00:00</time></trkpt><trkpt lat="34.8878217" lon="32.3731335"><ele>299.4</ele><time>2015-04-24T16:31:44.0000000+00:00</time></trkpt><trkpt lat="34.8878295" lon="32.3730641"><ele>299.9</ele><time>2015-04-24T16:31:47.0000000+00:00</time></trkpt><trkpt lat="34.8878356" lon="32.3729863"><ele>299.9</ele><time>2015-04-24T16:31:50.0000000+00:00</time></trkpt><trkpt lat="34.887842" lon="32.3729038"><ele>300.4</ele><time>2015-04-24T16:31:53.0000000+00:00</time></trkpt><trkpt lat="34.8878422" lon="32.3728454"><ele>301.3</ele><time>2015-04-24T16:31:55.0000000+00:00</time></trkpt><trkpt lat="34.8878462" lon="32.3727853"><ele>301.0</ele><time>2015-04-24T16:31:57.0000000+00:00</time></trkpt><trkpt lat="34.8878496" lon="32.3727255"><ele>301.7</ele><time>2015-04-24T16:31:59.0000000+00:00</time></trkpt><trkpt lat="34.8878541" lon="32.3726652"><ele>302.6</ele><time>2015-04-24T16:32:01.0000000+00:00</time></trkpt><trkpt lat="34.8878599" lon="32.3726096"><ele>303.4</ele><time>2015-04-24T16:32:03.0000000+00:00</time></trkpt><trkpt lat="34.8878669" lon="32.3725535"><ele>303.8</ele><time>2015-04-24T16:32:05.0000000+00:00</time></trkpt><trkpt lat="34.8878769" lon="32.3724986"><ele>304.4</ele><time>2015-04-24T16:32:07.0000000+00:00</time></trkpt><trkpt lat="34.887886" lon="32.3724326"><ele>304.7</ele><time>2015-04-24T16:32:10.0000000+00:00</time></trkpt><trkpt lat="34.8878964" lon="32.3723675"><ele>304.9</ele><time>2015-04-24T16:32:14.0000000+00:00</time></trkpt><trkpt lat="34.887906" lon="32.3723128"><ele>304.1</ele><time>2015-04-24T16:32:17.0000000+00:00</time></trkpt><trkpt lat="34.8879155" lon="32.3722362"><ele>304.8</ele><time>2015-04-24T16:32:20.0000000+00:00</time></trkpt><trkpt lat="34.8879304" lon="32.3721579"><ele>305.8</ele><time>2015-04-24T16:32:23.0000000+00:00</time></trkpt><trkpt lat="34.8879492" lon="32.3720854"><ele>305.9</ele><time>2015-04-24T16:32:26.0000000+00:00</time></trkpt><trkpt lat="34.8879577" lon="32.3720154"><ele>306.4</ele><time>2015-04-24T16:32:29.0000000+00:00</time></trkpt><trkpt lat="34.8879687" lon="32.371959"><ele>306.9</ele><time>2015-04-24T16:32:32.0000000+00:00</time></trkpt><trkpt lat="34.8879858" lon="32.3718973"><ele>306.9</ele><time>2015-04-24T16:32:35.0000000+00:00</time></trkpt><trkpt lat="34.8880084" lon="32.3718276"><ele>306.9</ele><time>2015-04-24T16:32:38.0000000+00:00</time></trkpt><trkpt lat="34.8880353" lon="32.3717652"><ele>307.2</ele><time>2015-04-24T16:32:41.0000000+00:00</time></trkpt><trkpt lat="34.8880666" lon="32.3717045"><ele>307.0</ele><time>2015-04-24T16:32:44.0000000+00:00</time></trkpt><trkpt lat="34.8880942" lon="32.371641"><ele>306.6</ele><time>2015-04-24T16:32:47.0000000+00:00</time></trkpt><trkpt lat="34.8881276" lon="32.3715758"><ele>306.9</ele><time>2015-04-24T16:32:50.0000000+00:00</time></trkpt><trkpt lat="34.8881624" lon="32.3715119"><ele>307.7</ele><time>2015-04-24T16:32:53.0000000+00:00</time></trkpt><trkpt lat="34.8881874" lon="32.3714653"><ele>308.6</ele><time>2015-04-24T16:32:55.0000000+00:00</time></trkpt><trkpt lat="34.8882145" lon="32.3714186"><ele>309.6</ele><time>2015-04-24T16:32:57.0000000+00:00</time></trkpt><trkpt lat="34.8882434" lon="32.3713625"><ele>309.3</ele><time>2015-04-24T16:33:00.0000000+00:00</time></trkpt><trkpt lat="34.8882813" lon="32.3713045"><ele>309.8</ele><time>2015-04-24T16:33:03.0000000+00:00</time></trkpt><trkpt lat="34.8883236" lon="32.371245"><ele>311.3</ele><time>2015-04-24T16:33:06.0000000+00:00</time></trkpt><trkpt lat="34.8883531" lon="32.3712024"><ele>311.3</ele><time>2015-04-24T16:33:08.0000000+00:00</time></trkpt><trkpt lat="34.8883805" lon="32.3711558"><ele>310.8</ele><time>2015-04-24T16:33:10.0000000+00:00</time></trkpt><trkpt lat="34.8884231" lon="32.3710932"><ele>311.8</ele><time>2015-04-24T16:33:13.0000000+00:00</time></trkpt><trkpt lat="34.8884683" lon="32.3710368"><ele>311.9</ele><time>2015-04-24T16:33:16.0000000+00:00</time></trkpt><trkpt lat="34.8885132" lon="32.3709787"><ele>312.8</ele><time>2015-04-24T16:33:19.0000000+00:00</time></trkpt><trkpt lat="34.8885613" lon="32.370917"><ele>312.9</ele><time>2015-04-24T16:33:22.0000000+00:00</time></trkpt><trkpt lat="34.8885926" lon="32.3708762"><ele>312.9</ele><time>2015-04-24T16:33:24.0000000+00:00</time></trkpt><trkpt lat="34.8886406" lon="32.3708208"><ele>312.9</ele><time>2015-04-24T16:33:27.0000000+00:00</time></trkpt><trkpt lat="34.888672" lon="32.3707804"><ele>313.7</ele><time>2015-04-24T16:33:29.0000000+00:00</time></trkpt><trkpt lat="34.8887179" lon="32.3707231"><ele>313.9</ele><time>2015-04-24T16:33:32.0000000+00:00</time></trkpt><trkpt lat="34.8887574" lon="32.370667"><ele>314.4</ele><time>2015-04-24T16:33:35.0000000+00:00</time></trkpt><trkpt lat="34.8887995" lon="32.3706109"><ele>315.4</ele><time>2015-04-24T16:33:38.0000000+00:00</time></trkpt><trkpt lat="34.8888325" lon="32.3705712"><ele>315.8</ele><time>2015-04-24T16:33:40.0000000+00:00</time></trkpt><trkpt lat="34.8888669" lon="32.3705341"><ele>315.9</ele><time>2015-04-24T16:33:42.0000000+00:00</time></trkpt><trkpt lat="34.8889153" lon="32.3704789"><ele>315.9</ele><time>2015-04-24T16:33:45.0000000+00:00</time></trkpt><trkpt lat="34.888965" lon="32.3704223"><ele>316.8</ele><time>2015-04-24T16:33:48.0000000+00:00</time></trkpt><trkpt lat="34.8890137" lon="32.3703676"><ele>316.8</ele><time>2015-04-24T16:33:51.0000000+00:00</time></trkpt><trkpt lat="34.8890641" lon="32.3703156"><ele>316.9</ele><time>2015-04-24T16:33:54.0000000+00:00</time></trkpt><trkpt lat="34.8891119" lon="32.3702607"><ele>316.9</ele><time>2015-04-24T16:33:57.0000000+00:00</time></trkpt><trkpt lat="34.889143" lon="32.3702181"><ele>316.9</ele><time>2015-04-24T16:33:59.0000000+00:00</time></trkpt><trkpt lat="34.8891822" lon="32.3701769"><ele>317.4</ele><time>2015-04-24T16:34:01.0000000+00:00</time></trkpt><trkpt lat="34.8892167" lon="32.370136"><ele>317.8</ele><time>2015-04-24T16:34:03.0000000+00:00</time></trkpt><trkpt lat="34.8892524" lon="32.3700952"><ele>317.9</ele><time>2015-04-24T16:34:05.0000000+00:00</time></trkpt><trkpt lat="34.8892889" lon="32.370055"><ele>318.7</ele><time>2015-04-24T16:34:07.0000000+00:00</time></trkpt><trkpt lat="34.889322" lon="32.370013"><ele>318.9</ele><time>2015-04-24T16:34:09.0000000+00:00</time></trkpt><trkpt lat="34.8893552" lon="32.3699734"><ele>319.4</ele><time>2015-04-24T16:34:11.0000000+00:00</time></trkpt><trkpt lat="34.8893902" lon="32.3699337"><ele>319.8</ele><time>2015-04-24T16:34:13.0000000+00:00</time></trkpt><trkpt lat="34.889423" lon="32.369896"><ele>319.9</ele><time>2015-04-24T16:34:15.0000000+00:00</time></trkpt><trkpt lat="34.8894637" lon="32.3698467"><ele>319.9</ele><time>2015-04-24T16:34:18.0000000+00:00</time></trkpt><trkpt lat="34.8895158" lon="32.3697848"><ele>319.9</ele><time>2015-04-24T16:34:21.0000000+00:00</time></trkpt><trkpt lat="34.8895565" lon="32.369734"><ele>319.9</ele><time>2015-04-24T16:34:23.0000000+00:00</time></trkpt><trkpt lat="34.8896005" lon="32.3696832"><ele>319.9</ele><time>2015-04-24T16:34:25.0000000+00:00</time></trkpt><trkpt lat="34.8896391" lon="32.3696326"><ele>320.4</ele><time>2015-04-24T16:34:27.0000000+00:00</time></trkpt><trkpt lat="34.8896767" lon="32.3695648"><ele>320.9</ele><time>2015-04-24T16:34:30.0000000+00:00</time></trkpt><trkpt lat="34.8897151" lon="32.3695016"><ele>321.4</ele><time>2015-04-24T16:34:32.0000000+00:00</time></trkpt><trkpt lat="34.8897514" lon="32.3694306"><ele>321.8</ele><time>2015-04-24T16:34:34.0000000+00:00</time></trkpt><trkpt lat="34.8897826" lon="32.369365"><ele>321.9</ele><time>2015-04-24T16:34:36.0000000+00:00</time></trkpt><trkpt lat="34.8898101" lon="32.369301"><ele>322.4</ele><time>2015-04-24T16:34:38.0000000+00:00</time></trkpt><trkpt lat="34.8898352" lon="32.3692357"><ele>322.8</ele><time>2015-04-24T16:34:40.0000000+00:00</time></trkpt><trkpt lat="34.8898574" lon="32.3691703"><ele>323.4</ele><time>2015-04-24T16:34:42.0000000+00:00</time></trkpt><trkpt lat="34.8898795" lon="32.3691072"><ele>323.8</ele><time>2015-04-24T16:34:44.0000000+00:00</time></trkpt><trkpt lat="34.8899023" lon="32.3690415"><ele>323.9</ele><time>2015-04-24T16:34:46.0000000+00:00</time></trkpt><trkpt lat="34.889929" lon="32.368974"><ele>324.7</ele><time>2015-04-24T16:34:48.0000000+00:00</time></trkpt><trkpt lat="34.8899502" lon="32.3689054"><ele>325.4</ele><time>2015-04-24T16:34:50.0000000+00:00</time></trkpt><trkpt lat="34.8899701" lon="32.3688405"><ele>325.0</ele><time>2015-04-24T16:34:52.0000000+00:00</time></trkpt><trkpt lat="34.8899892" lon="32.3687633"><ele>324.9</ele><time>2015-04-24T16:34:55.0000000+00:00</time></trkpt><trkpt lat="34.89" lon="32.3687071"><ele>325.7</ele><time>2015-04-24T16:34:57.0000000+00:00</time></trkpt><trkpt lat="34.8900123" lon="32.3686497"><ele>326.4</ele><time>2015-04-24T16:34:59.0000000+00:00</time></trkpt><trkpt lat="34.8900248" lon="32.3685879"><ele>326.8</ele><time>2015-04-24T16:35:01.0000000+00:00</time></trkpt><trkpt lat="34.8900408" lon="32.3685285"><ele>326.9</ele><time>2015-04-24T16:35:03.0000000+00:00</time></trkpt><trkpt lat="34.8900547" lon="32.368471"><ele>326.9</ele><time>2015-04-24T16:35:05.0000000+00:00</time></trkpt><trkpt lat="34.8900666" lon="32.3684144"><ele>327.2</ele><time>2015-04-24T16:35:07.0000000+00:00</time></trkpt><trkpt lat="34.8900799" lon="32.3683513"><ele>327.7</ele><time>2015-04-24T16:35:09.0000000+00:00</time></trkpt><trkpt lat="34.8900948" lon="32.3682899"><ele>327.9</ele><time>2015-04-24T16:35:11.0000000+00:00</time></trkpt><trkpt lat="34.8901127" lon="32.3682256"><ele>328.7</ele><time>2015-04-24T16:35:13.0000000+00:00</time></trkpt><trkpt lat="34.8901278" lon="32.3681663"><ele>328.9</ele><time>2015-04-24T16:35:15.0000000+00:00</time></trkpt><trkpt lat="34.8901422" lon="32.3681103"><ele>329.4</ele><time>2015-04-24T16:35:17.0000000+00:00</time></trkpt><trkpt lat="34.8901576" lon="32.3680556"><ele>329.1</ele><time>2015-04-24T16:35:19.0000000+00:00</time></trkpt><trkpt lat="34.8901733" lon="32.3679982"><ele>329.0</ele><time>2015-04-24T16:35:21.0000000+00:00</time></trkpt><trkpt lat="34.8901874" lon="32.3679423"><ele>329.7</ele><time>2015-04-24T16:35:23.0000000+00:00</time></trkpt><trkpt lat="34.8902027" lon="32.3678891"><ele>330.4</ele><time>2015-04-24T16:35:25.0000000+00:00</time></trkpt><trkpt lat="34.8902245" lon="32.367812"><ele>330.1</ele><time>2015-04-24T16:35:28.0000000+00:00</time></trkpt><trkpt lat="34.8902455" lon="32.3677371"><ele>330.2</ele><time>2015-04-24T16:35:31.0000000+00:00</time></trkpt><trkpt lat="34.8902664" lon="32.3676618"><ele>329.1</ele><time>2015-04-24T16:35:34.0000000+00:00</time></trkpt><trkpt lat="34.8902948" lon="32.36759"><ele>329.8</ele><time>2015-04-24T16:35:37.0000000+00:00</time></trkpt><trkpt lat="34.8903093" lon="32.3675368"><ele>329.9</ele><time>2015-04-24T16:35:39.0000000+00:00</time></trkpt><trkpt lat="34.8903299" lon="32.3674838"><ele>328.2</ele><time>2015-04-24T16:35:41.0000000+00:00</time></trkpt><trkpt lat="34.8903521" lon="32.367433"><ele>327.7</ele><time>2015-04-24T16:35:43.0000000+00:00</time></trkpt><trkpt lat="34.8903697" lon="32.3673814"><ele>327.9</ele><time>2015-04-24T16:35:45.0000000+00:00</time></trkpt><trkpt lat="34.8903809" lon="32.367318"><ele>328.7</ele><time>2015-04-24T16:35:48.0000000+00:00</time></trkpt><trkpt lat="34.8903945" lon="32.3672574"><ele>328.6</ele><time>2015-04-24T16:35:51.0000000+00:00</time></trkpt><trkpt lat="34.8904076" lon="32.3671933"><ele>328.6</ele><time>2015-04-24T16:35:54.0000000+00:00</time></trkpt><trkpt lat="34.8904232" lon="32.3671359"><ele>330.1</ele><time>2015-04-24T16:35:57.0000000+00:00</time></trkpt><trkpt lat="34.8904431" lon="32.3670772"><ele>330.8</ele><time>2015-04-24T16:36:01.0000000+00:00</time></trkpt><trkpt lat="34.8904372" lon="32.3670072"><ele>330.9</ele><time>2015-04-24T16:36:05.0000000+00:00</time></trkpt><trkpt lat="34.8904698" lon="32.3669481"><ele>331.5</ele><time>2015-04-24T16:37:57.0000000+00:00</time></trkpt><trkpt lat="34.8904958" lon="32.3668772"><ele>331.9</ele><time>2015-04-24T16:38:00.0000000+00:00</time></trkpt><trkpt lat="34.8905184" lon="32.3668198"><ele>331.9</ele><time>2015-04-24T16:38:02.0000000+00:00</time></trkpt><trkpt lat="34.8905441" lon="32.3667411"><ele>331.2</ele><time>2015-04-24T16:38:04.0000000+00:00</time></trkpt><trkpt lat="34.8905709" lon="32.3666404"><ele>331.2</ele><time>2015-04-24T16:38:06.0000000+00:00</time></trkpt><trkpt lat="34.8905863" lon="32.3665833"><ele>331.1</ele><time>2015-04-24T16:38:07.0000000+00:00</time></trkpt><trkpt lat="34.8906037" lon="32.3665087"><ele>330.5</ele><time>2015-04-24T16:38:08.0000000+00:00</time></trkpt><trkpt lat="34.8906146" lon="32.3664453"><ele>329.7</ele><time>2015-04-24T16:38:09.0000000+00:00</time></trkpt><trkpt lat="34.8906296" lon="32.3663692"><ele>329.3</ele><time>2015-04-24T16:38:10.0000000+00:00</time></trkpt><trkpt lat="34.8906406" lon="32.366289"><ele>329.1</ele><time>2015-04-24T16:38:11.0000000+00:00</time></trkpt><trkpt lat="34.8906532" lon="32.3661987"><ele>329.5</ele><time>2015-04-24T16:38:12.0000000+00:00</time></trkpt><trkpt lat="34.8906698" lon="32.3661112"><ele>329.7</ele><time>2015-04-24T16:38:13.0000000+00:00</time></trkpt><trkpt lat="34.8906838" lon="32.3660226"><ele>329.8</ele><time>2015-04-24T16:38:14.0000000+00:00</time></trkpt><trkpt lat="34.8907024" lon="32.3659456"><ele>329.4</ele><time>2015-04-24T16:38:15.0000000+00:00</time></trkpt><trkpt lat="34.8907292" lon="32.3658705"><ele>328.7</ele><time>2015-04-24T16:38:16.0000000+00:00</time></trkpt><trkpt lat="34.8907582" lon="32.3658018"><ele>328.3</ele><time>2015-04-24T16:38:17.0000000+00:00</time></trkpt><trkpt lat="34.8907959" lon="32.3657429"><ele>327.6</ele><time>2015-04-24T16:38:18.0000000+00:00</time></trkpt><trkpt lat="34.8908383" lon="32.365686"><ele>327.3</ele><time>2015-04-24T16:38:19.0000000+00:00</time></trkpt><trkpt lat="34.8908764" lon="32.3656315"><ele>327.1</ele><time>2015-04-24T16:38:20.0000000+00:00</time></trkpt><trkpt lat="34.8909132" lon="32.3655862"><ele>327.0</ele><time>2015-04-24T16:38:21.0000000+00:00</time></trkpt><trkpt lat="34.8909507" lon="32.3655386"><ele>327.5</ele><time>2015-04-24T16:38:22.0000000+00:00</time></trkpt><trkpt lat="34.8909871" lon="32.3654986"><ele>327.2</ele><time>2015-04-24T16:38:23.0000000+00:00</time></trkpt><trkpt lat="34.8910407" lon="32.3654272"><ele>327.2</ele><time>2015-04-24T16:38:25.0000000+00:00</time></trkpt><trkpt lat="34.8910866" lon="32.3653728"><ele>327.8</ele><time>2015-04-24T16:38:27.0000000+00:00</time></trkpt><trkpt lat="34.8911205" lon="32.365316"><ele>328.8</ele><time>2015-04-24T16:38:30.0000000+00:00</time></trkpt><trkpt lat="34.8911423" lon="32.3652484"><ele>328.9</ele><time>2015-04-24T16:38:35.0000000+00:00</time></trkpt><trkpt lat="34.8911586" lon="32.3651942"><ele>329.7</ele><time>2015-04-24T16:38:37.0000000+00:00</time></trkpt><trkpt lat="34.8911822" lon="32.3651152"><ele>330.6</ele><time>2015-04-24T16:38:39.0000000+00:00</time></trkpt><trkpt lat="34.8912028" lon="32.3650306"><ele>331.6</ele><time>2015-04-24T16:38:41.0000000+00:00</time></trkpt><trkpt lat="34.8912178" lon="32.3649518"><ele>332.3</ele><time>2015-04-24T16:38:43.0000000+00:00</time></trkpt><trkpt lat="34.8912307" lon="32.3648817"><ele>332.8</ele><time>2015-04-24T16:38:45.0000000+00:00</time></trkpt><trkpt lat="34.891246" lon="32.3648182"><ele>332.6</ele><time>2015-04-24T16:38:47.0000000+00:00</time></trkpt><trkpt lat="34.8912593" lon="32.3647533"><ele>332.9</ele><time>2015-04-24T16:38:49.0000000+00:00</time></trkpt><trkpt lat="34.8912762" lon="32.3646907"><ele>332.4</ele><time>2015-04-24T16:38:51.0000000+00:00</time></trkpt><trkpt lat="34.891289" lon="32.3646272"><ele>332.6</ele><time>2015-04-24T16:38:53.0000000+00:00</time></trkpt><trkpt lat="34.8912987" lon="32.3645634"><ele>332.6</ele><time>2015-04-24T16:38:55.0000000+00:00</time></trkpt><trkpt lat="34.8913096" lon="32.3644971"><ele>332.8</ele><time>2015-04-24T16:38:57.0000000+00:00</time></trkpt><trkpt lat="34.8913232" lon="32.3644327"><ele>332.9</ele><time>2015-04-24T16:38:59.0000000+00:00</time></trkpt><trkpt lat="34.891342" lon="32.3643665"><ele>332.9</ele><time>2015-04-24T16:39:01.0000000+00:00</time></trkpt><trkpt lat="34.8913587" lon="32.3643037"><ele>332.9</ele><time>2015-04-24T16:39:03.0000000+00:00</time></trkpt><trkpt lat="34.8913718" lon="32.3642377"><ele>333.4</ele><time>2015-04-24T16:39:05.0000000+00:00</time></trkpt><trkpt lat="34.8913836" lon="32.3641751"><ele>333.8</ele><time>2015-04-24T16:39:07.0000000+00:00</time></trkpt><trkpt lat="34.8913984" lon="32.3641113"><ele>335.1</ele><time>2015-04-24T16:39:09.0000000+00:00</time></trkpt><trkpt lat="34.8914138" lon="32.3640498"><ele>335.7</ele><time>2015-04-24T16:39:11.0000000+00:00</time></trkpt><trkpt lat="34.891433" lon="32.3639856"><ele>336.1</ele><time>2015-04-24T16:39:13.0000000+00:00</time></trkpt><trkpt lat="34.8914546" lon="32.3639255"><ele>336.0</ele><time>2015-04-24T16:39:15.0000000+00:00</time></trkpt><trkpt lat="34.8914732" lon="32.3638662"><ele>336.4</ele><time>2015-04-24T16:39:17.0000000+00:00</time></trkpt><trkpt lat="34.8914943" lon="32.3638054"><ele>336.8</ele><time>2015-04-24T16:39:19.0000000+00:00</time></trkpt><trkpt lat="34.8915192" lon="32.3637455"><ele>337.1</ele><time>2015-04-24T16:39:21.0000000+00:00</time></trkpt><trkpt lat="34.8915472" lon="32.3636925"><ele>337.0</ele><time>2015-04-24T16:39:23.0000000+00:00</time></trkpt><trkpt lat="34.8915748" lon="32.3636322"><ele>337.7</ele><time>2015-04-24T16:39:25.0000000+00:00</time></trkpt><trkpt lat="34.8916077" lon="32.3635785"><ele>337.4</ele><time>2015-04-24T16:39:27.0000000+00:00</time></trkpt><trkpt lat="34.8916429" lon="32.3635289"><ele>337.0</ele><time>2015-04-24T16:39:29.0000000+00:00</time></trkpt><trkpt lat="34.8916759" lon="32.3634808"><ele>337.5</ele><time>2015-04-24T16:39:31.0000000+00:00</time></trkpt><trkpt lat="34.8917143" lon="32.3634273"><ele>338.6</ele><time>2015-04-24T16:39:33.0000000+00:00</time></trkpt><trkpt lat="34.8917499" lon="32.3633709"><ele>339.3</ele><time>2015-04-24T16:39:35.0000000+00:00</time></trkpt><trkpt lat="34.891793" lon="32.3633209"><ele>340.3</ele><time>2015-04-24T16:39:37.0000000+00:00</time></trkpt><trkpt lat="34.8918356" lon="32.3632716"><ele>340.5</ele><time>2015-04-24T16:39:39.0000000+00:00</time></trkpt><trkpt lat="34.8918802" lon="32.3632202"><ele>341.3</ele><time>2015-04-24T16:39:41.0000000+00:00</time></trkpt><trkpt lat="34.8919266" lon="32.3631743"><ele>341.8</ele><time>2015-04-24T16:39:43.0000000+00:00</time></trkpt><trkpt lat="34.8919762" lon="32.363132"><ele>342.4</ele><time>2015-04-24T16:39:45.0000000+00:00</time></trkpt><trkpt lat="34.8920267" lon="32.3630942"><ele>342.3</ele><time>2015-04-24T16:39:47.0000000+00:00</time></trkpt><trkpt lat="34.8920782" lon="32.3630562"><ele>342.0</ele><time>2015-04-24T16:39:49.0000000+00:00</time></trkpt><trkpt lat="34.8921296" lon="32.3630242"><ele>342.5</ele><time>2015-04-24T16:39:51.0000000+00:00</time></trkpt><trkpt lat="34.8921807" lon="32.3629973"><ele>343.6</ele><time>2015-04-24T16:39:53.0000000+00:00</time></trkpt><trkpt lat="34.8922317" lon="32.3629683"><ele>343.8</ele><time>2015-04-24T16:39:55.0000000+00:00</time></trkpt><trkpt lat="34.8922873" lon="32.3629376"><ele>343.9</ele><time>2015-04-24T16:39:57.0000000+00:00</time></trkpt><trkpt lat="34.892346" lon="32.3629156"><ele>343.9</ele><time>2015-04-24T16:39:59.0000000+00:00</time></trkpt><trkpt lat="34.892408" lon="32.3628989"><ele>343.9</ele><time>2015-04-24T16:40:01.0000000+00:00</time></trkpt><trkpt lat="34.892468" lon="32.36289"><ele>343.4</ele><time>2015-04-24T16:40:03.0000000+00:00</time></trkpt><trkpt lat="34.8925289" lon="32.3628801"><ele>343.8</ele><time>2015-04-24T16:40:05.0000000+00:00</time></trkpt><trkpt lat="34.8925882" lon="32.3628718"><ele>343.9</ele><time>2015-04-24T16:40:07.0000000+00:00</time></trkpt><trkpt lat="34.89265" lon="32.3628746"><ele>344.4</ele><time>2015-04-24T16:40:09.0000000+00:00</time></trkpt><trkpt lat="34.8927102" lon="32.3628752"><ele>344.8</ele><time>2015-04-24T16:40:11.0000000+00:00</time></trkpt><trkpt lat="34.8927676" lon="32.3628728"><ele>344.9</ele><time>2015-04-24T16:40:13.0000000+00:00</time></trkpt><trkpt lat="34.8928217" lon="32.3628736"><ele>344.2</ele><time>2015-04-24T16:40:15.0000000+00:00</time></trkpt><trkpt lat="34.8928776" lon="32.3628725"><ele>344.0</ele><time>2015-04-24T16:40:17.0000000+00:00</time></trkpt><trkpt lat="34.8929324" lon="32.3628736"><ele>343.9</ele><time>2015-04-24T16:40:19.0000000+00:00</time></trkpt><trkpt lat="34.8929883" lon="32.3628785"><ele>344.4</ele><time>2015-04-24T16:40:21.0000000+00:00</time></trkpt><trkpt lat="34.8930409" lon="32.3628868"><ele>344.8</ele><time>2015-04-24T16:40:23.0000000+00:00</time></trkpt><trkpt lat="34.8930944" lon="32.3629031"><ele>345.4</ele><time>2015-04-24T16:40:25.0000000+00:00</time></trkpt><trkpt lat="34.8931484" lon="32.362927"><ele>345.8</ele><time>2015-04-24T16:40:27.0000000+00:00</time></trkpt><trkpt lat="34.893206" lon="32.3629459"><ele>346.4</ele><time>2015-04-24T16:40:29.0000000+00:00</time></trkpt><trkpt lat="34.8932607" lon="32.3629619"><ele>346.0</ele><time>2015-04-24T16:40:31.0000000+00:00</time></trkpt><trkpt lat="34.8933142" lon="32.362992"><ele>345.5</ele><time>2015-04-24T16:40:33.0000000+00:00</time></trkpt><trkpt lat="34.8933638" lon="32.3630237"><ele>345.8</ele><time>2015-04-24T16:40:35.0000000+00:00</time></trkpt><trkpt lat="34.8934122" lon="32.3630613"><ele>345.9</ele><time>2015-04-24T16:40:37.0000000+00:00</time></trkpt><trkpt lat="34.8934587" lon="32.3630986"><ele>345.9</ele><time>2015-04-24T16:40:39.0000000+00:00</time></trkpt><trkpt lat="34.8935093" lon="32.3631325"><ele>346.4</ele><time>2015-04-24T16:40:41.0000000+00:00</time></trkpt><trkpt lat="34.8935596" lon="32.363164"><ele>346.6</ele><time>2015-04-24T16:40:43.0000000+00:00</time></trkpt><trkpt lat="34.8936086" lon="32.3632025"><ele>346.6</ele><time>2015-04-24T16:40:45.0000000+00:00</time></trkpt><trkpt lat="34.8936544" lon="32.3632509"><ele>346.3</ele><time>2015-04-24T16:40:47.0000000+00:00</time></trkpt><trkpt lat="34.8936996" lon="32.3633079"><ele>345.8</ele><time>2015-04-24T16:40:49.0000000+00:00</time></trkpt><trkpt lat="34.8937456" lon="32.3633634"><ele>345.9</ele><time>2015-04-24T16:40:51.0000000+00:00</time></trkpt><trkpt lat="34.8937904" lon="32.3634204"><ele>345.9</ele><time>2015-04-24T16:40:53.0000000+00:00</time></trkpt><trkpt lat="34.8938326" lon="32.363476"><ele>345.9</ele><time>2015-04-24T16:40:55.0000000+00:00</time></trkpt><trkpt lat="34.893876" lon="32.3635371"><ele>345.9</ele><time>2015-04-24T16:40:57.0000000+00:00</time></trkpt><trkpt lat="34.8939117" lon="32.3636073"><ele>346.7</ele><time>2015-04-24T16:40:59.0000000+00:00</time></trkpt><trkpt lat="34.8939455" lon="32.3636836"><ele>347.6</ele><time>2015-04-24T16:41:01.0000000+00:00</time></trkpt><trkpt lat="34.8939801" lon="32.3637556"><ele>347.9</ele><time>2015-04-24T16:41:03.0000000+00:00</time></trkpt><trkpt lat="34.894015" lon="32.3638284"><ele>348.4</ele><time>2015-04-24T16:41:05.0000000+00:00</time></trkpt><trkpt lat="34.8940446" lon="32.3639007"><ele>348.1</ele><time>2015-04-24T16:41:07.0000000+00:00</time></trkpt><trkpt lat="34.8940717" lon="32.3639767"><ele>348.0</ele><time>2015-04-24T16:41:09.0000000+00:00</time></trkpt><trkpt lat="34.8941051" lon="32.3640492"><ele>350.2</ele><time>2015-04-24T16:41:11.0000000+00:00</time></trkpt><trkpt lat="34.8941444" lon="32.3641262"><ele>350.7</ele><time>2015-04-24T16:41:13.0000000+00:00</time></trkpt><trkpt lat="34.8941787" lon="32.3642047"><ele>350.9</ele><time>2015-04-24T16:41:15.0000000+00:00</time></trkpt><trkpt lat="34.8942124" lon="32.3642878"><ele>351.7</ele><time>2015-04-24T16:41:17.0000000+00:00</time></trkpt><trkpt lat="34.8942476" lon="32.3643681"><ele>352.4</ele><time>2015-04-24T16:41:19.0000000+00:00</time></trkpt><trkpt lat="34.8942896" lon="32.3644466"><ele>353.8</ele><time>2015-04-24T16:41:21.0000000+00:00</time></trkpt><trkpt lat="34.8943348" lon="32.3645194"><ele>353.6</ele><time>2015-04-24T16:41:23.0000000+00:00</time></trkpt><trkpt lat="34.8943726" lon="32.3646004"><ele>354.4</ele><time>2015-04-24T16:41:25.0000000+00:00</time></trkpt><trkpt lat="34.8944043" lon="32.3646813"><ele>356.0</ele><time>2015-04-24T16:41:27.0000000+00:00</time></trkpt><trkpt lat="34.8944409" lon="32.36476"><ele>356.7</ele><time>2015-04-24T16:41:29.0000000+00:00</time></trkpt><trkpt lat="34.894477" lon="32.3648344"><ele>356.6</ele><time>2015-04-24T16:41:31.0000000+00:00</time></trkpt><trkpt lat="34.8945146" lon="32.3649081"><ele>356.9</ele><time>2015-04-24T16:41:33.0000000+00:00</time></trkpt><trkpt lat="34.8945478" lon="32.3649794"><ele>357.7</ele><time>2015-04-24T16:41:35.0000000+00:00</time></trkpt><trkpt lat="34.8945769" lon="32.3650547"><ele>357.9</ele><time>2015-04-24T16:41:37.0000000+00:00</time></trkpt><trkpt lat="34.8946049" lon="32.3651314"><ele>358.7</ele><time>2015-04-24T16:41:39.0000000+00:00</time></trkpt><trkpt lat="34.8946332" lon="32.3652051"><ele>358.4</ele><time>2015-04-24T16:41:41.0000000+00:00</time></trkpt><trkpt lat="34.8946575" lon="32.3652762"><ele>358.3</ele><time>2015-04-24T16:41:43.0000000+00:00</time></trkpt><trkpt lat="34.8946856" lon="32.3653426"><ele>358.0</ele><time>2015-04-24T16:41:45.0000000+00:00</time></trkpt><trkpt lat="34.8947141" lon="32.3654011"><ele>357.2</ele><time>2015-04-24T16:41:47.0000000+00:00</time></trkpt><trkpt lat="34.8947431" lon="32.365459"><ele>356.2</ele><time>2015-04-24T16:41:49.0000000+00:00</time></trkpt><trkpt lat="34.8947696" lon="32.3655172"><ele>356.8</ele><time>2015-04-24T16:41:51.0000000+00:00</time></trkpt><trkpt lat="34.8947963" lon="32.3655788"><ele>356.9</ele><time>2015-04-24T16:41:53.0000000+00:00</time></trkpt><trkpt lat="34.8948227" lon="32.3656415"><ele>356.4</ele><time>2015-04-24T16:41:55.0000000+00:00</time></trkpt><trkpt lat="34.8948514" lon="32.3657094"><ele>356.1</ele><time>2015-04-24T16:41:57.0000000+00:00</time></trkpt><trkpt lat="34.8948831" lon="32.3657747"><ele>356.7</ele><time>2015-04-24T16:41:59.0000000+00:00</time></trkpt><trkpt lat="34.8949179" lon="32.3658368"><ele>356.9</ele><time>2015-04-24T16:42:01.0000000+00:00</time></trkpt><trkpt lat="34.8949479" lon="32.3659014"><ele>356.9</ele><time>2015-04-24T16:42:03.0000000+00:00</time></trkpt><trkpt lat="34.8949819" lon="32.3659645"><ele>357.4</ele><time>2015-04-24T16:42:05.0000000+00:00</time></trkpt><trkpt lat="34.8950146" lon="32.3660272"><ele>357.8</ele><time>2015-04-24T16:42:07.0000000+00:00</time></trkpt><trkpt lat="34.8950472" lon="32.3660892"><ele>357.9</ele><time>2015-04-24T16:42:09.0000000+00:00</time></trkpt><trkpt lat="34.8950778" lon="32.366147"><ele>357.9</ele><time>2015-04-24T16:42:11.0000000+00:00</time></trkpt><trkpt lat="34.895107" lon="32.366206"><ele>358.4</ele><time>2015-04-24T16:42:13.0000000+00:00</time></trkpt><trkpt lat="34.8951352" lon="32.3662628"><ele>358.8</ele><time>2015-04-24T16:42:15.0000000+00:00</time></trkpt><trkpt lat="34.8951602" lon="32.3663272"><ele>359.6</ele><time>2015-04-24T16:42:17.0000000+00:00</time></trkpt><trkpt lat="34.8951859" lon="32.3663917"><ele>361.1</ele><time>2015-04-24T16:42:19.0000000+00:00</time></trkpt><trkpt lat="34.8952153" lon="32.3664573"><ele>361.7</ele><time>2015-04-24T16:42:21.0000000+00:00</time></trkpt><trkpt lat="34.8952439" lon="32.3665226"><ele>361.9</ele><time>2015-04-24T16:42:23.0000000+00:00</time></trkpt><trkpt lat="34.8952752" lon="32.3665897"><ele>362.7</ele><time>2015-04-24T16:42:25.0000000+00:00</time></trkpt><trkpt lat="34.8953089" lon="32.3666577"><ele>362.9</ele><time>2015-04-24T16:42:27.0000000+00:00</time></trkpt><trkpt lat="34.8953455" lon="32.3667331"><ele>362.4</ele><time>2015-04-24T16:42:29.0000000+00:00</time></trkpt><trkpt lat="34.895385" lon="32.3668036"><ele>362.6</ele><time>2015-04-24T16:42:31.0000000+00:00</time></trkpt><trkpt lat="34.895432" lon="32.3668647"><ele>362.3</ele><time>2015-04-24T16:42:33.0000000+00:00</time></trkpt><trkpt lat="34.8954766" lon="32.3669236"><ele>361.3</ele><time>2015-04-24T16:42:35.0000000+00:00</time></trkpt><trkpt lat="34.8955209" lon="32.3669909"><ele>361.5</ele><time>2015-04-24T16:42:37.0000000+00:00</time></trkpt><trkpt lat="34.8955658" lon="32.3670551"><ele>361.8</ele><time>2015-04-24T16:42:39.0000000+00:00</time></trkpt><trkpt lat="34.895607" lon="32.367125"><ele>361.9</ele><time>2015-04-24T16:42:41.0000000+00:00</time></trkpt><trkpt lat="34.895644" lon="32.3671934"><ele>361.9</ele><time>2015-04-24T16:42:43.0000000+00:00</time></trkpt><trkpt lat="34.8956888" lon="32.3672536"><ele>362.2</ele><time>2015-04-24T16:42:45.0000000+00:00</time></trkpt><trkpt lat="34.8957354" lon="32.3673073"><ele>362.2</ele><time>2015-04-24T16:42:47.0000000+00:00</time></trkpt><trkpt lat="34.8957803" lon="32.3673622"><ele>362.0</ele><time>2015-04-24T16:42:49.0000000+00:00</time></trkpt><trkpt lat="34.8958241" lon="32.367418"><ele>361.2</ele><time>2015-04-24T16:42:51.0000000+00:00</time></trkpt><trkpt lat="34.8958739" lon="32.3674739"><ele>361.2</ele><time>2015-04-24T16:42:53.0000000+00:00</time></trkpt><trkpt lat="34.8959189" lon="32.3675349"><ele>361.0</ele><time>2015-04-24T16:42:55.0000000+00:00</time></trkpt><trkpt lat="34.8959691" lon="32.3675933"><ele>359.9</ele><time>2015-04-24T16:42:57.0000000+00:00</time></trkpt><trkpt lat="34.8960191" lon="32.3676531"><ele>360.2</ele><time>2015-04-24T16:42:59.0000000+00:00</time></trkpt><trkpt lat="34.8960707" lon="32.3677205"><ele>361.7</ele><time>2015-04-24T16:43:01.0000000+00:00</time></trkpt><trkpt lat="34.8961231" lon="32.3677827"><ele>362.6</ele><time>2015-04-24T16:43:03.0000000+00:00</time></trkpt><trkpt lat="34.8961712" lon="32.3678489"><ele>362.1</ele><time>2015-04-24T16:43:05.0000000+00:00</time></trkpt><trkpt lat="34.8962147" lon="32.3679166"><ele>362.0</ele><time>2015-04-24T16:43:07.0000000+00:00</time></trkpt><trkpt lat="34.8962596" lon="32.3679771"><ele>361.9</ele><time>2015-04-24T16:43:09.0000000+00:00</time></trkpt><trkpt lat="34.8963028" lon="32.368033"><ele>361.4</ele><time>2015-04-24T16:43:11.0000000+00:00</time></trkpt><trkpt lat="34.8963458" lon="32.3680952"><ele>361.6</ele><time>2015-04-24T16:43:13.0000000+00:00</time></trkpt><trkpt lat="34.8963926" lon="32.3681527"><ele>362.1</ele><time>2015-04-24T16:43:15.0000000+00:00</time></trkpt><trkpt lat="34.896442" lon="32.3682079"><ele>361.7</ele><time>2015-04-24T16:43:17.0000000+00:00</time></trkpt><trkpt lat="34.8964882" lon="32.3682656"><ele>363.1</ele><time>2015-04-24T16:43:19.0000000+00:00</time></trkpt><trkpt lat="34.8965334" lon="32.368332"><ele>363.0</ele><time>2015-04-24T16:43:21.0000000+00:00</time></trkpt><trkpt lat="34.8965778" lon="32.3683966"><ele>364.4</ele><time>2015-04-24T16:43:23.0000000+00:00</time></trkpt><trkpt lat="34.8966276" lon="32.3684581"><ele>365.6</ele><time>2015-04-24T16:43:25.0000000+00:00</time></trkpt><trkpt lat="34.896679" lon="32.3685142"><ele>365.8</ele><time>2015-04-24T16:43:27.0000000+00:00</time></trkpt><trkpt lat="34.8967286" lon="32.3685736"><ele>366.7</ele><time>2015-04-24T16:43:29.0000000+00:00</time></trkpt><trkpt lat="34.8967759" lon="32.3686335"><ele>367.6</ele><time>2015-04-24T16:43:31.0000000+00:00</time></trkpt><trkpt lat="34.8968274" lon="32.3686873"><ele>367.9</ele><time>2015-04-24T16:43:33.0000000+00:00</time></trkpt><trkpt lat="34.8968779" lon="32.3687392"><ele>367.9</ele><time>2015-04-24T16:43:35.0000000+00:00</time></trkpt><trkpt lat="34.8969265" lon="32.3687926"><ele>367.9</ele><time>2015-04-24T16:43:37.0000000+00:00</time></trkpt><trkpt lat="34.8969742" lon="32.3688472"><ele>369.4</ele><time>2015-04-24T16:43:39.0000000+00:00</time></trkpt><trkpt lat="34.8970218" lon="32.3689054"><ele>371.8</ele><time>2015-04-24T16:43:41.0000000+00:00</time></trkpt><trkpt lat="34.8970701" lon="32.3689676"><ele>371.4</ele><time>2015-04-24T16:43:43.0000000+00:00</time></trkpt><trkpt lat="34.8971198" lon="32.3690205"><ele>371.3</ele><time>2015-04-24T16:43:45.0000000+00:00</time></trkpt><trkpt lat="34.8971636" lon="32.3690677"><ele>372.3</ele><time>2015-04-24T16:43:47.0000000+00:00</time></trkpt><trkpt lat="34.8972024" lon="32.3691267"><ele>372.5</ele><time>2015-04-24T16:43:49.0000000+00:00</time></trkpt><trkpt lat="34.8972388" lon="32.3691838"><ele>374.1</ele><time>2015-04-24T16:43:51.0000000+00:00</time></trkpt><trkpt lat="34.897274" lon="32.3692373"><ele>375.2</ele><time>2015-04-24T16:43:53.0000000+00:00</time></trkpt><trkpt lat="34.8973053" lon="32.3692867"><ele>375.0</ele><time>2015-04-24T16:43:55.0000000+00:00</time></trkpt><trkpt lat="34.8973454" lon="32.3693374"><ele>374.7</ele><time>2015-04-24T16:43:57.0000000+00:00</time></trkpt><trkpt lat="34.8973735" lon="32.3693837"><ele>375.6</ele><time>2015-04-24T16:43:59.0000000+00:00</time></trkpt><trkpt lat="34.8974107" lon="32.3694322"><ele>375.4</ele><time>2015-04-24T16:44:01.0000000+00:00</time></trkpt><trkpt lat="34.8974507" lon="32.369482"><ele>376.5</ele><time>2015-04-24T16:44:03.0000000+00:00</time></trkpt><trkpt lat="34.897487" lon="32.3695323"><ele>376.8</ele><time>2015-04-24T16:44:05.0000000+00:00</time></trkpt><trkpt lat="34.897517" lon="32.3695811"><ele>378.9</ele><time>2015-04-24T16:44:07.0000000+00:00</time></trkpt><trkpt lat="34.8975524" lon="32.3696267"><ele>380.2</ele><time>2015-04-24T16:44:09.0000000+00:00</time></trkpt><trkpt lat="34.8975939" lon="32.3696862"><ele>380.7</ele><time>2015-04-24T16:44:12.0000000+00:00</time></trkpt><trkpt lat="34.8976251" lon="32.3697292"><ele>378.6</ele><time>2015-04-24T16:44:14.0000000+00:00</time></trkpt><trkpt lat="34.8976565" lon="32.369773"><ele>377.6</ele><time>2015-04-24T16:44:16.0000000+00:00</time></trkpt><trkpt lat="34.8976912" lon="32.3698096"><ele>377.6</ele><time>2015-04-24T16:44:18.0000000+00:00</time></trkpt><trkpt lat="34.8977288" lon="32.3698477"><ele>377.3</ele><time>2015-04-24T16:44:20.0000000+00:00</time></trkpt><trkpt lat="34.8977645" lon="32.3698914"><ele>375.3</ele><time>2015-04-24T16:44:22.0000000+00:00</time></trkpt><trkpt lat="34.8978012" lon="32.3699313"><ele>374.8</ele><time>2015-04-24T16:44:24.0000000+00:00</time></trkpt><trkpt lat="34.8978387" lon="32.369971"><ele>373.4</ele><time>2015-04-24T16:44:26.0000000+00:00</time></trkpt><trkpt lat="34.897874" lon="32.3700131"><ele>373.0</ele><time>2015-04-24T16:44:28.0000000+00:00</time></trkpt><trkpt lat="34.8979114" lon="32.3700519"><ele>373.0</ele><time>2015-04-24T16:44:30.0000000+00:00</time></trkpt><trkpt lat="34.8979506" lon="32.3700874"><ele>371.7</ele><time>2015-04-24T16:44:32.0000000+00:00</time></trkpt><trkpt lat="34.8979839" lon="32.3701252"><ele>371.6</ele><time>2015-04-24T16:44:34.0000000+00:00</time></trkpt><trkpt lat="34.8980104" lon="32.3701711"><ele>372.6</ele><time>2015-04-24T16:44:36.0000000+00:00</time></trkpt><trkpt lat="34.8980405" lon="32.3702152"><ele>373.6</ele><time>2015-04-24T16:44:38.0000000+00:00</time></trkpt><trkpt lat="34.8980744" lon="32.3702658"><ele>375.8</ele><time>2015-04-24T16:44:40.0000000+00:00</time></trkpt><trkpt lat="34.8981066" lon="32.3703228"><ele>377.2</ele><time>2015-04-24T16:44:42.0000000+00:00</time></trkpt><trkpt lat="34.898138" lon="32.3703805"><ele>378.2</ele><time>2015-04-24T16:44:44.0000000+00:00</time></trkpt><trkpt lat="34.8981704" lon="32.3704372"><ele>378.8</ele><time>2015-04-24T16:44:46.0000000+00:00</time></trkpt><trkpt lat="34.8982022" lon="32.3704938"><ele>379.1</ele><time>2015-04-24T16:44:48.0000000+00:00</time></trkpt><trkpt lat="34.8982282" lon="32.3705502"><ele>379.7</ele><time>2015-04-24T16:44:50.0000000+00:00</time></trkpt><trkpt lat="34.8982511" lon="32.3706064"><ele>379.9</ele><time>2015-04-24T16:44:52.0000000+00:00</time></trkpt><trkpt lat="34.8982659" lon="32.3706712"><ele>379.9</ele><time>2015-04-24T16:44:54.0000000+00:00</time></trkpt><trkpt lat="34.8982787" lon="32.3707359"><ele>381.4</ele><time>2015-04-24T16:44:56.0000000+00:00</time></trkpt><trkpt lat="34.8982959" lon="32.37079"><ele>381.1</ele><time>2015-04-24T16:44:58.0000000+00:00</time></trkpt><trkpt lat="34.898313" lon="32.3708434"><ele>381.0</ele><time>2015-04-24T16:45:00.0000000+00:00</time></trkpt><trkpt lat="34.8983349" lon="32.3709119"><ele>381.8</ele><time>2015-04-24T16:45:03.0000000+00:00</time></trkpt><trkpt lat="34.8983442" lon="32.3709913"><ele>381.3</ele><time>2015-04-24T16:45:06.0000000+00:00</time></trkpt><trkpt lat="34.8983502" lon="32.3710537"><ele>381.8</ele><time>2015-04-24T16:45:08.0000000+00:00</time></trkpt><trkpt lat="34.8983548" lon="32.3711183"><ele>382.6</ele><time>2015-04-24T16:45:10.0000000+00:00</time></trkpt><trkpt lat="34.8983615" lon="32.3711809"><ele>383.1</ele><time>2015-04-24T16:45:12.0000000+00:00</time></trkpt><trkpt lat="34.8983665" lon="32.37124"><ele>383.0</ele><time>2015-04-24T16:45:14.0000000+00:00</time></trkpt><trkpt lat="34.8983684" lon="32.3712973"><ele>382.9</ele><time>2015-04-24T16:45:16.0000000+00:00</time></trkpt><trkpt lat="34.8983693" lon="32.3713548"><ele>382.9</ele><time>2015-04-24T16:45:18.0000000+00:00</time></trkpt><trkpt lat="34.8983721" lon="32.3714128"><ele>383.7</ele><time>2015-04-24T16:45:20.0000000+00:00</time></trkpt><trkpt lat="34.8983752" lon="32.3714716"><ele>383.4</ele><time>2015-04-24T16:45:22.0000000+00:00</time></trkpt><trkpt lat="34.8983825" lon="32.3715279"><ele>382.5</ele><time>2015-04-24T16:45:24.0000000+00:00</time></trkpt><trkpt lat="34.8983866" lon="32.3715854"><ele>382.8</ele><time>2015-04-24T16:45:26.0000000+00:00</time></trkpt><trkpt lat="34.8983882" lon="32.3716447"><ele>383.7</ele><time>2015-04-24T16:45:28.0000000+00:00</time></trkpt><trkpt lat="34.8983858" lon="32.3717049"><ele>383.9</ele><time>2015-04-24T16:45:30.0000000+00:00</time></trkpt><trkpt lat="34.8983805" lon="32.371763"><ele>383.9</ele><time>2015-04-24T16:45:32.0000000+00:00</time></trkpt><trkpt lat="34.8983749" lon="32.3718211"><ele>384.4</ele><time>2015-04-24T16:45:34.0000000+00:00</time></trkpt><trkpt lat="34.8983702" lon="32.3718808"><ele>384.8</ele><time>2015-04-24T16:45:36.0000000+00:00</time></trkpt><trkpt lat="34.8983552" lon="32.3719395"><ele>384.9</ele><time>2015-04-24T16:45:38.0000000+00:00</time></trkpt><trkpt lat="34.8983364" lon="32.3719949"><ele>385.7</ele><time>2015-04-24T16:45:40.0000000+00:00</time></trkpt><trkpt lat="34.898329" lon="32.3720681"><ele>385.9</ele><time>2015-04-24T16:45:43.0000000+00:00</time></trkpt><trkpt lat="34.8983262" lon="32.3721346"><ele>389.7</ele><time>2015-04-24T16:45:48.0000000+00:00</time></trkpt><trkpt lat="34.8983144" lon="32.3721989"><ele>389.9</ele><time>2015-04-24T16:45:52.0000000+00:00</time></trkpt><trkpt lat="34.8982945" lon="32.372255"><ele>390.4</ele><time>2015-04-24T16:45:55.0000000+00:00</time></trkpt><trkpt lat="34.8982772" lon="32.3723184"><ele>391.4</ele><time>2015-04-24T16:45:58.0000000+00:00</time></trkpt><trkpt lat="34.8982488" lon="32.3723787"><ele>392.9</ele><time>2015-04-24T16:46:01.0000000+00:00</time></trkpt><trkpt lat="34.8982253" lon="32.3724372"><ele>393.5</ele><time>2015-04-24T16:46:04.0000000+00:00</time></trkpt><trkpt lat="34.898198" lon="32.3724876"><ele>393.9</ele><time>2015-04-24T16:46:07.0000000+00:00</time></trkpt><trkpt lat="34.8981697" lon="32.3725427"><ele>395.5</ele><time>2015-04-24T16:46:10.0000000+00:00</time></trkpt><trkpt lat="34.8981432" lon="32.3725949"><ele>395.9</ele><time>2015-04-24T16:46:13.0000000+00:00</time></trkpt><trkpt lat="34.8981112" lon="32.3726551"><ele>395.9</ele><time>2015-04-24T16:46:17.0000000+00:00</time></trkpt><trkpt lat="34.8980935" lon="32.3727062"><ele>395.9</ele><time>2015-04-24T16:46:20.0000000+00:00</time></trkpt><trkpt lat="34.8980676" lon="32.3727574"><ele>395.9</ele><time>2015-04-24T16:46:23.0000000+00:00</time></trkpt><trkpt lat="34.8980464" lon="32.3728138"><ele>396.1</ele><time>2015-04-24T16:46:26.0000000+00:00</time></trkpt><trkpt lat="34.8980247" lon="32.3728619"><ele>396.8</ele><time>2015-04-24T16:46:29.0000000+00:00</time></trkpt><trkpt lat="34.8979964" lon="32.3729197"><ele>397.6</ele><time>2015-04-24T16:46:33.0000000+00:00</time></trkpt><trkpt lat="34.8979669" lon="32.3729784"><ele>398.4</ele><time>2015-04-24T16:46:37.0000000+00:00</time></trkpt><trkpt lat="34.8979381" lon="32.3730222"><ele>397.7</ele><time>2015-04-24T16:46:40.0000000+00:00</time></trkpt><trkpt lat="34.8979002" lon="32.3730782"><ele>397.0</ele><time>2015-04-24T16:46:44.0000000+00:00</time></trkpt><trkpt lat="34.8978701" lon="32.3731386"><ele>396.9</ele><time>2015-04-24T16:46:48.0000000+00:00</time></trkpt><trkpt lat="34.8978368" lon="32.3731802"><ele>398.5</ele><time>2015-04-24T16:46:51.0000000+00:00</time></trkpt><trkpt lat="34.8978115" lon="32.373229"><ele>399.8</ele><time>2015-04-24T16:46:54.0000000+00:00</time></trkpt><trkpt lat="34.8977855" lon="32.3732922"><ele>399.5</ele><time>2015-04-24T16:46:58.0000000+00:00</time></trkpt><trkpt lat="34.8977461" lon="32.3733408"><ele>399.9</ele><time>2015-04-24T16:47:02.0000000+00:00</time></trkpt><trkpt lat="34.8977094" lon="32.3733915"><ele>399.0</ele><time>2015-04-24T16:47:06.0000000+00:00</time></trkpt><trkpt lat="34.8976689" lon="32.3734418"><ele>399.3</ele><time>2015-04-24T16:47:10.0000000+00:00</time></trkpt><trkpt lat="34.8976364" lon="32.3734996"><ele>399.6</ele><time>2015-04-24T16:47:14.0000000+00:00</time></trkpt><trkpt lat="34.8976047" lon="32.3735422"><ele>401.5</ele><time>2015-04-24T16:47:17.0000000+00:00</time></trkpt><trkpt lat="34.8975712" lon="32.3735848"><ele>402.4</ele><time>2015-04-24T16:47:20.0000000+00:00</time></trkpt><trkpt lat="34.8975412" lon="32.3736326"><ele>402.1</ele><time>2015-04-24T16:47:23.0000000+00:00</time></trkpt><trkpt lat="34.8975128" lon="32.373686"><ele>402.8</ele><time>2015-04-24T16:47:26.0000000+00:00</time></trkpt><trkpt lat="34.8974876" lon="32.373742"><ele>403.4</ele><time>2015-04-24T16:47:29.0000000+00:00</time></trkpt><trkpt lat="34.8974535" lon="32.3737927"><ele>405.5</ele><time>2015-04-24T16:47:32.0000000+00:00</time></trkpt><trkpt lat="34.8974277" lon="32.3738498"><ele>405.0</ele><time>2015-04-24T16:47:35.0000000+00:00</time></trkpt><trkpt lat="34.8973994" lon="32.3739058"><ele>404.4</ele><time>2015-04-24T16:47:38.0000000+00:00</time></trkpt><trkpt lat="34.8973714" lon="32.3739554"><ele>404.1</ele><time>2015-04-24T16:47:41.0000000+00:00</time></trkpt><trkpt lat="34.8973457" lon="32.3740037"><ele>404.7</ele><time>2015-04-24T16:47:44.0000000+00:00</time></trkpt><trkpt lat="34.897314" lon="32.3740662"><ele>405.7</ele><time>2015-04-24T16:47:48.0000000+00:00</time></trkpt><trkpt lat="34.8972855" lon="32.3741112"><ele>407.3</ele><time>2015-04-24T16:47:51.0000000+00:00</time></trkpt><trkpt lat="34.8972545" lon="32.374157"><ele>407.8</ele><time>2015-04-24T16:47:54.0000000+00:00</time></trkpt><trkpt lat="34.8972137" lon="32.3742055"><ele>408.8</ele><time>2015-04-24T16:47:58.0000000+00:00</time></trkpt><trkpt lat="34.8971876" lon="32.3742563"><ele>409.4</ele><time>2015-04-24T16:48:03.0000000+00:00</time></trkpt><trkpt lat="34.8971658" lon="32.3743076"><ele>408.9</ele><time>2015-04-24T16:48:07.0000000+00:00</time></trkpt><trkpt lat="34.8971406" lon="32.3743677"><ele>409.6</ele><time>2015-04-24T16:48:11.0000000+00:00</time></trkpt><trkpt lat="34.8971105" lon="32.374427"><ele>411.3</ele><time>2015-04-24T16:48:15.0000000+00:00</time></trkpt><trkpt lat="34.8970838" lon="32.3744807"><ele>411.0</ele><time>2015-04-24T16:48:19.0000000+00:00</time></trkpt><trkpt lat="34.8970607" lon="32.3745288"><ele>411.4</ele><time>2015-04-24T16:48:22.0000000+00:00</time></trkpt><trkpt lat="34.8970349" lon="32.37458"><ele>412.7</ele><time>2015-04-24T16:48:25.0000000+00:00</time></trkpt><trkpt lat="34.8970045" lon="32.3746285"><ele>412.7</ele><time>2015-04-24T16:48:28.0000000+00:00</time></trkpt><trkpt lat="34.8969754" lon="32.3746804"><ele>413.8</ele><time>2015-04-24T16:48:31.0000000+00:00</time></trkpt><trkpt lat="34.8969426" lon="32.3747302"><ele>415.5</ele><time>2015-04-24T16:48:34.0000000+00:00</time></trkpt><trkpt lat="34.8969111" lon="32.3747828"><ele>416.6</ele><time>2015-04-24T16:48:37.0000000+00:00</time></trkpt><trkpt lat="34.8968823" lon="32.374833"><ele>416.0</ele><time>2015-04-24T16:48:40.0000000+00:00</time></trkpt><trkpt lat="34.8968562" lon="32.3748897"><ele>416.8</ele><time>2015-04-24T16:48:43.0000000+00:00</time></trkpt><trkpt lat="34.8968255" lon="32.3749442"><ele>417.4</ele><time>2015-04-24T16:48:46.0000000+00:00</time></trkpt><trkpt lat="34.8967949" lon="32.374999"><ele>417.0</ele><time>2015-04-24T16:48:49.0000000+00:00</time></trkpt><trkpt lat="34.8967678" lon="32.3750606"><ele>418.9</ele><time>2015-04-24T16:48:52.0000000+00:00</time></trkpt><trkpt lat="34.896742" lon="32.3751163"><ele>419.6</ele><time>2015-04-24T16:48:55.0000000+00:00</time></trkpt><trkpt lat="34.8967139" lon="32.3751702"><ele>421.5</ele><time>2015-04-24T16:48:58.0000000+00:00</time></trkpt><trkpt lat="34.8966851" lon="32.3752267"><ele>422.1</ele><time>2015-04-24T16:49:01.0000000+00:00</time></trkpt><trkpt lat="34.8966466" lon="32.3752823"><ele>422.8</ele><time>2015-04-24T16:49:04.0000000+00:00</time></trkpt><trkpt lat="34.8966144" lon="32.3753419"><ele>423.0</ele><time>2015-04-24T16:49:07.0000000+00:00</time></trkpt><trkpt lat="34.8965915" lon="32.3754038"><ele>422.4</ele><time>2015-04-24T16:49:10.0000000+00:00</time></trkpt><trkpt lat="34.8965725" lon="32.3754637"><ele>420.6</ele><time>2015-04-24T16:49:13.0000000+00:00</time></trkpt><trkpt lat="34.8965473" lon="32.3755175"><ele>422.1</ele><time>2015-04-24T16:49:16.0000000+00:00</time></trkpt><trkpt lat="34.8965218" lon="32.3755723"><ele>423.1</ele><time>2015-04-24T16:49:19.0000000+00:00</time></trkpt><trkpt lat="34.8964978" lon="32.3756322"><ele>423.4</ele><time>2015-04-24T16:49:22.0000000+00:00</time></trkpt><trkpt lat="34.8964799" lon="32.3756937"><ele>422.6</ele><time>2015-04-24T16:49:25.0000000+00:00</time></trkpt><trkpt lat="34.8964584" lon="32.375748"><ele>422.4</ele><time>2015-04-24T16:49:28.0000000+00:00</time></trkpt><trkpt lat="34.8964426" lon="32.3758048"><ele>422.5</ele><time>2015-04-24T16:49:31.0000000+00:00</time></trkpt><trkpt lat="34.896418" lon="32.3758606"><ele>424.2</ele><time>2015-04-24T16:49:34.0000000+00:00</time></trkpt><trkpt lat="34.8963936" lon="32.3759082"><ele>424.7</ele><time>2015-04-24T16:49:37.0000000+00:00</time></trkpt><trkpt lat="34.8963722" lon="32.375958"><ele>425.4</ele><time>2015-04-24T16:49:40.0000000+00:00</time></trkpt><trkpt lat="34.8963486" lon="32.3760104"><ele>426.4</ele><time>2015-04-24T16:49:43.0000000+00:00</time></trkpt><trkpt lat="34.8963202" lon="32.3760671"><ele>429.9</ele><time>2015-04-24T16:49:46.0000000+00:00</time></trkpt><trkpt lat="34.8962888" lon="32.3761178"><ele>431.3</ele><time>2015-04-24T16:49:49.0000000+00:00</time></trkpt><trkpt lat="34.8962732" lon="32.3761761"><ele>430.9</ele><time>2015-04-24T16:49:52.0000000+00:00</time></trkpt><trkpt lat="34.8962562" lon="32.3762363"><ele>430.0</ele><time>2015-04-24T16:49:55.0000000+00:00</time></trkpt><trkpt lat="34.8962379" lon="32.3763"><ele>430.2</ele><time>2015-04-24T16:49:58.0000000+00:00</time></trkpt><trkpt lat="34.8962109" lon="32.3763623"><ele>430.5</ele><time>2015-04-24T16:50:01.0000000+00:00</time></trkpt><trkpt lat="34.896171" lon="32.376421"><ele>432.2</ele><time>2015-04-24T16:50:04.0000000+00:00</time></trkpt><trkpt lat="34.8961302" lon="32.3764823"><ele>434.2</ele><time>2015-04-24T16:50:07.0000000+00:00</time></trkpt><trkpt lat="34.8961121" lon="32.3765429"><ele>431.0</ele><time>2015-04-24T16:50:10.0000000+00:00</time></trkpt><trkpt lat="34.896094" lon="32.3766036"><ele>430.1</ele><time>2015-04-24T16:50:13.0000000+00:00</time></trkpt><trkpt lat="34.8960721" lon="32.3766678"><ele>431.2</ele><time>2015-04-24T16:50:16.0000000+00:00</time></trkpt><trkpt lat="34.8960376" lon="32.376728"><ele>432.6</ele><time>2015-04-24T16:50:19.0000000+00:00</time></trkpt><trkpt lat="34.8960098" lon="32.3767911"><ele>433.1</ele><time>2015-04-24T16:50:22.0000000+00:00</time></trkpt><trkpt lat="34.8959791" lon="32.376848"><ele>434.1</ele><time>2015-04-24T16:50:25.0000000+00:00</time></trkpt><trkpt lat="34.8959547" lon="32.3769033"><ele>435.2</ele><time>2015-04-24T16:50:28.0000000+00:00</time></trkpt><trkpt lat="34.8959335" lon="32.3769566"><ele>435.1</ele><time>2015-04-24T16:50:31.0000000+00:00</time></trkpt><trkpt lat="34.8959114" lon="32.377009"><ele>436.3</ele><time>2015-04-24T16:50:34.0000000+00:00</time></trkpt><trkpt lat="34.8958913" lon="32.3770612"><ele>436.1</ele><time>2015-04-24T16:50:37.0000000+00:00</time></trkpt><trkpt lat="34.8958619" lon="32.3771201"><ele>437.5</ele><time>2015-04-24T16:50:41.0000000+00:00</time></trkpt><trkpt lat="34.8958439" lon="32.377188"><ele>437.4</ele><time>2015-04-24T16:50:45.0000000+00:00</time></trkpt><trkpt lat="34.8958156" lon="32.3772504"><ele>436.1</ele><time>2015-04-24T16:50:49.0000000+00:00</time></trkpt><trkpt lat="34.8957948" lon="32.3773016"><ele>435.9</ele><time>2015-04-24T16:50:52.0000000+00:00</time></trkpt><trkpt lat="34.8957723" lon="32.3773572"><ele>435.9</ele><time>2015-04-24T16:50:55.0000000+00:00</time></trkpt><trkpt lat="34.8957539" lon="32.3774166"><ele>435.9</ele><time>2015-04-24T16:50:58.0000000+00:00</time></trkpt><trkpt lat="34.8957314" lon="32.3774703"><ele>435.9</ele><time>2015-04-24T16:51:01.0000000+00:00</time></trkpt><trkpt lat="34.8957016" lon="32.3775208"><ele>436.7</ele><time>2015-04-24T16:51:04.0000000+00:00</time></trkpt><trkpt lat="34.8956766" lon="32.37758"><ele>436.9</ele><time>2015-04-24T16:51:07.0000000+00:00</time></trkpt><trkpt lat="34.8956505" lon="32.377642"><ele>437.4</ele><time>2015-04-24T16:51:10.0000000+00:00</time></trkpt><trkpt lat="34.895609" lon="32.3776956"><ele>438.6</ele><time>2015-04-24T16:51:13.0000000+00:00</time></trkpt><trkpt lat="34.8955763" lon="32.3777519"><ele>438.6</ele><time>2015-04-24T16:51:16.0000000+00:00</time></trkpt><trkpt lat="34.8955472" lon="32.3778062"><ele>439.6</ele><time>2015-04-24T16:51:19.0000000+00:00</time></trkpt><trkpt lat="34.8955202" lon="32.3778624"><ele>440.8</ele><time>2015-04-24T16:51:22.0000000+00:00</time></trkpt><trkpt lat="34.8954963" lon="32.3779161"><ele>441.4</ele><time>2015-04-24T16:51:25.0000000+00:00</time></trkpt><trkpt lat="34.8954657" lon="32.3779743"><ele>441.5</ele><time>2015-04-24T16:51:28.0000000+00:00</time></trkpt><trkpt lat="34.8954367" lon="32.378031"><ele>441.4</ele><time>2015-04-24T16:51:31.0000000+00:00</time></trkpt><trkpt lat="34.8954121" lon="32.3780866"><ele>442.6</ele><time>2015-04-24T16:51:34.0000000+00:00</time></trkpt><trkpt lat="34.8953799" lon="32.3781348"><ele>443.8</ele><time>2015-04-24T16:51:38.0000000+00:00</time></trkpt><trkpt lat="34.8953471" lon="32.3781805"><ele>445.4</ele><time>2015-04-24T16:51:43.0000000+00:00</time></trkpt><trkpt lat="34.8953226" lon="32.3782447"><ele>446.6</ele><time>2015-04-24T16:51:47.0000000+00:00</time></trkpt><trkpt lat="34.8953002" lon="32.3782938"><ele>447.4</ele><time>2015-04-24T16:51:50.0000000+00:00</time></trkpt><trkpt lat="34.8952782" lon="32.3783449"><ele>448.7</ele><time>2015-04-24T16:51:53.0000000+00:00</time></trkpt><trkpt lat="34.8952535" lon="32.37841"><ele>449.5</ele><time>2015-04-24T16:51:57.0000000+00:00</time></trkpt><trkpt lat="34.8952405" lon="32.3784646"><ele>449.0</ele><time>2015-04-24T16:52:00.0000000+00:00</time></trkpt><trkpt lat="34.8952096" lon="32.3785133"><ele>449.3</ele><time>2015-04-24T16:52:03.0000000+00:00</time></trkpt><trkpt lat="34.8951803" lon="32.3785693"><ele>450.7</ele><time>2015-04-24T16:52:06.0000000+00:00</time></trkpt><trkpt lat="34.8951505" lon="32.3786266"><ele>451.4</ele><time>2015-04-24T16:52:09.0000000+00:00</time></trkpt><trkpt lat="34.8951199" lon="32.3786886"><ele>451.5</ele><time>2015-04-24T16:52:12.0000000+00:00</time></trkpt><trkpt lat="34.8950937" lon="32.3787456"><ele>451.9</ele><time>2015-04-24T16:52:15.0000000+00:00</time></trkpt><trkpt lat="34.8950684" lon="32.3788121"><ele>452.7</ele><time>2015-04-24T16:52:18.0000000+00:00</time></trkpt><trkpt lat="34.895038" lon="32.378868"><ele>453.5</ele><time>2015-04-24T16:52:21.0000000+00:00</time></trkpt><trkpt lat="34.8950131" lon="32.3789281"><ele>454.1</ele><time>2015-04-24T16:52:26.0000000+00:00</time></trkpt><trkpt lat="34.8949871" lon="32.3789895"><ele>453.9</ele><time>2015-04-24T16:52:30.0000000+00:00</time></trkpt><trkpt lat="34.8949699" lon="32.3790402"><ele>454.7</ele><time>2015-04-24T16:52:33.0000000+00:00</time></trkpt><trkpt lat="34.8949568" lon="32.3790942"><ele>454.0</ele><time>2015-04-24T16:52:36.0000000+00:00</time></trkpt><trkpt lat="34.8949397" lon="32.3791468"><ele>453.1</ele><time>2015-04-24T16:52:39.0000000+00:00</time></trkpt><trkpt lat="34.8949215" lon="32.3792036"><ele>453.4</ele><time>2015-04-24T16:52:42.0000000+00:00</time></trkpt><trkpt lat="34.8949021" lon="32.3792605"><ele>454.6</ele><time>2015-04-24T16:52:45.0000000+00:00</time></trkpt><trkpt lat="34.8948848" lon="32.379322"><ele>454.9</ele><time>2015-04-24T16:52:48.0000000+00:00</time></trkpt><trkpt lat="34.8948698" lon="32.3793796"><ele>453.4</ele><time>2015-04-24T16:52:51.0000000+00:00</time></trkpt><trkpt lat="34.8948552" lon="32.3794398"><ele>453.6</ele><time>2015-04-24T16:52:54.0000000+00:00</time></trkpt><trkpt lat="34.8948337" lon="32.3794995"><ele>454.8</ele><time>2015-04-24T16:52:57.0000000+00:00</time></trkpt><trkpt lat="34.8948187" lon="32.3795565"><ele>456.2</ele><time>2015-04-24T16:53:00.0000000+00:00</time></trkpt><trkpt lat="34.8948036" lon="32.379612"><ele>456.1</ele><time>2015-04-24T16:53:03.0000000+00:00</time></trkpt><trkpt lat="34.894787" lon="32.3796675"><ele>456.7</ele><time>2015-04-24T16:53:06.0000000+00:00</time></trkpt><trkpt lat="34.8947805" lon="32.3797251"><ele>456.0</ele><time>2015-04-24T16:53:09.0000000+00:00</time></trkpt><trkpt lat="34.8947696" lon="32.3797792"><ele>454.6</ele><time>2015-04-24T16:53:12.0000000+00:00</time></trkpt><trkpt lat="34.894766" lon="32.3798368"><ele>454.9</ele><time>2015-04-24T16:53:15.0000000+00:00</time></trkpt><trkpt lat="34.89476" lon="32.3798964"><ele>455.3</ele><time>2015-04-24T16:53:18.0000000+00:00</time></trkpt><trkpt lat="34.8947568" lon="32.3799571"><ele>455.9</ele><time>2015-04-24T16:53:21.0000000+00:00</time></trkpt><trkpt lat="34.8947422" lon="32.3800221"><ele>457.5</ele><time>2015-04-24T16:53:24.0000000+00:00</time></trkpt><trkpt lat="34.8947289" lon="32.3800892"><ele>459.3</ele><time>2015-04-24T16:53:27.0000000+00:00</time></trkpt><trkpt lat="34.8947198" lon="32.3801524"><ele>459.8</ele><time>2015-04-24T16:53:30.0000000+00:00</time></trkpt><trkpt lat="34.8947074" lon="32.3802097"><ele>461.3</ele><time>2015-04-24T16:53:33.0000000+00:00</time></trkpt><trkpt lat="34.8947034" lon="32.3802679"><ele>462.7</ele><time>2015-04-24T16:53:36.0000000+00:00</time></trkpt><trkpt lat="34.894702" lon="32.3803296"><ele>462.4</ele><time>2015-04-24T16:53:39.0000000+00:00</time></trkpt><trkpt lat="34.8946967" lon="32.3803934"><ele>463.1</ele><time>2015-04-24T16:53:42.0000000+00:00</time></trkpt><trkpt lat="34.8946934" lon="32.3804597"><ele>464.6</ele><time>2015-04-24T16:53:45.0000000+00:00</time></trkpt><trkpt lat="34.8946857" lon="32.3805254"><ele>464.9</ele><time>2015-04-24T16:53:48.0000000+00:00</time></trkpt><trkpt lat="34.8946844" lon="32.3805948"><ele>465.8</ele><time>2015-04-24T16:53:51.0000000+00:00</time></trkpt><trkpt lat="34.8946931" lon="32.3806712"><ele>467.3</ele><time>2015-04-24T16:53:54.0000000+00:00</time></trkpt><trkpt lat="34.8947016" lon="32.3807456"><ele>470.0</ele><time>2015-04-24T16:53:57.0000000+00:00</time></trkpt><trkpt lat="34.8947059" lon="32.3808026"><ele>471.3</ele><time>2015-04-24T16:54:00.0000000+00:00</time></trkpt><trkpt lat="34.894714" lon="32.3808745"><ele>472.2</ele><time>2015-04-24T16:54:04.0000000+00:00</time></trkpt><trkpt lat="34.894717" lon="32.38094"><ele>474.6</ele><time>2015-04-24T16:54:07.0000000+00:00</time></trkpt><trkpt lat="34.8947292" lon="32.3810118"><ele>476.9</ele><time>2015-04-24T16:54:10.0000000+00:00</time></trkpt><trkpt lat="34.894737" lon="32.3810902"><ele>479.4</ele><time>2015-04-24T16:54:13.0000000+00:00</time></trkpt><trkpt lat="34.8947548" lon="32.381163"><ele>478.9</ele><time>2015-04-24T16:54:16.0000000+00:00</time></trkpt><trkpt lat="34.8947744" lon="32.3812258"><ele>477.5</ele><time>2015-04-24T16:54:19.0000000+00:00</time></trkpt><trkpt lat="34.8947993" lon="32.3812902"><ele>475.8</ele><time>2015-04-24T16:54:22.0000000+00:00</time></trkpt><trkpt lat="34.8948252" lon="32.3813558"><ele>475.0</ele><time>2015-04-24T16:54:25.0000000+00:00</time></trkpt><trkpt lat="34.8948466" lon="32.381416"><ele>474.9</ele><time>2015-04-24T16:54:28.0000000+00:00</time></trkpt><trkpt lat="34.8948644" lon="32.3814855"><ele>473.2</ele><time>2015-04-24T16:54:32.0000000+00:00</time></trkpt><trkpt lat="34.8948823" lon="32.3815446"><ele>472.1</ele><time>2015-04-24T16:54:35.0000000+00:00</time></trkpt><trkpt lat="34.8949042" lon="32.3816091"><ele>471.5</ele><time>2015-04-24T16:54:38.0000000+00:00</time></trkpt><trkpt lat="34.8949215" lon="32.3816766"><ele>471.9</ele><time>2015-04-24T16:54:41.0000000+00:00</time></trkpt><trkpt lat="34.8949434" lon="32.3817395"><ele>471.9</ele><time>2015-04-24T16:54:44.0000000+00:00</time></trkpt><trkpt lat="34.8949736" lon="32.3818016"><ele>472.7</ele><time>2015-04-24T16:54:47.0000000+00:00</time></trkpt><trkpt lat="34.894995" lon="32.3818659"><ele>473.4</ele><time>2015-04-24T16:54:50.0000000+00:00</time></trkpt><trkpt lat="34.8950131" lon="32.3819267"><ele>473.9</ele><time>2015-04-24T16:54:53.0000000+00:00</time></trkpt><trkpt lat="34.8950313" lon="32.3819859"><ele>473.9</ele><time>2015-04-24T16:54:56.0000000+00:00</time></trkpt><trkpt lat="34.8950516" lon="32.3820538"><ele>475.2</ele><time>2015-04-24T16:55:00.0000000+00:00</time></trkpt><trkpt lat="34.8950766" lon="32.3821118"><ele>475.8</ele><time>2015-04-24T16:55:04.0000000+00:00</time></trkpt><trkpt lat="34.8950968" lon="32.3821808"><ele>476.2</ele><time>2015-04-24T16:55:08.0000000+00:00</time></trkpt><trkpt lat="34.8951143" lon="32.3822382"><ele>476.2</ele><time>2015-04-24T16:55:11.0000000+00:00</time></trkpt><trkpt lat="34.8951307" lon="32.3822998"><ele>476.5</ele><time>2015-04-24T16:55:14.0000000+00:00</time></trkpt><trkpt lat="34.8951507" lon="32.3823582"><ele>478.1</ele><time>2015-04-24T16:55:17.0000000+00:00</time></trkpt><trkpt lat="34.8951674" lon="32.3824215"><ele>478.8</ele><time>2015-04-24T16:55:20.0000000+00:00</time></trkpt><trkpt lat="34.8951876" lon="32.3824759"><ele>478.9</ele><time>2015-04-24T16:55:23.0000000+00:00</time></trkpt><trkpt lat="34.8952123" lon="32.3825324"><ele>478.7</ele><time>2015-04-24T16:55:26.0000000+00:00</time></trkpt><trkpt lat="34.89524" lon="32.3825889"><ele>479.4</ele><time>2015-04-24T16:55:29.0000000+00:00</time></trkpt><trkpt lat="34.8952633" lon="32.38265"><ele>479.9</ele><time>2015-04-24T16:55:32.0000000+00:00</time></trkpt><trkpt lat="34.895292" lon="32.3827047"><ele>479.9</ele><time>2015-04-24T16:55:35.0000000+00:00</time></trkpt><trkpt lat="34.8953288" lon="32.3827635"><ele>479.9</ele><time>2015-04-24T16:55:38.0000000+00:00</time></trkpt><trkpt lat="34.8953503" lon="32.3828122"><ele>479.9</ele><time>2015-04-24T16:55:40.0000000+00:00</time></trkpt><trkpt lat="34.8953755" lon="32.3828714"><ele>480.2</ele><time>2015-04-24T16:55:43.0000000+00:00</time></trkpt><trkpt lat="34.8954024" lon="32.3829205"><ele>478.9</ele><time>2015-04-24T16:55:47.0000000+00:00</time></trkpt><trkpt lat="34.8954333" lon="32.3829693"><ele>479.4</ele><time>2015-04-24T16:55:51.0000000+00:00</time></trkpt><trkpt lat="34.895471" lon="32.383024"><ele>480.8</ele><time>2015-04-24T16:55:55.0000000+00:00</time></trkpt><trkpt lat="34.8954973" lon="32.3830785"><ele>481.5</ele><time>2015-04-24T16:55:58.0000000+00:00</time></trkpt><trkpt lat="34.8955249" lon="32.3831394"><ele>482.6</ele><time>2015-04-24T16:56:01.0000000+00:00</time></trkpt><trkpt lat="34.895555" lon="32.3832012"><ele>483.8</ele><time>2015-04-24T16:56:04.0000000+00:00</time></trkpt><trkpt lat="34.8955806" lon="32.3832648"><ele>485.2</ele><time>2015-04-24T16:56:07.0000000+00:00</time></trkpt><trkpt lat="34.8956134" lon="32.3833254"><ele>486.2</ele><time>2015-04-24T16:56:10.0000000+00:00</time></trkpt><trkpt lat="34.8956406" lon="32.3833875"><ele>486.5</ele><time>2015-04-24T16:56:13.0000000+00:00</time></trkpt><trkpt lat="34.8956736" lon="32.3834457"><ele>487.9</ele><time>2015-04-24T16:56:16.0000000+00:00</time></trkpt><trkpt lat="34.8957018" lon="32.3835083"><ele>488.8</ele><time>2015-04-24T16:56:19.0000000+00:00</time></trkpt><trkpt lat="34.8957389" lon="32.3835667"><ele>490.8</ele><time>2015-04-24T16:56:22.0000000+00:00</time></trkpt><trkpt lat="34.895774" lon="32.3836276"><ele>491.8</ele><time>2015-04-24T16:56:25.0000000+00:00</time></trkpt><trkpt lat="34.8958066" lon="32.3836899"><ele>491.9</ele><time>2015-04-24T16:56:28.0000000+00:00</time></trkpt><trkpt lat="34.8958358" lon="32.3837511"><ele>492.4</ele><time>2015-04-24T16:56:31.0000000+00:00</time></trkpt><trkpt lat="34.8958641" lon="32.3838182"><ele>495.4</ele><time>2015-04-24T16:56:34.0000000+00:00</time></trkpt><trkpt lat="34.8958992" lon="32.383884"><ele>498.1</ele><time>2015-04-24T16:56:37.0000000+00:00</time></trkpt><trkpt lat="34.8959236" lon="32.3839619"><ele>498.3</ele><time>2015-04-24T16:56:40.0000000+00:00</time></trkpt><trkpt lat="34.8959355" lon="32.3840235"><ele>498.8</ele><time>2015-04-24T16:56:42.0000000+00:00</time></trkpt><trkpt lat="34.8959615" lon="32.3840809"><ele>498.4</ele><time>2015-04-24T16:56:44.0000000+00:00</time></trkpt><trkpt lat="34.8959962" lon="32.3841296"><ele>497.3</ele><time>2015-04-24T16:56:46.0000000+00:00</time></trkpt><trkpt lat="34.8960254" lon="32.384172"><ele>497.0</ele><time>2015-04-24T16:56:48.0000000+00:00</time></trkpt><trkpt lat="34.8960687" lon="32.3842187"><ele>494.2</ele><time>2015-04-24T16:56:51.0000000+00:00</time></trkpt><trkpt lat="34.8961001" lon="32.3842733"><ele>494.7</ele><time>2015-04-24T16:56:54.0000000+00:00</time></trkpt><trkpt lat="34.8961099" lon="32.3843357"><ele>496.2</ele><time>2015-04-24T16:56:57.0000000+00:00</time></trkpt><trkpt lat="34.896115" lon="32.3843908"><ele>495.6</ele><time>2015-04-24T16:57:02.0000000+00:00</time></trkpt><trkpt lat="34.8961108" lon="32.3844471"><ele>495.1</ele><time>2015-04-24T16:57:08.0000000+00:00</time></trkpt><trkpt lat="34.8960656" lon="32.3844364"><ele>492.7</ele><time>2015-04-24T17:01:43.0000000+00:00</time></trkpt><trkpt lat="34.8961039" lon="32.3843935"><ele>489.9</ele><time>2015-04-24T17:04:21.0000000+00:00</time></trkpt><trkpt lat="34.8961513" lon="32.3843911"><ele>490.4</ele><time>2015-04-24T17:04:24.0000000+00:00</time></trkpt><trkpt lat="34.8961898" lon="32.3844468"><ele>490.9</ele><time>2015-04-24T17:04:27.0000000+00:00</time></trkpt><trkpt lat="34.896242" lon="32.3844873"><ele>492.0</ele><time>2015-04-24T17:04:30.0000000+00:00</time></trkpt><trkpt lat="34.896284" lon="32.384509"><ele>492.2</ele><time>2015-04-24T17:04:32.0000000+00:00</time></trkpt><trkpt lat="34.8963185" lon="32.3845443"><ele>491.7</ele><time>2015-04-24T17:04:34.0000000+00:00</time></trkpt><trkpt lat="34.8963596" lon="32.3846082"><ele>491.9</ele><time>2015-04-24T17:04:37.0000000+00:00</time></trkpt><trkpt lat="34.8963969" lon="32.3846748"><ele>493.2</ele><time>2015-04-24T17:04:40.0000000+00:00</time></trkpt><trkpt lat="34.8964262" lon="32.384728"><ele>494.3</ele><time>2015-04-24T17:04:43.0000000+00:00</time></trkpt><trkpt lat="34.8964568" lon="32.3847763"><ele>495.1</ele><time>2015-04-24T17:04:46.0000000+00:00</time></trkpt><trkpt lat="34.8964878" lon="32.3848287"><ele>496.2</ele><time>2015-04-24T17:04:49.0000000+00:00</time></trkpt><trkpt lat="34.8965106" lon="32.38489"><ele>498.5</ele><time>2015-04-24T17:04:52.0000000+00:00</time></trkpt><trkpt lat="34.8965428" lon="32.3849581"><ele>498.9</ele><time>2015-04-24T17:04:55.0000000+00:00</time></trkpt><trkpt lat="34.8965723" lon="32.3850026"><ele>499.4</ele><time>2015-04-24T17:04:57.0000000+00:00</time></trkpt><trkpt lat="34.8966101" lon="32.3850709"><ele>500.7</ele><time>2015-04-24T17:05:00.0000000+00:00</time></trkpt><trkpt lat="34.8966486" lon="32.3851271"><ele>500.9</ele><time>2015-04-24T17:05:03.0000000+00:00</time></trkpt><trkpt lat="34.8966843" lon="32.3851759"><ele>500.2</ele><time>2015-04-24T17:05:06.0000000+00:00</time></trkpt><trkpt lat="34.896713" lon="32.3852268"><ele>500.0</ele><time>2015-04-24T17:05:09.0000000+00:00</time></trkpt><trkpt lat="34.8967462" lon="32.3852826"><ele>500.6</ele><time>2015-04-24T17:05:12.0000000+00:00</time></trkpt><trkpt lat="34.8967843" lon="32.3853441"><ele>500.0</ele><time>2015-04-24T17:05:15.0000000+00:00</time></trkpt><trkpt lat="34.8968265" lon="32.3854071"><ele>499.9</ele><time>2015-04-24T17:05:18.0000000+00:00</time></trkpt><trkpt lat="34.8968542" lon="32.3854519"><ele>499.9</ele><time>2015-04-24T17:05:20.0000000+00:00</time></trkpt><trkpt lat="34.8968833" lon="32.3855015"><ele>499.9</ele><time>2015-04-24T17:05:22.0000000+00:00</time></trkpt><trkpt lat="34.8969139" lon="32.3855518"><ele>499.9</ele><time>2015-04-24T17:05:24.0000000+00:00</time></trkpt><trkpt lat="34.8969421" lon="32.3856099"><ele>499.9</ele><time>2015-04-24T17:05:26.0000000+00:00</time></trkpt><trkpt lat="34.8969677" lon="32.3856672"><ele>500.4</ele><time>2015-04-24T17:05:28.0000000+00:00</time></trkpt><trkpt lat="34.8969978" lon="32.3857192"><ele>500.8</ele><time>2015-04-24T17:05:30.0000000+00:00</time></trkpt><trkpt lat="34.8970313" lon="32.3857738"><ele>500.9</ele><time>2015-04-24T17:05:32.0000000+00:00</time></trkpt><trkpt lat="34.8970658" lon="32.3858318"><ele>500.9</ele><time>2015-04-24T17:05:34.0000000+00:00</time></trkpt><trkpt lat="34.897099" lon="32.385892"><ele>501.4</ele><time>2015-04-24T17:05:36.0000000+00:00</time></trkpt><trkpt lat="34.897132" lon="32.3859505"><ele>501.8</ele><time>2015-04-24T17:05:38.0000000+00:00</time></trkpt><trkpt lat="34.8971637" lon="32.386011"><ele>502.4</ele><time>2015-04-24T17:05:40.0000000+00:00</time></trkpt><trkpt lat="34.897194" lon="32.3860745"><ele>503.3</ele><time>2015-04-24T17:05:42.0000000+00:00</time></trkpt><trkpt lat="34.8972287" lon="32.386138"><ele>504.3</ele><time>2015-04-24T17:05:44.0000000+00:00</time></trkpt><trkpt lat="34.8972666" lon="32.3862078"><ele>504.8</ele><time>2015-04-24T17:05:46.0000000+00:00</time></trkpt><trkpt lat="34.8973073" lon="32.386279"><ele>504.9</ele><time>2015-04-24T17:05:48.0000000+00:00</time></trkpt><trkpt lat="34.8973503" lon="32.3863462"><ele>505.4</ele><time>2015-04-24T17:05:50.0000000+00:00</time></trkpt><trkpt lat="34.8973837" lon="32.3864064"><ele>506.3</ele><time>2015-04-24T17:05:52.0000000+00:00</time></trkpt><trkpt lat="34.8974114" lon="32.3864597"><ele>507.3</ele><time>2015-04-24T17:05:54.0000000+00:00</time></trkpt><trkpt lat="34.8974436" lon="32.3865079"><ele>507.8</ele><time>2015-04-24T17:05:56.0000000+00:00</time></trkpt><trkpt lat="34.8974764" lon="32.3865603"><ele>508.6</ele><time>2015-04-24T17:05:58.0000000+00:00</time></trkpt><trkpt lat="34.8975142" lon="32.3866147"><ele>508.9</ele><time>2015-04-24T17:06:00.0000000+00:00</time></trkpt><trkpt lat="34.8975546" lon="32.3866666"><ele>509.4</ele><time>2015-04-24T17:06:02.0000000+00:00</time></trkpt><trkpt lat="34.8975977" lon="32.3867183"><ele>510.3</ele><time>2015-04-24T17:06:04.0000000+00:00</time></trkpt><trkpt lat="34.8976438" lon="32.3867722"><ele>511.3</ele><time>2015-04-24T17:06:06.0000000+00:00</time></trkpt><trkpt lat="34.8976876" lon="32.3868207"><ele>511.0</ele><time>2015-04-24T17:06:08.0000000+00:00</time></trkpt><trkpt lat="34.8977272" lon="32.3868656"><ele>511.0</ele><time>2015-04-24T17:06:10.0000000+00:00</time></trkpt><trkpt lat="34.8977704" lon="32.3869084"><ele>510.7</ele><time>2015-04-24T17:06:12.0000000+00:00</time></trkpt><trkpt lat="34.897814" lon="32.3869536"><ele>511.6</ele><time>2015-04-24T17:06:14.0000000+00:00</time></trkpt><trkpt lat="34.8978608" lon="32.3869922"><ele>511.4</ele><time>2015-04-24T17:06:16.0000000+00:00</time></trkpt><trkpt lat="34.8979095" lon="32.3870335"><ele>511.0</ele><time>2015-04-24T17:06:18.0000000+00:00</time></trkpt><trkpt lat="34.897958" lon="32.3870747"><ele>511.0</ele><time>2015-04-24T17:06:20.0000000+00:00</time></trkpt><trkpt lat="34.8980063" lon="32.3871208"><ele>510.9</ele><time>2015-04-24T17:06:22.0000000+00:00</time></trkpt><trkpt lat="34.8980575" lon="32.387168"><ele>510.9</ele><time>2015-04-24T17:06:24.0000000+00:00</time></trkpt><trkpt lat="34.8981126" lon="32.3872214"><ele>511.7</ele><time>2015-04-24T17:06:26.0000000+00:00</time></trkpt><trkpt lat="34.8981701" lon="32.3872709"><ele>511.9</ele><time>2015-04-24T17:06:28.0000000+00:00</time></trkpt><trkpt lat="34.8982226" lon="32.3873191"><ele>512.2</ele><time>2015-04-24T17:06:30.0000000+00:00</time></trkpt><trkpt lat="34.8982635" lon="32.3873666"><ele>512.0</ele><time>2015-04-24T17:06:32.0000000+00:00</time></trkpt><trkpt lat="34.8983034" lon="32.3874013"><ele>511.4</ele><time>2015-04-24T17:06:34.0000000+00:00</time></trkpt><trkpt lat="34.8983506" lon="32.3874213"><ele>511.1</ele><time>2015-04-24T17:06:36.0000000+00:00</time></trkpt><trkpt lat="34.8983951" lon="32.3874592"><ele>511.0</ele><time>2015-04-24T17:06:38.0000000+00:00</time></trkpt><trkpt lat="34.898441" lon="32.387507"><ele>511.7</ele><time>2015-04-24T17:06:40.0000000+00:00</time></trkpt><trkpt lat="34.8984942" lon="32.387556"><ele>512.4</ele><time>2015-04-24T17:06:42.0000000+00:00</time></trkpt><trkpt lat="34.8985506" lon="32.3876071"><ele>512.8</ele><time>2015-04-24T17:06:44.0000000+00:00</time></trkpt><trkpt lat="34.8986406" lon="32.3876998"><ele>513.6</ele><time>2015-04-24T17:06:46.0000000+00:00</time></trkpt><trkpt lat="34.8987105" lon="32.3877697"><ele>514.4</ele><time>2015-04-24T17:06:48.0000000+00:00</time></trkpt><trkpt lat="34.8987775" lon="32.3878107"><ele>514.5</ele><time>2015-04-24T17:06:50.0000000+00:00</time></trkpt><trkpt lat="34.8988262" lon="32.387841"><ele>514.1</ele><time>2015-04-24T17:06:52.0000000+00:00</time></trkpt><trkpt lat="34.8988768" lon="32.3878905"><ele>514.0</ele><time>2015-04-24T17:06:54.0000000+00:00</time></trkpt><trkpt lat="34.8989325" lon="32.3879325"><ele>513.7</ele><time>2015-04-24T17:06:56.0000000+00:00</time></trkpt><trkpt lat="34.8989863" lon="32.3879844"><ele>513.9</ele><time>2015-04-24T17:06:58.0000000+00:00</time></trkpt><trkpt lat="34.8990387" lon="32.3880342"><ele>513.9</ele><time>2015-04-24T17:07:00.0000000+00:00</time></trkpt><trkpt lat="34.8990874" lon="32.388081"><ele>514.4</ele><time>2015-04-24T17:07:02.0000000+00:00</time></trkpt><trkpt lat="34.8991277" lon="32.3881239"><ele>514.8</ele><time>2015-04-24T17:07:04.0000000+00:00</time></trkpt><trkpt lat="34.8991668" lon="32.3881586"><ele>514.9</ele><time>2015-04-24T17:07:06.0000000+00:00</time></trkpt><trkpt lat="34.89921" lon="32.3881898"><ele>514.4</ele><time>2015-04-24T17:07:08.0000000+00:00</time></trkpt><trkpt lat="34.8992557" lon="32.3882302"><ele>513.6</ele><time>2015-04-24T17:07:10.0000000+00:00</time></trkpt><trkpt lat="34.8993056" lon="32.3882748"><ele>513.6</ele><time>2015-04-24T17:07:12.0000000+00:00</time></trkpt><trkpt lat="34.8993602" lon="32.3883208"><ele>513.8</ele><time>2015-04-24T17:07:14.0000000+00:00</time></trkpt><trkpt lat="34.8994163" lon="32.3883719"><ele>514.4</ele><time>2015-04-24T17:07:16.0000000+00:00</time></trkpt><trkpt lat="34.8994721" lon="32.3884268"><ele>514.8</ele><time>2015-04-24T17:07:18.0000000+00:00</time></trkpt><trkpt lat="34.8995246" lon="32.3884905"><ele>515.6</ele><time>2015-04-24T17:07:20.0000000+00:00</time></trkpt><trkpt lat="34.8995791" lon="32.388554"><ele>516.4</ele><time>2015-04-24T17:07:22.0000000+00:00</time></trkpt><trkpt lat="34.8996331" lon="32.388619"><ele>517.3</ele><time>2015-04-24T17:07:24.0000000+00:00</time></trkpt><trkpt lat="34.8996894" lon="32.3886825"><ele>516.5</ele><time>2015-04-24T17:07:26.0000000+00:00</time></trkpt><trkpt lat="34.8997452" lon="32.3887465"><ele>516.1</ele><time>2015-04-24T17:07:28.0000000+00:00</time></trkpt><trkpt lat="34.8997976" lon="32.3888116"><ele>516.7</ele><time>2015-04-24T17:07:30.0000000+00:00</time></trkpt><trkpt lat="34.8998418" lon="32.3888686"><ele>516.9</ele><time>2015-04-24T17:07:32.0000000+00:00</time></trkpt><trkpt lat="34.8998681" lon="32.3889169"><ele>517.3</ele><time>2015-04-24T17:07:35.0000000+00:00</time></trkpt><trkpt lat="34.8998979" lon="32.3889721"><ele>517.0</ele><time>2015-04-24T17:07:39.0000000+00:00</time></trkpt><trkpt lat="34.8999364" lon="32.3890227"><ele>518.6</ele><time>2015-04-24T17:07:42.0000000+00:00</time></trkpt><trkpt lat="34.8999681" lon="32.3890628"><ele>518.8</ele><time>2015-04-24T17:07:44.0000000+00:00</time></trkpt><trkpt lat="34.8999998" lon="32.389113"><ele>518.4</ele><time>2015-04-24T17:07:46.0000000+00:00</time></trkpt><trkpt lat="34.9000335" lon="32.3891658"><ele>518.8</ele><time>2015-04-24T17:07:48.0000000+00:00</time></trkpt><trkpt lat="34.9000707" lon="32.3892175"><ele>518.6</ele><time>2015-04-24T17:07:50.0000000+00:00</time></trkpt><trkpt lat="34.9001068" lon="32.3892752"><ele>520.4</ele><time>2015-04-24T17:07:52.0000000+00:00</time></trkpt><trkpt lat="34.9001448" lon="32.3893336"><ele>521.8</ele><time>2015-04-24T17:07:54.0000000+00:00</time></trkpt><trkpt lat="34.9001849" lon="32.3893941"><ele>521.9</ele><time>2015-04-24T17:07:56.0000000+00:00</time></trkpt><trkpt lat="34.9002261" lon="32.3894563"><ele>521.9</ele><time>2015-04-24T17:07:58.0000000+00:00</time></trkpt><trkpt lat="34.9002711" lon="32.3895101"><ele>521.9</ele><time>2015-04-24T17:08:00.0000000+00:00</time></trkpt><trkpt lat="34.9003125" lon="32.389566"><ele>521.7</ele><time>2015-04-24T17:08:02.0000000+00:00</time></trkpt><trkpt lat="34.9003481" lon="32.389626"><ele>521.9</ele><time>2015-04-24T17:08:04.0000000+00:00</time></trkpt><trkpt lat="34.9003783" lon="32.3896878"><ele>521.4</ele><time>2015-04-24T17:08:06.0000000+00:00</time></trkpt><trkpt lat="34.9004143" lon="32.3897454"><ele>521.1</ele><time>2015-04-24T17:08:08.0000000+00:00</time></trkpt><trkpt lat="34.9004532" lon="32.3897984"><ele>521.7</ele><time>2015-04-24T17:08:10.0000000+00:00</time></trkpt><trkpt lat="34.9004889" lon="32.3898569"><ele>521.9</ele><time>2015-04-24T17:08:12.0000000+00:00</time></trkpt><trkpt lat="34.9005208" lon="32.3899133"><ele>521.2</ele><time>2015-04-24T17:08:14.0000000+00:00</time></trkpt><trkpt lat="34.9005517" lon="32.3899706"><ele>521.5</ele><time>2015-04-24T17:08:16.0000000+00:00</time></trkpt><trkpt lat="34.9005884" lon="32.3900243"><ele>521.8</ele><time>2015-04-24T17:08:18.0000000+00:00</time></trkpt><trkpt lat="34.9006264" lon="32.3900796"><ele>521.9</ele><time>2015-04-24T17:08:20.0000000+00:00</time></trkpt><trkpt lat="34.9006658" lon="32.3901367"><ele>521.9</ele><time>2015-04-24T17:08:22.0000000+00:00</time></trkpt><trkpt lat="34.9007076" lon="32.3901961"><ele>522.7</ele><time>2015-04-24T17:08:24.0000000+00:00</time></trkpt><trkpt lat="34.9007428" lon="32.390257"><ele>522.6</ele><time>2015-04-24T17:08:26.0000000+00:00</time></trkpt><trkpt lat="34.9007726" lon="32.3903042"><ele>522.4</ele><time>2015-04-24T17:08:28.0000000+00:00</time></trkpt><trkpt lat="34.9008139" lon="32.3903598"><ele>522.1</ele><time>2015-04-24T17:08:32.0000000+00:00</time></trkpt><trkpt lat="34.9008559" lon="32.3904246"><ele>524.2</ele><time>2015-04-24T17:08:35.0000000+00:00</time></trkpt><trkpt lat="34.900887" lon="32.3904802"><ele>525.2</ele><time>2015-04-24T17:08:37.0000000+00:00</time></trkpt><trkpt lat="34.9009204" lon="32.3905375"><ele>525.3</ele><time>2015-04-24T17:08:39.0000000+00:00</time></trkpt><trkpt lat="34.9009606" lon="32.3905962"><ele>526.3</ele><time>2015-04-24T17:08:41.0000000+00:00</time></trkpt><trkpt lat="34.9010005" lon="32.3906641"><ele>527.8</ele><time>2015-04-24T17:08:43.0000000+00:00</time></trkpt><trkpt lat="34.9010398" lon="32.3907386"><ele>528.6</ele><time>2015-04-24T17:08:45.0000000+00:00</time></trkpt><trkpt lat="34.9010847" lon="32.3908156"><ele>528.9</ele><time>2015-04-24T17:08:47.0000000+00:00</time></trkpt><trkpt lat="34.9011314" lon="32.3908995"><ele>529.7</ele><time>2015-04-24T17:08:49.0000000+00:00</time></trkpt><trkpt lat="34.9011718" lon="32.3909652"><ele>529.9</ele><time>2015-04-24T17:08:51.0000000+00:00</time></trkpt><trkpt lat="34.9012094" lon="32.3910181"><ele>530.2</ele><time>2015-04-24T17:08:53.0000000+00:00</time></trkpt><trkpt lat="34.9012428" lon="32.3910664"><ele>530.7</ele><time>2015-04-24T17:08:55.0000000+00:00</time></trkpt><trkpt lat="34.9012784" lon="32.3911211"><ele>530.9</ele><time>2015-04-24T17:08:57.0000000+00:00</time></trkpt><trkpt lat="34.9013148" lon="32.3911789"><ele>530.2</ele><time>2015-04-24T17:08:59.0000000+00:00</time></trkpt><trkpt lat="34.9013559" lon="32.3912389"><ele>530.0</ele><time>2015-04-24T17:09:01.0000000+00:00</time></trkpt><trkpt lat="34.9013947" lon="32.391298"><ele>529.4</ele><time>2015-04-24T17:09:03.0000000+00:00</time></trkpt><trkpt lat="34.9014354" lon="32.3913614"><ele>529.1</ele><time>2015-04-24T17:09:05.0000000+00:00</time></trkpt><trkpt lat="34.9014775" lon="32.3914225"><ele>529.7</ele><time>2015-04-24T17:09:07.0000000+00:00</time></trkpt><trkpt lat="34.9015211" lon="32.3914807"><ele>530.6</ele><time>2015-04-24T17:09:09.0000000+00:00</time></trkpt><trkpt lat="34.9015605" lon="32.3915394"><ele>531.6</ele><time>2015-04-24T17:09:11.0000000+00:00</time></trkpt><trkpt lat="34.901596" lon="32.3915975"><ele>531.6</ele><time>2015-04-24T17:09:13.0000000+00:00</time></trkpt><trkpt lat="34.901628" lon="32.3916538"><ele>531.8</ele><time>2015-04-24T17:09:15.0000000+00:00</time></trkpt><trkpt lat="34.9016583" lon="32.3917156"><ele>531.7</ele><time>2015-04-24T17:09:17.0000000+00:00</time></trkpt><trkpt lat="34.9016867" lon="32.3917782"><ele>531.1</ele><time>2015-04-24T17:09:19.0000000+00:00</time></trkpt><trkpt lat="34.9017107" lon="32.3918408"><ele>531.0</ele><time>2015-04-24T17:09:21.0000000+00:00</time></trkpt><trkpt lat="34.9017254" lon="32.3919102"><ele>531.6</ele><time>2015-04-24T17:09:24.0000000+00:00</time></trkpt><trkpt lat="34.9017454" lon="32.3919737"><ele>532.4</ele><time>2015-04-24T17:09:27.0000000+00:00</time></trkpt><trkpt lat="34.9017704" lon="32.3920292"><ele>533.3</ele><time>2015-04-24T17:09:29.0000000+00:00</time></trkpt><trkpt lat="34.9017902" lon="32.3920984"><ele>534.3</ele><time>2015-04-24T17:09:31.0000000+00:00</time></trkpt><trkpt lat="34.9018107" lon="32.3921781"><ele>534.8</ele><time>2015-04-24T17:09:33.0000000+00:00</time></trkpt><trkpt lat="34.9018286" lon="32.3922557"><ele>534.9</ele><time>2015-04-24T17:09:35.0000000+00:00</time></trkpt><trkpt lat="34.9018432" lon="32.3923259"><ele>534.9</ele><time>2015-04-24T17:09:37.0000000+00:00</time></trkpt><trkpt lat="34.9018533" lon="32.3923801"><ele>534.4</ele><time>2015-04-24T17:09:39.0000000+00:00</time></trkpt><trkpt lat="34.901854" lon="32.3924371"><ele>533.4</ele><time>2015-04-24T17:09:42.0000000+00:00</time></trkpt><trkpt lat="34.9018606" lon="32.3924932"><ele>533.0</ele><time>2015-04-24T17:09:46.0000000+00:00</time></trkpt><trkpt lat="34.9018735" lon="32.3925501"><ele>534.7</ele><time>2015-04-24T17:09:50.0000000+00:00</time></trkpt><trkpt lat="34.9018891" lon="32.3926089"><ele>534.9</ele><time>2015-04-24T17:09:53.0000000+00:00</time></trkpt><trkpt lat="34.9019094" lon="32.392682"><ele>534.9</ele><time>2015-04-24T17:09:56.0000000+00:00</time></trkpt><trkpt lat="34.9019229" lon="32.3927435"><ele>534.9</ele><time>2015-04-24T17:09:58.0000000+00:00</time></trkpt><trkpt lat="34.9019341" lon="32.3928128"><ele>535.2</ele><time>2015-04-24T17:10:00.0000000+00:00</time></trkpt><trkpt lat="34.9019465" lon="32.392882"><ele>535.7</ele><time>2015-04-24T17:10:02.0000000+00:00</time></trkpt><trkpt lat="34.901965" lon="32.3929506"><ele>535.9</ele><time>2015-04-24T17:10:04.0000000+00:00</time></trkpt><trkpt lat="34.9019851" lon="32.3930215"><ele>535.9</ele><time>2015-04-24T17:10:06.0000000+00:00</time></trkpt><trkpt lat="34.902003" lon="32.3930924"><ele>535.4</ele><time>2015-04-24T17:10:08.0000000+00:00</time></trkpt><trkpt lat="34.9020174" lon="32.3931614"><ele>535.6</ele><time>2015-04-24T17:10:10.0000000+00:00</time></trkpt><trkpt lat="34.9020312" lon="32.3932284"><ele>535.8</ele><time>2015-04-24T17:10:12.0000000+00:00</time></trkpt><trkpt lat="34.9020454" lon="32.3932918"><ele>536.4</ele><time>2015-04-24T17:10:14.0000000+00:00</time></trkpt><trkpt lat="34.9020588" lon="32.3933524"><ele>536.3</ele><time>2015-04-24T17:10:16.0000000+00:00</time></trkpt><trkpt lat="34.9020713" lon="32.3934136"><ele>536.5</ele><time>2015-04-24T17:10:18.0000000+00:00</time></trkpt><trkpt lat="34.9020852" lon="32.3934773"><ele>536.8</ele><time>2015-04-24T17:10:20.0000000+00:00</time></trkpt><trkpt lat="34.9020982" lon="32.393538"><ele>536.4</ele><time>2015-04-24T17:10:22.0000000+00:00</time></trkpt><trkpt lat="34.9021097" lon="32.3935969"><ele>536.5</ele><time>2015-04-24T17:10:24.0000000+00:00</time></trkpt><trkpt lat="34.9021166" lon="32.3936544"><ele>536.3</ele><time>2015-04-24T17:10:26.0000000+00:00</time></trkpt><trkpt lat="34.9021272" lon="32.3937087"><ele>536.0</ele><time>2015-04-24T17:10:28.0000000+00:00</time></trkpt><trkpt lat="34.9021439" lon="32.3937645"><ele>536.0</ele><time>2015-04-24T17:10:30.0000000+00:00</time></trkpt><trkpt lat="34.9021605" lon="32.3938231"><ele>535.9</ele><time>2015-04-24T17:10:32.0000000+00:00</time></trkpt><trkpt lat="34.9021771" lon="32.3938856"><ele>536.4</ele><time>2015-04-24T17:10:34.0000000+00:00</time></trkpt><trkpt lat="34.9021923" lon="32.3939507"><ele>536.8</ele><time>2015-04-24T17:10:36.0000000+00:00</time></trkpt><trkpt lat="34.9022061" lon="32.3940191"><ele>537.4</ele><time>2015-04-24T17:10:38.0000000+00:00</time></trkpt><trkpt lat="34.9022201" lon="32.3940869"><ele>537.8</ele><time>2015-04-24T17:10:40.0000000+00:00</time></trkpt><trkpt lat="34.902236" lon="32.3941528"><ele>537.9</ele><time>2015-04-24T17:10:42.0000000+00:00</time></trkpt><trkpt lat="34.9022503" lon="32.3942206"><ele>538.7</ele><time>2015-04-24T17:10:44.0000000+00:00</time></trkpt><trkpt lat="34.9022638" lon="32.3942882"><ele>538.9</ele><time>2015-04-24T17:10:46.0000000+00:00</time></trkpt><trkpt lat="34.9022776" lon="32.3943486"><ele>538.9</ele><time>2015-04-24T17:10:48.0000000+00:00</time></trkpt><trkpt lat="34.9022931" lon="32.394403"><ele>538.9</ele><time>2015-04-24T17:10:50.0000000+00:00</time></trkpt><trkpt lat="34.9023108" lon="32.3944826"><ele>538.9</ele><time>2015-04-24T17:10:53.0000000+00:00</time></trkpt><trkpt lat="34.9023187" lon="32.3945617"><ele>538.9</ele><time>2015-04-24T17:10:56.0000000+00:00</time></trkpt><trkpt lat="34.9023298" lon="32.3946336"><ele>538.9</ele><time>2015-04-24T17:10:59.0000000+00:00</time></trkpt><trkpt lat="34.9023512" lon="32.3947146"><ele>538.9</ele><time>2015-04-24T17:11:02.0000000+00:00</time></trkpt><trkpt lat="34.9023692" lon="32.3947787"><ele>540.4</ele><time>2015-04-24T17:11:04.0000000+00:00</time></trkpt><trkpt lat="34.9023896" lon="32.394859"><ele>540.8</ele><time>2015-04-24T17:11:06.0000000+00:00</time></trkpt><trkpt lat="34.9024079" lon="32.3949497"><ele>540.4</ele><time>2015-04-24T17:11:08.0000000+00:00</time></trkpt><trkpt lat="34.902426" lon="32.3950422"><ele>540.0</ele><time>2015-04-24T17:11:10.0000000+00:00</time></trkpt><trkpt lat="34.9024445" lon="32.3951312"><ele>540.5</ele><time>2015-04-24T17:11:12.0000000+00:00</time></trkpt><trkpt lat="34.9024631" lon="32.3952169"><ele>541.3</ele><time>2015-04-24T17:11:14.0000000+00:00</time></trkpt><trkpt lat="34.9024798" lon="32.3952967"><ele>541.8</ele><time>2015-04-24T17:11:16.0000000+00:00</time></trkpt><trkpt lat="34.9025016" lon="32.3953706"><ele>541.9</ele><time>2015-04-24T17:11:18.0000000+00:00</time></trkpt><trkpt lat="34.9025232" lon="32.3954396"><ele>541.9</ele><time>2015-04-24T17:11:20.0000000+00:00</time></trkpt><trkpt lat="34.9025402" lon="32.3955042"><ele>541.9</ele><time>2015-04-24T17:11:22.0000000+00:00</time></trkpt><trkpt lat="34.9025636" lon="32.3955668"><ele>543.2</ele><time>2015-04-24T17:11:24.0000000+00:00</time></trkpt><trkpt lat="34.9025904" lon="32.3956284"><ele>543.0</ele><time>2015-04-24T17:11:26.0000000+00:00</time></trkpt><trkpt lat="34.902627" lon="32.3956858"><ele>542.4</ele><time>2015-04-24T17:11:28.0000000+00:00</time></trkpt><trkpt lat="34.9026632" lon="32.3957453"><ele>542.1</ele><time>2015-04-24T17:11:30.0000000+00:00</time></trkpt><trkpt lat="34.9027048" lon="32.3957988"><ele>542.0</ele><time>2015-04-24T17:11:32.0000000+00:00</time></trkpt><trkpt lat="34.9027486" lon="32.3958499"><ele>541.9</ele><time>2015-04-24T17:11:34.0000000+00:00</time></trkpt><trkpt lat="34.9027948" lon="32.3958966"><ele>541.9</ele><time>2015-04-24T17:11:36.0000000+00:00</time></trkpt><trkpt lat="34.9028481" lon="32.3959318"><ele>541.9</ele><time>2015-04-24T17:11:38.0000000+00:00</time></trkpt><trkpt lat="34.9029071" lon="32.3959604"><ele>541.9</ele><time>2015-04-24T17:11:40.0000000+00:00</time></trkpt><trkpt lat="34.9029731" lon="32.3959788"><ele>542.4</ele><time>2015-04-24T17:11:42.0000000+00:00</time></trkpt><trkpt lat="34.9030446" lon="32.3959888"><ele>542.8</ele><time>2015-04-24T17:11:44.0000000+00:00</time></trkpt><trkpt lat="34.9031192" lon="32.3959922"><ele>542.1</ele><time>2015-04-24T17:11:46.0000000+00:00</time></trkpt><trkpt lat="34.9031925" lon="32.395985"><ele>541.5</ele><time>2015-04-24T17:11:48.0000000+00:00</time></trkpt><trkpt lat="34.9032514" lon="32.3959685"><ele>540.8</ele><time>2015-04-24T17:11:50.0000000+00:00</time></trkpt><trkpt lat="34.9033067" lon="32.3959598"><ele>541.2</ele><time>2015-04-24T17:17:05.0000000+00:00</time></trkpt><trkpt lat="34.9033556" lon="32.3959522"><ele>540.2</ele><time>2015-04-24T17:17:08.0000000+00:00</time></trkpt><trkpt lat="34.9034043" lon="32.3959473"><ele>541.3</ele><time>2015-04-24T17:17:10.0000000+00:00</time></trkpt><trkpt lat="34.9034743" lon="32.3959441"><ele>541.8</ele><time>2015-04-24T17:17:12.0000000+00:00</time></trkpt><trkpt lat="34.9035532" lon="32.3959368"><ele>541.1</ele><time>2015-04-24T17:17:14.0000000+00:00</time></trkpt><trkpt lat="34.9036345" lon="32.3959235"><ele>539.7</ele><time>2015-04-24T17:17:16.0000000+00:00</time></trkpt><trkpt lat="34.9037178" lon="32.3959072"><ele>538.6</ele><time>2015-04-24T17:17:18.0000000+00:00</time></trkpt><trkpt lat="34.9038024" lon="32.395896"><ele>538.9</ele><time>2015-04-24T17:17:20.0000000+00:00</time></trkpt><trkpt lat="34.9038663" lon="32.3958917"><ele>538.4</ele><time>2015-04-24T17:17:21.0000000+00:00</time></trkpt><trkpt lat="34.9039125" lon="32.3958861"><ele>537.7</ele><time>2015-04-24T17:17:22.0000000+00:00</time></trkpt><trkpt lat="34.9040091" lon="32.3959061"><ele>537.1</ele><time>2015-04-24T17:17:24.0000000+00:00</time></trkpt><trkpt lat="34.9040561" lon="32.3959319"><ele>536.5</ele><time>2015-04-24T17:17:25.0000000+00:00</time></trkpt><trkpt lat="34.9041049" lon="32.3959511"><ele>536.2</ele><time>2015-04-24T17:17:26.0000000+00:00</time></trkpt><trkpt lat="34.9041475" lon="32.3959762"><ele>536.1</ele><time>2015-04-24T17:17:27.0000000+00:00</time></trkpt><trkpt lat="34.9041915" lon="32.3960039"><ele>536.5</ele><time>2015-04-24T17:17:28.0000000+00:00</time></trkpt><trkpt lat="34.9042333" lon="32.3960359"><ele>536.2</ele><time>2015-04-24T17:17:29.0000000+00:00</time></trkpt><trkpt lat="34.9042732" lon="32.3960671"><ele>536.1</ele><time>2015-04-24T17:17:30.0000000+00:00</time></trkpt><trkpt lat="34.9043127" lon="32.396103"><ele>535.5</ele><time>2015-04-24T17:17:31.0000000+00:00</time></trkpt><trkpt lat="34.9043772" lon="32.3961727"><ele>535.1</ele><time>2015-04-24T17:17:33.0000000+00:00</time></trkpt><trkpt lat="34.9044125" lon="32.3962164"><ele>534.5</ele><time>2015-04-24T17:17:34.0000000+00:00</time></trkpt><trkpt lat="34.9044834" lon="32.3962784"><ele>534.1</ele><time>2015-04-24T17:17:36.0000000+00:00</time></trkpt><trkpt lat="34.9045133" lon="32.3963193"><ele>534.5</ele><time>2015-04-24T17:17:37.0000000+00:00</time></trkpt><trkpt lat="34.9045365" lon="32.3963681"><ele>534.7</ele><time>2015-04-24T17:17:38.0000000+00:00</time></trkpt><trkpt lat="34.9045907" lon="32.3964399"><ele>534.4</ele><time>2015-04-24T17:17:40.0000000+00:00</time></trkpt><trkpt lat="34.9046396" lon="32.3965158"><ele>534.0</ele><time>2015-04-24T17:17:42.0000000+00:00</time></trkpt><trkpt lat="34.9046845" lon="32.3966008"><ele>534.5</ele><time>2015-04-24T17:17:44.0000000+00:00</time></trkpt><trkpt lat="34.9047138" lon="32.396686"><ele>534.1</ele><time>2015-04-24T17:17:46.0000000+00:00</time></trkpt><trkpt lat="34.9047381" lon="32.3967726"><ele>534.0</ele><time>2015-04-24T17:17:48.0000000+00:00</time></trkpt><trkpt lat="34.904751" lon="32.3968708"><ele>533.4</ele><time>2015-04-24T17:17:50.0000000+00:00</time></trkpt><trkpt lat="34.904739" lon="32.3969379"><ele>533.2</ele><time>2015-04-24T17:17:51.0000000+00:00</time></trkpt><trkpt lat="34.9047351" lon="32.3970111"><ele>533.1</ele><time>2015-04-24T17:17:52.0000000+00:00</time></trkpt><trkpt lat="34.9047219" lon="32.3970794"><ele>533.0</ele><time>2015-04-24T17:17:53.0000000+00:00</time></trkpt><trkpt lat="34.9047188" lon="32.3971598"><ele>532.5</ele><time>2015-04-24T17:17:54.0000000+00:00</time></trkpt><trkpt lat="34.9047087" lon="32.3972425"><ele>532.2</ele><time>2015-04-24T17:17:55.0000000+00:00</time></trkpt><trkpt lat="34.9047037" lon="32.3973267"><ele>531.6</ele><time>2015-04-24T17:17:56.0000000+00:00</time></trkpt><trkpt lat="34.9046816" lon="32.397423"><ele>531.7</ele><time>2015-04-24T17:17:57.0000000+00:00</time></trkpt><trkpt lat="34.9046618" lon="32.3975034"><ele>531.8</ele><time>2015-04-24T17:17:58.0000000+00:00</time></trkpt><trkpt lat="34.9046373" lon="32.39759"><ele>531.4</ele><time>2015-04-24T17:17:59.0000000+00:00</time></trkpt><trkpt lat="34.904606" lon="32.397684"><ele>531.2</ele><time>2015-04-24T17:18:00.0000000+00:00</time></trkpt><trkpt lat="34.9045774" lon="32.397768"><ele>530.5</ele><time>2015-04-24T17:18:01.0000000+00:00</time></trkpt><trkpt lat="34.90454" lon="32.3978466"><ele>529.7</ele><time>2015-04-24T17:18:02.0000000+00:00</time></trkpt><trkpt lat="34.9044961" lon="32.3979167"><ele>528.8</ele><time>2015-04-24T17:18:03.0000000+00:00</time></trkpt><trkpt lat="34.9044447" lon="32.3979922"><ele>527.9</ele><time>2015-04-24T17:18:04.0000000+00:00</time></trkpt><trkpt lat="34.9044096" lon="32.3980786"><ele>526.9</ele><time>2015-04-24T17:18:05.0000000+00:00</time></trkpt><trkpt lat="34.9043572" lon="32.3981603"><ele>525.9</ele><time>2015-04-24T17:18:06.0000000+00:00</time></trkpt><trkpt lat="34.904309" lon="32.3982255"><ele>525.4</ele><time>2015-04-24T17:18:07.0000000+00:00</time></trkpt><trkpt lat="34.9042585" lon="32.3982981"><ele>524.2</ele><time>2015-04-24T17:18:08.0000000+00:00</time></trkpt><trkpt lat="34.9042013" lon="32.3983809"><ele>523.1</ele><time>2015-04-24T17:18:09.0000000+00:00</time></trkpt><trkpt lat="34.9041517" lon="32.3984662"><ele>522.5</ele><time>2015-04-24T17:18:10.0000000+00:00</time></trkpt><trkpt lat="34.9041084" lon="32.3985437"><ele>521.7</ele><time>2015-04-24T17:18:11.0000000+00:00</time></trkpt><trkpt lat="34.9040505" lon="32.398634"><ele>520.3</ele><time>2015-04-24T17:18:12.0000000+00:00</time></trkpt><trkpt lat="34.904002" lon="32.3987286"><ele>519.6</ele><time>2015-04-24T17:18:13.0000000+00:00</time></trkpt><trkpt lat="34.9039493" lon="32.3988206"><ele>518.8</ele><time>2015-04-24T17:18:14.0000000+00:00</time></trkpt><trkpt lat="34.903896" lon="32.3989124"><ele>518.9</ele><time>2015-04-24T17:18:15.0000000+00:00</time></trkpt><trkpt lat="34.903844" lon="32.3990122"><ele>518.9</ele><time>2015-04-24T17:18:16.0000000+00:00</time></trkpt><trkpt lat="34.9037887" lon="32.3991026"><ele>518.4</ele><time>2015-04-24T17:18:17.0000000+00:00</time></trkpt><trkpt lat="34.9037256" lon="32.3991965"><ele>517.7</ele><time>2015-04-24T17:18:18.0000000+00:00</time></trkpt><trkpt lat="34.9036665" lon="32.3992933"><ele>516.3</ele><time>2015-04-24T17:18:19.0000000+00:00</time></trkpt><trkpt lat="34.9036098" lon="32.3993885"><ele>515.6</ele><time>2015-04-24T17:18:20.0000000+00:00</time></trkpt><trkpt lat="34.9035348" lon="32.3994848"><ele>514.3</ele><time>2015-04-24T17:18:21.0000000+00:00</time></trkpt><trkpt lat="34.9034798" lon="32.3995782"><ele>513.1</ele><time>2015-04-24T17:18:22.0000000+00:00</time></trkpt><trkpt lat="34.9034212" lon="32.3996774"><ele>512.5</ele><time>2015-04-24T17:18:23.0000000+00:00</time></trkpt><trkpt lat="34.9033735" lon="32.3997831"><ele>511.7</ele><time>2015-04-24T17:18:24.0000000+00:00</time></trkpt><trkpt lat="34.9033346" lon="32.3998971"><ele>511.3</ele><time>2015-04-24T17:18:25.0000000+00:00</time></trkpt><trkpt lat="34.903296" lon="32.4000136"><ele>511.1</ele><time>2015-04-24T17:18:26.0000000+00:00</time></trkpt><trkpt lat="34.9032566" lon="32.4001304"><ele>510.5</ele><time>2015-04-24T17:18:27.0000000+00:00</time></trkpt><trkpt lat="34.9032144" lon="32.4002525"><ele>510.2</ele><time>2015-04-24T17:18:28.0000000+00:00</time></trkpt><trkpt lat="34.9031921" lon="32.4003792"><ele>510.1</ele><time>2015-04-24T17:18:29.0000000+00:00</time></trkpt><trkpt lat="34.9031703" lon="32.4005077"><ele>510.0</ele><time>2015-04-24T17:18:30.0000000+00:00</time></trkpt><trkpt lat="34.9031493" lon="32.400621"><ele>510.5</ele><time>2015-04-24T17:18:31.0000000+00:00</time></trkpt><trkpt lat="34.9031303" lon="32.4007441"><ele>511.2</ele><time>2015-04-24T17:18:32.0000000+00:00</time></trkpt><trkpt lat="34.9031175" lon="32.4008552"><ele>511.6</ele><time>2015-04-24T17:18:33.0000000+00:00</time></trkpt><trkpt lat="34.9031024" lon="32.4009574"><ele>512.2</ele><time>2015-04-24T17:18:34.0000000+00:00</time></trkpt><trkpt lat="34.903088" lon="32.401052"><ele>512.1</ele><time>2015-04-24T17:18:35.0000000+00:00</time></trkpt><trkpt lat="34.9030741" lon="32.401156"><ele>512.0</ele><time>2015-04-24T17:18:36.0000000+00:00</time></trkpt><trkpt lat="34.9030613" lon="32.4012433"><ele>511.5</ele><time>2015-04-24T17:18:37.0000000+00:00</time></trkpt><trkpt lat="34.9030522" lon="32.4013392"><ele>511.2</ele><time>2015-04-24T17:18:38.0000000+00:00</time></trkpt><trkpt lat="34.9030388" lon="32.4014209"><ele>511.1</ele><time>2015-04-24T17:18:39.0000000+00:00</time></trkpt><trkpt lat="34.9030176" lon="32.4015095"><ele>511.0</ele><time>2015-04-24T17:18:40.0000000+00:00</time></trkpt><trkpt lat="34.903003" lon="32.4015938"><ele>511.0</ele><time>2015-04-24T17:18:41.0000000+00:00</time></trkpt><trkpt lat="34.9029943" lon="32.4016757"><ele>510.4</ele><time>2015-04-24T17:18:42.0000000+00:00</time></trkpt><trkpt lat="34.9029751" lon="32.4017491"><ele>509.7</ele><time>2015-04-24T17:18:43.0000000+00:00</time></trkpt><trkpt lat="34.9029621" lon="32.4018371"><ele>509.8</ele><time>2015-04-24T17:18:44.0000000+00:00</time></trkpt><trkpt lat="34.9029552" lon="32.4019214"><ele>509.9</ele><time>2015-04-24T17:18:45.0000000+00:00</time></trkpt><trkpt lat="34.9029427" lon="32.4019994"><ele>509.9</ele><time>2015-04-24T17:18:46.0000000+00:00</time></trkpt><trkpt lat="34.9029256" lon="32.4020749"><ele>509.4</ele><time>2015-04-24T17:18:47.0000000+00:00</time></trkpt><trkpt lat="34.902914" lon="32.4021465"><ele>509.7</ele><time>2015-04-24T17:18:48.0000000+00:00</time></trkpt><trkpt lat="34.9029045" lon="32.4022254"><ele>509.8</ele><time>2015-04-24T17:18:49.0000000+00:00</time></trkpt><trkpt lat="34.9028895" lon="32.4022922"><ele>509.9</ele><time>2015-04-24T17:18:50.0000000+00:00</time></trkpt><trkpt lat="34.9028696" lon="32.4023555"><ele>510.4</ele><time>2015-04-24T17:18:51.0000000+00:00</time></trkpt><trkpt lat="34.9028608" lon="32.4024224"><ele>510.7</ele><time>2015-04-24T17:18:52.0000000+00:00</time></trkpt><trkpt lat="34.9028539" lon="32.4024845"><ele>510.8</ele><time>2015-04-24T17:18:53.0000000+00:00</time></trkpt><trkpt lat="34.9028484" lon="32.4025402"><ele>510.4</ele><time>2015-04-24T17:18:54.0000000+00:00</time></trkpt><trkpt lat="34.9028362" lon="32.4025949"><ele>509.6</ele><time>2015-04-24T17:18:55.0000000+00:00</time></trkpt><trkpt lat="34.9028204" lon="32.4026695"><ele>509.9</ele><time>2015-04-24T17:18:57.0000000+00:00</time></trkpt><trkpt lat="34.9028079" lon="32.402723"><ele>509.9</ele><time>2015-04-24T17:19:00.0000000+00:00</time></trkpt><trkpt lat="34.9027963" lon="32.4028018"><ele>509.9</ele><time>2015-04-24T17:19:03.0000000+00:00</time></trkpt><trkpt lat="34.9027831" lon="32.4028645"><ele>509.9</ele><time>2015-04-24T17:19:05.0000000+00:00</time></trkpt><trkpt lat="34.9027843" lon="32.4029226"><ele>509.9</ele><time>2015-04-24T17:19:07.0000000+00:00</time></trkpt><trkpt lat="34.9027812" lon="32.4029776"><ele>510.4</ele><time>2015-04-24T17:19:09.0000000+00:00</time></trkpt><trkpt lat="34.9027648" lon="32.4030442"><ele>511.4</ele><time>2015-04-24T17:19:12.0000000+00:00</time></trkpt><trkpt lat="34.9027523" lon="32.4031124"><ele>512.1</ele><time>2015-04-24T17:19:15.0000000+00:00</time></trkpt><trkpt lat="34.9027464" lon="32.4031807"><ele>512.5</ele><time>2015-04-24T17:19:17.0000000+00:00</time></trkpt><trkpt lat="34.9027326" lon="32.4032738"><ele>512.6</ele><time>2015-04-24T17:19:19.0000000+00:00</time></trkpt><trkpt lat="34.9027206" lon="32.4033742"><ele>511.6</ele><time>2015-04-24T17:19:21.0000000+00:00</time></trkpt><trkpt lat="34.9027133" lon="32.4034737"><ele>511.1</ele><time>2015-04-24T17:19:23.0000000+00:00</time></trkpt><trkpt lat="34.9027056" lon="32.4035751"><ele>512.5</ele><time>2015-04-24T17:19:25.0000000+00:00</time></trkpt><trkpt lat="34.9027018" lon="32.4036681"><ele>512.8</ele><time>2015-04-24T17:19:27.0000000+00:00</time></trkpt><trkpt lat="34.9027024" lon="32.4037549"><ele>513.7</ele><time>2015-04-24T17:19:29.0000000+00:00</time></trkpt><trkpt lat="34.9027056" lon="32.4038414"><ele>513.9</ele><time>2015-04-24T17:19:31.0000000+00:00</time></trkpt><trkpt lat="34.9027123" lon="32.4039407"><ele>514.4</ele><time>2015-04-24T17:19:33.0000000+00:00</time></trkpt><trkpt lat="34.9027185" lon="32.4040122"><ele>514.7</ele><time>2015-04-24T17:19:34.0000000+00:00</time></trkpt><trkpt lat="34.9027276" lon="32.4041219"><ele>513.4</ele><time>2015-04-24T17:19:36.0000000+00:00</time></trkpt><trkpt lat="34.9027373" lon="32.4041806"><ele>513.6</ele><time>2015-04-24T17:19:37.0000000+00:00</time></trkpt><trkpt lat="34.9027412" lon="32.4042354"><ele>514.3</ele><time>2015-04-24T17:19:38.0000000+00:00</time></trkpt><trkpt lat="34.9027524" lon="32.4043432"><ele>514.8</ele><time>2015-04-24T17:19:40.0000000+00:00</time></trkpt><trkpt lat="34.9027648" lon="32.4044424"><ele>515.4</ele><time>2015-04-24T17:19:42.0000000+00:00</time></trkpt><trkpt lat="34.9027791" lon="32.4045368"><ele>514.5</ele><time>2015-04-24T17:19:44.0000000+00:00</time></trkpt><trkpt lat="34.9027849" lon="32.4046215"><ele>513.6</ele><time>2015-04-24T17:19:46.0000000+00:00</time></trkpt><trkpt lat="34.9027953" lon="32.4047065"><ele>513.1</ele><time>2015-04-24T17:19:48.0000000+00:00</time></trkpt><trkpt lat="34.9028013" lon="32.4047852"><ele>513.2</ele><time>2015-04-24T17:19:50.0000000+00:00</time></trkpt><trkpt lat="34.9028087" lon="32.4048686"><ele>514.3</ele><time>2015-04-24T17:19:52.0000000+00:00</time></trkpt><trkpt lat="34.9028159" lon="32.4049553"><ele>514.8</ele><time>2015-04-24T17:19:54.0000000+00:00</time></trkpt><trkpt lat="34.9028167" lon="32.4050403"><ele>516.1</ele><time>2015-04-24T17:19:56.0000000+00:00</time></trkpt><trkpt lat="34.9028271" lon="32.4051197"><ele>516.0</ele><time>2015-04-24T17:19:58.0000000+00:00</time></trkpt><trkpt lat="34.9028401" lon="32.4051991"><ele>516.4</ele><time>2015-04-24T17:20:00.0000000+00:00</time></trkpt><trkpt lat="34.9028493" lon="32.4052798"><ele>516.8</ele><time>2015-04-24T17:20:02.0000000+00:00</time></trkpt><trkpt lat="34.9028554" lon="32.4053617"><ele>516.9</ele><time>2015-04-24T17:20:04.0000000+00:00</time></trkpt><trkpt lat="34.9028639" lon="32.4054423"><ele>516.9</ele><time>2015-04-24T17:20:06.0000000+00:00</time></trkpt><trkpt lat="34.9028739" lon="32.4055176"><ele>516.9</ele><time>2015-04-24T17:20:08.0000000+00:00</time></trkpt><trkpt lat="34.9028792" lon="32.4055864"><ele>518.2</ele><time>2015-04-24T17:20:10.0000000+00:00</time></trkpt><trkpt lat="34.902886" lon="32.4056515"><ele>519.2</ele><time>2015-04-24T17:20:12.0000000+00:00</time></trkpt><trkpt lat="34.9028929" lon="32.4057151"><ele>519.0</ele><time>2015-04-24T17:20:14.0000000+00:00</time></trkpt><trkpt lat="34.9029011" lon="32.4057804"><ele>518.4</ele><time>2015-04-24T17:20:16.0000000+00:00</time></trkpt><trkpt lat="34.9029083" lon="32.4058448"><ele>518.8</ele><time>2015-04-24T17:20:18.0000000+00:00</time></trkpt><trkpt lat="34.9029114" lon="32.4059056"><ele>519.6</ele><time>2015-04-24T17:20:20.0000000+00:00</time></trkpt><trkpt lat="34.9029186" lon="32.405964"><ele>521.1</ele><time>2015-04-24T17:20:22.0000000+00:00</time></trkpt><trkpt lat="34.9029268" lon="32.4060223"><ele>521.7</ele><time>2015-04-24T17:20:24.0000000+00:00</time></trkpt><trkpt lat="34.9029362" lon="32.4060809"><ele>520.6</ele><time>2015-04-24T17:20:26.0000000+00:00</time></trkpt><trkpt lat="34.9029464" lon="32.4061396"><ele>520.9</ele><time>2015-04-24T17:20:28.0000000+00:00</time></trkpt><trkpt lat="34.9029528" lon="32.4061988"><ele>520.9</ele><time>2015-04-24T17:20:30.0000000+00:00</time></trkpt><trkpt lat="34.902959" lon="32.4062571"><ele>520.9</ele><time>2015-04-24T17:20:32.0000000+00:00</time></trkpt><trkpt lat="34.9029616" lon="32.4063167"><ele>521.4</ele><time>2015-04-24T17:20:34.0000000+00:00</time></trkpt><trkpt lat="34.9029652" lon="32.4063746"><ele>520.3</ele><time>2015-04-24T17:20:36.0000000+00:00</time></trkpt><trkpt lat="34.902967" lon="32.4064297"><ele>519.3</ele><time>2015-04-24T17:20:38.0000000+00:00</time></trkpt><trkpt lat="34.9029726" lon="32.4064932"><ele>520.7</ele><time>2015-04-24T17:20:41.0000000+00:00</time></trkpt><trkpt lat="34.9029872" lon="32.4065516"><ele>519.5</ele><time>2015-04-24T17:20:44.0000000+00:00</time></trkpt><trkpt lat="34.902994" lon="32.4066204"><ele>519.5</ele><time>2015-04-24T17:20:47.0000000+00:00</time></trkpt><trkpt lat="34.903" lon="32.4066972"><ele>519.9</ele><time>2015-04-24T17:20:50.0000000+00:00</time></trkpt><trkpt lat="34.9030097" lon="32.4067769"><ele>518.5</ele><time>2015-04-24T17:20:53.0000000+00:00</time></trkpt><trkpt lat="34.9030168" lon="32.4068556"><ele>519.3</ele><time>2015-04-24T17:20:56.0000000+00:00</time></trkpt><trkpt lat="34.9030227" lon="32.4069317"><ele>520.2</ele><time>2015-04-24T17:20:59.0000000+00:00</time></trkpt><trkpt lat="34.9030259" lon="32.4070077"><ele>521.0</ele><time>2015-04-24T17:21:02.0000000+00:00</time></trkpt><trkpt lat="34.9030336" lon="32.4070814"><ele>519.8</ele><time>2015-04-24T17:21:05.0000000+00:00</time></trkpt><trkpt lat="34.9030359" lon="32.4071511"><ele>521.3</ele><time>2015-04-24T17:21:08.0000000+00:00</time></trkpt><trkpt lat="34.9030274" lon="32.4072227"><ele>522.6</ele><time>2015-04-24T17:21:11.0000000+00:00</time></trkpt><trkpt lat="34.9030186" lon="32.4072979"><ele>521.5</ele><time>2015-04-24T17:21:14.0000000+00:00</time></trkpt><trkpt lat="34.903016" lon="32.4073765"><ele>522.6</ele><time>2015-04-24T17:21:17.0000000+00:00</time></trkpt><trkpt lat="34.9030075" lon="32.4074581"><ele>523.6</ele><time>2015-04-24T17:21:20.0000000+00:00</time></trkpt><trkpt lat="34.9030025" lon="32.4075336"><ele>524.1</ele><time>2015-04-24T17:21:23.0000000+00:00</time></trkpt><trkpt lat="34.9030019" lon="32.40761"><ele>525.3</ele><time>2015-04-24T17:21:26.0000000+00:00</time></trkpt><trkpt lat="34.9030025" lon="32.4076836"><ele>525.7</ele><time>2015-04-24T17:21:29.0000000+00:00</time></trkpt><trkpt lat="34.9030073" lon="32.4077617"><ele>525.9</ele><time>2015-04-24T17:21:32.0000000+00:00</time></trkpt><trkpt lat="34.9030203" lon="32.4078359"><ele>527.2</ele><time>2015-04-24T17:21:35.0000000+00:00</time></trkpt><trkpt lat="34.9030469" lon="32.4079096"><ele>528.3</ele><time>2015-04-24T17:21:38.0000000+00:00</time></trkpt><trkpt lat="34.9030821" lon="32.4079762"><ele>529.2</ele><time>2015-04-24T17:21:41.0000000+00:00</time></trkpt><trkpt lat="34.903117" lon="32.4080357"><ele>529.8</ele><time>2015-04-24T17:21:44.0000000+00:00</time></trkpt><trkpt lat="34.9031601" lon="32.4080855"><ele>530.7</ele><time>2015-04-24T17:21:47.0000000+00:00</time></trkpt><trkpt lat="34.9032078" lon="32.4081318"><ele>530.9</ele><time>2015-04-24T17:21:50.0000000+00:00</time></trkpt><trkpt lat="34.903267" lon="32.4081617"><ele>531.7</ele><time>2015-04-24T17:21:53.0000000+00:00</time></trkpt><trkpt lat="34.9033269" lon="32.4081889"><ele>531.9</ele><time>2015-04-24T17:21:56.0000000+00:00</time></trkpt><trkpt lat="34.9033891" lon="32.4082041"><ele>532.7</ele><time>2015-04-24T17:21:59.0000000+00:00</time></trkpt><trkpt lat="34.9034515" lon="32.4082218"><ele>532.9</ele><time>2015-04-24T17:22:02.0000000+00:00</time></trkpt><trkpt lat="34.9035156" lon="32.4082361"><ele>533.9</ele><time>2015-04-24T17:22:05.0000000+00:00</time></trkpt><trkpt lat="34.9035807" lon="32.4082335"><ele>534.6</ele><time>2015-04-24T17:22:08.0000000+00:00</time></trkpt><trkpt lat="34.9036385" lon="32.4082301"><ele>535.6</ele><time>2015-04-24T17:22:11.0000000+00:00</time></trkpt><trkpt lat="34.9036868" lon="32.4082061"><ele>536.4</ele><time>2015-04-24T17:22:14.0000000+00:00</time></trkpt><trkpt lat="34.9037362" lon="32.4081785"><ele>537.4</ele><time>2015-04-24T17:22:17.0000000+00:00</time></trkpt><trkpt lat="34.9037872" lon="32.4081418"><ele>537.0</ele><time>2015-04-24T17:22:20.0000000+00:00</time></trkpt><trkpt lat="34.9038355" lon="32.4081"><ele>538.9</ele><time>2015-04-24T17:22:23.0000000+00:00</time></trkpt><trkpt lat="34.9038784" lon="32.4080497"><ele>539.8</ele><time>2015-04-24T17:22:26.0000000+00:00</time></trkpt><trkpt lat="34.9039223" lon="32.4079916"><ele>538.2</ele><time>2015-04-24T17:22:29.0000000+00:00</time></trkpt><trkpt lat="34.9039501" lon="32.407926"><ele>538.0</ele><time>2015-04-24T17:22:32.0000000+00:00</time></trkpt><trkpt lat="34.9039718" lon="32.4078525"><ele>538.6</ele><time>2015-04-24T17:22:35.0000000+00:00</time></trkpt><trkpt lat="34.9039928" lon="32.4077773"><ele>538.9</ele><time>2015-04-24T17:22:38.0000000+00:00</time></trkpt><trkpt lat="34.9040072" lon="32.4077039"><ele>537.8</ele><time>2015-04-24T17:22:41.0000000+00:00</time></trkpt><trkpt lat="34.9040306" lon="32.4076406"><ele>537.4</ele><time>2015-04-24T17:22:44.0000000+00:00</time></trkpt><trkpt lat="34.9040367" lon="32.4075697"><ele>537.7</ele><time>2015-04-24T17:22:47.0000000+00:00</time></trkpt><trkpt lat="34.9040417" lon="32.407498"><ele>537.9</ele><time>2015-04-24T17:22:50.0000000+00:00</time></trkpt><trkpt lat="34.9040441" lon="32.4074264"><ele>539.2</ele><time>2015-04-24T17:22:53.0000000+00:00</time></trkpt><trkpt lat="34.9040477" lon="32.4073548"><ele>539.7</ele><time>2015-04-24T17:22:56.0000000+00:00</time></trkpt><trkpt lat="34.9040516" lon="32.4072847"><ele>540.8</ele><time>2015-04-24T17:22:59.0000000+00:00</time></trkpt><trkpt lat="34.904064" lon="32.4072151"><ele>540.4</ele><time>2015-04-24T17:23:02.0000000+00:00</time></trkpt><trkpt lat="34.9040742" lon="32.4071495"><ele>540.7</ele><time>2015-04-24T17:23:05.0000000+00:00</time></trkpt><trkpt lat="34.9040794" lon="32.4070832"><ele>542.5</ele><time>2015-04-24T17:23:08.0000000+00:00</time></trkpt><trkpt lat="34.9040897" lon="32.4070194"><ele>542.9</ele><time>2015-04-24T17:23:11.0000000+00:00</time></trkpt><trkpt lat="34.9041093" lon="32.4069505"><ele>542.9</ele><time>2015-04-24T17:23:14.0000000+00:00</time></trkpt><trkpt lat="34.9041165" lon="32.40688"><ele>543.3</ele><time>2015-04-24T17:23:17.0000000+00:00</time></trkpt><trkpt lat="34.9041249" lon="32.4068106"><ele>543.7</ele><time>2015-04-24T17:23:20.0000000+00:00</time></trkpt><trkpt lat="34.9041298" lon="32.4067411"><ele>544.4</ele><time>2015-04-24T17:23:23.0000000+00:00</time></trkpt><trkpt lat="34.9041436" lon="32.4066722"><ele>544.1</ele><time>2015-04-24T17:23:26.0000000+00:00</time></trkpt><trkpt lat="34.9041561" lon="32.4066098"><ele>546.1</ele><time>2015-04-24T17:23:29.0000000+00:00</time></trkpt><trkpt lat="34.9041604" lon="32.4065473"><ele>546.8</ele><time>2015-04-24T17:23:32.0000000+00:00</time></trkpt><trkpt lat="34.9041708" lon="32.4064814"><ele>547.8</ele><time>2015-04-24T17:23:35.0000000+00:00</time></trkpt><trkpt lat="34.9041769" lon="32.4064158"><ele>548.8</ele><time>2015-04-24T17:23:38.0000000+00:00</time></trkpt><trkpt lat="34.9041849" lon="32.4063475"><ele>549.7</ele><time>2015-04-24T17:23:41.0000000+00:00</time></trkpt><trkpt lat="34.9041958" lon="32.4062826"><ele>549.9</ele><time>2015-04-24T17:23:44.0000000+00:00</time></trkpt><trkpt lat="34.9042132" lon="32.406221"><ele>550.4</ele><time>2015-04-24T17:23:47.0000000+00:00</time></trkpt><trkpt lat="34.9042302" lon="32.4061649"><ele>551.4</ele><time>2015-04-24T17:23:50.0000000+00:00</time></trkpt><trkpt lat="34.9042389" lon="32.4061034"><ele>551.9</ele><time>2015-04-24T17:23:53.0000000+00:00</time></trkpt><trkpt lat="34.904244" lon="32.4060434"><ele>553.5</ele><time>2015-04-24T17:23:56.0000000+00:00</time></trkpt><trkpt lat="34.9042631" lon="32.405991"><ele>554.8</ele><time>2015-04-24T17:23:59.0000000+00:00</time></trkpt><trkpt lat="34.9042916" lon="32.4059381"><ele>555.7</ele><time>2015-04-24T17:24:02.0000000+00:00</time></trkpt><trkpt lat="34.9043336" lon="32.4058849"><ele>555.4</ele><time>2015-04-24T17:24:05.0000000+00:00</time></trkpt><trkpt lat="34.9043752" lon="32.4058272"><ele>554.0</ele><time>2015-04-24T17:24:08.0000000+00:00</time></trkpt><trkpt lat="34.904418" lon="32.4057831"><ele>553.9</ele><time>2015-04-24T17:24:11.0000000+00:00</time></trkpt><trkpt lat="34.9044697" lon="32.4057545"><ele>553.4</ele><time>2015-04-24T17:24:14.0000000+00:00</time></trkpt><trkpt lat="34.9045236" lon="32.4057389"><ele>553.0</ele><time>2015-04-24T17:24:17.0000000+00:00</time></trkpt><trkpt lat="34.9045781" lon="32.4057396"><ele>552.9</ele><time>2015-04-24T17:24:20.0000000+00:00</time></trkpt><trkpt lat="34.9046331" lon="32.4057493"><ele>553.8</ele><time>2015-04-24T17:24:23.0000000+00:00</time></trkpt><trkpt lat="34.9046849" lon="32.4057684"><ele>554.7</ele><time>2015-04-24T17:24:26.0000000+00:00</time></trkpt><trkpt lat="34.9047342" lon="32.4058019"><ele>555.6</ele><time>2015-04-24T17:24:29.0000000+00:00</time></trkpt><trkpt lat="34.9047751" lon="32.4058483"><ele>556.8</ele><time>2015-04-24T17:24:32.0000000+00:00</time></trkpt><trkpt lat="34.9048075" lon="32.4059078"><ele>557.4</ele><time>2015-04-24T17:24:35.0000000+00:00</time></trkpt><trkpt lat="34.9048331" lon="32.4059709"><ele>557.9</ele><time>2015-04-24T17:24:38.0000000+00:00</time></trkpt><trkpt lat="34.9048571" lon="32.406028"><ele>558.7</ele><time>2015-04-24T17:24:41.0000000+00:00</time></trkpt><trkpt lat="34.9048701" lon="32.4060901"><ele>558.3</ele><time>2015-04-24T17:24:44.0000000+00:00</time></trkpt><trkpt lat="34.9048745" lon="32.4061581"><ele>558.0</ele><time>2015-04-24T17:24:47.0000000+00:00</time></trkpt><trkpt lat="34.9048836" lon="32.4062204"><ele>557.7</ele><time>2015-04-24T17:24:50.0000000+00:00</time></trkpt><trkpt lat="34.9048805" lon="32.4062894"><ele>557.9</ele><time>2015-04-24T17:24:53.0000000+00:00</time></trkpt><trkpt lat="34.9048824" lon="32.4063525"><ele>557.9</ele><time>2015-04-24T17:24:56.0000000+00:00</time></trkpt><trkpt lat="34.9048804" lon="32.4064203"><ele>559.2</ele><time>2015-04-24T17:24:59.0000000+00:00</time></trkpt><trkpt lat="34.9048849" lon="32.406488"><ele>560.1</ele><time>2015-04-24T17:25:02.0000000+00:00</time></trkpt><trkpt lat="34.9048906" lon="32.4065507"><ele>560.6</ele><time>2015-04-24T17:25:05.0000000+00:00</time></trkpt><trkpt lat="34.9048981" lon="32.4066143"><ele>560.5</ele><time>2015-04-24T17:25:08.0000000+00:00</time></trkpt><trkpt lat="34.904905" lon="32.4066755"><ele>560.8</ele><time>2015-04-24T17:25:11.0000000+00:00</time></trkpt><trkpt lat="34.9049152" lon="32.4067356"><ele>560.9</ele><time>2015-04-24T17:25:14.0000000+00:00</time></trkpt><trkpt lat="34.904925" lon="32.4067934"><ele>560.9</ele><time>2015-04-24T17:25:17.0000000+00:00</time></trkpt><trkpt lat="34.9049295" lon="32.4068651"><ele>560.9</ele><time>2015-04-24T17:25:21.0000000+00:00</time></trkpt><trkpt lat="34.9049314" lon="32.4069325"><ele>561.4</ele><time>2015-04-24T17:25:25.0000000+00:00</time></trkpt><trkpt lat="34.9049313" lon="32.4069952"><ele>561.9</ele><time>2015-04-24T17:25:29.0000000+00:00</time></trkpt><trkpt lat="34.9049327" lon="32.4070682"><ele>561.9</ele><time>2015-04-24T17:25:33.0000000+00:00</time></trkpt><trkpt lat="34.904934" lon="32.4071355"><ele>561.1</ele><time>2015-04-24T17:25:36.0000000+00:00</time></trkpt><trkpt lat="34.9049363" lon="32.4072168"><ele>561.8</ele><time>2015-04-24T17:25:39.0000000+00:00</time></trkpt><trkpt lat="34.9049424" lon="32.4072916"><ele>562.2</ele><time>2015-04-24T17:25:42.0000000+00:00</time></trkpt><trkpt lat="34.9049403" lon="32.4073611"><ele>562.2</ele><time>2015-04-24T17:25:45.0000000+00:00</time></trkpt><trkpt lat="34.9049447" lon="32.4074347"><ele>562.8</ele><time>2015-04-24T17:25:48.0000000+00:00</time></trkpt><trkpt lat="34.9049462" lon="32.4075143"><ele>563.0</ele><time>2015-04-24T17:25:51.0000000+00:00</time></trkpt><trkpt lat="34.9049406" lon="32.4075922"><ele>564.2</ele><time>2015-04-24T17:25:53.0000000+00:00</time></trkpt><trkpt lat="34.9049384" lon="32.407681"><ele>564.7</ele><time>2015-04-24T17:25:55.0000000+00:00</time></trkpt><trkpt lat="34.9049406" lon="32.4077658"><ele>565.4</ele><time>2015-04-24T17:25:57.0000000+00:00</time></trkpt><trkpt lat="34.9049425" lon="32.4078451"><ele>565.8</ele><time>2015-04-24T17:25:59.0000000+00:00</time></trkpt><trkpt lat="34.9049451" lon="32.4079308"><ele>565.9</ele><time>2015-04-24T17:26:01.0000000+00:00</time></trkpt><trkpt lat="34.9049511" lon="32.4080217"><ele>565.9</ele><time>2015-04-24T17:26:03.0000000+00:00</time></trkpt><trkpt lat="34.9049657" lon="32.4081196"><ele>566.7</ele><time>2015-04-24T17:26:05.0000000+00:00</time></trkpt><trkpt lat="34.904989" lon="32.4082123"><ele>566.9</ele><time>2015-04-24T17:26:07.0000000+00:00</time></trkpt><trkpt lat="34.905013" lon="32.4083016"><ele>567.4</ele><time>2015-04-24T17:26:09.0000000+00:00</time></trkpt><trkpt lat="34.9050428" lon="32.4083717"><ele>567.1</ele><time>2015-04-24T17:26:11.0000000+00:00</time></trkpt><trkpt lat="34.9050782" lon="32.4084385"><ele>567.0</ele><time>2015-04-24T17:26:13.0000000+00:00</time></trkpt><trkpt lat="34.9051144" lon="32.4085017"><ele>566.9</ele><time>2015-04-24T17:26:15.0000000+00:00</time></trkpt><trkpt lat="34.9051544" lon="32.4085655"><ele>566.9</ele><time>2015-04-24T17:26:17.0000000+00:00</time></trkpt><trkpt lat="34.9051928" lon="32.4086219"><ele>566.9</ele><time>2015-04-24T17:26:19.0000000+00:00</time></trkpt><trkpt lat="34.9052235" lon="32.4086756"><ele>566.9</ele><time>2015-04-24T17:26:21.0000000+00:00</time></trkpt><trkpt lat="34.9052543" lon="32.4087164"><ele>566.9</ele><time>2015-04-24T17:26:23.0000000+00:00</time></trkpt><trkpt lat="34.9052896" lon="32.4087594"><ele>566.9</ele><time>2015-04-24T17:26:25.0000000+00:00</time></trkpt><trkpt lat="34.9053212" lon="32.4088071"><ele>567.4</ele><time>2015-04-24T17:26:27.0000000+00:00</time></trkpt><trkpt lat="34.9053523" lon="32.4088539"><ele>568.3</ele><time>2015-04-24T17:26:29.0000000+00:00</time></trkpt><trkpt lat="34.9053855" lon="32.4089"><ele>569.5</ele><time>2015-04-24T17:26:32.0000000+00:00</time></trkpt><trkpt lat="34.9054195" lon="32.4089517"><ele>569.9</ele><time>2015-04-24T17:26:35.0000000+00:00</time></trkpt><trkpt lat="34.9054669" lon="32.4090104"><ele>569.9</ele><time>2015-04-24T17:26:38.0000000+00:00</time></trkpt><trkpt lat="34.9054998" lon="32.4090528"><ele>570.4</ele><time>2015-04-24T17:26:40.0000000+00:00</time></trkpt><trkpt lat="34.9055477" lon="32.4091039"><ele>570.6</ele><time>2015-04-24T17:26:43.0000000+00:00</time></trkpt><trkpt lat="34.9055863" lon="32.4091385"><ele>570.4</ele><time>2015-04-24T17:26:45.0000000+00:00</time></trkpt><trkpt lat="34.905624" lon="32.4091836"><ele>570.3</ele><time>2015-04-24T17:26:47.0000000+00:00</time></trkpt><trkpt lat="34.9056625" lon="32.4092383"><ele>570.0</ele><time>2015-04-24T17:26:49.0000000+00:00</time></trkpt><trkpt lat="34.9056979" lon="32.4092922"><ele>569.7</ele><time>2015-04-24T17:26:51.0000000+00:00</time></trkpt><trkpt lat="34.9057387" lon="32.4093405"><ele>569.4</ele><time>2015-04-24T17:26:53.0000000+00:00</time></trkpt><trkpt lat="34.9057727" lon="32.4093903"><ele>570.3</ele><time>2015-04-24T17:26:55.0000000+00:00</time></trkpt><trkpt lat="34.9058016" lon="32.4094484"><ele>570.8</ele><time>2015-04-24T17:26:57.0000000+00:00</time></trkpt><trkpt lat="34.9058308" lon="32.4095002"><ele>572.1</ele><time>2015-04-24T17:26:59.0000000+00:00</time></trkpt><trkpt lat="34.9058557" lon="32.4095482"><ele>572.7</ele><time>2015-04-24T17:27:01.0000000+00:00</time></trkpt><trkpt lat="34.9058853" lon="32.4096108"><ele>572.9</ele><time>2015-04-24T17:27:04.0000000+00:00</time></trkpt><trkpt lat="34.9059181" lon="32.409661"><ele>572.1</ele><time>2015-04-24T17:27:07.0000000+00:00</time></trkpt><trkpt lat="34.9059347" lon="32.4097202"><ele>572.7</ele><time>2015-04-24T17:27:10.0000000+00:00</time></trkpt><trkpt lat="34.9059427" lon="32.4097743"><ele>572.9</ele><time>2015-04-24T17:27:13.0000000+00:00</time></trkpt><trkpt lat="34.9059597" lon="32.409826"><ele>573.8</ele><time>2015-04-24T17:27:16.0000000+00:00</time></trkpt><trkpt lat="34.9059753" lon="32.409881"><ele>574.4</ele><time>2015-04-24T17:27:19.0000000+00:00</time></trkpt><trkpt lat="34.905982" lon="32.4099436"><ele>574.9</ele><time>2015-04-24T17:27:22.0000000+00:00</time></trkpt><trkpt lat="34.9059769" lon="32.4100091"><ele>576.3</ele><time>2015-04-24T17:27:25.0000000+00:00</time></trkpt><trkpt lat="34.9059673" lon="32.4100785"><ele>577.4</ele><time>2015-04-24T17:27:28.0000000+00:00</time></trkpt><trkpt lat="34.905969" lon="32.4101485"><ele>577.0</ele><time>2015-04-24T17:27:31.0000000+00:00</time></trkpt><trkpt lat="34.9059726" lon="32.4102132"><ele>577.1</ele><time>2015-04-24T17:27:34.0000000+00:00</time></trkpt><trkpt lat="34.9059725" lon="32.410277"><ele>577.8</ele><time>2015-04-24T17:27:37.0000000+00:00</time></trkpt><trkpt lat="34.905976" lon="32.4103376"><ele>576.7</ele><time>2015-04-24T17:27:40.0000000+00:00</time></trkpt><trkpt lat="34.9059752" lon="32.4103986"><ele>575.3</ele><time>2015-04-24T17:27:43.0000000+00:00</time></trkpt><trkpt lat="34.9059848" lon="32.410459"><ele>576.6</ele><time>2015-04-24T17:27:46.0000000+00:00</time></trkpt><trkpt lat="34.905995" lon="32.4105198"><ele>576.9</ele><time>2015-04-24T17:27:49.0000000+00:00</time></trkpt><trkpt lat="34.905998" lon="32.4105804"><ele>576.9</ele><time>2015-04-24T17:27:52.0000000+00:00</time></trkpt><trkpt lat="34.9060008" lon="32.4106393"><ele>576.9</ele><time>2015-04-24T17:27:55.0000000+00:00</time></trkpt><trkpt lat="34.9060098" lon="32.4107002"><ele>577.7</ele><time>2015-04-24T17:27:58.0000000+00:00</time></trkpt><trkpt lat="34.9060116" lon="32.4107625"><ele>577.8</ele><time>2015-04-24T17:28:01.0000000+00:00</time></trkpt><trkpt lat="34.9060163" lon="32.4108315"><ele>578.7</ele><time>2015-04-24T17:28:04.0000000+00:00</time></trkpt><trkpt lat="34.9060267" lon="32.4108992"><ele>578.9</ele><time>2015-04-24T17:28:07.0000000+00:00</time></trkpt><trkpt lat="34.9060375" lon="32.4109602"><ele>578.6</ele><time>2015-04-24T17:28:10.0000000+00:00</time></trkpt><trkpt lat="34.9060482" lon="32.4110262"><ele>580.3</ele><time>2015-04-24T17:28:13.0000000+00:00</time></trkpt><trkpt lat="34.9060554" lon="32.4110962"><ele>580.0</ele><time>2015-04-24T17:28:16.0000000+00:00</time></trkpt><trkpt lat="34.9060566" lon="32.411165"><ele>580.6</ele><time>2015-04-24T17:28:19.0000000+00:00</time></trkpt><trkpt lat="34.9060553" lon="32.4112322"><ele>580.9</ele><time>2015-04-24T17:28:22.0000000+00:00</time></trkpt><trkpt lat="34.906059" lon="32.4112987"><ele>581.0</ele><time>2015-04-24T17:28:25.0000000+00:00</time></trkpt><trkpt lat="34.9060657" lon="32.411363"><ele>580.9</ele><time>2015-04-24T17:28:28.0000000+00:00</time></trkpt><trkpt lat="34.9060702" lon="32.4114264"><ele>580.9</ele><time>2015-04-24T17:28:31.0000000+00:00</time></trkpt><trkpt lat="34.9060768" lon="32.4114941"><ele>581.4</ele><time>2015-04-24T17:28:34.0000000+00:00</time></trkpt><trkpt lat="34.9060808" lon="32.411563"><ele>582.6</ele><time>2015-04-24T17:28:37.0000000+00:00</time></trkpt><trkpt lat="34.9060823" lon="32.4116293"><ele>582.9</ele><time>2015-04-24T17:28:40.0000000+00:00</time></trkpt><trkpt lat="34.9060881" lon="32.4116951"><ele>583.4</ele><time>2015-04-24T17:28:43.0000000+00:00</time></trkpt><trkpt lat="34.9060925" lon="32.4117605"><ele>583.9</ele><time>2015-04-24T17:28:46.0000000+00:00</time></trkpt><trkpt lat="34.9060992" lon="32.4118234"><ele>583.9</ele><time>2015-04-24T17:28:49.0000000+00:00</time></trkpt><trkpt lat="34.906099" lon="32.4118882"><ele>584.4</ele><time>2015-04-24T17:28:52.0000000+00:00</time></trkpt><trkpt lat="34.9061012" lon="32.4119514"><ele>585.4</ele><time>2015-04-24T17:28:55.0000000+00:00</time></trkpt><trkpt lat="34.9061182" lon="32.412015"><ele>585.8</ele><time>2015-04-24T17:28:59.0000000+00:00</time></trkpt><trkpt lat="34.9061288" lon="32.4119532"><ele>585.0</ele><time>2015-04-24T17:29:04.0000000+00:00</time></trkpt><trkpt lat="34.9060772" lon="32.4119635"><ele>585.2</ele><time>2015-04-24T17:29:20.0000000+00:00</time></trkpt><trkpt lat="34.906094" lon="32.412026"><ele>585.0</ele><time>2015-04-24T17:29:24.0000000+00:00</time></trkpt><trkpt lat="34.9061094" lon="32.4120893"><ele>584.9</ele><time>2015-04-24T17:29:28.0000000+00:00</time></trkpt><trkpt lat="34.9061211" lon="32.4121602"><ele>584.7</ele><time>2015-04-24T17:29:32.0000000+00:00</time></trkpt><trkpt lat="34.906126" lon="32.4122173"><ele>585.6</ele><time>2015-04-24T17:29:35.0000000+00:00</time></trkpt><trkpt lat="34.9061332" lon="32.4122786"><ele>586.8</ele><time>2015-04-24T17:29:38.0000000+00:00</time></trkpt><trkpt lat="34.9061416" lon="32.4123402"><ele>588.3</ele><time>2015-04-24T17:29:41.0000000+00:00</time></trkpt><trkpt lat="34.9061416" lon="32.4124067"><ele>588.3</ele><time>2015-04-24T17:29:44.0000000+00:00</time></trkpt><trkpt lat="34.9061443" lon="32.412471"><ele>588.0</ele><time>2015-04-24T17:29:47.0000000+00:00</time></trkpt><trkpt lat="34.9061491" lon="32.412542"><ele>588.8</ele><time>2015-04-24T17:29:50.0000000+00:00</time></trkpt><trkpt lat="34.9061521" lon="32.4126156"><ele>589.4</ele><time>2015-04-24T17:29:53.0000000+00:00</time></trkpt><trkpt lat="34.9061543" lon="32.4126932"><ele>590.4</ele><time>2015-04-24T17:29:56.0000000+00:00</time></trkpt><trkpt lat="34.9061534" lon="32.4127715"><ele>590.4</ele><time>2015-04-24T17:29:59.0000000+00:00</time></trkpt><trkpt lat="34.9061543" lon="32.4128495"><ele>590.5</ele><time>2015-04-24T17:30:02.0000000+00:00</time></trkpt><trkpt lat="34.906156" lon="32.412928"><ele>590.5</ele><time>2015-04-24T17:30:05.0000000+00:00</time></trkpt><trkpt lat="34.9061591" lon="32.4130071"><ele>591.8</ele><time>2015-04-24T17:30:08.0000000+00:00</time></trkpt><trkpt lat="34.9061661" lon="32.4130803"><ele>591.9</ele><time>2015-04-24T17:30:11.0000000+00:00</time></trkpt><trkpt lat="34.9061687" lon="32.4131576"><ele>591.9</ele><time>2015-04-24T17:30:14.0000000+00:00</time></trkpt><trkpt lat="34.906174" lon="32.4132385"><ele>591.9</ele><time>2015-04-24T17:30:17.0000000+00:00</time></trkpt><trkpt lat="34.9061755" lon="32.4132964"><ele>591.9</ele><time>2015-04-24T17:30:19.0000000+00:00</time></trkpt><trkpt lat="34.9061752" lon="32.4133555"><ele>591.2</ele><time>2015-04-24T17:30:21.0000000+00:00</time></trkpt><trkpt lat="34.9061737" lon="32.4134136"><ele>591.0</ele><time>2015-04-24T17:30:23.0000000+00:00</time></trkpt><trkpt lat="34.9061687" lon="32.4134731"><ele>591.7</ele><time>2015-04-24T17:30:25.0000000+00:00</time></trkpt><trkpt lat="34.9061634" lon="32.4135332"><ele>592.4</ele><time>2015-04-24T17:30:27.0000000+00:00</time></trkpt><trkpt lat="34.9061609" lon="32.4135956"><ele>593.5</ele><time>2015-04-24T17:30:29.0000000+00:00</time></trkpt><trkpt lat="34.9061543" lon="32.4136574"><ele>593.8</ele><time>2015-04-24T17:30:31.0000000+00:00</time></trkpt><trkpt lat="34.9061447" lon="32.4137208"><ele>593.9</ele><time>2015-04-24T17:30:33.0000000+00:00</time></trkpt><trkpt lat="34.9061339" lon="32.4137814"><ele>594.7</ele><time>2015-04-24T17:30:35.0000000+00:00</time></trkpt><trkpt lat="34.906123" lon="32.4138426"><ele>595.6</ele><time>2015-04-24T17:30:37.0000000+00:00</time></trkpt><trkpt lat="34.9061153" lon="32.4139013"><ele>596.6</ele><time>2015-04-24T17:30:39.0000000+00:00</time></trkpt><trkpt lat="34.9061092" lon="32.4139597"><ele>596.8</ele><time>2015-04-24T17:30:41.0000000+00:00</time></trkpt><trkpt lat="34.9061046" lon="32.4140163"><ele>596.9</ele><time>2015-04-24T17:30:43.0000000+00:00</time></trkpt><trkpt lat="34.9061" lon="32.4140711"><ele>596.2</ele><time>2015-04-24T17:30:45.0000000+00:00</time></trkpt><trkpt lat="34.9060949" lon="32.4141261"><ele>596.5</ele><time>2015-04-24T17:30:47.0000000+00:00</time></trkpt><trkpt lat="34.9060843" lon="32.414183"><ele>596.8</ele><time>2015-04-24T17:30:49.0000000+00:00</time></trkpt><trkpt lat="34.9060792" lon="32.4142397"><ele>597.7</ele><time>2015-04-24T17:30:51.0000000+00:00</time></trkpt><trkpt lat="34.9060766" lon="32.4142992"><ele>597.9</ele><time>2015-04-24T17:30:53.0000000+00:00</time></trkpt><trkpt lat="34.9060689" lon="32.4143599"><ele>598.7</ele><time>2015-04-24T17:30:55.0000000+00:00</time></trkpt><trkpt lat="34.9060546" lon="32.4144174"><ele>599.1</ele><time>2015-04-24T17:30:57.0000000+00:00</time></trkpt><trkpt lat="34.9060482" lon="32.414472"><ele>599.0</ele><time>2015-04-24T17:30:59.0000000+00:00</time></trkpt><trkpt lat="34.9060413" lon="32.4145311"><ele>598.9</ele><time>2015-04-24T17:31:01.0000000+00:00</time></trkpt><trkpt lat="34.906036" lon="32.4145879"><ele>598.9</ele><time>2015-04-24T17:31:03.0000000+00:00</time></trkpt><trkpt lat="34.9060372" lon="32.414644"><ele>600.2</ele><time>2015-04-24T17:31:05.0000000+00:00</time></trkpt><trkpt lat="34.9060217" lon="32.4147196"><ele>600.0</ele><time>2015-04-24T17:31:08.0000000+00:00</time></trkpt><trkpt lat="34.9060083" lon="32.4147894"><ele>600.8</ele><time>2015-04-24T17:31:11.0000000+00:00</time></trkpt><trkpt lat="34.9060051" lon="32.4148534"><ele>600.2</ele><time>2015-04-24T17:31:14.0000000+00:00</time></trkpt><trkpt lat="34.9060306" lon="32.4149043"><ele>602.7</ele><time>2015-04-24T17:31:19.0000000+00:00</time></trkpt><trkpt lat="34.9059973" lon="32.4149765"><ele>600.6</ele><time>2015-04-24T17:31:27.0000000+00:00</time></trkpt><trkpt lat="34.9059686" lon="32.415039"><ele>599.6</ele><time>2015-04-24T17:31:29.0000000+00:00</time></trkpt><trkpt lat="34.9059454" lon="32.4150895"><ele>597.1</ele><time>2015-04-24T17:31:31.0000000+00:00</time></trkpt><trkpt lat="34.9059406" lon="32.4151506"><ele>596.2</ele><time>2015-04-24T17:31:33.0000000+00:00</time></trkpt><trkpt lat="34.9059551" lon="32.415215"><ele>596.0</ele><time>2015-04-24T17:31:35.0000000+00:00</time></trkpt><trkpt lat="34.9059753" lon="32.4152791"><ele>596.4</ele><time>2015-04-24T17:31:37.0000000+00:00</time></trkpt><trkpt lat="34.9059885" lon="32.4153392"><ele>596.1</ele><time>2015-04-24T17:31:39.0000000+00:00</time></trkpt><trkpt lat="34.9059894" lon="32.4154006"><ele>596.0</ele><time>2015-04-24T17:31:41.0000000+00:00</time></trkpt><trkpt lat="34.9059891" lon="32.4154567"><ele>597.2</ele><time>2015-04-24T17:31:43.0000000+00:00</time></trkpt><trkpt lat="34.9059931" lon="32.4155134"><ele>597.7</ele><time>2015-04-24T17:31:45.0000000+00:00</time></trkpt><trkpt lat="34.9059999" lon="32.4155885"><ele>599.3</ele><time>2015-04-24T17:31:48.0000000+00:00</time></trkpt><trkpt lat="34.9060087" lon="32.4156498"><ele>600.3</ele><time>2015-04-24T17:31:51.0000000+00:00</time></trkpt><trkpt lat="34.9060187" lon="32.4157086"><ele>600.0</ele><time>2015-04-24T17:31:54.0000000+00:00</time></trkpt><trkpt lat="34.906034" lon="32.4157633"><ele>599.9</ele><time>2015-04-24T17:31:57.0000000+00:00</time></trkpt><trkpt lat="34.9060517" lon="32.4158192"><ele>599.9</ele><time>2015-04-24T17:32:00.0000000+00:00</time></trkpt><trkpt lat="34.906066" lon="32.4158753"><ele>600.4</ele><time>2015-04-24T17:32:03.0000000+00:00</time></trkpt><trkpt lat="34.906073" lon="32.4159316"><ele>601.5</ele><time>2015-04-24T17:32:06.0000000+00:00</time></trkpt><trkpt lat="34.9060813" lon="32.416002"><ele>602.7</ele><time>2015-04-24T17:32:10.0000000+00:00</time></trkpt><trkpt lat="34.9060898" lon="32.4160713"><ele>602.7</ele><time>2015-04-24T17:32:14.0000000+00:00</time></trkpt><trkpt lat="34.9061007" lon="32.4161262"><ele>603.9</ele><time>2015-04-24T17:32:17.0000000+00:00</time></trkpt><trkpt lat="34.9061235" lon="32.4161915"><ele>605.0</ele><time>2015-04-24T17:32:21.0000000+00:00</time></trkpt><trkpt lat="34.9061369" lon="32.4162456"><ele>605.8</ele><time>2015-04-24T17:32:24.0000000+00:00</time></trkpt><trkpt lat="34.9061516" lon="32.4163042"><ele>606.8</ele><time>2015-04-24T17:32:27.0000000+00:00</time></trkpt><trkpt lat="34.9061643" lon="32.4163655"><ele>607.5</ele><time>2015-04-24T17:32:30.0000000+00:00</time></trkpt><trkpt lat="34.9061764" lon="32.4164246"><ele>609.5</ele><time>2015-04-24T17:32:33.0000000+00:00</time></trkpt><trkpt lat="34.9061897" lon="32.4164838"><ele>609.6</ele><time>2015-04-24T17:32:36.0000000+00:00</time></trkpt><trkpt lat="34.9062062" lon="32.4165547"><ele>611.5</ele><time>2015-04-24T17:32:39.0000000+00:00</time></trkpt><trkpt lat="34.9062249" lon="32.4166263"><ele>612.4</ele><time>2015-04-24T17:32:42.0000000+00:00</time></trkpt><trkpt lat="34.9062408" lon="32.4166962"><ele>613.7</ele><time>2015-04-24T17:32:45.0000000+00:00</time></trkpt><trkpt lat="34.9062534" lon="32.4167607"><ele>613.9</ele><time>2015-04-24T17:32:48.0000000+00:00</time></trkpt><trkpt lat="34.9062609" lon="32.4168155"><ele>613.2</ele><time>2015-04-24T17:32:51.0000000+00:00</time></trkpt><trkpt lat="34.9062701" lon="32.4168711"><ele>613.7</ele><time>2015-04-24T17:32:54.0000000+00:00</time></trkpt><trkpt lat="34.9062912" lon="32.4169248"><ele>613.9</ele><time>2015-04-24T17:32:57.0000000+00:00</time></trkpt><trkpt lat="34.90631" lon="32.4169794"><ele>613.9</ele><time>2015-04-24T17:33:00.0000000+00:00</time></trkpt><trkpt lat="34.9063266" lon="32.4170437"><ele>613.9</ele><time>2015-04-24T17:33:03.0000000+00:00</time></trkpt><trkpt lat="34.9063465" lon="32.4171124"><ele>615.3</ele><time>2015-04-24T17:33:06.0000000+00:00</time></trkpt><trkpt lat="34.9063596" lon="32.417188"><ele>615.9</ele><time>2015-04-24T17:33:09.0000000+00:00</time></trkpt><trkpt lat="34.9063877" lon="32.417249"><ele>616.8</ele><time>2015-04-24T17:33:12.0000000+00:00</time></trkpt><trkpt lat="34.9064142" lon="32.4173092"><ele>616.9</ele><time>2015-04-24T17:33:15.0000000+00:00</time></trkpt><trkpt lat="34.9064346" lon="32.4173755"><ele>616.9</ele><time>2015-04-24T17:33:18.0000000+00:00</time></trkpt><trkpt lat="34.9064603" lon="32.4174437"><ele>616.9</ele><time>2015-04-24T17:33:21.0000000+00:00</time></trkpt><trkpt lat="34.9064895" lon="32.4175124"><ele>616.9</ele><time>2015-04-24T17:33:24.0000000+00:00</time></trkpt><trkpt lat="34.9065126" lon="32.4175621"><ele>617.7</ele><time>2015-04-24T17:33:26.0000000+00:00</time></trkpt><trkpt lat="34.9065371" lon="32.4176134"><ele>617.9</ele><time>2015-04-24T17:33:28.0000000+00:00</time></trkpt><trkpt lat="34.9065602" lon="32.417667"><ele>618.7</ele><time>2015-04-24T17:33:30.0000000+00:00</time></trkpt><trkpt lat="34.9065864" lon="32.4177213"><ele>618.9</ele><time>2015-04-24T17:33:32.0000000+00:00</time></trkpt><trkpt lat="34.9066132" lon="32.4177749"><ele>620.2</ele><time>2015-04-24T17:33:34.0000000+00:00</time></trkpt><trkpt lat="34.9066425" lon="32.4178295"><ele>620.7</ele><time>2015-04-24T17:33:36.0000000+00:00</time></trkpt><trkpt lat="34.9066744" lon="32.4178806"><ele>620.9</ele><time>2015-04-24T17:33:38.0000000+00:00</time></trkpt><trkpt lat="34.9067098" lon="32.4179314"><ele>620.9</ele><time>2015-04-24T17:33:40.0000000+00:00</time></trkpt><trkpt lat="34.9067465" lon="32.4179768"><ele>620.9</ele><time>2015-04-24T17:33:42.0000000+00:00</time></trkpt><trkpt lat="34.9067842" lon="32.4180202"><ele>620.9</ele><time>2015-04-24T17:33:44.0000000+00:00</time></trkpt><trkpt lat="34.9068227" lon="32.4180593"><ele>620.9</ele><time>2015-04-24T17:33:46.0000000+00:00</time></trkpt><trkpt lat="34.906861" lon="32.4180976"><ele>620.9</ele><time>2015-04-24T17:33:48.0000000+00:00</time></trkpt><trkpt lat="34.9068959" lon="32.4181374"><ele>620.4</ele><time>2015-04-24T17:33:50.0000000+00:00</time></trkpt><trkpt lat="34.9069309" lon="32.4181742"><ele>620.1</ele><time>2015-04-24T17:33:52.0000000+00:00</time></trkpt><trkpt lat="34.9069769" lon="32.4182228"><ele>619.4</ele><time>2015-04-24T17:33:55.0000000+00:00</time></trkpt><trkpt lat="34.9070149" lon="32.4182571"><ele>619.8</ele><time>2015-04-24T17:33:57.0000000+00:00</time></trkpt><trkpt lat="34.9070527" lon="32.4182973"><ele>619.9</ele><time>2015-04-24T17:33:59.0000000+00:00</time></trkpt><trkpt lat="34.9070912" lon="32.4183394"><ele>620.2</ele><time>2015-04-24T17:34:01.0000000+00:00</time></trkpt><trkpt lat="34.9071277" lon="32.4183746"><ele>620.7</ele><time>2015-04-24T17:34:03.0000000+00:00</time></trkpt><trkpt lat="34.90718" lon="32.4184293"><ele>620.8</ele><time>2015-04-24T17:34:06.0000000+00:00</time></trkpt><trkpt lat="34.9072155" lon="32.418463"><ele>621.6</ele><time>2015-04-24T17:34:08.0000000+00:00</time></trkpt><trkpt lat="34.9072685" lon="32.4185073"><ele>622.1</ele><time>2015-04-24T17:34:11.0000000+00:00</time></trkpt><trkpt lat="34.9073046" lon="32.4185445"><ele>622.7</ele><time>2015-04-24T17:34:13.0000000+00:00</time></trkpt><trkpt lat="34.9073402" lon="32.4185845"><ele>622.9</ele><time>2015-04-24T17:34:15.0000000+00:00</time></trkpt><trkpt lat="34.9073736" lon="32.4186289"><ele>622.9</ele><time>2015-04-24T17:34:17.0000000+00:00</time></trkpt><trkpt lat="34.9074075" lon="32.4186714"><ele>622.9</ele><time>2015-04-24T17:34:19.0000000+00:00</time></trkpt><trkpt lat="34.9074466" lon="32.4187122"><ele>622.9</ele><time>2015-04-24T17:34:21.0000000+00:00</time></trkpt><trkpt lat="34.9074845" lon="32.4187515"><ele>622.9</ele><time>2015-04-24T17:34:23.0000000+00:00</time></trkpt><trkpt lat="34.9075206" lon="32.4187946"><ele>623.4</ele><time>2015-04-24T17:34:25.0000000+00:00</time></trkpt><trkpt lat="34.9075574" lon="32.4188354"><ele>623.8</ele><time>2015-04-24T17:34:27.0000000+00:00</time></trkpt><trkpt lat="34.9075929" lon="32.4188804"><ele>624.4</ele><time>2015-04-24T17:34:29.0000000+00:00</time></trkpt><trkpt lat="34.9076237" lon="32.4189257"><ele>624.8</ele><time>2015-04-24T17:34:31.0000000+00:00</time></trkpt><trkpt lat="34.9076612" lon="32.4189606"><ele>624.4</ele><time>2015-04-24T17:34:33.0000000+00:00</time></trkpt><trkpt lat="34.9077179" lon="32.418998"><ele>624.7</ele><time>2015-04-24T17:34:36.0000000+00:00</time></trkpt><trkpt lat="34.9077505" lon="32.4190416"><ele>624.9</ele><time>2015-04-24T17:34:38.0000000+00:00</time></trkpt><trkpt lat="34.9077838" lon="32.4190893"><ele>624.9</ele><time>2015-04-24T17:34:40.0000000+00:00</time></trkpt><trkpt lat="34.9078169" lon="32.4191355"><ele>624.2</ele><time>2015-04-24T17:34:42.0000000+00:00</time></trkpt><trkpt lat="34.9078515" lon="32.4191834"><ele>624.0</ele><time>2015-04-24T17:34:44.0000000+00:00</time></trkpt><trkpt lat="34.907889" lon="32.4192297"><ele>623.9</ele><time>2015-04-24T17:34:46.0000000+00:00</time></trkpt><trkpt lat="34.9079254" lon="32.4192765"><ele>623.9</ele><time>2015-04-24T17:34:48.0000000+00:00</time></trkpt><trkpt lat="34.9079574" lon="32.4193233"><ele>624.7</ele><time>2015-04-24T17:34:50.0000000+00:00</time></trkpt><trkpt lat="34.9079904" lon="32.4193708"><ele>624.9</ele><time>2015-04-24T17:34:52.0000000+00:00</time></trkpt><trkpt lat="34.9080253" lon="32.4194149"><ele>625.7</ele><time>2015-04-24T17:34:54.0000000+00:00</time></trkpt><trkpt lat="34.9080586" lon="32.419461"><ele>625.9</ele><time>2015-04-24T17:34:56.0000000+00:00</time></trkpt><trkpt lat="34.9080919" lon="32.4195112"><ele>625.9</ele><time>2015-04-24T17:34:58.0000000+00:00</time></trkpt><trkpt lat="34.9081236" lon="32.4195659"><ele>626.4</ele><time>2015-04-24T17:35:00.0000000+00:00</time></trkpt><trkpt lat="34.9081575" lon="32.4196201"><ele>626.8</ele><time>2015-04-24T17:35:02.0000000+00:00</time></trkpt><trkpt lat="34.9081955" lon="32.4196662"><ele>626.9</ele><time>2015-04-24T17:35:04.0000000+00:00</time></trkpt><trkpt lat="34.9082316" lon="32.4197082"><ele>626.9</ele><time>2015-04-24T17:35:06.0000000+00:00</time></trkpt><trkpt lat="34.9082642" lon="32.4197505"><ele>626.9</ele><time>2015-04-24T17:35:08.0000000+00:00</time></trkpt><trkpt lat="34.9082947" lon="32.419792"><ele>626.9</ele><time>2015-04-24T17:35:10.0000000+00:00</time></trkpt><trkpt lat="34.9083402" lon="32.4198387"><ele>627.8</ele><time>2015-04-24T17:35:13.0000000+00:00</time></trkpt><trkpt lat="34.9083927" lon="32.4198925"><ele>627.9</ele><time>2015-04-24T17:35:16.0000000+00:00</time></trkpt><trkpt lat="34.9084249" lon="32.4199397"><ele>627.4</ele><time>2015-04-24T17:35:18.0000000+00:00</time></trkpt><trkpt lat="34.9084538" lon="32.4199862"><ele>627.6</ele><time>2015-04-24T17:35:20.0000000+00:00</time></trkpt><trkpt lat="34.9084883" lon="32.4200262"><ele>628.3</ele><time>2015-04-24T17:35:22.0000000+00:00</time></trkpt><trkpt lat="34.9085269" lon="32.4200687"><ele>629.5</ele><time>2015-04-24T17:35:24.0000000+00:00</time></trkpt><trkpt lat="34.9085654" lon="32.4201061"><ele>631.1</ele><time>2015-04-24T17:35:26.0000000+00:00</time></trkpt><trkpt lat="34.9085979" lon="32.420149"><ele>631.0</ele><time>2015-04-24T17:35:28.0000000+00:00</time></trkpt><trkpt lat="34.9086278" lon="32.4201934"><ele>631.4</ele><time>2015-04-24T17:35:30.0000000+00:00</time></trkpt><trkpt lat="34.9086539" lon="32.4202589"><ele>633.2</ele><time>2015-04-24T17:35:33.0000000+00:00</time></trkpt><trkpt lat="34.9086769" lon="32.4203111"><ele>632.7</ele><time>2015-04-24T17:35:38.0000000+00:00</time></trkpt><trkpt lat="34.9087125" lon="32.420364"><ele>633.7</ele><time>2015-04-24T17:35:42.0000000+00:00</time></trkpt><trkpt lat="34.9087588" lon="32.4204082"><ele>635.4</ele><time>2015-04-24T17:35:46.0000000+00:00</time></trkpt><trkpt lat="34.9087822" lon="32.4204652"><ele>635.9</ele><time>2015-04-24T17:35:49.0000000+00:00</time></trkpt><trkpt lat="34.9088126" lon="32.4205302"><ele>635.9</ele><time>2015-04-24T17:35:52.0000000+00:00</time></trkpt><trkpt lat="34.9088436" lon="32.4205955"><ele>636.7</ele><time>2015-04-24T17:35:55.0000000+00:00</time></trkpt><trkpt lat="34.9088693" lon="32.4206616"><ele>636.9</ele><time>2015-04-24T17:35:58.0000000+00:00</time></trkpt><trkpt lat="34.908901" lon="32.4207205"><ele>638.2</ele><time>2015-04-24T17:36:01.0000000+00:00</time></trkpt><trkpt lat="34.9089296" lon="32.4207824"><ele>638.3</ele><time>2015-04-24T17:36:04.0000000+00:00</time></trkpt><trkpt lat="34.9089628" lon="32.4208444"><ele>638.0</ele><time>2015-04-24T17:36:07.0000000+00:00</time></trkpt><trkpt lat="34.9089775" lon="32.4209065"><ele>637.9</ele><time>2015-04-24T17:36:10.0000000+00:00</time></trkpt><trkpt lat="34.9090035" lon="32.4209644"><ele>637.3</ele><time>2015-04-24T17:36:13.0000000+00:00</time></trkpt><trkpt lat="34.9090348" lon="32.4210283"><ele>637.9</ele><time>2015-04-24T17:36:16.0000000+00:00</time></trkpt><trkpt lat="34.9090768" lon="32.4210877"><ele>637.8</ele><time>2015-04-24T17:36:19.0000000+00:00</time></trkpt><trkpt lat="34.9091152" lon="32.4211481"><ele>637.2</ele><time>2015-04-24T17:36:22.0000000+00:00</time></trkpt><trkpt lat="34.9091438" lon="32.4211962"><ele>637.0</ele><time>2015-04-24T17:36:24.0000000+00:00</time></trkpt><trkpt lat="34.9091727" lon="32.4212435"><ele>636.9</ele><time>2015-04-24T17:36:26.0000000+00:00</time></trkpt><trkpt lat="34.9092065" lon="32.4212845"><ele>636.9</ele><time>2015-04-24T17:36:28.0000000+00:00</time></trkpt><trkpt lat="34.9092458" lon="32.4213278"><ele>636.9</ele><time>2015-04-24T17:36:30.0000000+00:00</time></trkpt><trkpt lat="34.9092848" lon="32.4213634"><ele>636.9</ele><time>2015-04-24T17:36:32.0000000+00:00</time></trkpt><trkpt lat="34.9093233" lon="32.4213928"><ele>637.7</ele><time>2015-04-24T17:36:34.0000000+00:00</time></trkpt><trkpt lat="34.9093626" lon="32.4214224"><ele>637.9</ele><time>2015-04-24T17:36:36.0000000+00:00</time></trkpt><trkpt lat="34.9094074" lon="32.4214481"><ele>638.4</ele><time>2015-04-24T17:36:38.0000000+00:00</time></trkpt><trkpt lat="34.9094581" lon="32.4214697"><ele>638.1</ele><time>2015-04-24T17:36:40.0000000+00:00</time></trkpt><trkpt lat="34.9095053" lon="32.4214938"><ele>638.0</ele><time>2015-04-24T17:36:42.0000000+00:00</time></trkpt><trkpt lat="34.9095494" lon="32.4215134"><ele>637.2</ele><time>2015-04-24T17:36:44.0000000+00:00</time></trkpt><trkpt lat="34.9095936" lon="32.4215336"><ele>637.7</ele><time>2015-04-24T17:36:46.0000000+00:00</time></trkpt><trkpt lat="34.9096407" lon="32.4215517"><ele>637.6</ele><time>2015-04-24T17:36:48.0000000+00:00</time></trkpt><trkpt lat="34.9096886" lon="32.4215632"><ele>637.4</ele><time>2015-04-24T17:36:50.0000000+00:00</time></trkpt><trkpt lat="34.9097442" lon="32.4215872"><ele>636.2</ele><time>2015-04-24T17:36:53.0000000+00:00</time></trkpt><trkpt lat="34.9098008" lon="32.4215965"><ele>636.8</ele><time>2015-04-24T17:36:56.0000000+00:00</time></trkpt><trkpt lat="34.9098549" lon="32.421599"><ele>636.7</ele><time>2015-04-24T17:36:59.0000000+00:00</time></trkpt><trkpt lat="34.9099084" lon="32.4215999"><ele>636.9</ele><time>2015-04-24T17:37:02.0000000+00:00</time></trkpt><trkpt lat="34.9099563" lon="32.4215921"><ele>636.7</ele><time>2015-04-24T17:37:05.0000000+00:00</time></trkpt><trkpt lat="34.9100029" lon="32.421586"><ele>636.9</ele><time>2015-04-24T17:37:09.0000000+00:00</time></trkpt><trkpt lat="34.910056" lon="32.4215887"><ele>638.3</ele><time>2015-04-24T17:37:14.0000000+00:00</time></trkpt><trkpt lat="34.9101043" lon="32.4215837"><ele>638.2</ele><time>2015-04-24T17:37:19.0000000+00:00</time></trkpt><trkpt lat="34.9101575" lon="32.4215992"><ele>638.0</ele><time>2015-04-24T17:37:23.0000000+00:00</time></trkpt><trkpt lat="34.9102141" lon="32.4216019"><ele>639.4</ele><time>2015-04-24T17:37:27.0000000+00:00</time></trkpt><trkpt lat="34.9102697" lon="32.4215934"><ele>640.8</ele><time>2015-04-24T17:37:31.0000000+00:00</time></trkpt><trkpt lat="34.9103191" lon="32.4215947"><ele>640.9</ele><time>2015-04-24T17:37:34.0000000+00:00</time></trkpt><trkpt lat="34.9103787" lon="32.4215901"><ele>640.9</ele><time>2015-04-24T17:37:37.0000000+00:00</time></trkpt><trkpt lat="34.910442" lon="32.42159"><ele>640.4</ele><time>2015-04-24T17:37:40.0000000+00:00</time></trkpt><trkpt lat="34.9105083" lon="32.4215892"><ele>640.5</ele><time>2015-04-24T17:37:43.0000000+00:00</time></trkpt><trkpt lat="34.9105559" lon="32.4215883"><ele>641.6</ele><time>2015-04-24T17:37:45.0000000+00:00</time></trkpt><trkpt lat="34.9106243" lon="32.4215899"><ele>642.3</ele><time>2015-04-24T17:37:47.0000000+00:00</time></trkpt><trkpt lat="34.9106946" lon="32.4215889"><ele>643.3</ele><time>2015-04-24T17:37:49.0000000+00:00</time></trkpt><trkpt lat="34.9107549" lon="32.4215773"><ele>643.8</ele><time>2015-04-24T17:37:51.0000000+00:00</time></trkpt><trkpt lat="34.9108043" lon="32.4215697"><ele>644.6</ele><time>2015-04-24T17:37:53.0000000+00:00</time></trkpt><trkpt lat="34.9108683" lon="32.4215593"><ele>644.9</ele><time>2015-04-24T17:37:56.0000000+00:00</time></trkpt><trkpt lat="34.9109169" lon="32.4215555"><ele>645.7</ele><time>2015-04-24T17:37:58.0000000+00:00</time></trkpt><trkpt lat="34.9109716" lon="32.421555"><ele>645.9</ele><time>2015-04-24T17:38:00.0000000+00:00</time></trkpt><trkpt lat="34.9110258" lon="32.421551"><ele>646.7</ele><time>2015-04-24T17:38:02.0000000+00:00</time></trkpt><trkpt lat="34.9110764" lon="32.4215486"><ele>646.9</ele><time>2015-04-24T17:38:04.0000000+00:00</time></trkpt><trkpt lat="34.9111252" lon="32.4215437"><ele>646.9</ele><time>2015-04-24T17:38:06.0000000+00:00</time></trkpt><trkpt lat="34.9111732" lon="32.4215377"><ele>647.7</ele><time>2015-04-24T17:38:08.0000000+00:00</time></trkpt><trkpt lat="34.9112227" lon="32.4215354"><ele>648.6</ele><time>2015-04-24T17:38:10.0000000+00:00</time></trkpt><trkpt lat="34.9112706" lon="32.421537"><ele>648.9</ele><time>2015-04-24T17:38:12.0000000+00:00</time></trkpt><trkpt lat="34.911331" lon="32.4215365"><ele>648.9</ele><time>2015-04-24T17:38:15.0000000+00:00</time></trkpt><trkpt lat="34.9113912" lon="32.4215292"><ele>648.9</ele><time>2015-04-24T17:38:18.0000000+00:00</time></trkpt><trkpt lat="34.911439" lon="32.4215285"><ele>649.4</ele><time>2015-04-24T17:38:20.0000000+00:00</time></trkpt><trkpt lat="34.9114895" lon="32.4215222"><ele>649.8</ele><time>2015-04-24T17:38:22.0000000+00:00</time></trkpt><trkpt lat="34.9115408" lon="32.4215202"><ele>649.9</ele><time>2015-04-24T17:38:24.0000000+00:00</time></trkpt><trkpt lat="34.9115919" lon="32.42152"><ele>649.4</ele><time>2015-04-24T17:38:26.0000000+00:00</time></trkpt><trkpt lat="34.9116442" lon="32.4215202"><ele>649.1</ele><time>2015-04-24T17:38:28.0000000+00:00</time></trkpt><trkpt lat="34.9116971" lon="32.4215197"><ele>649.5</ele><time>2015-04-24T17:38:30.0000000+00:00</time></trkpt><trkpt lat="34.9117503" lon="32.4215153"><ele>649.8</ele><time>2015-04-24T17:38:32.0000000+00:00</time></trkpt><trkpt lat="34.9117994" lon="32.421514"><ele>649.9</ele><time>2015-04-24T17:38:34.0000000+00:00</time></trkpt><trkpt lat="34.9118475" lon="32.4215134"><ele>650.7</ele><time>2015-04-24T17:38:36.0000000+00:00</time></trkpt><trkpt lat="34.9118949" lon="32.4215132"><ele>652.1</ele><time>2015-04-24T17:38:38.0000000+00:00</time></trkpt><trkpt lat="34.9119414" lon="32.421513"><ele>652.7</ele><time>2015-04-24T17:38:40.0000000+00:00</time></trkpt><trkpt lat="34.9119893" lon="32.4215113"><ele>652.9</ele><time>2015-04-24T17:38:42.0000000+00:00</time></trkpt><trkpt lat="34.9120398" lon="32.4215126"><ele>652.9</ele><time>2015-04-24T17:38:44.0000000+00:00</time></trkpt><trkpt lat="34.9120953" lon="32.4215094"><ele>653.4</ele><time>2015-04-24T17:38:46.0000000+00:00</time></trkpt><trkpt lat="34.9121711" lon="32.4215108"><ele>653.1</ele><time>2015-04-24T17:38:48.0000000+00:00</time></trkpt><trkpt lat="34.9122553" lon="32.4215095"><ele>653.0</ele><time>2015-04-24T17:38:50.0000000+00:00</time></trkpt><trkpt lat="34.9123272" lon="32.4215123"><ele>652.9</ele><time>2015-04-24T17:38:52.0000000+00:00</time></trkpt><trkpt lat="34.9123887" lon="32.4215063"><ele>652.9</ele><time>2015-04-24T17:38:54.0000000+00:00</time></trkpt><trkpt lat="34.9124485" lon="32.4215033"><ele>652.2</ele><time>2015-04-24T17:38:56.0000000+00:00</time></trkpt><trkpt lat="34.9125036" lon="32.421502"><ele>653.2</ele><time>2015-04-24T17:38:58.0000000+00:00</time></trkpt><trkpt lat="34.912557" lon="32.4215014"><ele>654.0</ele><time>2015-04-24T17:39:00.0000000+00:00</time></trkpt><trkpt lat="34.9126103" lon="32.4214987"><ele>653.9</ele><time>2015-04-24T17:39:02.0000000+00:00</time></trkpt><trkpt lat="34.9126651" lon="32.4214937"><ele>653.9</ele><time>2015-04-24T17:39:04.0000000+00:00</time></trkpt><trkpt lat="34.9127182" lon="32.4214834"><ele>654.2</ele><time>2015-04-24T17:39:06.0000000+00:00</time></trkpt><trkpt lat="34.9127724" lon="32.4214743"><ele>654.7</ele><time>2015-04-24T17:39:08.0000000+00:00</time></trkpt><trkpt lat="34.9128219" lon="32.4214641"><ele>654.9</ele><time>2015-04-24T17:39:10.0000000+00:00</time></trkpt><trkpt lat="34.9128759" lon="32.4214548"><ele>654.9</ele><time>2015-04-24T17:39:12.0000000+00:00</time></trkpt><trkpt lat="34.9129322" lon="32.4214418"><ele>655.4</ele><time>2015-04-24T17:39:14.0000000+00:00</time></trkpt><trkpt lat="34.9129859" lon="32.4214266"><ele>655.8</ele><time>2015-04-24T17:39:16.0000000+00:00</time></trkpt><trkpt lat="34.9130409" lon="32.4214146"><ele>655.6</ele><time>2015-04-24T17:39:18.0000000+00:00</time></trkpt><trkpt lat="34.9130979" lon="32.4213978"><ele>655.6</ele><time>2015-04-24T17:39:20.0000000+00:00</time></trkpt><trkpt lat="34.9131529" lon="32.4213822"><ele>655.1</ele><time>2015-04-24T17:39:22.0000000+00:00</time></trkpt><trkpt lat="34.9132066" lon="32.4213714"><ele>655.5</ele><time>2015-04-24T17:39:24.0000000+00:00</time></trkpt><trkpt lat="34.9132616" lon="32.4213642"><ele>655.3</ele><time>2015-04-24T17:39:26.0000000+00:00</time></trkpt><trkpt lat="34.9133151" lon="32.421344"><ele>656.5</ele><time>2015-04-24T17:39:28.0000000+00:00</time></trkpt><trkpt lat="34.9133734" lon="32.4213254"><ele>656.6</ele><time>2015-04-24T17:39:30.0000000+00:00</time></trkpt><trkpt lat="34.9134312" lon="32.4213068"><ele>657.1</ele><time>2015-04-24T17:39:32.0000000+00:00</time></trkpt><trkpt lat="34.9134827" lon="32.4212928"><ele>657.7</ele><time>2015-04-24T17:39:34.0000000+00:00</time></trkpt><trkpt lat="34.9135359" lon="32.4212824"><ele>657.9</ele><time>2015-04-24T17:39:36.0000000+00:00</time></trkpt><trkpt lat="34.9135927" lon="32.4212664"><ele>658.4</ele><time>2015-04-24T17:39:38.0000000+00:00</time></trkpt><trkpt lat="34.9136539" lon="32.4212528"><ele>658.3</ele><time>2015-04-24T17:39:40.0000000+00:00</time></trkpt><trkpt lat="34.9137288" lon="32.4212411"><ele>659.3</ele><time>2015-04-24T17:39:42.0000000+00:00</time></trkpt><trkpt lat="34.9138028" lon="32.4212367"><ele>659.8</ele><time>2015-04-24T17:39:44.0000000+00:00</time></trkpt><trkpt lat="34.9138678" lon="32.4212345"><ele>661.1</ele><time>2015-04-24T17:39:46.0000000+00:00</time></trkpt><trkpt lat="34.9139322" lon="32.4212297"><ele>661.5</ele><time>2015-04-24T17:39:48.0000000+00:00</time></trkpt><trkpt lat="34.9139973" lon="32.4212282"><ele>662.6</ele><time>2015-04-24T17:39:50.0000000+00:00</time></trkpt><trkpt lat="34.9140647" lon="32.4212359"><ele>662.6</ele><time>2015-04-24T17:39:52.0000000+00:00</time></trkpt><trkpt lat="34.9141293" lon="32.4212444"><ele>662.1</ele><time>2015-04-24T17:39:54.0000000+00:00</time></trkpt><trkpt lat="34.9141886" lon="32.4212564"><ele>661.5</ele><time>2015-04-24T17:39:56.0000000+00:00</time></trkpt><trkpt lat="34.9142405" lon="32.4212627"><ele>661.8</ele><time>2015-04-24T17:39:58.0000000+00:00</time></trkpt><trkpt lat="34.9142876" lon="32.421267"><ele>661.9</ele><time>2015-04-24T17:40:00.0000000+00:00</time></trkpt><trkpt lat="34.9143552" lon="32.421269"><ele>661.4</ele><time>2015-04-24T17:40:03.0000000+00:00</time></trkpt><trkpt lat="34.9144058" lon="32.4212715"><ele>660.6</ele><time>2015-04-24T17:40:05.0000000+00:00</time></trkpt><trkpt lat="34.9144585" lon="32.4212597"><ele>660.8</ele><time>2015-04-24T17:40:07.0000000+00:00</time></trkpt><trkpt lat="34.9145159" lon="32.4212413"><ele>660.9</ele><time>2015-04-24T17:40:09.0000000+00:00</time></trkpt><trkpt lat="34.9145678" lon="32.4212224"><ele>661.7</ele><time>2015-04-24T17:40:11.0000000+00:00</time></trkpt><trkpt lat="34.9146195" lon="32.4211967"><ele>661.6</ele><time>2015-04-24T17:40:13.0000000+00:00</time></trkpt><trkpt lat="34.9146741" lon="32.4211771"><ele>661.4</ele><time>2015-04-24T17:40:15.0000000+00:00</time></trkpt><trkpt lat="34.9147318" lon="32.4211627"><ele>661.5</ele><time>2015-04-24T17:40:17.0000000+00:00</time></trkpt><trkpt lat="34.9147871" lon="32.4211426"><ele>662.3</ele><time>2015-04-24T17:40:19.0000000+00:00</time></trkpt><trkpt lat="34.9148417" lon="32.4211139"><ele>662.8</ele><time>2015-04-24T17:40:21.0000000+00:00</time></trkpt><trkpt lat="34.9148956" lon="32.4210805"><ele>663.4</ele><time>2015-04-24T17:40:23.0000000+00:00</time></trkpt><trkpt lat="34.9149508" lon="32.4210431"><ele>663.3</ele><time>2015-04-24T17:40:25.0000000+00:00</time></trkpt><trkpt lat="34.915004" lon="32.4210077"><ele>663.5</ele><time>2015-04-24T17:40:27.0000000+00:00</time></trkpt><trkpt lat="34.9150585" lon="32.4209702"><ele>663.3</ele><time>2015-04-24T17:40:29.0000000+00:00</time></trkpt><trkpt lat="34.9151152" lon="32.4209294"><ele>663.0</ele><time>2015-04-24T17:40:31.0000000+00:00</time></trkpt><trkpt lat="34.9151762" lon="32.4208878"><ele>663.0</ele><time>2015-04-24T17:40:33.0000000+00:00</time></trkpt><trkpt lat="34.9152379" lon="32.4208508"><ele>662.9</ele><time>2015-04-24T17:40:35.0000000+00:00</time></trkpt><trkpt lat="34.915303" lon="32.420808"><ele>662.2</ele><time>2015-04-24T17:40:37.0000000+00:00</time></trkpt><trkpt lat="34.9153635" lon="32.4207638"><ele>661.2</ele><time>2015-04-24T17:40:39.0000000+00:00</time></trkpt><trkpt lat="34.9154228" lon="32.420718"><ele>661.0</ele><time>2015-04-24T17:40:41.0000000+00:00</time></trkpt><trkpt lat="34.9154819" lon="32.4206737"><ele>660.9</ele><time>2015-04-24T17:40:43.0000000+00:00</time></trkpt><trkpt lat="34.915549" lon="32.4206277"><ele>660.9</ele><time>2015-04-24T17:40:45.0000000+00:00</time></trkpt><trkpt lat="34.9156179" lon="32.4205866"><ele>660.9</ele><time>2015-04-24T17:40:47.0000000+00:00</time></trkpt><trkpt lat="34.9156802" lon="32.4205434"><ele>661.2</ele><time>2015-04-24T17:40:49.0000000+00:00</time></trkpt><trkpt lat="34.9157309" lon="32.4204922"><ele>661.5</ele><time>2015-04-24T17:40:51.0000000+00:00</time></trkpt><trkpt lat="34.9157852" lon="32.4204506"><ele>661.1</ele><time>2015-04-24T17:40:53.0000000+00:00</time></trkpt><trkpt lat="34.9158402" lon="32.4204249"><ele>661.7</ele><time>2015-04-24T17:40:55.0000000+00:00</time></trkpt><trkpt lat="34.9159208" lon="32.4203899"><ele>661.9</ele><time>2015-04-24T17:40:58.0000000+00:00</time></trkpt><trkpt lat="34.91597" lon="32.420367"><ele>661.9</ele><time>2015-04-24T17:41:00.0000000+00:00</time></trkpt><trkpt lat="34.9160225" lon="32.4203431"><ele>661.4</ele><time>2015-04-24T17:41:02.0000000+00:00</time></trkpt><trkpt lat="34.9160779" lon="32.420315"><ele>662.3</ele><time>2015-04-24T17:41:04.0000000+00:00</time></trkpt><trkpt lat="34.9161417" lon="32.4202897"><ele>662.8</ele><time>2015-04-24T17:41:06.0000000+00:00</time></trkpt><trkpt lat="34.9162125" lon="32.4202661"><ele>663.6</ele><time>2015-04-24T17:41:08.0000000+00:00</time></trkpt><trkpt lat="34.916285" lon="32.4202479"><ele>663.9</ele><time>2015-04-24T17:41:10.0000000+00:00</time></trkpt><trkpt lat="34.9163562" lon="32.4202329"><ele>664.7</ele><time>2015-04-24T17:41:12.0000000+00:00</time></trkpt><trkpt lat="34.916428" lon="32.4202241"><ele>664.6</ele><time>2015-04-24T17:41:14.0000000+00:00</time></trkpt><trkpt lat="34.9164975" lon="32.4202148"><ele>664.4</ele><time>2015-04-24T17:41:16.0000000+00:00</time></trkpt><trkpt lat="34.9165627" lon="32.4202026"><ele>664.8</ele><time>2015-04-24T17:41:18.0000000+00:00</time></trkpt><trkpt lat="34.916628" lon="32.4201912"><ele>664.9</ele><time>2015-04-24T17:41:20.0000000+00:00</time></trkpt><trkpt lat="34.9166962" lon="32.4201846"><ele>664.9</ele><time>2015-04-24T17:41:22.0000000+00:00</time></trkpt><trkpt lat="34.9167695" lon="32.4201813"><ele>664.9</ele><time>2015-04-24T17:41:24.0000000+00:00</time></trkpt><trkpt lat="34.9168455" lon="32.4201771"><ele>664.4</ele><time>2015-04-24T17:41:26.0000000+00:00</time></trkpt><trkpt lat="34.91692" lon="32.4201763"><ele>664.1</ele><time>2015-04-24T17:41:28.0000000+00:00</time></trkpt><trkpt lat="34.9169941" lon="32.4201685"><ele>664.0</ele><time>2015-04-24T17:41:30.0000000+00:00</time></trkpt><trkpt lat="34.9170694" lon="32.4201573"><ele>664.4</ele><time>2015-04-24T17:41:32.0000000+00:00</time></trkpt><trkpt lat="34.9171444" lon="32.4201546"><ele>664.8</ele><time>2015-04-24T17:41:34.0000000+00:00</time></trkpt><trkpt lat="34.9172196" lon="32.4201598"><ele>664.4</ele><time>2015-04-24T17:41:36.0000000+00:00</time></trkpt><trkpt lat="34.9172931" lon="32.4201649"><ele>664.0</ele><time>2015-04-24T17:41:38.0000000+00:00</time></trkpt><trkpt lat="34.9173616" lon="32.4201591"><ele>664.0</ele><time>2015-04-24T17:41:40.0000000+00:00</time></trkpt><trkpt lat="34.9174236" lon="32.4201532"><ele>663.9</ele><time>2015-04-24T17:41:42.0000000+00:00</time></trkpt><trkpt lat="34.9174822" lon="32.4201547"><ele>663.4</ele><time>2015-04-24T17:41:44.0000000+00:00</time></trkpt><trkpt lat="34.9175388" lon="32.4201526"><ele>663.1</ele><time>2015-04-24T17:41:46.0000000+00:00</time></trkpt><trkpt lat="34.917595" lon="32.4201548"><ele>663.7</ele><time>2015-04-24T17:41:48.0000000+00:00</time></trkpt><trkpt lat="34.9176494" lon="32.4201593"><ele>663.6</ele><time>2015-04-24T17:41:50.0000000+00:00</time></trkpt><trkpt lat="34.9177013" lon="32.4201651"><ele>663.9</ele><time>2015-04-24T17:41:52.0000000+00:00</time></trkpt><trkpt lat="34.9177509" lon="32.4201725"><ele>663.2</ele><time>2015-04-24T17:41:54.0000000+00:00</time></trkpt><trkpt lat="34.9177985" lon="32.4201829"><ele>662.5</ele><time>2015-04-24T17:41:56.0000000+00:00</time></trkpt><trkpt lat="34.9178467" lon="32.4201913"><ele>662.1</ele><time>2015-04-24T17:41:58.0000000+00:00</time></trkpt><trkpt lat="34.9178961" lon="32.420195"><ele>662.0</ele><time>2015-04-24T17:42:00.0000000+00:00</time></trkpt><trkpt lat="34.9179565" lon="32.4202015"><ele>661.2</ele><time>2015-04-24T17:42:03.0000000+00:00</time></trkpt><trkpt lat="34.9180024" lon="32.4202079"><ele>660.5</ele><time>2015-04-24T17:42:05.0000000+00:00</time></trkpt><trkpt lat="34.9180515" lon="32.4202149"><ele>660.1</ele><time>2015-04-24T17:42:07.0000000+00:00</time></trkpt><trkpt lat="34.9181056" lon="32.420232"><ele>660.5</ele><time>2015-04-24T17:42:09.0000000+00:00</time></trkpt><trkpt lat="34.9181518" lon="32.420249"><ele>660.7</ele><time>2015-04-24T17:42:10.0000000+00:00</time></trkpt><trkpt lat="34.9182328" lon="32.4202777"><ele>660.9</ele><time>2015-04-24T17:42:12.0000000+00:00</time></trkpt><trkpt lat="34.9183098" lon="32.4203108"><ele>660.9</ele><time>2015-04-24T17:42:14.0000000+00:00</time></trkpt><trkpt lat="34.9183828" lon="32.4203414"><ele>660.4</ele><time>2015-04-24T17:42:16.0000000+00:00</time></trkpt><trkpt lat="34.9184441" lon="32.4203636"><ele>660.1</ele><time>2015-04-24T17:42:18.0000000+00:00</time></trkpt><trkpt lat="34.9185095" lon="32.4203876"><ele>659.5</ele><time>2015-04-24T17:42:20.0000000+00:00</time></trkpt><trkpt lat="34.9185794" lon="32.4204179"><ele>659.1</ele><time>2015-04-24T17:42:22.0000000+00:00</time></trkpt><trkpt lat="34.9186298" lon="32.4204443"><ele>659.5</ele><time>2015-04-24T17:42:23.0000000+00:00</time></trkpt><trkpt lat="34.918683" lon="32.4204706"><ele>659.7</ele><time>2015-04-24T17:42:24.0000000+00:00</time></trkpt><trkpt lat="34.918726" lon="32.4204907"><ele>659.8</ele><time>2015-04-24T17:42:25.0000000+00:00</time></trkpt><trkpt lat="34.9187702" lon="32.4205046"><ele>659.4</ele><time>2015-04-24T17:42:26.0000000+00:00</time></trkpt><trkpt lat="34.9188132" lon="32.4205225"><ele>659.2</ele><time>2015-04-24T17:42:27.0000000+00:00</time></trkpt><trkpt lat="34.918861" lon="32.4205524"><ele>659.0</ele><time>2015-04-24T17:42:28.0000000+00:00</time></trkpt><trkpt lat="34.9189065" lon="32.4205746"><ele>659.0</ele><time>2015-04-24T17:42:29.0000000+00:00</time></trkpt><trkpt lat="34.9189534" lon="32.4205977"><ele>659.5</ele><time>2015-04-24T17:42:30.0000000+00:00</time></trkpt><trkpt lat="34.9190008" lon="32.4206235"><ele>659.7</ele><time>2015-04-24T17:42:31.0000000+00:00</time></trkpt><trkpt lat="34.9190494" lon="32.4206454"><ele>659.8</ele><time>2015-04-24T17:42:32.0000000+00:00</time></trkpt><trkpt lat="34.9190962" lon="32.4206677"><ele>659.9</ele><time>2015-04-24T17:42:33.0000000+00:00</time></trkpt><trkpt lat="34.9191469" lon="32.4206893"><ele>659.9</ele><time>2015-04-24T17:42:34.0000000+00:00</time></trkpt><trkpt lat="34.9191955" lon="32.4207113"><ele>659.9</ele><time>2015-04-24T17:42:35.0000000+00:00</time></trkpt><trkpt lat="34.9192472" lon="32.4207427"><ele>659.9</ele><time>2015-04-24T17:42:36.0000000+00:00</time></trkpt><trkpt lat="34.9192962" lon="32.4207654"><ele>659.9</ele><time>2015-04-24T17:42:37.0000000+00:00</time></trkpt><trkpt lat="34.9193639" lon="32.4207922"><ele>659.9</ele><time>2015-04-24T17:42:38.0000000+00:00</time></trkpt><trkpt lat="34.9194179" lon="32.4208121"><ele>660.4</ele><time>2015-04-24T17:42:39.0000000+00:00</time></trkpt><trkpt lat="34.9194764" lon="32.4208455"><ele>660.2</ele><time>2015-04-24T17:42:40.0000000+00:00</time></trkpt><trkpt lat="34.9195314" lon="32.420871"><ele>660.1</ele><time>2015-04-24T17:42:41.0000000+00:00</time></trkpt><trkpt lat="34.9195912" lon="32.4208894"><ele>660.0</ele><time>2015-04-24T17:42:42.0000000+00:00</time></trkpt><trkpt lat="34.9196478" lon="32.42091"><ele>660.0</ele><time>2015-04-24T17:42:43.0000000+00:00</time></trkpt><trkpt lat="34.9197077" lon="32.4209181"><ele>660.4</ele><time>2015-04-24T17:42:44.0000000+00:00</time></trkpt><trkpt lat="34.9197676" lon="32.4209323"><ele>660.7</ele><time>2015-04-24T17:42:45.0000000+00:00</time></trkpt><trkpt lat="34.9198321" lon="32.4209311"><ele>660.8</ele><time>2015-04-24T17:42:46.0000000+00:00</time></trkpt><trkpt lat="34.9198931" lon="32.4209409"><ele>660.9</ele><time>2015-04-24T17:42:47.0000000+00:00</time></trkpt><trkpt lat="34.9199493" lon="32.4209461"><ele>661.4</ele><time>2015-04-24T17:42:48.0000000+00:00</time></trkpt><trkpt lat="34.920011" lon="32.42095"><ele>661.7</ele><time>2015-04-24T17:42:49.0000000+00:00</time></trkpt><trkpt lat="34.9200648" lon="32.4209575"><ele>661.8</ele><time>2015-04-24T17:42:50.0000000+00:00</time></trkpt><trkpt lat="34.9201242" lon="32.4209589"><ele>661.9</ele><time>2015-04-24T17:42:51.0000000+00:00</time></trkpt><trkpt lat="34.920179" lon="32.4209557"><ele>661.9</ele><time>2015-04-24T17:42:52.0000000+00:00</time></trkpt><trkpt lat="34.9202384" lon="32.4209473"><ele>661.4</ele><time>2015-04-24T17:42:53.0000000+00:00</time></trkpt><trkpt lat="34.9202952" lon="32.4209298"><ele>661.2</ele><time>2015-04-24T17:42:54.0000000+00:00</time></trkpt><trkpt lat="34.9203548" lon="32.4209206"><ele>661.1</ele><time>2015-04-24T17:42:55.0000000+00:00</time></trkpt><trkpt lat="34.9204142" lon="32.420904"><ele>661.5</ele><time>2015-04-24T17:42:56.0000000+00:00</time></trkpt><trkpt lat="34.9204732" lon="32.4208932"><ele>661.7</ele><time>2015-04-24T17:42:57.0000000+00:00</time></trkpt><trkpt lat="34.9205278" lon="32.4208818"><ele>661.8</ele><time>2015-04-24T17:42:58.0000000+00:00</time></trkpt><trkpt lat="34.9205858" lon="32.4208688"><ele>662.4</ele><time>2015-04-24T17:42:59.0000000+00:00</time></trkpt><trkpt lat="34.9206478" lon="32.4208444"><ele>662.2</ele><time>2015-04-24T17:43:00.0000000+00:00</time></trkpt><trkpt lat="34.9207091" lon="32.4208286"><ele>662.0</ele><time>2015-04-24T17:43:01.0000000+00:00</time></trkpt><trkpt lat="34.9207692" lon="32.420813"><ele>662.0</ele><time>2015-04-24T17:43:02.0000000+00:00</time></trkpt><trkpt lat="34.9208274" lon="32.4208005"><ele>662.0</ele><time>2015-04-24T17:43:03.0000000+00:00</time></trkpt><trkpt lat="34.9208826" lon="32.4207833"><ele>662.4</ele><time>2015-04-24T17:43:04.0000000+00:00</time></trkpt><trkpt lat="34.9209282" lon="32.4207684"><ele>662.7</ele><time>2015-04-24T17:43:05.0000000+00:00</time></trkpt><trkpt lat="34.921012" lon="32.4207416"><ele>662.9</ele><time>2015-04-24T17:43:07.0000000+00:00</time></trkpt><trkpt lat="34.9210585" lon="32.4207298"><ele>662.9</ele><time>2015-04-24T17:43:08.0000000+00:00</time></trkpt><trkpt lat="34.9211039" lon="32.4207155"><ele>662.9</ele><time>2015-04-24T17:43:09.0000000+00:00</time></trkpt><trkpt lat="34.9211494" lon="32.4207049"><ele>662.9</ele><time>2015-04-24T17:43:10.0000000+00:00</time></trkpt><trkpt lat="34.9212019" lon="32.4207006"><ele>662.4</ele><time>2015-04-24T17:43:11.0000000+00:00</time></trkpt><trkpt lat="34.9212498" lon="32.4206908"><ele>662.7</ele><time>2015-04-24T17:43:12.0000000+00:00</time></trkpt><trkpt lat="34.9212969" lon="32.420678"><ele>662.3</ele><time>2015-04-24T17:43:13.0000000+00:00</time></trkpt><trkpt lat="34.9213515" lon="32.4206643"><ele>662.6</ele><time>2015-04-24T17:43:14.0000000+00:00</time></trkpt><trkpt lat="34.9214005" lon="32.4206497"><ele>662.8</ele><time>2015-04-24T17:43:15.0000000+00:00</time></trkpt><trkpt lat="34.921456" lon="32.4206384"><ele>662.9</ele><time>2015-04-24T17:43:16.0000000+00:00</time></trkpt><trkpt lat="34.9215084" lon="32.4206251"><ele>662.9</ele><time>2015-04-24T17:43:17.0000000+00:00</time></trkpt><trkpt lat="34.9215689" lon="32.420609"><ele>662.4</ele><time>2015-04-24T17:43:18.0000000+00:00</time></trkpt><trkpt lat="34.921624" lon="32.4205955"><ele>662.2</ele><time>2015-04-24T17:43:19.0000000+00:00</time></trkpt><trkpt lat="34.9216791" lon="32.420578"><ele>662.6</ele><time>2015-04-24T17:43:20.0000000+00:00</time></trkpt><trkpt lat="34.92174" lon="32.420561"><ele>662.7</ele><time>2015-04-24T17:43:21.0000000+00:00</time></trkpt><trkpt lat="34.9218046" lon="32.4205491"><ele>662.3</ele><time>2015-04-24T17:43:22.0000000+00:00</time></trkpt><trkpt lat="34.9218634" lon="32.420532"><ele>662.1</ele><time>2015-04-24T17:43:23.0000000+00:00</time></trkpt><trkpt lat="34.9219296" lon="32.4205154"><ele>662.0</ele><time>2015-04-24T17:43:24.0000000+00:00</time></trkpt><trkpt lat="34.9219909" lon="32.4204991"><ele>662.0</ele><time>2015-04-24T17:43:25.0000000+00:00</time></trkpt><trkpt lat="34.9220562" lon="32.4204826"><ele>662.0</ele><time>2015-04-24T17:43:26.0000000+00:00</time></trkpt><trkpt lat="34.9221256" lon="32.4204733"><ele>661.4</ele><time>2015-04-24T17:43:27.0000000+00:00</time></trkpt><trkpt lat="34.9221928" lon="32.4204582"><ele>661.2</ele><time>2015-04-24T17:43:28.0000000+00:00</time></trkpt><trkpt lat="34.9222594" lon="32.4204433"><ele>661.1</ele><time>2015-04-24T17:43:29.0000000+00:00</time></trkpt><trkpt lat="34.9223299" lon="32.4204288"><ele>661.0</ele><time>2015-04-24T17:43:30.0000000+00:00</time></trkpt><trkpt lat="34.9223971" lon="32.4204119"><ele>661.0</ele><time>2015-04-24T17:43:31.0000000+00:00</time></trkpt><trkpt lat="34.9224642" lon="32.4203916"><ele>660.9</ele><time>2015-04-24T17:43:32.0000000+00:00</time></trkpt><trkpt lat="34.9225329" lon="32.420372"><ele>660.9</ele><time>2015-04-24T17:43:33.0000000+00:00</time></trkpt><trkpt lat="34.9225893" lon="32.4203562"><ele>660.9</ele><time>2015-04-24T17:43:34.0000000+00:00</time></trkpt><trkpt lat="34.9226541" lon="32.4203427"><ele>660.9</ele><time>2015-04-24T17:43:35.0000000+00:00</time></trkpt><trkpt lat="34.9227163" lon="32.4203143"><ele>660.9</ele><time>2015-04-24T17:43:36.0000000+00:00</time></trkpt><trkpt lat="34.9227792" lon="32.4202937"><ele>660.9</ele><time>2015-04-24T17:43:37.0000000+00:00</time></trkpt><trkpt lat="34.9228357" lon="32.4202702"><ele>660.4</ele><time>2015-04-24T17:43:38.0000000+00:00</time></trkpt><trkpt lat="34.9228943" lon="32.4202464"><ele>659.7</ele><time>2015-04-24T17:43:39.0000000+00:00</time></trkpt><trkpt lat="34.9229469" lon="32.4202255"><ele>659.3</ele><time>2015-04-24T17:43:40.0000000+00:00</time></trkpt><trkpt lat="34.9230002" lon="32.4202002"><ele>659.1</ele><time>2015-04-24T17:43:41.0000000+00:00</time></trkpt><trkpt lat="34.923048" lon="32.4201663"><ele>659.0</ele><time>2015-04-24T17:43:42.0000000+00:00</time></trkpt><trkpt lat="34.9230956" lon="32.4201341"><ele>659.0</ele><time>2015-04-24T17:43:43.0000000+00:00</time></trkpt><trkpt lat="34.9231459" lon="32.4201048"><ele>658.5</ele><time>2015-04-24T17:43:44.0000000+00:00</time></trkpt><trkpt lat="34.9231943" lon="32.4200724"><ele>658.2</ele><time>2015-04-24T17:43:45.0000000+00:00</time></trkpt><trkpt lat="34.9232481" lon="32.4200417"><ele>658.1</ele><time>2015-04-24T17:43:46.0000000+00:00</time></trkpt><trkpt lat="34.9232995" lon="32.4200127"><ele>658.0</ele><time>2015-04-24T17:43:47.0000000+00:00</time></trkpt><trkpt lat="34.9233537" lon="32.419978"><ele>658.0</ele><time>2015-04-24T17:43:48.0000000+00:00</time></trkpt><trkpt lat="34.9234062" lon="32.419945"><ele>657.4</ele><time>2015-04-24T17:43:49.0000000+00:00</time></trkpt><trkpt lat="34.9234712" lon="32.4199184"><ele>657.2</ele><time>2015-04-24T17:43:50.0000000+00:00</time></trkpt><trkpt lat="34.9235279" lon="32.4198887"><ele>657.1</ele><time>2015-04-24T17:43:51.0000000+00:00</time></trkpt><trkpt lat="34.923594" lon="32.4198587"><ele>657.0</ele><time>2015-04-24T17:43:52.0000000+00:00</time></trkpt><trkpt lat="34.9236531" lon="32.4198286"><ele>657.0</ele><time>2015-04-24T17:43:53.0000000+00:00</time></trkpt><trkpt lat="34.9237174" lon="32.4198081"><ele>656.4</ele><time>2015-04-24T17:43:54.0000000+00:00</time></trkpt><trkpt lat="34.9237794" lon="32.4197833"><ele>656.2</ele><time>2015-04-24T17:43:55.0000000+00:00</time></trkpt><trkpt lat="34.9238372" lon="32.419753"><ele>656.6</ele><time>2015-04-24T17:43:56.0000000+00:00</time></trkpt><trkpt lat="34.9238967" lon="32.4197278"><ele>656.7</ele><time>2015-04-24T17:43:57.0000000+00:00</time></trkpt><trkpt lat="34.9239752" lon="32.4197058"><ele>655.8</ele><time>2015-04-24T17:43:58.0000000+00:00</time></trkpt><trkpt lat="34.9240404" lon="32.4196843"><ele>655.4</ele><time>2015-04-24T17:43:59.0000000+00:00</time></trkpt><trkpt lat="34.924105" lon="32.4196724"><ele>655.7</ele><time>2015-04-24T17:44:00.0000000+00:00</time></trkpt><trkpt lat="34.9241736" lon="32.4196548"><ele>655.8</ele><time>2015-04-24T17:44:01.0000000+00:00</time></trkpt><trkpt lat="34.9242451" lon="32.4196307"><ele>656.4</ele><time>2015-04-24T17:44:02.0000000+00:00</time></trkpt><trkpt lat="34.9243145" lon="32.4196124"><ele>656.6</ele><time>2015-04-24T17:44:03.0000000+00:00</time></trkpt><trkpt lat="34.9243882" lon="32.4195838"><ele>656.3</ele><time>2015-04-24T17:44:04.0000000+00:00</time></trkpt><trkpt lat="34.924463" lon="32.4195623"><ele>656.1</ele><time>2015-04-24T17:44:05.0000000+00:00</time></trkpt><trkpt lat="34.9245356" lon="32.4195372"><ele>655.5</ele><time>2015-04-24T17:44:06.0000000+00:00</time></trkpt><trkpt lat="34.924605" lon="32.4195054"><ele>655.2</ele><time>2015-04-24T17:44:07.0000000+00:00</time></trkpt><trkpt lat="34.9246756" lon="32.4194574"><ele>654.6</ele><time>2015-04-24T17:44:08.0000000+00:00</time></trkpt><trkpt lat="34.924744" lon="32.419416"><ele>654.3</ele><time>2015-04-24T17:44:09.0000000+00:00</time></trkpt><trkpt lat="34.9248055" lon="32.419365"><ele>654.1</ele><time>2015-04-24T17:44:10.0000000+00:00</time></trkpt><trkpt lat="34.9248683" lon="32.4193135"><ele>654.0</ele><time>2015-04-24T17:44:11.0000000+00:00</time></trkpt><trkpt lat="34.924924" lon="32.4192536"><ele>653.5</ele><time>2015-04-24T17:44:12.0000000+00:00</time></trkpt><trkpt lat="34.9249829" lon="32.4191953"><ele>652.7</ele><time>2015-04-24T17:44:13.0000000+00:00</time></trkpt><trkpt lat="34.925041" lon="32.4191306"><ele>652.3</ele><time>2015-04-24T17:44:14.0000000+00:00</time></trkpt><trkpt lat="34.9250978" lon="32.4190725"><ele>651.6</ele><time>2015-04-24T17:44:15.0000000+00:00</time></trkpt><trkpt lat="34.9251532" lon="32.4190155"><ele>651.3</ele><time>2015-04-24T17:44:16.0000000+00:00</time></trkpt><trkpt lat="34.9252056" lon="32.4189546"><ele>651.1</ele><time>2015-04-24T17:44:17.0000000+00:00</time></trkpt><trkpt lat="34.9252531" lon="32.4188917"><ele>650.5</ele><time>2015-04-24T17:44:18.0000000+00:00</time></trkpt><trkpt lat="34.9253066" lon="32.4188403"><ele>650.2</ele><time>2015-04-24T17:44:19.0000000+00:00</time></trkpt><trkpt lat="34.9253611" lon="32.4187828"><ele>650.1</ele><time>2015-04-24T17:44:20.0000000+00:00</time></trkpt><trkpt lat="34.9254202" lon="32.4187369"><ele>650.0</ele><time>2015-04-24T17:44:21.0000000+00:00</time></trkpt><trkpt lat="34.9254753" lon="32.418684"><ele>650.0</ele><time>2015-04-24T17:44:22.0000000+00:00</time></trkpt><trkpt lat="34.9255336" lon="32.4186334"><ele>649.9</ele><time>2015-04-24T17:44:23.0000000+00:00</time></trkpt><trkpt lat="34.9255976" lon="32.4185876"><ele>649.4</ele><time>2015-04-24T17:44:24.0000000+00:00</time></trkpt><trkpt lat="34.9256582" lon="32.4185378"><ele>649.2</ele><time>2015-04-24T17:44:25.0000000+00:00</time></trkpt><trkpt lat="34.9257228" lon="32.4184841"><ele>649.1</ele><time>2015-04-24T17:44:26.0000000+00:00</time></trkpt><trkpt lat="34.9257862" lon="32.4184352"><ele>649.0</ele><time>2015-04-24T17:44:27.0000000+00:00</time></trkpt><trkpt lat="34.9258572" lon="32.4183947"><ele>649.0</ele><time>2015-04-24T17:44:28.0000000+00:00</time></trkpt><trkpt lat="34.925926" lon="32.4183514"><ele>648.4</ele><time>2015-04-24T17:44:29.0000000+00:00</time></trkpt><trkpt lat="34.9259979" lon="32.4183097"><ele>648.7</ele><time>2015-04-24T17:44:30.0000000+00:00</time></trkpt><trkpt lat="34.9260708" lon="32.4182709"><ele>648.8</ele><time>2015-04-24T17:44:31.0000000+00:00</time></trkpt><trkpt lat="34.92615" lon="32.4182282"><ele>648.4</ele><time>2015-04-24T17:44:32.0000000+00:00</time></trkpt><trkpt lat="34.9262269" lon="32.4181936"><ele>648.1</ele><time>2015-04-24T17:44:33.0000000+00:00</time></trkpt><trkpt lat="34.9263032" lon="32.4181622"><ele>648.0</ele><time>2015-04-24T17:44:34.0000000+00:00</time></trkpt><trkpt lat="34.9263806" lon="32.4181279"><ele>647.5</ele><time>2015-04-24T17:44:35.0000000+00:00</time></trkpt><trkpt lat="34.9264598" lon="32.4180969"><ele>647.7</ele><time>2015-04-24T17:44:36.0000000+00:00</time></trkpt><trkpt lat="34.9265366" lon="32.4180796"><ele>646.8</ele><time>2015-04-24T17:44:37.0000000+00:00</time></trkpt><trkpt lat="34.9266145" lon="32.4180534"><ele>646.4</ele><time>2015-04-24T17:44:38.0000000+00:00</time></trkpt><trkpt lat="34.926693" lon="32.4180333"><ele>646.2</ele><time>2015-04-24T17:44:39.0000000+00:00</time></trkpt><trkpt lat="34.9267701" lon="32.4180119"><ele>645.5</ele><time>2015-04-24T17:44:40.0000000+00:00</time></trkpt><trkpt lat="34.9268438" lon="32.4179932"><ele>644.7</ele><time>2015-04-24T17:44:41.0000000+00:00</time></trkpt><trkpt lat="34.9269189" lon="32.4179703"><ele>644.3</ele><time>2015-04-24T17:44:42.0000000+00:00</time></trkpt><trkpt lat="34.9269879" lon="32.417956"><ele>643.6</ele><time>2015-04-24T17:44:43.0000000+00:00</time></trkpt><trkpt lat="34.9270635" lon="32.417936"><ele>643.3</ele><time>2015-04-24T17:44:44.0000000+00:00</time></trkpt><trkpt lat="34.9271359" lon="32.4179168"><ele>643.1</ele><time>2015-04-24T17:44:45.0000000+00:00</time></trkpt><trkpt lat="34.9272093" lon="32.4178999"><ele>643.0</ele><time>2015-04-24T17:44:46.0000000+00:00</time></trkpt><trkpt lat="34.9272789" lon="32.417878"><ele>642.5</ele><time>2015-04-24T17:44:47.0000000+00:00</time></trkpt><trkpt lat="34.9273469" lon="32.4178583"><ele>642.2</ele><time>2015-04-24T17:44:48.0000000+00:00</time></trkpt><trkpt lat="34.927417" lon="32.4178413"><ele>642.1</ele><time>2015-04-24T17:44:49.0000000+00:00</time></trkpt><trkpt lat="34.9274936" lon="32.4178287"><ele>641.5</ele><time>2015-04-24T17:44:50.0000000+00:00</time></trkpt><trkpt lat="34.9275653" lon="32.4178117"><ele>641.2</ele><time>2015-04-24T17:44:51.0000000+00:00</time></trkpt><trkpt lat="34.9276473" lon="32.4177973"><ele>641.1</ele><time>2015-04-24T17:44:52.0000000+00:00</time></trkpt><trkpt lat="34.9277209" lon="32.4177856"><ele>641.0</ele><time>2015-04-24T17:44:53.0000000+00:00</time></trkpt><trkpt lat="34.9278018" lon="32.4177659"><ele>640.5</ele><time>2015-04-24T17:44:54.0000000+00:00</time></trkpt><trkpt lat="34.9278778" lon="32.4177554"><ele>639.7</ele><time>2015-04-24T17:44:55.0000000+00:00</time></trkpt><trkpt lat="34.9279566" lon="32.4177449"><ele>639.3</ele><time>2015-04-24T17:44:56.0000000+00:00</time></trkpt><trkpt lat="34.9280323" lon="32.4177277"><ele>639.1</ele><time>2015-04-24T17:44:57.0000000+00:00</time></trkpt><trkpt lat="34.9281137" lon="32.41771"><ele>638.5</ele><time>2015-04-24T17:44:58.0000000+00:00</time></trkpt><trkpt lat="34.9281893" lon="32.4176928"><ele>638.2</ele><time>2015-04-24T17:44:59.0000000+00:00</time></trkpt><trkpt lat="34.928264" lon="32.4176655"><ele>638.6</ele><time>2015-04-24T17:45:00.0000000+00:00</time></trkpt><trkpt lat="34.9283387" lon="32.4176457"><ele>638.8</ele><time>2015-04-24T17:45:01.0000000+00:00</time></trkpt><trkpt lat="34.9284108" lon="32.4176278"><ele>638.3</ele><time>2015-04-24T17:45:02.0000000+00:00</time></trkpt><trkpt lat="34.9284805" lon="32.4176097"><ele>637.6</ele><time>2015-04-24T17:45:03.0000000+00:00</time></trkpt><trkpt lat="34.9285485" lon="32.4175838"><ele>637.3</ele><time>2015-04-24T17:45:04.0000000+00:00</time></trkpt><trkpt lat="34.9286171" lon="32.4175651"><ele>637.1</ele><time>2015-04-24T17:45:05.0000000+00:00</time></trkpt><trkpt lat="34.9286803" lon="32.4175473"><ele>637.0</ele><time>2015-04-24T17:45:06.0000000+00:00</time></trkpt><trkpt lat="34.9287466" lon="32.4175268"><ele>637.0</ele><time>2015-04-24T17:45:07.0000000+00:00</time></trkpt><trkpt lat="34.9288107" lon="32.4175057"><ele>637.0</ele><time>2015-04-24T17:45:08.0000000+00:00</time></trkpt><trkpt lat="34.9288728" lon="32.41749"><ele>636.9</ele><time>2015-04-24T17:45:09.0000000+00:00</time></trkpt><trkpt lat="34.9289408" lon="32.4174618"><ele>636.9</ele><time>2015-04-24T17:45:10.0000000+00:00</time></trkpt><trkpt lat="34.9290049" lon="32.41744"><ele>636.9</ele><time>2015-04-24T17:45:11.0000000+00:00</time></trkpt><trkpt lat="34.929073" lon="32.4174169"><ele>636.9</ele><time>2015-04-24T17:45:12.0000000+00:00</time></trkpt><trkpt lat="34.9291329" lon="32.4173924"><ele>636.9</ele><time>2015-04-24T17:45:13.0000000+00:00</time></trkpt><trkpt lat="34.9291974" lon="32.4173685"><ele>636.9</ele><time>2015-04-24T17:45:14.0000000+00:00</time></trkpt><trkpt lat="34.929261" lon="32.4173421"><ele>636.9</ele><time>2015-04-24T17:45:15.0000000+00:00</time></trkpt><trkpt lat="34.9293256" lon="32.4173154"><ele>636.9</ele><time>2015-04-24T17:45:16.0000000+00:00</time></trkpt><trkpt lat="34.9293882" lon="32.4172856"><ele>636.9</ele><time>2015-04-24T17:45:17.0000000+00:00</time></trkpt><trkpt lat="34.9294477" lon="32.4172549"><ele>636.4</ele><time>2015-04-24T17:45:18.0000000+00:00</time></trkpt><trkpt lat="34.9295039" lon="32.4172243"><ele>636.2</ele><time>2015-04-24T17:45:19.0000000+00:00</time></trkpt><trkpt lat="34.929563" lon="32.4171914"><ele>636.1</ele><time>2015-04-24T17:45:20.0000000+00:00</time></trkpt><trkpt lat="34.9296139" lon="32.4171788"><ele>635.5</ele><time>2015-04-24T17:45:21.0000000+00:00</time></trkpt><trkpt lat="34.9296637" lon="32.417155"><ele>635.2</ele><time>2015-04-24T17:45:22.0000000+00:00</time></trkpt><trkpt lat="34.929743" lon="32.4171176"><ele>634.3</ele><time>2015-04-24T17:45:24.0000000+00:00</time></trkpt><trkpt lat="34.929808" lon="32.4170753"><ele>634.0</ele><time>2015-04-24T17:45:26.0000000+00:00</time></trkpt><trkpt lat="34.9298526" lon="32.4170499"><ele>633.7</ele><time>2015-04-24T17:45:28.0000000+00:00</time></trkpt><trkpt lat="34.9298954" lon="32.4170068"><ele>633.9</ele><time>2015-04-24T17:45:31.0000000+00:00</time></trkpt><trkpt lat="34.9298505" lon="32.4170269"><ele>634.9</ele><time>2015-04-24T17:46:01.0000000+00:00</time></trkpt><trkpt lat="34.9298876" lon="32.4169886"><ele>638.1</ele><time>2015-04-24T17:52:29.0000000+00:00</time></trkpt><trkpt lat="34.9299377" lon="32.4169484"><ele>639.7</ele><time>2015-04-24T17:52:32.0000000+00:00</time></trkpt><trkpt lat="34.9299946" lon="32.41691"><ele>639.9</ele><time>2015-04-24T17:52:34.0000000+00:00</time></trkpt><trkpt lat="34.930059" lon="32.4168717"><ele>639.7</ele><time>2015-04-24T17:52:36.0000000+00:00</time></trkpt><trkpt lat="34.9301308" lon="32.4168315"><ele>639.9</ele><time>2015-04-24T17:52:38.0000000+00:00</time></trkpt><trkpt lat="34.9302085" lon="32.416786"><ele>639.9</ele><time>2015-04-24T17:52:40.0000000+00:00</time></trkpt><trkpt lat="34.9302744" lon="32.4167474"><ele>640.4</ele><time>2015-04-24T17:52:41.0000000+00:00</time></trkpt><trkpt lat="34.9303135" lon="32.4167165"><ele>640.7</ele><time>2015-04-24T17:52:42.0000000+00:00</time></trkpt><trkpt lat="34.9303583" lon="32.4166911"><ele>640.8</ele><time>2015-04-24T17:52:43.0000000+00:00</time></trkpt><trkpt lat="34.9304115" lon="32.4166544"><ele>640.4</ele><time>2015-04-24T17:52:44.0000000+00:00</time></trkpt><trkpt lat="34.930453" lon="32.416622"><ele>640.1</ele><time>2015-04-24T17:52:45.0000000+00:00</time></trkpt><trkpt lat="34.9305024" lon="32.4165859"><ele>640.0</ele><time>2015-04-24T17:52:46.0000000+00:00</time></trkpt><trkpt lat="34.9305496" lon="32.4165621"><ele>640.0</ele><time>2015-04-24T17:52:47.0000000+00:00</time></trkpt><trkpt lat="34.9306114" lon="32.416527"><ele>640.5</ele><time>2015-04-24T17:52:48.0000000+00:00</time></trkpt><trkpt lat="34.9306657" lon="32.4164992"><ele>640.2</ele><time>2015-04-24T17:52:49.0000000+00:00</time></trkpt><trkpt lat="34.9307267" lon="32.4164578"><ele>640.6</ele><time>2015-04-24T17:52:50.0000000+00:00</time></trkpt><trkpt lat="34.9307813" lon="32.4164335"><ele>640.2</ele><time>2015-04-24T17:52:51.0000000+00:00</time></trkpt><trkpt lat="34.9308354" lon="32.4164201"><ele>640.1</ele><time>2015-04-24T17:52:52.0000000+00:00</time></trkpt><trkpt lat="34.9308966" lon="32.4164121"><ele>639.0</ele><time>2015-04-24T17:52:53.0000000+00:00</time></trkpt><trkpt lat="34.9309518" lon="32.4164027"><ele>638.0</ele><time>2015-04-24T17:52:54.0000000+00:00</time></trkpt><trkpt lat="34.9310031" lon="32.4163809"><ele>637.9</ele><time>2015-04-24T17:52:55.0000000+00:00</time></trkpt><trkpt lat="34.9310559" lon="32.4163609"><ele>636.9</ele><time>2015-04-24T17:52:56.0000000+00:00</time></trkpt><trkpt lat="34.9311162" lon="32.4163484"><ele>636.4</ele><time>2015-04-24T17:52:57.0000000+00:00</time></trkpt><trkpt lat="34.9311772" lon="32.4163422"><ele>636.2</ele><time>2015-04-24T17:52:58.0000000+00:00</time></trkpt><trkpt lat="34.9312389" lon="32.4163203"><ele>636.6</ele><time>2015-04-24T17:52:59.0000000+00:00</time></trkpt><trkpt lat="34.9313107" lon="32.4163137"><ele>637.2</ele><time>2015-04-24T17:53:00.0000000+00:00</time></trkpt><trkpt lat="34.9313793" lon="32.416312"><ele>637.6</ele><time>2015-04-24T17:53:01.0000000+00:00</time></trkpt><trkpt lat="34.9314354" lon="32.416317"><ele>637.8</ele><time>2015-04-24T17:53:02.0000000+00:00</time></trkpt><trkpt lat="34.931507" lon="32.4163134"><ele>637.8</ele><time>2015-04-24T17:53:03.0000000+00:00</time></trkpt><trkpt lat="34.931578" lon="32.4163156"><ele>637.9</ele><time>2015-04-24T17:53:04.0000000+00:00</time></trkpt><trkpt lat="34.9316501" lon="32.4162995"><ele>637.9</ele><time>2015-04-24T17:53:05.0000000+00:00</time></trkpt><trkpt lat="34.9317085" lon="32.4162804"><ele>637.4</ele><time>2015-04-24T17:53:06.0000000+00:00</time></trkpt><trkpt lat="34.9317726" lon="32.4162695"><ele>637.2</ele><time>2015-04-24T17:53:07.0000000+00:00</time></trkpt><trkpt lat="34.9318458" lon="32.4162635"><ele>637.1</ele><time>2015-04-24T17:53:08.0000000+00:00</time></trkpt><trkpt lat="34.9319251" lon="32.4162567"><ele>636.5</ele><time>2015-04-24T17:53:09.0000000+00:00</time></trkpt><trkpt lat="34.9319986" lon="32.41625"><ele>635.7</ele><time>2015-04-24T17:53:10.0000000+00:00</time></trkpt><trkpt lat="34.9320727" lon="32.4162491"><ele>635.8</ele><time>2015-04-24T17:53:11.0000000+00:00</time></trkpt><trkpt lat="34.9321504" lon="32.4162485"><ele>635.4</ele><time>2015-04-24T17:53:12.0000000+00:00</time></trkpt><trkpt lat="34.9322213" lon="32.4162506"><ele>635.7</ele><time>2015-04-24T17:53:13.0000000+00:00</time></trkpt><trkpt lat="34.9322845" lon="32.4162459"><ele>635.8</ele><time>2015-04-24T17:53:14.0000000+00:00</time></trkpt><trkpt lat="34.9323552" lon="32.4162388"><ele>636.4</ele><time>2015-04-24T17:53:15.0000000+00:00</time></trkpt><trkpt lat="34.9324325" lon="32.4162318"><ele>637.1</ele><time>2015-04-24T17:53:16.0000000+00:00</time></trkpt><trkpt lat="34.9324995" lon="32.4162335"><ele>637.5</ele><time>2015-04-24T17:53:17.0000000+00:00</time></trkpt><trkpt lat="34.932558" lon="32.4162365"><ele>637.7</ele><time>2015-04-24T17:53:18.0000000+00:00</time></trkpt><trkpt lat="34.932626" lon="32.4162309"><ele>638.8</ele><time>2015-04-24T17:53:19.0000000+00:00</time></trkpt><trkpt lat="34.932687" lon="32.4162362"><ele>638.9</ele><time>2015-04-24T17:53:20.0000000+00:00</time></trkpt><trkpt lat="34.9327886" lon="32.4162254"><ele>638.4</ele><time>2015-04-24T17:53:22.0000000+00:00</time></trkpt><trkpt lat="34.9328342" lon="32.4162199"><ele>638.2</ele><time>2015-04-24T17:53:23.0000000+00:00</time></trkpt><trkpt lat="34.9328852" lon="32.4162162"><ele>638.1</ele><time>2015-04-24T17:53:24.0000000+00:00</time></trkpt><trkpt lat="34.9329672" lon="32.4162186"><ele>638.0</ele><time>2015-04-24T17:53:26.0000000+00:00</time></trkpt><trkpt lat="34.9330155" lon="32.4162195"><ele>637.4</ele><time>2015-04-24T17:53:27.0000000+00:00</time></trkpt><trkpt lat="34.9330654" lon="32.4162104"><ele>637.7</ele><time>2015-04-24T17:53:28.0000000+00:00</time></trkpt><trkpt lat="34.9331149" lon="32.4162055"><ele>638.3</ele><time>2015-04-24T17:53:29.0000000+00:00</time></trkpt><trkpt lat="34.9331608" lon="32.4161914"><ele>639.6</ele><time>2015-04-24T17:53:30.0000000+00:00</time></trkpt><trkpt lat="34.933261" lon="32.4161795"><ele>640.6</ele><time>2015-04-24T17:53:32.0000000+00:00</time></trkpt><trkpt lat="34.9333115" lon="32.4161704"><ele>640.8</ele><time>2015-04-24T17:53:33.0000000+00:00</time></trkpt><trkpt lat="34.9333605" lon="32.4161687"><ele>640.8</ele><time>2015-04-24T17:53:34.0000000+00:00</time></trkpt><trkpt lat="34.9334488" lon="32.4161795"><ele>640.9</ele><time>2015-04-24T17:53:36.0000000+00:00</time></trkpt><trkpt lat="34.9335276" lon="32.416169"><ele>640.4</ele><time>2015-04-24T17:53:38.0000000+00:00</time></trkpt><trkpt lat="34.9336184" lon="32.4161573"><ele>640.3</ele><time>2015-04-24T17:53:40.0000000+00:00</time></trkpt><trkpt lat="34.9337128" lon="32.4161352"><ele>639.3</ele><time>2015-04-24T17:53:42.0000000+00:00</time></trkpt><trkpt lat="34.9337616" lon="32.4161238"><ele>639.1</ele><time>2015-04-24T17:53:43.0000000+00:00</time></trkpt><trkpt lat="34.9338077" lon="32.4161143"><ele>639.0</ele><time>2015-04-24T17:53:44.0000000+00:00</time></trkpt><trkpt lat="34.9338533" lon="32.4161046"><ele>639.0</ele><time>2015-04-24T17:53:45.0000000+00:00</time></trkpt><trkpt lat="34.9339362" lon="32.4160677"><ele>638.7</ele><time>2015-04-24T17:53:47.0000000+00:00</time></trkpt><trkpt lat="34.9339794" lon="32.4160443"><ele>638.8</ele><time>2015-04-24T17:53:48.0000000+00:00</time></trkpt><trkpt lat="34.9340242" lon="32.4160252"><ele>638.4</ele><time>2015-04-24T17:53:49.0000000+00:00</time></trkpt><trkpt lat="34.9340999" lon="32.4159612"><ele>637.3</ele><time>2015-04-24T17:53:51.0000000+00:00</time></trkpt><trkpt lat="34.9341427" lon="32.415925"><ele>637.1</ele><time>2015-04-24T17:53:52.0000000+00:00</time></trkpt><trkpt lat="34.9341826" lon="32.4158896"><ele>636.5</ele><time>2015-04-24T17:53:53.0000000+00:00</time></trkpt><trkpt lat="34.9342238" lon="32.4158456"><ele>635.2</ele><time>2015-04-24T17:53:54.0000000+00:00</time></trkpt><trkpt lat="34.9342585" lon="32.4158056"><ele>635.1</ele><time>2015-04-24T17:53:55.0000000+00:00</time></trkpt><trkpt lat="34.934291" lon="32.4157585"><ele>635.5</ele><time>2015-04-24T17:53:56.0000000+00:00</time></trkpt><trkpt lat="34.9343277" lon="32.4157156"><ele>635.7</ele><time>2015-04-24T17:53:57.0000000+00:00</time></trkpt><trkpt lat="34.9343659" lon="32.4156556"><ele>635.8</ele><time>2015-04-24T17:53:58.0000000+00:00</time></trkpt><trkpt lat="34.9343997" lon="32.4156081"><ele>635.9</ele><time>2015-04-24T17:53:59.0000000+00:00</time></trkpt><trkpt lat="34.9344318" lon="32.4155517"><ele>635.9</ele><time>2015-04-24T17:54:00.0000000+00:00</time></trkpt><trkpt lat="34.9344634" lon="32.415485"><ele>635.4</ele><time>2015-04-24T17:54:01.0000000+00:00</time></trkpt><trkpt lat="34.9344951" lon="32.415427"><ele>635.2</ele><time>2015-04-24T17:54:02.0000000+00:00</time></trkpt><trkpt lat="34.9345245" lon="32.4153652"><ele>635.1</ele><time>2015-04-24T17:54:03.0000000+00:00</time></trkpt><trkpt lat="34.9345493" lon="32.4152981"><ele>635.5</ele><time>2015-04-24T17:54:04.0000000+00:00</time></trkpt><trkpt lat="34.9345609" lon="32.4152248"><ele>635.7</ele><time>2015-04-24T17:54:05.0000000+00:00</time></trkpt><trkpt lat="34.9345873" lon="32.415146"><ele>636.3</ele><time>2015-04-24T17:54:06.0000000+00:00</time></trkpt><trkpt lat="34.9346157" lon="32.4150719"><ele>636.6</ele><time>2015-04-24T17:54:07.0000000+00:00</time></trkpt><trkpt lat="34.9346309" lon="32.4149932"><ele>636.8</ele><time>2015-04-24T17:54:08.0000000+00:00</time></trkpt><trkpt lat="34.9346478" lon="32.4149018"><ele>636.9</ele><time>2015-04-24T17:54:09.0000000+00:00</time></trkpt><trkpt lat="34.9346663" lon="32.4148318"><ele>636.4</ele><time>2015-04-24T17:54:10.0000000+00:00</time></trkpt><trkpt lat="34.9346935" lon="32.4147559"><ele>636.2</ele><time>2015-04-24T17:54:11.0000000+00:00</time></trkpt><trkpt lat="34.9347156" lon="32.414681"><ele>636.5</ele><time>2015-04-24T17:54:12.0000000+00:00</time></trkpt><trkpt lat="34.9347339" lon="32.4145975"><ele>636.7</ele><time>2015-04-24T17:54:13.0000000+00:00</time></trkpt><trkpt lat="34.9347578" lon="32.4145205"><ele>636.3</ele><time>2015-04-24T17:54:14.0000000+00:00</time></trkpt><trkpt lat="34.9347755" lon="32.4144524"><ele>636.1</ele><time>2015-04-24T17:54:15.0000000+00:00</time></trkpt><trkpt lat="34.9348009" lon="32.4143716"><ele>635.5</ele><time>2015-04-24T17:54:16.0000000+00:00</time></trkpt><trkpt lat="34.9348294" lon="32.4142926"><ele>635.2</ele><time>2015-04-24T17:54:17.0000000+00:00</time></trkpt><trkpt lat="34.9348472" lon="32.4142103"><ele>634.6</ele><time>2015-04-24T17:54:18.0000000+00:00</time></trkpt><trkpt lat="34.934862" lon="32.4141344"><ele>634.3</ele><time>2015-04-24T17:54:19.0000000+00:00</time></trkpt><trkpt lat="34.9348892" lon="32.414039"><ele>634.1</ele><time>2015-04-24T17:54:20.0000000+00:00</time></trkpt><trkpt lat="34.9349076" lon="32.4139607"><ele>634.0</ele><time>2015-04-24T17:54:21.0000000+00:00</time></trkpt><trkpt lat="34.9349319" lon="32.4138714"><ele>634.0</ele><time>2015-04-24T17:54:22.0000000+00:00</time></trkpt><trkpt lat="34.9349499" lon="32.4137913"><ele>634.0</ele><time>2015-04-24T17:54:23.0000000+00:00</time></trkpt><trkpt lat="34.9349786" lon="32.4136968"><ele>633.4</ele><time>2015-04-24T17:54:24.0000000+00:00</time></trkpt><trkpt lat="34.9350005" lon="32.4136101"><ele>633.2</ele><time>2015-04-24T17:54:25.0000000+00:00</time></trkpt><trkpt lat="34.9350274" lon="32.4135208"><ele>632.6</ele><time>2015-04-24T17:54:26.0000000+00:00</time></trkpt><trkpt lat="34.9350568" lon="32.413422"><ele>632.2</ele><time>2015-04-24T17:54:27.0000000+00:00</time></trkpt><trkpt lat="34.9350866" lon="32.4133378"><ele>632.1</ele><time>2015-04-24T17:54:28.0000000+00:00</time></trkpt><trkpt lat="34.9351175" lon="32.4132523"><ele>631.5</ele><time>2015-04-24T17:54:29.0000000+00:00</time></trkpt><trkpt lat="34.9351636" lon="32.4131729"><ele>631.2</ele><time>2015-04-24T17:54:30.0000000+00:00</time></trkpt><trkpt lat="34.9352039" lon="32.4131003"><ele>630.6</ele><time>2015-04-24T17:54:31.0000000+00:00</time></trkpt><trkpt lat="34.9352543" lon="32.413018"><ele>629.8</ele><time>2015-04-24T17:54:32.0000000+00:00</time></trkpt><trkpt lat="34.9353088" lon="32.4129547"><ele>629.3</ele><time>2015-04-24T17:54:33.0000000+00:00</time></trkpt><trkpt lat="34.9353629" lon="32.4128885"><ele>628.6</ele><time>2015-04-24T17:54:34.0000000+00:00</time></trkpt><trkpt lat="34.9354286" lon="32.4128328"><ele>627.8</ele><time>2015-04-24T17:54:35.0000000+00:00</time></trkpt><trkpt lat="34.9354951" lon="32.4127831"><ele>626.9</ele><time>2015-04-24T17:54:36.0000000+00:00</time></trkpt><trkpt lat="34.935566" lon="32.4127378"><ele>625.9</ele><time>2015-04-24T17:54:37.0000000+00:00</time></trkpt><trkpt lat="34.9356436" lon="32.4126975"><ele>624.9</ele><time>2015-04-24T17:54:38.0000000+00:00</time></trkpt><trkpt lat="34.9357212" lon="32.4126618"><ele>623.9</ele><time>2015-04-24T17:54:39.0000000+00:00</time></trkpt><trkpt lat="34.9358037" lon="32.4126216"><ele>623.4</ele><time>2015-04-24T17:54:40.0000000+00:00</time></trkpt><trkpt lat="34.935892" lon="32.4125967"><ele>622.7</ele><time>2015-04-24T17:54:41.0000000+00:00</time></trkpt><trkpt lat="34.9359774" lon="32.4125672"><ele>621.8</ele><time>2015-04-24T17:54:42.0000000+00:00</time></trkpt><trkpt lat="34.9360674" lon="32.4125404"><ele>621.4</ele><time>2015-04-24T17:54:43.0000000+00:00</time></trkpt><trkpt lat="34.9361584" lon="32.4125093"><ele>620.6</ele><time>2015-04-24T17:54:44.0000000+00:00</time></trkpt><trkpt lat="34.9362461" lon="32.4124781"><ele>619.8</ele><time>2015-04-24T17:54:45.0000000+00:00</time></trkpt><trkpt lat="34.9363358" lon="32.4124467"><ele>618.9</ele><time>2015-04-24T17:54:46.0000000+00:00</time></trkpt><trkpt lat="34.9364282" lon="32.4124102"><ele>617.9</ele><time>2015-04-24T17:54:47.0000000+00:00</time></trkpt><trkpt lat="34.9365219" lon="32.4123757"><ele>616.9</ele><time>2015-04-24T17:54:48.0000000+00:00</time></trkpt><trkpt lat="34.9366106" lon="32.4123433"><ele>615.9</ele><time>2015-04-24T17:54:49.0000000+00:00</time></trkpt><trkpt lat="34.9367024" lon="32.4123107"><ele>614.9</ele><time>2015-04-24T17:54:50.0000000+00:00</time></trkpt><trkpt lat="34.9367934" lon="32.4122728"><ele>613.9</ele><time>2015-04-24T17:54:51.0000000+00:00</time></trkpt><trkpt lat="34.9368866" lon="32.4122376"><ele>613.4</ele><time>2015-04-24T17:54:52.0000000+00:00</time></trkpt><trkpt lat="34.9369697" lon="32.4122077"><ele>613.2</ele><time>2015-04-24T17:54:53.0000000+00:00</time></trkpt><trkpt lat="34.9370589" lon="32.4121766"><ele>612.6</ele><time>2015-04-24T17:54:54.0000000+00:00</time></trkpt><trkpt lat="34.9371479" lon="32.4121453"><ele>612.2</ele><time>2015-04-24T17:54:55.0000000+00:00</time></trkpt><trkpt lat="34.9372376" lon="32.4121118"><ele>612.1</ele><time>2015-04-24T17:54:56.0000000+00:00</time></trkpt><trkpt lat="34.9373184" lon="32.4120877"><ele>611.5</ele><time>2015-04-24T17:54:57.0000000+00:00</time></trkpt><trkpt lat="34.9374018" lon="32.4120553"><ele>611.2</ele><time>2015-04-24T17:54:58.0000000+00:00</time></trkpt><trkpt lat="34.9374795" lon="32.4120241"><ele>611.1</ele><time>2015-04-24T17:54:59.0000000+00:00</time></trkpt><trkpt lat="34.9375636" lon="32.4119952"><ele>611.0</ele><time>2015-04-24T17:55:00.0000000+00:00</time></trkpt><trkpt lat="34.9376522" lon="32.4119654"><ele>611.0</ele><time>2015-04-24T17:55:01.0000000+00:00</time></trkpt><trkpt lat="34.937729" lon="32.4119347"><ele>610.9</ele><time>2015-04-24T17:55:02.0000000+00:00</time></trkpt><trkpt lat="34.9378056" lon="32.4119134"><ele>610.9</ele><time>2015-04-24T17:55:03.0000000+00:00</time></trkpt><trkpt lat="34.9378804" lon="32.4118839"><ele>610.9</ele><time>2015-04-24T17:55:04.0000000+00:00</time></trkpt><trkpt lat="34.9379471" lon="32.4118523"><ele>611.4</ele><time>2015-04-24T17:55:05.0000000+00:00</time></trkpt><trkpt lat="34.9380186" lon="32.4118193"><ele>612.2</ele><time>2015-04-24T17:55:06.0000000+00:00</time></trkpt><trkpt lat="34.9380903" lon="32.4117914"><ele>612.6</ele><time>2015-04-24T17:55:07.0000000+00:00</time></trkpt><trkpt lat="34.9381598" lon="32.4117583"><ele>612.2</ele><time>2015-04-24T17:55:08.0000000+00:00</time></trkpt><trkpt lat="34.9382347" lon="32.4117336"><ele>612.6</ele><time>2015-04-24T17:55:09.0000000+00:00</time></trkpt><trkpt lat="34.9383004" lon="32.4116986"><ele>613.3</ele><time>2015-04-24T17:55:10.0000000+00:00</time></trkpt><trkpt lat="34.9383699" lon="32.4116774"><ele>613.6</ele><time>2015-04-24T17:55:11.0000000+00:00</time></trkpt><trkpt lat="34.9384439" lon="32.4116526"><ele>613.3</ele><time>2015-04-24T17:55:12.0000000+00:00</time></trkpt><trkpt lat="34.9385163" lon="32.4116293"><ele>613.6</ele><time>2015-04-24T17:55:13.0000000+00:00</time></trkpt><trkpt lat="34.9385838" lon="32.4116065"><ele>613.8</ele><time>2015-04-24T17:55:14.0000000+00:00</time></trkpt><trkpt lat="34.9386487" lon="32.4115853"><ele>613.8</ele><time>2015-04-24T17:55:15.0000000+00:00</time></trkpt><trkpt lat="34.9387167" lon="32.4115575"><ele>613.9</ele><time>2015-04-24T17:55:16.0000000+00:00</time></trkpt><trkpt lat="34.9387877" lon="32.411535"><ele>613.9</ele><time>2015-04-24T17:55:17.0000000+00:00</time></trkpt><trkpt lat="34.9388572" lon="32.4115036"><ele>613.9</ele><time>2015-04-24T17:55:18.0000000+00:00</time></trkpt><trkpt lat="34.9389231" lon="32.41148"><ele>613.4</ele><time>2015-04-24T17:55:19.0000000+00:00</time></trkpt><trkpt lat="34.9389937" lon="32.411451"><ele>613.2</ele><time>2015-04-24T17:55:20.0000000+00:00</time></trkpt><trkpt lat="34.9390678" lon="32.4114257"><ele>613.6</ele><time>2015-04-24T17:55:21.0000000+00:00</time></trkpt><trkpt lat="34.9391389" lon="32.4114007"><ele>613.2</ele><time>2015-04-24T17:55:22.0000000+00:00</time></trkpt><trkpt lat="34.9392071" lon="32.4113794"><ele>613.1</ele><time>2015-04-24T17:55:23.0000000+00:00</time></trkpt><trkpt lat="34.939285" lon="32.4113522"><ele>613.0</ele><time>2015-04-24T17:55:24.0000000+00:00</time></trkpt><trkpt lat="34.9393598" lon="32.4113329"><ele>613.0</ele><time>2015-04-24T17:55:25.0000000+00:00</time></trkpt><trkpt lat="34.9394325" lon="32.4113013"><ele>612.4</ele><time>2015-04-24T17:55:26.0000000+00:00</time></trkpt><trkpt lat="34.9395046" lon="32.4112716"><ele>612.2</ele><time>2015-04-24T17:55:27.0000000+00:00</time></trkpt><trkpt lat="34.9395866" lon="32.4112325"><ele>612.1</ele><time>2015-04-24T17:55:28.0000000+00:00</time></trkpt><trkpt lat="34.9396697" lon="32.4112058"><ele>611.5</ele><time>2015-04-24T17:55:29.0000000+00:00</time></trkpt><trkpt lat="34.9397526" lon="32.4111783"><ele>611.2</ele><time>2015-04-24T17:55:30.0000000+00:00</time></trkpt><trkpt lat="34.939825" lon="32.4111394"><ele>611.1</ele><time>2015-04-24T17:55:31.0000000+00:00</time></trkpt><trkpt lat="34.9399033" lon="32.4111017"><ele>610.5</ele><time>2015-04-24T17:55:32.0000000+00:00</time></trkpt><trkpt lat="34.9399908" lon="32.4110714"><ele>609.7</ele><time>2015-04-24T17:55:33.0000000+00:00</time></trkpt><trkpt lat="34.9400767" lon="32.4110388"><ele>609.3</ele><time>2015-04-24T17:55:34.0000000+00:00</time></trkpt><trkpt lat="34.9401597" lon="32.4110078"><ele>608.6</ele><time>2015-04-24T17:55:35.0000000+00:00</time></trkpt><trkpt lat="34.9402411" lon="32.4109633"><ele>608.3</ele><time>2015-04-24T17:55:36.0000000+00:00</time></trkpt><trkpt lat="34.9403283" lon="32.4109309"><ele>608.1</ele><time>2015-04-24T17:55:37.0000000+00:00</time></trkpt><trkpt lat="34.9404132" lon="32.4108909"><ele>607.5</ele><time>2015-04-24T17:55:38.0000000+00:00</time></trkpt><trkpt lat="34.9404985" lon="32.4108536"><ele>606.7</ele><time>2015-04-24T17:55:39.0000000+00:00</time></trkpt><trkpt lat="34.9405827" lon="32.4108091"><ele>606.3</ele><time>2015-04-24T17:55:40.0000000+00:00</time></trkpt><trkpt lat="34.9406681" lon="32.4107697"><ele>606.6</ele><time>2015-04-24T17:55:41.0000000+00:00</time></trkpt><trkpt lat="34.9407542" lon="32.4107273"><ele>606.3</ele><time>2015-04-24T17:55:42.0000000+00:00</time></trkpt><trkpt lat="34.940838" lon="32.4106912"><ele>606.1</ele><time>2015-04-24T17:55:43.0000000+00:00</time></trkpt><trkpt lat="34.940936" lon="32.4106581"><ele>606.0</ele><time>2015-04-24T17:55:44.0000000+00:00</time></trkpt><trkpt lat="34.9410259" lon="32.410629"><ele>605.5</ele><time>2015-04-24T17:55:45.0000000+00:00</time></trkpt><trkpt lat="34.9411212" lon="32.4105914"><ele>604.2</ele><time>2015-04-24T17:55:46.0000000+00:00</time></trkpt><trkpt lat="34.9412151" lon="32.4105611"><ele>603.1</ele><time>2015-04-24T17:55:47.0000000+00:00</time></trkpt><trkpt lat="34.9413121" lon="32.4105366"><ele>603.0</ele><time>2015-04-24T17:55:48.0000000+00:00</time></trkpt><trkpt lat="34.9414026" lon="32.4105166"><ele>603.0</ele><time>2015-04-24T17:55:49.0000000+00:00</time></trkpt><trkpt lat="34.9414947" lon="32.4105142"><ele>602.9</ele><time>2015-04-24T17:55:50.0000000+00:00</time></trkpt><trkpt lat="34.9415877" lon="32.4105127"><ele>602.4</ele><time>2015-04-24T17:55:51.0000000+00:00</time></trkpt><trkpt lat="34.9416836" lon="32.4105155"><ele>602.2</ele><time>2015-04-24T17:55:52.0000000+00:00</time></trkpt><trkpt lat="34.9417851" lon="32.4105148"><ele>602.1</ele><time>2015-04-24T17:55:53.0000000+00:00</time></trkpt><trkpt lat="34.9418806" lon="32.4105293"><ele>602.0</ele><time>2015-04-24T17:55:54.0000000+00:00</time></trkpt><trkpt lat="34.9419704" lon="32.4105469"><ele>601.5</ele><time>2015-04-24T17:55:55.0000000+00:00</time></trkpt><trkpt lat="34.9420649" lon="32.4105673"><ele>600.7</ele><time>2015-04-24T17:55:56.0000000+00:00</time></trkpt><trkpt lat="34.9421521" lon="32.4105972"><ele>599.8</ele><time>2015-04-24T17:55:57.0000000+00:00</time></trkpt><trkpt lat="34.9422326" lon="32.4106253"><ele>599.4</ele><time>2015-04-24T17:55:58.0000000+00:00</time></trkpt><trkpt lat="34.9423046" lon="32.4106615"><ele>599.2</ele><time>2015-04-24T17:55:59.0000000+00:00</time></trkpt><trkpt lat="34.9423852" lon="32.4106956"><ele>599.0</ele><time>2015-04-24T17:56:00.0000000+00:00</time></trkpt><trkpt lat="34.9424591" lon="32.4107426"><ele>599.5</ele><time>2015-04-24T17:56:01.0000000+00:00</time></trkpt><trkpt lat="34.9425355" lon="32.4107907"><ele>599.2</ele><time>2015-04-24T17:56:02.0000000+00:00</time></trkpt><trkpt lat="34.9426178" lon="32.4108457"><ele>599.6</ele><time>2015-04-24T17:56:03.0000000+00:00</time></trkpt><trkpt lat="34.9426948" lon="32.4109114"><ele>599.7</ele><time>2015-04-24T17:56:04.0000000+00:00</time></trkpt><trkpt lat="34.9427711" lon="32.4109764"><ele>599.3</ele><time>2015-04-24T17:56:05.0000000+00:00</time></trkpt><trkpt lat="34.9428465" lon="32.4110458"><ele>599.6</ele><time>2015-04-24T17:56:06.0000000+00:00</time></trkpt><trkpt lat="34.9429162" lon="32.4111063"><ele>599.8</ele><time>2015-04-24T17:56:07.0000000+00:00</time></trkpt><trkpt lat="34.942979" lon="32.4111711"><ele>599.4</ele><time>2015-04-24T17:56:08.0000000+00:00</time></trkpt><trkpt lat="34.9430478" lon="32.4112423"><ele>598.6</ele><time>2015-04-24T17:56:09.0000000+00:00</time></trkpt><trkpt lat="34.9431218" lon="32.4113061"><ele>597.8</ele><time>2015-04-24T17:56:10.0000000+00:00</time></trkpt><trkpt lat="34.9431905" lon="32.4113756"><ele>597.4</ele><time>2015-04-24T17:56:11.0000000+00:00</time></trkpt><trkpt lat="34.9432688" lon="32.4114486"><ele>597.1</ele><time>2015-04-24T17:56:12.0000000+00:00</time></trkpt><trkpt lat="34.9433395" lon="32.411505"><ele>597.0</ele><time>2015-04-24T17:56:13.0000000+00:00</time></trkpt><trkpt lat="34.9434112" lon="32.4115706"><ele>596.5</ele><time>2015-04-24T17:56:14.0000000+00:00</time></trkpt><trkpt lat="34.9434777" lon="32.4116316"><ele>596.2</ele><time>2015-04-24T17:56:15.0000000+00:00</time></trkpt><trkpt lat="34.9435525" lon="32.4117001"><ele>596.1</ele><time>2015-04-24T17:56:16.0000000+00:00</time></trkpt><trkpt lat="34.9436198" lon="32.4117644"><ele>596.0</ele><time>2015-04-24T17:56:17.0000000+00:00</time></trkpt><trkpt lat="34.9436797" lon="32.4118198"><ele>596.5</ele><time>2015-04-24T17:56:18.0000000+00:00</time></trkpt><trkpt lat="34.9437539" lon="32.4118816"><ele>596.7</ele><time>2015-04-24T17:56:19.0000000+00:00</time></trkpt><trkpt lat="34.9438378" lon="32.4119309"><ele>596.8</ele><time>2015-04-24T17:56:20.0000000+00:00</time></trkpt><trkpt lat="34.9438975" lon="32.4119594"><ele>596.4</ele><time>2015-04-24T17:56:21.0000000+00:00</time></trkpt><trkpt lat="34.9439624" lon="32.4119949"><ele>596.7</ele><time>2015-04-24T17:56:22.0000000+00:00</time></trkpt><trkpt lat="34.9440455" lon="32.4120507"><ele>596.8</ele><time>2015-04-24T17:56:23.0000000+00:00</time></trkpt><trkpt lat="34.9441134" lon="32.4120862"><ele>597.4</ele><time>2015-04-24T17:56:24.0000000+00:00</time></trkpt><trkpt lat="34.9441898" lon="32.4121205"><ele>597.1</ele><time>2015-04-24T17:56:25.0000000+00:00</time></trkpt><trkpt lat="34.944265" lon="32.4121556"><ele>597.0</ele><time>2015-04-24T17:56:26.0000000+00:00</time></trkpt><trkpt lat="34.944349" lon="32.4121832"><ele>597.0</ele><time>2015-04-24T17:56:27.0000000+00:00</time></trkpt><trkpt lat="34.9444398" lon="32.4122103"><ele>597.5</ele><time>2015-04-24T17:56:28.0000000+00:00</time></trkpt><trkpt lat="34.9445316" lon="32.4122373"><ele>597.2</ele><time>2015-04-24T17:56:29.0000000+00:00</time></trkpt><trkpt lat="34.9446275" lon="32.4122526"><ele>597.6</ele><time>2015-04-24T17:56:30.0000000+00:00</time></trkpt><trkpt lat="34.9446974" lon="32.412262"><ele>597.7</ele><time>2015-04-24T17:56:31.0000000+00:00</time></trkpt><trkpt lat="34.9447708" lon="32.4122653"><ele>597.8</ele><time>2015-04-24T17:56:32.0000000+00:00</time></trkpt><trkpt lat="34.9448446" lon="32.4122668"><ele>597.9</ele><time>2015-04-24T17:56:33.0000000+00:00</time></trkpt><trkpt lat="34.9449027" lon="32.4122678"><ele>597.9</ele><time>2015-04-24T17:56:34.0000000+00:00</time></trkpt><trkpt lat="34.9449638" lon="32.412268"><ele>597.9</ele><time>2015-04-24T17:56:35.0000000+00:00</time></trkpt><trkpt lat="34.9450298" lon="32.4122704"><ele>597.9</ele><time>2015-04-24T17:56:36.0000000+00:00</time></trkpt><trkpt lat="34.9450952" lon="32.4122791"><ele>596.9</ele><time>2015-04-24T17:56:37.0000000+00:00</time></trkpt><trkpt lat="34.9451544" lon="32.4122674"><ele>596.9</ele><time>2015-04-24T17:56:38.0000000+00:00</time></trkpt><trkpt lat="34.9452084" lon="32.4122695"><ele>596.9</ele><time>2015-04-24T17:56:39.0000000+00:00</time></trkpt><trkpt lat="34.9452553" lon="32.4122687"><ele>597.4</ele><time>2015-04-24T17:56:40.0000000+00:00</time></trkpt><trkpt lat="34.9453024" lon="32.412264"><ele>597.7</ele><time>2015-04-24T17:56:41.0000000+00:00</time></trkpt><trkpt lat="34.9453469" lon="32.4122507"><ele>597.8</ele><time>2015-04-24T17:56:42.0000000+00:00</time></trkpt><trkpt lat="34.9454281" lon="32.4122198"><ele>597.9</ele><time>2015-04-24T17:56:44.0000000+00:00</time></trkpt><trkpt lat="34.9454757" lon="32.4122098"><ele>597.9</ele><time>2015-04-24T17:56:45.0000000+00:00</time></trkpt><trkpt lat="34.9455282" lon="32.4121922"><ele>598.4</ele><time>2015-04-24T17:56:46.0000000+00:00</time></trkpt><trkpt lat="34.9455703" lon="32.4121655"><ele>599.2</ele><time>2015-04-24T17:56:47.0000000+00:00</time></trkpt><trkpt lat="34.9456188" lon="32.4121544"><ele>599.6</ele><time>2015-04-24T17:56:48.0000000+00:00</time></trkpt><trkpt lat="34.945694" lon="32.4121263"><ele>599.8</ele><time>2015-04-24T17:56:50.0000000+00:00</time></trkpt><trkpt lat="34.9457708" lon="32.4120991"><ele>599.9</ele><time>2015-04-24T17:56:52.0000000+00:00</time></trkpt><trkpt lat="34.9458555" lon="32.4120678"><ele>600.4</ele><time>2015-04-24T17:56:54.0000000+00:00</time></trkpt><trkpt lat="34.9459329" lon="32.4120263"><ele>601.1</ele><time>2015-04-24T17:56:56.0000000+00:00</time></trkpt><trkpt lat="34.9459803" lon="32.4120107"><ele>601.5</ele><time>2015-04-24T17:56:57.0000000+00:00</time></trkpt><trkpt lat="34.9460249" lon="32.4119968"><ele>601.7</ele><time>2015-04-24T17:56:58.0000000+00:00</time></trkpt><trkpt lat="34.9460741" lon="32.411978"><ele>601.8</ele><time>2015-04-24T17:56:59.0000000+00:00</time></trkpt><trkpt lat="34.9461243" lon="32.4119663"><ele>602.4</ele><time>2015-04-24T17:57:00.0000000+00:00</time></trkpt><trkpt lat="34.9461946" lon="32.4119432"><ele>602.0</ele><time>2015-04-24T17:57:02.0000000+00:00</time></trkpt><trkpt lat="34.9462583" lon="32.4119178"><ele>602.7</ele><time>2015-04-24T17:57:04.0000000+00:00</time></trkpt><trkpt lat="34.9463415" lon="32.4118927"><ele>602.1</ele><time>2015-04-24T17:57:06.0000000+00:00</time></trkpt><trkpt lat="34.9464258" lon="32.4118684"><ele>602.0</ele><time>2015-04-24T17:57:08.0000000+00:00</time></trkpt><trkpt lat="34.9465018" lon="32.4118448"><ele>602.7</ele><time>2015-04-24T17:57:10.0000000+00:00</time></trkpt><trkpt lat="34.9465786" lon="32.4118155"><ele>603.4</ele><time>2015-04-24T17:57:12.0000000+00:00</time></trkpt><trkpt lat="34.9466607" lon="32.4117925"><ele>603.0</ele><time>2015-04-24T17:57:14.0000000+00:00</time></trkpt><trkpt lat="34.9467402" lon="32.4117759"><ele>602.5</ele><time>2015-04-24T17:57:16.0000000+00:00</time></trkpt><trkpt lat="34.9468195" lon="32.4117563"><ele>600.8</ele><time>2015-04-24T17:57:18.0000000+00:00</time></trkpt><trkpt lat="34.9469018" lon="32.4117405"><ele>600.2</ele><time>2015-04-24T17:57:20.0000000+00:00</time></trkpt><trkpt lat="34.9469818" lon="32.4117288"><ele>600.5</ele><time>2015-04-24T17:57:22.0000000+00:00</time></trkpt><trkpt lat="34.9470644" lon="32.4117249"><ele>601.3</ele><time>2015-04-24T17:57:24.0000000+00:00</time></trkpt><trkpt lat="34.9471452" lon="32.4117236"><ele>601.8</ele><time>2015-04-24T17:57:26.0000000+00:00</time></trkpt><trkpt lat="34.9472265" lon="32.4117254"><ele>602.6</ele><time>2015-04-24T17:57:28.0000000+00:00</time></trkpt><trkpt lat="34.9473068" lon="32.4117287"><ele>602.4</ele><time>2015-04-24T17:57:30.0000000+00:00</time></trkpt><trkpt lat="34.9473837" lon="32.4117296"><ele>602.5</ele><time>2015-04-24T17:57:32.0000000+00:00</time></trkpt><trkpt lat="34.9474617" lon="32.411726"><ele>603.6</ele><time>2015-04-24T17:57:34.0000000+00:00</time></trkpt><trkpt lat="34.9475423" lon="32.4117219"><ele>604.6</ele><time>2015-04-24T17:57:36.0000000+00:00</time></trkpt><trkpt lat="34.9476257" lon="32.4117208"><ele>605.6</ele><time>2015-04-24T17:57:38.0000000+00:00</time></trkpt><trkpt lat="34.9477072" lon="32.4117203"><ele>605.3</ele><time>2015-04-24T17:57:40.0000000+00:00</time></trkpt><trkpt lat="34.9477887" lon="32.4117038"><ele>605.8</ele><time>2015-04-24T17:57:42.0000000+00:00</time></trkpt><trkpt lat="34.9478717" lon="32.4116875"><ele>606.4</ele><time>2015-04-24T17:57:44.0000000+00:00</time></trkpt><trkpt lat="34.9479582" lon="32.411671"><ele>606.8</ele><time>2015-04-24T17:57:46.0000000+00:00</time></trkpt><trkpt lat="34.9480417" lon="32.4116467"><ele>607.6</ele><time>2015-04-24T17:57:48.0000000+00:00</time></trkpt><trkpt lat="34.9481236" lon="32.411616"><ele>607.6</ele><time>2015-04-24T17:57:50.0000000+00:00</time></trkpt><trkpt lat="34.9482061" lon="32.4115767"><ele>607.1</ele><time>2015-04-24T17:57:52.0000000+00:00</time></trkpt><trkpt lat="34.9482533" lon="32.4115466"><ele>607.0</ele><time>2015-04-24T17:57:53.0000000+00:00</time></trkpt><trkpt lat="34.9483336" lon="32.4114924"><ele>607.0</ele><time>2015-04-24T17:57:55.0000000+00:00</time></trkpt><trkpt lat="34.9484168" lon="32.4114262"><ele>606.4</ele><time>2015-04-24T17:57:57.0000000+00:00</time></trkpt><trkpt lat="34.9484585" lon="32.411395"><ele>605.7</ele><time>2015-04-24T17:57:58.0000000+00:00</time></trkpt><trkpt lat="34.9484885" lon="32.4113476"><ele>605.8</ele><time>2015-04-24T17:57:59.0000000+00:00</time></trkpt><trkpt lat="34.9485308" lon="32.4112981"><ele>605.9</ele><time>2015-04-24T17:58:00.0000000+00:00</time></trkpt><trkpt lat="34.9485779" lon="32.4112582"><ele>605.4</ele><time>2015-04-24T17:58:01.0000000+00:00</time></trkpt><trkpt lat="34.948624" lon="32.4112158"><ele>605.2</ele><time>2015-04-24T17:58:02.0000000+00:00</time></trkpt><trkpt lat="34.9486716" lon="32.4111698"><ele>605.0</ele><time>2015-04-24T17:58:03.0000000+00:00</time></trkpt><trkpt lat="34.9487199" lon="32.4111209"><ele>605.0</ele><time>2015-04-24T17:58:04.0000000+00:00</time></trkpt><trkpt lat="34.9487664" lon="32.4110637"><ele>604.5</ele><time>2015-04-24T17:58:05.0000000+00:00</time></trkpt><trkpt lat="34.948806" lon="32.4110003"><ele>603.7</ele><time>2015-04-24T17:58:06.0000000+00:00</time></trkpt><trkpt lat="34.9488582" lon="32.41095"><ele>603.3</ele><time>2015-04-24T17:58:07.0000000+00:00</time></trkpt><trkpt lat="34.9489174" lon="32.410896"><ele>602.1</ele><time>2015-04-24T17:58:08.0000000+00:00</time></trkpt><trkpt lat="34.9489827" lon="32.4108422"><ele>601.5</ele><time>2015-04-24T17:58:09.0000000+00:00</time></trkpt><trkpt lat="34.9490482" lon="32.4107923"><ele>600.7</ele><time>2015-04-24T17:58:10.0000000+00:00</time></trkpt><trkpt lat="34.949111" lon="32.4107547"><ele>599.8</ele><time>2015-04-24T17:58:11.0000000+00:00</time></trkpt><trkpt lat="34.9491828" lon="32.4107227"><ele>599.9</ele><time>2015-04-24T17:58:12.0000000+00:00</time></trkpt><trkpt lat="34.9492584" lon="32.410706"><ele>599.4</ele><time>2015-04-24T17:58:13.0000000+00:00</time></trkpt><trkpt lat="34.9493303" lon="32.4106827"><ele>599.7</ele><time>2015-04-24T17:58:14.0000000+00:00</time></trkpt><trkpt lat="34.9494048" lon="32.4106742"><ele>599.3</ele><time>2015-04-24T17:58:15.0000000+00:00</time></trkpt><trkpt lat="34.9494939" lon="32.4106577"><ele>599.1</ele><time>2015-04-24T17:58:16.0000000+00:00</time></trkpt><trkpt lat="34.9495824" lon="32.4106487"><ele>598.0</ele><time>2015-04-24T17:58:17.0000000+00:00</time></trkpt><trkpt lat="34.9496571" lon="32.4106481"><ele>598.0</ele><time>2015-04-24T17:58:18.0000000+00:00</time></trkpt><trkpt lat="34.9497379" lon="32.4106491"><ele>598.5</ele><time>2015-04-24T17:58:19.0000000+00:00</time></trkpt><trkpt lat="34.9498162" lon="32.4106354"><ele>598.7</ele><time>2015-04-24T17:58:20.0000000+00:00</time></trkpt><trkpt lat="34.9499053" lon="32.4106379"><ele>598.8</ele><time>2015-04-24T17:58:21.0000000+00:00</time></trkpt><trkpt lat="34.9499907" lon="32.4106368"><ele>598.9</ele><time>2015-04-24T17:58:22.0000000+00:00</time></trkpt><trkpt lat="34.9500785" lon="32.4106369"><ele>598.9</ele><time>2015-04-24T17:58:23.0000000+00:00</time></trkpt><trkpt lat="34.950172" lon="32.4106443"><ele>598.4</ele><time>2015-04-24T17:58:24.0000000+00:00</time></trkpt><trkpt lat="34.9502646" lon="32.4106387"><ele>598.2</ele><time>2015-04-24T17:58:25.0000000+00:00</time></trkpt><trkpt lat="34.9503498" lon="32.4106429"><ele>598.1</ele><time>2015-04-24T17:58:26.0000000+00:00</time></trkpt><trkpt lat="34.9504312" lon="32.410647"><ele>597.5</ele><time>2015-04-24T17:58:27.0000000+00:00</time></trkpt><trkpt lat="34.950525" lon="32.4106407"><ele>597.2</ele><time>2015-04-24T17:58:28.0000000+00:00</time></trkpt><trkpt lat="34.950609" lon="32.4106462"><ele>597.1</ele><time>2015-04-24T17:58:29.0000000+00:00</time></trkpt><trkpt lat="34.950683" lon="32.410631"><ele>597.5</ele><time>2015-04-24T17:58:30.0000000+00:00</time></trkpt><trkpt lat="34.9507563" lon="32.4106184"><ele>598.2</ele><time>2015-04-24T17:58:31.0000000+00:00</time></trkpt><trkpt lat="34.950833" lon="32.4106138"><ele>598.6</ele><time>2015-04-24T17:58:32.0000000+00:00</time></trkpt><trkpt lat="34.9509024" lon="32.4106152"><ele>598.8</ele><time>2015-04-24T17:58:33.0000000+00:00</time></trkpt><trkpt lat="34.9509693" lon="32.4106101"><ele>598.3</ele><time>2015-04-24T17:58:34.0000000+00:00</time></trkpt><trkpt lat="34.9510286" lon="32.4106098"><ele>597.6</ele><time>2015-04-24T17:58:35.0000000+00:00</time></trkpt><trkpt lat="34.9510847" lon="32.4106112"><ele>597.3</ele><time>2015-04-24T17:58:36.0000000+00:00</time></trkpt><trkpt lat="34.9511507" lon="32.4106123"><ele>597.1</ele><time>2015-04-24T17:58:37.0000000+00:00</time></trkpt><trkpt lat="34.9512126" lon="32.4106144"><ele>597.0</ele><time>2015-04-24T17:58:38.0000000+00:00</time></trkpt><trkpt lat="34.9512661" lon="32.410601"><ele>597.5</ele><time>2015-04-24T17:58:39.0000000+00:00</time></trkpt><trkpt lat="34.9513294" lon="32.4106064"><ele>597.2</ele><time>2015-04-24T17:58:40.0000000+00:00</time></trkpt><trkpt lat="34.9513908" lon="32.4106008"><ele>597.1</ele><time>2015-04-24T17:58:41.0000000+00:00</time></trkpt><trkpt lat="34.9514549" lon="32.4105902"><ele>596.5</ele><time>2015-04-24T17:58:42.0000000+00:00</time></trkpt><trkpt lat="34.9515094" lon="32.4105768"><ele>596.7</ele><time>2015-04-24T17:58:43.0000000+00:00</time></trkpt><trkpt lat="34.9515692" lon="32.4105683"><ele>596.8</ele><time>2015-04-24T17:58:44.0000000+00:00</time></trkpt><trkpt lat="34.9516228" lon="32.41056"><ele>597.4</ele><time>2015-04-24T17:58:45.0000000+00:00</time></trkpt><trkpt lat="34.9516773" lon="32.4105516"><ele>597.7</ele><time>2015-04-24T17:58:46.0000000+00:00</time></trkpt><trkpt lat="34.9517277" lon="32.4105439"><ele>597.8</ele><time>2015-04-24T17:58:47.0000000+00:00</time></trkpt><trkpt lat="34.9517902" lon="32.410542"><ele>597.9</ele><time>2015-04-24T17:58:48.0000000+00:00</time></trkpt><trkpt lat="34.951854" lon="32.4105351"><ele>597.4</ele><time>2015-04-24T17:58:49.0000000+00:00</time></trkpt><trkpt lat="34.951916" lon="32.4105275"><ele>597.2</ele><time>2015-04-24T17:58:50.0000000+00:00</time></trkpt><trkpt lat="34.9519708" lon="32.4105142"><ele>597.5</ele><time>2015-04-24T17:58:51.0000000+00:00</time></trkpt><trkpt lat="34.9520272" lon="32.4104987"><ele>598.2</ele><time>2015-04-24T17:58:52.0000000+00:00</time></trkpt><trkpt lat="34.95209" lon="32.4105043"><ele>598.1</ele><time>2015-04-24T17:58:53.0000000+00:00</time></trkpt><trkpt lat="34.9521528" lon="32.4105014"><ele>598.0</ele><time>2015-04-24T17:58:54.0000000+00:00</time></trkpt><trkpt lat="34.9522094" lon="32.4105068"><ele>598.0</ele><time>2015-04-24T17:58:55.0000000+00:00</time></trkpt><trkpt lat="34.9522784" lon="32.4105089"><ele>597.4</ele><time>2015-04-24T17:58:56.0000000+00:00</time></trkpt><trkpt lat="34.9523431" lon="32.4105078"><ele>597.7</ele><time>2015-04-24T17:58:57.0000000+00:00</time></trkpt><trkpt lat="34.9524118" lon="32.410514"><ele>597.8</ele><time>2015-04-24T17:58:58.0000000+00:00</time></trkpt><trkpt lat="34.9524811" lon="32.4105124"><ele>597.9</ele><time>2015-04-24T17:58:59.0000000+00:00</time></trkpt><trkpt lat="34.9525484" lon="32.4105224"><ele>597.4</ele><time>2015-04-24T17:59:00.0000000+00:00</time></trkpt><trkpt lat="34.9526157" lon="32.410529"><ele>597.7</ele><time>2015-04-24T17:59:01.0000000+00:00</time></trkpt><trkpt lat="34.9526806" lon="32.4105388"><ele>598.3</ele><time>2015-04-24T17:59:02.0000000+00:00</time></trkpt><trkpt lat="34.9527536" lon="32.4105479"><ele>598.6</ele><time>2015-04-24T17:59:03.0000000+00:00</time></trkpt><trkpt lat="34.9528305" lon="32.4105653"><ele>598.3</ele><time>2015-04-24T17:59:04.0000000+00:00</time></trkpt><trkpt lat="34.9529034" lon="32.4105822"><ele>597.6</ele><time>2015-04-24T17:59:05.0000000+00:00</time></trkpt><trkpt lat="34.9530414" lon="32.4105936"><ele>597.3</ele><time>2015-04-24T17:59:07.0000000+00:00</time></trkpt><trkpt lat="34.9531122" lon="32.4106128"><ele>597.1</ele><time>2015-04-24T17:59:08.0000000+00:00</time></trkpt><trkpt lat="34.9531897" lon="32.4106273"><ele>597.0</ele><time>2015-04-24T17:59:09.0000000+00:00</time></trkpt><trkpt lat="34.9532658" lon="32.4106419"><ele>597.0</ele><time>2015-04-24T17:59:10.0000000+00:00</time></trkpt><trkpt lat="34.9533298" lon="32.4106454"><ele>596.5</ele><time>2015-04-24T17:59:11.0000000+00:00</time></trkpt><trkpt lat="34.9534055" lon="32.4106578"><ele>596.2</ele><time>2015-04-24T17:59:12.0000000+00:00</time></trkpt><trkpt lat="34.9534861" lon="32.4106662"><ele>596.1</ele><time>2015-04-24T17:59:13.0000000+00:00</time></trkpt><trkpt lat="34.9535602" lon="32.4106764"><ele>596.0</ele><time>2015-04-24T17:59:14.0000000+00:00</time></trkpt><trkpt lat="34.9536361" lon="32.4106973"><ele>596.0</ele><time>2015-04-24T17:59:15.0000000+00:00</time></trkpt><trkpt lat="34.953715" lon="32.4107174"><ele>595.9</ele><time>2015-04-24T17:59:16.0000000+00:00</time></trkpt><trkpt lat="34.9538001" lon="32.4107329"><ele>595.4</ele><time>2015-04-24T17:59:17.0000000+00:00</time></trkpt><trkpt lat="34.9538824" lon="32.4107541"><ele>595.2</ele><time>2015-04-24T17:59:18.0000000+00:00</time></trkpt><trkpt lat="34.9539564" lon="32.4107722"><ele>594.6</ele><time>2015-04-24T17:59:19.0000000+00:00</time></trkpt><trkpt lat="34.9540396" lon="32.4107906"><ele>593.7</ele><time>2015-04-24T17:59:20.0000000+00:00</time></trkpt><trkpt lat="34.9541283" lon="32.4108"><ele>592.8</ele><time>2015-04-24T17:59:21.0000000+00:00</time></trkpt><trkpt lat="34.9542104" lon="32.4108208"><ele>592.4</ele><time>2015-04-24T17:59:22.0000000+00:00</time></trkpt><trkpt lat="34.9542979" lon="32.4108389"><ele>591.2</ele><time>2015-04-24T17:59:23.0000000+00:00</time></trkpt><trkpt lat="34.9543828" lon="32.4108558"><ele>590.0</ele><time>2015-04-24T17:59:24.0000000+00:00</time></trkpt><trkpt lat="34.9544664" lon="32.4108599"><ele>590.0</ele><time>2015-04-24T17:59:25.0000000+00:00</time></trkpt><trkpt lat="34.9545485" lon="32.4108898"><ele>589.5</ele><time>2015-04-24T17:59:26.0000000+00:00</time></trkpt><trkpt lat="34.9546266" lon="32.4109151"><ele>589.2</ele><time>2015-04-24T17:59:27.0000000+00:00</time></trkpt><trkpt lat="34.9547004" lon="32.4109543"><ele>588.6</ele><time>2015-04-24T17:59:28.0000000+00:00</time></trkpt><trkpt lat="34.9547753" lon="32.4109895"><ele>588.2</ele><time>2015-04-24T17:59:29.0000000+00:00</time></trkpt><trkpt lat="34.9548386" lon="32.4110241"><ele>588.1</ele><time>2015-04-24T17:59:30.0000000+00:00</time></trkpt><trkpt lat="34.954913" lon="32.4110754"><ele>587.5</ele><time>2015-04-24T17:59:31.0000000+00:00</time></trkpt><trkpt lat="34.9549907" lon="32.4111343"><ele>587.2</ele><time>2015-04-24T17:59:32.0000000+00:00</time></trkpt><trkpt lat="34.9550743" lon="32.4111919"><ele>587.1</ele><time>2015-04-24T17:59:33.0000000+00:00</time></trkpt><trkpt lat="34.9551527" lon="32.4112533"><ele>586.5</ele><time>2015-04-24T17:59:34.0000000+00:00</time></trkpt><trkpt lat="34.9552361" lon="32.4113132"><ele>585.7</ele><time>2015-04-24T17:59:35.0000000+00:00</time></trkpt><trkpt lat="34.9553132" lon="32.4113696"><ele>584.8</ele><time>2015-04-24T17:59:36.0000000+00:00</time></trkpt><trkpt lat="34.9554019" lon="32.4114341"><ele>583.9</ele><time>2015-04-24T17:59:37.0000000+00:00</time></trkpt><trkpt lat="34.955489" lon="32.4114868"><ele>582.4</ele><time>2015-04-24T17:59:38.0000000+00:00</time></trkpt><trkpt lat="34.9555887" lon="32.4115489"><ele>581.2</ele><time>2015-04-24T17:59:39.0000000+00:00</time></trkpt><trkpt lat="34.9556757" lon="32.4115928"><ele>580.0</ele><time>2015-04-24T17:59:40.0000000+00:00</time></trkpt><trkpt lat="34.9557429" lon="32.4116218"><ele>580.0</ele><time>2015-04-24T17:59:41.0000000+00:00</time></trkpt><trkpt lat="34.955825" lon="32.4116593"><ele>580.0</ele><time>2015-04-24T17:59:42.0000000+00:00</time></trkpt><trkpt lat="34.955916" lon="32.4116929"><ele>579.9</ele><time>2015-04-24T17:59:43.0000000+00:00</time></trkpt><trkpt lat="34.9560103" lon="32.411729"><ele>579.4</ele><time>2015-04-24T17:59:44.0000000+00:00</time></trkpt><trkpt lat="34.9561115" lon="32.4117562"><ele>579.2</ele><time>2015-04-24T17:59:45.0000000+00:00</time></trkpt><trkpt lat="34.9562072" lon="32.4117861"><ele>579.1</ele><time>2015-04-24T17:59:46.0000000+00:00</time></trkpt><trkpt lat="34.9563043" lon="32.411812"><ele>579.0</ele><time>2015-04-24T17:59:47.0000000+00:00</time></trkpt><trkpt lat="34.9564079" lon="32.4118309"><ele>579.0</ele><time>2015-04-24T17:59:48.0000000+00:00</time></trkpt><trkpt lat="34.956511" lon="32.4118547"><ele>578.9</ele><time>2015-04-24T17:59:49.0000000+00:00</time></trkpt><trkpt lat="34.956607" lon="32.4118724"><ele>578.4</ele><time>2015-04-24T17:59:50.0000000+00:00</time></trkpt><trkpt lat="34.9566984" lon="32.4118904"><ele>577.7</ele><time>2015-04-24T17:59:51.0000000+00:00</time></trkpt><trkpt lat="34.9567976" lon="32.4119047"><ele>577.3</ele><time>2015-04-24T17:59:52.0000000+00:00</time></trkpt><trkpt lat="34.9569006" lon="32.4119191"><ele>576.6</ele><time>2015-04-24T17:59:53.0000000+00:00</time></trkpt><trkpt lat="34.9570029" lon="32.4119319"><ele>575.8</ele><time>2015-04-24T17:59:54.0000000+00:00</time></trkpt><trkpt lat="34.9570986" lon="32.4119504"><ele>575.9</ele><time>2015-04-24T17:59:55.0000000+00:00</time></trkpt><trkpt lat="34.9572001" lon="32.4119671"><ele>575.9</ele><time>2015-04-24T17:59:56.0000000+00:00</time></trkpt><trkpt lat="34.9572974" lon="32.4119878"><ele>575.9</ele><time>2015-04-24T17:59:57.0000000+00:00</time></trkpt><trkpt lat="34.957388" lon="32.4120156"><ele>575.9</ele><time>2015-04-24T17:59:58.0000000+00:00</time></trkpt><trkpt lat="34.95749" lon="32.4120387"><ele>576.4</ele><time>2015-04-24T17:59:59.0000000+00:00</time></trkpt><trkpt lat="34.9575905" lon="32.4120655"><ele>576.7</ele><time>2015-04-24T18:00:00.0000000+00:00</time></trkpt><trkpt lat="34.95768" lon="32.4120922"><ele>576.3</ele><time>2015-04-24T18:00:01.0000000+00:00</time></trkpt><trkpt lat="34.9577628" lon="32.4121166"><ele>576.6</ele><time>2015-04-24T18:00:02.0000000+00:00</time></trkpt><trkpt lat="34.9578274" lon="32.4121363"><ele>576.3</ele><time>2015-04-24T18:00:03.0000000+00:00</time></trkpt><trkpt lat="34.9578961" lon="32.4121634"><ele>576.1</ele><time>2015-04-24T18:00:04.0000000+00:00</time></trkpt><trkpt lat="34.9579483" lon="32.4121952"><ele>576.0</ele><time>2015-04-24T18:00:05.0000000+00:00</time></trkpt><trkpt lat="34.958005" lon="32.4122167"><ele>575.5</ele><time>2015-04-24T18:00:06.0000000+00:00</time></trkpt><trkpt lat="34.9580579" lon="32.412234"><ele>575.2</ele><time>2015-04-24T18:00:07.0000000+00:00</time></trkpt><trkpt lat="34.9581056" lon="32.4122604"><ele>575.1</ele><time>2015-04-24T18:00:08.0000000+00:00</time></trkpt><trkpt lat="34.9581501" lon="32.4122889"><ele>575.0</ele><time>2015-04-24T18:00:09.0000000+00:00</time></trkpt><trkpt lat="34.9581939" lon="32.4123144"><ele>574.5</ele><time>2015-04-24T18:00:10.0000000+00:00</time></trkpt><trkpt lat="34.9582361" lon="32.4123387"><ele>574.2</ele><time>2015-04-24T18:00:11.0000000+00:00</time></trkpt><trkpt lat="34.9582816" lon="32.4123715"><ele>574.1</ele><time>2015-04-24T18:00:12.0000000+00:00</time></trkpt><trkpt lat="34.9583408" lon="32.4124153"><ele>573.0</ele><time>2015-04-24T18:00:13.0000000+00:00</time></trkpt><trkpt lat="34.9583849" lon="32.4124357"><ele>572.5</ele><time>2015-04-24T18:00:14.0000000+00:00</time></trkpt><trkpt lat="34.9584467" lon="32.4124615"><ele>571.3</ele><time>2015-04-24T18:00:16.0000000+00:00</time></trkpt><trkpt lat="34.9585113" lon="32.4124976"><ele>571.3</ele><time>2015-04-24T18:00:18.0000000+00:00</time></trkpt><trkpt lat="34.9585859" lon="32.4125398"><ele>571.0</ele><time>2015-04-24T18:00:20.0000000+00:00</time></trkpt><trkpt lat="34.9586346" lon="32.412579"><ele>570.5</ele><time>2015-04-24T18:00:22.0000000+00:00</time></trkpt><trkpt lat="34.9586908" lon="32.4126128"><ele>569.6</ele><time>2015-04-24T18:00:24.0000000+00:00</time></trkpt><trkpt lat="34.9587388" lon="32.4126337"><ele>569.8</ele><time>2015-04-24T18:00:26.0000000+00:00</time></trkpt><trkpt lat="34.9587829" lon="32.4126606"><ele>569.9</ele><time>2015-04-24T18:00:28.0000000+00:00</time></trkpt><trkpt lat="34.958824" lon="32.4126894"><ele>569.9</ele><time>2015-04-24T18:00:30.0000000+00:00</time></trkpt><trkpt lat="34.9588811" lon="32.4127262"><ele>569.9</ele><time>2015-04-24T18:00:33.0000000+00:00</time></trkpt><trkpt lat="34.9589272" lon="32.4127665"><ele>568.3</ele><time>2015-04-24T18:00:36.0000000+00:00</time></trkpt><trkpt lat="34.9589792" lon="32.4128049"><ele>567.1</ele><time>2015-04-24T18:00:39.0000000+00:00</time></trkpt><trkpt lat="34.9590331" lon="32.4128272"><ele>565.7</ele><time>2015-04-24T18:00:41.0000000+00:00</time></trkpt><trkpt lat="34.9591093" lon="32.4128675"><ele>564.6</ele><time>2015-04-24T18:00:43.0000000+00:00</time></trkpt><trkpt lat="34.9591749" lon="32.412911"><ele>564.3</ele><time>2015-04-24T18:00:44.0000000+00:00</time></trkpt><trkpt lat="34.9592336" lon="32.4129498"><ele>564.1</ele><time>2015-04-24T18:00:45.0000000+00:00</time></trkpt><trkpt lat="34.959284" lon="32.4129782"><ele>564.5</ele><time>2015-04-24T18:00:46.0000000+00:00</time></trkpt><trkpt lat="34.959339" lon="32.4130112"><ele>564.7</ele><time>2015-04-24T18:00:47.0000000+00:00</time></trkpt><trkpt lat="34.9594006" lon="32.4130505"><ele>564.3</ele><time>2015-04-24T18:00:48.0000000+00:00</time></trkpt><trkpt lat="34.9594498" lon="32.4130825"><ele>563.6</ele><time>2015-04-24T18:00:49.0000000+00:00</time></trkpt><trkpt lat="34.959512" lon="32.4131261"><ele>563.3</ele><time>2015-04-24T18:00:50.0000000+00:00</time></trkpt><trkpt lat="34.9595865" lon="32.4131728"><ele>563.1</ele><time>2015-04-24T18:00:51.0000000+00:00</time></trkpt><trkpt lat="34.9596625" lon="32.4132229"><ele>562.5</ele><time>2015-04-24T18:00:52.0000000+00:00</time></trkpt><trkpt lat="34.9597294" lon="32.4132714"><ele>562.2</ele><time>2015-04-24T18:00:53.0000000+00:00</time></trkpt><trkpt lat="34.959812" lon="32.4133268"><ele>561.6</ele><time>2015-04-24T18:00:54.0000000+00:00</time></trkpt><trkpt lat="34.9598922" lon="32.4133745"><ele>561.3</ele><time>2015-04-24T18:00:55.0000000+00:00</time></trkpt><trkpt lat="34.9599802" lon="32.4134302"><ele>561.1</ele><time>2015-04-24T18:00:56.0000000+00:00</time></trkpt><trkpt lat="34.9600702" lon="32.4134832"><ele>560.5</ele><time>2015-04-24T18:00:57.0000000+00:00</time></trkpt><trkpt lat="34.9601677" lon="32.4135326"><ele>560.2</ele><time>2015-04-24T18:00:58.0000000+00:00</time></trkpt><trkpt lat="34.9602628" lon="32.4135807"><ele>560.1</ele><time>2015-04-24T18:00:59.0000000+00:00</time></trkpt><trkpt lat="34.9603706" lon="32.4136357"><ele>559.5</ele><time>2015-04-24T18:01:00.0000000+00:00</time></trkpt><trkpt lat="34.9604644" lon="32.4136883"><ele>558.7</ele><time>2015-04-24T18:01:01.0000000+00:00</time></trkpt><trkpt lat="34.9605593" lon="32.4137326"><ele>557.8</ele><time>2015-04-24T18:01:02.0000000+00:00</time></trkpt><trkpt lat="34.9606598" lon="32.4137752"><ele>557.4</ele><time>2015-04-24T18:01:03.0000000+00:00</time></trkpt><trkpt lat="34.9607654" lon="32.4138217"><ele>556.7</ele><time>2015-04-24T18:01:04.0000000+00:00</time></trkpt><trkpt lat="34.9608414" lon="32.4138517"><ele>555.3</ele><time>2015-04-24T18:01:05.0000000+00:00</time></trkpt><trkpt lat="34.9609584" lon="32.4138976"><ele>554.6</ele><time>2015-04-24T18:01:06.0000000+00:00</time></trkpt><trkpt lat="34.961061" lon="32.4139397"><ele>553.8</ele><time>2015-04-24T18:01:07.0000000+00:00</time></trkpt><trkpt lat="34.9611702" lon="32.4139971"><ele>552.9</ele><time>2015-04-24T18:01:08.0000000+00:00</time></trkpt><trkpt lat="34.9612776" lon="32.4140449"><ele>551.9</ele><time>2015-04-24T18:01:09.0000000+00:00</time></trkpt><trkpt lat="34.9613811" lon="32.4140876"><ele>550.9</ele><time>2015-04-24T18:01:10.0000000+00:00</time></trkpt><trkpt lat="34.9614958" lon="32.4141424"><ele>549.4</ele><time>2015-04-24T18:01:11.0000000+00:00</time></trkpt><trkpt lat="34.9616077" lon="32.4141867"><ele>548.2</ele><time>2015-04-24T18:01:12.0000000+00:00</time></trkpt><trkpt lat="34.9617143" lon="32.4142283"><ele>547.6</ele><time>2015-04-24T18:01:13.0000000+00:00</time></trkpt><trkpt lat="34.9618271" lon="32.4142738"><ele>546.2</ele><time>2015-04-24T18:01:14.0000000+00:00</time></trkpt><trkpt lat="34.9619308" lon="32.4143168"><ele>545.1</ele><time>2015-04-24T18:01:15.0000000+00:00</time></trkpt><trkpt lat="34.9620439" lon="32.4143457"><ele>544.0</ele><time>2015-04-24T18:01:16.0000000+00:00</time></trkpt><trkpt lat="34.9621506" lon="32.4143729"><ele>544.0</ele><time>2015-04-24T18:01:17.0000000+00:00</time></trkpt><trkpt lat="34.962261" lon="32.4143699"><ele>543.4</ele><time>2015-04-24T18:01:18.0000000+00:00</time></trkpt><trkpt lat="34.9623656" lon="32.4143582"><ele>542.7</ele><time>2015-04-24T18:01:19.0000000+00:00</time></trkpt><trkpt lat="34.9624658" lon="32.414325"><ele>541.8</ele><time>2015-04-24T18:01:20.0000000+00:00</time></trkpt><trkpt lat="34.9625526" lon="32.4142755"><ele>541.4</ele><time>2015-04-24T18:01:21.0000000+00:00</time></trkpt><trkpt lat="34.9626492" lon="32.4142054"><ele>540.6</ele><time>2015-04-24T18:01:22.0000000+00:00</time></trkpt><trkpt lat="34.9627378" lon="32.4141402"><ele>539.8</ele><time>2015-04-24T18:01:23.0000000+00:00</time></trkpt><trkpt lat="34.9628334" lon="32.4140942"><ele>538.9</ele><time>2015-04-24T18:01:24.0000000+00:00</time></trkpt><trkpt lat="34.9629341" lon="32.4140285"><ele>538.4</ele><time>2015-04-24T18:01:25.0000000+00:00</time></trkpt><trkpt lat="34.9630316" lon="32.4139669"><ele>537.7</ele><time>2015-04-24T18:01:26.0000000+00:00</time></trkpt><trkpt lat="34.9631299" lon="32.413909"><ele>537.3</ele><time>2015-04-24T18:01:27.0000000+00:00</time></trkpt><trkpt lat="34.9632375" lon="32.4138415"><ele>537.6</ele><time>2015-04-24T18:01:28.0000000+00:00</time></trkpt><trkpt lat="34.9633343" lon="32.4137833"><ele>537.8</ele><time>2015-04-24T18:01:29.0000000+00:00</time></trkpt><trkpt lat="34.9634272" lon="32.4137212"><ele>537.9</ele><time>2015-04-24T18:01:30.0000000+00:00</time></trkpt><trkpt lat="34.9635184" lon="32.4136609"><ele>537.4</ele><time>2015-04-24T18:01:31.0000000+00:00</time></trkpt><trkpt lat="34.9636177" lon="32.4135972"><ele>536.7</ele><time>2015-04-24T18:01:32.0000000+00:00</time></trkpt><trkpt lat="34.9637059" lon="32.4135419"><ele>536.3</ele><time>2015-04-24T18:01:33.0000000+00:00</time></trkpt><trkpt lat="34.9638043" lon="32.4134882"><ele>536.1</ele><time>2015-04-24T18:01:34.0000000+00:00</time></trkpt><trkpt lat="34.9639008" lon="32.4134335"><ele>535.0</ele><time>2015-04-24T18:01:35.0000000+00:00</time></trkpt><trkpt lat="34.9639924" lon="32.4133739"><ele>534.0</ele><time>2015-04-24T18:01:36.0000000+00:00</time></trkpt><trkpt lat="34.964085" lon="32.4133138"><ele>533.5</ele><time>2015-04-24T18:01:37.0000000+00:00</time></trkpt><trkpt lat="34.9641736" lon="32.4132549"><ele>533.2</ele><time>2015-04-24T18:01:38.0000000+00:00</time></trkpt><trkpt lat="34.9642559" lon="32.4132074"><ele>532.6</ele><time>2015-04-24T18:01:39.0000000+00:00</time></trkpt><trkpt lat="34.9643492" lon="32.4131459"><ele>531.7</ele><time>2015-04-24T18:01:40.0000000+00:00</time></trkpt><trkpt lat="34.9644429" lon="32.4130917"><ele>531.3</ele><time>2015-04-24T18:01:41.0000000+00:00</time></trkpt><trkpt lat="34.9645378" lon="32.413038"><ele>531.1</ele><time>2015-04-24T18:01:42.0000000+00:00</time></trkpt><trkpt lat="34.9646246" lon="32.4129815"><ele>531.0</ele><time>2015-04-24T18:01:43.0000000+00:00</time></trkpt><trkpt lat="34.9647163" lon="32.412924"><ele>530.5</ele><time>2015-04-24T18:01:44.0000000+00:00</time></trkpt><trkpt lat="34.9648035" lon="32.4128692"><ele>530.7</ele><time>2015-04-24T18:01:45.0000000+00:00</time></trkpt><trkpt lat="34.9648959" lon="32.4128118"><ele>530.3</ele><time>2015-04-24T18:01:46.0000000+00:00</time></trkpt><trkpt lat="34.964986" lon="32.4127535"><ele>529.6</ele><time>2015-04-24T18:01:47.0000000+00:00</time></trkpt><trkpt lat="34.9650794" lon="32.4126967"><ele>529.3</ele><time>2015-04-24T18:01:48.0000000+00:00</time></trkpt><trkpt lat="34.9651627" lon="32.4126419"><ele>528.6</ele><time>2015-04-24T18:01:49.0000000+00:00</time></trkpt><trkpt lat="34.9652526" lon="32.4125946"><ele>528.8</ele><time>2015-04-24T18:01:50.0000000+00:00</time></trkpt><trkpt lat="34.9653305" lon="32.4125406"><ele>528.3</ele><time>2015-04-24T18:01:51.0000000+00:00</time></trkpt><trkpt lat="34.9654134" lon="32.4124882"><ele>528.1</ele><time>2015-04-24T18:01:52.0000000+00:00</time></trkpt><trkpt lat="34.9654941" lon="32.4124306"><ele>527.5</ele><time>2015-04-24T18:01:53.0000000+00:00</time></trkpt><trkpt lat="34.9655803" lon="32.4123743"><ele>527.2</ele><time>2015-04-24T18:01:54.0000000+00:00</time></trkpt><trkpt lat="34.9656608" lon="32.412328"><ele>527.1</ele><time>2015-04-24T18:01:55.0000000+00:00</time></trkpt><trkpt lat="34.9657394" lon="32.4122789"><ele>526.5</ele><time>2015-04-24T18:01:56.0000000+00:00</time></trkpt><trkpt lat="34.9658194" lon="32.4122308"><ele>526.2</ele><time>2015-04-24T18:01:57.0000000+00:00</time></trkpt><trkpt lat="34.9658974" lon="32.4121775"><ele>526.1</ele><time>2015-04-24T18:01:58.0000000+00:00</time></trkpt><trkpt lat="34.9659665" lon="32.4121217"><ele>526.0</ele><time>2015-04-24T18:01:59.0000000+00:00</time></trkpt><trkpt lat="34.9660458" lon="32.4120652"><ele>526.0</ele><time>2015-04-24T18:02:00.0000000+00:00</time></trkpt><trkpt lat="34.9661232" lon="32.4120243"><ele>525.4</ele><time>2015-04-24T18:02:01.0000000+00:00</time></trkpt><trkpt lat="34.9661974" lon="32.4119836"><ele>525.2</ele><time>2015-04-24T18:02:02.0000000+00:00</time></trkpt><trkpt lat="34.966271" lon="32.4119406"><ele>524.6</ele><time>2015-04-24T18:02:03.0000000+00:00</time></trkpt><trkpt lat="34.9663445" lon="32.4118871"><ele>523.7</ele><time>2015-04-24T18:02:04.0000000+00:00</time></trkpt><trkpt lat="34.9664099" lon="32.4118373"><ele>523.3</ele><time>2015-04-24T18:02:05.0000000+00:00</time></trkpt><trkpt lat="34.9664773" lon="32.4117897"><ele>523.1</ele><time>2015-04-24T18:02:06.0000000+00:00</time></trkpt><trkpt lat="34.9665428" lon="32.4117506"><ele>522.5</ele><time>2015-04-24T18:02:07.0000000+00:00</time></trkpt><trkpt lat="34.9666133" lon="32.4117063"><ele>522.2</ele><time>2015-04-24T18:02:08.0000000+00:00</time></trkpt><trkpt lat="34.966682" lon="32.4116671"><ele>521.6</ele><time>2015-04-24T18:02:09.0000000+00:00</time></trkpt><trkpt lat="34.966758" lon="32.4116257"><ele>520.8</ele><time>2015-04-24T18:02:10.0000000+00:00</time></trkpt><trkpt lat="34.966832" lon="32.4115806"><ele>520.3</ele><time>2015-04-24T18:02:11.0000000+00:00</time></trkpt><trkpt lat="34.9668975" lon="32.411536"><ele>519.6</ele><time>2015-04-24T18:02:12.0000000+00:00</time></trkpt><trkpt lat="34.96696" lon="32.4114908"><ele>519.3</ele><time>2015-04-24T18:02:13.0000000+00:00</time></trkpt><trkpt lat="34.9670237" lon="32.4114432"><ele>519.1</ele><time>2015-04-24T18:02:14.0000000+00:00</time></trkpt><trkpt lat="34.9670853" lon="32.4114069"><ele>518.5</ele><time>2015-04-24T18:02:15.0000000+00:00</time></trkpt><trkpt lat="34.9671559" lon="32.4113644"><ele>518.2</ele><time>2015-04-24T18:02:16.0000000+00:00</time></trkpt><trkpt lat="34.9672206" lon="32.4113144"><ele>517.6</ele><time>2015-04-24T18:02:17.0000000+00:00</time></trkpt><trkpt lat="34.9672867" lon="32.4112569"><ele>517.3</ele><time>2015-04-24T18:02:18.0000000+00:00</time></trkpt><trkpt lat="34.9673534" lon="32.4112037"><ele>516.6</ele><time>2015-04-24T18:02:19.0000000+00:00</time></trkpt><trkpt lat="34.9674165" lon="32.4111418"><ele>515.8</ele><time>2015-04-24T18:02:20.0000000+00:00</time></trkpt><trkpt lat="34.9674702" lon="32.4110673"><ele>515.3</ele><time>2015-04-24T18:02:21.0000000+00:00</time></trkpt><trkpt lat="34.9675261" lon="32.4109838"><ele>514.6</ele><time>2015-04-24T18:02:22.0000000+00:00</time></trkpt><trkpt lat="34.9675752" lon="32.4108949"><ele>514.3</ele><time>2015-04-24T18:02:23.0000000+00:00</time></trkpt><trkpt lat="34.9676218" lon="32.4107979"><ele>513.6</ele><time>2015-04-24T18:02:24.0000000+00:00</time></trkpt><trkpt lat="34.9676603" lon="32.4107062"><ele>513.3</ele><time>2015-04-24T18:02:25.0000000+00:00</time></trkpt><trkpt lat="34.9677021" lon="32.4106028"><ele>512.6</ele><time>2015-04-24T18:02:26.0000000+00:00</time></trkpt><trkpt lat="34.9677315" lon="32.4105031"><ele>512.3</ele><time>2015-04-24T18:02:27.0000000+00:00</time></trkpt><trkpt lat="34.967756" lon="32.4104022"><ele>512.1</ele><time>2015-04-24T18:02:28.0000000+00:00</time></trkpt><trkpt lat="34.9677709" lon="32.4103217"><ele>511.5</ele><time>2015-04-24T18:02:29.0000000+00:00</time></trkpt><trkpt lat="34.9677834" lon="32.4102385"><ele>510.7</ele><time>2015-04-24T18:02:30.0000000+00:00</time></trkpt><trkpt lat="34.9677912" lon="32.4101465"><ele>509.8</ele><time>2015-04-24T18:02:31.0000000+00:00</time></trkpt><trkpt lat="34.9677951" lon="32.4100547"><ele>509.4</ele><time>2015-04-24T18:02:32.0000000+00:00</time></trkpt><trkpt lat="34.9677913" lon="32.4099634"><ele>509.2</ele><time>2015-04-24T18:02:33.0000000+00:00</time></trkpt><trkpt lat="34.9677801" lon="32.4098738"><ele>509.0</ele><time>2015-04-24T18:02:34.0000000+00:00</time></trkpt><trkpt lat="34.9677722" lon="32.4097823"><ele>509.0</ele><time>2015-04-24T18:02:35.0000000+00:00</time></trkpt><trkpt lat="34.9677604" lon="32.4096825"><ele>509.0</ele><time>2015-04-24T18:02:36.0000000+00:00</time></trkpt><trkpt lat="34.9677416" lon="32.4095919"><ele>508.4</ele><time>2015-04-24T18:02:37.0000000+00:00</time></trkpt><trkpt lat="34.9677102" lon="32.409499"><ele>507.7</ele><time>2015-04-24T18:02:38.0000000+00:00</time></trkpt><trkpt lat="34.9676832" lon="32.4094073"><ele>507.3</ele><time>2015-04-24T18:02:39.0000000+00:00</time></trkpt><trkpt lat="34.9676563" lon="32.4093033"><ele>507.1</ele><time>2015-04-24T18:02:40.0000000+00:00</time></trkpt><trkpt lat="34.9676286" lon="32.4092034"><ele>507.0</ele><time>2015-04-24T18:02:41.0000000+00:00</time></trkpt><trkpt lat="34.9676102" lon="32.4090989"><ele>506.5</ele><time>2015-04-24T18:02:42.0000000+00:00</time></trkpt><trkpt lat="34.9675865" lon="32.4089991"><ele>505.7</ele><time>2015-04-24T18:02:43.0000000+00:00</time></trkpt><trkpt lat="34.9675588" lon="32.4088941"><ele>505.3</ele><time>2015-04-24T18:02:44.0000000+00:00</time></trkpt><trkpt lat="34.9675267" lon="32.4087846"><ele>504.6</ele><time>2015-04-24T18:02:45.0000000+00:00</time></trkpt><trkpt lat="34.9675004" lon="32.408671"><ele>504.3</ele><time>2015-04-24T18:02:46.0000000+00:00</time></trkpt><trkpt lat="34.9674747" lon="32.4085573"><ele>503.6</ele><time>2015-04-24T18:02:47.0000000+00:00</time></trkpt><trkpt lat="34.9674632" lon="32.4084314"><ele>502.8</ele><time>2015-04-24T18:02:48.0000000+00:00</time></trkpt><trkpt lat="34.9674576" lon="32.4083054"><ele>502.3</ele><time>2015-04-24T18:02:49.0000000+00:00</time></trkpt><trkpt lat="34.9674604" lon="32.4081773"><ele>501.6</ele><time>2015-04-24T18:02:50.0000000+00:00</time></trkpt><trkpt lat="34.967469" lon="32.408055"><ele>500.8</ele><time>2015-04-24T18:02:51.0000000+00:00</time></trkpt><trkpt lat="34.967488" lon="32.4079244"><ele>499.9</ele><time>2015-04-24T18:02:52.0000000+00:00</time></trkpt><trkpt lat="34.9675195" lon="32.4078036"><ele>499.4</ele><time>2015-04-24T18:02:53.0000000+00:00</time></trkpt><trkpt lat="34.9675634" lon="32.4076798"><ele>498.7</ele><time>2015-04-24T18:02:54.0000000+00:00</time></trkpt><trkpt lat="34.9676085" lon="32.407563"><ele>497.8</ele><time>2015-04-24T18:02:55.0000000+00:00</time></trkpt><trkpt lat="34.9676611" lon="32.4074458"><ele>497.4</ele><time>2015-04-24T18:02:56.0000000+00:00</time></trkpt><trkpt lat="34.9677169" lon="32.4073482"><ele>496.6</ele><time>2015-04-24T18:02:57.0000000+00:00</time></trkpt><trkpt lat="34.9677715" lon="32.4072603"><ele>495.8</ele><time>2015-04-24T18:02:58.0000000+00:00</time></trkpt><trkpt lat="34.9678293" lon="32.40717"><ele>495.4</ele><time>2015-04-24T18:02:59.0000000+00:00</time></trkpt><trkpt lat="34.9678991" lon="32.4070865"><ele>494.6</ele><time>2015-04-24T18:03:00.0000000+00:00</time></trkpt><trkpt lat="34.9679735" lon="32.4070216"><ele>493.3</ele><time>2015-04-24T18:03:01.0000000+00:00</time></trkpt><trkpt lat="34.9680486" lon="32.4069584"><ele>492.1</ele><time>2015-04-24T18:03:02.0000000+00:00</time></trkpt><trkpt lat="34.9681347" lon="32.4069026"><ele>491.0</ele><time>2015-04-24T18:03:03.0000000+00:00</time></trkpt><trkpt lat="34.9682289" lon="32.4068474"><ele>490.0</ele><time>2015-04-24T18:03:04.0000000+00:00</time></trkpt><trkpt lat="34.9683294" lon="32.4067949"><ele>489.5</ele><time>2015-04-24T18:03:05.0000000+00:00</time></trkpt><trkpt lat="34.9684236" lon="32.406737"><ele>488.7</ele><time>2015-04-24T18:03:06.0000000+00:00</time></trkpt><trkpt lat="34.9685106" lon="32.406677"><ele>487.8</ele><time>2015-04-24T18:03:07.0000000+00:00</time></trkpt><trkpt lat="34.9686074" lon="32.4066097"><ele>486.9</ele><time>2015-04-24T18:03:08.0000000+00:00</time></trkpt><trkpt lat="34.9687031" lon="32.4065557"><ele>485.9</ele><time>2015-04-24T18:03:09.0000000+00:00</time></trkpt><trkpt lat="34.9688016" lon="32.406538"><ele>485.4</ele><time>2015-04-24T18:03:10.0000000+00:00</time></trkpt><trkpt lat="34.9689004" lon="32.4065465"><ele>484.7</ele><time>2015-04-24T18:03:11.0000000+00:00</time></trkpt><trkpt lat="34.9690074" lon="32.4065658"><ele>483.8</ele><time>2015-04-24T18:03:12.0000000+00:00</time></trkpt><trkpt lat="34.9690937" lon="32.4065911"><ele>482.9</ele><time>2015-04-24T18:03:13.0000000+00:00</time></trkpt><trkpt lat="34.9691867" lon="32.4066052"><ele>481.9</ele><time>2015-04-24T18:03:14.0000000+00:00</time></trkpt><trkpt lat="34.9692821" lon="32.4066115"><ele>480.9</ele><time>2015-04-24T18:03:15.0000000+00:00</time></trkpt><trkpt lat="34.9693828" lon="32.4066166"><ele>480.4</ele><time>2015-04-24T18:03:16.0000000+00:00</time></trkpt><trkpt lat="34.9694829" lon="32.4066073"><ele>479.7</ele><time>2015-04-24T18:03:17.0000000+00:00</time></trkpt><trkpt lat="34.9695871" lon="32.4065938"><ele>478.8</ele><time>2015-04-24T18:03:18.0000000+00:00</time></trkpt><trkpt lat="34.969681" lon="32.4065782"><ele>477.9</ele><time>2015-04-24T18:03:19.0000000+00:00</time></trkpt><trkpt lat="34.9697805" lon="32.4065294"><ele>476.9</ele><time>2015-04-24T18:03:20.0000000+00:00</time></trkpt><trkpt lat="34.9698708" lon="32.4064675"><ele>476.4</ele><time>2015-04-24T18:03:21.0000000+00:00</time></trkpt><trkpt lat="34.9699538" lon="32.4063971"><ele>475.7</ele><time>2015-04-24T18:03:22.0000000+00:00</time></trkpt><trkpt lat="34.9700322" lon="32.40632"><ele>474.8</ele><time>2015-04-24T18:03:23.0000000+00:00</time></trkpt><trkpt lat="34.9701082" lon="32.406218"><ele>474.4</ele><time>2015-04-24T18:03:24.0000000+00:00</time></trkpt><trkpt lat="34.9701746" lon="32.4061056"><ele>473.6</ele><time>2015-04-24T18:03:25.0000000+00:00</time></trkpt><trkpt lat="34.970239" lon="32.4059939"><ele>472.8</ele><time>2015-04-24T18:03:26.0000000+00:00</time></trkpt><trkpt lat="34.9702991" lon="32.4058845"><ele>471.9</ele><time>2015-04-24T18:03:27.0000000+00:00</time></trkpt><trkpt lat="34.970371" lon="32.4057748"><ele>470.9</ele><time>2015-04-24T18:03:28.0000000+00:00</time></trkpt><trkpt lat="34.9704507" lon="32.4056733"><ele>470.4</ele><time>2015-04-24T18:03:29.0000000+00:00</time></trkpt><trkpt lat="34.9705264" lon="32.4055634"><ele>469.2</ele><time>2015-04-24T18:03:30.0000000+00:00</time></trkpt><trkpt lat="34.9705871" lon="32.4054555"><ele>468.6</ele><time>2015-04-24T18:03:31.0000000+00:00</time></trkpt><trkpt lat="34.9706384" lon="32.4053512"><ele>467.7</ele><time>2015-04-24T18:03:32.0000000+00:00</time></trkpt><trkpt lat="34.9706823" lon="32.4052688"><ele>467.3</ele><time>2015-04-24T18:03:33.0000000+00:00</time></trkpt><trkpt lat="34.9707354" lon="32.4051972"><ele>466.6</ele><time>2015-04-24T18:03:34.0000000+00:00</time></trkpt><trkpt lat="34.9707851" lon="32.4051306"><ele>465.8</ele><time>2015-04-24T18:03:35.0000000+00:00</time></trkpt><trkpt lat="34.9708476" lon="32.4050737"><ele>465.4</ele><time>2015-04-24T18:03:36.0000000+00:00</time></trkpt><trkpt lat="34.9709123" lon="32.4050277"><ele>465.1</ele><time>2015-04-24T18:03:37.0000000+00:00</time></trkpt><trkpt lat="34.9709774" lon="32.404986"><ele>464.5</ele><time>2015-04-24T18:03:38.0000000+00:00</time></trkpt><trkpt lat="34.9710438" lon="32.4049522"><ele>464.2</ele><time>2015-04-24T18:03:39.0000000+00:00</time></trkpt><trkpt lat="34.971114" lon="32.4049269"><ele>463.6</ele><time>2015-04-24T18:03:40.0000000+00:00</time></trkpt><trkpt lat="34.9711765" lon="32.4049131"><ele>463.3</ele><time>2015-04-24T18:03:41.0000000+00:00</time></trkpt><trkpt lat="34.9712377" lon="32.4049095"><ele>462.6</ele><time>2015-04-24T18:03:42.0000000+00:00</time></trkpt><trkpt lat="34.9712962" lon="32.4049149"><ele>461.8</ele><time>2015-04-24T18:03:43.0000000+00:00</time></trkpt><trkpt lat="34.9713599" lon="32.4049317"><ele>461.3</ele><time>2015-04-24T18:03:44.0000000+00:00</time></trkpt><trkpt lat="34.9714272" lon="32.4049544"><ele>460.6</ele><time>2015-04-24T18:03:45.0000000+00:00</time></trkpt><trkpt lat="34.9715046" lon="32.4049778"><ele>460.3</ele><time>2015-04-24T18:03:46.0000000+00:00</time></trkpt><trkpt lat="34.9715667" lon="32.4050064"><ele>459.6</ele><time>2015-04-24T18:03:47.0000000+00:00</time></trkpt><trkpt lat="34.9716512" lon="32.4050468"><ele>459.3</ele><time>2015-04-24T18:03:48.0000000+00:00</time></trkpt><trkpt lat="34.9717339" lon="32.405087"><ele>458.6</ele><time>2015-04-24T18:03:49.0000000+00:00</time></trkpt><trkpt lat="34.9718228" lon="32.405136"><ele>458.3</ele><time>2015-04-24T18:03:50.0000000+00:00</time></trkpt><trkpt lat="34.9719086" lon="32.4051714"><ele>457.6</ele><time>2015-04-24T18:03:51.0000000+00:00</time></trkpt><trkpt lat="34.9720029" lon="32.4052182"><ele>457.3</ele><time>2015-04-24T18:03:52.0000000+00:00</time></trkpt><trkpt lat="34.9720954" lon="32.405268"><ele>457.1</ele><time>2015-04-24T18:03:53.0000000+00:00</time></trkpt><trkpt lat="34.972195" lon="32.4053094"><ele>456.5</ele><time>2015-04-24T18:03:54.0000000+00:00</time></trkpt><trkpt lat="34.9722899" lon="32.405358"><ele>455.7</ele><time>2015-04-24T18:03:55.0000000+00:00</time></trkpt><trkpt lat="34.972391" lon="32.4054058"><ele>455.3</ele><time>2015-04-24T18:03:56.0000000+00:00</time></trkpt><trkpt lat="34.9724928" lon="32.4054575"><ele>454.6</ele><time>2015-04-24T18:03:57.0000000+00:00</time></trkpt><trkpt lat="34.9725885" lon="32.4054988"><ele>454.3</ele><time>2015-04-24T18:03:58.0000000+00:00</time></trkpt><trkpt lat="34.9726773" lon="32.4055406"><ele>454.1</ele><time>2015-04-24T18:03:59.0000000+00:00</time></trkpt><trkpt lat="34.97277" lon="32.405582"><ele>453.5</ele><time>2015-04-24T18:04:00.0000000+00:00</time></trkpt><trkpt lat="34.9728555" lon="32.4056258"><ele>453.2</ele><time>2015-04-24T18:04:01.0000000+00:00</time></trkpt><trkpt lat="34.9729423" lon="32.4056648"><ele>452.6</ele><time>2015-04-24T18:04:02.0000000+00:00</time></trkpt><trkpt lat="34.9730268" lon="32.4056992"><ele>452.3</ele><time>2015-04-24T18:04:03.0000000+00:00</time></trkpt><trkpt lat="34.9731118" lon="32.4057383"><ele>451.6</ele><time>2015-04-24T18:04:04.0000000+00:00</time></trkpt><trkpt lat="34.9731903" lon="32.405779"><ele>450.8</ele><time>2015-04-24T18:04:05.0000000+00:00</time></trkpt><trkpt lat="34.9732699" lon="32.405812"><ele>450.3</ele><time>2015-04-24T18:04:06.0000000+00:00</time></trkpt><trkpt lat="34.9733559" lon="32.40584"><ele>449.1</ele><time>2015-04-24T18:04:07.0000000+00:00</time></trkpt><trkpt lat="34.9734556" lon="32.4058669"><ele>448.0</ele><time>2015-04-24T18:04:08.0000000+00:00</time></trkpt><trkpt lat="34.9735547" lon="32.4058864"><ele>447.0</ele><time>2015-04-24T18:04:09.0000000+00:00</time></trkpt><trkpt lat="34.9736582" lon="32.4058861"><ele>446.0</ele><time>2015-04-24T18:04:10.0000000+00:00</time></trkpt><trkpt lat="34.9737556" lon="32.405872"><ele>444.9</ele><time>2015-04-24T18:04:11.0000000+00:00</time></trkpt><trkpt lat="34.9738627" lon="32.4058459"><ele>443.9</ele><time>2015-04-24T18:04:12.0000000+00:00</time></trkpt><trkpt lat="34.9739681" lon="32.4058016"><ele>442.9</ele><time>2015-04-24T18:04:13.0000000+00:00</time></trkpt><trkpt lat="34.9740724" lon="32.405745"><ele>441.4</ele><time>2015-04-24T18:04:14.0000000+00:00</time></trkpt><trkpt lat="34.9741701" lon="32.4056839"><ele>440.2</ele><time>2015-04-24T18:04:15.0000000+00:00</time></trkpt><trkpt lat="34.9742715" lon="32.405624"><ele>439.1</ele><time>2015-04-24T18:04:16.0000000+00:00</time></trkpt><trkpt lat="34.9743836" lon="32.4055543"><ele>437.5</ele><time>2015-04-24T18:04:17.0000000+00:00</time></trkpt><trkpt lat="34.9744964" lon="32.4054948"><ele>436.2</ele><time>2015-04-24T18:04:18.0000000+00:00</time></trkpt><trkpt lat="34.9746016" lon="32.4054242"><ele>435.1</ele><time>2015-04-24T18:04:19.0000000+00:00</time></trkpt><trkpt lat="34.9747221" lon="32.4053516"><ele>434.0</ele><time>2015-04-24T18:04:20.0000000+00:00</time></trkpt><trkpt lat="34.9748364" lon="32.405283"><ele>432.5</ele><time>2015-04-24T18:04:21.0000000+00:00</time></trkpt><trkpt lat="34.9749403" lon="32.405229"><ele>431.2</ele><time>2015-04-24T18:04:22.0000000+00:00</time></trkpt><trkpt lat="34.9750556" lon="32.4051867"><ele>430.1</ele><time>2015-04-24T18:04:23.0000000+00:00</time></trkpt><trkpt lat="34.9751818" lon="32.4051595"><ele>429.0</ele><time>2015-04-24T18:04:24.0000000+00:00</time></trkpt><trkpt lat="34.9753147" lon="32.4051543"><ele>428.0</ele><time>2015-04-24T18:04:25.0000000+00:00</time></trkpt><trkpt lat="34.9754397" lon="32.4051843"><ele>426.4</ele><time>2015-04-24T18:04:26.0000000+00:00</time></trkpt><trkpt lat="34.9755474" lon="32.4052276"><ele>425.2</ele><time>2015-04-24T18:04:27.0000000+00:00</time></trkpt><trkpt lat="34.9756601" lon="32.4052713"><ele>424.6</ele><time>2015-04-24T18:04:28.0000000+00:00</time></trkpt><trkpt lat="34.9757723" lon="32.4053038"><ele>423.2</ele><time>2015-04-24T18:04:29.0000000+00:00</time></trkpt><trkpt lat="34.9758885" lon="32.4053219"><ele>422.1</ele><time>2015-04-24T18:04:30.0000000+00:00</time></trkpt><trkpt lat="34.9759962" lon="32.4053279"><ele>421.0</ele><time>2015-04-24T18:04:31.0000000+00:00</time></trkpt><trkpt lat="34.976112" lon="32.4053098"><ele>420.0</ele><time>2015-04-24T18:04:32.0000000+00:00</time></trkpt><trkpt lat="34.9762263" lon="32.4052648"><ele>418.9</ele><time>2015-04-24T18:04:33.0000000+00:00</time></trkpt><trkpt lat="34.9763424" lon="32.4052054"><ele>418.4</ele><time>2015-04-24T18:04:34.0000000+00:00</time></trkpt><trkpt lat="34.9764446" lon="32.4051445"><ele>417.7</ele><time>2015-04-24T18:04:35.0000000+00:00</time></trkpt><trkpt lat="34.9765577" lon="32.4050757"><ele>415.8</ele><time>2015-04-24T18:04:36.0000000+00:00</time></trkpt><trkpt lat="34.9766704" lon="32.4050191"><ele>414.9</ele><time>2015-04-24T18:04:37.0000000+00:00</time></trkpt><trkpt lat="34.9767725" lon="32.4049637"><ele>413.9</ele><time>2015-04-24T18:04:38.0000000+00:00</time></trkpt><trkpt lat="34.9768723" lon="32.4049"><ele>412.9</ele><time>2015-04-24T18:04:39.0000000+00:00</time></trkpt><trkpt lat="34.9769829" lon="32.4048261"><ele>411.9</ele><time>2015-04-24T18:04:40.0000000+00:00</time></trkpt><trkpt lat="34.9770919" lon="32.4047723"><ele>410.9</ele><time>2015-04-24T18:04:41.0000000+00:00</time></trkpt><trkpt lat="34.9771964" lon="32.4047229"><ele>409.9</ele><time>2015-04-24T18:04:42.0000000+00:00</time></trkpt><trkpt lat="34.9772948" lon="32.4046754"><ele>408.9</ele><time>2015-04-24T18:04:43.0000000+00:00</time></trkpt><trkpt lat="34.9774017" lon="32.4046427"><ele>407.9</ele><time>2015-04-24T18:04:44.0000000+00:00</time></trkpt><trkpt lat="34.9775055" lon="32.4046401"><ele>407.4</ele><time>2015-04-24T18:04:45.0000000+00:00</time></trkpt><trkpt lat="34.9776116" lon="32.4046787"><ele>407.2</ele><time>2015-04-24T18:04:46.0000000+00:00</time></trkpt><trkpt lat="34.9777112" lon="32.4047288"><ele>406.6</ele><time>2015-04-24T18:04:47.0000000+00:00</time></trkpt><trkpt lat="34.9778147" lon="32.4047925"><ele>405.7</ele><time>2015-04-24T18:04:48.0000000+00:00</time></trkpt><trkpt lat="34.977914" lon="32.404859"><ele>404.8</ele><time>2015-04-24T18:04:49.0000000+00:00</time></trkpt><trkpt lat="34.9780121" lon="32.4049259"><ele>404.4</ele><time>2015-04-24T18:04:50.0000000+00:00</time></trkpt><trkpt lat="34.9781177" lon="32.4049723"><ele>403.7</ele><time>2015-04-24T18:04:51.0000000+00:00</time></trkpt><trkpt lat="34.9782346" lon="32.4050093"><ele>402.8</ele><time>2015-04-24T18:04:52.0000000+00:00</time></trkpt><trkpt lat="34.9783493" lon="32.4050281"><ele>401.9</ele><time>2015-04-24T18:04:53.0000000+00:00</time></trkpt><trkpt lat="34.9784617" lon="32.4050442"><ele>400.9</ele><time>2015-04-24T18:04:54.0000000+00:00</time></trkpt><trkpt lat="34.9785606" lon="32.4050756"><ele>400.4</ele><time>2015-04-24T18:04:55.0000000+00:00</time></trkpt><trkpt lat="34.9786737" lon="32.4050974"><ele>400.2</ele><time>2015-04-24T18:04:56.0000000+00:00</time></trkpt><trkpt lat="34.9787783" lon="32.4051129"><ele>399.6</ele><time>2015-04-24T18:04:57.0000000+00:00</time></trkpt><trkpt lat="34.9788866" lon="32.4051291"><ele>399.2</ele><time>2015-04-24T18:04:58.0000000+00:00</time></trkpt><trkpt lat="34.97899" lon="32.4051489"><ele>398.6</ele><time>2015-04-24T18:04:59.0000000+00:00</time></trkpt><trkpt lat="34.9790975" lon="32.4051727"><ele>398.3</ele><time>2015-04-24T18:05:00.0000000+00:00</time></trkpt><trkpt lat="34.9791989" lon="32.4051936"><ele>398.1</ele><time>2015-04-24T18:05:01.0000000+00:00</time></trkpt><trkpt lat="34.9793026" lon="32.4052116"><ele>397.5</ele><time>2015-04-24T18:05:02.0000000+00:00</time></trkpt><trkpt lat="34.9794015" lon="32.4052314"><ele>396.7</ele><time>2015-04-24T18:05:03.0000000+00:00</time></trkpt><trkpt lat="34.9795054" lon="32.4052608"><ele>396.3</ele><time>2015-04-24T18:05:04.0000000+00:00</time></trkpt><trkpt lat="34.9795954" lon="32.405286"><ele>395.6</ele><time>2015-04-24T18:05:05.0000000+00:00</time></trkpt><trkpt lat="34.9796911" lon="32.4053006"><ele>395.3</ele><time>2015-04-24T18:05:06.0000000+00:00</time></trkpt><trkpt lat="34.979784" lon="32.4053176"><ele>394.6</ele><time>2015-04-24T18:05:07.0000000+00:00</time></trkpt><trkpt lat="34.9798843" lon="32.4053369"><ele>393.8</ele><time>2015-04-24T18:05:08.0000000+00:00</time></trkpt><trkpt lat="34.9799744" lon="32.405354"><ele>393.8</ele><time>2015-04-24T18:05:09.0000000+00:00</time></trkpt><trkpt lat="34.9800699" lon="32.4053729"><ele>393.9</ele><time>2015-04-24T18:05:10.0000000+00:00</time></trkpt><trkpt lat="34.9801653" lon="32.4053947"><ele>393.4</ele><time>2015-04-24T18:05:11.0000000+00:00</time></trkpt><trkpt lat="34.9802705" lon="32.4054099"><ele>392.7</ele><time>2015-04-24T18:05:12.0000000+00:00</time></trkpt><trkpt lat="34.9803729" lon="32.4054319"><ele>392.3</ele><time>2015-04-24T18:05:13.0000000+00:00</time></trkpt><trkpt lat="34.9804715" lon="32.4054502"><ele>392.1</ele><time>2015-04-24T18:05:14.0000000+00:00</time></trkpt><trkpt lat="34.9805623" lon="32.4054749"><ele>391.5</ele><time>2015-04-24T18:05:15.0000000+00:00</time></trkpt><trkpt lat="34.9806608" lon="32.4054978"><ele>390.7</ele><time>2015-04-24T18:05:16.0000000+00:00</time></trkpt><trkpt lat="34.980758" lon="32.4055207"><ele>389.8</ele><time>2015-04-24T18:05:17.0000000+00:00</time></trkpt><trkpt lat="34.9808517" lon="32.4055406"><ele>389.4</ele><time>2015-04-24T18:05:18.0000000+00:00</time></trkpt><trkpt lat="34.9809458" lon="32.4055612"><ele>389.2</ele><time>2015-04-24T18:05:19.0000000+00:00</time></trkpt><trkpt lat="34.9810398" lon="32.4055814"><ele>389.0</ele><time>2015-04-24T18:05:20.0000000+00:00</time></trkpt><trkpt lat="34.9811375" lon="32.405605"><ele>388.5</ele><time>2015-04-24T18:05:21.0000000+00:00</time></trkpt><trkpt lat="34.9812359" lon="32.4056241"><ele>388.2</ele><time>2015-04-24T18:05:22.0000000+00:00</time></trkpt><trkpt lat="34.9813259" lon="32.4056409"><ele>388.1</ele><time>2015-04-24T18:05:23.0000000+00:00</time></trkpt><trkpt lat="34.981427" lon="32.4056543"><ele>388.5</ele><time>2015-04-24T18:05:24.0000000+00:00</time></trkpt><trkpt lat="34.9815264" lon="32.4056747"><ele>388.7</ele><time>2015-04-24T18:05:25.0000000+00:00</time></trkpt><trkpt lat="34.9816224" lon="32.4056955"><ele>388.8</ele><time>2015-04-24T18:05:26.0000000+00:00</time></trkpt><trkpt lat="34.9817138" lon="32.4057164"><ele>388.4</ele><time>2015-04-24T18:05:27.0000000+00:00</time></trkpt><trkpt lat="34.9818095" lon="32.4057396"><ele>388.7</ele><time>2015-04-24T18:05:28.0000000+00:00</time></trkpt><trkpt lat="34.9819125" lon="32.4057568"><ele>388.3</ele><time>2015-04-24T18:05:29.0000000+00:00</time></trkpt><trkpt lat="34.9820086" lon="32.405779"><ele>388.1</ele><time>2015-04-24T18:05:30.0000000+00:00</time></trkpt><trkpt lat="34.982096" lon="32.4058011"><ele>388.0</ele><time>2015-04-24T18:05:31.0000000+00:00</time></trkpt><trkpt lat="34.9821954" lon="32.4058229"><ele>387.5</ele><time>2015-04-24T18:05:32.0000000+00:00</time></trkpt><trkpt lat="34.9822909" lon="32.4058427"><ele>387.2</ele><time>2015-04-24T18:05:33.0000000+00:00</time></trkpt><trkpt lat="34.982386" lon="32.4058614"><ele>387.6</ele><time>2015-04-24T18:05:34.0000000+00:00</time></trkpt><trkpt lat="34.982476" lon="32.4058767"><ele>387.7</ele><time>2015-04-24T18:05:35.0000000+00:00</time></trkpt><trkpt lat="34.9825675" lon="32.4059013"><ele>387.3</ele><time>2015-04-24T18:05:36.0000000+00:00</time></trkpt><trkpt lat="34.9826526" lon="32.4059174"><ele>387.1</ele><time>2015-04-24T18:05:37.0000000+00:00</time></trkpt><trkpt lat="34.9827388" lon="32.4059362"><ele>386.5</ele><time>2015-04-24T18:05:38.0000000+00:00</time></trkpt><trkpt lat="34.9828292" lon="32.4059523"><ele>385.7</ele><time>2015-04-24T18:05:39.0000000+00:00</time></trkpt><trkpt lat="34.9829136" lon="32.4059529"><ele>385.3</ele><time>2015-04-24T18:05:40.0000000+00:00</time></trkpt><trkpt lat="34.9830022" lon="32.4059464"><ele>385.1</ele><time>2015-04-24T18:05:41.0000000+00:00</time></trkpt><trkpt lat="34.9830893" lon="32.4059532"><ele>385.0</ele><time>2015-04-24T18:05:42.0000000+00:00</time></trkpt><trkpt lat="34.983175" lon="32.4059641"><ele>385.0</ele><time>2015-04-24T18:05:43.0000000+00:00</time></trkpt><trkpt lat="34.9832647" lon="32.4059771"><ele>384.5</ele><time>2015-04-24T18:05:44.0000000+00:00</time></trkpt><trkpt lat="34.9833514" lon="32.4059826"><ele>383.7</ele><time>2015-04-24T18:05:45.0000000+00:00</time></trkpt><trkpt lat="34.9834344" lon="32.4059888"><ele>383.3</ele><time>2015-04-24T18:05:46.0000000+00:00</time></trkpt><trkpt lat="34.9835178" lon="32.4060013"><ele>383.1</ele><time>2015-04-24T18:05:47.0000000+00:00</time></trkpt><trkpt lat="34.983611" lon="32.4060002"><ele>383.0</ele><time>2015-04-24T18:05:48.0000000+00:00</time></trkpt><trkpt lat="34.9836959" lon="32.4060084"><ele>382.5</ele><time>2015-04-24T18:05:49.0000000+00:00</time></trkpt><trkpt lat="34.9837832" lon="32.4060141"><ele>382.2</ele><time>2015-04-24T18:05:50.0000000+00:00</time></trkpt><trkpt lat="34.9838646" lon="32.4060219"><ele>382.1</ele><time>2015-04-24T18:05:51.0000000+00:00</time></trkpt><trkpt lat="34.9839575" lon="32.4060225"><ele>381.5</ele><time>2015-04-24T18:05:52.0000000+00:00</time></trkpt><trkpt lat="34.984044" lon="32.4060258"><ele>381.2</ele><time>2015-04-24T18:05:53.0000000+00:00</time></trkpt><trkpt lat="34.9841326" lon="32.4060384"><ele>381.1</ele><time>2015-04-24T18:05:54.0000000+00:00</time></trkpt><trkpt lat="34.9842234" lon="32.4060416"><ele>380.5</ele><time>2015-04-24T18:05:55.0000000+00:00</time></trkpt><trkpt lat="34.984317" lon="32.4060425"><ele>380.2</ele><time>2015-04-24T18:05:56.0000000+00:00</time></trkpt><trkpt lat="34.9844073" lon="32.40605"><ele>379.6</ele><time>2015-04-24T18:05:57.0000000+00:00</time></trkpt><trkpt lat="34.9844994" lon="32.4060559"><ele>379.3</ele><time>2015-04-24T18:05:58.0000000+00:00</time></trkpt><trkpt lat="34.9845919" lon="32.4060686"><ele>379.1</ele><time>2015-04-24T18:05:59.0000000+00:00</time></trkpt><trkpt lat="34.9846943" lon="32.4060773"><ele>378.5</ele><time>2015-04-24T18:06:00.0000000+00:00</time></trkpt><trkpt lat="34.9847923" lon="32.4060803"><ele>378.2</ele><time>2015-04-24T18:06:01.0000000+00:00</time></trkpt><trkpt lat="34.9848866" lon="32.4060838"><ele>377.6</ele><time>2015-04-24T18:06:02.0000000+00:00</time></trkpt><trkpt lat="34.9849813" lon="32.4060869"><ele>376.8</ele><time>2015-04-24T18:06:03.0000000+00:00</time></trkpt><trkpt lat="34.9850822" lon="32.4061004"><ele>376.3</ele><time>2015-04-24T18:06:04.0000000+00:00</time></trkpt><trkpt lat="34.9851807" lon="32.4061113"><ele>376.1</ele><time>2015-04-24T18:06:05.0000000+00:00</time></trkpt><trkpt lat="34.985284" lon="32.4061159"><ele>375.5</ele><time>2015-04-24T18:06:06.0000000+00:00</time></trkpt><trkpt lat="34.9853789" lon="32.4061246"><ele>375.2</ele><time>2015-04-24T18:06:07.0000000+00:00</time></trkpt><trkpt lat="34.9854863" lon="32.4061346"><ele>374.6</ele><time>2015-04-24T18:06:08.0000000+00:00</time></trkpt><trkpt lat="34.9855929" lon="32.4061418"><ele>373.8</ele><time>2015-04-24T18:06:09.0000000+00:00</time></trkpt><trkpt lat="34.9857009" lon="32.4061457"><ele>372.8</ele><time>2015-04-24T18:06:10.0000000+00:00</time></trkpt><trkpt lat="34.9858071" lon="32.4061517"><ele>371.9</ele><time>2015-04-24T18:06:11.0000000+00:00</time></trkpt><trkpt lat="34.9859243" lon="32.4061637"><ele>370.9</ele><time>2015-04-24T18:06:12.0000000+00:00</time></trkpt><trkpt lat="34.9860329" lon="32.4061677"><ele>369.9</ele><time>2015-04-24T18:06:13.0000000+00:00</time></trkpt><trkpt lat="34.986148" lon="32.4061688"><ele>368.9</ele><time>2015-04-24T18:06:14.0000000+00:00</time></trkpt><trkpt lat="34.986262" lon="32.4061743"><ele>368.4</ele><time>2015-04-24T18:06:15.0000000+00:00</time></trkpt><trkpt lat="34.9863852" lon="32.4061839"><ele>367.7</ele><time>2015-04-24T18:06:16.0000000+00:00</time></trkpt><trkpt lat="34.9865002" lon="32.4061928"><ele>366.8</ele><time>2015-04-24T18:06:17.0000000+00:00</time></trkpt><trkpt lat="34.986618" lon="32.4062021"><ele>365.9</ele><time>2015-04-24T18:06:18.0000000+00:00</time></trkpt><trkpt lat="34.9867328" lon="32.4062078"><ele>364.9</ele><time>2015-04-24T18:06:19.0000000+00:00</time></trkpt><trkpt lat="34.9868611" lon="32.406218"><ele>363.9</ele><time>2015-04-24T18:06:20.0000000+00:00</time></trkpt><trkpt lat="34.9869744" lon="32.4062059"><ele>362.9</ele><time>2015-04-24T18:06:21.0000000+00:00</time></trkpt><trkpt lat="34.9870781" lon="32.4061827"><ele>361.9</ele><time>2015-04-24T18:06:22.0000000+00:00</time></trkpt><trkpt lat="34.987174" lon="32.4061576"><ele>361.4</ele><time>2015-04-24T18:06:23.0000000+00:00</time></trkpt><trkpt lat="34.9872715" lon="32.4061274"><ele>360.7</ele><time>2015-04-24T18:06:24.0000000+00:00</time></trkpt><trkpt lat="34.9873667" lon="32.4060932"><ele>360.3</ele><time>2015-04-24T18:06:25.0000000+00:00</time></trkpt><trkpt lat="34.9874663" lon="32.4060626"><ele>360.1</ele><time>2015-04-24T18:06:26.0000000+00:00</time></trkpt><trkpt lat="34.9875669" lon="32.4060302"><ele>359.5</ele><time>2015-04-24T18:06:27.0000000+00:00</time></trkpt><trkpt lat="34.987673" lon="32.4059876"><ele>358.7</ele><time>2015-04-24T18:06:28.0000000+00:00</time></trkpt><trkpt lat="34.9877761" lon="32.4059485"><ele>357.8</ele><time>2015-04-24T18:06:29.0000000+00:00</time></trkpt><trkpt lat="34.9878825" lon="32.4059048"><ele>356.9</ele><time>2015-04-24T18:06:30.0000000+00:00</time></trkpt><trkpt lat="34.9879816" lon="32.4058653"><ele>355.9</ele><time>2015-04-24T18:06:31.0000000+00:00</time></trkpt><trkpt lat="34.9880915" lon="32.405818"><ele>355.4</ele><time>2015-04-24T18:06:32.0000000+00:00</time></trkpt><trkpt lat="34.9882025" lon="32.4057768"><ele>354.7</ele><time>2015-04-24T18:06:33.0000000+00:00</time></trkpt><trkpt lat="34.988308" lon="32.4057403"><ele>353.8</ele><time>2015-04-24T18:06:34.0000000+00:00</time></trkpt><trkpt lat="34.9884093" lon="32.405715"><ele>353.4</ele><time>2015-04-24T18:06:35.0000000+00:00</time></trkpt><trkpt lat="34.9885226" lon="32.4057035"><ele>352.6</ele><time>2015-04-24T18:06:36.0000000+00:00</time></trkpt><trkpt lat="34.988639" lon="32.4057049"><ele>352.3</ele><time>2015-04-24T18:06:37.0000000+00:00</time></trkpt><trkpt lat="34.9887539" lon="32.4056984"><ele>351.6</ele><time>2015-04-24T18:06:38.0000000+00:00</time></trkpt><trkpt lat="34.9888628" lon="32.4057048"><ele>351.3</ele><time>2015-04-24T18:06:39.0000000+00:00</time></trkpt><trkpt lat="34.9889825" lon="32.4057124"><ele>350.6</ele><time>2015-04-24T18:06:40.0000000+00:00</time></trkpt><trkpt lat="34.9890973" lon="32.4057366"><ele>349.8</ele><time>2015-04-24T18:06:41.0000000+00:00</time></trkpt><trkpt lat="34.989208" lon="32.405774"><ele>348.8</ele><time>2015-04-24T18:06:42.0000000+00:00</time></trkpt><trkpt lat="34.9893185" lon="32.4058135"><ele>347.9</ele><time>2015-04-24T18:06:43.0000000+00:00</time></trkpt><trkpt lat="34.9894347" lon="32.4058396"><ele>346.9</ele><time>2015-04-24T18:06:44.0000000+00:00</time></trkpt><trkpt lat="34.9895469" lon="32.4058608"><ele>346.4</ele><time>2015-04-24T18:06:45.0000000+00:00</time></trkpt><trkpt lat="34.9896587" lon="32.4058882"><ele>345.7</ele><time>2015-04-24T18:06:46.0000000+00:00</time></trkpt><trkpt lat="34.9897669" lon="32.4059186"><ele>345.3</ele><time>2015-04-24T18:06:47.0000000+00:00</time></trkpt><trkpt lat="34.989882" lon="32.4059505"><ele>344.6</ele><time>2015-04-24T18:06:48.0000000+00:00</time></trkpt><trkpt lat="34.98999" lon="32.405978"><ele>344.3</ele><time>2015-04-24T18:06:49.0000000+00:00</time></trkpt><trkpt lat="34.9900994" lon="32.4060106"><ele>343.6</ele><time>2015-04-24T18:06:50.0000000+00:00</time></trkpt><trkpt lat="34.9902054" lon="32.4060377"><ele>343.3</ele><time>2015-04-24T18:06:51.0000000+00:00</time></trkpt><trkpt lat="34.9903176" lon="32.406067"><ele>342.6</ele><time>2015-04-24T18:06:52.0000000+00:00</time></trkpt><trkpt lat="34.9904291" lon="32.4060861"><ele>342.3</ele><time>2015-04-24T18:06:53.0000000+00:00</time></trkpt><trkpt lat="34.9905252" lon="32.4061081"><ele>341.6</ele><time>2015-04-24T18:06:54.0000000+00:00</time></trkpt><trkpt lat="34.9905983" lon="32.406125"><ele>341.3</ele><time>2015-04-24T18:06:55.0000000+00:00</time></trkpt><trkpt lat="34.9906778" lon="32.4061365"><ele>341.1</ele><time>2015-04-24T18:06:56.0000000+00:00</time></trkpt><trkpt lat="34.990761" lon="32.4061346"><ele>341.0</ele><time>2015-04-24T18:06:57.0000000+00:00</time></trkpt><trkpt lat="34.9908513" lon="32.406125"><ele>340.0</ele><time>2015-04-24T18:06:58.0000000+00:00</time></trkpt><trkpt lat="34.9909348" lon="32.4061105"><ele>339.5</ele><time>2015-04-24T18:06:59.0000000+00:00</time></trkpt><trkpt lat="34.9910239" lon="32.4060874"><ele>339.2</ele><time>2015-04-24T18:07:00.0000000+00:00</time></trkpt><trkpt lat="34.9911066" lon="32.4060571"><ele>339.1</ele><time>2015-04-24T18:07:01.0000000+00:00</time></trkpt><trkpt lat="34.9911938" lon="32.4060165"><ele>338.5</ele><time>2015-04-24T18:07:02.0000000+00:00</time></trkpt><trkpt lat="34.9912773" lon="32.4059584"><ele>338.2</ele><time>2015-04-24T18:07:03.0000000+00:00</time></trkpt><trkpt lat="34.9913569" lon="32.4058858"><ele>337.6</ele><time>2015-04-24T18:07:04.0000000+00:00</time></trkpt><trkpt lat="34.99143" lon="32.4058179"><ele>336.3</ele><time>2015-04-24T18:07:05.0000000+00:00</time></trkpt><trkpt lat="34.9915033" lon="32.4057423"><ele>335.6</ele><time>2015-04-24T18:07:06.0000000+00:00</time></trkpt><trkpt lat="34.9915758" lon="32.4056675"><ele>334.8</ele><time>2015-04-24T18:07:07.0000000+00:00</time></trkpt><trkpt lat="34.9916486" lon="32.4055826"><ele>333.8</ele><time>2015-04-24T18:07:08.0000000+00:00</time></trkpt><trkpt lat="34.9917156" lon="32.4054987"><ele>332.9</ele><time>2015-04-24T18:07:09.0000000+00:00</time></trkpt><trkpt lat="34.9917865" lon="32.4054187"><ele>332.4</ele><time>2015-04-24T18:07:10.0000000+00:00</time></trkpt><trkpt lat="34.9918564" lon="32.4053402"><ele>331.7</ele><time>2015-04-24T18:07:11.0000000+00:00</time></trkpt><trkpt lat="34.99193" lon="32.4052547"><ele>330.8</ele><time>2015-04-24T18:07:12.0000000+00:00</time></trkpt><trkpt lat="34.992007" lon="32.405171"><ele>329.9</ele><time>2015-04-24T18:07:13.0000000+00:00</time></trkpt><trkpt lat="34.9920839" lon="32.405079"><ele>328.9</ele><time>2015-04-24T18:07:14.0000000+00:00</time></trkpt><trkpt lat="34.992165" lon="32.4049875"><ele>327.9</ele><time>2015-04-24T18:07:15.0000000+00:00</time></trkpt><trkpt lat="34.9922477" lon="32.4048935"><ele>326.9</ele><time>2015-04-24T18:07:16.0000000+00:00</time></trkpt><trkpt lat="34.9923354" lon="32.4048145"><ele>325.9</ele><time>2015-04-24T18:07:17.0000000+00:00</time></trkpt><trkpt lat="34.992436" lon="32.4047481"><ele>324.9</ele><time>2015-04-24T18:07:18.0000000+00:00</time></trkpt><trkpt lat="34.9925366" lon="32.4046902"><ele>323.9</ele><time>2015-04-24T18:07:19.0000000+00:00</time></trkpt><trkpt lat="34.9926499" lon="32.4046281"><ele>322.9</ele><time>2015-04-24T18:07:20.0000000+00:00</time></trkpt><trkpt lat="34.992763" lon="32.4045765"><ele>321.9</ele><time>2015-04-24T18:07:21.0000000+00:00</time></trkpt><trkpt lat="34.9928782" lon="32.4045377"><ele>320.9</ele><time>2015-04-24T18:07:22.0000000+00:00</time></trkpt><trkpt lat="34.9929932" lon="32.4045038"><ele>319.9</ele><time>2015-04-24T18:07:23.0000000+00:00</time></trkpt><trkpt lat="34.9931147" lon="32.4044761"><ele>319.4</ele><time>2015-04-24T18:07:24.0000000+00:00</time></trkpt><trkpt lat="34.993237" lon="32.4044627"><ele>318.7</ele><time>2015-04-24T18:07:25.0000000+00:00</time></trkpt><trkpt lat="34.993363" lon="32.4044539"><ele>317.8</ele><time>2015-04-24T18:07:26.0000000+00:00</time></trkpt><trkpt lat="34.9934819" lon="32.4044443"><ele>316.9</ele><time>2015-04-24T18:07:27.0000000+00:00</time></trkpt><trkpt lat="34.9936" lon="32.4044441"><ele>315.9</ele><time>2015-04-24T18:07:28.0000000+00:00</time></trkpt><trkpt lat="34.9936954" lon="32.4044346"><ele>314.9</ele><time>2015-04-24T18:07:29.0000000+00:00</time></trkpt><trkpt lat="34.993788" lon="32.4044288"><ele>314.4</ele><time>2015-04-24T18:07:30.0000000+00:00</time></trkpt><trkpt lat="34.9938604" lon="32.4044293"><ele>313.7</ele><time>2015-04-24T18:07:31.0000000+00:00</time></trkpt><trkpt lat="34.9939412" lon="32.4044311"><ele>312.8</ele><time>2015-04-24T18:07:32.0000000+00:00</time></trkpt><trkpt lat="34.9940397" lon="32.4044396"><ele>312.4</ele><time>2015-04-24T18:07:33.0000000+00:00</time></trkpt><trkpt lat="34.9941312" lon="32.4044453"><ele>311.6</ele><time>2015-04-24T18:07:34.0000000+00:00</time></trkpt><trkpt lat="34.994229" lon="32.4044545"><ele>310.8</ele><time>2015-04-24T18:07:35.0000000+00:00</time></trkpt><trkpt lat="34.9943406" lon="32.4044701"><ele>309.4</ele><time>2015-04-24T18:07:36.0000000+00:00</time></trkpt><trkpt lat="34.9944372" lon="32.4044908"><ele>308.6</ele><time>2015-04-24T18:07:37.0000000+00:00</time></trkpt><trkpt lat="34.9945472" lon="32.4045138"><ele>307.8</ele><time>2015-04-24T18:07:38.0000000+00:00</time></trkpt><trkpt lat="34.9946576" lon="32.4045325"><ele>307.4</ele><time>2015-04-24T18:07:39.0000000+00:00</time></trkpt><trkpt lat="34.9947817" lon="32.4045638"><ele>306.6</ele><time>2015-04-24T18:07:40.0000000+00:00</time></trkpt><trkpt lat="34.9949002" lon="32.4045899"><ele>306.3</ele><time>2015-04-24T18:07:41.0000000+00:00</time></trkpt><trkpt lat="34.995025" lon="32.404614"><ele>305.1</ele><time>2015-04-24T18:07:42.0000000+00:00</time></trkpt><trkpt lat="34.9951502" lon="32.4046447"><ele>303.5</ele><time>2015-04-24T18:07:43.0000000+00:00</time></trkpt><trkpt lat="34.9952828" lon="32.4046692"><ele>302.2</ele><time>2015-04-24T18:07:44.0000000+00:00</time></trkpt><trkpt lat="34.995418" lon="32.4046964"><ele>300.6</ele><time>2015-04-24T18:07:45.0000000+00:00</time></trkpt><trkpt lat="34.9955496" lon="32.4047272"><ele>298.8</ele><time>2015-04-24T18:07:46.0000000+00:00</time></trkpt><trkpt lat="34.9956769" lon="32.4047542"><ele>297.3</ele><time>2015-04-24T18:07:47.0000000+00:00</time></trkpt><trkpt lat="34.9958052" lon="32.4047806"><ele>296.6</ele><time>2015-04-24T18:07:48.0000000+00:00</time></trkpt><trkpt lat="34.9959372" lon="32.4048056"><ele>295.3</ele><time>2015-04-24T18:07:49.0000000+00:00</time></trkpt><trkpt lat="34.9960732" lon="32.4048283"><ele>294.1</ele><time>2015-04-24T18:07:50.0000000+00:00</time></trkpt><trkpt lat="34.9962075" lon="32.4048496"><ele>293.0</ele><time>2015-04-24T18:07:51.0000000+00:00</time></trkpt><trkpt lat="34.9963518" lon="32.4048735"><ele>292.0</ele><time>2015-04-24T18:07:52.0000000+00:00</time></trkpt><trkpt lat="34.9964872" lon="32.4048938"><ele>291.0</ele><time>2015-04-24T18:07:53.0000000+00:00</time></trkpt><trkpt lat="34.9966346" lon="32.4049042"><ele>289.9</ele><time>2015-04-24T18:07:54.0000000+00:00</time></trkpt><trkpt lat="34.9967749" lon="32.4048988"><ele>288.9</ele><time>2015-04-24T18:07:55.0000000+00:00</time></trkpt><trkpt lat="34.9969281" lon="32.4048993"><ele>287.4</ele><time>2015-04-24T18:07:56.0000000+00:00</time></trkpt><trkpt lat="34.9970719" lon="32.4048849"><ele>286.2</ele><time>2015-04-24T18:07:57.0000000+00:00</time></trkpt><trkpt lat="34.9972206" lon="32.404867"><ele>284.6</ele><time>2015-04-24T18:07:58.0000000+00:00</time></trkpt><trkpt lat="34.997363" lon="32.4048503"><ele>283.2</ele><time>2015-04-24T18:07:59.0000000+00:00</time></trkpt><trkpt lat="34.9974919" lon="32.4048141"><ele>281.6</ele><time>2015-04-24T18:08:00.0000000+00:00</time></trkpt><trkpt lat="34.9976024" lon="32.4047833"><ele>280.8</ele><time>2015-04-24T18:08:01.0000000+00:00</time></trkpt><trkpt lat="34.99772" lon="32.4047499"><ele>279.8</ele><time>2015-04-24T18:08:02.0000000+00:00</time></trkpt><trkpt lat="34.9978358" lon="32.404727"><ele>279.4</ele><time>2015-04-24T18:08:03.0000000+00:00</time></trkpt><trkpt lat="34.9979618" lon="32.4046773"><ele>277.7</ele><time>2015-04-24T18:08:04.0000000+00:00</time></trkpt><trkpt lat="34.9980833" lon="32.4046229"><ele>276.3</ele><time>2015-04-24T18:08:05.0000000+00:00</time></trkpt><trkpt lat="34.9981922" lon="32.4045818"><ele>275.1</ele><time>2015-04-24T18:08:06.0000000+00:00</time></trkpt><trkpt lat="34.9982859" lon="32.4045477"><ele>274.0</ele><time>2015-04-24T18:08:07.0000000+00:00</time></trkpt><trkpt lat="34.9983796" lon="32.4045073"><ele>273.0</ele><time>2015-04-24T18:08:08.0000000+00:00</time></trkpt><trkpt lat="34.9984668" lon="32.4044723"><ele>272.0</ele><time>2015-04-24T18:08:09.0000000+00:00</time></trkpt><trkpt lat="34.9985447" lon="32.4044389"><ele>271.4</ele><time>2015-04-24T18:08:10.0000000+00:00</time></trkpt><trkpt lat="34.9986268" lon="32.4044139"><ele>270.7</ele><time>2015-04-24T18:08:11.0000000+00:00</time></trkpt><trkpt lat="34.9987168" lon="32.4043897"><ele>270.3</ele><time>2015-04-24T18:08:12.0000000+00:00</time></trkpt><trkpt lat="34.9987981" lon="32.4043693"><ele>269.6</ele><time>2015-04-24T18:08:13.0000000+00:00</time></trkpt><trkpt lat="34.9988859" lon="32.4043359"><ele>268.8</ele><time>2015-04-24T18:08:14.0000000+00:00</time></trkpt><trkpt lat="34.998975" lon="32.4043037"><ele>267.9</ele><time>2015-04-24T18:08:15.0000000+00:00</time></trkpt><trkpt lat="34.9990696" lon="32.4042737"><ele>266.9</ele><time>2015-04-24T18:08:16.0000000+00:00</time></trkpt><trkpt lat="34.9991654" lon="32.4042523"><ele>265.9</ele><time>2015-04-24T18:08:17.0000000+00:00</time></trkpt><trkpt lat="34.9992699" lon="32.4042326"><ele>264.9</ele><time>2015-04-24T18:08:18.0000000+00:00</time></trkpt><trkpt lat="34.9993707" lon="32.4042107"><ele>263.4</ele><time>2015-04-24T18:08:19.0000000+00:00</time></trkpt><trkpt lat="34.9994864" lon="32.4042099"><ele>261.7</ele><time>2015-04-24T18:08:20.0000000+00:00</time></trkpt><trkpt lat="34.999598" lon="32.4042068"><ele>260.3</ele><time>2015-04-24T18:08:21.0000000+00:00</time></trkpt><trkpt lat="34.9997124" lon="32.4042081"><ele>259.1</ele><time>2015-04-24T18:08:22.0000000+00:00</time></trkpt><trkpt lat="34.9998245" lon="32.4042124"><ele>258.0</ele><time>2015-04-24T18:08:23.0000000+00:00</time></trkpt><trkpt lat="34.999943" lon="32.4042138"><ele>257.0</ele><time>2015-04-24T18:08:24.0000000+00:00</time></trkpt><trkpt lat="35.0000647" lon="32.4042172"><ele>255.5</ele><time>2015-04-24T18:08:25.0000000+00:00</time></trkpt><trkpt lat="35.0001837" lon="32.4042244"><ele>254.2</ele><time>2015-04-24T18:08:26.0000000+00:00</time></trkpt><trkpt lat="35.0002918" lon="32.4042416"><ele>253.1</ele><time>2015-04-24T18:08:27.0000000+00:00</time></trkpt><trkpt lat="35.0003941" lon="32.4042624"><ele>251.5</ele><time>2015-04-24T18:08:28.0000000+00:00</time></trkpt><trkpt lat="35.0004954" lon="32.4042912"><ele>250.2</ele><time>2015-04-24T18:08:29.0000000+00:00</time></trkpt><trkpt lat="35.0005925" lon="32.4043276"><ele>248.6</ele><time>2015-04-24T18:08:30.0000000+00:00</time></trkpt><trkpt lat="35.0006857" lon="32.4043665"><ele>247.3</ele><time>2015-04-24T18:08:31.0000000+00:00</time></trkpt><trkpt lat="35.0007798" lon="32.4044054"><ele>246.1</ele><time>2015-04-24T18:08:32.0000000+00:00</time></trkpt><trkpt lat="35.0008691" lon="32.4044485"><ele>245.0</ele><time>2015-04-24T18:08:33.0000000+00:00</time></trkpt><trkpt lat="35.0009599" lon="32.4044959"><ele>244.5</ele><time>2015-04-24T18:08:34.0000000+00:00</time></trkpt><trkpt lat="35.0010455" lon="32.40454"><ele>243.7</ele><time>2015-04-24T18:08:35.0000000+00:00</time></trkpt><trkpt lat="35.0011317" lon="32.4045881"><ele>243.3</ele><time>2015-04-24T18:08:36.0000000+00:00</time></trkpt><trkpt lat="35.00122" lon="32.4046268"><ele>242.6</ele><time>2015-04-24T18:08:37.0000000+00:00</time></trkpt><trkpt lat="35.0013062" lon="32.4046577"><ele>241.8</ele><time>2015-04-24T18:08:38.0000000+00:00</time></trkpt><trkpt lat="35.0014001" lon="32.4046914"><ele>240.4</ele><time>2015-04-24T18:08:39.0000000+00:00</time></trkpt><trkpt lat="35.0014993" lon="32.4047155"><ele>239.6</ele><time>2015-04-24T18:08:40.0000000+00:00</time></trkpt><trkpt lat="35.0016039" lon="32.404746"><ele>238.8</ele><time>2015-04-24T18:08:41.0000000+00:00</time></trkpt><trkpt lat="35.0017031" lon="32.4047659"><ele>238.4</ele><time>2015-04-24T18:08:42.0000000+00:00</time></trkpt><trkpt lat="35.0018013" lon="32.4047726"><ele>238.1</ele><time>2015-04-24T18:08:43.0000000+00:00</time></trkpt><trkpt lat="35.0019117" lon="32.4047764"><ele>237.0</ele><time>2015-04-24T18:08:44.0000000+00:00</time></trkpt><trkpt lat="35.0020218" lon="32.4047655"><ele>236.5</ele><time>2015-04-24T18:08:45.0000000+00:00</time></trkpt><trkpt lat="35.0021287" lon="32.4047545"><ele>235.7</ele><time>2015-04-24T18:08:46.0000000+00:00</time></trkpt><trkpt lat="35.0022348" lon="32.4047426"><ele>234.8</ele><time>2015-04-24T18:08:47.0000000+00:00</time></trkpt><trkpt lat="35.0023412" lon="32.4047164"><ele>234.4</ele><time>2015-04-24T18:08:48.0000000+00:00</time></trkpt><trkpt lat="35.0024494" lon="32.4046934"><ele>234.2</ele><time>2015-04-24T18:08:49.0000000+00:00</time></trkpt><trkpt lat="35.002559" lon="32.4046661"><ele>234.0</ele><time>2015-04-24T18:08:50.0000000+00:00</time></trkpt><trkpt lat="35.0026583" lon="32.404614"><ele>233.5</ele><time>2015-04-24T18:08:51.0000000+00:00</time></trkpt><trkpt lat="35.0027769" lon="32.4045731"><ele>233.7</ele><time>2015-04-24T18:08:52.0000000+00:00</time></trkpt><trkpt lat="35.0028862" lon="32.4045248"><ele>233.3</ele><time>2015-04-24T18:08:53.0000000+00:00</time></trkpt><trkpt lat="35.0029839" lon="32.4044536"><ele>232.6</ele><time>2015-04-24T18:08:54.0000000+00:00</time></trkpt><trkpt lat="35.003086" lon="32.4043897"><ele>231.8</ele><time>2015-04-24T18:08:55.0000000+00:00</time></trkpt><trkpt lat="35.0031909" lon="32.4043333"><ele>229.4</ele><time>2015-04-24T18:08:56.0000000+00:00</time></trkpt><trkpt lat="35.0032929" lon="32.404286"><ele>227.6</ele><time>2015-04-24T18:08:57.0000000+00:00</time></trkpt><trkpt lat="35.0033933" lon="32.4042251"><ele>226.8</ele><time>2015-04-24T18:08:58.0000000+00:00</time></trkpt><trkpt lat="35.0035004" lon="32.4041687"><ele>225.4</ele><time>2015-04-24T18:08:59.0000000+00:00</time></trkpt><trkpt lat="35.0036143" lon="32.404105"><ele>223.1</ele><time>2015-04-24T18:09:00.0000000+00:00</time></trkpt><trkpt lat="35.0037258" lon="32.4040479"><ele>221.5</ele><time>2015-04-24T18:09:01.0000000+00:00</time></trkpt><trkpt lat="35.0038449" lon="32.403985"><ele>219.7</ele><time>2015-04-24T18:09:02.0000000+00:00</time></trkpt><trkpt lat="35.00396" lon="32.4039367"><ele>217.8</ele><time>2015-04-24T18:09:03.0000000+00:00</time></trkpt><trkpt lat="35.0040848" lon="32.4038837"><ele>216.9</ele><time>2015-04-24T18:09:04.0000000+00:00</time></trkpt><trkpt lat="35.0042055" lon="32.4038281"><ele>215.9</ele><time>2015-04-24T18:09:05.0000000+00:00</time></trkpt><trkpt lat="35.0043172" lon="32.4037734"><ele>214.9</ele><time>2015-04-24T18:09:06.0000000+00:00</time></trkpt><trkpt lat="35.0044323" lon="32.4037317"><ele>213.9</ele><time>2015-04-24T18:09:07.0000000+00:00</time></trkpt><trkpt lat="35.0045591" lon="32.4036991"><ele>212.4</ele><time>2015-04-24T18:09:08.0000000+00:00</time></trkpt><trkpt lat="35.0046852" lon="32.4036777"><ele>211.2</ele><time>2015-04-24T18:09:09.0000000+00:00</time></trkpt><trkpt lat="35.0048112" lon="32.4036692"><ele>209.6</ele><time>2015-04-24T18:09:10.0000000+00:00</time></trkpt><trkpt lat="35.0049387" lon="32.4036651"><ele>208.2</ele><time>2015-04-24T18:09:11.0000000+00:00</time></trkpt><trkpt lat="35.0050785" lon="32.4036842"><ele>207.1</ele><time>2015-04-24T18:09:12.0000000+00:00</time></trkpt><trkpt lat="35.0052072" lon="32.4037097"><ele>206.0</ele><time>2015-04-24T18:09:13.0000000+00:00</time></trkpt><trkpt lat="35.0053368" lon="32.4037322"><ele>205.0</ele><time>2015-04-24T18:09:14.0000000+00:00</time></trkpt><trkpt lat="35.0054658" lon="32.40377"><ele>203.4</ele><time>2015-04-24T18:09:15.0000000+00:00</time></trkpt><trkpt lat="35.0056043" lon="32.40381"><ele>202.2</ele><time>2015-04-24T18:09:16.0000000+00:00</time></trkpt><trkpt lat="35.0057377" lon="32.4038578"><ele>200.6</ele><time>2015-04-24T18:09:17.0000000+00:00</time></trkpt><trkpt lat="35.0058725" lon="32.4039041"><ele>199.2</ele><time>2015-04-24T18:09:18.0000000+00:00</time></trkpt><trkpt lat="35.0060019" lon="32.4039544"><ele>198.1</ele><time>2015-04-24T18:09:19.0000000+00:00</time></trkpt><trkpt lat="35.0061358" lon="32.404011"><ele>197.0</ele><time>2015-04-24T18:09:20.0000000+00:00</time></trkpt><trkpt lat="35.0062672" lon="32.4040636"><ele>195.5</ele><time>2015-04-24T18:09:21.0000000+00:00</time></trkpt><trkpt lat="35.006396" lon="32.4041016"><ele>194.2</ele><time>2015-04-24T18:09:22.0000000+00:00</time></trkpt><trkpt lat="35.0065296" lon="32.404148"><ele>193.1</ele><time>2015-04-24T18:09:23.0000000+00:00</time></trkpt><trkpt lat="35.0066686" lon="32.4041852"><ele>192.5</ele><time>2015-04-24T18:09:24.0000000+00:00</time></trkpt><trkpt lat="35.0068122" lon="32.4042228"><ele>191.7</ele><time>2015-04-24T18:09:25.0000000+00:00</time></trkpt><trkpt lat="35.0069573" lon="32.4042484"><ele>190.8</ele><time>2015-04-24T18:09:26.0000000+00:00</time></trkpt><trkpt lat="35.0070939" lon="32.404261"><ele>190.4</ele><time>2015-04-24T18:09:27.0000000+00:00</time></trkpt><trkpt lat="35.0072481" lon="32.4042662"><ele>190.2</ele><time>2015-04-24T18:09:28.0000000+00:00</time></trkpt><trkpt lat="35.0073924" lon="32.4042525"><ele>189.0</ele><time>2015-04-24T18:09:29.0000000+00:00</time></trkpt><trkpt lat="35.0075306" lon="32.4042448"><ele>188.0</ele><time>2015-04-24T18:09:30.0000000+00:00</time></trkpt><trkpt lat="35.0076681" lon="32.4042296"><ele>186.5</ele><time>2015-04-24T18:09:31.0000000+00:00</time></trkpt><trkpt lat="35.0078152" lon="32.4042142"><ele>185.2</ele><time>2015-04-24T18:09:32.0000000+00:00</time></trkpt><trkpt lat="35.0079485" lon="32.4041931"><ele>184.1</ele><time>2015-04-24T18:09:33.0000000+00:00</time></trkpt><trkpt lat="35.0080842" lon="32.4041833"><ele>183.5</ele><time>2015-04-24T18:09:34.0000000+00:00</time></trkpt><trkpt lat="35.0082161" lon="32.4041672"><ele>183.2</ele><time>2015-04-24T18:09:35.0000000+00:00</time></trkpt><trkpt lat="35.0083526" lon="32.4041523"><ele>182.1</ele><time>2015-04-24T18:09:36.0000000+00:00</time></trkpt><trkpt lat="35.0084767" lon="32.4041426"><ele>181.5</ele><time>2015-04-24T18:09:37.0000000+00:00</time></trkpt><trkpt lat="35.0085945" lon="32.4041262"><ele>181.2</ele><time>2015-04-24T18:09:38.0000000+00:00</time></trkpt><trkpt lat="35.0087136" lon="32.4041284"><ele>180.6</ele><time>2015-04-24T18:09:39.0000000+00:00</time></trkpt><trkpt lat="35.0088405" lon="32.4041321"><ele>180.3</ele><time>2015-04-24T18:09:40.0000000+00:00</time></trkpt><trkpt lat="35.008949" lon="32.4041228"><ele>180.1</ele><time>2015-04-24T18:09:41.0000000+00:00</time></trkpt><trkpt lat="35.0090518" lon="32.4041176"><ele>180.0</ele><time>2015-04-24T18:09:42.0000000+00:00</time></trkpt><trkpt lat="35.0091536" lon="32.4041085"><ele>180.0</ele><time>2015-04-24T18:09:43.0000000+00:00</time></trkpt><trkpt lat="35.0092499" lon="32.4041149"><ele>179.5</ele><time>2015-04-24T18:09:44.0000000+00:00</time></trkpt><trkpt lat="35.009347" lon="32.4041238"><ele>179.2</ele><time>2015-04-24T18:09:45.0000000+00:00</time></trkpt><trkpt lat="35.0094421" lon="32.4041302"><ele>179.1</ele><time>2015-04-24T18:09:46.0000000+00:00</time></trkpt><trkpt lat="35.0095297" lon="32.4041422"><ele>179.0</ele><time>2015-04-24T18:09:47.0000000+00:00</time></trkpt><trkpt lat="35.0096303" lon="32.4041618"><ele>178.5</ele><time>2015-04-24T18:09:48.0000000+00:00</time></trkpt><trkpt lat="35.0097275" lon="32.4041777"><ele>178.2</ele><time>2015-04-24T18:09:49.0000000+00:00</time></trkpt><trkpt lat="35.0098165" lon="32.4041977"><ele>177.1</ele><time>2015-04-24T18:09:50.0000000+00:00</time></trkpt><trkpt lat="35.009908" lon="32.4042085"><ele>176.5</ele><time>2015-04-24T18:09:51.0000000+00:00</time></trkpt><trkpt lat="35.0100166" lon="32.4042282"><ele>176.2</ele><time>2015-04-24T18:09:52.0000000+00:00</time></trkpt><trkpt lat="35.0101209" lon="32.4042464"><ele>176.1</ele><time>2015-04-24T18:09:53.0000000+00:00</time></trkpt><trkpt lat="35.0102231" lon="32.4042643"><ele>176.0</ele><time>2015-04-24T18:09:54.0000000+00:00</time></trkpt><trkpt lat="35.0103254" lon="32.4042908"><ele>176.0</ele><time>2015-04-24T18:09:55.0000000+00:00</time></trkpt><trkpt lat="35.0104357" lon="32.4043129"><ele>174.9</ele><time>2015-04-24T18:09:56.0000000+00:00</time></trkpt><trkpt lat="35.0105412" lon="32.4043433"><ele>174.4</ele><time>2015-04-24T18:09:57.0000000+00:00</time></trkpt><trkpt lat="35.0106513" lon="32.4043686"><ele>173.7</ele><time>2015-04-24T18:09:58.0000000+00:00</time></trkpt><trkpt lat="35.0107616" lon="32.4043904"><ele>173.3</ele><time>2015-04-24T18:09:59.0000000+00:00</time></trkpt><trkpt lat="35.0108865" lon="32.4044083"><ele>173.1</ele><time>2015-04-24T18:10:00.0000000+00:00</time></trkpt><trkpt lat="35.0109974" lon="32.4044397"><ele>172.5</ele><time>2015-04-24T18:10:01.0000000+00:00</time></trkpt><trkpt lat="35.0111131" lon="32.4044685"><ele>171.2</ele><time>2015-04-24T18:10:02.0000000+00:00</time></trkpt><trkpt lat="35.0112452" lon="32.4045044"><ele>169.1</ele><time>2015-04-24T18:10:03.0000000+00:00</time></trkpt><trkpt lat="35.0113716" lon="32.4045385"><ele>167.5</ele><time>2015-04-24T18:10:04.0000000+00:00</time></trkpt><trkpt lat="35.0114868" lon="32.4045648"><ele>166.2</ele><time>2015-04-24T18:10:05.0000000+00:00</time></trkpt><trkpt lat="35.011599" lon="32.4045839"><ele>165.6</ele><time>2015-04-24T18:10:06.0000000+00:00</time></trkpt><trkpt lat="35.0117222" lon="32.4046169"><ele>164.8</ele><time>2015-04-24T18:10:07.0000000+00:00</time></trkpt><trkpt lat="35.0118463" lon="32.4046459"><ele>163.8</ele><time>2015-04-24T18:10:08.0000000+00:00</time></trkpt><trkpt lat="35.0119703" lon="32.4046826"><ele>162.4</ele><time>2015-04-24T18:10:09.0000000+00:00</time></trkpt><trkpt lat="35.0120994" lon="32.4046973"><ele>161.7</ele><time>2015-04-24T18:10:10.0000000+00:00</time></trkpt><trkpt lat="35.0122366" lon="32.4047243"><ele>160.3</ele><time>2015-04-24T18:10:11.0000000+00:00</time></trkpt><trkpt lat="35.0123743" lon="32.4047392"><ele>158.6</ele><time>2015-04-24T18:10:12.0000000+00:00</time></trkpt><trkpt lat="35.0125049" lon="32.4047621"><ele>156.8</ele><time>2015-04-24T18:10:13.0000000+00:00</time></trkpt><trkpt lat="35.0126344" lon="32.404793"><ele>154.9</ele><time>2015-04-24T18:10:14.0000000+00:00</time></trkpt><trkpt lat="35.0127521" lon="32.4048206"><ele>153.4</ele><time>2015-04-24T18:10:15.0000000+00:00</time></trkpt><trkpt lat="35.0128672" lon="32.4048356"><ele>153.2</ele><time>2015-04-24T18:10:16.0000000+00:00</time></trkpt><trkpt lat="35.0129925" lon="32.4048623"><ele>153.0</ele><time>2015-04-24T18:10:17.0000000+00:00</time></trkpt><trkpt lat="35.0131046" lon="32.4048838"><ele>152.5</ele><time>2015-04-24T18:10:18.0000000+00:00</time></trkpt><trkpt lat="35.0132155" lon="32.404914"><ele>151.7</ele><time>2015-04-24T18:10:19.0000000+00:00</time></trkpt><trkpt lat="35.0133233" lon="32.4049407"><ele>150.8</ele><time>2015-04-24T18:10:20.0000000+00:00</time></trkpt><trkpt lat="35.0134314" lon="32.4049797"><ele>149.9</ele><time>2015-04-24T18:10:21.0000000+00:00</time></trkpt><trkpt lat="35.013529" lon="32.4050157"><ele>149.9</ele><time>2015-04-24T18:10:22.0000000+00:00</time></trkpt><trkpt lat="35.0136285" lon="32.405064"><ele>148.9</ele><time>2015-04-24T18:10:23.0000000+00:00</time></trkpt><trkpt lat="35.0137324" lon="32.4051349"><ele>147.9</ele><time>2015-04-24T18:10:24.0000000+00:00</time></trkpt><trkpt lat="35.013831" lon="32.4052082"><ele>146.4</ele><time>2015-04-24T18:10:25.0000000+00:00</time></trkpt><trkpt lat="35.0139326" lon="32.4052948"><ele>145.2</ele><time>2015-04-24T18:10:26.0000000+00:00</time></trkpt><trkpt lat="35.014022" lon="32.4053736"><ele>143.6</ele><time>2015-04-24T18:10:27.0000000+00:00</time></trkpt><trkpt lat="35.0141043" lon="32.4054631"><ele>142.2</ele><time>2015-04-24T18:10:28.0000000+00:00</time></trkpt><trkpt lat="35.014173" lon="32.4055365"><ele>141.1</ele><time>2015-04-24T18:10:29.0000000+00:00</time></trkpt><trkpt lat="35.0142356" lon="32.4056193"><ele>140.5</ele><time>2015-04-24T18:10:30.0000000+00:00</time></trkpt><trkpt lat="35.0142768" lon="32.4056949"><ele>139.2</ele><time>2015-04-24T18:10:31.0000000+00:00</time></trkpt><trkpt lat="35.0143219" lon="32.4057667"><ele>138.6</ele><time>2015-04-24T18:10:32.0000000+00:00</time></trkpt><trkpt lat="35.0143567" lon="32.4058342"><ele>137.8</ele><time>2015-04-24T18:10:33.0000000+00:00</time></trkpt><trkpt lat="35.014377" lon="32.4059002"><ele>136.8</ele><time>2015-04-24T18:10:34.0000000+00:00</time></trkpt><trkpt lat="35.0144035" lon="32.4059532"><ele>136.4</ele><time>2015-04-24T18:10:35.0000000+00:00</time></trkpt><trkpt lat="35.0144344" lon="32.406025"><ele>135.7</ele><time>2015-04-24T18:10:36.0000000+00:00</time></trkpt><trkpt lat="35.0144604" lon="32.4060936"><ele>134.8</ele><time>2015-04-24T18:10:37.0000000+00:00</time></trkpt><trkpt lat="35.0144935" lon="32.4061703"><ele>134.4</ele><time>2015-04-24T18:10:38.0000000+00:00</time></trkpt><trkpt lat="35.0145202" lon="32.4062499"><ele>134.1</ele><time>2015-04-24T18:10:39.0000000+00:00</time></trkpt><trkpt lat="35.0145534" lon="32.4063453"><ele>133.5</ele><time>2015-04-24T18:10:40.0000000+00:00</time></trkpt><trkpt lat="35.0145877" lon="32.4064392"><ele>133.2</ele><time>2015-04-24T18:10:41.0000000+00:00</time></trkpt><trkpt lat="35.0146164" lon="32.4065343"><ele>132.6</ele><time>2015-04-24T18:10:42.0000000+00:00</time></trkpt><trkpt lat="35.0146429" lon="32.4066302"><ele>132.3</ele><time>2015-04-24T18:10:43.0000000+00:00</time></trkpt><trkpt lat="35.0146726" lon="32.4067374"><ele>131.6</ele><time>2015-04-24T18:10:44.0000000+00:00</time></trkpt><trkpt lat="35.0147094" lon="32.4068405"><ele>130.8</ele><time>2015-04-24T18:10:45.0000000+00:00</time></trkpt><trkpt lat="35.0147465" lon="32.4069578"><ele>130.3</ele><time>2015-04-24T18:10:46.0000000+00:00</time></trkpt><trkpt lat="35.0147762" lon="32.4070685"><ele>129.6</ele><time>2015-04-24T18:10:47.0000000+00:00</time></trkpt><trkpt lat="35.0148179" lon="32.4071774"><ele>129.3</ele><time>2015-04-24T18:10:48.0000000+00:00</time></trkpt><trkpt lat="35.0148516" lon="32.4072964"><ele>128.6</ele><time>2015-04-24T18:10:49.0000000+00:00</time></trkpt><trkpt lat="35.014888" lon="32.4074103"><ele>127.8</ele><time>2015-04-24T18:10:50.0000000+00:00</time></trkpt><trkpt lat="35.0149281" lon="32.407523"><ele>126.8</ele><time>2015-04-24T18:10:51.0000000+00:00</time></trkpt><trkpt lat="35.0149773" lon="32.4076421"><ele>126.4</ele><time>2015-04-24T18:10:52.0000000+00:00</time></trkpt><trkpt lat="35.015024" lon="32.407762"><ele>126.2</ele><time>2015-04-24T18:10:53.0000000+00:00</time></trkpt><trkpt lat="35.0150601" lon="32.4078897"><ele>126.0</ele><time>2015-04-24T18:10:54.0000000+00:00</time></trkpt><trkpt lat="35.0150995" lon="32.4080142"><ele>125.5</ele><time>2015-04-24T18:10:55.0000000+00:00</time></trkpt><trkpt lat="35.0151433" lon="32.4081472"><ele>125.2</ele><time>2015-04-24T18:10:56.0000000+00:00</time></trkpt><trkpt lat="35.015183" lon="32.4082775"><ele>124.6</ele><time>2015-04-24T18:10:57.0000000+00:00</time></trkpt><trkpt lat="35.0152265" lon="32.408413"><ele>123.7</ele><time>2015-04-24T18:10:58.0000000+00:00</time></trkpt><trkpt lat="35.0152721" lon="32.40855"><ele>123.3</ele><time>2015-04-24T18:10:59.0000000+00:00</time></trkpt><trkpt lat="35.0153142" lon="32.4086886"><ele>123.1</ele><time>2015-04-24T18:11:00.0000000+00:00</time></trkpt><trkpt lat="35.015357" lon="32.408824"><ele>122.5</ele><time>2015-04-24T18:11:01.0000000+00:00</time></trkpt><trkpt lat="35.0154097" lon="32.4089475"><ele>121.7</ele><time>2015-04-24T18:11:02.0000000+00:00</time></trkpt><trkpt lat="35.0154558" lon="32.4090663"><ele>121.3</ele><time>2015-04-24T18:11:03.0000000+00:00</time></trkpt><trkpt lat="35.0155059" lon="32.4091937"><ele>120.6</ele><time>2015-04-24T18:11:04.0000000+00:00</time></trkpt><trkpt lat="35.0155669" lon="32.4093103"><ele>119.8</ele><time>2015-04-24T18:11:05.0000000+00:00</time></trkpt><trkpt lat="35.0156406" lon="32.4094213"><ele>119.4</ele><time>2015-04-24T18:11:06.0000000+00:00</time></trkpt><trkpt lat="35.0157048" lon="32.4095181"><ele>118.6</ele><time>2015-04-24T18:11:07.0000000+00:00</time></trkpt><trkpt lat="35.0157768" lon="32.4096062"><ele>117.8</ele><time>2015-04-24T18:11:08.0000000+00:00</time></trkpt><trkpt lat="35.0158569" lon="32.4096926"><ele>117.4</ele><time>2015-04-24T18:11:09.0000000+00:00</time></trkpt><trkpt lat="35.01594" lon="32.4097687"><ele>117.1</ele><time>2015-04-24T18:11:10.0000000+00:00</time></trkpt><trkpt lat="35.0160296" lon="32.4098316"><ele>116.5</ele><time>2015-04-24T18:11:11.0000000+00:00</time></trkpt><trkpt lat="35.0161273" lon="32.4098815"><ele>115.7</ele><time>2015-04-24T18:11:12.0000000+00:00</time></trkpt><trkpt lat="35.0162254" lon="32.409926"><ele>114.8</ele><time>2015-04-24T18:11:13.0000000+00:00</time></trkpt><trkpt lat="35.0163232" lon="32.4099643"><ele>114.4</ele><time>2015-04-24T18:11:14.0000000+00:00</time></trkpt><trkpt lat="35.0164179" lon="32.4099929"><ele>113.7</ele><time>2015-04-24T18:11:15.0000000+00:00</time></trkpt><trkpt lat="35.0165181" lon="32.4100103"><ele>113.3</ele><time>2015-04-24T18:11:16.0000000+00:00</time></trkpt><trkpt lat="35.0166225" lon="32.4100286"><ele>113.1</ele><time>2015-04-24T18:11:17.0000000+00:00</time></trkpt><trkpt lat="35.016718" lon="32.4100508"><ele>113.0</ele><time>2015-04-24T18:11:18.0000000+00:00</time></trkpt><trkpt lat="35.0168124" lon="32.410065"><ele>113.0</ele><time>2015-04-24T18:11:19.0000000+00:00</time></trkpt><trkpt lat="35.0168971" lon="32.4100713"><ele>112.5</ele><time>2015-04-24T18:11:20.0000000+00:00</time></trkpt><trkpt lat="35.0169872" lon="32.4100837"><ele>112.2</ele><time>2015-04-24T18:11:21.0000000+00:00</time></trkpt><trkpt lat="35.0170698" lon="32.4100981"><ele>112.1</ele><time>2015-04-24T18:11:22.0000000+00:00</time></trkpt><trkpt lat="35.0171527" lon="32.410117"><ele>112.0</ele><time>2015-04-24T18:11:23.0000000+00:00</time></trkpt><trkpt lat="35.0172372" lon="32.4101319"><ele>112.0</ele><time>2015-04-24T18:11:24.0000000+00:00</time></trkpt><trkpt lat="35.0173186" lon="32.4101505"><ele>111.4</ele><time>2015-04-24T18:11:25.0000000+00:00</time></trkpt><trkpt lat="35.0174002" lon="32.4101538"><ele>111.2</ele><time>2015-04-24T18:11:26.0000000+00:00</time></trkpt><trkpt lat="35.0174702" lon="32.4101759"><ele>111.6</ele><time>2015-04-24T18:11:27.0000000+00:00</time></trkpt><trkpt lat="35.0175443" lon="32.4102004"><ele>111.7</ele><time>2015-04-24T18:11:28.0000000+00:00</time></trkpt><trkpt lat="35.0176125" lon="32.4102297"><ele>111.3</ele><time>2015-04-24T18:11:29.0000000+00:00</time></trkpt><trkpt lat="35.0176627" lon="32.4102568"><ele>111.1</ele><time>2015-04-24T18:11:30.0000000+00:00</time></trkpt><trkpt lat="35.0177262" lon="32.4102903"><ele>111.0</ele><time>2015-04-24T18:11:31.0000000+00:00</time></trkpt><trkpt lat="35.0177967" lon="32.4103256"><ele>111.0</ele><time>2015-04-24T18:11:32.0000000+00:00</time></trkpt><trkpt lat="35.0178577" lon="32.410369"><ele>111.0</ele><time>2015-04-24T18:11:33.0000000+00:00</time></trkpt><trkpt lat="35.0179097" lon="32.4104094"><ele>110.4</ele><time>2015-04-24T18:11:34.0000000+00:00</time></trkpt><trkpt lat="35.0179581" lon="32.4104491"><ele>110.2</ele><time>2015-04-24T18:11:35.0000000+00:00</time></trkpt><trkpt lat="35.01801" lon="32.4104945"><ele>110.1</ele><time>2015-04-24T18:11:36.0000000+00:00</time></trkpt><trkpt lat="35.0180657" lon="32.410546"><ele>110.0</ele><time>2015-04-24T18:11:37.0000000+00:00</time></trkpt><trkpt lat="35.018124" lon="32.410584"><ele>109.0</ele><time>2015-04-24T18:11:38.0000000+00:00</time></trkpt><trkpt lat="35.0181776" lon="32.4106347"><ele>108.4</ele><time>2015-04-24T18:11:39.0000000+00:00</time></trkpt><trkpt lat="35.0182261" lon="32.4106866"><ele>108.2</ele><time>2015-04-24T18:11:40.0000000+00:00</time></trkpt><trkpt lat="35.0182775" lon="32.4107464"><ele>108.1</ele><time>2015-04-24T18:11:41.0000000+00:00</time></trkpt><trkpt lat="35.0183336" lon="32.4108048"><ele>107.5</ele><time>2015-04-24T18:11:42.0000000+00:00</time></trkpt><trkpt lat="35.0183784" lon="32.4108606"><ele>106.7</ele><time>2015-04-24T18:11:43.0000000+00:00</time></trkpt><trkpt lat="35.018427" lon="32.4109166"><ele>106.3</ele><time>2015-04-24T18:11:44.0000000+00:00</time></trkpt><trkpt lat="35.0184729" lon="32.410981"><ele>106.1</ele><time>2015-04-24T18:11:45.0000000+00:00</time></trkpt><trkpt lat="35.0185207" lon="32.4110414"><ele>106.0</ele><time>2015-04-24T18:11:46.0000000+00:00</time></trkpt><trkpt lat="35.0185544" lon="32.4111029"><ele>106.0</ele><time>2015-04-24T18:11:47.0000000+00:00</time></trkpt><trkpt lat="35.0185978" lon="32.411163"><ele>106.0</ele><time>2015-04-24T18:11:48.0000000+00:00</time></trkpt><trkpt lat="35.0186416" lon="32.4112195"><ele>105.4</ele><time>2015-04-24T18:11:49.0000000+00:00</time></trkpt><trkpt lat="35.0186858" lon="32.4112874"><ele>105.2</ele><time>2015-04-24T18:11:50.0000000+00:00</time></trkpt><trkpt lat="35.0187201" lon="32.4113487"><ele>105.1</ele><time>2015-04-24T18:11:51.0000000+00:00</time></trkpt><trkpt lat="35.0187615" lon="32.4114156"><ele>105.0</ele><time>2015-04-24T18:11:52.0000000+00:00</time></trkpt><trkpt lat="35.0188019" lon="32.4114805"><ele>105.0</ele><time>2015-04-24T18:11:53.0000000+00:00</time></trkpt><trkpt lat="35.0188355" lon="32.4115431"><ele>104.4</ele><time>2015-04-24T18:11:54.0000000+00:00</time></trkpt><trkpt lat="35.0188793" lon="32.4116055"><ele>104.2</ele><time>2015-04-24T18:11:55.0000000+00:00</time></trkpt><trkpt lat="35.018926" lon="32.4116734"><ele>104.1</ele><time>2015-04-24T18:11:56.0000000+00:00</time></trkpt><trkpt lat="35.018966" lon="32.4117329"><ele>104.0</ele><time>2015-04-24T18:11:57.0000000+00:00</time></trkpt><trkpt lat="35.0190079" lon="32.411789"><ele>104.0</ele><time>2015-04-24T18:11:58.0000000+00:00</time></trkpt><trkpt lat="35.0190454" lon="32.4118546"><ele>103.9</ele><time>2015-04-24T18:11:59.0000000+00:00</time></trkpt><trkpt lat="35.0190902" lon="32.4119206"><ele>103.9</ele><time>2015-04-24T18:12:00.0000000+00:00</time></trkpt><trkpt lat="35.019136" lon="32.411984"><ele>103.9</ele><time>2015-04-24T18:12:01.0000000+00:00</time></trkpt><trkpt lat="35.0191772" lon="32.4120507"><ele>103.9</ele><time>2015-04-24T18:12:02.0000000+00:00</time></trkpt><trkpt lat="35.0192241" lon="32.4121142"><ele>103.9</ele><time>2015-04-24T18:12:03.0000000+00:00</time></trkpt><trkpt lat="35.0192651" lon="32.412181"><ele>103.9</ele><time>2015-04-24T18:12:04.0000000+00:00</time></trkpt><trkpt lat="35.0193054" lon="32.4122442"><ele>103.9</ele><time>2015-04-24T18:12:05.0000000+00:00</time></trkpt><trkpt lat="35.0193506" lon="32.4123072"><ele>103.9</ele><time>2015-04-24T18:12:06.0000000+00:00</time></trkpt><trkpt lat="35.019383" lon="32.4123707"><ele>104.4</ele><time>2015-04-24T18:12:07.0000000+00:00</time></trkpt><trkpt lat="35.0194358" lon="32.41244"><ele>104.7</ele><time>2015-04-24T18:12:08.0000000+00:00</time></trkpt><trkpt lat="35.0194804" lon="32.4125126"><ele>104.3</ele><time>2015-04-24T18:12:09.0000000+00:00</time></trkpt><trkpt lat="35.0195325" lon="32.4125725"><ele>104.6</ele><time>2015-04-24T18:12:10.0000000+00:00</time></trkpt><trkpt lat="35.0195847" lon="32.4126364"><ele>104.3</ele><time>2015-04-24T18:12:11.0000000+00:00</time></trkpt><trkpt lat="35.0196381" lon="32.4127045"><ele>103.6</ele><time>2015-04-24T18:12:12.0000000+00:00</time></trkpt><trkpt lat="35.0196882" lon="32.4127695"><ele>102.8</ele><time>2015-04-24T18:12:13.0000000+00:00</time></trkpt><trkpt lat="35.0197372" lon="32.4128331"><ele>101.8</ele><time>2015-04-24T18:12:14.0000000+00:00</time></trkpt><trkpt lat="35.0197927" lon="32.4128976"><ele>100.9</ele><time>2015-04-24T18:12:15.0000000+00:00</time></trkpt><trkpt lat="35.0198556" lon="32.4129551"><ele>100.4</ele><time>2015-04-24T18:12:16.0000000+00:00</time></trkpt><trkpt lat="35.019911" lon="32.4130111"><ele>100.2</ele><time>2015-04-24T18:12:17.0000000+00:00</time></trkpt><trkpt lat="35.01997" lon="32.4130674"><ele>100.0</ele><time>2015-04-24T18:12:18.0000000+00:00</time></trkpt><trkpt lat="35.0200315" lon="32.4131302"><ele>99.5</ele><time>2015-04-24T18:12:19.0000000+00:00</time></trkpt><trkpt lat="35.0201002" lon="32.4131858"><ele>99.2</ele><time>2015-04-24T18:12:20.0000000+00:00</time></trkpt><trkpt lat="35.020176" lon="32.4132314"><ele>98.6</ele><time>2015-04-24T18:12:21.0000000+00:00</time></trkpt><trkpt lat="35.0202522" lon="32.4132744"><ele>98.2</ele><time>2015-04-24T18:12:22.0000000+00:00</time></trkpt><trkpt lat="35.0203198" lon="32.413323"><ele>98.1</ele><time>2015-04-24T18:12:23.0000000+00:00</time></trkpt><trkpt lat="35.020394" lon="32.4133748"><ele>97.5</ele><time>2015-04-24T18:12:24.0000000+00:00</time></trkpt><trkpt lat="35.0204737" lon="32.4134221"><ele>97.2</ele><time>2015-04-24T18:12:25.0000000+00:00</time></trkpt><trkpt lat="35.0205589" lon="32.4134675"><ele>96.6</ele><time>2015-04-24T18:12:26.0000000+00:00</time></trkpt><trkpt lat="35.0206419" lon="32.4135076"><ele>95.8</ele><time>2015-04-24T18:12:27.0000000+00:00</time></trkpt><trkpt lat="35.0207252" lon="32.4135598"><ele>94.8</ele><time>2015-04-24T18:12:28.0000000+00:00</time></trkpt><trkpt lat="35.0207988" lon="32.4136006"><ele>94.9</ele><time>2015-04-24T18:12:29.0000000+00:00</time></trkpt><trkpt lat="35.0208672" lon="32.4136355"><ele>94.4</ele><time>2015-04-24T18:12:30.0000000+00:00</time></trkpt><trkpt lat="35.0209096" lon="32.4136588"><ele>94.2</ele><time>2015-04-24T18:12:31.0000000+00:00</time></trkpt><trkpt lat="35.020967" lon="32.4136885"><ele>93.5</ele><time>2015-04-24T18:12:32.0000000+00:00</time></trkpt><trkpt lat="35.0210241" lon="32.4137081"><ele>93.2</ele><time>2015-04-24T18:12:33.0000000+00:00</time></trkpt><trkpt lat="35.0210839" lon="32.4137377"><ele>92.6</ele><time>2015-04-24T18:12:34.0000000+00:00</time></trkpt><trkpt lat="35.0211375" lon="32.4137648"><ele>92.3</ele><time>2015-04-24T18:12:35.0000000+00:00</time></trkpt><trkpt lat="35.0211895" lon="32.4137912"><ele>91.6</ele><time>2015-04-24T18:12:36.0000000+00:00</time></trkpt><trkpt lat="35.021253" lon="32.4138274"><ele>91.3</ele><time>2015-04-24T18:12:37.0000000+00:00</time></trkpt><trkpt lat="35.0213119" lon="32.4138557"><ele>91.1</ele><time>2015-04-24T18:12:38.0000000+00:00</time></trkpt><trkpt lat="35.0213694" lon="32.4138778"><ele>91.0</ele><time>2015-04-24T18:12:39.0000000+00:00</time></trkpt><trkpt lat="35.0214292" lon="32.4139076"><ele>90.5</ele><time>2015-04-24T18:12:40.0000000+00:00</time></trkpt><trkpt lat="35.0214866" lon="32.4139403"><ele>90.2</ele><time>2015-04-24T18:12:41.0000000+00:00</time></trkpt><trkpt lat="35.0215455" lon="32.4139736"><ele>89.6</ele><time>2015-04-24T18:12:42.0000000+00:00</time></trkpt><trkpt lat="35.0216125" lon="32.4139941"><ele>89.2</ele><time>2015-04-24T18:12:43.0000000+00:00</time></trkpt><trkpt lat="35.021668" lon="32.4140322"><ele>89.1</ele><time>2015-04-24T18:12:44.0000000+00:00</time></trkpt><trkpt lat="35.0217362" lon="32.414077"><ele>88.5</ele><time>2015-04-24T18:12:45.0000000+00:00</time></trkpt><trkpt lat="35.0218056" lon="32.414114"><ele>87.7</ele><time>2015-04-24T18:12:46.0000000+00:00</time></trkpt><trkpt lat="35.0218768" lon="32.4141592"><ele>86.8</ele><time>2015-04-24T18:12:47.0000000+00:00</time></trkpt><trkpt lat="35.0219446" lon="32.4141954"><ele>86.9</ele><time>2015-04-24T18:12:48.0000000+00:00</time></trkpt><trkpt lat="35.0220232" lon="32.4142405"><ele>86.9</ele><time>2015-04-24T18:12:49.0000000+00:00</time></trkpt><trkpt lat="35.0220914" lon="32.4142737"><ele>86.4</ele><time>2015-04-24T18:12:50.0000000+00:00</time></trkpt><trkpt lat="35.0221716" lon="32.4143183"><ele>86.2</ele><time>2015-04-24T18:12:51.0000000+00:00</time></trkpt><trkpt lat="35.0222525" lon="32.4143621"><ele>85.6</ele><time>2015-04-24T18:12:52.0000000+00:00</time></trkpt><trkpt lat="35.0223247" lon="32.4144022"><ele>85.2</ele><time>2015-04-24T18:12:53.0000000+00:00</time></trkpt><trkpt lat="35.0224045" lon="32.4144454"><ele>85.1</ele><time>2015-04-24T18:12:54.0000000+00:00</time></trkpt><trkpt lat="35.0224855" lon="32.4144932"><ele>84.5</ele><time>2015-04-24T18:12:55.0000000+00:00</time></trkpt><trkpt lat="35.0225761" lon="32.4145455"><ele>83.7</ele><time>2015-04-24T18:12:56.0000000+00:00</time></trkpt><trkpt lat="35.0226611" lon="32.4145898"><ele>83.3</ele><time>2015-04-24T18:12:57.0000000+00:00</time></trkpt><trkpt lat="35.0227531" lon="32.4146297"><ele>82.6</ele><time>2015-04-24T18:12:58.0000000+00:00</time></trkpt><trkpt lat="35.0228312" lon="32.4146768"><ele>81.8</ele><time>2015-04-24T18:12:59.0000000+00:00</time></trkpt><trkpt lat="35.0229249" lon="32.4147228"><ele>80.9</ele><time>2015-04-24T18:13:00.0000000+00:00</time></trkpt><trkpt lat="35.0230117" lon="32.4147512"><ele>81.4</ele><time>2015-04-24T18:13:01.0000000+00:00</time></trkpt><trkpt lat="35.0231056" lon="32.4147906"><ele>81.2</ele><time>2015-04-24T18:13:02.0000000+00:00</time></trkpt><trkpt lat="35.0231922" lon="32.4148218"><ele>81.0</ele><time>2015-04-24T18:13:03.0000000+00:00</time></trkpt><trkpt lat="35.0232952" lon="32.4148574"><ele>80.5</ele><time>2015-04-24T18:13:04.0000000+00:00</time></trkpt><trkpt lat="35.0233768" lon="32.4148813"><ele>80.2</ele><time>2015-04-24T18:13:05.0000000+00:00</time></trkpt><trkpt lat="35.0234597" lon="32.4149071"><ele>79.6</ele><time>2015-04-24T18:13:06.0000000+00:00</time></trkpt><trkpt lat="35.0235475" lon="32.4149213"><ele>78.7</ele><time>2015-04-24T18:13:07.0000000+00:00</time></trkpt><trkpt lat="35.0236288" lon="32.4149372"><ele>78.3</ele><time>2015-04-24T18:13:08.0000000+00:00</time></trkpt><trkpt lat="35.0237095" lon="32.414945"><ele>77.6</ele><time>2015-04-24T18:13:09.0000000+00:00</time></trkpt><trkpt lat="35.0237982" lon="32.4149402"><ele>77.3</ele><time>2015-04-24T18:13:10.0000000+00:00</time></trkpt><trkpt lat="35.0238751" lon="32.4149351"><ele>76.1</ele><time>2015-04-24T18:13:11.0000000+00:00</time></trkpt><trkpt lat="35.0239561" lon="32.4149464"><ele>75.0</ele><time>2015-04-24T18:13:12.0000000+00:00</time></trkpt><trkpt lat="35.024038" lon="32.4149474"><ele>74.0</ele><time>2015-04-24T18:13:13.0000000+00:00</time></trkpt><trkpt lat="35.0241225" lon="32.4149404"><ele>73.5</ele><time>2015-04-24T18:13:14.0000000+00:00</time></trkpt><trkpt lat="35.0242032" lon="32.4149352"><ele>72.7</ele><time>2015-04-24T18:13:15.0000000+00:00</time></trkpt><trkpt lat="35.0242951" lon="32.4149303"><ele>71.8</ele><time>2015-04-24T18:13:16.0000000+00:00</time></trkpt><trkpt lat="35.0243804" lon="32.4149216"><ele>70.9</ele><time>2015-04-24T18:13:17.0000000+00:00</time></trkpt><trkpt lat="35.0244665" lon="32.4149147"><ele>69.9</ele><time>2015-04-24T18:13:18.0000000+00:00</time></trkpt><trkpt lat="35.0245553" lon="32.4148912"><ele>69.9</ele><time>2015-04-24T18:13:19.0000000+00:00</time></trkpt><trkpt lat="35.0246449" lon="32.4148725"><ele>69.4</ele><time>2015-04-24T18:13:20.0000000+00:00</time></trkpt><trkpt lat="35.0247375" lon="32.4148521"><ele>69.2</ele><time>2015-04-24T18:13:21.0000000+00:00</time></trkpt><trkpt lat="35.0248213" lon="32.4148385"><ele>68.6</ele><time>2015-04-24T18:13:22.0000000+00:00</time></trkpt><trkpt lat="35.0249033" lon="32.4148111"><ele>67.7</ele><time>2015-04-24T18:13:23.0000000+00:00</time></trkpt><trkpt lat="35.0249968" lon="32.4147846"><ele>67.3</ele><time>2015-04-24T18:13:24.0000000+00:00</time></trkpt><trkpt lat="35.0250898" lon="32.4147697"><ele>66.6</ele><time>2015-04-24T18:13:25.0000000+00:00</time></trkpt><trkpt lat="35.0251861" lon="32.4147486"><ele>66.3</ele><time>2015-04-24T18:13:26.0000000+00:00</time></trkpt><trkpt lat="35.0252762" lon="32.414733"><ele>65.6</ele><time>2015-04-24T18:13:27.0000000+00:00</time></trkpt><trkpt lat="35.0253767" lon="32.4147191"><ele>64.8</ele><time>2015-04-24T18:13:28.0000000+00:00</time></trkpt><trkpt lat="35.0254742" lon="32.4146926"><ele>64.8</ele><time>2015-04-24T18:13:29.0000000+00:00</time></trkpt><trkpt lat="35.0255684" lon="32.4146755"><ele>64.9</ele><time>2015-04-24T18:13:30.0000000+00:00</time></trkpt><trkpt lat="35.0256681" lon="32.414661"><ele>64.9</ele><time>2015-04-24T18:13:31.0000000+00:00</time></trkpt><trkpt lat="35.0257698" lon="32.4146462"><ele>64.4</ele><time>2015-04-24T18:13:32.0000000+00:00</time></trkpt><trkpt lat="35.0258576" lon="32.4146226"><ele>64.2</ele><time>2015-04-24T18:13:33.0000000+00:00</time></trkpt><trkpt lat="35.0259509" lon="32.4145972"><ele>63.1</ele><time>2015-04-24T18:13:34.0000000+00:00</time></trkpt><trkpt lat="35.0260424" lon="32.4145791"><ele>62.5</ele><time>2015-04-24T18:13:35.0000000+00:00</time></trkpt><trkpt lat="35.026143" lon="32.4145622"><ele>62.2</ele><time>2015-04-24T18:13:36.0000000+00:00</time></trkpt><trkpt lat="35.0262469" lon="32.414536"><ele>61.1</ele><time>2015-04-24T18:13:37.0000000+00:00</time></trkpt><trkpt lat="35.0263348" lon="32.4145192"><ele>60.5</ele><time>2015-04-24T18:13:38.0000000+00:00</time></trkpt><trkpt lat="35.0264257" lon="32.4145042"><ele>60.2</ele><time>2015-04-24T18:13:39.0000000+00:00</time></trkpt><trkpt lat="35.0265208" lon="32.4144794"><ele>59.6</ele><time>2015-04-24T18:13:40.0000000+00:00</time></trkpt><trkpt lat="35.0266171" lon="32.4144669"><ele>59.3</ele><time>2015-04-24T18:13:41.0000000+00:00</time></trkpt><trkpt lat="35.0267212" lon="32.414456"><ele>59.1</ele><time>2015-04-24T18:13:42.0000000+00:00</time></trkpt><trkpt lat="35.0268261" lon="32.4144478"><ele>59.0</ele><time>2015-04-24T18:13:43.0000000+00:00</time></trkpt><trkpt lat="35.0269381" lon="32.4144256"><ele>59.0</ele><time>2015-04-24T18:13:44.0000000+00:00</time></trkpt><trkpt lat="35.0270436" lon="32.4144001"><ele>59.0</ele><time>2015-04-24T18:13:45.0000000+00:00</time></trkpt><trkpt lat="35.0271413" lon="32.4143696"><ele>58.9</ele><time>2015-04-24T18:13:46.0000000+00:00</time></trkpt><trkpt lat="35.0272502" lon="32.4143534"><ele>58.9</ele><time>2015-04-24T18:13:47.0000000+00:00</time></trkpt><trkpt lat="35.0273598" lon="32.414343"><ele>58.9</ele><time>2015-04-24T18:13:48.0000000+00:00</time></trkpt><trkpt lat="35.027478" lon="32.4143216"><ele>58.4</ele><time>2015-04-24T18:13:49.0000000+00:00</time></trkpt><trkpt lat="35.0276027" lon="32.4142997"><ele>57.7</ele><time>2015-04-24T18:13:50.0000000+00:00</time></trkpt><trkpt lat="35.0277103" lon="32.4142738"><ele>56.8</ele><time>2015-04-24T18:13:51.0000000+00:00</time></trkpt><trkpt lat="35.027816" lon="32.4142464"><ele>56.4</ele><time>2015-04-24T18:13:52.0000000+00:00</time></trkpt><trkpt lat="35.0279175" lon="32.4142126"><ele>56.1</ele><time>2015-04-24T18:13:53.0000000+00:00</time></trkpt><trkpt lat="35.0280082" lon="32.414179"><ele>56.0</ele><time>2015-04-24T18:13:54.0000000+00:00</time></trkpt><trkpt lat="35.0280781" lon="32.4141553"><ele>55.5</ele><time>2015-04-24T18:13:55.0000000+00:00</time></trkpt><trkpt lat="35.028141" lon="32.4141396"><ele>55.2</ele><time>2015-04-24T18:13:56.0000000+00:00</time></trkpt><trkpt lat="35.0281909" lon="32.4141263"><ele>55.1</ele><time>2015-04-24T18:13:57.0000000+00:00</time></trkpt><trkpt lat="35.0282507" lon="32.4141084"><ele>54.5</ele><time>2015-04-24T18:13:59.0000000+00:00</time></trkpt><trkpt lat="35.028317" lon="32.4141057"><ele>53.1</ele><time>2015-04-24T18:14:02.0000000+00:00</time></trkpt><trkpt lat="35.0282812" lon="32.414145"><ele>50.5</ele><time>2015-04-24T18:14:41.0000000+00:00</time></trkpt><trkpt lat="35.0282335" lon="32.4141636"><ele>50.7</ele><time>2015-04-24T18:14:45.0000000+00:00</time></trkpt><trkpt lat="35.0281761" lon="32.4141852"><ele>51.9</ele><time>2015-04-24T18:14:48.0000000+00:00</time></trkpt><trkpt lat="35.0281162" lon="32.4141999"><ele>51.9</ele><time>2015-04-24T18:14:50.0000000+00:00</time></trkpt><trkpt lat="35.0280541" lon="32.4142142"><ele>52.4</ele><time>2015-04-24T18:14:52.0000000+00:00</time></trkpt><trkpt lat="35.0279951" lon="32.4142285"><ele>53.6</ele><time>2015-04-24T18:14:54.0000000+00:00</time></trkpt><trkpt lat="35.0279318" lon="32.4142402"><ele>53.3</ele><time>2015-04-24T18:14:56.0000000+00:00</time></trkpt><trkpt lat="35.027866" lon="32.41425"><ele>53.0</ele><time>2015-04-24T18:14:58.0000000+00:00</time></trkpt><trkpt lat="35.0277995" lon="32.4142677"><ele>53.7</ele><time>2015-04-24T18:15:00.0000000+00:00</time></trkpt><trkpt lat="35.0277354" lon="32.4142873"><ele>53.9</ele><time>2015-04-24T18:15:02.0000000+00:00</time></trkpt><trkpt lat="35.0276734" lon="32.4143028"><ele>53.7</ele><time>2015-04-24T18:15:04.0000000+00:00</time></trkpt><trkpt lat="35.0276106" lon="32.4143133"><ele>53.1</ele><time>2015-04-24T18:15:06.0000000+00:00</time></trkpt><trkpt lat="35.0275485" lon="32.4143244"><ele>53.5</ele><time>2015-04-24T18:15:08.0000000+00:00</time></trkpt><trkpt lat="35.0274867" lon="32.4143323"><ele>53.8</ele><time>2015-04-24T18:15:10.0000000+00:00</time></trkpt><trkpt lat="35.0274241" lon="32.4143425"><ele>53.9</ele><time>2015-04-24T18:15:12.0000000+00:00</time></trkpt><trkpt lat="35.0273645" lon="32.4143548"><ele>54.7</ele><time>2015-04-24T18:15:14.0000000+00:00</time></trkpt><trkpt lat="35.0273173" lon="32.414374"><ele>54.9</ele><time>2015-04-24T18:15:16.0000000+00:00</time></trkpt><trkpt lat="35.0272576" lon="32.4144065"><ele>54.4</ele><time>2015-04-24T18:15:38.0000000+00:00</time></trkpt><trkpt lat="35.0271928" lon="32.4144161"><ele>54.8</ele><time>2015-04-24T18:15:40.0000000+00:00</time></trkpt><trkpt lat="35.027127" lon="32.4144385"><ele>54.6</ele><time>2015-04-24T18:15:42.0000000+00:00</time></trkpt><trkpt lat="35.0270641" lon="32.4144629"><ele>55.1</ele><time>2015-04-24T18:15:44.0000000+00:00</time></trkpt><trkpt lat="35.0270085" lon="32.4144817"><ele>55.2</ele><time>2015-04-24T18:15:46.0000000+00:00</time></trkpt><trkpt lat="35.0269531" lon="32.4144888"><ele>55.3</ele><time>2015-04-24T18:15:48.0000000+00:00</time></trkpt><trkpt lat="35.0268984" lon="32.4144968"><ele>56.3</ele><time>2015-04-24T18:15:50.0000000+00:00</time></trkpt><trkpt lat="35.0268408" lon="32.414508"><ele>56.8</ele><time>2015-04-24T18:15:52.0000000+00:00</time></trkpt><trkpt lat="35.0267864" lon="32.4145188"><ele>56.9</ele><time>2015-04-24T18:15:54.0000000+00:00</time></trkpt><trkpt lat="35.0267352" lon="32.4145402"><ele>56.9</ele><time>2015-04-24T18:15:56.0000000+00:00</time></trkpt><trkpt lat="35.0266903" lon="32.4145605"><ele>56.2</ele><time>2015-04-24T18:15:58.0000000+00:00</time></trkpt><trkpt lat="35.0266281" lon="32.4145696"><ele>56.0</ele><time>2015-04-24T18:16:01.0000000+00:00</time></trkpt><trkpt lat="35.0265702" lon="32.414584"><ele>56.8</ele><time>2015-04-24T18:16:04.0000000+00:00</time></trkpt><trkpt lat="35.0265081" lon="32.4145889"><ele>56.2</ele><time>2015-04-24T18:16:07.0000000+00:00</time></trkpt><trkpt lat="35.02646" lon="32.4145964"><ele>56.2</ele><time>2015-04-24T18:16:09.0000000+00:00</time></trkpt><trkpt lat="35.0264066" lon="32.4146055"><ele>56.0</ele><time>2015-04-24T18:16:11.0000000+00:00</time></trkpt><trkpt lat="35.0263488" lon="32.4146207"><ele>56.7</ele><time>2015-04-24T18:16:13.0000000+00:00</time></trkpt><trkpt lat="35.0262931" lon="32.4146403"><ele>56.9</ele><time>2015-04-24T18:16:15.0000000+00:00</time></trkpt><trkpt lat="35.0262362" lon="32.4146523"><ele>56.2</ele><time>2015-04-24T18:16:17.0000000+00:00</time></trkpt><trkpt lat="35.026178" lon="32.4146539"><ele>56.7</ele><time>2015-04-24T18:16:19.0000000+00:00</time></trkpt><trkpt lat="35.0261206" lon="32.4146514"><ele>57.6</ele><time>2015-04-24T18:16:21.0000000+00:00</time></trkpt><trkpt lat="35.0260701" lon="32.4146434"><ele>57.6</ele><time>2015-04-24T18:16:23.0000000+00:00</time></trkpt><trkpt lat="35.0260188" lon="32.4146424"><ele>57.8</ele><time>2015-04-24T18:16:25.0000000+00:00</time></trkpt><trkpt lat="35.0259669" lon="32.4146505"><ele>57.4</ele><time>2015-04-24T18:16:27.0000000+00:00</time></trkpt><trkpt lat="35.0259125" lon="32.4146606"><ele>57.5</ele><time>2015-04-24T18:16:29.0000000+00:00</time></trkpt><trkpt lat="35.0258613" lon="32.4146674"><ele>57.8</ele><time>2015-04-24T18:16:31.0000000+00:00</time></trkpt><trkpt lat="35.0258086" lon="32.4146745"><ele>57.9</ele><time>2015-04-24T18:16:33.0000000+00:00</time></trkpt><trkpt lat="35.0257624" lon="32.4146958"><ele>59.2</ele><time>2015-04-24T18:16:35.0000000+00:00</time></trkpt><trkpt lat="35.0257377" lon="32.414742"><ele>60.2</ele><time>2015-04-24T18:16:37.0000000+00:00</time></trkpt><trkpt lat="35.0257478" lon="32.4148136"><ele>60.8</ele><time>2015-04-24T18:16:40.0000000+00:00</time></trkpt><trkpt lat="35.0257664" lon="32.4148658"><ele>60.7</ele><time>2015-04-24T18:16:42.0000000+00:00</time></trkpt><trkpt lat="35.0257926" lon="32.4149233"><ele>59.6</ele><time>2015-04-24T18:16:44.0000000+00:00</time></trkpt><trkpt lat="35.0258178" lon="32.4149835"><ele>59.6</ele><time>2015-04-24T18:16:46.0000000+00:00</time></trkpt><trkpt lat="35.0258398" lon="32.4150483"><ele>59.8</ele><time>2015-04-24T18:16:48.0000000+00:00</time></trkpt><trkpt lat="35.0258583" lon="32.4151131"><ele>59.9</ele><time>2015-04-24T18:16:50.0000000+00:00</time></trkpt><trkpt lat="35.0258789" lon="32.4151773"><ele>59.9</ele><time>2015-04-24T18:16:52.0000000+00:00</time></trkpt><trkpt lat="35.0258969" lon="32.4152413"><ele>59.9</ele><time>2015-04-24T18:16:54.0000000+00:00</time></trkpt><trkpt lat="35.0259123" lon="32.4153053"><ele>59.7</ele><time>2015-04-24T18:16:56.0000000+00:00</time></trkpt><trkpt lat="35.0259278" lon="32.41537"><ele>59.9</ele><time>2015-04-24T18:16:58.0000000+00:00</time></trkpt><trkpt lat="35.0259428" lon="32.4154346"><ele>60.2</ele><time>2015-04-24T18:17:00.0000000+00:00</time></trkpt><trkpt lat="35.0259581" lon="32.4155061"><ele>60.2</ele><time>2015-04-24T18:17:02.0000000+00:00</time></trkpt><trkpt lat="35.0259837" lon="32.4155924"><ele>60.0</ele><time>2015-04-24T18:17:04.0000000+00:00</time></trkpt><trkpt lat="35.0260095" lon="32.4156876"><ele>59.9</ele><time>2015-04-24T18:17:06.0000000+00:00</time></trkpt><trkpt lat="35.0260305" lon="32.4157853"><ele>59.9</ele><time>2015-04-24T18:17:08.0000000+00:00</time></trkpt><trkpt lat="35.0260628" lon="32.4158801"><ele>59.9</ele><time>2015-04-24T18:17:10.0000000+00:00</time></trkpt><trkpt lat="35.0261046" lon="32.4159747"><ele>61.2</ele><time>2015-04-24T18:17:12.0000000+00:00</time></trkpt><trkpt lat="35.0261226" lon="32.4160253"><ele>61.6</ele><time>2015-04-24T18:17:13.0000000+00:00</time></trkpt><trkpt lat="35.0261512" lon="32.4161272"><ele>62.3</ele><time>2015-04-24T18:17:15.0000000+00:00</time></trkpt><trkpt lat="35.0261686" lon="32.4161782"><ele>62.6</ele><time>2015-04-24T18:17:16.0000000+00:00</time></trkpt><trkpt lat="35.026205" lon="32.4162763"><ele>62.4</ele><time>2015-04-24T18:17:18.0000000+00:00</time></trkpt><trkpt lat="35.0262469" lon="32.4163707"><ele>62.0</ele><time>2015-04-24T18:17:20.0000000+00:00</time></trkpt><trkpt lat="35.0262909" lon="32.4164587"><ele>61.2</ele><time>2015-04-24T18:17:22.0000000+00:00</time></trkpt><trkpt lat="35.0263322" lon="32.4165477"><ele>60.2</ele><time>2015-04-24T18:17:24.0000000+00:00</time></trkpt><trkpt lat="35.0263731" lon="32.4166352"><ele>60.5</ele><time>2015-04-24T18:17:26.0000000+00:00</time></trkpt><trkpt lat="35.0264128" lon="32.4167131"><ele>60.8</ele><time>2015-04-24T18:17:28.0000000+00:00</time></trkpt><trkpt lat="35.0264411" lon="32.4167766"><ele>60.9</ele><time>2015-04-24T18:17:30.0000000+00:00</time></trkpt><trkpt lat="35.0264597" lon="32.4168321"><ele>60.7</ele><time>2015-04-24T18:17:32.0000000+00:00</time></trkpt><trkpt lat="35.0264858" lon="32.4168892"><ele>60.9</ele><time>2015-04-24T18:17:34.0000000+00:00</time></trkpt><trkpt lat="35.0265137" lon="32.4169558"><ele>60.4</ele><time>2015-04-24T18:17:36.0000000+00:00</time></trkpt><trkpt lat="35.0265522" lon="32.4170242"><ele>60.3</ele><time>2015-04-24T18:17:38.0000000+00:00</time></trkpt><trkpt lat="35.0265936" lon="32.417096"><ele>60.0</ele><time>2015-04-24T18:17:40.0000000+00:00</time></trkpt><trkpt lat="35.0266436" lon="32.4171657"><ele>60.0</ele><time>2015-04-24T18:17:42.0000000+00:00</time></trkpt><trkpt lat="35.0267053" lon="32.4172249"><ele>59.2</ele><time>2015-04-24T18:17:44.0000000+00:00</time></trkpt><trkpt lat="35.0268196" lon="32.4172661"><ele>57.7</ele><time>2015-04-24T18:17:46.0000000+00:00</time></trkpt><trkpt lat="35.0268818" lon="32.4172927"><ele>57.3</ele><time>2015-04-24T18:17:47.0000000+00:00</time></trkpt><trkpt lat="35.0269508" lon="32.4173265"><ele>57.1</ele><time>2015-04-24T18:17:48.0000000+00:00</time></trkpt><trkpt lat="35.0270163" lon="32.4173519"><ele>56.5</ele><time>2015-04-24T18:17:49.0000000+00:00</time></trkpt><trkpt lat="35.0270807" lon="32.4173756"><ele>55.2</ele><time>2015-04-24T18:17:50.0000000+00:00</time></trkpt><trkpt lat="35.0271431" lon="32.4174167"><ele>54.6</ele><time>2015-04-24T18:17:51.0000000+00:00</time></trkpt><trkpt lat="35.0272174" lon="32.4174503"><ele>53.8</ele><time>2015-04-24T18:17:52.0000000+00:00</time></trkpt><trkpt lat="35.0272776" lon="32.4174872"><ele>52.8</ele><time>2015-04-24T18:17:53.0000000+00:00</time></trkpt><trkpt lat="35.0273294" lon="32.4175384"><ele>51.9</ele><time>2015-04-24T18:17:54.0000000+00:00</time></trkpt><trkpt lat="35.0273939" lon="32.4175929"><ele>50.9</ele><time>2015-04-24T18:17:55.0000000+00:00</time></trkpt><trkpt lat="35.0274502" lon="32.4176483"><ele>49.9</ele><time>2015-04-24T18:17:56.0000000+00:00</time></trkpt><trkpt lat="35.0275027" lon="32.4177123"><ele>48.9</ele><time>2015-04-24T18:17:57.0000000+00:00</time></trkpt><trkpt lat="35.0275652" lon="32.4177718"><ele>47.9</ele><time>2015-04-24T18:17:58.0000000+00:00</time></trkpt><trkpt lat="35.0276283" lon="32.4178381"><ele>46.9</ele><time>2015-04-24T18:17:59.0000000+00:00</time></trkpt><trkpt lat="35.0276863" lon="32.4179001"><ele>45.9</ele><time>2015-04-24T18:18:00.0000000+00:00</time></trkpt><trkpt lat="35.0277446" lon="32.4179564"><ele>44.9</ele><time>2015-04-24T18:18:01.0000000+00:00</time></trkpt><trkpt lat="35.0277907" lon="32.418026"><ele>43.9</ele><time>2015-04-24T18:18:02.0000000+00:00</time></trkpt><trkpt lat="35.027837" lon="32.4180894"><ele>42.4</ele><time>2015-04-24T18:18:03.0000000+00:00</time></trkpt><trkpt lat="35.0278908" lon="32.4181531"><ele>41.7</ele><time>2015-04-24T18:18:04.0000000+00:00</time></trkpt><trkpt lat="35.0279273" lon="32.4182066"><ele>41.3</ele><time>2015-04-24T18:18:05.0000000+00:00</time></trkpt><trkpt lat="35.0279583" lon="32.4182567"><ele>40.6</ele><time>2015-04-24T18:18:06.0000000+00:00</time></trkpt><trkpt lat="35.0279938" lon="32.4183102"><ele>40.8</ele><time>2015-04-24T18:18:07.0000000+00:00</time></trkpt><trkpt lat="35.0280187" lon="32.4183676"><ele>40.4</ele><time>2015-04-24T18:18:08.0000000+00:00</time></trkpt><trkpt lat="35.0280583" lon="32.4184417"><ele>40.0</ele><time>2015-04-24T18:18:10.0000000+00:00</time></trkpt><trkpt lat="35.0281092" lon="32.4184653"><ele>40.0</ele><time>2015-04-24T18:18:12.0000000+00:00</time></trkpt><trkpt lat="35.0281725" lon="32.4184572"><ele>39.7</ele><time>2015-04-24T18:18:14.0000000+00:00</time></trkpt><trkpt lat="35.0282492" lon="32.4184508"><ele>40.6</ele><time>2015-04-24T18:18:16.0000000+00:00</time></trkpt><trkpt lat="35.028315" lon="32.4184154"><ele>40.9</ele><time>2015-04-24T18:18:18.0000000+00:00</time></trkpt><trkpt lat="35.0283985" lon="32.4183772"><ele>39.9</ele><time>2015-04-24T18:18:20.0000000+00:00</time></trkpt><trkpt lat="35.0284575" lon="32.4183421"><ele>39.4</ele><time>2015-04-24T18:18:21.0000000+00:00</time></trkpt><trkpt lat="35.028502" lon="32.4183017"><ele>38.7</ele><time>2015-04-24T18:18:22.0000000+00:00</time></trkpt><trkpt lat="35.028541" lon="32.4182632"><ele>37.8</ele><time>2015-04-24T18:18:23.0000000+00:00</time></trkpt><trkpt lat="35.0285783" lon="32.4182146"><ele>36.4</ele><time>2015-04-24T18:18:24.0000000+00:00</time></trkpt><trkpt lat="35.0286188" lon="32.4181573"><ele>34.1</ele><time>2015-04-24T18:18:25.0000000+00:00</time></trkpt><trkpt lat="35.0286454" lon="32.4181071"><ele>33.5</ele><time>2015-04-24T18:18:26.0000000+00:00</time></trkpt><trkpt lat="35.0286833" lon="32.4180595"><ele>32.7</ele><time>2015-04-24T18:18:27.0000000+00:00</time></trkpt><trkpt lat="35.0287136" lon="32.4180183"><ele>32.3</ele><time>2015-04-24T18:18:28.0000000+00:00</time></trkpt><trkpt lat="35.0287666" lon="32.417971"><ele>30.5</ele><time>2015-04-24T18:18:30.0000000+00:00</time></trkpt><trkpt lat="35.0288216" lon="32.4179556"><ele>31.3</ele><time>2015-04-24T18:18:32.0000000+00:00</time></trkpt><trkpt lat="35.0288708" lon="32.4179738"><ele>32.1</ele><time>2015-04-24T18:18:33.0000000+00:00</time></trkpt><trkpt lat="35.028927" lon="32.4180124"><ele>32.0</ele><time>2015-04-24T18:18:35.0000000+00:00</time></trkpt><trkpt lat="35.0289591" lon="32.4180543"><ele>31.5</ele><time>2015-04-24T18:18:36.0000000+00:00</time></trkpt><trkpt lat="35.0289993" lon="32.4181314"><ele>30.6</ele><time>2015-04-24T18:18:38.0000000+00:00</time></trkpt><trkpt lat="35.0290399" lon="32.4182187"><ele>30.8</ele><time>2015-04-24T18:18:40.0000000+00:00</time></trkpt><trkpt lat="35.0290736" lon="32.4183089"><ele>30.9</ele><time>2015-04-24T18:18:42.0000000+00:00</time></trkpt><trkpt lat="35.0291034" lon="32.418404"><ele>30.4</ele><time>2015-04-24T18:18:44.0000000+00:00</time></trkpt><trkpt lat="35.0291422" lon="32.4184936"><ele>29.3</ele><time>2015-04-24T18:18:46.0000000+00:00</time></trkpt><trkpt lat="35.0291852" lon="32.4185793"><ele>29.0</ele><time>2015-04-24T18:18:48.0000000+00:00</time></trkpt><trkpt lat="35.0292251" lon="32.4186684"><ele>27.7</ele><time>2015-04-24T18:18:50.0000000+00:00</time></trkpt><trkpt lat="35.0292598" lon="32.4187237"><ele>27.8</ele><time>2015-04-24T18:18:51.0000000+00:00</time></trkpt><trkpt lat="35.0292831" lon="32.4187875"><ele>27.4</ele><time>2015-04-24T18:18:52.0000000+00:00</time></trkpt><trkpt lat="35.0293059" lon="32.4188506"><ele>26.7</ele><time>2015-04-24T18:18:53.0000000+00:00</time></trkpt><trkpt lat="35.0293371" lon="32.4189566"><ele>26.1</ele><time>2015-04-24T18:18:55.0000000+00:00</time></trkpt><trkpt lat="35.0293775" lon="32.4190476"><ele>26.7</ele><time>2015-04-24T18:18:57.0000000+00:00</time></trkpt><trkpt lat="35.0294111" lon="32.4191236"><ele>26.9</ele><time>2015-04-24T18:18:59.0000000+00:00</time></trkpt><trkpt lat="35.0294527" lon="32.4191928"><ele>26.9</ele><time>2015-04-24T18:19:01.0000000+00:00</time></trkpt><trkpt lat="35.0294887" lon="32.4192287"><ele>27.9</ele><time>2015-04-24T18:19:02.0000000+00:00</time></trkpt><trkpt lat="35.029544" lon="32.4192926"><ele>28.2</ele><time>2015-04-24T18:19:04.0000000+00:00</time></trkpt><trkpt lat="35.029595" lon="32.4193455"><ele>28.7</ele><time>2015-04-24T18:19:06.0000000+00:00</time></trkpt><trkpt lat="35.0296485" lon="32.4193948"><ele>28.9</ele><time>2015-04-24T18:19:08.0000000+00:00</time></trkpt><trkpt lat="35.0297008" lon="32.4194503"><ele>29.2</ele><time>2015-04-24T18:19:10.0000000+00:00</time></trkpt><trkpt lat="35.0297572" lon="32.4195149"><ele>29.0</ele><time>2015-04-24T18:19:12.0000000+00:00</time></trkpt><trkpt lat="35.0298151" lon="32.4195763"><ele>29.7</ele><time>2015-04-24T18:19:14.0000000+00:00</time></trkpt><trkpt lat="35.0298772" lon="32.4196331"><ele>29.9</ele><time>2015-04-24T18:19:16.0000000+00:00</time></trkpt><trkpt lat="35.029938" lon="32.4196902"><ele>29.9</ele><time>2015-04-24T18:19:18.0000000+00:00</time></trkpt><trkpt lat="35.029993" lon="32.4197502"><ele>30.4</ele><time>2015-04-24T18:19:20.0000000+00:00</time></trkpt><trkpt lat="35.0300439" lon="32.4198125"><ele>30.8</ele><time>2015-04-24T18:19:22.0000000+00:00</time></trkpt><trkpt lat="35.0300901" lon="32.4198719"><ele>30.9</ele><time>2015-04-24T18:19:24.0000000+00:00</time></trkpt><trkpt lat="35.0301332" lon="32.419929"><ele>30.9</ele><time>2015-04-24T18:19:26.0000000+00:00</time></trkpt><trkpt lat="35.0301683" lon="32.4199831"><ele>31.7</ele><time>2015-04-24T18:19:28.0000000+00:00</time></trkpt><trkpt lat="35.0302059" lon="32.4200334"><ele>32.0</ele><time>2015-04-24T18:19:32.0000000+00:00</time></trkpt><trkpt lat="35.0301694" lon="32.4200753"><ele>32.0</ele><time>2015-04-24T18:19:43.0000000+00:00</time></trkpt><trkpt lat="35.0301329" lon="32.4201095"><ele>31.4</ele><time>2015-04-24T18:19:51.0000000+00:00</time></trkpt><trkpt lat="35.0300891" lon="32.4200918"><ele>32.5</ele><time>2015-04-24T18:20:54.0000000+00:00</time></trkpt><trkpt lat="35.0301346" lon="32.4200905"><ele>34.8</ele><time>2015-04-24T18:22:15.0000000+00:00</time></trkpt><trkpt lat="35.0301797" lon="32.4200916"><ele>35.9</ele><time>2015-04-24T18:23:11.0000000+00:00</time></trkpt><trkpt lat="35.0301849" lon="32.4201461"><ele>31.9</ele><time>2015-04-24T18:28:18.0000000+00:00</time></trkpt><trkpt lat="35.0301736" lon="32.4200905"><ele>32.9</ele><time>2015-04-24T18:29:27.0000000+00:00</time></trkpt><trkpt lat="35.0301452" lon="32.420134"><ele>32.9</ele><time>2015-04-24T18:33:53.0000000+00:00</time></trkpt><trkpt lat="35.0301897" lon="32.4201528"><ele>33.5</ele><time>2015-04-24T18:34:19.0000000+00:00</time></trkpt><trkpt lat="35.0302425" lon="32.4202027"><ele>33.9</ele><time>2015-04-24T18:34:22.0000000+00:00</time></trkpt><trkpt lat="35.0302745" lon="32.4202644"><ele>33.9</ele><time>2015-04-24T18:34:24.0000000+00:00</time></trkpt><trkpt lat="35.0303052" lon="32.4203339"><ele>33.2</ele><time>2015-04-24T18:34:26.0000000+00:00</time></trkpt><trkpt lat="35.0303344" lon="32.4203985"><ele>33.5</ele><time>2015-04-24T18:34:28.0000000+00:00</time></trkpt><trkpt lat="35.0303558" lon="32.4204583"><ele>33.1</ele><time>2015-04-24T18:34:30.0000000+00:00</time></trkpt><trkpt lat="35.0303734" lon="32.4205093"><ele>33.0</ele><time>2015-04-24T18:34:32.0000000+00:00</time></trkpt><trkpt lat="35.0303936" lon="32.4205607"><ele>32.4</ele><time>2015-04-24T18:34:34.0000000+00:00</time></trkpt><trkpt lat="35.0304104" lon="32.4206133"><ele>32.1</ele><time>2015-04-24T18:34:36.0000000+00:00</time></trkpt><trkpt lat="35.0304316" lon="32.4206671"><ele>32.7</ele><time>2015-04-24T18:34:38.0000000+00:00</time></trkpt><trkpt lat="35.0304537" lon="32.4207227"><ele>32.9</ele><time>2015-04-24T18:34:40.0000000+00:00</time></trkpt><trkpt lat="35.0304756" lon="32.420778"><ele>32.9</ele><time>2015-04-24T18:34:42.0000000+00:00</time></trkpt><trkpt lat="35.0305021" lon="32.4208281"><ele>32.4</ele><time>2015-04-24T18:34:44.0000000+00:00</time></trkpt><trkpt lat="35.0305212" lon="32.4208838"><ele>32.8</ele><time>2015-04-24T18:34:46.0000000+00:00</time></trkpt><trkpt lat="35.0305453" lon="32.4209422"><ele>32.6</ele><time>2015-04-24T18:34:48.0000000+00:00</time></trkpt><trkpt lat="35.0305682" lon="32.4210003"><ele>32.4</ele><time>2015-04-24T18:34:50.0000000+00:00</time></trkpt><trkpt lat="35.0305924" lon="32.421061"><ele>32.8</ele><time>2015-04-24T18:34:52.0000000+00:00</time></trkpt><trkpt lat="35.0306148" lon="32.4211193"><ele>32.9</ele><time>2015-04-24T18:34:54.0000000+00:00</time></trkpt><trkpt lat="35.0306338" lon="32.4211813"><ele>32.4</ele><time>2015-04-24T18:34:56.0000000+00:00</time></trkpt><trkpt lat="35.030652" lon="32.4212444"><ele>32.1</ele><time>2015-04-24T18:34:58.0000000+00:00</time></trkpt><trkpt lat="35.0306681" lon="32.4213077"><ele>31.7</ele><time>2015-04-24T18:35:00.0000000+00:00</time></trkpt><trkpt lat="35.0306893" lon="32.4213693"><ele>31.9</ele><time>2015-04-24T18:35:02.0000000+00:00</time></trkpt><trkpt lat="35.0307142" lon="32.4214419"><ele>31.9</ele><time>2015-04-24T18:35:04.0000000+00:00</time></trkpt><trkpt lat="35.0307402" lon="32.4215236"><ele>31.2</ele><time>2015-04-24T18:35:06.0000000+00:00</time></trkpt><trkpt lat="35.0307631" lon="32.4216077"><ele>31.0</ele><time>2015-04-24T18:35:08.0000000+00:00</time></trkpt><trkpt lat="35.0307814" lon="32.4216915"><ele>30.4</ele><time>2015-04-24T18:35:10.0000000+00:00</time></trkpt><trkpt lat="35.0307958" lon="32.4217764"><ele>30.1</ele><time>2015-04-24T18:35:12.0000000+00:00</time></trkpt><trkpt lat="35.0308128" lon="32.421866"><ele>30.7</ele><time>2015-04-24T18:35:14.0000000+00:00</time></trkpt><trkpt lat="35.0308242" lon="32.4219343"><ele>30.8</ele><time>2015-04-24T18:35:15.0000000+00:00</time></trkpt><trkpt lat="35.0308378" lon="32.4219906"><ele>30.9</ele><time>2015-04-24T18:35:16.0000000+00:00</time></trkpt><trkpt lat="35.0308573" lon="32.4220877"><ele>30.9</ele><time>2015-04-24T18:35:18.0000000+00:00</time></trkpt><trkpt lat="35.0308689" lon="32.4221425"><ele>30.9</ele><time>2015-04-24T18:35:19.0000000+00:00</time></trkpt><trkpt lat="35.0308958" lon="32.4222451"><ele>30.9</ele><time>2015-04-24T18:35:21.0000000+00:00</time></trkpt><trkpt lat="35.03092" lon="32.4222993"><ele>30.4</ele><time>2015-04-24T18:35:22.0000000+00:00</time></trkpt><trkpt lat="35.0309382" lon="32.422357"><ele>30.2</ele><time>2015-04-24T18:35:23.0000000+00:00</time></trkpt><trkpt lat="35.0309588" lon="32.4224065"><ele>30.1</ele><time>2015-04-24T18:35:24.0000000+00:00</time></trkpt><trkpt lat="35.0310026" lon="32.4225069"><ele>30.7</ele><time>2015-04-24T18:35:26.0000000+00:00</time></trkpt><trkpt lat="35.0310298" lon="32.4225549"><ele>30.3</ele><time>2015-04-24T18:35:27.0000000+00:00</time></trkpt><trkpt lat="35.0310648" lon="32.4226008"><ele>30.1</ele><time>2015-04-24T18:35:28.0000000+00:00</time></trkpt><trkpt lat="35.0310959" lon="32.4226465"><ele>30.5</ele><time>2015-04-24T18:35:29.0000000+00:00</time></trkpt><trkpt lat="35.0311352" lon="32.4226956"><ele>30.7</ele><time>2015-04-24T18:35:30.0000000+00:00</time></trkpt><trkpt lat="35.0311717" lon="32.4227432"><ele>30.8</ele><time>2015-04-24T18:35:31.0000000+00:00</time></trkpt><trkpt lat="35.0312172" lon="32.4227963"><ele>31.4</ele><time>2015-04-24T18:35:32.0000000+00:00</time></trkpt><trkpt lat="35.031253" lon="32.4228463"><ele>31.7</ele><time>2015-04-24T18:35:33.0000000+00:00</time></trkpt><trkpt lat="35.0312938" lon="32.4228928"><ele>31.3</ele><time>2015-04-24T18:35:34.0000000+00:00</time></trkpt><trkpt lat="35.0313351" lon="32.4229436"><ele>31.1</ele><time>2015-04-24T18:35:35.0000000+00:00</time></trkpt><trkpt lat="35.0313666" lon="32.4229982"><ele>31.5</ele><time>2015-04-24T18:35:36.0000000+00:00</time></trkpt><trkpt lat="35.0313976" lon="32.4230539"><ele>31.7</ele><time>2015-04-24T18:35:37.0000000+00:00</time></trkpt><trkpt lat="35.0314328" lon="32.4231024"><ele>31.8</ele><time>2015-04-24T18:35:38.0000000+00:00</time></trkpt><trkpt lat="35.0314687" lon="32.4231514"><ele>31.9</ele><time>2015-04-24T18:35:39.0000000+00:00</time></trkpt><trkpt lat="35.0315004" lon="32.4231994"><ele>31.4</ele><time>2015-04-24T18:35:40.0000000+00:00</time></trkpt><trkpt lat="35.031536" lon="32.4232452"><ele>31.2</ele><time>2015-04-24T18:35:41.0000000+00:00</time></trkpt><trkpt lat="35.03158" lon="32.4233049"><ele>31.0</ele><time>2015-04-24T18:35:43.0000000+00:00</time></trkpt><trkpt lat="35.0316156" lon="32.4233517"><ele>31.6</ele><time>2015-04-24T18:35:48.0000000+00:00</time></trkpt><trkpt lat="35.0316495" lon="32.4234011"><ele>31.5</ele><time>2015-04-24T18:35:56.0000000+00:00</time></trkpt><trkpt lat="35.0316973" lon="32.4234462"><ele>32.6</ele><time>2015-04-24T18:35:59.0000000+00:00</time></trkpt><trkpt lat="35.0317333" lon="32.4234879"><ele>31.6</ele><time>2015-04-24T18:36:01.0000000+00:00</time></trkpt><trkpt lat="35.0317706" lon="32.423536"><ele>31.1</ele><time>2015-04-24T18:36:03.0000000+00:00</time></trkpt><trkpt lat="35.0318086" lon="32.423596"><ele>31.0</ele><time>2015-04-24T18:36:05.0000000+00:00</time></trkpt><trkpt lat="35.031842" lon="32.4236635"><ele>30.2</ele><time>2015-04-24T18:36:07.0000000+00:00</time></trkpt><trkpt lat="35.0318857" lon="32.4237318"><ele>32.2</ele><time>2015-04-24T18:36:09.0000000+00:00</time></trkpt><trkpt lat="35.0319386" lon="32.423801"><ele>32.3</ele><time>2015-04-24T18:36:11.0000000+00:00</time></trkpt><trkpt lat="35.0319685" lon="32.4238426"><ele>31.6</ele><time>2015-04-24T18:36:12.0000000+00:00</time></trkpt><trkpt lat="35.0319985" lon="32.4238846"><ele>31.3</ele><time>2015-04-24T18:36:13.0000000+00:00</time></trkpt><trkpt lat="35.0320285" lon="32.4239268"><ele>31.1</ele><time>2015-04-24T18:36:14.0000000+00:00</time></trkpt><trkpt lat="35.0320856" lon="32.4240073"><ele>30.2</ele><time>2015-04-24T18:36:16.0000000+00:00</time></trkpt><trkpt lat="35.0321429" lon="32.4240814"><ele>29.8</ele><time>2015-04-24T18:36:18.0000000+00:00</time></trkpt><trkpt lat="35.032197" lon="32.4241513"><ele>29.4</ele><time>2015-04-24T18:36:20.0000000+00:00</time></trkpt><trkpt lat="35.0322519" lon="32.4242202"><ele>29.0</ele><time>2015-04-24T18:36:22.0000000+00:00</time></trkpt><trkpt lat="35.032308" lon="32.4242922"><ele>29.0</ele><time>2015-04-24T18:36:24.0000000+00:00</time></trkpt><trkpt lat="35.0323655" lon="32.4243654"><ele>29.7</ele><time>2015-04-24T18:36:26.0000000+00:00</time></trkpt><trkpt lat="35.032428" lon="32.4244428"><ele>29.9</ele><time>2015-04-24T18:36:28.0000000+00:00</time></trkpt><trkpt lat="35.0324877" lon="32.4245218"><ele>29.4</ele><time>2015-04-24T18:36:30.0000000+00:00</time></trkpt><trkpt lat="35.0325414" lon="32.424598"><ele>29.6</ele><time>2015-04-24T18:36:32.0000000+00:00</time></trkpt><trkpt lat="35.0325933" lon="32.424673"><ele>29.6</ele><time>2015-04-24T18:36:34.0000000+00:00</time></trkpt><trkpt lat="35.0326414" lon="32.4247474"><ele>29.8</ele><time>2015-04-24T18:36:36.0000000+00:00</time></trkpt><trkpt lat="35.0326885" lon="32.4248184"><ele>29.9</ele><time>2015-04-24T18:36:38.0000000+00:00</time></trkpt><trkpt lat="35.032738" lon="32.4248853"><ele>29.9</ele><time>2015-04-24T18:36:40.0000000+00:00</time></trkpt><trkpt lat="35.0327889" lon="32.42495"><ele>30.4</ele><time>2015-04-24T18:36:42.0000000+00:00</time></trkpt><trkpt lat="35.0328365" lon="32.4250052"><ele>30.8</ele><time>2015-04-24T18:36:44.0000000+00:00</time></trkpt><trkpt lat="35.032878" lon="32.4250558"><ele>31.1</ele><time>2015-04-24T18:36:46.0000000+00:00</time></trkpt><trkpt lat="35.0329198" lon="32.4251077"><ele>31.0</ele><time>2015-04-24T18:36:48.0000000+00:00</time></trkpt><trkpt lat="35.032961" lon="32.4251597"><ele>30.7</ele><time>2015-04-24T18:36:50.0000000+00:00</time></trkpt><trkpt lat="35.0330011" lon="32.4252088"><ele>30.1</ele><time>2015-04-24T18:36:52.0000000+00:00</time></trkpt><trkpt lat="35.0330466" lon="32.4252455"><ele>30.0</ele><time>2015-04-24T18:36:54.0000000+00:00</time></trkpt><trkpt lat="35.0330962" lon="32.4252619"><ele>30.4</ele><time>2015-04-24T18:36:56.0000000+00:00</time></trkpt><trkpt lat="35.0331596" lon="32.4252914"><ele>30.9</ele><time>2015-04-24T18:36:59.0000000+00:00</time></trkpt><trkpt lat="35.0332236" lon="32.4253249"><ele>32.3</ele><time>2015-04-24T18:37:02.0000000+00:00</time></trkpt><trkpt lat="35.0332702" lon="32.4253571"><ele>32.8</ele><time>2015-04-24T18:37:04.0000000+00:00</time></trkpt><trkpt lat="35.0333159" lon="32.4253854"><ele>33.6</ele><time>2015-04-24T18:37:06.0000000+00:00</time></trkpt><trkpt lat="35.0333591" lon="32.4254103"><ele>33.9</ele><time>2015-04-24T18:37:08.0000000+00:00</time></trkpt><trkpt lat="35.0333988" lon="32.4254381"><ele>34.4</ele><time>2015-04-24T18:37:10.0000000+00:00</time></trkpt><trkpt lat="35.0334512" lon="32.425476"><ele>35.6</ele><time>2015-04-24T18:37:13.0000000+00:00</time></trkpt><trkpt lat="35.033501" lon="32.4254965"><ele>37.1</ele><time>2015-04-24T18:37:16.0000000+00:00</time></trkpt><trkpt lat="35.0335481" lon="32.4255198"><ele>37.0</ele><time>2015-04-24T18:37:19.0000000+00:00</time></trkpt><trkpt lat="35.0335914" lon="32.4255403"><ele>37.4</ele><time>2015-04-24T18:37:22.0000000+00:00</time></trkpt><trkpt lat="35.0336356" lon="32.4255562"><ele>37.1</ele><time>2015-04-24T18:37:25.0000000+00:00</time></trkpt><trkpt lat="35.0336801" lon="32.425598"><ele>37.5</ele><time>2015-04-24T18:37:30.0000000+00:00</time></trkpt><trkpt lat="35.0336801" lon="32.4256594"><ele>38.0</ele><time>2015-04-24T18:37:33.0000000+00:00</time></trkpt><trkpt lat="35.03365" lon="32.4257056"><ele>38.0</ele><time>2015-04-24T18:37:34.0000000+00:00</time></trkpt><trkpt lat="35.0336165" lon="32.425753"><ele>37.4</ele><time>2015-04-24T18:37:36.0000000+00:00</time></trkpt><trkpt lat="35.0335993" lon="32.4258111"><ele>36.4</ele><time>2015-04-24T18:37:51.0000000+00:00</time></trkpt><trkpt lat="35.0335686" lon="32.4258663"><ele>36.0</ele><time>2015-04-24T18:37:55.0000000+00:00</time></trkpt><trkpt lat="35.0335134" lon="32.4259079"><ele>36.6</ele><time>2015-04-24T18:37:58.0000000+00:00</time></trkpt><trkpt lat="35.0334594" lon="32.4259455"><ele>36.1</ele><time>2015-04-24T18:38:01.0000000+00:00</time></trkpt><trkpt lat="35.0333988" lon="32.425995"><ele>35.6</ele><time>2015-04-24T18:38:04.0000000+00:00</time></trkpt><trkpt lat="35.0333626" lon="32.4260302"><ele>35.6</ele><time>2015-04-24T18:38:06.0000000+00:00</time></trkpt><trkpt lat="35.0333192" lon="32.4260863"><ele>35.0</ele><time>2015-04-24T18:38:09.0000000+00:00</time></trkpt><trkpt lat="35.0332733" lon="32.4261479"><ele>34.9</ele><time>2015-04-24T18:38:12.0000000+00:00</time></trkpt><trkpt lat="35.0332304" lon="32.4262058"><ele>35.7</ele><time>2015-04-24T18:38:15.0000000+00:00</time></trkpt><trkpt lat="35.0331971" lon="32.4262487"><ele>35.9</ele><time>2015-04-24T18:38:17.0000000+00:00</time></trkpt><trkpt lat="35.0331637" lon="32.4262931"><ele>35.9</ele><time>2015-04-24T18:38:19.0000000+00:00</time></trkpt><trkpt lat="35.0331235" lon="32.4263444"><ele>36.7</ele><time>2015-04-24T18:38:21.0000000+00:00</time></trkpt><trkpt lat="35.0330862" lon="32.4264013"><ele>37.6</ele><time>2015-04-24T18:38:23.0000000+00:00</time></trkpt><trkpt lat="35.0330524" lon="32.4264574"><ele>37.9</ele><time>2015-04-24T18:38:25.0000000+00:00</time></trkpt><trkpt lat="35.0330188" lon="32.4265062"><ele>37.9</ele><time>2015-04-24T18:38:27.0000000+00:00</time></trkpt><trkpt lat="35.032974" lon="32.4265664"><ele>38.9</ele><time>2015-04-24T18:38:30.0000000+00:00</time></trkpt><trkpt lat="35.0329281" lon="32.426625"><ele>39.8</ele><time>2015-04-24T18:38:33.0000000+00:00</time></trkpt><trkpt lat="35.032885" lon="32.4266795"><ele>40.7</ele><time>2015-04-24T18:38:36.0000000+00:00</time></trkpt><trkpt lat="35.0328417" lon="32.4267323"><ele>40.9</ele><time>2015-04-24T18:38:39.0000000+00:00</time></trkpt><trkpt lat="35.0328017" lon="32.4267784"><ele>41.8</ele><time>2015-04-24T18:38:42.0000000+00:00</time></trkpt><trkpt lat="35.0327589" lon="32.4268339"><ele>41.9</ele><time>2015-04-24T18:38:45.0000000+00:00</time></trkpt><trkpt lat="35.0327257" lon="32.426888"><ele>41.9</ele><time>2015-04-24T18:38:48.0000000+00:00</time></trkpt><trkpt lat="35.032691" lon="32.4269503"><ele>42.8</ele><time>2015-04-24T18:38:51.0000000+00:00</time></trkpt><trkpt lat="35.0326984" lon="32.4270199"><ele>42.9</ele><time>2015-04-24T18:38:53.0000000+00:00</time></trkpt><trkpt lat="35.0327496" lon="32.4270722"><ele>41.7</ele><time>2015-04-24T18:38:55.0000000+00:00</time></trkpt><trkpt lat="35.0328023" lon="32.4271076"><ele>41.9</ele><time>2015-04-24T18:38:57.0000000+00:00</time></trkpt><trkpt lat="35.0328658" lon="32.4271335"><ele>41.9</ele><time>2015-04-24T18:38:59.0000000+00:00</time></trkpt><trkpt lat="35.0329347" lon="32.4271647"><ele>41.9</ele><time>2015-04-24T18:39:01.0000000+00:00</time></trkpt><trkpt lat="35.0330077" lon="32.4271984"><ele>41.9</ele><time>2015-04-24T18:39:03.0000000+00:00</time></trkpt><trkpt lat="35.033062" lon="32.4272099"><ele>41.9</ele><time>2015-04-24T18:39:04.0000000+00:00</time></trkpt><trkpt lat="35.0331542" lon="32.4272135"><ele>42.4</ele><time>2015-04-24T18:39:06.0000000+00:00</time></trkpt><trkpt lat="35.0332439" lon="32.4271902"><ele>43.3</ele><time>2015-04-24T18:39:08.0000000+00:00</time></trkpt><trkpt lat="35.0333106" lon="32.4271848"><ele>43.3</ele><time>2015-04-24T18:39:10.0000000+00:00</time></trkpt><trkpt lat="35.0333861" lon="32.4271546"><ele>43.0</ele><time>2015-04-24T18:39:12.0000000+00:00</time></trkpt><trkpt lat="35.0334717" lon="32.4271428"><ele>42.5</ele><time>2015-04-24T18:39:14.0000000+00:00</time></trkpt><trkpt lat="35.0335547" lon="32.427128"><ele>41.3</ele><time>2015-04-24T18:39:16.0000000+00:00</time></trkpt><trkpt lat="35.0336554" lon="32.4271228"><ele>40.5</ele><time>2015-04-24T18:39:18.0000000+00:00</time></trkpt><trkpt lat="35.0337052" lon="32.4271239"><ele>40.2</ele><time>2015-04-24T18:39:19.0000000+00:00</time></trkpt><trkpt lat="35.0337605" lon="32.4271305"><ele>39.6</ele><time>2015-04-24T18:39:20.0000000+00:00</time></trkpt><trkpt lat="35.0338138" lon="32.4271354"><ele>39.3</ele><time>2015-04-24T18:39:21.0000000+00:00</time></trkpt><trkpt lat="35.0338765" lon="32.4271586"><ele>39.1</ele><time>2015-04-24T18:39:22.0000000+00:00</time></trkpt><trkpt lat="35.0339334" lon="32.4271724"><ele>39.0</ele><time>2015-04-24T18:39:23.0000000+00:00</time></trkpt><trkpt lat="35.0339987" lon="32.4272003"><ele>39.0</ele><time>2015-04-24T18:39:24.0000000+00:00</time></trkpt><trkpt lat="35.0340561" lon="32.4272202"><ele>39.0</ele><time>2015-04-24T18:39:25.0000000+00:00</time></trkpt><trkpt lat="35.0341116" lon="32.427251"><ele>38.9</ele><time>2015-04-24T18:39:26.0000000+00:00</time></trkpt><trkpt lat="35.0341653" lon="32.4272753"><ele>38.9</ele><time>2015-04-24T18:39:27.0000000+00:00</time></trkpt><trkpt lat="35.0342154" lon="32.427313"><ele>38.4</ele><time>2015-04-24T18:39:28.0000000+00:00</time></trkpt><trkpt lat="35.0342667" lon="32.4273463"><ele>38.2</ele><time>2015-04-24T18:39:29.0000000+00:00</time></trkpt><trkpt lat="35.0343104" lon="32.427395"><ele>37.6</ele><time>2015-04-24T18:39:30.0000000+00:00</time></trkpt><trkpt lat="35.0343568" lon="32.4274367"><ele>37.2</ele><time>2015-04-24T18:39:31.0000000+00:00</time></trkpt><trkpt lat="35.0344047" lon="32.4274815"><ele>36.6</ele><time>2015-04-24T18:39:32.0000000+00:00</time></trkpt><trkpt lat="35.0344508" lon="32.4275228"><ele>36.3</ele><time>2015-04-24T18:39:33.0000000+00:00</time></trkpt><trkpt lat="35.0344999" lon="32.4275596"><ele>35.6</ele><time>2015-04-24T18:39:34.0000000+00:00</time></trkpt><trkpt lat="35.0345485" lon="32.4276018"><ele>35.3</ele><time>2015-04-24T18:39:35.0000000+00:00</time></trkpt><trkpt lat="35.0346024" lon="32.4276496"><ele>35.6</ele><time>2015-04-24T18:39:36.0000000+00:00</time></trkpt><trkpt lat="35.0346506" lon="32.4276944"><ele>35.3</ele><time>2015-04-24T18:39:37.0000000+00:00</time></trkpt><trkpt lat="35.0347113" lon="32.4277321"><ele>35.6</ele><time>2015-04-24T18:39:38.0000000+00:00</time></trkpt><trkpt lat="35.0347638" lon="32.4277715"><ele>35.8</ele><time>2015-04-24T18:39:39.0000000+00:00</time></trkpt><trkpt lat="35.0348249" lon="32.427802"><ele>35.3</ele><time>2015-04-24T18:39:40.0000000+00:00</time></trkpt><trkpt lat="35.0348809" lon="32.4278372"><ele>35.1</ele><time>2015-04-24T18:39:41.0000000+00:00</time></trkpt><trkpt lat="35.0349429" lon="32.4278554"><ele>35.0</ele><time>2015-04-24T18:39:42.0000000+00:00</time></trkpt><trkpt lat="35.035003" lon="32.4278792"><ele>35.0</ele><time>2015-04-24T18:39:43.0000000+00:00</time></trkpt><trkpt lat="35.0350567" lon="32.4279093"><ele>34.5</ele><time>2015-04-24T18:39:44.0000000+00:00</time></trkpt><trkpt lat="35.0351179" lon="32.4279301"><ele>34.2</ele><time>2015-04-24T18:39:45.0000000+00:00</time></trkpt><trkpt lat="35.0351779" lon="32.4279469"><ele>34.1</ele><time>2015-04-24T18:39:46.0000000+00:00</time></trkpt><trkpt lat="35.0352377" lon="32.4279678"><ele>34.0</ele><time>2015-04-24T18:39:47.0000000+00:00</time></trkpt><trkpt lat="35.0353027" lon="32.4279927"><ele>34.5</ele><time>2015-04-24T18:39:48.0000000+00:00</time></trkpt><trkpt lat="35.0353637" lon="32.4280157"><ele>34.7</ele><time>2015-04-24T18:39:49.0000000+00:00</time></trkpt><trkpt lat="35.0354253" lon="32.4280392"><ele>35.3</ele><time>2015-04-24T18:39:50.0000000+00:00</time></trkpt><trkpt lat="35.0354837" lon="32.4280668"><ele>35.6</ele><time>2015-04-24T18:39:51.0000000+00:00</time></trkpt><trkpt lat="35.0355259" lon="32.4280989"><ele>35.8</ele><time>2015-04-24T18:39:52.0000000+00:00</time></trkpt><trkpt lat="35.0355724" lon="32.428127"><ele>35.9</ele><time>2015-04-24T18:39:53.0000000+00:00</time></trkpt><trkpt lat="35.0356326" lon="32.4281985"><ele>35.9</ele><time>2015-04-24T18:39:55.0000000+00:00</time></trkpt><trkpt lat="35.0356614" lon="32.4282427"><ele>36.4</ele><time>2015-04-24T18:39:56.0000000+00:00</time></trkpt><trkpt lat="35.0357044" lon="32.4282971"><ele>36.6</ele><time>2015-04-24T18:39:58.0000000+00:00</time></trkpt><trkpt lat="35.0357329" lon="32.4283616"><ele>36.8</ele><time>2015-04-24T18:40:00.0000000+00:00</time></trkpt><trkpt lat="35.0357678" lon="32.4284377"><ele>36.9</ele><time>2015-04-24T18:40:02.0000000+00:00</time></trkpt><trkpt lat="35.0358035" lon="32.4285211"><ele>36.9</ele><time>2015-04-24T18:40:04.0000000+00:00</time></trkpt><trkpt lat="35.0358209" lon="32.428572"><ele>36.4</ele><time>2015-04-24T18:40:05.0000000+00:00</time></trkpt><trkpt lat="35.0358449" lon="32.4286411"><ele>36.2</ele><time>2015-04-24T18:40:06.0000000+00:00</time></trkpt><trkpt lat="35.0358653" lon="32.428699"><ele>36.1</ele><time>2015-04-24T18:40:07.0000000+00:00</time></trkpt><trkpt lat="35.0358906" lon="32.4287772"><ele>35.5</ele><time>2015-04-24T18:40:08.0000000+00:00</time></trkpt><trkpt lat="35.0359159" lon="32.4288439"><ele>34.7</ele><time>2015-04-24T18:40:09.0000000+00:00</time></trkpt><trkpt lat="35.0359523" lon="32.4289325"><ele>33.8</ele><time>2015-04-24T18:40:10.0000000+00:00</time></trkpt><trkpt lat="35.035983" lon="32.4290144"><ele>33.4</ele><time>2015-04-24T18:40:11.0000000+00:00</time></trkpt><trkpt lat="35.0360183" lon="32.4291223"><ele>32.2</ele><time>2015-04-24T18:40:12.0000000+00:00</time></trkpt><trkpt lat="35.0360529" lon="32.4292148"><ele>31.5</ele><time>2015-04-24T18:40:13.0000000+00:00</time></trkpt><trkpt lat="35.0360846" lon="32.4293223"><ele>30.7</ele><time>2015-04-24T18:40:14.0000000+00:00</time></trkpt><trkpt lat="35.0361185" lon="32.4294216"><ele>29.8</ele><time>2015-04-24T18:40:15.0000000+00:00</time></trkpt><trkpt lat="35.0361541" lon="32.4295195"><ele>29.4</ele><time>2015-04-24T18:40:16.0000000+00:00</time></trkpt><trkpt lat="35.0361879" lon="32.4296172"><ele>29.2</ele><time>2015-04-24T18:40:17.0000000+00:00</time></trkpt><trkpt lat="35.0362208" lon="32.4297105"><ele>29.0</ele><time>2015-04-24T18:40:18.0000000+00:00</time></trkpt><trkpt lat="35.0362491" lon="32.4297991"><ele>29.0</ele><time>2015-04-24T18:40:19.0000000+00:00</time></trkpt><trkpt lat="35.03628" lon="32.4298934"><ele>28.5</ele><time>2015-04-24T18:40:20.0000000+00:00</time></trkpt><trkpt lat="35.0363058" lon="32.4299826"><ele>28.2</ele><time>2015-04-24T18:40:21.0000000+00:00</time></trkpt><trkpt lat="35.0363332" lon="32.4300639"><ele>28.1</ele><time>2015-04-24T18:40:22.0000000+00:00</time></trkpt><trkpt lat="35.0363615" lon="32.4301461"><ele>27.5</ele><time>2015-04-24T18:40:23.0000000+00:00</time></trkpt><trkpt lat="35.0363945" lon="32.4302238"><ele>27.2</ele><time>2015-04-24T18:40:24.0000000+00:00</time></trkpt><trkpt lat="35.0364246" lon="32.4303003"><ele>27.1</ele><time>2015-04-24T18:40:25.0000000+00:00</time></trkpt><trkpt lat="35.036456" lon="32.4303655"><ele>27.0</ele><time>2015-04-24T18:40:26.0000000+00:00</time></trkpt><trkpt lat="35.0364902" lon="32.4304274"><ele>27.5</ele><time>2015-04-24T18:40:27.0000000+00:00</time></trkpt><trkpt lat="35.0365224" lon="32.4304873"><ele>27.7</ele><time>2015-04-24T18:40:28.0000000+00:00</time></trkpt><trkpt lat="35.0365538" lon="32.430554"><ele>27.8</ele><time>2015-04-24T18:40:29.0000000+00:00</time></trkpt><trkpt lat="35.0365788" lon="32.4306099"><ele>27.9</ele><time>2015-04-24T18:40:30.0000000+00:00</time></trkpt><trkpt lat="35.0366078" lon="32.4306696"><ele>27.9</ele><time>2015-04-24T18:40:31.0000000+00:00</time></trkpt><trkpt lat="35.0366374" lon="32.4307331"><ele>27.4</ele><time>2015-04-24T18:40:32.0000000+00:00</time></trkpt><trkpt lat="35.0366636" lon="32.4307936"><ele>27.2</ele><time>2015-04-24T18:40:33.0000000+00:00</time></trkpt><trkpt lat="35.0366971" lon="32.4308466"><ele>27.1</ele><time>2015-04-24T18:40:34.0000000+00:00</time></trkpt><trkpt lat="35.0367244" lon="32.4309018"><ele>27.5</ele><time>2015-04-24T18:40:35.0000000+00:00</time></trkpt><trkpt lat="35.0367556" lon="32.4309481"><ele>27.2</ele><time>2015-04-24T18:40:36.0000000+00:00</time></trkpt><trkpt lat="35.0367829" lon="32.431"><ele>27.1</ele><time>2015-04-24T18:40:37.0000000+00:00</time></trkpt><trkpt lat="35.036808" lon="32.4310482"><ele>26.5</ele><time>2015-04-24T18:40:38.0000000+00:00</time></trkpt><trkpt lat="35.0368329" lon="32.4310985"><ele>26.2</ele><time>2015-04-24T18:40:39.0000000+00:00</time></trkpt><trkpt lat="35.0368511" lon="32.4311575"><ele>26.1</ele><time>2015-04-24T18:40:40.0000000+00:00</time></trkpt><trkpt lat="35.0368892" lon="32.4312614"><ele>26.0</ele><time>2015-04-24T18:40:42.0000000+00:00</time></trkpt><trkpt lat="35.0369273" lon="32.4313431"><ele>25.9</ele><time>2015-04-24T18:40:44.0000000+00:00</time></trkpt><trkpt lat="35.0369651" lon="32.4314308"><ele>25.9</ele><time>2015-04-24T18:40:46.0000000+00:00</time></trkpt><trkpt lat="35.0370089" lon="32.4315345"><ele>25.9</ele><time>2015-04-24T18:40:48.0000000+00:00</time></trkpt><trkpt lat="35.037029" lon="32.4315846"><ele>26.4</ele><time>2015-04-24T18:40:49.0000000+00:00</time></trkpt><trkpt lat="35.0370597" lon="32.4316338"><ele>27.2</ele><time>2015-04-24T18:40:50.0000000+00:00</time></trkpt><trkpt lat="35.0370777" lon="32.4316877"><ele>27.6</ele><time>2015-04-24T18:40:51.0000000+00:00</time></trkpt><trkpt lat="35.0370906" lon="32.4317478"><ele>27.2</ele><time>2015-04-24T18:40:52.0000000+00:00</time></trkpt><trkpt lat="35.0371046" lon="32.4318043"><ele>26.6</ele><time>2015-04-24T18:40:53.0000000+00:00</time></trkpt><trkpt lat="35.0371112" lon="32.4318636"><ele>26.3</ele><time>2015-04-24T18:40:54.0000000+00:00</time></trkpt><trkpt lat="35.0371207" lon="32.4319214"><ele>26.1</ele><time>2015-04-24T18:40:55.0000000+00:00</time></trkpt><trkpt lat="35.0371468" lon="32.4319801"><ele>26.0</ele><time>2015-04-24T18:40:56.0000000+00:00</time></trkpt><trkpt lat="35.0371611" lon="32.4320359"><ele>26.0</ele><time>2015-04-24T18:40:57.0000000+00:00</time></trkpt><trkpt lat="35.0371774" lon="32.4320916"><ele>26.0</ele><time>2015-04-24T18:40:58.0000000+00:00</time></trkpt><trkpt lat="35.0372148" lon="32.4321943"><ele>26.9</ele><time>2015-04-24T18:41:00.0000000+00:00</time></trkpt><trkpt lat="35.0372408" lon="32.4322902"><ele>28.2</ele><time>2015-04-24T18:41:02.0000000+00:00</time></trkpt><trkpt lat="35.0372752" lon="32.4323772"><ele>28.7</ele><time>2015-04-24T18:41:04.0000000+00:00</time></trkpt><trkpt lat="35.037315" lon="32.4324784"><ele>28.9</ele><time>2015-04-24T18:41:06.0000000+00:00</time></trkpt><trkpt lat="35.037333" lon="32.4325289"><ele>28.9</ele><time>2015-04-24T18:41:07.0000000+00:00</time></trkpt><trkpt lat="35.037367" lon="32.4326051"><ele>28.9</ele><time>2015-04-24T18:41:09.0000000+00:00</time></trkpt><trkpt lat="35.0374114" lon="32.4326824"><ele>28.9</ele><time>2015-04-24T18:41:11.0000000+00:00</time></trkpt><trkpt lat="35.0374543" lon="32.4327491"><ele>29.7</ele><time>2015-04-24T18:41:13.0000000+00:00</time></trkpt><trkpt lat="35.0374935" lon="32.4328177"><ele>29.9</ele><time>2015-04-24T18:41:15.0000000+00:00</time></trkpt><trkpt lat="35.0375248" lon="32.4328852"><ele>29.9</ele><time>2015-04-24T18:41:17.0000000+00:00</time></trkpt><trkpt lat="35.0375517" lon="32.4329545"><ele>30.7</ele><time>2015-04-24T18:41:19.0000000+00:00</time></trkpt><trkpt lat="35.0375838" lon="32.433024"><ele>31.6</ele><time>2015-04-24T18:41:21.0000000+00:00</time></trkpt><trkpt lat="35.03763" lon="32.4330896"><ele>32.6</ele><time>2015-04-24T18:41:23.0000000+00:00</time></trkpt><trkpt lat="35.0376718" lon="32.4331568"><ele>33.3</ele><time>2015-04-24T18:41:25.0000000+00:00</time></trkpt><trkpt lat="35.0377159" lon="32.4332153"><ele>33.3</ele><time>2015-04-24T18:41:27.0000000+00:00</time></trkpt><trkpt lat="35.0377594" lon="32.433275"><ele>33.8</ele><time>2015-04-24T18:41:29.0000000+00:00</time></trkpt><trkpt lat="35.0377862" lon="32.4333378"><ele>33.6</ele><time>2015-04-24T18:41:31.0000000+00:00</time></trkpt><trkpt lat="35.0378114" lon="32.4333983"><ele>33.1</ele><time>2015-04-24T18:41:33.0000000+00:00</time></trkpt><trkpt lat="35.0378454" lon="32.4334549"><ele>33.7</ele><time>2015-04-24T18:41:35.0000000+00:00</time></trkpt><trkpt lat="35.0378918" lon="32.4335075"><ele>34.1</ele><time>2015-04-24T18:41:37.0000000+00:00</time></trkpt><trkpt lat="35.0379382" lon="32.4335606"><ele>34.7</ele><time>2015-04-24T18:41:39.0000000+00:00</time></trkpt><trkpt lat="35.0379859" lon="32.4336205"><ele>35.4</ele><time>2015-04-24T18:41:41.0000000+00:00</time></trkpt><trkpt lat="35.038037" lon="32.4336786"><ele>36.3</ele><time>2015-04-24T18:41:43.0000000+00:00</time></trkpt><trkpt lat="35.0380799" lon="32.4337449"><ele>36.3</ele><time>2015-04-24T18:41:45.0000000+00:00</time></trkpt><trkpt lat="35.0381145" lon="32.43381"><ele>36.3</ele><time>2015-04-24T18:41:47.0000000+00:00</time></trkpt><trkpt lat="35.0381562" lon="32.4338666"><ele>36.0</ele><time>2015-04-24T18:41:49.0000000+00:00</time></trkpt><trkpt lat="35.0381981" lon="32.4339197"><ele>36.0</ele><time>2015-04-24T18:41:51.0000000+00:00</time></trkpt><trkpt lat="35.0382393" lon="32.4339743"><ele>35.9</ele><time>2015-04-24T18:41:53.0000000+00:00</time></trkpt><trkpt lat="35.0382782" lon="32.4340291"><ele>35.4</ele><time>2015-04-24T18:41:55.0000000+00:00</time></trkpt><trkpt lat="35.0382939" lon="32.4340824"><ele>34.3</ele><time>2015-04-24T18:41:57.0000000+00:00</time></trkpt><trkpt lat="35.0383214" lon="32.4341375"><ele>34.0</ele><time>2015-04-24T18:41:59.0000000+00:00</time></trkpt><trkpt lat="35.0383577" lon="32.4341926"><ele>33.5</ele><time>2015-04-24T18:42:01.0000000+00:00</time></trkpt><trkpt lat="35.0383992" lon="32.4342398"><ele>33.1</ele><time>2015-04-24T18:42:03.0000000+00:00</time></trkpt><trkpt lat="35.0384418" lon="32.4342792"><ele>33.2</ele><time>2015-04-24T18:42:05.0000000+00:00</time></trkpt><trkpt lat="35.038482" lon="32.4343313"><ele>33.5</ele><time>2015-04-24T18:42:07.0000000+00:00</time></trkpt><trkpt lat="35.0385276" lon="32.4343982"><ele>34.3</ele><time>2015-04-24T18:42:09.0000000+00:00</time></trkpt><trkpt lat="35.0385783" lon="32.4344779"><ele>34.8</ele><time>2015-04-24T18:42:11.0000000+00:00</time></trkpt><trkpt lat="35.0386225" lon="32.4345688"><ele>34.4</ele><time>2015-04-24T18:42:13.0000000+00:00</time></trkpt><trkpt lat="35.0386625" lon="32.4346556"><ele>34.5</ele><time>2015-04-24T18:42:15.0000000+00:00</time></trkpt><trkpt lat="35.0387096" lon="32.4347342"><ele>35.3</ele><time>2015-04-24T18:42:17.0000000+00:00</time></trkpt><trkpt lat="35.0387478" lon="32.4348119"><ele>35.5</ele><time>2015-04-24T18:42:19.0000000+00:00</time></trkpt><trkpt lat="35.0387754" lon="32.4348938"><ele>35.1</ele><time>2015-04-24T18:42:21.0000000+00:00</time></trkpt><trkpt lat="35.0387998" lon="32.4349766"><ele>35.2</ele><time>2015-04-24T18:42:23.0000000+00:00</time></trkpt><trkpt lat="35.0388192" lon="32.4350673"><ele>35.0</ele><time>2015-04-24T18:42:25.0000000+00:00</time></trkpt><trkpt lat="35.0388441" lon="32.4351601"><ele>34.2</ele><time>2015-04-24T18:42:27.0000000+00:00</time></trkpt><trkpt lat="35.0388632" lon="32.435257"><ele>34.0</ele><time>2015-04-24T18:42:29.0000000+00:00</time></trkpt><trkpt lat="35.0388865" lon="32.4353517"><ele>33.4</ele><time>2015-04-24T18:42:31.0000000+00:00</time></trkpt><trkpt lat="35.0389158" lon="32.4354449"><ele>33.3</ele><time>2015-04-24T18:42:33.0000000+00:00</time></trkpt><trkpt lat="35.0389332" lon="32.4354968"><ele>33.6</ele><time>2015-04-24T18:42:34.0000000+00:00</time></trkpt><trkpt lat="35.0389678" lon="32.4356111"><ele>33.9</ele><time>2015-04-24T18:42:36.0000000+00:00</time></trkpt><trkpt lat="35.0389999" lon="32.4357048"><ele>33.9</ele><time>2015-04-24T18:42:38.0000000+00:00</time></trkpt><trkpt lat="35.039036" lon="32.4357882"><ele>33.9</ele><time>2015-04-24T18:42:40.0000000+00:00</time></trkpt><trkpt lat="35.0390808" lon="32.4358667"><ele>33.9</ele><time>2015-04-24T18:42:42.0000000+00:00</time></trkpt><trkpt lat="35.0391196" lon="32.4359316"><ele>33.9</ele><time>2015-04-24T18:42:44.0000000+00:00</time></trkpt><trkpt lat="35.0391737" lon="32.435998"><ele>33.7</ele><time>2015-04-24T18:42:46.0000000+00:00</time></trkpt><trkpt lat="35.0392267" lon="32.4360649"><ele>33.9</ele><time>2015-04-24T18:42:48.0000000+00:00</time></trkpt><trkpt lat="35.0392763" lon="32.4361273"><ele>33.9</ele><time>2015-04-24T18:42:50.0000000+00:00</time></trkpt><trkpt lat="35.0393282" lon="32.4361876"><ele>34.4</ele><time>2015-04-24T18:42:52.0000000+00:00</time></trkpt><trkpt lat="35.0393841" lon="32.4362477"><ele>34.6</ele><time>2015-04-24T18:42:54.0000000+00:00</time></trkpt><trkpt lat="35.0394421" lon="32.4363099"><ele>34.8</ele><time>2015-04-24T18:42:56.0000000+00:00</time></trkpt><trkpt lat="35.0394966" lon="32.436375"><ele>35.4</ele><time>2015-04-24T18:42:58.0000000+00:00</time></trkpt><trkpt lat="35.0395488" lon="32.4364447"><ele>35.8</ele><time>2015-04-24T18:43:00.0000000+00:00</time></trkpt><trkpt lat="35.0396031" lon="32.4365113"><ele>35.9</ele><time>2015-04-24T18:43:02.0000000+00:00</time></trkpt><trkpt lat="35.0396569" lon="32.4365815"><ele>36.4</ele><time>2015-04-24T18:43:04.0000000+00:00</time></trkpt><trkpt lat="35.0397081" lon="32.4366572"><ele>36.8</ele><time>2015-04-24T18:43:06.0000000+00:00</time></trkpt><trkpt lat="35.0397548" lon="32.4367318"><ele>36.9</ele><time>2015-04-24T18:43:08.0000000+00:00</time></trkpt><trkpt lat="35.0397938" lon="32.4368072"><ele>37.7</ele><time>2015-04-24T18:43:10.0000000+00:00</time></trkpt><trkpt lat="35.0398271" lon="32.4368841"><ele>37.9</ele><time>2015-04-24T18:43:12.0000000+00:00</time></trkpt><trkpt lat="35.0398638" lon="32.4369596"><ele>37.4</ele><time>2015-04-24T18:43:14.0000000+00:00</time></trkpt><trkpt lat="35.0399089" lon="32.4370343"><ele>37.1</ele><time>2015-04-24T18:43:16.0000000+00:00</time></trkpt><trkpt lat="35.0399526" lon="32.4371141"><ele>37.0</ele><time>2015-04-24T18:43:18.0000000+00:00</time></trkpt><trkpt lat="35.0399996" lon="32.4372009"><ele>37.4</ele><time>2015-04-24T18:43:20.0000000+00:00</time></trkpt><trkpt lat="35.0400483" lon="32.4372902"><ele>37.3</ele><time>2015-04-24T18:43:22.0000000+00:00</time></trkpt><trkpt lat="35.0400991" lon="32.4373727"><ele>37.5</ele><time>2015-04-24T18:43:24.0000000+00:00</time></trkpt><trkpt lat="35.0401489" lon="32.4374491"><ele>37.3</ele><time>2015-04-24T18:43:26.0000000+00:00</time></trkpt><trkpt lat="35.0401947" lon="32.4375265"><ele>37.8</ele><time>2015-04-24T18:43:28.0000000+00:00</time></trkpt><trkpt lat="35.0402449" lon="32.4376025"><ele>37.9</ele><time>2015-04-24T18:43:30.0000000+00:00</time></trkpt><trkpt lat="35.0402963" lon="32.4376857"><ele>37.9</ele><time>2015-04-24T18:43:32.0000000+00:00</time></trkpt><trkpt lat="35.0403464" lon="32.4377736"><ele>37.9</ele><time>2015-04-24T18:43:34.0000000+00:00</time></trkpt><trkpt lat="35.0403951" lon="32.4378612"><ele>37.9</ele><time>2015-04-24T18:43:36.0000000+00:00</time></trkpt><trkpt lat="35.0404342" lon="32.4379512"><ele>37.9</ele><time>2015-04-24T18:43:38.0000000+00:00</time></trkpt><trkpt lat="35.0404734" lon="32.4380396"><ele>37.9</ele><time>2015-04-24T18:43:40.0000000+00:00</time></trkpt><trkpt lat="35.0405158" lon="32.4381323"><ele>37.9</ele><time>2015-04-24T18:43:42.0000000+00:00</time></trkpt><trkpt lat="35.0405374" lon="32.4381809"><ele>37.9</ele><time>2015-04-24T18:43:43.0000000+00:00</time></trkpt><trkpt lat="35.0405604" lon="32.4382345"><ele>37.9</ele><time>2015-04-24T18:43:44.0000000+00:00</time></trkpt><trkpt lat="35.0405814" lon="32.4382852"><ele>37.9</ele><time>2015-04-24T18:43:45.0000000+00:00</time></trkpt><trkpt lat="35.0406025" lon="32.4383352"><ele>37.4</ele><time>2015-04-24T18:43:46.0000000+00:00</time></trkpt><trkpt lat="35.0406242" lon="32.4383852"><ele>37.2</ele><time>2015-04-24T18:43:47.0000000+00:00</time></trkpt><trkpt lat="35.040654" lon="32.4384264"><ele>37.6</ele><time>2015-04-24T18:43:48.0000000+00:00</time></trkpt><trkpt lat="35.0406804" lon="32.4384726"><ele>37.7</ele><time>2015-04-24T18:43:49.0000000+00:00</time></trkpt><trkpt lat="35.0407241" lon="32.4385713"><ele>37.1</ele><time>2015-04-24T18:43:51.0000000+00:00</time></trkpt><trkpt lat="35.0407549" lon="32.4386306"><ele>37.0</ele><time>2015-04-24T18:43:52.0000000+00:00</time></trkpt><trkpt lat="35.0407804" lon="32.438684"><ele>37.0</ele><time>2015-04-24T18:43:53.0000000+00:00</time></trkpt><trkpt lat="35.0408092" lon="32.4387357"><ele>37.0</ele><time>2015-04-24T18:43:54.0000000+00:00</time></trkpt><trkpt lat="35.0408354" lon="32.4387876"><ele>36.9</ele><time>2015-04-24T18:43:55.0000000+00:00</time></trkpt><trkpt lat="35.0408638" lon="32.4388434"><ele>36.9</ele><time>2015-04-24T18:43:56.0000000+00:00</time></trkpt><trkpt lat="35.0408914" lon="32.4388953"><ele>36.9</ele><time>2015-04-24T18:43:57.0000000+00:00</time></trkpt><trkpt lat="35.0409246" lon="32.4389622"><ele>36.9</ele><time>2015-04-24T18:43:58.0000000+00:00</time></trkpt><trkpt lat="35.040955" lon="32.4390167"><ele>36.9</ele><time>2015-04-24T18:43:59.0000000+00:00</time></trkpt><trkpt lat="35.040995" lon="32.4390688"><ele>36.9</ele><time>2015-04-24T18:44:00.0000000+00:00</time></trkpt><trkpt lat="35.0410259" lon="32.4391237"><ele>36.9</ele><time>2015-04-24T18:44:01.0000000+00:00</time></trkpt><trkpt lat="35.0410632" lon="32.4391718"><ele>36.9</ele><time>2015-04-24T18:44:02.0000000+00:00</time></trkpt><trkpt lat="35.0410948" lon="32.4392239"><ele>36.9</ele><time>2015-04-24T18:44:03.0000000+00:00</time></trkpt><trkpt lat="35.0411319" lon="32.4392679"><ele>36.9</ele><time>2015-04-24T18:44:04.0000000+00:00</time></trkpt><trkpt lat="35.0411665" lon="32.4393171"><ele>36.9</ele><time>2015-04-24T18:44:05.0000000+00:00</time></trkpt><trkpt lat="35.0411992" lon="32.4393797"><ele>36.9</ele><time>2015-04-24T18:44:06.0000000+00:00</time></trkpt><trkpt lat="35.041235" lon="32.4394337"><ele>36.9</ele><time>2015-04-24T18:44:07.0000000+00:00</time></trkpt><trkpt lat="35.0412671" lon="32.4394838"><ele>36.9</ele><time>2015-04-24T18:44:08.0000000+00:00</time></trkpt><trkpt lat="35.0413043" lon="32.4395384"><ele>36.9</ele><time>2015-04-24T18:44:09.0000000+00:00</time></trkpt><trkpt lat="35.0413429" lon="32.4395924"><ele>36.4</ele><time>2015-04-24T18:44:10.0000000+00:00</time></trkpt><trkpt lat="35.0413816" lon="32.4396451"><ele>36.2</ele><time>2015-04-24T18:44:11.0000000+00:00</time></trkpt><trkpt lat="35.0414226" lon="32.4396973"><ele>36.1</ele><time>2015-04-24T18:44:12.0000000+00:00</time></trkpt><trkpt lat="35.0414612" lon="32.4397494"><ele>35.5</ele><time>2015-04-24T18:44:13.0000000+00:00</time></trkpt><trkpt lat="35.0415065" lon="32.4398022"><ele>35.7</ele><time>2015-04-24T18:44:14.0000000+00:00</time></trkpt><trkpt lat="35.041546" lon="32.4398547"><ele>35.3</ele><time>2015-04-24T18:44:15.0000000+00:00</time></trkpt><trkpt lat="35.0415809" lon="32.4399053"><ele>34.6</ele><time>2015-04-24T18:44:16.0000000+00:00</time></trkpt><trkpt lat="35.0416215" lon="32.4399564"><ele>34.3</ele><time>2015-04-24T18:44:17.0000000+00:00</time></trkpt><trkpt lat="35.0416785" lon="32.44"><ele>33.6</ele><time>2015-04-24T18:44:18.0000000+00:00</time></trkpt><trkpt lat="35.0417294" lon="32.4400502"><ele>33.3</ele><time>2015-04-24T18:44:19.0000000+00:00</time></trkpt><trkpt lat="35.0417915" lon="32.4401076"><ele>33.1</ele><time>2015-04-24T18:44:20.0000000+00:00</time></trkpt><trkpt lat="35.0418473" lon="32.4401604"><ele>33.0</ele><time>2015-04-24T18:44:21.0000000+00:00</time></trkpt><trkpt lat="35.0419099" lon="32.4402148"><ele>33.0</ele><time>2015-04-24T18:44:22.0000000+00:00</time></trkpt><trkpt lat="35.0419693" lon="32.4402642"><ele>32.5</ele><time>2015-04-24T18:44:23.0000000+00:00</time></trkpt><trkpt lat="35.042032" lon="32.4402989"><ele>32.2</ele><time>2015-04-24T18:44:24.0000000+00:00</time></trkpt><trkpt lat="35.0420922" lon="32.4403425"><ele>32.1</ele><time>2015-04-24T18:44:25.0000000+00:00</time></trkpt><trkpt lat="35.042168" lon="32.4403868"><ele>32.0</ele><time>2015-04-24T18:44:26.0000000+00:00</time></trkpt><trkpt lat="35.042236" lon="32.4404243"><ele>31.5</ele><time>2015-04-24T18:44:27.0000000+00:00</time></trkpt><trkpt lat="35.0423038" lon="32.4404592"><ele>31.2</ele><time>2015-04-24T18:44:28.0000000+00:00</time></trkpt><trkpt lat="35.042378" lon="32.4404961"><ele>31.1</ele><time>2015-04-24T18:44:29.0000000+00:00</time></trkpt><trkpt lat="35.0424456" lon="32.4405259"><ele>31.0</ele><time>2015-04-24T18:44:30.0000000+00:00</time></trkpt><trkpt lat="35.0425154" lon="32.4405584"><ele>31.0</ele><time>2015-04-24T18:44:31.0000000+00:00</time></trkpt><trkpt lat="35.042591" lon="32.4405868"><ele>30.4</ele><time>2015-04-24T18:44:32.0000000+00:00</time></trkpt><trkpt lat="35.0426628" lon="32.4406165"><ele>30.2</ele><time>2015-04-24T18:44:33.0000000+00:00</time></trkpt><trkpt lat="35.0427372" lon="32.4406352"><ele>29.6</ele><time>2015-04-24T18:44:34.0000000+00:00</time></trkpt><trkpt lat="35.0428118" lon="32.4406583"><ele>29.2</ele><time>2015-04-24T18:44:35.0000000+00:00</time></trkpt><trkpt lat="35.0428942" lon="32.4406563"><ele>29.6</ele><time>2015-04-24T18:44:36.0000000+00:00</time></trkpt><trkpt lat="35.04297" lon="32.4406689"><ele>29.8</ele><time>2015-04-24T18:44:37.0000000+00:00</time></trkpt><trkpt lat="35.0430523" lon="32.4406919"><ele>29.3</ele><time>2015-04-24T18:44:38.0000000+00:00</time></trkpt><trkpt lat="35.0431288" lon="32.4407075"><ele>29.1</ele><time>2015-04-24T18:44:39.0000000+00:00</time></trkpt><trkpt lat="35.0432038" lon="32.4407309"><ele>28.5</ele><time>2015-04-24T18:44:40.0000000+00:00</time></trkpt><trkpt lat="35.0432808" lon="32.4407481"><ele>28.2</ele><time>2015-04-24T18:44:41.0000000+00:00</time></trkpt><trkpt lat="35.0433647" lon="32.440755"><ele>27.1</ele><time>2015-04-24T18:44:42.0000000+00:00</time></trkpt><trkpt lat="35.0434424" lon="32.4407671"><ele>26.5</ele><time>2015-04-24T18:44:43.0000000+00:00</time></trkpt><trkpt lat="35.0435238" lon="32.4407649"><ele>26.2</ele><time>2015-04-24T18:44:44.0000000+00:00</time></trkpt><trkpt lat="35.0436027" lon="32.4407724"><ele>26.1</ele><time>2015-04-24T18:44:45.0000000+00:00</time></trkpt><trkpt lat="35.0436894" lon="32.4407763"><ele>26.0</ele><time>2015-04-24T18:44:46.0000000+00:00</time></trkpt><trkpt lat="35.0437729" lon="32.4407797"><ele>25.5</ele><time>2015-04-24T18:44:47.0000000+00:00</time></trkpt><trkpt lat="35.0438488" lon="32.4407877"><ele>25.2</ele><time>2015-04-24T18:44:48.0000000+00:00</time></trkpt><trkpt lat="35.0439235" lon="32.4407909"><ele>25.1</ele><time>2015-04-24T18:44:49.0000000+00:00</time></trkpt><trkpt lat="35.0440004" lon="32.4407991"><ele>25.0</ele><time>2015-04-24T18:44:50.0000000+00:00</time></trkpt><trkpt lat="35.0440735" lon="32.4408027"><ele>25.5</ele><time>2015-04-24T18:44:51.0000000+00:00</time></trkpt><trkpt lat="35.0441414" lon="32.4407982"><ele>25.2</ele><time>2015-04-24T18:44:52.0000000+00:00</time></trkpt><trkpt lat="35.0442157" lon="32.4408037"><ele>25.1</ele><time>2015-04-24T18:44:53.0000000+00:00</time></trkpt><trkpt lat="35.0442984" lon="32.4408023"><ele>25.0</ele><time>2015-04-24T18:44:54.0000000+00:00</time></trkpt><trkpt lat="35.044368" lon="32.4408037"><ele>25.0</ele><time>2015-04-24T18:44:55.0000000+00:00</time></trkpt><trkpt lat="35.0444355" lon="32.4408085"><ele>24.9</ele><time>2015-04-24T18:44:56.0000000+00:00</time></trkpt><trkpt lat="35.0445064" lon="32.4408116"><ele>24.9</ele><time>2015-04-24T18:44:57.0000000+00:00</time></trkpt><trkpt lat="35.0445699" lon="32.4408059"><ele>24.4</ele><time>2015-04-24T18:44:58.0000000+00:00</time></trkpt><trkpt lat="35.0446362" lon="32.4408067"><ele>23.7</ele><time>2015-04-24T18:44:59.0000000+00:00</time></trkpt><trkpt lat="35.0447044" lon="32.44082"><ele>23.8</ele><time>2015-04-24T18:45:00.0000000+00:00</time></trkpt><trkpt lat="35.0447711" lon="32.440824"><ele>23.9</ele><time>2015-04-24T18:45:01.0000000+00:00</time></trkpt><trkpt lat="35.0448487" lon="32.440838"><ele>23.9</ele><time>2015-04-24T18:45:02.0000000+00:00</time></trkpt><trkpt lat="35.0449171" lon="32.4408442"><ele>23.9</ele><time>2015-04-24T18:45:03.0000000+00:00</time></trkpt><trkpt lat="35.0449989" lon="32.4408408"><ele>24.4</ele><time>2015-04-24T18:45:04.0000000+00:00</time></trkpt><trkpt lat="35.0450698" lon="32.4408437"><ele>24.7</ele><time>2015-04-24T18:45:05.0000000+00:00</time></trkpt><trkpt lat="35.0451664" lon="32.440859"><ele>23.8</ele><time>2015-04-24T18:45:06.0000000+00:00</time></trkpt><trkpt lat="35.0452422" lon="32.4408647"><ele>22.9</ele><time>2015-04-24T18:45:07.0000000+00:00</time></trkpt><trkpt lat="35.0453195" lon="32.4408711"><ele>22.9</ele><time>2015-04-24T18:45:08.0000000+00:00</time></trkpt><trkpt lat="35.045396" lon="32.4408782"><ele>22.9</ele><time>2015-04-24T18:45:09.0000000+00:00</time></trkpt><trkpt lat="35.0454705" lon="32.4408951"><ele>22.9</ele><time>2015-04-24T18:45:10.0000000+00:00</time></trkpt><trkpt lat="35.0455452" lon="32.4409055"><ele>22.4</ele><time>2015-04-24T18:45:11.0000000+00:00</time></trkpt><trkpt lat="35.0456227" lon="32.440913"><ele>22.2</ele><time>2015-04-24T18:45:12.0000000+00:00</time></trkpt><trkpt lat="35.045697" lon="32.4409241"><ele>22.1</ele><time>2015-04-24T18:45:13.0000000+00:00</time></trkpt><trkpt lat="35.0457705" lon="32.4409336"><ele>22.0</ele><time>2015-04-24T18:45:14.0000000+00:00</time></trkpt><trkpt lat="35.0458439" lon="32.440945"><ele>22.0</ele><time>2015-04-24T18:45:15.0000000+00:00</time></trkpt><trkpt lat="35.0459169" lon="32.4409635"><ele>21.4</ele><time>2015-04-24T18:45:16.0000000+00:00</time></trkpt><trkpt lat="35.0459878" lon="32.4409759"><ele>21.2</ele><time>2015-04-24T18:45:17.0000000+00:00</time></trkpt><trkpt lat="35.0460758" lon="32.4410008"><ele>21.6</ele><time>2015-04-24T18:45:18.0000000+00:00</time></trkpt><trkpt lat="35.0461524" lon="32.4410202"><ele>21.7</ele><time>2015-04-24T18:45:19.0000000+00:00</time></trkpt><trkpt lat="35.0462274" lon="32.4410465"><ele>21.8</ele><time>2015-04-24T18:45:20.0000000+00:00</time></trkpt><trkpt lat="35.0463062" lon="32.4410723"><ele>21.9</ele><time>2015-04-24T18:45:21.0000000+00:00</time></trkpt><trkpt lat="35.0463842" lon="32.4410994"><ele>21.4</ele><time>2015-04-24T18:45:22.0000000+00:00</time></trkpt><trkpt lat="35.0464608" lon="32.4411295"><ele>21.2</ele><time>2015-04-24T18:45:23.0000000+00:00</time></trkpt><trkpt lat="35.0465356" lon="32.4411642"><ele>21.0</ele><time>2015-04-24T18:45:24.0000000+00:00</time></trkpt><trkpt lat="35.0466114" lon="32.4412011"><ele>21.0</ele><time>2015-04-24T18:45:25.0000000+00:00</time></trkpt><trkpt lat="35.046684" lon="32.441249"><ele>21.0</ele><time>2015-04-24T18:45:26.0000000+00:00</time></trkpt><trkpt lat="35.0467567" lon="32.4412878"><ele>20.9</ele><time>2015-04-24T18:45:27.0000000+00:00</time></trkpt><trkpt lat="35.0468263" lon="32.4413283"><ele>20.9</ele><time>2015-04-24T18:45:28.0000000+00:00</time></trkpt><trkpt lat="35.0468957" lon="32.4413716"><ele>20.9</ele><time>2015-04-24T18:45:29.0000000+00:00</time></trkpt><trkpt lat="35.0469525" lon="32.4414252"><ele>20.9</ele><time>2015-04-24T18:45:30.0000000+00:00</time></trkpt><trkpt lat="35.0470201" lon="32.4414782"><ele>20.9</ele><time>2015-04-24T18:45:31.0000000+00:00</time></trkpt><trkpt lat="35.0470869" lon="32.4415315"><ele>20.9</ele><time>2015-04-24T18:45:32.0000000+00:00</time></trkpt><trkpt lat="35.0471532" lon="32.4415869"><ele>20.9</ele><time>2015-04-24T18:45:33.0000000+00:00</time></trkpt><trkpt lat="35.0472253" lon="32.4416453"><ele>20.9</ele><time>2015-04-24T18:45:34.0000000+00:00</time></trkpt><trkpt lat="35.047291" lon="32.441705"><ele>20.9</ele><time>2015-04-24T18:45:35.0000000+00:00</time></trkpt><trkpt lat="35.0473574" lon="32.4417723"><ele>20.9</ele><time>2015-04-24T18:45:36.0000000+00:00</time></trkpt><trkpt lat="35.047418" lon="32.44184"><ele>20.9</ele><time>2015-04-24T18:45:37.0000000+00:00</time></trkpt><trkpt lat="35.0474767" lon="32.4419148"><ele>20.9</ele><time>2015-04-24T18:45:38.0000000+00:00</time></trkpt><trkpt lat="35.0475378" lon="32.4419862"><ele>20.9</ele><time>2015-04-24T18:45:39.0000000+00:00</time></trkpt><trkpt lat="35.0475962" lon="32.4420613"><ele>20.9</ele><time>2015-04-24T18:45:40.0000000+00:00</time></trkpt><trkpt lat="35.0476535" lon="32.4421335"><ele>20.9</ele><time>2015-04-24T18:45:41.0000000+00:00</time></trkpt><trkpt lat="35.047705" lon="32.4422031"><ele>20.4</ele><time>2015-04-24T18:45:42.0000000+00:00</time></trkpt><trkpt lat="35.0477582" lon="32.442276"><ele>20.2</ele><time>2015-04-24T18:45:43.0000000+00:00</time></trkpt><trkpt lat="35.0478071" lon="32.4423511"><ele>20.6</ele><time>2015-04-24T18:45:44.0000000+00:00</time></trkpt><trkpt lat="35.0478582" lon="32.442422"><ele>20.7</ele><time>2015-04-24T18:45:45.0000000+00:00</time></trkpt><trkpt lat="35.0479002" lon="32.442493"><ele>20.3</ele><time>2015-04-24T18:45:46.0000000+00:00</time></trkpt><trkpt lat="35.0479489" lon="32.4425618"><ele>20.1</ele><time>2015-04-24T18:45:47.0000000+00:00</time></trkpt><trkpt lat="35.0479904" lon="32.4426368"><ele>20.0</ele><time>2015-04-24T18:45:48.0000000+00:00</time></trkpt><trkpt lat="35.0480379" lon="32.4427052"><ele>19.5</ele><time>2015-04-24T18:45:49.0000000+00:00</time></trkpt><trkpt lat="35.0480862" lon="32.4427842"><ele>19.7</ele><time>2015-04-24T18:45:50.0000000+00:00</time></trkpt><trkpt lat="35.0481342" lon="32.4428586"><ele>20.3</ele><time>2015-04-24T18:45:51.0000000+00:00</time></trkpt><trkpt lat="35.0481788" lon="32.4429391"><ele>20.1</ele><time>2015-04-24T18:45:52.0000000+00:00</time></trkpt><trkpt lat="35.0482231" lon="32.4430141"><ele>20.0</ele><time>2015-04-24T18:45:53.0000000+00:00</time></trkpt><trkpt lat="35.0482729" lon="32.4430884"><ele>20.0</ele><time>2015-04-24T18:45:54.0000000+00:00</time></trkpt><trkpt lat="35.0483189" lon="32.4431623"><ele>20.0</ele><time>2015-04-24T18:45:55.0000000+00:00</time></trkpt><trkpt lat="35.0483626" lon="32.4432423"><ele>19.4</ele><time>2015-04-24T18:45:56.0000000+00:00</time></trkpt><trkpt lat="35.0484119" lon="32.4433206"><ele>19.7</ele><time>2015-04-24T18:45:57.0000000+00:00</time></trkpt><trkpt lat="35.0484565" lon="32.4433981"><ele>19.3</ele><time>2015-04-24T18:45:58.0000000+00:00</time></trkpt><trkpt lat="35.0485029" lon="32.443475"><ele>19.1</ele><time>2015-04-24T18:45:59.0000000+00:00</time></trkpt><trkpt lat="35.0485504" lon="32.4435477"><ele>19.0</ele><time>2015-04-24T18:46:00.0000000+00:00</time></trkpt><trkpt lat="35.0485956" lon="32.4436303"><ele>19.0</ele><time>2015-04-24T18:46:01.0000000+00:00</time></trkpt><trkpt lat="35.0486391" lon="32.4437086"><ele>19.0</ele><time>2015-04-24T18:46:02.0000000+00:00</time></trkpt><trkpt lat="35.0486848" lon="32.4437854"><ele>18.9</ele><time>2015-04-24T18:46:03.0000000+00:00</time></trkpt><trkpt lat="35.0487305" lon="32.4438509"><ele>18.9</ele><time>2015-04-24T18:46:04.0000000+00:00</time></trkpt><trkpt lat="35.0487787" lon="32.4439233"><ele>18.4</ele><time>2015-04-24T18:46:05.0000000+00:00</time></trkpt><trkpt lat="35.0488263" lon="32.4439989"><ele>18.7</ele><time>2015-04-24T18:46:06.0000000+00:00</time></trkpt><trkpt lat="35.048872" lon="32.4440714"><ele>18.8</ele><time>2015-04-24T18:46:07.0000000+00:00</time></trkpt><trkpt lat="35.0489223" lon="32.44414"><ele>18.9</ele><time>2015-04-24T18:46:08.0000000+00:00</time></trkpt><trkpt lat="35.0489668" lon="32.4442122"><ele>18.9</ele><time>2015-04-24T18:46:09.0000000+00:00</time></trkpt><trkpt lat="35.0490041" lon="32.4442858"><ele>18.9</ele><time>2015-04-24T18:46:10.0000000+00:00</time></trkpt><trkpt lat="35.049053" lon="32.4443553"><ele>18.9</ele><time>2015-04-24T18:46:11.0000000+00:00</time></trkpt><trkpt lat="35.0490946" lon="32.4444261"><ele>18.9</ele><time>2015-04-24T18:46:12.0000000+00:00</time></trkpt><trkpt lat="35.049136" lon="32.44449"><ele>18.4</ele><time>2015-04-24T18:46:13.0000000+00:00</time></trkpt><trkpt lat="35.0491788" lon="32.444557"><ele>18.7</ele><time>2015-04-24T18:46:14.0000000+00:00</time></trkpt><trkpt lat="35.0492179" lon="32.4446208"><ele>18.8</ele><time>2015-04-24T18:46:15.0000000+00:00</time></trkpt><trkpt lat="35.0492478" lon="32.4446793"><ele>18.9</ele><time>2015-04-24T18:46:16.0000000+00:00</time></trkpt><trkpt lat="35.0492901" lon="32.4447439"><ele>18.9</ele><time>2015-04-24T18:46:17.0000000+00:00</time></trkpt><trkpt lat="35.0493268" lon="32.4447985"><ele>19.4</ele><time>2015-04-24T18:46:18.0000000+00:00</time></trkpt><trkpt lat="35.0493523" lon="32.4448496"><ele>19.7</ele><time>2015-04-24T18:46:19.0000000+00:00</time></trkpt><trkpt lat="35.0493866" lon="32.4449008"><ele>19.8</ele><time>2015-04-24T18:46:20.0000000+00:00</time></trkpt><trkpt lat="35.0494273" lon="32.4449581"><ele>20.4</ele><time>2015-04-24T18:46:21.0000000+00:00</time></trkpt><trkpt lat="35.0494677" lon="32.4450219"><ele>20.6</ele><time>2015-04-24T18:46:22.0000000+00:00</time></trkpt><trkpt lat="35.0495107" lon="32.4450725"><ele>20.8</ele><time>2015-04-24T18:46:23.0000000+00:00</time></trkpt><trkpt lat="35.0495583" lon="32.4451215"><ele>21.9</ele><time>2015-04-24T18:46:24.0000000+00:00</time></trkpt><trkpt lat="35.049601" lon="32.4451836"><ele>22.9</ele><time>2015-04-24T18:46:25.0000000+00:00</time></trkpt><trkpt lat="35.049631" lon="32.4452465"><ele>23.4</ele><time>2015-04-24T18:46:26.0000000+00:00</time></trkpt><trkpt lat="35.0496662" lon="32.4453073"><ele>23.7</ele><time>2015-04-24T18:46:27.0000000+00:00</time></trkpt><trkpt lat="35.0497012" lon="32.4453726"><ele>24.3</ele><time>2015-04-24T18:46:28.0000000+00:00</time></trkpt><trkpt lat="35.0497407" lon="32.4454278"><ele>25.1</ele><time>2015-04-24T18:46:29.0000000+00:00</time></trkpt><trkpt lat="35.0497746" lon="32.4454893"><ele>25.5</ele><time>2015-04-24T18:46:30.0000000+00:00</time></trkpt><trkpt lat="35.049811" lon="32.4455378"><ele>25.7</ele><time>2015-04-24T18:46:31.0000000+00:00</time></trkpt><trkpt lat="35.0498416" lon="32.4456058"><ele>25.8</ele><time>2015-04-24T18:46:32.0000000+00:00</time></trkpt><trkpt lat="35.0498748" lon="32.4456582"><ele>25.9</ele><time>2015-04-24T18:46:33.0000000+00:00</time></trkpt><trkpt lat="35.0499221" lon="32.4457166"><ele>26.4</ele><time>2015-04-24T18:46:34.0000000+00:00</time></trkpt><trkpt lat="35.0499583" lon="32.4457558"><ele>27.7</ele><time>2015-04-24T18:46:35.0000000+00:00</time></trkpt><trkpt lat="35.0499968" lon="32.4458117"><ele>28.3</ele><time>2015-04-24T18:46:36.0000000+00:00</time></trkpt><trkpt lat="35.0500279" lon="32.4458705"><ele>28.6</ele><time>2015-04-24T18:46:37.0000000+00:00</time></trkpt><trkpt lat="35.0500564" lon="32.445922"><ele>28.8</ele><time>2015-04-24T18:46:38.0000000+00:00</time></trkpt><trkpt lat="35.0500811" lon="32.4459702"><ele>28.4</ele><time>2015-04-24T18:46:39.0000000+00:00</time></trkpt><trkpt lat="35.050103" lon="32.4460207"><ele>28.1</ele><time>2015-04-24T18:46:40.0000000+00:00</time></trkpt><trkpt lat="35.0501355" lon="32.4460602"><ele>28.0</ele><time>2015-04-24T18:46:41.0000000+00:00</time></trkpt><trkpt lat="35.0501846" lon="32.4461436"><ele>27.2</ele><time>2015-04-24T18:46:43.0000000+00:00</time></trkpt><trkpt lat="35.050215" lon="32.446194"><ele>27.1</ele><time>2015-04-24T18:46:44.0000000+00:00</time></trkpt><trkpt lat="35.0502472" lon="32.4462444"><ele>27.0</ele><time>2015-04-24T18:46:45.0000000+00:00</time></trkpt><trkpt lat="35.0502829" lon="32.446298"><ele>27.5</ele><time>2015-04-24T18:46:46.0000000+00:00</time></trkpt><trkpt lat="35.0503157" lon="32.4463525"><ele>27.2</ele><time>2015-04-24T18:46:47.0000000+00:00</time></trkpt><trkpt lat="35.0503597" lon="32.4464066"><ele>27.1</ele><time>2015-04-24T18:46:48.0000000+00:00</time></trkpt><trkpt lat="35.0504" lon="32.4464654"><ele>27.0</ele><time>2015-04-24T18:46:49.0000000+00:00</time></trkpt><trkpt lat="35.0504317" lon="32.446531"><ele>27.0</ele><time>2015-04-24T18:46:50.0000000+00:00</time></trkpt><trkpt lat="35.0504734" lon="32.4465779"><ele>26.4</ele><time>2015-04-24T18:46:51.0000000+00:00</time></trkpt><trkpt lat="35.0505075" lon="32.4466402"><ele>26.2</ele><time>2015-04-24T18:46:52.0000000+00:00</time></trkpt><trkpt lat="35.0505419" lon="32.4467017"><ele>26.1</ele><time>2015-04-24T18:46:53.0000000+00:00</time></trkpt><trkpt lat="35.0505746" lon="32.4467542"><ele>26.0</ele><time>2015-04-24T18:46:54.0000000+00:00</time></trkpt><trkpt lat="35.0506085" lon="32.4468056"><ele>26.5</ele><time>2015-04-24T18:46:55.0000000+00:00</time></trkpt><trkpt lat="35.0506411" lon="32.4468453"><ele>26.7</ele><time>2015-04-24T18:46:56.0000000+00:00</time></trkpt><trkpt lat="35.0506633" lon="32.4468975"><ele>26.8</ele><time>2015-04-24T18:46:57.0000000+00:00</time></trkpt><trkpt lat="35.0506978" lon="32.4469542"><ele>26.9</ele><time>2015-04-24T18:46:58.0000000+00:00</time></trkpt><trkpt lat="35.0507334" lon="32.447001"><ele>26.9</ele><time>2015-04-24T18:46:59.0000000+00:00</time></trkpt><trkpt lat="35.0507688" lon="32.4470603"><ele>27.4</ele><time>2015-04-24T18:47:00.0000000+00:00</time></trkpt><trkpt lat="35.0507996" lon="32.4471144"><ele>28.2</ele><time>2015-04-24T18:47:01.0000000+00:00</time></trkpt><trkpt lat="35.0508298" lon="32.4471741"><ele>28.6</ele><time>2015-04-24T18:47:02.0000000+00:00</time></trkpt><trkpt lat="35.0508469" lon="32.4472384"><ele>28.7</ele><time>2015-04-24T18:47:03.0000000+00:00</time></trkpt><trkpt lat="35.0508759" lon="32.4472972"><ele>29.3</ele><time>2015-04-24T18:47:04.0000000+00:00</time></trkpt><trkpt lat="35.0509097" lon="32.4473495"><ele>29.6</ele><time>2015-04-24T18:47:05.0000000+00:00</time></trkpt><trkpt lat="35.0509388" lon="32.4474107"><ele>30.3</ele><time>2015-04-24T18:47:06.0000000+00:00</time></trkpt><trkpt lat="35.0509666" lon="32.4474585"><ele>30.6</ele><time>2015-04-24T18:47:07.0000000+00:00</time></trkpt><trkpt lat="35.0509965" lon="32.44752"><ele>30.8</ele><time>2015-04-24T18:47:08.0000000+00:00</time></trkpt><trkpt lat="35.0510257" lon="32.4475746"><ele>31.3</ele><time>2015-04-24T18:47:09.0000000+00:00</time></trkpt><trkpt lat="35.0510477" lon="32.4476304"><ele>31.1</ele><time>2015-04-24T18:47:10.0000000+00:00</time></trkpt><trkpt lat="35.0510911" lon="32.4477214"><ele>31.0</ele><time>2015-04-24T18:47:12.0000000+00:00</time></trkpt><trkpt lat="35.0511178" lon="32.4477734"><ele>31.0</ele><time>2015-04-24T18:47:13.0000000+00:00</time></trkpt><trkpt lat="35.0511826" lon="32.4478404"><ele>31.7</ele><time>2015-04-24T18:47:15.0000000+00:00</time></trkpt><trkpt lat="35.0512264" lon="32.4479364"><ele>32.6</ele><time>2015-04-24T18:47:17.0000000+00:00</time></trkpt><trkpt lat="35.0512628" lon="32.4480373"><ele>32.1</ele><time>2015-04-24T18:47:19.0000000+00:00</time></trkpt><trkpt lat="35.0512882" lon="32.4480893"><ele>32.0</ele><time>2015-04-24T18:47:20.0000000+00:00</time></trkpt><trkpt lat="35.051316" lon="32.4481442"><ele>32.5</ele><time>2015-04-24T18:47:21.0000000+00:00</time></trkpt><trkpt lat="35.0513398" lon="32.4481989"><ele>32.2</ele><time>2015-04-24T18:47:22.0000000+00:00</time></trkpt><trkpt lat="35.0513661" lon="32.4482539"><ele>32.1</ele><time>2015-04-24T18:47:23.0000000+00:00</time></trkpt><trkpt lat="35.051391" lon="32.4483062"><ele>32.0</ele><time>2015-04-24T18:47:24.0000000+00:00</time></trkpt><trkpt lat="35.0514207" lon="32.4483616"><ele>32.0</ele><time>2015-04-24T18:47:25.0000000+00:00</time></trkpt><trkpt lat="35.0514489" lon="32.4484183"><ele>32.4</ele><time>2015-04-24T18:47:26.0000000+00:00</time></trkpt><trkpt lat="35.0514687" lon="32.4484705"><ele>32.7</ele><time>2015-04-24T18:47:27.0000000+00:00</time></trkpt><trkpt lat="35.0514915" lon="32.4485288"><ele>32.3</ele><time>2015-04-24T18:47:28.0000000+00:00</time></trkpt><trkpt lat="35.0515164" lon="32.4485867"><ele>32.1</ele><time>2015-04-24T18:47:29.0000000+00:00</time></trkpt><trkpt lat="35.0515592" lon="32.4486833"><ele>32.0</ele><time>2015-04-24T18:47:31.0000000+00:00</time></trkpt><trkpt lat="35.0515878" lon="32.448737"><ele>32.0</ele><time>2015-04-24T18:47:32.0000000+00:00</time></trkpt><trkpt lat="35.051626" lon="32.4488285"><ele>32.4</ele><time>2015-04-24T18:47:34.0000000+00:00</time></trkpt><trkpt lat="35.0516456" lon="32.4488841"><ele>32.2</ele><time>2015-04-24T18:47:35.0000000+00:00</time></trkpt><trkpt lat="35.0516754" lon="32.4489444"><ele>32.1</ele><time>2015-04-24T18:47:36.0000000+00:00</time></trkpt><trkpt lat="35.0517113" lon="32.4489982"><ele>33.0</ele><time>2015-04-24T18:47:37.0000000+00:00</time></trkpt><trkpt lat="35.0517337" lon="32.4490549"><ele>33.5</ele><time>2015-04-24T18:47:38.0000000+00:00</time></trkpt><trkpt lat="35.0517529" lon="32.4491086"><ele>33.7</ele><time>2015-04-24T18:47:39.0000000+00:00</time></trkpt><trkpt lat="35.0517659" lon="32.4491619"><ele>33.3</ele><time>2015-04-24T18:47:40.0000000+00:00</time></trkpt><trkpt lat="35.0517977" lon="32.4492158"><ele>32.6</ele><time>2015-04-24T18:47:41.0000000+00:00</time></trkpt><trkpt lat="35.051827" lon="32.4492728"><ele>32.3</ele><time>2015-04-24T18:47:42.0000000+00:00</time></trkpt><trkpt lat="35.0518454" lon="32.4493266"><ele>31.6</ele><time>2015-04-24T18:47:43.0000000+00:00</time></trkpt><trkpt lat="35.0518676" lon="32.449379"><ele>30.8</ele><time>2015-04-24T18:47:44.0000000+00:00</time></trkpt><trkpt lat="35.0519004" lon="32.4494423"><ele>30.3</ele><time>2015-04-24T18:47:45.0000000+00:00</time></trkpt><trkpt lat="35.0519281" lon="32.4494947"><ele>30.1</ele><time>2015-04-24T18:47:46.0000000+00:00</time></trkpt><trkpt lat="35.0519546" lon="32.4495487"><ele>29.5</ele><time>2015-04-24T18:47:47.0000000+00:00</time></trkpt><trkpt lat="35.0519867" lon="32.4496035"><ele>29.7</ele><time>2015-04-24T18:47:48.0000000+00:00</time></trkpt><trkpt lat="35.0520177" lon="32.4496677"><ele>29.8</ele><time>2015-04-24T18:47:49.0000000+00:00</time></trkpt><trkpt lat="35.0520538" lon="32.4497192"><ele>30.4</ele><time>2015-04-24T18:47:50.0000000+00:00</time></trkpt><trkpt lat="35.0520796" lon="32.449783"><ele>30.7</ele><time>2015-04-24T18:47:51.0000000+00:00</time></trkpt><trkpt lat="35.0520978" lon="32.4498384"><ele>30.8</ele><time>2015-04-24T18:47:52.0000000+00:00</time></trkpt><trkpt lat="35.0521227" lon="32.4498995"><ele>30.4</ele><time>2015-04-24T18:47:53.0000000+00:00</time></trkpt><trkpt lat="35.0521541" lon="32.4499542"><ele>30.1</ele><time>2015-04-24T18:47:54.0000000+00:00</time></trkpt><trkpt lat="35.0521757" lon="32.45001"><ele>29.5</ele><time>2015-04-24T18:47:55.0000000+00:00</time></trkpt><trkpt lat="35.0522074" lon="32.4500726"><ele>29.2</ele><time>2015-04-24T18:47:56.0000000+00:00</time></trkpt><trkpt lat="35.0522364" lon="32.4501337"><ele>29.1</ele><time>2015-04-24T18:47:57.0000000+00:00</time></trkpt><trkpt lat="35.0522574" lon="32.4501928"><ele>28.5</ele><time>2015-04-24T18:47:58.0000000+00:00</time></trkpt><trkpt lat="35.0522837" lon="32.4502379"><ele>28.2</ele><time>2015-04-24T18:47:59.0000000+00:00</time></trkpt><trkpt lat="35.0523079" lon="32.4502867"><ele>28.1</ele><time>2015-04-24T18:48:00.0000000+00:00</time></trkpt><trkpt lat="35.0523317" lon="32.4503392"><ele>27.5</ele><time>2015-04-24T18:48:01.0000000+00:00</time></trkpt><trkpt lat="35.0523637" lon="32.4503887"><ele>27.7</ele><time>2015-04-24T18:48:02.0000000+00:00</time></trkpt><trkpt lat="35.0523913" lon="32.4504445"><ele>27.8</ele><time>2015-04-24T18:48:03.0000000+00:00</time></trkpt><trkpt lat="35.0524212" lon="32.450506"><ele>28.4</ele><time>2015-04-24T18:48:04.0000000+00:00</time></trkpt><trkpt lat="35.0524464" lon="32.4505524"><ele>28.7</ele><time>2015-04-24T18:48:05.0000000+00:00</time></trkpt><trkpt lat="35.0524814" lon="32.4506087"><ele>28.8</ele><time>2015-04-24T18:48:06.0000000+00:00</time></trkpt><trkpt lat="35.0525094" lon="32.4506643"><ele>28.4</ele><time>2015-04-24T18:48:07.0000000+00:00</time></trkpt><trkpt lat="35.0525438" lon="32.4507298"><ele>28.6</ele><time>2015-04-24T18:48:08.0000000+00:00</time></trkpt><trkpt lat="35.052577" lon="32.4507984"><ele>28.8</ele><time>2015-04-24T18:48:09.0000000+00:00</time></trkpt><trkpt lat="35.0526097" lon="32.4508628"><ele>28.9</ele><time>2015-04-24T18:48:10.0000000+00:00</time></trkpt><trkpt lat="35.0526358" lon="32.4509266"><ele>28.4</ele><time>2015-04-24T18:48:11.0000000+00:00</time></trkpt><trkpt lat="35.0526696" lon="32.4510012"><ele>28.2</ele><time>2015-04-24T18:48:12.0000000+00:00</time></trkpt><trkpt lat="35.0527054" lon="32.4510624"><ele>28.0</ele><time>2015-04-24T18:48:13.0000000+00:00</time></trkpt><trkpt lat="35.0527363" lon="32.4511284"><ele>27.5</ele><time>2015-04-24T18:48:14.0000000+00:00</time></trkpt><trkpt lat="35.0527663" lon="32.4511946"><ele>27.2</ele><time>2015-04-24T18:48:15.0000000+00:00</time></trkpt><trkpt lat="35.0527988" lon="32.4512627"><ele>27.1</ele><time>2015-04-24T18:48:16.0000000+00:00</time></trkpt><trkpt lat="35.0528339" lon="32.451335"><ele>27.0</ele><time>2015-04-24T18:48:17.0000000+00:00</time></trkpt><trkpt lat="35.0528639" lon="32.4513903"><ele>27.0</ele><time>2015-04-24T18:48:18.0000000+00:00</time></trkpt><trkpt lat="35.0528941" lon="32.4514501"><ele>26.9</ele><time>2015-04-24T18:48:19.0000000+00:00</time></trkpt><trkpt lat="35.0529216" lon="32.4515208"><ele>26.9</ele><time>2015-04-24T18:48:20.0000000+00:00</time></trkpt><trkpt lat="35.052962" lon="32.4515927"><ele>26.9</ele><time>2015-04-24T18:48:21.0000000+00:00</time></trkpt><trkpt lat="35.052991" lon="32.4516651"><ele>26.9</ele><time>2015-04-24T18:48:22.0000000+00:00</time></trkpt><trkpt lat="35.0530186" lon="32.4517369"><ele>26.4</ele><time>2015-04-24T18:48:23.0000000+00:00</time></trkpt><trkpt lat="35.0530508" lon="32.4518083"><ele>26.7</ele><time>2015-04-24T18:48:24.0000000+00:00</time></trkpt><trkpt lat="35.0530906" lon="32.451884"><ele>26.8</ele><time>2015-04-24T18:48:25.0000000+00:00</time></trkpt><trkpt lat="35.053126" lon="32.4519579"><ele>26.4</ele><time>2015-04-24T18:48:26.0000000+00:00</time></trkpt><trkpt lat="35.0531656" lon="32.4520208"><ele>26.1</ele><time>2015-04-24T18:48:27.0000000+00:00</time></trkpt><trkpt lat="35.0532024" lon="32.4520963"><ele>26.0</ele><time>2015-04-24T18:48:28.0000000+00:00</time></trkpt><trkpt lat="35.0532495" lon="32.4521602"><ele>27.0</ele><time>2015-04-24T18:48:29.0000000+00:00</time></trkpt><trkpt lat="35.0532762" lon="32.4522192"><ele>27.0</ele><time>2015-04-24T18:48:30.0000000+00:00</time></trkpt><trkpt lat="35.053316" lon="32.452286"><ele>26.9</ele><time>2015-04-24T18:48:31.0000000+00:00</time></trkpt><trkpt lat="35.0533277" lon="32.4523622"><ele>25.9</ele><time>2015-04-24T18:48:32.0000000+00:00</time></trkpt><trkpt lat="35.0533675" lon="32.4524211"><ele>25.4</ele><time>2015-04-24T18:48:33.0000000+00:00</time></trkpt><trkpt lat="35.0534021" lon="32.4524919"><ele>25.2</ele><time>2015-04-24T18:48:34.0000000+00:00</time></trkpt><trkpt lat="35.0534407" lon="32.4525588"><ele>25.1</ele><time>2015-04-24T18:48:35.0000000+00:00</time></trkpt><trkpt lat="35.0534806" lon="32.4526284"><ele>25.5</ele><time>2015-04-24T18:48:36.0000000+00:00</time></trkpt><trkpt lat="35.0535132" lon="32.4526851"><ele>25.2</ele><time>2015-04-24T18:48:37.0000000+00:00</time></trkpt><trkpt lat="35.0535446" lon="32.4527391"><ele>24.6</ele><time>2015-04-24T18:48:38.0000000+00:00</time></trkpt><trkpt lat="35.0535775" lon="32.4527947"><ele>23.8</ele><time>2015-04-24T18:48:39.0000000+00:00</time></trkpt><trkpt lat="35.0536096" lon="32.4528557"><ele>23.3</ele><time>2015-04-24T18:48:40.0000000+00:00</time></trkpt><trkpt lat="35.0536463" lon="32.4529214"><ele>23.1</ele><time>2015-04-24T18:48:41.0000000+00:00</time></trkpt><trkpt lat="35.0536748" lon="32.4529882"><ele>23.0</ele><time>2015-04-24T18:48:42.0000000+00:00</time></trkpt><trkpt lat="35.0537059" lon="32.453057"><ele>23.0</ele><time>2015-04-24T18:48:43.0000000+00:00</time></trkpt><trkpt lat="35.0537389" lon="32.4531214"><ele>23.0</ele><time>2015-04-24T18:48:44.0000000+00:00</time></trkpt><trkpt lat="35.0537783" lon="32.4531916"><ele>22.9</ele><time>2015-04-24T18:48:45.0000000+00:00</time></trkpt><trkpt lat="35.0538103" lon="32.4532593"><ele>22.9</ele><time>2015-04-24T18:48:46.0000000+00:00</time></trkpt><trkpt lat="35.0538467" lon="32.4533145"><ele>22.9</ele><time>2015-04-24T18:48:47.0000000+00:00</time></trkpt><trkpt lat="35.0538825" lon="32.4533774"><ele>23.4</ele><time>2015-04-24T18:48:48.0000000+00:00</time></trkpt><trkpt lat="35.0539148" lon="32.4534477"><ele>23.2</ele><time>2015-04-24T18:48:49.0000000+00:00</time></trkpt><trkpt lat="35.0539491" lon="32.4535036"><ele>23.6</ele><time>2015-04-24T18:48:50.0000000+00:00</time></trkpt><trkpt lat="35.0539822" lon="32.4535592"><ele>23.2</ele><time>2015-04-24T18:48:51.0000000+00:00</time></trkpt><trkpt lat="35.0540085" lon="32.4536159"><ele>23.6</ele><time>2015-04-24T18:48:52.0000000+00:00</time></trkpt><trkpt lat="35.0540454" lon="32.4536801"><ele>23.3</ele><time>2015-04-24T18:48:53.0000000+00:00</time></trkpt><trkpt lat="35.0540817" lon="32.4537417"><ele>23.6</ele><time>2015-04-24T18:48:54.0000000+00:00</time></trkpt><trkpt lat="35.0541085" lon="32.4537998"><ele>23.3</ele><time>2015-04-24T18:48:55.0000000+00:00</time></trkpt><trkpt lat="35.0541434" lon="32.4538534"><ele>23.6</ele><time>2015-04-24T18:48:56.0000000+00:00</time></trkpt><trkpt lat="35.0541776" lon="32.4539134"><ele>23.8</ele><time>2015-04-24T18:48:57.0000000+00:00</time></trkpt><trkpt lat="35.0542301" lon="32.4539707"><ele>25.3</ele><time>2015-04-24T18:48:58.0000000+00:00</time></trkpt><trkpt lat="35.054269" lon="32.4540331"><ele>26.1</ele><time>2015-04-24T18:48:59.0000000+00:00</time></trkpt><trkpt lat="35.0543122" lon="32.4540904"><ele>26.5</ele><time>2015-04-24T18:49:00.0000000+00:00</time></trkpt><trkpt lat="35.0543541" lon="32.4541417"><ele>26.7</ele><time>2015-04-24T18:49:01.0000000+00:00</time></trkpt><trkpt lat="35.0543965" lon="32.4541966"><ele>26.8</ele><time>2015-04-24T18:49:02.0000000+00:00</time></trkpt><trkpt lat="35.0544224" lon="32.4542462"><ele>25.9</ele><time>2015-04-24T18:49:03.0000000+00:00</time></trkpt><trkpt lat="35.0544625" lon="32.4542881"><ele>24.9</ele><time>2015-04-24T18:49:04.0000000+00:00</time></trkpt><trkpt lat="35.0545014" lon="32.4543268"><ele>24.4</ele><time>2015-04-24T18:49:05.0000000+00:00</time></trkpt><trkpt lat="35.0545495" lon="32.4543511"><ele>24.2</ele><time>2015-04-24T18:49:06.0000000+00:00</time></trkpt><trkpt lat="35.0545922" lon="32.4543864"><ele>24.6</ele><time>2015-04-24T18:49:07.0000000+00:00</time></trkpt><trkpt lat="35.0546379" lon="32.4544206"><ele>24.2</ele><time>2015-04-24T18:49:08.0000000+00:00</time></trkpt><trkpt lat="35.0546946" lon="32.4544491"><ele>25.1</ele><time>2015-04-24T18:49:09.0000000+00:00</time></trkpt><trkpt lat="35.0547592" lon="32.4544682"><ele>26.5</ele><time>2015-04-24T18:49:10.0000000+00:00</time></trkpt><trkpt lat="35.0548042" lon="32.4544985"><ele>27.2</ele><time>2015-04-24T18:49:11.0000000+00:00</time></trkpt><trkpt lat="35.054853" lon="32.4545294"><ele>27.6</ele><time>2015-04-24T18:49:12.0000000+00:00</time></trkpt><trkpt lat="35.0549034" lon="32.4545409"><ele>27.3</ele><time>2015-04-24T18:49:13.0000000+00:00</time></trkpt><trkpt lat="35.0549585" lon="32.4545654"><ele>27.1</ele><time>2015-04-24T18:49:14.0000000+00:00</time></trkpt><trkpt lat="35.0550246" lon="32.4545784"><ele>27.0</ele><time>2015-04-24T18:49:15.0000000+00:00</time></trkpt><trkpt lat="35.0550956" lon="32.4546005"><ele>27.0</ele><time>2015-04-24T18:49:16.0000000+00:00</time></trkpt><trkpt lat="35.0551567" lon="32.4546091"><ele>27.0</ele><time>2015-04-24T18:49:17.0000000+00:00</time></trkpt><trkpt lat="35.0552223" lon="32.4546224"><ele>26.4</ele><time>2015-04-24T18:49:18.0000000+00:00</time></trkpt><trkpt lat="35.0552811" lon="32.4546166"><ele>26.2</ele><time>2015-04-24T18:49:19.0000000+00:00</time></trkpt><trkpt lat="35.0553552" lon="32.4546308"><ele>26.1</ele><time>2015-04-24T18:49:20.0000000+00:00</time></trkpt><trkpt lat="35.0554249" lon="32.4546443"><ele>25.5</ele><time>2015-04-24T18:49:21.0000000+00:00</time></trkpt><trkpt lat="35.0555021" lon="32.4546639"><ele>24.7</ele><time>2015-04-24T18:49:22.0000000+00:00</time></trkpt><trkpt lat="35.0555673" lon="32.4546686"><ele>23.8</ele><time>2015-04-24T18:49:23.0000000+00:00</time></trkpt><trkpt lat="35.0556476" lon="32.4546677"><ele>22.9</ele><time>2015-04-24T18:49:24.0000000+00:00</time></trkpt><trkpt lat="35.0557332" lon="32.4546785"><ele>23.2</ele><time>2015-04-24T18:49:26.0000000+00:00</time></trkpt><trkpt lat="35.0557976" lon="32.4546936"><ele>23.5</ele><time>2015-04-24T18:49:27.0000000+00:00</time></trkpt><trkpt lat="35.0558735" lon="32.4547049"><ele>23.7</ele><time>2015-04-24T18:49:28.0000000+00:00</time></trkpt><trkpt lat="35.0559407" lon="32.4547224"><ele>23.3</ele><time>2015-04-24T18:49:29.0000000+00:00</time></trkpt><trkpt lat="35.0560092" lon="32.4547349"><ele>23.1</ele><time>2015-04-24T18:49:30.0000000+00:00</time></trkpt><trkpt lat="35.0560779" lon="32.4547447"><ele>23.0</ele><time>2015-04-24T18:49:31.0000000+00:00</time></trkpt><trkpt lat="35.0561411" lon="32.4547468"><ele>23.5</ele><time>2015-04-24T18:49:32.0000000+00:00</time></trkpt><trkpt lat="35.056212" lon="32.4547557"><ele>23.7</ele><time>2015-04-24T18:49:33.0000000+00:00</time></trkpt><trkpt lat="35.056282" lon="32.4547646"><ele>23.3</ele><time>2015-04-24T18:49:34.0000000+00:00</time></trkpt><trkpt lat="35.0563465" lon="32.4547704"><ele>22.6</ele><time>2015-04-24T18:49:35.0000000+00:00</time></trkpt><trkpt lat="35.0564174" lon="32.4547766"><ele>22.8</ele><time>2015-04-24T18:49:36.0000000+00:00</time></trkpt><trkpt lat="35.0564862" lon="32.454788"><ele>22.4</ele><time>2015-04-24T18:49:37.0000000+00:00</time></trkpt><trkpt lat="35.0565529" lon="32.4547935"><ele>22.1</ele><time>2015-04-24T18:49:38.0000000+00:00</time></trkpt><trkpt lat="35.0566158" lon="32.4548097"><ele>22.5</ele><time>2015-04-24T18:49:39.0000000+00:00</time></trkpt><trkpt lat="35.0566862" lon="32.4548187"><ele>22.2</ele><time>2015-04-24T18:49:40.0000000+00:00</time></trkpt><trkpt lat="35.0567553" lon="32.4548307"><ele>22.1</ele><time>2015-04-24T18:49:41.0000000+00:00</time></trkpt><trkpt lat="35.0568245" lon="32.4548288"><ele>22.0</ele><time>2015-04-24T18:49:42.0000000+00:00</time></trkpt><trkpt lat="35.0568834" lon="32.4548424"><ele>22.0</ele><time>2015-04-24T18:49:43.0000000+00:00</time></trkpt><trkpt lat="35.0569523" lon="32.4548541"><ele>21.9</ele><time>2015-04-24T18:49:44.0000000+00:00</time></trkpt><trkpt lat="35.0570218" lon="32.4548797"><ele>22.4</ele><time>2015-04-24T18:49:45.0000000+00:00</time></trkpt><trkpt lat="35.0570902" lon="32.4548966"><ele>22.2</ele><time>2015-04-24T18:49:46.0000000+00:00</time></trkpt><trkpt lat="35.0571496" lon="32.4549219"><ele>21.6</ele><time>2015-04-24T18:49:47.0000000+00:00</time></trkpt><trkpt lat="35.0572115" lon="32.4549623"><ele>21.2</ele><time>2015-04-24T18:49:48.0000000+00:00</time></trkpt><trkpt lat="35.0572708" lon="32.4550136"><ele>21.1</ele><time>2015-04-24T18:49:49.0000000+00:00</time></trkpt><trkpt lat="35.0573328" lon="32.4550687"><ele>20.5</ele><time>2015-04-24T18:49:50.0000000+00:00</time></trkpt><trkpt lat="35.0573884" lon="32.4551191"><ele>20.2</ele><time>2015-04-24T18:49:51.0000000+00:00</time></trkpt><trkpt lat="35.0574452" lon="32.4551747"><ele>20.1</ele><time>2015-04-24T18:49:52.0000000+00:00</time></trkpt><trkpt lat="35.0574892" lon="32.4552336"><ele>20.5</ele><time>2015-04-24T18:49:53.0000000+00:00</time></trkpt><trkpt lat="35.0575344" lon="32.4553026"><ele>21.2</ele><time>2015-04-24T18:49:54.0000000+00:00</time></trkpt><trkpt lat="35.0575713" lon="32.4553673"><ele>21.6</ele><time>2015-04-24T18:49:55.0000000+00:00</time></trkpt><trkpt lat="35.057614" lon="32.4554194"><ele>22.8</ele><time>2015-04-24T18:49:56.0000000+00:00</time></trkpt><trkpt lat="35.0576588" lon="32.4554842"><ele>23.8</ele><time>2015-04-24T18:49:57.0000000+00:00</time></trkpt><trkpt lat="35.0576978" lon="32.4555422"><ele>24.4</ele><time>2015-04-24T18:49:58.0000000+00:00</time></trkpt><trkpt lat="35.0577322" lon="32.4555968"><ele>24.7</ele><time>2015-04-24T18:49:59.0000000+00:00</time></trkpt><trkpt lat="35.0577651" lon="32.4556551"><ele>24.8</ele><time>2015-04-24T18:50:00.0000000+00:00</time></trkpt><trkpt lat="35.0577972" lon="32.4557102"><ele>24.9</ele><time>2015-04-24T18:50:01.0000000+00:00</time></trkpt><trkpt lat="35.0578236" lon="32.4557599"><ele>24.9</ele><time>2015-04-24T18:50:02.0000000+00:00</time></trkpt><trkpt lat="35.0578889" lon="32.4558522"><ele>24.9</ele><time>2015-04-24T18:50:04.0000000+00:00</time></trkpt><trkpt lat="35.0579174" lon="32.4559076"><ele>24.9</ele><time>2015-04-24T18:50:05.0000000+00:00</time></trkpt><trkpt lat="35.0579493" lon="32.4559584"><ele>24.4</ele><time>2015-04-24T18:50:06.0000000+00:00</time></trkpt><trkpt lat="35.0579743" lon="32.4560107"><ele>23.7</ele><time>2015-04-24T18:50:07.0000000+00:00</time></trkpt><trkpt lat="35.0580036" lon="32.4560629"><ele>23.8</ele><time>2015-04-24T18:50:08.0000000+00:00</time></trkpt><trkpt lat="35.0580328" lon="32.4561132"><ele>23.9</ele><time>2015-04-24T18:50:09.0000000+00:00</time></trkpt><trkpt lat="35.0580635" lon="32.4561565"><ele>23.9</ele><time>2015-04-24T18:50:10.0000000+00:00</time></trkpt><trkpt lat="35.0580868" lon="32.4562125"><ele>23.9</ele><time>2015-04-24T18:50:11.0000000+00:00</time></trkpt><trkpt lat="35.0581103" lon="32.4562648"><ele>23.9</ele><time>2015-04-24T18:50:12.0000000+00:00</time></trkpt><trkpt lat="35.0581529" lon="32.4563509"><ele>23.7</ele><time>2015-04-24T18:50:14.0000000+00:00</time></trkpt><trkpt lat="35.0581986" lon="32.4564377"><ele>23.4</ele><time>2015-04-24T18:50:16.0000000+00:00</time></trkpt><trkpt lat="35.0582237" lon="32.4564897"><ele>23.1</ele><time>2015-04-24T18:50:17.0000000+00:00</time></trkpt><trkpt lat="35.0582764" lon="32.456587"><ele>23.7</ele><time>2015-04-24T18:50:19.0000000+00:00</time></trkpt><trkpt lat="35.0583235" lon="32.4566705"><ele>23.9</ele><time>2015-04-24T18:50:21.0000000+00:00</time></trkpt><trkpt lat="35.0583661" lon="32.4567519"><ele>24.2</ele><time>2015-04-24T18:50:23.0000000+00:00</time></trkpt><trkpt lat="35.0583988" lon="32.4568332"><ele>24.5</ele><time>2015-04-24T18:50:25.0000000+00:00</time></trkpt><trkpt lat="35.0584481" lon="32.4569172"><ele>24.8</ele><time>2015-04-24T18:50:27.0000000+00:00</time></trkpt><trkpt lat="35.0585048" lon="32.4570084"><ele>24.9</ele><time>2015-04-24T18:50:29.0000000+00:00</time></trkpt><trkpt lat="35.0585506" lon="32.457096"><ele>26.7</ele><time>2015-04-24T18:50:31.0000000+00:00</time></trkpt><trkpt lat="35.0585934" lon="32.4571791"><ele>27.6</ele><time>2015-04-24T18:50:33.0000000+00:00</time></trkpt><trkpt lat="35.0586384" lon="32.4572582"><ele>28.6</ele><time>2015-04-24T18:50:35.0000000+00:00</time></trkpt><trkpt lat="35.0586926" lon="32.4573424"><ele>28.6</ele><time>2015-04-24T18:50:37.0000000+00:00</time></trkpt><trkpt lat="35.0587383" lon="32.4573942"><ele>28.3</ele><time>2015-04-24T18:50:38.0000000+00:00</time></trkpt><trkpt lat="35.0587661" lon="32.457439"><ele>28.1</ele><time>2015-04-24T18:50:39.0000000+00:00</time></trkpt><trkpt lat="35.058794" lon="32.4574931"><ele>28.0</ele><time>2015-04-24T18:50:40.0000000+00:00</time></trkpt><trkpt lat="35.0588202" lon="32.457538"><ele>27.5</ele><time>2015-04-24T18:50:41.0000000+00:00</time></trkpt><trkpt lat="35.0588514" lon="32.4575912"><ele>27.2</ele><time>2015-04-24T18:50:42.0000000+00:00</time></trkpt><trkpt lat="35.0589085" lon="32.4576764"><ele>27.7</ele><time>2015-04-24T18:50:44.0000000+00:00</time></trkpt><trkpt lat="35.0589685" lon="32.4577608"><ele>28.4</ele><time>2015-04-24T18:50:46.0000000+00:00</time></trkpt><trkpt lat="35.0590254" lon="32.4578316"><ele>29.3</ele><time>2015-04-24T18:50:48.0000000+00:00</time></trkpt><trkpt lat="35.0590578" lon="32.4578779"><ele>29.6</ele><time>2015-04-24T18:50:49.0000000+00:00</time></trkpt><trkpt lat="35.0590903" lon="32.4579311"><ele>29.8</ele><time>2015-04-24T18:50:50.0000000+00:00</time></trkpt><trkpt lat="35.0591186" lon="32.4579779"><ele>29.9</ele><time>2015-04-24T18:50:51.0000000+00:00</time></trkpt><trkpt lat="35.0591538" lon="32.4580181"><ele>29.9</ele><time>2015-04-24T18:50:52.0000000+00:00</time></trkpt><trkpt lat="35.0591897" lon="32.4580617"><ele>29.9</ele><time>2015-04-24T18:50:53.0000000+00:00</time></trkpt><trkpt lat="35.0592231" lon="32.4581016"><ele>29.9</ele><time>2015-04-24T18:50:54.0000000+00:00</time></trkpt><trkpt lat="35.0592589" lon="32.4581462"><ele>29.4</ele><time>2015-04-24T18:50:55.0000000+00:00</time></trkpt><trkpt lat="35.0593198" lon="32.4582254"><ele>29.1</ele><time>2015-04-24T18:50:57.0000000+00:00</time></trkpt><trkpt lat="35.0593579" lon="32.4582549"><ele>28.5</ele><time>2015-04-24T18:50:58.0000000+00:00</time></trkpt><trkpt lat="35.0594212" lon="32.4583396"><ele>28.6</ele><time>2015-04-24T18:51:00.0000000+00:00</time></trkpt><trkpt lat="35.0594549" lon="32.4583815"><ele>28.8</ele><time>2015-04-24T18:51:01.0000000+00:00</time></trkpt><trkpt lat="35.0594953" lon="32.4584226"><ele>28.8</ele><time>2015-04-24T18:51:02.0000000+00:00</time></trkpt><trkpt lat="35.0595373" lon="32.4584594"><ele>29.4</ele><time>2015-04-24T18:51:03.0000000+00:00</time></trkpt><trkpt lat="35.0595854" lon="32.4585266"><ele>29.8</ele><time>2015-04-24T18:51:05.0000000+00:00</time></trkpt><trkpt lat="35.0596316" lon="32.4585846"><ele>30.1</ele><time>2015-04-24T18:51:07.0000000+00:00</time></trkpt><trkpt lat="35.0596723" lon="32.4586384"><ele>30.0</ele><time>2015-04-24T18:51:09.0000000+00:00</time></trkpt><trkpt lat="35.0597219" lon="32.4587132"><ele>30.4</ele><time>2015-04-24T18:51:11.0000000+00:00</time></trkpt><trkpt lat="35.0597573" lon="32.4587579"><ele>30.7</ele><time>2015-04-24T18:51:12.0000000+00:00</time></trkpt><trkpt lat="35.0597864" lon="32.4588014"><ele>30.3</ele><time>2015-04-24T18:51:13.0000000+00:00</time></trkpt><trkpt lat="35.0598386" lon="32.4588984"><ele>30.0</ele><time>2015-04-24T18:51:15.0000000+00:00</time></trkpt><trkpt lat="35.0598707" lon="32.458947"><ele>29.5</ele><time>2015-04-24T18:51:16.0000000+00:00</time></trkpt><trkpt lat="35.0599059" lon="32.4589955"><ele>29.2</ele><time>2015-04-24T18:51:17.0000000+00:00</time></trkpt><trkpt lat="35.0599427" lon="32.4590422"><ele>28.6</ele><time>2015-04-24T18:51:18.0000000+00:00</time></trkpt><trkpt lat="35.0599702" lon="32.4590923"><ele>28.2</ele><time>2015-04-24T18:51:19.0000000+00:00</time></trkpt><trkpt lat="35.0600038" lon="32.4591431"><ele>28.1</ele><time>2015-04-24T18:51:20.0000000+00:00</time></trkpt><trkpt lat="35.0600316" lon="32.4591942"><ele>28.5</ele><time>2015-04-24T18:51:21.0000000+00:00</time></trkpt><trkpt lat="35.0600622" lon="32.4592452"><ele>28.7</ele><time>2015-04-24T18:51:22.0000000+00:00</time></trkpt><trkpt lat="35.0601121" lon="32.4593277"><ele>29.6</ele><time>2015-04-24T18:51:24.0000000+00:00</time></trkpt><trkpt lat="35.0601314" lon="32.4593778"><ele>29.8</ele><time>2015-04-24T18:51:25.0000000+00:00</time></trkpt><trkpt lat="35.0601635" lon="32.4594644"><ele>29.6</ele><time>2015-04-24T18:51:27.0000000+00:00</time></trkpt><trkpt lat="35.0601819" lon="32.4595193"><ele>29.8</ele><time>2015-04-24T18:51:28.0000000+00:00</time></trkpt><trkpt lat="35.0602033" lon="32.4595715"><ele>29.9</ele><time>2015-04-24T18:51:29.0000000+00:00</time></trkpt><trkpt lat="35.0602251" lon="32.4596206"><ele>29.4</ele><time>2015-04-24T18:51:30.0000000+00:00</time></trkpt><trkpt lat="35.0602522" lon="32.4597092"><ele>28.5</ele><time>2015-04-24T18:51:32.0000000+00:00</time></trkpt><trkpt lat="35.0602729" lon="32.4597615"><ele>28.2</ele><time>2015-04-24T18:51:33.0000000+00:00</time></trkpt><trkpt lat="35.0602969" lon="32.4598533"><ele>28.0</ele><time>2015-04-24T18:51:35.0000000+00:00</time></trkpt><trkpt lat="35.0603141" lon="32.4599108"><ele>27.5</ele><time>2015-04-24T18:51:36.0000000+00:00</time></trkpt><trkpt lat="35.060335" lon="32.4599596"><ele>28.7</ele><time>2015-04-24T18:51:37.0000000+00:00</time></trkpt><trkpt lat="35.0603575" lon="32.4600076"><ele>28.8</ele><time>2015-04-24T18:51:38.0000000+00:00</time></trkpt><trkpt lat="35.0603854" lon="32.4601136"><ele>29.2</ele><time>2015-04-24T18:51:40.0000000+00:00</time></trkpt><trkpt lat="35.0604127" lon="32.4601695"><ele>29.5</ele><time>2015-04-24T18:51:41.0000000+00:00</time></trkpt><trkpt lat="35.0604301" lon="32.4602302"><ele>29.7</ele><time>2015-04-24T18:51:42.0000000+00:00</time></trkpt><trkpt lat="35.0604471" lon="32.4602901"><ele>29.8</ele><time>2015-04-24T18:51:43.0000000+00:00</time></trkpt><trkpt lat="35.0605022" lon="32.4603872"><ele>30.9</ele><time>2015-04-24T18:51:45.0000000+00:00</time></trkpt><trkpt lat="35.0605282" lon="32.4604537"><ele>30.9</ele><time>2015-04-24T18:51:46.0000000+00:00</time></trkpt><trkpt lat="35.0605423" lon="32.4605084"><ele>31.4</ele><time>2015-04-24T18:51:47.0000000+00:00</time></trkpt><trkpt lat="35.0605675" lon="32.4605707"><ele>31.7</ele><time>2015-04-24T18:51:48.0000000+00:00</time></trkpt><trkpt lat="35.0605956" lon="32.4606173"><ele>32.8</ele><time>2015-04-24T18:51:49.0000000+00:00</time></trkpt><trkpt lat="35.0606233" lon="32.4606805"><ele>33.4</ele><time>2015-04-24T18:51:50.0000000+00:00</time></trkpt><trkpt lat="35.060654" lon="32.4607312"><ele>34.1</ele><time>2015-04-24T18:51:51.0000000+00:00</time></trkpt><trkpt lat="35.0606788" lon="32.4607778"><ele>34.0</ele><time>2015-04-24T18:51:52.0000000+00:00</time></trkpt><trkpt lat="35.060706" lon="32.4608236"><ele>34.0</ele><time>2015-04-24T18:51:53.0000000+00:00</time></trkpt><trkpt lat="35.0607376" lon="32.4608717"><ele>33.5</ele><time>2015-04-24T18:51:54.0000000+00:00</time></trkpt><trkpt lat="35.0607725" lon="32.4609299"><ele>33.7</ele><time>2015-04-24T18:51:55.0000000+00:00</time></trkpt><trkpt lat="35.0608103" lon="32.4609839"><ele>33.3</ele><time>2015-04-24T18:51:56.0000000+00:00</time></trkpt><trkpt lat="35.060845" lon="32.4610394"><ele>32.6</ele><time>2015-04-24T18:51:57.0000000+00:00</time></trkpt><trkpt lat="35.0608834" lon="32.461096"><ele>32.8</ele><time>2015-04-24T18:51:58.0000000+00:00</time></trkpt><trkpt lat="35.0609142" lon="32.4611544"><ele>32.9</ele><time>2015-04-24T18:51:59.0000000+00:00</time></trkpt><trkpt lat="35.0609426" lon="32.461208"><ele>32.9</ele><time>2015-04-24T18:52:00.0000000+00:00</time></trkpt><trkpt lat="35.060977" lon="32.4612659"><ele>32.4</ele><time>2015-04-24T18:52:01.0000000+00:00</time></trkpt><trkpt lat="35.0610194" lon="32.4613104"><ele>32.2</ele><time>2015-04-24T18:52:02.0000000+00:00</time></trkpt><trkpt lat="35.0610525" lon="32.4613567"><ele>31.6</ele><time>2015-04-24T18:52:03.0000000+00:00</time></trkpt><trkpt lat="35.0610832" lon="32.4613988"><ele>31.2</ele><time>2015-04-24T18:52:04.0000000+00:00</time></trkpt><trkpt lat="35.061116" lon="32.4614421"><ele>31.6</ele><time>2015-04-24T18:52:05.0000000+00:00</time></trkpt><trkpt lat="35.0611576" lon="32.4614854"><ele>31.3</ele><time>2015-04-24T18:52:06.0000000+00:00</time></trkpt><trkpt lat="35.0611982" lon="32.4615333"><ele>31.1</ele><time>2015-04-24T18:52:07.0000000+00:00</time></trkpt><trkpt lat="35.0612392" lon="32.4615856"><ele>31.0</ele><time>2015-04-24T18:52:08.0000000+00:00</time></trkpt><trkpt lat="35.0612744" lon="32.4616424"><ele>31.0</ele><time>2015-04-24T18:52:09.0000000+00:00</time></trkpt><trkpt lat="35.0613099" lon="32.4616992"><ele>31.0</ele><time>2015-04-24T18:52:10.0000000+00:00</time></trkpt><trkpt lat="35.0613525" lon="32.4617556"><ele>31.4</ele><time>2015-04-24T18:52:11.0000000+00:00</time></trkpt><trkpt lat="35.0613881" lon="32.4618081"><ele>31.7</ele><time>2015-04-24T18:52:12.0000000+00:00</time></trkpt><trkpt lat="35.0614195" lon="32.4618624"><ele>31.8</ele><time>2015-04-24T18:52:13.0000000+00:00</time></trkpt><trkpt lat="35.0614578" lon="32.4619163"><ele>31.9</ele><time>2015-04-24T18:52:14.0000000+00:00</time></trkpt><trkpt lat="35.0614969" lon="32.4619628"><ele>31.4</ele><time>2015-04-24T18:52:15.0000000+00:00</time></trkpt><trkpt lat="35.0615294" lon="32.462014"><ele>31.2</ele><time>2015-04-24T18:52:16.0000000+00:00</time></trkpt><trkpt lat="35.0615776" lon="32.4620618"><ele>31.0</ele><time>2015-04-24T18:52:17.0000000+00:00</time></trkpt><trkpt lat="35.0616085" lon="32.4621212"><ele>31.0</ele><time>2015-04-24T18:52:18.0000000+00:00</time></trkpt><trkpt lat="35.0616427" lon="32.4621762"><ele>31.0</ele><time>2015-04-24T18:52:19.0000000+00:00</time></trkpt><trkpt lat="35.061676" lon="32.4622282"><ele>30.9</ele><time>2015-04-24T18:52:20.0000000+00:00</time></trkpt><trkpt lat="35.0617114" lon="32.4622753"><ele>30.9</ele><time>2015-04-24T18:52:21.0000000+00:00</time></trkpt><trkpt lat="35.0617361" lon="32.4623279"><ele>30.9</ele><time>2015-04-24T18:52:22.0000000+00:00</time></trkpt><trkpt lat="35.0617724" lon="32.4623751"><ele>30.4</ele><time>2015-04-24T18:52:23.0000000+00:00</time></trkpt><trkpt lat="35.0618157" lon="32.4624179"><ele>30.2</ele><time>2015-04-24T18:52:24.0000000+00:00</time></trkpt><trkpt lat="35.0618548" lon="32.4624659"><ele>30.1</ele><time>2015-04-24T18:52:25.0000000+00:00</time></trkpt><trkpt lat="35.0619021" lon="32.4625186"><ele>30.0</ele><time>2015-04-24T18:52:26.0000000+00:00</time></trkpt><trkpt lat="35.0619358" lon="32.4625789"><ele>30.0</ele><time>2015-04-24T18:52:27.0000000+00:00</time></trkpt><trkpt lat="35.0619708" lon="32.4626216"><ele>29.9</ele><time>2015-04-24T18:52:28.0000000+00:00</time></trkpt><trkpt lat="35.0620089" lon="32.46268"><ele>29.9</ele><time>2015-04-24T18:52:29.0000000+00:00</time></trkpt><trkpt lat="35.0620484" lon="32.4627363"><ele>29.9</ele><time>2015-04-24T18:52:30.0000000+00:00</time></trkpt><trkpt lat="35.0620877" lon="32.4627941"><ele>30.9</ele><time>2015-04-24T18:52:31.0000000+00:00</time></trkpt><trkpt lat="35.0621202" lon="32.4628427"><ele>31.4</ele><time>2015-04-24T18:52:32.0000000+00:00</time></trkpt><trkpt lat="35.0621656" lon="32.4629354"><ele>30.6</ele><time>2015-04-24T18:52:34.0000000+00:00</time></trkpt><trkpt lat="35.0622043" lon="32.462968"><ele>30.2</ele><time>2015-04-24T18:52:35.0000000+00:00</time></trkpt><trkpt lat="35.0622418" lon="32.4630146"><ele>29.6</ele><time>2015-04-24T18:52:36.0000000+00:00</time></trkpt><trkpt lat="35.0622759" lon="32.4630548"><ele>29.3</ele><time>2015-04-24T18:52:37.0000000+00:00</time></trkpt><trkpt lat="35.0623103" lon="32.4630921"><ele>28.6</ele><time>2015-04-24T18:52:38.0000000+00:00</time></trkpt><trkpt lat="35.0623506" lon="32.4631345"><ele>27.3</ele><time>2015-04-24T18:52:40.0000000+00:00</time></trkpt><trkpt lat="35.0624026" lon="32.463209"><ele>25.8</ele><time>2015-04-24T18:52:42.0000000+00:00</time></trkpt><trkpt lat="35.0624361" lon="32.4632476"><ele>25.4</ele><time>2015-04-24T18:52:43.0000000+00:00</time></trkpt><trkpt lat="35.0624653" lon="32.463302"><ele>25.1</ele><time>2015-04-24T18:52:44.0000000+00:00</time></trkpt><trkpt lat="35.0625026" lon="32.4633606"><ele>25.0</ele><time>2015-04-24T18:52:45.0000000+00:00</time></trkpt><trkpt lat="35.0625331" lon="32.4634129"><ele>25.0</ele><time>2015-04-24T18:52:46.0000000+00:00</time></trkpt><trkpt lat="35.0625662" lon="32.4634589"><ele>25.0</ele><time>2015-04-24T18:52:47.0000000+00:00</time></trkpt><trkpt lat="35.0626051" lon="32.4635064"><ele>24.9</ele><time>2015-04-24T18:52:48.0000000+00:00</time></trkpt><trkpt lat="35.0626425" lon="32.4635598"><ele>24.9</ele><time>2015-04-24T18:52:49.0000000+00:00</time></trkpt><trkpt lat="35.0626782" lon="32.4636134"><ele>25.4</ele><time>2015-04-24T18:52:50.0000000+00:00</time></trkpt><trkpt lat="35.0627094" lon="32.4636718"><ele>25.7</ele><time>2015-04-24T18:52:51.0000000+00:00</time></trkpt><trkpt lat="35.0627469" lon="32.4637254"><ele>25.8</ele><time>2015-04-24T18:52:52.0000000+00:00</time></trkpt><trkpt lat="35.062778" lon="32.463772"><ele>25.9</ele><time>2015-04-24T18:52:53.0000000+00:00</time></trkpt><trkpt lat="35.0628159" lon="32.4638231"><ele>25.9</ele><time>2015-04-24T18:52:54.0000000+00:00</time></trkpt><trkpt lat="35.062887" lon="32.463913"><ele>25.9</ele><time>2015-04-24T18:52:56.0000000+00:00</time></trkpt><trkpt lat="35.0629218" lon="32.4639638"><ele>26.4</ele><time>2015-04-24T18:52:57.0000000+00:00</time></trkpt><trkpt lat="35.0629596" lon="32.4640131"><ele>27.2</ele><time>2015-04-24T18:52:58.0000000+00:00</time></trkpt><trkpt lat="35.0629884" lon="32.4640565"><ele>27.1</ele><time>2015-04-24T18:52:59.0000000+00:00</time></trkpt><trkpt lat="35.0630167" lon="32.4641034"><ele>27.0</ele><time>2015-04-24T18:53:00.0000000+00:00</time></trkpt><trkpt lat="35.0630512" lon="32.4641498"><ele>27.0</ele><time>2015-04-24T18:53:01.0000000+00:00</time></trkpt><trkpt lat="35.0630954" lon="32.4641838"><ele>26.9</ele><time>2015-04-24T18:53:02.0000000+00:00</time></trkpt><trkpt lat="35.0631262" lon="32.4642302"><ele>26.9</ele><time>2015-04-24T18:53:03.0000000+00:00</time></trkpt><trkpt lat="35.0631676" lon="32.4642741"><ele>26.9</ele><time>2015-04-24T18:53:04.0000000+00:00</time></trkpt><trkpt lat="35.0632096" lon="32.464321"><ele>27.4</ele><time>2015-04-24T18:53:05.0000000+00:00</time></trkpt><trkpt lat="35.0632443" lon="32.4643654"><ele>28.2</ele><time>2015-04-24T18:53:06.0000000+00:00</time></trkpt><trkpt lat="35.0632777" lon="32.4644075"><ele>28.6</ele><time>2015-04-24T18:53:07.0000000+00:00</time></trkpt><trkpt lat="35.0633191" lon="32.4644512"><ele>28.2</ele><time>2015-04-24T18:53:08.0000000+00:00</time></trkpt><trkpt lat="35.0633466" lon="32.4645004"><ele>27.6</ele><time>2015-04-24T18:53:09.0000000+00:00</time></trkpt><trkpt lat="35.0633873" lon="32.464555"><ele>27.8</ele><time>2015-04-24T18:53:10.0000000+00:00</time></trkpt><trkpt lat="35.0634178" lon="32.4646014"><ele>27.3</ele><time>2015-04-24T18:53:11.0000000+00:00</time></trkpt><trkpt lat="35.0634594" lon="32.4646502"><ele>27.1</ele><time>2015-04-24T18:53:12.0000000+00:00</time></trkpt><trkpt lat="35.0634991" lon="32.464697"><ele>27.0</ele><time>2015-04-24T18:53:13.0000000+00:00</time></trkpt><trkpt lat="35.0635251" lon="32.4647437"><ele>27.0</ele><time>2015-04-24T18:53:14.0000000+00:00</time></trkpt><trkpt lat="35.0635599" lon="32.4647817"><ele>26.5</ele><time>2015-04-24T18:53:15.0000000+00:00</time></trkpt><trkpt lat="35.0635896" lon="32.4648309"><ele>26.2</ele><time>2015-04-24T18:53:16.0000000+00:00</time></trkpt><trkpt lat="35.0636255" lon="32.4648691"><ele>26.6</ele><time>2015-04-24T18:53:17.0000000+00:00</time></trkpt><trkpt lat="35.0636591" lon="32.464918"><ele>27.2</ele><time>2015-04-24T18:53:18.0000000+00:00</time></trkpt><trkpt lat="35.0636906" lon="32.4649593"><ele>27.1</ele><time>2015-04-24T18:53:19.0000000+00:00</time></trkpt><trkpt lat="35.0637262" lon="32.465002"><ele>27.0</ele><time>2015-04-24T18:53:20.0000000+00:00</time></trkpt><trkpt lat="35.0637614" lon="32.465043"><ele>27.0</ele><time>2015-04-24T18:53:21.0000000+00:00</time></trkpt><trkpt lat="35.0638244" lon="32.4651108"><ele>26.9</ele><time>2015-04-24T18:53:23.0000000+00:00</time></trkpt><trkpt lat="35.0638707" lon="32.4651527"><ele>27.4</ele><time>2015-04-24T18:53:24.0000000+00:00</time></trkpt><trkpt lat="35.0639146" lon="32.4651868"><ele>28.2</ele><time>2015-04-24T18:53:25.0000000+00:00</time></trkpt><trkpt lat="35.0639515" lon="32.4652291"><ele>28.6</ele><time>2015-04-24T18:53:26.0000000+00:00</time></trkpt><trkpt lat="35.0639904" lon="32.4652717"><ele>28.7</ele><time>2015-04-24T18:53:27.0000000+00:00</time></trkpt><trkpt lat="35.0640269" lon="32.4653124"><ele>28.8</ele><time>2015-04-24T18:53:28.0000000+00:00</time></trkpt><trkpt lat="35.0640921" lon="32.4653903"><ele>28.9</ele><time>2015-04-24T18:53:30.0000000+00:00</time></trkpt><trkpt lat="35.0641331" lon="32.4654271"><ele>28.9</ele><time>2015-04-24T18:53:31.0000000+00:00</time></trkpt><trkpt lat="35.0641716" lon="32.4654641"><ele>29.4</ele><time>2015-04-24T18:53:32.0000000+00:00</time></trkpt><trkpt lat="35.0642123" lon="32.4655038"><ele>29.7</ele><time>2015-04-24T18:53:33.0000000+00:00</time></trkpt><trkpt lat="35.0642486" lon="32.4655412"><ele>29.8</ele><time>2015-04-24T18:53:34.0000000+00:00</time></trkpt><trkpt lat="35.0643094" lon="32.4656048"><ele>29.9</ele><time>2015-04-24T18:53:36.0000000+00:00</time></trkpt><trkpt lat="35.0643682" lon="32.4656721"><ele>29.2</ele><time>2015-04-24T18:53:38.0000000+00:00</time></trkpt><trkpt lat="35.0644298" lon="32.4657429"><ele>28.0</ele><time>2015-04-24T18:53:40.0000000+00:00</time></trkpt><trkpt lat="35.0644574" lon="32.4657863"><ele>28.5</ele><time>2015-04-24T18:53:41.0000000+00:00</time></trkpt><trkpt lat="35.0644898" lon="32.4658301"><ele>28.7</ele><time>2015-04-24T18:53:42.0000000+00:00</time></trkpt><trkpt lat="35.0645202" lon="32.4658779"><ele>28.8</ele><time>2015-04-24T18:53:43.0000000+00:00</time></trkpt><trkpt lat="35.0645556" lon="32.4659228"><ele>28.9</ele><time>2015-04-24T18:53:44.0000000+00:00</time></trkpt><trkpt lat="35.0646299" lon="32.4659889"><ele>29.4</ele><time>2015-04-24T18:53:46.0000000+00:00</time></trkpt><trkpt lat="35.0646663" lon="32.4660252"><ele>29.7</ele><time>2015-04-24T18:53:47.0000000+00:00</time></trkpt><trkpt lat="35.0647219" lon="32.4661159"><ele>29.1</ele><time>2015-04-24T18:53:49.0000000+00:00</time></trkpt><trkpt lat="35.0647874" lon="32.4661866"><ele>28.2</ele><time>2015-04-24T18:53:51.0000000+00:00</time></trkpt><trkpt lat="35.0648171" lon="32.4662402"><ele>28.1</ele><time>2015-04-24T18:53:52.0000000+00:00</time></trkpt><trkpt lat="35.0648489" lon="32.4662832"><ele>28.0</ele><time>2015-04-24T18:53:53.0000000+00:00</time></trkpt><trkpt lat="35.0648909" lon="32.4663765"><ele>27.4</ele><time>2015-04-24T18:53:55.0000000+00:00</time></trkpt><trkpt lat="35.0649293" lon="32.4664267"><ele>27.2</ele><time>2015-04-24T18:53:56.0000000+00:00</time></trkpt><trkpt lat="35.064959" lon="32.4664714"><ele>26.6</ele><time>2015-04-24T18:53:57.0000000+00:00</time></trkpt><trkpt lat="35.064981" lon="32.4665222"><ele>25.7</ele><time>2015-04-24T18:53:58.0000000+00:00</time></trkpt><trkpt lat="35.0650158" lon="32.4665602"><ele>25.8</ele><time>2015-04-24T18:53:59.0000000+00:00</time></trkpt><trkpt lat="35.065048" lon="32.4666108"><ele>26.4</ele><time>2015-04-24T18:54:00.0000000+00:00</time></trkpt><trkpt lat="35.0650728" lon="32.466666"><ele>26.2</ele><time>2015-04-24T18:54:01.0000000+00:00</time></trkpt><trkpt lat="35.0651056" lon="32.4667161"><ele>26.5</ele><time>2015-04-24T18:54:02.0000000+00:00</time></trkpt><trkpt lat="35.0651321" lon="32.4667717"><ele>27.2</ele><time>2015-04-24T18:54:03.0000000+00:00</time></trkpt><trkpt lat="35.0651522" lon="32.4668225"><ele>27.6</ele><time>2015-04-24T18:54:04.0000000+00:00</time></trkpt><trkpt lat="35.0652117" lon="32.4669164"><ele>27.8</ele><time>2015-04-24T18:54:06.0000000+00:00</time></trkpt><trkpt lat="35.0652412" lon="32.4669619"><ele>28.9</ele><time>2015-04-24T18:54:07.0000000+00:00</time></trkpt><trkpt lat="35.0652756" lon="32.4670042"><ele>28.9</ele><time>2015-04-24T18:54:08.0000000+00:00</time></trkpt><trkpt lat="35.0652926" lon="32.4670623"><ele>28.4</ele><time>2015-04-24T18:54:09.0000000+00:00</time></trkpt><trkpt lat="35.0653143" lon="32.4671106"><ele>28.2</ele><time>2015-04-24T18:54:10.0000000+00:00</time></trkpt><trkpt lat="35.0653688" lon="32.4672069"><ele>28.5</ele><time>2015-04-24T18:54:12.0000000+00:00</time></trkpt><trkpt lat="35.0653944" lon="32.4672625"><ele>29.2</ele><time>2015-04-24T18:54:13.0000000+00:00</time></trkpt><trkpt lat="35.0654359" lon="32.4673568"><ele>29.0</ele><time>2015-04-24T18:54:15.0000000+00:00</time></trkpt><trkpt lat="35.0654606" lon="32.4674054"><ele>30.0</ele><time>2015-04-24T18:54:16.0000000+00:00</time></trkpt><trkpt lat="35.0654993" lon="32.4674982"><ele>30.2</ele><time>2015-04-24T18:54:18.0000000+00:00</time></trkpt><trkpt lat="35.0655235" lon="32.4675448"><ele>30.6</ele><time>2015-04-24T18:54:19.0000000+00:00</time></trkpt><trkpt lat="35.0655544" lon="32.4675904"><ele>30.7</ele><time>2015-04-24T18:54:20.0000000+00:00</time></trkpt><trkpt lat="35.0655885" lon="32.4676473"><ele>30.8</ele><time>2015-04-24T18:54:21.0000000+00:00</time></trkpt><trkpt lat="35.0656177" lon="32.4676964"><ele>30.4</ele><time>2015-04-24T18:54:22.0000000+00:00</time></trkpt><trkpt lat="35.0656491" lon="32.4677562"><ele>30.7</ele><time>2015-04-24T18:54:23.0000000+00:00</time></trkpt><trkpt lat="35.0656807" lon="32.4678236"><ele>30.3</ele><time>2015-04-24T18:54:24.0000000+00:00</time></trkpt><trkpt lat="35.0657078" lon="32.4678777"><ele>30.1</ele><time>2015-04-24T18:54:25.0000000+00:00</time></trkpt><trkpt lat="35.0657361" lon="32.4679351"><ele>30.0</ele><time>2015-04-24T18:54:26.0000000+00:00</time></trkpt><trkpt lat="35.0657623" lon="32.4679808"><ele>30.0</ele><time>2015-04-24T18:54:27.0000000+00:00</time></trkpt><trkpt lat="35.0657887" lon="32.4680417"><ele>30.0</ele><time>2015-04-24T18:54:28.0000000+00:00</time></trkpt><trkpt lat="35.065817" lon="32.468093"><ele>30.4</ele><time>2015-04-24T18:54:29.0000000+00:00</time></trkpt><trkpt lat="35.0658371" lon="32.4681535"><ele>30.7</ele><time>2015-04-24T18:54:30.0000000+00:00</time></trkpt><trkpt lat="35.065871" lon="32.4682031"><ele>30.8</ele><time>2015-04-24T18:54:31.0000000+00:00</time></trkpt><trkpt lat="35.0659042" lon="32.4682541"><ele>30.9</ele><time>2015-04-24T18:54:32.0000000+00:00</time></trkpt><trkpt lat="35.0659365" lon="32.4683172"><ele>31.4</ele><time>2015-04-24T18:54:33.0000000+00:00</time></trkpt><trkpt lat="35.0659934" lon="32.4683983"><ele>32.3</ele><time>2015-04-24T18:54:35.0000000+00:00</time></trkpt><trkpt lat="35.0660244" lon="32.4684467"><ele>32.6</ele><time>2015-04-24T18:54:36.0000000+00:00</time></trkpt><trkpt lat="35.0660547" lon="32.4684883"><ele>33.3</ele><time>2015-04-24T18:54:37.0000000+00:00</time></trkpt><trkpt lat="35.0660803" lon="32.4685411"><ele>33.1</ele><time>2015-04-24T18:54:38.0000000+00:00</time></trkpt><trkpt lat="35.0661082" lon="32.4685904"><ele>33.0</ele><time>2015-04-24T18:54:39.0000000+00:00</time></trkpt><trkpt lat="35.0661318" lon="32.4686449"><ele>33.0</ele><time>2015-04-24T18:54:40.0000000+00:00</time></trkpt><trkpt lat="35.066174" lon="32.4687256"><ele>33.2</ele><time>2015-04-24T18:54:42.0000000+00:00</time></trkpt><trkpt lat="35.0662203" lon="32.4687988"><ele>31.7</ele><time>2015-04-24T18:54:44.0000000+00:00</time></trkpt><trkpt lat="35.0662571" lon="32.4688538"><ele>30.6</ele><time>2015-04-24T18:54:46.0000000+00:00</time></trkpt><trkpt lat="35.0663041" lon="32.4689292"><ele>31.4</ele><time>2015-04-24T18:54:48.0000000+00:00</time></trkpt><trkpt lat="35.0663304" lon="32.4689758"><ele>31.1</ele><time>2015-04-24T18:54:49.0000000+00:00</time></trkpt><trkpt lat="35.0663779" lon="32.4690577"><ele>31.5</ele><time>2015-04-24T18:54:51.0000000+00:00</time></trkpt><trkpt lat="35.0664253" lon="32.4691347"><ele>31.1</ele><time>2015-04-24T18:54:53.0000000+00:00</time></trkpt><trkpt lat="35.0664707" lon="32.469203"><ele>31.5</ele><time>2015-04-24T18:54:55.0000000+00:00</time></trkpt><trkpt lat="35.0665159" lon="32.4692663"><ele>30.6</ele><time>2015-04-24T18:54:57.0000000+00:00</time></trkpt><trkpt lat="35.0665597" lon="32.4693189"><ele>28.8</ele><time>2015-04-24T18:54:59.0000000+00:00</time></trkpt><trkpt lat="35.0666042" lon="32.4693734"><ele>29.2</ele><time>2015-04-24T18:55:01.0000000+00:00</time></trkpt><trkpt lat="35.0666523" lon="32.4694255"><ele>30.0</ele><time>2015-04-24T18:55:03.0000000+00:00</time></trkpt><trkpt lat="35.0666993" lon="32.4694806"><ele>29.9</ele><time>2015-04-24T18:55:05.0000000+00:00</time></trkpt><trkpt lat="35.0667431" lon="32.4695364"><ele>30.2</ele><time>2015-04-24T18:55:07.0000000+00:00</time></trkpt><trkpt lat="35.0667947" lon="32.469591"><ele>30.0</ele><time>2015-04-24T18:55:09.0000000+00:00</time></trkpt><trkpt lat="35.0668507" lon="32.4696437"><ele>29.9</ele><time>2015-04-24T18:55:11.0000000+00:00</time></trkpt><trkpt lat="35.0669059" lon="32.4697082"><ele>29.9</ele><time>2015-04-24T18:55:13.0000000+00:00</time></trkpt><trkpt lat="35.0669632" lon="32.4697713"><ele>30.4</ele><time>2015-04-24T18:55:15.0000000+00:00</time></trkpt><trkpt lat="35.067027" lon="32.4698359"><ele>31.3</ele><time>2015-04-24T18:55:17.0000000+00:00</time></trkpt><trkpt lat="35.0670922" lon="32.4699024"><ele>31.5</ele><time>2015-04-24T18:55:19.0000000+00:00</time></trkpt><trkpt lat="35.0671258" lon="32.4699392"><ele>32.7</ele><time>2015-04-24T18:55:20.0000000+00:00</time></trkpt><trkpt lat="35.0671798" lon="32.4700068"><ele>32.8</ele><time>2015-04-24T18:55:21.0000000+00:00</time></trkpt><trkpt lat="35.0672178" lon="32.4700467"><ele>32.9</ele><time>2015-04-24T18:55:22.0000000+00:00</time></trkpt><trkpt lat="35.067251" lon="32.4700851"><ele>32.9</ele><time>2015-04-24T18:55:23.0000000+00:00</time></trkpt><trkpt lat="35.06729" lon="32.4701269"><ele>33.4</ele><time>2015-04-24T18:55:24.0000000+00:00</time></trkpt><trkpt lat="35.0673226" lon="32.4701698"><ele>34.2</ele><time>2015-04-24T18:55:25.0000000+00:00</time></trkpt><trkpt lat="35.0673654" lon="32.4701895"><ele>35.1</ele><time>2015-04-24T18:55:26.0000000+00:00</time></trkpt><trkpt lat="35.0674386" lon="32.4702631"><ele>36.0</ele><time>2015-04-24T18:55:28.0000000+00:00</time></trkpt><trkpt lat="35.0674759" lon="32.470318"><ele>36.4</ele><time>2015-04-24T18:55:29.0000000+00:00</time></trkpt><trkpt lat="35.067518" lon="32.4703639"><ele>36.7</ele><time>2015-04-24T18:55:30.0000000+00:00</time></trkpt><trkpt lat="35.0675485" lon="32.4704054"><ele>36.8</ele><time>2015-04-24T18:55:31.0000000+00:00</time></trkpt><trkpt lat="35.0675828" lon="32.4704601"><ele>36.9</ele><time>2015-04-24T18:55:32.0000000+00:00</time></trkpt><trkpt lat="35.0676016" lon="32.470517"><ele>36.4</ele><time>2015-04-24T18:55:33.0000000+00:00</time></trkpt><trkpt lat="35.0676368" lon="32.4705628"><ele>36.2</ele><time>2015-04-24T18:55:34.0000000+00:00</time></trkpt><trkpt lat="35.0676947" lon="32.4706563"><ele>35.2</ele><time>2015-04-24T18:55:36.0000000+00:00</time></trkpt><trkpt lat="35.0677307" lon="32.470703"><ele>35.1</ele><time>2015-04-24T18:55:37.0000000+00:00</time></trkpt><trkpt lat="35.0677761" lon="32.4707454"><ele>35.0</ele><time>2015-04-24T18:55:38.0000000+00:00</time></trkpt><trkpt lat="35.0678076" lon="32.4708019"><ele>35.0</ele><time>2015-04-24T18:55:39.0000000+00:00</time></trkpt><trkpt lat="35.0678443" lon="32.4708552"><ele>35.4</ele><time>2015-04-24T18:55:40.0000000+00:00</time></trkpt><trkpt lat="35.0679148" lon="32.4709283"><ele>35.8</ele><time>2015-04-24T18:55:42.0000000+00:00</time></trkpt><trkpt lat="35.0679532" lon="32.4709743"><ele>36.4</ele><time>2015-04-24T18:55:43.0000000+00:00</time></trkpt><trkpt lat="35.0679802" lon="32.471024"><ele>36.1</ele><time>2015-04-24T18:55:44.0000000+00:00</time></trkpt><trkpt lat="35.0680174" lon="32.4710721"><ele>36.0</ele><time>2015-04-24T18:55:45.0000000+00:00</time></trkpt><trkpt lat="35.0680495" lon="32.4711111"><ele>36.0</ele><time>2015-04-24T18:55:46.0000000+00:00</time></trkpt><trkpt lat="35.0680979" lon="32.4711704"><ele>33.9</ele><time>2015-04-24T18:55:48.0000000+00:00</time></trkpt><trkpt lat="35.0681513" lon="32.4712575"><ele>33.2</ele><time>2015-04-24T18:55:50.0000000+00:00</time></trkpt><trkpt lat="35.068187" lon="32.4713105"><ele>32.6</ele><time>2015-04-24T18:55:51.0000000+00:00</time></trkpt><trkpt lat="35.0682172" lon="32.4713588"><ele>32.7</ele><time>2015-04-24T18:55:52.0000000+00:00</time></trkpt><trkpt lat="35.0682518" lon="32.4714124"><ele>32.3</ele><time>2015-04-24T18:55:53.0000000+00:00</time></trkpt><trkpt lat="35.0682653" lon="32.4714773"><ele>31.1</ele><time>2015-04-24T18:55:54.0000000+00:00</time></trkpt><trkpt lat="35.0683142" lon="32.4715312"><ele>30.0</ele><time>2015-04-24T18:55:55.0000000+00:00</time></trkpt><trkpt lat="35.0683621" lon="32.4715817"><ele>30.5</ele><time>2015-04-24T18:55:56.0000000+00:00</time></trkpt><trkpt lat="35.0684067" lon="32.4716364"><ele>30.7</ele><time>2015-04-24T18:55:57.0000000+00:00</time></trkpt><trkpt lat="35.0684443" lon="32.4716764"><ele>31.3</ele><time>2015-04-24T18:55:58.0000000+00:00</time></trkpt><trkpt lat="35.0684735" lon="32.471728"><ele>31.6</ele><time>2015-04-24T18:55:59.0000000+00:00</time></trkpt><trkpt lat="35.0685182" lon="32.4717759"><ele>31.3</ele><time>2015-04-24T18:56:00.0000000+00:00</time></trkpt><trkpt lat="35.0685501" lon="32.4718256"><ele>31.1</ele><time>2015-04-24T18:56:01.0000000+00:00</time></trkpt><trkpt lat="35.0685804" lon="32.4718749"><ele>30.5</ele><time>2015-04-24T18:56:02.0000000+00:00</time></trkpt><trkpt lat="35.0686124" lon="32.4719285"><ele>30.2</ele><time>2015-04-24T18:56:03.0000000+00:00</time></trkpt><trkpt lat="35.0686632" lon="32.471975"><ele>30.1</ele><time>2015-04-24T18:56:04.0000000+00:00</time></trkpt><trkpt lat="35.0686997" lon="32.4720329"><ele>30.5</ele><time>2015-04-24T18:56:05.0000000+00:00</time></trkpt><trkpt lat="35.0687396" lon="32.4720863"><ele>31.2</ele><time>2015-04-24T18:56:06.0000000+00:00</time></trkpt><trkpt lat="35.0687708" lon="32.4721413"><ele>31.6</ele><time>2015-04-24T18:56:07.0000000+00:00</time></trkpt><trkpt lat="35.0688075" lon="32.4721954"><ele>31.8</ele><time>2015-04-24T18:56:08.0000000+00:00</time></trkpt><trkpt lat="35.068847" lon="32.4722457"><ele>31.8</ele><time>2015-04-24T18:56:09.0000000+00:00</time></trkpt><trkpt lat="35.0688928" lon="32.472295"><ele>32.9</ele><time>2015-04-24T18:56:10.0000000+00:00</time></trkpt><trkpt lat="35.068932" lon="32.472347"><ele>32.9</ele><time>2015-04-24T18:56:11.0000000+00:00</time></trkpt><trkpt lat="35.0689739" lon="32.4723999"><ele>33.4</ele><time>2015-04-24T18:56:12.0000000+00:00</time></trkpt><trkpt lat="35.069016" lon="32.4724482"><ele>33.2</ele><time>2015-04-24T18:56:13.0000000+00:00</time></trkpt><trkpt lat="35.0690654" lon="32.4725022"><ele>33.6</ele><time>2015-04-24T18:56:14.0000000+00:00</time></trkpt><trkpt lat="35.069104" lon="32.4725599"><ele>34.2</ele><time>2015-04-24T18:56:15.0000000+00:00</time></trkpt><trkpt lat="35.069146" lon="32.4726101"><ele>34.1</ele><time>2015-04-24T18:56:16.0000000+00:00</time></trkpt><trkpt lat="35.0691773" lon="32.4726639"><ele>34.0</ele><time>2015-04-24T18:56:17.0000000+00:00</time></trkpt><trkpt lat="35.0692159" lon="32.472706"><ele>33.5</ele><time>2015-04-24T18:56:18.0000000+00:00</time></trkpt><trkpt lat="35.0692441" lon="32.4727613"><ele>33.2</ele><time>2015-04-24T18:56:19.0000000+00:00</time></trkpt><trkpt lat="35.0692843" lon="32.4728098"><ele>33.6</ele><time>2015-04-24T18:56:20.0000000+00:00</time></trkpt><trkpt lat="35.0693291" lon="32.4728579"><ele>33.7</ele><time>2015-04-24T18:56:21.0000000+00:00</time></trkpt><trkpt lat="35.0693696" lon="32.4729012"><ele>34.3</ele><time>2015-04-24T18:56:22.0000000+00:00</time></trkpt><trkpt lat="35.0693916" lon="32.4729514"><ele>34.6</ele><time>2015-04-24T18:56:23.0000000+00:00</time></trkpt><trkpt lat="35.0694341" lon="32.4729983"><ele>34.8</ele><time>2015-04-24T18:56:24.0000000+00:00</time></trkpt><trkpt lat="35.0694677" lon="32.473036"><ele>34.4</ele><time>2015-04-24T18:56:25.0000000+00:00</time></trkpt><trkpt lat="35.0695026" lon="32.4730795"><ele>34.1</ele><time>2015-04-24T18:56:26.0000000+00:00</time></trkpt><trkpt lat="35.0695547" lon="32.473152"><ele>34.0</ele><time>2015-04-24T18:56:28.0000000+00:00</time></trkpt><trkpt lat="35.0696175" lon="32.4732287"><ele>33.2</ele><time>2015-04-24T18:56:30.0000000+00:00</time></trkpt><trkpt lat="35.0696575" lon="32.4733057"><ele>32.2</ele><time>2015-04-24T18:56:32.0000000+00:00</time></trkpt><trkpt lat="35.0697211" lon="32.4733845"><ele>32.8</ele><time>2015-04-24T18:56:34.0000000+00:00</time></trkpt><trkpt lat="35.0697449" lon="32.4734376"><ele>32.3</ele><time>2015-04-24T18:56:35.0000000+00:00</time></trkpt><trkpt lat="35.0698084" lon="32.4735304"><ele>30.8</ele><time>2015-04-24T18:56:37.0000000+00:00</time></trkpt><trkpt lat="35.0698531" lon="32.473579"><ele>30.4</ele><time>2015-04-24T18:56:38.0000000+00:00</time></trkpt><trkpt lat="35.0698964" lon="32.4736242"><ele>30.1</ele><time>2015-04-24T18:56:39.0000000+00:00</time></trkpt><trkpt lat="35.0699373" lon="32.4736761"><ele>30.0</ele><time>2015-04-24T18:56:40.0000000+00:00</time></trkpt><trkpt lat="35.0699741" lon="32.4737231"><ele>30.5</ele><time>2015-04-24T18:56:41.0000000+00:00</time></trkpt><trkpt lat="35.0700238" lon="32.4738061"><ele>30.6</ele><time>2015-04-24T18:56:43.0000000+00:00</time></trkpt><trkpt lat="35.0700641" lon="32.47385"><ele>31.2</ele><time>2015-04-24T18:56:44.0000000+00:00</time></trkpt><trkpt lat="35.0701099" lon="32.4738872"><ele>31.6</ele><time>2015-04-24T18:56:45.0000000+00:00</time></trkpt><trkpt lat="35.0701437" lon="32.4739294"><ele>31.3</ele><time>2015-04-24T18:56:46.0000000+00:00</time></trkpt><trkpt lat="35.0701748" lon="32.4739756"><ele>30.6</ele><time>2015-04-24T18:56:47.0000000+00:00</time></trkpt><trkpt lat="35.0702125" lon="32.4740128"><ele>30.3</ele><time>2015-04-24T18:56:48.0000000+00:00</time></trkpt><trkpt lat="35.0702479" lon="32.474051"><ele>30.1</ele><time>2015-04-24T18:56:49.0000000+00:00</time></trkpt><trkpt lat="35.0702839" lon="32.4740967"><ele>30.0</ele><time>2015-04-24T18:56:50.0000000+00:00</time></trkpt><trkpt lat="35.0703509" lon="32.4741827"><ele>29.5</ele><time>2015-04-24T18:56:52.0000000+00:00</time></trkpt><trkpt lat="35.0704025" lon="32.474216"><ele>29.7</ele><time>2015-04-24T18:56:53.0000000+00:00</time></trkpt><trkpt lat="35.0704478" lon="32.474266"><ele>29.8</ele><time>2015-04-24T18:56:54.0000000+00:00</time></trkpt><trkpt lat="35.0704851" lon="32.474304"><ele>29.9</ele><time>2015-04-24T18:56:55.0000000+00:00</time></trkpt><trkpt lat="35.070522" lon="32.4743365"><ele>30.4</ele><time>2015-04-24T18:56:56.0000000+00:00</time></trkpt><trkpt lat="35.0705928" lon="32.4744134"><ele>31.5</ele><time>2015-04-24T18:56:58.0000000+00:00</time></trkpt><trkpt lat="35.0706283" lon="32.474457"><ele>31.7</ele><time>2015-04-24T18:56:59.0000000+00:00</time></trkpt><trkpt lat="35.0706665" lon="32.4744996"><ele>32.8</ele><time>2015-04-24T18:57:00.0000000+00:00</time></trkpt><trkpt lat="35.070709" lon="32.4745447"><ele>32.9</ele><time>2015-04-24T18:57:01.0000000+00:00</time></trkpt><trkpt lat="35.070748" lon="32.474593"><ele>32.9</ele><time>2015-04-24T18:57:02.0000000+00:00</time></trkpt><trkpt lat="35.0707829" lon="32.4746339"><ele>32.9</ele><time>2015-04-24T18:57:03.0000000+00:00</time></trkpt><trkpt lat="35.0708211" lon="32.4746764"><ele>32.9</ele><time>2015-04-24T18:57:04.0000000+00:00</time></trkpt><trkpt lat="35.0708553" lon="32.4747216"><ele>32.9</ele><time>2015-04-24T18:57:05.0000000+00:00</time></trkpt><trkpt lat="35.0708902" lon="32.4747676"><ele>32.9</ele><time>2015-04-24T18:57:06.0000000+00:00</time></trkpt><trkpt lat="35.0709599" lon="32.4748532"><ele>32.2</ele><time>2015-04-24T18:57:08.0000000+00:00</time></trkpt><trkpt lat="35.0709972" lon="32.4748952"><ele>32.1</ele><time>2015-04-24T18:57:09.0000000+00:00</time></trkpt><trkpt lat="35.0710296" lon="32.4749367"><ele>31.5</ele><time>2015-04-24T18:57:10.0000000+00:00</time></trkpt><trkpt lat="35.0710845" lon="32.4750181"><ele>30.3</ele><time>2015-04-24T18:57:12.0000000+00:00</time></trkpt><trkpt lat="35.0711146" lon="32.4750599"><ele>29.6</ele><time>2015-04-24T18:57:13.0000000+00:00</time></trkpt><trkpt lat="35.0711473" lon="32.4750993"><ele>29.3</ele><time>2015-04-24T18:57:14.0000000+00:00</time></trkpt><trkpt lat="35.0711997" lon="32.4751729"><ele>28.5</ele><time>2015-04-24T18:57:16.0000000+00:00</time></trkpt><trkpt lat="35.0712625" lon="32.4752377"><ele>28.1</ele><time>2015-04-24T18:57:18.0000000+00:00</time></trkpt><trkpt lat="35.0713259" lon="32.4753154"><ele>27.7</ele><time>2015-04-24T18:57:20.0000000+00:00</time></trkpt><trkpt lat="35.071364" lon="32.4753526"><ele>27.3</ele><time>2015-04-24T18:57:21.0000000+00:00</time></trkpt><trkpt lat="35.0714292" lon="32.4754225"><ele>27.5</ele><time>2015-04-24T18:57:23.0000000+00:00</time></trkpt><trkpt lat="35.0714896" lon="32.4754964"><ele>27.8</ele><time>2015-04-24T18:57:25.0000000+00:00</time></trkpt><trkpt lat="35.071554" lon="32.4755685"><ele>28.7</ele><time>2015-04-24T18:57:27.0000000+00:00</time></trkpt><trkpt lat="35.0715888" lon="32.4756068"><ele>29.3</ele><time>2015-04-24T18:57:28.0000000+00:00</time></trkpt><trkpt lat="35.0716334" lon="32.4756511"><ele>29.1</ele><time>2015-04-24T18:57:29.0000000+00:00</time></trkpt><trkpt lat="35.0716972" lon="32.4757336"><ele>29.5</ele><time>2015-04-24T18:57:31.0000000+00:00</time></trkpt><trkpt lat="35.07176" lon="32.4758109"><ele>29.6</ele><time>2015-04-24T18:57:33.0000000+00:00</time></trkpt><trkpt lat="35.0718228" lon="32.4758931"><ele>30.3</ele><time>2015-04-24T18:57:35.0000000+00:00</time></trkpt><trkpt lat="35.0718536" lon="32.4759384"><ele>30.1</ele><time>2015-04-24T18:57:36.0000000+00:00</time></trkpt><trkpt lat="35.0718836" lon="32.4759861"><ele>29.5</ele><time>2015-04-24T18:57:37.0000000+00:00</time></trkpt><trkpt lat="35.0719146" lon="32.4760327"><ele>29.2</ele><time>2015-04-24T18:57:38.0000000+00:00</time></trkpt><trkpt lat="35.0719767" lon="32.4760837"><ele>28.3</ele><time>2015-04-24T18:57:40.0000000+00:00</time></trkpt><trkpt lat="35.0720384" lon="32.4761411"><ele>28.5</ele><time>2015-04-24T18:57:42.0000000+00:00</time></trkpt><trkpt lat="35.0720883" lon="32.4762121"><ele>27.6</ele><time>2015-04-24T18:57:44.0000000+00:00</time></trkpt><trkpt lat="35.0721386" lon="32.4762849"><ele>26.6</ele><time>2015-04-24T18:57:46.0000000+00:00</time></trkpt><trkpt lat="35.0721775" lon="32.4763518"><ele>26.1</ele><time>2015-04-24T18:57:48.0000000+00:00</time></trkpt><trkpt lat="35.0722197" lon="32.4764138"><ele>26.0</ele><time>2015-04-24T18:57:50.0000000+00:00</time></trkpt><trkpt lat="35.072258" lon="32.4764707"><ele>25.4</ele><time>2015-04-24T18:57:52.0000000+00:00</time></trkpt><trkpt lat="35.0723005" lon="32.4765219"><ele>25.1</ele><time>2015-04-24T18:57:54.0000000+00:00</time></trkpt><trkpt lat="35.0723408" lon="32.4765754"><ele>24.7</ele><time>2015-04-24T18:57:56.0000000+00:00</time></trkpt><trkpt lat="35.0723801" lon="32.4766358"><ele>24.9</ele><time>2015-04-24T18:57:58.0000000+00:00</time></trkpt><trkpt lat="35.0724265" lon="32.4766915"><ele>25.2</ele><time>2015-04-24T18:58:00.0000000+00:00</time></trkpt><trkpt lat="35.072477" lon="32.4767472"><ele>25.0</ele><time>2015-04-24T18:58:02.0000000+00:00</time></trkpt><trkpt lat="35.0725298" lon="32.4768104"><ele>24.9</ele><time>2015-04-24T18:58:04.0000000+00:00</time></trkpt><trkpt lat="35.0725834" lon="32.4768776"><ele>25.7</ele><time>2015-04-24T18:58:06.0000000+00:00</time></trkpt><trkpt lat="35.0726457" lon="32.4769437"><ele>25.1</ele><time>2015-04-24T18:58:08.0000000+00:00</time></trkpt><trkpt lat="35.0727052" lon="32.4770111"><ele>25.7</ele><time>2015-04-24T18:58:10.0000000+00:00</time></trkpt><trkpt lat="35.0727633" lon="32.4770756"><ele>25.4</ele><time>2015-04-24T18:58:12.0000000+00:00</time></trkpt><trkpt lat="35.0728191" lon="32.4771403"><ele>25.5</ele><time>2015-04-24T18:58:14.0000000+00:00</time></trkpt><trkpt lat="35.0728824" lon="32.4772082"><ele>25.8</ele><time>2015-04-24T18:58:16.0000000+00:00</time></trkpt><trkpt lat="35.072948" lon="32.4772617"><ele>25.9</ele><time>2015-04-24T18:58:17.0000000+00:00</time></trkpt><trkpt lat="35.0730153" lon="32.477342"><ele>26.7</ele><time>2015-04-24T18:58:19.0000000+00:00</time></trkpt><trkpt lat="35.0730517" lon="32.477389"><ele>26.8</ele><time>2015-04-24T18:58:20.0000000+00:00</time></trkpt><trkpt lat="35.0730918" lon="32.4774405"><ele>26.9</ele><time>2015-04-24T18:58:21.0000000+00:00</time></trkpt><trkpt lat="35.0731328" lon="32.4774852"><ele>26.9</ele><time>2015-04-24T18:58:22.0000000+00:00</time></trkpt><trkpt lat="35.073171" lon="32.47753"><ele>26.9</ele><time>2015-04-24T18:58:23.0000000+00:00</time></trkpt><trkpt lat="35.0732063" lon="32.4775737"><ele>27.9</ele><time>2015-04-24T18:58:24.0000000+00:00</time></trkpt><trkpt lat="35.0732651" lon="32.4776425"><ele>28.9</ele><time>2015-04-24T18:58:26.0000000+00:00</time></trkpt><trkpt lat="35.0733088" lon="32.4777209"><ele>28.4</ele><time>2015-04-24T18:58:28.0000000+00:00</time></trkpt><trkpt lat="35.0733538" lon="32.4777965"><ele>27.6</ele><time>2015-04-24T18:58:30.0000000+00:00</time></trkpt><trkpt lat="35.0733994" lon="32.4778648"><ele>27.1</ele><time>2015-04-24T18:58:32.0000000+00:00</time></trkpt><trkpt lat="35.073455" lon="32.4779276"><ele>27.5</ele><time>2015-04-24T18:58:34.0000000+00:00</time></trkpt><trkpt lat="35.0734866" lon="32.4779678"><ele>28.2</ele><time>2015-04-24T18:58:35.0000000+00:00</time></trkpt><trkpt lat="35.0735177" lon="32.4780094"><ele>28.6</ele><time>2015-04-24T18:58:36.0000000+00:00</time></trkpt><trkpt lat="35.0735534" lon="32.4780577"><ele>28.7</ele><time>2015-04-24T18:58:37.0000000+00:00</time></trkpt><trkpt lat="35.0735894" lon="32.478102"><ele>28.8</ele><time>2015-04-24T18:58:38.0000000+00:00</time></trkpt><trkpt lat="35.073655" lon="32.4781731"><ele>29.4</ele><time>2015-04-24T18:58:40.0000000+00:00</time></trkpt><trkpt lat="35.0737106" lon="32.4782369"><ele>30.5</ele><time>2015-04-24T18:58:42.0000000+00:00</time></trkpt><trkpt lat="35.0737697" lon="32.478298"><ele>31.1</ele><time>2015-04-24T18:58:44.0000000+00:00</time></trkpt><trkpt lat="35.0738146" lon="32.4783605"><ele>30.5</ele><time>2015-04-24T18:58:46.0000000+00:00</time></trkpt><trkpt lat="35.0738548" lon="32.4784182"><ele>30.1</ele><time>2015-04-24T18:58:48.0000000+00:00</time></trkpt><trkpt lat="35.0738984" lon="32.4784672"><ele>30.5</ele><time>2015-04-24T18:58:50.0000000+00:00</time></trkpt><trkpt lat="35.07394" lon="32.4785099"><ele>30.8</ele><time>2015-04-24T18:58:52.0000000+00:00</time></trkpt><trkpt lat="35.0739866" lon="32.4785595"><ele>30.2</ele><time>2015-04-24T18:58:54.0000000+00:00</time></trkpt><trkpt lat="35.074039" lon="32.478615"><ele>30.0</ele><time>2015-04-24T18:58:56.0000000+00:00</time></trkpt><trkpt lat="35.0740934" lon="32.4786777"><ele>29.4</ele><time>2015-04-24T18:58:58.0000000+00:00</time></trkpt><trkpt lat="35.0741476" lon="32.4787396"><ele>29.8</ele><time>2015-04-24T18:59:00.0000000+00:00</time></trkpt><trkpt lat="35.0741966" lon="32.478799"><ele>29.4</ele><time>2015-04-24T18:59:02.0000000+00:00</time></trkpt><trkpt lat="35.0742459" lon="32.4788569"><ele>29.5</ele><time>2015-04-24T18:59:04.0000000+00:00</time></trkpt><trkpt lat="35.0742946" lon="32.4789112"><ele>29.3</ele><time>2015-04-24T18:59:06.0000000+00:00</time></trkpt><trkpt lat="35.0743428" lon="32.4789672"><ele>29.8</ele><time>2015-04-24T18:59:08.0000000+00:00</time></trkpt><trkpt lat="35.0743919" lon="32.4790226"><ele>29.1</ele><time>2015-04-24T18:59:10.0000000+00:00</time></trkpt><trkpt lat="35.0744428" lon="32.4790793"><ele>29.7</ele><time>2015-04-24T18:59:12.0000000+00:00</time></trkpt><trkpt lat="35.0744977" lon="32.4791382"><ele>29.9</ele><time>2015-04-24T18:59:14.0000000+00:00</time></trkpt><trkpt lat="35.0745529" lon="32.4791967"><ele>29.4</ele><time>2015-04-24T18:59:16.0000000+00:00</time></trkpt><trkpt lat="35.0746076" lon="32.4792563"><ele>29.1</ele><time>2015-04-24T18:59:18.0000000+00:00</time></trkpt><trkpt lat="35.0746651" lon="32.4793179"><ele>28.7</ele><time>2015-04-24T18:59:20.0000000+00:00</time></trkpt><trkpt lat="35.074723" lon="32.4793776"><ele>29.4</ele><time>2015-04-24T18:59:22.0000000+00:00</time></trkpt><trkpt lat="35.0747791" lon="32.4794386"><ele>29.8</ele><time>2015-04-24T18:59:24.0000000+00:00</time></trkpt><trkpt lat="35.0748328" lon="32.4794961"><ele>30.6</ele><time>2015-04-24T18:59:26.0000000+00:00</time></trkpt><trkpt lat="35.0748826" lon="32.4795527"><ele>30.4</ele><time>2015-04-24T18:59:28.0000000+00:00</time></trkpt><trkpt lat="35.0749373" lon="32.4796082"><ele>30.0</ele><time>2015-04-24T18:59:30.0000000+00:00</time></trkpt><trkpt lat="35.0749936" lon="32.4796708"><ele>29.5</ele><time>2015-04-24T18:59:32.0000000+00:00</time></trkpt><trkpt lat="35.0750532" lon="32.4797382"><ele>29.1</ele><time>2015-04-24T18:59:34.0000000+00:00</time></trkpt><trkpt lat="35.0751024" lon="32.4797965"><ele>29.0</ele><time>2015-04-24T18:59:35.0000000+00:00</time></trkpt><trkpt lat="35.0751645" lon="32.4798703"><ele>28.2</ele><time>2015-04-24T18:59:37.0000000+00:00</time></trkpt><trkpt lat="35.0752013" lon="32.4799101"><ele>28.1</ele><time>2015-04-24T18:59:38.0000000+00:00</time></trkpt><trkpt lat="35.0752589" lon="32.4799885"><ele>27.2</ele><time>2015-04-24T18:59:40.0000000+00:00</time></trkpt><trkpt lat="35.0753002" lon="32.4800286"><ele>26.6</ele><time>2015-04-24T18:59:41.0000000+00:00</time></trkpt><trkpt lat="35.0753314" lon="32.4800707"><ele>26.8</ele><time>2015-04-24T18:59:42.0000000+00:00</time></trkpt><trkpt lat="35.0753695" lon="32.480111"><ele>26.3</ele><time>2015-04-24T18:59:43.0000000+00:00</time></trkpt><trkpt lat="35.0754074" lon="32.4801619"><ele>26.1</ele><time>2015-04-24T18:59:44.0000000+00:00</time></trkpt><trkpt lat="35.0754458" lon="32.4802111"><ele>26.0</ele><time>2015-04-24T18:59:45.0000000+00:00</time></trkpt><trkpt lat="35.0754849" lon="32.4802514"><ele>26.0</ele><time>2015-04-24T18:59:46.0000000+00:00</time></trkpt><trkpt lat="35.075556" lon="32.4803262"><ele>26.7</ele><time>2015-04-24T18:59:48.0000000+00:00</time></trkpt><trkpt lat="35.0755869" lon="32.4803725"><ele>26.8</ele><time>2015-04-24T18:59:49.0000000+00:00</time></trkpt><trkpt lat="35.0756249" lon="32.4804184"><ele>26.9</ele><time>2015-04-24T18:59:50.0000000+00:00</time></trkpt><trkpt lat="35.075662" lon="32.4804651"><ele>26.9</ele><time>2015-04-24T18:59:51.0000000+00:00</time></trkpt><trkpt lat="35.0756985" lon="32.4805031"><ele>26.9</ele><time>2015-04-24T18:59:52.0000000+00:00</time></trkpt><trkpt lat="35.0757344" lon="32.4805461"><ele>26.9</ele><time>2015-04-24T18:59:53.0000000+00:00</time></trkpt><trkpt lat="35.0758024" lon="32.4806214"><ele>26.9</ele><time>2015-04-24T18:59:55.0000000+00:00</time></trkpt><trkpt lat="35.0758452" lon="32.4806688"><ele>26.9</ele><time>2015-04-24T18:59:56.0000000+00:00</time></trkpt><trkpt lat="35.0758933" lon="32.4807082"><ele>26.9</ele><time>2015-04-24T18:59:57.0000000+00:00</time></trkpt><trkpt lat="35.075927" lon="32.4807534"><ele>26.4</ele><time>2015-04-24T18:59:58.0000000+00:00</time></trkpt><trkpt lat="35.0759757" lon="32.4807946"><ele>26.2</ele><time>2015-04-24T18:59:59.0000000+00:00</time></trkpt><trkpt lat="35.0760243" lon="32.480823"><ele>26.1</ele><time>2015-04-24T19:00:00.0000000+00:00</time></trkpt><trkpt lat="35.0760638" lon="32.4808705"><ele>26.0</ele><time>2015-04-24T19:00:01.0000000+00:00</time></trkpt><trkpt lat="35.0761057" lon="32.4809041"><ele>25.5</ele><time>2015-04-24T19:00:02.0000000+00:00</time></trkpt><trkpt lat="35.0761355" lon="32.4809522"><ele>25.7</ele><time>2015-04-24T19:00:03.0000000+00:00</time></trkpt><trkpt lat="35.0762026" lon="32.4810388"><ele>25.4</ele><time>2015-04-24T19:00:05.0000000+00:00</time></trkpt><trkpt lat="35.0762427" lon="32.4810844"><ele>25.7</ele><time>2015-04-24T19:00:06.0000000+00:00</time></trkpt><trkpt lat="35.076279" lon="32.4811341"><ele>25.3</ele><time>2015-04-24T19:00:07.0000000+00:00</time></trkpt><trkpt lat="35.0763382" lon="32.4812307"><ele>24.3</ele><time>2015-04-24T19:00:09.0000000+00:00</time></trkpt><trkpt lat="35.0763727" lon="32.4812804"><ele>23.6</ele><time>2015-04-24T19:00:10.0000000+00:00</time></trkpt><trkpt lat="35.0764232" lon="32.4813236"><ele>23.8</ele><time>2015-04-24T19:00:11.0000000+00:00</time></trkpt><trkpt lat="35.0764602" lon="32.481382"><ele>24.3</ele><time>2015-04-24T19:00:12.0000000+00:00</time></trkpt><trkpt lat="35.076493" lon="32.4814329"><ele>24.6</ele><time>2015-04-24T19:00:13.0000000+00:00</time></trkpt><trkpt lat="35.0765377" lon="32.4814751"><ele>25.3</ele><time>2015-04-24T19:00:14.0000000+00:00</time></trkpt><trkpt lat="35.0765756" lon="32.4815238"><ele>26.1</ele><time>2015-04-24T19:00:15.0000000+00:00</time></trkpt><trkpt lat="35.0766079" lon="32.481581"><ele>26.0</ele><time>2015-04-24T19:00:16.0000000+00:00</time></trkpt><trkpt lat="35.0766476" lon="32.4816281"><ele>26.0</ele><time>2015-04-24T19:00:17.0000000+00:00</time></trkpt><trkpt lat="35.0766918" lon="32.481679"><ele>26.0</ele><time>2015-04-24T19:00:18.0000000+00:00</time></trkpt><trkpt lat="35.0767337" lon="32.4817264"><ele>25.9</ele><time>2015-04-24T19:00:19.0000000+00:00</time></trkpt><trkpt lat="35.0767772" lon="32.4817712"><ele>25.9</ele><time>2015-04-24T19:00:20.0000000+00:00</time></trkpt><trkpt lat="35.0768244" lon="32.4818113"><ele>25.9</ele><time>2015-04-24T19:00:21.0000000+00:00</time></trkpt><trkpt lat="35.0768768" lon="32.4818423"><ele>25.9</ele><time>2015-04-24T19:00:22.0000000+00:00</time></trkpt><trkpt lat="35.0769251" lon="32.4818674"><ele>25.9</ele><time>2015-04-24T19:00:23.0000000+00:00</time></trkpt><trkpt lat="35.0769708" lon="32.4818868"><ele>25.9</ele><time>2015-04-24T19:00:24.0000000+00:00</time></trkpt><trkpt lat="35.0770206" lon="32.4819055"><ele>25.9</ele><time>2015-04-24T19:00:25.0000000+00:00</time></trkpt><trkpt lat="35.0770647" lon="32.4819175"><ele>25.4</ele><time>2015-04-24T19:00:26.0000000+00:00</time></trkpt><trkpt lat="35.0771097" lon="32.4819316"><ele>25.2</ele><time>2015-04-24T19:00:27.0000000+00:00</time></trkpt><trkpt lat="35.0771606" lon="32.4819576"><ele>24.6</ele><time>2015-04-24T19:00:28.0000000+00:00</time></trkpt><trkpt lat="35.0772028" lon="32.4819822"><ele>24.2</ele><time>2015-04-24T19:00:29.0000000+00:00</time></trkpt><trkpt lat="35.0772588" lon="32.4819919"><ele>24.1</ele><time>2015-04-24T19:00:30.0000000+00:00</time></trkpt><trkpt lat="35.0773106" lon="32.4820147"><ele>24.0</ele><time>2015-04-24T19:00:31.0000000+00:00</time></trkpt><trkpt lat="35.077359" lon="32.4820479"><ele>23.5</ele><time>2015-04-24T19:00:32.0000000+00:00</time></trkpt><trkpt lat="35.0774012" lon="32.4820791"><ele>22.7</ele><time>2015-04-24T19:00:33.0000000+00:00</time></trkpt><trkpt lat="35.0774447" lon="32.4821128"><ele>22.8</ele><time>2015-04-24T19:00:34.0000000+00:00</time></trkpt><trkpt lat="35.077491" lon="32.482153"><ele>22.9</ele><time>2015-04-24T19:00:35.0000000+00:00</time></trkpt><trkpt lat="35.0775342" lon="32.4821972"><ele>22.9</ele><time>2015-04-24T19:00:36.0000000+00:00</time></trkpt><trkpt lat="35.0775778" lon="32.4822399"><ele>22.9</ele><time>2015-04-24T19:00:37.0000000+00:00</time></trkpt><trkpt lat="35.0776235" lon="32.4822802"><ele>22.9</ele><time>2015-04-24T19:00:38.0000000+00:00</time></trkpt><trkpt lat="35.0776674" lon="32.482325"><ele>22.9</ele><time>2015-04-24T19:00:39.0000000+00:00</time></trkpt><trkpt lat="35.0777094" lon="32.4823675"><ele>23.4</ele><time>2015-04-24T19:00:40.0000000+00:00</time></trkpt><trkpt lat="35.0777474" lon="32.4824175"><ele>24.2</ele><time>2015-04-24T19:00:41.0000000+00:00</time></trkpt><trkpt lat="35.077782" lon="32.4824592"><ele>24.1</ele><time>2015-04-24T19:00:42.0000000+00:00</time></trkpt><trkpt lat="35.0778215" lon="32.4825022"><ele>24.5</ele><time>2015-04-24T19:00:43.0000000+00:00</time></trkpt><trkpt lat="35.0778586" lon="32.4825406"><ele>24.2</ele><time>2015-04-24T19:00:44.0000000+00:00</time></trkpt><trkpt lat="35.0778936" lon="32.4825803"><ele>24.6</ele><time>2015-04-24T19:00:45.0000000+00:00</time></trkpt><trkpt lat="35.0779283" lon="32.4826282"><ele>24.3</ele><time>2015-04-24T19:00:46.0000000+00:00</time></trkpt><trkpt lat="35.0779649" lon="32.4826702"><ele>24.1</ele><time>2015-04-24T19:00:47.0000000+00:00</time></trkpt><trkpt lat="35.0780069" lon="32.4827217"><ele>24.0</ele><time>2015-04-24T19:00:48.0000000+00:00</time></trkpt><trkpt lat="35.0780352" lon="32.4827686"><ele>24.0</ele><time>2015-04-24T19:00:49.0000000+00:00</time></trkpt><trkpt lat="35.0780732" lon="32.4828131"><ele>23.5</ele><time>2015-04-24T19:00:50.0000000+00:00</time></trkpt><trkpt lat="35.0781107" lon="32.4828562"><ele>23.2</ele><time>2015-04-24T19:00:51.0000000+00:00</time></trkpt><trkpt lat="35.0781536" lon="32.4828997"><ele>23.1</ele><time>2015-04-24T19:00:52.0000000+00:00</time></trkpt><trkpt lat="35.0781946" lon="32.4829436"><ele>23.5</ele><time>2015-04-24T19:00:53.0000000+00:00</time></trkpt><trkpt lat="35.0782316" lon="32.4829875"><ele>23.7</ele><time>2015-04-24T19:00:54.0000000+00:00</time></trkpt><trkpt lat="35.0782728" lon="32.4830239"><ele>24.3</ele><time>2015-04-24T19:00:55.0000000+00:00</time></trkpt><trkpt lat="35.0783126" lon="32.4830698"><ele>24.6</ele><time>2015-04-24T19:00:56.0000000+00:00</time></trkpt><trkpt lat="35.0783543" lon="32.48311"><ele>25.8</ele><time>2015-04-24T19:00:57.0000000+00:00</time></trkpt><trkpt lat="35.0783958" lon="32.4831597"><ele>25.9</ele><time>2015-04-24T19:00:58.0000000+00:00</time></trkpt><trkpt lat="35.0784271" lon="32.4832061"><ele>26.4</ele><time>2015-04-24T19:00:59.0000000+00:00</time></trkpt><trkpt lat="35.0784627" lon="32.4832518"><ele>26.2</ele><time>2015-04-24T19:01:00.0000000+00:00</time></trkpt><trkpt lat="35.0785006" lon="32.4832999"><ele>26.0</ele><time>2015-04-24T19:01:01.0000000+00:00</time></trkpt><trkpt lat="35.0785301" lon="32.4833449"><ele>25.5</ele><time>2015-04-24T19:01:02.0000000+00:00</time></trkpt><trkpt lat="35.0785698" lon="32.4833818"><ele>25.7</ele><time>2015-04-24T19:01:03.0000000+00:00</time></trkpt><trkpt lat="35.0786066" lon="32.4834171"><ele>25.8</ele><time>2015-04-24T19:01:04.0000000+00:00</time></trkpt><trkpt lat="35.0786398" lon="32.4834552"><ele>25.4</ele><time>2015-04-24T19:01:05.0000000+00:00</time></trkpt><trkpt lat="35.0786716" lon="32.4835047"><ele>25.2</ele><time>2015-04-24T19:01:06.0000000+00:00</time></trkpt><trkpt lat="35.07871" lon="32.483546"><ele>25.0</ele><time>2015-04-24T19:01:07.0000000+00:00</time></trkpt><trkpt lat="35.0787572" lon="32.483584"><ele>25.0</ele><time>2015-04-24T19:01:08.0000000+00:00</time></trkpt><trkpt lat="35.0787922" lon="32.483621"><ele>25.5</ele><time>2015-04-24T19:01:09.0000000+00:00</time></trkpt><trkpt lat="35.0788272" lon="32.4836643"><ele>25.7</ele><time>2015-04-24T19:01:10.0000000+00:00</time></trkpt><trkpt lat="35.078875" lon="32.4836974"><ele>25.8</ele><time>2015-04-24T19:01:11.0000000+00:00</time></trkpt><trkpt lat="35.0789017" lon="32.4837475"><ele>25.4</ele><time>2015-04-24T19:01:12.0000000+00:00</time></trkpt><trkpt lat="35.078935" lon="32.4837928"><ele>25.2</ele><time>2015-04-24T19:01:13.0000000+00:00</time></trkpt><trkpt lat="35.0789654" lon="32.4838353"><ele>25.0</ele><time>2015-04-24T19:01:14.0000000+00:00</time></trkpt><trkpt lat="35.0790036" lon="32.4838727"><ele>25.0</ele><time>2015-04-24T19:01:15.0000000+00:00</time></trkpt><trkpt lat="35.0790402" lon="32.4839162"><ele>25.0</ele><time>2015-04-24T19:01:16.0000000+00:00</time></trkpt><trkpt lat="35.0791104" lon="32.4839751"><ele>24.9</ele><time>2015-04-24T19:01:18.0000000+00:00</time></trkpt><trkpt lat="35.0791454" lon="32.4840211"><ele>24.9</ele><time>2015-04-24T19:01:19.0000000+00:00</time></trkpt><trkpt lat="35.0791871" lon="32.4840602"><ele>24.4</ele><time>2015-04-24T19:01:20.0000000+00:00</time></trkpt><trkpt lat="35.0792475" lon="32.4841314"><ele>24.3</ele><time>2015-04-24T19:01:22.0000000+00:00</time></trkpt><trkpt lat="35.0792846" lon="32.4841683"><ele>23.6</ele><time>2015-04-24T19:01:23.0000000+00:00</time></trkpt><trkpt lat="35.0793231" lon="32.484214"><ele>23.8</ele><time>2015-04-24T19:01:24.0000000+00:00</time></trkpt><trkpt lat="35.0793627" lon="32.4842562"><ele>23.9</ele><time>2015-04-24T19:01:25.0000000+00:00</time></trkpt><trkpt lat="35.0794056" lon="32.4842913"><ele>23.9</ele><time>2015-04-24T19:01:26.0000000+00:00</time></trkpt><trkpt lat="35.0794401" lon="32.4843365"><ele>24.4</ele><time>2015-04-24T19:01:27.0000000+00:00</time></trkpt><trkpt lat="35.0794783" lon="32.4843726"><ele>24.2</ele><time>2015-04-24T19:01:28.0000000+00:00</time></trkpt><trkpt lat="35.0795177" lon="32.4844063"><ele>23.6</ele><time>2015-04-24T19:01:29.0000000+00:00</time></trkpt><trkpt lat="35.0795566" lon="32.4844509"><ele>23.2</ele><time>2015-04-24T19:01:30.0000000+00:00</time></trkpt><trkpt lat="35.0796001" lon="32.4844969"><ele>22.6</ele><time>2015-04-24T19:01:31.0000000+00:00</time></trkpt><trkpt lat="35.0796411" lon="32.4845435"><ele>22.8</ele><time>2015-04-24T19:01:32.0000000+00:00</time></trkpt><trkpt lat="35.0796817" lon="32.4845902"><ele>23.3</ele><time>2015-04-24T19:01:33.0000000+00:00</time></trkpt><trkpt lat="35.0797312" lon="32.4846281"><ele>24.6</ele><time>2015-04-24T19:01:34.0000000+00:00</time></trkpt><trkpt lat="35.079805" lon="32.4846963"><ele>25.6</ele><time>2015-04-24T19:01:36.0000000+00:00</time></trkpt><trkpt lat="35.07984" lon="32.4847428"><ele>25.3</ele><time>2015-04-24T19:01:37.0000000+00:00</time></trkpt><trkpt lat="35.0798816" lon="32.4847866"><ele>25.1</ele><time>2015-04-24T19:01:38.0000000+00:00</time></trkpt><trkpt lat="35.0799589" lon="32.4848685"><ele>25.0</ele><time>2015-04-24T19:01:40.0000000+00:00</time></trkpt><trkpt lat="35.0799917" lon="32.4849134"><ele>25.0</ele><time>2015-04-24T19:01:41.0000000+00:00</time></trkpt><trkpt lat="35.0800661" lon="32.4849887"><ele>24.9</ele><time>2015-04-24T19:01:43.0000000+00:00</time></trkpt><trkpt lat="35.0801095" lon="32.4850373"><ele>25.4</ele><time>2015-04-24T19:01:44.0000000+00:00</time></trkpt><trkpt lat="35.0801466" lon="32.4850725"><ele>25.7</ele><time>2015-04-24T19:01:45.0000000+00:00</time></trkpt><trkpt lat="35.080185" lon="32.4851031"><ele>25.8</ele><time>2015-04-24T19:01:46.0000000+00:00</time></trkpt><trkpt lat="35.0802236" lon="32.4851439"><ele>25.4</ele><time>2015-04-24T19:01:47.0000000+00:00</time></trkpt><trkpt lat="35.080263" lon="32.4851848"><ele>25.6</ele><time>2015-04-24T19:01:48.0000000+00:00</time></trkpt><trkpt lat="35.080308" lon="32.4852254"><ele>25.8</ele><time>2015-04-24T19:01:49.0000000+00:00</time></trkpt><trkpt lat="35.0803475" lon="32.4852693"><ele>25.9</ele><time>2015-04-24T19:01:50.0000000+00:00</time></trkpt><trkpt lat="35.0803903" lon="32.4853114"><ele>25.9</ele><time>2015-04-24T19:01:51.0000000+00:00</time></trkpt><trkpt lat="35.0804405" lon="32.4853501"><ele>25.9</ele><time>2015-04-24T19:01:52.0000000+00:00</time></trkpt><trkpt lat="35.0804846" lon="32.4853906"><ele>25.9</ele><time>2015-04-24T19:01:53.0000000+00:00</time></trkpt><trkpt lat="35.080532" lon="32.4854338"><ele>25.9</ele><time>2015-04-24T19:01:54.0000000+00:00</time></trkpt><trkpt lat="35.0805683" lon="32.4854752"><ele>25.9</ele><time>2015-04-24T19:01:55.0000000+00:00</time></trkpt><trkpt lat="35.0806174" lon="32.4855214"><ele>25.9</ele><time>2015-04-24T19:01:56.0000000+00:00</time></trkpt><trkpt lat="35.0806659" lon="32.4855659"><ele>25.9</ele><time>2015-04-24T19:01:57.0000000+00:00</time></trkpt><trkpt lat="35.0807138" lon="32.4856053"><ele>25.9</ele><time>2015-04-24T19:01:58.0000000+00:00</time></trkpt><trkpt lat="35.0807575" lon="32.4856415"><ele>25.4</ele><time>2015-04-24T19:01:59.0000000+00:00</time></trkpt><trkpt lat="35.0808022" lon="32.4856778"><ele>24.7</ele><time>2015-04-24T19:02:00.0000000+00:00</time></trkpt><trkpt lat="35.0808418" lon="32.4857153"><ele>24.3</ele><time>2015-04-24T19:02:01.0000000+00:00</time></trkpt><trkpt lat="35.0808864" lon="32.4857498"><ele>24.1</ele><time>2015-04-24T19:02:02.0000000+00:00</time></trkpt><trkpt lat="35.080928" lon="32.4857861"><ele>24.5</ele><time>2015-04-24T19:02:03.0000000+00:00</time></trkpt><trkpt lat="35.0809781" lon="32.4858232"><ele>24.7</ele><time>2015-04-24T19:02:04.0000000+00:00</time></trkpt><trkpt lat="35.0810209" lon="32.4858622"><ele>24.8</ele><time>2015-04-24T19:02:05.0000000+00:00</time></trkpt><trkpt lat="35.0810674" lon="32.4858935"><ele>25.4</ele><time>2015-04-24T19:02:06.0000000+00:00</time></trkpt><trkpt lat="35.0811051" lon="32.485932"><ele>25.2</ele><time>2015-04-24T19:02:07.0000000+00:00</time></trkpt><trkpt lat="35.0811514" lon="32.485977"><ele>25.0</ele><time>2015-04-24T19:02:08.0000000+00:00</time></trkpt><trkpt lat="35.0811936" lon="32.4860185"><ele>24.5</ele><time>2015-04-24T19:02:09.0000000+00:00</time></trkpt><trkpt lat="35.0812359" lon="32.4860604"><ele>24.2</ele><time>2015-04-24T19:02:10.0000000+00:00</time></trkpt><trkpt lat="35.081281" lon="32.4860968"><ele>24.1</ele><time>2015-04-24T19:02:11.0000000+00:00</time></trkpt><trkpt lat="35.0813201" lon="32.4861323"><ele>23.5</ele><time>2015-04-24T19:02:12.0000000+00:00</time></trkpt><trkpt lat="35.0813651" lon="32.4861625"><ele>24.2</ele><time>2015-04-24T19:02:13.0000000+00:00</time></trkpt><trkpt lat="35.0813991" lon="32.4862031"><ele>24.6</ele><time>2015-04-24T19:02:14.0000000+00:00</time></trkpt><trkpt lat="35.0814348" lon="32.4862375"><ele>24.3</ele><time>2015-04-24T19:02:15.0000000+00:00</time></trkpt><trkpt lat="35.0814723" lon="32.4862797"><ele>24.1</ele><time>2015-04-24T19:02:16.0000000+00:00</time></trkpt><trkpt lat="35.0815468" lon="32.4863379"><ele>24.7</ele><time>2015-04-24T19:02:18.0000000+00:00</time></trkpt><trkpt lat="35.0815825" lon="32.4863719"><ele>25.3</ele><time>2015-04-24T19:02:19.0000000+00:00</time></trkpt><trkpt lat="35.0816515" lon="32.4864368"><ele>24.5</ele><time>2015-04-24T19:02:21.0000000+00:00</time></trkpt><trkpt lat="35.0816922" lon="32.4864684"><ele>24.2</ele><time>2015-04-24T19:02:22.0000000+00:00</time></trkpt><trkpt lat="35.081735" lon="32.4865076"><ele>24.6</ele><time>2015-04-24T19:02:23.0000000+00:00</time></trkpt><trkpt lat="35.0817834" lon="32.4865493"><ele>24.3</ele><time>2015-04-24T19:02:24.0000000+00:00</time></trkpt><trkpt lat="35.08183" lon="32.4865961"><ele>24.1</ele><time>2015-04-24T19:02:25.0000000+00:00</time></trkpt><trkpt lat="35.0818868" lon="32.4866431"><ele>24.5</ele><time>2015-04-24T19:02:26.0000000+00:00</time></trkpt><trkpt lat="35.0819301" lon="32.4866837"><ele>24.7</ele><time>2015-04-24T19:02:27.0000000+00:00</time></trkpt><trkpt lat="35.0819795" lon="32.4867191"><ele>24.8</ele><time>2015-04-24T19:02:28.0000000+00:00</time></trkpt><trkpt lat="35.0820153" lon="32.4867614"><ele>24.4</ele><time>2015-04-24T19:02:29.0000000+00:00</time></trkpt><trkpt lat="35.0820574" lon="32.4867963"><ele>24.2</ele><time>2015-04-24T19:02:30.0000000+00:00</time></trkpt><trkpt lat="35.0820962" lon="32.4868281"><ele>24.0</ele><time>2015-04-24T19:02:31.0000000+00:00</time></trkpt><trkpt lat="35.082133" lon="32.48687"><ele>24.0</ele><time>2015-04-24T19:02:32.0000000+00:00</time></trkpt><trkpt lat="35.0821763" lon="32.486912"><ele>24.0</ele><time>2015-04-24T19:02:33.0000000+00:00</time></trkpt><trkpt lat="35.0822163" lon="32.4869481"><ele>23.9</ele><time>2015-04-24T19:02:34.0000000+00:00</time></trkpt><trkpt lat="35.0822558" lon="32.486988"><ele>23.9</ele><time>2015-04-24T19:02:35.0000000+00:00</time></trkpt><trkpt lat="35.0822957" lon="32.4870331"><ele>24.4</ele><time>2015-04-24T19:02:36.0000000+00:00</time></trkpt><trkpt lat="35.08234" lon="32.4870725"><ele>24.7</ele><time>2015-04-24T19:02:37.0000000+00:00</time></trkpt><trkpt lat="35.0823852" lon="32.487121"><ele>24.8</ele><time>2015-04-24T19:02:38.0000000+00:00</time></trkpt><trkpt lat="35.0824287" lon="32.4871561"><ele>24.9</ele><time>2015-04-24T19:02:39.0000000+00:00</time></trkpt><trkpt lat="35.0824752" lon="32.4872003"><ele>24.9</ele><time>2015-04-24T19:02:40.0000000+00:00</time></trkpt><trkpt lat="35.0825188" lon="32.4872382"><ele>25.4</ele><time>2015-04-24T19:02:41.0000000+00:00</time></trkpt><trkpt lat="35.0825651" lon="32.4872663"><ele>25.7</ele><time>2015-04-24T19:02:42.0000000+00:00</time></trkpt><trkpt lat="35.0826362" lon="32.4873276"><ele>26.4</ele><time>2015-04-24T19:02:44.0000000+00:00</time></trkpt><trkpt lat="35.0826772" lon="32.4873671"><ele>26.6</ele><time>2015-04-24T19:02:45.0000000+00:00</time></trkpt><trkpt lat="35.0827127" lon="32.4874035"><ele>26.8</ele><time>2015-04-24T19:02:46.0000000+00:00</time></trkpt><trkpt lat="35.0827496" lon="32.4874382"><ele>26.9</ele><time>2015-04-24T19:02:47.0000000+00:00</time></trkpt><trkpt lat="35.0827917" lon="32.4874803"><ele>26.9</ele><time>2015-04-24T19:02:48.0000000+00:00</time></trkpt><trkpt lat="35.0828334" lon="32.4875146"><ele>27.9</ele><time>2015-04-24T19:02:49.0000000+00:00</time></trkpt><trkpt lat="35.0828745" lon="32.4875497"><ele>28.4</ele><time>2015-04-24T19:02:50.0000000+00:00</time></trkpt><trkpt lat="35.0829149" lon="32.4875858"><ele>28.7</ele><time>2015-04-24T19:02:51.0000000+00:00</time></trkpt><trkpt lat="35.0829594" lon="32.4876151"><ele>28.8</ele><time>2015-04-24T19:02:52.0000000+00:00</time></trkpt><trkpt lat="35.0830057" lon="32.4876462"><ele>29.9</ele><time>2015-04-24T19:02:53.0000000+00:00</time></trkpt><trkpt lat="35.0830462" lon="32.4876809"><ele>30.4</ele><time>2015-04-24T19:02:54.0000000+00:00</time></trkpt><trkpt lat="35.0830836" lon="32.487713"><ele>30.2</ele><time>2015-04-24T19:02:55.0000000+00:00</time></trkpt><trkpt lat="35.0831282" lon="32.4877499"><ele>30.5</ele><time>2015-04-24T19:02:56.0000000+00:00</time></trkpt><trkpt lat="35.0831947" lon="32.4878168"><ele>30.1</ele><time>2015-04-24T19:02:58.0000000+00:00</time></trkpt><trkpt lat="35.0832347" lon="32.4878469"><ele>30.5</ele><time>2015-04-24T19:02:59.0000000+00:00</time></trkpt><trkpt lat="35.0832758" lon="32.4878768"><ele>31.2</ele><time>2015-04-24T19:03:00.0000000+00:00</time></trkpt><trkpt lat="35.083313" lon="32.4879148"><ele>31.1</ele><time>2015-04-24T19:03:01.0000000+00:00</time></trkpt><trkpt lat="35.083355" lon="32.4879448"><ele>31.0</ele><time>2015-04-24T19:03:02.0000000+00:00</time></trkpt><trkpt lat="35.0833923" lon="32.4879801"><ele>31.0</ele><time>2015-04-24T19:03:03.0000000+00:00</time></trkpt><trkpt lat="35.0834435" lon="32.4880118"><ele>31.9</ele><time>2015-04-24T19:03:04.0000000+00:00</time></trkpt><trkpt lat="35.0834898" lon="32.4880466"><ele>32.4</ele><time>2015-04-24T19:03:05.0000000+00:00</time></trkpt><trkpt lat="35.0835322" lon="32.4880759"><ele>32.7</ele><time>2015-04-24T19:03:06.0000000+00:00</time></trkpt><trkpt lat="35.0836125" lon="32.4881335"><ele>32.9</ele><time>2015-04-24T19:03:08.0000000+00:00</time></trkpt><trkpt lat="35.0836501" lon="32.4881639"><ele>32.9</ele><time>2015-04-24T19:03:09.0000000+00:00</time></trkpt><trkpt lat="35.0836956" lon="32.4881858"><ele>32.9</ele><time>2015-04-24T19:03:10.0000000+00:00</time></trkpt><trkpt lat="35.0837392" lon="32.4882152"><ele>33.4</ele><time>2015-04-24T19:03:11.0000000+00:00</time></trkpt><trkpt lat="35.0837849" lon="32.4882452"><ele>33.2</ele><time>2015-04-24T19:03:12.0000000+00:00</time></trkpt><trkpt lat="35.0838253" lon="32.4882764"><ele>33.1</ele><time>2015-04-24T19:03:13.0000000+00:00</time></trkpt><trkpt lat="35.0838768" lon="32.4883375"><ele>32.5</ele><time>2015-04-24T19:03:15.0000000+00:00</time></trkpt><trkpt lat="35.0839551" lon="32.4884036"><ele>32.1</ele><time>2015-04-24T19:03:17.0000000+00:00</time></trkpt><trkpt lat="35.0840094" lon="32.4884304"><ele>32.0</ele><time>2015-04-24T19:03:18.0000000+00:00</time></trkpt><trkpt lat="35.0840414" lon="32.4884704"><ele>32.0</ele><time>2015-04-24T19:03:19.0000000+00:00</time></trkpt><trkpt lat="35.0840888" lon="32.4885062"><ele>31.9</ele><time>2015-04-24T19:03:20.0000000+00:00</time></trkpt><trkpt lat="35.0841277" lon="32.4885446"><ele>31.4</ele><time>2015-04-24T19:03:21.0000000+00:00</time></trkpt><trkpt lat="35.0841606" lon="32.4885852"><ele>31.2</ele><time>2015-04-24T19:03:22.0000000+00:00</time></trkpt><trkpt lat="35.0842067" lon="32.4886139"><ele>30.6</ele><time>2015-04-24T19:03:23.0000000+00:00</time></trkpt><trkpt lat="35.0842573" lon="32.4886497"><ele>29.7</ele><time>2015-04-24T19:03:24.0000000+00:00</time></trkpt><trkpt lat="35.084303" lon="32.4886763"><ele>29.8</ele><time>2015-04-24T19:03:25.0000000+00:00</time></trkpt><trkpt lat="35.084342" lon="32.4887088"><ele>29.9</ele><time>2015-04-24T19:03:26.0000000+00:00</time></trkpt><trkpt lat="35.0843883" lon="32.4887408"><ele>29.9</ele><time>2015-04-24T19:03:27.0000000+00:00</time></trkpt><trkpt lat="35.0844384" lon="32.4887889"><ele>29.9</ele><time>2015-04-24T19:03:28.0000000+00:00</time></trkpt><trkpt lat="35.0844815" lon="32.4888313"><ele>29.4</ele><time>2015-04-24T19:03:29.0000000+00:00</time></trkpt><trkpt lat="35.0845279" lon="32.4888685"><ele>29.7</ele><time>2015-04-24T19:03:30.0000000+00:00</time></trkpt><trkpt lat="35.0845714" lon="32.4889028"><ele>29.8</ele><time>2015-04-24T19:03:31.0000000+00:00</time></trkpt><trkpt lat="35.0846194" lon="32.4889297"><ele>29.4</ele><time>2015-04-24T19:03:32.0000000+00:00</time></trkpt><trkpt lat="35.0846655" lon="32.488958"><ele>29.1</ele><time>2015-04-24T19:03:33.0000000+00:00</time></trkpt><trkpt lat="35.0847066" lon="32.4889891"><ele>29.5</ele><time>2015-04-24T19:03:34.0000000+00:00</time></trkpt><trkpt lat="35.0847534" lon="32.4890353"><ele>29.7</ele><time>2015-04-24T19:03:35.0000000+00:00</time></trkpt><trkpt lat="35.0847948" lon="32.4890792"><ele>29.8</ele><time>2015-04-24T19:03:36.0000000+00:00</time></trkpt><trkpt lat="35.0848308" lon="32.4891213"><ele>29.9</ele><time>2015-04-24T19:03:37.0000000+00:00</time></trkpt><trkpt lat="35.0848725" lon="32.4891636"><ele>29.4</ele><time>2015-04-24T19:03:38.0000000+00:00</time></trkpt><trkpt lat="35.0849099" lon="32.489202"><ele>29.2</ele><time>2015-04-24T19:03:39.0000000+00:00</time></trkpt><trkpt lat="35.0849482" lon="32.4892465"><ele>28.5</ele><time>2015-04-24T19:03:40.0000000+00:00</time></trkpt><trkpt lat="35.0849911" lon="32.4892766"><ele>28.7</ele><time>2015-04-24T19:03:41.0000000+00:00</time></trkpt><trkpt lat="35.0850408" lon="32.489312"><ele>28.8</ele><time>2015-04-24T19:03:42.0000000+00:00</time></trkpt><trkpt lat="35.0850654" lon="32.4893597"><ele>28.4</ele><time>2015-04-24T19:03:43.0000000+00:00</time></trkpt><trkpt lat="35.0851034" lon="32.4894042"><ele>28.2</ele><time>2015-04-24T19:03:44.0000000+00:00</time></trkpt><trkpt lat="35.085154" lon="32.4894535"><ele>28.0</ele><time>2015-04-24T19:03:45.0000000+00:00</time></trkpt><trkpt lat="35.0852049" lon="32.4894904"><ele>28.0</ele><time>2015-04-24T19:03:46.0000000+00:00</time></trkpt><trkpt lat="35.0852572" lon="32.4895239"><ele>28.0</ele><time>2015-04-24T19:03:47.0000000+00:00</time></trkpt><trkpt lat="35.0853091" lon="32.4895733"><ele>27.9</ele><time>2015-04-24T19:03:48.0000000+00:00</time></trkpt><trkpt lat="35.085351" lon="32.4896101"><ele>27.4</ele><time>2015-04-24T19:03:49.0000000+00:00</time></trkpt><trkpt lat="35.085397" lon="32.4896566"><ele>27.7</ele><time>2015-04-24T19:03:50.0000000+00:00</time></trkpt><trkpt lat="35.085439" lon="32.4896916"><ele>27.8</ele><time>2015-04-24T19:03:51.0000000+00:00</time></trkpt><trkpt lat="35.0854914" lon="32.4897412"><ele>27.9</ele><time>2015-04-24T19:03:52.0000000+00:00</time></trkpt><trkpt lat="35.085556" lon="32.48982"><ele>26.7</ele><time>2015-04-24T19:03:54.0000000+00:00</time></trkpt><trkpt lat="35.085597" lon="32.4898475"><ele>26.3</ele><time>2015-04-24T19:03:55.0000000+00:00</time></trkpt><trkpt lat="35.085646" lon="32.4898891"><ele>27.1</ele><time>2015-04-24T19:03:56.0000000+00:00</time></trkpt><trkpt lat="35.0856918" lon="32.4899252"><ele>27.5</ele><time>2015-04-24T19:03:57.0000000+00:00</time></trkpt><trkpt lat="35.0857408" lon="32.4899642"><ele>27.7</ele><time>2015-04-24T19:03:58.0000000+00:00</time></trkpt><trkpt lat="35.0857803" lon="32.4900086"><ele>27.8</ele><time>2015-04-24T19:03:59.0000000+00:00</time></trkpt><trkpt lat="35.0858148" lon="32.4900476"><ele>27.9</ele><time>2015-04-24T19:04:00.0000000+00:00</time></trkpt><trkpt lat="35.0858635" lon="32.490082"><ele>28.4</ele><time>2015-04-24T19:04:01.0000000+00:00</time></trkpt><trkpt lat="35.0859094" lon="32.4901255"><ele>28.7</ele><time>2015-04-24T19:04:02.0000000+00:00</time></trkpt><trkpt lat="35.0859538" lon="32.4901699"><ele>28.8</ele><time>2015-04-24T19:04:03.0000000+00:00</time></trkpt><trkpt lat="35.0859982" lon="32.4902166"><ele>28.9</ele><time>2015-04-24T19:04:04.0000000+00:00</time></trkpt><trkpt lat="35.0860386" lon="32.4902635"><ele>29.4</ele><time>2015-04-24T19:04:05.0000000+00:00</time></trkpt><trkpt lat="35.0860812" lon="32.4903149"><ele>29.2</ele><time>2015-04-24T19:04:06.0000000+00:00</time></trkpt><trkpt lat="35.0861236" lon="32.490357"><ele>29.0</ele><time>2015-04-24T19:04:07.0000000+00:00</time></trkpt><trkpt lat="35.0861681" lon="32.4904019"><ele>29.0</ele><time>2015-04-24T19:04:08.0000000+00:00</time></trkpt><trkpt lat="35.0862162" lon="32.490438"><ele>28.5</ele><time>2015-04-24T19:04:09.0000000+00:00</time></trkpt><trkpt lat="35.0862647" lon="32.49048"><ele>28.2</ele><time>2015-04-24T19:04:10.0000000+00:00</time></trkpt><trkpt lat="35.0863032" lon="32.4905207"><ele>28.1</ele><time>2015-04-24T19:04:11.0000000+00:00</time></trkpt><trkpt lat="35.0863531" lon="32.4905509"><ele>28.0</ele><time>2015-04-24T19:04:12.0000000+00:00</time></trkpt><trkpt lat="35.0864007" lon="32.4905949"><ele>28.0</ele><time>2015-04-24T19:04:13.0000000+00:00</time></trkpt><trkpt lat="35.0864421" lon="32.4906349"><ele>27.9</ele><time>2015-04-24T19:04:14.0000000+00:00</time></trkpt><trkpt lat="35.086489" lon="32.4906802"><ele>27.9</ele><time>2015-04-24T19:04:15.0000000+00:00</time></trkpt><trkpt lat="35.0865334" lon="32.4907224"><ele>27.9</ele><time>2015-04-24T19:04:16.0000000+00:00</time></trkpt><trkpt lat="35.0865811" lon="32.4907573"><ele>27.9</ele><time>2015-04-24T19:04:17.0000000+00:00</time></trkpt><trkpt lat="35.0866255" lon="32.4907915"><ele>28.4</ele><time>2015-04-24T19:04:18.0000000+00:00</time></trkpt><trkpt lat="35.0866745" lon="32.4908212"><ele>28.2</ele><time>2015-04-24T19:04:19.0000000+00:00</time></trkpt><trkpt lat="35.0867265" lon="32.4908592"><ele>28.1</ele><time>2015-04-24T19:04:20.0000000+00:00</time></trkpt><trkpt lat="35.0867822" lon="32.4908795"><ele>28.5</ele><time>2015-04-24T19:04:21.0000000+00:00</time></trkpt><trkpt lat="35.0868287" lon="32.49092"><ele>28.7</ele><time>2015-04-24T19:04:22.0000000+00:00</time></trkpt><trkpt lat="35.086918" lon="32.4909914"><ele>28.1</ele><time>2015-04-24T19:04:24.0000000+00:00</time></trkpt><trkpt lat="35.0869656" lon="32.4910337"><ele>28.0</ele><time>2015-04-24T19:04:25.0000000+00:00</time></trkpt><trkpt lat="35.0870179" lon="32.491077"><ele>28.0</ele><time>2015-04-24T19:04:26.0000000+00:00</time></trkpt><trkpt lat="35.0870678" lon="32.4911142"><ele>28.0</ele><time>2015-04-24T19:04:27.0000000+00:00</time></trkpt><trkpt lat="35.0871268" lon="32.4911493"><ele>27.9</ele><time>2015-04-24T19:04:28.0000000+00:00</time></trkpt><trkpt lat="35.0871789" lon="32.4911848"><ele>27.9</ele><time>2015-04-24T19:04:29.0000000+00:00</time></trkpt><trkpt lat="35.0872273" lon="32.4912196"><ele>27.9</ele><time>2015-04-24T19:04:30.0000000+00:00</time></trkpt><trkpt lat="35.0872806" lon="32.4912547"><ele>27.4</ele><time>2015-04-24T19:04:31.0000000+00:00</time></trkpt><trkpt lat="35.0873349" lon="32.4912812"><ele>27.2</ele><time>2015-04-24T19:04:32.0000000+00:00</time></trkpt><trkpt lat="35.0873884" lon="32.4913179"><ele>27.6</ele><time>2015-04-24T19:04:33.0000000+00:00</time></trkpt><trkpt lat="35.0874339" lon="32.4913568"><ele>27.7</ele><time>2015-04-24T19:04:34.0000000+00:00</time></trkpt><trkpt lat="35.087478" lon="32.4913991"><ele>27.3</ele><time>2015-04-24T19:04:35.0000000+00:00</time></trkpt><trkpt lat="35.0875286" lon="32.4914388"><ele>27.1</ele><time>2015-04-24T19:04:36.0000000+00:00</time></trkpt><trkpt lat="35.0875784" lon="32.4914716"><ele>27.0</ele><time>2015-04-24T19:04:37.0000000+00:00</time></trkpt><trkpt lat="35.0876225" lon="32.4914995"><ele>27.0</ele><time>2015-04-24T19:04:38.0000000+00:00</time></trkpt><trkpt lat="35.0876651" lon="32.4915366"><ele>27.5</ele><time>2015-04-24T19:04:39.0000000+00:00</time></trkpt><trkpt lat="35.0877119" lon="32.4915693"><ele>27.2</ele><time>2015-04-24T19:04:40.0000000+00:00</time></trkpt><trkpt lat="35.0877925" lon="32.4916366"><ele>26.7</ele><time>2015-04-24T19:04:42.0000000+00:00</time></trkpt><trkpt lat="35.08784" lon="32.491661"><ele>26.8</ele><time>2015-04-24T19:04:43.0000000+00:00</time></trkpt><trkpt lat="35.0878846" lon="32.4917019"><ele>26.4</ele><time>2015-04-24T19:04:44.0000000+00:00</time></trkpt><trkpt lat="35.0879336" lon="32.4917352"><ele>26.2</ele><time>2015-04-24T19:04:45.0000000+00:00</time></trkpt><trkpt lat="35.0879713" lon="32.4917702"><ele>26.0</ele><time>2015-04-24T19:04:46.0000000+00:00</time></trkpt><trkpt lat="35.0880231" lon="32.4917994"><ele>26.0</ele><time>2015-04-24T19:04:47.0000000+00:00</time></trkpt><trkpt lat="35.0880727" lon="32.4918412"><ele>26.0</ele><time>2015-04-24T19:04:48.0000000+00:00</time></trkpt><trkpt lat="35.0881274" lon="32.4918682"><ele>25.9</ele><time>2015-04-24T19:04:49.0000000+00:00</time></trkpt><trkpt lat="35.0881749" lon="32.4919016"><ele>25.9</ele><time>2015-04-24T19:04:50.0000000+00:00</time></trkpt><trkpt lat="35.0882214" lon="32.4919401"><ele>25.9</ele><time>2015-04-24T19:04:51.0000000+00:00</time></trkpt><trkpt lat="35.0882714" lon="32.491974"><ele>25.9</ele><time>2015-04-24T19:04:52.0000000+00:00</time></trkpt><trkpt lat="35.0883179" lon="32.4920112"><ele>26.4</ele><time>2015-04-24T19:04:53.0000000+00:00</time></trkpt><trkpt lat="35.0883685" lon="32.4920477"><ele>26.7</ele><time>2015-04-24T19:04:54.0000000+00:00</time></trkpt><trkpt lat="35.0884422" lon="32.4921168"><ele>26.9</ele><time>2015-04-24T19:04:56.0000000+00:00</time></trkpt><trkpt lat="35.0884892" lon="32.4921457"><ele>26.4</ele><time>2015-04-24T19:04:57.0000000+00:00</time></trkpt><trkpt lat="35.0885282" lon="32.4921804"><ele>26.7</ele><time>2015-04-24T19:04:58.0000000+00:00</time></trkpt><trkpt lat="35.0886102" lon="32.492256"><ele>26.9</ele><time>2015-04-24T19:05:00.0000000+00:00</time></trkpt><trkpt lat="35.0886577" lon="32.4922906"><ele>26.9</ele><time>2015-04-24T19:05:01.0000000+00:00</time></trkpt><trkpt lat="35.088702" lon="32.4923163"><ele>26.9</ele><time>2015-04-24T19:05:02.0000000+00:00</time></trkpt><trkpt lat="35.0887623" lon="32.4923769"><ele>26.2</ele><time>2015-04-24T19:05:04.0000000+00:00</time></trkpt><trkpt lat="35.0888031" lon="32.4924128"><ele>26.1</ele><time>2015-04-24T19:05:05.0000000+00:00</time></trkpt><trkpt lat="35.088875" lon="32.4924849"><ele>26.7</ele><time>2015-04-24T19:05:07.0000000+00:00</time></trkpt><trkpt lat="35.0889164" lon="32.4925301"><ele>26.8</ele><time>2015-04-24T19:05:08.0000000+00:00</time></trkpt><trkpt lat="35.0889649" lon="32.4925615"><ele>26.9</ele><time>2015-04-24T19:05:09.0000000+00:00</time></trkpt><trkpt lat="35.0890127" lon="32.4926109"><ele>26.9</ele><time>2015-04-24T19:05:10.0000000+00:00</time></trkpt><trkpt lat="35.0890607" lon="32.4926454"><ele>27.4</ele><time>2015-04-24T19:05:11.0000000+00:00</time></trkpt><trkpt lat="35.0891066" lon="32.4926835"><ele>27.2</ele><time>2015-04-24T19:05:12.0000000+00:00</time></trkpt><trkpt lat="35.0891494" lon="32.4927206"><ele>27.1</ele><time>2015-04-24T19:05:13.0000000+00:00</time></trkpt><trkpt lat="35.0891958" lon="32.4927478"><ele>26.5</ele><time>2015-04-24T19:05:14.0000000+00:00</time></trkpt><trkpt lat="35.0892651" lon="32.492829"><ele>26.1</ele><time>2015-04-24T19:05:16.0000000+00:00</time></trkpt><trkpt lat="35.089298" lon="32.492872"><ele>27.0</ele><time>2015-04-24T19:05:17.0000000+00:00</time></trkpt><trkpt lat="35.0893349" lon="32.492907"><ele>28.0</ele><time>2015-04-24T19:05:18.0000000+00:00</time></trkpt><trkpt lat="35.0893803" lon="32.4929405"><ele>28.9</ele><time>2015-04-24T19:05:19.0000000+00:00</time></trkpt><trkpt lat="35.089416" lon="32.4929827"><ele>28.9</ele><time>2015-04-24T19:05:20.0000000+00:00</time></trkpt><trkpt lat="35.0894602" lon="32.4930255"><ele>28.9</ele><time>2015-04-24T19:05:21.0000000+00:00</time></trkpt><trkpt lat="35.0895075" lon="32.4930643"><ele>28.9</ele><time>2015-04-24T19:05:22.0000000+00:00</time></trkpt><trkpt lat="35.0895521" lon="32.493102"><ele>28.9</ele><time>2015-04-24T19:05:23.0000000+00:00</time></trkpt><trkpt lat="35.0896026" lon="32.4931274"><ele>29.4</ele><time>2015-04-24T19:05:24.0000000+00:00</time></trkpt><trkpt lat="35.0896415" lon="32.4931611"><ele>30.2</ele><time>2015-04-24T19:05:25.0000000+00:00</time></trkpt><trkpt lat="35.0896862" lon="32.4931878"><ele>30.6</ele><time>2015-04-24T19:05:26.0000000+00:00</time></trkpt><trkpt lat="35.0897302" lon="32.4932231"><ele>30.7</ele><time>2015-04-24T19:05:27.0000000+00:00</time></trkpt><trkpt lat="35.0897704" lon="32.4932649"><ele>30.8</ele><time>2015-04-24T19:05:28.0000000+00:00</time></trkpt><trkpt lat="35.0898124" lon="32.4933047"><ele>30.4</ele><time>2015-04-24T19:05:29.0000000+00:00</time></trkpt><trkpt lat="35.0898551" lon="32.4933324"><ele>30.7</ele><time>2015-04-24T19:05:30.0000000+00:00</time></trkpt><trkpt lat="35.0898942" lon="32.4933695"><ele>30.8</ele><time>2015-04-24T19:05:31.0000000+00:00</time></trkpt><trkpt lat="35.0899352" lon="32.4934063"><ele>30.4</ele><time>2015-04-24T19:05:32.0000000+00:00</time></trkpt><trkpt lat="35.0899834" lon="32.4934457"><ele>30.1</ele><time>2015-04-24T19:05:33.0000000+00:00</time></trkpt><trkpt lat="35.0900186" lon="32.4934909"><ele>30.5</ele><time>2015-04-24T19:05:34.0000000+00:00</time></trkpt><trkpt lat="35.090066" lon="32.4935313"><ele>30.7</ele><time>2015-04-24T19:05:35.0000000+00:00</time></trkpt><trkpt lat="35.0901107" lon="32.4935735"><ele>30.8</ele><time>2015-04-24T19:05:36.0000000+00:00</time></trkpt><trkpt lat="35.0901534" lon="32.4936254"><ele>31.4</ele><time>2015-04-24T19:05:37.0000000+00:00</time></trkpt><trkpt lat="35.0901968" lon="32.4936724"><ele>31.2</ele><time>2015-04-24T19:05:38.0000000+00:00</time></trkpt><trkpt lat="35.0902353" lon="32.4937147"><ele>31.0</ele><time>2015-04-24T19:05:39.0000000+00:00</time></trkpt><trkpt lat="35.0902835" lon="32.4937546"><ele>31.0</ele><time>2015-04-24T19:05:40.0000000+00:00</time></trkpt><trkpt lat="35.0903286" lon="32.4937924"><ele>31.0</ele><time>2015-04-24T19:05:41.0000000+00:00</time></trkpt><trkpt lat="35.0903722" lon="32.4938335"><ele>30.9</ele><time>2015-04-24T19:05:42.0000000+00:00</time></trkpt><trkpt lat="35.0904178" lon="32.4938713"><ele>30.4</ele><time>2015-04-24T19:05:43.0000000+00:00</time></trkpt><trkpt lat="35.0904649" lon="32.4939131"><ele>30.2</ele><time>2015-04-24T19:05:44.0000000+00:00</time></trkpt><trkpt lat="35.0905375" lon="32.4939931"><ele>30.0</ele><time>2015-04-24T19:05:46.0000000+00:00</time></trkpt><trkpt lat="35.0905783" lon="32.4940401"><ele>29.5</ele><time>2015-04-24T19:05:47.0000000+00:00</time></trkpt><trkpt lat="35.090621" lon="32.4940809"><ele>29.2</ele><time>2015-04-24T19:05:48.0000000+00:00</time></trkpt><trkpt lat="35.0906577" lon="32.4941252"><ele>28.6</ele><time>2015-04-24T19:05:49.0000000+00:00</time></trkpt><trkpt lat="35.0906975" lon="32.4941632"><ele>28.2</ele><time>2015-04-24T19:05:50.0000000+00:00</time></trkpt><trkpt lat="35.0907406" lon="32.4942"><ele>28.1</ele><time>2015-04-24T19:05:51.0000000+00:00</time></trkpt><trkpt lat="35.0907839" lon="32.4942392"><ele>28.0</ele><time>2015-04-24T19:05:52.0000000+00:00</time></trkpt><trkpt lat="35.0908354" lon="32.4942848"><ele>28.0</ele><time>2015-04-24T19:05:53.0000000+00:00</time></trkpt><trkpt lat="35.0908797" lon="32.4943264"><ele>27.9</ele><time>2015-04-24T19:05:54.0000000+00:00</time></trkpt><trkpt lat="35.0909314" lon="32.4943635"><ele>27.4</ele><time>2015-04-24T19:05:55.0000000+00:00</time></trkpt><trkpt lat="35.0909785" lon="32.4944074"><ele>27.7</ele><time>2015-04-24T19:05:56.0000000+00:00</time></trkpt><trkpt lat="35.0910252" lon="32.4944565"><ele>27.3</ele><time>2015-04-24T19:05:57.0000000+00:00</time></trkpt><trkpt lat="35.0910721" lon="32.4945002"><ele>27.1</ele><time>2015-04-24T19:05:58.0000000+00:00</time></trkpt><trkpt lat="35.0911126" lon="32.4945399"><ele>27.5</ele><time>2015-04-24T19:05:59.0000000+00:00</time></trkpt><trkpt lat="35.0911587" lon="32.4945813"><ele>27.7</ele><time>2015-04-24T19:06:00.0000000+00:00</time></trkpt><trkpt lat="35.0911947" lon="32.4946178"><ele>27.3</ele><time>2015-04-24T19:06:01.0000000+00:00</time></trkpt><trkpt lat="35.0912374" lon="32.4946604"><ele>27.1</ele><time>2015-04-24T19:06:02.0000000+00:00</time></trkpt><trkpt lat="35.0912761" lon="32.4946948"><ele>27.0</ele><time>2015-04-24T19:06:03.0000000+00:00</time></trkpt><trkpt lat="35.0913182" lon="32.4947326"><ele>27.0</ele><time>2015-04-24T19:06:04.0000000+00:00</time></trkpt><trkpt lat="35.0913514" lon="32.4947703"><ele>26.5</ele><time>2015-04-24T19:06:05.0000000+00:00</time></trkpt><trkpt lat="35.09139" lon="32.494805"><ele>26.2</ele><time>2015-04-24T19:06:06.0000000+00:00</time></trkpt><trkpt lat="35.0914496" lon="32.494872"><ele>24.5</ele><time>2015-04-24T19:06:08.0000000+00:00</time></trkpt><trkpt lat="35.0915121" lon="32.4949188"><ele>24.1</ele><time>2015-04-24T19:06:10.0000000+00:00</time></trkpt><trkpt lat="35.0915719" lon="32.4949737"><ele>24.0</ele><time>2015-04-24T19:06:12.0000000+00:00</time></trkpt><trkpt lat="35.0916241" lon="32.4950278"><ele>23.2</ele><time>2015-04-24T19:06:14.0000000+00:00</time></trkpt><trkpt lat="35.09166" lon="32.4950624"><ele>23.1</ele><time>2015-04-24T19:06:15.0000000+00:00</time></trkpt><trkpt lat="35.0917304" lon="32.4951204"><ele>23.0</ele><time>2015-04-24T19:06:17.0000000+00:00</time></trkpt><trkpt lat="35.0918049" lon="32.4951939"><ele>22.9</ele><time>2015-04-24T19:06:19.0000000+00:00</time></trkpt><trkpt lat="35.0918448" lon="32.4952304"><ele>22.9</ele><time>2015-04-24T19:06:20.0000000+00:00</time></trkpt><trkpt lat="35.0918907" lon="32.4952561"><ele>22.4</ele><time>2015-04-24T19:06:21.0000000+00:00</time></trkpt><trkpt lat="35.0919303" lon="32.4952897"><ele>22.2</ele><time>2015-04-24T19:06:22.0000000+00:00</time></trkpt><trkpt lat="35.0920011" lon="32.4953522"><ele>22.0</ele><time>2015-04-24T19:06:24.0000000+00:00</time></trkpt><trkpt lat="35.0920673" lon="32.4954113"><ele>21.9</ele><time>2015-04-24T19:06:26.0000000+00:00</time></trkpt><trkpt lat="35.0921337" lon="32.4954728"><ele>21.9</ele><time>2015-04-24T19:06:28.0000000+00:00</time></trkpt><trkpt lat="35.0921774" lon="32.4955085"><ele>21.9</ele><time>2015-04-24T19:06:29.0000000+00:00</time></trkpt><trkpt lat="35.092218" lon="32.4955429"><ele>21.9</ele><time>2015-04-24T19:06:30.0000000+00:00</time></trkpt><trkpt lat="35.0922589" lon="32.4955724"><ele>21.9</ele><time>2015-04-24T19:06:31.0000000+00:00</time></trkpt><trkpt lat="35.0923025" lon="32.4956095"><ele>21.9</ele><time>2015-04-24T19:06:32.0000000+00:00</time></trkpt><trkpt lat="35.0923518" lon="32.4956445"><ele>22.4</ele><time>2015-04-24T19:06:33.0000000+00:00</time></trkpt><trkpt lat="35.0923966" lon="32.4956806"><ele>22.7</ele><time>2015-04-24T19:06:34.0000000+00:00</time></trkpt><trkpt lat="35.092452" lon="32.4957186"><ele>22.8</ele><time>2015-04-24T19:06:35.0000000+00:00</time></trkpt><trkpt lat="35.0924998" lon="32.4957561"><ele>22.9</ele><time>2015-04-24T19:06:36.0000000+00:00</time></trkpt><trkpt lat="35.0925439" lon="32.4957869"><ele>22.9</ele><time>2015-04-24T19:06:37.0000000+00:00</time></trkpt><trkpt lat="35.092585" lon="32.4958244"><ele>22.9</ele><time>2015-04-24T19:06:38.0000000+00:00</time></trkpt><trkpt lat="35.0926626" lon="32.4958907"><ele>22.2</ele><time>2015-04-24T19:06:40.0000000+00:00</time></trkpt><trkpt lat="35.0927049" lon="32.4959216"><ele>22.1</ele><time>2015-04-24T19:06:41.0000000+00:00</time></trkpt><trkpt lat="35.0927495" lon="32.4959548"><ele>22.0</ele><time>2015-04-24T19:06:42.0000000+00:00</time></trkpt><trkpt lat="35.0927857" lon="32.4959961"><ele>22.0</ele><time>2015-04-24T19:06:43.0000000+00:00</time></trkpt><trkpt lat="35.0928271" lon="32.4960326"><ele>21.9</ele><time>2015-04-24T19:06:44.0000000+00:00</time></trkpt><trkpt lat="35.0928683" lon="32.4960694"><ele>21.9</ele><time>2015-04-24T19:06:45.0000000+00:00</time></trkpt><trkpt lat="35.0929098" lon="32.4961054"><ele>21.9</ele><time>2015-04-24T19:06:46.0000000+00:00</time></trkpt><trkpt lat="35.0929531" lon="32.4961449"><ele>21.4</ele><time>2015-04-24T19:06:47.0000000+00:00</time></trkpt><trkpt lat="35.0929987" lon="32.4961836"><ele>21.2</ele><time>2015-04-24T19:06:48.0000000+00:00</time></trkpt><trkpt lat="35.0930437" lon="32.4962129"><ele>21.1</ele><time>2015-04-24T19:06:49.0000000+00:00</time></trkpt><trkpt lat="35.0930871" lon="32.496245"><ele>21.0</ele><time>2015-04-24T19:06:50.0000000+00:00</time></trkpt><trkpt lat="35.0931223" lon="32.496288"><ele>21.0</ele><time>2015-04-24T19:06:51.0000000+00:00</time></trkpt><trkpt lat="35.0931647" lon="32.4963246"><ele>20.9</ele><time>2015-04-24T19:06:52.0000000+00:00</time></trkpt><trkpt lat="35.0932083" lon="32.4963618"><ele>21.4</ele><time>2015-04-24T19:06:53.0000000+00:00</time></trkpt><trkpt lat="35.0932518" lon="32.4963979"><ele>21.7</ele><time>2015-04-24T19:06:54.0000000+00:00</time></trkpt><trkpt lat="35.0932971" lon="32.4964295"><ele>21.3</ele><time>2015-04-24T19:06:55.0000000+00:00</time></trkpt><trkpt lat="35.0933433" lon="32.4964674"><ele>21.6</ele><time>2015-04-24T19:06:56.0000000+00:00</time></trkpt><trkpt lat="35.0933919" lon="32.4965023"><ele>21.8</ele><time>2015-04-24T19:06:57.0000000+00:00</time></trkpt><trkpt lat="35.0934372" lon="32.4965409"><ele>21.9</ele><time>2015-04-24T19:06:58.0000000+00:00</time></trkpt><trkpt lat="35.0934756" lon="32.4965776"><ele>21.9</ele><time>2015-04-24T19:06:59.0000000+00:00</time></trkpt><trkpt lat="35.0935206" lon="32.4966143"><ele>21.9</ele><time>2015-04-24T19:07:00.0000000+00:00</time></trkpt><trkpt lat="35.0935692" lon="32.4966431"><ele>21.9</ele><time>2015-04-24T19:07:01.0000000+00:00</time></trkpt><trkpt lat="35.0936131" lon="32.4966786"><ele>21.9</ele><time>2015-04-24T19:07:02.0000000+00:00</time></trkpt><trkpt lat="35.0936551" lon="32.4967238"><ele>21.9</ele><time>2015-04-24T19:07:03.0000000+00:00</time></trkpt><trkpt lat="35.0936987" lon="32.4967602"><ele>21.9</ele><time>2015-04-24T19:07:04.0000000+00:00</time></trkpt><trkpt lat="35.0937692" lon="32.4968326"><ele>21.2</ele><time>2015-04-24T19:07:06.0000000+00:00</time></trkpt><trkpt lat="35.0938173" lon="32.4968766"><ele>21.1</ele><time>2015-04-24T19:07:07.0000000+00:00</time></trkpt><trkpt lat="35.0938613" lon="32.4969118"><ele>21.0</ele><time>2015-04-24T19:07:08.0000000+00:00</time></trkpt><trkpt lat="35.0939077" lon="32.4969454"><ele>21.0</ele><time>2015-04-24T19:07:09.0000000+00:00</time></trkpt><trkpt lat="35.0939532" lon="32.4969785"><ele>20.9</ele><time>2015-04-24T19:07:10.0000000+00:00</time></trkpt><trkpt lat="35.0940031" lon="32.4970105"><ele>20.9</ele><time>2015-04-24T19:07:11.0000000+00:00</time></trkpt><trkpt lat="35.0940492" lon="32.4970444"><ele>20.9</ele><time>2015-04-24T19:07:12.0000000+00:00</time></trkpt><trkpt lat="35.0940957" lon="32.4970725"><ele>20.9</ele><time>2015-04-24T19:07:13.0000000+00:00</time></trkpt><trkpt lat="35.0941444" lon="32.4970987"><ele>20.9</ele><time>2015-04-24T19:07:14.0000000+00:00</time></trkpt><trkpt lat="35.0941907" lon="32.4971338"><ele>20.9</ele><time>2015-04-24T19:07:15.0000000+00:00</time></trkpt><trkpt lat="35.0942403" lon="32.4971643"><ele>20.9</ele><time>2015-04-24T19:07:16.0000000+00:00</time></trkpt><trkpt lat="35.0942869" lon="32.4971818"><ele>20.9</ele><time>2015-04-24T19:07:17.0000000+00:00</time></trkpt><trkpt lat="35.0943323" lon="32.4972096"><ele>20.9</ele><time>2015-04-24T19:07:18.0000000+00:00</time></trkpt><trkpt lat="35.094384" lon="32.4972414"><ele>21.4</ele><time>2015-04-24T19:07:19.0000000+00:00</time></trkpt><trkpt lat="35.0944342" lon="32.4972695"><ele>21.7</ele><time>2015-04-24T19:07:20.0000000+00:00</time></trkpt><trkpt lat="35.094481" lon="32.497295"><ele>21.8</ele><time>2015-04-24T19:07:21.0000000+00:00</time></trkpt><trkpt lat="35.0945316" lon="32.4973212"><ele>21.9</ele><time>2015-04-24T19:07:22.0000000+00:00</time></trkpt><trkpt lat="35.0945752" lon="32.4973471"><ele>21.9</ele><time>2015-04-24T19:07:23.0000000+00:00</time></trkpt><trkpt lat="35.0946229" lon="32.4973746"><ele>21.9</ele><time>2015-04-24T19:07:24.0000000+00:00</time></trkpt><trkpt lat="35.0947046" lon="32.4974251"><ele>21.9</ele><time>2015-04-24T19:07:26.0000000+00:00</time></trkpt><trkpt lat="35.0947508" lon="32.497453"><ele>22.4</ele><time>2015-04-24T19:07:27.0000000+00:00</time></trkpt><trkpt lat="35.0947983" lon="32.4974772"><ele>22.7</ele><time>2015-04-24T19:07:28.0000000+00:00</time></trkpt><trkpt lat="35.0948451" lon="32.4975038"><ele>22.3</ele><time>2015-04-24T19:07:29.0000000+00:00</time></trkpt><trkpt lat="35.0948957" lon="32.4975317"><ele>22.1</ele><time>2015-04-24T19:07:30.0000000+00:00</time></trkpt><trkpt lat="35.0949472" lon="32.4975708"><ele>22.0</ele><time>2015-04-24T19:07:31.0000000+00:00</time></trkpt><trkpt lat="35.0950004" lon="32.497601"><ele>21.5</ele><time>2015-04-24T19:07:32.0000000+00:00</time></trkpt><trkpt lat="35.0950473" lon="32.4976258"><ele>21.2</ele><time>2015-04-24T19:07:33.0000000+00:00</time></trkpt><trkpt lat="35.0950974" lon="32.4976536"><ele>21.1</ele><time>2015-04-24T19:07:34.0000000+00:00</time></trkpt><trkpt lat="35.0951516" lon="32.4976868"><ele>20.5</ele><time>2015-04-24T19:07:35.0000000+00:00</time></trkpt><trkpt lat="35.0952047" lon="32.4977161"><ele>20.2</ele><time>2015-04-24T19:07:36.0000000+00:00</time></trkpt><trkpt lat="35.0952583" lon="32.4977313"><ele>20.1</ele><time>2015-04-24T19:07:37.0000000+00:00</time></trkpt><trkpt lat="35.0953167" lon="32.4977666"><ele>20.0</ele><time>2015-04-24T19:07:38.0000000+00:00</time></trkpt><trkpt lat="35.0953679" lon="32.4977914"><ele>20.0</ele><time>2015-04-24T19:07:39.0000000+00:00</time></trkpt><trkpt lat="35.0954208" lon="32.4978201"><ele>19.9</ele><time>2015-04-24T19:07:40.0000000+00:00</time></trkpt><trkpt lat="35.0955038" lon="32.4978726"><ele>19.9</ele><time>2015-04-24T19:07:42.0000000+00:00</time></trkpt><trkpt lat="35.0955496" lon="32.497902"><ele>19.9</ele><time>2015-04-24T19:07:43.0000000+00:00</time></trkpt><trkpt lat="35.0956005" lon="32.4979334"><ele>19.9</ele><time>2015-04-24T19:07:44.0000000+00:00</time></trkpt><trkpt lat="35.0956573" lon="32.497954"><ele>19.9</ele><time>2015-04-24T19:07:45.0000000+00:00</time></trkpt><trkpt lat="35.0957112" lon="32.4979839"><ele>19.9</ele><time>2015-04-24T19:07:46.0000000+00:00</time></trkpt><trkpt lat="35.0957704" lon="32.4980246"><ele>20.4</ele><time>2015-04-24T19:07:47.0000000+00:00</time></trkpt><trkpt lat="35.0958245" lon="32.4980573"><ele>20.7</ele><time>2015-04-24T19:07:48.0000000+00:00</time></trkpt><trkpt lat="35.0958696" lon="32.4980919"><ele>20.3</ele><time>2015-04-24T19:07:49.0000000+00:00</time></trkpt><trkpt lat="35.0959189" lon="32.4981235"><ele>20.1</ele><time>2015-04-24T19:07:50.0000000+00:00</time></trkpt><trkpt lat="35.0959758" lon="32.4981485"><ele>20.0</ele><time>2015-04-24T19:07:51.0000000+00:00</time></trkpt><trkpt lat="35.0960273" lon="32.4981802"><ele>19.5</ele><time>2015-04-24T19:07:52.0000000+00:00</time></trkpt><trkpt lat="35.0960801" lon="32.4982124"><ele>19.2</ele><time>2015-04-24T19:07:53.0000000+00:00</time></trkpt><trkpt lat="35.0961424" lon="32.4982492"><ele>19.6</ele><time>2015-04-24T19:07:54.0000000+00:00</time></trkpt><trkpt lat="35.0961982" lon="32.4982888"><ele>19.2</ele><time>2015-04-24T19:07:55.0000000+00:00</time></trkpt><trkpt lat="35.0962481" lon="32.4983234"><ele>19.1</ele><time>2015-04-24T19:07:56.0000000+00:00</time></trkpt><trkpt lat="35.0962982" lon="32.498353"><ele>19.5</ele><time>2015-04-24T19:07:57.0000000+00:00</time></trkpt><trkpt lat="35.096347" lon="32.4983839"><ele>19.7</ele><time>2015-04-24T19:07:58.0000000+00:00</time></trkpt><trkpt lat="35.0963976" lon="32.4984162"><ele>19.8</ele><time>2015-04-24T19:07:59.0000000+00:00</time></trkpt><trkpt lat="35.0964456" lon="32.498447"><ele>19.9</ele><time>2015-04-24T19:08:00.0000000+00:00</time></trkpt><trkpt lat="35.0964945" lon="32.498481"><ele>19.9</ele><time>2015-04-24T19:08:01.0000000+00:00</time></trkpt><trkpt lat="35.0965405" lon="32.4985077"><ele>19.9</ele><time>2015-04-24T19:08:02.0000000+00:00</time></trkpt><trkpt lat="35.0965949" lon="32.4985434"><ele>19.9</ele><time>2015-04-24T19:08:03.0000000+00:00</time></trkpt><trkpt lat="35.0966413" lon="32.498579"><ele>19.9</ele><time>2015-04-24T19:08:04.0000000+00:00</time></trkpt><trkpt lat="35.0966885" lon="32.4986166"><ele>19.9</ele><time>2015-04-24T19:08:05.0000000+00:00</time></trkpt><trkpt lat="35.0967365" lon="32.498653"><ele>19.9</ele><time>2015-04-24T19:08:06.0000000+00:00</time></trkpt><trkpt lat="35.0967932" lon="32.4986861"><ele>19.9</ele><time>2015-04-24T19:08:07.0000000+00:00</time></trkpt><trkpt lat="35.0968475" lon="32.498722"><ele>19.9</ele><time>2015-04-24T19:08:08.0000000+00:00</time></trkpt><trkpt lat="35.0968908" lon="32.4987551"><ele>19.9</ele><time>2015-04-24T19:08:09.0000000+00:00</time></trkpt><trkpt lat="35.0969406" lon="32.4987869"><ele>19.9</ele><time>2015-04-24T19:08:10.0000000+00:00</time></trkpt><trkpt lat="35.0969855" lon="32.4988202"><ele>19.9</ele><time>2015-04-24T19:08:11.0000000+00:00</time></trkpt><trkpt lat="35.097034" lon="32.4988564"><ele>19.9</ele><time>2015-04-24T19:08:12.0000000+00:00</time></trkpt><trkpt lat="35.0970816" lon="32.4988871"><ele>19.9</ele><time>2015-04-24T19:08:13.0000000+00:00</time></trkpt><trkpt lat="35.0971293" lon="32.4989171"><ele>19.9</ele><time>2015-04-24T19:08:14.0000000+00:00</time></trkpt><trkpt lat="35.0971728" lon="32.4989622"><ele>19.9</ele><time>2015-04-24T19:08:15.0000000+00:00</time></trkpt><trkpt lat="35.0972205" lon="32.4989979"><ele>19.9</ele><time>2015-04-24T19:08:16.0000000+00:00</time></trkpt><trkpt lat="35.0972679" lon="32.4990222"><ele>19.9</ele><time>2015-04-24T19:08:17.0000000+00:00</time></trkpt><trkpt lat="35.0973156" lon="32.4990533"><ele>19.4</ele><time>2015-04-24T19:08:18.0000000+00:00</time></trkpt><trkpt lat="35.0973645" lon="32.4990939"><ele>19.7</ele><time>2015-04-24T19:08:19.0000000+00:00</time></trkpt><trkpt lat="35.0974109" lon="32.4991291"><ele>19.3</ele><time>2015-04-24T19:08:20.0000000+00:00</time></trkpt><trkpt lat="35.0974593" lon="32.4991668"><ele>19.1</ele><time>2015-04-24T19:08:21.0000000+00:00</time></trkpt><trkpt lat="35.097509" lon="32.4992031"><ele>19.0</ele><time>2015-04-24T19:08:22.0000000+00:00</time></trkpt><trkpt lat="35.0975615" lon="32.4992335"><ele>19.5</ele><time>2015-04-24T19:08:23.0000000+00:00</time></trkpt><trkpt lat="35.0976151" lon="32.4992687"><ele>19.7</ele><time>2015-04-24T19:08:24.0000000+00:00</time></trkpt><trkpt lat="35.0976636" lon="32.4993037"><ele>19.8</ele><time>2015-04-24T19:08:25.0000000+00:00</time></trkpt><trkpt lat="35.0977152" lon="32.499341"><ele>19.9</ele><time>2015-04-24T19:08:26.0000000+00:00</time></trkpt><trkpt lat="35.0977676" lon="32.49938"><ele>19.9</ele><time>2015-04-24T19:08:27.0000000+00:00</time></trkpt><trkpt lat="35.0978156" lon="32.4994148"><ele>19.9</ele><time>2015-04-24T19:08:28.0000000+00:00</time></trkpt><trkpt lat="35.0978696" lon="32.4994526"><ele>19.9</ele><time>2015-04-24T19:08:29.0000000+00:00</time></trkpt><trkpt lat="35.0979219" lon="32.4994883"><ele>19.9</ele><time>2015-04-24T19:08:30.0000000+00:00</time></trkpt><trkpt lat="35.0979724" lon="32.4995258"><ele>20.4</ele><time>2015-04-24T19:08:31.0000000+00:00</time></trkpt><trkpt lat="35.0980228" lon="32.4995655"><ele>20.7</ele><time>2015-04-24T19:08:32.0000000+00:00</time></trkpt><trkpt lat="35.0980752" lon="32.4996011"><ele>20.3</ele><time>2015-04-24T19:08:33.0000000+00:00</time></trkpt><trkpt lat="35.0981245" lon="32.4996341"><ele>20.1</ele><time>2015-04-24T19:08:34.0000000+00:00</time></trkpt><trkpt lat="35.0981715" lon="32.4996665"><ele>20.0</ele><time>2015-04-24T19:08:35.0000000+00:00</time></trkpt><trkpt lat="35.0982223" lon="32.4996991"><ele>20.0</ele><time>2015-04-24T19:08:36.0000000+00:00</time></trkpt><trkpt lat="35.0982694" lon="32.499725"><ele>20.0</ele><time>2015-04-24T19:08:37.0000000+00:00</time></trkpt><trkpt lat="35.0983176" lon="32.4997601"><ele>19.9</ele><time>2015-04-24T19:08:38.0000000+00:00</time></trkpt><trkpt lat="35.0983687" lon="32.499799"><ele>19.4</ele><time>2015-04-24T19:08:39.0000000+00:00</time></trkpt><trkpt lat="35.0984197" lon="32.4998328"><ele>19.7</ele><time>2015-04-24T19:08:40.0000000+00:00</time></trkpt><trkpt lat="35.0984737" lon="32.4998706"><ele>19.8</ele><time>2015-04-24T19:08:41.0000000+00:00</time></trkpt><trkpt lat="35.0985242" lon="32.4999093"><ele>19.9</ele><time>2015-04-24T19:08:42.0000000+00:00</time></trkpt><trkpt lat="35.0985789" lon="32.4999516"><ele>20.4</ele><time>2015-04-24T19:08:43.0000000+00:00</time></trkpt><trkpt lat="35.0986343" lon="32.499988"><ele>20.7</ele><time>2015-04-24T19:08:44.0000000+00:00</time></trkpt><trkpt lat="35.0986772" lon="32.500015"><ele>20.8</ele><time>2015-04-24T19:08:45.0000000+00:00</time></trkpt><trkpt lat="35.0987207" lon="32.5000517"><ele>20.9</ele><time>2015-04-24T19:08:46.0000000+00:00</time></trkpt><trkpt lat="35.0987673" lon="32.5000842"><ele>20.9</ele><time>2015-04-24T19:08:47.0000000+00:00</time></trkpt><trkpt lat="35.098814" lon="32.5001187"><ele>20.9</ele><time>2015-04-24T19:08:48.0000000+00:00</time></trkpt><trkpt lat="35.09886" lon="32.5001476"><ele>20.9</ele><time>2015-04-24T19:08:49.0000000+00:00</time></trkpt><trkpt lat="35.0989055" lon="32.5001802"><ele>20.9</ele><time>2015-04-24T19:08:50.0000000+00:00</time></trkpt><trkpt lat="35.098963" lon="32.500209"><ele>20.9</ele><time>2015-04-24T19:08:51.0000000+00:00</time></trkpt><trkpt lat="35.0990134" lon="32.5002434"><ele>20.9</ele><time>2015-04-24T19:08:52.0000000+00:00</time></trkpt><trkpt lat="35.0990594" lon="32.5002812"><ele>20.9</ele><time>2015-04-24T19:08:53.0000000+00:00</time></trkpt><trkpt lat="35.0991091" lon="32.5003166"><ele>21.4</ele><time>2015-04-24T19:08:54.0000000+00:00</time></trkpt><trkpt lat="35.0991564" lon="32.5003555"><ele>21.7</ele><time>2015-04-24T19:08:55.0000000+00:00</time></trkpt><trkpt lat="35.0992033" lon="32.500391"><ele>21.8</ele><time>2015-04-24T19:08:56.0000000+00:00</time></trkpt><trkpt lat="35.099251" lon="32.5004245"><ele>21.4</ele><time>2015-04-24T19:08:57.0000000+00:00</time></trkpt><trkpt lat="35.0992971" lon="32.500457"><ele>21.1</ele><time>2015-04-24T19:08:58.0000000+00:00</time></trkpt><trkpt lat="35.0993374" lon="32.5004841"><ele>21.0</ele><time>2015-04-24T19:08:59.0000000+00:00</time></trkpt><trkpt lat="35.0993817" lon="32.5005157"><ele>21.0</ele><time>2015-04-24T19:09:00.0000000+00:00</time></trkpt><trkpt lat="35.0994188" lon="32.5005468"><ele>21.0</ele><time>2015-04-24T19:09:01.0000000+00:00</time></trkpt><trkpt lat="35.0994938" lon="32.5006059"><ele>20.9</ele><time>2015-04-24T19:09:03.0000000+00:00</time></trkpt><trkpt lat="35.0995359" lon="32.500637"><ele>20.9</ele><time>2015-04-24T19:09:04.0000000+00:00</time></trkpt><trkpt lat="35.0995903" lon="32.5006699"><ele>21.4</ele><time>2015-04-24T19:09:05.0000000+00:00</time></trkpt><trkpt lat="35.0996353" lon="32.5007022"><ele>21.7</ele><time>2015-04-24T19:09:06.0000000+00:00</time></trkpt><trkpt lat="35.0996878" lon="32.5007442"><ele>21.8</ele><time>2015-04-24T19:09:07.0000000+00:00</time></trkpt><trkpt lat="35.0997364" lon="32.5007794"><ele>21.9</ele><time>2015-04-24T19:09:08.0000000+00:00</time></trkpt><trkpt lat="35.0997901" lon="32.5008073"><ele>21.9</ele><time>2015-04-24T19:09:09.0000000+00:00</time></trkpt><trkpt lat="35.0998413" lon="32.5008413"><ele>22.4</ele><time>2015-04-24T19:09:10.0000000+00:00</time></trkpt><trkpt lat="35.0998928" lon="32.500871"><ele>22.2</ele><time>2015-04-24T19:09:11.0000000+00:00</time></trkpt><trkpt lat="35.0999418" lon="32.500906"><ele>22.1</ele><time>2015-04-24T19:09:12.0000000+00:00</time></trkpt><trkpt lat="35.0999811" lon="32.5009455"><ele>22.0</ele><time>2015-04-24T19:09:13.0000000+00:00</time></trkpt><trkpt lat="35.1000273" lon="32.5009797"><ele>22.0</ele><time>2015-04-24T19:09:14.0000000+00:00</time></trkpt><trkpt lat="35.1000712" lon="32.5010139"><ele>21.9</ele><time>2015-04-24T19:09:15.0000000+00:00</time></trkpt><trkpt lat="35.1001123" lon="32.5010484"><ele>21.9</ele><time>2015-04-24T19:09:16.0000000+00:00</time></trkpt><trkpt lat="35.1001504" lon="32.5010799"><ele>21.9</ele><time>2015-04-24T19:09:17.0000000+00:00</time></trkpt><trkpt lat="35.1001913" lon="32.5011108"><ele>21.9</ele><time>2015-04-24T19:09:18.0000000+00:00</time></trkpt><trkpt lat="35.1002719" lon="32.5011654"><ele>21.9</ele><time>2015-04-24T19:09:20.0000000+00:00</time></trkpt><trkpt lat="35.1003152" lon="32.5011918"><ele>21.9</ele><time>2015-04-24T19:09:21.0000000+00:00</time></trkpt><trkpt lat="35.1003566" lon="32.5012201"><ele>21.9</ele><time>2015-04-24T19:09:22.0000000+00:00</time></trkpt><trkpt lat="35.1003974" lon="32.5012506"><ele>21.9</ele><time>2015-04-24T19:09:23.0000000+00:00</time></trkpt><trkpt lat="35.1004383" lon="32.5012793"><ele>21.9</ele><time>2015-04-24T19:09:24.0000000+00:00</time></trkpt><trkpt lat="35.1005109" lon="32.5013274"><ele>21.9</ele><time>2015-04-24T19:09:26.0000000+00:00</time></trkpt><trkpt lat="35.1005886" lon="32.5013848"><ele>21.9</ele><time>2015-04-24T19:09:28.0000000+00:00</time></trkpt><trkpt lat="35.1006355" lon="32.5014"><ele>21.9</ele><time>2015-04-24T19:09:29.0000000+00:00</time></trkpt><trkpt lat="35.1006794" lon="32.5014292"><ele>21.9</ele><time>2015-04-24T19:09:30.0000000+00:00</time></trkpt><trkpt lat="35.1007187" lon="32.5014627"><ele>21.9</ele><time>2015-04-24T19:09:31.0000000+00:00</time></trkpt><trkpt lat="35.1007595" lon="32.5014937"><ele>21.9</ele><time>2015-04-24T19:09:32.0000000+00:00</time></trkpt><trkpt lat="35.1008021" lon="32.5015181"><ele>21.9</ele><time>2015-04-24T19:09:33.0000000+00:00</time></trkpt><trkpt lat="35.1008442" lon="32.5015472"><ele>21.9</ele><time>2015-04-24T19:09:34.0000000+00:00</time></trkpt><trkpt lat="35.100886" lon="32.5015843"><ele>21.9</ele><time>2015-04-24T19:09:35.0000000+00:00</time></trkpt><trkpt lat="35.1009284" lon="32.5016167"><ele>21.9</ele><time>2015-04-24T19:09:36.0000000+00:00</time></trkpt><trkpt lat="35.1010088" lon="32.5016608"><ele>21.9</ele><time>2015-04-24T19:09:38.0000000+00:00</time></trkpt><trkpt lat="35.1010833" lon="32.5017097"><ele>21.9</ele><time>2015-04-24T19:09:40.0000000+00:00</time></trkpt><trkpt lat="35.1011288" lon="32.5017403"><ele>21.9</ele><time>2015-04-24T19:09:41.0000000+00:00</time></trkpt><trkpt lat="35.1011724" lon="32.5017658"><ele>22.4</ele><time>2015-04-24T19:09:42.0000000+00:00</time></trkpt><trkpt lat="35.1012175" lon="32.5018008"><ele>22.7</ele><time>2015-04-24T19:09:43.0000000+00:00</time></trkpt><trkpt lat="35.1012692" lon="32.5018306"><ele>22.8</ele><time>2015-04-24T19:09:44.0000000+00:00</time></trkpt><trkpt lat="35.1013175" lon="32.501862"><ele>22.9</ele><time>2015-04-24T19:09:45.0000000+00:00</time></trkpt><trkpt lat="35.1013685" lon="32.5018945"><ele>22.9</ele><time>2015-04-24T19:09:46.0000000+00:00</time></trkpt><trkpt lat="35.1014182" lon="32.501927"><ele>22.9</ele><time>2015-04-24T19:09:47.0000000+00:00</time></trkpt><trkpt lat="35.1014674" lon="32.5019563"><ele>22.4</ele><time>2015-04-24T19:09:48.0000000+00:00</time></trkpt><trkpt lat="35.1015168" lon="32.5019813"><ele>22.2</ele><time>2015-04-24T19:09:49.0000000+00:00</time></trkpt><trkpt lat="35.1015546" lon="32.5020126"><ele>22.6</ele><time>2015-04-24T19:09:50.0000000+00:00</time></trkpt><trkpt lat="35.1016057" lon="32.5020329"><ele>23.2</ele><time>2015-04-24T19:09:51.0000000+00:00</time></trkpt><trkpt lat="35.1016906" lon="32.5020841"><ele>23.0</ele><time>2015-04-24T19:09:53.0000000+00:00</time></trkpt><trkpt lat="35.1017419" lon="32.5021182"><ele>23.0</ele><time>2015-04-24T19:09:54.0000000+00:00</time></trkpt><trkpt lat="35.101795" lon="32.5021398"><ele>23.4</ele><time>2015-04-24T19:09:55.0000000+00:00</time></trkpt><trkpt lat="35.1018464" lon="32.5021635"><ele>23.7</ele><time>2015-04-24T19:09:56.0000000+00:00</time></trkpt><trkpt lat="35.1019029" lon="32.5021992"><ele>23.3</ele><time>2015-04-24T19:09:57.0000000+00:00</time></trkpt><trkpt lat="35.1019508" lon="32.5022295"><ele>23.6</ele><time>2015-04-24T19:09:58.0000000+00:00</time></trkpt><trkpt lat="35.1020021" lon="32.5022569"><ele>23.8</ele><time>2015-04-24T19:09:59.0000000+00:00</time></trkpt><trkpt lat="35.102046" lon="32.5022806"><ele>23.4</ele><time>2015-04-24T19:10:00.0000000+00:00</time></trkpt><trkpt lat="35.1020932" lon="32.5023046"><ele>23.1</ele><time>2015-04-24T19:10:01.0000000+00:00</time></trkpt><trkpt lat="35.1021663" lon="32.502354"><ele>23.7</ele><time>2015-04-24T19:10:03.0000000+00:00</time></trkpt><trkpt lat="35.1022174" lon="32.5023812"><ele>23.8</ele><time>2015-04-24T19:10:04.0000000+00:00</time></trkpt><trkpt lat="35.102265" lon="32.5024072"><ele>23.9</ele><time>2015-04-24T19:10:05.0000000+00:00</time></trkpt><trkpt lat="35.1023077" lon="32.5024324"><ele>23.4</ele><time>2015-04-24T19:10:06.0000000+00:00</time></trkpt><trkpt lat="35.102393" lon="32.5024788"><ele>23.0</ele><time>2015-04-24T19:10:08.0000000+00:00</time></trkpt><trkpt lat="35.1024374" lon="32.5025036"><ele>23.0</ele><time>2015-04-24T19:10:09.0000000+00:00</time></trkpt><trkpt lat="35.1025086" lon="32.5025494"><ele>22.2</ele><time>2015-04-24T19:10:11.0000000+00:00</time></trkpt><trkpt lat="35.1025755" lon="32.5025967"><ele>21.7</ele><time>2015-04-24T19:10:13.0000000+00:00</time></trkpt><trkpt lat="35.1026366" lon="32.50263"><ele>21.1</ele><time>2015-04-24T19:10:15.0000000+00:00</time></trkpt><trkpt lat="35.1027027" lon="32.5026696"><ele>21.7</ele><time>2015-04-24T19:10:17.0000000+00:00</time></trkpt><trkpt lat="35.1027482" lon="32.5026938"><ele>21.8</ele><time>2015-04-24T19:10:18.0000000+00:00</time></trkpt><trkpt lat="35.1027866" lon="32.5027236"><ele>21.9</ele><time>2015-04-24T19:10:19.0000000+00:00</time></trkpt><trkpt lat="35.1028591" lon="32.5027668"><ele>21.2</ele><time>2015-04-24T19:10:21.0000000+00:00</time></trkpt><trkpt lat="35.1029048" lon="32.502805"><ele>21.0</ele><time>2015-04-24T19:10:22.0000000+00:00</time></trkpt><trkpt lat="35.1029438" lon="32.5028336"><ele>21.0</ele><time>2015-04-24T19:10:23.0000000+00:00</time></trkpt><trkpt lat="35.1029875" lon="32.50286"><ele>21.0</ele><time>2015-04-24T19:10:24.0000000+00:00</time></trkpt><trkpt lat="35.1030272" lon="32.5028861"><ele>20.9</ele><time>2015-04-24T19:10:25.0000000+00:00</time></trkpt><trkpt lat="35.1030908" lon="32.5029321"><ele>20.9</ele><time>2015-04-24T19:10:27.0000000+00:00</time></trkpt><trkpt lat="35.1031468" lon="32.5029938"><ele>20.9</ele><time>2015-04-24T19:10:29.0000000+00:00</time></trkpt><trkpt lat="35.1032108" lon="32.5030384"><ele>20.9</ele><time>2015-04-24T19:10:31.0000000+00:00</time></trkpt><trkpt lat="35.10326" lon="32.5030686"><ele>20.9</ele><time>2015-04-24T19:10:33.0000000+00:00</time></trkpt><trkpt lat="35.103311" lon="32.503109"><ele>20.9</ele><time>2015-04-24T19:10:35.0000000+00:00</time></trkpt><trkpt lat="35.103359" lon="32.5031422"><ele>20.2</ele><time>2015-04-24T19:10:37.0000000+00:00</time></trkpt><trkpt lat="35.1034012" lon="32.503175"><ele>20.7</ele><time>2015-04-24T19:10:39.0000000+00:00</time></trkpt><trkpt lat="35.1034489" lon="32.503209"><ele>21.6</ele><time>2015-04-24T19:10:41.0000000+00:00</time></trkpt><trkpt lat="35.1035079" lon="32.5032506"><ele>21.9</ele><time>2015-04-24T19:10:43.0000000+00:00</time></trkpt><trkpt lat="35.1035746" lon="32.5033031"><ele>21.9</ele><time>2015-04-24T19:10:45.0000000+00:00</time></trkpt><trkpt lat="35.1036319" lon="32.5033504"><ele>21.9</ele><time>2015-04-24T19:10:47.0000000+00:00</time></trkpt><trkpt lat="35.1036763" lon="32.5033892"><ele>21.9</ele><time>2015-04-24T19:10:49.0000000+00:00</time></trkpt><trkpt lat="35.1037193" lon="32.5034244"><ele>21.9</ele><time>2015-04-24T19:10:51.0000000+00:00</time></trkpt><trkpt lat="35.1037766" lon="32.5034638"><ele>21.9</ele><time>2015-04-24T19:10:54.0000000+00:00</time></trkpt><trkpt lat="35.1038208" lon="32.5034919"><ele>21.9</ele><time>2015-04-24T19:10:56.0000000+00:00</time></trkpt><trkpt lat="35.1038713" lon="32.5035314"><ele>21.9</ele><time>2015-04-24T19:10:58.0000000+00:00</time></trkpt><trkpt lat="35.1039284" lon="32.5035767"><ele>22.4</ele><time>2015-04-24T19:11:00.0000000+00:00</time></trkpt><trkpt lat="35.1039891" lon="32.503617"><ele>22.3</ele><time>2015-04-24T19:11:02.0000000+00:00</time></trkpt><trkpt lat="35.1040594" lon="32.5036575"><ele>22.5</ele><time>2015-04-24T19:11:04.0000000+00:00</time></trkpt><trkpt lat="35.104132" lon="32.5036956"><ele>22.8</ele><time>2015-04-24T19:11:06.0000000+00:00</time></trkpt><trkpt lat="35.1042063" lon="32.5037315"><ele>22.9</ele><time>2015-04-24T19:11:08.0000000+00:00</time></trkpt><trkpt lat="35.1042912" lon="32.5037693"><ele>22.9</ele><time>2015-04-24T19:11:10.0000000+00:00</time></trkpt><trkpt lat="35.1043346" lon="32.5037889"><ele>22.9</ele><time>2015-04-24T19:11:11.0000000+00:00</time></trkpt><trkpt lat="35.1043842" lon="32.5038003"><ele>22.9</ele><time>2015-04-24T19:11:12.0000000+00:00</time></trkpt><trkpt lat="35.1044274" lon="32.5038169"><ele>22.9</ele><time>2015-04-24T19:11:13.0000000+00:00</time></trkpt><trkpt lat="35.1045027" lon="32.5038477"><ele>22.9</ele><time>2015-04-24T19:11:15.0000000+00:00</time></trkpt><trkpt lat="35.1045513" lon="32.5038539"><ele>22.4</ele><time>2015-04-24T19:11:16.0000000+00:00</time></trkpt><trkpt lat="35.1045986" lon="32.503862"><ele>22.2</ele><time>2015-04-24T19:11:17.0000000+00:00</time></trkpt><trkpt lat="35.1046545" lon="32.5038782"><ele>22.1</ele><time>2015-04-24T19:11:18.0000000+00:00</time></trkpt><trkpt lat="35.1047074" lon="32.5038869"><ele>22.0</ele><time>2015-04-24T19:11:19.0000000+00:00</time></trkpt><trkpt lat="35.1047662" lon="32.5039131"><ele>22.5</ele><time>2015-04-24T19:11:20.0000000+00:00</time></trkpt><trkpt lat="35.104821" lon="32.5039259"><ele>22.7</ele><time>2015-04-24T19:11:21.0000000+00:00</time></trkpt><trkpt lat="35.1048748" lon="32.5039322"><ele>22.8</ele><time>2015-04-24T19:11:22.0000000+00:00</time></trkpt><trkpt lat="35.104928" lon="32.5039426"><ele>22.9</ele><time>2015-04-24T19:11:23.0000000+00:00</time></trkpt><trkpt lat="35.1049797" lon="32.5039507"><ele>22.9</ele><time>2015-04-24T19:11:24.0000000+00:00</time></trkpt><trkpt lat="35.1050323" lon="32.5039577"><ele>22.4</ele><time>2015-04-24T19:11:25.0000000+00:00</time></trkpt><trkpt lat="35.105079" lon="32.5039679"><ele>22.2</ele><time>2015-04-24T19:11:26.0000000+00:00</time></trkpt><trkpt lat="35.1051288" lon="32.5039777"><ele>22.1</ele><time>2015-04-24T19:11:27.0000000+00:00</time></trkpt><trkpt lat="35.1051771" lon="32.5039798"><ele>22.0</ele><time>2015-04-24T19:11:28.0000000+00:00</time></trkpt><trkpt lat="35.1052265" lon="32.5039875"><ele>22.0</ele><time>2015-04-24T19:11:29.0000000+00:00</time></trkpt><trkpt lat="35.1053167" lon="32.5040055"><ele>21.9</ele><time>2015-04-24T19:11:31.0000000+00:00</time></trkpt><trkpt lat="35.1053612" lon="32.5040157"><ele>21.9</ele><time>2015-04-24T19:11:32.0000000+00:00</time></trkpt><trkpt lat="35.1054092" lon="32.5040252"><ele>21.9</ele><time>2015-04-24T19:11:33.0000000+00:00</time></trkpt><trkpt lat="35.1054698" lon="32.5040414"><ele>21.9</ele><time>2015-04-24T19:11:34.0000000+00:00</time></trkpt><trkpt lat="35.1055216" lon="32.5040566"><ele>21.9</ele><time>2015-04-24T19:11:35.0000000+00:00</time></trkpt><trkpt lat="35.1055677" lon="32.5040711"><ele>21.4</ele><time>2015-04-24T19:11:36.0000000+00:00</time></trkpt><trkpt lat="35.1056157" lon="32.5040883"><ele>21.2</ele><time>2015-04-24T19:11:37.0000000+00:00</time></trkpt><trkpt lat="35.1056594" lon="32.5041184"><ele>20.6</ele><time>2015-04-24T19:11:38.0000000+00:00</time></trkpt><trkpt lat="35.1057044" lon="32.5041389"><ele>20.2</ele><time>2015-04-24T19:11:39.0000000+00:00</time></trkpt><trkpt lat="35.105785" lon="32.504185"><ele>19.5</ele><time>2015-04-24T19:11:41.0000000+00:00</time></trkpt><trkpt lat="35.1058376" lon="32.5042133"><ele>19.7</ele><time>2015-04-24T19:11:42.0000000+00:00</time></trkpt><trkpt lat="35.105881" lon="32.5042364"><ele>19.8</ele><time>2015-04-24T19:11:43.0000000+00:00</time></trkpt><trkpt lat="35.1059218" lon="32.5042631"><ele>20.4</ele><time>2015-04-24T19:11:44.0000000+00:00</time></trkpt><trkpt lat="35.1059616" lon="32.5042902"><ele>20.7</ele><time>2015-04-24T19:11:45.0000000+00:00</time></trkpt><trkpt lat="35.1060382" lon="32.5043325"><ele>20.9</ele><time>2015-04-24T19:11:47.0000000+00:00</time></trkpt><trkpt lat="35.1061026" lon="32.5043743"><ele>20.9</ele><time>2015-04-24T19:11:49.0000000+00:00</time></trkpt><trkpt lat="35.1061599" lon="32.504416"><ele>20.9</ele><time>2015-04-24T19:11:51.0000000+00:00</time></trkpt><trkpt lat="35.1062252" lon="32.5044566"><ele>21.2</ele><time>2015-04-24T19:11:53.0000000+00:00</time></trkpt><trkpt lat="35.1062818" lon="32.5044943"><ele>21.0</ele><time>2015-04-24T19:11:55.0000000+00:00</time></trkpt><trkpt lat="35.1063408" lon="32.5045385"><ele>20.9</ele><time>2015-04-24T19:11:57.0000000+00:00</time></trkpt><trkpt lat="35.1063842" lon="32.5045676"><ele>20.9</ele><time>2015-04-24T19:11:58.0000000+00:00</time></trkpt><trkpt lat="35.1064308" lon="32.5045987"><ele>21.4</ele><time>2015-04-24T19:11:59.0000000+00:00</time></trkpt><trkpt lat="35.1064725" lon="32.504628"><ele>21.7</ele><time>2015-04-24T19:12:00.0000000+00:00</time></trkpt><trkpt lat="35.1065173" lon="32.5046559"><ele>21.8</ele><time>2015-04-24T19:12:01.0000000+00:00</time></trkpt><trkpt lat="35.1065615" lon="32.5046847"><ele>21.4</ele><time>2015-04-24T19:12:02.0000000+00:00</time></trkpt><trkpt lat="35.1066034" lon="32.5047122"><ele>21.1</ele><time>2015-04-24T19:12:03.0000000+00:00</time></trkpt><trkpt lat="35.1066748" lon="32.5047636"><ele>21.7</ele><time>2015-04-24T19:12:05.0000000+00:00</time></trkpt><trkpt lat="35.1067111" lon="32.5047992"><ele>21.8</ele><time>2015-04-24T19:12:06.0000000+00:00</time></trkpt><trkpt lat="35.1067511" lon="32.5048286"><ele>21.9</ele><time>2015-04-24T19:12:07.0000000+00:00</time></trkpt><trkpt lat="35.1067969" lon="32.5048515"><ele>21.9</ele><time>2015-04-24T19:12:08.0000000+00:00</time></trkpt><trkpt lat="35.1068404" lon="32.5048777"><ele>21.9</ele><time>2015-04-24T19:12:09.0000000+00:00</time></trkpt><trkpt lat="35.1069155" lon="32.5049322"><ele>21.9</ele><time>2015-04-24T19:12:11.0000000+00:00</time></trkpt><trkpt lat="35.106986" lon="32.5049781"><ele>21.9</ele><time>2015-04-24T19:12:13.0000000+00:00</time></trkpt><trkpt lat="35.1070574" lon="32.5050265"><ele>21.9</ele><time>2015-04-24T19:12:15.0000000+00:00</time></trkpt><trkpt lat="35.1071278" lon="32.5050741"><ele>21.9</ele><time>2015-04-24T19:12:17.0000000+00:00</time></trkpt><trkpt lat="35.1071986" lon="32.5051173"><ele>21.9</ele><time>2015-04-24T19:12:19.0000000+00:00</time></trkpt><trkpt lat="35.1072394" lon="32.505151"><ele>21.9</ele><time>2015-04-24T19:12:20.0000000+00:00</time></trkpt><trkpt lat="35.1072792" lon="32.5051782"><ele>21.9</ele><time>2015-04-24T19:12:21.0000000+00:00</time></trkpt><trkpt lat="35.1073495" lon="32.5052201"><ele>21.9</ele><time>2015-04-24T19:12:23.0000000+00:00</time></trkpt><trkpt lat="35.1074276" lon="32.5052619"><ele>21.9</ele><time>2015-04-24T19:12:25.0000000+00:00</time></trkpt><trkpt lat="35.1074922" lon="32.5053149"><ele>21.9</ele><time>2015-04-24T19:12:27.0000000+00:00</time></trkpt><trkpt lat="35.1075554" lon="32.5053542"><ele>21.9</ele><time>2015-04-24T19:12:29.0000000+00:00</time></trkpt><trkpt lat="35.107613" lon="32.5053976"><ele>21.9</ele><time>2015-04-24T19:12:31.0000000+00:00</time></trkpt><trkpt lat="35.107682" lon="32.5054439"><ele>21.9</ele><time>2015-04-24T19:12:33.0000000+00:00</time></trkpt><trkpt lat="35.1077281" lon="32.505477"><ele>21.9</ele><time>2015-04-24T19:12:34.0000000+00:00</time></trkpt><trkpt lat="35.1077681" lon="32.5055057"><ele>21.9</ele><time>2015-04-24T19:12:35.0000000+00:00</time></trkpt><trkpt lat="35.1078133" lon="32.5055408"><ele>21.9</ele><time>2015-04-24T19:12:36.0000000+00:00</time></trkpt><trkpt lat="35.1078555" lon="32.5055711"><ele>21.9</ele><time>2015-04-24T19:12:37.0000000+00:00</time></trkpt><trkpt lat="35.107934" lon="32.5056222"><ele>21.9</ele><time>2015-04-24T19:12:39.0000000+00:00</time></trkpt><trkpt lat="35.1080043" lon="32.5056742"><ele>21.9</ele><time>2015-04-24T19:12:41.0000000+00:00</time></trkpt><trkpt lat="35.1080744" lon="32.5057211"><ele>21.9</ele><time>2015-04-24T19:12:43.0000000+00:00</time></trkpt><trkpt lat="35.1081422" lon="32.5057801"><ele>21.9</ele><time>2015-04-24T19:12:45.0000000+00:00</time></trkpt><trkpt lat="35.1081825" lon="32.505805"><ele>21.9</ele><time>2015-04-24T19:12:46.0000000+00:00</time></trkpt><trkpt lat="35.1082546" lon="32.5058533"><ele>22.2</ele><time>2015-04-24T19:12:48.0000000+00:00</time></trkpt><trkpt lat="35.108325" lon="32.5058997"><ele>22.5</ele><time>2015-04-24T19:12:50.0000000+00:00</time></trkpt><trkpt lat="35.1083996" lon="32.5059492"><ele>22.8</ele><time>2015-04-24T19:12:52.0000000+00:00</time></trkpt><trkpt lat="35.108492" lon="32.506004"><ele>22.9</ele><time>2015-04-24T19:12:54.0000000+00:00</time></trkpt><trkpt lat="35.1085342" lon="32.5060338"><ele>22.9</ele><time>2015-04-24T19:12:55.0000000+00:00</time></trkpt><trkpt lat="35.1085746" lon="32.506066"><ele>22.9</ele><time>2015-04-24T19:12:56.0000000+00:00</time></trkpt><trkpt lat="35.1086136" lon="32.5060948"><ele>22.9</ele><time>2015-04-24T19:12:57.0000000+00:00</time></trkpt><trkpt lat="35.1086869" lon="32.506139"><ele>22.2</ele><time>2015-04-24T19:12:59.0000000+00:00</time></trkpt><trkpt lat="35.1087539" lon="32.5061848"><ele>22.0</ele><time>2015-04-24T19:13:01.0000000+00:00</time></trkpt><trkpt lat="35.1088289" lon="32.5062385"><ele>22.2</ele><time>2015-04-24T19:13:03.0000000+00:00</time></trkpt><trkpt lat="35.1089084" lon="32.5062913"><ele>22.0</ele><time>2015-04-24T19:13:05.0000000+00:00</time></trkpt><trkpt lat="35.1089471" lon="32.5063293"><ele>22.5</ele><time>2015-04-24T19:13:06.0000000+00:00</time></trkpt><trkpt lat="35.1090172" lon="32.5063767"><ele>22.8</ele><time>2015-04-24T19:13:08.0000000+00:00</time></trkpt><trkpt lat="35.1090877" lon="32.5064186"><ele>22.9</ele><time>2015-04-24T19:13:10.0000000+00:00</time></trkpt><trkpt lat="35.109167" lon="32.5064706"><ele>22.9</ele><time>2015-04-24T19:13:12.0000000+00:00</time></trkpt><trkpt lat="35.1092097" lon="32.5064989"><ele>22.9</ele><time>2015-04-24T19:13:13.0000000+00:00</time></trkpt><trkpt lat="35.1092562" lon="32.5065376"><ele>22.9</ele><time>2015-04-24T19:13:14.0000000+00:00</time></trkpt><trkpt lat="35.1092999" lon="32.506568"><ele>22.9</ele><time>2015-04-24T19:13:15.0000000+00:00</time></trkpt><trkpt lat="35.1093415" lon="32.5065931"><ele>22.9</ele><time>2015-04-24T19:13:16.0000000+00:00</time></trkpt><trkpt lat="35.1093809" lon="32.5066218"><ele>22.9</ele><time>2015-04-24T19:13:17.0000000+00:00</time></trkpt><trkpt lat="35.1094475" lon="32.5066739"><ele>22.9</ele><time>2015-04-24T19:13:19.0000000+00:00</time></trkpt><trkpt lat="35.1095145" lon="32.5067226"><ele>22.9</ele><time>2015-04-24T19:13:21.0000000+00:00</time></trkpt><trkpt lat="35.1095906" lon="32.5067744"><ele>23.4</ele><time>2015-04-24T19:13:23.0000000+00:00</time></trkpt><trkpt lat="35.1096336" lon="32.5068057"><ele>23.7</ele><time>2015-04-24T19:13:24.0000000+00:00</time></trkpt><trkpt lat="35.1096986" lon="32.5068483"><ele>23.9</ele><time>2015-04-24T19:13:26.0000000+00:00</time></trkpt><trkpt lat="35.1097586" lon="32.5068911"><ele>23.9</ele><time>2015-04-24T19:13:28.0000000+00:00</time></trkpt><trkpt lat="35.109826" lon="32.5069286"><ele>23.9</ele><time>2015-04-24T19:13:30.0000000+00:00</time></trkpt><trkpt lat="35.1098886" lon="32.5069774"><ele>23.9</ele><time>2015-04-24T19:13:32.0000000+00:00</time></trkpt><trkpt lat="35.1099554" lon="32.5070195"><ele>23.9</ele><time>2015-04-24T19:13:34.0000000+00:00</time></trkpt><trkpt lat="35.1100189" lon="32.5070652"><ele>23.9</ele><time>2015-04-24T19:13:36.0000000+00:00</time></trkpt><trkpt lat="35.1100886" lon="32.5071142"><ele>23.9</ele><time>2015-04-24T19:13:38.0000000+00:00</time></trkpt><trkpt lat="35.1101673" lon="32.5071752"><ele>23.9</ele><time>2015-04-24T19:13:40.0000000+00:00</time></trkpt><trkpt lat="35.1102394" lon="32.5072104"><ele>24.4</ele><time>2015-04-24T19:13:42.0000000+00:00</time></trkpt><trkpt lat="35.1103013" lon="32.5072537"><ele>24.1</ele><time>2015-04-24T19:13:44.0000000+00:00</time></trkpt><trkpt lat="35.1103628" lon="32.5072956"><ele>24.0</ele><time>2015-04-24T19:13:46.0000000+00:00</time></trkpt><trkpt lat="35.1104225" lon="32.5073356"><ele>23.9</ele><time>2015-04-24T19:13:48.0000000+00:00</time></trkpt><trkpt lat="35.1104789" lon="32.5073722"><ele>23.9</ele><time>2015-04-24T19:13:50.0000000+00:00</time></trkpt><trkpt lat="35.1105363" lon="32.5074104"><ele>23.9</ele><time>2015-04-24T19:13:52.0000000+00:00</time></trkpt><trkpt lat="35.1105868" lon="32.5074473"><ele>23.9</ele><time>2015-04-24T19:13:54.0000000+00:00</time></trkpt><trkpt lat="35.1106251" lon="32.5074969"><ele>23.4</ele><time>2015-04-24T19:13:57.0000000+00:00</time></trkpt><trkpt lat="35.1106486" lon="32.5075556"><ele>23.4</ele><time>2015-04-24T19:14:00.0000000+00:00</time></trkpt><trkpt lat="35.1106846" lon="32.5075942"><ele>21.0</ele><time>2015-04-24T19:14:03.0000000+00:00</time></trkpt><trkpt lat="35.1107322" lon="32.5076448"><ele>21.1</ele><time>2015-04-24T19:14:15.0000000+00:00</time></trkpt><trkpt lat="35.1107968" lon="32.5076723"><ele>20.7</ele><time>2015-04-24T19:14:19.0000000+00:00</time></trkpt><trkpt lat="35.1108388" lon="32.5077153"><ele>16.4</ele><time>2015-04-24T19:14:22.0000000+00:00</time></trkpt><trkpt lat="35.1108582" lon="32.5077796"><ele>16.0</ele><time>2015-04-24T19:14:25.0000000+00:00</time></trkpt><trkpt lat="35.1108401" lon="32.5078426"><ele>15.9</ele><time>2015-04-24T19:14:29.0000000+00:00</time></trkpt><trkpt lat="35.1108164" lon="32.5078915"><ele>17.9</ele><time>2015-04-24T19:14:41.0000000+00:00</time></trkpt></trkseg><trkseg><trkpt lat="35.11071" lon="32.5079817"><ele>13.9</ele><time>2015-04-25T07:57:35.0000000+00:00</time></trkpt><trkpt lat="35.1107564" lon="32.5079766"><ele>14.7</ele><time>2015-04-25T07:59:29.0000000+00:00</time></trkpt><trkpt lat="35.1107805" lon="32.5079209"><ele>14.9</ele><time>2015-04-25T07:59:39.0000000+00:00</time></trkpt><trkpt lat="35.110807" lon="32.5078572"><ele>14.8</ele><time>2015-04-25T07:59:43.0000000+00:00</time></trkpt><trkpt lat="35.1108279" lon="32.5077878"><ele>14.9</ele><time>2015-04-25T07:59:47.0000000+00:00</time></trkpt><trkpt lat="35.1108401" lon="32.5077211"><ele>15.8</ele><time>2015-04-25T07:59:51.0000000+00:00</time></trkpt><trkpt lat="35.1107925" lon="32.5076871"><ele>15.4</ele><time>2015-04-25T07:59:55.0000000+00:00</time></trkpt><trkpt lat="35.1107511" lon="32.5076575"><ele>15.5</ele><time>2015-04-25T07:59:58.0000000+00:00</time></trkpt><trkpt lat="35.1106932" lon="32.5076059"><ele>15.1</ele><time>2015-04-25T08:00:00.0000000+00:00</time></trkpt><trkpt lat="35.1106436" lon="32.507571"><ele>15.0</ele><time>2015-04-25T08:00:02.0000000+00:00</time></trkpt><trkpt lat="35.1105991" lon="32.5075244"><ele>14.9</ele><time>2015-04-25T08:00:04.0000000+00:00</time></trkpt><trkpt lat="35.1105456" lon="32.5074906"><ele>14.9</ele><time>2015-04-25T08:00:06.0000000+00:00</time></trkpt><trkpt lat="35.1104822" lon="32.5074519"><ele>14.9</ele><time>2015-04-25T08:00:08.0000000+00:00</time></trkpt><trkpt lat="35.1104198" lon="32.507407"><ele>14.9</ele><time>2015-04-25T08:00:10.0000000+00:00</time></trkpt><trkpt lat="35.1103585" lon="32.5073661"><ele>14.9</ele><time>2015-04-25T08:00:12.0000000+00:00</time></trkpt><trkpt lat="35.1102928" lon="32.5073337"><ele>14.9</ele><time>2015-04-25T08:00:14.0000000+00:00</time></trkpt><trkpt lat="35.1102206" lon="32.5072818"><ele>14.9</ele><time>2015-04-25T08:00:16.0000000+00:00</time></trkpt><trkpt lat="35.1101489" lon="32.5072349"><ele>14.9</ele><time>2015-04-25T08:00:18.0000000+00:00</time></trkpt><trkpt lat="35.1100777" lon="32.5071891"><ele>14.9</ele><time>2015-04-25T08:00:20.0000000+00:00</time></trkpt><trkpt lat="35.1100051" lon="32.5071424"><ele>14.9</ele><time>2015-04-25T08:00:22.0000000+00:00</time></trkpt><trkpt lat="35.1099322" lon="32.5070885"><ele>14.9</ele><time>2015-04-25T08:00:24.0000000+00:00</time></trkpt><trkpt lat="35.1098895" lon="32.5070574"><ele>14.9</ele><time>2015-04-25T08:00:25.0000000+00:00</time></trkpt><trkpt lat="35.10985" lon="32.5070295"><ele>14.9</ele><time>2015-04-25T08:00:26.0000000+00:00</time></trkpt><trkpt lat="35.1097746" lon="32.5069717"><ele>14.4</ele><time>2015-04-25T08:00:28.0000000+00:00</time></trkpt><trkpt lat="35.1097352" lon="32.5069412"><ele>14.2</ele><time>2015-04-25T08:00:29.0000000+00:00</time></trkpt><trkpt lat="35.1096634" lon="32.5068916"><ele>14.0</ele><time>2015-04-25T08:00:31.0000000+00:00</time></trkpt><trkpt lat="35.1095899" lon="32.506845"><ele>13.9</ele><time>2015-04-25T08:00:33.0000000+00:00</time></trkpt><trkpt lat="35.1095257" lon="32.5068027"><ele>13.9</ele><time>2015-04-25T08:00:35.0000000+00:00</time></trkpt><trkpt lat="35.1094621" lon="32.5067609"><ele>13.9</ele><time>2015-04-25T08:00:37.0000000+00:00</time></trkpt><trkpt lat="35.109401" lon="32.50672"><ele>13.9</ele><time>2015-04-25T08:00:39.0000000+00:00</time></trkpt><trkpt lat="35.1093335" lon="32.5066744"><ele>13.9</ele><time>2015-04-25T08:00:41.0000000+00:00</time></trkpt><trkpt lat="35.1092515" lon="32.5066095"><ele>13.9</ele><time>2015-04-25T08:00:43.0000000+00:00</time></trkpt><trkpt lat="35.1092104" lon="32.506579"><ele>13.9</ele><time>2015-04-25T08:00:44.0000000+00:00</time></trkpt><trkpt lat="35.1091663" lon="32.5065438"><ele>13.9</ele><time>2015-04-25T08:00:45.0000000+00:00</time></trkpt><trkpt lat="35.1090827" lon="32.5064916"><ele>13.9</ele><time>2015-04-25T08:00:47.0000000+00:00</time></trkpt><trkpt lat="35.1090391" lon="32.5064647"><ele>13.9</ele><time>2015-04-25T08:00:48.0000000+00:00</time></trkpt><trkpt lat="35.1089615" lon="32.5064003"><ele>13.9</ele><time>2015-04-25T08:00:50.0000000+00:00</time></trkpt><trkpt lat="35.1089194" lon="32.5063745"><ele>13.9</ele><time>2015-04-25T08:00:51.0000000+00:00</time></trkpt><trkpt lat="35.1088734" lon="32.5063456"><ele>13.9</ele><time>2015-04-25T08:00:52.0000000+00:00</time></trkpt><trkpt lat="35.1088305" lon="32.5063187"><ele>13.9</ele><time>2015-04-25T08:00:53.0000000+00:00</time></trkpt><trkpt lat="35.1087549" lon="32.5062666"><ele>13.7</ele><time>2015-04-25T08:00:55.0000000+00:00</time></trkpt><trkpt lat="35.108715" lon="32.5062376"><ele>13.8</ele><time>2015-04-25T08:00:56.0000000+00:00</time></trkpt><trkpt lat="35.10864" lon="32.5061876"><ele>13.9</ele><time>2015-04-25T08:00:58.0000000+00:00</time></trkpt><trkpt lat="35.1085976" lon="32.5061569"><ele>13.9</ele><time>2015-04-25T08:00:59.0000000+00:00</time></trkpt><trkpt lat="35.1085252" lon="32.5061156"><ele>13.9</ele><time>2015-04-25T08:01:01.0000000+00:00</time></trkpt><trkpt lat="35.108463" lon="32.5060782"><ele>13.9</ele><time>2015-04-25T08:01:03.0000000+00:00</time></trkpt><trkpt lat="35.1083927" lon="32.5060211"><ele>14.2</ele><time>2015-04-25T08:01:05.0000000+00:00</time></trkpt><trkpt lat="35.1083194" lon="32.5059699"><ele>14.0</ele><time>2015-04-25T08:01:07.0000000+00:00</time></trkpt><trkpt lat="35.1082429" lon="32.5059168"><ele>13.9</ele><time>2015-04-25T08:01:09.0000000+00:00</time></trkpt><trkpt lat="35.1081733" lon="32.5058674"><ele>13.9</ele><time>2015-04-25T08:01:11.0000000+00:00</time></trkpt><trkpt lat="35.1081009" lon="32.5058158"><ele>13.9</ele><time>2015-04-25T08:01:13.0000000+00:00</time></trkpt><trkpt lat="35.1080264" lon="32.5057653"><ele>13.9</ele><time>2015-04-25T08:01:15.0000000+00:00</time></trkpt><trkpt lat="35.1079486" lon="32.5057155"><ele>14.7</ele><time>2015-04-25T08:01:17.0000000+00:00</time></trkpt><trkpt lat="35.1078746" lon="32.5056761"><ele>15.1</ele><time>2015-04-25T08:01:19.0000000+00:00</time></trkpt><trkpt lat="35.1077988" lon="32.5056308"><ele>15.0</ele><time>2015-04-25T08:01:21.0000000+00:00</time></trkpt><trkpt lat="35.1077181" lon="32.505575"><ele>14.9</ele><time>2015-04-25T08:01:23.0000000+00:00</time></trkpt><trkpt lat="35.1076766" lon="32.5055463"><ele>14.9</ele><time>2015-04-25T08:01:24.0000000+00:00</time></trkpt><trkpt lat="35.1076361" lon="32.505513"><ele>14.9</ele><time>2015-04-25T08:01:25.0000000+00:00</time></trkpt><trkpt lat="35.1075976" lon="32.5054839"><ele>14.9</ele><time>2015-04-25T08:01:26.0000000+00:00</time></trkpt><trkpt lat="35.1075557" lon="32.5054594"><ele>14.9</ele><time>2015-04-25T08:01:27.0000000+00:00</time></trkpt><trkpt lat="35.1075129" lon="32.5054336"><ele>14.9</ele><time>2015-04-25T08:01:28.0000000+00:00</time></trkpt><trkpt lat="35.1074768" lon="32.5054002"><ele>14.9</ele><time>2015-04-25T08:01:29.0000000+00:00</time></trkpt><trkpt lat="35.1074028" lon="32.5053522"><ele>14.9</ele><time>2015-04-25T08:01:31.0000000+00:00</time></trkpt><trkpt lat="35.1073601" lon="32.5053248"><ele>14.9</ele><time>2015-04-25T08:01:32.0000000+00:00</time></trkpt><trkpt lat="35.1073186" lon="32.5052978"><ele>14.9</ele><time>2015-04-25T08:01:33.0000000+00:00</time></trkpt><trkpt lat="35.1072778" lon="32.5052709"><ele>14.9</ele><time>2015-04-25T08:01:34.0000000+00:00</time></trkpt><trkpt lat="35.1072397" lon="32.5052412"><ele>14.9</ele><time>2015-04-25T08:01:35.0000000+00:00</time></trkpt><trkpt lat="35.1071927" lon="32.5052093"><ele>14.9</ele><time>2015-04-25T08:01:36.0000000+00:00</time></trkpt><trkpt lat="35.1071515" lon="32.5051817"><ele>14.9</ele><time>2015-04-25T08:01:37.0000000+00:00</time></trkpt><trkpt lat="35.1071086" lon="32.5051542"><ele>14.9</ele><time>2015-04-25T08:01:38.0000000+00:00</time></trkpt><trkpt lat="35.1070608" lon="32.5051193"><ele>14.9</ele><time>2015-04-25T08:01:39.0000000+00:00</time></trkpt><trkpt lat="35.1070159" lon="32.5050905"><ele>14.9</ele><time>2015-04-25T08:01:40.0000000+00:00</time></trkpt><trkpt lat="35.1069734" lon="32.5050574"><ele>14.9</ele><time>2015-04-25T08:01:41.0000000+00:00</time></trkpt><trkpt lat="35.1069322" lon="32.5050298"><ele>14.9</ele><time>2015-04-25T08:01:42.0000000+00:00</time></trkpt><trkpt lat="35.1068501" lon="32.504969"><ele>14.9</ele><time>2015-04-25T08:01:44.0000000+00:00</time></trkpt><trkpt lat="35.1068104" lon="32.5049351"><ele>14.9</ele><time>2015-04-25T08:01:45.0000000+00:00</time></trkpt><trkpt lat="35.1067651" lon="32.5049032"><ele>14.9</ele><time>2015-04-25T08:01:46.0000000+00:00</time></trkpt><trkpt lat="35.1067103" lon="32.50487"><ele>14.9</ele><time>2015-04-25T08:01:47.0000000+00:00</time></trkpt><trkpt lat="35.1066615" lon="32.504838"><ele>14.9</ele><time>2015-04-25T08:01:48.0000000+00:00</time></trkpt><trkpt lat="35.1066172" lon="32.5048107"><ele>14.9</ele><time>2015-04-25T08:01:49.0000000+00:00</time></trkpt><trkpt lat="35.1065732" lon="32.5047816"><ele>14.9</ele><time>2015-04-25T08:01:50.0000000+00:00</time></trkpt><trkpt lat="35.1065224" lon="32.5047499"><ele>14.4</ele><time>2015-04-25T08:01:51.0000000+00:00</time></trkpt><trkpt lat="35.1064744" lon="32.504718"><ele>14.2</ele><time>2015-04-25T08:01:52.0000000+00:00</time></trkpt><trkpt lat="35.1064299" lon="32.504686"><ele>14.1</ele><time>2015-04-25T08:01:53.0000000+00:00</time></trkpt><trkpt lat="35.1063805" lon="32.5046556"><ele>14.0</ele><time>2015-04-25T08:01:54.0000000+00:00</time></trkpt><trkpt lat="35.1063349" lon="32.5046152"><ele>14.0</ele><time>2015-04-25T08:01:55.0000000+00:00</time></trkpt><trkpt lat="35.1062883" lon="32.5045793"><ele>13.9</ele><time>2015-04-25T08:01:56.0000000+00:00</time></trkpt><trkpt lat="35.1062378" lon="32.5045442"><ele>13.9</ele><time>2015-04-25T08:01:57.0000000+00:00</time></trkpt><trkpt lat="35.1061934" lon="32.504515"><ele>13.9</ele><time>2015-04-25T08:01:58.0000000+00:00</time></trkpt><trkpt lat="35.1061434" lon="32.5044883"><ele>13.4</ele><time>2015-04-25T08:01:59.0000000+00:00</time></trkpt><trkpt lat="35.1060964" lon="32.5044566"><ele>13.7</ele><time>2015-04-25T08:02:00.0000000+00:00</time></trkpt><trkpt lat="35.1060556" lon="32.5044288"><ele>13.8</ele><time>2015-04-25T08:02:01.0000000+00:00</time></trkpt><trkpt lat="35.1060104" lon="32.5043975"><ele>13.9</ele><time>2015-04-25T08:02:02.0000000+00:00</time></trkpt><trkpt lat="35.1059624" lon="32.5043709"><ele>13.9</ele><time>2015-04-25T08:02:03.0000000+00:00</time></trkpt><trkpt lat="35.1059132" lon="32.5043427"><ele>13.9</ele><time>2015-04-25T08:02:04.0000000+00:00</time></trkpt><trkpt lat="35.1058702" lon="32.5043055"><ele>13.9</ele><time>2015-04-25T08:02:05.0000000+00:00</time></trkpt><trkpt lat="35.1058236" lon="32.504274"><ele>13.9</ele><time>2015-04-25T08:02:06.0000000+00:00</time></trkpt><trkpt lat="35.1057766" lon="32.504248"><ele>14.4</ele><time>2015-04-25T08:02:07.0000000+00:00</time></trkpt><trkpt lat="35.1057251" lon="32.5042152"><ele>14.7</ele><time>2015-04-25T08:02:08.0000000+00:00</time></trkpt><trkpt lat="35.1056811" lon="32.5041953"><ele>14.8</ele><time>2015-04-25T08:02:09.0000000+00:00</time></trkpt><trkpt lat="35.1056321" lon="32.5041687"><ele>14.9</ele><time>2015-04-25T08:02:10.0000000+00:00</time></trkpt><trkpt lat="35.1055871" lon="32.5041659"><ele>14.9</ele><time>2015-04-25T08:02:11.0000000+00:00</time></trkpt><trkpt lat="35.1055384" lon="32.5041534"><ele>14.9</ele><time>2015-04-25T08:02:12.0000000+00:00</time></trkpt><trkpt lat="35.1054868" lon="32.5041329"><ele>14.9</ele><time>2015-04-25T08:02:13.0000000+00:00</time></trkpt><trkpt lat="35.1054392" lon="32.504117"><ele>14.9</ele><time>2015-04-25T08:02:14.0000000+00:00</time></trkpt><trkpt lat="35.1053858" lon="32.5040928"><ele>15.4</ele><time>2015-04-25T08:02:15.0000000+00:00</time></trkpt><trkpt lat="35.1053312" lon="32.5040749"><ele>15.7</ele><time>2015-04-25T08:02:16.0000000+00:00</time></trkpt><trkpt lat="35.1052765" lon="32.5040511"><ele>15.8</ele><time>2015-04-25T08:02:17.0000000+00:00</time></trkpt><trkpt lat="35.1052212" lon="32.50403"><ele>15.9</ele><time>2015-04-25T08:02:18.0000000+00:00</time></trkpt><trkpt lat="35.1051685" lon="32.5040197"><ele>15.9</ele><time>2015-04-25T08:02:19.0000000+00:00</time></trkpt><trkpt lat="35.1051131" lon="32.504005"><ele>16.4</ele><time>2015-04-25T08:02:20.0000000+00:00</time></trkpt><trkpt lat="35.1050502" lon="32.5039946"><ele>16.7</ele><time>2015-04-25T08:02:21.0000000+00:00</time></trkpt><trkpt lat="35.1049967" lon="32.5039844"><ele>16.8</ele><time>2015-04-25T08:02:22.0000000+00:00</time></trkpt><trkpt lat="35.1049447" lon="32.5039788"><ele>16.9</ele><time>2015-04-25T08:02:23.0000000+00:00</time></trkpt><trkpt lat="35.1048895" lon="32.5039686"><ele>16.9</ele><time>2015-04-25T08:02:24.0000000+00:00</time></trkpt><trkpt lat="35.1047969" lon="32.503954"><ele>16.7</ele><time>2015-04-25T08:02:26.0000000+00:00</time></trkpt><trkpt lat="35.104743" lon="32.5039443"><ele>16.8</ele><time>2015-04-25T08:02:27.0000000+00:00</time></trkpt><trkpt lat="35.1046905" lon="32.503936"><ele>16.9</ele><time>2015-04-25T08:02:28.0000000+00:00</time></trkpt><trkpt lat="35.1046362" lon="32.5039241"><ele>16.9</ele><time>2015-04-25T08:02:29.0000000+00:00</time></trkpt><trkpt lat="35.1045825" lon="32.5039136"><ele>16.9</ele><time>2015-04-25T08:02:30.0000000+00:00</time></trkpt><trkpt lat="35.1045279" lon="32.503901"><ele>16.9</ele><time>2015-04-25T08:02:31.0000000+00:00</time></trkpt><trkpt lat="35.1044695" lon="32.5038855"><ele>16.9</ele><time>2015-04-25T08:02:32.0000000+00:00</time></trkpt><trkpt lat="35.1044168" lon="32.5038696"><ele>16.9</ele><time>2015-04-25T08:02:33.0000000+00:00</time></trkpt><trkpt lat="35.1043624" lon="32.5038537"><ele>16.9</ele><time>2015-04-25T08:02:34.0000000+00:00</time></trkpt><trkpt lat="35.1043104" lon="32.5038341"><ele>16.9</ele><time>2015-04-25T08:02:35.0000000+00:00</time></trkpt><trkpt lat="35.1042561" lon="32.5038163"><ele>16.9</ele><time>2015-04-25T08:02:36.0000000+00:00</time></trkpt><trkpt lat="35.1042029" lon="32.5037936"><ele>16.9</ele><time>2015-04-25T08:02:37.0000000+00:00</time></trkpt><trkpt lat="35.1041521" lon="32.5037724"><ele>16.9</ele><time>2015-04-25T08:02:38.0000000+00:00</time></trkpt><trkpt lat="35.104104" lon="32.5037448"><ele>16.9</ele><time>2015-04-25T08:02:39.0000000+00:00</time></trkpt><trkpt lat="35.1040536" lon="32.5037208"><ele>16.9</ele><time>2015-04-25T08:02:40.0000000+00:00</time></trkpt><trkpt lat="35.1040039" lon="32.5036986"><ele>16.4</ele><time>2015-04-25T08:02:41.0000000+00:00</time></trkpt><trkpt lat="35.1039528" lon="32.5036723"><ele>16.2</ele><time>2015-04-25T08:02:42.0000000+00:00</time></trkpt><trkpt lat="35.1038985" lon="32.5036364"><ele>16.1</ele><time>2015-04-25T08:02:43.0000000+00:00</time></trkpt><trkpt lat="35.1038475" lon="32.5036054"><ele>16.5</ele><time>2015-04-25T08:02:44.0000000+00:00</time></trkpt><trkpt lat="35.103796" lon="32.5035652"><ele>16.7</ele><time>2015-04-25T08:02:45.0000000+00:00</time></trkpt><trkpt lat="35.1037478" lon="32.503534"><ele>16.8</ele><time>2015-04-25T08:02:46.0000000+00:00</time></trkpt><trkpt lat="35.1036964" lon="32.5034977"><ele>16.9</ele><time>2015-04-25T08:02:47.0000000+00:00</time></trkpt><trkpt lat="35.103647" lon="32.5034621"><ele>16.9</ele><time>2015-04-25T08:02:48.0000000+00:00</time></trkpt><trkpt lat="35.1036041" lon="32.5034318"><ele>16.4</ele><time>2015-04-25T08:02:49.0000000+00:00</time></trkpt><trkpt lat="35.1035571" lon="32.5033943"><ele>16.2</ele><time>2015-04-25T08:02:50.0000000+00:00</time></trkpt><trkpt lat="35.1035064" lon="32.5033493"><ele>16.1</ele><time>2015-04-25T08:02:51.0000000+00:00</time></trkpt><trkpt lat="35.1034567" lon="32.5033069"><ele>16.0</ele><time>2015-04-25T08:02:52.0000000+00:00</time></trkpt><trkpt lat="35.1034003" lon="32.5032798"><ele>16.0</ele><time>2015-04-25T08:02:53.0000000+00:00</time></trkpt><trkpt lat="35.103353" lon="32.5032479"><ele>15.9</ele><time>2015-04-25T08:02:54.0000000+00:00</time></trkpt><trkpt lat="35.1033037" lon="32.5032107"><ele>15.9</ele><time>2015-04-25T08:02:55.0000000+00:00</time></trkpt><trkpt lat="35.1032522" lon="32.5031742"><ele>15.9</ele><time>2015-04-25T08:02:56.0000000+00:00</time></trkpt><trkpt lat="35.1032032" lon="32.5031312"><ele>15.4</ele><time>2015-04-25T08:02:57.0000000+00:00</time></trkpt><trkpt lat="35.1031528" lon="32.5030926"><ele>15.2</ele><time>2015-04-25T08:02:58.0000000+00:00</time></trkpt><trkpt lat="35.103113" lon="32.5030467"><ele>15.1</ele><time>2015-04-25T08:02:59.0000000+00:00</time></trkpt><trkpt lat="35.1030645" lon="32.5030084"><ele>15.0</ele><time>2015-04-25T08:03:00.0000000+00:00</time></trkpt><trkpt lat="35.1030178" lon="32.5029693"><ele>15.0</ele><time>2015-04-25T08:03:01.0000000+00:00</time></trkpt><trkpt lat="35.1029756" lon="32.5029343"><ele>14.9</ele><time>2015-04-25T08:03:02.0000000+00:00</time></trkpt><trkpt lat="35.1029258" lon="32.5029024"><ele>14.9</ele><time>2015-04-25T08:03:03.0000000+00:00</time></trkpt><trkpt lat="35.1028754" lon="32.5028676"><ele>14.9</ele><time>2015-04-25T08:03:04.0000000+00:00</time></trkpt><trkpt lat="35.1028272" lon="32.5028302"><ele>14.9</ele><time>2015-04-25T08:03:05.0000000+00:00</time></trkpt><trkpt lat="35.102776" lon="32.5027925"><ele>14.9</ele><time>2015-04-25T08:03:06.0000000+00:00</time></trkpt><trkpt lat="35.1027336" lon="32.5027577"><ele>14.9</ele><time>2015-04-25T08:03:07.0000000+00:00</time></trkpt><trkpt lat="35.1026786" lon="32.5027348"><ele>14.9</ele><time>2015-04-25T08:03:08.0000000+00:00</time></trkpt><trkpt lat="35.1026261" lon="32.5026989"><ele>14.9</ele><time>2015-04-25T08:03:09.0000000+00:00</time></trkpt><trkpt lat="35.1025766" lon="32.5026762"><ele>14.9</ele><time>2015-04-25T08:03:10.0000000+00:00</time></trkpt><trkpt lat="35.1025242" lon="32.5026466"><ele>14.9</ele><time>2015-04-25T08:03:11.0000000+00:00</time></trkpt><trkpt lat="35.102473" lon="32.5026175"><ele>14.9</ele><time>2015-04-25T08:03:12.0000000+00:00</time></trkpt><trkpt lat="35.1024192" lon="32.5025855"><ele>14.9</ele><time>2015-04-25T08:03:13.0000000+00:00</time></trkpt><trkpt lat="35.1023659" lon="32.5025551"><ele>14.9</ele><time>2015-04-25T08:03:14.0000000+00:00</time></trkpt><trkpt lat="35.1023136" lon="32.5025321"><ele>14.9</ele><time>2015-04-25T08:03:15.0000000+00:00</time></trkpt><trkpt lat="35.1022608" lon="32.5025022"><ele>14.9</ele><time>2015-04-25T08:03:16.0000000+00:00</time></trkpt><trkpt lat="35.1022054" lon="32.5024751"><ele>14.4</ele><time>2015-04-25T08:03:17.0000000+00:00</time></trkpt><trkpt lat="35.1021551" lon="32.5024486"><ele>14.2</ele><time>2015-04-25T08:03:18.0000000+00:00</time></trkpt><trkpt lat="35.1021028" lon="32.5024186"><ele>14.6</ele><time>2015-04-25T08:03:19.0000000+00:00</time></trkpt><trkpt lat="35.1020482" lon="32.5023898"><ele>14.7</ele><time>2015-04-25T08:03:20.0000000+00:00</time></trkpt><trkpt lat="35.1019908" lon="32.5023559"><ele>14.8</ele><time>2015-04-25T08:03:21.0000000+00:00</time></trkpt><trkpt lat="35.101937" lon="32.5023259"><ele>14.9</ele><time>2015-04-25T08:03:22.0000000+00:00</time></trkpt><trkpt lat="35.101887" lon="32.5022852"><ele>14.9</ele><time>2015-04-25T08:03:23.0000000+00:00</time></trkpt><trkpt lat="35.1018332" lon="32.502249"><ele>14.9</ele><time>2015-04-25T08:03:24.0000000+00:00</time></trkpt><trkpt lat="35.1017809" lon="32.502218"><ele>14.9</ele><time>2015-04-25T08:03:25.0000000+00:00</time></trkpt><trkpt lat="35.1017348" lon="32.50219"><ele>14.9</ele><time>2015-04-25T08:03:26.0000000+00:00</time></trkpt><trkpt lat="35.1016842" lon="32.5021605"><ele>14.9</ele><time>2015-04-25T08:03:27.0000000+00:00</time></trkpt><trkpt lat="35.1016332" lon="32.5021309"><ele>14.9</ele><time>2015-04-25T08:03:28.0000000+00:00</time></trkpt><trkpt lat="35.1015812" lon="32.502106"><ele>14.4</ele><time>2015-04-25T08:03:29.0000000+00:00</time></trkpt><trkpt lat="35.101532" lon="32.5020736"><ele>14.2</ele><time>2015-04-25T08:03:30.0000000+00:00</time></trkpt><trkpt lat="35.1014775" lon="32.5020456"><ele>14.6</ele><time>2015-04-25T08:03:31.0000000+00:00</time></trkpt><trkpt lat="35.1014253" lon="32.5020147"><ele>14.7</ele><time>2015-04-25T08:03:32.0000000+00:00</time></trkpt><trkpt lat="35.101373" lon="32.5019784"><ele>14.8</ele><time>2015-04-25T08:03:33.0000000+00:00</time></trkpt><trkpt lat="35.1013228" lon="32.5019446"><ele>14.9</ele><time>2015-04-25T08:03:34.0000000+00:00</time></trkpt><trkpt lat="35.1012685" lon="32.5019123"><ele>14.4</ele><time>2015-04-25T08:03:35.0000000+00:00</time></trkpt><trkpt lat="35.1012141" lon="32.5018784"><ele>14.7</ele><time>2015-04-25T08:03:36.0000000+00:00</time></trkpt><trkpt lat="35.1011648" lon="32.5018412"><ele>14.3</ele><time>2015-04-25T08:03:37.0000000+00:00</time></trkpt><trkpt lat="35.1011152" lon="32.5018053"><ele>14.1</ele><time>2015-04-25T08:03:38.0000000+00:00</time></trkpt><trkpt lat="35.1010626" lon="32.5017719"><ele>14.5</ele><time>2015-04-25T08:03:39.0000000+00:00</time></trkpt><trkpt lat="35.10101" lon="32.5017369"><ele>14.7</ele><time>2015-04-25T08:03:40.0000000+00:00</time></trkpt><trkpt lat="35.1009588" lon="32.5017037"><ele>14.3</ele><time>2015-04-25T08:03:41.0000000+00:00</time></trkpt><trkpt lat="35.1009121" lon="32.5016708"><ele>14.1</ele><time>2015-04-25T08:03:42.0000000+00:00</time></trkpt><trkpt lat="35.1008623" lon="32.5016418"><ele>14.0</ele><time>2015-04-25T08:03:43.0000000+00:00</time></trkpt><trkpt lat="35.1008" lon="32.5016083"><ele>14.0</ele><time>2015-04-25T08:03:44.0000000+00:00</time></trkpt><trkpt lat="35.100755" lon="32.5015758"><ele>14.0</ele><time>2015-04-25T08:03:45.0000000+00:00</time></trkpt><trkpt lat="35.1007027" lon="32.5015417"><ele>13.9</ele><time>2015-04-25T08:03:46.0000000+00:00</time></trkpt><trkpt lat="35.100659" lon="32.5015053"><ele>13.9</ele><time>2015-04-25T08:03:47.0000000+00:00</time></trkpt><trkpt lat="35.1006079" lon="32.5014705"><ele>13.9</ele><time>2015-04-25T08:03:48.0000000+00:00</time></trkpt><trkpt lat="35.1005568" lon="32.5014383"><ele>13.9</ele><time>2015-04-25T08:03:49.0000000+00:00</time></trkpt><trkpt lat="35.100511" lon="32.5014041"><ele>13.9</ele><time>2015-04-25T08:03:50.0000000+00:00</time></trkpt><trkpt lat="35.1004594" lon="32.5013675"><ele>13.9</ele><time>2015-04-25T08:03:51.0000000+00:00</time></trkpt><trkpt lat="35.1004058" lon="32.5013307"><ele>13.9</ele><time>2015-04-25T08:03:52.0000000+00:00</time></trkpt><trkpt lat="35.1003515" lon="32.5012804"><ele>13.4</ele><time>2015-04-25T08:03:53.0000000+00:00</time></trkpt><trkpt lat="35.1002935" lon="32.5012359"><ele>13.2</ele><time>2015-04-25T08:03:54.0000000+00:00</time></trkpt><trkpt lat="35.1002365" lon="32.50121"><ele>13.1</ele><time>2015-04-25T08:03:55.0000000+00:00</time></trkpt><trkpt lat="35.10018" lon="32.5011716"><ele>13.0</ele><time>2015-04-25T08:03:56.0000000+00:00</time></trkpt><trkpt lat="35.1001307" lon="32.501127"><ele>13.0</ele><time>2015-04-25T08:03:57.0000000+00:00</time></trkpt><trkpt lat="35.100084" lon="32.501094"><ele>12.9</ele><time>2015-04-25T08:03:58.0000000+00:00</time></trkpt><trkpt lat="35.1000348" lon="32.5010638"><ele>12.9</ele><time>2015-04-25T08:03:59.0000000+00:00</time></trkpt><trkpt lat="35.0999788" lon="32.5010277"><ele>12.4</ele><time>2015-04-25T08:04:00.0000000+00:00</time></trkpt><trkpt lat="35.099935" lon="32.5009949"><ele>12.2</ele><time>2015-04-25T08:04:01.0000000+00:00</time></trkpt><trkpt lat="35.0998851" lon="32.5009583"><ele>12.1</ele><time>2015-04-25T08:04:02.0000000+00:00</time></trkpt><trkpt lat="35.0998406" lon="32.5009309"><ele>12.0</ele><time>2015-04-25T08:04:03.0000000+00:00</time></trkpt><trkpt lat="35.0997899" lon="32.500896"><ele>12.0</ele><time>2015-04-25T08:04:04.0000000+00:00</time></trkpt><trkpt lat="35.0997402" lon="32.5008597"><ele>12.4</ele><time>2015-04-25T08:04:05.0000000+00:00</time></trkpt><trkpt lat="35.0996911" lon="32.5008264"><ele>12.7</ele><time>2015-04-25T08:04:06.0000000+00:00</time></trkpt><trkpt lat="35.0996394" lon="32.5007905"><ele>13.3</ele><time>2015-04-25T08:04:07.0000000+00:00</time></trkpt><trkpt lat="35.0995878" lon="32.5007549"><ele>13.6</ele><time>2015-04-25T08:04:08.0000000+00:00</time></trkpt><trkpt lat="35.0995441" lon="32.5007157"><ele>13.8</ele><time>2015-04-25T08:04:09.0000000+00:00</time></trkpt><trkpt lat="35.0994947" lon="32.5006792"><ele>13.9</ele><time>2015-04-25T08:04:10.0000000+00:00</time></trkpt><trkpt lat="35.0994493" lon="32.500646"><ele>13.9</ele><time>2015-04-25T08:04:11.0000000+00:00</time></trkpt><trkpt lat="35.0994059" lon="32.5006147"><ele>13.9</ele><time>2015-04-25T08:04:12.0000000+00:00</time></trkpt><trkpt lat="35.0993591" lon="32.5005817"><ele>13.9</ele><time>2015-04-25T08:04:13.0000000+00:00</time></trkpt><trkpt lat="35.0993148" lon="32.5005514"><ele>13.9</ele><time>2015-04-25T08:04:14.0000000+00:00</time></trkpt><trkpt lat="35.0992705" lon="32.5005155"><ele>13.9</ele><time>2015-04-25T08:04:15.0000000+00:00</time></trkpt><trkpt lat="35.0992234" lon="32.5004822"><ele>13.9</ele><time>2015-04-25T08:04:16.0000000+00:00</time></trkpt><trkpt lat="35.099174" lon="32.5004518"><ele>13.9</ele><time>2015-04-25T08:04:17.0000000+00:00</time></trkpt><trkpt lat="35.0991244" lon="32.5004147"><ele>13.9</ele><time>2015-04-25T08:04:18.0000000+00:00</time></trkpt><trkpt lat="35.0990761" lon="32.500382"><ele>14.4</ele><time>2015-04-25T08:04:19.0000000+00:00</time></trkpt><trkpt lat="35.0990262" lon="32.5003455"><ele>14.7</ele><time>2015-04-25T08:04:20.0000000+00:00</time></trkpt><trkpt lat="35.0989706" lon="32.5003107"><ele>14.8</ele><time>2015-04-25T08:04:21.0000000+00:00</time></trkpt><trkpt lat="35.098924" lon="32.5002774"><ele>14.9</ele><time>2015-04-25T08:04:22.0000000+00:00</time></trkpt><trkpt lat="35.0988802" lon="32.5002396"><ele>14.4</ele><time>2015-04-25T08:04:23.0000000+00:00</time></trkpt><trkpt lat="35.0988316" lon="32.5002039"><ele>14.2</ele><time>2015-04-25T08:04:24.0000000+00:00</time></trkpt><trkpt lat="35.0987851" lon="32.500174"><ele>14.0</ele><time>2015-04-25T08:04:25.0000000+00:00</time></trkpt><trkpt lat="35.0987346" lon="32.5001456"><ele>14.0</ele><time>2015-04-25T08:04:26.0000000+00:00</time></trkpt><trkpt lat="35.0986859" lon="32.5001112"><ele>14.0</ele><time>2015-04-25T08:04:27.0000000+00:00</time></trkpt><trkpt lat="35.0986405" lon="32.5000832"><ele>14.4</ele><time>2015-04-25T08:04:28.0000000+00:00</time></trkpt><trkpt lat="35.098592" lon="32.5000505"><ele>14.7</ele><time>2015-04-25T08:04:29.0000000+00:00</time></trkpt><trkpt lat="35.0985444" lon="32.5000139"><ele>14.8</ele><time>2015-04-25T08:04:30.0000000+00:00</time></trkpt><trkpt lat="35.0984965" lon="32.4999808"><ele>14.9</ele><time>2015-04-25T08:04:31.0000000+00:00</time></trkpt><trkpt lat="35.0984521" lon="32.4999516"><ele>14.9</ele><time>2015-04-25T08:04:32.0000000+00:00</time></trkpt><trkpt lat="35.0984106" lon="32.4999214"><ele>14.9</ele><time>2015-04-25T08:04:33.0000000+00:00</time></trkpt><trkpt lat="35.098368" lon="32.4998844"><ele>14.4</ele><time>2015-04-25T08:04:34.0000000+00:00</time></trkpt><trkpt lat="35.0983242" lon="32.4998529"><ele>14.2</ele><time>2015-04-25T08:04:35.0000000+00:00</time></trkpt><trkpt lat="35.0982722" lon="32.4998184"><ele>14.1</ele><time>2015-04-25T08:04:36.0000000+00:00</time></trkpt><trkpt lat="35.0982248" lon="32.4997839"><ele>14.0</ele><time>2015-04-25T08:04:37.0000000+00:00</time></trkpt><trkpt lat="35.0981784" lon="32.4997466"><ele>14.0</ele><time>2015-04-25T08:04:38.0000000+00:00</time></trkpt><trkpt lat="35.0981287" lon="32.4997121"><ele>14.4</ele><time>2015-04-25T08:04:39.0000000+00:00</time></trkpt><trkpt lat="35.0980851" lon="32.4996767"><ele>14.2</ele><time>2015-04-25T08:04:40.0000000+00:00</time></trkpt><trkpt lat="35.0980399" lon="32.499646"><ele>14.1</ele><time>2015-04-25T08:04:41.0000000+00:00</time></trkpt><trkpt lat="35.0979888" lon="32.4996086"><ele>14.5</ele><time>2015-04-25T08:04:42.0000000+00:00</time></trkpt><trkpt lat="35.0979394" lon="32.4995664"><ele>14.2</ele><time>2015-04-25T08:04:43.0000000+00:00</time></trkpt><trkpt lat="35.0978892" lon="32.4995306"><ele>14.1</ele><time>2015-04-25T08:04:44.0000000+00:00</time></trkpt><trkpt lat="35.0978365" lon="32.499501"><ele>14.0</ele><time>2015-04-25T08:04:45.0000000+00:00</time></trkpt><trkpt lat="35.0977891" lon="32.4994675"><ele>14.0</ele><time>2015-04-25T08:04:46.0000000+00:00</time></trkpt><trkpt lat="35.0977428" lon="32.4994354"><ele>13.9</ele><time>2015-04-25T08:04:47.0000000+00:00</time></trkpt><trkpt lat="35.0976918" lon="32.4993993"><ele>13.9</ele><time>2015-04-25T08:04:48.0000000+00:00</time></trkpt><trkpt lat="35.0976403" lon="32.4993634"><ele>14.4</ele><time>2015-04-25T08:04:49.0000000+00:00</time></trkpt><trkpt lat="35.0975895" lon="32.4993272"><ele>14.7</ele><time>2015-04-25T08:04:50.0000000+00:00</time></trkpt><trkpt lat="35.0975488" lon="32.499297"><ele>14.8</ele><time>2015-04-25T08:04:51.0000000+00:00</time></trkpt><trkpt lat="35.0974985" lon="32.4992639"><ele>14.9</ele><time>2015-04-25T08:04:52.0000000+00:00</time></trkpt><trkpt lat="35.09745" lon="32.4992318"><ele>14.9</ele><time>2015-04-25T08:04:53.0000000+00:00</time></trkpt><trkpt lat="35.0974026" lon="32.4991999"><ele>14.9</ele><time>2015-04-25T08:04:54.0000000+00:00</time></trkpt><trkpt lat="35.0973554" lon="32.499163"><ele>14.9</ele><time>2015-04-25T08:04:55.0000000+00:00</time></trkpt><trkpt lat="35.0973003" lon="32.4991298"><ele>14.9</ele><time>2015-04-25T08:04:56.0000000+00:00</time></trkpt><trkpt lat="35.0972537" lon="32.4991058"><ele>14.4</ele><time>2015-04-25T08:04:57.0000000+00:00</time></trkpt><trkpt lat="35.0972013" lon="32.4990757"><ele>14.2</ele><time>2015-04-25T08:04:58.0000000+00:00</time></trkpt><trkpt lat="35.0971581" lon="32.4990307"><ele>13.6</ele><time>2015-04-25T08:04:59.0000000+00:00</time></trkpt><trkpt lat="35.0971105" lon="32.498993"><ele>13.2</ele><time>2015-04-25T08:05:00.0000000+00:00</time></trkpt><trkpt lat="35.0970535" lon="32.4989601"><ele>13.1</ele><time>2015-04-25T08:05:01.0000000+00:00</time></trkpt><trkpt lat="35.0970029" lon="32.4989266"><ele>13.0</ele><time>2015-04-25T08:05:02.0000000+00:00</time></trkpt><trkpt lat="35.0969542" lon="32.498889"><ele>13.0</ele><time>2015-04-25T08:05:03.0000000+00:00</time></trkpt><trkpt lat="35.0969026" lon="32.4988525"><ele>12.9</ele><time>2015-04-25T08:05:04.0000000+00:00</time></trkpt><trkpt lat="35.0968549" lon="32.4988184"><ele>12.9</ele><time>2015-04-25T08:05:05.0000000+00:00</time></trkpt><trkpt lat="35.096802" lon="32.4987807"><ele>12.9</ele><time>2015-04-25T08:05:06.0000000+00:00</time></trkpt><trkpt lat="35.0967586" lon="32.4987428"><ele>13.4</ele><time>2015-04-25T08:05:07.0000000+00:00</time></trkpt><trkpt lat="35.0967104" lon="32.4987055"><ele>13.7</ele><time>2015-04-25T08:05:08.0000000+00:00</time></trkpt><trkpt lat="35.0966546" lon="32.4986716"><ele>13.8</ele><time>2015-04-25T08:05:09.0000000+00:00</time></trkpt><trkpt lat="35.096608" lon="32.4986423"><ele>13.9</ele><time>2015-04-25T08:05:10.0000000+00:00</time></trkpt><trkpt lat="35.09656" lon="32.4986169"><ele>13.9</ele><time>2015-04-25T08:05:11.0000000+00:00</time></trkpt><trkpt lat="35.0965104" lon="32.4985845"><ele>13.9</ele><time>2015-04-25T08:05:12.0000000+00:00</time></trkpt><trkpt lat="35.0964587" lon="32.4985489"><ele>13.4</ele><time>2015-04-25T08:05:13.0000000+00:00</time></trkpt><trkpt lat="35.0964101" lon="32.4985119"><ele>13.2</ele><time>2015-04-25T08:05:14.0000000+00:00</time></trkpt><trkpt lat="35.0963602" lon="32.4984806"><ele>13.1</ele><time>2015-04-25T08:05:15.0000000+00:00</time></trkpt><trkpt lat="35.0963112" lon="32.498444"><ele>13.0</ele><time>2015-04-25T08:05:16.0000000+00:00</time></trkpt><trkpt lat="35.0962672" lon="32.4984127"><ele>13.5</ele><time>2015-04-25T08:05:17.0000000+00:00</time></trkpt><trkpt lat="35.0962261" lon="32.4983834"><ele>13.7</ele><time>2015-04-25T08:05:18.0000000+00:00</time></trkpt><trkpt lat="35.0961722" lon="32.4983543"><ele>13.8</ele><time>2015-04-25T08:05:19.0000000+00:00</time></trkpt><trkpt lat="35.0961222" lon="32.4983156"><ele>13.9</ele><time>2015-04-25T08:05:20.0000000+00:00</time></trkpt><trkpt lat="35.0960753" lon="32.4982858"><ele>13.9</ele><time>2015-04-25T08:05:21.0000000+00:00</time></trkpt><trkpt lat="35.0960278" lon="32.4982491"><ele>14.4</ele><time>2015-04-25T08:05:22.0000000+00:00</time></trkpt><trkpt lat="35.0959816" lon="32.4982231"><ele>14.2</ele><time>2015-04-25T08:05:23.0000000+00:00</time></trkpt><trkpt lat="35.0959325" lon="32.4981938"><ele>14.6</ele><time>2015-04-25T08:05:24.0000000+00:00</time></trkpt><trkpt lat="35.0958818" lon="32.4981635"><ele>14.7</ele><time>2015-04-25T08:05:25.0000000+00:00</time></trkpt><trkpt lat="35.0958416" lon="32.4981332"><ele>14.8</ele><time>2015-04-25T08:05:26.0000000+00:00</time></trkpt><trkpt lat="35.0957952" lon="32.4981011"><ele>14.9</ele><time>2015-04-25T08:05:27.0000000+00:00</time></trkpt><trkpt lat="35.0957471" lon="32.4980717"><ele>14.9</ele><time>2015-04-25T08:05:28.0000000+00:00</time></trkpt><trkpt lat="35.0956999" lon="32.4980439"><ele>14.9</ele><time>2015-04-25T08:05:29.0000000+00:00</time></trkpt><trkpt lat="35.0956521" lon="32.4980144"><ele>14.9</ele><time>2015-04-25T08:05:30.0000000+00:00</time></trkpt><trkpt lat="35.095598" lon="32.497986"><ele>14.9</ele><time>2015-04-25T08:05:31.0000000+00:00</time></trkpt><trkpt lat="35.0955493" lon="32.4979544"><ele>14.9</ele><time>2015-04-25T08:05:32.0000000+00:00</time></trkpt><trkpt lat="35.0955045" lon="32.4979238"><ele>14.9</ele><time>2015-04-25T08:05:33.0000000+00:00</time></trkpt><trkpt lat="35.0954528" lon="32.4978984"><ele>14.9</ele><time>2015-04-25T08:05:34.0000000+00:00</time></trkpt><trkpt lat="35.095399" lon="32.4978732"><ele>14.9</ele><time>2015-04-25T08:05:35.0000000+00:00</time></trkpt><trkpt lat="35.0953468" lon="32.4978443"><ele>14.9</ele><time>2015-04-25T08:05:36.0000000+00:00</time></trkpt><trkpt lat="35.095306" lon="32.4978197"><ele>14.9</ele><time>2015-04-25T08:05:37.0000000+00:00</time></trkpt><trkpt lat="35.0952631" lon="32.4977979"><ele>14.9</ele><time>2015-04-25T08:05:38.0000000+00:00</time></trkpt><trkpt lat="35.095216" lon="32.4977732"><ele>14.9</ele><time>2015-04-25T08:05:39.0000000+00:00</time></trkpt><trkpt lat="35.0951706" lon="32.4977513"><ele>14.9</ele><time>2015-04-25T08:05:40.0000000+00:00</time></trkpt><trkpt lat="35.095112" lon="32.4977212"><ele>15.4</ele><time>2015-04-25T08:05:41.0000000+00:00</time></trkpt><trkpt lat="35.095066" lon="32.4976901"><ele>15.2</ele><time>2015-04-25T08:05:42.0000000+00:00</time></trkpt><trkpt lat="35.0950174" lon="32.4976669"><ele>15.1</ele><time>2015-04-25T08:05:43.0000000+00:00</time></trkpt><trkpt lat="35.0949627" lon="32.4976368"><ele>15.0</ele><time>2015-04-25T08:05:44.0000000+00:00</time></trkpt><trkpt lat="35.0949126" lon="32.4976112"><ele>15.0</ele><time>2015-04-25T08:05:45.0000000+00:00</time></trkpt><trkpt lat="35.0948652" lon="32.4975829"><ele>14.9</ele><time>2015-04-25T08:05:46.0000000+00:00</time></trkpt><trkpt lat="35.0948176" lon="32.4975539"><ele>14.9</ele><time>2015-04-25T08:05:47.0000000+00:00</time></trkpt><trkpt lat="35.0947666" lon="32.4975269"><ele>14.9</ele><time>2015-04-25T08:05:48.0000000+00:00</time></trkpt><trkpt lat="35.0947197" lon="32.4975011"><ele>14.4</ele><time>2015-04-25T08:05:49.0000000+00:00</time></trkpt><trkpt lat="35.0946726" lon="32.4974767"><ele>14.7</ele><time>2015-04-25T08:05:50.0000000+00:00</time></trkpt><trkpt lat="35.0946248" lon="32.4974429"><ele>14.3</ele><time>2015-04-25T08:05:51.0000000+00:00</time></trkpt><trkpt lat="35.0945748" lon="32.4974087"><ele>14.1</ele><time>2015-04-25T08:05:52.0000000+00:00</time></trkpt><trkpt lat="35.0945276" lon="32.4973816"><ele>14.0</ele><time>2015-04-25T08:05:53.0000000+00:00</time></trkpt><trkpt lat="35.0944777" lon="32.4973532"><ele>14.0</ele><time>2015-04-25T08:05:54.0000000+00:00</time></trkpt><trkpt lat="35.0944305" lon="32.4973289"><ele>14.5</ele><time>2015-04-25T08:05:55.0000000+00:00</time></trkpt><trkpt lat="35.0943812" lon="32.4972997"><ele>14.7</ele><time>2015-04-25T08:05:56.0000000+00:00</time></trkpt><trkpt lat="35.0943298" lon="32.4972687"><ele>14.8</ele><time>2015-04-25T08:05:57.0000000+00:00</time></trkpt><trkpt lat="35.0942823" lon="32.49724"><ele>14.9</ele><time>2015-04-25T08:05:58.0000000+00:00</time></trkpt><trkpt lat="35.0942333" lon="32.4972107"><ele>14.9</ele><time>2015-04-25T08:05:59.0000000+00:00</time></trkpt><trkpt lat="35.0941832" lon="32.497181"><ele>14.9</ele><time>2015-04-25T08:06:00.0000000+00:00</time></trkpt><trkpt lat="35.0941343" lon="32.4971596"><ele>14.9</ele><time>2015-04-25T08:06:01.0000000+00:00</time></trkpt><trkpt lat="35.0940829" lon="32.4971335"><ele>14.9</ele><time>2015-04-25T08:06:02.0000000+00:00</time></trkpt><trkpt lat="35.0940366" lon="32.4971007"><ele>14.9</ele><time>2015-04-25T08:06:03.0000000+00:00</time></trkpt><trkpt lat="35.0939872" lon="32.4970707"><ele>14.9</ele><time>2015-04-25T08:06:04.0000000+00:00</time></trkpt><trkpt lat="35.0939366" lon="32.4970417"><ele>15.4</ele><time>2015-04-25T08:06:05.0000000+00:00</time></trkpt><trkpt lat="35.0938862" lon="32.4970109"><ele>15.7</ele><time>2015-04-25T08:06:06.0000000+00:00</time></trkpt><trkpt lat="35.0938348" lon="32.4969722"><ele>15.8</ele><time>2015-04-25T08:06:07.0000000+00:00</time></trkpt><trkpt lat="35.0937827" lon="32.4969366"><ele>16.4</ele><time>2015-04-25T08:06:08.0000000+00:00</time></trkpt><trkpt lat="35.0937346" lon="32.4968984"><ele>16.1</ele><time>2015-04-25T08:06:09.0000000+00:00</time></trkpt><trkpt lat="35.0936848" lon="32.4968594"><ele>16.0</ele><time>2015-04-25T08:06:10.0000000+00:00</time></trkpt><trkpt lat="35.0936399" lon="32.496823"><ele>16.0</ele><time>2015-04-25T08:06:11.0000000+00:00</time></trkpt><trkpt lat="35.093592" lon="32.4967848"><ele>16.0</ele><time>2015-04-25T08:06:12.0000000+00:00</time></trkpt><trkpt lat="35.0935387" lon="32.4967449"><ele>16.4</ele><time>2015-04-25T08:06:13.0000000+00:00</time></trkpt><trkpt lat="35.0934935" lon="32.496706"><ele>16.7</ele><time>2015-04-25T08:06:14.0000000+00:00</time></trkpt><trkpt lat="35.0934456" lon="32.4966712"><ele>16.3</ele><time>2015-04-25T08:06:15.0000000+00:00</time></trkpt><trkpt lat="35.093397" lon="32.4966314"><ele>16.1</ele><time>2015-04-25T08:06:16.0000000+00:00</time></trkpt><trkpt lat="35.0933507" lon="32.4965992"><ele>16.0</ele><time>2015-04-25T08:06:17.0000000+00:00</time></trkpt><trkpt lat="35.093303" lon="32.4965592"><ele>16.0</ele><time>2015-04-25T08:06:18.0000000+00:00</time></trkpt><trkpt lat="35.093258" lon="32.4965163"><ele>16.0</ele><time>2015-04-25T08:06:19.0000000+00:00</time></trkpt><trkpt lat="35.0932073" lon="32.496476"><ele>15.9</ele><time>2015-04-25T08:06:20.0000000+00:00</time></trkpt><trkpt lat="35.0931558" lon="32.4964339"><ele>15.9</ele><time>2015-04-25T08:06:21.0000000+00:00</time></trkpt><trkpt lat="35.0931103" lon="32.4963963"><ele>15.9</ele><time>2015-04-25T08:06:22.0000000+00:00</time></trkpt><trkpt lat="35.0930669" lon="32.4963574"><ele>15.9</ele><time>2015-04-25T08:06:23.0000000+00:00</time></trkpt><trkpt lat="35.0930184" lon="32.4963168"><ele>15.9</ele><time>2015-04-25T08:06:24.0000000+00:00</time></trkpt><trkpt lat="35.0929684" lon="32.4962858"><ele>15.9</ele><time>2015-04-25T08:06:25.0000000+00:00</time></trkpt><trkpt lat="35.0929199" lon="32.4962465"><ele>15.9</ele><time>2015-04-25T08:06:26.0000000+00:00</time></trkpt><trkpt lat="35.0928756" lon="32.496206"><ele>15.9</ele><time>2015-04-25T08:06:27.0000000+00:00</time></trkpt><trkpt lat="35.0928287" lon="32.4961666"><ele>15.9</ele><time>2015-04-25T08:06:28.0000000+00:00</time></trkpt><trkpt lat="35.0927875" lon="32.4961341"><ele>15.9</ele><time>2015-04-25T08:06:29.0000000+00:00</time></trkpt><trkpt lat="35.0927492" lon="32.4961021"><ele>15.4</ele><time>2015-04-25T08:06:30.0000000+00:00</time></trkpt><trkpt lat="35.0927144" lon="32.4960616"><ele>15.7</ele><time>2015-04-25T08:06:31.0000000+00:00</time></trkpt><trkpt lat="35.0926707" lon="32.4960266"><ele>15.8</ele><time>2015-04-25T08:06:32.0000000+00:00</time></trkpt><trkpt lat="35.0926218" lon="32.4959876"><ele>15.4</ele><time>2015-04-25T08:06:33.0000000+00:00</time></trkpt><trkpt lat="35.0925745" lon="32.495948"><ele>15.1</ele><time>2015-04-25T08:06:34.0000000+00:00</time></trkpt><trkpt lat="35.0925267" lon="32.4959177"><ele>15.0</ele><time>2015-04-25T08:06:35.0000000+00:00</time></trkpt><trkpt lat="35.0924786" lon="32.4958781"><ele>15.0</ele><time>2015-04-25T08:06:36.0000000+00:00</time></trkpt><trkpt lat="35.0924249" lon="32.4958408"><ele>15.0</ele><time>2015-04-25T08:06:37.0000000+00:00</time></trkpt><trkpt lat="35.0923791" lon="32.4958034"><ele>14.9</ele><time>2015-04-25T08:06:38.0000000+00:00</time></trkpt><trkpt lat="35.0923396" lon="32.4957604"><ele>14.9</ele><time>2015-04-25T08:06:39.0000000+00:00</time></trkpt><trkpt lat="35.0922922" lon="32.4957225"><ele>14.9</ele><time>2015-04-25T08:06:40.0000000+00:00</time></trkpt><trkpt lat="35.0922503" lon="32.4956762"><ele>14.9</ele><time>2015-04-25T08:06:41.0000000+00:00</time></trkpt><trkpt lat="35.0922057" lon="32.4956383"><ele>14.9</ele><time>2015-04-25T08:06:42.0000000+00:00</time></trkpt><trkpt lat="35.0921612" lon="32.4955983"><ele>14.9</ele><time>2015-04-25T08:06:43.0000000+00:00</time></trkpt><trkpt lat="35.0921149" lon="32.4955578"><ele>14.9</ele><time>2015-04-25T08:06:44.0000000+00:00</time></trkpt><trkpt lat="35.0920646" lon="32.4955198"><ele>14.9</ele><time>2015-04-25T08:06:45.0000000+00:00</time></trkpt><trkpt lat="35.0920197" lon="32.4954827"><ele>14.9</ele><time>2015-04-25T08:06:46.0000000+00:00</time></trkpt><trkpt lat="35.0919688" lon="32.4954398"><ele>14.9</ele><time>2015-04-25T08:06:47.0000000+00:00</time></trkpt><trkpt lat="35.0919177" lon="32.4953954"><ele>14.9</ele><time>2015-04-25T08:06:48.0000000+00:00</time></trkpt><trkpt lat="35.0918701" lon="32.4953549"><ele>14.9</ele><time>2015-04-25T08:06:49.0000000+00:00</time></trkpt><trkpt lat="35.0918192" lon="32.4953109"><ele>14.9</ele><time>2015-04-25T08:06:50.0000000+00:00</time></trkpt><trkpt lat="35.0917756" lon="32.4952682"><ele>14.9</ele><time>2015-04-25T08:06:51.0000000+00:00</time></trkpt><trkpt lat="35.0917254" lon="32.4952232"><ele>14.9</ele><time>2015-04-25T08:06:52.0000000+00:00</time></trkpt><trkpt lat="35.0916761" lon="32.495177"><ele>14.9</ele><time>2015-04-25T08:06:53.0000000+00:00</time></trkpt><trkpt lat="35.091629" lon="32.4951353"><ele>14.9</ele><time>2015-04-25T08:06:54.0000000+00:00</time></trkpt><trkpt lat="35.0915765" lon="32.4950938"><ele>15.4</ele><time>2015-04-25T08:06:55.0000000+00:00</time></trkpt><trkpt lat="35.0915246" lon="32.4950495"><ele>15.7</ele><time>2015-04-25T08:06:56.0000000+00:00</time></trkpt><trkpt lat="35.09148" lon="32.4950051"><ele>15.8</ele><time>2015-04-25T08:06:57.0000000+00:00</time></trkpt><trkpt lat="35.0914314" lon="32.4949606"><ele>15.9</ele><time>2015-04-25T08:06:58.0000000+00:00</time></trkpt><trkpt lat="35.0913765" lon="32.4949191"><ele>15.4</ele><time>2015-04-25T08:06:59.0000000+00:00</time></trkpt><trkpt lat="35.0913231" lon="32.4948712"><ele>15.2</ele><time>2015-04-25T08:07:00.0000000+00:00</time></trkpt><trkpt lat="35.091275" lon="32.4948262"><ele>15.0</ele><time>2015-04-25T08:07:01.0000000+00:00</time></trkpt><trkpt lat="35.0912317" lon="32.4947808"><ele>15.0</ele><time>2015-04-25T08:07:02.0000000+00:00</time></trkpt><trkpt lat="35.0911857" lon="32.4947376"><ele>15.5</ele><time>2015-04-25T08:07:03.0000000+00:00</time></trkpt><trkpt lat="35.0910979" lon="32.4946592"><ele>15.1</ele><time>2015-04-25T08:07:05.0000000+00:00</time></trkpt><trkpt lat="35.0910504" lon="32.4946145"><ele>15.5</ele><time>2015-04-25T08:07:06.0000000+00:00</time></trkpt><trkpt lat="35.0909997" lon="32.4945805"><ele>15.2</ele><time>2015-04-25T08:07:07.0000000+00:00</time></trkpt><trkpt lat="35.0909511" lon="32.4945439"><ele>15.6</ele><time>2015-04-25T08:07:08.0000000+00:00</time></trkpt><trkpt lat="35.0909119" lon="32.4945096"><ele>16.3</ele><time>2015-04-25T08:07:09.0000000+00:00</time></trkpt><trkpt lat="35.090863" lon="32.4944653"><ele>16.6</ele><time>2015-04-25T08:07:10.0000000+00:00</time></trkpt><trkpt lat="35.090828" lon="32.4944299"><ele>16.8</ele><time>2015-04-25T08:07:11.0000000+00:00</time></trkpt><trkpt lat="35.0907917" lon="32.494391"><ele>16.8</ele><time>2015-04-25T08:07:12.0000000+00:00</time></trkpt><trkpt lat="35.0907535" lon="32.4943559"><ele>16.9</ele><time>2015-04-25T08:07:13.0000000+00:00</time></trkpt><trkpt lat="35.0907163" lon="32.4943178"><ele>16.9</ele><time>2015-04-25T08:07:14.0000000+00:00</time></trkpt><trkpt lat="35.0906386" lon="32.4942526"><ele>18.4</ele><time>2015-04-25T08:07:16.0000000+00:00</time></trkpt><trkpt lat="35.0905886" lon="32.4942093"><ele>18.2</ele><time>2015-04-25T08:07:17.0000000+00:00</time></trkpt><trkpt lat="35.0905505" lon="32.4941763"><ele>18.1</ele><time>2015-04-25T08:07:18.0000000+00:00</time></trkpt><trkpt lat="35.090514" lon="32.4941381"><ele>18.0</ele><time>2015-04-25T08:07:19.0000000+00:00</time></trkpt><trkpt lat="35.0904775" lon="32.4940997"><ele>18.0</ele><time>2015-04-25T08:07:20.0000000+00:00</time></trkpt><trkpt lat="35.0904404" lon="32.494064"><ele>17.4</ele><time>2015-04-25T08:07:21.0000000+00:00</time></trkpt><trkpt lat="35.0903984" lon="32.4940306"><ele>17.2</ele><time>2015-04-25T08:07:22.0000000+00:00</time></trkpt><trkpt lat="35.0903206" lon="32.493964"><ele>17.7</ele><time>2015-04-25T08:07:24.0000000+00:00</time></trkpt><trkpt lat="35.0902821" lon="32.4939322"><ele>18.3</ele><time>2015-04-25T08:07:25.0000000+00:00</time></trkpt><trkpt lat="35.0902434" lon="32.4938945"><ele>18.6</ele><time>2015-04-25T08:07:26.0000000+00:00</time></trkpt><trkpt lat="35.0902046" lon="32.4938465"><ele>19.3</ele><time>2015-04-25T08:07:27.0000000+00:00</time></trkpt><trkpt lat="35.0901625" lon="32.4938038"><ele>19.1</ele><time>2015-04-25T08:07:28.0000000+00:00</time></trkpt><trkpt lat="35.0901229" lon="32.4937579"><ele>19.0</ele><time>2015-04-25T08:07:29.0000000+00:00</time></trkpt><trkpt lat="35.0900873" lon="32.4937065"><ele>19.0</ele><time>2015-04-25T08:07:30.0000000+00:00</time></trkpt><trkpt lat="35.0900441" lon="32.4936753"><ele>19.0</ele><time>2015-04-25T08:07:31.0000000+00:00</time></trkpt><trkpt lat="35.0899993" lon="32.4936391"><ele>18.4</ele><time>2015-04-25T08:07:32.0000000+00:00</time></trkpt><trkpt lat="35.0899555" lon="32.4935985"><ele>18.2</ele><time>2015-04-25T08:07:33.0000000+00:00</time></trkpt><trkpt lat="35.0899144" lon="32.4935586"><ele>18.1</ele><time>2015-04-25T08:07:34.0000000+00:00</time></trkpt><trkpt lat="35.0898718" lon="32.4935109"><ele>18.0</ele><time>2015-04-25T08:07:35.0000000+00:00</time></trkpt><trkpt lat="35.0898244" lon="32.4934677"><ele>18.0</ele><time>2015-04-25T08:07:36.0000000+00:00</time></trkpt><trkpt lat="35.0897769" lon="32.4934401"><ele>17.9</ele><time>2015-04-25T08:07:37.0000000+00:00</time></trkpt><trkpt lat="35.0897293" lon="32.4933953"><ele>17.9</ele><time>2015-04-25T08:07:38.0000000+00:00</time></trkpt><trkpt lat="35.0896841" lon="32.4933666"><ele>18.4</ele><time>2015-04-25T08:07:39.0000000+00:00</time></trkpt><trkpt lat="35.089632" lon="32.4933123"><ele>18.7</ele><time>2015-04-25T08:07:40.0000000+00:00</time></trkpt><trkpt lat="35.0895798" lon="32.4932701"><ele>19.3</ele><time>2015-04-25T08:07:41.0000000+00:00</time></trkpt><trkpt lat="35.0895438" lon="32.4932312"><ele>19.1</ele><time>2015-04-25T08:07:42.0000000+00:00</time></trkpt><trkpt lat="35.0894974" lon="32.4931877"><ele>19.0</ele><time>2015-04-25T08:07:43.0000000+00:00</time></trkpt><trkpt lat="35.0894573" lon="32.493146"><ele>18.5</ele><time>2015-04-25T08:07:44.0000000+00:00</time></trkpt><trkpt lat="35.0894176" lon="32.4931068"><ele>18.2</ele><time>2015-04-25T08:07:45.0000000+00:00</time></trkpt><trkpt lat="35.0893815" lon="32.4930593"><ele>18.1</ele><time>2015-04-25T08:07:46.0000000+00:00</time></trkpt><trkpt lat="35.089342" lon="32.4930214"><ele>17.5</ele><time>2015-04-25T08:07:47.0000000+00:00</time></trkpt><trkpt lat="35.0893029" lon="32.4929831"><ele>17.2</ele><time>2015-04-25T08:07:48.0000000+00:00</time></trkpt><trkpt lat="35.0892524" lon="32.4929478"><ele>17.1</ele><time>2015-04-25T08:07:49.0000000+00:00</time></trkpt><trkpt lat="35.0892066" lon="32.4929057"><ele>16.5</ele><time>2015-04-25T08:07:50.0000000+00:00</time></trkpt><trkpt lat="35.0891599" lon="32.4928699"><ele>16.2</ele><time>2015-04-25T08:07:51.0000000+00:00</time></trkpt><trkpt lat="35.089118" lon="32.4928285"><ele>16.1</ele><time>2015-04-25T08:07:52.0000000+00:00</time></trkpt><trkpt lat="35.0890682" lon="32.492795"><ele>15.5</ele><time>2015-04-25T08:07:53.0000000+00:00</time></trkpt><trkpt lat="35.0889998" lon="32.4927238"><ele>15.1</ele><time>2015-04-25T08:07:55.0000000+00:00</time></trkpt><trkpt lat="35.0889577" lon="32.4926848"><ele>15.0</ele><time>2015-04-25T08:07:56.0000000+00:00</time></trkpt><trkpt lat="35.0888855" lon="32.4926088"><ele>15.7</ele><time>2015-04-25T08:07:58.0000000+00:00</time></trkpt><trkpt lat="35.0888394" lon="32.4925619"><ele>16.3</ele><time>2015-04-25T08:07:59.0000000+00:00</time></trkpt><trkpt lat="35.0887992" lon="32.492518"><ele>16.1</ele><time>2015-04-25T08:08:00.0000000+00:00</time></trkpt><trkpt lat="35.0887515" lon="32.4924789"><ele>16.0</ele><time>2015-04-25T08:08:01.0000000+00:00</time></trkpt><trkpt lat="35.0887017" lon="32.4924488"><ele>16.0</ele><time>2015-04-25T08:08:02.0000000+00:00</time></trkpt><trkpt lat="35.0886646" lon="32.4924081"><ele>16.5</ele><time>2015-04-25T08:08:03.0000000+00:00</time></trkpt><trkpt lat="35.088622" lon="32.4923637"><ele>16.2</ele><time>2015-04-25T08:08:04.0000000+00:00</time></trkpt><trkpt lat="35.088582" lon="32.4923292"><ele>16.6</ele><time>2015-04-25T08:08:05.0000000+00:00</time></trkpt><trkpt lat="35.0885414" lon="32.4922969"><ele>17.2</ele><time>2015-04-25T08:08:06.0000000+00:00</time></trkpt><trkpt lat="35.0884987" lon="32.4922561"><ele>18.1</ele><time>2015-04-25T08:08:07.0000000+00:00</time></trkpt><trkpt lat="35.0884512" lon="32.4922205"><ele>18.5</ele><time>2015-04-25T08:08:08.0000000+00:00</time></trkpt><trkpt lat="35.0884104" lon="32.4921843"><ele>18.7</ele><time>2015-04-25T08:08:09.0000000+00:00</time></trkpt><trkpt lat="35.0883648" lon="32.4921482"><ele>19.3</ele><time>2015-04-25T08:08:10.0000000+00:00</time></trkpt><trkpt lat="35.0883228" lon="32.4921192"><ele>19.6</ele><time>2015-04-25T08:08:11.0000000+00:00</time></trkpt><trkpt lat="35.0882688" lon="32.4920808"><ele>19.8</ele><time>2015-04-25T08:08:12.0000000+00:00</time></trkpt><trkpt lat="35.0882233" lon="32.4920353"><ele>19.4</ele><time>2015-04-25T08:08:13.0000000+00:00</time></trkpt><trkpt lat="35.0881786" lon="32.4920041"><ele>19.6</ele><time>2015-04-25T08:08:14.0000000+00:00</time></trkpt><trkpt lat="35.0881245" lon="32.4919624"><ele>19.8</ele><time>2015-04-25T08:08:15.0000000+00:00</time></trkpt><trkpt lat="35.0880785" lon="32.4919276"><ele>19.9</ele><time>2015-04-25T08:08:16.0000000+00:00</time></trkpt><trkpt lat="35.0880249" lon="32.4918954"><ele>19.9</ele><time>2015-04-25T08:08:17.0000000+00:00</time></trkpt><trkpt lat="35.0879717" lon="32.4918614"><ele>19.9</ele><time>2015-04-25T08:08:18.0000000+00:00</time></trkpt><trkpt lat="35.087923" lon="32.4918259"><ele>19.9</ele><time>2015-04-25T08:08:19.0000000+00:00</time></trkpt><trkpt lat="35.0878745" lon="32.491792"><ele>19.4</ele><time>2015-04-25T08:08:20.0000000+00:00</time></trkpt><trkpt lat="35.0878225" lon="32.4917577"><ele>19.2</ele><time>2015-04-25T08:08:21.0000000+00:00</time></trkpt><trkpt lat="35.0877792" lon="32.4917327"><ele>19.1</ele><time>2015-04-25T08:08:22.0000000+00:00</time></trkpt><trkpt lat="35.0877262" lon="32.4917041"><ele>19.0</ele><time>2015-04-25T08:08:23.0000000+00:00</time></trkpt><trkpt lat="35.0876451" lon="32.491652"><ele>19.7</ele><time>2015-04-25T08:08:25.0000000+00:00</time></trkpt><trkpt lat="35.0876044" lon="32.4916185"><ele>20.3</ele><time>2015-04-25T08:08:26.0000000+00:00</time></trkpt><trkpt lat="35.0875651" lon="32.4915895"><ele>20.6</ele><time>2015-04-25T08:08:27.0000000+00:00</time></trkpt><trkpt lat="35.0875166" lon="32.4915564"><ele>20.8</ele><time>2015-04-25T08:08:28.0000000+00:00</time></trkpt><trkpt lat="35.0874287" lon="32.4914925"><ele>20.4</ele><time>2015-04-25T08:08:30.0000000+00:00</time></trkpt><trkpt lat="35.0873829" lon="32.491451"><ele>20.2</ele><time>2015-04-25T08:08:31.0000000+00:00</time></trkpt><trkpt lat="35.0873113" lon="32.4913827"><ele>19.0</ele><time>2015-04-25T08:08:33.0000000+00:00</time></trkpt><trkpt lat="35.0872596" lon="32.4913526"><ele>19.0</ele><time>2015-04-25T08:08:34.0000000+00:00</time></trkpt><trkpt lat="35.0872135" lon="32.491322"><ele>18.9</ele><time>2015-04-25T08:08:35.0000000+00:00</time></trkpt><trkpt lat="35.0871614" lon="32.4912896"><ele>19.4</ele><time>2015-04-25T08:08:36.0000000+00:00</time></trkpt><trkpt lat="35.0871149" lon="32.4912568"><ele>19.2</ele><time>2015-04-25T08:08:37.0000000+00:00</time></trkpt><trkpt lat="35.0870717" lon="32.4912215"><ele>19.1</ele><time>2015-04-25T08:08:38.0000000+00:00</time></trkpt><trkpt lat="35.0870282" lon="32.4911888"><ele>19.0</ele><time>2015-04-25T08:08:39.0000000+00:00</time></trkpt><trkpt lat="35.0869754" lon="32.4911473"><ele>19.0</ele><time>2015-04-25T08:08:40.0000000+00:00</time></trkpt><trkpt lat="35.0869311" lon="32.4911209"><ele>18.9</ele><time>2015-04-25T08:08:41.0000000+00:00</time></trkpt><trkpt lat="35.0868538" lon="32.4910669"><ele>19.7</ele><time>2015-04-25T08:08:43.0000000+00:00</time></trkpt><trkpt lat="35.0868067" lon="32.4910261"><ele>19.3</ele><time>2015-04-25T08:08:44.0000000+00:00</time></trkpt><trkpt lat="35.086755" lon="32.4909917"><ele>19.1</ele><time>2015-04-25T08:08:45.0000000+00:00</time></trkpt><trkpt lat="35.086711" lon="32.4909515"><ele>19.0</ele><time>2015-04-25T08:08:46.0000000+00:00</time></trkpt><trkpt lat="35.0866588" lon="32.4909124"><ele>19.0</ele><time>2015-04-25T08:08:47.0000000+00:00</time></trkpt><trkpt lat="35.0866126" lon="32.4908747"><ele>18.5</ele><time>2015-04-25T08:08:48.0000000+00:00</time></trkpt><trkpt lat="35.0865757" lon="32.4908426"><ele>18.7</ele><time>2015-04-25T08:08:49.0000000+00:00</time></trkpt><trkpt lat="35.0865284" lon="32.4908058"><ele>18.8</ele><time>2015-04-25T08:08:50.0000000+00:00</time></trkpt><trkpt lat="35.0864503" lon="32.4907476"><ele>20.2</ele><time>2015-04-25T08:08:52.0000000+00:00</time></trkpt><trkpt lat="35.0864103" lon="32.4907117"><ele>20.5</ele><time>2015-04-25T08:08:53.0000000+00:00</time></trkpt><trkpt lat="35.0863678" lon="32.4906717"><ele>20.2</ele><time>2015-04-25T08:08:54.0000000+00:00</time></trkpt><trkpt lat="35.0863204" lon="32.4906323"><ele>20.1</ele><time>2015-04-25T08:08:55.0000000+00:00</time></trkpt><trkpt lat="35.0862802" lon="32.4906056"><ele>20.0</ele><time>2015-04-25T08:08:56.0000000+00:00</time></trkpt><trkpt lat="35.0862357" lon="32.4905671"><ele>20.0</ele><time>2015-04-25T08:08:57.0000000+00:00</time></trkpt><trkpt lat="35.0861943" lon="32.4905245"><ele>19.9</ele><time>2015-04-25T08:08:58.0000000+00:00</time></trkpt><trkpt lat="35.0861082" lon="32.4904555"><ele>20.2</ele><time>2015-04-25T08:09:00.0000000+00:00</time></trkpt><trkpt lat="35.0860675" lon="32.4904155"><ele>20.1</ele><time>2015-04-25T08:09:01.0000000+00:00</time></trkpt><trkpt lat="35.0860249" lon="32.4903827"><ele>20.0</ele><time>2015-04-25T08:09:02.0000000+00:00</time></trkpt><trkpt lat="35.0859822" lon="32.4903461"><ele>20.5</ele><time>2015-04-25T08:09:03.0000000+00:00</time></trkpt><trkpt lat="35.085939" lon="32.4903084"><ele>20.7</ele><time>2015-04-25T08:09:04.0000000+00:00</time></trkpt><trkpt lat="35.0858948" lon="32.4902687"><ele>20.8</ele><time>2015-04-25T08:09:05.0000000+00:00</time></trkpt><trkpt lat="35.0858455" lon="32.4902271"><ele>20.4</ele><time>2015-04-25T08:09:06.0000000+00:00</time></trkpt><trkpt lat="35.0858105" lon="32.4901912"><ele>20.2</ele><time>2015-04-25T08:09:07.0000000+00:00</time></trkpt><trkpt lat="35.0857688" lon="32.4901418"><ele>20.0</ele><time>2015-04-25T08:09:08.0000000+00:00</time></trkpt><trkpt lat="35.0857266" lon="32.4901086"><ele>20.5</ele><time>2015-04-25T08:09:09.0000000+00:00</time></trkpt><trkpt lat="35.085687" lon="32.4900698"><ele>20.2</ele><time>2015-04-25T08:09:10.0000000+00:00</time></trkpt><trkpt lat="35.0856429" lon="32.4900352"><ele>20.1</ele><time>2015-04-25T08:09:11.0000000+00:00</time></trkpt><trkpt lat="35.0856021" lon="32.4899958"><ele>19.5</ele><time>2015-04-25T08:09:12.0000000+00:00</time></trkpt><trkpt lat="35.0855568" lon="32.4899569"><ele>19.7</ele><time>2015-04-25T08:09:13.0000000+00:00</time></trkpt><trkpt lat="35.0855202" lon="32.4899144"><ele>19.8</ele><time>2015-04-25T08:09:14.0000000+00:00</time></trkpt><trkpt lat="35.0854812" lon="32.4898767"><ele>19.9</ele><time>2015-04-25T08:09:15.0000000+00:00</time></trkpt><trkpt lat="35.085439" lon="32.4898306"><ele>19.9</ele><time>2015-04-25T08:09:16.0000000+00:00</time></trkpt><trkpt lat="35.0854004" lon="32.489791"><ele>19.4</ele><time>2015-04-25T08:09:17.0000000+00:00</time></trkpt><trkpt lat="35.0853582" lon="32.4897492"><ele>19.2</ele><time>2015-04-25T08:09:18.0000000+00:00</time></trkpt><trkpt lat="35.0853101" lon="32.4897148"><ele>19.1</ele><time>2015-04-25T08:09:19.0000000+00:00</time></trkpt><trkpt lat="35.0852701" lon="32.4896698"><ele>19.5</ele><time>2015-04-25T08:09:20.0000000+00:00</time></trkpt><trkpt lat="35.0852265" lon="32.4896336"><ele>19.7</ele><time>2015-04-25T08:09:21.0000000+00:00</time></trkpt><trkpt lat="35.0851845" lon="32.4895903"><ele>19.8</ele><time>2015-04-25T08:09:22.0000000+00:00</time></trkpt><trkpt lat="35.0851378" lon="32.48956"><ele>19.9</ele><time>2015-04-25T08:09:23.0000000+00:00</time></trkpt><trkpt lat="35.0850846" lon="32.4895112"><ele>19.9</ele><time>2015-04-25T08:09:24.0000000+00:00</time></trkpt><trkpt lat="35.0850393" lon="32.489468"><ele>19.9</ele><time>2015-04-25T08:09:25.0000000+00:00</time></trkpt><trkpt lat="35.0849893" lon="32.4894209"><ele>19.4</ele><time>2015-04-25T08:09:26.0000000+00:00</time></trkpt><trkpt lat="35.0849438" lon="32.4893804"><ele>18.7</ele><time>2015-04-25T08:09:27.0000000+00:00</time></trkpt><trkpt lat="35.0849059" lon="32.4893497"><ele>18.8</ele><time>2015-04-25T08:09:28.0000000+00:00</time></trkpt><trkpt lat="35.0848613" lon="32.4893077"><ele>19.4</ele><time>2015-04-25T08:09:29.0000000+00:00</time></trkpt><trkpt lat="35.0848245" lon="32.4892742"><ele>19.1</ele><time>2015-04-25T08:09:30.0000000+00:00</time></trkpt><trkpt lat="35.08478" lon="32.4892445"><ele>19.0</ele><time>2015-04-25T08:09:31.0000000+00:00</time></trkpt><trkpt lat="35.0847338" lon="32.4891929"><ele>19.0</ele><time>2015-04-25T08:09:32.0000000+00:00</time></trkpt><trkpt lat="35.0846909" lon="32.4891537"><ele>19.0</ele><time>2015-04-25T08:09:33.0000000+00:00</time></trkpt><trkpt lat="35.0846451" lon="32.4891171"><ele>18.9</ele><time>2015-04-25T08:09:34.0000000+00:00</time></trkpt><trkpt lat="35.0845963" lon="32.4890738"><ele>18.4</ele><time>2015-04-25T08:09:35.0000000+00:00</time></trkpt><trkpt lat="35.0845524" lon="32.489028"><ele>18.2</ele><time>2015-04-25T08:09:36.0000000+00:00</time></trkpt><trkpt lat="35.0845118" lon="32.4889902"><ele>18.1</ele><time>2015-04-25T08:09:37.0000000+00:00</time></trkpt><trkpt lat="35.0844633" lon="32.4889439"><ele>17.5</ele><time>2015-04-25T08:09:38.0000000+00:00</time></trkpt><trkpt lat="35.0844222" lon="32.4889023"><ele>16.7</ele><time>2015-04-25T08:09:39.0000000+00:00</time></trkpt><trkpt lat="35.0843754" lon="32.4888637"><ele>16.8</ele><time>2015-04-25T08:09:40.0000000+00:00</time></trkpt><trkpt lat="35.0843394" lon="32.4888239"><ele>16.4</ele><time>2015-04-25T08:09:41.0000000+00:00</time></trkpt><trkpt lat="35.0842902" lon="32.4887808"><ele>16.2</ele><time>2015-04-25T08:09:42.0000000+00:00</time></trkpt><trkpt lat="35.0842468" lon="32.4887471"><ele>16.5</ele><time>2015-04-25T08:09:43.0000000+00:00</time></trkpt><trkpt lat="35.084208" lon="32.4887132"><ele>16.7</ele><time>2015-04-25T08:09:44.0000000+00:00</time></trkpt><trkpt lat="35.0841611" lon="32.4886846"><ele>17.3</ele><time>2015-04-25T08:09:45.0000000+00:00</time></trkpt><trkpt lat="35.0841199" lon="32.4886444"><ele>17.1</ele><time>2015-04-25T08:09:46.0000000+00:00</time></trkpt><trkpt lat="35.0840822" lon="32.4886063"><ele>17.0</ele><time>2015-04-25T08:09:47.0000000+00:00</time></trkpt><trkpt lat="35.0840055" lon="32.4885525"><ele>16.5</ele><time>2015-04-25T08:09:49.0000000+00:00</time></trkpt><trkpt lat="35.0839666" lon="32.4885232"><ele>16.2</ele><time>2015-04-25T08:09:50.0000000+00:00</time></trkpt><trkpt lat="35.0839224" lon="32.4884836"><ele>16.1</ele><time>2015-04-25T08:09:51.0000000+00:00</time></trkpt><trkpt lat="35.0838798" lon="32.4884479"><ele>16.0</ele><time>2015-04-25T08:09:52.0000000+00:00</time></trkpt><trkpt lat="35.0838391" lon="32.4884125"><ele>16.5</ele><time>2015-04-25T08:09:53.0000000+00:00</time></trkpt><trkpt lat="35.0837961" lon="32.4883819"><ele>17.2</ele><time>2015-04-25T08:09:54.0000000+00:00</time></trkpt><trkpt lat="35.0837544" lon="32.4883488"><ele>18.1</ele><time>2015-04-25T08:09:55.0000000+00:00</time></trkpt><trkpt lat="35.0837075" lon="32.4883178"><ele>18.5</ele><time>2015-04-25T08:09:56.0000000+00:00</time></trkpt><trkpt lat="35.0836572" lon="32.4882785"><ele>18.7</ele><time>2015-04-25T08:09:57.0000000+00:00</time></trkpt><trkpt lat="35.0836131" lon="32.4882448"><ele>18.3</ele><time>2015-04-25T08:09:58.0000000+00:00</time></trkpt><trkpt lat="35.0835686" lon="32.4882139"><ele>18.6</ele><time>2015-04-25T08:09:59.0000000+00:00</time></trkpt><trkpt lat="35.0834924" lon="32.4881506"><ele>17.6</ele><time>2015-04-25T08:10:01.0000000+00:00</time></trkpt><trkpt lat="35.083423" lon="32.4880897"><ele>16.3</ele><time>2015-04-25T08:10:03.0000000+00:00</time></trkpt><trkpt lat="35.0833819" lon="32.4880542"><ele>16.6</ele><time>2015-04-25T08:10:04.0000000+00:00</time></trkpt><trkpt lat="35.0833079" lon="32.4880021"><ele>17.4</ele><time>2015-04-25T08:10:06.0000000+00:00</time></trkpt><trkpt lat="35.0832234" lon="32.487952"><ele>19.0</ele><time>2015-04-25T08:10:08.0000000+00:00</time></trkpt><trkpt lat="35.0831855" lon="32.4879143"><ele>19.5</ele><time>2015-04-25T08:10:09.0000000+00:00</time></trkpt><trkpt lat="35.0831201" lon="32.487861"><ele>20.6</ele><time>2015-04-25T08:10:11.0000000+00:00</time></trkpt><trkpt lat="35.0830828" lon="32.4878253"><ele>20.2</ele><time>2015-04-25T08:10:12.0000000+00:00</time></trkpt><trkpt lat="35.0830325" lon="32.4877991"><ele>20.1</ele><time>2015-04-25T08:10:13.0000000+00:00</time></trkpt><trkpt lat="35.0829948" lon="32.4877627"><ele>20.0</ele><time>2015-04-25T08:10:14.0000000+00:00</time></trkpt><trkpt lat="35.0829521" lon="32.4877332"><ele>19.5</ele><time>2015-04-25T08:10:15.0000000+00:00</time></trkpt><trkpt lat="35.0829087" lon="32.487692"><ele>19.2</ele><time>2015-04-25T08:10:16.0000000+00:00</time></trkpt><trkpt lat="35.0828666" lon="32.4876526"><ele>19.1</ele><time>2015-04-25T08:10:17.0000000+00:00</time></trkpt><trkpt lat="35.0828262" lon="32.4876176"><ele>19.0</ele><time>2015-04-25T08:10:18.0000000+00:00</time></trkpt><trkpt lat="35.0827857" lon="32.4875931"><ele>19.0</ele><time>2015-04-25T08:10:19.0000000+00:00</time></trkpt><trkpt lat="35.0827356" lon="32.4875619"><ele>18.9</ele><time>2015-04-25T08:10:20.0000000+00:00</time></trkpt><trkpt lat="35.0826924" lon="32.4875243"><ele>18.9</ele><time>2015-04-25T08:10:21.0000000+00:00</time></trkpt><trkpt lat="35.0826504" lon="32.4874878"><ele>19.4</ele><time>2015-04-25T08:10:22.0000000+00:00</time></trkpt><trkpt lat="35.0826017" lon="32.4874433"><ele>19.2</ele><time>2015-04-25T08:10:23.0000000+00:00</time></trkpt><trkpt lat="35.0825588" lon="32.4874024"><ele>19.6</ele><time>2015-04-25T08:10:24.0000000+00:00</time></trkpt><trkpt lat="35.0825146" lon="32.4873566"><ele>19.2</ele><time>2015-04-25T08:10:25.0000000+00:00</time></trkpt><trkpt lat="35.0824732" lon="32.4873068"><ele>19.1</ele><time>2015-04-25T08:10:26.0000000+00:00</time></trkpt><trkpt lat="35.0824046" lon="32.4872343"><ele>18.2</ele><time>2015-04-25T08:10:28.0000000+00:00</time></trkpt><trkpt lat="35.0823216" lon="32.4871708"><ele>18.3</ele><time>2015-04-25T08:10:30.0000000+00:00</time></trkpt><trkpt lat="35.0822734" lon="32.487127"><ele>18.1</ele><time>2015-04-25T08:10:31.0000000+00:00</time></trkpt><trkpt lat="35.0822302" lon="32.4870872"><ele>18.0</ele><time>2015-04-25T08:10:32.0000000+00:00</time></trkpt><trkpt lat="35.0821892" lon="32.4870503"><ele>17.5</ele><time>2015-04-25T08:10:33.0000000+00:00</time></trkpt><trkpt lat="35.082142" lon="32.4870018"><ele>17.2</ele><time>2015-04-25T08:10:34.0000000+00:00</time></trkpt><trkpt lat="35.0820961" lon="32.486961"><ele>17.1</ele><time>2015-04-25T08:10:35.0000000+00:00</time></trkpt><trkpt lat="35.0820489" lon="32.4869206"><ele>17.0</ele><time>2015-04-25T08:10:36.0000000+00:00</time></trkpt><trkpt lat="35.0820036" lon="32.4868897"><ele>16.5</ele><time>2015-04-25T08:10:37.0000000+00:00</time></trkpt><trkpt lat="35.0819618" lon="32.4868475"><ele>15.7</ele><time>2015-04-25T08:10:38.0000000+00:00</time></trkpt><trkpt lat="35.081916" lon="32.4868101"><ele>15.8</ele><time>2015-04-25T08:10:39.0000000+00:00</time></trkpt><trkpt lat="35.0818723" lon="32.4867688"><ele>15.4</ele><time>2015-04-25T08:10:40.0000000+00:00</time></trkpt><trkpt lat="35.0818337" lon="32.4867295"><ele>15.2</ele><time>2015-04-25T08:10:41.0000000+00:00</time></trkpt><trkpt lat="35.0817956" lon="32.4866924"><ele>15.0</ele><time>2015-04-25T08:10:42.0000000+00:00</time></trkpt><trkpt lat="35.0817557" lon="32.486657"><ele>14.5</ele><time>2015-04-25T08:10:43.0000000+00:00</time></trkpt><trkpt lat="35.0817122" lon="32.4866253"><ele>14.2</ele><time>2015-04-25T08:10:44.0000000+00:00</time></trkpt><trkpt lat="35.0816766" lon="32.4865906"><ele>14.6</ele><time>2015-04-25T08:10:45.0000000+00:00</time></trkpt><trkpt lat="35.0816085" lon="32.4865164"><ele>14.8</ele><time>2015-04-25T08:10:47.0000000+00:00</time></trkpt><trkpt lat="35.0815393" lon="32.4864385"><ele>14.9</ele><time>2015-04-25T08:10:49.0000000+00:00</time></trkpt><trkpt lat="35.0814814" lon="32.4863692"><ele>14.7</ele><time>2015-04-25T08:10:51.0000000+00:00</time></trkpt><trkpt lat="35.0814383" lon="32.4863458"><ele>15.3</ele><time>2015-04-25T08:10:52.0000000+00:00</time></trkpt><trkpt lat="35.0813731" lon="32.4862875"><ele>17.0</ele><time>2015-04-25T08:10:54.0000000+00:00</time></trkpt><trkpt lat="35.081336" lon="32.4862536"><ele>17.0</ele><time>2015-04-25T08:10:55.0000000+00:00</time></trkpt><trkpt lat="35.0812737" lon="32.4862007"><ele>16.9</ele><time>2015-04-25T08:10:57.0000000+00:00</time></trkpt><trkpt lat="35.0812239" lon="32.4861489"><ele>17.4</ele><time>2015-04-25T08:10:59.0000000+00:00</time></trkpt><trkpt lat="35.0811604" lon="32.4860897"><ele>17.8</ele><time>2015-04-25T08:11:01.0000000+00:00</time></trkpt><trkpt lat="35.0810918" lon="32.4860266"><ele>18.4</ele><time>2015-04-25T08:11:03.0000000+00:00</time></trkpt><trkpt lat="35.0810397" lon="32.4859748"><ele>18.2</ele><time>2015-04-25T08:11:04.0000000+00:00</time></trkpt><trkpt lat="35.0809516" lon="32.4859182"><ele>19.7</ele><time>2015-04-25T08:11:06.0000000+00:00</time></trkpt><trkpt lat="35.0809091" lon="32.4858735"><ele>20.3</ele><time>2015-04-25T08:11:07.0000000+00:00</time></trkpt><trkpt lat="35.0808648" lon="32.4858321"><ele>20.6</ele><time>2015-04-25T08:11:08.0000000+00:00</time></trkpt><trkpt lat="35.0807876" lon="32.4857656"><ele>20.9</ele><time>2015-04-25T08:11:10.0000000+00:00</time></trkpt><trkpt lat="35.0807402" lon="32.4857206"><ele>20.9</ele><time>2015-04-25T08:11:11.0000000+00:00</time></trkpt><trkpt lat="35.080702" lon="32.4856847"><ele>20.4</ele><time>2015-04-25T08:11:12.0000000+00:00</time></trkpt><trkpt lat="35.0806649" lon="32.4856435"><ele>20.2</ele><time>2015-04-25T08:11:13.0000000+00:00</time></trkpt><trkpt lat="35.0806238" lon="32.4856173"><ele>20.6</ele><time>2015-04-25T08:11:14.0000000+00:00</time></trkpt><trkpt lat="35.080555" lon="32.4855393"><ele>20.8</ele><time>2015-04-25T08:11:16.0000000+00:00</time></trkpt><trkpt lat="35.08051" lon="32.4854977"><ele>20.4</ele><time>2015-04-25T08:11:17.0000000+00:00</time></trkpt><trkpt lat="35.0804198" lon="32.4854155"><ele>19.3</ele><time>2015-04-25T08:11:19.0000000+00:00</time></trkpt><trkpt lat="35.0803681" lon="32.4853671"><ele>19.6</ele><time>2015-04-25T08:11:20.0000000+00:00</time></trkpt><trkpt lat="35.0803234" lon="32.4853231"><ele>19.8</ele><time>2015-04-25T08:11:21.0000000+00:00</time></trkpt><trkpt lat="35.0802686" lon="32.4852942"><ele>19.9</ele><time>2015-04-25T08:11:22.0000000+00:00</time></trkpt><trkpt lat="35.0802231" lon="32.4852529"><ele>19.9</ele><time>2015-04-25T08:11:23.0000000+00:00</time></trkpt><trkpt lat="35.0801783" lon="32.4852039"><ele>19.4</ele><time>2015-04-25T08:11:24.0000000+00:00</time></trkpt><trkpt lat="35.0801432" lon="32.4851666"><ele>20.2</ele><time>2015-04-25T08:11:25.0000000+00:00</time></trkpt><trkpt lat="35.0800978" lon="32.4851207"><ele>20.1</ele><time>2015-04-25T08:11:26.0000000+00:00</time></trkpt><trkpt lat="35.0800556" lon="32.4850765"><ele>20.0</ele><time>2015-04-25T08:11:27.0000000+00:00</time></trkpt><trkpt lat="35.0800042" lon="32.4850386"><ele>20.0</ele><time>2015-04-25T08:11:28.0000000+00:00</time></trkpt><trkpt lat="35.0799559" lon="32.4850102"><ele>19.9</ele><time>2015-04-25T08:11:29.0000000+00:00</time></trkpt><trkpt lat="35.0799089" lon="32.4849627"><ele>20.4</ele><time>2015-04-25T08:11:30.0000000+00:00</time></trkpt><trkpt lat="35.0798668" lon="32.4849146"><ele>20.7</ele><time>2015-04-25T08:11:31.0000000+00:00</time></trkpt><trkpt lat="35.0798181" lon="32.4848731"><ele>19.8</ele><time>2015-04-25T08:11:32.0000000+00:00</time></trkpt><trkpt lat="35.0797649" lon="32.4848227"><ele>19.9</ele><time>2015-04-25T08:11:33.0000000+00:00</time></trkpt><trkpt lat="35.0797152" lon="32.4847769"><ele>19.9</ele><time>2015-04-25T08:11:34.0000000+00:00</time></trkpt><trkpt lat="35.07966" lon="32.4847231"><ele>19.4</ele><time>2015-04-25T08:11:35.0000000+00:00</time></trkpt><trkpt lat="35.0796103" lon="32.4846786"><ele>19.7</ele><time>2015-04-25T08:11:36.0000000+00:00</time></trkpt><trkpt lat="35.0795609" lon="32.4846251"><ele>19.8</ele><time>2015-04-25T08:11:37.0000000+00:00</time></trkpt><trkpt lat="35.0795173" lon="32.4845792"><ele>19.4</ele><time>2015-04-25T08:11:38.0000000+00:00</time></trkpt><trkpt lat="35.0794773" lon="32.4845272"><ele>19.1</ele><time>2015-04-25T08:11:39.0000000+00:00</time></trkpt><trkpt lat="35.0794275" lon="32.4844772"><ele>19.0</ele><time>2015-04-25T08:11:40.0000000+00:00</time></trkpt><trkpt lat="35.0793845" lon="32.484425"><ele>18.5</ele><time>2015-04-25T08:11:41.0000000+00:00</time></trkpt><trkpt lat="35.0793468" lon="32.4843932"><ele>18.2</ele><time>2015-04-25T08:11:42.0000000+00:00</time></trkpt><trkpt lat="35.0793044" lon="32.4843517"><ele>18.1</ele><time>2015-04-25T08:11:43.0000000+00:00</time></trkpt><trkpt lat="35.0792646" lon="32.4843109"><ele>18.0</ele><time>2015-04-25T08:11:44.0000000+00:00</time></trkpt><trkpt lat="35.079225" lon="32.4842611"><ele>18.0</ele><time>2015-04-25T08:11:45.0000000+00:00</time></trkpt><trkpt lat="35.0791862" lon="32.4842241"><ele>17.9</ele><time>2015-04-25T08:11:46.0000000+00:00</time></trkpt><trkpt lat="35.0791483" lon="32.4841809"><ele>17.9</ele><time>2015-04-25T08:11:47.0000000+00:00</time></trkpt><trkpt lat="35.0791132" lon="32.4841368"><ele>17.9</ele><time>2015-04-25T08:11:48.0000000+00:00</time></trkpt><trkpt lat="35.079061" lon="32.4840616"><ele>17.9</ele><time>2015-04-25T08:11:50.0000000+00:00</time></trkpt><trkpt lat="35.0790266" lon="32.4840114"><ele>17.9</ele><time>2015-04-25T08:11:51.0000000+00:00</time></trkpt><trkpt lat="35.078985" lon="32.4839779"><ele>17.9</ele><time>2015-04-25T08:11:52.0000000+00:00</time></trkpt><trkpt lat="35.0789457" lon="32.4839288"><ele>18.4</ele><time>2015-04-25T08:11:53.0000000+00:00</time></trkpt><trkpt lat="35.0789125" lon="32.4838847"><ele>18.2</ele><time>2015-04-25T08:11:54.0000000+00:00</time></trkpt><trkpt lat="35.0788809" lon="32.4838427"><ele>18.1</ele><time>2015-04-25T08:11:55.0000000+00:00</time></trkpt><trkpt lat="35.0788396" lon="32.4837989"><ele>18.0</ele><time>2015-04-25T08:11:56.0000000+00:00</time></trkpt><trkpt lat="35.078775" lon="32.483721"><ele>17.2</ele><time>2015-04-25T08:11:58.0000000+00:00</time></trkpt><trkpt lat="35.0787345" lon="32.4836803"><ele>17.1</ele><time>2015-04-25T08:11:59.0000000+00:00</time></trkpt><trkpt lat="35.0787" lon="32.4836405"><ele>17.0</ele><time>2015-04-25T08:12:00.0000000+00:00</time></trkpt><trkpt lat="35.0786637" lon="32.4836052"><ele>17.0</ele><time>2015-04-25T08:12:01.0000000+00:00</time></trkpt><trkpt lat="35.0786258" lon="32.4835623"><ele>16.9</ele><time>2015-04-25T08:12:02.0000000+00:00</time></trkpt><trkpt lat="35.0785914" lon="32.4835163"><ele>16.4</ele><time>2015-04-25T08:12:03.0000000+00:00</time></trkpt><trkpt lat="35.0785579" lon="32.4834636"><ele>16.7</ele><time>2015-04-25T08:12:04.0000000+00:00</time></trkpt><trkpt lat="35.0785177" lon="32.4834174"><ele>17.3</ele><time>2015-04-25T08:12:05.0000000+00:00</time></trkpt><trkpt lat="35.0784804" lon="32.4833678"><ele>17.1</ele><time>2015-04-25T08:12:06.0000000+00:00</time></trkpt><trkpt lat="35.078444" lon="32.4833146"><ele>17.5</ele><time>2015-04-25T08:12:07.0000000+00:00</time></trkpt><trkpt lat="35.0784012" lon="32.4832664"><ele>17.2</ele><time>2015-04-25T08:12:08.0000000+00:00</time></trkpt><trkpt lat="35.0783585" lon="32.4832286"><ele>16.6</ele><time>2015-04-25T08:12:09.0000000+00:00</time></trkpt><trkpt lat="35.078317" lon="32.4831806"><ele>16.8</ele><time>2015-04-25T08:12:10.0000000+00:00</time></trkpt><trkpt lat="35.0782816" lon="32.4831375"><ele>16.3</ele><time>2015-04-25T08:12:11.0000000+00:00</time></trkpt><trkpt lat="35.0782358" lon="32.4830854"><ele>16.1</ele><time>2015-04-25T08:12:12.0000000+00:00</time></trkpt><trkpt lat="35.0781957" lon="32.4830323"><ele>15.5</ele><time>2015-04-25T08:12:13.0000000+00:00</time></trkpt><trkpt lat="35.0781603" lon="32.4829889"><ele>15.7</ele><time>2015-04-25T08:12:14.0000000+00:00</time></trkpt><trkpt lat="35.0781192" lon="32.4829493"><ele>15.3</ele><time>2015-04-25T08:12:15.0000000+00:00</time></trkpt><trkpt lat="35.0780785" lon="32.4829074"><ele>15.6</ele><time>2015-04-25T08:12:16.0000000+00:00</time></trkpt><trkpt lat="35.0780399" lon="32.4828584"><ele>15.3</ele><time>2015-04-25T08:12:17.0000000+00:00</time></trkpt><trkpt lat="35.0780007" lon="32.4828178"><ele>15.1</ele><time>2015-04-25T08:12:18.0000000+00:00</time></trkpt><trkpt lat="35.077967" lon="32.4827758"><ele>15.5</ele><time>2015-04-25T08:12:19.0000000+00:00</time></trkpt><trkpt lat="35.0779298" lon="32.4827328"><ele>15.7</ele><time>2015-04-25T08:12:20.0000000+00:00</time></trkpt><trkpt lat="35.0778838" lon="32.4826937"><ele>15.8</ele><time>2015-04-25T08:12:21.0000000+00:00</time></trkpt><trkpt lat="35.0778449" lon="32.4826558"><ele>15.9</ele><time>2015-04-25T08:12:22.0000000+00:00</time></trkpt><trkpt lat="35.0778029" lon="32.4826209"><ele>15.9</ele><time>2015-04-25T08:12:23.0000000+00:00</time></trkpt><trkpt lat="35.07776" lon="32.482576"><ele>15.9</ele><time>2015-04-25T08:12:24.0000000+00:00</time></trkpt><trkpt lat="35.0777182" lon="32.4825321"><ele>15.9</ele><time>2015-04-25T08:12:25.0000000+00:00</time></trkpt><trkpt lat="35.0776554" lon="32.4824551"><ele>15.4</ele><time>2015-04-25T08:12:27.0000000+00:00</time></trkpt><trkpt lat="35.077606" lon="32.4824021"><ele>16.2</ele><time>2015-04-25T08:12:28.0000000+00:00</time></trkpt><trkpt lat="35.0775645" lon="32.4823595"><ele>16.6</ele><time>2015-04-25T08:12:29.0000000+00:00</time></trkpt><trkpt lat="35.0775233" lon="32.4823165"><ele>16.7</ele><time>2015-04-25T08:12:30.0000000+00:00</time></trkpt><trkpt lat="35.0774792" lon="32.4822748"><ele>16.8</ele><time>2015-04-25T08:12:31.0000000+00:00</time></trkpt><trkpt lat="35.0774419" lon="32.4822305"><ele>16.4</ele><time>2015-04-25T08:12:32.0000000+00:00</time></trkpt><trkpt lat="35.0773971" lon="32.4821984"><ele>16.2</ele><time>2015-04-25T08:12:33.0000000+00:00</time></trkpt><trkpt lat="35.0773578" lon="32.482161"><ele>15.5</ele><time>2015-04-25T08:12:34.0000000+00:00</time></trkpt><trkpt lat="35.0773116" lon="32.4821319"><ele>15.7</ele><time>2015-04-25T08:12:35.0000000+00:00</time></trkpt><trkpt lat="35.0772698" lon="32.4820926"><ele>15.8</ele><time>2015-04-25T08:12:36.0000000+00:00</time></trkpt><trkpt lat="35.077226" lon="32.4820608"><ele>15.9</ele><time>2015-04-25T08:12:37.0000000+00:00</time></trkpt><trkpt lat="35.0771342" lon="32.4820112"><ele>15.4</ele><time>2015-04-25T08:12:39.0000000+00:00</time></trkpt><trkpt lat="35.077092" lon="32.4819902"><ele>15.2</ele><time>2015-04-25T08:12:40.0000000+00:00</time></trkpt><trkpt lat="35.077044" lon="32.4819699"><ele>15.1</ele><time>2015-04-25T08:12:41.0000000+00:00</time></trkpt><trkpt lat="35.076998" lon="32.4819564"><ele>15.0</ele><time>2015-04-25T08:12:42.0000000+00:00</time></trkpt><trkpt lat="35.076915" lon="32.4819187"><ele>14.9</ele><time>2015-04-25T08:12:44.0000000+00:00</time></trkpt><trkpt lat="35.07687" lon="32.4818902"><ele>14.9</ele><time>2015-04-25T08:12:45.0000000+00:00</time></trkpt><trkpt lat="35.0767895" lon="32.4818417"><ele>14.2</ele><time>2015-04-25T08:12:47.0000000+00:00</time></trkpt><trkpt lat="35.0767358" lon="32.4818203"><ele>14.6</ele><time>2015-04-25T08:12:48.0000000+00:00</time></trkpt><trkpt lat="35.0766874" lon="32.4817994"><ele>16.2</ele><time>2015-04-25T08:12:49.0000000+00:00</time></trkpt><trkpt lat="35.0766378" lon="32.4817576"><ele>17.1</ele><time>2015-04-25T08:12:50.0000000+00:00</time></trkpt><trkpt lat="35.0765564" lon="32.4816865"><ele>17.7</ele><time>2015-04-25T08:12:52.0000000+00:00</time></trkpt><trkpt lat="35.0765158" lon="32.4816372"><ele>17.3</ele><time>2015-04-25T08:12:53.0000000+00:00</time></trkpt><trkpt lat="35.0764742" lon="32.4815788"><ele>17.1</ele><time>2015-04-25T08:12:54.0000000+00:00</time></trkpt><trkpt lat="35.0764324" lon="32.4815233"><ele>17.5</ele><time>2015-04-25T08:12:55.0000000+00:00</time></trkpt><trkpt lat="35.0763913" lon="32.4814603"><ele>17.7</ele><time>2015-04-25T08:12:56.0000000+00:00</time></trkpt><trkpt lat="35.0763493" lon="32.481397"><ele>17.8</ele><time>2015-04-25T08:12:57.0000000+00:00</time></trkpt><trkpt lat="35.0763162" lon="32.4813402"><ele>17.4</ele><time>2015-04-25T08:12:58.0000000+00:00</time></trkpt><trkpt lat="35.0762798" lon="32.4812835"><ele>17.2</ele><time>2015-04-25T08:12:59.0000000+00:00</time></trkpt><trkpt lat="35.0762382" lon="32.4812193"><ele>16.5</ele><time>2015-04-25T08:13:00.0000000+00:00</time></trkpt><trkpt lat="35.0762067" lon="32.4811639"><ele>15.7</ele><time>2015-04-25T08:13:01.0000000+00:00</time></trkpt><trkpt lat="35.0761741" lon="32.4811128"><ele>15.3</ele><time>2015-04-25T08:13:02.0000000+00:00</time></trkpt><trkpt lat="35.0761207" lon="32.4810525"><ele>15.6</ele><time>2015-04-25T08:13:03.0000000+00:00</time></trkpt><trkpt lat="35.0760821" lon="32.4810045"><ele>15.3</ele><time>2015-04-25T08:13:04.0000000+00:00</time></trkpt><trkpt lat="35.0760428" lon="32.4809578"><ele>15.1</ele><time>2015-04-25T08:13:05.0000000+00:00</time></trkpt><trkpt lat="35.076001" lon="32.4809024"><ele>15.0</ele><time>2015-04-25T08:13:06.0000000+00:00</time></trkpt><trkpt lat="35.0759636" lon="32.4808674"><ele>14.5</ele><time>2015-04-25T08:13:07.0000000+00:00</time></trkpt><trkpt lat="35.075926" lon="32.4808226"><ele>13.7</ele><time>2015-04-25T08:13:08.0000000+00:00</time></trkpt><trkpt lat="35.075877" lon="32.4807836"><ele>14.8</ele><time>2015-04-25T08:13:09.0000000+00:00</time></trkpt><trkpt lat="35.0758406" lon="32.4807437"><ele>15.4</ele><time>2015-04-25T08:13:10.0000000+00:00</time></trkpt><trkpt lat="35.0757984" lon="32.4806934"><ele>15.7</ele><time>2015-04-25T08:13:11.0000000+00:00</time></trkpt><trkpt lat="35.0757595" lon="32.4806474"><ele>15.8</ele><time>2015-04-25T08:13:12.0000000+00:00</time></trkpt><trkpt lat="35.0757098" lon="32.4806063"><ele>16.4</ele><time>2015-04-25T08:13:13.0000000+00:00</time></trkpt><trkpt lat="35.0756767" lon="32.4805641"><ele>16.6</ele><time>2015-04-25T08:13:14.0000000+00:00</time></trkpt><trkpt lat="35.0756472" lon="32.4805126"><ele>16.3</ele><time>2015-04-25T08:13:15.0000000+00:00</time></trkpt><trkpt lat="35.0756059" lon="32.480471"><ele>16.1</ele><time>2015-04-25T08:13:16.0000000+00:00</time></trkpt><trkpt lat="35.0755709" lon="32.4804212"><ele>16.0</ele><time>2015-04-25T08:13:17.0000000+00:00</time></trkpt><trkpt lat="35.0755357" lon="32.480381"><ele>15.5</ele><time>2015-04-25T08:13:18.0000000+00:00</time></trkpt><trkpt lat="35.0755029" lon="32.4803349"><ele>15.2</ele><time>2015-04-25T08:13:19.0000000+00:00</time></trkpt><trkpt lat="35.0754626" lon="32.4802876"><ele>15.1</ele><time>2015-04-25T08:13:20.0000000+00:00</time></trkpt><trkpt lat="35.075421" lon="32.4802458"><ele>15.0</ele><time>2015-04-25T08:13:21.0000000+00:00</time></trkpt><trkpt lat="35.075371" lon="32.4802109"><ele>15.0</ele><time>2015-04-25T08:13:22.0000000+00:00</time></trkpt><trkpt lat="35.0753288" lon="32.4801705"><ele>14.9</ele><time>2015-04-25T08:13:23.0000000+00:00</time></trkpt><trkpt lat="35.0752881" lon="32.4801339"><ele>14.9</ele><time>2015-04-25T08:13:24.0000000+00:00</time></trkpt><trkpt lat="35.0752547" lon="32.4800939"><ele>14.9</ele><time>2015-04-25T08:13:25.0000000+00:00</time></trkpt><trkpt lat="35.0752097" lon="32.4800371"><ele>15.7</ele><time>2015-04-25T08:13:27.0000000+00:00</time></trkpt><trkpt lat="35.0751726" lon="32.4799916"><ele>13.5</ele><time>2015-04-25T08:13:39.0000000+00:00</time></trkpt><trkpt lat="35.0751271" lon="32.4799489"><ele>14.3</ele><time>2015-04-25T08:13:42.0000000+00:00</time></trkpt><trkpt lat="35.0750916" lon="32.4799131"><ele>15.1</ele><time>2015-04-25T08:13:45.0000000+00:00</time></trkpt><trkpt lat="35.0750492" lon="32.4798862"><ele>15.3</ele><time>2015-04-25T08:14:16.0000000+00:00</time></trkpt><trkpt lat="35.0750224" lon="32.4798335"><ele>14.8</ele><time>2015-04-25T08:14:54.0000000+00:00</time></trkpt><trkpt lat="35.0749898" lon="32.4797921"><ele>14.9</ele><time>2015-04-25T08:14:57.0000000+00:00</time></trkpt><trkpt lat="35.0749475" lon="32.4797411"><ele>14.2</ele><time>2015-04-25T08:14:59.0000000+00:00</time></trkpt><trkpt lat="35.0748878" lon="32.4796747"><ele>14.0</ele><time>2015-04-25T08:15:01.0000000+00:00</time></trkpt><trkpt lat="35.0748289" lon="32.479602"><ele>13.4</ele><time>2015-04-25T08:15:03.0000000+00:00</time></trkpt><trkpt lat="35.0747703" lon="32.4795266"><ele>13.1</ele><time>2015-04-25T08:15:05.0000000+00:00</time></trkpt><trkpt lat="35.0747103" lon="32.4794571"><ele>13.0</ele><time>2015-04-25T08:15:07.0000000+00:00</time></trkpt><trkpt lat="35.0746468" lon="32.4793859"><ele>13.4</ele><time>2015-04-25T08:15:09.0000000+00:00</time></trkpt><trkpt lat="35.074586" lon="32.4793192"><ele>13.8</ele><time>2015-04-25T08:15:11.0000000+00:00</time></trkpt><trkpt lat="35.0745254" lon="32.479259"><ele>14.4</ele><time>2015-04-25T08:15:13.0000000+00:00</time></trkpt><trkpt lat="35.0744671" lon="32.4792039"><ele>13.5</ele><time>2015-04-25T08:15:15.0000000+00:00</time></trkpt><trkpt lat="35.0744084" lon="32.4791439"><ele>14.1</ele><time>2015-04-25T08:15:17.0000000+00:00</time></trkpt><trkpt lat="35.0743499" lon="32.4790891"><ele>14.7</ele><time>2015-04-25T08:15:19.0000000+00:00</time></trkpt><trkpt lat="35.0742895" lon="32.4790334"><ele>14.9</ele><time>2015-04-25T08:15:21.0000000+00:00</time></trkpt><trkpt lat="35.0742286" lon="32.4789719"><ele>15.4</ele><time>2015-04-25T08:15:23.0000000+00:00</time></trkpt><trkpt lat="35.0741822" lon="32.4789242"><ele>15.2</ele><time>2015-04-25T08:15:24.0000000+00:00</time></trkpt><trkpt lat="35.0741218" lon="32.4788547"><ele>15.0</ele><time>2015-04-25T08:15:26.0000000+00:00</time></trkpt><trkpt lat="35.0740878" lon="32.4788178"><ele>15.0</ele><time>2015-04-25T08:15:27.0000000+00:00</time></trkpt><trkpt lat="35.074032" lon="32.4787583"><ele>14.9</ele><time>2015-04-25T08:15:29.0000000+00:00</time></trkpt><trkpt lat="35.0739667" lon="32.4786987"><ele>14.9</ele><time>2015-04-25T08:15:31.0000000+00:00</time></trkpt><trkpt lat="35.0739339" lon="32.4786589"><ele>14.4</ele><time>2015-04-25T08:15:32.0000000+00:00</time></trkpt><trkpt lat="35.0738687" lon="32.4785884"><ele>14.1</ele><time>2015-04-25T08:15:34.0000000+00:00</time></trkpt><trkpt lat="35.0738342" lon="32.4785501"><ele>14.0</ele><time>2015-04-25T08:15:35.0000000+00:00</time></trkpt><trkpt lat="35.0738" lon="32.478507"><ele>14.0</ele><time>2015-04-25T08:15:36.0000000+00:00</time></trkpt><trkpt lat="35.0737594" lon="32.4784642"><ele>13.4</ele><time>2015-04-25T08:15:37.0000000+00:00</time></trkpt><trkpt lat="35.0737243" lon="32.4784291"><ele>13.7</ele><time>2015-04-25T08:15:38.0000000+00:00</time></trkpt><trkpt lat="35.0736619" lon="32.4783471"><ele>13.9</ele><time>2015-04-25T08:15:40.0000000+00:00</time></trkpt><trkpt lat="35.0736299" lon="32.4782952"><ele>13.4</ele><time>2015-04-25T08:15:41.0000000+00:00</time></trkpt><trkpt lat="35.0735619" lon="32.4782064"><ele>13.5</ele><time>2015-04-25T08:15:43.0000000+00:00</time></trkpt><trkpt lat="35.0735224" lon="32.4781582"><ele>13.2</ele><time>2015-04-25T08:15:44.0000000+00:00</time></trkpt><trkpt lat="35.0734768" lon="32.4781152"><ele>13.1</ele><time>2015-04-25T08:15:45.0000000+00:00</time></trkpt><trkpt lat="35.0734424" lon="32.4780685"><ele>13.0</ele><time>2015-04-25T08:15:46.0000000+00:00</time></trkpt><trkpt lat="35.0733803" lon="32.4779852"><ele>12.9</ele><time>2015-04-25T08:15:48.0000000+00:00</time></trkpt><trkpt lat="35.0733114" lon="32.4779134"><ele>11.7</ele><time>2015-04-25T08:15:50.0000000+00:00</time></trkpt><trkpt lat="35.0732695" lon="32.4778607"><ele>11.3</ele><time>2015-04-25T08:15:51.0000000+00:00</time></trkpt><trkpt lat="35.0732306" lon="32.4778185"><ele>11.6</ele><time>2015-04-25T08:15:52.0000000+00:00</time></trkpt><trkpt lat="35.0731972" lon="32.4777675"><ele>11.3</ele><time>2015-04-25T08:15:53.0000000+00:00</time></trkpt><trkpt lat="35.0731545" lon="32.4777251"><ele>11.6</ele><time>2015-04-25T08:15:54.0000000+00:00</time></trkpt><trkpt lat="35.0730816" lon="32.4776399"><ele>11.8</ele><time>2015-04-25T08:15:56.0000000+00:00</time></trkpt><trkpt lat="35.0730255" lon="32.4775564"><ele>10.7</ele><time>2015-04-25T08:15:58.0000000+00:00</time></trkpt><trkpt lat="35.0729884" lon="32.4775077"><ele>10.3</ele><time>2015-04-25T08:15:59.0000000+00:00</time></trkpt><trkpt lat="35.0729551" lon="32.4774624"><ele>9.6</ele><time>2015-04-25T08:16:00.0000000+00:00</time></trkpt><trkpt lat="35.0729128" lon="32.4774117"><ele>9.8</ele><time>2015-04-25T08:16:01.0000000+00:00</time></trkpt><trkpt lat="35.0728665" lon="32.4773655"><ele>9.9</ele><time>2015-04-25T08:16:02.0000000+00:00</time></trkpt><trkpt lat="35.0727973" lon="32.477281"><ele>10.4</ele><time>2015-04-25T08:16:04.0000000+00:00</time></trkpt><trkpt lat="35.0727669" lon="32.477237"><ele>10.7</ele><time>2015-04-25T08:16:05.0000000+00:00</time></trkpt><trkpt lat="35.072726" lon="32.4772007"><ele>11.3</ele><time>2015-04-25T08:16:06.0000000+00:00</time></trkpt><trkpt lat="35.0726601" lon="32.47713"><ele>11.3</ele><time>2015-04-25T08:16:08.0000000+00:00</time></trkpt><trkpt lat="35.0726206" lon="32.477089"><ele>11.6</ele><time>2015-04-25T08:16:09.0000000+00:00</time></trkpt><trkpt lat="35.0725804" lon="32.4770461"><ele>12.8</ele><time>2015-04-25T08:16:10.0000000+00:00</time></trkpt><trkpt lat="35.0725542" lon="32.4769978"><ele>13.3</ele><time>2015-04-25T08:16:11.0000000+00:00</time></trkpt><trkpt lat="35.0724971" lon="32.4769126"><ele>14.3</ele><time>2015-04-25T08:16:13.0000000+00:00</time></trkpt><trkpt lat="35.0724661" lon="32.4768704"><ele>15.1</ele><time>2015-04-25T08:16:14.0000000+00:00</time></trkpt><trkpt lat="35.0724032" lon="32.4767864"><ele>15.5</ele><time>2015-04-25T08:16:16.0000000+00:00</time></trkpt><trkpt lat="35.0723688" lon="32.4767463"><ele>16.2</ele><time>2015-04-25T08:16:17.0000000+00:00</time></trkpt><trkpt lat="35.0723274" lon="32.4767056"><ele>16.6</ele><time>2015-04-25T08:16:18.0000000+00:00</time></trkpt><trkpt lat="35.072292" lon="32.4766646"><ele>16.7</ele><time>2015-04-25T08:16:19.0000000+00:00</time></trkpt><trkpt lat="35.0722488" lon="32.4766291"><ele>17.3</ele><time>2015-04-25T08:16:20.0000000+00:00</time></trkpt><trkpt lat="35.0721867" lon="32.4765588"><ele>18.3</ele><time>2015-04-25T08:16:22.0000000+00:00</time></trkpt><trkpt lat="35.0721485" lon="32.4765124"><ele>19.1</ele><time>2015-04-25T08:16:23.0000000+00:00</time></trkpt><trkpt lat="35.0721131" lon="32.4764657"><ele>19.0</ele><time>2015-04-25T08:16:24.0000000+00:00</time></trkpt><trkpt lat="35.072049" lon="32.4763882"><ele>19.0</ele><time>2015-04-25T08:16:26.0000000+00:00</time></trkpt><trkpt lat="35.0720174" lon="32.4763442"><ele>18.9</ele><time>2015-04-25T08:16:27.0000000+00:00</time></trkpt><trkpt lat="35.0719767" lon="32.4762974"><ele>18.9</ele><time>2015-04-25T08:16:28.0000000+00:00</time></trkpt><trkpt lat="35.0719498" lon="32.4762478"><ele>18.4</ele><time>2015-04-25T08:16:29.0000000+00:00</time></trkpt><trkpt lat="35.0719236" lon="32.4762017"><ele>18.2</ele><time>2015-04-25T08:16:30.0000000+00:00</time></trkpt><trkpt lat="35.0718648" lon="32.476136"><ele>17.2</ele><time>2015-04-25T08:16:32.0000000+00:00</time></trkpt><trkpt lat="35.0718268" lon="32.4760851"><ele>17.1</ele><time>2015-04-25T08:16:33.0000000+00:00</time></trkpt><trkpt lat="35.0717885" lon="32.476043"><ele>16.5</ele><time>2015-04-25T08:16:34.0000000+00:00</time></trkpt><trkpt lat="35.0717606" lon="32.4759958"><ele>16.2</ele><time>2015-04-25T08:16:35.0000000+00:00</time></trkpt><trkpt lat="35.0717209" lon="32.475953"><ele>15.6</ele><time>2015-04-25T08:16:36.0000000+00:00</time></trkpt><trkpt lat="35.0716847" lon="32.4759081"><ele>15.3</ele><time>2015-04-25T08:16:37.0000000+00:00</time></trkpt><trkpt lat="35.0716476" lon="32.4758606"><ele>15.1</ele><time>2015-04-25T08:16:38.0000000+00:00</time></trkpt><trkpt lat="35.0716139" lon="32.475821"><ele>15.0</ele><time>2015-04-25T08:16:39.0000000+00:00</time></trkpt><trkpt lat="35.0715773" lon="32.4757812"><ele>15.0</ele><time>2015-04-25T08:16:40.0000000+00:00</time></trkpt><trkpt lat="35.0715335" lon="32.4757342"><ele>15.0</ele><time>2015-04-25T08:16:41.0000000+00:00</time></trkpt><trkpt lat="35.0715016" lon="32.4756843"><ele>14.9</ele><time>2015-04-25T08:16:42.0000000+00:00</time></trkpt><trkpt lat="35.0714594" lon="32.47564"><ele>14.4</ele><time>2015-04-25T08:16:43.0000000+00:00</time></trkpt><trkpt lat="35.071422" lon="32.4756025"><ele>14.2</ele><time>2015-04-25T08:16:44.0000000+00:00</time></trkpt><trkpt lat="35.0713893" lon="32.4755578"><ele>13.6</ele><time>2015-04-25T08:16:45.0000000+00:00</time></trkpt><trkpt lat="35.0713557" lon="32.4755183"><ele>13.7</ele><time>2015-04-25T08:16:46.0000000+00:00</time></trkpt><trkpt lat="35.071317" lon="32.4754715"><ele>14.3</ele><time>2015-04-25T08:16:47.0000000+00:00</time></trkpt><trkpt lat="35.0712871" lon="32.4754227"><ele>14.1</ele><time>2015-04-25T08:16:48.0000000+00:00</time></trkpt><trkpt lat="35.0712571" lon="32.4753722"><ele>14.0</ele><time>2015-04-25T08:16:49.0000000+00:00</time></trkpt><trkpt lat="35.0712266" lon="32.4753248"><ele>14.0</ele><time>2015-04-25T08:16:50.0000000+00:00</time></trkpt><trkpt lat="35.0711688" lon="32.4752377"><ele>13.7</ele><time>2015-04-25T08:16:52.0000000+00:00</time></trkpt><trkpt lat="35.0711267" lon="32.4751917"><ele>14.3</ele><time>2015-04-25T08:16:53.0000000+00:00</time></trkpt><trkpt lat="35.0710892" lon="32.4751529"><ele>14.6</ele><time>2015-04-25T08:16:54.0000000+00:00</time></trkpt><trkpt lat="35.0710428" lon="32.4751169"><ele>14.8</ele><time>2015-04-25T08:16:55.0000000+00:00</time></trkpt><trkpt lat="35.0710066" lon="32.4750638"><ele>14.9</ele><time>2015-04-25T08:16:56.0000000+00:00</time></trkpt><trkpt lat="35.0709616" lon="32.4750206"><ele>14.9</ele><time>2015-04-25T08:16:57.0000000+00:00</time></trkpt><trkpt lat="35.0709314" lon="32.4749724"><ele>14.4</ele><time>2015-04-25T08:16:58.0000000+00:00</time></trkpt><trkpt lat="35.0708897" lon="32.4749297"><ele>14.2</ele><time>2015-04-25T08:16:59.0000000+00:00</time></trkpt><trkpt lat="35.0708522" lon="32.4748778"><ele>14.1</ele><time>2015-04-25T08:17:00.0000000+00:00</time></trkpt><trkpt lat="35.0708104" lon="32.4748274"><ele>14.5</ele><time>2015-04-25T08:17:01.0000000+00:00</time></trkpt><trkpt lat="35.0707717" lon="32.4747873"><ele>14.7</ele><time>2015-04-25T08:17:02.0000000+00:00</time></trkpt><trkpt lat="35.0707201" lon="32.4747453"><ele>14.3</ele><time>2015-04-25T08:17:03.0000000+00:00</time></trkpt><trkpt lat="35.0706886" lon="32.4747012"><ele>14.1</ele><time>2015-04-25T08:17:04.0000000+00:00</time></trkpt><trkpt lat="35.0706496" lon="32.4746488"><ele>14.0</ele><time>2015-04-25T08:17:05.0000000+00:00</time></trkpt><trkpt lat="35.0706215" lon="32.4746047"><ele>14.0</ele><time>2015-04-25T08:17:06.0000000+00:00</time></trkpt><trkpt lat="35.0705771" lon="32.4745771"><ele>14.5</ele><time>2015-04-25T08:17:07.0000000+00:00</time></trkpt><trkpt lat="35.0705277" lon="32.4745512"><ele>15.2</ele><time>2015-04-25T08:17:08.0000000+00:00</time></trkpt><trkpt lat="35.0704878" lon="32.474509"><ele>16.1</ele><time>2015-04-25T08:17:09.0000000+00:00</time></trkpt><trkpt lat="35.0704467" lon="32.4744614"><ele>17.0</ele><time>2015-04-25T08:17:10.0000000+00:00</time></trkpt><trkpt lat="35.0704075" lon="32.474429"><ele>18.0</ele><time>2015-04-25T08:17:11.0000000+00:00</time></trkpt><trkpt lat="35.0703647" lon="32.4743781"><ele>17.9</ele><time>2015-04-25T08:17:12.0000000+00:00</time></trkpt><trkpt lat="35.0703361" lon="32.4743254"><ele>17.9</ele><time>2015-04-25T08:17:13.0000000+00:00</time></trkpt><trkpt lat="35.0703037" lon="32.4742832"><ele>17.9</ele><time>2015-04-25T08:17:14.0000000+00:00</time></trkpt><trkpt lat="35.0702671" lon="32.4742397"><ele>17.9</ele><time>2015-04-25T08:17:15.0000000+00:00</time></trkpt><trkpt lat="35.0702289" lon="32.4742003"><ele>17.4</ele><time>2015-04-25T08:17:16.0000000+00:00</time></trkpt><trkpt lat="35.0701905" lon="32.4741574"><ele>17.7</ele><time>2015-04-25T08:17:17.0000000+00:00</time></trkpt><trkpt lat="35.0701606" lon="32.4741089"><ele>17.3</ele><time>2015-04-25T08:17:18.0000000+00:00</time></trkpt><trkpt lat="35.0701253" lon="32.4740542"><ele>16.6</ele><time>2015-04-25T08:17:19.0000000+00:00</time></trkpt><trkpt lat="35.0700872" lon="32.4740017"><ele>16.3</ele><time>2015-04-25T08:17:20.0000000+00:00</time></trkpt><trkpt lat="35.0700559" lon="32.4739583"><ele>16.1</ele><time>2015-04-25T08:17:21.0000000+00:00</time></trkpt><trkpt lat="35.0699889" lon="32.4738787"><ele>16.0</ele><time>2015-04-25T08:17:23.0000000+00:00</time></trkpt><trkpt lat="35.0699571" lon="32.473827"><ele>16.0</ele><time>2015-04-25T08:17:24.0000000+00:00</time></trkpt><trkpt lat="35.0699162" lon="32.4737898"><ele>15.9</ele><time>2015-04-25T08:17:25.0000000+00:00</time></trkpt><trkpt lat="35.0698836" lon="32.4737451"><ele>15.9</ele><time>2015-04-25T08:17:26.0000000+00:00</time></trkpt><trkpt lat="35.0698425" lon="32.4736992"><ele>15.4</ele><time>2015-04-25T08:17:27.0000000+00:00</time></trkpt><trkpt lat="35.0698105" lon="32.4736549"><ele>15.2</ele><time>2015-04-25T08:17:28.0000000+00:00</time></trkpt><trkpt lat="35.0697657" lon="32.4736155"><ele>14.6</ele><time>2015-04-25T08:17:29.0000000+00:00</time></trkpt><trkpt lat="35.0697209" lon="32.4735687"><ele>14.7</ele><time>2015-04-25T08:17:30.0000000+00:00</time></trkpt><trkpt lat="35.06969" lon="32.4735256"><ele>14.8</ele><time>2015-04-25T08:17:31.0000000+00:00</time></trkpt><trkpt lat="35.0696474" lon="32.4734815"><ele>14.9</ele><time>2015-04-25T08:17:32.0000000+00:00</time></trkpt><trkpt lat="35.0696177" lon="32.4734327"><ele>14.4</ele><time>2015-04-25T08:17:33.0000000+00:00</time></trkpt><trkpt lat="35.0695373" lon="32.4733632"><ele>13.5</ele><time>2015-04-25T08:17:35.0000000+00:00</time></trkpt><trkpt lat="35.0694932" lon="32.4733284"><ele>14.2</ele><time>2015-04-25T08:17:36.0000000+00:00</time></trkpt><trkpt lat="35.0694637" lon="32.4732745"><ele>14.1</ele><time>2015-04-25T08:17:37.0000000+00:00</time></trkpt><trkpt lat="35.0694369" lon="32.4732151"><ele>14.0</ele><time>2015-04-25T08:17:38.0000000+00:00</time></trkpt><trkpt lat="35.0694109" lon="32.4731691"><ele>13.5</ele><time>2015-04-25T08:17:39.0000000+00:00</time></trkpt><trkpt lat="35.0693684" lon="32.4731117"><ele>13.2</ele><time>2015-04-25T08:17:40.0000000+00:00</time></trkpt><trkpt lat="35.0693381" lon="32.4730606"><ele>13.1</ele><time>2015-04-25T08:17:41.0000000+00:00</time></trkpt><trkpt lat="35.0693024" lon="32.4730129"><ele>13.5</ele><time>2015-04-25T08:17:42.0000000+00:00</time></trkpt><trkpt lat="35.0692695" lon="32.4729611"><ele>13.2</ele><time>2015-04-25T08:17:43.0000000+00:00</time></trkpt><trkpt lat="35.0692334" lon="32.4729114"><ele>12.6</ele><time>2015-04-25T08:17:44.0000000+00:00</time></trkpt><trkpt lat="35.069198" lon="32.472869"><ele>12.8</ele><time>2015-04-25T08:17:45.0000000+00:00</time></trkpt><trkpt lat="35.0691658" lon="32.4728221"><ele>12.8</ele><time>2015-04-25T08:17:46.0000000+00:00</time></trkpt><trkpt lat="35.0691269" lon="32.472787"><ele>12.4</ele><time>2015-04-25T08:17:47.0000000+00:00</time></trkpt><trkpt lat="35.0690883" lon="32.4727414"><ele>12.2</ele><time>2015-04-25T08:17:48.0000000+00:00</time></trkpt><trkpt lat="35.069052" lon="32.47269"><ele>12.5</ele><time>2015-04-25T08:17:49.0000000+00:00</time></trkpt><trkpt lat="35.0690094" lon="32.47264"><ele>12.7</ele><time>2015-04-25T08:17:50.0000000+00:00</time></trkpt><trkpt lat="35.0689735" lon="32.4725968"><ele>13.3</ele><time>2015-04-25T08:17:51.0000000+00:00</time></trkpt><trkpt lat="35.0689432" lon="32.4725442"><ele>13.6</ele><time>2015-04-25T08:17:52.0000000+00:00</time></trkpt><trkpt lat="35.0689099" lon="32.4724912"><ele>13.8</ele><time>2015-04-25T08:17:53.0000000+00:00</time></trkpt><trkpt lat="35.0688757" lon="32.4724363"><ele>13.4</ele><time>2015-04-25T08:17:54.0000000+00:00</time></trkpt><trkpt lat="35.068839" lon="32.4723968"><ele>13.6</ele><time>2015-04-25T08:17:55.0000000+00:00</time></trkpt><trkpt lat="35.0688" lon="32.472349"><ele>13.8</ele><time>2015-04-25T08:17:56.0000000+00:00</time></trkpt><trkpt lat="35.0687571" lon="32.4723062"><ele>14.4</ele><time>2015-04-25T08:17:57.0000000+00:00</time></trkpt><trkpt lat="35.068726" lon="32.4722611"><ele>14.6</ele><time>2015-04-25T08:17:58.0000000+00:00</time></trkpt><trkpt lat="35.0686678" lon="32.4721701"><ele>14.4</ele><time>2015-04-25T08:18:00.0000000+00:00</time></trkpt><trkpt lat="35.0686339" lon="32.4721247"><ele>14.6</ele><time>2015-04-25T08:18:01.0000000+00:00</time></trkpt><trkpt lat="35.0685964" lon="32.4720783"><ele>14.8</ele><time>2015-04-25T08:18:02.0000000+00:00</time></trkpt><trkpt lat="35.0685652" lon="32.472032"><ele>14.9</ele><time>2015-04-25T08:18:03.0000000+00:00</time></trkpt><trkpt lat="35.0685303" lon="32.4719738"><ele>14.9</ele><time>2015-04-25T08:18:04.0000000+00:00</time></trkpt><trkpt lat="35.0685007" lon="32.4719246"><ele>14.4</ele><time>2015-04-25T08:18:05.0000000+00:00</time></trkpt><trkpt lat="35.0684675" lon="32.4718831"><ele>14.7</ele><time>2015-04-25T08:18:06.0000000+00:00</time></trkpt><trkpt lat="35.068432" lon="32.4718295"><ele>15.3</ele><time>2015-04-25T08:18:07.0000000+00:00</time></trkpt><trkpt lat="35.0684" lon="32.4717876"><ele>15.6</ele><time>2015-04-25T08:18:08.0000000+00:00</time></trkpt><trkpt lat="35.0683643" lon="32.4717433"><ele>16.3</ele><time>2015-04-25T08:18:09.0000000+00:00</time></trkpt><trkpt lat="35.0683129" lon="32.471657"><ele>16.3</ele><time>2015-04-25T08:18:11.0000000+00:00</time></trkpt><trkpt lat="35.0682692" lon="32.471623"><ele>16.6</ele><time>2015-04-25T08:18:12.0000000+00:00</time></trkpt><trkpt lat="35.0682002" lon="32.4715502"><ele>17.1</ele><time>2015-04-25T08:18:14.0000000+00:00</time></trkpt><trkpt lat="35.0681656" lon="32.4715099"><ele>17.0</ele><time>2015-04-25T08:18:15.0000000+00:00</time></trkpt><trkpt lat="35.0681193" lon="32.4714718"><ele>17.5</ele><time>2015-04-25T08:18:16.0000000+00:00</time></trkpt><trkpt lat="35.0680838" lon="32.471427"><ele>17.7</ele><time>2015-04-25T08:18:17.0000000+00:00</time></trkpt><trkpt lat="35.0680576" lon="32.4713801"><ele>17.3</ele><time>2015-04-25T08:18:18.0000000+00:00</time></trkpt><trkpt lat="35.0679922" lon="32.4712906"><ele>17.3</ele><time>2015-04-25T08:18:20.0000000+00:00</time></trkpt><trkpt lat="35.0679502" lon="32.4712493"><ele>17.1</ele><time>2015-04-25T08:18:21.0000000+00:00</time></trkpt><trkpt lat="35.0679236" lon="32.4711898"><ele>17.0</ele><time>2015-04-25T08:18:22.0000000+00:00</time></trkpt><trkpt lat="35.0678922" lon="32.47115"><ele>17.0</ele><time>2015-04-25T08:18:23.0000000+00:00</time></trkpt><trkpt lat="35.0678669" lon="32.4711032"><ele>17.0</ele><time>2015-04-25T08:18:24.0000000+00:00</time></trkpt><trkpt lat="35.0678267" lon="32.4710548"><ele>16.9</ele><time>2015-04-25T08:18:25.0000000+00:00</time></trkpt><trkpt lat="35.0677752" lon="32.471013"><ele>17.4</ele><time>2015-04-25T08:18:26.0000000+00:00</time></trkpt><trkpt lat="35.0677443" lon="32.4709709"><ele>18.2</ele><time>2015-04-25T08:18:27.0000000+00:00</time></trkpt><trkpt lat="35.0677131" lon="32.4709179"><ele>18.1</ele><time>2015-04-25T08:18:28.0000000+00:00</time></trkpt><trkpt lat="35.0676858" lon="32.4708723"><ele>18.0</ele><time>2015-04-25T08:18:29.0000000+00:00</time></trkpt><trkpt lat="35.067648" lon="32.4708221"><ele>18.0</ele><time>2015-04-25T08:18:30.0000000+00:00</time></trkpt><trkpt lat="35.0676194" lon="32.4707771"><ele>18.4</ele><time>2015-04-25T08:18:31.0000000+00:00</time></trkpt><trkpt lat="35.0675578" lon="32.4707001"><ele>19.6</ele><time>2015-04-25T08:18:33.0000000+00:00</time></trkpt><trkpt lat="35.0675248" lon="32.4706569"><ele>19.7</ele><time>2015-04-25T08:18:34.0000000+00:00</time></trkpt><trkpt lat="35.0674582" lon="32.4705675"><ele>19.4</ele><time>2015-04-25T08:18:36.0000000+00:00</time></trkpt><trkpt lat="35.0674289" lon="32.4705208"><ele>18.7</ele><time>2015-04-25T08:18:37.0000000+00:00</time></trkpt><trkpt lat="35.0673936" lon="32.4704706"><ele>18.3</ele><time>2015-04-25T08:18:38.0000000+00:00</time></trkpt><trkpt lat="35.0673491" lon="32.4704272"><ele>18.1</ele><time>2015-04-25T08:18:39.0000000+00:00</time></trkpt><trkpt lat="35.0673197" lon="32.4703788"><ele>17.5</ele><time>2015-04-25T08:18:40.0000000+00:00</time></trkpt><trkpt lat="35.0672866" lon="32.4703334"><ele>17.2</ele><time>2015-04-25T08:18:41.0000000+00:00</time></trkpt><trkpt lat="35.0672519" lon="32.4702961"><ele>16.6</ele><time>2015-04-25T08:18:42.0000000+00:00</time></trkpt><trkpt lat="35.0672115" lon="32.4702625"><ele>16.8</ele><time>2015-04-25T08:18:43.0000000+00:00</time></trkpt><trkpt lat="35.0671664" lon="32.4702097"><ele>17.3</ele><time>2015-04-25T08:18:44.0000000+00:00</time></trkpt><trkpt lat="35.0671374" lon="32.4701598"><ele>17.1</ele><time>2015-04-25T08:18:45.0000000+00:00</time></trkpt><trkpt lat="35.0670887" lon="32.4701142"><ele>17.5</ele><time>2015-04-25T08:18:46.0000000+00:00</time></trkpt><trkpt lat="35.0670512" lon="32.4700769"><ele>17.2</ele><time>2015-04-25T08:18:47.0000000+00:00</time></trkpt><trkpt lat="35.0670213" lon="32.4700242"><ele>17.1</ele><time>2015-04-25T08:18:48.0000000+00:00</time></trkpt><trkpt lat="35.0669492" lon="32.4699627"><ele>17.0</ele><time>2015-04-25T08:18:50.0000000+00:00</time></trkpt><trkpt lat="35.0669158" lon="32.4699191"><ele>16.9</ele><time>2015-04-25T08:18:51.0000000+00:00</time></trkpt><trkpt lat="35.066874" lon="32.4698736"><ele>17.4</ele><time>2015-04-25T08:18:52.0000000+00:00</time></trkpt><trkpt lat="35.0668353" lon="32.4698385"><ele>17.7</ele><time>2015-04-25T08:18:53.0000000+00:00</time></trkpt><trkpt lat="35.066796" lon="32.4697757"><ele>17.8</ele><time>2015-04-25T08:18:54.0000000+00:00</time></trkpt><trkpt lat="35.0667273" lon="32.4697033"><ele>18.6</ele><time>2015-04-25T08:18:56.0000000+00:00</time></trkpt><trkpt lat="35.0666858" lon="32.4696684"><ele>18.3</ele><time>2015-04-25T08:18:57.0000000+00:00</time></trkpt><trkpt lat="35.0666414" lon="32.4696236"><ele>18.1</ele><time>2015-04-25T08:18:58.0000000+00:00</time></trkpt><trkpt lat="35.0666024" lon="32.46959"><ele>18.0</ele><time>2015-04-25T08:18:59.0000000+00:00</time></trkpt><trkpt lat="35.0665484" lon="32.469511"><ele>18.7</ele><time>2015-04-25T08:19:01.0000000+00:00</time></trkpt><trkpt lat="35.0665068" lon="32.4694737"><ele>19.3</ele><time>2015-04-25T08:19:02.0000000+00:00</time></trkpt><trkpt lat="35.0664319" lon="32.4694201"><ele>19.0</ele><time>2015-04-25T08:19:04.0000000+00:00</time></trkpt><trkpt lat="35.0663639" lon="32.4693508"><ele>19.0</ele><time>2015-04-25T08:19:06.0000000+00:00</time></trkpt><trkpt lat="35.066295" lon="32.4692837"><ele>20.4</ele><time>2015-04-25T08:19:08.0000000+00:00</time></trkpt><trkpt lat="35.0662687" lon="32.4692382"><ele>20.2</ele><time>2015-04-25T08:19:09.0000000+00:00</time></trkpt><trkpt lat="35.0662151" lon="32.4691481"><ele>19.7</ele><time>2015-04-25T08:19:11.0000000+00:00</time></trkpt><trkpt lat="35.0661864" lon="32.469103"><ele>19.8</ele><time>2015-04-25T08:19:12.0000000+00:00</time></trkpt><trkpt lat="35.0661612" lon="32.4690493"><ele>19.9</ele><time>2015-04-25T08:19:13.0000000+00:00</time></trkpt><trkpt lat="35.0661306" lon="32.4689987"><ele>19.9</ele><time>2015-04-25T08:19:14.0000000+00:00</time></trkpt><trkpt lat="35.0661055" lon="32.4689433"><ele>20.4</ele><time>2015-04-25T08:19:15.0000000+00:00</time></trkpt><trkpt lat="35.0660787" lon="32.4688864"><ele>20.7</ele><time>2015-04-25T08:19:16.0000000+00:00</time></trkpt><trkpt lat="35.0660101" lon="32.4687932"><ele>20.6</ele><time>2015-04-25T08:19:18.0000000+00:00</time></trkpt><trkpt lat="35.0659775" lon="32.4687384"><ele>20.8</ele><time>2015-04-25T08:19:19.0000000+00:00</time></trkpt><trkpt lat="35.0659524" lon="32.4686888"><ele>20.9</ele><time>2015-04-25T08:19:20.0000000+00:00</time></trkpt><trkpt lat="35.0659235" lon="32.4686383"><ele>20.4</ele><time>2015-04-25T08:19:21.0000000+00:00</time></trkpt><trkpt lat="35.0658891" lon="32.4685827"><ele>20.2</ele><time>2015-04-25T08:19:22.0000000+00:00</time></trkpt><trkpt lat="35.065865" lon="32.4685216"><ele>20.0</ele><time>2015-04-25T08:19:23.0000000+00:00</time></trkpt><trkpt lat="35.0658535" lon="32.4684473"><ele>19.0</ele><time>2015-04-25T08:19:24.0000000+00:00</time></trkpt><trkpt lat="35.0658355" lon="32.4683902"><ele>18.0</ele><time>2015-04-25T08:19:25.0000000+00:00</time></trkpt><trkpt lat="35.0658043" lon="32.4683383"><ele>17.4</ele><time>2015-04-25T08:19:26.0000000+00:00</time></trkpt><trkpt lat="35.0657715" lon="32.4682858"><ele>16.7</ele><time>2015-04-25T08:19:27.0000000+00:00</time></trkpt><trkpt lat="35.0657367" lon="32.4682264"><ele>16.8</ele><time>2015-04-25T08:19:28.0000000+00:00</time></trkpt><trkpt lat="35.0657021" lon="32.4681706"><ele>16.9</ele><time>2015-04-25T08:19:29.0000000+00:00</time></trkpt><trkpt lat="35.0656765" lon="32.468112"><ele>16.4</ele><time>2015-04-25T08:19:30.0000000+00:00</time></trkpt><trkpt lat="35.0656434" lon="32.46805"><ele>16.7</ele><time>2015-04-25T08:19:31.0000000+00:00</time></trkpt><trkpt lat="35.0656167" lon="32.4679837"><ele>16.3</ele><time>2015-04-25T08:19:32.0000000+00:00</time></trkpt><trkpt lat="35.0655795" lon="32.4679194"><ele>16.6</ele><time>2015-04-25T08:19:33.0000000+00:00</time></trkpt><trkpt lat="35.0655482" lon="32.4678554"><ele>16.3</ele><time>2015-04-25T08:19:34.0000000+00:00</time></trkpt><trkpt lat="35.0655238" lon="32.4678024"><ele>15.6</ele><time>2015-04-25T08:19:35.0000000+00:00</time></trkpt><trkpt lat="35.0654742" lon="32.4676999"><ele>14.6</ele><time>2015-04-25T08:19:37.0000000+00:00</time></trkpt><trkpt lat="35.0654421" lon="32.4676459"><ele>14.3</ele><time>2015-04-25T08:19:38.0000000+00:00</time></trkpt><trkpt lat="35.0654126" lon="32.4675883"><ele>14.6</ele><time>2015-04-25T08:19:39.0000000+00:00</time></trkpt><trkpt lat="35.065368" lon="32.4675379"><ele>14.8</ele><time>2015-04-25T08:19:40.0000000+00:00</time></trkpt><trkpt lat="35.0653427" lon="32.46748"><ele>14.8</ele><time>2015-04-25T08:19:41.0000000+00:00</time></trkpt><trkpt lat="35.0653158" lon="32.4674215"><ele>14.9</ele><time>2015-04-25T08:19:42.0000000+00:00</time></trkpt><trkpt lat="35.065294" lon="32.4673522"><ele>14.4</ele><time>2015-04-25T08:19:43.0000000+00:00</time></trkpt><trkpt lat="35.0652719" lon="32.4672968"><ele>14.2</ele><time>2015-04-25T08:19:44.0000000+00:00</time></trkpt><trkpt lat="35.065245" lon="32.4672389"><ele>14.0</ele><time>2015-04-25T08:19:45.0000000+00:00</time></trkpt><trkpt lat="35.0652014" lon="32.4671899"><ele>15.5</ele><time>2015-04-25T08:19:46.0000000+00:00</time></trkpt><trkpt lat="35.0651714" lon="32.4671291"><ele>16.2</ele><time>2015-04-25T08:19:47.0000000+00:00</time></trkpt><trkpt lat="35.065147" lon="32.467062"><ele>16.6</ele><time>2015-04-25T08:19:48.0000000+00:00</time></trkpt><trkpt lat="35.0651253" lon="32.4670085"><ele>16.2</ele><time>2015-04-25T08:19:49.0000000+00:00</time></trkpt><trkpt lat="35.0650966" lon="32.4669481"><ele>15.6</ele><time>2015-04-25T08:19:50.0000000+00:00</time></trkpt><trkpt lat="35.065076" lon="32.4668953"><ele>15.3</ele><time>2015-04-25T08:19:51.0000000+00:00</time></trkpt><trkpt lat="35.0650443" lon="32.4668458"><ele>15.6</ele><time>2015-04-25T08:19:52.0000000+00:00</time></trkpt><trkpt lat="35.0650097" lon="32.4668005"><ele>15.8</ele><time>2015-04-25T08:19:53.0000000+00:00</time></trkpt><trkpt lat="35.0649887" lon="32.4667505"><ele>15.3</ele><time>2015-04-25T08:19:54.0000000+00:00</time></trkpt><trkpt lat="35.0649473" lon="32.4666581"><ele>15.0</ele><time>2015-04-25T08:19:56.0000000+00:00</time></trkpt><trkpt lat="35.064899" lon="32.4665745"><ele>16.0</ele><time>2015-04-25T08:19:58.0000000+00:00</time></trkpt><trkpt lat="35.0648665" lon="32.4665229"><ele>15.9</ele><time>2015-04-25T08:19:59.0000000+00:00</time></trkpt><trkpt lat="35.0648399" lon="32.4664698"><ele>15.9</ele><time>2015-04-25T08:20:00.0000000+00:00</time></trkpt><trkpt lat="35.0648086" lon="32.4664194"><ele>15.4</ele><time>2015-04-25T08:20:01.0000000+00:00</time></trkpt><trkpt lat="35.0647708" lon="32.4663681"><ele>15.7</ele><time>2015-04-25T08:20:02.0000000+00:00</time></trkpt><trkpt lat="35.0647366" lon="32.4663214"><ele>15.8</ele><time>2015-04-25T08:20:03.0000000+00:00</time></trkpt><trkpt lat="35.0646883" lon="32.4662719"><ele>15.9</ele><time>2015-04-25T08:20:04.0000000+00:00</time></trkpt><trkpt lat="35.0646562" lon="32.4662328"><ele>15.4</ele><time>2015-04-25T08:20:05.0000000+00:00</time></trkpt><trkpt lat="35.0646204" lon="32.4661893"><ele>15.2</ele><time>2015-04-25T08:20:06.0000000+00:00</time></trkpt><trkpt lat="35.0645826" lon="32.4661384"><ele>15.0</ele><time>2015-04-25T08:20:07.0000000+00:00</time></trkpt><trkpt lat="35.0645437" lon="32.4660906"><ele>15.5</ele><time>2015-04-25T08:20:08.0000000+00:00</time></trkpt><trkpt lat="35.0645044" lon="32.4660471"><ele>15.2</ele><time>2015-04-25T08:20:09.0000000+00:00</time></trkpt><trkpt lat="35.0644625" lon="32.4660024"><ele>15.1</ele><time>2015-04-25T08:20:10.0000000+00:00</time></trkpt><trkpt lat="35.0644186" lon="32.4659618"><ele>15.0</ele><time>2015-04-25T08:20:11.0000000+00:00</time></trkpt><trkpt lat="35.0643777" lon="32.4659086"><ele>15.5</ele><time>2015-04-25T08:20:12.0000000+00:00</time></trkpt><trkpt lat="35.064336" lon="32.4658686"><ele>15.2</ele><time>2015-04-25T08:20:13.0000000+00:00</time></trkpt><trkpt lat="35.0642929" lon="32.4658201"><ele>15.1</ele><time>2015-04-25T08:20:14.0000000+00:00</time></trkpt><trkpt lat="35.0642619" lon="32.465768"><ele>15.0</ele><time>2015-04-25T08:20:15.0000000+00:00</time></trkpt><trkpt lat="35.0642137" lon="32.4657402"><ele>15.5</ele><time>2015-04-25T08:20:16.0000000+00:00</time></trkpt><trkpt lat="35.064171" lon="32.4656946"><ele>15.2</ele><time>2015-04-25T08:20:17.0000000+00:00</time></trkpt><trkpt lat="35.0641307" lon="32.4656458"><ele>15.6</ele><time>2015-04-25T08:20:18.0000000+00:00</time></trkpt><trkpt lat="35.0640911" lon="32.4655995"><ele>16.2</ele><time>2015-04-25T08:20:19.0000000+00:00</time></trkpt><trkpt lat="35.0640555" lon="32.4655493"><ele>16.1</ele><time>2015-04-25T08:20:20.0000000+00:00</time></trkpt><trkpt lat="35.0640198" lon="32.4655036"><ele>16.0</ele><time>2015-04-25T08:20:21.0000000+00:00</time></trkpt><trkpt lat="35.0639856" lon="32.4654495"><ele>16.0</ele><time>2015-04-25T08:20:22.0000000+00:00</time></trkpt><trkpt lat="35.0639495" lon="32.4654047"><ele>15.4</ele><time>2015-04-25T08:20:23.0000000+00:00</time></trkpt><trkpt lat="35.0639125" lon="32.4653622"><ele>15.2</ele><time>2015-04-25T08:20:24.0000000+00:00</time></trkpt><trkpt lat="35.0638685" lon="32.4653365"><ele>15.1</ele><time>2015-04-25T08:20:25.0000000+00:00</time></trkpt><trkpt lat="35.0638389" lon="32.4652886"><ele>14.5</ele><time>2015-04-25T08:20:26.0000000+00:00</time></trkpt><trkpt lat="35.0637994" lon="32.4652493"><ele>14.7</ele><time>2015-04-25T08:20:27.0000000+00:00</time></trkpt><trkpt lat="35.0637612" lon="32.4652023"><ele>14.8</ele><time>2015-04-25T08:20:28.0000000+00:00</time></trkpt><trkpt lat="35.0637292" lon="32.4651536"><ele>14.4</ele><time>2015-04-25T08:20:29.0000000+00:00</time></trkpt><trkpt lat="35.0636986" lon="32.4651074"><ele>14.2</ele><time>2015-04-25T08:20:30.0000000+00:00</time></trkpt><trkpt lat="35.0636581" lon="32.4650653"><ele>14.0</ele><time>2015-04-25T08:20:31.0000000+00:00</time></trkpt><trkpt lat="35.0636219" lon="32.4650227"><ele>13.5</ele><time>2015-04-25T08:20:32.0000000+00:00</time></trkpt><trkpt lat="35.0635719" lon="32.4650136"><ele>12.7</ele><time>2015-04-25T08:20:33.0000000+00:00</time></trkpt><trkpt lat="35.0635237" lon="32.4649687"><ele>12.3</ele><time>2015-04-25T08:20:34.0000000+00:00</time></trkpt><trkpt lat="35.0634786" lon="32.4649241"><ele>12.1</ele><time>2015-04-25T08:20:35.0000000+00:00</time></trkpt><trkpt lat="35.0634346" lon="32.4648705"><ele>12.5</ele><time>2015-04-25T08:20:36.0000000+00:00</time></trkpt><trkpt lat="35.0633901" lon="32.4648238"><ele>13.2</ele><time>2015-04-25T08:20:37.0000000+00:00</time></trkpt><trkpt lat="35.063348" lon="32.4647826"><ele>14.1</ele><time>2015-04-25T08:20:38.0000000+00:00</time></trkpt><trkpt lat="35.0633154" lon="32.464725"><ele>14.0</ele><time>2015-04-25T08:20:39.0000000+00:00</time></trkpt><trkpt lat="35.0632796" lon="32.464675"><ele>14.0</ele><time>2015-04-25T08:20:40.0000000+00:00</time></trkpt><trkpt lat="35.0632477" lon="32.4646201"><ele>13.4</ele><time>2015-04-25T08:20:41.0000000+00:00</time></trkpt><trkpt lat="35.0632191" lon="32.4645741"><ele>12.7</ele><time>2015-04-25T08:20:42.0000000+00:00</time></trkpt><trkpt lat="35.0631904" lon="32.4645249"><ele>12.3</ele><time>2015-04-25T08:20:43.0000000+00:00</time></trkpt><trkpt lat="35.0631528" lon="32.4644668"><ele>12.1</ele><time>2015-04-25T08:20:44.0000000+00:00</time></trkpt><trkpt lat="35.0631238" lon="32.4644233"><ele>12.5</ele><time>2015-04-25T08:20:45.0000000+00:00</time></trkpt><trkpt lat="35.0630804" lon="32.4643744"><ele>13.2</ele><time>2015-04-25T08:20:46.0000000+00:00</time></trkpt><trkpt lat="35.063047" lon="32.4643221"><ele>13.6</ele><time>2015-04-25T08:20:47.0000000+00:00</time></trkpt><trkpt lat="35.0630068" lon="32.4642582"><ele>13.3</ele><time>2015-04-25T08:20:48.0000000+00:00</time></trkpt><trkpt lat="35.062963" lon="32.4642018"><ele>13.1</ele><time>2015-04-25T08:20:49.0000000+00:00</time></trkpt><trkpt lat="35.062921" lon="32.464141"><ele>13.5</ele><time>2015-04-25T08:20:50.0000000+00:00</time></trkpt><trkpt lat="35.0628797" lon="32.4640893"><ele>13.7</ele><time>2015-04-25T08:20:51.0000000+00:00</time></trkpt><trkpt lat="35.0628476" lon="32.4640396"><ele>13.3</ele><time>2015-04-25T08:20:52.0000000+00:00</time></trkpt><trkpt lat="35.062817" lon="32.4639954"><ele>13.1</ele><time>2015-04-25T08:20:53.0000000+00:00</time></trkpt><trkpt lat="35.0627807" lon="32.4639446"><ele>12.5</ele><time>2015-04-25T08:20:54.0000000+00:00</time></trkpt><trkpt lat="35.0627523" lon="32.4638947"><ele>12.2</ele><time>2015-04-25T08:20:55.0000000+00:00</time></trkpt><trkpt lat="35.0627084" lon="32.4638579"><ele>12.1</ele><time>2015-04-25T08:20:56.0000000+00:00</time></trkpt><trkpt lat="35.0626735" lon="32.4638078"><ele>11.5</ele><time>2015-04-25T08:20:57.0000000+00:00</time></trkpt><trkpt lat="35.0626343" lon="32.4637503"><ele>12.2</ele><time>2015-04-25T08:20:58.0000000+00:00</time></trkpt><trkpt lat="35.0626018" lon="32.4637007"><ele>12.6</ele><time>2015-04-25T08:20:59.0000000+00:00</time></trkpt><trkpt lat="35.0625664" lon="32.4636505"><ele>12.8</ele><time>2015-04-25T08:21:00.0000000+00:00</time></trkpt><trkpt lat="35.0625331" lon="32.4636025"><ele>12.3</ele><time>2015-04-25T08:21:01.0000000+00:00</time></trkpt><trkpt lat="35.062495" lon="32.4635513"><ele>13.1</ele><time>2015-04-25T08:21:02.0000000+00:00</time></trkpt><trkpt lat="35.0624574" lon="32.4635152"><ele>13.5</ele><time>2015-04-25T08:21:03.0000000+00:00</time></trkpt><trkpt lat="35.0624326" lon="32.4634685"><ele>13.7</ele><time>2015-04-25T08:21:04.0000000+00:00</time></trkpt><trkpt lat="35.0623952" lon="32.4634143"><ele>13.8</ele><time>2015-04-25T08:21:05.0000000+00:00</time></trkpt><trkpt lat="35.062363" lon="32.4633575"><ele>13.9</ele><time>2015-04-25T08:21:06.0000000+00:00</time></trkpt><trkpt lat="35.062329" lon="32.4633054"><ele>13.9</ele><time>2015-04-25T08:21:07.0000000+00:00</time></trkpt><trkpt lat="35.0622934" lon="32.4632576"><ele>13.4</ele><time>2015-04-25T08:21:08.0000000+00:00</time></trkpt><trkpt lat="35.062259" lon="32.4632074"><ele>13.2</ele><time>2015-04-25T08:21:09.0000000+00:00</time></trkpt><trkpt lat="35.062224" lon="32.4631516"><ele>12.6</ele><time>2015-04-25T08:21:10.0000000+00:00</time></trkpt><trkpt lat="35.0621974" lon="32.4630956"><ele>11.7</ele><time>2015-04-25T08:21:11.0000000+00:00</time></trkpt><trkpt lat="35.0621505" lon="32.4630442"><ele>12.3</ele><time>2015-04-25T08:21:12.0000000+00:00</time></trkpt><trkpt lat="35.0621112" lon="32.4629877"><ele>12.1</ele><time>2015-04-25T08:21:13.0000000+00:00</time></trkpt><trkpt lat="35.0620785" lon="32.4629432"><ele>12.5</ele><time>2015-04-25T08:21:14.0000000+00:00</time></trkpt><trkpt lat="35.0620419" lon="32.4628888"><ele>12.2</ele><time>2015-04-25T08:21:15.0000000+00:00</time></trkpt><trkpt lat="35.0620103" lon="32.4628303"><ele>12.1</ele><time>2015-04-25T08:21:16.0000000+00:00</time></trkpt><trkpt lat="35.0619687" lon="32.4627926"><ele>12.5</ele><time>2015-04-25T08:21:17.0000000+00:00</time></trkpt><trkpt lat="35.0619376" lon="32.4627431"><ele>12.2</ele><time>2015-04-25T08:21:18.0000000+00:00</time></trkpt><trkpt lat="35.0618987" lon="32.4627032"><ele>12.6</ele><time>2015-04-25T08:21:19.0000000+00:00</time></trkpt><trkpt lat="35.0618667" lon="32.4626551"><ele>12.8</ele><time>2015-04-25T08:21:20.0000000+00:00</time></trkpt><trkpt lat="35.0618326" lon="32.4626134"><ele>12.3</ele><time>2015-04-25T08:21:21.0000000+00:00</time></trkpt><trkpt lat="35.0617916" lon="32.4625643"><ele>12.1</ele><time>2015-04-25T08:21:22.0000000+00:00</time></trkpt><trkpt lat="35.0617656" lon="32.4625129"><ele>12.0</ele><time>2015-04-25T08:21:23.0000000+00:00</time></trkpt><trkpt lat="35.0617322" lon="32.4624558"><ele>12.0</ele><time>2015-04-25T08:21:24.0000000+00:00</time></trkpt><trkpt lat="35.0616957" lon="32.4624047"><ele>12.0</ele><time>2015-04-25T08:21:25.0000000+00:00</time></trkpt><trkpt lat="35.0616582" lon="32.4623568"><ele>12.4</ele><time>2015-04-25T08:21:26.0000000+00:00</time></trkpt><trkpt lat="35.0616139" lon="32.4623052"><ele>12.7</ele><time>2015-04-25T08:21:27.0000000+00:00</time></trkpt><trkpt lat="35.0615783" lon="32.4622627"><ele>13.3</ele><time>2015-04-25T08:21:28.0000000+00:00</time></trkpt><trkpt lat="35.0615467" lon="32.4622101"><ele>13.6</ele><time>2015-04-25T08:21:29.0000000+00:00</time></trkpt><trkpt lat="35.061506" lon="32.4621622"><ele>13.8</ele><time>2015-04-25T08:21:30.0000000+00:00</time></trkpt><trkpt lat="35.0614744" lon="32.4621188"><ele>13.9</ele><time>2015-04-25T08:21:31.0000000+00:00</time></trkpt><trkpt lat="35.0614456" lon="32.4620707"><ele>13.9</ele><time>2015-04-25T08:21:32.0000000+00:00</time></trkpt><trkpt lat="35.06142" lon="32.4620192"><ele>13.9</ele><time>2015-04-25T08:21:33.0000000+00:00</time></trkpt><trkpt lat="35.0613893" lon="32.4619713"><ele>13.9</ele><time>2015-04-25T08:21:34.0000000+00:00</time></trkpt><trkpt lat="35.0613518" lon="32.4619118"><ele>13.4</ele><time>2015-04-25T08:21:35.0000000+00:00</time></trkpt><trkpt lat="35.0613144" lon="32.4618566"><ele>13.2</ele><time>2015-04-25T08:21:36.0000000+00:00</time></trkpt><trkpt lat="35.0612675" lon="32.4618154"><ele>12.6</ele><time>2015-04-25T08:21:37.0000000+00:00</time></trkpt><trkpt lat="35.0612215" lon="32.4617704"><ele>12.7</ele><time>2015-04-25T08:21:38.0000000+00:00</time></trkpt><trkpt lat="35.0611815" lon="32.461725"><ele>13.3</ele><time>2015-04-25T08:21:39.0000000+00:00</time></trkpt><trkpt lat="35.0611425" lon="32.461671"><ele>13.1</ele><time>2015-04-25T08:21:40.0000000+00:00</time></trkpt><trkpt lat="35.0611086" lon="32.461626"><ele>13.5</ele><time>2015-04-25T08:21:41.0000000+00:00</time></trkpt><trkpt lat="35.0610738" lon="32.4615723"><ele>13.7</ele><time>2015-04-25T08:21:42.0000000+00:00</time></trkpt><trkpt lat="35.0610479" lon="32.4615238"><ele>14.3</ele><time>2015-04-25T08:21:43.0000000+00:00</time></trkpt><trkpt lat="35.0610073" lon="32.4614752"><ele>14.6</ele><time>2015-04-25T08:21:44.0000000+00:00</time></trkpt><trkpt lat="35.0609732" lon="32.4614175"><ele>14.3</ele><time>2015-04-25T08:21:45.0000000+00:00</time></trkpt><trkpt lat="35.0609342" lon="32.4613611"><ele>14.6</ele><time>2015-04-25T08:21:46.0000000+00:00</time></trkpt><trkpt lat="35.0609116" lon="32.4613087"><ele>14.8</ele><time>2015-04-25T08:21:47.0000000+00:00</time></trkpt><trkpt lat="35.0608697" lon="32.4612542"><ele>14.8</ele><time>2015-04-25T08:21:48.0000000+00:00</time></trkpt><trkpt lat="35.0608366" lon="32.4612064"><ele>14.9</ele><time>2015-04-25T08:21:49.0000000+00:00</time></trkpt><trkpt lat="35.0608008" lon="32.4611482"><ele>14.9</ele><time>2015-04-25T08:21:50.0000000+00:00</time></trkpt><trkpt lat="35.0607619" lon="32.4611058"><ele>15.4</ele><time>2015-04-25T08:21:51.0000000+00:00</time></trkpt><trkpt lat="35.0607313" lon="32.461053"><ele>15.2</ele><time>2015-04-25T08:21:52.0000000+00:00</time></trkpt><trkpt lat="35.0606917" lon="32.4609997"><ele>15.1</ele><time>2015-04-25T08:21:53.0000000+00:00</time></trkpt><trkpt lat="35.0606604" lon="32.4609452"><ele>15.5</ele><time>2015-04-25T08:21:54.0000000+00:00</time></trkpt><trkpt lat="35.0606336" lon="32.4608911"><ele>15.2</ele><time>2015-04-25T08:21:55.0000000+00:00</time></trkpt><trkpt lat="35.0605925" lon="32.460837"><ele>15.6</ele><time>2015-04-25T08:21:56.0000000+00:00</time></trkpt><trkpt lat="35.0605557" lon="32.4607834"><ele>15.8</ele><time>2015-04-25T08:21:57.0000000+00:00</time></trkpt><trkpt lat="35.0605229" lon="32.4607287"><ele>15.3</ele><time>2015-04-25T08:21:58.0000000+00:00</time></trkpt><trkpt lat="35.0605009" lon="32.460673"><ele>15.1</ele><time>2015-04-25T08:21:59.0000000+00:00</time></trkpt><trkpt lat="35.0604683" lon="32.4606129"><ele>15.0</ele><time>2015-04-25T08:22:00.0000000+00:00</time></trkpt><trkpt lat="35.0604432" lon="32.4605559"><ele>14.5</ele><time>2015-04-25T08:22:01.0000000+00:00</time></trkpt><trkpt lat="35.0604058" lon="32.4605066"><ele>14.7</ele><time>2015-04-25T08:22:02.0000000+00:00</time></trkpt><trkpt lat="35.0603836" lon="32.4604534"><ele>14.8</ele><time>2015-04-25T08:22:03.0000000+00:00</time></trkpt><trkpt lat="35.0603611" lon="32.4603944"><ele>14.9</ele><time>2015-04-25T08:22:04.0000000+00:00</time></trkpt><trkpt lat="35.0603419" lon="32.4603423"><ele>14.9</ele><time>2015-04-25T08:22:05.0000000+00:00</time></trkpt><trkpt lat="35.0603216" lon="32.460292"><ele>14.9</ele><time>2015-04-25T08:22:06.0000000+00:00</time></trkpt><trkpt lat="35.0602828" lon="32.4601925"><ele>15.4</ele><time>2015-04-25T08:22:08.0000000+00:00</time></trkpt><trkpt lat="35.0602714" lon="32.4601304"><ele>15.2</ele><time>2015-04-25T08:22:09.0000000+00:00</time></trkpt><trkpt lat="35.0602289" lon="32.4600345"><ele>15.2</ele><time>2015-04-25T08:22:11.0000000+00:00</time></trkpt><trkpt lat="35.0602039" lon="32.4599682"><ele>15.1</ele><time>2015-04-25T08:22:12.0000000+00:00</time></trkpt><trkpt lat="35.0601866" lon="32.4599017"><ele>15.0</ele><time>2015-04-25T08:22:13.0000000+00:00</time></trkpt><trkpt lat="35.0601682" lon="32.4598484"><ele>15.0</ele><time>2015-04-25T08:22:14.0000000+00:00</time></trkpt><trkpt lat="35.0601561" lon="32.4597829"><ele>14.9</ele><time>2015-04-25T08:22:15.0000000+00:00</time></trkpt><trkpt lat="35.0601401" lon="32.4597115"><ele>14.9</ele><time>2015-04-25T08:22:16.0000000+00:00</time></trkpt><trkpt lat="35.0601091" lon="32.4596599"><ele>15.4</ele><time>2015-04-25T08:22:17.0000000+00:00</time></trkpt><trkpt lat="35.0600861" lon="32.4595988"><ele>16.2</ele><time>2015-04-25T08:22:18.0000000+00:00</time></trkpt><trkpt lat="35.0600645" lon="32.4595386"><ele>16.6</ele><time>2015-04-25T08:22:19.0000000+00:00</time></trkpt><trkpt lat="35.0600509" lon="32.4594667"><ele>16.7</ele><time>2015-04-25T08:22:20.0000000+00:00</time></trkpt><trkpt lat="35.0600346" lon="32.4594065"><ele>16.8</ele><time>2015-04-25T08:22:21.0000000+00:00</time></trkpt><trkpt lat="35.0600032" lon="32.4593476"><ele>16.9</ele><time>2015-04-25T08:22:22.0000000+00:00</time></trkpt><trkpt lat="35.059967" lon="32.4592779"><ele>16.9</ele><time>2015-04-25T08:22:23.0000000+00:00</time></trkpt><trkpt lat="35.0599402" lon="32.4592114"><ele>17.4</ele><time>2015-04-25T08:22:24.0000000+00:00</time></trkpt><trkpt lat="35.0599173" lon="32.4591612"><ele>18.2</ele><time>2015-04-25T08:22:25.0000000+00:00</time></trkpt><trkpt lat="35.0598883" lon="32.4591155"><ele>18.6</ele><time>2015-04-25T08:22:26.0000000+00:00</time></trkpt><trkpt lat="35.0598217" lon="32.4590184"><ele>18.8</ele><time>2015-04-25T08:22:28.0000000+00:00</time></trkpt><trkpt lat="35.0597841" lon="32.4589602"><ele>18.9</ele><time>2015-04-25T08:22:29.0000000+00:00</time></trkpt><trkpt lat="35.0597606" lon="32.4589015"><ele>18.9</ele><time>2015-04-25T08:22:30.0000000+00:00</time></trkpt><trkpt lat="35.0597277" lon="32.4588482"><ele>18.9</ele><time>2015-04-25T08:22:31.0000000+00:00</time></trkpt><trkpt lat="35.0596934" lon="32.4588011"><ele>18.9</ele><time>2015-04-25T08:22:32.0000000+00:00</time></trkpt><trkpt lat="35.0596553" lon="32.4587556"><ele>18.4</ele><time>2015-04-25T08:22:33.0000000+00:00</time></trkpt><trkpt lat="35.0596187" lon="32.4587095"><ele>18.2</ele><time>2015-04-25T08:22:34.0000000+00:00</time></trkpt><trkpt lat="35.0595795" lon="32.4586644"><ele>18.1</ele><time>2015-04-25T08:22:35.0000000+00:00</time></trkpt><trkpt lat="35.0595432" lon="32.4586138"><ele>17.5</ele><time>2015-04-25T08:22:36.0000000+00:00</time></trkpt><trkpt lat="35.0595016" lon="32.4585622"><ele>17.2</ele><time>2015-04-25T08:22:37.0000000+00:00</time></trkpt><trkpt lat="35.0594549" lon="32.4585104"><ele>16.6</ele><time>2015-04-25T08:22:38.0000000+00:00</time></trkpt><trkpt lat="35.0594161" lon="32.4584607"><ele>16.3</ele><time>2015-04-25T08:22:39.0000000+00:00</time></trkpt><trkpt lat="35.0593751" lon="32.4584256"><ele>15.6</ele><time>2015-04-25T08:22:40.0000000+00:00</time></trkpt><trkpt lat="35.0593319" lon="32.4583879"><ele>15.3</ele><time>2015-04-25T08:22:41.0000000+00:00</time></trkpt><trkpt lat="35.0592938" lon="32.4583414"><ele>14.6</ele><time>2015-04-25T08:22:42.0000000+00:00</time></trkpt><trkpt lat="35.059256" lon="32.4582943"><ele>14.3</ele><time>2015-04-25T08:22:43.0000000+00:00</time></trkpt><trkpt lat="35.0592076" lon="32.4582365"><ele>13.6</ele><time>2015-04-25T08:22:44.0000000+00:00</time></trkpt><trkpt lat="35.0591637" lon="32.4581852"><ele>13.3</ele><time>2015-04-25T08:22:45.0000000+00:00</time></trkpt><trkpt lat="35.0591136" lon="32.4581331"><ele>14.1</ele><time>2015-04-25T08:22:46.0000000+00:00</time></trkpt><trkpt lat="35.0590738" lon="32.4580823"><ele>14.0</ele><time>2015-04-25T08:22:47.0000000+00:00</time></trkpt><trkpt lat="35.0590302" lon="32.4580217"><ele>13.5</ele><time>2015-04-25T08:22:48.0000000+00:00</time></trkpt><trkpt lat="35.0589872" lon="32.457975"><ele>14.2</ele><time>2015-04-25T08:22:49.0000000+00:00</time></trkpt><trkpt lat="35.0589475" lon="32.4579148"><ele>14.1</ele><time>2015-04-25T08:22:50.0000000+00:00</time></trkpt><trkpt lat="35.0589166" lon="32.4578588"><ele>14.0</ele><time>2015-04-25T08:22:51.0000000+00:00</time></trkpt><trkpt lat="35.0588685" lon="32.4577904"><ele>14.0</ele><time>2015-04-25T08:22:52.0000000+00:00</time></trkpt><trkpt lat="35.0588291" lon="32.4577234"><ele>14.4</ele><time>2015-04-25T08:22:53.0000000+00:00</time></trkpt><trkpt lat="35.058788" lon="32.4576591"><ele>14.7</ele><time>2015-04-25T08:22:54.0000000+00:00</time></trkpt><trkpt lat="35.0587449" lon="32.457588"><ele>14.8</ele><time>2015-04-25T08:22:55.0000000+00:00</time></trkpt><trkpt lat="35.0587093" lon="32.4575198"><ele>14.9</ele><time>2015-04-25T08:22:56.0000000+00:00</time></trkpt><trkpt lat="35.0586607" lon="32.4574635"><ele>15.4</ele><time>2015-04-25T08:22:57.0000000+00:00</time></trkpt><trkpt lat="35.0586224" lon="32.4573995"><ele>15.7</ele><time>2015-04-25T08:22:58.0000000+00:00</time></trkpt><trkpt lat="35.0585833" lon="32.4573459"><ele>15.8</ele><time>2015-04-25T08:22:59.0000000+00:00</time></trkpt><trkpt lat="35.0585392" lon="32.4572827"><ele>15.9</ele><time>2015-04-25T08:23:00.0000000+00:00</time></trkpt><trkpt lat="35.0585046" lon="32.4572215"><ele>15.4</ele><time>2015-04-25T08:23:01.0000000+00:00</time></trkpt><trkpt lat="35.0584823" lon="32.457158"><ele>14.7</ele><time>2015-04-25T08:23:02.0000000+00:00</time></trkpt><trkpt lat="35.0584516" lon="32.4570896"><ele>14.3</ele><time>2015-04-25T08:23:03.0000000+00:00</time></trkpt><trkpt lat="35.0584242" lon="32.457025"><ele>13.6</ele><time>2015-04-25T08:23:04.0000000+00:00</time></trkpt><trkpt lat="35.058386" lon="32.4569632"><ele>13.3</ele><time>2015-04-25T08:23:05.0000000+00:00</time></trkpt><trkpt lat="35.0583505" lon="32.4569032"><ele>13.6</ele><time>2015-04-25T08:23:06.0000000+00:00</time></trkpt><trkpt lat="35.0582912" lon="32.4568112"><ele>13.8</ele><time>2015-04-25T08:23:08.0000000+00:00</time></trkpt><trkpt lat="35.0582564" lon="32.45676"><ele>13.9</ele><time>2015-04-25T08:23:09.0000000+00:00</time></trkpt><trkpt lat="35.0582181" lon="32.4567185"><ele>14.4</ele><time>2015-04-25T08:23:10.0000000+00:00</time></trkpt><trkpt lat="35.0581889" lon="32.4566637"><ele>14.7</ele><time>2015-04-25T08:23:11.0000000+00:00</time></trkpt><trkpt lat="35.0581469" lon="32.4566135"><ele>15.3</ele><time>2015-04-25T08:23:12.0000000+00:00</time></trkpt><trkpt lat="35.0581219" lon="32.4565527"><ele>15.6</ele><time>2015-04-25T08:23:13.0000000+00:00</time></trkpt><trkpt lat="35.0580971" lon="32.4564819"><ele>15.3</ele><time>2015-04-25T08:23:14.0000000+00:00</time></trkpt><trkpt lat="35.0580675" lon="32.4564244"><ele>15.6</ele><time>2015-04-25T08:23:15.0000000+00:00</time></trkpt><trkpt lat="35.0580366" lon="32.4563699"><ele>16.3</ele><time>2015-04-25T08:23:16.0000000+00:00</time></trkpt><trkpt lat="35.0580072" lon="32.4563108"><ele>16.1</ele><time>2015-04-25T08:23:17.0000000+00:00</time></trkpt><trkpt lat="35.057976" lon="32.4562465"><ele>16.5</ele><time>2015-04-25T08:23:18.0000000+00:00</time></trkpt><trkpt lat="35.0579544" lon="32.45619"><ele>16.7</ele><time>2015-04-25T08:23:19.0000000+00:00</time></trkpt><trkpt lat="35.0579282" lon="32.4561277"><ele>16.8</ele><time>2015-04-25T08:23:20.0000000+00:00</time></trkpt><trkpt lat="35.0578962" lon="32.456078"><ele>16.4</ele><time>2015-04-25T08:23:21.0000000+00:00</time></trkpt><trkpt lat="35.05788" lon="32.4560163"><ele>15.7</ele><time>2015-04-25T08:23:22.0000000+00:00</time></trkpt><trkpt lat="35.057853" lon="32.455972"><ele>14.8</ele><time>2015-04-25T08:23:23.0000000+00:00</time></trkpt><trkpt lat="35.0578194" lon="32.4559067"><ele>14.4</ele><time>2015-04-25T08:23:24.0000000+00:00</time></trkpt><trkpt lat="35.0577951" lon="32.4558468"><ele>14.1</ele><time>2015-04-25T08:23:25.0000000+00:00</time></trkpt><trkpt lat="35.0577646" lon="32.4557957"><ele>14.0</ele><time>2015-04-25T08:23:26.0000000+00:00</time></trkpt><trkpt lat="35.0577385" lon="32.455744"><ele>14.5</ele><time>2015-04-25T08:23:27.0000000+00:00</time></trkpt><trkpt lat="35.0577077" lon="32.455695"><ele>15.2</ele><time>2015-04-25T08:23:28.0000000+00:00</time></trkpt><trkpt lat="35.0576775" lon="32.455648"><ele>15.1</ele><time>2015-04-25T08:23:29.0000000+00:00</time></trkpt><trkpt lat="35.0576453" lon="32.4555951"><ele>15.0</ele><time>2015-04-25T08:23:30.0000000+00:00</time></trkpt><trkpt lat="35.0576071" lon="32.4555383"><ele>15.0</ele><time>2015-04-25T08:23:31.0000000+00:00</time></trkpt><trkpt lat="35.0575662" lon="32.4554781"><ele>14.4</ele><time>2015-04-25T08:23:32.0000000+00:00</time></trkpt><trkpt lat="35.057535" lon="32.4554272"><ele>14.2</ele><time>2015-04-25T08:23:33.0000000+00:00</time></trkpt><trkpt lat="35.0574732" lon="32.4553437"><ele>15.0</ele><time>2015-04-25T08:23:35.0000000+00:00</time></trkpt><trkpt lat="35.0574433" lon="32.4552966"><ele>15.5</ele><time>2015-04-25T08:23:36.0000000+00:00</time></trkpt><trkpt lat="35.0574111" lon="32.4552552"><ele>15.7</ele><time>2015-04-25T08:23:37.0000000+00:00</time></trkpt><trkpt lat="35.0573757" lon="32.4552112"><ele>15.8</ele><time>2015-04-25T08:23:38.0000000+00:00</time></trkpt><trkpt lat="35.0573118" lon="32.4551488"><ele>15.9</ele><time>2015-04-25T08:23:40.0000000+00:00</time></trkpt><trkpt lat="35.0572531" lon="32.4551044"><ele>16.7</ele><time>2015-04-25T08:23:42.0000000+00:00</time></trkpt><trkpt lat="35.0572128" lon="32.4550798"><ele>16.9</ele><time>2015-04-25T08:23:44.0000000+00:00</time></trkpt><trkpt lat="35.0571695" lon="32.4550535"><ele>16.9</ele><time>2015-04-25T08:23:46.0000000+00:00</time></trkpt><trkpt lat="35.0571279" lon="32.4550235"><ele>16.9</ele><time>2015-04-25T08:23:48.0000000+00:00</time></trkpt><trkpt lat="35.0570717" lon="32.4550033"><ele>17.4</ele><time>2015-04-25T08:23:51.0000000+00:00</time></trkpt><trkpt lat="35.057046" lon="32.4549514"><ele>18.9</ele><time>2015-04-25T08:23:56.0000000+00:00</time></trkpt><trkpt lat="35.0570795" lon="32.4548973"><ele>19.2</ele><time>2015-04-25T08:24:00.0000000+00:00</time></trkpt><trkpt lat="35.0571256" lon="32.454842"><ele>17.5</ele><time>2015-04-25T08:24:03.0000000+00:00</time></trkpt><trkpt lat="35.0571822" lon="32.4547702"><ele>16.6</ele><time>2015-04-25T08:24:05.0000000+00:00</time></trkpt><trkpt lat="35.0572372" lon="32.4546906"><ele>15.3</ele><time>2015-04-25T08:24:07.0000000+00:00</time></trkpt><trkpt lat="35.0572793" lon="32.4546138"><ele>15.3</ele><time>2015-04-25T08:24:09.0000000+00:00</time></trkpt><trkpt lat="35.0573081" lon="32.4545522"><ele>14.5</ele><time>2015-04-25T08:24:11.0000000+00:00</time></trkpt><trkpt lat="35.0573176" lon="32.4544925"><ele>14.6</ele><time>2015-04-25T08:24:13.0000000+00:00</time></trkpt><trkpt lat="35.0573211" lon="32.4544298"><ele>13.8</ele><time>2015-04-25T08:24:16.0000000+00:00</time></trkpt><trkpt lat="35.0573648" lon="32.4543985"><ele>14.4</ele><time>2015-04-25T08:24:19.0000000+00:00</time></trkpt><trkpt lat="35.0574095" lon="32.4543801"><ele>14.3</ele><time>2015-04-25T08:24:21.0000000+00:00</time></trkpt><trkpt lat="35.0574557" lon="32.4543687"><ele>14.0</ele><time>2015-04-25T08:24:23.0000000+00:00</time></trkpt><trkpt lat="35.0575112" lon="32.4543623"><ele>14.6</ele><time>2015-04-25T08:24:26.0000000+00:00</time></trkpt><trkpt lat="35.05756" lon="32.4543675"><ele>14.6</ele><time>2015-04-25T08:25:05.0000000+00:00</time></trkpt><trkpt lat="35.0576083" lon="32.4543323"><ele>14.1</ele><time>2015-04-25T08:25:07.0000000+00:00</time></trkpt><trkpt lat="35.0576692" lon="32.4542912"><ele>13.5</ele><time>2015-04-25T08:25:09.0000000+00:00</time></trkpt><trkpt lat="35.0577374" lon="32.4542481"><ele>12.1</ele><time>2015-04-25T08:25:11.0000000+00:00</time></trkpt><trkpt lat="35.0578063" lon="32.4542036"><ele>13.2</ele><time>2015-04-25T08:25:13.0000000+00:00</time></trkpt><trkpt lat="35.0578751" lon="32.4541549"><ele>13.3</ele><time>2015-04-25T08:25:15.0000000+00:00</time></trkpt><trkpt lat="35.057951" lon="32.4541016"><ele>13.3</ele><time>2015-04-25T08:25:17.0000000+00:00</time></trkpt><trkpt lat="35.0580288" lon="32.4540521"><ele>13.0</ele><time>2015-04-25T08:25:19.0000000+00:00</time></trkpt><trkpt lat="35.0581031" lon="32.4540042"><ele>13.0</ele><time>2015-04-25T08:25:21.0000000+00:00</time></trkpt><trkpt lat="35.0581731" lon="32.4539607"><ele>11.7</ele><time>2015-04-25T08:25:23.0000000+00:00</time></trkpt><trkpt lat="35.0582149" lon="32.4539385"><ele>10.4</ele><time>2015-04-25T08:25:25.0000000+00:00</time></trkpt><trkpt lat="35.0582558" lon="32.4539019"><ele>9.8</ele><time>2015-04-25T08:25:54.0000000+00:00</time></trkpt><trkpt lat="35.0583204" lon="32.4538627"><ele>10.7</ele><time>2015-04-25T08:25:57.0000000+00:00</time></trkpt><trkpt lat="35.0583766" lon="32.4538303"><ele>10.6</ele><time>2015-04-25T08:25:59.0000000+00:00</time></trkpt><trkpt lat="35.0584347" lon="32.4537969"><ele>10.9</ele><time>2015-04-25T08:26:01.0000000+00:00</time></trkpt><trkpt lat="35.0584874" lon="32.4537634"><ele>10.9</ele><time>2015-04-25T08:26:03.0000000+00:00</time></trkpt><trkpt lat="35.0585374" lon="32.4537288"><ele>11.4</ele><time>2015-04-25T08:26:05.0000000+00:00</time></trkpt><trkpt lat="35.0585801" lon="32.453699"><ele>11.3</ele><time>2015-04-25T08:26:07.0000000+00:00</time></trkpt><trkpt lat="35.0586217" lon="32.4536748"><ele>11.7</ele><time>2015-04-25T08:26:10.0000000+00:00</time></trkpt><trkpt lat="35.0585755" lon="32.4536814"><ele>10.0</ele><time>2015-04-25T08:35:12.0000000+00:00</time></trkpt><trkpt lat="35.0586216" lon="32.453688"><ele>12.1</ele><time>2015-04-25T08:38:49.0000000+00:00</time></trkpt><trkpt lat="35.0585854" lon="32.4536451"><ele>13.9</ele><time>2015-04-25T08:44:01.0000000+00:00</time></trkpt><trkpt lat="35.0585419" lon="32.4536818"><ele>11.7</ele><time>2015-04-25T08:44:27.0000000+00:00</time></trkpt><trkpt lat="35.0585025" lon="32.4537143"><ele>11.9</ele><time>2015-04-25T08:44:30.0000000+00:00</time></trkpt><trkpt lat="35.0584594" lon="32.4537439"><ele>12.4</ele><time>2015-04-25T08:44:32.0000000+00:00</time></trkpt><trkpt lat="35.0584086" lon="32.4537781"><ele>13.6</ele><time>2015-04-25T08:44:34.0000000+00:00</time></trkpt><trkpt lat="35.0583538" lon="32.4538157"><ele>13.1</ele><time>2015-04-25T08:44:36.0000000+00:00</time></trkpt><trkpt lat="35.0582966" lon="32.4538581"><ele>13.0</ele><time>2015-04-25T08:44:38.0000000+00:00</time></trkpt><trkpt lat="35.0582392" lon="32.4539056"><ele>12.7</ele><time>2015-04-25T08:44:40.0000000+00:00</time></trkpt><trkpt lat="35.0581786" lon="32.4539537"><ele>12.9</ele><time>2015-04-25T08:44:42.0000000+00:00</time></trkpt><trkpt lat="35.0581106" lon="32.4539994"><ele>12.9</ele><time>2015-04-25T08:44:44.0000000+00:00</time></trkpt><trkpt lat="35.0580346" lon="32.4540507"><ele>11.7</ele><time>2015-04-25T08:44:46.0000000+00:00</time></trkpt><trkpt lat="35.057991" lon="32.4540812"><ele>11.3</ele><time>2015-04-25T08:44:47.0000000+00:00</time></trkpt><trkpt lat="35.0579504" lon="32.4541102"><ele>11.1</ele><time>2015-04-25T08:44:48.0000000+00:00</time></trkpt><trkpt lat="35.0579099" lon="32.4541367"><ele>11.0</ele><time>2015-04-25T08:44:49.0000000+00:00</time></trkpt><trkpt lat="35.0578337" lon="32.4541844"><ele>11.2</ele><time>2015-04-25T08:44:51.0000000+00:00</time></trkpt><trkpt lat="35.0577934" lon="32.454209"><ele>11.6</ele><time>2015-04-25T08:44:52.0000000+00:00</time></trkpt><trkpt lat="35.0577243" lon="32.4542531"><ele>11.8</ele><time>2015-04-25T08:44:54.0000000+00:00</time></trkpt><trkpt lat="35.0576532" lon="32.4542952"><ele>11.9</ele><time>2015-04-25T08:44:56.0000000+00:00</time></trkpt><trkpt lat="35.0575866" lon="32.4543362"><ele>12.4</ele><time>2015-04-25T08:44:58.0000000+00:00</time></trkpt><trkpt lat="35.0575264" lon="32.4543717"><ele>12.8</ele><time>2015-04-25T08:45:00.0000000+00:00</time></trkpt><trkpt lat="35.05748" lon="32.4543593"><ele>13.9</ele><time>2015-04-25T08:45:12.0000000+00:00</time></trkpt><trkpt lat="35.057427" lon="32.4543844"><ele>14.1</ele><time>2015-04-25T08:45:17.0000000+00:00</time></trkpt><trkpt lat="35.0573742" lon="32.4544122"><ele>13.9</ele><time>2015-04-25T08:45:21.0000000+00:00</time></trkpt><trkpt lat="35.0573347" lon="32.4544426"><ele>14.4</ele><time>2015-04-25T08:45:24.0000000+00:00</time></trkpt><trkpt lat="35.0573088" lon="32.4545009"><ele>14.6</ele><time>2015-04-25T08:45:28.0000000+00:00</time></trkpt><trkpt lat="35.0573108" lon="32.4545606"><ele>15.1</ele><time>2015-04-25T08:45:31.0000000+00:00</time></trkpt><trkpt lat="35.0573179" lon="32.4546252"><ele>14.1</ele><time>2015-04-25T08:45:34.0000000+00:00</time></trkpt><trkpt lat="35.0572926" lon="32.4546819"><ele>14.4</ele><time>2015-04-25T08:45:37.0000000+00:00</time></trkpt><trkpt lat="35.0572459" lon="32.4547259"><ele>13.5</ele><time>2015-04-25T08:45:40.0000000+00:00</time></trkpt><trkpt lat="35.057201" lon="32.4547549"><ele>13.8</ele><time>2015-04-25T08:45:42.0000000+00:00</time></trkpt><trkpt lat="35.0571474" lon="32.454787"><ele>13.9</ele><time>2015-04-25T08:45:44.0000000+00:00</time></trkpt><trkpt lat="35.0570989" lon="32.4548257"><ele>13.9</ele><time>2015-04-25T08:45:46.0000000+00:00</time></trkpt><trkpt lat="35.0570505" lon="32.4548579"><ele>14.7</ele><time>2015-04-25T08:45:48.0000000+00:00</time></trkpt><trkpt lat="35.0570015" lon="32.4548805"><ele>14.9</ele><time>2015-04-25T08:45:50.0000000+00:00</time></trkpt><trkpt lat="35.0569458" lon="32.4548872"><ele>14.9</ele><time>2015-04-25T08:45:52.0000000+00:00</time></trkpt><trkpt lat="35.0568862" lon="32.4548807"><ele>14.2</ele><time>2015-04-25T08:45:54.0000000+00:00</time></trkpt><trkpt lat="35.0568246" lon="32.4548668"><ele>14.7</ele><time>2015-04-25T08:45:56.0000000+00:00</time></trkpt><trkpt lat="35.0567528" lon="32.4548575"><ele>14.9</ele><time>2015-04-25T08:45:58.0000000+00:00</time></trkpt><trkpt lat="35.0566734" lon="32.4548527"><ele>15.4</ele><time>2015-04-25T08:46:00.0000000+00:00</time></trkpt><trkpt lat="35.0565963" lon="32.4548695"><ele>16.3</ele><time>2015-04-25T08:46:02.0000000+00:00</time></trkpt><trkpt lat="35.0565201" lon="32.454893"><ele>16.8</ele><time>2015-04-25T08:46:04.0000000+00:00</time></trkpt><trkpt lat="35.0564476" lon="32.4548913"><ele>18.1</ele><time>2015-04-25T08:46:06.0000000+00:00</time></trkpt><trkpt lat="35.0563753" lon="32.4548807"><ele>19.2</ele><time>2015-04-25T08:46:08.0000000+00:00</time></trkpt><trkpt lat="35.0563009" lon="32.4548718"><ele>19.3</ele><time>2015-04-25T08:46:10.0000000+00:00</time></trkpt><trkpt lat="35.0562471" lon="32.454858"><ele>19.1</ele><time>2015-04-25T08:46:11.0000000+00:00</time></trkpt><trkpt lat="35.0561554" lon="32.4548486"><ele>19.5</ele><time>2015-04-25T08:46:13.0000000+00:00</time></trkpt><trkpt lat="35.0560683" lon="32.454848"><ele>19.8</ele><time>2015-04-25T08:46:15.0000000+00:00</time></trkpt><trkpt lat="35.0559831" lon="32.454833"><ele>20.7</ele><time>2015-04-25T08:46:17.0000000+00:00</time></trkpt><trkpt lat="35.0559022" lon="32.4548254"><ele>19.9</ele><time>2015-04-25T08:46:19.0000000+00:00</time></trkpt><trkpt lat="35.0558504" lon="32.4548172"><ele>19.9</ele><time>2015-04-25T08:46:20.0000000+00:00</time></trkpt><trkpt lat="35.0558057" lon="32.4548071"><ele>19.4</ele><time>2015-04-25T08:46:21.0000000+00:00</time></trkpt><trkpt lat="35.0557119" lon="32.4548043"><ele>19.8</ele><time>2015-04-25T08:46:23.0000000+00:00</time></trkpt><trkpt lat="35.0556633" lon="32.4547982"><ele>19.9</ele><time>2015-04-25T08:46:24.0000000+00:00</time></trkpt><trkpt lat="35.0556098" lon="32.4548063"><ele>19.9</ele><time>2015-04-25T08:46:25.0000000+00:00</time></trkpt><trkpt lat="35.0555572" lon="32.4548096"><ele>20.4</ele><time>2015-04-25T08:46:26.0000000+00:00</time></trkpt><trkpt lat="35.0554691" lon="32.4547933"><ele>20.8</ele><time>2015-04-25T08:46:28.0000000+00:00</time></trkpt><trkpt lat="35.0553708" lon="32.4547741"><ele>19.6</ele><time>2015-04-25T08:46:30.0000000+00:00</time></trkpt><trkpt lat="35.0553273" lon="32.4547585"><ele>18.8</ele><time>2015-04-25T08:46:31.0000000+00:00</time></trkpt><trkpt lat="35.0552546" lon="32.4547478"><ele>18.1</ele><time>2015-04-25T08:46:33.0000000+00:00</time></trkpt><trkpt lat="35.0552085" lon="32.4547388"><ele>18.0</ele><time>2015-04-25T08:46:34.0000000+00:00</time></trkpt><trkpt lat="35.0551337" lon="32.4547231"><ele>17.2</ele><time>2015-04-25T08:46:36.0000000+00:00</time></trkpt><trkpt lat="35.0550548" lon="32.4547108"><ele>16.2</ele><time>2015-04-25T08:46:38.0000000+00:00</time></trkpt><trkpt lat="35.0549781" lon="32.4547002"><ele>16.0</ele><time>2015-04-25T08:46:40.0000000+00:00</time></trkpt><trkpt lat="35.0549046" lon="32.4546852"><ele>16.4</ele><time>2015-04-25T08:46:42.0000000+00:00</time></trkpt><trkpt lat="35.0548321" lon="32.4546639"><ele>16.8</ele><time>2015-04-25T08:46:44.0000000+00:00</time></trkpt><trkpt lat="35.0547577" lon="32.4546467"><ele>16.9</ele><time>2015-04-25T08:46:46.0000000+00:00</time></trkpt><trkpt lat="35.0546838" lon="32.4546243"><ele>16.9</ele><time>2015-04-25T08:46:48.0000000+00:00</time></trkpt><trkpt lat="35.0546145" lon="32.4545926"><ele>17.4</ele><time>2015-04-25T08:46:50.0000000+00:00</time></trkpt><trkpt lat="35.0545518" lon="32.4545509"><ele>16.8</ele><time>2015-04-25T08:46:52.0000000+00:00</time></trkpt><trkpt lat="35.0544942" lon="32.4544994"><ele>16.1</ele><time>2015-04-25T08:46:54.0000000+00:00</time></trkpt><trkpt lat="35.0544364" lon="32.454445"><ele>16.5</ele><time>2015-04-25T08:46:56.0000000+00:00</time></trkpt><trkpt lat="35.0543822" lon="32.4543891"><ele>16.8</ele><time>2015-04-25T08:46:58.0000000+00:00</time></trkpt><trkpt lat="35.054327" lon="32.4543247"><ele>16.2</ele><time>2015-04-25T08:47:00.0000000+00:00</time></trkpt><trkpt lat="35.0542704" lon="32.4542519"><ele>16.7</ele><time>2015-04-25T08:47:02.0000000+00:00</time></trkpt><trkpt lat="35.0542417" lon="32.4541933"><ele>16.3</ele><time>2015-04-25T08:47:03.0000000+00:00</time></trkpt><trkpt lat="35.0541798" lon="32.4541191"><ele>12.8</ele><time>2015-04-25T08:47:05.0000000+00:00</time></trkpt><trkpt lat="35.0541329" lon="32.4540289"><ele>12.6</ele><time>2015-04-25T08:47:07.0000000+00:00</time></trkpt><trkpt lat="35.0541061" lon="32.4539841"><ele>13.3</ele><time>2015-04-25T08:47:08.0000000+00:00</time></trkpt><trkpt lat="35.0540784" lon="32.4539344"><ele>14.1</ele><time>2015-04-25T08:47:09.0000000+00:00</time></trkpt><trkpt lat="35.0540466" lon="32.4538917"><ele>15.0</ele><time>2015-04-25T08:47:10.0000000+00:00</time></trkpt><trkpt lat="35.0540188" lon="32.4538367"><ele>16.0</ele><time>2015-04-25T08:47:11.0000000+00:00</time></trkpt><trkpt lat="35.0539879" lon="32.4537842"><ele>17.5</ele><time>2015-04-25T08:47:12.0000000+00:00</time></trkpt><trkpt lat="35.0539628" lon="32.4537297"><ele>17.7</ele><time>2015-04-25T08:47:13.0000000+00:00</time></trkpt><trkpt lat="35.0539381" lon="32.4536776"><ele>18.3</ele><time>2015-04-25T08:47:14.0000000+00:00</time></trkpt><trkpt lat="35.0539117" lon="32.4536287"><ele>18.6</ele><time>2015-04-25T08:47:15.0000000+00:00</time></trkpt><trkpt lat="35.0538776" lon="32.4535785"><ele>20.3</ele><time>2015-04-25T08:47:16.0000000+00:00</time></trkpt><trkpt lat="35.0538442" lon="32.4535236"><ele>21.1</ele><time>2015-04-25T08:47:17.0000000+00:00</time></trkpt><trkpt lat="35.0538226" lon="32.4534714"><ele>21.5</ele><time>2015-04-25T08:47:18.0000000+00:00</time></trkpt><trkpt lat="35.053795" lon="32.453414"><ele>21.2</ele><time>2015-04-25T08:47:19.0000000+00:00</time></trkpt><trkpt lat="35.0537757" lon="32.4533636"><ele>20.6</ele><time>2015-04-25T08:47:20.0000000+00:00</time></trkpt><trkpt lat="35.0537482" lon="32.4533131"><ele>19.8</ele><time>2015-04-25T08:47:21.0000000+00:00</time></trkpt><trkpt lat="35.0537053" lon="32.4532133"><ele>18.9</ele><time>2015-04-25T08:47:23.0000000+00:00</time></trkpt><trkpt lat="35.0536749" lon="32.4531535"><ele>18.9</ele><time>2015-04-25T08:47:24.0000000+00:00</time></trkpt><trkpt lat="35.0536514" lon="32.4530919"><ele>18.9</ele><time>2015-04-25T08:47:25.0000000+00:00</time></trkpt><trkpt lat="35.0536245" lon="32.4530393"><ele>18.4</ele><time>2015-04-25T08:47:26.0000000+00:00</time></trkpt><trkpt lat="35.053598" lon="32.452978"><ele>17.7</ele><time>2015-04-25T08:47:27.0000000+00:00</time></trkpt><trkpt lat="35.0535674" lon="32.4529111"><ele>16.8</ele><time>2015-04-25T08:47:28.0000000+00:00</time></trkpt><trkpt lat="35.0535275" lon="32.4528619"><ele>17.4</ele><time>2015-04-25T08:47:29.0000000+00:00</time></trkpt><trkpt lat="35.0534943" lon="32.4527974"><ele>17.1</ele><time>2015-04-25T08:47:30.0000000+00:00</time></trkpt><trkpt lat="35.0534625" lon="32.45275"><ele>17.0</ele><time>2015-04-25T08:47:31.0000000+00:00</time></trkpt><trkpt lat="35.0534314" lon="32.4526871"><ele>17.0</ele><time>2015-04-25T08:47:32.0000000+00:00</time></trkpt><trkpt lat="35.0533973" lon="32.4526342"><ele>17.5</ele><time>2015-04-25T08:47:33.0000000+00:00</time></trkpt><trkpt lat="35.0533657" lon="32.452576"><ele>18.2</ele><time>2015-04-25T08:47:34.0000000+00:00</time></trkpt><trkpt lat="35.0533314" lon="32.4525146"><ele>18.1</ele><time>2015-04-25T08:47:35.0000000+00:00</time></trkpt><trkpt lat="35.0533046" lon="32.4524534"><ele>18.0</ele><time>2015-04-25T08:47:36.0000000+00:00</time></trkpt><trkpt lat="35.0532697" lon="32.4523889"><ele>18.5</ele><time>2015-04-25T08:47:37.0000000+00:00</time></trkpt><trkpt lat="35.0532398" lon="32.4523366"><ele>18.7</ele><time>2015-04-25T08:47:38.0000000+00:00</time></trkpt><trkpt lat="35.0532126" lon="32.4522781"><ele>18.3</ele><time>2015-04-25T08:47:39.0000000+00:00</time></trkpt><trkpt lat="35.0531921" lon="32.4522151"><ele>18.1</ele><time>2015-04-25T08:47:40.0000000+00:00</time></trkpt><trkpt lat="35.0531594" lon="32.4521601"><ele>18.5</ele><time>2015-04-25T08:47:41.0000000+00:00</time></trkpt><trkpt lat="35.0531295" lon="32.452101"><ele>18.7</ele><time>2015-04-25T08:47:42.0000000+00:00</time></trkpt><trkpt lat="35.0531026" lon="32.4520493"><ele>19.3</ele><time>2015-04-25T08:47:43.0000000+00:00</time></trkpt><trkpt lat="35.0530691" lon="32.4519918"><ele>19.6</ele><time>2015-04-25T08:47:44.0000000+00:00</time></trkpt><trkpt lat="35.0530469" lon="32.4519393"><ele>18.3</ele><time>2015-04-25T08:47:45.0000000+00:00</time></trkpt><trkpt lat="35.052998" lon="32.4518459"><ele>18.5</ele><time>2015-04-25T08:47:47.0000000+00:00</time></trkpt><trkpt lat="35.052965" lon="32.4517924"><ele>19.2</ele><time>2015-04-25T08:47:48.0000000+00:00</time></trkpt><trkpt lat="35.0529188" lon="32.4517034"><ele>20.3</ele><time>2015-04-25T08:47:50.0000000+00:00</time></trkpt><trkpt lat="35.0528761" lon="32.4516521"><ele>21.1</ele><time>2015-04-25T08:47:51.0000000+00:00</time></trkpt><trkpt lat="35.052843" lon="32.4515892"><ele>21.5</ele><time>2015-04-25T08:47:52.0000000+00:00</time></trkpt><trkpt lat="35.0528165" lon="32.4515249"><ele>21.7</ele><time>2015-04-25T08:47:53.0000000+00:00</time></trkpt><trkpt lat="35.0527952" lon="32.451466"><ele>22.3</ele><time>2015-04-25T08:47:54.0000000+00:00</time></trkpt><trkpt lat="35.052771" lon="32.451411"><ele>22.6</ele><time>2015-04-25T08:47:55.0000000+00:00</time></trkpt><trkpt lat="35.052742" lon="32.4513471"><ele>22.8</ele><time>2015-04-25T08:47:56.0000000+00:00</time></trkpt><trkpt lat="35.0527152" lon="32.4512807"><ele>22.9</ele><time>2015-04-25T08:47:57.0000000+00:00</time></trkpt><trkpt lat="35.0526839" lon="32.4512212"><ele>22.9</ele><time>2015-04-25T08:47:58.0000000+00:00</time></trkpt><trkpt lat="35.052657" lon="32.4511574"><ele>23.4</ele><time>2015-04-25T08:47:59.0000000+00:00</time></trkpt><trkpt lat="35.052628" lon="32.4510913"><ele>23.7</ele><time>2015-04-25T08:48:00.0000000+00:00</time></trkpt><trkpt lat="35.0525958" lon="32.4510402"><ele>24.3</ele><time>2015-04-25T08:48:01.0000000+00:00</time></trkpt><trkpt lat="35.0525713" lon="32.450972"><ele>24.6</ele><time>2015-04-25T08:48:02.0000000+00:00</time></trkpt><trkpt lat="35.0525426" lon="32.4509247"><ele>23.8</ele><time>2015-04-25T08:48:03.0000000+00:00</time></trkpt><trkpt lat="35.0525128" lon="32.450863"><ele>23.4</ele><time>2015-04-25T08:48:04.0000000+00:00</time></trkpt><trkpt lat="35.0524866" lon="32.4507973"><ele>22.6</ele><time>2015-04-25T08:48:05.0000000+00:00</time></trkpt><trkpt lat="35.0524547" lon="32.4507367"><ele>22.8</ele><time>2015-04-25T08:48:06.0000000+00:00</time></trkpt><trkpt lat="35.0524175" lon="32.4506854"><ele>22.9</ele><time>2015-04-25T08:48:07.0000000+00:00</time></trkpt><trkpt lat="35.0523919" lon="32.4506316"><ele>22.9</ele><time>2015-04-25T08:48:08.0000000+00:00</time></trkpt><trkpt lat="35.0523665" lon="32.4505696"><ele>21.9</ele><time>2015-04-25T08:48:09.0000000+00:00</time></trkpt><trkpt lat="35.0523508" lon="32.4505011"><ele>20.4</ele><time>2015-04-25T08:48:10.0000000+00:00</time></trkpt><trkpt lat="35.0523029" lon="32.4504101"><ele>19.8</ele><time>2015-04-25T08:48:12.0000000+00:00</time></trkpt><trkpt lat="35.0522767" lon="32.4503529"><ele>20.9</ele><time>2015-04-25T08:48:13.0000000+00:00</time></trkpt><trkpt lat="35.052244" lon="32.4502965"><ele>21.4</ele><time>2015-04-25T08:48:14.0000000+00:00</time></trkpt><trkpt lat="35.05222" lon="32.4502491"><ele>21.2</ele><time>2015-04-25T08:48:15.0000000+00:00</time></trkpt><trkpt lat="35.0521837" lon="32.4501984"><ele>21.5</ele><time>2015-04-25T08:48:16.0000000+00:00</time></trkpt><trkpt lat="35.052157" lon="32.4501456"><ele>21.7</ele><time>2015-04-25T08:48:17.0000000+00:00</time></trkpt><trkpt lat="35.0521213" lon="32.4500905"><ele>22.3</ele><time>2015-04-25T08:48:18.0000000+00:00</time></trkpt><trkpt lat="35.0521018" lon="32.4500392"><ele>23.1</ele><time>2015-04-25T08:48:19.0000000+00:00</time></trkpt><trkpt lat="35.0520687" lon="32.4499878"><ele>23.5</ele><time>2015-04-25T08:48:20.0000000+00:00</time></trkpt><trkpt lat="35.0520413" lon="32.4499244"><ele>23.7</ele><time>2015-04-25T08:48:21.0000000+00:00</time></trkpt><trkpt lat="35.0519961" lon="32.4498161"><ele>21.9</ele><time>2015-04-25T08:48:23.0000000+00:00</time></trkpt><trkpt lat="35.0519716" lon="32.4497627"><ele>21.4</ele><time>2015-04-25T08:48:24.0000000+00:00</time></trkpt><trkpt lat="35.051947" lon="32.4497132"><ele>21.2</ele><time>2015-04-25T08:48:25.0000000+00:00</time></trkpt><trkpt lat="35.0519192" lon="32.4496524"><ele>21.0</ele><time>2015-04-25T08:48:26.0000000+00:00</time></trkpt><trkpt lat="35.0518962" lon="32.4496051"><ele>21.5</ele><time>2015-04-25T08:48:27.0000000+00:00</time></trkpt><trkpt lat="35.051869" lon="32.4495435"><ele>21.7</ele><time>2015-04-25T08:48:28.0000000+00:00</time></trkpt><trkpt lat="35.0518457" lon="32.4494857"><ele>21.8</ele><time>2015-04-25T08:48:29.0000000+00:00</time></trkpt><trkpt lat="35.0518109" lon="32.4494318"><ele>21.9</ele><time>2015-04-25T08:48:30.0000000+00:00</time></trkpt><trkpt lat="35.051783" lon="32.4493727"><ele>20.9</ele><time>2015-04-25T08:48:31.0000000+00:00</time></trkpt><trkpt lat="35.0517584" lon="32.4493234"><ele>19.9</ele><time>2015-04-25T08:48:32.0000000+00:00</time></trkpt><trkpt lat="35.0517345" lon="32.4492699"><ele>19.4</ele><time>2015-04-25T08:48:33.0000000+00:00</time></trkpt><trkpt lat="35.0517128" lon="32.4492201"><ele>19.2</ele><time>2015-04-25T08:48:34.0000000+00:00</time></trkpt><trkpt lat="35.0516881" lon="32.4491736"><ele>19.1</ele><time>2015-04-25T08:48:35.0000000+00:00</time></trkpt><trkpt lat="35.051665" lon="32.4491234"><ele>18.5</ele><time>2015-04-25T08:48:36.0000000+00:00</time></trkpt><trkpt lat="35.0516371" lon="32.4490687"><ele>18.2</ele><time>2015-04-25T08:48:37.0000000+00:00</time></trkpt><trkpt lat="35.0516084" lon="32.4490142"><ele>18.1</ele><time>2015-04-25T08:48:38.0000000+00:00</time></trkpt><trkpt lat="35.0515801" lon="32.4489568"><ele>18.0</ele><time>2015-04-25T08:48:39.0000000+00:00</time></trkpt><trkpt lat="35.0515492" lon="32.4488972"><ele>18.0</ele><time>2015-04-25T08:48:40.0000000+00:00</time></trkpt><trkpt lat="35.051523" lon="32.4488358"><ele>17.4</ele><time>2015-04-25T08:48:41.0000000+00:00</time></trkpt><trkpt lat="35.0514905" lon="32.4487784"><ele>17.2</ele><time>2015-04-25T08:48:42.0000000+00:00</time></trkpt><trkpt lat="35.0514673" lon="32.448724"><ele>18.1</ele><time>2015-04-25T08:48:43.0000000+00:00</time></trkpt><trkpt lat="35.0514341" lon="32.4486699"><ele>19.0</ele><time>2015-04-25T08:48:44.0000000+00:00</time></trkpt><trkpt lat="35.051381" lon="32.4485807"><ele>20.2</ele><time>2015-04-25T08:48:46.0000000+00:00</time></trkpt><trkpt lat="35.0513619" lon="32.4485295"><ele>20.1</ele><time>2015-04-25T08:48:47.0000000+00:00</time></trkpt><trkpt lat="35.0513167" lon="32.4484487"><ele>20.0</ele><time>2015-04-25T08:48:49.0000000+00:00</time></trkpt><trkpt lat="35.0512769" lon="32.4483684"><ele>19.9</ele><time>2015-04-25T08:48:51.0000000+00:00</time></trkpt><trkpt lat="35.0512379" lon="32.4482753"><ele>20.4</ele><time>2015-04-25T08:48:53.0000000+00:00</time></trkpt><trkpt lat="35.0512069" lon="32.4481868"><ele>21.1</ele><time>2015-04-25T08:48:55.0000000+00:00</time></trkpt><trkpt lat="35.0511645" lon="32.4481014"><ele>21.0</ele><time>2015-04-25T08:48:57.0000000+00:00</time></trkpt><trkpt lat="35.0511187" lon="32.4480254"><ele>22.9</ele><time>2015-04-25T08:48:59.0000000+00:00</time></trkpt><trkpt lat="35.0510753" lon="32.4479359"><ele>23.7</ele><time>2015-04-25T08:49:01.0000000+00:00</time></trkpt><trkpt lat="35.051059" lon="32.4478781"><ele>24.3</ele><time>2015-04-25T08:49:02.0000000+00:00</time></trkpt><trkpt lat="35.0510344" lon="32.4478282"><ele>24.6</ele><time>2015-04-25T08:49:03.0000000+00:00</time></trkpt><trkpt lat="35.051006" lon="32.4477668"><ele>24.8</ele><time>2015-04-25T08:49:04.0000000+00:00</time></trkpt><trkpt lat="35.050981" lon="32.447706"><ele>24.9</ele><time>2015-04-25T08:49:05.0000000+00:00</time></trkpt><trkpt lat="35.0509682" lon="32.4476506"><ele>24.4</ele><time>2015-04-25T08:49:06.0000000+00:00</time></trkpt><trkpt lat="35.0509139" lon="32.447534"><ele>23.3</ele><time>2015-04-25T08:49:08.0000000+00:00</time></trkpt><trkpt lat="35.0508805" lon="32.4474678"><ele>23.1</ele><time>2015-04-25T08:49:09.0000000+00:00</time></trkpt><trkpt lat="35.0508451" lon="32.4474179"><ele>23.5</ele><time>2015-04-25T08:49:10.0000000+00:00</time></trkpt><trkpt lat="35.0508159" lon="32.4473629"><ele>23.7</ele><time>2015-04-25T08:49:11.0000000+00:00</time></trkpt><trkpt lat="35.0507788" lon="32.4473033"><ele>23.8</ele><time>2015-04-25T08:49:12.0000000+00:00</time></trkpt><trkpt lat="35.0507391" lon="32.4472421"><ele>23.4</ele><time>2015-04-25T08:49:13.0000000+00:00</time></trkpt><trkpt lat="35.0507142" lon="32.4471838"><ele>23.7</ele><time>2015-04-25T08:49:14.0000000+00:00</time></trkpt><trkpt lat="35.0506887" lon="32.4471262"><ele>23.3</ele><time>2015-04-25T08:49:15.0000000+00:00</time></trkpt><trkpt lat="35.0506634" lon="32.4470762"><ele>22.6</ele><time>2015-04-25T08:49:16.0000000+00:00</time></trkpt><trkpt lat="35.0506265" lon="32.4470124"><ele>22.3</ele><time>2015-04-25T08:49:17.0000000+00:00</time></trkpt><trkpt lat="35.05059" lon="32.4469562"><ele>21.6</ele><time>2015-04-25T08:49:18.0000000+00:00</time></trkpt><trkpt lat="35.0505562" lon="32.4468987"><ele>21.3</ele><time>2015-04-25T08:49:19.0000000+00:00</time></trkpt><trkpt lat="35.0505306" lon="32.4468479"><ele>21.1</ele><time>2015-04-25T08:49:20.0000000+00:00</time></trkpt><trkpt lat="35.0504956" lon="32.4467977"><ele>21.0</ele><time>2015-04-25T08:49:21.0000000+00:00</time></trkpt><trkpt lat="35.0504673" lon="32.4467421"><ele>20.5</ele><time>2015-04-25T08:49:22.0000000+00:00</time></trkpt><trkpt lat="35.0504342" lon="32.4466892"><ele>20.7</ele><time>2015-04-25T08:49:23.0000000+00:00</time></trkpt><trkpt lat="35.0503885" lon="32.4466205"><ele>20.8</ele><time>2015-04-25T08:49:24.0000000+00:00</time></trkpt><trkpt lat="35.0503443" lon="32.4465608"><ele>21.4</ele><time>2015-04-25T08:49:25.0000000+00:00</time></trkpt><trkpt lat="35.0503122" lon="32.4465056"><ele>21.2</ele><time>2015-04-25T08:49:26.0000000+00:00</time></trkpt><trkpt lat="35.0502798" lon="32.4464431"><ele>21.0</ele><time>2015-04-25T08:49:27.0000000+00:00</time></trkpt><trkpt lat="35.0502416" lon="32.4463792"><ele>21.0</ele><time>2015-04-25T08:49:28.0000000+00:00</time></trkpt><trkpt lat="35.0502037" lon="32.4463182"><ele>21.0</ele><time>2015-04-25T08:49:29.0000000+00:00</time></trkpt><trkpt lat="35.05017" lon="32.446258"><ele>21.4</ele><time>2015-04-25T08:49:30.0000000+00:00</time></trkpt><trkpt lat="35.0501378" lon="32.446182"><ele>20.2</ele><time>2015-04-25T08:49:31.0000000+00:00</time></trkpt><trkpt lat="35.0500965" lon="32.4461149"><ele>20.1</ele><time>2015-04-25T08:49:32.0000000+00:00</time></trkpt><trkpt lat="35.0500631" lon="32.446058"><ele>20.5</ele><time>2015-04-25T08:49:33.0000000+00:00</time></trkpt><trkpt lat="35.0500215" lon="32.4459983"><ele>20.2</ele><time>2015-04-25T08:49:34.0000000+00:00</time></trkpt><trkpt lat="35.0499885" lon="32.4459397"><ele>20.1</ele><time>2015-04-25T08:49:35.0000000+00:00</time></trkpt><trkpt lat="35.0499416" lon="32.4458807"><ele>19.5</ele><time>2015-04-25T08:49:36.0000000+00:00</time></trkpt><trkpt lat="35.0499053" lon="32.4458215"><ele>19.7</ele><time>2015-04-25T08:49:37.0000000+00:00</time></trkpt><trkpt lat="35.0498635" lon="32.4457615"><ele>19.8</ele><time>2015-04-25T08:49:38.0000000+00:00</time></trkpt><trkpt lat="35.0498306" lon="32.445704"><ele>19.9</ele><time>2015-04-25T08:49:39.0000000+00:00</time></trkpt><trkpt lat="35.0497896" lon="32.4456454"><ele>19.9</ele><time>2015-04-25T08:49:40.0000000+00:00</time></trkpt><trkpt lat="35.0497595" lon="32.4455949"><ele>18.4</ele><time>2015-04-25T08:49:41.0000000+00:00</time></trkpt><trkpt lat="35.0497252" lon="32.4455315"><ele>17.7</ele><time>2015-04-25T08:49:42.0000000+00:00</time></trkpt><trkpt lat="35.0496893" lon="32.4454724"><ele>18.3</ele><time>2015-04-25T08:49:43.0000000+00:00</time></trkpt><trkpt lat="35.0496456" lon="32.4454066"><ele>18.6</ele><time>2015-04-25T08:49:44.0000000+00:00</time></trkpt><trkpt lat="35.0496074" lon="32.4453479"><ele>19.3</ele><time>2015-04-25T08:49:45.0000000+00:00</time></trkpt><trkpt lat="35.049565" lon="32.4452865"><ele>20.1</ele><time>2015-04-25T08:49:46.0000000+00:00</time></trkpt><trkpt lat="35.0495242" lon="32.4452304"><ele>20.5</ele><time>2015-04-25T08:49:47.0000000+00:00</time></trkpt><trkpt lat="35.0494762" lon="32.4451609"><ele>20.7</ele><time>2015-04-25T08:49:48.0000000+00:00</time></trkpt><trkpt lat="35.0494381" lon="32.4450995"><ele>21.3</ele><time>2015-04-25T08:49:49.0000000+00:00</time></trkpt><trkpt lat="35.0494034" lon="32.4450237"><ele>20.1</ele><time>2015-04-25T08:49:50.0000000+00:00</time></trkpt><trkpt lat="35.0493603" lon="32.4449602"><ele>18.5</ele><time>2015-04-25T08:49:51.0000000+00:00</time></trkpt><trkpt lat="35.0493233" lon="32.4448963"><ele>17.2</ele><time>2015-04-25T08:49:52.0000000+00:00</time></trkpt><trkpt lat="35.0492899" lon="32.4448363"><ele>17.1</ele><time>2015-04-25T08:49:53.0000000+00:00</time></trkpt><trkpt lat="35.0492602" lon="32.4447635"><ele>16.5</ele><time>2015-04-25T08:49:54.0000000+00:00</time></trkpt><trkpt lat="35.0492188" lon="32.4447015"><ele>16.7</ele><time>2015-04-25T08:49:55.0000000+00:00</time></trkpt><trkpt lat="35.0491797" lon="32.444634"><ele>16.3</ele><time>2015-04-25T08:49:56.0000000+00:00</time></trkpt><trkpt lat="35.0491441" lon="32.4445656"><ele>16.1</ele><time>2015-04-25T08:49:57.0000000+00:00</time></trkpt><trkpt lat="35.0491114" lon="32.4445084"><ele>16.5</ele><time>2015-04-25T08:49:58.0000000+00:00</time></trkpt><trkpt lat="35.049061" lon="32.4444493"><ele>16.2</ele><time>2015-04-25T08:49:59.0000000+00:00</time></trkpt><trkpt lat="35.0490045" lon="32.4443842"><ele>16.6</ele><time>2015-04-25T08:50:00.0000000+00:00</time></trkpt><trkpt lat="35.0489665" lon="32.4443314"><ele>16.8</ele><time>2015-04-25T08:50:01.0000000+00:00</time></trkpt><trkpt lat="35.0489277" lon="32.4442643"><ele>17.3</ele><time>2015-04-25T08:50:02.0000000+00:00</time></trkpt><trkpt lat="35.0488894" lon="32.4442002"><ele>17.1</ele><time>2015-04-25T08:50:03.0000000+00:00</time></trkpt><trkpt lat="35.0488457" lon="32.444134"><ele>17.5</ele><time>2015-04-25T08:50:04.0000000+00:00</time></trkpt><trkpt lat="35.0487981" lon="32.4440725"><ele>18.2</ele><time>2015-04-25T08:50:05.0000000+00:00</time></trkpt><trkpt lat="35.0487529" lon="32.4440036"><ele>18.6</ele><time>2015-04-25T08:50:06.0000000+00:00</time></trkpt><trkpt lat="35.0487132" lon="32.4439417"><ele>18.8</ele><time>2015-04-25T08:50:07.0000000+00:00</time></trkpt><trkpt lat="35.0486739" lon="32.4438779"><ele>18.3</ele><time>2015-04-25T08:50:08.0000000+00:00</time></trkpt><trkpt lat="35.0486351" lon="32.4438144"><ele>18.6</ele><time>2015-04-25T08:50:09.0000000+00:00</time></trkpt><trkpt lat="35.0485938" lon="32.4437482"><ele>18.8</ele><time>2015-04-25T08:50:10.0000000+00:00</time></trkpt><trkpt lat="35.0485519" lon="32.4436926"><ele>19.4</ele><time>2015-04-25T08:50:11.0000000+00:00</time></trkpt><trkpt lat="35.0485064" lon="32.4436239"><ele>19.6</ele><time>2015-04-25T08:50:12.0000000+00:00</time></trkpt><trkpt lat="35.0484733" lon="32.4435632"><ele>19.8</ele><time>2015-04-25T08:50:13.0000000+00:00</time></trkpt><trkpt lat="35.0484449" lon="32.4435021"><ele>19.9</ele><time>2015-04-25T08:50:14.0000000+00:00</time></trkpt><trkpt lat="35.0484084" lon="32.443443"><ele>19.9</ele><time>2015-04-25T08:50:15.0000000+00:00</time></trkpt><trkpt lat="35.0483806" lon="32.4433813"><ele>19.4</ele><time>2015-04-25T08:50:16.0000000+00:00</time></trkpt><trkpt lat="35.0483445" lon="32.443322"><ele>19.2</ele><time>2015-04-25T08:50:17.0000000+00:00</time></trkpt><trkpt lat="35.0483021" lon="32.4432642"><ele>18.6</ele><time>2015-04-25T08:50:18.0000000+00:00</time></trkpt><trkpt lat="35.0482707" lon="32.4432055"><ele>18.2</ele><time>2015-04-25T08:50:19.0000000+00:00</time></trkpt><trkpt lat="35.0482367" lon="32.4431316"><ele>16.6</ele><time>2015-04-25T08:50:20.0000000+00:00</time></trkpt><trkpt lat="35.0481971" lon="32.4430802"><ele>15.8</ele><time>2015-04-25T08:50:21.0000000+00:00</time></trkpt><trkpt lat="35.0481526" lon="32.4430209"><ele>16.3</ele><time>2015-04-25T08:50:22.0000000+00:00</time></trkpt><trkpt lat="35.0481156" lon="32.4429588"><ele>16.6</ele><time>2015-04-25T08:50:23.0000000+00:00</time></trkpt><trkpt lat="35.0480843" lon="32.4429041"><ele>16.8</ele><time>2015-04-25T08:50:24.0000000+00:00</time></trkpt><trkpt lat="35.0480516" lon="32.4428403"><ele>15.9</ele><time>2015-04-25T08:50:25.0000000+00:00</time></trkpt><trkpt lat="35.0480184" lon="32.4427817"><ele>15.4</ele><time>2015-04-25T08:50:26.0000000+00:00</time></trkpt><trkpt lat="35.0479797" lon="32.4427285"><ele>15.7</ele><time>2015-04-25T08:50:27.0000000+00:00</time></trkpt><trkpt lat="35.0479439" lon="32.4426651"><ele>16.3</ele><time>2015-04-25T08:50:28.0000000+00:00</time></trkpt><trkpt lat="35.0479072" lon="32.4426016"><ele>16.6</ele><time>2015-04-25T08:50:29.0000000+00:00</time></trkpt><trkpt lat="35.0478645" lon="32.4425445"><ele>16.8</ele><time>2015-04-25T08:50:30.0000000+00:00</time></trkpt><trkpt lat="35.0478242" lon="32.4424981"><ele>16.9</ele><time>2015-04-25T08:50:31.0000000+00:00</time></trkpt><trkpt lat="35.0477923" lon="32.4424438"><ele>16.9</ele><time>2015-04-25T08:50:32.0000000+00:00</time></trkpt><trkpt lat="35.0477537" lon="32.4423901"><ele>17.4</ele><time>2015-04-25T08:50:33.0000000+00:00</time></trkpt><trkpt lat="35.0477191" lon="32.4423488"><ele>18.2</ele><time>2015-04-25T08:50:34.0000000+00:00</time></trkpt><trkpt lat="35.0476828" lon="32.4423027"><ele>19.1</ele><time>2015-04-25T08:50:35.0000000+00:00</time></trkpt><trkpt lat="35.0476458" lon="32.4422496"><ele>19.5</ele><time>2015-04-25T08:50:36.0000000+00:00</time></trkpt><trkpt lat="35.0476099" lon="32.4422079"><ele>20.2</ele><time>2015-04-25T08:50:37.0000000+00:00</time></trkpt><trkpt lat="35.0475758" lon="32.4421617"><ele>20.6</ele><time>2015-04-25T08:50:38.0000000+00:00</time></trkpt><trkpt lat="35.0475415" lon="32.4421109"><ele>19.8</ele><time>2015-04-25T08:50:39.0000000+00:00</time></trkpt><trkpt lat="35.0475049" lon="32.4420636"><ele>19.3</ele><time>2015-04-25T08:50:40.0000000+00:00</time></trkpt><trkpt lat="35.0474638" lon="32.4420206"><ele>19.1</ele><time>2015-04-25T08:50:41.0000000+00:00</time></trkpt><trkpt lat="35.0474269" lon="32.441962"><ele>17.5</ele><time>2015-04-25T08:50:42.0000000+00:00</time></trkpt><trkpt lat="35.0473845" lon="32.4419071"><ele>16.7</ele><time>2015-04-25T08:50:43.0000000+00:00</time></trkpt><trkpt lat="35.047335" lon="32.4418494"><ele>16.3</ele><time>2015-04-25T08:50:44.0000000+00:00</time></trkpt><trkpt lat="35.0472888" lon="32.4417989"><ele>16.1</ele><time>2015-04-25T08:50:45.0000000+00:00</time></trkpt><trkpt lat="35.0472408" lon="32.4417466"><ele>15.5</ele><time>2015-04-25T08:50:46.0000000+00:00</time></trkpt><trkpt lat="35.0471939" lon="32.4417017"><ele>15.2</ele><time>2015-04-25T08:50:47.0000000+00:00</time></trkpt><trkpt lat="35.0471502" lon="32.441653"><ele>15.1</ele><time>2015-04-25T08:50:48.0000000+00:00</time></trkpt><trkpt lat="35.0471044" lon="32.4416102"><ele>15.5</ele><time>2015-04-25T08:50:49.0000000+00:00</time></trkpt><trkpt lat="35.0470532" lon="32.4415636"><ele>15.7</ele><time>2015-04-25T08:50:50.0000000+00:00</time></trkpt><trkpt lat="35.0470038" lon="32.4415284"><ele>15.8</ele><time>2015-04-25T08:50:51.0000000+00:00</time></trkpt><trkpt lat="35.0469505" lon="32.4414862"><ele>15.9</ele><time>2015-04-25T08:50:52.0000000+00:00</time></trkpt><trkpt lat="35.0468942" lon="32.4414512"><ele>15.9</ele><time>2015-04-25T08:50:53.0000000+00:00</time></trkpt><trkpt lat="35.0468462" lon="32.4414126"><ele>15.9</ele><time>2015-04-25T08:50:54.0000000+00:00</time></trkpt><trkpt lat="35.04679" lon="32.4413865"><ele>16.4</ele><time>2015-04-25T08:50:55.0000000+00:00</time></trkpt><trkpt lat="35.0467385" lon="32.4413515"><ele>16.7</ele><time>2015-04-25T08:50:56.0000000+00:00</time></trkpt><trkpt lat="35.0466788" lon="32.441314"><ele>17.3</ele><time>2015-04-25T08:50:57.0000000+00:00</time></trkpt><trkpt lat="35.0466255" lon="32.4412774"><ele>17.6</ele><time>2015-04-25T08:50:58.0000000+00:00</time></trkpt><trkpt lat="35.0465756" lon="32.4412487"><ele>17.8</ele><time>2015-04-25T08:50:59.0000000+00:00</time></trkpt><trkpt lat="35.0465118" lon="32.4412274"><ele>18.4</ele><time>2015-04-25T08:51:00.0000000+00:00</time></trkpt><trkpt lat="35.0464656" lon="32.4412012"><ele>19.1</ele><time>2015-04-25T08:51:01.0000000+00:00</time></trkpt><trkpt lat="35.0464078" lon="32.4411826"><ele>20.5</ele><time>2015-04-25T08:51:02.0000000+00:00</time></trkpt><trkpt lat="35.04636" lon="32.4411524"><ele>19.7</ele><time>2015-04-25T08:51:03.0000000+00:00</time></trkpt><trkpt lat="35.0462728" lon="32.4411294"><ele>19.1</ele><time>2015-04-25T08:51:05.0000000+00:00</time></trkpt><trkpt lat="35.0461897" lon="32.4410968"><ele>19.0</ele><time>2015-04-25T08:51:07.0000000+00:00</time></trkpt><trkpt lat="35.0461374" lon="32.4410741"><ele>18.5</ele><time>2015-04-25T08:51:08.0000000+00:00</time></trkpt><trkpt lat="35.0460938" lon="32.4410548"><ele>18.2</ele><time>2015-04-25T08:51:09.0000000+00:00</time></trkpt><trkpt lat="35.0460478" lon="32.4410364"><ele>18.6</ele><time>2015-04-25T08:51:10.0000000+00:00</time></trkpt><trkpt lat="35.0459498" lon="32.4410148"><ele>19.6</ele><time>2015-04-25T08:51:12.0000000+00:00</time></trkpt><trkpt lat="35.0459062" lon="32.4409936"><ele>19.3</ele><time>2015-04-25T08:51:13.0000000+00:00</time></trkpt><trkpt lat="35.045855" lon="32.4409882"><ele>19.1</ele><time>2015-04-25T08:51:14.0000000+00:00</time></trkpt><trkpt lat="35.0458032" lon="32.4409786"><ele>19.0</ele><time>2015-04-25T08:51:15.0000000+00:00</time></trkpt><trkpt lat="35.0457495" lon="32.4409777"><ele>19.0</ele><time>2015-04-25T08:51:16.0000000+00:00</time></trkpt><trkpt lat="35.0456987" lon="32.4409772"><ele>19.5</ele><time>2015-04-25T08:51:17.0000000+00:00</time></trkpt><trkpt lat="35.0456474" lon="32.4409649"><ele>19.7</ele><time>2015-04-25T08:51:18.0000000+00:00</time></trkpt><trkpt lat="35.0455933" lon="32.4409486"><ele>20.3</ele><time>2015-04-25T08:51:19.0000000+00:00</time></trkpt><trkpt lat="35.0455338" lon="32.440934"><ele>20.6</ele><time>2015-04-25T08:51:20.0000000+00:00</time></trkpt><trkpt lat="35.0454849" lon="32.4409278"><ele>20.8</ele><time>2015-04-25T08:51:21.0000000+00:00</time></trkpt><trkpt lat="35.0454279" lon="32.440915"><ele>20.9</ele><time>2015-04-25T08:51:22.0000000+00:00</time></trkpt><trkpt lat="35.0453378" lon="32.44091"><ele>21.7</ele><time>2015-04-25T08:51:24.0000000+00:00</time></trkpt><trkpt lat="35.0452893" lon="32.4409089"><ele>21.8</ele><time>2015-04-25T08:51:25.0000000+00:00</time></trkpt><trkpt lat="35.0452436" lon="32.4409062"><ele>22.4</ele><time>2015-04-25T08:51:26.0000000+00:00</time></trkpt><trkpt lat="35.0451615" lon="32.4409025"><ele>23.0</ele><time>2015-04-25T08:51:28.0000000+00:00</time></trkpt><trkpt lat="35.045086" lon="32.4408964"><ele>23.5</ele><time>2015-04-25T08:51:30.0000000+00:00</time></trkpt><trkpt lat="35.0450143" lon="32.4408875"><ele>22.8</ele><time>2015-04-25T08:51:32.0000000+00:00</time></trkpt><trkpt lat="35.0449371" lon="32.4408908"><ele>23.7</ele><time>2015-04-25T08:51:34.0000000+00:00</time></trkpt><trkpt lat="35.044848" lon="32.4408984"><ele>23.1</ele><time>2015-04-25T08:51:36.0000000+00:00</time></trkpt><trkpt lat="35.044803" lon="32.4409039"><ele>23.0</ele><time>2015-04-25T08:51:37.0000000+00:00</time></trkpt><trkpt lat="35.0447201" lon="32.4408782"><ele>23.7</ele><time>2015-04-25T08:51:39.0000000+00:00</time></trkpt><trkpt lat="35.0446391" lon="32.4408817"><ele>23.9</ele><time>2015-04-25T08:51:41.0000000+00:00</time></trkpt><trkpt lat="35.0445587" lon="32.4408715"><ele>24.4</ele><time>2015-04-25T08:51:43.0000000+00:00</time></trkpt><trkpt lat="35.0444749" lon="32.4408649"><ele>24.3</ele><time>2015-04-25T08:51:45.0000000+00:00</time></trkpt><trkpt lat="35.0443813" lon="32.4408522"><ele>24.0</ele><time>2015-04-25T08:51:47.0000000+00:00</time></trkpt><trkpt lat="35.0443338" lon="32.4408571"><ele>24.0</ele><time>2015-04-25T08:51:48.0000000+00:00</time></trkpt><trkpt lat="35.0442566" lon="32.4408409"><ele>24.4</ele><time>2015-04-25T08:51:50.0000000+00:00</time></trkpt><trkpt lat="35.044206" lon="32.4408376"><ele>24.7</ele><time>2015-04-25T08:51:51.0000000+00:00</time></trkpt><trkpt lat="35.0441558" lon="32.4408401"><ele>24.8</ele><time>2015-04-25T08:51:52.0000000+00:00</time></trkpt><trkpt lat="35.0440644" lon="32.4408457"><ele>24.9</ele><time>2015-04-25T08:51:54.0000000+00:00</time></trkpt><trkpt lat="35.0439837" lon="32.4408437"><ele>24.9</ele><time>2015-04-25T08:51:56.0000000+00:00</time></trkpt><trkpt lat="35.0439376" lon="32.4408602"><ele>24.4</ele><time>2015-04-25T08:51:57.0000000+00:00</time></trkpt><trkpt lat="35.0438398" lon="32.4408438"><ele>24.3</ele><time>2015-04-25T08:51:59.0000000+00:00</time></trkpt><trkpt lat="35.0437912" lon="32.4408395"><ele>24.1</ele><time>2015-04-25T08:52:00.0000000+00:00</time></trkpt><trkpt lat="35.043704" lon="32.4408254"><ele>24.5</ele><time>2015-04-25T08:52:02.0000000+00:00</time></trkpt><trkpt lat="35.0436151" lon="32.4408124"><ele>24.8</ele><time>2015-04-25T08:52:04.0000000+00:00</time></trkpt><trkpt lat="35.0435618" lon="32.4408209"><ele>25.4</ele><time>2015-04-25T08:52:05.0000000+00:00</time></trkpt><trkpt lat="35.0435079" lon="32.4408213"><ele>26.2</ele><time>2015-04-25T08:52:06.0000000+00:00</time></trkpt><trkpt lat="35.0434406" lon="32.4408351"><ele>28.2</ele><time>2015-04-25T08:52:08.0000000+00:00</time></trkpt><trkpt lat="35.043347" lon="32.440817"><ele>29.3</ele><time>2015-04-25T08:52:10.0000000+00:00</time></trkpt><trkpt lat="35.043266" lon="32.4407931"><ele>29.8</ele><time>2015-04-25T08:52:12.0000000+00:00</time></trkpt><trkpt lat="35.0432125" lon="32.4407932"><ele>29.8</ele><time>2015-04-25T08:52:13.0000000+00:00</time></trkpt><trkpt lat="35.0431608" lon="32.4407806"><ele>29.9</ele><time>2015-04-25T08:52:14.0000000+00:00</time></trkpt><trkpt lat="35.0431154" lon="32.440763"><ele>30.4</ele><time>2015-04-25T08:52:15.0000000+00:00</time></trkpt><trkpt lat="35.043031" lon="32.4407478"><ele>30.3</ele><time>2015-04-25T08:52:17.0000000+00:00</time></trkpt><trkpt lat="35.0429782" lon="32.4407383"><ele>29.6</ele><time>2015-04-25T08:52:18.0000000+00:00</time></trkpt><trkpt lat="35.0428927" lon="32.4407172"><ele>30.4</ele><time>2015-04-25T08:52:20.0000000+00:00</time></trkpt><trkpt lat="35.0428442" lon="32.4407149"><ele>30.6</ele><time>2015-04-25T08:52:21.0000000+00:00</time></trkpt><trkpt lat="35.0427897" lon="32.4407054"><ele>30.8</ele><time>2015-04-25T08:52:22.0000000+00:00</time></trkpt><trkpt lat="35.0427404" lon="32.4406981"><ele>31.4</ele><time>2015-04-25T08:52:23.0000000+00:00</time></trkpt><trkpt lat="35.0426921" lon="32.4406869"><ele>31.6</ele><time>2015-04-25T08:52:24.0000000+00:00</time></trkpt><trkpt lat="35.0426097" lon="32.4406622"><ele>31.6</ele><time>2015-04-25T08:52:26.0000000+00:00</time></trkpt><trkpt lat="35.0425255" lon="32.4406295"><ele>32.1</ele><time>2015-04-25T08:52:28.0000000+00:00</time></trkpt><trkpt lat="35.0424856" lon="32.4405958"><ele>30.5</ele><time>2015-04-25T08:52:29.0000000+00:00</time></trkpt><trkpt lat="35.0424147" lon="32.4405716"><ele>29.3</ele><time>2015-04-25T08:52:31.0000000+00:00</time></trkpt><trkpt lat="35.0423624" lon="32.4405524"><ele>29.1</ele><time>2015-04-25T08:52:32.0000000+00:00</time></trkpt><trkpt lat="35.042281" lon="32.4405"><ele>29.0</ele><time>2015-04-25T08:52:34.0000000+00:00</time></trkpt><trkpt lat="35.0421932" lon="32.4404515"><ele>28.9</ele><time>2015-04-25T08:52:36.0000000+00:00</time></trkpt><trkpt lat="35.0421501" lon="32.4404275"><ele>28.4</ele><time>2015-04-25T08:52:37.0000000+00:00</time></trkpt><trkpt lat="35.0420736" lon="32.440384"><ele>27.8</ele><time>2015-04-25T08:52:39.0000000+00:00</time></trkpt><trkpt lat="35.0420339" lon="32.4403533"><ele>27.9</ele><time>2015-04-25T08:52:40.0000000+00:00</time></trkpt><trkpt lat="35.0419556" lon="32.4403099"><ele>28.7</ele><time>2015-04-25T08:52:42.0000000+00:00</time></trkpt><trkpt lat="35.0419058" lon="32.4402781"><ele>29.8</ele><time>2015-04-25T08:52:43.0000000+00:00</time></trkpt><trkpt lat="35.0418656" lon="32.4402503"><ele>30.9</ele><time>2015-04-25T08:52:44.0000000+00:00</time></trkpt><trkpt lat="35.0417992" lon="32.4402011"><ele>32.2</ele><time>2015-04-25T08:52:46.0000000+00:00</time></trkpt><trkpt lat="35.0417303" lon="32.4401375"><ele>31.5</ele><time>2015-04-25T08:52:48.0000000+00:00</time></trkpt><trkpt lat="35.0416942" lon="32.4401017"><ele>31.7</ele><time>2015-04-25T08:52:49.0000000+00:00</time></trkpt><trkpt lat="35.0416318" lon="32.4400326"><ele>31.9</ele><time>2015-04-25T08:52:51.0000000+00:00</time></trkpt><trkpt lat="35.0415597" lon="32.4399786"><ele>33.2</ele><time>2015-04-25T08:52:53.0000000+00:00</time></trkpt><trkpt lat="35.0415231" lon="32.4399344"><ele>34.0</ele><time>2015-04-25T08:52:54.0000000+00:00</time></trkpt><trkpt lat="35.0414543" lon="32.4398616"><ele>34.7</ele><time>2015-04-25T08:52:56.0000000+00:00</time></trkpt><trkpt lat="35.041414" lon="32.4398277"><ele>34.8</ele><time>2015-04-25T08:52:57.0000000+00:00</time></trkpt><trkpt lat="35.0413522" lon="32.4397466"><ele>35.4</ele><time>2015-04-25T08:52:59.0000000+00:00</time></trkpt><trkpt lat="35.0413254" lon="32.4397009"><ele>35.2</ele><time>2015-04-25T08:53:00.0000000+00:00</time></trkpt><trkpt lat="35.041276" lon="32.4396389"><ele>37.0</ele><time>2015-04-25T08:53:02.0000000+00:00</time></trkpt><trkpt lat="35.0412391" lon="32.4395569"><ele>38.7</ele><time>2015-04-25T08:53:04.0000000+00:00</time></trkpt><trkpt lat="35.041198" lon="32.4394998"><ele>39.4</ele><time>2015-04-25T08:53:06.0000000+00:00</time></trkpt><trkpt lat="35.0411364" lon="32.4394334"><ele>41.0</ele><time>2015-04-25T08:53:08.0000000+00:00</time></trkpt><trkpt lat="35.0410938" lon="32.4393597"><ele>41.5</ele><time>2015-04-25T08:53:10.0000000+00:00</time></trkpt><trkpt lat="35.0410456" lon="32.4392795"><ele>41.3</ele><time>2015-04-25T08:53:12.0000000+00:00</time></trkpt><trkpt lat="35.041016" lon="32.4392286"><ele>41.1</ele><time>2015-04-25T08:53:13.0000000+00:00</time></trkpt><trkpt lat="35.0409894" lon="32.4391802"><ele>41.0</ele><time>2015-04-25T08:53:14.0000000+00:00</time></trkpt><trkpt lat="35.0409649" lon="32.439129"><ele>41.0</ele><time>2015-04-25T08:53:15.0000000+00:00</time></trkpt><trkpt lat="35.0409318" lon="32.4390786"><ele>41.0</ele><time>2015-04-25T08:53:16.0000000+00:00</time></trkpt><trkpt lat="35.0408994" lon="32.4390218"><ele>41.4</ele><time>2015-04-25T08:53:17.0000000+00:00</time></trkpt><trkpt lat="35.0408775" lon="32.4389591"><ele>40.2</ele><time>2015-04-25T08:53:18.0000000+00:00</time></trkpt><trkpt lat="35.0408522" lon="32.4389124"><ele>39.6</ele><time>2015-04-25T08:53:19.0000000+00:00</time></trkpt><trkpt lat="35.0408213" lon="32.438867"><ele>39.2</ele><time>2015-04-25T08:53:20.0000000+00:00</time></trkpt><trkpt lat="35.0407764" lon="32.4387853"><ele>39.8</ele><time>2015-04-25T08:53:22.0000000+00:00</time></trkpt><trkpt lat="35.0407272" lon="32.438699"><ele>40.4</ele><time>2015-04-25T08:53:24.0000000+00:00</time></trkpt><trkpt lat="35.040688" lon="32.4386141"><ele>40.8</ele><time>2015-04-25T08:53:26.0000000+00:00</time></trkpt><trkpt lat="35.0406481" lon="32.4385334"><ele>40.6</ele><time>2015-04-25T08:53:28.0000000+00:00</time></trkpt><trkpt lat="35.0406076" lon="32.4384527"><ele>40.1</ele><time>2015-04-25T08:53:30.0000000+00:00</time></trkpt><trkpt lat="35.0405475" lon="32.4383607"><ele>40.0</ele><time>2015-04-25T08:53:32.0000000+00:00</time></trkpt><trkpt lat="35.0405254" lon="32.4383128"><ele>40.5</ele><time>2015-04-25T08:53:33.0000000+00:00</time></trkpt><trkpt lat="35.0405003" lon="32.4382644"><ele>40.7</ele><time>2015-04-25T08:53:34.0000000+00:00</time></trkpt><trkpt lat="35.0404541" lon="32.4381846"><ele>42.1</ele><time>2015-04-25T08:53:36.0000000+00:00</time></trkpt><trkpt lat="35.0404311" lon="32.4381335"><ele>42.0</ele><time>2015-04-25T08:53:37.0000000+00:00</time></trkpt><trkpt lat="35.0403889" lon="32.4380508"><ele>42.5</ele><time>2015-04-25T08:53:39.0000000+00:00</time></trkpt><trkpt lat="35.0403471" lon="32.4379565"><ele>42.1</ele><time>2015-04-25T08:53:41.0000000+00:00</time></trkpt><trkpt lat="35.0403282" lon="32.4379024"><ele>42.0</ele><time>2015-04-25T08:53:42.0000000+00:00</time></trkpt><trkpt lat="35.0403083" lon="32.4378458"><ele>41.5</ele><time>2015-04-25T08:53:43.0000000+00:00</time></trkpt><trkpt lat="35.0402826" lon="32.4377926"><ele>41.2</ele><time>2015-04-25T08:53:44.0000000+00:00</time></trkpt><trkpt lat="35.0402492" lon="32.4377358"><ele>41.6</ele><time>2015-04-25T08:53:45.0000000+00:00</time></trkpt><trkpt lat="35.0402255" lon="32.4376859"><ele>41.7</ele><time>2015-04-25T08:53:46.0000000+00:00</time></trkpt><trkpt lat="35.0401796" lon="32.437579"><ele>40.6</ele><time>2015-04-25T08:53:48.0000000+00:00</time></trkpt><trkpt lat="35.0401538" lon="32.4375298"><ele>40.3</ele><time>2015-04-25T08:53:49.0000000+00:00</time></trkpt><trkpt lat="35.0401232" lon="32.4374812"><ele>40.1</ele><time>2015-04-25T08:53:50.0000000+00:00</time></trkpt><trkpt lat="35.0400912" lon="32.4374308"><ele>40.5</ele><time>2015-04-25T08:53:51.0000000+00:00</time></trkpt><trkpt lat="35.0400602" lon="32.4373856"><ele>40.7</ele><time>2015-04-25T08:53:52.0000000+00:00</time></trkpt><trkpt lat="35.0400193" lon="32.4373278"><ele>41.4</ele><time>2015-04-25T08:53:54.0000000+00:00</time></trkpt><trkpt lat="35.0399869" lon="32.4372559"><ele>41.0</ele><time>2015-04-25T08:53:56.0000000+00:00</time></trkpt><trkpt lat="35.039947" lon="32.4371736"><ele>40.2</ele><time>2015-04-25T08:53:58.0000000+00:00</time></trkpt><trkpt lat="35.0399017" lon="32.437088"><ele>39.5</ele><time>2015-04-25T08:54:00.0000000+00:00</time></trkpt><trkpt lat="35.0398701" lon="32.4370298"><ele>39.2</ele><time>2015-04-25T08:54:01.0000000+00:00</time></trkpt><trkpt lat="35.039844" lon="32.4369832"><ele>39.6</ele><time>2015-04-25T08:54:02.0000000+00:00</time></trkpt><trkpt lat="35.0397988" lon="32.4368977"><ele>39.3</ele><time>2015-04-25T08:54:04.0000000+00:00</time></trkpt><trkpt lat="35.0397565" lon="32.4368098"><ele>38.5</ele><time>2015-04-25T08:54:06.0000000+00:00</time></trkpt><trkpt lat="35.0397089" lon="32.4367232"><ele>38.1</ele><time>2015-04-25T08:54:08.0000000+00:00</time></trkpt><trkpt lat="35.0396565" lon="32.4366406"><ele>37.0</ele><time>2015-04-25T08:54:10.0000000+00:00</time></trkpt><trkpt lat="35.0395986" lon="32.4365635"><ele>36.9</ele><time>2015-04-25T08:54:12.0000000+00:00</time></trkpt><trkpt lat="35.0395386" lon="32.4364911"><ele>35.4</ele><time>2015-04-25T08:54:14.0000000+00:00</time></trkpt><trkpt lat="35.0394778" lon="32.4364202"><ele>35.8</ele><time>2015-04-25T08:54:16.0000000+00:00</time></trkpt><trkpt lat="35.0394123" lon="32.4363326"><ele>35.9</ele><time>2015-04-25T08:54:18.0000000+00:00</time></trkpt><trkpt lat="35.0393478" lon="32.4362475"><ele>35.4</ele><time>2015-04-25T08:54:20.0000000+00:00</time></trkpt><trkpt lat="35.0392854" lon="32.4361674"><ele>35.1</ele><time>2015-04-25T08:54:22.0000000+00:00</time></trkpt><trkpt lat="35.0392482" lon="32.4361303"><ele>35.0</ele><time>2015-04-25T08:54:23.0000000+00:00</time></trkpt><trkpt lat="35.0392112" lon="32.4360968"><ele>35.5</ele><time>2015-04-25T08:54:24.0000000+00:00</time></trkpt><trkpt lat="35.0391407" lon="32.4360239"><ele>36.3</ele><time>2015-04-25T08:54:26.0000000+00:00</time></trkpt><trkpt lat="35.0391066" lon="32.435985"><ele>36.6</ele><time>2015-04-25T08:54:27.0000000+00:00</time></trkpt><trkpt lat="35.0390715" lon="32.435936"><ele>36.8</ele><time>2015-04-25T08:54:28.0000000+00:00</time></trkpt><trkpt lat="35.0390412" lon="32.4358928"><ele>36.9</ele><time>2015-04-25T08:54:29.0000000+00:00</time></trkpt><trkpt lat="35.0389892" lon="32.4358024"><ele>37.7</ele><time>2015-04-25T08:54:31.0000000+00:00</time></trkpt><trkpt lat="35.0389624" lon="32.4357464"><ele>37.8</ele><time>2015-04-25T08:54:32.0000000+00:00</time></trkpt><trkpt lat="35.0389412" lon="32.4356898"><ele>37.9</ele><time>2015-04-25T08:54:33.0000000+00:00</time></trkpt><trkpt lat="35.0389128" lon="32.4356259"><ele>37.4</ele><time>2015-04-25T08:54:34.0000000+00:00</time></trkpt><trkpt lat="35.0388873" lon="32.435566"><ele>37.2</ele><time>2015-04-25T08:54:35.0000000+00:00</time></trkpt><trkpt lat="35.0388705" lon="32.4354969"><ele>37.0</ele><time>2015-04-25T08:54:36.0000000+00:00</time></trkpt><trkpt lat="35.0388493" lon="32.4354262"><ele>37.0</ele><time>2015-04-25T08:54:37.0000000+00:00</time></trkpt><trkpt lat="35.0388344" lon="32.4353664"><ele>37.0</ele><time>2015-04-25T08:54:38.0000000+00:00</time></trkpt><trkpt lat="35.0388165" lon="32.4353014"><ele>36.9</ele><time>2015-04-25T08:54:39.0000000+00:00</time></trkpt><trkpt lat="35.0388017" lon="32.4352418"><ele>36.9</ele><time>2015-04-25T08:54:40.0000000+00:00</time></trkpt><trkpt lat="35.0387864" lon="32.4351857"><ele>36.9</ele><time>2015-04-25T08:54:41.0000000+00:00</time></trkpt><trkpt lat="35.0387662" lon="32.435115"><ele>36.9</ele><time>2015-04-25T08:54:42.0000000+00:00</time></trkpt><trkpt lat="35.0387499" lon="32.4350532"><ele>36.9</ele><time>2015-04-25T08:54:43.0000000+00:00</time></trkpt><trkpt lat="35.0387306" lon="32.4349869"><ele>36.9</ele><time>2015-04-25T08:54:44.0000000+00:00</time></trkpt><trkpt lat="35.038711" lon="32.4349166"><ele>36.9</ele><time>2015-04-25T08:54:45.0000000+00:00</time></trkpt><trkpt lat="35.0386897" lon="32.4348577"><ele>36.9</ele><time>2015-04-25T08:54:46.0000000+00:00</time></trkpt><trkpt lat="35.0386699" lon="32.4347891"><ele>36.9</ele><time>2015-04-25T08:54:47.0000000+00:00</time></trkpt><trkpt lat="35.038643" lon="32.4347203"><ele>36.9</ele><time>2015-04-25T08:54:48.0000000+00:00</time></trkpt><trkpt lat="35.0386228" lon="32.4346703"><ele>36.9</ele><time>2015-04-25T08:54:49.0000000+00:00</time></trkpt><trkpt lat="35.0385957" lon="32.4346116"><ele>36.9</ele><time>2015-04-25T08:54:50.0000000+00:00</time></trkpt><trkpt lat="35.038571" lon="32.4345597"><ele>36.9</ele><time>2015-04-25T08:54:51.0000000+00:00</time></trkpt><trkpt lat="35.038542" lon="32.4345111"><ele>36.9</ele><time>2015-04-25T08:54:52.0000000+00:00</time></trkpt><trkpt lat="35.0385124" lon="32.4344583"><ele>36.9</ele><time>2015-04-25T08:54:53.0000000+00:00</time></trkpt><trkpt lat="35.0384744" lon="32.4344124"><ele>36.9</ele><time>2015-04-25T08:54:54.0000000+00:00</time></trkpt><trkpt lat="35.0384416" lon="32.4343619"><ele>36.9</ele><time>2015-04-25T08:54:55.0000000+00:00</time></trkpt><trkpt lat="35.0384007" lon="32.4343117"><ele>36.9</ele><time>2015-04-25T08:54:56.0000000+00:00</time></trkpt><trkpt lat="35.038365" lon="32.434266"><ele>36.9</ele><time>2015-04-25T08:54:57.0000000+00:00</time></trkpt><trkpt lat="35.038327" lon="32.4342169"><ele>36.9</ele><time>2015-04-25T08:54:58.0000000+00:00</time></trkpt><trkpt lat="35.0382968" lon="32.4341738"><ele>36.9</ele><time>2015-04-25T08:54:59.0000000+00:00</time></trkpt><trkpt lat="35.0382652" lon="32.4341238"><ele>36.9</ele><time>2015-04-25T08:55:00.0000000+00:00</time></trkpt><trkpt lat="35.0382268" lon="32.4340807"><ele>36.4</ele><time>2015-04-25T08:55:01.0000000+00:00</time></trkpt><trkpt lat="35.0381936" lon="32.4340423"><ele>36.2</ele><time>2015-04-25T08:55:02.0000000+00:00</time></trkpt><trkpt lat="35.0381632" lon="32.4339984"><ele>35.6</ele><time>2015-04-25T08:55:03.0000000+00:00</time></trkpt><trkpt lat="35.038125" lon="32.4339566"><ele>35.7</ele><time>2015-04-25T08:55:04.0000000+00:00</time></trkpt><trkpt lat="35.038094" lon="32.433914"><ele>35.8</ele><time>2015-04-25T08:55:05.0000000+00:00</time></trkpt><trkpt lat="35.038053" lon="32.4338876"><ele>35.4</ele><time>2015-04-25T08:55:06.0000000+00:00</time></trkpt><trkpt lat="35.0380132" lon="32.4338421"><ele>35.2</ele><time>2015-04-25T08:55:07.0000000+00:00</time></trkpt><trkpt lat="35.0379785" lon="32.4338062"><ele>34.5</ele><time>2015-04-25T08:55:08.0000000+00:00</time></trkpt><trkpt lat="35.03791" lon="32.4337564"><ele>34.3</ele><time>2015-04-25T08:55:10.0000000+00:00</time></trkpt><trkpt lat="35.0378651" lon="32.4336908"><ele>33.5</ele><time>2015-04-25T08:55:12.0000000+00:00</time></trkpt><trkpt lat="35.0378094" lon="32.4336168"><ele>33.1</ele><time>2015-04-25T08:55:14.0000000+00:00</time></trkpt><trkpt lat="35.0377677" lon="32.4335222"><ele>32.5</ele><time>2015-04-25T08:55:16.0000000+00:00</time></trkpt><trkpt lat="35.037745" lon="32.4334579"><ele>32.1</ele><time>2015-04-25T08:55:18.0000000+00:00</time></trkpt><trkpt lat="35.0376966" lon="32.4333849"><ele>33.2</ele><time>2015-04-25T08:55:20.0000000+00:00</time></trkpt><trkpt lat="35.037639" lon="32.4333142"><ele>34.0</ele><time>2015-04-25T08:55:22.0000000+00:00</time></trkpt><trkpt lat="35.0375889" lon="32.4332263"><ele>34.7</ele><time>2015-04-25T08:55:24.0000000+00:00</time></trkpt><trkpt lat="35.0375629" lon="32.4331567"><ele>34.8</ele><time>2015-04-25T08:55:25.0000000+00:00</time></trkpt><trkpt lat="35.0375141" lon="32.4330721"><ele>34.2</ele><time>2015-04-25T08:55:27.0000000+00:00</time></trkpt><trkpt lat="35.0374871" lon="32.4330095"><ele>33.5</ele><time>2015-04-25T08:55:28.0000000+00:00</time></trkpt><trkpt lat="35.0374571" lon="32.4329673"><ele>33.2</ele><time>2015-04-25T08:55:29.0000000+00:00</time></trkpt><trkpt lat="35.0374339" lon="32.4328985"><ele>33.6</ele><time>2015-04-25T08:55:30.0000000+00:00</time></trkpt><trkpt lat="35.0373839" lon="32.4327984"><ele>32.3</ele><time>2015-04-25T08:55:32.0000000+00:00</time></trkpt><trkpt lat="35.0373464" lon="32.4327091"><ele>31.3</ele><time>2015-04-25T08:55:34.0000000+00:00</time></trkpt><trkpt lat="35.0373042" lon="32.4326306"><ele>32.3</ele><time>2015-04-25T08:55:36.0000000+00:00</time></trkpt><trkpt lat="35.0372664" lon="32.4325504"><ele>33.0</ele><time>2015-04-25T08:55:38.0000000+00:00</time></trkpt><trkpt lat="35.0372277" lon="32.4324857"><ele>32.2</ele><time>2015-04-25T08:55:41.0000000+00:00</time></trkpt><trkpt lat="35.037203" lon="32.4324361"><ele>32.0</ele><time>2015-04-25T08:55:43.0000000+00:00</time></trkpt><trkpt lat="35.0371812" lon="32.4323752"><ele>32.2</ele><time>2015-04-25T08:55:45.0000000+00:00</time></trkpt><trkpt lat="35.0371658" lon="32.4322943"><ele>32.0</ele><time>2015-04-25T08:55:47.0000000+00:00</time></trkpt><trkpt lat="35.0371484" lon="32.4321916"><ele>31.9</ele><time>2015-04-25T08:55:49.0000000+00:00</time></trkpt><trkpt lat="35.0371301" lon="32.4321008"><ele>31.9</ele><time>2015-04-25T08:55:50.0000000+00:00</time></trkpt><trkpt lat="35.0371175" lon="32.4320384"><ele>31.9</ele><time>2015-04-25T08:55:51.0000000+00:00</time></trkpt><trkpt lat="35.0371002" lon="32.4319726"><ele>31.9</ele><time>2015-04-25T08:55:52.0000000+00:00</time></trkpt><trkpt lat="35.0370799" lon="32.4319061"><ele>31.9</ele><time>2015-04-25T08:55:53.0000000+00:00</time></trkpt><trkpt lat="35.0370538" lon="32.4318371"><ele>32.4</ele><time>2015-04-25T08:55:54.0000000+00:00</time></trkpt><trkpt lat="35.0370371" lon="32.4317759"><ele>32.7</ele><time>2015-04-25T08:55:55.0000000+00:00</time></trkpt><trkpt lat="35.0370187" lon="32.4317104"><ele>32.8</ele><time>2015-04-25T08:55:56.0000000+00:00</time></trkpt><trkpt lat="35.0369956" lon="32.4316485"><ele>32.4</ele><time>2015-04-25T08:55:57.0000000+00:00</time></trkpt><trkpt lat="35.0369765" lon="32.4315938"><ele>32.1</ele><time>2015-04-25T08:55:58.0000000+00:00</time></trkpt><trkpt lat="35.0369443" lon="32.4315259"><ele>31.5</ele><time>2015-04-25T08:55:59.0000000+00:00</time></trkpt><trkpt lat="35.03692" lon="32.4314604"><ele>31.2</ele><time>2015-04-25T08:56:00.0000000+00:00</time></trkpt><trkpt lat="35.0368971" lon="32.431385"><ele>30.6</ele><time>2015-04-25T08:56:01.0000000+00:00</time></trkpt><trkpt lat="35.0368811" lon="32.4313314"><ele>30.3</ele><time>2015-04-25T08:56:02.0000000+00:00</time></trkpt><trkpt lat="35.0368553" lon="32.4312786"><ele>30.1</ele><time>2015-04-25T08:56:03.0000000+00:00</time></trkpt><trkpt lat="35.0368231" lon="32.4312314"><ele>30.0</ele><time>2015-04-25T08:56:04.0000000+00:00</time></trkpt><trkpt lat="35.0367895" lon="32.4311716"><ele>30.0</ele><time>2015-04-25T08:56:05.0000000+00:00</time></trkpt><trkpt lat="35.03677" lon="32.4311201"><ele>30.5</ele><time>2015-04-25T08:56:06.0000000+00:00</time></trkpt><trkpt lat="35.0367198" lon="32.4310467"><ele>30.8</ele><time>2015-04-25T08:56:08.0000000+00:00</time></trkpt><trkpt lat="35.036686" lon="32.4310005"><ele>30.9</ele><time>2015-04-25T08:56:09.0000000+00:00</time></trkpt><trkpt lat="35.0366594" lon="32.4309548"><ele>31.4</ele><time>2015-04-25T08:56:10.0000000+00:00</time></trkpt><trkpt lat="35.0366448" lon="32.4308995"><ele>31.7</ele><time>2015-04-25T08:56:11.0000000+00:00</time></trkpt><trkpt lat="35.0366261" lon="32.4308461"><ele>31.8</ele><time>2015-04-25T08:56:12.0000000+00:00</time></trkpt><trkpt lat="35.0365854" lon="32.4307477"><ele>30.9</ele><time>2015-04-25T08:56:14.0000000+00:00</time></trkpt><trkpt lat="35.0365341" lon="32.4306502"><ele>30.7</ele><time>2015-04-25T08:56:16.0000000+00:00</time></trkpt><trkpt lat="35.0365058" lon="32.4306056"><ele>30.8</ele><time>2015-04-25T08:56:17.0000000+00:00</time></trkpt><trkpt lat="35.0364654" lon="32.4305253"><ele>30.9</ele><time>2015-04-25T08:56:19.0000000+00:00</time></trkpt><trkpt lat="35.0364223" lon="32.4304349"><ele>30.9</ele><time>2015-04-25T08:56:21.0000000+00:00</time></trkpt><trkpt lat="35.0363998" lon="32.4303873"><ele>31.4</ele><time>2015-04-25T08:56:22.0000000+00:00</time></trkpt><trkpt lat="35.0363647" lon="32.4303046"><ele>33.8</ele><time>2015-04-25T08:56:24.0000000+00:00</time></trkpt><trkpt lat="35.0363263" lon="32.4302168"><ele>35.1</ele><time>2015-04-25T08:56:26.0000000+00:00</time></trkpt><trkpt lat="35.0362936" lon="32.4301266"><ele>34.5</ele><time>2015-04-25T08:56:28.0000000+00:00</time></trkpt><trkpt lat="35.0362592" lon="32.4300334"><ele>34.3</ele><time>2015-04-25T08:56:30.0000000+00:00</time></trkpt><trkpt lat="35.0362261" lon="32.4299463"><ele>34.5</ele><time>2015-04-25T08:56:32.0000000+00:00</time></trkpt><trkpt lat="35.0361939" lon="32.4298665"><ele>34.8</ele><time>2015-04-25T08:56:34.0000000+00:00</time></trkpt><trkpt lat="35.0361593" lon="32.4297934"><ele>34.9</ele><time>2015-04-25T08:56:36.0000000+00:00</time></trkpt><trkpt lat="35.0361292" lon="32.4297198"><ele>35.4</ele><time>2015-04-25T08:56:38.0000000+00:00</time></trkpt><trkpt lat="35.0361005" lon="32.4296346"><ele>36.3</ele><time>2015-04-25T08:56:40.0000000+00:00</time></trkpt><trkpt lat="35.0360721" lon="32.4295407"><ele>36.8</ele><time>2015-04-25T08:56:42.0000000+00:00</time></trkpt><trkpt lat="35.0360488" lon="32.4294775"><ele>37.4</ele><time>2015-04-25T08:56:43.0000000+00:00</time></trkpt><trkpt lat="35.0360158" lon="32.4294312"><ele>37.1</ele><time>2015-04-25T08:56:44.0000000+00:00</time></trkpt><trkpt lat="35.0359744" lon="32.4293618"><ele>36.5</ele><time>2015-04-25T08:56:46.0000000+00:00</time></trkpt><trkpt lat="35.0359474" lon="32.4292738"><ele>36.1</ele><time>2015-04-25T08:56:48.0000000+00:00</time></trkpt><trkpt lat="35.0359201" lon="32.4292003"><ele>36.2</ele><time>2015-04-25T08:56:50.0000000+00:00</time></trkpt><trkpt lat="35.0359118" lon="32.4291377"><ele>36.0</ele><time>2015-04-25T08:56:52.0000000+00:00</time></trkpt><trkpt lat="35.035891" lon="32.4290832"><ele>35.9</ele><time>2015-04-25T08:56:54.0000000+00:00</time></trkpt><trkpt lat="35.0358684" lon="32.4290286"><ele>37.2</ele><time>2015-04-25T08:56:56.0000000+00:00</time></trkpt><trkpt lat="35.0358483" lon="32.4289724"><ele>38.2</ele><time>2015-04-25T08:56:58.0000000+00:00</time></trkpt><trkpt lat="35.0358288" lon="32.4289094"><ele>38.8</ele><time>2015-04-25T08:57:00.0000000+00:00</time></trkpt><trkpt lat="35.0358088" lon="32.4288456"><ele>37.9</ele><time>2015-04-25T08:57:02.0000000+00:00</time></trkpt><trkpt lat="35.0357872" lon="32.4287851"><ele>37.7</ele><time>2015-04-25T08:57:04.0000000+00:00</time></trkpt><trkpt lat="35.0357643" lon="32.428725"><ele>37.9</ele><time>2015-04-25T08:57:06.0000000+00:00</time></trkpt><trkpt lat="35.0357417" lon="32.4286662"><ele>37.9</ele><time>2015-04-25T08:57:08.0000000+00:00</time></trkpt><trkpt lat="35.0357151" lon="32.4286143"><ele>39.2</ele><time>2015-04-25T08:57:10.0000000+00:00</time></trkpt><trkpt lat="35.035689" lon="32.4285622"><ele>41.0</ele><time>2015-04-25T08:57:12.0000000+00:00</time></trkpt><trkpt lat="35.0356672" lon="32.4285059"><ele>40.9</ele><time>2015-04-25T08:57:14.0000000+00:00</time></trkpt><trkpt lat="35.0356316" lon="32.4284394"><ele>41.3</ele><time>2015-04-25T08:57:17.0000000+00:00</time></trkpt><trkpt lat="35.0356055" lon="32.4283926"><ele>40.5</ele><time>2015-04-25T08:57:19.0000000+00:00</time></trkpt><trkpt lat="35.035575" lon="32.4283425"><ele>39.6</ele><time>2015-04-25T08:57:21.0000000+00:00</time></trkpt><trkpt lat="35.0355374" lon="32.4282958"><ele>38.6</ele><time>2015-04-25T08:57:23.0000000+00:00</time></trkpt><trkpt lat="35.0354989" lon="32.4282466"><ele>39.8</ele><time>2015-04-25T08:57:25.0000000+00:00</time></trkpt><trkpt lat="35.0354586" lon="32.428197"><ele>40.2</ele><time>2015-04-25T08:57:27.0000000+00:00</time></trkpt><trkpt lat="35.0354125" lon="32.428158"><ele>40.5</ele><time>2015-04-25T08:57:29.0000000+00:00</time></trkpt><trkpt lat="35.0353625" lon="32.4281251"><ele>41.1</ele><time>2015-04-25T08:57:31.0000000+00:00</time></trkpt><trkpt lat="35.0353038" lon="32.4280919"><ele>43.0</ele><time>2015-04-25T08:57:33.0000000+00:00</time></trkpt><trkpt lat="35.035248" lon="32.4280651"><ele>44.2</ele><time>2015-04-25T08:57:35.0000000+00:00</time></trkpt><trkpt lat="35.0351895" lon="32.4280396"><ele>46.2</ele><time>2015-04-25T08:57:37.0000000+00:00</time></trkpt><trkpt lat="35.0351273" lon="32.4280173"><ele>48.5</ele><time>2015-04-25T08:57:39.0000000+00:00</time></trkpt><trkpt lat="35.0350647" lon="32.4280019"><ele>50.3</ele><time>2015-04-25T08:57:41.0000000+00:00</time></trkpt><trkpt lat="35.035002" lon="32.4279893"><ele>49.5</ele><time>2015-04-25T08:57:43.0000000+00:00</time></trkpt><trkpt lat="35.0349471" lon="32.4279731"><ele>47.1</ele><time>2015-04-25T08:57:45.0000000+00:00</time></trkpt><trkpt lat="35.0348968" lon="32.4279702"><ele>45.7</ele><time>2015-04-25T08:57:47.0000000+00:00</time></trkpt><trkpt lat="35.0348436" lon="32.4279545"><ele>44.6</ele><time>2015-04-25T08:57:49.0000000+00:00</time></trkpt><trkpt lat="35.0347862" lon="32.4279287"><ele>43.9</ele><time>2015-04-25T08:57:51.0000000+00:00</time></trkpt><trkpt lat="35.0347307" lon="32.4278959"><ele>42.4</ele><time>2015-04-25T08:57:53.0000000+00:00</time></trkpt><trkpt lat="35.0346932" lon="32.4278501"><ele>43.3</ele><time>2015-04-25T08:57:55.0000000+00:00</time></trkpt><trkpt lat="35.0346541" lon="32.4277928"><ele>43.8</ele><time>2015-04-25T08:57:57.0000000+00:00</time></trkpt><trkpt lat="35.0346105" lon="32.4277423"><ele>43.1</ele><time>2015-04-25T08:57:59.0000000+00:00</time></trkpt><trkpt lat="35.0345661" lon="32.427699"><ele>42.5</ele><time>2015-04-25T08:58:01.0000000+00:00</time></trkpt><trkpt lat="35.0345196" lon="32.4276504"><ele>41.6</ele><time>2015-04-25T08:58:03.0000000+00:00</time></trkpt><trkpt lat="35.0344674" lon="32.4276017"><ele>41.6</ele><time>2015-04-25T08:58:05.0000000+00:00</time></trkpt><trkpt lat="35.0344156" lon="32.4275528"><ele>41.8</ele><time>2015-04-25T08:58:07.0000000+00:00</time></trkpt><trkpt lat="35.0343611" lon="32.4275024"><ele>41.7</ele><time>2015-04-25T08:58:09.0000000+00:00</time></trkpt><trkpt lat="35.0343083" lon="32.4274537"><ele>41.1</ele><time>2015-04-25T08:58:11.0000000+00:00</time></trkpt><trkpt lat="35.0342568" lon="32.4274052"><ele>41.0</ele><time>2015-04-25T08:58:13.0000000+00:00</time></trkpt><trkpt lat="35.0342042" lon="32.4273623"><ele>41.7</ele><time>2015-04-25T08:58:15.0000000+00:00</time></trkpt><trkpt lat="35.0341462" lon="32.4273272"><ele>41.1</ele><time>2015-04-25T08:58:17.0000000+00:00</time></trkpt><trkpt lat="35.0340863" lon="32.4272945"><ele>41.0</ele><time>2015-04-25T08:58:19.0000000+00:00</time></trkpt><trkpt lat="35.0340278" lon="32.4272622"><ele>40.4</ele><time>2015-04-25T08:58:21.0000000+00:00</time></trkpt><trkpt lat="35.033968" lon="32.4272414"><ele>40.1</ele><time>2015-04-25T08:58:23.0000000+00:00</time></trkpt><trkpt lat="35.0339082" lon="32.4272238"><ele>41.2</ele><time>2015-04-25T08:58:25.0000000+00:00</time></trkpt><trkpt lat="35.0338454" lon="32.4272117"><ele>42.8</ele><time>2015-04-25T08:58:27.0000000+00:00</time></trkpt><trkpt lat="35.0337838" lon="32.4272002"><ele>44.1</ele><time>2015-04-25T08:58:29.0000000+00:00</time></trkpt><trkpt lat="35.0337223" lon="32.4271952"><ele>44.0</ele><time>2015-04-25T08:58:31.0000000+00:00</time></trkpt><trkpt lat="35.0336594" lon="32.4271975"><ele>43.4</ele><time>2015-04-25T08:58:33.0000000+00:00</time></trkpt><trkpt lat="35.0335956" lon="32.4271961"><ele>43.6</ele><time>2015-04-25T08:58:35.0000000+00:00</time></trkpt><trkpt lat="35.0335311" lon="32.4272065"><ele>43.8</ele><time>2015-04-25T08:58:37.0000000+00:00</time></trkpt><trkpt lat="35.0334661" lon="32.4272187"><ele>44.4</ele><time>2015-04-25T08:58:39.0000000+00:00</time></trkpt><trkpt lat="35.0334018" lon="32.4272351"><ele>44.0</ele><time>2015-04-25T08:58:41.0000000+00:00</time></trkpt><trkpt lat="35.033341" lon="32.4272594"><ele>44.0</ele><time>2015-04-25T08:58:43.0000000+00:00</time></trkpt><trkpt lat="35.0332688" lon="32.4272746"><ele>43.7</ele><time>2015-04-25T08:58:45.0000000+00:00</time></trkpt><trkpt lat="35.0331954" lon="32.4272731"><ele>43.8</ele><time>2015-04-25T08:58:46.0000000+00:00</time></trkpt><trkpt lat="35.0331172" lon="32.4272748"><ele>43.9</ele><time>2015-04-25T08:58:48.0000000+00:00</time></trkpt><trkpt lat="35.0330309" lon="32.4272536"><ele>43.9</ele><time>2015-04-25T08:58:50.0000000+00:00</time></trkpt><trkpt lat="35.0329738" lon="32.4272359"><ele>45.9</ele><time>2015-04-25T08:58:52.0000000+00:00</time></trkpt><trkpt lat="35.0329039" lon="32.4272103"><ele>46.7</ele><time>2015-04-25T08:58:54.0000000+00:00</time></trkpt><trkpt lat="35.032855" lon="32.4271794"><ele>47.6</ele><time>2015-04-25T08:58:56.0000000+00:00</time></trkpt><trkpt lat="35.0328134" lon="32.427157"><ele>47.9</ele><time>2015-04-25T08:58:58.0000000+00:00</time></trkpt><trkpt lat="35.0327569" lon="32.4271228"><ele>47.9</ele><time>2015-04-25T08:59:01.0000000+00:00</time></trkpt><trkpt lat="35.0327096" lon="32.4270832"><ele>47.8</ele><time>2015-04-25T08:59:04.0000000+00:00</time></trkpt><trkpt lat="35.0326654" lon="32.4270488"><ele>49.2</ele><time>2015-04-25T08:59:08.0000000+00:00</time></trkpt><trkpt lat="35.0326295" lon="32.426998"><ele>50.3</ele><time>2015-04-25T08:59:13.0000000+00:00</time></trkpt><trkpt lat="35.0326678" lon="32.4269191"><ele>48.5</ele><time>2015-04-25T08:59:16.0000000+00:00</time></trkpt><trkpt lat="35.0327243" lon="32.4268469"><ele>48.1</ele><time>2015-04-25T08:59:18.0000000+00:00</time></trkpt><trkpt lat="35.0327867" lon="32.4267757"><ele>48.7</ele><time>2015-04-25T08:59:20.0000000+00:00</time></trkpt><trkpt lat="35.0328464" lon="32.4267083"><ele>48.9</ele><time>2015-04-25T08:59:22.0000000+00:00</time></trkpt><trkpt lat="35.0328967" lon="32.4266462"><ele>48.2</ele><time>2015-04-25T08:59:24.0000000+00:00</time></trkpt><trkpt lat="35.0329386" lon="32.4265755"><ele>48.7</ele><time>2015-04-25T08:59:26.0000000+00:00</time></trkpt><trkpt lat="35.0329715" lon="32.4264944"><ele>48.9</ele><time>2015-04-25T08:59:28.0000000+00:00</time></trkpt><trkpt lat="35.0330094" lon="32.4264345"><ele>48.4</ele><time>2015-04-25T08:59:29.0000000+00:00</time></trkpt><trkpt lat="35.0330454" lon="32.4263928"><ele>48.2</ele><time>2015-04-25T08:59:30.0000000+00:00</time></trkpt><trkpt lat="35.0330752" lon="32.4263437"><ele>47.5</ele><time>2015-04-25T08:59:31.0000000+00:00</time></trkpt><trkpt lat="35.0331074" lon="32.4262921"><ele>46.7</ele><time>2015-04-25T08:59:32.0000000+00:00</time></trkpt><trkpt lat="35.0331481" lon="32.4262445"><ele>45.8</ele><time>2015-04-25T08:59:33.0000000+00:00</time></trkpt><trkpt lat="35.0331867" lon="32.4261884"><ele>45.4</ele><time>2015-04-25T08:59:34.0000000+00:00</time></trkpt><trkpt lat="35.0332176" lon="32.4261354"><ele>45.2</ele><time>2015-04-25T08:59:35.0000000+00:00</time></trkpt><trkpt lat="35.0332518" lon="32.4260916"><ele>44.0</ele><time>2015-04-25T08:59:36.0000000+00:00</time></trkpt><trkpt lat="35.0332834" lon="32.4260441"><ele>43.0</ele><time>2015-04-25T08:59:37.0000000+00:00</time></trkpt><trkpt lat="35.0333184" lon="32.4259991"><ele>42.5</ele><time>2015-04-25T08:59:38.0000000+00:00</time></trkpt><trkpt lat="35.0333761" lon="32.4259367"><ele>42.1</ele><time>2015-04-25T08:59:40.0000000+00:00</time></trkpt><trkpt lat="35.0334413" lon="32.4258838"><ele>42.0</ele><time>2015-04-25T08:59:42.0000000+00:00</time></trkpt><trkpt lat="35.0335012" lon="32.4258427"><ele>42.2</ele><time>2015-04-25T08:59:44.0000000+00:00</time></trkpt><trkpt lat="35.0335487" lon="32.4258096"><ele>40.0</ele><time>2015-04-25T08:59:46.0000000+00:00</time></trkpt><trkpt lat="35.0335952" lon="32.4257622"><ele>39.4</ele><time>2015-04-25T08:59:49.0000000+00:00</time></trkpt><trkpt lat="35.033594" lon="32.4256882"><ele>39.1</ele><time>2015-04-25T08:59:52.0000000+00:00</time></trkpt><trkpt lat="35.0335534" lon="32.4256343"><ele>37.0</ele><time>2015-04-25T08:59:54.0000000+00:00</time></trkpt><trkpt lat="35.0334869" lon="32.4255916"><ele>35.7</ele><time>2015-04-25T08:59:56.0000000+00:00</time></trkpt><trkpt lat="35.0334165" lon="32.4255578"><ele>35.4</ele><time>2015-04-25T08:59:58.0000000+00:00</time></trkpt><trkpt lat="35.0333355" lon="32.4255227"><ele>35.8</ele><time>2015-04-25T09:00:00.0000000+00:00</time></trkpt><trkpt lat="35.0332568" lon="32.4254761"><ele>35.4</ele><time>2015-04-25T09:00:01.0000000+00:00</time></trkpt><trkpt lat="35.033202" lon="32.4254452"><ele>34.6</ele><time>2015-04-25T09:00:02.0000000+00:00</time></trkpt><trkpt lat="35.0331509" lon="32.4254072"><ele>34.8</ele><time>2015-04-25T09:00:03.0000000+00:00</time></trkpt><trkpt lat="35.0330996" lon="32.4253624"><ele>34.4</ele><time>2015-04-25T09:00:04.0000000+00:00</time></trkpt><trkpt lat="35.0330423" lon="32.4253218"><ele>34.1</ele><time>2015-04-25T09:00:05.0000000+00:00</time></trkpt><trkpt lat="35.0329874" lon="32.425276"><ele>33.5</ele><time>2015-04-25T09:00:06.0000000+00:00</time></trkpt><trkpt lat="35.0329387" lon="32.4252318"><ele>32.2</ele><time>2015-04-25T09:00:07.0000000+00:00</time></trkpt><trkpt lat="35.0328858" lon="32.4251944"><ele>31.6</ele><time>2015-04-25T09:00:08.0000000+00:00</time></trkpt><trkpt lat="35.0328464" lon="32.4251557"><ele>31.8</ele><time>2015-04-25T09:00:09.0000000+00:00</time></trkpt><trkpt lat="35.0328012" lon="32.4251114"><ele>32.3</ele><time>2015-04-25T09:00:10.0000000+00:00</time></trkpt><trkpt lat="35.0327594" lon="32.4250738"><ele>32.6</ele><time>2015-04-25T09:00:11.0000000+00:00</time></trkpt><trkpt lat="35.0327123" lon="32.4250143"><ele>33.8</ele><time>2015-04-25T09:00:12.0000000+00:00</time></trkpt><trkpt lat="35.0326715" lon="32.4249517"><ele>34.4</ele><time>2015-04-25T09:00:13.0000000+00:00</time></trkpt><trkpt lat="35.0326316" lon="32.4248903"><ele>34.1</ele><time>2015-04-25T09:00:14.0000000+00:00</time></trkpt><trkpt lat="35.0325881" lon="32.4248304"><ele>34.5</ele><time>2015-04-25T09:00:15.0000000+00:00</time></trkpt><trkpt lat="35.0325421" lon="32.4247734"><ele>34.2</ele><time>2015-04-25T09:00:16.0000000+00:00</time></trkpt><trkpt lat="35.0324993" lon="32.4247122"><ele>34.1</ele><time>2015-04-25T09:00:17.0000000+00:00</time></trkpt><trkpt lat="35.0324478" lon="32.4246531"><ele>34.0</ele><time>2015-04-25T09:00:18.0000000+00:00</time></trkpt><trkpt lat="35.0324005" lon="32.424589"><ele>33.5</ele><time>2015-04-25T09:00:19.0000000+00:00</time></trkpt><trkpt lat="35.0323569" lon="32.4245257"><ele>33.2</ele><time>2015-04-25T09:00:20.0000000+00:00</time></trkpt><trkpt lat="35.0323097" lon="32.4244653"><ele>33.1</ele><time>2015-04-25T09:00:21.0000000+00:00</time></trkpt><trkpt lat="35.032269" lon="32.4244025"><ele>32.5</ele><time>2015-04-25T09:00:22.0000000+00:00</time></trkpt><trkpt lat="35.0322208" lon="32.4243346"><ele>32.2</ele><time>2015-04-25T09:00:23.0000000+00:00</time></trkpt><trkpt lat="35.0321778" lon="32.4242845"><ele>31.6</ele><time>2015-04-25T09:00:24.0000000+00:00</time></trkpt><trkpt lat="35.0321259" lon="32.4242314"><ele>30.8</ele><time>2015-04-25T09:00:25.0000000+00:00</time></trkpt><trkpt lat="35.0320837" lon="32.4241817"><ele>29.8</ele><time>2015-04-25T09:00:26.0000000+00:00</time></trkpt><trkpt lat="35.0320501" lon="32.4241272"><ele>29.4</ele><time>2015-04-25T09:00:27.0000000+00:00</time></trkpt><trkpt lat="35.0320088" lon="32.4240694"><ele>29.2</ele><time>2015-04-25T09:00:28.0000000+00:00</time></trkpt><trkpt lat="35.0319721" lon="32.4240222"><ele>29.0</ele><time>2015-04-25T09:00:29.0000000+00:00</time></trkpt><trkpt lat="35.0319352" lon="32.4239698"><ele>29.0</ele><time>2015-04-25T09:00:30.0000000+00:00</time></trkpt><trkpt lat="35.0318993" lon="32.4239224"><ele>29.0</ele><time>2015-04-25T09:00:31.0000000+00:00</time></trkpt><trkpt lat="35.0318654" lon="32.423876"><ele>28.9</ele><time>2015-04-25T09:00:32.0000000+00:00</time></trkpt><trkpt lat="35.0318325" lon="32.4238311"><ele>28.9</ele><time>2015-04-25T09:00:33.0000000+00:00</time></trkpt><trkpt lat="35.0317954" lon="32.4237894"><ele>28.9</ele><time>2015-04-25T09:00:34.0000000+00:00</time></trkpt><trkpt lat="35.0317293" lon="32.4236973"><ele>28.9</ele><time>2015-04-25T09:00:36.0000000+00:00</time></trkpt><trkpt lat="35.0316843" lon="32.4236362"><ele>29.2</ele><time>2015-04-25T09:00:38.0000000+00:00</time></trkpt><trkpt lat="35.031642" lon="32.4235784"><ele>29.0</ele><time>2015-04-25T09:00:40.0000000+00:00</time></trkpt><trkpt lat="35.0315971" lon="32.4235397"><ele>28.9</ele><time>2015-04-25T09:00:42.0000000+00:00</time></trkpt><trkpt lat="35.0315473" lon="32.4234811"><ele>28.9</ele><time>2015-04-25T09:00:44.0000000+00:00</time></trkpt><trkpt lat="35.0315091" lon="32.4234128"><ele>28.9</ele><time>2015-04-25T09:00:46.0000000+00:00</time></trkpt><trkpt lat="35.031456" lon="32.4233636"><ele>27.7</ele><time>2015-04-25T09:00:48.0000000+00:00</time></trkpt><trkpt lat="35.0314151" lon="32.4233055"><ele>27.9</ele><time>2015-04-25T09:00:50.0000000+00:00</time></trkpt><trkpt lat="35.0313813" lon="32.4232375"><ele>31.7</ele><time>2015-04-25T09:00:52.0000000+00:00</time></trkpt><trkpt lat="35.0313479" lon="32.4231672"><ele>35.4</ele><time>2015-04-25T09:00:54.0000000+00:00</time></trkpt><trkpt lat="35.0313099" lon="32.4231044"><ele>34.3</ele><time>2015-04-25T09:00:56.0000000+00:00</time></trkpt><trkpt lat="35.0312641" lon="32.4230464"><ele>34.5</ele><time>2015-04-25T09:00:58.0000000+00:00</time></trkpt><trkpt lat="35.0312141" lon="32.4229916"><ele>35.3</ele><time>2015-04-25T09:01:00.0000000+00:00</time></trkpt><trkpt lat="35.0311677" lon="32.4229325"><ele>34.3</ele><time>2015-04-25T09:01:02.0000000+00:00</time></trkpt><trkpt lat="35.0311275" lon="32.4228705"><ele>35.5</ele><time>2015-04-25T09:01:04.0000000+00:00</time></trkpt><trkpt lat="35.0310975" lon="32.4228058"><ele>35.8</ele><time>2015-04-25T09:01:06.0000000+00:00</time></trkpt><trkpt lat="35.0310732" lon="32.4227467"><ele>36.2</ele><time>2015-04-25T09:01:08.0000000+00:00</time></trkpt><trkpt lat="35.0310487" lon="32.4226816"><ele>33.8</ele><time>2015-04-25T09:01:11.0000000+00:00</time></trkpt><trkpt lat="35.0310272" lon="32.4226167"><ele>31.1</ele><time>2015-04-25T09:01:15.0000000+00:00</time></trkpt><trkpt lat="35.0310034" lon="32.4225682"><ele>31.5</ele><time>2015-04-25T09:01:17.0000000+00:00</time></trkpt><trkpt lat="35.0309698" lon="32.4225063"><ele>31.8</ele><time>2015-04-25T09:01:19.0000000+00:00</time></trkpt><trkpt lat="35.030935" lon="32.4224361"><ele>31.4</ele><time>2015-04-25T09:01:21.0000000+00:00</time></trkpt><trkpt lat="35.0309058" lon="32.4223665"><ele>31.3</ele><time>2015-04-25T09:01:23.0000000+00:00</time></trkpt><trkpt lat="35.0308774" lon="32.4222865"><ele>31.3</ele><time>2015-04-25T09:01:25.0000000+00:00</time></trkpt><trkpt lat="35.0308445" lon="32.4222068"><ele>31.0</ele><time>2015-04-25T09:01:27.0000000+00:00</time></trkpt><trkpt lat="35.0308212" lon="32.4221208"><ele>31.5</ele><time>2015-04-25T09:01:29.0000000+00:00</time></trkpt><trkpt lat="35.0308019" lon="32.4220376"><ele>32.3</ele><time>2015-04-25T09:01:31.0000000+00:00</time></trkpt><trkpt lat="35.0307808" lon="32.4219445"><ele>32.3</ele><time>2015-04-25T09:01:33.0000000+00:00</time></trkpt><trkpt lat="35.0307614" lon="32.4218524"><ele>32.0</ele><time>2015-04-25T09:01:35.0000000+00:00</time></trkpt><trkpt lat="35.0307366" lon="32.4217654"><ele>32.0</ele><time>2015-04-25T09:01:37.0000000+00:00</time></trkpt><trkpt lat="35.0307126" lon="32.4216858"><ele>32.4</ele><time>2015-04-25T09:01:39.0000000+00:00</time></trkpt><trkpt lat="35.0306938" lon="32.4215985"><ele>33.3</ele><time>2015-04-25T09:01:41.0000000+00:00</time></trkpt><trkpt lat="35.0306753" lon="32.4215159"><ele>33.0</ele><time>2015-04-25T09:01:43.0000000+00:00</time></trkpt><trkpt lat="35.0306497" lon="32.4214274"><ele>33.7</ele><time>2015-04-25T09:01:45.0000000+00:00</time></trkpt><trkpt lat="35.0306208" lon="32.421339"><ele>33.1</ele><time>2015-04-25T09:01:47.0000000+00:00</time></trkpt><trkpt lat="35.0305909" lon="32.4212428"><ele>33.2</ele><time>2015-04-25T09:01:49.0000000+00:00</time></trkpt><trkpt lat="35.0305605" lon="32.4211504"><ele>33.0</ele><time>2015-04-25T09:01:51.0000000+00:00</time></trkpt><trkpt lat="35.0305298" lon="32.4210568"><ele>32.2</ele><time>2015-04-25T09:01:53.0000000+00:00</time></trkpt><trkpt lat="35.0305011" lon="32.4209708"><ele>32.0</ele><time>2015-04-25T09:01:55.0000000+00:00</time></trkpt><trkpt lat="35.0304737" lon="32.4208829"><ele>31.9</ele><time>2015-04-25T09:01:57.0000000+00:00</time></trkpt><trkpt lat="35.0304423" lon="32.4208023"><ele>32.4</ele><time>2015-04-25T09:01:59.0000000+00:00</time></trkpt><trkpt lat="35.0304111" lon="32.4207199"><ele>32.1</ele><time>2015-04-25T09:02:01.0000000+00:00</time></trkpt><trkpt lat="35.0303779" lon="32.4206434"><ele>30.7</ele><time>2015-04-25T09:02:03.0000000+00:00</time></trkpt><trkpt lat="35.0303508" lon="32.4205649"><ele>31.6</ele><time>2015-04-25T09:02:05.0000000+00:00</time></trkpt><trkpt lat="35.0303247" lon="32.4204972"><ele>31.6</ele><time>2015-04-25T09:02:07.0000000+00:00</time></trkpt><trkpt lat="35.0302956" lon="32.4204453"><ele>32.1</ele><time>2015-04-25T09:02:09.0000000+00:00</time></trkpt><trkpt lat="35.0302634" lon="32.420395"><ele>32.0</ele><time>2015-04-25T09:02:11.0000000+00:00</time></trkpt><trkpt lat="35.0302274" lon="32.420351"><ele>31.9</ele><time>2015-04-25T09:02:13.0000000+00:00</time></trkpt><trkpt lat="35.0301794" lon="32.4203039"><ele>31.2</ele><time>2015-04-25T09:02:16.0000000+00:00</time></trkpt><trkpt lat="35.0301359" lon="32.4202445"><ele>30.8</ele><time>2015-04-25T09:02:19.0000000+00:00</time></trkpt><trkpt lat="35.030106" lon="32.4201976"><ele>29.2</ele><time>2015-04-25T09:02:21.0000000+00:00</time></trkpt><trkpt lat="35.030081" lon="32.4201421"><ele>28.7</ele><time>2015-04-25T09:02:23.0000000+00:00</time></trkpt><trkpt lat="35.0300534" lon="32.4200802"><ele>28.9</ele><time>2015-04-25T09:02:25.0000000+00:00</time></trkpt><trkpt lat="35.0300078" lon="32.4200156"><ele>28.9</ele><time>2015-04-25T09:02:27.0000000+00:00</time></trkpt><trkpt lat="35.0299539" lon="32.4199546"><ele>29.4</ele><time>2015-04-25T09:02:29.0000000+00:00</time></trkpt><trkpt lat="35.0299011" lon="32.4198988"><ele>29.1</ele><time>2015-04-25T09:02:31.0000000+00:00</time></trkpt><trkpt lat="35.0298619" lon="32.4198462"><ele>27.7</ele><time>2015-04-25T09:02:33.0000000+00:00</time></trkpt><trkpt lat="35.0298375" lon="32.419793"><ele>26.6</ele><time>2015-04-25T09:03:18.0000000+00:00</time></trkpt><trkpt lat="35.0298002" lon="32.4197445"><ele>26.8</ele><time>2015-04-25T09:03:23.0000000+00:00</time></trkpt><trkpt lat="35.0297688" lon="32.4196932"><ele>26.4</ele><time>2015-04-25T09:03:26.0000000+00:00</time></trkpt><trkpt lat="35.0297451" lon="32.4196437"><ele>27.2</ele><time>2015-04-25T09:03:29.0000000+00:00</time></trkpt><trkpt lat="35.0297315" lon="32.4195726"><ele>26.2</ele><time>2015-04-25T09:03:32.0000000+00:00</time></trkpt><trkpt lat="35.0297052" lon="32.4195129"><ele>26.0</ele><time>2015-04-25T09:03:34.0000000+00:00</time></trkpt><trkpt lat="35.0296647" lon="32.4194481"><ele>25.9</ele><time>2015-04-25T09:03:36.0000000+00:00</time></trkpt><trkpt lat="35.0296132" lon="32.4193893"><ele>23.9</ele><time>2015-04-25T09:03:38.0000000+00:00</time></trkpt><trkpt lat="35.0295635" lon="32.4193308"><ele>23.7</ele><time>2015-04-25T09:03:40.0000000+00:00</time></trkpt><trkpt lat="35.0295176" lon="32.4192732"><ele>24.4</ele><time>2015-04-25T09:03:42.0000000+00:00</time></trkpt><trkpt lat="35.0294713" lon="32.4192254"><ele>24.8</ele><time>2015-04-25T09:03:44.0000000+00:00</time></trkpt><trkpt lat="35.0294369" lon="32.4191769"><ele>23.4</ele><time>2015-04-25T09:03:46.0000000+00:00</time></trkpt><trkpt lat="35.0294684" lon="32.4192177"><ele>33.7</ele><time>2015-04-25T09:04:17.0000000+00:00</time></trkpt><trkpt lat="35.0295133" lon="32.419209"><ele>40.7</ele><time>2015-04-25T09:10:16.0000000+00:00</time></trkpt><trkpt lat="35.0294817" lon="32.4192489"><ele>35.2</ele><time>2015-04-25T09:20:09.0000000+00:00</time></trkpt><trkpt lat="35.0294835" lon="32.4191901"><ele>35.0</ele><time>2015-04-25T09:20:58.0000000+00:00</time></trkpt><trkpt lat="35.0294548" lon="32.4191404"><ele>34.7</ele><time>2015-04-25T09:21:01.0000000+00:00</time></trkpt><trkpt lat="35.0294219" lon="32.4190829"><ele>34.4</ele><time>2015-04-25T09:21:03.0000000+00:00</time></trkpt><trkpt lat="35.0293816" lon="32.4190046"><ele>33.3</ele><time>2015-04-25T09:21:05.0000000+00:00</time></trkpt><trkpt lat="35.029349" lon="32.4189219"><ele>32.5</ele><time>2015-04-25T09:21:07.0000000+00:00</time></trkpt><trkpt lat="35.0293192" lon="32.418839"><ele>31.3</ele><time>2015-04-25T09:21:09.0000000+00:00</time></trkpt><trkpt lat="35.0293044" lon="32.4187671"><ele>31.5</ele><time>2015-04-25T09:21:11.0000000+00:00</time></trkpt><trkpt lat="35.0293132" lon="32.4186941"><ele>31.9</ele><time>2015-04-25T09:21:14.0000000+00:00</time></trkpt><trkpt lat="35.0292814" lon="32.4186463"><ele>32.8</ele><time>2015-04-25T09:21:17.0000000+00:00</time></trkpt><trkpt lat="35.0292317" lon="32.4186501"><ele>33.7</ele><time>2015-04-25T09:21:20.0000000+00:00</time></trkpt><trkpt lat="35.029187" lon="32.4186348"><ele>32.3</ele><time>2015-04-25T09:21:24.0000000+00:00</time></trkpt><trkpt lat="35.0291708" lon="32.4185823"><ele>31.9</ele><time>2015-04-25T09:21:28.0000000+00:00</time></trkpt><trkpt lat="35.0291329" lon="32.4185353"><ele>33.4</ele><time>2015-04-25T09:22:59.0000000+00:00</time></trkpt><trkpt lat="35.0291026" lon="32.4184934"><ele>33.1</ele><time>2015-04-25T09:23:02.0000000+00:00</time></trkpt><trkpt lat="35.0290793" lon="32.4184394"><ele>32.7</ele><time>2015-04-25T09:23:05.0000000+00:00</time></trkpt><trkpt lat="35.0290529" lon="32.4183832"><ele>31.3</ele><time>2015-04-25T09:23:08.0000000+00:00</time></trkpt><trkpt lat="35.0290324" lon="32.418324"><ele>31.0</ele><time>2015-04-25T09:23:11.0000000+00:00</time></trkpt><trkpt lat="35.0290098" lon="32.4182586"><ele>30.9</ele><time>2015-04-25T09:23:15.0000000+00:00</time></trkpt><trkpt lat="35.02896" lon="32.4182022"><ele>29.5</ele><time>2015-04-25T09:23:18.0000000+00:00</time></trkpt><trkpt lat="35.0289151" lon="32.4181509"><ele>29.8</ele><time>2015-04-25T09:23:20.0000000+00:00</time></trkpt><trkpt lat="35.028878" lon="32.4180897"><ele>31.4</ele><time>2015-04-25T09:23:22.0000000+00:00</time></trkpt><trkpt lat="35.0288529" lon="32.4180302"><ele>32.0</ele><time>2015-04-25T09:23:24.0000000+00:00</time></trkpt><trkpt lat="35.0288207" lon="32.4179758"><ele>34.4</ele><time>2015-04-25T09:23:27.0000000+00:00</time></trkpt><trkpt lat="35.0287754" lon="32.4179854"><ele>37.8</ele><time>2015-04-25T09:23:31.0000000+00:00</time></trkpt><trkpt lat="35.028753" lon="32.4180368"><ele>38.8</ele><time>2015-04-25T09:23:34.0000000+00:00</time></trkpt><trkpt lat="35.0287207" lon="32.4180806"><ele>40.0</ele><time>2015-04-25T09:23:37.0000000+00:00</time></trkpt><trkpt lat="35.0286952" lon="32.4181314"><ele>39.9</ele><time>2015-04-25T09:23:40.0000000+00:00</time></trkpt><trkpt lat="35.0286698" lon="32.4181874"><ele>40.3</ele><time>2015-04-25T09:23:43.0000000+00:00</time></trkpt><trkpt lat="35.0286363" lon="32.4182393"><ele>40.1</ele><time>2015-04-25T09:23:46.0000000+00:00</time></trkpt><trkpt lat="35.0285965" lon="32.4182848"><ele>41.2</ele><time>2015-04-25T09:23:49.0000000+00:00</time></trkpt><trkpt lat="35.0285513" lon="32.4183258"><ele>42.6</ele><time>2015-04-25T09:23:52.0000000+00:00</time></trkpt><trkpt lat="35.0285008" lon="32.4183629"><ele>43.5</ele><time>2015-04-25T09:23:55.0000000+00:00</time></trkpt><trkpt lat="35.0284492" lon="32.4183983"><ele>43.4</ele><time>2015-04-25T09:23:58.0000000+00:00</time></trkpt><trkpt lat="35.0284063" lon="32.4184281"><ele>42.5</ele><time>2015-04-25T09:24:01.0000000+00:00</time></trkpt><trkpt lat="35.0283593" lon="32.4184459"><ele>41.8</ele><time>2015-04-25T09:24:05.0000000+00:00</time></trkpt><trkpt lat="35.0283036" lon="32.4184699"><ele>43.3</ele><time>2015-04-25T09:24:09.0000000+00:00</time></trkpt><trkpt lat="35.0282549" lon="32.4184959"><ele>43.4</ele><time>2015-04-25T09:24:12.0000000+00:00</time></trkpt><trkpt lat="35.0281984" lon="32.4185093"><ele>42.5</ele><time>2015-04-25T09:24:15.0000000+00:00</time></trkpt><trkpt lat="35.0281399" lon="32.4185192"><ele>41.5</ele><time>2015-04-25T09:24:18.0000000+00:00</time></trkpt><trkpt lat="35.0280976" lon="32.4185468"><ele>40.5</ele><time>2015-04-25T09:24:21.0000000+00:00</time></trkpt><trkpt lat="35.0280512" lon="32.4185325"><ele>40.5</ele><time>2015-04-25T09:24:24.0000000+00:00</time></trkpt><trkpt lat="35.0280307" lon="32.4184804"><ele>40.6</ele><time>2015-04-25T09:24:26.0000000+00:00</time></trkpt><trkpt lat="35.0280103" lon="32.4184081"><ele>40.6</ele><time>2015-04-25T09:24:28.0000000+00:00</time></trkpt><trkpt lat="35.0279789" lon="32.4183355"><ele>40.8</ele><time>2015-04-25T09:24:30.0000000+00:00</time></trkpt><trkpt lat="35.0279446" lon="32.4182726"><ele>40.4</ele><time>2015-04-25T09:24:32.0000000+00:00</time></trkpt><trkpt lat="35.0279129" lon="32.4182214"><ele>41.3</ele><time>2015-04-25T09:24:34.0000000+00:00</time></trkpt><trkpt lat="35.0278864" lon="32.418171"><ele>41.0</ele><time>2015-04-25T09:24:36.0000000+00:00</time></trkpt><trkpt lat="35.0278588" lon="32.4181251"><ele>41.7</ele><time>2015-04-25T09:24:38.0000000+00:00</time></trkpt><trkpt lat="35.0278163" lon="32.418064"><ele>42.3</ele><time>2015-04-25T09:24:41.0000000+00:00</time></trkpt><trkpt lat="35.0277718" lon="32.4180142"><ele>42.5</ele><time>2015-04-25T09:24:44.0000000+00:00</time></trkpt><trkpt lat="35.0277348" lon="32.4179678"><ele>43.7</ele><time>2015-04-25T09:24:47.0000000+00:00</time></trkpt><trkpt lat="35.0277032" lon="32.4179185"><ele>44.4</ele><time>2015-04-25T09:24:50.0000000+00:00</time></trkpt><trkpt lat="35.0276553" lon="32.4178744"><ele>44.7</ele><time>2015-04-25T09:24:53.0000000+00:00</time></trkpt><trkpt lat="35.0276102" lon="32.4178215"><ele>45.4</ele><time>2015-04-25T09:24:56.0000000+00:00</time></trkpt><trkpt lat="35.027566" lon="32.4177726"><ele>46.4</ele><time>2015-04-25T09:24:59.0000000+00:00</time></trkpt><trkpt lat="35.0275171" lon="32.4177285"><ele>48.2</ele><time>2015-04-25T09:25:02.0000000+00:00</time></trkpt><trkpt lat="35.027465" lon="32.4176841"><ele>49.8</ele><time>2015-04-25T09:25:05.0000000+00:00</time></trkpt><trkpt lat="35.0274154" lon="32.4176418"><ele>50.8</ele><time>2015-04-25T09:25:08.0000000+00:00</time></trkpt><trkpt lat="35.0273638" lon="32.4176009"><ele>50.8</ele><time>2015-04-25T09:25:11.0000000+00:00</time></trkpt><trkpt lat="35.0273087" lon="32.4175654"><ele>50.9</ele><time>2015-04-25T09:25:14.0000000+00:00</time></trkpt><trkpt lat="35.0272495" lon="32.4175405"><ele>50.4</ele><time>2015-04-25T09:25:17.0000000+00:00</time></trkpt><trkpt lat="35.0271969" lon="32.4175108"><ele>49.1</ele><time>2015-04-25T09:25:20.0000000+00:00</time></trkpt><trkpt lat="35.0271458" lon="32.4174869"><ele>50.0</ele><time>2015-04-25T09:25:23.0000000+00:00</time></trkpt><trkpt lat="35.0270928" lon="32.4174611"><ele>51.2</ele><time>2015-04-25T09:25:26.0000000+00:00</time></trkpt><trkpt lat="35.0270386" lon="32.4174377"><ele>49.6</ele><time>2015-04-25T09:25:29.0000000+00:00</time></trkpt><trkpt lat="35.0269924" lon="32.4174115"><ele>50.0</ele><time>2015-04-25T09:25:32.0000000+00:00</time></trkpt><trkpt lat="35.0269426" lon="32.4173854"><ele>52.2</ele><time>2015-04-25T09:25:35.0000000+00:00</time></trkpt><trkpt lat="35.026892" lon="32.4173753"><ele>52.8</ele><time>2015-04-25T09:25:38.0000000+00:00</time></trkpt><trkpt lat="35.0268452" lon="32.417353"><ele>53.4</ele><time>2015-04-25T09:25:41.0000000+00:00</time></trkpt><trkpt lat="35.0267967" lon="32.4173314"><ele>54.7</ele><time>2015-04-25T09:25:44.0000000+00:00</time></trkpt><trkpt lat="35.0267437" lon="32.4173121"><ele>55.7</ele><time>2015-04-25T09:25:47.0000000+00:00</time></trkpt><trkpt lat="35.0267029" lon="32.4172788"><ele>54.5</ele><time>2015-04-25T09:25:50.0000000+00:00</time></trkpt><trkpt lat="35.0266594" lon="32.4172494"><ele>54.0</ele><time>2015-04-25T09:25:53.0000000+00:00</time></trkpt><trkpt lat="35.0266118" lon="32.4172057"><ele>52.6</ele><time>2015-04-25T09:25:56.0000000+00:00</time></trkpt><trkpt lat="35.0265807" lon="32.4171469"><ele>54.1</ele><time>2015-04-25T09:25:59.0000000+00:00</time></trkpt><trkpt lat="35.0265502" lon="32.4171004"><ele>55.6</ele><time>2015-04-25T09:26:02.0000000+00:00</time></trkpt><trkpt lat="35.0265198" lon="32.4170464"><ele>56.8</ele><time>2015-04-25T09:26:05.0000000+00:00</time></trkpt><trkpt lat="35.0264985" lon="32.4169868"><ele>57.4</ele><time>2015-04-25T09:26:08.0000000+00:00</time></trkpt><trkpt lat="35.0264696" lon="32.4169374"><ele>57.4</ele><time>2015-04-25T09:26:11.0000000+00:00</time></trkpt><trkpt lat="35.0264455" lon="32.4168774"><ele>57.5</ele><time>2015-04-25T09:26:14.0000000+00:00</time></trkpt><trkpt lat="35.0264282" lon="32.4168157"><ele>58.7</ele><time>2015-04-25T09:26:17.0000000+00:00</time></trkpt><trkpt lat="35.0264082" lon="32.4167655"><ele>58.2</ele><time>2015-04-25T09:26:20.0000000+00:00</time></trkpt><trkpt lat="35.0263851" lon="32.416713"><ele>59.2</ele><time>2015-04-25T09:26:23.0000000+00:00</time></trkpt><trkpt lat="35.0263647" lon="32.416653"><ele>59.8</ele><time>2015-04-25T09:26:26.0000000+00:00</time></trkpt><trkpt lat="35.0263341" lon="32.4165958"><ele>59.2</ele><time>2015-04-25T09:26:29.0000000+00:00</time></trkpt><trkpt lat="35.0262982" lon="32.4165391"><ele>60.0</ele><time>2015-04-25T09:26:32.0000000+00:00</time></trkpt><trkpt lat="35.0262707" lon="32.4164734"><ele>60.7</ele><time>2015-04-25T09:26:35.0000000+00:00</time></trkpt><trkpt lat="35.0262462" lon="32.4164055"><ele>60.9</ele><time>2015-04-25T09:26:38.0000000+00:00</time></trkpt><trkpt lat="35.0262197" lon="32.4163344"><ele>59.8</ele><time>2015-04-25T09:26:41.0000000+00:00</time></trkpt><trkpt lat="35.0261848" lon="32.4162609"><ele>59.9</ele><time>2015-04-25T09:26:44.0000000+00:00</time></trkpt><trkpt lat="35.0261621" lon="32.4162086"><ele>59.9</ele><time>2015-04-25T09:26:46.0000000+00:00</time></trkpt><trkpt lat="35.0261407" lon="32.4161501"><ele>60.7</ele><time>2015-04-25T09:26:48.0000000+00:00</time></trkpt><trkpt lat="35.0261207" lon="32.4160834"><ele>60.6</ele><time>2015-04-25T09:26:50.0000000+00:00</time></trkpt><trkpt lat="35.0260914" lon="32.4160079"><ele>60.9</ele><time>2015-04-25T09:26:52.0000000+00:00</time></trkpt><trkpt lat="35.0260646" lon="32.4159353"><ele>60.9</ele><time>2015-04-25T09:26:54.0000000+00:00</time></trkpt><trkpt lat="35.026041" lon="32.4158627"><ele>60.9</ele><time>2015-04-25T09:26:56.0000000+00:00</time></trkpt><trkpt lat="35.0260163" lon="32.4157909"><ele>61.7</ele><time>2015-04-25T09:26:58.0000000+00:00</time></trkpt><trkpt lat="35.0259956" lon="32.4157194"><ele>62.6</ele><time>2015-04-25T09:27:00.0000000+00:00</time></trkpt><trkpt lat="35.0259752" lon="32.4156485"><ele>62.9</ele><time>2015-04-25T09:27:02.0000000+00:00</time></trkpt><trkpt lat="35.0259541" lon="32.4155753"><ele>63.7</ele><time>2015-04-25T09:27:04.0000000+00:00</time></trkpt><trkpt lat="35.0259369" lon="32.4155034"><ele>63.1</ele><time>2015-04-25T09:27:06.0000000+00:00</time></trkpt><trkpt lat="35.0259228" lon="32.4154302"><ele>63.7</ele><time>2015-04-25T09:27:08.0000000+00:00</time></trkpt><trkpt lat="35.0259101" lon="32.415362"><ele>64.6</ele><time>2015-04-25T09:27:10.0000000+00:00</time></trkpt><trkpt lat="35.0258978" lon="32.4152931"><ele>64.1</ele><time>2015-04-25T09:27:12.0000000+00:00</time></trkpt><trkpt lat="35.0258896" lon="32.4152285"><ele>64.0</ele><time>2015-04-25T09:27:14.0000000+00:00</time></trkpt><trkpt lat="35.0258759" lon="32.4151625"><ele>63.9</ele><time>2015-04-25T09:27:16.0000000+00:00</time></trkpt><trkpt lat="35.0258596" lon="32.4150957"><ele>63.4</ele><time>2015-04-25T09:27:18.0000000+00:00</time></trkpt><trkpt lat="35.0258393" lon="32.41503"><ele>63.1</ele><time>2015-04-25T09:27:20.0000000+00:00</time></trkpt><trkpt lat="35.0258172" lon="32.4149647"><ele>62.2</ele><time>2015-04-25T09:27:22.0000000+00:00</time></trkpt><trkpt lat="35.025796" lon="32.4149025"><ele>62.5</ele><time>2015-04-25T09:27:24.0000000+00:00</time></trkpt><trkpt lat="35.0257747" lon="32.4148454"><ele>62.8</ele><time>2015-04-25T09:27:26.0000000+00:00</time></trkpt><trkpt lat="35.025751" lon="32.4147702"><ele>62.0</ele><time>2015-04-25T09:27:29.0000000+00:00</time></trkpt><trkpt lat="35.0257361" lon="32.4146959"><ele>61.2</ele><time>2015-04-25T09:27:32.0000000+00:00</time></trkpt><trkpt lat="35.0257201" lon="32.414618"><ele>60.5</ele><time>2015-04-25T09:27:35.0000000+00:00</time></trkpt><trkpt lat="35.0256956" lon="32.4145661"><ele>60.1</ele><time>2015-04-25T09:27:37.0000000+00:00</time></trkpt><trkpt lat="35.0256626" lon="32.4145167"><ele>59.7</ele><time>2015-04-25T09:27:39.0000000+00:00</time></trkpt><trkpt lat="35.025618" lon="32.4144584"><ele>59.6</ele><time>2015-04-25T09:27:41.0000000+00:00</time></trkpt><trkpt lat="35.0255324" lon="32.4143602"><ele>59.9</ele><time>2015-04-25T09:27:43.0000000+00:00</time></trkpt><trkpt lat="35.0254974" lon="32.4143244"><ele>59.9</ele><time>2015-04-25T09:27:44.0000000+00:00</time></trkpt><trkpt lat="35.0254392" lon="32.4142483"><ele>60.4</ele><time>2015-04-25T09:27:46.0000000+00:00</time></trkpt><trkpt lat="35.0253823" lon="32.4141763"><ele>60.8</ele><time>2015-04-25T09:27:48.0000000+00:00</time></trkpt><trkpt lat="35.0253283" lon="32.4140914"><ele>60.6</ele><time>2015-04-25T09:27:50.0000000+00:00</time></trkpt><trkpt lat="35.025281" lon="32.4140134"><ele>60.4</ele><time>2015-04-25T09:27:52.0000000+00:00</time></trkpt><trkpt lat="35.0252325" lon="32.4139417"><ele>60.0</ele><time>2015-04-25T09:27:54.0000000+00:00</time></trkpt><trkpt lat="35.0251862" lon="32.413872"><ele>60.7</ele><time>2015-04-25T09:27:56.0000000+00:00</time></trkpt><trkpt lat="35.0251382" lon="32.4138072"><ele>61.6</ele><time>2015-04-25T09:27:58.0000000+00:00</time></trkpt><trkpt lat="35.0250936" lon="32.4137425"><ele>62.1</ele><time>2015-04-25T09:28:00.0000000+00:00</time></trkpt><trkpt lat="35.0250566" lon="32.4136699"><ele>62.7</ele><time>2015-04-25T09:28:02.0000000+00:00</time></trkpt><trkpt lat="35.0250172" lon="32.4136019"><ele>62.9</ele><time>2015-04-25T09:28:04.0000000+00:00</time></trkpt><trkpt lat="35.0249796" lon="32.4135373"><ele>63.2</ele><time>2015-04-25T09:28:06.0000000+00:00</time></trkpt><trkpt lat="35.0249475" lon="32.4134714"><ele>63.7</ele><time>2015-04-25T09:28:08.0000000+00:00</time></trkpt><trkpt lat="35.0249147" lon="32.4134096"><ele>63.9</ele><time>2015-04-25T09:28:10.0000000+00:00</time></trkpt><trkpt lat="35.0248812" lon="32.4133522"><ele>64.4</ele><time>2015-04-25T09:28:12.0000000+00:00</time></trkpt><trkpt lat="35.0248514" lon="32.4132926"><ele>65.6</ele><time>2015-04-25T09:28:14.0000000+00:00</time></trkpt><trkpt lat="35.0248224" lon="32.413236"><ele>66.3</ele><time>2015-04-25T09:28:16.0000000+00:00</time></trkpt><trkpt lat="35.0247971" lon="32.4131826"><ele>66.5</ele><time>2015-04-25T09:28:18.0000000+00:00</time></trkpt><trkpt lat="35.0247752" lon="32.4131299"><ele>66.1</ele><time>2015-04-25T09:28:20.0000000+00:00</time></trkpt><trkpt lat="35.0247549" lon="32.4130783"><ele>66.0</ele><time>2015-04-25T09:28:22.0000000+00:00</time></trkpt><trkpt lat="35.0247284" lon="32.4130286"><ele>65.9</ele><time>2015-04-25T09:28:24.0000000+00:00</time></trkpt><trkpt lat="35.0247027" lon="32.4129762"><ele>65.9</ele><time>2015-04-25T09:28:26.0000000+00:00</time></trkpt><trkpt lat="35.0246775" lon="32.4129251"><ele>66.4</ele><time>2015-04-25T09:28:28.0000000+00:00</time></trkpt><trkpt lat="35.024656" lon="32.4128722"><ele>66.8</ele><time>2015-04-25T09:28:30.0000000+00:00</time></trkpt><trkpt lat="35.0246382" lon="32.4128193"><ele>66.6</ele><time>2015-04-25T09:28:32.0000000+00:00</time></trkpt><trkpt lat="35.0246222" lon="32.4127654"><ele>67.4</ele><time>2015-04-25T09:28:34.0000000+00:00</time></trkpt><trkpt lat="35.0245931" lon="32.4126958"><ele>68.7</ele><time>2015-04-25T09:28:37.0000000+00:00</time></trkpt><trkpt lat="35.0245766" lon="32.4126178"><ele>68.9</ele><time>2015-04-25T09:28:40.0000000+00:00</time></trkpt><trkpt lat="35.0245592" lon="32.4125412"><ele>70.1</ele><time>2015-04-25T09:28:43.0000000+00:00</time></trkpt><trkpt lat="35.0245489" lon="32.4124866"><ele>70.2</ele><time>2015-04-25T09:28:45.0000000+00:00</time></trkpt><trkpt lat="35.0245361" lon="32.4124338"><ele>71.3</ele><time>2015-04-25T09:28:47.0000000+00:00</time></trkpt><trkpt lat="35.0245228" lon="32.4123561"><ele>73.1</ele><time>2015-04-25T09:28:50.0000000+00:00</time></trkpt><trkpt lat="35.0245152" lon="32.4123018"><ele>73.7</ele><time>2015-04-25T09:28:52.0000000+00:00</time></trkpt><trkpt lat="35.0245026" lon="32.4122491"><ele>74.4</ele><time>2015-04-25T09:28:54.0000000+00:00</time></trkpt><trkpt lat="35.0244932" lon="32.4121946"><ele>74.8</ele><time>2015-04-25T09:28:56.0000000+00:00</time></trkpt><trkpt lat="35.0244763" lon="32.4121212"><ele>75.4</ele><time>2015-04-25T09:28:59.0000000+00:00</time></trkpt><trkpt lat="35.0244702" lon="32.4120467"><ele>75.9</ele><time>2015-04-25T09:29:02.0000000+00:00</time></trkpt><trkpt lat="35.0244572" lon="32.4119859"><ele>76.7</ele><time>2015-04-25T09:29:05.0000000+00:00</time></trkpt><trkpt lat="35.0244386" lon="32.4119269"><ele>76.2</ele><time>2015-04-25T09:29:09.0000000+00:00</time></trkpt><trkpt lat="35.0244396" lon="32.4118546"><ele>76.4</ele><time>2015-04-25T09:29:13.0000000+00:00</time></trkpt><trkpt lat="35.0244322" lon="32.4117847"><ele>75.7</ele><time>2015-04-25T09:29:17.0000000+00:00</time></trkpt><trkpt lat="35.0244184" lon="32.411732"><ele>76.0</ele><time>2015-04-25T09:29:20.0000000+00:00</time></trkpt><trkpt lat="35.0243977" lon="32.411668"><ele>76.4</ele><time>2015-04-25T09:29:24.0000000+00:00</time></trkpt><trkpt lat="35.0243802" lon="32.4116149"><ele>76.9</ele><time>2015-04-25T09:29:27.0000000+00:00</time></trkpt><trkpt lat="35.0243394" lon="32.4115481"><ele>76.9</ele><time>2015-04-25T09:29:30.0000000+00:00</time></trkpt><trkpt lat="35.0243024" lon="32.4114737"><ele>76.7</ele><time>2015-04-25T09:29:32.0000000+00:00</time></trkpt><trkpt lat="35.0242592" lon="32.4113891"><ele>76.1</ele><time>2015-04-25T09:29:34.0000000+00:00</time></trkpt><trkpt lat="35.0242227" lon="32.4113144"><ele>76.0</ele><time>2015-04-25T09:29:35.0000000+00:00</time></trkpt><trkpt lat="35.0241939" lon="32.4112594"><ele>76.0</ele><time>2015-04-25T09:29:36.0000000+00:00</time></trkpt><trkpt lat="35.0241666" lon="32.4112089"><ele>76.0</ele><time>2015-04-25T09:29:37.0000000+00:00</time></trkpt><trkpt lat="35.0241431" lon="32.4111522"><ele>75.9</ele><time>2015-04-25T09:29:38.0000000+00:00</time></trkpt><trkpt lat="35.0241236" lon="32.4110934"><ele>75.4</ele><time>2015-04-25T09:29:39.0000000+00:00</time></trkpt><trkpt lat="35.0240995" lon="32.4110403"><ele>75.2</ele><time>2015-04-25T09:29:40.0000000+00:00</time></trkpt><trkpt lat="35.0240813" lon="32.4109791"><ele>74.6</ele><time>2015-04-25T09:29:41.0000000+00:00</time></trkpt><trkpt lat="35.0240672" lon="32.4109196"><ele>74.7</ele><time>2015-04-25T09:29:42.0000000+00:00</time></trkpt><trkpt lat="35.0240629" lon="32.410857"><ele>74.3</ele><time>2015-04-25T09:29:43.0000000+00:00</time></trkpt><trkpt lat="35.0240622" lon="32.410793"><ele>74.1</ele><time>2015-04-25T09:29:44.0000000+00:00</time></trkpt><trkpt lat="35.0240678" lon="32.4106797"><ele>74.0</ele><time>2015-04-25T09:29:46.0000000+00:00</time></trkpt><trkpt lat="35.0240754" lon="32.410569"><ele>74.2</ele><time>2015-04-25T09:29:48.0000000+00:00</time></trkpt><trkpt lat="35.024081" lon="32.4105093"><ele>74.1</ele><time>2015-04-25T09:29:49.0000000+00:00</time></trkpt><trkpt lat="35.0240905" lon="32.410452"><ele>74.0</ele><time>2015-04-25T09:29:50.0000000+00:00</time></trkpt><trkpt lat="35.024109" lon="32.4103453"><ele>73.9</ele><time>2015-04-25T09:29:52.0000000+00:00</time></trkpt><trkpt lat="35.0241197" lon="32.4102352"><ele>74.7</ele><time>2015-04-25T09:29:54.0000000+00:00</time></trkpt><trkpt lat="35.0241181" lon="32.4101371"><ele>74.9</ele><time>2015-04-25T09:29:56.0000000+00:00</time></trkpt><trkpt lat="35.0241267" lon="32.4100381"><ele>75.7</ele><time>2015-04-25T09:29:58.0000000+00:00</time></trkpt><trkpt lat="35.0241305" lon="32.4099447"><ele>76.4</ele><time>2015-04-25T09:30:00.0000000+00:00</time></trkpt><trkpt lat="35.0241439" lon="32.4098547"><ele>76.8</ele><time>2015-04-25T09:30:02.0000000+00:00</time></trkpt><trkpt lat="35.02415" lon="32.4097669"><ele>76.9</ele><time>2015-04-25T09:30:04.0000000+00:00</time></trkpt><trkpt lat="35.0241517" lon="32.4096827"><ele>77.7</ele><time>2015-04-25T09:30:06.0000000+00:00</time></trkpt><trkpt lat="35.0241483" lon="32.4096013"><ele>78.6</ele><time>2015-04-25T09:30:08.0000000+00:00</time></trkpt><trkpt lat="35.0241431" lon="32.4095246"><ele>79.4</ele><time>2015-04-25T09:30:10.0000000+00:00</time></trkpt><trkpt lat="35.0241449" lon="32.4094472"><ele>79.0</ele><time>2015-04-25T09:30:12.0000000+00:00</time></trkpt><trkpt lat="35.0241387" lon="32.4093739"><ele>79.0</ele><time>2015-04-25T09:30:14.0000000+00:00</time></trkpt><trkpt lat="35.0241275" lon="32.4092963"><ele>78.9</ele><time>2015-04-25T09:30:16.0000000+00:00</time></trkpt><trkpt lat="35.0241213" lon="32.4092284"><ele>79.7</ele><time>2015-04-25T09:30:18.0000000+00:00</time></trkpt><trkpt lat="35.0241184" lon="32.4091618"><ele>79.9</ele><time>2015-04-25T09:30:20.0000000+00:00</time></trkpt><trkpt lat="35.0241156" lon="32.4090938"><ele>80.7</ele><time>2015-04-25T09:30:22.0000000+00:00</time></trkpt><trkpt lat="35.0241126" lon="32.4090276"><ele>80.9</ele><time>2015-04-25T09:30:24.0000000+00:00</time></trkpt><trkpt lat="35.0241014" lon="32.4089621"><ele>81.7</ele><time>2015-04-25T09:30:26.0000000+00:00</time></trkpt><trkpt lat="35.0240828" lon="32.4088996"><ele>81.9</ele><time>2015-04-25T09:30:28.0000000+00:00</time></trkpt><trkpt lat="35.0240673" lon="32.4088447"><ele>82.4</ele><time>2015-04-25T09:30:30.0000000+00:00</time></trkpt><trkpt lat="35.0240582" lon="32.4087863"><ele>83.3</ele><time>2015-04-25T09:30:32.0000000+00:00</time></trkpt><trkpt lat="35.0240474" lon="32.4087068"><ele>83.9</ele><time>2015-04-25T09:30:35.0000000+00:00</time></trkpt><trkpt lat="35.0240287" lon="32.4086512"><ele>84.7</ele><time>2015-04-25T09:30:37.0000000+00:00</time></trkpt><trkpt lat="35.0240073" lon="32.4085963"><ele>84.9</ele><time>2015-04-25T09:30:39.0000000+00:00</time></trkpt><trkpt lat="35.0239888" lon="32.4085391"><ele>84.9</ele><time>2015-04-25T09:30:41.0000000+00:00</time></trkpt><trkpt lat="35.023964" lon="32.408484"><ele>84.9</ele><time>2015-04-25T09:30:43.0000000+00:00</time></trkpt><trkpt lat="35.0239349" lon="32.4084268"><ele>84.9</ele><time>2015-04-25T09:30:45.0000000+00:00</time></trkpt><trkpt lat="35.0239064" lon="32.4083673"><ele>84.9</ele><time>2015-04-25T09:30:47.0000000+00:00</time></trkpt><trkpt lat="35.0238745" lon="32.408307"><ele>85.7</ele><time>2015-04-25T09:30:49.0000000+00:00</time></trkpt><trkpt lat="35.0238429" lon="32.4082446"><ele>85.9</ele><time>2015-04-25T09:30:51.0000000+00:00</time></trkpt><trkpt lat="35.0238023" lon="32.4081754"><ele>86.7</ele><time>2015-04-25T09:30:53.0000000+00:00</time></trkpt><trkpt lat="35.0237603" lon="32.4081048"><ele>86.1</ele><time>2015-04-25T09:30:55.0000000+00:00</time></trkpt><trkpt lat="35.0237238" lon="32.4080357"><ele>86.0</ele><time>2015-04-25T09:30:57.0000000+00:00</time></trkpt><trkpt lat="35.0237045" lon="32.4079761"><ele>84.1</ele><time>2015-04-25T09:32:04.0000000+00:00</time></trkpt><trkpt lat="35.0236822" lon="32.4079154"><ele>84.7</ele><time>2015-04-25T09:32:07.0000000+00:00</time></trkpt><trkpt lat="35.0236523" lon="32.407858"><ele>84.4</ele><time>2015-04-25T09:32:10.0000000+00:00</time></trkpt><trkpt lat="35.023623" lon="32.4078037"><ele>84.0</ele><time>2015-04-25T09:32:13.0000000+00:00</time></trkpt><trkpt lat="35.0235976" lon="32.4077558"><ele>84.7</ele><time>2015-04-25T09:32:15.0000000+00:00</time></trkpt><trkpt lat="35.0235631" lon="32.407691"><ele>84.9</ele><time>2015-04-25T09:32:17.0000000+00:00</time></trkpt><trkpt lat="35.0235238" lon="32.4076177"><ele>84.9</ele><time>2015-04-25T09:32:19.0000000+00:00</time></trkpt><trkpt lat="35.0234801" lon="32.4075379"><ele>84.9</ele><time>2015-04-25T09:32:21.0000000+00:00</time></trkpt><trkpt lat="35.0234403" lon="32.4074609"><ele>84.2</ele><time>2015-04-25T09:32:23.0000000+00:00</time></trkpt><trkpt lat="35.0234047" lon="32.4073818"><ele>84.2</ele><time>2015-04-25T09:32:25.0000000+00:00</time></trkpt><trkpt lat="35.0233696" lon="32.4073125"><ele>84.8</ele><time>2015-04-25T09:32:27.0000000+00:00</time></trkpt><trkpt lat="35.0233335" lon="32.407236"><ele>85.6</ele><time>2015-04-25T09:32:29.0000000+00:00</time></trkpt><trkpt lat="35.0233009" lon="32.4071554"><ele>86.4</ele><time>2015-04-25T09:32:31.0000000+00:00</time></trkpt><trkpt lat="35.0232658" lon="32.4070731"><ele>86.8</ele><time>2015-04-25T09:32:33.0000000+00:00</time></trkpt><trkpt lat="35.0232322" lon="32.4069902"><ele>86.9</ele><time>2015-04-25T09:32:35.0000000+00:00</time></trkpt><trkpt lat="35.0231972" lon="32.4069004"><ele>86.9</ele><time>2015-04-25T09:32:37.0000000+00:00</time></trkpt><trkpt lat="35.0231658" lon="32.4068142"><ele>86.2</ele><time>2015-04-25T09:32:39.0000000+00:00</time></trkpt><trkpt lat="35.0231311" lon="32.4067252"><ele>86.7</ele><time>2015-04-25T09:32:41.0000000+00:00</time></trkpt><trkpt lat="35.0231015" lon="32.4066351"><ele>86.4</ele><time>2015-04-25T09:32:43.0000000+00:00</time></trkpt><trkpt lat="35.0230686" lon="32.4065408"><ele>86.0</ele><time>2015-04-25T09:32:45.0000000+00:00</time></trkpt><trkpt lat="35.0230379" lon="32.4064483"><ele>86.0</ele><time>2015-04-25T09:32:47.0000000+00:00</time></trkpt><trkpt lat="35.0230084" lon="32.4063528"><ele>85.4</ele><time>2015-04-25T09:32:49.0000000+00:00</time></trkpt><trkpt lat="35.0229812" lon="32.406221"><ele>84.3</ele><time>2015-04-25T09:32:51.0000000+00:00</time></trkpt><trkpt lat="35.0229624" lon="32.4061614"><ele>83.6</ele><time>2015-04-25T09:32:52.0000000+00:00</time></trkpt><trkpt lat="35.0229475" lon="32.4061068"><ele>83.3</ele><time>2015-04-25T09:32:53.0000000+00:00</time></trkpt><trkpt lat="35.0229319" lon="32.4060494"><ele>83.1</ele><time>2015-04-25T09:32:54.0000000+00:00</time></trkpt><trkpt lat="35.022912" lon="32.4059942"><ele>82.5</ele><time>2015-04-25T09:32:55.0000000+00:00</time></trkpt><trkpt lat="35.0228929" lon="32.4059395"><ele>82.2</ele><time>2015-04-25T09:32:56.0000000+00:00</time></trkpt><trkpt lat="35.0228828" lon="32.4058842"><ele>82.1</ele><time>2015-04-25T09:32:57.0000000+00:00</time></trkpt><trkpt lat="35.0228697" lon="32.405827"><ele>82.0</ele><time>2015-04-25T09:32:58.0000000+00:00</time></trkpt><trkpt lat="35.0228464" lon="32.4057295"><ele>82.7</ele><time>2015-04-25T09:33:00.0000000+00:00</time></trkpt><trkpt lat="35.0228362" lon="32.4056735"><ele>82.8</ele><time>2015-04-25T09:33:01.0000000+00:00</time></trkpt><trkpt lat="35.0228225" lon="32.4055779"><ele>83.4</ele><time>2015-04-25T09:33:03.0000000+00:00</time></trkpt><trkpt lat="35.0227964" lon="32.4054804"><ele>84.3</ele><time>2015-04-25T09:33:05.0000000+00:00</time></trkpt><trkpt lat="35.02277" lon="32.4053871"><ele>85.5</ele><time>2015-04-25T09:33:07.0000000+00:00</time></trkpt><trkpt lat="35.0227609" lon="32.4053292"><ele>85.7</ele><time>2015-04-25T09:33:08.0000000+00:00</time></trkpt><trkpt lat="35.0227396" lon="32.4052293"><ele>85.9</ele><time>2015-04-25T09:33:10.0000000+00:00</time></trkpt><trkpt lat="35.0227255" lon="32.4051763"><ele>86.4</ele><time>2015-04-25T09:33:11.0000000+00:00</time></trkpt><trkpt lat="35.0227026" lon="32.4050718"><ele>85.5</ele><time>2015-04-25T09:33:13.0000000+00:00</time></trkpt><trkpt lat="35.0226775" lon="32.4049745"><ele>85.6</ele><time>2015-04-25T09:33:15.0000000+00:00</time></trkpt><trkpt lat="35.0226606" lon="32.4049219"><ele>85.3</ele><time>2015-04-25T09:33:16.0000000+00:00</time></trkpt><trkpt lat="35.022615" lon="32.404826"><ele>86.5</ele><time>2015-04-25T09:33:18.0000000+00:00</time></trkpt><trkpt lat="35.0225811" lon="32.404724"><ele>86.6</ele><time>2015-04-25T09:33:20.0000000+00:00</time></trkpt><trkpt lat="35.0225678" lon="32.4046693"><ele>86.8</ele><time>2015-04-25T09:33:21.0000000+00:00</time></trkpt><trkpt lat="35.0225496" lon="32.4046186"><ele>86.3</ele><time>2015-04-25T09:33:22.0000000+00:00</time></trkpt><trkpt lat="35.0225154" lon="32.404517"><ele>86.0</ele><time>2015-04-25T09:33:24.0000000+00:00</time></trkpt><trkpt lat="35.0224728" lon="32.4044133"><ele>86.0</ele><time>2015-04-25T09:33:26.0000000+00:00</time></trkpt><trkpt lat="35.0224423" lon="32.40432"><ele>85.7</ele><time>2015-04-25T09:33:28.0000000+00:00</time></trkpt><trkpt lat="35.0224106" lon="32.4042062"><ele>86.6</ele><time>2015-04-25T09:33:30.0000000+00:00</time></trkpt><trkpt lat="35.0223795" lon="32.404106"><ele>86.9</ele><time>2015-04-25T09:33:32.0000000+00:00</time></trkpt><trkpt lat="35.0223439" lon="32.4040161"><ele>87.4</ele><time>2015-04-25T09:33:34.0000000+00:00</time></trkpt><trkpt lat="35.0223151" lon="32.4039237"><ele>87.8</ele><time>2015-04-25T09:33:36.0000000+00:00</time></trkpt><trkpt lat="35.0222874" lon="32.4038282"><ele>88.6</ele><time>2015-04-25T09:33:38.0000000+00:00</time></trkpt><trkpt lat="35.0222555" lon="32.4037289"><ele>88.9</ele><time>2015-04-25T09:33:40.0000000+00:00</time></trkpt><trkpt lat="35.0222338" lon="32.4036719"><ele>88.9</ele><time>2015-04-25T09:33:41.0000000+00:00</time></trkpt><trkpt lat="35.0222033" lon="32.4035615"><ele>88.7</ele><time>2015-04-25T09:33:43.0000000+00:00</time></trkpt><trkpt lat="35.0221842" lon="32.4035017"><ele>88.8</ele><time>2015-04-25T09:33:44.0000000+00:00</time></trkpt><trkpt lat="35.0221655" lon="32.4034507"><ele>89.4</ele><time>2015-04-25T09:33:45.0000000+00:00</time></trkpt><trkpt lat="35.0221467" lon="32.4033823"><ele>90.1</ele><time>2015-04-25T09:33:46.0000000+00:00</time></trkpt><trkpt lat="35.0221155" lon="32.4032797"><ele>89.0</ele><time>2015-04-25T09:33:48.0000000+00:00</time></trkpt><trkpt lat="35.0220992" lon="32.4032245"><ele>89.0</ele><time>2015-04-25T09:33:49.0000000+00:00</time></trkpt><trkpt lat="35.0220836" lon="32.4031578"><ele>88.9</ele><time>2015-04-25T09:33:50.0000000+00:00</time></trkpt><trkpt lat="35.0220519" lon="32.4030605"><ele>87.9</ele><time>2015-04-25T09:33:52.0000000+00:00</time></trkpt><trkpt lat="35.0220337" lon="32.4030095"><ele>87.9</ele><time>2015-04-25T09:33:53.0000000+00:00</time></trkpt><trkpt lat="35.0219931" lon="32.4029093"><ele>88.2</ele><time>2015-04-25T09:33:55.0000000+00:00</time></trkpt><trkpt lat="35.0219729" lon="32.4028541"><ele>88.1</ele><time>2015-04-25T09:33:56.0000000+00:00</time></trkpt><trkpt lat="35.021956" lon="32.4028002"><ele>88.0</ele><time>2015-04-25T09:33:57.0000000+00:00</time></trkpt><trkpt lat="35.0219229" lon="32.4026983"><ele>88.2</ele><time>2015-04-25T09:33:59.0000000+00:00</time></trkpt><trkpt lat="35.0218934" lon="32.4025936"><ele>88.0</ele><time>2015-04-25T09:34:01.0000000+00:00</time></trkpt><trkpt lat="35.0218466" lon="32.4025083"><ele>89.4</ele><time>2015-04-25T09:34:03.0000000+00:00</time></trkpt><trkpt lat="35.0218233" lon="32.4024266"><ele>90.1</ele><time>2015-04-25T09:34:05.0000000+00:00</time></trkpt><trkpt lat="35.02181" lon="32.402374"><ele>90.0</ele><time>2015-04-25T09:34:06.0000000+00:00</time></trkpt><trkpt lat="35.0217948" lon="32.4023188"><ele>90.5</ele><time>2015-04-25T09:34:07.0000000+00:00</time></trkpt><trkpt lat="35.0217725" lon="32.4022674"><ele>90.2</ele><time>2015-04-25T09:34:08.0000000+00:00</time></trkpt><trkpt lat="35.0217527" lon="32.4022109"><ele>90.6</ele><time>2015-04-25T09:34:09.0000000+00:00</time></trkpt><trkpt lat="35.0217293" lon="32.4021561"><ele>90.7</ele><time>2015-04-25T09:34:10.0000000+00:00</time></trkpt><trkpt lat="35.0216996" lon="32.4020499"><ele>91.9</ele><time>2015-04-25T09:34:12.0000000+00:00</time></trkpt><trkpt lat="35.0216662" lon="32.4019545"><ele>92.9</ele><time>2015-04-25T09:34:14.0000000+00:00</time></trkpt><trkpt lat="35.0216579" lon="32.4018969"><ele>92.4</ele><time>2015-04-25T09:34:15.0000000+00:00</time></trkpt><trkpt lat="35.0216405" lon="32.4017976"><ele>92.1</ele><time>2015-04-25T09:34:17.0000000+00:00</time></trkpt><trkpt lat="35.0216137" lon="32.4016938"><ele>91.5</ele><time>2015-04-25T09:34:19.0000000+00:00</time></trkpt><trkpt lat="35.021599" lon="32.4016399"><ele>91.7</ele><time>2015-04-25T09:34:20.0000000+00:00</time></trkpt><trkpt lat="35.021582" lon="32.4015862"><ele>91.3</ele><time>2015-04-25T09:34:21.0000000+00:00</time></trkpt><trkpt lat="35.0215497" lon="32.4014862"><ele>91.8</ele><time>2015-04-25T09:34:23.0000000+00:00</time></trkpt><trkpt lat="35.0215339" lon="32.4014287"><ele>91.9</ele><time>2015-04-25T09:34:24.0000000+00:00</time></trkpt><trkpt lat="35.0214973" lon="32.4013301"><ele>91.9</ele><time>2015-04-25T09:34:26.0000000+00:00</time></trkpt><trkpt lat="35.0214574" lon="32.4012297"><ele>92.4</ele><time>2015-04-25T09:34:28.0000000+00:00</time></trkpt><trkpt lat="35.02142" lon="32.4011439"><ele>92.1</ele><time>2015-04-25T09:34:30.0000000+00:00</time></trkpt><trkpt lat="35.0213821" lon="32.4010605"><ele>93.2</ele><time>2015-04-25T09:34:32.0000000+00:00</time></trkpt><trkpt lat="35.0213566" lon="32.4010056"><ele>93.6</ele><time>2015-04-25T09:34:33.0000000+00:00</time></trkpt><trkpt lat="35.021325" lon="32.4009074"><ele>93.8</ele><time>2015-04-25T09:34:35.0000000+00:00</time></trkpt><trkpt lat="35.021286" lon="32.4008258"><ele>94.4</ele><time>2015-04-25T09:34:37.0000000+00:00</time></trkpt><trkpt lat="35.0212568" lon="32.4007581"><ele>94.8</ele><time>2015-04-25T09:34:39.0000000+00:00</time></trkpt><trkpt lat="35.0212342" lon="32.4007058"><ele>94.4</ele><time>2015-04-25T09:34:41.0000000+00:00</time></trkpt><trkpt lat="35.02122" lon="32.400652"><ele>93.5</ele><time>2015-04-25T09:34:44.0000000+00:00</time></trkpt><trkpt lat="35.02125" lon="32.4006053"><ele>93.1</ele><time>2015-04-25T09:34:48.0000000+00:00</time></trkpt><trkpt lat="35.0212124" lon="32.4005641"><ele>89.9</ele><time>2015-04-25T09:36:45.0000000+00:00</time></trkpt><trkpt lat="35.0211738" lon="32.4005175"><ele>90.4</ele><time>2015-04-25T09:36:47.0000000+00:00</time></trkpt><trkpt lat="35.0211366" lon="32.4004707"><ele>90.3</ele><time>2015-04-25T09:36:49.0000000+00:00</time></trkpt><trkpt lat="35.0210936" lon="32.4004285"><ele>90.8</ele><time>2015-04-25T09:36:51.0000000+00:00</time></trkpt><trkpt lat="35.0210361" lon="32.4003882"><ele>90.9</ele><time>2015-04-25T09:36:53.0000000+00:00</time></trkpt><trkpt lat="35.020932" lon="32.4003236"><ele>91.2</ele><time>2015-04-25T09:36:55.0000000+00:00</time></trkpt><trkpt lat="35.0208851" lon="32.4002924"><ele>91.1</ele><time>2015-04-25T09:36:56.0000000+00:00</time></trkpt><trkpt lat="35.0208421" lon="32.4002666"><ele>91.5</ele><time>2015-04-25T09:36:57.0000000+00:00</time></trkpt><trkpt lat="35.0207968" lon="32.400237"><ele>91.2</ele><time>2015-04-25T09:36:58.0000000+00:00</time></trkpt><trkpt lat="35.0207179" lon="32.4001773"><ele>90.5</ele><time>2015-04-25T09:37:00.0000000+00:00</time></trkpt><trkpt lat="35.0206767" lon="32.4001427"><ele>90.7</ele><time>2015-04-25T09:37:01.0000000+00:00</time></trkpt><trkpt lat="35.0206427" lon="32.4001051"><ele>90.3</ele><time>2015-04-25T09:37:02.0000000+00:00</time></trkpt><trkpt lat="35.0205892" lon="32.4000765"><ele>90.1</ele><time>2015-04-25T09:37:03.0000000+00:00</time></trkpt><trkpt lat="35.0205329" lon="32.4000406"><ele>90.0</ele><time>2015-04-25T09:37:04.0000000+00:00</time></trkpt><trkpt lat="35.0204798" lon="32.4000105"><ele>90.0</ele><time>2015-04-25T09:37:05.0000000+00:00</time></trkpt><trkpt lat="35.0204186" lon="32.3999793"><ele>89.5</ele><time>2015-04-25T09:37:06.0000000+00:00</time></trkpt><trkpt lat="35.020361" lon="32.3999454"><ele>89.2</ele><time>2015-04-25T09:37:07.0000000+00:00</time></trkpt><trkpt lat="35.0202921" lon="32.3999029"><ele>89.1</ele><time>2015-04-25T09:37:08.0000000+00:00</time></trkpt><trkpt lat="35.0202187" lon="32.3998778"><ele>89.0</ele><time>2015-04-25T09:37:09.0000000+00:00</time></trkpt><trkpt lat="35.0201472" lon="32.3998586"><ele>88.5</ele><time>2015-04-25T09:37:10.0000000+00:00</time></trkpt><trkpt lat="35.020061" lon="32.3998446"><ele>88.2</ele><time>2015-04-25T09:37:11.0000000+00:00</time></trkpt><trkpt lat="35.0199682" lon="32.3998464"><ele>88.1</ele><time>2015-04-25T09:37:12.0000000+00:00</time></trkpt><trkpt lat="35.0198723" lon="32.3998536"><ele>87.5</ele><time>2015-04-25T09:37:13.0000000+00:00</time></trkpt><trkpt lat="35.0197714" lon="32.3998545"><ele>87.2</ele><time>2015-04-25T09:37:14.0000000+00:00</time></trkpt><trkpt lat="35.0196791" lon="32.3998518"><ele>86.1</ele><time>2015-04-25T09:37:15.0000000+00:00</time></trkpt><trkpt lat="35.0195658" lon="32.3998364"><ele>84.5</ele><time>2015-04-25T09:37:16.0000000+00:00</time></trkpt><trkpt lat="35.0194634" lon="32.3997994"><ele>83.7</ele><time>2015-04-25T09:37:17.0000000+00:00</time></trkpt><trkpt lat="35.0193611" lon="32.3997451"><ele>82.8</ele><time>2015-04-25T09:37:18.0000000+00:00</time></trkpt><trkpt lat="35.0192742" lon="32.399674"><ele>82.4</ele><time>2015-04-25T09:37:19.0000000+00:00</time></trkpt><trkpt lat="35.0191973" lon="32.3996028"><ele>81.7</ele><time>2015-04-25T09:37:20.0000000+00:00</time></trkpt><trkpt lat="35.0191206" lon="32.399527"><ele>81.3</ele><time>2015-04-25T09:37:21.0000000+00:00</time></trkpt><trkpt lat="35.0190453" lon="32.3994501"><ele>80.6</ele><time>2015-04-25T09:37:22.0000000+00:00</time></trkpt><trkpt lat="35.0189704" lon="32.3993748"><ele>80.3</ele><time>2015-04-25T09:37:23.0000000+00:00</time></trkpt><trkpt lat="35.0188993" lon="32.3993004"><ele>80.1</ele><time>2015-04-25T09:37:24.0000000+00:00</time></trkpt><trkpt lat="35.0188328" lon="32.3992219"><ele>79.5</ele><time>2015-04-25T09:37:25.0000000+00:00</time></trkpt><trkpt lat="35.0187858" lon="32.3991372"><ele>79.2</ele><time>2015-04-25T09:37:26.0000000+00:00</time></trkpt><trkpt lat="35.018747" lon="32.3990383"><ele>79.1</ele><time>2015-04-25T09:37:27.0000000+00:00</time></trkpt><trkpt lat="35.018732" lon="32.3989314"><ele>78.5</ele><time>2015-04-25T09:37:28.0000000+00:00</time></trkpt><trkpt lat="35.0187357" lon="32.398821"><ele>77.7</ele><time>2015-04-25T09:37:29.0000000+00:00</time></trkpt><trkpt lat="35.0187309" lon="32.3987402"><ele>77.8</ele><time>2015-04-25T09:37:30.0000000+00:00</time></trkpt><trkpt lat="35.0187314" lon="32.3986613"><ele>77.4</ele><time>2015-04-25T09:37:31.0000000+00:00</time></trkpt><trkpt lat="35.0187384" lon="32.3985578"><ele>77.2</ele><time>2015-04-25T09:37:32.0000000+00:00</time></trkpt><trkpt lat="35.0187484" lon="32.3984757"><ele>77.5</ele><time>2015-04-25T09:37:33.0000000+00:00</time></trkpt><trkpt lat="35.0187704" lon="32.3984154"><ele>77.7</ele><time>2015-04-25T09:37:34.0000000+00:00</time></trkpt><trkpt lat="35.0188018" lon="32.3983629"><ele>78.3</ele><time>2015-04-25T09:37:35.0000000+00:00</time></trkpt><trkpt lat="35.0188748" lon="32.3983084"><ele>80.8</ele><time>2015-04-25T09:37:37.0000000+00:00</time></trkpt><trkpt lat="35.0189205" lon="32.3982736"><ele>83.6</ele><time>2015-04-25T09:37:39.0000000+00:00</time></trkpt><trkpt lat="35.0189646" lon="32.3982541"><ele>84.9</ele><time>2015-04-25T09:37:41.0000000+00:00</time></trkpt><trkpt lat="35.0190164" lon="32.3982477"><ele>85.7</ele><time>2015-04-25T09:37:44.0000000+00:00</time></trkpt><trkpt lat="35.019069" lon="32.3982321"><ele>86.4</ele><time>2015-04-25T09:37:47.0000000+00:00</time></trkpt><trkpt lat="35.0191345" lon="32.3982269"><ele>87.6</ele><time>2015-04-25T09:37:50.0000000+00:00</time></trkpt><trkpt lat="35.0191989" lon="32.3982134"><ele>87.5</ele><time>2015-04-25T09:37:53.0000000+00:00</time></trkpt><trkpt lat="35.0192653" lon="32.3981903"><ele>89.6</ele><time>2015-04-25T09:37:56.0000000+00:00</time></trkpt><trkpt lat="35.0193081" lon="32.3981655"><ele>89.9</ele><time>2015-04-25T09:37:58.0000000+00:00</time></trkpt><trkpt lat="35.0193496" lon="32.3981356"><ele>91.2</ele><time>2015-04-25T09:38:00.0000000+00:00</time></trkpt><trkpt lat="35.0193916" lon="32.3981083"><ele>91.2</ele><time>2015-04-25T09:38:02.0000000+00:00</time></trkpt><trkpt lat="35.0194346" lon="32.3980752"><ele>91.8</ele><time>2015-04-25T09:38:04.0000000+00:00</time></trkpt><trkpt lat="35.0194779" lon="32.3980409"><ele>91.9</ele><time>2015-04-25T09:38:06.0000000+00:00</time></trkpt><trkpt lat="35.0195219" lon="32.3980065"><ele>91.9</ele><time>2015-04-25T09:38:08.0000000+00:00</time></trkpt><trkpt lat="35.0195685" lon="32.3979724"><ele>91.9</ele><time>2015-04-25T09:38:10.0000000+00:00</time></trkpt><trkpt lat="35.0196108" lon="32.3979354"><ele>91.9</ele><time>2015-04-25T09:38:12.0000000+00:00</time></trkpt><trkpt lat="35.0196505" lon="32.3978999"><ele>91.2</ele><time>2015-04-25T09:38:14.0000000+00:00</time></trkpt><trkpt lat="35.0196887" lon="32.3978624"><ele>91.7</ele><time>2015-04-25T09:38:16.0000000+00:00</time></trkpt><trkpt lat="35.0197257" lon="32.3978301"><ele>91.9</ele><time>2015-04-25T09:38:18.0000000+00:00</time></trkpt><trkpt lat="35.0197857" lon="32.3977941"><ele>92.7</ele><time>2015-04-25T09:38:21.0000000+00:00</time></trkpt><trkpt lat="35.0198492" lon="32.3977764"><ele>93.0</ele><time>2015-04-25T09:38:24.0000000+00:00</time></trkpt><trkpt lat="35.0199004" lon="32.3977503"><ele>92.6</ele><time>2015-04-25T09:38:27.0000000+00:00</time></trkpt><trkpt lat="35.0199582" lon="32.3977427"><ele>92.0</ele><time>2015-04-25T09:38:30.0000000+00:00</time></trkpt><trkpt lat="35.0200218" lon="32.3977423"><ele>92.4</ele><time>2015-04-25T09:38:33.0000000+00:00</time></trkpt><trkpt lat="35.0200814" lon="32.3977565"><ele>94.2</ele><time>2015-04-25T09:38:36.0000000+00:00</time></trkpt><trkpt lat="35.0201419" lon="32.3977743"><ele>95.5</ele><time>2015-04-25T09:38:39.0000000+00:00</time></trkpt><trkpt lat="35.0202004" lon="32.3977956"><ele>94.5</ele><time>2015-04-25T09:38:42.0000000+00:00</time></trkpt><trkpt lat="35.0202629" lon="32.3978183"><ele>94.0</ele><time>2015-04-25T09:38:45.0000000+00:00</time></trkpt><trkpt lat="35.020327" lon="32.3978415"><ele>95.3</ele><time>2015-04-25T09:38:48.0000000+00:00</time></trkpt><trkpt lat="35.020387" lon="32.3978463"><ele>94.6</ele><time>2015-04-25T09:38:51.0000000+00:00</time></trkpt><trkpt lat="35.0204411" lon="32.3978227"><ele>94.8</ele><time>2015-04-25T09:38:54.0000000+00:00</time></trkpt><trkpt lat="35.0204952" lon="32.3977905"><ele>95.5</ele><time>2015-04-25T09:38:57.0000000+00:00</time></trkpt><trkpt lat="35.0205445" lon="32.397748"><ele>95.0</ele><time>2015-04-25T09:39:00.0000000+00:00</time></trkpt><trkpt lat="35.0205844" lon="32.3976879"><ele>95.1</ele><time>2015-04-25T09:39:03.0000000+00:00</time></trkpt><trkpt lat="35.0206159" lon="32.3976179"><ele>94.4</ele><time>2015-04-25T09:39:06.0000000+00:00</time></trkpt><trkpt lat="35.0206285" lon="32.3975649"><ele>94.6</ele><time>2015-04-25T09:39:08.0000000+00:00</time></trkpt><trkpt lat="35.0206328" lon="32.3974869"><ele>96.3</ele><time>2015-04-25T09:39:11.0000000+00:00</time></trkpt><trkpt lat="35.0206212" lon="32.3974109"><ele>96.8</ele><time>2015-04-25T09:39:14.0000000+00:00</time></trkpt><trkpt lat="35.0205984" lon="32.3973383"><ele>96.9</ele><time>2015-04-25T09:39:17.0000000+00:00</time></trkpt><trkpt lat="35.0205549" lon="32.3972839"><ele>98.3</ele><time>2015-04-25T09:39:20.0000000+00:00</time></trkpt><trkpt lat="35.020499" lon="32.3972519"><ele>99.7</ele><time>2015-04-25T09:39:23.0000000+00:00</time></trkpt><trkpt lat="35.0204431" lon="32.3972263"><ele>100.2</ele><time>2015-04-25T09:39:26.0000000+00:00</time></trkpt><trkpt lat="35.0203919" lon="32.3971993"><ele>100.0</ele><time>2015-04-25T09:39:29.0000000+00:00</time></trkpt><trkpt lat="35.0203552" lon="32.3971612"><ele>99.9</ele><time>2015-04-25T09:39:32.0000000+00:00</time></trkpt><trkpt lat="35.0203103" lon="32.3971453"><ele>99.9</ele><time>2015-04-25T09:39:35.0000000+00:00</time></trkpt><trkpt lat="35.0202606" lon="32.3971279"><ele>100.4</ele><time>2015-04-25T09:39:38.0000000+00:00</time></trkpt><trkpt lat="35.0202093" lon="32.3971049"><ele>100.6</ele><time>2015-04-25T09:39:41.0000000+00:00</time></trkpt><trkpt lat="35.020155" lon="32.3970793"><ele>101.6</ele><time>2015-04-25T09:39:44.0000000+00:00</time></trkpt><trkpt lat="35.020101" lon="32.3970565"><ele>102.1</ele><time>2015-04-25T09:39:47.0000000+00:00</time></trkpt><trkpt lat="35.0200407" lon="32.3970501"><ele>102.0</ele><time>2015-04-25T09:39:50.0000000+00:00</time></trkpt><trkpt lat="35.0199816" lon="32.3970454"><ele>103.3</ele><time>2015-04-25T09:39:53.0000000+00:00</time></trkpt><trkpt lat="35.0199333" lon="32.3970433"><ele>103.2</ele><time>2015-04-25T09:39:56.0000000+00:00</time></trkpt><trkpt lat="35.0198824" lon="32.3970502"><ele>104.0</ele><time>2015-04-25T09:39:59.0000000+00:00</time></trkpt><trkpt lat="35.0198332" lon="32.3970598"><ele>105.6</ele><time>2015-04-25T09:40:02.0000000+00:00</time></trkpt><trkpt lat="35.0197874" lon="32.397071"><ele>105.8</ele><time>2015-04-25T09:40:05.0000000+00:00</time></trkpt><trkpt lat="35.0197398" lon="32.3970736"><ele>108.0</ele><time>2015-04-25T09:40:08.0000000+00:00</time></trkpt><trkpt lat="35.0196926" lon="32.3970687"><ele>108.8</ele><time>2015-04-25T09:40:11.0000000+00:00</time></trkpt><trkpt lat="35.0196347" lon="32.3970661"><ele>110.5</ele><time>2015-04-25T09:40:14.0000000+00:00</time></trkpt><trkpt lat="35.0195765" lon="32.397056"><ele>110.0</ele><time>2015-04-25T09:40:17.0000000+00:00</time></trkpt><trkpt lat="35.0195135" lon="32.3970393"><ele>110.2</ele><time>2015-04-25T09:40:20.0000000+00:00</time></trkpt><trkpt lat="35.0194684" lon="32.3970304"><ele>110.0</ele><time>2015-04-25T09:40:22.0000000+00:00</time></trkpt><trkpt lat="35.0194233" lon="32.3970182"><ele>109.9</ele><time>2015-04-25T09:40:24.0000000+00:00</time></trkpt><trkpt lat="35.0193595" lon="32.3970064"><ele>109.2</ele><time>2015-04-25T09:40:27.0000000+00:00</time></trkpt><trkpt lat="35.0192996" lon="32.3969935"><ele>109.0</ele><time>2015-04-25T09:40:30.0000000+00:00</time></trkpt><trkpt lat="35.0192509" lon="32.3969853"><ele>108.9</ele><time>2015-04-25T09:40:33.0000000+00:00</time></trkpt><trkpt lat="35.0192006" lon="32.3969878"><ele>110.9</ele><time>2015-04-25T09:40:36.0000000+00:00</time></trkpt><trkpt lat="35.0191536" lon="32.396988"><ele>112.3</ele><time>2015-04-25T09:40:39.0000000+00:00</time></trkpt><trkpt lat="35.0191064" lon="32.3969806"><ele>113.6</ele><time>2015-04-25T09:40:42.0000000+00:00</time></trkpt><trkpt lat="35.0190507" lon="32.3969806"><ele>113.9</ele><time>2015-04-25T09:40:46.0000000+00:00</time></trkpt><trkpt lat="35.0189916" lon="32.396985"><ele>113.9</ele><time>2015-04-25T09:40:50.0000000+00:00</time></trkpt><trkpt lat="35.0189377" lon="32.3969813"><ele>113.5</ele><time>2015-04-25T09:40:53.0000000+00:00</time></trkpt><trkpt lat="35.0188873" lon="32.3969726"><ele>113.9</ele><time>2015-04-25T09:40:56.0000000+00:00</time></trkpt><trkpt lat="35.0188407" lon="32.3969614"><ele>115.5</ele><time>2015-04-25T09:40:59.0000000+00:00</time></trkpt><trkpt lat="35.0187959" lon="32.3969544"><ele>115.4</ele><time>2015-04-25T09:41:02.0000000+00:00</time></trkpt><trkpt lat="35.0187439" lon="32.3969466"><ele>115.7</ele><time>2015-04-25T09:41:05.0000000+00:00</time></trkpt><trkpt lat="35.0186939" lon="32.396923"><ele>115.9</ele><time>2015-04-25T09:41:08.0000000+00:00</time></trkpt><trkpt lat="35.0186514" lon="32.3968992"><ele>115.4</ele><time>2015-04-25T09:41:11.0000000+00:00</time></trkpt><trkpt lat="35.0185968" lon="32.3968869"><ele>115.1</ele><time>2015-04-25T09:41:15.0000000+00:00</time></trkpt><trkpt lat="35.0185397" lon="32.3968653"><ele>114.9</ele><time>2015-04-25T09:41:19.0000000+00:00</time></trkpt><trkpt lat="35.0184917" lon="32.3968591"><ele>115.4</ele><time>2015-04-25T09:41:22.0000000+00:00</time></trkpt><trkpt lat="35.0184474" lon="32.3968436"><ele>116.6</ele><time>2015-04-25T09:41:25.0000000+00:00</time></trkpt><trkpt lat="35.0184017" lon="32.3968259"><ele>116.9</ele><time>2015-04-25T09:41:28.0000000+00:00</time></trkpt><trkpt lat="35.0183554" lon="32.3968152"><ele>117.4</ele><time>2015-04-25T09:41:31.0000000+00:00</time></trkpt><trkpt lat="35.0182981" lon="32.3968019"><ele>118.4</ele><time>2015-04-25T09:41:35.0000000+00:00</time></trkpt><trkpt lat="35.0182419" lon="32.3967938"><ele>118.5</ele><time>2015-04-25T09:41:39.0000000+00:00</time></trkpt><trkpt lat="35.0181974" lon="32.396779"><ele>121.4</ele><time>2015-04-25T09:41:42.0000000+00:00</time></trkpt><trkpt lat="35.0181395" lon="32.3967732"><ele>120.2</ele><time>2015-04-25T09:41:46.0000000+00:00</time></trkpt><trkpt lat="35.0180857" lon="32.3967482"><ele>121.3</ele><time>2015-04-25T09:41:50.0000000+00:00</time></trkpt><trkpt lat="35.0180342" lon="32.3967219"><ele>124.2</ele><time>2015-04-25T09:41:54.0000000+00:00</time></trkpt><trkpt lat="35.0179813" lon="32.3967164"><ele>124.3</ele><time>2015-04-25T09:41:58.0000000+00:00</time></trkpt><trkpt lat="35.017932" lon="32.3967063"><ele>125.3</ele><time>2015-04-25T09:42:02.0000000+00:00</time></trkpt><trkpt lat="35.0178834" lon="32.3966807"><ele>126.8</ele><time>2015-04-25T09:42:06.0000000+00:00</time></trkpt><trkpt lat="35.0178384" lon="32.3966682"><ele>128.3</ele><time>2015-04-25T09:42:09.0000000+00:00</time></trkpt><trkpt lat="35.0177863" lon="32.3966514"><ele>128.1</ele><time>2015-04-25T09:42:13.0000000+00:00</time></trkpt><trkpt lat="35.0177384" lon="32.396669"><ele>129.4</ele><time>2015-04-25T09:42:17.0000000+00:00</time></trkpt><trkpt lat="35.0176991" lon="32.3967189"><ele>130.4</ele><time>2015-04-25T09:42:21.0000000+00:00</time></trkpt><trkpt lat="35.0176438" lon="32.3967272"><ele>132.1</ele><time>2015-04-25T09:42:25.0000000+00:00</time></trkpt><trkpt lat="35.0176144" lon="32.3967688"><ele>132.6</ele><time>2015-04-25T09:42:28.0000000+00:00</time></trkpt><trkpt lat="35.017569" lon="32.3967805"><ele>132.8</ele><time>2015-04-25T09:42:31.0000000+00:00</time></trkpt><trkpt lat="35.0175246" lon="32.3967912"><ele>133.4</ele><time>2015-04-25T09:42:34.0000000+00:00</time></trkpt><trkpt lat="35.0174691" lon="32.3968062"><ele>136.1</ele><time>2015-04-25T09:42:38.0000000+00:00</time></trkpt><trkpt lat="35.0174164" lon="32.3967953"><ele>137.1</ele><time>2015-04-25T09:42:42.0000000+00:00</time></trkpt><trkpt lat="35.0173676" lon="32.3967905"><ele>135.3</ele><time>2015-04-25T09:42:46.0000000+00:00</time></trkpt><trkpt lat="35.017318" lon="32.3967883"><ele>134.6</ele><time>2015-04-25T09:42:50.0000000+00:00</time></trkpt><trkpt lat="35.0172666" lon="32.3967986"><ele>135.4</ele><time>2015-04-25T09:42:54.0000000+00:00</time></trkpt><trkpt lat="35.0172076" lon="32.3968016"><ele>137.1</ele><time>2015-04-25T09:42:58.0000000+00:00</time></trkpt><trkpt lat="35.0171619" lon="32.396812"><ele>137.8</ele><time>2015-04-25T09:43:01.0000000+00:00</time></trkpt><trkpt lat="35.0171155" lon="32.3968158"><ele>137.9</ele><time>2015-04-25T09:43:04.0000000+00:00</time></trkpt><trkpt lat="35.0170686" lon="32.3968192"><ele>138.7</ele><time>2015-04-25T09:43:07.0000000+00:00</time></trkpt><trkpt lat="35.017018" lon="32.3968142"><ele>139.6</ele><time>2015-04-25T09:43:10.0000000+00:00</time></trkpt><trkpt lat="35.0169605" lon="32.3968082"><ele>139.0</ele><time>2015-04-25T09:43:13.0000000+00:00</time></trkpt><trkpt lat="35.0169038" lon="32.396793"><ele>140.8</ele><time>2015-04-25T09:43:16.0000000+00:00</time></trkpt><trkpt lat="35.0168483" lon="32.3967799"><ele>142.3</ele><time>2015-04-25T09:43:19.0000000+00:00</time></trkpt><trkpt lat="35.0167921" lon="32.396775"><ele>142.0</ele><time>2015-04-25T09:43:22.0000000+00:00</time></trkpt><trkpt lat="35.0167319" lon="32.3967627"><ele>141.9</ele><time>2015-04-25T09:43:25.0000000+00:00</time></trkpt><trkpt lat="35.0166728" lon="32.3967422"><ele>142.3</ele><time>2015-04-25T09:43:28.0000000+00:00</time></trkpt><trkpt lat="35.016621" lon="32.3967218"><ele>142.0</ele><time>2015-04-25T09:43:31.0000000+00:00</time></trkpt><trkpt lat="35.0165697" lon="32.3966927"><ele>141.9</ele><time>2015-04-25T09:43:34.0000000+00:00</time></trkpt><trkpt lat="35.0165202" lon="32.3966582"><ele>142.7</ele><time>2015-04-25T09:43:37.0000000+00:00</time></trkpt><trkpt lat="35.0164724" lon="32.3966285"><ele>144.4</ele><time>2015-04-25T09:43:40.0000000+00:00</time></trkpt><trkpt lat="35.0164236" lon="32.3966045"><ele>144.9</ele><time>2015-04-25T09:43:43.0000000+00:00</time></trkpt><trkpt lat="35.0163733" lon="32.3965716"><ele>147.5</ele><time>2015-04-25T09:43:46.0000000+00:00</time></trkpt><trkpt lat="35.0163192" lon="32.3965484"><ele>148.0</ele><time>2015-04-25T09:43:49.0000000+00:00</time></trkpt><trkpt lat="35.016271" lon="32.3965258"><ele>148.1</ele><time>2015-04-25T09:43:52.0000000+00:00</time></trkpt><trkpt lat="35.0162302" lon="32.3964985"><ele>147.9</ele><time>2015-04-25T09:43:55.0000000+00:00</time></trkpt><trkpt lat="35.0161886" lon="32.3964632"><ele>147.4</ele><time>2015-04-25T09:43:58.0000000+00:00</time></trkpt><trkpt lat="35.0161465" lon="32.396434"><ele>147.9</ele><time>2015-04-25T09:44:01.0000000+00:00</time></trkpt><trkpt lat="35.0161054" lon="32.3964049"><ele>148.8</ele><time>2015-04-25T09:44:04.0000000+00:00</time></trkpt><trkpt lat="35.0160652" lon="32.3963726"><ele>148.7</ele><time>2015-04-25T09:44:07.0000000+00:00</time></trkpt><trkpt lat="35.016023" lon="32.3963355"><ele>149.1</ele><time>2015-04-25T09:44:10.0000000+00:00</time></trkpt><trkpt lat="35.015974" lon="32.3963084"><ele>148.0</ele><time>2015-04-25T09:44:13.0000000+00:00</time></trkpt><trkpt lat="35.0159283" lon="32.3962765"><ele>148.4</ele><time>2015-04-25T09:44:16.0000000+00:00</time></trkpt><trkpt lat="35.0158878" lon="32.3962398"><ele>148.9</ele><time>2015-04-25T09:44:19.0000000+00:00</time></trkpt><trkpt lat="35.0158458" lon="32.396205"><ele>148.9</ele><time>2015-04-25T09:44:22.0000000+00:00</time></trkpt><trkpt lat="35.0158031" lon="32.3961732"><ele>148.9</ele><time>2015-04-25T09:44:25.0000000+00:00</time></trkpt><trkpt lat="35.0157571" lon="32.3961446"><ele>149.7</ele><time>2015-04-25T09:44:28.0000000+00:00</time></trkpt><trkpt lat="35.0157103" lon="32.3961144"><ele>150.4</ele><time>2015-04-25T09:44:31.0000000+00:00</time></trkpt><trkpt lat="35.0156552" lon="32.3960907"><ele>151.4</ele><time>2015-04-25T09:44:34.0000000+00:00</time></trkpt><trkpt lat="35.0156014" lon="32.3960696"><ele>151.9</ele><time>2015-04-25T09:44:37.0000000+00:00</time></trkpt><trkpt lat="35.0155526" lon="32.3960441"><ele>152.4</ele><time>2015-04-25T09:44:40.0000000+00:00</time></trkpt><trkpt lat="35.0155065" lon="32.3960204"><ele>152.9</ele><time>2015-04-25T09:44:43.0000000+00:00</time></trkpt><trkpt lat="35.0154629" lon="32.3959874"><ele>153.4</ele><time>2015-04-25T09:44:46.0000000+00:00</time></trkpt><trkpt lat="35.0154168" lon="32.3959552"><ele>154.6</ele><time>2015-04-25T09:44:49.0000000+00:00</time></trkpt><trkpt lat="35.0153729" lon="32.3959259"><ele>154.9</ele><time>2015-04-25T09:44:52.0000000+00:00</time></trkpt><trkpt lat="35.01533" lon="32.395898"><ele>155.9</ele><time>2015-04-25T09:44:58.0000000+00:00</time></trkpt><trkpt lat="35.0152851" lon="32.3958763"><ele>155.9</ele><time>2015-04-25T09:45:01.0000000+00:00</time></trkpt><trkpt lat="35.0152417" lon="32.3958412"><ele>156.6</ele><time>2015-04-25T09:45:04.0000000+00:00</time></trkpt><trkpt lat="35.015202" lon="32.3958103"><ele>157.6</ele><time>2015-04-25T09:45:07.0000000+00:00</time></trkpt><trkpt lat="35.015158" lon="32.3957814"><ele>157.9</ele><time>2015-04-25T09:45:10.0000000+00:00</time></trkpt><trkpt lat="35.0151122" lon="32.3957524"><ele>157.9</ele><time>2015-04-25T09:45:13.0000000+00:00</time></trkpt><trkpt lat="35.0150659" lon="32.3957219"><ele>158.8</ele><time>2015-04-25T09:45:16.0000000+00:00</time></trkpt><trkpt lat="35.0150176" lon="32.3956922"><ele>159.7</ele><time>2015-04-25T09:45:19.0000000+00:00</time></trkpt><trkpt lat="35.0149719" lon="32.3956557"><ele>159.3</ele><time>2015-04-25T09:45:22.0000000+00:00</time></trkpt><trkpt lat="35.0149242" lon="32.3956241"><ele>159.0</ele><time>2015-04-25T09:45:25.0000000+00:00</time></trkpt><trkpt lat="35.0148766" lon="32.395591"><ele>159.8</ele><time>2015-04-25T09:45:28.0000000+00:00</time></trkpt><trkpt lat="35.0148365" lon="32.3955626"><ele>160.4</ele><time>2015-04-25T09:45:31.0000000+00:00</time></trkpt><trkpt lat="35.0147902" lon="32.3955458"><ele>161.6</ele><time>2015-04-25T09:45:34.0000000+00:00</time></trkpt><trkpt lat="35.0147378" lon="32.395528"><ele>162.4</ele><time>2015-04-25T09:45:37.0000000+00:00</time></trkpt><trkpt lat="35.0146912" lon="32.3955062"><ele>163.1</ele><time>2015-04-25T09:45:40.0000000+00:00</time></trkpt><trkpt lat="35.0146477" lon="32.3954834"><ele>163.0</ele><time>2015-04-25T09:45:43.0000000+00:00</time></trkpt><trkpt lat="35.0146016" lon="32.3954606"><ele>163.8</ele><time>2015-04-25T09:45:46.0000000+00:00</time></trkpt><trkpt lat="35.0145556" lon="32.3954426"><ele>163.9</ele><time>2015-04-25T09:45:49.0000000+00:00</time></trkpt><trkpt lat="35.0145102" lon="32.3954186"><ele>163.9</ele><time>2015-04-25T09:45:52.0000000+00:00</time></trkpt><trkpt lat="35.0144652" lon="32.3953966"><ele>164.7</ele><time>2015-04-25T09:45:55.0000000+00:00</time></trkpt><trkpt lat="35.0144199" lon="32.3953773"><ele>164.9</ele><time>2015-04-25T09:45:58.0000000+00:00</time></trkpt><trkpt lat="35.0143769" lon="32.3953544"><ele>165.6</ele><time>2015-04-25T09:46:01.0000000+00:00</time></trkpt><trkpt lat="35.0143317" lon="32.3953294"><ele>166.4</ele><time>2015-04-25T09:46:04.0000000+00:00</time></trkpt><trkpt lat="35.0142853" lon="32.3953084"><ele>168.2</ele><time>2015-04-25T09:46:07.0000000+00:00</time></trkpt><trkpt lat="35.0142467" lon="32.3952747"><ele>168.3</ele><time>2015-04-25T09:46:10.0000000+00:00</time></trkpt><trkpt lat="35.014211" lon="32.39524"><ele>168.5</ele><time>2015-04-25T09:46:13.0000000+00:00</time></trkpt><trkpt lat="35.0141715" lon="32.3952099"><ele>169.4</ele><time>2015-04-25T09:46:16.0000000+00:00</time></trkpt><trkpt lat="35.0141272" lon="32.3951828"><ele>169.6</ele><time>2015-04-25T09:46:19.0000000+00:00</time></trkpt><trkpt lat="35.0140792" lon="32.3951444"><ele>171.2</ele><time>2015-04-25T09:46:23.0000000+00:00</time></trkpt><trkpt lat="35.0140313" lon="32.395107"><ele>171.9</ele><time>2015-04-25T09:46:27.0000000+00:00</time></trkpt><trkpt lat="35.014002" lon="32.395064"><ele>171.2</ele><time>2015-04-25T09:46:30.0000000+00:00</time></trkpt><trkpt lat="35.0139732" lon="32.3950208"><ele>171.0</ele><time>2015-04-25T09:46:33.0000000+00:00</time></trkpt><trkpt lat="35.0139462" lon="32.3949604"><ele>170.0</ele><time>2015-04-25T09:46:37.0000000+00:00</time></trkpt><trkpt lat="35.0139146" lon="32.3949028"><ele>170.2</ele><time>2015-04-25T09:46:41.0000000+00:00</time></trkpt><trkpt lat="35.0138875" lon="32.3948577"><ele>170.1</ele><time>2015-04-25T09:46:44.0000000+00:00</time></trkpt><trkpt lat="35.0138625" lon="32.3948084"><ele>171.1</ele><time>2015-04-25T09:46:47.0000000+00:00</time></trkpt><trkpt lat="35.0138296" lon="32.3947606"><ele>173.2</ele><time>2015-04-25T09:46:50.0000000+00:00</time></trkpt><trkpt lat="35.0137991" lon="32.3947121"><ele>174.3</ele><time>2015-04-25T09:46:53.0000000+00:00</time></trkpt><trkpt lat="35.0137681" lon="32.3946712"><ele>174.9</ele><time>2015-04-25T09:46:56.0000000+00:00</time></trkpt><trkpt lat="35.013727" lon="32.3946219"><ele>175.9</ele><time>2015-04-25T09:47:00.0000000+00:00</time></trkpt><trkpt lat="35.0136862" lon="32.3945683"><ele>177.2</ele><time>2015-04-25T09:47:04.0000000+00:00</time></trkpt><trkpt lat="35.0136548" lon="32.3945287"><ele>177.7</ele><time>2015-04-25T09:47:07.0000000+00:00</time></trkpt><trkpt lat="35.0136251" lon="32.3944839"><ele>179.2</ele><time>2015-04-25T09:47:10.0000000+00:00</time></trkpt><trkpt lat="35.0135884" lon="32.394431"><ele>179.9</ele><time>2015-04-25T09:47:14.0000000+00:00</time></trkpt><trkpt lat="35.0135511" lon="32.3943795"><ele>179.3</ele><time>2015-04-25T09:47:18.0000000+00:00</time></trkpt><trkpt lat="35.0135211" lon="32.3943367"><ele>179.0</ele><time>2015-04-25T09:47:21.0000000+00:00</time></trkpt><trkpt lat="35.0134913" lon="32.3942728"><ele>179.7</ele><time>2015-04-25T09:47:25.0000000+00:00</time></trkpt><trkpt lat="35.0134667" lon="32.3942255"><ele>181.1</ele><time>2015-04-25T09:47:28.0000000+00:00</time></trkpt><trkpt lat="35.0134288" lon="32.3941748"><ele>181.0</ele><time>2015-04-25T09:47:32.0000000+00:00</time></trkpt><trkpt lat="35.013395" lon="32.3941221"><ele>180.8</ele><time>2015-04-25T09:47:36.0000000+00:00</time></trkpt><trkpt lat="35.0133666" lon="32.3940723"><ele>180.9</ele><time>2015-04-25T09:47:40.0000000+00:00</time></trkpt><trkpt lat="35.0133386" lon="32.3940233"><ele>180.4</ele><time>2015-04-25T09:47:44.0000000+00:00</time></trkpt><trkpt lat="35.0133081" lon="32.3939678"><ele>181.2</ele><time>2015-04-25T09:47:48.0000000+00:00</time></trkpt><trkpt lat="35.0132762" lon="32.3939163"><ele>183.5</ele><time>2015-04-25T09:47:52.0000000+00:00</time></trkpt><trkpt lat="35.0132352" lon="32.3938676"><ele>182.7</ele><time>2015-04-25T09:47:56.0000000+00:00</time></trkpt><trkpt lat="35.0131987" lon="32.3938159"><ele>183.2</ele><time>2015-04-25T09:48:00.0000000+00:00</time></trkpt><trkpt lat="35.0131699" lon="32.3937729"><ele>184.8</ele><time>2015-04-25T09:48:03.0000000+00:00</time></trkpt><trkpt lat="35.0131412" lon="32.3937259"><ele>185.4</ele><time>2015-04-25T09:48:06.0000000+00:00</time></trkpt><trkpt lat="35.0131053" lon="32.3936737"><ele>188.4</ele><time>2015-04-25T09:48:10.0000000+00:00</time></trkpt><trkpt lat="35.0130675" lon="32.3936417"><ele>188.9</ele><time>2015-04-25T09:48:13.0000000+00:00</time></trkpt><trkpt lat="35.0130273" lon="32.3936046"><ele>188.2</ele><time>2015-04-25T09:48:16.0000000+00:00</time></trkpt><trkpt lat="35.012982" lon="32.3935626"><ele>188.1</ele><time>2015-04-25T09:48:20.0000000+00:00</time></trkpt><trkpt lat="35.0129399" lon="32.3935178"><ele>188.3</ele><time>2015-04-25T09:48:24.0000000+00:00</time></trkpt><trkpt lat="35.0128932" lon="32.3934705"><ele>188.9</ele><time>2015-04-25T09:48:28.0000000+00:00</time></trkpt><trkpt lat="35.012853" lon="32.3934312"><ele>189.7</ele><time>2015-04-25T09:48:31.0000000+00:00</time></trkpt><trkpt lat="35.012811" lon="32.3933884"><ele>190.8</ele><time>2015-04-25T09:48:34.0000000+00:00</time></trkpt><trkpt lat="35.0127746" lon="32.3933352"><ele>190.8</ele><time>2015-04-25T09:48:37.0000000+00:00</time></trkpt><trkpt lat="35.012738" lon="32.393281"><ele>191.0</ele><time>2015-04-25T09:48:40.0000000+00:00</time></trkpt><trkpt lat="35.0126953" lon="32.3932349"><ele>192.6</ele><time>2015-04-25T09:48:43.0000000+00:00</time></trkpt><trkpt lat="35.0126544" lon="32.3931933"><ele>193.3</ele><time>2015-04-25T09:48:46.0000000+00:00</time></trkpt><trkpt lat="35.0126132" lon="32.3931541"><ele>193.8</ele><time>2015-04-25T09:48:49.0000000+00:00</time></trkpt><trkpt lat="35.0125802" lon="32.3931043"><ele>194.0</ele><time>2015-04-25T09:48:52.0000000+00:00</time></trkpt><trkpt lat="35.0125398" lon="32.3930594"><ele>194.7</ele><time>2015-04-25T09:48:55.0000000+00:00</time></trkpt><trkpt lat="35.0124967" lon="32.3930177"><ele>195.4</ele><time>2015-04-25T09:48:58.0000000+00:00</time></trkpt><trkpt lat="35.0124539" lon="32.3929798"><ele>195.9</ele><time>2015-04-25T09:49:01.0000000+00:00</time></trkpt><trkpt lat="35.0124115" lon="32.3929497"><ele>195.5</ele><time>2015-04-25T09:49:04.0000000+00:00</time></trkpt><trkpt lat="35.0123664" lon="32.3929211"><ele>196.4</ele><time>2015-04-25T09:49:07.0000000+00:00</time></trkpt><trkpt lat="35.0123232" lon="32.3928928"><ele>196.4</ele><time>2015-04-25T09:49:10.0000000+00:00</time></trkpt><trkpt lat="35.0122814" lon="32.3928668"><ele>197.1</ele><time>2015-04-25T09:49:13.0000000+00:00</time></trkpt><trkpt lat="35.0122329" lon="32.3928527"><ele>196.4</ele><time>2015-04-25T09:49:17.0000000+00:00</time></trkpt><trkpt lat="35.012184" lon="32.392814"><ele>195.3</ele><time>2015-04-25T09:49:21.0000000+00:00</time></trkpt><trkpt lat="35.01214" lon="32.3927913"><ele>195.5</ele><time>2015-04-25T09:49:24.0000000+00:00</time></trkpt><trkpt lat="35.0120861" lon="32.3927594"><ele>195.6</ele><time>2015-04-25T09:49:27.0000000+00:00</time></trkpt><trkpt lat="35.0120436" lon="32.3927339"><ele>196.4</ele><time>2015-04-25T09:49:29.0000000+00:00</time></trkpt><trkpt lat="35.0120016" lon="32.3927068"><ele>197.3</ele><time>2015-04-25T09:49:31.0000000+00:00</time></trkpt><trkpt lat="35.0119617" lon="32.3926765"><ele>198.5</ele><time>2015-04-25T09:49:33.0000000+00:00</time></trkpt><trkpt lat="35.0119215" lon="32.3926515"><ele>198.8</ele><time>2015-04-25T09:49:35.0000000+00:00</time></trkpt><trkpt lat="35.0118609" lon="32.392618"><ele>199.7</ele><time>2015-04-25T09:49:38.0000000+00:00</time></trkpt><trkpt lat="35.0118184" lon="32.3925948"><ele>199.1</ele><time>2015-04-25T09:49:40.0000000+00:00</time></trkpt><trkpt lat="35.0117742" lon="32.3925791"><ele>199.7</ele><time>2015-04-25T09:49:42.0000000+00:00</time></trkpt><trkpt lat="35.0117184" lon="32.3925436"><ele>199.9</ele><time>2015-04-25T09:49:45.0000000+00:00</time></trkpt><trkpt lat="35.011663" lon="32.3925072"><ele>200.3</ele><time>2015-04-25T09:49:48.0000000+00:00</time></trkpt><trkpt lat="35.0116015" lon="32.3924788"><ele>200.1</ele><time>2015-04-25T09:49:51.0000000+00:00</time></trkpt><trkpt lat="35.011541" lon="32.392442"><ele>199.8</ele><time>2015-04-25T09:49:54.0000000+00:00</time></trkpt><trkpt lat="35.011498" lon="32.3924199"><ele>200.7</ele><time>2015-04-25T09:49:56.0000000+00:00</time></trkpt><trkpt lat="35.0114539" lon="32.3923976"><ele>200.9</ele><time>2015-04-25T09:49:58.0000000+00:00</time></trkpt><trkpt lat="35.0114069" lon="32.3923667"><ele>200.9</ele><time>2015-04-25T09:50:00.0000000+00:00</time></trkpt><trkpt lat="35.0113549" lon="32.3923356"><ele>199.9</ele><time>2015-04-25T09:50:02.0000000+00:00</time></trkpt><trkpt lat="35.0113046" lon="32.3923098"><ele>199.7</ele><time>2015-04-25T09:50:04.0000000+00:00</time></trkpt><trkpt lat="35.0112504" lon="32.3922975"><ele>196.4</ele><time>2015-04-25T09:50:06.0000000+00:00</time></trkpt><trkpt lat="35.0112025" lon="32.3922759"><ele>194.5</ele><time>2015-04-25T09:50:08.0000000+00:00</time></trkpt><trkpt lat="35.0111574" lon="32.392254"><ele>194.8</ele><time>2015-04-25T09:50:10.0000000+00:00</time></trkpt><trkpt lat="35.0111132" lon="32.39223"><ele>195.9</ele><time>2015-04-25T09:50:12.0000000+00:00</time></trkpt><trkpt lat="35.0110661" lon="32.3922114"><ele>196.7</ele><time>2015-04-25T09:50:14.0000000+00:00</time></trkpt><trkpt lat="35.01102" lon="32.392192"><ele>197.6</ele><time>2015-04-25T09:50:16.0000000+00:00</time></trkpt><trkpt lat="35.0109636" lon="32.3921519"><ele>199.1</ele><time>2015-04-25T09:50:19.0000000+00:00</time></trkpt><trkpt lat="35.0109208" lon="32.3921277"><ele>199.7</ele><time>2015-04-25T09:50:21.0000000+00:00</time></trkpt><trkpt lat="35.0108753" lon="32.3921031"><ele>199.4</ele><time>2015-04-25T09:50:23.0000000+00:00</time></trkpt><trkpt lat="35.0108302" lon="32.3920785"><ele>198.5</ele><time>2015-04-25T09:50:25.0000000+00:00</time></trkpt><trkpt lat="35.0107856" lon="32.3920553"><ele>198.1</ele><time>2015-04-25T09:50:27.0000000+00:00</time></trkpt><trkpt lat="35.0107451" lon="32.3920196"><ele>198.0</ele><time>2015-04-25T09:50:29.0000000+00:00</time></trkpt><trkpt lat="35.0107078" lon="32.3919866"><ele>198.9</ele><time>2015-04-25T09:50:31.0000000+00:00</time></trkpt><trkpt lat="35.0106706" lon="32.3919535"><ele>198.9</ele><time>2015-04-25T09:50:33.0000000+00:00</time></trkpt><trkpt lat="35.0106331" lon="32.3919204"><ele>198.9</ele><time>2015-04-25T09:50:35.0000000+00:00</time></trkpt><trkpt lat="35.0105926" lon="32.3918857"><ele>200.9</ele><time>2015-04-25T09:50:37.0000000+00:00</time></trkpt><trkpt lat="35.0105378" lon="32.3918422"><ele>202.9</ele><time>2015-04-25T09:50:40.0000000+00:00</time></trkpt><trkpt lat="35.0104936" lon="32.3918168"><ele>204.1</ele><time>2015-04-25T09:50:43.0000000+00:00</time></trkpt><trkpt lat="35.0104609" lon="32.3918586"><ele>206.9</ele><time>2015-04-25T09:55:38.0000000+00:00</time></trkpt><trkpt lat="35.010494" lon="32.3918215"><ele>198.0</ele><time>2015-04-25T09:59:15.0000000+00:00</time></trkpt><trkpt lat="35.0104936" lon="32.3917649"><ele>197.7</ele><time>2015-04-25T10:05:20.0000000+00:00</time></trkpt><trkpt lat="35.010448" lon="32.3917741"><ele>197.7</ele><time>2015-04-25T10:05:24.0000000+00:00</time></trkpt><trkpt lat="35.0103961" lon="32.3917848"><ele>198.3</ele><time>2015-04-25T10:05:27.0000000+00:00</time></trkpt><trkpt lat="35.0103458" lon="32.3917865"><ele>197.5</ele><time>2015-04-25T10:05:30.0000000+00:00</time></trkpt><trkpt lat="35.0102983" lon="32.391787"><ele>198.4</ele><time>2015-04-25T10:05:33.0000000+00:00</time></trkpt><trkpt lat="35.0102537" lon="32.3917945"><ele>198.9</ele><time>2015-04-25T10:05:36.0000000+00:00</time></trkpt><trkpt lat="35.0101983" lon="32.3918109"><ele>199.5</ele><time>2015-04-25T10:05:40.0000000+00:00</time></trkpt><trkpt lat="35.010153" lon="32.3918198"><ele>201.2</ele><time>2015-04-25T10:05:43.0000000+00:00</time></trkpt><trkpt lat="35.0100985" lon="32.3918274"><ele>202.3</ele><time>2015-04-25T10:05:46.0000000+00:00</time></trkpt><trkpt lat="35.010047" lon="32.3918312"><ele>203.6</ele><time>2015-04-25T10:05:49.0000000+00:00</time></trkpt><trkpt lat="35.0099975" lon="32.3918302"><ele>204.4</ele><time>2015-04-25T10:05:52.0000000+00:00</time></trkpt><trkpt lat="35.0099491" lon="32.3918267"><ele>205.6</ele><time>2015-04-25T10:05:55.0000000+00:00</time></trkpt><trkpt lat="35.0098993" lon="32.3918159"><ele>206.0</ele><time>2015-04-25T10:05:58.0000000+00:00</time></trkpt><trkpt lat="35.0098513" lon="32.3918134"><ele>205.9</ele><time>2015-04-25T10:06:01.0000000+00:00</time></trkpt><trkpt lat="35.009807" lon="32.3918027"><ele>205.1</ele><time>2015-04-25T10:06:04.0000000+00:00</time></trkpt><trkpt lat="35.0097525" lon="32.3917742"><ele>205.8</ele><time>2015-04-25T10:06:08.0000000+00:00</time></trkpt><trkpt lat="35.0096996" lon="32.3917469"><ele>209.2</ele><time>2015-04-25T10:06:12.0000000+00:00</time></trkpt><trkpt lat="35.0096587" lon="32.3917171"><ele>209.8</ele><time>2015-04-25T10:06:15.0000000+00:00</time></trkpt><trkpt lat="35.0096078" lon="32.3916809"><ele>209.9</ele><time>2015-04-25T10:06:18.0000000+00:00</time></trkpt><trkpt lat="35.0095643" lon="32.3916407"><ele>211.8</ele><time>2015-04-25T10:06:21.0000000+00:00</time></trkpt><trkpt lat="35.0095209" lon="32.3915935"><ele>213.1</ele><time>2015-04-25T10:06:25.0000000+00:00</time></trkpt><trkpt lat="35.0094765" lon="32.3915593"><ele>214.6</ele><time>2015-04-25T10:06:29.0000000+00:00</time></trkpt><trkpt lat="35.0094264" lon="32.3915258"><ele>214.9</ele><time>2015-04-25T10:06:33.0000000+00:00</time></trkpt><trkpt lat="35.0093758" lon="32.3914856"><ele>215.2</ele><time>2015-04-25T10:06:37.0000000+00:00</time></trkpt><trkpt lat="35.009332" lon="32.391453"><ele>215.0</ele><time>2015-04-25T10:06:40.0000000+00:00</time></trkpt><trkpt lat="35.0092835" lon="32.3914252"><ele>215.7</ele><time>2015-04-25T10:06:43.0000000+00:00</time></trkpt><trkpt lat="35.0092276" lon="32.3914038"><ele>215.1</ele><time>2015-04-25T10:06:46.0000000+00:00</time></trkpt><trkpt lat="35.00917" lon="32.3914037"><ele>215.0</ele><time>2015-04-25T10:06:49.0000000+00:00</time></trkpt><trkpt lat="35.0091069" lon="32.3914103"><ele>214.7</ele><time>2015-04-25T10:06:52.0000000+00:00</time></trkpt><trkpt lat="35.0090424" lon="32.3914159"><ele>213.5</ele><time>2015-04-25T10:06:55.0000000+00:00</time></trkpt><trkpt lat="35.008979" lon="32.3914258"><ele>212.3</ele><time>2015-04-25T10:06:58.0000000+00:00</time></trkpt><trkpt lat="35.0089133" lon="32.3914394"><ele>212.8</ele><time>2015-04-25T10:07:01.0000000+00:00</time></trkpt><trkpt lat="35.0088686" lon="32.391451"><ele>213.7</ele><time>2015-04-25T10:07:03.0000000+00:00</time></trkpt><trkpt lat="35.0088238" lon="32.3914636"><ele>213.1</ele><time>2015-04-25T10:07:05.0000000+00:00</time></trkpt><trkpt lat="35.0087572" lon="32.3914708"><ele>214.3</ele><time>2015-04-25T10:07:08.0000000+00:00</time></trkpt><trkpt lat="35.0086984" lon="32.3914746"><ele>215.7</ele><time>2015-04-25T10:07:11.0000000+00:00</time></trkpt><trkpt lat="35.0086489" lon="32.3914791"><ele>215.9</ele><time>2015-04-25T10:07:14.0000000+00:00</time></trkpt><trkpt lat="35.0086011" lon="32.3914878"><ele>217.6</ele><time>2015-04-25T10:07:17.0000000+00:00</time></trkpt><trkpt lat="35.0085545" lon="32.3914978"><ele>219.8</ele><time>2015-04-25T10:07:20.0000000+00:00</time></trkpt><trkpt lat="35.0084994" lon="32.3914962"><ele>219.2</ele><time>2015-04-25T10:07:24.0000000+00:00</time></trkpt><trkpt lat="35.0084438" lon="32.3915021"><ele>219.8</ele><time>2015-04-25T10:07:28.0000000+00:00</time></trkpt><trkpt lat="35.0083861" lon="32.3915069"><ele>221.5</ele><time>2015-04-25T10:07:32.0000000+00:00</time></trkpt><trkpt lat="35.0083338" lon="32.3915158"><ele>222.0</ele><time>2015-04-25T10:07:36.0000000+00:00</time></trkpt><trkpt lat="35.0082796" lon="32.3915211"><ele>221.1</ele><time>2015-04-25T10:07:40.0000000+00:00</time></trkpt><trkpt lat="35.0082226" lon="32.3915237"><ele>221.1</ele><time>2015-04-25T10:07:44.0000000+00:00</time></trkpt><trkpt lat="35.0081666" lon="32.3915114"><ele>221.8</ele><time>2015-04-25T10:07:48.0000000+00:00</time></trkpt><trkpt lat="35.0081136" lon="32.3915204"><ele>221.7</ele><time>2015-04-25T10:07:52.0000000+00:00</time></trkpt><trkpt lat="35.0080543" lon="32.3915213"><ele>221.9</ele><time>2015-04-25T10:07:56.0000000+00:00</time></trkpt><trkpt lat="35.0079995" lon="32.3915282"><ele>222.1</ele><time>2015-04-25T10:08:00.0000000+00:00</time></trkpt><trkpt lat="35.007942" lon="32.39153"><ele>222.1</ele><time>2015-04-25T10:08:04.0000000+00:00</time></trkpt><trkpt lat="35.0078902" lon="32.3915417"><ele>221.4</ele><time>2015-04-25T10:08:08.0000000+00:00</time></trkpt><trkpt lat="35.0078312" lon="32.3915384"><ele>222.4</ele><time>2015-04-25T10:08:12.0000000+00:00</time></trkpt><trkpt lat="35.0077768" lon="32.3915408"><ele>222.9</ele><time>2015-04-25T10:08:16.0000000+00:00</time></trkpt><trkpt lat="35.0077265" lon="32.391541"><ele>222.9</ele><time>2015-04-25T10:08:20.0000000+00:00</time></trkpt><trkpt lat="35.0076779" lon="32.3915407"><ele>222.9</ele><time>2015-04-25T10:08:24.0000000+00:00</time></trkpt><trkpt lat="35.0076316" lon="32.3915454"><ele>224.4</ele><time>2015-04-25T10:08:28.0000000+00:00</time></trkpt><trkpt lat="35.0075857" lon="32.3915501"><ele>225.5</ele><time>2015-04-25T10:08:32.0000000+00:00</time></trkpt><trkpt lat="35.0075308" lon="32.3915548"><ele>226.9</ele><time>2015-04-25T10:08:37.0000000+00:00</time></trkpt><trkpt lat="35.0074819" lon="32.3915564"><ele>227.2</ele><time>2015-04-25T10:08:42.0000000+00:00</time></trkpt><trkpt lat="35.0074304" lon="32.391557"><ele>227.7</ele><time>2015-04-25T10:08:47.0000000+00:00</time></trkpt><trkpt lat="35.0073853" lon="32.3915561"><ele>228.7</ele><time>2015-04-25T10:08:51.0000000+00:00</time></trkpt><trkpt lat="35.0073366" lon="32.3915684"><ele>229.4</ele><time>2015-04-25T10:08:55.0000000+00:00</time></trkpt><trkpt lat="35.0072871" lon="32.3915725"><ele>230.8</ele><time>2015-04-25T10:08:59.0000000+00:00</time></trkpt><trkpt lat="35.007236" lon="32.3915919"><ele>230.0</ele><time>2015-04-25T10:09:03.0000000+00:00</time></trkpt><trkpt lat="35.0071773" lon="32.3916014"><ele>230.9</ele><time>2015-04-25T10:09:07.0000000+00:00</time></trkpt><trkpt lat="35.0071301" lon="32.3916138"><ele>230.9</ele><time>2015-04-25T10:09:10.0000000+00:00</time></trkpt><trkpt lat="35.0070847" lon="32.3916158"><ele>231.7</ele><time>2015-04-25T10:09:13.0000000+00:00</time></trkpt><trkpt lat="35.0070277" lon="32.3916165"><ele>231.9</ele><time>2015-04-25T10:09:17.0000000+00:00</time></trkpt><trkpt lat="35.0069722" lon="32.3916042"><ele>231.9</ele><time>2015-04-25T10:09:21.0000000+00:00</time></trkpt><trkpt lat="35.0069176" lon="32.3915899"><ele>231.6</ele><time>2015-04-25T10:09:25.0000000+00:00</time></trkpt><trkpt lat="35.0068668" lon="32.391559"><ele>231.0</ele><time>2015-04-25T10:09:29.0000000+00:00</time></trkpt><trkpt lat="35.0068224" lon="32.3915153"><ele>230.9</ele><time>2015-04-25T10:09:33.0000000+00:00</time></trkpt><trkpt lat="35.0067816" lon="32.3914647"><ele>233.7</ele><time>2015-04-25T10:09:37.0000000+00:00</time></trkpt><trkpt lat="35.0067582" lon="32.391417"><ele>235.0</ele><time>2015-04-25T10:09:40.0000000+00:00</time></trkpt><trkpt lat="35.0067367" lon="32.391366"><ele>236.7</ele><time>2015-04-25T10:09:43.0000000+00:00</time></trkpt><trkpt lat="35.0067154" lon="32.3913007"><ele>238.5</ele><time>2015-04-25T10:09:47.0000000+00:00</time></trkpt><trkpt lat="35.0066898" lon="32.3912367"><ele>240.0</ele><time>2015-04-25T10:09:51.0000000+00:00</time></trkpt><trkpt lat="35.0066692" lon="32.391171"><ele>240.6</ele><time>2015-04-25T10:09:55.0000000+00:00</time></trkpt><trkpt lat="35.0066535" lon="32.391117"><ele>241.4</ele><time>2015-04-25T10:09:58.0000000+00:00</time></trkpt><trkpt lat="35.0066252" lon="32.391052"><ele>243.1</ele><time>2015-04-25T10:10:02.0000000+00:00</time></trkpt><trkpt lat="35.0066016" lon="32.3910023"><ele>243.8</ele><time>2015-04-25T10:10:05.0000000+00:00</time></trkpt><trkpt lat="35.0065877" lon="32.3909414"><ele>243.7</ele><time>2015-04-25T10:10:08.0000000+00:00</time></trkpt><trkpt lat="35.0065623" lon="32.3908835"><ele>244.4</ele><time>2015-04-25T10:10:11.0000000+00:00</time></trkpt><trkpt lat="35.0065394" lon="32.3908256"><ele>244.9</ele><time>2015-04-25T10:10:14.0000000+00:00</time></trkpt><trkpt lat="35.0065137" lon="32.3907692"><ele>244.9</ele><time>2015-04-25T10:10:17.0000000+00:00</time></trkpt><trkpt lat="35.0064929" lon="32.3907142"><ele>245.4</ele><time>2015-04-25T10:10:20.0000000+00:00</time></trkpt><trkpt lat="35.0064713" lon="32.3906621"><ele>245.9</ele><time>2015-04-25T10:10:23.0000000+00:00</time></trkpt><trkpt lat="35.0064432" lon="32.3906175"><ele>246.2</ele><time>2015-04-25T10:10:26.0000000+00:00</time></trkpt><trkpt lat="35.0064064" lon="32.3905597"><ele>246.6</ele><time>2015-04-25T10:10:30.0000000+00:00</time></trkpt><trkpt lat="35.0063634" lon="32.3905107"><ele>247.2</ele><time>2015-04-25T10:10:34.0000000+00:00</time></trkpt><trkpt lat="35.0063294" lon="32.3904736"><ele>247.3</ele><time>2015-04-25T10:10:37.0000000+00:00</time></trkpt><trkpt lat="35.0062919" lon="32.3904386"><ele>247.0</ele><time>2015-04-25T10:10:40.0000000+00:00</time></trkpt><trkpt lat="35.0062422" lon="32.3904024"><ele>248.3</ele><time>2015-04-25T10:10:44.0000000+00:00</time></trkpt><trkpt lat="35.0061905" lon="32.3903732"><ele>249.4</ele><time>2015-04-25T10:10:48.0000000+00:00</time></trkpt><trkpt lat="35.0061376" lon="32.3903436"><ele>250.4</ele><time>2015-04-25T10:10:52.0000000+00:00</time></trkpt><trkpt lat="35.0060977" lon="32.3903144"><ele>251.0</ele><time>2015-04-25T10:10:56.0000000+00:00</time></trkpt><trkpt lat="35.006044" lon="32.390287"><ele>252.1</ele><time>2015-04-25T10:11:01.0000000+00:00</time></trkpt><trkpt lat="35.0059939" lon="32.3902607"><ele>252.9</ele><time>2015-04-25T10:11:05.0000000+00:00</time></trkpt><trkpt lat="35.0059398" lon="32.3902302"><ele>253.1</ele><time>2015-04-25T10:11:09.0000000+00:00</time></trkpt><trkpt lat="35.00589" lon="32.3902059"><ele>253.7</ele><time>2015-04-25T10:11:12.0000000+00:00</time></trkpt><trkpt lat="35.0058388" lon="32.3901868"><ele>252.7</ele><time>2015-04-25T10:11:15.0000000+00:00</time></trkpt><trkpt lat="35.005792" lon="32.3901645"><ele>252.0</ele><time>2015-04-25T10:11:18.0000000+00:00</time></trkpt><trkpt lat="35.005752" lon="32.3901322"><ele>252.9</ele><time>2015-04-25T10:11:21.0000000+00:00</time></trkpt><trkpt lat="35.0057062" lon="32.3901011"><ele>254.3</ele><time>2015-04-25T10:11:24.0000000+00:00</time></trkpt><trkpt lat="35.0056645" lon="32.3900521"><ele>255.4</ele><time>2015-04-25T10:11:28.0000000+00:00</time></trkpt><trkpt lat="35.0056273" lon="32.390003"><ele>255.9</ele><time>2015-04-25T10:11:32.0000000+00:00</time></trkpt><trkpt lat="35.0055934" lon="32.3899508"><ele>256.4</ele><time>2015-04-25T10:11:36.0000000+00:00</time></trkpt><trkpt lat="35.0055674" lon="32.3899054"><ele>256.7</ele><time>2015-04-25T10:11:39.0000000+00:00</time></trkpt><trkpt lat="35.0055397" lon="32.3898622"><ele>257.2</ele><time>2015-04-25T10:11:42.0000000+00:00</time></trkpt><trkpt lat="35.0055074" lon="32.3898151"><ele>257.7</ele><time>2015-04-25T10:11:46.0000000+00:00</time></trkpt><trkpt lat="35.0054778" lon="32.3897598"><ele>257.9</ele><time>2015-04-25T10:11:50.0000000+00:00</time></trkpt><trkpt lat="35.0054453" lon="32.3897048"><ele>257.9</ele><time>2015-04-25T10:11:53.0000000+00:00</time></trkpt><trkpt lat="35.0054141" lon="32.389645"><ele>259.3</ele><time>2015-04-25T10:11:56.0000000+00:00</time></trkpt><trkpt lat="35.0053872" lon="32.3895776"><ele>259.1</ele><time>2015-04-25T10:11:59.0000000+00:00</time></trkpt><trkpt lat="35.0053682" lon="32.3895212"><ele>259.0</ele><time>2015-04-25T10:12:01.0000000+00:00</time></trkpt><trkpt lat="35.005352" lon="32.389467"><ele>258.2</ele><time>2015-04-25T10:12:03.0000000+00:00</time></trkpt><trkpt lat="35.0053167" lon="32.3894046"><ele>258.8</ele><time>2015-04-25T10:12:06.0000000+00:00</time></trkpt><trkpt lat="35.005292" lon="32.3893513"><ele>258.4</ele><time>2015-04-25T10:12:09.0000000+00:00</time></trkpt><trkpt lat="35.0053391" lon="32.3893864"><ele>257.1</ele><time>2015-04-25T10:12:16.0000000+00:00</time></trkpt><trkpt lat="35.005347" lon="32.3894496"><ele>257.5</ele><time>2015-04-25T10:12:18.0000000+00:00</time></trkpt><trkpt lat="35.0053587" lon="32.3895065"><ele>257.8</ele><time>2015-04-25T10:12:20.0000000+00:00</time></trkpt><trkpt lat="35.0053518" lon="32.389447"><ele>257.0</ele><time>2015-04-25T10:13:11.0000000+00:00</time></trkpt><trkpt lat="35.0053271" lon="32.3893644"><ele>256.9</ele><time>2015-04-25T10:13:14.0000000+00:00</time></trkpt><trkpt lat="35.0053131" lon="32.3892964"><ele>257.7</ele><time>2015-04-25T10:13:16.0000000+00:00</time></trkpt><trkpt lat="35.0053065" lon="32.3892305"><ele>258.4</ele><time>2015-04-25T10:13:18.0000000+00:00</time></trkpt><trkpt lat="35.0053017" lon="32.3891659"><ele>258.8</ele><time>2015-04-25T10:13:20.0000000+00:00</time></trkpt><trkpt lat="35.0052999" lon="32.3890996"><ele>258.9</ele><time>2015-04-25T10:13:22.0000000+00:00</time></trkpt><trkpt lat="35.0052948" lon="32.3890316"><ele>259.4</ele><time>2015-04-25T10:13:24.0000000+00:00</time></trkpt><trkpt lat="35.0052863" lon="32.3889678"><ele>259.8</ele><time>2015-04-25T10:13:26.0000000+00:00</time></trkpt><trkpt lat="35.0052677" lon="32.3889101"><ele>259.9</ele><time>2015-04-25T10:13:28.0000000+00:00</time></trkpt><trkpt lat="35.0052226" lon="32.3889457"><ele>259.4</ele><time>2015-04-25T10:13:31.0000000+00:00</time></trkpt><trkpt lat="35.0052705" lon="32.3889776"><ele>256.5</ele><time>2015-04-25T10:13:39.0000000+00:00</time></trkpt><trkpt lat="35.0052975" lon="32.3889175"><ele>257.5</ele><time>2015-04-25T10:14:02.0000000+00:00</time></trkpt><trkpt lat="35.005301" lon="32.3888511"><ele>259.6</ele><time>2015-04-25T10:14:06.0000000+00:00</time></trkpt><trkpt lat="35.0052821" lon="32.3888004"><ele>261.7</ele><time>2015-04-25T10:14:12.0000000+00:00</time></trkpt><trkpt lat="35.0052544" lon="32.3887536"><ele>262.7</ele><time>2015-04-25T10:18:27.0000000+00:00</time></trkpt><trkpt lat="35.0052126" lon="32.3887168"><ele>262.3</ele><time>2015-04-25T10:18:33.0000000+00:00</time></trkpt><trkpt lat="35.005192" lon="32.3886652"><ele>262.9</ele><time>2015-04-25T10:18:46.0000000+00:00</time></trkpt><trkpt lat="35.005184" lon="32.3886071"><ele>263.1</ele><time>2015-04-25T10:18:51.0000000+00:00</time></trkpt><trkpt lat="35.0051367" lon="32.3885825"><ele>263.1</ele><time>2015-04-25T10:18:56.0000000+00:00</time></trkpt><trkpt lat="35.0050887" lon="32.3885954"><ele>263.7</ele><time>2015-04-25T10:19:00.0000000+00:00</time></trkpt><trkpt lat="35.0050457" lon="32.3886176"><ele>263.4</ele><time>2015-04-25T10:19:04.0000000+00:00</time></trkpt><trkpt lat="35.0050018" lon="32.388602"><ele>263.9</ele><time>2015-04-25T10:19:07.0000000+00:00</time></trkpt><trkpt lat="35.0049561" lon="32.3885689"><ele>263.2</ele><time>2015-04-25T10:19:10.0000000+00:00</time></trkpt><trkpt lat="35.0049053" lon="32.3885327"><ele>262.8</ele><time>2015-04-25T10:19:13.0000000+00:00</time></trkpt><trkpt lat="35.0048514" lon="32.3885007"><ele>263.5</ele><time>2015-04-25T10:19:16.0000000+00:00</time></trkpt><trkpt lat="35.0048038" lon="32.3884704"><ele>263.8</ele><time>2015-04-25T10:19:18.0000000+00:00</time></trkpt><trkpt lat="35.0047556" lon="32.3884394"><ele>263.9</ele><time>2015-04-25T10:19:20.0000000+00:00</time></trkpt><trkpt lat="35.0047107" lon="32.3884108"><ele>263.9</ele><time>2015-04-25T10:19:22.0000000+00:00</time></trkpt><trkpt lat="35.0046619" lon="32.3883861"><ele>262.7</ele><time>2015-04-25T10:19:24.0000000+00:00</time></trkpt><trkpt lat="35.0046112" lon="32.3883592"><ele>262.1</ele><time>2015-04-25T10:19:26.0000000+00:00</time></trkpt><trkpt lat="35.0045578" lon="32.3883235"><ele>262.5</ele><time>2015-04-25T10:19:28.0000000+00:00</time></trkpt><trkpt lat="35.004507" lon="32.3882767"><ele>263.6</ele><time>2015-04-25T10:19:30.0000000+00:00</time></trkpt><trkpt lat="35.0044569" lon="32.3882319"><ele>263.3</ele><time>2015-04-25T10:19:32.0000000+00:00</time></trkpt><trkpt lat="35.0044075" lon="32.3881896"><ele>263.8</ele><time>2015-04-25T10:19:34.0000000+00:00</time></trkpt><trkpt lat="35.0043618" lon="32.3881383"><ele>263.9</ele><time>2015-04-25T10:19:36.0000000+00:00</time></trkpt><trkpt lat="35.0043259" lon="32.3880796"><ele>263.9</ele><time>2015-04-25T10:19:38.0000000+00:00</time></trkpt><trkpt lat="35.0042941" lon="32.3880265"><ele>263.9</ele><time>2015-04-25T10:19:40.0000000+00:00</time></trkpt><trkpt lat="35.0042577" lon="32.3879765"><ele>264.4</ele><time>2015-04-25T10:19:42.0000000+00:00</time></trkpt><trkpt lat="35.0042226" lon="32.3879238"><ele>264.8</ele><time>2015-04-25T10:19:44.0000000+00:00</time></trkpt><trkpt lat="35.004186" lon="32.3878645"><ele>264.1</ele><time>2015-04-25T10:19:46.0000000+00:00</time></trkpt><trkpt lat="35.0041494" lon="32.3878068"><ele>264.0</ele><time>2015-04-25T10:19:48.0000000+00:00</time></trkpt><trkpt lat="35.0041143" lon="32.3877558"><ele>263.9</ele><time>2015-04-25T10:19:50.0000000+00:00</time></trkpt><trkpt lat="35.0040771" lon="32.3877076"><ele>264.7</ele><time>2015-04-25T10:19:52.0000000+00:00</time></trkpt><trkpt lat="35.0040354" lon="32.3876633"><ele>265.6</ele><time>2015-04-25T10:19:54.0000000+00:00</time></trkpt><trkpt lat="35.0039908" lon="32.3876233"><ele>266.1</ele><time>2015-04-25T10:19:56.0000000+00:00</time></trkpt><trkpt lat="35.0039506" lon="32.3875866"><ele>266.2</ele><time>2015-04-25T10:19:58.0000000+00:00</time></trkpt><trkpt lat="35.0039146" lon="32.3875496"><ele>265.5</ele><time>2015-04-25T10:20:00.0000000+00:00</time></trkpt><trkpt lat="35.0038763" lon="32.387519"><ele>265.6</ele><time>2015-04-25T10:20:02.0000000+00:00</time></trkpt><trkpt lat="35.0038273" lon="32.3874811"><ele>265.9</ele><time>2015-04-25T10:20:05.0000000+00:00</time></trkpt><trkpt lat="35.0037898" lon="32.3874314"><ele>265.4</ele><time>2015-04-25T10:20:09.0000000+00:00</time></trkpt><trkpt lat="35.0037441" lon="32.3873735"><ele>266.6</ele><time>2015-04-25T10:20:12.0000000+00:00</time></trkpt><trkpt lat="35.0036857" lon="32.3873337"><ele>267.6</ele><time>2015-04-25T10:20:14.0000000+00:00</time></trkpt><trkpt lat="35.0036256" lon="32.3872906"><ele>268.6</ele><time>2015-04-25T10:20:16.0000000+00:00</time></trkpt><trkpt lat="35.003572" lon="32.3872458"><ele>268.8</ele><time>2015-04-25T10:20:18.0000000+00:00</time></trkpt><trkpt lat="35.003524" lon="32.3872007"><ele>269.4</ele><time>2015-04-25T10:20:20.0000000+00:00</time></trkpt><trkpt lat="35.0034791" lon="32.3871584"><ele>270.0</ele><time>2015-04-25T10:20:22.0000000+00:00</time></trkpt><trkpt lat="35.0034322" lon="32.3871221"><ele>270.7</ele><time>2015-04-25T10:20:24.0000000+00:00</time></trkpt><trkpt lat="35.0033796" lon="32.3870876"><ele>270.9</ele><time>2015-04-25T10:20:26.0000000+00:00</time></trkpt><trkpt lat="35.0033304" lon="32.38705"><ele>270.9</ele><time>2015-04-25T10:20:28.0000000+00:00</time></trkpt><trkpt lat="35.0032815" lon="32.3870026"><ele>270.9</ele><time>2015-04-25T10:20:30.0000000+00:00</time></trkpt><trkpt lat="35.0032318" lon="32.3869453"><ele>271.4</ele><time>2015-04-25T10:20:32.0000000+00:00</time></trkpt><trkpt lat="35.0031895" lon="32.3868846"><ele>271.8</ele><time>2015-04-25T10:20:34.0000000+00:00</time></trkpt><trkpt lat="35.0031532" lon="32.3868251"><ele>271.9</ele><time>2015-04-25T10:20:36.0000000+00:00</time></trkpt><trkpt lat="35.0031273" lon="32.3867703"><ele>271.9</ele><time>2015-04-25T10:20:38.0000000+00:00</time></trkpt><trkpt lat="35.0031025" lon="32.3867149"><ele>271.4</ele><time>2015-04-25T10:20:42.0000000+00:00</time></trkpt><trkpt lat="35.0030758" lon="32.3866452"><ele>270.5</ele><time>2015-04-25T10:20:46.0000000+00:00</time></trkpt><trkpt lat="35.0030527" lon="32.386598"><ele>270.1</ele><time>2015-04-25T10:20:48.0000000+00:00</time></trkpt><trkpt lat="35.0030261" lon="32.3865452"><ele>269.5</ele><time>2015-04-25T10:20:50.0000000+00:00</time></trkpt><trkpt lat="35.0029989" lon="32.3864934"><ele>269.1</ele><time>2015-04-25T10:20:52.0000000+00:00</time></trkpt><trkpt lat="35.00297" lon="32.3864432"><ele>267.7</ele><time>2015-04-25T10:20:54.0000000+00:00</time></trkpt><trkpt lat="35.0029443" lon="32.3863927"><ele>267.4</ele><time>2015-04-25T10:20:56.0000000+00:00</time></trkpt><trkpt lat="35.0029189" lon="32.3863468"><ele>267.0</ele><time>2015-04-25T10:20:58.0000000+00:00</time></trkpt><trkpt lat="35.0028875" lon="32.3863047"><ele>265.7</ele><time>2015-04-25T10:21:00.0000000+00:00</time></trkpt><trkpt lat="35.002852" lon="32.3862551"><ele>265.9</ele><time>2015-04-25T10:21:02.0000000+00:00</time></trkpt><trkpt lat="35.0028013" lon="32.3861835"><ele>265.9</ele><time>2015-04-25T10:21:04.0000000+00:00</time></trkpt><trkpt lat="35.00275" lon="32.3861182"><ele>265.9</ele><time>2015-04-25T10:21:06.0000000+00:00</time></trkpt><trkpt lat="35.0026953" lon="32.3860664"><ele>266.4</ele><time>2015-04-25T10:21:08.0000000+00:00</time></trkpt><trkpt lat="35.0026391" lon="32.3860273"><ele>267.3</ele><time>2015-04-25T10:21:10.0000000+00:00</time></trkpt><trkpt lat="35.0025877" lon="32.3859912"><ele>267.8</ele><time>2015-04-25T10:21:12.0000000+00:00</time></trkpt><trkpt lat="35.0025419" lon="32.3859627"><ele>267.1</ele><time>2015-04-25T10:21:14.0000000+00:00</time></trkpt><trkpt lat="35.0024926" lon="32.385947"><ele>267.5</ele><time>2015-04-25T10:21:16.0000000+00:00</time></trkpt><trkpt lat="35.0024495" lon="32.3859291"><ele>267.8</ele><time>2015-04-25T10:21:18.0000000+00:00</time></trkpt><trkpt lat="35.0023849" lon="32.3859275"><ele>268.0</ele><time>2015-04-25T10:21:21.0000000+00:00</time></trkpt><trkpt lat="35.0023223" lon="32.3859552"><ele>267.9</ele><time>2015-04-25T10:21:24.0000000+00:00</time></trkpt><trkpt lat="35.0022646" lon="32.3859856"><ele>269.7</ele><time>2015-04-25T10:21:27.0000000+00:00</time></trkpt><trkpt lat="35.0021986" lon="32.386009"><ele>268.6</ele><time>2015-04-25T10:21:30.0000000+00:00</time></trkpt><trkpt lat="35.0021334" lon="32.3860246"><ele>268.4</ele><time>2015-04-25T10:21:32.0000000+00:00</time></trkpt><trkpt lat="35.0020661" lon="32.3860471"><ele>267.6</ele><time>2015-04-25T10:21:33.0000000+00:00</time></trkpt><trkpt lat="35.0020136" lon="32.3860647"><ele>267.3</ele><time>2015-04-25T10:21:34.0000000+00:00</time></trkpt><trkpt lat="35.001952" lon="32.386077"><ele>266.6</ele><time>2015-04-25T10:21:35.0000000+00:00</time></trkpt><trkpt lat="35.0018904" lon="32.3860923"><ele>266.3</ele><time>2015-04-25T10:21:36.0000000+00:00</time></trkpt><trkpt lat="35.0018294" lon="32.3861058"><ele>266.1</ele><time>2015-04-25T10:21:37.0000000+00:00</time></trkpt><trkpt lat="35.0017631" lon="32.3861219"><ele>265.5</ele><time>2015-04-25T10:21:38.0000000+00:00</time></trkpt><trkpt lat="35.0017022" lon="32.3861401"><ele>265.2</ele><time>2015-04-25T10:21:39.0000000+00:00</time></trkpt><trkpt lat="35.0016341" lon="32.3861624"><ele>265.1</ele><time>2015-04-25T10:21:40.0000000+00:00</time></trkpt><trkpt lat="35.0015757" lon="32.3861886"><ele>264.5</ele><time>2015-04-25T10:21:41.0000000+00:00</time></trkpt><trkpt lat="35.0015176" lon="32.3862011"><ele>264.2</ele><time>2015-04-25T10:21:42.0000000+00:00</time></trkpt><trkpt lat="35.0014546" lon="32.3862186"><ele>264.1</ele><time>2015-04-25T10:21:43.0000000+00:00</time></trkpt><trkpt lat="35.0013936" lon="32.3862402"><ele>264.0</ele><time>2015-04-25T10:21:44.0000000+00:00</time></trkpt><trkpt lat="35.0013347" lon="32.3862622"><ele>264.5</ele><time>2015-04-25T10:21:45.0000000+00:00</time></trkpt><trkpt lat="35.0012924" lon="32.3862914"><ele>264.2</ele><time>2015-04-25T10:21:46.0000000+00:00</time></trkpt><trkpt lat="35.0012393" lon="32.3863094"><ele>263.6</ele><time>2015-04-25T10:21:47.0000000+00:00</time></trkpt><trkpt lat="35.0011857" lon="32.386334"><ele>263.2</ele><time>2015-04-25T10:21:48.0000000+00:00</time></trkpt><trkpt lat="35.0011322" lon="32.3863735"><ele>263.1</ele><time>2015-04-25T10:21:49.0000000+00:00</time></trkpt><trkpt lat="35.0010864" lon="32.3864064"><ele>263.0</ele><time>2015-04-25T10:21:50.0000000+00:00</time></trkpt><trkpt lat="35.0010429" lon="32.3864277"><ele>262.5</ele><time>2015-04-25T10:21:51.0000000+00:00</time></trkpt><trkpt lat="35.0009969" lon="32.3864516"><ele>261.7</ele><time>2015-04-25T10:21:52.0000000+00:00</time></trkpt><trkpt lat="35.0009398" lon="32.3864516"><ele>260.8</ele><time>2015-04-25T10:21:53.0000000+00:00</time></trkpt><trkpt lat="35.0008858" lon="32.3864277"><ele>260.4</ele><time>2015-04-25T10:21:54.0000000+00:00</time></trkpt><trkpt lat="35.0008412" lon="32.3864008"><ele>260.2</ele><time>2015-04-25T10:21:55.0000000+00:00</time></trkpt><trkpt lat="35.0008563" lon="32.386315"><ele>259.5</ele><time>2015-04-25T10:21:57.0000000+00:00</time></trkpt><trkpt lat="35.0008871" lon="32.3862398"><ele>260.3</ele><time>2015-04-25T10:21:59.0000000+00:00</time></trkpt><trkpt lat="35.0009144" lon="32.3861755"><ele>260.8</ele><time>2015-04-25T10:22:01.0000000+00:00</time></trkpt><trkpt lat="35.0009476" lon="32.3861151"><ele>261.6</ele><time>2015-04-25T10:22:03.0000000+00:00</time></trkpt><trkpt lat="35.0009872" lon="32.3860732"><ele>262.6</ele><time>2015-04-25T10:22:05.0000000+00:00</time></trkpt><trkpt lat="35.0010285" lon="32.386027"><ele>263.4</ele><time>2015-04-25T10:22:08.0000000+00:00</time></trkpt><trkpt lat="35.0010763" lon="32.3859826"><ele>265.5</ele><time>2015-04-25T10:22:11.0000000+00:00</time></trkpt><trkpt lat="35.001128" lon="32.3859282"><ele>266.6</ele><time>2015-04-25T10:22:14.0000000+00:00</time></trkpt><trkpt lat="35.0011616" lon="32.3858881"><ele>267.6</ele><time>2015-04-25T10:22:16.0000000+00:00</time></trkpt><trkpt lat="35.0011964" lon="32.3858495"><ele>267.8</ele><time>2015-04-25T10:22:18.0000000+00:00</time></trkpt><trkpt lat="35.001246" lon="32.385795"><ele>269.3</ele><time>2015-04-25T10:22:21.0000000+00:00</time></trkpt><trkpt lat="35.0012925" lon="32.3857379"><ele>272.0</ele><time>2015-04-25T10:22:24.0000000+00:00</time></trkpt><trkpt lat="35.0013214" lon="32.3856917"><ele>272.7</ele><time>2015-04-25T10:22:26.0000000+00:00</time></trkpt><trkpt lat="35.0013516" lon="32.3856454"><ele>272.9</ele><time>2015-04-25T10:22:28.0000000+00:00</time></trkpt><trkpt lat="35.0013864" lon="32.3856039"><ele>273.7</ele><time>2015-04-25T10:22:30.0000000+00:00</time></trkpt><trkpt lat="35.0014231" lon="32.385561"><ele>274.4</ele><time>2015-04-25T10:22:32.0000000+00:00</time></trkpt><trkpt lat="35.0014555" lon="32.3855163"><ele>274.8</ele><time>2015-04-25T10:22:34.0000000+00:00</time></trkpt><trkpt lat="35.0014828" lon="32.385471"><ele>275.4</ele><time>2015-04-25T10:22:36.0000000+00:00</time></trkpt><trkpt lat="35.0015152" lon="32.3854297"><ele>275.0</ele><time>2015-04-25T10:22:38.0000000+00:00</time></trkpt><trkpt lat="35.0015481" lon="32.385386"><ele>275.7</ele><time>2015-04-25T10:22:40.0000000+00:00</time></trkpt><trkpt lat="35.0015718" lon="32.3853341"><ele>276.6</ele><time>2015-04-25T10:22:42.0000000+00:00</time></trkpt><trkpt lat="35.001588" lon="32.385279"><ele>277.6</ele><time>2015-04-25T10:22:44.0000000+00:00</time></trkpt><trkpt lat="35.0016119" lon="32.3852056"><ele>278.1</ele><time>2015-04-25T10:22:47.0000000+00:00</time></trkpt><trkpt lat="35.0016181" lon="32.38514"><ele>278.0</ele><time>2015-04-25T10:22:50.0000000+00:00</time></trkpt><trkpt lat="35.00162" lon="32.3850785"><ele>277.7</ele><time>2015-04-25T10:22:53.0000000+00:00</time></trkpt><trkpt lat="35.0016334" lon="32.3850188"><ele>277.6</ele><time>2015-04-25T10:22:56.0000000+00:00</time></trkpt><trkpt lat="35.00164" lon="32.3849598"><ele>277.5</ele><time>2015-04-25T10:22:59.0000000+00:00</time></trkpt><trkpt lat="35.0016351" lon="32.3848957"><ele>278.6</ele><time>2015-04-25T10:23:02.0000000+00:00</time></trkpt><trkpt lat="35.0016271" lon="32.3848212"><ele>280.5</ele><time>2015-04-25T10:23:05.0000000+00:00</time></trkpt><trkpt lat="35.0016172" lon="32.3847661"><ele>280.8</ele><time>2015-04-25T10:23:07.0000000+00:00</time></trkpt><trkpt lat="35.0016081" lon="32.3847092"><ele>281.7</ele><time>2015-04-25T10:23:09.0000000+00:00</time></trkpt><trkpt lat="35.0015936" lon="32.384654"><ele>281.9</ele><time>2015-04-25T10:23:11.0000000+00:00</time></trkpt><trkpt lat="35.0015753" lon="32.3845974"><ele>282.7</ele><time>2015-04-25T10:23:13.0000000+00:00</time></trkpt><trkpt lat="35.0015587" lon="32.3845392"><ele>283.6</ele><time>2015-04-25T10:23:15.0000000+00:00</time></trkpt><trkpt lat="35.0015492" lon="32.3844774"><ele>283.4</ele><time>2015-04-25T10:23:17.0000000+00:00</time></trkpt><trkpt lat="35.0015416" lon="32.3844214"><ele>285.0</ele><time>2015-04-25T10:23:19.0000000+00:00</time></trkpt><trkpt lat="35.0015236" lon="32.3843681"><ele>286.6</ele><time>2015-04-25T10:23:22.0000000+00:00</time></trkpt><trkpt lat="35.0015052" lon="32.3843123"><ele>286.9</ele><time>2015-04-25T10:23:26.0000000+00:00</time></trkpt><trkpt lat="35.0014758" lon="32.38425"><ele>287.9</ele><time>2015-04-25T10:23:30.0000000+00:00</time></trkpt><trkpt lat="35.0014616" lon="32.3841953"><ele>287.9</ele><time>2015-04-25T10:23:33.0000000+00:00</time></trkpt><trkpt lat="35.0014442" lon="32.3841338"><ele>286.7</ele><time>2015-04-25T10:23:36.0000000+00:00</time></trkpt><trkpt lat="35.0014234" lon="32.3840751"><ele>285.8</ele><time>2015-04-25T10:23:39.0000000+00:00</time></trkpt><trkpt lat="35.001401" lon="32.3840185"><ele>285.0</ele><time>2015-04-25T10:23:42.0000000+00:00</time></trkpt><trkpt lat="35.0013709" lon="32.3839617"><ele>286.2</ele><time>2015-04-25T10:23:45.0000000+00:00</time></trkpt><trkpt lat="35.0013304" lon="32.3839114"><ele>287.6</ele><time>2015-04-25T10:23:48.0000000+00:00</time></trkpt><trkpt lat="35.0012869" lon="32.3838653"><ele>288.6</ele><time>2015-04-25T10:23:51.0000000+00:00</time></trkpt><trkpt lat="35.0012442" lon="32.3838184"><ele>289.6</ele><time>2015-04-25T10:23:54.0000000+00:00</time></trkpt><trkpt lat="35.0012065" lon="32.3837693"><ele>289.4</ele><time>2015-04-25T10:23:57.0000000+00:00</time></trkpt><trkpt lat="35.0011714" lon="32.3837286"><ele>288.2</ele><time>2015-04-25T10:24:00.0000000+00:00</time></trkpt><trkpt lat="35.0011203" lon="32.3836835"><ele>288.3</ele><time>2015-04-25T10:24:04.0000000+00:00</time></trkpt><trkpt lat="35.0010824" lon="32.3836512"><ele>289.2</ele><time>2015-04-25T10:24:07.0000000+00:00</time></trkpt><trkpt lat="35.0010408" lon="32.3836136"><ele>290.1</ele><time>2015-04-25T10:24:10.0000000+00:00</time></trkpt><trkpt lat="35.0009986" lon="32.3835668"><ele>290.8</ele><time>2015-04-25T10:24:13.0000000+00:00</time></trkpt><trkpt lat="35.0009563" lon="32.3835203"><ele>290.7</ele><time>2015-04-25T10:24:16.0000000+00:00</time></trkpt><trkpt lat="35.0009114" lon="32.3834767"><ele>291.0</ele><time>2015-04-25T10:24:19.0000000+00:00</time></trkpt><trkpt lat="35.0008702" lon="32.3834277"><ele>292.7</ele><time>2015-04-25T10:24:22.0000000+00:00</time></trkpt><trkpt lat="35.0008361" lon="32.3833765"><ele>292.8</ele><time>2015-04-25T10:24:25.0000000+00:00</time></trkpt><trkpt lat="35.0007917" lon="32.3833313"><ele>293.0</ele><time>2015-04-25T10:24:29.0000000+00:00</time></trkpt><trkpt lat="35.0007567" lon="32.3832918"><ele>293.4</ele><time>2015-04-25T10:24:33.0000000+00:00</time></trkpt><trkpt lat="35.0007271" lon="32.3832416"><ele>295.2</ele><time>2015-04-25T10:24:37.0000000+00:00</time></trkpt><trkpt lat="35.0006856" lon="32.3831908"><ele>294.9</ele><time>2015-04-25T10:24:41.0000000+00:00</time></trkpt><trkpt lat="35.0006513" lon="32.3831486"><ele>294.9</ele><time>2015-04-25T10:24:44.0000000+00:00</time></trkpt><trkpt lat="35.0006167" lon="32.3831056"><ele>295.6</ele><time>2015-04-25T10:24:47.0000000+00:00</time></trkpt><trkpt lat="35.0005835" lon="32.3830585"><ele>295.8</ele><time>2015-04-25T10:24:50.0000000+00:00</time></trkpt><trkpt lat="35.000546" lon="32.3830203"><ele>296.4</ele><time>2015-04-25T10:24:53.0000000+00:00</time></trkpt><trkpt lat="35.0005053" lon="32.3829866"><ele>298.0</ele><time>2015-04-25T10:24:56.0000000+00:00</time></trkpt><trkpt lat="35.000465" lon="32.3829493"><ele>299.6</ele><time>2015-04-25T10:24:59.0000000+00:00</time></trkpt><trkpt lat="35.0004297" lon="32.3829101"><ele>299.4</ele><time>2015-04-25T10:25:02.0000000+00:00</time></trkpt><trkpt lat="35.0003994" lon="32.3828644"><ele>298.6</ele><time>2015-04-25T10:25:05.0000000+00:00</time></trkpt><trkpt lat="35.000364" lon="32.3828222"><ele>298.9</ele><time>2015-04-25T10:25:08.0000000+00:00</time></trkpt><trkpt lat="35.0003279" lon="32.3827736"><ele>297.9</ele><time>2015-04-25T10:25:12.0000000+00:00</time></trkpt><trkpt lat="35.000287" lon="32.3827234"><ele>297.1</ele><time>2015-04-25T10:25:16.0000000+00:00</time></trkpt><trkpt lat="35.0002506" lon="32.3826816"><ele>297.5</ele><time>2015-04-25T10:25:19.0000000+00:00</time></trkpt><trkpt lat="35.000212" lon="32.3826459"><ele>297.9</ele><time>2015-04-25T10:25:22.0000000+00:00</time></trkpt><trkpt lat="35.0001725" lon="32.3826155"><ele>298.3</ele><time>2015-04-25T10:25:25.0000000+00:00</time></trkpt><trkpt lat="35.0001307" lon="32.3825929"><ele>298.0</ele><time>2015-04-25T10:25:28.0000000+00:00</time></trkpt><trkpt lat="35.0000872" lon="32.3825779"><ele>299.2</ele><time>2015-04-25T10:25:31.0000000+00:00</time></trkpt><trkpt lat="35.0000293" lon="32.3825523"><ele>299.9</ele><time>2015-04-25T10:25:35.0000000+00:00</time></trkpt><trkpt lat="34.9999839" lon="32.3825293"><ele>300.8</ele><time>2015-04-25T10:25:38.0000000+00:00</time></trkpt><trkpt lat="34.9999394" lon="32.3825023"><ele>301.3</ele><time>2015-04-25T10:25:41.0000000+00:00</time></trkpt><trkpt lat="34.9998907" lon="32.3824696"><ele>301.1</ele><time>2015-04-25T10:25:44.0000000+00:00</time></trkpt><trkpt lat="34.9998465" lon="32.3824374"><ele>301.7</ele><time>2015-04-25T10:25:46.0000000+00:00</time></trkpt><trkpt lat="34.9998001" lon="32.3824041"><ele>302.4</ele><time>2015-04-25T10:25:48.0000000+00:00</time></trkpt><trkpt lat="34.9997568" lon="32.3823725"><ele>302.8</ele><time>2015-04-25T10:25:50.0000000+00:00</time></trkpt><trkpt lat="34.9997142" lon="32.3823391"><ele>304.1</ele><time>2015-04-25T10:25:52.0000000+00:00</time></trkpt><trkpt lat="34.9996749" lon="32.3823058"><ele>305.2</ele><time>2015-04-25T10:25:54.0000000+00:00</time></trkpt><trkpt lat="34.9996403" lon="32.38227"><ele>306.5</ele><time>2015-04-25T10:25:56.0000000+00:00</time></trkpt><trkpt lat="34.9995974" lon="32.3822277"><ele>306.9</ele><time>2015-04-25T10:25:59.0000000+00:00</time></trkpt><trkpt lat="34.9995526" lon="32.3821994"><ele>307.2</ele><time>2015-04-25T10:26:02.0000000+00:00</time></trkpt><trkpt lat="34.9995083" lon="32.382172"><ele>307.8</ele><time>2015-04-25T10:26:05.0000000+00:00</time></trkpt><trkpt lat="34.9994753" lon="32.3821292"><ele>308.4</ele><time>2015-04-25T10:26:08.0000000+00:00</time></trkpt><trkpt lat="34.9994351" lon="32.3820909"><ele>309.7</ele><time>2015-04-25T10:26:11.0000000+00:00</time></trkpt><trkpt lat="34.9994028" lon="32.3820441"><ele>309.2</ele><time>2015-04-25T10:26:14.0000000+00:00</time></trkpt><trkpt lat="34.999372" lon="32.3819896"><ele>309.7</ele><time>2015-04-25T10:26:17.0000000+00:00</time></trkpt><trkpt lat="34.9993294" lon="32.3819422"><ele>310.2</ele><time>2015-04-25T10:26:20.0000000+00:00</time></trkpt><trkpt lat="34.9992812" lon="32.3819075"><ele>310.0</ele><time>2015-04-25T10:26:23.0000000+00:00</time></trkpt><trkpt lat="34.999235" lon="32.3818824"><ele>309.9</ele><time>2015-04-25T10:26:26.0000000+00:00</time></trkpt><trkpt lat="34.9991877" lon="32.3818554"><ele>309.7</ele><time>2015-04-25T10:26:29.0000000+00:00</time></trkpt><trkpt lat="34.9991398" lon="32.3818257"><ele>311.3</ele><time>2015-04-25T10:26:32.0000000+00:00</time></trkpt><trkpt lat="34.9990933" lon="32.38179"><ele>311.0</ele><time>2015-04-25T10:26:35.0000000+00:00</time></trkpt><trkpt lat="34.9990489" lon="32.3817466"><ele>311.4</ele><time>2015-04-25T10:26:38.0000000+00:00</time></trkpt><trkpt lat="34.9990094" lon="32.3817079"><ele>312.1</ele><time>2015-04-25T10:26:41.0000000+00:00</time></trkpt><trkpt lat="34.9989743" lon="32.3816708"><ele>312.5</ele><time>2015-04-25T10:26:44.0000000+00:00</time></trkpt><trkpt lat="34.9989386" lon="32.381637"><ele>312.9</ele><time>2015-04-25T10:26:47.0000000+00:00</time></trkpt><trkpt lat="34.9988911" lon="32.3816246"><ele>313.4</ele><time>2015-04-25T10:26:51.0000000+00:00</time></trkpt><trkpt lat="34.9988926" lon="32.3816826"><ele>308.3</ele><time>2015-04-25T10:27:27.0000000+00:00</time></trkpt><trkpt lat="34.9988486" lon="32.3816597"><ele>308.1</ele><time>2015-04-25T10:28:11.0000000+00:00</time></trkpt><trkpt lat="34.9987953" lon="32.3817009"><ele>307.7</ele><time>2015-04-25T10:28:15.0000000+00:00</time></trkpt><trkpt lat="34.9987482" lon="32.3817563"><ele>309.5</ele><time>2015-04-25T10:28:18.0000000+00:00</time></trkpt><trkpt lat="34.9987208" lon="32.3818148"><ele>310.8</ele><time>2015-04-25T10:28:21.0000000+00:00</time></trkpt><trkpt lat="34.9987059" lon="32.3818846"><ele>310.7</ele><time>2015-04-25T10:28:24.0000000+00:00</time></trkpt><trkpt lat="34.9986773" lon="32.3819575"><ele>310.0</ele><time>2015-04-25T10:28:27.0000000+00:00</time></trkpt><trkpt lat="34.9986638" lon="32.3820106"><ele>310.0</ele><time>2015-04-25T10:28:29.0000000+00:00</time></trkpt><trkpt lat="34.9986544" lon="32.3820815"><ele>309.9</ele><time>2015-04-25T10:28:32.0000000+00:00</time></trkpt><trkpt lat="34.9986406" lon="32.3821532"><ele>310.7</ele><time>2015-04-25T10:28:35.0000000+00:00</time></trkpt><trkpt lat="34.998623" lon="32.3822048"><ele>310.1</ele><time>2015-04-25T10:28:37.0000000+00:00</time></trkpt><trkpt lat="34.9986037" lon="32.3822834"><ele>310.7</ele><time>2015-04-25T10:28:40.0000000+00:00</time></trkpt><trkpt lat="34.9985892" lon="32.3823378"><ele>310.9</ele><time>2015-04-25T10:28:42.0000000+00:00</time></trkpt><trkpt lat="34.9985756" lon="32.3823904"><ele>310.9</ele><time>2015-04-25T10:28:44.0000000+00:00</time></trkpt><trkpt lat="34.998554" lon="32.382466"><ele>310.1</ele><time>2015-04-25T10:28:47.0000000+00:00</time></trkpt><trkpt lat="34.9985385" lon="32.3825422"><ele>310.8</ele><time>2015-04-25T10:28:50.0000000+00:00</time></trkpt><trkpt lat="34.9985317" lon="32.3826192"><ele>310.4</ele><time>2015-04-25T10:28:53.0000000+00:00</time></trkpt><trkpt lat="34.9985223" lon="32.3826904"><ele>310.1</ele><time>2015-04-25T10:28:56.0000000+00:00</time></trkpt><trkpt lat="34.9985095" lon="32.3827552"><ele>310.5</ele><time>2015-04-25T10:28:59.0000000+00:00</time></trkpt><trkpt lat="34.9984914" lon="32.3828228"><ele>311.7</ele><time>2015-04-25T10:29:02.0000000+00:00</time></trkpt><trkpt lat="34.9984631" lon="32.3828829"><ele>312.3</ele><time>2015-04-25T10:29:05.0000000+00:00</time></trkpt><trkpt lat="34.9984457" lon="32.3829453"><ele>312.6</ele><time>2015-04-25T10:29:08.0000000+00:00</time></trkpt><trkpt lat="34.9984255" lon="32.3830026"><ele>312.9</ele><time>2015-04-25T10:29:11.0000000+00:00</time></trkpt><trkpt lat="34.9983997" lon="32.3830688"><ele>313.4</ele><time>2015-04-25T10:29:15.0000000+00:00</time></trkpt><trkpt lat="34.9983694" lon="32.3831319"><ele>313.9</ele><time>2015-04-25T10:29:18.0000000+00:00</time></trkpt><trkpt lat="34.9983345" lon="32.383181"><ele>314.4</ele><time>2015-04-25T10:29:21.0000000+00:00</time></trkpt><trkpt lat="34.9983168" lon="32.3831206"><ele>313.0</ele><time>2015-04-25T10:31:19.0000000+00:00</time></trkpt><trkpt lat="34.9983611" lon="32.383073"><ele>312.2</ele><time>2015-04-25T10:31:23.0000000+00:00</time></trkpt><trkpt lat="34.998387" lon="32.3831404"><ele>311.5</ele><time>2015-04-25T10:31:26.0000000+00:00</time></trkpt><trkpt lat="34.9983543" lon="32.383194"><ele>311.1</ele><time>2015-04-25T10:31:28.0000000+00:00</time></trkpt><trkpt lat="34.9983172" lon="32.383244"><ele>310.7</ele><time>2015-04-25T10:31:30.0000000+00:00</time></trkpt><trkpt lat="34.9982852" lon="32.3833"><ele>310.6</ele><time>2015-04-25T10:31:32.0000000+00:00</time></trkpt><trkpt lat="34.9982477" lon="32.3833521"><ele>312.4</ele><time>2015-04-25T10:31:34.0000000+00:00</time></trkpt><trkpt lat="34.9982062" lon="32.383398"><ele>312.5</ele><time>2015-04-25T10:31:36.0000000+00:00</time></trkpt><trkpt lat="34.9981611" lon="32.3834388"><ele>312.6</ele><time>2015-04-25T10:31:38.0000000+00:00</time></trkpt><trkpt lat="34.9981154" lon="32.3834655"><ele>312.8</ele><time>2015-04-25T10:31:40.0000000+00:00</time></trkpt><trkpt lat="34.9980555" lon="32.3834975"><ele>314.0</ele><time>2015-04-25T10:31:43.0000000+00:00</time></trkpt><trkpt lat="34.9979938" lon="32.3835075"><ele>313.9</ele><time>2015-04-25T10:31:46.0000000+00:00</time></trkpt><trkpt lat="34.9979355" lon="32.3835154"><ele>314.8</ele><time>2015-04-25T10:31:49.0000000+00:00</time></trkpt><trkpt lat="34.9978858" lon="32.3835061"><ele>315.8</ele><time>2015-04-25T10:31:52.0000000+00:00</time></trkpt><trkpt lat="34.9978294" lon="32.3834894"><ele>316.4</ele><time>2015-04-25T10:31:56.0000000+00:00</time></trkpt><trkpt lat="34.9977869" lon="32.3834509"><ele>316.3</ele><time>2015-04-25T10:32:00.0000000+00:00</time></trkpt><trkpt lat="34.9977384" lon="32.3834336"><ele>316.9</ele><time>2015-04-25T10:32:04.0000000+00:00</time></trkpt><trkpt lat="34.9976866" lon="32.3834109"><ele>317.4</ele><time>2015-04-25T10:32:08.0000000+00:00</time></trkpt><trkpt lat="34.9976404" lon="32.3834018"><ele>317.9</ele><time>2015-04-25T10:32:11.0000000+00:00</time></trkpt><trkpt lat="34.9975966" lon="32.383377"><ele>317.9</ele><time>2015-04-25T10:32:14.0000000+00:00</time></trkpt><trkpt lat="34.9975578" lon="32.3833405"><ele>317.7</ele><time>2015-04-25T10:32:17.0000000+00:00</time></trkpt><trkpt lat="34.9975172" lon="32.3833056"><ele>317.9</ele><time>2015-04-25T10:32:20.0000000+00:00</time></trkpt><trkpt lat="34.9974755" lon="32.3832676"><ele>318.8</ele><time>2015-04-25T10:32:23.0000000+00:00</time></trkpt><trkpt lat="34.9974329" lon="32.3832302"><ele>319.4</ele><time>2015-04-25T10:32:26.0000000+00:00</time></trkpt><trkpt lat="34.9973813" lon="32.3832019"><ele>320.4</ele><time>2015-04-25T10:32:29.0000000+00:00</time></trkpt><trkpt lat="34.9973264" lon="32.3831759"><ele>321.6</ele><time>2015-04-25T10:32:32.0000000+00:00</time></trkpt><trkpt lat="34.9972734" lon="32.3831481"><ele>322.4</ele><time>2015-04-25T10:32:35.0000000+00:00</time></trkpt><trkpt lat="34.9972219" lon="32.3831138"><ele>322.9</ele><time>2015-04-25T10:32:38.0000000+00:00</time></trkpt><trkpt lat="34.9971704" lon="32.3830923"><ele>323.8</ele><time>2015-04-25T10:32:41.0000000+00:00</time></trkpt><trkpt lat="34.9971186" lon="32.3830822"><ele>324.9</ele><time>2015-04-25T10:32:44.0000000+00:00</time></trkpt><trkpt lat="34.997067" lon="32.3830662"><ele>326.6</ele><time>2015-04-25T10:32:47.0000000+00:00</time></trkpt><trkpt lat="34.9970092" lon="32.3830455"><ele>328.3</ele><time>2015-04-25T10:32:50.0000000+00:00</time></trkpt><trkpt lat="34.9969573" lon="32.3830164"><ele>328.6</ele><time>2015-04-25T10:32:53.0000000+00:00</time></trkpt><trkpt lat="34.9969082" lon="32.3829941"><ele>328.0</ele><time>2015-04-25T10:32:56.0000000+00:00</time></trkpt><trkpt lat="34.9968636" lon="32.3829565"><ele>327.9</ele><time>2015-04-25T10:32:59.0000000+00:00</time></trkpt><trkpt lat="34.9968218" lon="32.382912"><ele>327.1</ele><time>2015-04-25T10:33:02.0000000+00:00</time></trkpt><trkpt lat="34.9967852" lon="32.3828626"><ele>327.2</ele><time>2015-04-25T10:33:05.0000000+00:00</time></trkpt><trkpt lat="34.9967599" lon="32.3828091"><ele>327.2</ele><time>2015-04-25T10:33:08.0000000+00:00</time></trkpt><trkpt lat="34.9967451" lon="32.3827552"><ele>325.2</ele><time>2015-04-25T10:33:11.0000000+00:00</time></trkpt><trkpt lat="34.9967456" lon="32.3826977"><ele>324.2</ele><time>2015-04-25T10:33:14.0000000+00:00</time></trkpt><trkpt lat="34.9967488" lon="32.3826397"><ele>324.0</ele><time>2015-04-25T10:33:17.0000000+00:00</time></trkpt><trkpt lat="34.9967551" lon="32.3825812"><ele>323.8</ele><time>2015-04-25T10:33:20.0000000+00:00</time></trkpt><trkpt lat="34.996758" lon="32.3825199"><ele>324.8</ele><time>2015-04-25T10:33:23.0000000+00:00</time></trkpt><trkpt lat="34.9967698" lon="32.3824545"><ele>325.7</ele><time>2015-04-25T10:33:26.0000000+00:00</time></trkpt><trkpt lat="34.9967932" lon="32.3823925"><ele>325.1</ele><time>2015-04-25T10:33:29.0000000+00:00</time></trkpt><trkpt lat="34.996819" lon="32.3823266"><ele>324.2</ele><time>2015-04-25T10:33:32.0000000+00:00</time></trkpt><trkpt lat="34.9968419" lon="32.3822605"><ele>324.7</ele><time>2015-04-25T10:33:35.0000000+00:00</time></trkpt><trkpt lat="34.9968457" lon="32.3821913"><ele>324.9</ele><time>2015-04-25T10:33:38.0000000+00:00</time></trkpt><trkpt lat="34.9968284" lon="32.3821332"><ele>325.4</ele><time>2015-04-25T10:33:41.0000000+00:00</time></trkpt><trkpt lat="34.9967934" lon="32.3820835"><ele>326.3</ele><time>2015-04-25T10:33:45.0000000+00:00</time></trkpt><trkpt lat="34.9967395" lon="32.382109"><ele>326.4</ele><time>2015-04-25T10:33:49.0000000+00:00</time></trkpt><trkpt lat="34.9967108" lon="32.3821724"><ele>326.4</ele><time>2015-04-25T10:33:52.0000000+00:00</time></trkpt><trkpt lat="34.996681" lon="32.3822257"><ele>326.9</ele><time>2015-04-25T10:33:55.0000000+00:00</time></trkpt><trkpt lat="34.9966555" lon="32.3822872"><ele>328.3</ele><time>2015-04-25T10:33:58.0000000+00:00</time></trkpt><trkpt lat="34.9966208" lon="32.3823382"><ele>329.9</ele><time>2015-04-25T10:34:01.0000000+00:00</time></trkpt><trkpt lat="34.9965874" lon="32.3823914"><ele>330.7</ele><time>2015-04-25T10:34:04.0000000+00:00</time></trkpt><trkpt lat="34.9965534" lon="32.3824418"><ele>331.8</ele><time>2015-04-25T10:34:07.0000000+00:00</time></trkpt><trkpt lat="34.9965138" lon="32.3824716"><ele>331.7</ele><time>2015-04-25T10:34:10.0000000+00:00</time></trkpt><trkpt lat="34.9964604" lon="32.3824974"><ele>331.0</ele><time>2015-04-25T10:34:14.0000000+00:00</time></trkpt><trkpt lat="34.9964143" lon="32.3825102"><ele>332.6</ele><time>2015-04-25T10:34:17.0000000+00:00</time></trkpt><trkpt lat="34.9963732" lon="32.3825357"><ele>332.9</ele><time>2015-04-25T10:34:20.0000000+00:00</time></trkpt><trkpt lat="34.9963247" lon="32.3825456"><ele>334.3</ele><time>2015-04-25T10:34:24.0000000+00:00</time></trkpt><trkpt lat="34.9962796" lon="32.3825575"><ele>337.0</ele><time>2015-04-25T10:34:28.0000000+00:00</time></trkpt><trkpt lat="34.9962318" lon="32.382555"><ele>338.6</ele><time>2015-04-25T10:34:32.0000000+00:00</time></trkpt><trkpt lat="34.9961712" lon="32.3825654"><ele>340.3</ele><time>2015-04-25T10:34:36.0000000+00:00</time></trkpt><trkpt lat="34.9961208" lon="32.3825636"><ele>340.1</ele><time>2015-04-25T10:34:39.0000000+00:00</time></trkpt><trkpt lat="34.9960676" lon="32.3825524"><ele>340.8</ele><time>2015-04-25T10:34:42.0000000+00:00</time></trkpt><trkpt lat="34.9960151" lon="32.3825433"><ele>340.9</ele><time>2015-04-25T10:34:45.0000000+00:00</time></trkpt><trkpt lat="34.9959565" lon="32.3825308"><ele>341.8</ele><time>2015-04-25T10:34:48.0000000+00:00</time></trkpt><trkpt lat="34.9959028" lon="32.3825218"><ele>341.9</ele><time>2015-04-25T10:34:51.0000000+00:00</time></trkpt><trkpt lat="34.9958523" lon="32.382514"><ele>341.9</ele><time>2015-04-25T10:34:54.0000000+00:00</time></trkpt><trkpt lat="34.9958027" lon="32.3825043"><ele>342.8</ele><time>2015-04-25T10:34:57.0000000+00:00</time></trkpt><trkpt lat="34.9957771" lon="32.382446"><ele>341.5</ele><time>2015-04-25T10:35:00.0000000+00:00</time></trkpt><trkpt lat="34.995761" lon="32.3823835"><ele>341.5</ele><time>2015-04-25T10:35:03.0000000+00:00</time></trkpt><trkpt lat="34.9957387" lon="32.3824432"><ele>339.4</ele><time>2015-04-25T10:35:23.0000000+00:00</time></trkpt><trkpt lat="34.9957112" lon="32.382497"><ele>339.7</ele><time>2015-04-25T10:35:27.0000000+00:00</time></trkpt><trkpt lat="34.9956663" lon="32.3825134"><ele>339.9</ele><time>2015-04-25T10:35:30.0000000+00:00</time></trkpt><trkpt lat="34.995616" lon="32.38252"><ele>339.9</ele><time>2015-04-25T10:35:32.0000000+00:00</time></trkpt><trkpt lat="34.995571" lon="32.3825368"><ele>339.9</ele><time>2015-04-25T10:35:34.0000000+00:00</time></trkpt><trkpt lat="34.9955073" lon="32.3825608"><ele>340.8</ele><time>2015-04-25T10:35:37.0000000+00:00</time></trkpt><trkpt lat="34.9954428" lon="32.3825772"><ele>341.7</ele><time>2015-04-25T10:35:40.0000000+00:00</time></trkpt><trkpt lat="34.9953767" lon="32.3825885"><ele>342.4</ele><time>2015-04-25T10:35:43.0000000+00:00</time></trkpt><trkpt lat="34.9953136" lon="32.3825826"><ele>342.9</ele><time>2015-04-25T10:35:46.0000000+00:00</time></trkpt><trkpt lat="34.9952565" lon="32.382562"><ele>343.4</ele><time>2015-04-25T10:35:49.0000000+00:00</time></trkpt><trkpt lat="34.9952037" lon="32.3825502"><ele>343.9</ele><time>2015-04-25T10:35:52.0000000+00:00</time></trkpt><trkpt lat="34.9951566" lon="32.3825358"><ele>344.5</ele><time>2015-04-25T10:35:55.0000000+00:00</time></trkpt><trkpt lat="34.9950999" lon="32.3825206"><ele>345.8</ele><time>2015-04-25T10:35:58.0000000+00:00</time></trkpt><trkpt lat="34.9950361" lon="32.382509"><ele>345.9</ele><time>2015-04-25T10:36:01.0000000+00:00</time></trkpt><trkpt lat="34.9949717" lon="32.3824994"><ele>346.7</ele><time>2015-04-25T10:36:04.0000000+00:00</time></trkpt><trkpt lat="34.9949072" lon="32.3825082"><ele>347.8</ele><time>2015-04-25T10:36:07.0000000+00:00</time></trkpt><trkpt lat="34.9948488" lon="32.3825051"><ele>347.9</ele><time>2015-04-25T10:36:10.0000000+00:00</time></trkpt><trkpt lat="34.9947932" lon="32.382502"><ele>349.3</ele><time>2015-04-25T10:36:13.0000000+00:00</time></trkpt><trkpt lat="34.9947382" lon="32.3824923"><ele>349.9</ele><time>2015-04-25T10:36:16.0000000+00:00</time></trkpt><trkpt lat="34.9946872" lon="32.3824751"><ele>350.8</ele><time>2015-04-25T10:36:19.0000000+00:00</time></trkpt><trkpt lat="34.9946366" lon="32.38246"><ele>350.9</ele><time>2015-04-25T10:36:22.0000000+00:00</time></trkpt><trkpt lat="34.9945905" lon="32.3824358"><ele>351.7</ele><time>2015-04-25T10:36:25.0000000+00:00</time></trkpt><trkpt lat="34.9945419" lon="32.3824034"><ele>352.4</ele><time>2015-04-25T10:36:28.0000000+00:00</time></trkpt><trkpt lat="34.994494" lon="32.3823706"><ele>352.5</ele><time>2015-04-25T10:36:31.0000000+00:00</time></trkpt><trkpt lat="34.9944475" lon="32.382329"><ele>353.5</ele><time>2015-04-25T10:36:34.0000000+00:00</time></trkpt><trkpt lat="34.994404" lon="32.3822717"><ele>353.9</ele><time>2015-04-25T10:36:37.0000000+00:00</time></trkpt><trkpt lat="34.9943592" lon="32.3822164"><ele>354.8</ele><time>2015-04-25T10:36:40.0000000+00:00</time></trkpt><trkpt lat="34.9943284" lon="32.3821746"><ele>355.4</ele><time>2015-04-25T10:36:42.0000000+00:00</time></trkpt><trkpt lat="34.9943004" lon="32.3821299"><ele>355.8</ele><time>2015-04-25T10:36:44.0000000+00:00</time></trkpt><trkpt lat="34.9942715" lon="32.3820863"><ele>355.9</ele><time>2015-04-25T10:36:46.0000000+00:00</time></trkpt><trkpt lat="34.9942457" lon="32.3820402"><ele>356.7</ele><time>2015-04-25T10:36:48.0000000+00:00</time></trkpt><trkpt lat="34.9942224" lon="32.3819897"><ele>357.4</ele><time>2015-04-25T10:36:50.0000000+00:00</time></trkpt><trkpt lat="34.9942004" lon="32.3819172"><ele>357.5</ele><time>2015-04-25T10:36:53.0000000+00:00</time></trkpt><trkpt lat="34.9941809" lon="32.3818513"><ele>357.9</ele><time>2015-04-25T10:36:56.0000000+00:00</time></trkpt><trkpt lat="34.9941737" lon="32.3817783"><ele>358.8</ele><time>2015-04-25T10:36:59.0000000+00:00</time></trkpt><trkpt lat="34.9941677" lon="32.3817234"><ele>359.4</ele><time>2015-04-25T10:37:01.0000000+00:00</time></trkpt><trkpt lat="34.9941626" lon="32.3816642"><ele>359.8</ele><time>2015-04-25T10:37:03.0000000+00:00</time></trkpt><trkpt lat="34.994155" lon="32.3815849"><ele>359.9</ele><time>2015-04-25T10:37:06.0000000+00:00</time></trkpt><trkpt lat="34.9941447" lon="32.3815292"><ele>360.4</ele><time>2015-04-25T10:37:08.0000000+00:00</time></trkpt><trkpt lat="34.9941238" lon="32.3814732"><ele>360.8</ele><time>2015-04-25T10:37:10.0000000+00:00</time></trkpt><trkpt lat="34.9941034" lon="32.3814185"><ele>360.9</ele><time>2015-04-25T10:37:12.0000000+00:00</time></trkpt><trkpt lat="34.9940827" lon="32.3813671"><ele>360.9</ele><time>2015-04-25T10:37:14.0000000+00:00</time></trkpt><trkpt lat="34.994054" lon="32.3813209"><ele>361.4</ele><time>2015-04-25T10:37:16.0000000+00:00</time></trkpt><trkpt lat="34.9940243" lon="32.3812744"><ele>361.8</ele><time>2015-04-25T10:37:18.0000000+00:00</time></trkpt><trkpt lat="34.9939949" lon="32.3812259"><ele>362.4</ele><time>2015-04-25T10:37:20.0000000+00:00</time></trkpt><trkpt lat="34.9939603" lon="32.381188"><ele>362.8</ele><time>2015-04-25T10:37:22.0000000+00:00</time></trkpt><trkpt lat="34.993911" lon="32.3811572"><ele>363.4</ele><time>2015-04-25T10:37:25.0000000+00:00</time></trkpt><trkpt lat="34.9938581" lon="32.3811273"><ele>364.6</ele><time>2015-04-25T10:37:28.0000000+00:00</time></trkpt><trkpt lat="34.9938045" lon="32.3811072"><ele>365.8</ele><time>2015-04-25T10:37:31.0000000+00:00</time></trkpt><trkpt lat="34.9937477" lon="32.3810971"><ele>365.9</ele><time>2015-04-25T10:37:34.0000000+00:00</time></trkpt><trkpt lat="34.9936938" lon="32.3810825"><ele>366.7</ele><time>2015-04-25T10:37:37.0000000+00:00</time></trkpt><trkpt lat="34.9936371" lon="32.3810623"><ele>367.4</ele><time>2015-04-25T10:37:40.0000000+00:00</time></trkpt><trkpt lat="34.993581" lon="32.3810381"><ele>367.9</ele><time>2015-04-25T10:37:43.0000000+00:00</time></trkpt><trkpt lat="34.9935237" lon="32.3810109"><ele>368.7</ele><time>2015-04-25T10:37:46.0000000+00:00</time></trkpt><trkpt lat="34.9934636" lon="32.3809866"><ele>369.8</ele><time>2015-04-25T10:37:49.0000000+00:00</time></trkpt><trkpt lat="34.9934079" lon="32.3809614"><ele>369.9</ele><time>2015-04-25T10:37:52.0000000+00:00</time></trkpt><trkpt lat="34.99336" lon="32.3809263"><ele>369.9</ele><time>2015-04-25T10:37:55.0000000+00:00</time></trkpt><trkpt lat="34.9933089" lon="32.380895"><ele>370.8</ele><time>2015-04-25T10:37:58.0000000+00:00</time></trkpt><trkpt lat="34.9932556" lon="32.3808672"><ele>371.4</ele><time>2015-04-25T10:38:02.0000000+00:00</time></trkpt><trkpt lat="34.9932101" lon="32.3808377"><ele>371.4</ele><time>2015-04-25T10:38:06.0000000+00:00</time></trkpt><trkpt lat="34.9931608" lon="32.3808087"><ele>371.8</ele><time>2015-04-25T10:38:10.0000000+00:00</time></trkpt><trkpt lat="34.9931167" lon="32.3807656"><ele>372.9</ele><time>2015-04-25T10:38:14.0000000+00:00</time></trkpt><trkpt lat="34.9930685" lon="32.3807328"><ele>372.9</ele><time>2015-04-25T10:38:18.0000000+00:00</time></trkpt><trkpt lat="34.9930202" lon="32.3806905"><ele>373.8</ele><time>2015-04-25T10:38:22.0000000+00:00</time></trkpt><trkpt lat="34.9929806" lon="32.380656"><ele>374.8</ele><time>2015-04-25T10:38:25.0000000+00:00</time></trkpt><trkpt lat="34.9929383" lon="32.3806235"><ele>374.9</ele><time>2015-04-25T10:38:28.0000000+00:00</time></trkpt><trkpt lat="34.9929002" lon="32.380573"><ele>374.9</ele><time>2015-04-25T10:38:31.0000000+00:00</time></trkpt><trkpt lat="34.9928639" lon="32.3805279"><ele>374.9</ele><time>2015-04-25T10:38:34.0000000+00:00</time></trkpt><trkpt lat="34.992824" lon="32.3804872"><ele>374.9</ele><time>2015-04-25T10:38:37.0000000+00:00</time></trkpt><trkpt lat="34.9927883" lon="32.3804489"><ele>374.9</ele><time>2015-04-25T10:38:40.0000000+00:00</time></trkpt><trkpt lat="34.9927442" lon="32.3803985"><ele>375.8</ele><time>2015-04-25T10:38:44.0000000+00:00</time></trkpt><trkpt lat="34.9927149" lon="32.3803548"><ele>375.9</ele><time>2015-04-25T10:38:47.0000000+00:00</time></trkpt><trkpt lat="34.9926841" lon="32.3803137"><ele>376.7</ele><time>2015-04-25T10:38:50.0000000+00:00</time></trkpt><trkpt lat="34.9926446" lon="32.380275"><ele>376.0</ele><time>2015-04-25T10:38:54.0000000+00:00</time></trkpt><trkpt lat="34.9926071" lon="32.3802366"><ele>376.2</ele><time>2015-04-25T10:38:59.0000000+00:00</time></trkpt><trkpt lat="34.9925799" lon="32.3801807"><ele>374.9</ele><time>2015-04-25T10:39:05.0000000+00:00</time></trkpt><trkpt lat="34.9925415" lon="32.3801476"><ele>378.1</ele><time>2015-04-25T10:43:24.0000000+00:00</time></trkpt><trkpt lat="34.9925914" lon="32.3801604"><ele>377.2</ele><time>2015-04-25T10:43:42.0000000+00:00</time></trkpt><trkpt lat="34.9925451" lon="32.3801846"><ele>376.9</ele><time>2015-04-25T10:43:47.0000000+00:00</time></trkpt><trkpt lat="34.9925156" lon="32.3801268"><ele>375.3</ele><time>2015-04-25T10:43:51.0000000+00:00</time></trkpt><trkpt lat="34.9924777" lon="32.3800783"><ele>375.7</ele><time>2015-04-25T10:43:55.0000000+00:00</time></trkpt><trkpt lat="34.9924419" lon="32.380023"><ele>375.9</ele><time>2015-04-25T10:43:59.0000000+00:00</time></trkpt><trkpt lat="34.9924038" lon="32.3799751"><ele>377.7</ele><time>2015-04-25T10:44:03.0000000+00:00</time></trkpt><trkpt lat="34.992361" lon="32.3799277"><ele>377.9</ele><time>2015-04-25T10:44:07.0000000+00:00</time></trkpt><trkpt lat="34.9923299" lon="32.3798742"><ele>378.7</ele><time>2015-04-25T10:44:11.0000000+00:00</time></trkpt><trkpt lat="34.9922984" lon="32.3798342"><ele>378.5</ele><time>2015-04-25T10:44:14.0000000+00:00</time></trkpt><trkpt lat="34.9922522" lon="32.3797914"><ele>378.9</ele><time>2015-04-25T10:44:18.0000000+00:00</time></trkpt><trkpt lat="34.9922026" lon="32.3797597"><ele>379.9</ele><time>2015-04-25T10:44:22.0000000+00:00</time></trkpt><trkpt lat="34.9921575" lon="32.379725"><ele>380.4</ele><time>2015-04-25T10:44:26.0000000+00:00</time></trkpt><trkpt lat="34.992118" lon="32.3796855"><ele>381.6</ele><time>2015-04-25T10:44:30.0000000+00:00</time></trkpt><trkpt lat="34.9920747" lon="32.3796535"><ele>381.7</ele><time>2015-04-25T10:44:34.0000000+00:00</time></trkpt><trkpt lat="34.9920254" lon="32.3796216"><ele>382.0</ele><time>2015-04-25T10:44:38.0000000+00:00</time></trkpt><trkpt lat="34.9919893" lon="32.3795845"><ele>382.8</ele><time>2015-04-25T10:44:41.0000000+00:00</time></trkpt><trkpt lat="34.9919528" lon="32.3795494"><ele>383.8</ele><time>2015-04-25T10:44:44.0000000+00:00</time></trkpt><trkpt lat="34.9919174" lon="32.3795122"><ele>384.8</ele><time>2015-04-25T10:44:47.0000000+00:00</time></trkpt><trkpt lat="34.9918814" lon="32.3794742"><ele>385.7</ele><time>2015-04-25T10:44:50.0000000+00:00</time></trkpt><trkpt lat="34.9918455" lon="32.3794372"><ele>386.6</ele><time>2015-04-25T10:44:53.0000000+00:00</time></trkpt><trkpt lat="34.9918085" lon="32.3794052"><ele>387.6</ele><time>2015-04-25T10:44:56.0000000+00:00</time></trkpt><trkpt lat="34.9917598" lon="32.3793651"><ele>387.9</ele><time>2015-04-25T10:45:00.0000000+00:00</time></trkpt><trkpt lat="34.9917134" lon="32.3793231"><ele>388.7</ele><time>2015-04-25T10:45:04.0000000+00:00</time></trkpt><trkpt lat="34.9916829" lon="32.3792809"><ele>388.9</ele><time>2015-04-25T10:45:07.0000000+00:00</time></trkpt><trkpt lat="34.9916525" lon="32.3792368"><ele>389.8</ele><time>2015-04-25T10:45:10.0000000+00:00</time></trkpt><trkpt lat="34.9916158" lon="32.3791931"><ele>391.7</ele><time>2015-04-25T10:45:13.0000000+00:00</time></trkpt><trkpt lat="34.9915802" lon="32.3791518"><ele>392.1</ele><time>2015-04-25T10:45:16.0000000+00:00</time></trkpt><trkpt lat="34.9915496" lon="32.379109"><ele>391.2</ele><time>2015-04-25T10:45:19.0000000+00:00</time></trkpt><trkpt lat="34.9915147" lon="32.3790541"><ele>391.9</ele><time>2015-04-25T10:45:23.0000000+00:00</time></trkpt><trkpt lat="34.9914775" lon="32.3789985"><ele>393.4</ele><time>2015-04-25T10:45:27.0000000+00:00</time></trkpt><trkpt lat="34.9914424" lon="32.37895"><ele>395.1</ele><time>2015-04-25T10:45:31.0000000+00:00</time></trkpt><trkpt lat="34.9914024" lon="32.3788975"><ele>395.8</ele><time>2015-04-25T10:45:35.0000000+00:00</time></trkpt><trkpt lat="34.9913643" lon="32.3788498"><ele>396.1</ele><time>2015-04-25T10:45:39.0000000+00:00</time></trkpt><trkpt lat="34.9913298" lon="32.3787961"><ele>396.0</ele><time>2015-04-25T10:45:43.0000000+00:00</time></trkpt><trkpt lat="34.9912982" lon="32.3787428"><ele>395.0</ele><time>2015-04-25T10:45:47.0000000+00:00</time></trkpt><trkpt lat="34.9912598" lon="32.3786859"><ele>394.0</ele><time>2015-04-25T10:45:51.0000000+00:00</time></trkpt><trkpt lat="34.9912205" lon="32.3786407"><ele>395.1</ele><time>2015-04-25T10:45:55.0000000+00:00</time></trkpt><trkpt lat="34.9911853" lon="32.378589"><ele>395.4</ele><time>2015-04-25T10:45:59.0000000+00:00</time></trkpt><trkpt lat="34.99115" lon="32.3785468"><ele>395.3</ele><time>2015-04-25T10:46:03.0000000+00:00</time></trkpt><trkpt lat="34.9911118" lon="32.3785024"><ele>395.0</ele><time>2015-04-25T10:46:07.0000000+00:00</time></trkpt><trkpt lat="34.9910655" lon="32.3784581"><ele>396.3</ele><time>2015-04-25T10:46:11.0000000+00:00</time></trkpt><trkpt lat="34.9910246" lon="32.3784281"><ele>396.0</ele><time>2015-04-25T10:46:14.0000000+00:00</time></trkpt><trkpt lat="34.9909815" lon="32.3784127"><ele>395.4</ele><time>2015-04-25T10:46:17.0000000+00:00</time></trkpt><trkpt lat="34.9909321" lon="32.3784026"><ele>395.0</ele><time>2015-04-25T10:46:20.0000000+00:00</time></trkpt><trkpt lat="34.9908762" lon="32.3783925"><ele>394.8</ele><time>2015-04-25T10:46:23.0000000+00:00</time></trkpt><trkpt lat="34.9908188" lon="32.3783917"><ele>394.9</ele><time>2015-04-25T10:46:26.0000000+00:00</time></trkpt><trkpt lat="34.9907602" lon="32.3784019"><ele>395.7</ele><time>2015-04-25T10:46:29.0000000+00:00</time></trkpt><trkpt lat="34.9907028" lon="32.378416"><ele>395.9</ele><time>2015-04-25T10:46:32.0000000+00:00</time></trkpt><trkpt lat="34.9906506" lon="32.3784295"><ele>396.8</ele><time>2015-04-25T10:46:35.0000000+00:00</time></trkpt><trkpt lat="34.9905986" lon="32.3784374"><ele>397.0</ele><time>2015-04-25T10:46:38.0000000+00:00</time></trkpt><trkpt lat="34.9905477" lon="32.3784471"><ele>396.8</ele><time>2015-04-25T10:46:41.0000000+00:00</time></trkpt><trkpt lat="34.9904967" lon="32.3784643"><ele>397.7</ele><time>2015-04-25T10:46:44.0000000+00:00</time></trkpt><trkpt lat="34.990443" lon="32.3784802"><ele>398.8</ele><time>2015-04-25T10:46:47.0000000+00:00</time></trkpt><trkpt lat="34.9903895" lon="32.3784884"><ele>399.2</ele><time>2015-04-25T10:46:50.0000000+00:00</time></trkpt><trkpt lat="34.9903316" lon="32.3784893"><ele>400.3</ele><time>2015-04-25T10:46:53.0000000+00:00</time></trkpt><trkpt lat="34.990277" lon="32.3784979"><ele>401.0</ele><time>2015-04-25T10:46:56.0000000+00:00</time></trkpt><trkpt lat="34.9902241" lon="32.3785038"><ele>400.1</ele><time>2015-04-25T10:46:59.0000000+00:00</time></trkpt><trkpt lat="34.9901702" lon="32.3785147"><ele>400.3</ele><time>2015-04-25T10:47:02.0000000+00:00</time></trkpt><trkpt lat="34.9901183" lon="32.3785134"><ele>399.2</ele><time>2015-04-25T10:47:05.0000000+00:00</time></trkpt><trkpt lat="34.990067" lon="32.3785143"><ele>399.5</ele><time>2015-04-25T10:47:08.0000000+00:00</time></trkpt><trkpt lat="34.990017" lon="32.3785124"><ele>399.0</ele><time>2015-04-25T10:47:11.0000000+00:00</time></trkpt><trkpt lat="34.9899695" lon="32.3785109"><ele>398.9</ele><time>2015-04-25T10:47:14.0000000+00:00</time></trkpt><trkpt lat="34.9899229" lon="32.3785091"><ele>399.8</ele><time>2015-04-25T10:47:17.0000000+00:00</time></trkpt><trkpt lat="34.9898777" lon="32.3784977"><ele>399.9</ele><time>2015-04-25T10:47:20.0000000+00:00</time></trkpt><trkpt lat="34.9898227" lon="32.3784678"><ele>400.4</ele><time>2015-04-25T10:47:24.0000000+00:00</time></trkpt><trkpt lat="34.9897677" lon="32.3784534"><ele>401.8</ele><time>2015-04-25T10:47:28.0000000+00:00</time></trkpt><trkpt lat="34.9897111" lon="32.3784449"><ele>401.0</ele><time>2015-04-25T10:47:32.0000000+00:00</time></trkpt><trkpt lat="34.989661" lon="32.3784326"><ele>401.4</ele><time>2015-04-25T10:47:35.0000000+00:00</time></trkpt><trkpt lat="34.9896091" lon="32.3784062"><ele>402.1</ele><time>2015-04-25T10:47:38.0000000+00:00</time></trkpt><trkpt lat="34.989559" lon="32.3783896"><ele>402.3</ele><time>2015-04-25T10:47:41.0000000+00:00</time></trkpt><trkpt lat="34.9895121" lon="32.3783791"><ele>403.4</ele><time>2015-04-25T10:47:44.0000000+00:00</time></trkpt><trkpt lat="34.9894672" lon="32.3783771"><ele>404.4</ele><time>2015-04-25T10:47:47.0000000+00:00</time></trkpt><trkpt lat="34.9894182" lon="32.3783782"><ele>404.9</ele><time>2015-04-25T10:47:50.0000000+00:00</time></trkpt><trkpt lat="34.9893737" lon="32.378393"><ele>405.4</ele><time>2015-04-25T10:47:53.0000000+00:00</time></trkpt><trkpt lat="34.9893268" lon="32.3784371"><ele>405.9</ele><time>2015-04-25T10:47:57.0000000+00:00</time></trkpt><trkpt lat="34.9892902" lon="32.3784905"><ele>406.3</ele><time>2015-04-25T10:48:01.0000000+00:00</time></trkpt><trkpt lat="34.9892625" lon="32.3785504"><ele>407.5</ele><time>2015-04-25T10:48:05.0000000+00:00</time></trkpt><trkpt lat="34.9892401" lon="32.3786129"><ele>407.0</ele><time>2015-04-25T10:48:09.0000000+00:00</time></trkpt><trkpt lat="34.9892146" lon="32.3786788"><ele>407.1</ele><time>2015-04-25T10:48:13.0000000+00:00</time></trkpt><trkpt lat="34.9891742" lon="32.3787295"><ele>406.5</ele><time>2015-04-25T10:48:17.0000000+00:00</time></trkpt><trkpt lat="34.9891357" lon="32.3787598"><ele>406.1</ele><time>2015-04-25T10:48:20.0000000+00:00</time></trkpt><trkpt lat="34.9890943" lon="32.3787856"><ele>407.6</ele><time>2015-04-25T10:48:23.0000000+00:00</time></trkpt><trkpt lat="34.9890472" lon="32.3788221"><ele>408.0</ele><time>2015-04-25T10:48:27.0000000+00:00</time></trkpt><trkpt lat="34.9890041" lon="32.3788666"><ele>407.9</ele><time>2015-04-25T10:48:31.0000000+00:00</time></trkpt><trkpt lat="34.9889565" lon="32.3788837"><ele>409.1</ele><time>2015-04-25T10:48:34.0000000+00:00</time></trkpt><trkpt lat="34.9889104" lon="32.3789007"><ele>410.3</ele><time>2015-04-25T10:48:37.0000000+00:00</time></trkpt><trkpt lat="34.9888655" lon="32.3789232"><ele>410.1</ele><time>2015-04-25T10:48:40.0000000+00:00</time></trkpt><trkpt lat="34.9888105" lon="32.3789539"><ele>409.4</ele><time>2015-04-25T10:48:44.0000000+00:00</time></trkpt><trkpt lat="34.9887632" lon="32.3789613"><ele>411.1</ele><time>2015-04-25T10:48:47.0000000+00:00</time></trkpt><trkpt lat="34.9887121" lon="32.3789752"><ele>412.9</ele><time>2015-04-25T10:48:51.0000000+00:00</time></trkpt><trkpt lat="34.9886584" lon="32.3789891"><ele>413.4</ele><time>2015-04-25T10:48:55.0000000+00:00</time></trkpt><trkpt lat="34.9886133" lon="32.3789993"><ele>413.4</ele><time>2015-04-25T10:48:58.0000000+00:00</time></trkpt><trkpt lat="34.9885689" lon="32.3790187"><ele>413.0</ele><time>2015-04-25T10:49:01.0000000+00:00</time></trkpt><trkpt lat="34.9885253" lon="32.3790347"><ele>413.7</ele><time>2015-04-25T10:49:04.0000000+00:00</time></trkpt><trkpt lat="34.9884796" lon="32.3790385"><ele>413.9</ele><time>2015-04-25T10:49:07.0000000+00:00</time></trkpt><trkpt lat="34.9884325" lon="32.379044"><ele>414.8</ele><time>2015-04-25T10:49:10.0000000+00:00</time></trkpt><trkpt lat="34.9883808" lon="32.3790458"><ele>416.5</ele><time>2015-04-25T10:49:13.0000000+00:00</time></trkpt><trkpt lat="34.988336" lon="32.3790513"><ele>416.5</ele><time>2015-04-25T10:49:16.0000000+00:00</time></trkpt><trkpt lat="34.9882901" lon="32.379051"><ele>416.4</ele><time>2015-04-25T10:49:19.0000000+00:00</time></trkpt><trkpt lat="34.9882414" lon="32.3790533"><ele>416.0</ele><time>2015-04-25T10:49:22.0000000+00:00</time></trkpt><trkpt lat="34.988192" lon="32.3790521"><ele>417.2</ele><time>2015-04-25T10:49:25.0000000+00:00</time></trkpt><trkpt lat="34.9881433" lon="32.3790495"><ele>417.7</ele><time>2015-04-25T10:49:28.0000000+00:00</time></trkpt><trkpt lat="34.9880983" lon="32.3790557"><ele>419.3</ele><time>2015-04-25T10:49:31.0000000+00:00</time></trkpt><trkpt lat="34.9880536" lon="32.3790616"><ele>418.4</ele><time>2015-04-25T10:51:20.0000000+00:00</time></trkpt><trkpt lat="34.9879956" lon="32.3790758"><ele>418.7</ele><time>2015-04-25T10:51:25.0000000+00:00</time></trkpt><trkpt lat="34.9879484" lon="32.3790883"><ele>420.3</ele><time>2015-04-25T10:51:28.0000000+00:00</time></trkpt><trkpt lat="34.9878942" lon="32.3790982"><ele>420.8</ele><time>2015-04-25T10:51:31.0000000+00:00</time></trkpt><trkpt lat="34.9878386" lon="32.3791118"><ele>420.5</ele><time>2015-04-25T10:51:34.0000000+00:00</time></trkpt><trkpt lat="34.9877899" lon="32.3791265"><ele>420.1</ele><time>2015-04-25T10:51:37.0000000+00:00</time></trkpt><trkpt lat="34.9877426" lon="32.3791455"><ele>420.7</ele><time>2015-04-25T10:51:40.0000000+00:00</time></trkpt><trkpt lat="34.9876946" lon="32.3791613"><ele>420.8</ele><time>2015-04-25T10:51:43.0000000+00:00</time></trkpt><trkpt lat="34.987643" lon="32.3791698"><ele>421.7</ele><time>2015-04-25T10:51:46.0000000+00:00</time></trkpt><trkpt lat="34.9875987" lon="32.3791829"><ele>421.0</ele><time>2015-04-25T10:51:49.0000000+00:00</time></trkpt><trkpt lat="34.9875529" lon="32.3791955"><ele>419.1</ele><time>2015-04-25T10:59:57.0000000+00:00</time></trkpt><trkpt lat="34.9875091" lon="32.3792328"><ele>419.9</ele><time>2015-04-25T11:00:01.0000000+00:00</time></trkpt><trkpt lat="34.9874828" lon="32.3792894"><ele>421.7</ele><time>2015-04-25T11:00:05.0000000+00:00</time></trkpt><trkpt lat="34.9874735" lon="32.3793442"><ele>422.8</ele><time>2015-04-25T11:00:08.0000000+00:00</time></trkpt><trkpt lat="34.9874642" lon="32.379417"><ele>422.2</ele><time>2015-04-25T11:00:12.0000000+00:00</time></trkpt><trkpt lat="34.9874552" lon="32.3794739"><ele>422.5</ele><time>2015-04-25T11:00:15.0000000+00:00</time></trkpt><trkpt lat="34.9874448" lon="32.3795326"><ele>423.4</ele><time>2015-04-25T11:00:18.0000000+00:00</time></trkpt><trkpt lat="34.9874328" lon="32.3795893"><ele>423.1</ele><time>2015-04-25T11:00:21.0000000+00:00</time></trkpt><trkpt lat="34.9874114" lon="32.379645"><ele>424.6</ele><time>2015-04-25T11:00:24.0000000+00:00</time></trkpt><trkpt lat="34.9873902" lon="32.379698"><ele>425.4</ele><time>2015-04-25T11:00:27.0000000+00:00</time></trkpt><trkpt lat="34.9873581" lon="32.3797438"><ele>426.4</ele><time>2015-04-25T11:00:30.0000000+00:00</time></trkpt><trkpt lat="34.9873212" lon="32.3797826"><ele>426.4</ele><time>2015-04-25T11:00:33.0000000+00:00</time></trkpt><trkpt lat="34.9872855" lon="32.3798197"><ele>426.5</ele><time>2015-04-25T11:00:36.0000000+00:00</time></trkpt><trkpt lat="34.9872376" lon="32.3798586"><ele>428.3</ele><time>2015-04-25T11:00:40.0000000+00:00</time></trkpt><trkpt lat="34.9871932" lon="32.3798866"><ele>428.5</ele><time>2015-04-25T11:00:44.0000000+00:00</time></trkpt><trkpt lat="34.9871519" lon="32.3799242"><ele>428.6</ele><time>2015-04-25T11:00:48.0000000+00:00</time></trkpt><trkpt lat="34.9871041" lon="32.3799598"><ele>428.3</ele><time>2015-04-25T11:00:52.0000000+00:00</time></trkpt><trkpt lat="34.9870639" lon="32.3799891"><ele>428.9</ele><time>2015-04-25T11:00:55.0000000+00:00</time></trkpt><trkpt lat="34.9870139" lon="32.380004"><ele>429.8</ele><time>2015-04-25T11:00:58.0000000+00:00</time></trkpt><trkpt lat="34.9869608" lon="32.3800196"><ele>429.9</ele><time>2015-04-25T11:01:01.0000000+00:00</time></trkpt><trkpt lat="34.9869073" lon="32.3800284"><ele>430.7</ele><time>2015-04-25T11:01:04.0000000+00:00</time></trkpt><trkpt lat="34.9868566" lon="32.3800383"><ele>431.6</ele><time>2015-04-25T11:01:07.0000000+00:00</time></trkpt><trkpt lat="34.9868045" lon="32.380046"><ele>431.9</ele><time>2015-04-25T11:01:10.0000000+00:00</time></trkpt><trkpt lat="34.9867504" lon="32.3800495"><ele>432.6</ele><time>2015-04-25T11:01:13.0000000+00:00</time></trkpt><trkpt lat="34.9867064" lon="32.38007"><ele>431.6</ele><time>2015-04-25T11:01:16.0000000+00:00</time></trkpt><trkpt lat="34.9866655" lon="32.3800976"><ele>431.5</ele><time>2015-04-25T11:01:19.0000000+00:00</time></trkpt><trkpt lat="34.9866221" lon="32.3801245"><ele>432.8</ele><time>2015-04-25T11:01:22.0000000+00:00</time></trkpt><trkpt lat="34.9865828" lon="32.3801516"><ele>432.0</ele><time>2015-04-25T11:01:25.0000000+00:00</time></trkpt><trkpt lat="34.986542" lon="32.380183"><ele>431.9</ele><time>2015-04-25T11:01:28.0000000+00:00</time></trkpt><trkpt lat="34.9865013" lon="32.3802228"><ele>433.6</ele><time>2015-04-25T11:01:31.0000000+00:00</time></trkpt><trkpt lat="34.9864552" lon="32.3802602"><ele>434.8</ele><time>2015-04-25T11:01:34.0000000+00:00</time></trkpt><trkpt lat="34.9864101" lon="32.3802943"><ele>435.8</ele><time>2015-04-25T11:01:37.0000000+00:00</time></trkpt><trkpt lat="34.9863513" lon="32.3803065"><ele>435.2</ele><time>2015-04-25T11:01:40.0000000+00:00</time></trkpt><trkpt lat="34.986296" lon="32.3803271"><ele>435.0</ele><time>2015-04-25T11:01:43.0000000+00:00</time></trkpt><trkpt lat="34.9862472" lon="32.3803552"><ele>434.4</ele><time>2015-04-25T11:01:46.0000000+00:00</time></trkpt><trkpt lat="34.9861978" lon="32.3803825"><ele>435.2</ele><time>2015-04-25T11:01:49.0000000+00:00</time></trkpt><trkpt lat="34.9861454" lon="32.380396"><ele>437.1</ele><time>2015-04-25T11:01:52.0000000+00:00</time></trkpt><trkpt lat="34.9860958" lon="32.3804058"><ele>437.0</ele><time>2015-04-25T11:01:55.0000000+00:00</time></trkpt><trkpt lat="34.9860469" lon="32.3804195"><ele>436.9</ele><time>2015-04-25T11:01:58.0000000+00:00</time></trkpt><trkpt lat="34.9859992" lon="32.3804243"><ele>437.7</ele><time>2015-04-25T11:02:01.0000000+00:00</time></trkpt><trkpt lat="34.9859546" lon="32.3804133"><ele>438.6</ele><time>2015-04-25T11:02:04.0000000+00:00</time></trkpt><trkpt lat="34.9859084" lon="32.3803713"><ele>438.0</ele><time>2015-04-25T11:02:08.0000000+00:00</time></trkpt><trkpt lat="34.9858736" lon="32.380335"><ele>438.1</ele><time>2015-04-25T11:02:11.0000000+00:00</time></trkpt><trkpt lat="34.9858471" lon="32.3802733"><ele>437.9</ele><time>2015-04-25T11:02:15.0000000+00:00</time></trkpt><trkpt lat="34.9858159" lon="32.3802122"><ele>438.8</ele><time>2015-04-25T11:02:19.0000000+00:00</time></trkpt><trkpt lat="34.9857824" lon="32.3801752"><ele>439.4</ele><time>2015-04-25T11:02:22.0000000+00:00</time></trkpt><trkpt lat="34.985757" lon="32.3801258"><ele>439.1</ele><time>2015-04-25T11:02:25.0000000+00:00</time></trkpt><trkpt lat="34.9857273" lon="32.3800759"><ele>440.6</ele><time>2015-04-25T11:02:28.0000000+00:00</time></trkpt><trkpt lat="34.9857085" lon="32.380014"><ele>441.1</ele><time>2015-04-25T11:02:31.0000000+00:00</time></trkpt><trkpt lat="34.9856984" lon="32.3799595"><ele>440.7</ele><time>2015-04-25T11:02:34.0000000+00:00</time></trkpt><trkpt lat="34.9856698" lon="32.3798958"><ele>442.6</ele><time>2015-04-25T11:02:38.0000000+00:00</time></trkpt><trkpt lat="34.9856378" lon="32.3798484"><ele>443.4</ele><time>2015-04-25T11:02:41.0000000+00:00</time></trkpt><trkpt lat="34.9856182" lon="32.3797964"><ele>445.6</ele><time>2015-04-25T11:02:44.0000000+00:00</time></trkpt><trkpt lat="34.9856012" lon="32.3797276"><ele>445.8</ele><time>2015-04-25T11:02:48.0000000+00:00</time></trkpt><trkpt lat="34.9855683" lon="32.3796691"><ele>446.4</ele><time>2015-04-25T11:02:52.0000000+00:00</time></trkpt><trkpt lat="34.9855433" lon="32.3796221"><ele>446.9</ele><time>2015-04-25T11:02:55.0000000+00:00</time></trkpt><trkpt lat="34.9855164" lon="32.3795728"><ele>447.5</ele><time>2015-04-25T11:02:58.0000000+00:00</time></trkpt><trkpt lat="34.9854887" lon="32.3795236"><ele>447.8</ele><time>2015-04-25T11:03:01.0000000+00:00</time></trkpt><trkpt lat="34.9854635" lon="32.3794726"><ele>447.9</ele><time>2015-04-25T11:03:04.0000000+00:00</time></trkpt><trkpt lat="34.9854321" lon="32.3794294"><ele>447.4</ele><time>2015-04-25T11:03:07.0000000+00:00</time></trkpt><trkpt lat="34.9854114" lon="32.3793772"><ele>447.5</ele><time>2015-04-25T11:03:10.0000000+00:00</time></trkpt><trkpt lat="34.9853773" lon="32.3793174"><ele>447.4</ele><time>2015-04-25T11:03:14.0000000+00:00</time></trkpt><trkpt lat="34.9853529" lon="32.3792677"><ele>446.5</ele><time>2015-04-25T11:03:17.0000000+00:00</time></trkpt><trkpt lat="34.9853206" lon="32.3792277"><ele>446.9</ele><time>2015-04-25T11:03:20.0000000+00:00</time></trkpt><trkpt lat="34.9852868" lon="32.379187"><ele>447.8</ele><time>2015-04-25T11:03:23.0000000+00:00</time></trkpt><trkpt lat="34.985253" lon="32.3791425"><ele>447.9</ele><time>2015-04-25T11:03:26.0000000+00:00</time></trkpt><trkpt lat="34.9852206" lon="32.3790973"><ele>447.9</ele><time>2015-04-25T11:03:29.0000000+00:00</time></trkpt><trkpt lat="34.985184" lon="32.3790544"><ele>447.9</ele><time>2015-04-25T11:03:32.0000000+00:00</time></trkpt><trkpt lat="34.9851454" lon="32.3790134"><ele>447.3</ele><time>2015-04-25T11:03:35.0000000+00:00</time></trkpt><trkpt lat="34.985104" lon="32.3789812"><ele>447.7</ele><time>2015-04-25T11:03:38.0000000+00:00</time></trkpt><trkpt lat="34.9850581" lon="32.3789479"><ele>449.2</ele><time>2015-04-25T11:03:41.0000000+00:00</time></trkpt><trkpt lat="34.9850115" lon="32.3789132"><ele>449.7</ele><time>2015-04-25T11:03:44.0000000+00:00</time></trkpt><trkpt lat="34.9849721" lon="32.378876"><ele>449.9</ele><time>2015-04-25T11:03:47.0000000+00:00</time></trkpt><trkpt lat="34.984932" lon="32.3788419"><ele>449.9</ele><time>2015-04-25T11:03:50.0000000+00:00</time></trkpt><trkpt lat="34.9848931" lon="32.3788126"><ele>451.6</ele><time>2015-04-25T11:03:53.0000000+00:00</time></trkpt><trkpt lat="34.984849" lon="32.3787943"><ele>453.3</ele><time>2015-04-25T11:03:56.0000000+00:00</time></trkpt><trkpt lat="34.9847916" lon="32.3787794"><ele>453.1</ele><time>2015-04-25T11:04:00.0000000+00:00</time></trkpt><trkpt lat="34.9847329" lon="32.3787591"><ele>454.6</ele><time>2015-04-25T11:04:04.0000000+00:00</time></trkpt><trkpt lat="34.9846887" lon="32.378747"><ele>454.9</ele><time>2015-04-25T11:04:07.0000000+00:00</time></trkpt><trkpt lat="34.9846342" lon="32.3787335"><ele>455.4</ele><time>2015-04-25T11:04:11.0000000+00:00</time></trkpt><trkpt lat="34.9845906" lon="32.378716"><ele>456.6</ele><time>2015-04-25T11:04:14.0000000+00:00</time></trkpt><trkpt lat="34.9845486" lon="32.3786941"><ele>457.8</ele><time>2015-04-25T11:04:17.0000000+00:00</time></trkpt><trkpt lat="34.9844956" lon="32.3786615"><ele>457.0</ele><time>2015-04-25T11:04:21.0000000+00:00</time></trkpt><trkpt lat="34.984444" lon="32.3786248"><ele>456.9</ele><time>2015-04-25T11:04:25.0000000+00:00</time></trkpt><trkpt lat="34.9844017" lon="32.3786001"><ele>456.9</ele><time>2015-04-25T11:04:28.0000000+00:00</time></trkpt><trkpt lat="34.9843646" lon="32.3785654"><ele>455.6</ele><time>2015-04-25T11:04:31.0000000+00:00</time></trkpt><trkpt lat="34.9843202" lon="32.3785428"><ele>455.5</ele><time>2015-04-25T11:04:34.0000000+00:00</time></trkpt><trkpt lat="34.9842733" lon="32.3785302"><ele>457.1</ele><time>2015-04-25T11:04:37.0000000+00:00</time></trkpt><trkpt lat="34.9842281" lon="32.3785154"><ele>458.3</ele><time>2015-04-25T11:04:40.0000000+00:00</time></trkpt><trkpt lat="34.984183" lon="32.378498"><ele>460.2</ele><time>2015-04-25T11:04:43.0000000+00:00</time></trkpt><trkpt lat="34.9841333" lon="32.3784815"><ele>460.3</ele><time>2015-04-25T11:04:46.0000000+00:00</time></trkpt><trkpt lat="34.9840824" lon="32.3784709"><ele>459.2</ele><time>2015-04-25T11:04:49.0000000+00:00</time></trkpt><trkpt lat="34.984031" lon="32.3784817"><ele>461.2</ele><time>2015-04-25T11:04:52.0000000+00:00</time></trkpt><trkpt lat="34.9839932" lon="32.378526"><ele>461.1</ele><time>2015-04-25T11:04:55.0000000+00:00</time></trkpt><trkpt lat="34.983966" lon="32.3785832"><ele>460.6</ele><time>2015-04-25T11:04:58.0000000+00:00</time></trkpt><trkpt lat="34.9839356" lon="32.378637"><ele>461.4</ele><time>2015-04-25T11:05:01.0000000+00:00</time></trkpt><trkpt lat="34.9839111" lon="32.3786902"><ele>461.4</ele><time>2015-04-25T11:05:04.0000000+00:00</time></trkpt><trkpt lat="34.9838847" lon="32.3787394"><ele>462.6</ele><time>2015-04-25T11:05:07.0000000+00:00</time></trkpt><trkpt lat="34.9838594" lon="32.3787936"><ele>462.9</ele><time>2015-04-25T11:05:10.0000000+00:00</time></trkpt><trkpt lat="34.9838249" lon="32.3788413"><ele>463.3</ele><time>2015-04-25T11:05:13.0000000+00:00</time></trkpt><trkpt lat="34.9837826" lon="32.3789028"><ele>463.9</ele><time>2015-04-25T11:05:16.0000000+00:00</time></trkpt><trkpt lat="34.983742" lon="32.3789651"><ele>463.2</ele><time>2015-04-25T11:05:18.0000000+00:00</time></trkpt><trkpt lat="34.9836969" lon="32.3790275"><ele>463.0</ele><time>2015-04-25T11:05:20.0000000+00:00</time></trkpt><trkpt lat="34.983655" lon="32.3790844"><ele>463.2</ele><time>2015-04-25T11:05:22.0000000+00:00</time></trkpt><trkpt lat="34.9836208" lon="32.3791371"><ele>463.5</ele><time>2015-04-25T11:05:24.0000000+00:00</time></trkpt><trkpt lat="34.9835888" lon="32.3791792"><ele>463.6</ele><time>2015-04-25T11:05:26.0000000+00:00</time></trkpt><trkpt lat="34.9835431" lon="32.3792308"><ele>463.9</ele><time>2015-04-25T11:05:29.0000000+00:00</time></trkpt><trkpt lat="34.9834938" lon="32.3792746"><ele>464.9</ele><time>2015-04-25T11:05:32.0000000+00:00</time></trkpt><trkpt lat="34.9834398" lon="32.3792965"><ele>463.3</ele><time>2015-04-25T11:05:35.0000000+00:00</time></trkpt><trkpt lat="34.9833783" lon="32.3793144"><ele>463.0</ele><time>2015-04-25T11:05:38.0000000+00:00</time></trkpt><trkpt lat="34.983325" lon="32.3793241"><ele>464.8</ele><time>2015-04-25T11:05:41.0000000+00:00</time></trkpt><trkpt lat="34.983276" lon="32.3793347"><ele>466.7</ele><time>2015-04-25T11:05:44.0000000+00:00</time></trkpt><trkpt lat="34.9832226" lon="32.3793225"><ele>467.4</ele><time>2015-04-25T11:05:47.0000000+00:00</time></trkpt><trkpt lat="34.983169" lon="32.3792856"><ele>469.5</ele><time>2015-04-25T11:05:50.0000000+00:00</time></trkpt><trkpt lat="34.9831297" lon="32.3792347"><ele>469.4</ele><time>2015-04-25T11:05:53.0000000+00:00</time></trkpt><trkpt lat="34.9830975" lon="32.3791821"><ele>469.7</ele><time>2015-04-25T11:05:56.0000000+00:00</time></trkpt><trkpt lat="34.9830922" lon="32.3791213"><ele>470.7</ele><time>2015-04-25T11:05:59.0000000+00:00</time></trkpt><trkpt lat="34.9831026" lon="32.3790601"><ele>471.6</ele><time>2015-04-25T11:06:02.0000000+00:00</time></trkpt><trkpt lat="34.9831148" lon="32.3789958"><ele>473.1</ele><time>2015-04-25T11:06:05.0000000+00:00</time></trkpt><trkpt lat="34.9831291" lon="32.3789306"><ele>473.0</ele><time>2015-04-25T11:06:08.0000000+00:00</time></trkpt><trkpt lat="34.9831434" lon="32.3788683"><ele>472.8</ele><time>2015-04-25T11:06:11.0000000+00:00</time></trkpt><trkpt lat="34.9831519" lon="32.3788028"><ele>473.4</ele><time>2015-04-25T11:06:14.0000000+00:00</time></trkpt><trkpt lat="34.9831536" lon="32.3787372"><ele>472.6</ele><time>2015-04-25T11:06:17.0000000+00:00</time></trkpt><trkpt lat="34.9831653" lon="32.378676"><ele>472.0</ele><time>2015-04-25T11:06:20.0000000+00:00</time></trkpt><trkpt lat="34.983174" lon="32.3786135"><ele>472.1</ele><time>2015-04-25T11:06:23.0000000+00:00</time></trkpt><trkpt lat="34.9831782" lon="32.3785504"><ele>472.8</ele><time>2015-04-25T11:06:26.0000000+00:00</time></trkpt><trkpt lat="34.9831686" lon="32.3784823"><ele>473.8</ele><time>2015-04-25T11:06:29.0000000+00:00</time></trkpt><trkpt lat="34.9831711" lon="32.3784137"><ele>474.7</ele><time>2015-04-25T11:06:32.0000000+00:00</time></trkpt><trkpt lat="34.9831777" lon="32.3783455"><ele>475.5</ele><time>2015-04-25T11:06:35.0000000+00:00</time></trkpt><trkpt lat="34.9831864" lon="32.3782748"><ele>476.4</ele><time>2015-04-25T11:06:38.0000000+00:00</time></trkpt><trkpt lat="34.983206" lon="32.3782091"><ele>476.7</ele><time>2015-04-25T11:06:41.0000000+00:00</time></trkpt><trkpt lat="34.9832182" lon="32.3781392"><ele>478.5</ele><time>2015-04-25T11:06:44.0000000+00:00</time></trkpt><trkpt lat="34.98322" lon="32.3780691"><ele>479.0</ele><time>2015-04-25T11:06:47.0000000+00:00</time></trkpt><trkpt lat="34.9832322" lon="32.3780002"><ele>478.9</ele><time>2015-04-25T11:06:50.0000000+00:00</time></trkpt><trkpt lat="34.9832481" lon="32.377931"><ele>477.9</ele><time>2015-04-25T11:06:53.0000000+00:00</time></trkpt><trkpt lat="34.9832611" lon="32.3778627"><ele>478.8</ele><time>2015-04-25T11:06:56.0000000+00:00</time></trkpt><trkpt lat="34.9832808" lon="32.3777986"><ele>479.8</ele><time>2015-04-25T11:06:59.0000000+00:00</time></trkpt><trkpt lat="34.983305" lon="32.3777295"><ele>479.2</ele><time>2015-04-25T11:07:02.0000000+00:00</time></trkpt><trkpt lat="34.9833194" lon="32.3776593"><ele>479.5</ele><time>2015-04-25T11:07:05.0000000+00:00</time></trkpt><trkpt lat="34.9833284" lon="32.3775938"><ele>479.9</ele><time>2015-04-25T11:07:08.0000000+00:00</time></trkpt><trkpt lat="34.9833463" lon="32.3775342"><ele>481.3</ele><time>2015-04-25T11:07:11.0000000+00:00</time></trkpt><trkpt lat="34.98338" lon="32.377479"><ele>481.9</ele><time>2015-04-25T11:07:14.0000000+00:00</time></trkpt><trkpt lat="34.9834173" lon="32.3774375"><ele>482.8</ele><time>2015-04-25T11:07:17.0000000+00:00</time></trkpt><trkpt lat="34.983456" lon="32.3774018"><ele>482.9</ele><time>2015-04-25T11:07:20.0000000+00:00</time></trkpt><trkpt lat="34.9834917" lon="32.3773592"><ele>482.4</ele><time>2015-04-25T11:07:23.0000000+00:00</time></trkpt><trkpt lat="34.9835348" lon="32.3773214"><ele>482.9</ele><time>2015-04-25T11:07:26.0000000+00:00</time></trkpt><trkpt lat="34.9835736" lon="32.3772772"><ele>482.9</ele><time>2015-04-25T11:07:29.0000000+00:00</time></trkpt><trkpt lat="34.9836136" lon="32.3772286"><ele>482.7</ele><time>2015-04-25T11:07:32.0000000+00:00</time></trkpt><trkpt lat="34.9836532" lon="32.3771785"><ele>483.4</ele><time>2015-04-25T11:07:35.0000000+00:00</time></trkpt><trkpt lat="34.9836937" lon="32.3771354"><ele>484.4</ele><time>2015-04-25T11:07:38.0000000+00:00</time></trkpt><trkpt lat="34.9837302" lon="32.377093"><ele>486.2</ele><time>2015-04-25T11:07:41.0000000+00:00</time></trkpt><trkpt lat="34.9837699" lon="32.3770531"><ele>487.3</ele><time>2015-04-25T11:07:44.0000000+00:00</time></trkpt><trkpt lat="34.9838042" lon="32.3770089"><ele>487.4</ele><time>2015-04-25T11:07:47.0000000+00:00</time></trkpt><trkpt lat="34.9838492" lon="32.3769723"><ele>487.0</ele><time>2015-04-25T11:07:50.0000000+00:00</time></trkpt><trkpt lat="34.9838791" lon="32.3769189"><ele>486.7</ele><time>2015-04-25T11:07:53.0000000+00:00</time></trkpt><trkpt lat="34.9839108" lon="32.3768597"><ele>485.5</ele><time>2015-04-25T11:07:56.0000000+00:00</time></trkpt><trkpt lat="34.983952" lon="32.3768043"><ele>483.4</ele><time>2015-04-25T11:07:59.0000000+00:00</time></trkpt><trkpt lat="34.9839828" lon="32.3767436"><ele>483.4</ele><time>2015-04-25T11:08:02.0000000+00:00</time></trkpt><trkpt lat="34.9840075" lon="32.3766806"><ele>483.9</ele><time>2015-04-25T11:08:05.0000000+00:00</time></trkpt><trkpt lat="34.9840283" lon="32.3766153"><ele>485.3</ele><time>2015-04-25T11:08:08.0000000+00:00</time></trkpt><trkpt lat="34.9840508" lon="32.3765518"><ele>485.7</ele><time>2015-04-25T11:08:11.0000000+00:00</time></trkpt><trkpt lat="34.9840718" lon="32.3764838"><ele>485.9</ele><time>2015-04-25T11:08:14.0000000+00:00</time></trkpt><trkpt lat="34.9840898" lon="32.3764127"><ele>486.4</ele><time>2015-04-25T11:08:17.0000000+00:00</time></trkpt><trkpt lat="34.9841113" lon="32.3763435"><ele>489.1</ele><time>2015-04-25T11:08:20.0000000+00:00</time></trkpt><trkpt lat="34.9841293" lon="32.3762823"><ele>489.6</ele><time>2015-04-25T11:08:23.0000000+00:00</time></trkpt><trkpt lat="34.9841361" lon="32.3762252"><ele>489.0</ele><time>2015-04-25T11:08:26.0000000+00:00</time></trkpt><trkpt lat="34.9841356" lon="32.3761641"><ele>490.6</ele><time>2015-04-25T11:08:29.0000000+00:00</time></trkpt><trkpt lat="34.9841261" lon="32.3761056"><ele>491.6</ele><time>2015-04-25T11:08:32.0000000+00:00</time></trkpt><trkpt lat="34.9841168" lon="32.3760441"><ele>492.8</ele><time>2015-04-25T11:08:35.0000000+00:00</time></trkpt><trkpt lat="34.9841014" lon="32.3759784"><ele>493.8</ele><time>2015-04-25T11:08:38.0000000+00:00</time></trkpt><trkpt lat="34.9840834" lon="32.3759139"><ele>494.8</ele><time>2015-04-25T11:08:41.0000000+00:00</time></trkpt><trkpt lat="34.9840599" lon="32.3758557"><ele>495.4</ele><time>2015-04-25T11:08:44.0000000+00:00</time></trkpt><trkpt lat="34.9840319" lon="32.3757997"><ele>495.9</ele><time>2015-04-25T11:08:47.0000000+00:00</time></trkpt><trkpt lat="34.9839981" lon="32.3757471"><ele>497.2</ele><time>2015-04-25T11:08:50.0000000+00:00</time></trkpt><trkpt lat="34.9839684" lon="32.3756937"><ele>497.3</ele><time>2015-04-25T11:08:53.0000000+00:00</time></trkpt><trkpt lat="34.98395" lon="32.3756362"><ele>497.0</ele><time>2015-04-25T11:08:56.0000000+00:00</time></trkpt><trkpt lat="34.9839327" lon="32.3755683"><ele>494.5</ele><time>2015-04-25T11:09:00.0000000+00:00</time></trkpt><trkpt lat="34.9838974" lon="32.37552"><ele>495.0</ele><time>2015-04-25T11:09:04.0000000+00:00</time></trkpt><trkpt lat="34.9838515" lon="32.3755043"><ele>495.8</ele><time>2015-04-25T11:09:07.0000000+00:00</time></trkpt><trkpt lat="34.9838172" lon="32.3754684"><ele>496.7</ele><time>2015-04-25T11:09:10.0000000+00:00</time></trkpt><trkpt lat="34.9837842" lon="32.3754193"><ele>496.7</ele><time>2015-04-25T11:09:14.0000000+00:00</time></trkpt><trkpt lat="34.9837443" lon="32.3753797"><ele>497.4</ele><time>2015-04-25T11:09:19.0000000+00:00</time></trkpt><trkpt lat="34.983706" lon="32.3753314"><ele>498.7</ele><time>2015-04-25T11:09:24.0000000+00:00</time></trkpt><trkpt lat="34.9836783" lon="32.3752758"><ele>500.7</ele><time>2015-04-25T11:09:28.0000000+00:00</time></trkpt><trkpt lat="34.983664" lon="32.3752136"><ele>501.8</ele><time>2015-04-25T11:09:36.0000000+00:00</time></trkpt><trkpt lat="34.9836494" lon="32.3751605"><ele>502.2</ele><time>2015-04-25T11:09:40.0000000+00:00</time></trkpt><trkpt lat="34.9836268" lon="32.3750999"><ele>502.9</ele><time>2015-04-25T11:09:44.0000000+00:00</time></trkpt><trkpt lat="34.9836086" lon="32.3750477"><ele>503.4</ele><time>2015-04-25T11:09:48.0000000+00:00</time></trkpt><trkpt lat="34.9835812" lon="32.3749907"><ele>503.9</ele><time>2015-04-25T11:09:53.0000000+00:00</time></trkpt><trkpt lat="34.9835676" lon="32.3749271"><ele>504.9</ele><time>2015-04-25T11:09:58.0000000+00:00</time></trkpt><trkpt lat="34.9835471" lon="32.3748677"><ele>504.9</ele><time>2015-04-25T11:10:03.0000000+00:00</time></trkpt><trkpt lat="34.9835198" lon="32.3748084"><ele>504.9</ele><time>2015-04-25T11:10:08.0000000+00:00</time></trkpt><trkpt lat="34.9834961" lon="32.3747606"><ele>505.1</ele><time>2015-04-25T11:10:12.0000000+00:00</time></trkpt><trkpt lat="34.9834698" lon="32.3747051"><ele>506.6</ele><time>2015-04-25T11:10:17.0000000+00:00</time></trkpt><trkpt lat="34.9834282" lon="32.3746803"><ele>507.8</ele><time>2015-04-25T11:10:27.0000000+00:00</time></trkpt><trkpt lat="34.9833944" lon="32.37464"><ele>507.8</ele><time>2015-04-25T11:10:32.0000000+00:00</time></trkpt><trkpt lat="34.9833498" lon="32.374614"><ele>508.8</ele><time>2015-04-25T11:10:37.0000000+00:00</time></trkpt><trkpt lat="34.9833028" lon="32.374589"><ele>508.7</ele><time>2015-04-25T11:10:43.0000000+00:00</time></trkpt><trkpt lat="34.9832584" lon="32.3745703"><ele>511.3</ele><time>2015-04-25T11:10:48.0000000+00:00</time></trkpt><trkpt lat="34.9832138" lon="32.3745546"><ele>513.3</ele><time>2015-04-25T11:10:54.0000000+00:00</time></trkpt><trkpt lat="34.9831678" lon="32.3745422"><ele>515.3</ele><time>2015-04-25T11:11:01.0000000+00:00</time></trkpt><trkpt lat="34.9831223" lon="32.3745254"><ele>516.3</ele><time>2015-04-25T11:11:08.0000000+00:00</time></trkpt><trkpt lat="34.9830798" lon="32.3745001"><ele>517.2</ele><time>2015-04-25T11:11:14.0000000+00:00</time></trkpt><trkpt lat="34.9830314" lon="32.3745001"><ele>516.8</ele><time>2015-04-25T11:11:20.0000000+00:00</time></trkpt><trkpt lat="34.9829886" lon="32.3744815"><ele>513.9</ele><time>2015-04-25T11:11:42.0000000+00:00</time></trkpt><trkpt lat="34.9829435" lon="32.3744742"><ele>513.9</ele><time>2015-04-25T11:11:47.0000000+00:00</time></trkpt><trkpt lat="34.9828958" lon="32.3744798"><ele>515.4</ele><time>2015-04-25T11:11:52.0000000+00:00</time></trkpt><trkpt lat="34.982845" lon="32.3744629"><ele>515.2</ele><time>2015-04-25T11:11:59.0000000+00:00</time></trkpt><trkpt lat="34.982792" lon="32.3744594"><ele>515.4</ele><time>2015-04-25T11:12:04.0000000+00:00</time></trkpt><trkpt lat="34.9827374" lon="32.374446"><ele>516.9</ele><time>2015-04-25T11:12:09.0000000+00:00</time></trkpt><trkpt lat="34.9826929" lon="32.3744366"><ele>517.9</ele><time>2015-04-25T11:12:13.0000000+00:00</time></trkpt><trkpt lat="34.9826372" lon="32.3744262"><ele>518.6</ele><time>2015-04-25T11:12:18.0000000+00:00</time></trkpt><trkpt lat="34.9825926" lon="32.3744172"><ele>519.0</ele><time>2015-04-25T11:12:22.0000000+00:00</time></trkpt><trkpt lat="34.9825454" lon="32.3744036"><ele>520.2</ele><time>2015-04-25T11:12:26.0000000+00:00</time></trkpt><trkpt lat="34.9824984" lon="32.3743962"><ele>521.1</ele><time>2015-04-25T11:12:30.0000000+00:00</time></trkpt><trkpt lat="34.9824475" lon="32.3743856"><ele>520.9</ele><time>2015-04-25T11:12:35.0000000+00:00</time></trkpt><trkpt lat="34.9823938" lon="32.3743812"><ele>521.9</ele><time>2015-04-25T11:12:40.0000000+00:00</time></trkpt><trkpt lat="34.9823467" lon="32.3743843"><ele>523.3</ele><time>2015-04-25T11:12:44.0000000+00:00</time></trkpt><trkpt lat="34.9822961" lon="32.3743854"><ele>523.9</ele><time>2015-04-25T11:12:49.0000000+00:00</time></trkpt><trkpt lat="34.9822434" lon="32.3743922"><ele>525.6</ele><time>2015-04-25T11:12:55.0000000+00:00</time></trkpt><trkpt lat="34.982192" lon="32.3743779"><ele>526.6</ele><time>2015-04-25T11:13:00.0000000+00:00</time></trkpt><trkpt lat="34.982141" lon="32.3743591"><ele>526.9</ele><time>2015-04-25T11:13:05.0000000+00:00</time></trkpt><trkpt lat="34.982096" lon="32.3743193"><ele>527.7</ele><time>2015-04-25T11:13:10.0000000+00:00</time></trkpt><trkpt lat="34.9820581" lon="32.3742895"><ele>529.6</ele><time>2015-04-25T11:13:14.0000000+00:00</time></trkpt><trkpt lat="34.9820185" lon="32.3742633"><ele>531.3</ele><time>2015-04-25T11:13:18.0000000+00:00</time></trkpt><trkpt lat="34.9819762" lon="32.3742364"><ele>532.6</ele><time>2015-04-25T11:13:22.0000000+00:00</time></trkpt><trkpt lat="34.9819356" lon="32.3741982"><ele>532.5</ele><time>2015-04-25T11:13:27.0000000+00:00</time></trkpt><trkpt lat="34.9818968" lon="32.3741702"><ele>531.0</ele><time>2015-04-25T11:13:32.0000000+00:00</time></trkpt><trkpt lat="34.9818519" lon="32.3741523"><ele>530.2</ele><time>2015-04-25T11:13:38.0000000+00:00</time></trkpt><trkpt lat="34.9818104" lon="32.3741259"><ele>530.2</ele><time>2015-04-25T11:13:44.0000000+00:00</time></trkpt><trkpt lat="34.9817602" lon="32.3741062"><ele>529.9</ele><time>2015-04-25T11:13:51.0000000+00:00</time></trkpt><trkpt lat="34.9817088" lon="32.3740947"><ele>531.6</ele><time>2015-04-25T11:13:56.0000000+00:00</time></trkpt><trkpt lat="34.9816597" lon="32.3740792"><ele>533.3</ele><time>2015-04-25T11:14:01.0000000+00:00</time></trkpt><trkpt lat="34.9816182" lon="32.3740561"><ele>532.9</ele><time>2015-04-25T11:14:06.0000000+00:00</time></trkpt><trkpt lat="34.9815735" lon="32.3740387"><ele>534.8</ele><time>2015-04-25T11:14:11.0000000+00:00</time></trkpt><trkpt lat="34.9815292" lon="32.37402"><ele>536.1</ele><time>2015-04-25T11:14:16.0000000+00:00</time></trkpt><trkpt lat="34.9814916" lon="32.3739887"><ele>535.2</ele><time>2015-04-25T11:14:21.0000000+00:00</time></trkpt><trkpt lat="34.9814581" lon="32.3739419"><ele>534.9</ele><time>2015-04-25T11:14:26.0000000+00:00</time></trkpt><trkpt lat="34.981425" lon="32.3738969"><ele>534.8</ele><time>2015-04-25T11:14:31.0000000+00:00</time></trkpt><trkpt lat="34.981385" lon="32.37386"><ele>537.3</ele><time>2015-04-25T11:14:36.0000000+00:00</time></trkpt><trkpt lat="34.9813446" lon="32.3738196"><ele>536.7</ele><time>2015-04-25T11:14:41.0000000+00:00</time></trkpt><trkpt lat="34.981303" lon="32.3737792"><ele>538.7</ele><time>2015-04-25T11:14:58.0000000+00:00</time></trkpt><trkpt lat="34.9812588" lon="32.3737386"><ele>539.2</ele><time>2015-04-25T11:15:03.0000000+00:00</time></trkpt><trkpt lat="34.981223" lon="32.3737052"><ele>538.9</ele><time>2015-04-25T11:15:07.0000000+00:00</time></trkpt><trkpt lat="34.9811783" lon="32.3736852"><ele>539.4</ele><time>2015-04-25T11:15:11.0000000+00:00</time></trkpt><trkpt lat="34.9811311" lon="32.3736743"><ele>540.8</ele><time>2015-04-25T11:15:15.0000000+00:00</time></trkpt><trkpt lat="34.9810853" lon="32.3736798"><ele>541.6</ele><time>2015-04-25T11:15:19.0000000+00:00</time></trkpt><trkpt lat="34.9810314" lon="32.3736826"><ele>542.4</ele><time>2015-04-25T11:15:24.0000000+00:00</time></trkpt><trkpt lat="34.9809859" lon="32.3736802"><ele>542.8</ele><time>2015-04-25T11:15:29.0000000+00:00</time></trkpt><trkpt lat="34.9809374" lon="32.3736999"><ele>543.5</ele><time>2015-04-25T11:15:35.0000000+00:00</time></trkpt><trkpt lat="34.9808949" lon="32.3737315"><ele>542.6</ele><time>2015-04-25T11:15:48.0000000+00:00</time></trkpt><trkpt lat="34.9808532" lon="32.3737587"><ele>542.5</ele><time>2015-04-25T11:15:51.0000000+00:00</time></trkpt><trkpt lat="34.9808045" lon="32.3737783"><ele>541.1</ele><time>2015-04-25T11:15:54.0000000+00:00</time></trkpt><trkpt lat="34.9807477" lon="32.3737975"><ele>541.8</ele><time>2015-04-25T11:15:57.0000000+00:00</time></trkpt><trkpt lat="34.9806876" lon="32.3738215"><ele>540.7</ele><time>2015-04-25T11:16:00.0000000+00:00</time></trkpt><trkpt lat="34.9806309" lon="32.3738478"><ele>539.9</ele><time>2015-04-25T11:16:03.0000000+00:00</time></trkpt><trkpt lat="34.9805881" lon="32.3738659"><ele>540.4</ele><time>2015-04-25T11:16:05.0000000+00:00</time></trkpt><trkpt lat="34.980525" lon="32.373896"><ele>540.9</ele><time>2015-04-25T11:16:08.0000000+00:00</time></trkpt><trkpt lat="34.9804803" lon="32.3739132"><ele>540.9</ele><time>2015-04-25T11:16:10.0000000+00:00</time></trkpt><trkpt lat="34.9804367" lon="32.373927"><ele>541.2</ele><time>2015-04-25T11:16:12.0000000+00:00</time></trkpt><trkpt lat="34.9803931" lon="32.3739458"><ele>541.7</ele><time>2015-04-25T11:16:14.0000000+00:00</time></trkpt><trkpt lat="34.9803502" lon="32.3739629"><ele>541.9</ele><time>2015-04-25T11:16:16.0000000+00:00</time></trkpt><trkpt lat="34.9802929" lon="32.3739903"><ele>542.4</ele><time>2015-04-25T11:16:19.0000000+00:00</time></trkpt><trkpt lat="34.9802521" lon="32.374017"><ele>542.8</ele><time>2015-04-25T11:16:21.0000000+00:00</time></trkpt><trkpt lat="34.9801963" lon="32.3740475"><ele>542.9</ele><time>2015-04-25T11:16:24.0000000+00:00</time></trkpt><trkpt lat="34.9801504" lon="32.3740568"><ele>542.1</ele><time>2015-04-25T11:17:06.0000000+00:00</time></trkpt><trkpt lat="34.9801033" lon="32.3740681"><ele>542.7</ele><time>2015-04-25T11:17:21.0000000+00:00</time></trkpt><trkpt lat="34.9800582" lon="32.3740871"><ele>541.7</ele><time>2015-04-25T11:17:30.0000000+00:00</time></trkpt><trkpt lat="34.9800119" lon="32.374109"><ele>541.9</ele><time>2015-04-25T11:17:33.0000000+00:00</time></trkpt><trkpt lat="34.9799524" lon="32.3741389"><ele>541.9</ele><time>2015-04-25T11:17:36.0000000+00:00</time></trkpt><trkpt lat="34.9798937" lon="32.3741628"><ele>541.1</ele><time>2015-04-25T11:17:39.0000000+00:00</time></trkpt><trkpt lat="34.979849" lon="32.3741838"><ele>541.0</ele><time>2015-04-25T11:17:41.0000000+00:00</time></trkpt><trkpt lat="34.9798027" lon="32.3742052"><ele>540.7</ele><time>2015-04-25T11:17:43.0000000+00:00</time></trkpt><trkpt lat="34.9797562" lon="32.37423"><ele>541.4</ele><time>2015-04-25T11:17:45.0000000+00:00</time></trkpt><trkpt lat="34.9797123" lon="32.3742493"><ele>542.0</ele><time>2015-04-25T11:17:47.0000000+00:00</time></trkpt><trkpt lat="34.9796681" lon="32.3742651"><ele>542.7</ele><time>2015-04-25T11:17:49.0000000+00:00</time></trkpt><trkpt lat="34.9796126" lon="32.3742973"><ele>542.0</ele><time>2015-04-25T11:17:52.0000000+00:00</time></trkpt><trkpt lat="34.9795663" lon="32.3743339"><ele>541.6</ele><time>2015-04-25T11:17:55.0000000+00:00</time></trkpt><trkpt lat="34.9795171" lon="32.3743699"><ele>541.8</ele><time>2015-04-25T11:17:58.0000000+00:00</time></trkpt><trkpt lat="34.9794625" lon="32.3744073"><ele>543.2</ele><time>2015-04-25T11:18:01.0000000+00:00</time></trkpt><trkpt lat="34.9794018" lon="32.3744404"><ele>543.8</ele><time>2015-04-25T11:18:04.0000000+00:00</time></trkpt><trkpt lat="34.9793455" lon="32.3744762"><ele>543.0</ele><time>2015-04-25T11:18:07.0000000+00:00</time></trkpt><trkpt lat="34.9792859" lon="32.3745089"><ele>543.7</ele><time>2015-04-25T11:18:10.0000000+00:00</time></trkpt><trkpt lat="34.9792291" lon="32.3745529"><ele>543.5</ele><time>2015-04-25T11:18:13.0000000+00:00</time></trkpt><trkpt lat="34.9791814" lon="32.3745944"><ele>543.8</ele><time>2015-04-25T11:18:16.0000000+00:00</time></trkpt><trkpt lat="34.9791447" lon="32.3746315"><ele>543.9</ele><time>2015-04-25T11:18:19.0000000+00:00</time></trkpt><trkpt lat="34.9791067" lon="32.3746738"><ele>544.1</ele><time>2015-04-25T11:18:22.0000000+00:00</time></trkpt><trkpt lat="34.9790666" lon="32.3747209"><ele>544.4</ele><time>2015-04-25T11:18:25.0000000+00:00</time></trkpt><trkpt lat="34.9790275" lon="32.3747701"><ele>545.7</ele><time>2015-04-25T11:18:28.0000000+00:00</time></trkpt><trkpt lat="34.9789897" lon="32.3748123"><ele>546.2</ele><time>2015-04-25T11:18:31.0000000+00:00</time></trkpt><trkpt lat="34.9789517" lon="32.3748589"><ele>548.1</ele><time>2015-04-25T11:18:34.0000000+00:00</time></trkpt><trkpt lat="34.9789166" lon="32.3749031"><ele>548.8</ele><time>2015-04-25T11:18:37.0000000+00:00</time></trkpt><trkpt lat="34.9788828" lon="32.3749403"><ele>550.9</ele><time>2015-04-25T11:18:40.0000000+00:00</time></trkpt><trkpt lat="34.9788439" lon="32.3749743"><ele>552.2</ele><time>2015-04-25T11:18:43.0000000+00:00</time></trkpt><trkpt lat="34.9787999" lon="32.3750116"><ele>554.2</ele><time>2015-04-25T11:18:46.0000000+00:00</time></trkpt><trkpt lat="34.9787551" lon="32.3750417"><ele>554.8</ele><time>2015-04-25T11:18:49.0000000+00:00</time></trkpt><trkpt lat="34.9787137" lon="32.3750733"><ele>554.0</ele><time>2015-04-25T11:18:52.0000000+00:00</time></trkpt><trkpt lat="34.9786741" lon="32.375109"><ele>554.1</ele><time>2015-04-25T11:18:55.0000000+00:00</time></trkpt><trkpt lat="34.9786223" lon="32.3751371"><ele>553.9</ele><time>2015-04-25T11:18:59.0000000+00:00</time></trkpt><trkpt lat="34.9785682" lon="32.3751613"><ele>554.9</ele><time>2015-04-25T11:19:03.0000000+00:00</time></trkpt><trkpt lat="34.9785202" lon="32.3751884"><ele>554.9</ele><time>2015-04-25T11:19:07.0000000+00:00</time></trkpt><trkpt lat="34.9784713" lon="32.375214"><ele>554.7</ele><time>2015-04-25T11:19:11.0000000+00:00</time></trkpt><trkpt lat="34.9784281" lon="32.3752312"><ele>555.0</ele><time>2015-04-25T11:19:15.0000000+00:00</time></trkpt><trkpt lat="34.9783808" lon="32.3752482"><ele>555.6</ele><time>2015-04-25T11:19:19.0000000+00:00</time></trkpt><trkpt lat="34.9783296" lon="32.3752658"><ele>555.9</ele><time>2015-04-25T11:19:23.0000000+00:00</time></trkpt><trkpt lat="34.9782857" lon="32.3752806"><ele>556.4</ele><time>2015-04-25T11:19:26.0000000+00:00</time></trkpt><trkpt lat="34.9782401" lon="32.3752953"><ele>556.9</ele><time>2015-04-25T11:19:29.0000000+00:00</time></trkpt><trkpt lat="34.9781942" lon="32.3752986"><ele>557.7</ele><time>2015-04-25T11:19:32.0000000+00:00</time></trkpt><trkpt lat="34.9781474" lon="32.3753014"><ele>557.4</ele><time>2015-04-25T11:19:35.0000000+00:00</time></trkpt><trkpt lat="34.9781002" lon="32.3753116"><ele>557.9</ele><time>2015-04-25T11:19:38.0000000+00:00</time></trkpt><trkpt lat="34.9780523" lon="32.3753224"><ele>557.9</ele><time>2015-04-25T11:19:41.0000000+00:00</time></trkpt><trkpt lat="34.978003" lon="32.3753253"><ele>557.9</ele><time>2015-04-25T11:19:44.0000000+00:00</time></trkpt><trkpt lat="34.9779528" lon="32.375322"><ele>558.8</ele><time>2015-04-25T11:19:47.0000000+00:00</time></trkpt><trkpt lat="34.9778998" lon="32.3753183"><ele>559.8</ele><time>2015-04-25T11:19:50.0000000+00:00</time></trkpt><trkpt lat="34.9778441" lon="32.3753152"><ele>560.8</ele><time>2015-04-25T11:19:53.0000000+00:00</time></trkpt><trkpt lat="34.9777852" lon="32.3753182"><ele>561.8</ele><time>2015-04-25T11:19:56.0000000+00:00</time></trkpt><trkpt lat="34.9777225" lon="32.3753148"><ele>561.9</ele><time>2015-04-25T11:19:59.0000000+00:00</time></trkpt><trkpt lat="34.977655" lon="32.3753061"><ele>563.3</ele><time>2015-04-25T11:20:02.0000000+00:00</time></trkpt><trkpt lat="34.9776092" lon="32.375299"><ele>563.8</ele><time>2015-04-25T11:20:04.0000000+00:00</time></trkpt><trkpt lat="34.9775632" lon="32.3752918"><ele>564.4</ele><time>2015-04-25T11:20:06.0000000+00:00</time></trkpt><trkpt lat="34.9775151" lon="32.3752843"><ele>564.3</ele><time>2015-04-25T11:20:08.0000000+00:00</time></trkpt><trkpt lat="34.9774702" lon="32.3752778"><ele>564.0</ele><time>2015-04-25T11:20:10.0000000+00:00</time></trkpt><trkpt lat="34.9774151" lon="32.3752651"><ele>564.3</ele><time>2015-04-25T11:20:13.0000000+00:00</time></trkpt><trkpt lat="34.9773631" lon="32.3752664"><ele>564.0</ele><time>2015-04-25T11:20:16.0000000+00:00</time></trkpt><trkpt lat="34.9773114" lon="32.3752691"><ele>562.8</ele><time>2015-04-25T11:20:19.0000000+00:00</time></trkpt><trkpt lat="34.9772578" lon="32.3752564"><ele>563.5</ele><time>2015-04-25T11:20:22.0000000+00:00</time></trkpt><trkpt lat="34.9772042" lon="32.3752428"><ele>563.9</ele><time>2015-04-25T11:20:25.0000000+00:00</time></trkpt><trkpt lat="34.9771493" lon="32.3752375"><ele>564.7</ele><time>2015-04-25T11:20:28.0000000+00:00</time></trkpt><trkpt lat="34.9770939" lon="32.3752348"><ele>565.6</ele><time>2015-04-25T11:20:31.0000000+00:00</time></trkpt><trkpt lat="34.9770372" lon="32.3752262"><ele>566.8</ele><time>2015-04-25T11:20:34.0000000+00:00</time></trkpt><trkpt lat="34.9769813" lon="32.3752175"><ele>566.4</ele><time>2015-04-25T11:20:37.0000000+00:00</time></trkpt><trkpt lat="34.9769331" lon="32.3751945"><ele>566.5</ele><time>2015-04-25T11:20:40.0000000+00:00</time></trkpt><trkpt lat="34.9768825" lon="32.3751746"><ele>568.2</ele><time>2015-04-25T11:20:43.0000000+00:00</time></trkpt><trkpt lat="34.9768282" lon="32.375154"><ele>568.8</ele><time>2015-04-25T11:20:46.0000000+00:00</time></trkpt><trkpt lat="34.9767788" lon="32.3751252"><ele>568.9</ele><time>2015-04-25T11:20:49.0000000+00:00</time></trkpt><trkpt lat="34.9767307" lon="32.3751009"><ele>568.9</ele><time>2015-04-25T11:20:52.0000000+00:00</time></trkpt><trkpt lat="34.9766795" lon="32.3750897"><ele>570.3</ele><time>2015-04-25T11:20:55.0000000+00:00</time></trkpt><trkpt lat="34.9766245" lon="32.3750776"><ele>571.6</ele><time>2015-04-25T11:20:58.0000000+00:00</time></trkpt><trkpt lat="34.9765632" lon="32.3750749"><ele>572.8</ele><time>2015-04-25T11:21:01.0000000+00:00</time></trkpt><trkpt lat="34.9765034" lon="32.3750598"><ele>573.0</ele><time>2015-04-25T11:21:04.0000000+00:00</time></trkpt><trkpt lat="34.9764509" lon="32.375031"><ele>573.8</ele><time>2015-04-25T11:21:07.0000000+00:00</time></trkpt><trkpt lat="34.9764001" lon="32.3750032"><ele>573.4</ele><time>2015-04-25T11:21:10.0000000+00:00</time></trkpt><trkpt lat="34.9763484" lon="32.3749816"><ele>573.0</ele><time>2015-04-25T11:21:13.0000000+00:00</time></trkpt><trkpt lat="34.9762939" lon="32.3749638"><ele>574.6</ele><time>2015-04-25T11:21:16.0000000+00:00</time></trkpt><trkpt lat="34.9762424" lon="32.3749473"><ele>574.0</ele><time>2015-04-25T11:21:19.0000000+00:00</time></trkpt><trkpt lat="34.9761878" lon="32.3749272"><ele>575.1</ele><time>2015-04-25T11:21:22.0000000+00:00</time></trkpt><trkpt lat="34.9761272" lon="32.3749173"><ele>574.9</ele><time>2015-04-25T11:21:25.0000000+00:00</time></trkpt><trkpt lat="34.9760683" lon="32.374895"><ele>575.2</ele><time>2015-04-25T11:21:28.0000000+00:00</time></trkpt><trkpt lat="34.9760154" lon="32.3748763"><ele>575.5</ele><time>2015-04-25T11:21:31.0000000+00:00</time></trkpt><trkpt lat="34.9759607" lon="32.3748635"><ele>575.6</ele><time>2015-04-25T11:21:34.0000000+00:00</time></trkpt><trkpt lat="34.975902" lon="32.3748569"><ele>576.4</ele><time>2015-04-25T11:21:37.0000000+00:00</time></trkpt><trkpt lat="34.9758461" lon="32.3748498"><ele>576.6</ele><time>2015-04-25T11:21:40.0000000+00:00</time></trkpt><trkpt lat="34.9757959" lon="32.374831"><ele>575.5</ele><time>2015-04-25T11:21:43.0000000+00:00</time></trkpt><trkpt lat="34.9757423" lon="32.3748203"><ele>575.3</ele><time>2015-04-25T11:21:46.0000000+00:00</time></trkpt><trkpt lat="34.9756863" lon="32.37481"><ele>575.8</ele><time>2015-04-25T11:21:49.0000000+00:00</time></trkpt><trkpt lat="34.9756311" lon="32.374805"><ele>575.9</ele><time>2015-04-25T11:21:52.0000000+00:00</time></trkpt><trkpt lat="34.9755754" lon="32.3747963"><ele>576.8</ele><time>2015-04-25T11:21:55.0000000+00:00</time></trkpt><trkpt lat="34.9755245" lon="32.3747731"><ele>577.7</ele><time>2015-04-25T11:21:58.0000000+00:00</time></trkpt><trkpt lat="34.9754804" lon="32.3747476"><ele>576.6</ele><time>2015-04-25T11:22:01.0000000+00:00</time></trkpt><trkpt lat="34.9754338" lon="32.3747184"><ele>576.8</ele><time>2015-04-25T11:22:04.0000000+00:00</time></trkpt><trkpt lat="34.9753808" lon="32.37469"><ele>576.9</ele><time>2015-04-25T11:22:07.0000000+00:00</time></trkpt><trkpt lat="34.9753275" lon="32.3746569"><ele>576.4</ele><time>2015-04-25T11:22:10.0000000+00:00</time></trkpt><trkpt lat="34.9752666" lon="32.3746279"><ele>577.2</ele><time>2015-04-25T11:22:13.0000000+00:00</time></trkpt><trkpt lat="34.9752068" lon="32.3745914"><ele>578.6</ele><time>2015-04-25T11:22:16.0000000+00:00</time></trkpt><trkpt lat="34.9751578" lon="32.3745444"><ele>579.8</ele><time>2015-04-25T11:22:19.0000000+00:00</time></trkpt><trkpt lat="34.975115" lon="32.3744846"><ele>580.4</ele><time>2015-04-25T11:22:22.0000000+00:00</time></trkpt><trkpt lat="34.9750716" lon="32.3744251"><ele>581.4</ele><time>2015-04-25T11:22:25.0000000+00:00</time></trkpt><trkpt lat="34.9750283" lon="32.3743663"><ele>581.7</ele><time>2015-04-25T11:22:28.0000000+00:00</time></trkpt><trkpt lat="34.9749832" lon="32.3743105"><ele>582.0</ele><time>2015-04-25T11:22:31.0000000+00:00</time></trkpt><trkpt lat="34.9749373" lon="32.3742622"><ele>581.8</ele><time>2015-04-25T11:22:34.0000000+00:00</time></trkpt><trkpt lat="34.9748947" lon="32.3742136"><ele>582.4</ele><time>2015-04-25T11:22:37.0000000+00:00</time></trkpt><trkpt lat="34.9748659" lon="32.3741601"><ele>583.2</ele><time>2015-04-25T11:22:40.0000000+00:00</time></trkpt><trkpt lat="34.9748209" lon="32.3741221"><ele>585.0</ele><time>2015-04-25T11:22:43.0000000+00:00</time></trkpt><trkpt lat="34.9747789" lon="32.3740761"><ele>583.7</ele><time>2015-04-25T11:22:46.0000000+00:00</time></trkpt><trkpt lat="34.9747404" lon="32.3740237"><ele>583.0</ele><time>2015-04-25T11:22:49.0000000+00:00</time></trkpt><trkpt lat="34.9746922" lon="32.3739783"><ele>583.3</ele><time>2015-04-25T11:22:52.0000000+00:00</time></trkpt><trkpt lat="34.9746443" lon="32.3739473"><ele>581.6</ele><time>2015-04-25T11:22:55.0000000+00:00</time></trkpt><trkpt lat="34.9745994" lon="32.3739356"><ele>581.0</ele><time>2015-04-25T11:22:58.0000000+00:00</time></trkpt><trkpt lat="34.9745463" lon="32.373936"><ele>581.1</ele><time>2015-04-25T11:23:01.0000000+00:00</time></trkpt><trkpt lat="34.9744887" lon="32.3739439"><ele>580.4</ele><time>2015-04-25T11:23:04.0000000+00:00</time></trkpt><trkpt lat="34.9744309" lon="32.3739489"><ele>580.7</ele><time>2015-04-25T11:23:07.0000000+00:00</time></trkpt><trkpt lat="34.9743705" lon="32.3739641"><ele>580.8</ele><time>2015-04-25T11:23:10.0000000+00:00</time></trkpt><trkpt lat="34.9743176" lon="32.3739869"><ele>580.8</ele><time>2015-04-25T11:23:13.0000000+00:00</time></trkpt><trkpt lat="34.9742708" lon="32.3739969"><ele>580.9</ele><time>2015-04-25T11:23:16.0000000+00:00</time></trkpt><trkpt lat="34.9742148" lon="32.374011"><ele>581.8</ele><time>2015-04-25T11:23:19.0000000+00:00</time></trkpt><trkpt lat="34.9741545" lon="32.3740332"><ele>581.4</ele><time>2015-04-25T11:23:22.0000000+00:00</time></trkpt><trkpt lat="34.9740977" lon="32.3740529"><ele>581.4</ele><time>2015-04-25T11:23:25.0000000+00:00</time></trkpt><trkpt lat="34.9740425" lon="32.3740802"><ele>581.5</ele><time>2015-04-25T11:23:28.0000000+00:00</time></trkpt><trkpt lat="34.9739862" lon="32.3741105"><ele>581.1</ele><time>2015-04-25T11:23:31.0000000+00:00</time></trkpt><trkpt lat="34.9739252" lon="32.3741432"><ele>580.2</ele><time>2015-04-25T11:23:34.0000000+00:00</time></trkpt><trkpt lat="34.9738659" lon="32.3741612"><ele>578.3</ele><time>2015-04-25T11:23:37.0000000+00:00</time></trkpt><trkpt lat="34.9738059" lon="32.3741862"><ele>578.7</ele><time>2015-04-25T11:23:40.0000000+00:00</time></trkpt><trkpt lat="34.9737438" lon="32.3742154"><ele>579.2</ele><time>2015-04-25T11:23:43.0000000+00:00</time></trkpt><trkpt lat="34.9736991" lon="32.3742285"><ele>578.2</ele><time>2015-04-25T11:23:45.0000000+00:00</time></trkpt><trkpt lat="34.9736509" lon="32.3742322"><ele>578.0</ele><time>2015-04-25T11:23:47.0000000+00:00</time></trkpt><trkpt lat="34.9735992" lon="32.3742341"><ele>578.4</ele><time>2015-04-25T11:23:49.0000000+00:00</time></trkpt><trkpt lat="34.9735448" lon="32.374233"><ele>578.8</ele><time>2015-04-25T11:23:51.0000000+00:00</time></trkpt><trkpt lat="34.973491" lon="32.3742316"><ele>579.4</ele><time>2015-04-25T11:23:53.0000000+00:00</time></trkpt><trkpt lat="34.9734369" lon="32.3742282"><ele>579.8</ele><time>2015-04-25T11:23:55.0000000+00:00</time></trkpt><trkpt lat="34.9733768" lon="32.3742285"><ele>579.9</ele><time>2015-04-25T11:23:57.0000000+00:00</time></trkpt><trkpt lat="34.9733141" lon="32.3742267"><ele>579.9</ele><time>2015-04-25T11:23:59.0000000+00:00</time></trkpt><trkpt lat="34.9732529" lon="32.374231"><ele>579.9</ele><time>2015-04-25T11:24:01.0000000+00:00</time></trkpt><trkpt lat="34.973194" lon="32.3742403"><ele>580.7</ele><time>2015-04-25T11:24:03.0000000+00:00</time></trkpt><trkpt lat="34.9731333" lon="32.374252"><ele>581.4</ele><time>2015-04-25T11:24:05.0000000+00:00</time></trkpt><trkpt lat="34.9730732" lon="32.3742637"><ele>581.3</ele><time>2015-04-25T11:24:07.0000000+00:00</time></trkpt><trkpt lat="34.973014" lon="32.3742768"><ele>581.0</ele><time>2015-04-25T11:24:09.0000000+00:00</time></trkpt><trkpt lat="34.9729585" lon="32.374293"><ele>581.0</ele><time>2015-04-25T11:24:11.0000000+00:00</time></trkpt><trkpt lat="34.9728977" lon="32.3743134"><ele>580.7</ele><time>2015-04-25T11:24:13.0000000+00:00</time></trkpt><trkpt lat="34.9728388" lon="32.3743328"><ele>580.9</ele><time>2015-04-25T11:24:15.0000000+00:00</time></trkpt><trkpt lat="34.9727823" lon="32.3743482"><ele>581.7</ele><time>2015-04-25T11:24:17.0000000+00:00</time></trkpt><trkpt lat="34.9727318" lon="32.3743646"><ele>581.9</ele><time>2015-04-25T11:24:19.0000000+00:00</time></trkpt><trkpt lat="34.972682" lon="32.3743832"><ele>582.7</ele><time>2015-04-25T11:24:21.0000000+00:00</time></trkpt><trkpt lat="34.972638" lon="32.3743954"><ele>582.1</ele><time>2015-04-25T11:24:23.0000000+00:00</time></trkpt><trkpt lat="34.9725938" lon="32.3744074"><ele>582.0</ele><time>2015-04-25T11:24:25.0000000+00:00</time></trkpt><trkpt lat="34.9725258" lon="32.3744209"><ele>582.4</ele><time>2015-04-25T11:24:28.0000000+00:00</time></trkpt><trkpt lat="34.9724596" lon="32.3744333"><ele>581.7</ele><time>2015-04-25T11:24:31.0000000+00:00</time></trkpt><trkpt lat="34.9723992" lon="32.3744482"><ele>581.9</ele><time>2015-04-25T11:24:34.0000000+00:00</time></trkpt><trkpt lat="34.972336" lon="32.3744647"><ele>582.8</ele><time>2015-04-25T11:24:37.0000000+00:00</time></trkpt><trkpt lat="34.9722739" lon="32.3744789"><ele>582.9</ele><time>2015-04-25T11:24:40.0000000+00:00</time></trkpt><trkpt lat="34.9722087" lon="32.3744942"><ele>583.4</ele><time>2015-04-25T11:24:43.0000000+00:00</time></trkpt><trkpt lat="34.9721604" lon="32.3745056"><ele>583.8</ele><time>2015-04-25T11:24:45.0000000+00:00</time></trkpt><trkpt lat="34.9721123" lon="32.3745119"><ele>583.9</ele><time>2015-04-25T11:24:47.0000000+00:00</time></trkpt><trkpt lat="34.9720615" lon="32.3745064"><ele>583.9</ele><time>2015-04-25T11:24:50.0000000+00:00</time></trkpt><trkpt lat="34.9720188" lon="32.374533"><ele>587.2</ele><time>2015-04-25T11:40:04.0000000+00:00</time></trkpt><trkpt lat="34.972067" lon="32.3745187"><ele>587.2</ele><time>2015-04-25T11:40:11.0000000+00:00</time></trkpt><trkpt lat="34.9720236" lon="32.3745368"><ele>585.1</ele><time>2015-04-25T11:48:24.0000000+00:00</time></trkpt><trkpt lat="34.9719809" lon="32.3745714"><ele>585.1</ele><time>2015-04-25T11:48:29.0000000+00:00</time></trkpt><trkpt lat="34.9719597" lon="32.3745151"><ele>584.1</ele><time>2015-04-25T11:48:32.0000000+00:00</time></trkpt><trkpt lat="34.9719883" lon="32.3744509"><ele>583.5</ele><time>2015-04-25T11:48:34.0000000+00:00</time></trkpt><trkpt lat="34.972035" lon="32.3743901"><ele>582.3</ele><time>2015-04-25T11:48:36.0000000+00:00</time></trkpt><trkpt lat="34.9720875" lon="32.3743248"><ele>581.5</ele><time>2015-04-25T11:48:38.0000000+00:00</time></trkpt><trkpt lat="34.9721479" lon="32.3742586"><ele>580.8</ele><time>2015-04-25T11:48:40.0000000+00:00</time></trkpt><trkpt lat="34.9722159" lon="32.3742012"><ele>580.9</ele><time>2015-04-25T11:48:42.0000000+00:00</time></trkpt><trkpt lat="34.9722849" lon="32.3741497"><ele>580.7</ele><time>2015-04-25T11:48:44.0000000+00:00</time></trkpt><trkpt lat="34.9723558" lon="32.3741062"><ele>580.9</ele><time>2015-04-25T11:48:46.0000000+00:00</time></trkpt><trkpt lat="34.9724396" lon="32.3740779"><ele>578.7</ele><time>2015-04-25T11:48:48.0000000+00:00</time></trkpt><trkpt lat="34.972485" lon="32.3740687"><ele>577.8</ele><time>2015-04-25T11:48:49.0000000+00:00</time></trkpt><trkpt lat="34.9725818" lon="32.3740691"><ele>576.4</ele><time>2015-04-25T11:48:50.0000000+00:00</time></trkpt><trkpt lat="34.972631" lon="32.3740504"><ele>575.1</ele><time>2015-04-25T11:48:51.0000000+00:00</time></trkpt><trkpt lat="34.9726936" lon="32.3740122"><ele>574.0</ele><time>2015-04-25T11:48:52.0000000+00:00</time></trkpt><trkpt lat="34.9727618" lon="32.3739641"><ele>573.0</ele><time>2015-04-25T11:48:53.0000000+00:00</time></trkpt><trkpt lat="34.9728289" lon="32.3739107"><ele>573.0</ele><time>2015-04-25T11:48:54.0000000+00:00</time></trkpt><trkpt lat="34.9728876" lon="32.3738559"><ele>572.9</ele><time>2015-04-25T11:48:55.0000000+00:00</time></trkpt><trkpt lat="34.9729493" lon="32.3737954"><ele>572.9</ele><time>2015-04-25T11:48:56.0000000+00:00</time></trkpt><trkpt lat="34.9730064" lon="32.3737326"><ele>572.9</ele><time>2015-04-25T11:48:57.0000000+00:00</time></trkpt><trkpt lat="34.973057" lon="32.3736744"><ele>573.4</ele><time>2015-04-25T11:48:58.0000000+00:00</time></trkpt><trkpt lat="34.9731071" lon="32.3736184"><ele>573.7</ele><time>2015-04-25T11:48:59.0000000+00:00</time></trkpt><trkpt lat="34.9731704" lon="32.3735652"><ele>573.3</ele><time>2015-04-25T11:49:00.0000000+00:00</time></trkpt><trkpt lat="34.973233" lon="32.3735122"><ele>573.1</ele><time>2015-04-25T11:49:01.0000000+00:00</time></trkpt><trkpt lat="34.973294" lon="32.3734707"><ele>572.5</ele><time>2015-04-25T11:49:02.0000000+00:00</time></trkpt><trkpt lat="34.9733627" lon="32.3734343"><ele>571.7</ele><time>2015-04-25T11:49:03.0000000+00:00</time></trkpt><trkpt lat="34.9734332" lon="32.3733933"><ele>570.8</ele><time>2015-04-25T11:49:04.0000000+00:00</time></trkpt><trkpt lat="34.9734913" lon="32.3733471"><ele>569.9</ele><time>2015-04-25T11:49:05.0000000+00:00</time></trkpt><trkpt lat="34.9735435" lon="32.3732995"><ele>568.4</ele><time>2015-04-25T11:49:06.0000000+00:00</time></trkpt><trkpt lat="34.9735814" lon="32.37326"><ele>568.2</ele><time>2015-04-25T11:49:07.0000000+00:00</time></trkpt><trkpt lat="34.9736273" lon="32.3732012"><ele>568.0</ele><time>2015-04-25T11:49:08.0000000+00:00</time></trkpt><trkpt lat="34.9736798" lon="32.3731527"><ele>567.5</ele><time>2015-04-25T11:49:09.0000000+00:00</time></trkpt><trkpt lat="34.9737363" lon="32.3730937"><ele>566.7</ele><time>2015-04-25T11:49:10.0000000+00:00</time></trkpt><trkpt lat="34.9738053" lon="32.3730182"><ele>565.8</ele><time>2015-04-25T11:49:11.0000000+00:00</time></trkpt><trkpt lat="34.9738611" lon="32.3729329"><ele>564.4</ele><time>2015-04-25T11:49:12.0000000+00:00</time></trkpt><trkpt lat="34.973913" lon="32.3728533"><ele>563.2</ele><time>2015-04-25T11:49:13.0000000+00:00</time></trkpt><trkpt lat="34.9739726" lon="32.3727603"><ele>562.5</ele><time>2015-04-25T11:49:14.0000000+00:00</time></trkpt><trkpt lat="34.974014" lon="32.3726594"><ele>561.7</ele><time>2015-04-25T11:49:15.0000000+00:00</time></trkpt><trkpt lat="34.9740662" lon="32.3725647"><ele>561.3</ele><time>2015-04-25T11:49:16.0000000+00:00</time></trkpt><trkpt lat="34.9740932" lon="32.3724622"><ele>561.1</ele><time>2015-04-25T11:49:17.0000000+00:00</time></trkpt><trkpt lat="34.9741192" lon="32.372362"><ele>560.5</ele><time>2015-04-25T11:49:18.0000000+00:00</time></trkpt><trkpt lat="34.9741338" lon="32.3722559"><ele>560.7</ele><time>2015-04-25T11:49:19.0000000+00:00</time></trkpt><trkpt lat="34.9741444" lon="32.3721617"><ele>560.8</ele><time>2015-04-25T11:49:20.0000000+00:00</time></trkpt><trkpt lat="34.9741625" lon="32.3720717"><ele>560.4</ele><time>2015-04-25T11:49:21.0000000+00:00</time></trkpt><trkpt lat="34.974177" lon="32.3719737"><ele>560.2</ele><time>2015-04-25T11:49:22.0000000+00:00</time></trkpt><trkpt lat="34.9741994" lon="32.3719201"><ele>559.5</ele><time>2015-04-25T11:49:23.0000000+00:00</time></trkpt><trkpt lat="34.9742293" lon="32.3718538"><ele>558.7</ele><time>2015-04-25T11:49:24.0000000+00:00</time></trkpt><trkpt lat="34.9742478" lon="32.3717994"><ele>557.8</ele><time>2015-04-25T11:49:25.0000000+00:00</time></trkpt><trkpt lat="34.9742777" lon="32.3717493"><ele>557.7</ele><time>2015-04-25T11:49:27.0000000+00:00</time></trkpt><trkpt lat="34.9742912" lon="32.371689"><ele>559.3</ele><time>2015-04-25T11:50:43.0000000+00:00</time></trkpt><trkpt lat="34.9743171" lon="32.3716204"><ele>559.0</ele><time>2015-04-25T11:50:45.0000000+00:00</time></trkpt><trkpt lat="34.9743457" lon="32.3715383"><ele>558.0</ele><time>2015-04-25T11:50:47.0000000+00:00</time></trkpt><trkpt lat="34.9743829" lon="32.371445"><ele>556.7</ele><time>2015-04-25T11:50:49.0000000+00:00</time></trkpt><trkpt lat="34.9744067" lon="32.371397"><ele>556.3</ele><time>2015-04-25T11:50:50.0000000+00:00</time></trkpt><trkpt lat="34.9744494" lon="32.3713238"><ele>556.1</ele><time>2015-04-25T11:50:51.0000000+00:00</time></trkpt><trkpt lat="34.9744804" lon="32.3712616"><ele>555.5</ele><time>2015-04-25T11:50:52.0000000+00:00</time></trkpt><trkpt lat="34.974516" lon="32.3712053"><ele>555.2</ele><time>2015-04-25T11:50:53.0000000+00:00</time></trkpt><trkpt lat="34.9745468" lon="32.3711506"><ele>554.6</ele><time>2015-04-25T11:50:54.0000000+00:00</time></trkpt><trkpt lat="34.9745824" lon="32.3710849"><ele>553.8</ele><time>2015-04-25T11:50:55.0000000+00:00</time></trkpt><trkpt lat="34.974621" lon="32.371022"><ele>553.3</ele><time>2015-04-25T11:50:56.0000000+00:00</time></trkpt><trkpt lat="34.974659" lon="32.3709446"><ele>553.1</ele><time>2015-04-25T11:50:57.0000000+00:00</time></trkpt><trkpt lat="34.9747129" lon="32.3708736"><ele>551.5</ele><time>2015-04-25T11:50:58.0000000+00:00</time></trkpt><trkpt lat="34.9747559" lon="32.3708019"><ele>550.7</ele><time>2015-04-25T11:50:59.0000000+00:00</time></trkpt><trkpt lat="34.9748012" lon="32.3707228"><ele>549.3</ele><time>2015-04-25T11:51:00.0000000+00:00</time></trkpt><trkpt lat="34.9748485" lon="32.37065"><ele>548.1</ele><time>2015-04-25T11:51:01.0000000+00:00</time></trkpt><trkpt lat="34.9749117" lon="32.3705832"><ele>546.0</ele><time>2015-04-25T11:51:02.0000000+00:00</time></trkpt><trkpt lat="34.9749598" lon="32.3705119"><ele>544.5</ele><time>2015-04-25T11:51:03.0000000+00:00</time></trkpt><trkpt lat="34.975006" lon="32.3704404"><ele>543.2</ele><time>2015-04-25T11:51:04.0000000+00:00</time></trkpt><trkpt lat="34.9750593" lon="32.3703574"><ele>542.1</ele><time>2015-04-25T11:51:05.0000000+00:00</time></trkpt><trkpt lat="34.9751037" lon="32.3702715"><ele>540.5</ele><time>2015-04-25T11:51:06.0000000+00:00</time></trkpt><trkpt lat="34.9751489" lon="32.3701827"><ele>539.7</ele><time>2015-04-25T11:51:07.0000000+00:00</time></trkpt><trkpt lat="34.9751926" lon="32.3700869"><ele>539.3</ele><time>2015-04-25T11:51:08.0000000+00:00</time></trkpt><trkpt lat="34.9752446" lon="32.369996"><ele>539.1</ele><time>2015-04-25T11:51:09.0000000+00:00</time></trkpt><trkpt lat="34.975294" lon="32.3699047"><ele>539.0</ele><time>2015-04-25T11:51:10.0000000+00:00</time></trkpt><trkpt lat="34.975357" lon="32.3698203"><ele>539.0</ele><time>2015-04-25T11:51:11.0000000+00:00</time></trkpt><trkpt lat="34.9754143" lon="32.3697301"><ele>538.5</ele><time>2015-04-25T11:51:12.0000000+00:00</time></trkpt><trkpt lat="34.9754782" lon="32.3696451"><ele>538.2</ele><time>2015-04-25T11:51:13.0000000+00:00</time></trkpt><trkpt lat="34.9755334" lon="32.3695585"><ele>537.6</ele><time>2015-04-25T11:51:14.0000000+00:00</time></trkpt><trkpt lat="34.9755849" lon="32.3694863"><ele>536.7</ele><time>2015-04-25T11:51:15.0000000+00:00</time></trkpt><trkpt lat="34.9756325" lon="32.3693814"><ele>536.3</ele><time>2015-04-25T11:51:16.0000000+00:00</time></trkpt><trkpt lat="34.9756669" lon="32.36928"><ele>536.1</ele><time>2015-04-25T11:51:17.0000000+00:00</time></trkpt><trkpt lat="34.9756925" lon="32.3691745"><ele>535.5</ele><time>2015-04-25T11:51:18.0000000+00:00</time></trkpt><trkpt lat="34.9757046" lon="32.3690717"><ele>534.7</ele><time>2015-04-25T11:51:19.0000000+00:00</time></trkpt><trkpt lat="34.9757006" lon="32.3689794"><ele>534.8</ele><time>2015-04-25T11:51:20.0000000+00:00</time></trkpt><trkpt lat="34.9756919" lon="32.3688986"><ele>534.9</ele><time>2015-04-25T11:51:21.0000000+00:00</time></trkpt><trkpt lat="34.9756803" lon="32.3688235"><ele>535.4</ele><time>2015-04-25T11:51:22.0000000+00:00</time></trkpt><trkpt lat="34.975666" lon="32.3687475"><ele>535.7</ele><time>2015-04-25T11:51:23.0000000+00:00</time></trkpt><trkpt lat="34.9756605" lon="32.3686797"><ele>535.8</ele><time>2015-04-25T11:51:24.0000000+00:00</time></trkpt><trkpt lat="34.975657" lon="32.3686002"><ele>535.9</ele><time>2015-04-25T11:51:25.0000000+00:00</time></trkpt><trkpt lat="34.9756507" lon="32.3685245"><ele>535.9</ele><time>2015-04-25T11:51:26.0000000+00:00</time></trkpt><trkpt lat="34.9756386" lon="32.3684433"><ele>535.9</ele><time>2015-04-25T11:51:27.0000000+00:00</time></trkpt><trkpt lat="34.9756306" lon="32.368368"><ele>536.9</ele><time>2015-04-25T11:51:28.0000000+00:00</time></trkpt><trkpt lat="34.9756281" lon="32.3682864"><ele>537.4</ele><time>2015-04-25T11:51:29.0000000+00:00</time></trkpt><trkpt lat="34.9756339" lon="32.3682086"><ele>537.2</ele><time>2015-04-25T11:51:30.0000000+00:00</time></trkpt><trkpt lat="34.9756384" lon="32.3681408"><ele>537.6</ele><time>2015-04-25T11:51:31.0000000+00:00</time></trkpt><trkpt lat="34.9756521" lon="32.3680591"><ele>537.2</ele><time>2015-04-25T11:51:32.0000000+00:00</time></trkpt><trkpt lat="34.9756661" lon="32.367986"><ele>537.1</ele><time>2015-04-25T11:51:33.0000000+00:00</time></trkpt><trkpt lat="34.9756818" lon="32.3679013"><ele>537.0</ele><time>2015-04-25T11:51:34.0000000+00:00</time></trkpt><trkpt lat="34.9756995" lon="32.3678097"><ele>537.0</ele><time>2015-04-25T11:51:35.0000000+00:00</time></trkpt><trkpt lat="34.9757055" lon="32.3677187"><ele>536.4</ele><time>2015-04-25T11:51:36.0000000+00:00</time></trkpt><trkpt lat="34.9757019" lon="32.3676354"><ele>536.7</ele><time>2015-04-25T11:51:37.0000000+00:00</time></trkpt><trkpt lat="34.9756988" lon="32.3675608"><ele>536.8</ele><time>2015-04-25T11:51:38.0000000+00:00</time></trkpt><trkpt lat="34.9757004" lon="32.3674882"><ele>536.4</ele><time>2015-04-25T11:51:39.0000000+00:00</time></trkpt><trkpt lat="34.9757323" lon="32.3674095"><ele>535.6</ele><time>2015-04-25T11:51:40.0000000+00:00</time></trkpt><trkpt lat="34.9757516" lon="32.3673323"><ele>535.3</ele><time>2015-04-25T11:51:41.0000000+00:00</time></trkpt><trkpt lat="34.9757803" lon="32.3672532"><ele>535.1</ele><time>2015-04-25T11:51:42.0000000+00:00</time></trkpt><trkpt lat="34.9758126" lon="32.3671741"><ele>535.0</ele><time>2015-04-25T11:51:43.0000000+00:00</time></trkpt><trkpt lat="34.9758525" lon="32.3670942"><ele>534.5</ele><time>2015-04-25T11:51:44.0000000+00:00</time></trkpt><trkpt lat="34.975906" lon="32.3670168"><ele>533.7</ele><time>2015-04-25T11:51:45.0000000+00:00</time></trkpt><trkpt lat="34.9759531" lon="32.3669373"><ele>532.8</ele><time>2015-04-25T11:51:46.0000000+00:00</time></trkpt><trkpt lat="34.9760029" lon="32.366865"><ele>533.4</ele><time>2015-04-25T11:51:47.0000000+00:00</time></trkpt><trkpt lat="34.9760541" lon="32.3667828"><ele>533.7</ele><time>2015-04-25T11:51:48.0000000+00:00</time></trkpt><trkpt lat="34.9761058" lon="32.3667115"><ele>533.8</ele><time>2015-04-25T11:51:49.0000000+00:00</time></trkpt><trkpt lat="34.976149" lon="32.3666328"><ele>533.4</ele><time>2015-04-25T11:51:50.0000000+00:00</time></trkpt><trkpt lat="34.9762056" lon="32.3665592"><ele>533.1</ele><time>2015-04-25T11:51:51.0000000+00:00</time></trkpt><trkpt lat="34.9762682" lon="32.3665037"><ele>532.5</ele><time>2015-04-25T11:51:52.0000000+00:00</time></trkpt><trkpt lat="34.9763268" lon="32.3664459"><ele>532.2</ele><time>2015-04-25T11:51:53.0000000+00:00</time></trkpt><trkpt lat="34.9763756" lon="32.3663808"><ele>532.1</ele><time>2015-04-25T11:51:54.0000000+00:00</time></trkpt><trkpt lat="34.9764176" lon="32.3663175"><ele>531.5</ele><time>2015-04-25T11:51:55.0000000+00:00</time></trkpt><trkpt lat="34.9764596" lon="32.3662409"><ele>531.2</ele><time>2015-04-25T11:51:56.0000000+00:00</time></trkpt><trkpt lat="34.9764966" lon="32.3661724"><ele>530.6</ele><time>2015-04-25T11:51:57.0000000+00:00</time></trkpt><trkpt lat="34.9765299" lon="32.3661122"><ele>530.8</ele><time>2015-04-25T11:51:58.0000000+00:00</time></trkpt><trkpt lat="34.9765518" lon="32.3660534"><ele>530.3</ele><time>2015-04-25T11:51:59.0000000+00:00</time></trkpt><trkpt lat="34.9765778" lon="32.3659978"><ele>530.6</ele><time>2015-04-25T11:52:00.0000000+00:00</time></trkpt><trkpt lat="34.9765944" lon="32.3659387"><ele>530.8</ele><time>2015-04-25T11:52:01.0000000+00:00</time></trkpt><trkpt lat="34.9766233" lon="32.3658827"><ele>530.4</ele><time>2015-04-25T11:52:02.0000000+00:00</time></trkpt><trkpt lat="34.9766456" lon="32.365817"><ele>530.1</ele><time>2015-04-25T11:52:03.0000000+00:00</time></trkpt><trkpt lat="34.9766614" lon="32.3657399"><ele>529.0</ele><time>2015-04-25T11:52:04.0000000+00:00</time></trkpt><trkpt lat="34.976672" lon="32.3656537"><ele>528.5</ele><time>2015-04-25T11:52:05.0000000+00:00</time></trkpt><trkpt lat="34.9766859" lon="32.3655667"><ele>527.2</ele><time>2015-04-25T11:52:06.0000000+00:00</time></trkpt><trkpt lat="34.9767064" lon="32.3654784"><ele>526.1</ele><time>2015-04-25T11:52:07.0000000+00:00</time></trkpt><trkpt lat="34.9767257" lon="32.3653926"><ele>525.0</ele><time>2015-04-25T11:52:08.0000000+00:00</time></trkpt><trkpt lat="34.9767519" lon="32.3653112"><ele>525.0</ele><time>2015-04-25T11:52:09.0000000+00:00</time></trkpt><trkpt lat="34.9767844" lon="32.365239"><ele>524.9</ele><time>2015-04-25T11:52:10.0000000+00:00</time></trkpt><trkpt lat="34.9768069" lon="32.3651628"><ele>524.9</ele><time>2015-04-25T11:52:11.0000000+00:00</time></trkpt><trkpt lat="34.9768602" lon="32.365093"><ele>524.9</ele><time>2015-04-25T11:52:12.0000000+00:00</time></trkpt><trkpt lat="34.9769" lon="32.3650208"><ele>524.9</ele><time>2015-04-25T11:52:13.0000000+00:00</time></trkpt><trkpt lat="34.9769388" lon="32.3649612"><ele>524.9</ele><time>2015-04-25T11:52:14.0000000+00:00</time></trkpt><trkpt lat="34.9769687" lon="32.3649025"><ele>524.9</ele><time>2015-04-25T11:52:15.0000000+00:00</time></trkpt><trkpt lat="34.9769956" lon="32.3648396"><ele>525.4</ele><time>2015-04-25T11:52:16.0000000+00:00</time></trkpt><trkpt lat="34.9770235" lon="32.3647736"><ele>525.7</ele><time>2015-04-25T11:52:17.0000000+00:00</time></trkpt><trkpt lat="34.9770454" lon="32.3647023"><ele>525.8</ele><time>2015-04-25T11:52:18.0000000+00:00</time></trkpt><trkpt lat="34.9770523" lon="32.3646367"><ele>525.9</ele><time>2015-04-25T11:52:19.0000000+00:00</time></trkpt><trkpt lat="34.97707" lon="32.3645557"><ele>525.9</ele><time>2015-04-25T11:52:20.0000000+00:00</time></trkpt><trkpt lat="34.9770876" lon="32.3644899"><ele>525.9</ele><time>2015-04-25T11:52:21.0000000+00:00</time></trkpt><trkpt lat="34.9771144" lon="32.3644249"><ele>526.4</ele><time>2015-04-25T11:52:22.0000000+00:00</time></trkpt><trkpt lat="34.9771256" lon="32.3643524"><ele>526.7</ele><time>2015-04-25T11:52:23.0000000+00:00</time></trkpt><trkpt lat="34.9771344" lon="32.3642848"><ele>527.3</ele><time>2015-04-25T11:52:24.0000000+00:00</time></trkpt><trkpt lat="34.9771431" lon="32.3642138"><ele>527.1</ele><time>2015-04-25T11:52:25.0000000+00:00</time></trkpt><trkpt lat="34.9771508" lon="32.3641324"><ele>527.0</ele><time>2015-04-25T11:52:26.0000000+00:00</time></trkpt><trkpt lat="34.9771592" lon="32.3640632"><ele>527.0</ele><time>2015-04-25T11:52:27.0000000+00:00</time></trkpt><trkpt lat="34.977179" lon="32.3639993"><ele>526.0</ele><time>2015-04-25T11:52:28.0000000+00:00</time></trkpt><trkpt lat="34.9771949" lon="32.3639245"><ele>524.9</ele><time>2015-04-25T11:52:29.0000000+00:00</time></trkpt><trkpt lat="34.9772084" lon="32.3638496"><ele>524.9</ele><time>2015-04-25T11:52:30.0000000+00:00</time></trkpt><trkpt lat="34.9772332" lon="32.3637844"><ele>525.4</ele><time>2015-04-25T11:52:31.0000000+00:00</time></trkpt><trkpt lat="34.977256" lon="32.3637239"><ele>525.7</ele><time>2015-04-25T11:52:32.0000000+00:00</time></trkpt><trkpt lat="34.9772676" lon="32.363656"><ele>526.3</ele><time>2015-04-25T11:52:33.0000000+00:00</time></trkpt><trkpt lat="34.9772846" lon="32.3636034"><ele>526.6</ele><time>2015-04-25T11:52:34.0000000+00:00</time></trkpt><trkpt lat="34.9772917" lon="32.3635481"><ele>526.8</ele><time>2015-04-25T11:52:35.0000000+00:00</time></trkpt><trkpt lat="34.9773124" lon="32.3634471"><ele>526.9</ele><time>2015-04-25T11:52:37.0000000+00:00</time></trkpt><trkpt lat="34.9773459" lon="32.3633726"><ele>526.7</ele><time>2015-04-25T11:52:39.0000000+00:00</time></trkpt><trkpt lat="34.9773639" lon="32.3633051"><ele>526.1</ele><time>2015-04-25T11:52:41.0000000+00:00</time></trkpt><trkpt lat="34.9773968" lon="32.3632302"><ele>526.0</ele><time>2015-04-25T11:52:43.0000000+00:00</time></trkpt><trkpt lat="34.9774157" lon="32.3631281"><ele>525.9</ele><time>2015-04-25T11:52:45.0000000+00:00</time></trkpt><trkpt lat="34.9774445" lon="32.3630422"><ele>525.9</ele><time>2015-04-25T11:52:47.0000000+00:00</time></trkpt><trkpt lat="34.9774788" lon="32.3629536"><ele>525.9</ele><time>2015-04-25T11:52:49.0000000+00:00</time></trkpt><trkpt lat="34.9775085" lon="32.3628708"><ele>525.2</ele><time>2015-04-25T11:52:51.0000000+00:00</time></trkpt><trkpt lat="34.97754" lon="32.3627879"><ele>525.7</ele><time>2015-04-25T11:52:53.0000000+00:00</time></trkpt><trkpt lat="34.9775753" lon="32.3627148"><ele>525.9</ele><time>2015-04-25T11:52:55.0000000+00:00</time></trkpt><trkpt lat="34.9776123" lon="32.3626419"><ele>526.7</ele><time>2015-04-25T11:52:57.0000000+00:00</time></trkpt><trkpt lat="34.9776458" lon="32.362571"><ele>527.6</ele><time>2015-04-25T11:52:59.0000000+00:00</time></trkpt><trkpt lat="34.9776791" lon="32.3624969"><ele>527.9</ele><time>2015-04-25T11:53:01.0000000+00:00</time></trkpt><trkpt lat="34.9777077" lon="32.362428"><ele>527.9</ele><time>2015-04-25T11:53:03.0000000+00:00</time></trkpt><trkpt lat="34.9777395" lon="32.3623676"><ele>528.4</ele><time>2015-04-25T11:53:05.0000000+00:00</time></trkpt><trkpt lat="34.9777787" lon="32.362312"><ele>527.6</ele><time>2015-04-25T11:53:07.0000000+00:00</time></trkpt><trkpt lat="34.9778197" lon="32.3622471"><ele>527.6</ele><time>2015-04-25T11:53:09.0000000+00:00</time></trkpt><trkpt lat="34.9778552" lon="32.3621822"><ele>527.3</ele><time>2015-04-25T11:53:11.0000000+00:00</time></trkpt><trkpt lat="34.9778848" lon="32.3621125"><ele>527.0</ele><time>2015-04-25T11:53:13.0000000+00:00</time></trkpt><trkpt lat="34.9779119" lon="32.362044"><ele>527.0</ele><time>2015-04-25T11:53:15.0000000+00:00</time></trkpt><trkpt lat="34.9779338" lon="32.3619671"><ele>526.9</ele><time>2015-04-25T11:53:17.0000000+00:00</time></trkpt><trkpt lat="34.9779557" lon="32.3618924"><ele>528.2</ele><time>2015-04-25T11:53:19.0000000+00:00</time></trkpt><trkpt lat="34.977979" lon="32.3618151"><ele>528.7</ele><time>2015-04-25T11:53:21.0000000+00:00</time></trkpt><trkpt lat="34.9780034" lon="32.3617339"><ele>527.6</ele><time>2015-04-25T11:53:23.0000000+00:00</time></trkpt><trkpt lat="34.9780396" lon="32.3616462"><ele>527.1</ele><time>2015-04-25T11:53:25.0000000+00:00</time></trkpt><trkpt lat="34.9780732" lon="32.3615727"><ele>527.0</ele><time>2015-04-25T11:53:26.0000000+00:00</time></trkpt><trkpt lat="34.9781022" lon="32.3615292"><ele>527.0</ele><time>2015-04-25T11:53:27.0000000+00:00</time></trkpt><trkpt lat="34.9781373" lon="32.3614804"><ele>526.5</ele><time>2015-04-25T11:53:28.0000000+00:00</time></trkpt><trkpt lat="34.9781845" lon="32.3614395"><ele>526.7</ele><time>2015-04-25T11:53:29.0000000+00:00</time></trkpt><trkpt lat="34.9782225" lon="32.361391"><ele>526.8</ele><time>2015-04-25T11:53:30.0000000+00:00</time></trkpt><trkpt lat="34.9782569" lon="32.3613342"><ele>526.4</ele><time>2015-04-25T11:53:31.0000000+00:00</time></trkpt><trkpt lat="34.9782927" lon="32.3612753"><ele>525.7</ele><time>2015-04-25T11:53:32.0000000+00:00</time></trkpt><trkpt lat="34.9783241" lon="32.3612346"><ele>525.8</ele><time>2015-04-25T11:53:33.0000000+00:00</time></trkpt><trkpt lat="34.9783485" lon="32.361175"><ele>525.9</ele><time>2015-04-25T11:53:34.0000000+00:00</time></trkpt><trkpt lat="34.9783682" lon="32.3611225"><ele>525.9</ele><time>2015-04-25T11:53:35.0000000+00:00</time></trkpt><trkpt lat="34.9783942" lon="32.3610542"><ele>525.4</ele><time>2015-04-25T11:53:36.0000000+00:00</time></trkpt><trkpt lat="34.9784194" lon="32.3609989"><ele>525.2</ele><time>2015-04-25T11:53:37.0000000+00:00</time></trkpt><trkpt lat="34.9784544" lon="32.360943"><ele>525.6</ele><time>2015-04-25T11:53:38.0000000+00:00</time></trkpt><trkpt lat="34.9784874" lon="32.3608894"><ele>525.7</ele><time>2015-04-25T11:53:39.0000000+00:00</time></trkpt><trkpt lat="34.9785252" lon="32.3608295"><ele>525.3</ele><time>2015-04-25T11:53:40.0000000+00:00</time></trkpt><trkpt lat="34.9785641" lon="32.3607651"><ele>525.1</ele><time>2015-04-25T11:53:41.0000000+00:00</time></trkpt><trkpt lat="34.9786112" lon="32.3606981"><ele>525.0</ele><time>2015-04-25T11:53:42.0000000+00:00</time></trkpt><trkpt lat="34.9786563" lon="32.3606222"><ele>525.0</ele><time>2015-04-25T11:53:43.0000000+00:00</time></trkpt><trkpt lat="34.9787088" lon="32.3605652"><ele>525.0</ele><time>2015-04-25T11:53:44.0000000+00:00</time></trkpt><trkpt lat="34.9787569" lon="32.3604983"><ele>524.4</ele><time>2015-04-25T11:53:45.0000000+00:00</time></trkpt><trkpt lat="34.9788017" lon="32.3604448"><ele>524.7</ele><time>2015-04-25T11:53:46.0000000+00:00</time></trkpt><trkpt lat="34.9788477" lon="32.3603865"><ele>524.8</ele><time>2015-04-25T11:53:47.0000000+00:00</time></trkpt><trkpt lat="34.9788842" lon="32.3603308"><ele>524.9</ele><time>2015-04-25T11:53:48.0000000+00:00</time></trkpt><trkpt lat="34.9789158" lon="32.360273"><ele>524.4</ele><time>2015-04-25T11:53:49.0000000+00:00</time></trkpt><trkpt lat="34.9789502" lon="32.3602196"><ele>524.2</ele><time>2015-04-25T11:53:50.0000000+00:00</time></trkpt><trkpt lat="34.978982" lon="32.360145"><ele>523.5</ele><time>2015-04-25T11:53:51.0000000+00:00</time></trkpt><trkpt lat="34.9790078" lon="32.360076"><ele>523.2</ele><time>2015-04-25T11:53:52.0000000+00:00</time></trkpt><trkpt lat="34.9790462" lon="32.3600052"><ele>523.1</ele><time>2015-04-25T11:53:53.0000000+00:00</time></trkpt><trkpt lat="34.9790875" lon="32.3599432"><ele>523.5</ele><time>2015-04-25T11:53:54.0000000+00:00</time></trkpt><trkpt lat="34.9791211" lon="32.3598861"><ele>523.2</ele><time>2015-04-25T11:53:55.0000000+00:00</time></trkpt><trkpt lat="34.9791558" lon="32.3598217"><ele>522.6</ele><time>2015-04-25T11:53:56.0000000+00:00</time></trkpt><trkpt lat="34.9791718" lon="32.3597405"><ele>522.3</ele><time>2015-04-25T11:53:57.0000000+00:00</time></trkpt><trkpt lat="34.9792042" lon="32.3596591"><ele>522.1</ele><time>2015-04-25T11:53:58.0000000+00:00</time></trkpt><trkpt lat="34.979221" lon="32.359578"><ele>521.5</ele><time>2015-04-25T11:53:59.0000000+00:00</time></trkpt><trkpt lat="34.9792474" lon="32.3594954"><ele>520.2</ele><time>2015-04-25T11:54:00.0000000+00:00</time></trkpt><trkpt lat="34.9792748" lon="32.3594209"><ele>519.6</ele><time>2015-04-25T11:54:01.0000000+00:00</time></trkpt><trkpt lat="34.9793172" lon="32.359345"><ele>518.8</ele><time>2015-04-25T11:54:02.0000000+00:00</time></trkpt><trkpt lat="34.9793454" lon="32.3592722"><ele>518.3</ele><time>2015-04-25T11:54:03.0000000+00:00</time></trkpt><trkpt lat="34.97938" lon="32.3591802"><ele>517.6</ele><time>2015-04-25T11:54:04.0000000+00:00</time></trkpt><trkpt lat="34.9794098" lon="32.3591043"><ele>517.3</ele><time>2015-04-25T11:54:05.0000000+00:00</time></trkpt><trkpt lat="34.9794422" lon="32.3590313"><ele>517.6</ele><time>2015-04-25T11:54:06.0000000+00:00</time></trkpt><trkpt lat="34.9794702" lon="32.3589452"><ele>517.3</ele><time>2015-04-25T11:54:07.0000000+00:00</time></trkpt><trkpt lat="34.9794903" lon="32.3588542"><ele>516.6</ele><time>2015-04-25T11:54:08.0000000+00:00</time></trkpt><trkpt lat="34.9795194" lon="32.3587642"><ele>516.3</ele><time>2015-04-25T11:54:09.0000000+00:00</time></trkpt><trkpt lat="34.9795436" lon="32.3586724"><ele>516.1</ele><time>2015-04-25T11:54:10.0000000+00:00</time></trkpt><trkpt lat="34.9795633" lon="32.3585879"><ele>515.0</ele><time>2015-04-25T11:54:11.0000000+00:00</time></trkpt><trkpt lat="34.9795911" lon="32.3584871"><ele>514.5</ele><time>2015-04-25T11:54:12.0000000+00:00</time></trkpt><trkpt lat="34.9796115" lon="32.3583996"><ele>513.7</ele><time>2015-04-25T11:54:13.0000000+00:00</time></trkpt><trkpt lat="34.9796454" lon="32.3583195"><ele>512.8</ele><time>2015-04-25T11:54:14.0000000+00:00</time></trkpt><trkpt lat="34.9796621" lon="32.3582353"><ele>511.9</ele><time>2015-04-25T11:54:15.0000000+00:00</time></trkpt><trkpt lat="34.979685" lon="32.3581535"><ele>511.4</ele><time>2015-04-25T11:54:16.0000000+00:00</time></trkpt><trkpt lat="34.9797067" lon="32.3580625"><ele>510.7</ele><time>2015-04-25T11:54:17.0000000+00:00</time></trkpt><trkpt lat="34.979741" lon="32.357984"><ele>510.3</ele><time>2015-04-25T11:54:18.0000000+00:00</time></trkpt><trkpt lat="34.979772" lon="32.3579116"><ele>510.1</ele><time>2015-04-25T11:54:19.0000000+00:00</time></trkpt><trkpt lat="34.9798106" lon="32.357832"><ele>510.5</ele><time>2015-04-25T11:54:20.0000000+00:00</time></trkpt><trkpt lat="34.97983" lon="32.3577512"><ele>510.7</ele><time>2015-04-25T11:54:21.0000000+00:00</time></trkpt><trkpt lat="34.9798418" lon="32.3576636"><ele>510.8</ele><time>2015-04-25T11:54:22.0000000+00:00</time></trkpt><trkpt lat="34.979859" lon="32.3575864"><ele>511.4</ele><time>2015-04-25T11:54:23.0000000+00:00</time></trkpt><trkpt lat="34.9798862" lon="32.3575086"><ele>511.7</ele><time>2015-04-25T11:54:24.0000000+00:00</time></trkpt><trkpt lat="34.9799165" lon="32.3574312"><ele>511.3</ele><time>2015-04-25T11:54:25.0000000+00:00</time></trkpt><trkpt lat="34.9799323" lon="32.3573474"><ele>511.1</ele><time>2015-04-25T11:54:26.0000000+00:00</time></trkpt><trkpt lat="34.979954" lon="32.357284"><ele>511.5</ele><time>2015-04-25T11:54:27.0000000+00:00</time></trkpt><trkpt lat="34.9799745" lon="32.3572137"><ele>511.2</ele><time>2015-04-25T11:54:28.0000000+00:00</time></trkpt><trkpt lat="34.980001" lon="32.3571465"><ele>511.1</ele><time>2015-04-25T11:54:29.0000000+00:00</time></trkpt><trkpt lat="34.9800336" lon="32.3570908"><ele>510.5</ele><time>2015-04-25T11:54:30.0000000+00:00</time></trkpt><trkpt lat="34.9800557" lon="32.3570128"><ele>509.7</ele><time>2015-04-25T11:54:31.0000000+00:00</time></trkpt><trkpt lat="34.9800852" lon="32.3569314"><ele>509.3</ele><time>2015-04-25T11:54:32.0000000+00:00</time></trkpt><trkpt lat="34.9801194" lon="32.3568508"><ele>508.6</ele><time>2015-04-25T11:54:33.0000000+00:00</time></trkpt><trkpt lat="34.9801569" lon="32.3567777"><ele>507.8</ele><time>2015-04-25T11:54:34.0000000+00:00</time></trkpt><trkpt lat="34.9801956" lon="32.3567108"><ele>507.4</ele><time>2015-04-25T11:54:35.0000000+00:00</time></trkpt><trkpt lat="34.9802343" lon="32.3566389"><ele>506.6</ele><time>2015-04-25T11:54:36.0000000+00:00</time></trkpt><trkpt lat="34.9802674" lon="32.3565681"><ele>506.3</ele><time>2015-04-25T11:54:37.0000000+00:00</time></trkpt><trkpt lat="34.9803096" lon="32.3565054"><ele>506.1</ele><time>2015-04-25T11:54:38.0000000+00:00</time></trkpt><trkpt lat="34.9803481" lon="32.3564523"><ele>505.5</ele><time>2015-04-25T11:54:39.0000000+00:00</time></trkpt><trkpt lat="34.9803878" lon="32.3563961"><ele>505.2</ele><time>2015-04-25T11:54:40.0000000+00:00</time></trkpt><trkpt lat="34.9804233" lon="32.3563421"><ele>505.6</ele><time>2015-04-25T11:54:41.0000000+00:00</time></trkpt><trkpt lat="34.9804436" lon="32.3562781"><ele>505.8</ele><time>2015-04-25T11:54:42.0000000+00:00</time></trkpt><trkpt lat="34.9804664" lon="32.3562276"><ele>505.8</ele><time>2015-04-25T11:54:43.0000000+00:00</time></trkpt><trkpt lat="34.9804922" lon="32.3561663"><ele>505.9</ele><time>2015-04-25T11:54:44.0000000+00:00</time></trkpt><trkpt lat="34.9805226" lon="32.3561158"><ele>506.4</ele><time>2015-04-25T11:54:45.0000000+00:00</time></trkpt><trkpt lat="34.9805563" lon="32.3560275"><ele>505.5</ele><time>2015-04-25T11:54:47.0000000+00:00</time></trkpt><trkpt lat="34.9806077" lon="32.3559538"><ele>505.8</ele><time>2015-04-25T11:54:49.0000000+00:00</time></trkpt><trkpt lat="34.9806592" lon="32.3558692"><ele>505.2</ele><time>2015-04-25T11:54:51.0000000+00:00</time></trkpt><trkpt lat="34.9806972" lon="32.3558218"><ele>505.0</ele><time>2015-04-25T11:54:52.0000000+00:00</time></trkpt><trkpt lat="34.9807351" lon="32.3557763"><ele>505.0</ele><time>2015-04-25T11:54:53.0000000+00:00</time></trkpt><trkpt lat="34.9807694" lon="32.3557244"><ele>505.5</ele><time>2015-04-25T11:54:54.0000000+00:00</time></trkpt><trkpt lat="34.9808336" lon="32.3556381"><ele>505.8</ele><time>2015-04-25T11:54:56.0000000+00:00</time></trkpt><trkpt lat="34.9808692" lon="32.355597"><ele>505.9</ele><time>2015-04-25T11:54:57.0000000+00:00</time></trkpt><trkpt lat="34.9809076" lon="32.3555499"><ele>506.4</ele><time>2015-04-25T11:54:58.0000000+00:00</time></trkpt><trkpt lat="34.9809523" lon="32.3555121"><ele>506.7</ele><time>2015-04-25T11:54:59.0000000+00:00</time></trkpt><trkpt lat="34.9809919" lon="32.3554745"><ele>506.8</ele><time>2015-04-25T11:55:00.0000000+00:00</time></trkpt><trkpt lat="34.9810316" lon="32.3554366"><ele>506.9</ele><time>2015-04-25T11:55:01.0000000+00:00</time></trkpt><trkpt lat="34.9810776" lon="32.355398"><ele>506.9</ele><time>2015-04-25T11:55:02.0000000+00:00</time></trkpt><trkpt lat="34.981122" lon="32.3553617"><ele>506.4</ele><time>2015-04-25T11:55:03.0000000+00:00</time></trkpt><trkpt lat="34.9811656" lon="32.3553314"><ele>505.7</ele><time>2015-04-25T11:55:04.0000000+00:00</time></trkpt><trkpt lat="34.9812102" lon="32.3552932"><ele>505.3</ele><time>2015-04-25T11:55:05.0000000+00:00</time></trkpt><trkpt lat="34.9812514" lon="32.3552562"><ele>505.1</ele><time>2015-04-25T11:55:06.0000000+00:00</time></trkpt><trkpt lat="34.9812912" lon="32.3552222"><ele>505.5</ele><time>2015-04-25T11:55:07.0000000+00:00</time></trkpt><trkpt lat="34.9813609" lon="32.3551536"><ele>506.1</ele><time>2015-04-25T11:55:09.0000000+00:00</time></trkpt><trkpt lat="34.9814331" lon="32.3550998"><ele>506.5</ele><time>2015-04-25T11:55:11.0000000+00:00</time></trkpt><trkpt lat="34.9814919" lon="32.3550186"><ele>507.6</ele><time>2015-04-25T11:55:13.0000000+00:00</time></trkpt><trkpt lat="34.9815436" lon="32.3549421"><ele>508.3</ele><time>2015-04-25T11:55:15.0000000+00:00</time></trkpt><trkpt lat="34.9815626" lon="32.354867"><ele>508.8</ele><time>2015-04-25T11:55:17.0000000+00:00</time></trkpt><trkpt lat="34.9816041" lon="32.3548081"><ele>508.1</ele><time>2015-04-25T11:55:19.0000000+00:00</time></trkpt><trkpt lat="34.9816535" lon="32.3547432"><ele>507.2</ele><time>2015-04-25T11:55:21.0000000+00:00</time></trkpt><trkpt lat="34.9817013" lon="32.3546861"><ele>506.8</ele><time>2015-04-25T11:55:23.0000000+00:00</time></trkpt><trkpt lat="34.9817571" lon="32.354637"><ele>507.4</ele><time>2015-04-25T11:55:25.0000000+00:00</time></trkpt><trkpt lat="34.9818152" lon="32.3546359"><ele>507.5</ele><time>2015-04-25T11:55:27.0000000+00:00</time></trkpt><trkpt lat="34.9818598" lon="32.3546437"><ele>508.8</ele><time>2015-04-25T11:55:29.0000000+00:00</time></trkpt><trkpt lat="34.9819171" lon="32.3546646"><ele>509.0</ele><time>2015-04-25T11:55:33.0000000+00:00</time></trkpt><trkpt lat="34.9819589" lon="32.3547036"><ele>508.0</ele><time>2015-04-25T11:55:37.0000000+00:00</time></trkpt><trkpt lat="34.9820054" lon="32.3547127"><ele>505.8</ele><time>2015-04-25T11:55:40.0000000+00:00</time></trkpt><trkpt lat="34.9820612" lon="32.3547164"><ele>507.3</ele><time>2015-04-25T11:55:44.0000000+00:00</time></trkpt><trkpt lat="34.9821111" lon="32.3546992"><ele>508.4</ele><time>2015-04-25T11:55:48.0000000+00:00</time></trkpt><trkpt lat="34.9821639" lon="32.3546593"><ele>507.6</ele><time>2015-04-25T11:55:52.0000000+00:00</time></trkpt><trkpt lat="34.9822021" lon="32.3546236"><ele>507.0</ele><time>2015-04-25T11:55:55.0000000+00:00</time></trkpt><trkpt lat="34.9822423" lon="32.3545907"><ele>506.9</ele><time>2015-04-25T11:55:58.0000000+00:00</time></trkpt><trkpt lat="34.9822835" lon="32.35455"><ele>506.1</ele><time>2015-04-25T11:56:01.0000000+00:00</time></trkpt><trkpt lat="34.9823196" lon="32.354504"><ele>505.7</ele><time>2015-04-25T11:56:04.0000000+00:00</time></trkpt><trkpt lat="34.9823439" lon="32.3544549"><ele>503.4</ele><time>2015-04-25T12:03:23.0000000+00:00</time></trkpt><trkpt lat="34.9823771" lon="32.3544069"><ele>502.6</ele><time>2015-04-25T12:03:25.0000000+00:00</time></trkpt><trkpt lat="34.9824028" lon="32.3543348"><ele>501.6</ele><time>2015-04-25T12:03:27.0000000+00:00</time></trkpt><trkpt lat="34.9824268" lon="32.3542294"><ele>500.1</ele><time>2015-04-25T12:03:29.0000000+00:00</time></trkpt><trkpt lat="34.9824283" lon="32.3541561"><ele>499.0</ele><time>2015-04-25T12:03:30.0000000+00:00</time></trkpt><trkpt lat="34.982445" lon="32.354102"><ele>498.0</ele><time>2015-04-25T12:03:31.0000000+00:00</time></trkpt><trkpt lat="34.9824628" lon="32.3540449"><ele>497.0</ele><time>2015-04-25T12:03:32.0000000+00:00</time></trkpt><trkpt lat="34.9824798" lon="32.3539837"><ele>496.4</ele><time>2015-04-25T12:03:33.0000000+00:00</time></trkpt><trkpt lat="34.9825" lon="32.3539269"><ele>495.7</ele><time>2015-04-25T12:03:34.0000000+00:00</time></trkpt><trkpt lat="34.9825183" lon="32.353854"><ele>494.8</ele><time>2015-04-25T12:03:35.0000000+00:00</time></trkpt><trkpt lat="34.9825391" lon="32.3537844"><ele>493.9</ele><time>2015-04-25T12:03:36.0000000+00:00</time></trkpt><trkpt lat="34.9825493" lon="32.3537184"><ele>493.9</ele><time>2015-04-25T12:03:37.0000000+00:00</time></trkpt><trkpt lat="34.9825624" lon="32.3536493"><ele>493.9</ele><time>2015-04-25T12:03:38.0000000+00:00</time></trkpt><trkpt lat="34.9825572" lon="32.3535561"><ele>493.2</ele><time>2015-04-25T12:03:40.0000000+00:00</time></trkpt><trkpt lat="34.9825656" lon="32.3534954"><ele>492.5</ele><time>2015-04-25T12:03:43.0000000+00:00</time></trkpt><trkpt lat="34.9825627" lon="32.3534182"><ele>491.5</ele><time>2015-04-25T12:03:46.0000000+00:00</time></trkpt><trkpt lat="34.9825562" lon="32.3533568"><ele>490.7</ele><time>2015-04-25T12:03:47.0000000+00:00</time></trkpt><trkpt lat="34.9825557" lon="32.3532433"><ele>489.1</ele><time>2015-04-25T12:03:49.0000000+00:00</time></trkpt><trkpt lat="34.9825634" lon="32.3531246"><ele>487.7</ele><time>2015-04-25T12:03:51.0000000+00:00</time></trkpt><trkpt lat="34.9825654" lon="32.353063"><ele>487.3</ele><time>2015-04-25T12:03:52.0000000+00:00</time></trkpt><trkpt lat="34.9825871" lon="32.3530099"><ele>486.6</ele><time>2015-04-25T12:03:53.0000000+00:00</time></trkpt><trkpt lat="34.9826026" lon="32.3529562"><ele>486.3</ele><time>2015-04-25T12:03:54.0000000+00:00</time></trkpt><trkpt lat="34.9826588" lon="32.352916"><ele>485.6</ele><time>2015-04-25T12:03:55.0000000+00:00</time></trkpt><trkpt lat="34.9826994" lon="32.3528676"><ele>485.3</ele><time>2015-04-25T12:03:56.0000000+00:00</time></trkpt><trkpt lat="34.9827592" lon="32.3528213"><ele>484.6</ele><time>2015-04-25T12:03:57.0000000+00:00</time></trkpt><trkpt lat="34.9828026" lon="32.3527773"><ele>483.8</ele><time>2015-04-25T12:03:58.0000000+00:00</time></trkpt><trkpt lat="34.9828422" lon="32.352737"><ele>482.6</ele><time>2015-04-25T12:04:00.0000000+00:00</time></trkpt><trkpt lat="34.9828789" lon="32.3526968"><ele>483.9</ele><time>2015-04-25T12:04:37.0000000+00:00</time></trkpt><trkpt lat="34.9829231" lon="32.3526279"><ele>483.2</ele><time>2015-04-25T12:04:39.0000000+00:00</time></trkpt><trkpt lat="34.982953" lon="32.3525857"><ele>483.1</ele><time>2015-04-25T12:04:40.0000000+00:00</time></trkpt><trkpt lat="34.9829884" lon="32.3525405"><ele>483.0</ele><time>2015-04-25T12:04:41.0000000+00:00</time></trkpt><trkpt lat="34.9830187" lon="32.3524948"><ele>482.5</ele><time>2015-04-25T12:04:42.0000000+00:00</time></trkpt><trkpt lat="34.9830565" lon="32.3524441"><ele>482.7</ele><time>2015-04-25T12:04:43.0000000+00:00</time></trkpt><trkpt lat="34.9830912" lon="32.3523916"><ele>482.8</ele><time>2015-04-25T12:04:44.0000000+00:00</time></trkpt><trkpt lat="34.9831311" lon="32.3523328"><ele>482.9</ele><time>2015-04-25T12:04:45.0000000+00:00</time></trkpt><trkpt lat="34.9831649" lon="32.3522818"><ele>482.9</ele><time>2015-04-25T12:04:46.0000000+00:00</time></trkpt><trkpt lat="34.9832084" lon="32.3522299"><ele>482.9</ele><time>2015-04-25T12:04:47.0000000+00:00</time></trkpt><trkpt lat="34.9832472" lon="32.3521809"><ele>482.9</ele><time>2015-04-25T12:04:48.0000000+00:00</time></trkpt><trkpt lat="34.9832963" lon="32.3521261"><ele>482.9</ele><time>2015-04-25T12:04:49.0000000+00:00</time></trkpt><trkpt lat="34.9833385" lon="32.3520746"><ele>482.9</ele><time>2015-04-25T12:04:50.0000000+00:00</time></trkpt><trkpt lat="34.9833832" lon="32.3520296"><ele>482.4</ele><time>2015-04-25T12:04:51.0000000+00:00</time></trkpt><trkpt lat="34.9834192" lon="32.351976"><ele>482.7</ele><time>2015-04-25T12:04:52.0000000+00:00</time></trkpt><trkpt lat="34.9834565" lon="32.3519279"><ele>482.3</ele><time>2015-04-25T12:04:53.0000000+00:00</time></trkpt><trkpt lat="34.9834887" lon="32.3518787"><ele>482.6</ele><time>2015-04-25T12:04:54.0000000+00:00</time></trkpt><trkpt lat="34.9835203" lon="32.3518341"><ele>482.8</ele><time>2015-04-25T12:04:55.0000000+00:00</time></trkpt><trkpt lat="34.9835541" lon="32.3517868"><ele>482.9</ele><time>2015-04-25T12:04:56.0000000+00:00</time></trkpt><trkpt lat="34.9835911" lon="32.3517151"><ele>484.2</ele><time>2015-04-25T12:04:58.0000000+00:00</time></trkpt><trkpt lat="34.9836252" lon="32.351646"><ele>484.7</ele><time>2015-04-25T12:05:00.0000000+00:00</time></trkpt><trkpt lat="34.9836558" lon="32.351571"><ele>485.6</ele><time>2015-04-25T12:05:02.0000000+00:00</time></trkpt><trkpt lat="34.9836795" lon="32.3514988"><ele>485.1</ele><time>2015-04-25T12:05:04.0000000+00:00</time></trkpt><trkpt lat="34.9836788" lon="32.3514119"><ele>485.7</ele><time>2015-04-25T12:05:06.0000000+00:00</time></trkpt><trkpt lat="34.9837002" lon="32.3513326"><ele>485.9</ele><time>2015-04-25T12:05:08.0000000+00:00</time></trkpt><trkpt lat="34.9837185" lon="32.3512624"><ele>486.7</ele><time>2015-04-25T12:05:10.0000000+00:00</time></trkpt><trkpt lat="34.9837445" lon="32.3511983"><ele>486.9</ele><time>2015-04-25T12:05:12.0000000+00:00</time></trkpt><trkpt lat="34.983773" lon="32.3511352"><ele>487.4</ele><time>2015-04-25T12:05:14.0000000+00:00</time></trkpt><trkpt lat="34.9837936" lon="32.3510666"><ele>487.8</ele><time>2015-04-25T12:05:16.0000000+00:00</time></trkpt><trkpt lat="34.9838302" lon="32.3510042"><ele>488.4</ele><time>2015-04-25T12:05:18.0000000+00:00</time></trkpt><trkpt lat="34.9838631" lon="32.3509335"><ele>488.8</ele><time>2015-04-25T12:05:20.0000000+00:00</time></trkpt><trkpt lat="34.9838966" lon="32.3508657"><ele>488.9</ele><time>2015-04-25T12:05:22.0000000+00:00</time></trkpt><trkpt lat="34.9839296" lon="32.3507976"><ele>489.7</ele><time>2015-04-25T12:05:24.0000000+00:00</time></trkpt><trkpt lat="34.9839687" lon="32.3507284"><ele>490.6</ele><time>2015-04-25T12:05:26.0000000+00:00</time></trkpt><trkpt lat="34.9840156" lon="32.3506672"><ele>491.6</ele><time>2015-04-25T12:05:28.0000000+00:00</time></trkpt><trkpt lat="34.9840825" lon="32.3506296"><ele>491.8</ele><time>2015-04-25T12:05:30.0000000+00:00</time></trkpt><trkpt lat="34.9841536" lon="32.3506277"><ele>490.7</ele><time>2015-04-25T12:05:32.0000000+00:00</time></trkpt><trkpt lat="34.9842188" lon="32.3506098"><ele>490.1</ele><time>2015-04-25T12:05:34.0000000+00:00</time></trkpt><trkpt lat="34.9842861" lon="32.3505878"><ele>489.2</ele><time>2015-04-25T12:05:36.0000000+00:00</time></trkpt><trkpt lat="34.9843283" lon="32.3505628"><ele>489.1</ele><time>2015-04-25T12:05:37.0000000+00:00</time></trkpt><trkpt lat="34.9843673" lon="32.350535"><ele>488.5</ele><time>2015-04-25T12:05:38.0000000+00:00</time></trkpt><trkpt lat="34.9844052" lon="32.3504944"><ele>488.2</ele><time>2015-04-25T12:05:39.0000000+00:00</time></trkpt><trkpt lat="34.9844438" lon="32.3504659"><ele>488.1</ele><time>2015-04-25T12:05:40.0000000+00:00</time></trkpt><trkpt lat="34.9844891" lon="32.3504368"><ele>488.0</ele><time>2015-04-25T12:05:41.0000000+00:00</time></trkpt><trkpt lat="34.9845639" lon="32.3503982"><ele>487.9</ele><time>2015-04-25T12:05:43.0000000+00:00</time></trkpt><trkpt lat="34.9846511" lon="32.3503713"><ele>487.9</ele><time>2015-04-25T12:05:45.0000000+00:00</time></trkpt><trkpt lat="34.9846991" lon="32.3503585"><ele>487.9</ele><time>2015-04-25T12:05:46.0000000+00:00</time></trkpt><trkpt lat="34.9847877" lon="32.3503353"><ele>487.2</ele><time>2015-04-25T12:05:48.0000000+00:00</time></trkpt><trkpt lat="34.9848373" lon="32.3503202"><ele>487.1</ele><time>2015-04-25T12:05:49.0000000+00:00</time></trkpt><trkpt lat="34.9849242" lon="32.3502957"><ele>487.0</ele><time>2015-04-25T12:05:51.0000000+00:00</time></trkpt><trkpt lat="34.9849703" lon="32.3502808"><ele>487.4</ele><time>2015-04-25T12:05:52.0000000+00:00</time></trkpt><trkpt lat="34.9850405" lon="32.3502433"><ele>487.8</ele><time>2015-04-25T12:05:54.0000000+00:00</time></trkpt><trkpt lat="34.985083" lon="32.3502132"><ele>488.6</ele><time>2015-04-25T12:05:56.0000000+00:00</time></trkpt><trkpt lat="34.9851245" lon="32.350176"><ele>489.6</ele><time>2015-04-25T12:05:58.0000000+00:00</time></trkpt><trkpt lat="34.9851758" lon="32.3501366"><ele>489.8</ele><time>2015-04-25T12:06:00.0000000+00:00</time></trkpt><trkpt lat="34.9852243" lon="32.350114"><ele>490.7</ele><time>2015-04-25T12:06:02.0000000+00:00</time></trkpt><trkpt lat="34.9852694" lon="32.3500999"><ele>490.4</ele><time>2015-04-25T12:06:04.0000000+00:00</time></trkpt><trkpt lat="34.9853402" lon="32.3500905"><ele>489.2</ele><time>2015-04-25T12:06:07.0000000+00:00</time></trkpt><trkpt lat="34.9854195" lon="32.3500967"><ele>488.5</ele><time>2015-04-25T12:06:09.0000000+00:00</time></trkpt><trkpt lat="34.9855046" lon="32.3501068"><ele>488.1</ele><time>2015-04-25T12:06:11.0000000+00:00</time></trkpt><trkpt lat="34.9855997" lon="32.350098"><ele>488.0</ele><time>2015-04-25T12:06:13.0000000+00:00</time></trkpt><trkpt lat="34.985677" lon="32.3500716"><ele>487.9</ele><time>2015-04-25T12:06:15.0000000+00:00</time></trkpt><trkpt lat="34.9857447" lon="32.3500408"><ele>487.9</ele><time>2015-04-25T12:06:17.0000000+00:00</time></trkpt><trkpt lat="34.9858174" lon="32.3500078"><ele>487.9</ele><time>2015-04-25T12:06:19.0000000+00:00</time></trkpt><trkpt lat="34.9858952" lon="32.3499618"><ele>487.2</ele><time>2015-04-25T12:06:21.0000000+00:00</time></trkpt><trkpt lat="34.9859652" lon="32.3499062"><ele>487.0</ele><time>2015-04-25T12:06:23.0000000+00:00</time></trkpt><trkpt lat="34.9860281" lon="32.3498365"><ele>487.4</ele><time>2015-04-25T12:06:25.0000000+00:00</time></trkpt><trkpt lat="34.9860767" lon="32.3497696"><ele>487.8</ele><time>2015-04-25T12:06:27.0000000+00:00</time></trkpt><trkpt lat="34.9861233" lon="32.3497057"><ele>487.9</ele><time>2015-04-25T12:06:29.0000000+00:00</time></trkpt><trkpt lat="34.9861693" lon="32.3496379"><ele>487.4</ele><time>2015-04-25T12:06:31.0000000+00:00</time></trkpt><trkpt lat="34.9862289" lon="32.3495534"><ele>487.1</ele><time>2015-04-25T12:06:33.0000000+00:00</time></trkpt><trkpt lat="34.9862615" lon="32.3495097"><ele>486.5</ele><time>2015-04-25T12:06:34.0000000+00:00</time></trkpt><trkpt lat="34.986292" lon="32.3494689"><ele>486.2</ele><time>2015-04-25T12:06:35.0000000+00:00</time></trkpt><trkpt lat="34.986348" lon="32.3494057"><ele>486.0</ele><time>2015-04-25T12:06:37.0000000+00:00</time></trkpt><trkpt lat="34.986407" lon="32.3493492"><ele>485.4</ele><time>2015-04-25T12:06:39.0000000+00:00</time></trkpt><trkpt lat="34.9864761" lon="32.3492892"><ele>485.1</ele><time>2015-04-25T12:06:41.0000000+00:00</time></trkpt><trkpt lat="34.9865138" lon="32.3492558"><ele>485.0</ele><time>2015-04-25T12:06:42.0000000+00:00</time></trkpt><trkpt lat="34.9865527" lon="32.349226"><ele>485.5</ele><time>2015-04-25T12:06:43.0000000+00:00</time></trkpt><trkpt lat="34.9865919" lon="32.349191"><ele>485.7</ele><time>2015-04-25T12:06:44.0000000+00:00</time></trkpt><trkpt lat="34.9866303" lon="32.3491507"><ele>485.3</ele><time>2015-04-25T12:06:45.0000000+00:00</time></trkpt><trkpt lat="34.9866683" lon="32.3491064"><ele>485.1</ele><time>2015-04-25T12:06:46.0000000+00:00</time></trkpt><trkpt lat="34.9867012" lon="32.3490555"><ele>485.0</ele><time>2015-04-25T12:06:47.0000000+00:00</time></trkpt><trkpt lat="34.9867396" lon="32.3490245"><ele>485.0</ele><time>2015-04-25T12:06:48.0000000+00:00</time></trkpt><trkpt lat="34.9868034" lon="32.3489542"><ele>484.9</ele><time>2015-04-25T12:06:50.0000000+00:00</time></trkpt><trkpt lat="34.986864" lon="32.348884"><ele>484.2</ele><time>2015-04-25T12:06:52.0000000+00:00</time></trkpt><trkpt lat="34.9869198" lon="32.3488076"><ele>484.7</ele><time>2015-04-25T12:06:54.0000000+00:00</time></trkpt><trkpt lat="34.9869662" lon="32.3487352"><ele>484.1</ele><time>2015-04-25T12:06:56.0000000+00:00</time></trkpt><trkpt lat="34.9869992" lon="32.3486962"><ele>484.9</ele><time>2015-04-25T12:08:31.0000000+00:00</time></trkpt><trkpt lat="34.9870483" lon="32.3486577"><ele>488.1</ele><time>2015-04-25T12:08:34.0000000+00:00</time></trkpt><trkpt lat="34.987098" lon="32.3486248"><ele>491.0</ele><time>2015-04-25T12:08:36.0000000+00:00</time></trkpt><trkpt lat="34.9871412" lon="32.3485767"><ele>493.7</ele><time>2015-04-25T12:08:38.0000000+00:00</time></trkpt><trkpt lat="34.9871892" lon="32.3485184"><ele>494.6</ele><time>2015-04-25T12:08:40.0000000+00:00</time></trkpt><trkpt lat="34.9872411" lon="32.3484472"><ele>495.6</ele><time>2015-04-25T12:08:42.0000000+00:00</time></trkpt><trkpt lat="34.9872917" lon="32.348363"><ele>495.1</ele><time>2015-04-25T12:08:44.0000000+00:00</time></trkpt><trkpt lat="34.9873508" lon="32.3482457"><ele>494.2</ele><time>2015-04-25T12:08:46.0000000+00:00</time></trkpt><trkpt lat="34.9874019" lon="32.348156"><ele>494.5</ele><time>2015-04-25T12:08:48.0000000+00:00</time></trkpt><trkpt lat="34.9874447" lon="32.3480721"><ele>495.1</ele><time>2015-04-25T12:08:50.0000000+00:00</time></trkpt><trkpt lat="34.9874855" lon="32.3479901"><ele>495.5</ele><time>2015-04-25T12:08:52.0000000+00:00</time></trkpt><trkpt lat="34.98754" lon="32.3479103"><ele>495.3</ele><time>2015-04-25T12:08:54.0000000+00:00</time></trkpt><trkpt lat="34.9875985" lon="32.3478398"><ele>494.5</ele><time>2015-04-25T12:08:56.0000000+00:00</time></trkpt><trkpt lat="34.9876605" lon="32.3477748"><ele>493.6</ele><time>2015-04-25T12:08:58.0000000+00:00</time></trkpt><trkpt lat="34.9877235" lon="32.347711"><ele>492.6</ele><time>2015-04-25T12:09:00.0000000+00:00</time></trkpt><trkpt lat="34.9877853" lon="32.3476371"><ele>492.1</ele><time>2015-04-25T12:09:02.0000000+00:00</time></trkpt><trkpt lat="34.9878218" lon="32.3476008"><ele>491.5</ele><time>2015-04-25T12:09:03.0000000+00:00</time></trkpt><trkpt lat="34.9878711" lon="32.3475553"><ele>490.6</ele><time>2015-04-25T12:09:05.0000000+00:00</time></trkpt><trkpt lat="34.9879181" lon="32.3475062"><ele>489.6</ele><time>2015-04-25T12:09:07.0000000+00:00</time></trkpt><trkpt lat="34.9879871" lon="32.347485"><ele>489.1</ele><time>2015-04-25T12:09:09.0000000+00:00</time></trkpt><trkpt lat="34.9880384" lon="32.347478"><ele>488.5</ele><time>2015-04-25T12:09:11.0000000+00:00</time></trkpt><trkpt lat="34.9881071" lon="32.347472"><ele>488.1</ele><time>2015-04-25T12:09:13.0000000+00:00</time></trkpt><trkpt lat="34.98817" lon="32.3474858"><ele>487.2</ele><time>2015-04-25T12:09:15.0000000+00:00</time></trkpt><trkpt lat="34.9882331" lon="32.3474978"><ele>487.0</ele><time>2015-04-25T12:09:17.0000000+00:00</time></trkpt><trkpt lat="34.9883006" lon="32.3474872"><ele>486.2</ele><time>2015-04-25T12:09:19.0000000+00:00</time></trkpt><trkpt lat="34.9883446" lon="32.3474536"><ele>486.1</ele><time>2015-04-25T12:09:20.0000000+00:00</time></trkpt><trkpt lat="34.9884125" lon="32.3474112"><ele>486.2</ele><time>2015-04-25T12:09:22.0000000+00:00</time></trkpt><trkpt lat="34.9884791" lon="32.3473811"><ele>485.3</ele><time>2015-04-25T12:09:24.0000000+00:00</time></trkpt><trkpt lat="34.9885262" lon="32.3473729"><ele>485.3</ele><time>2015-04-25T12:09:26.0000000+00:00</time></trkpt><trkpt lat="34.9885904" lon="32.3473865"><ele>484.5</ele><time>2015-04-25T12:09:29.0000000+00:00</time></trkpt><trkpt lat="34.9886474" lon="32.3473834"><ele>483.2</ele><time>2015-04-25T12:09:32.0000000+00:00</time></trkpt><trkpt lat="34.9887124" lon="32.347379"><ele>482.0</ele><time>2015-04-25T12:10:20.0000000+00:00</time></trkpt><trkpt lat="34.9887696" lon="32.3473669"><ele>482.2</ele><time>2015-04-25T12:10:22.0000000+00:00</time></trkpt><trkpt lat="34.9888405" lon="32.3473531"><ele>482.7</ele><time>2015-04-25T12:10:24.0000000+00:00</time></trkpt><trkpt lat="34.9889171" lon="32.3473371"><ele>482.9</ele><time>2015-04-25T12:10:26.0000000+00:00</time></trkpt><trkpt lat="34.9890029" lon="32.3473276"><ele>482.2</ele><time>2015-04-25T12:10:28.0000000+00:00</time></trkpt><trkpt lat="34.989052" lon="32.3473298"><ele>482.0</ele><time>2015-04-25T12:10:29.0000000+00:00</time></trkpt><trkpt lat="34.989133" lon="32.3473342"><ele>482.0</ele><time>2015-04-25T12:10:30.0000000+00:00</time></trkpt><trkpt lat="34.9891878" lon="32.3473399"><ele>481.5</ele><time>2015-04-25T12:10:31.0000000+00:00</time></trkpt><trkpt lat="34.9892506" lon="32.3473423"><ele>480.7</ele><time>2015-04-25T12:10:32.0000000+00:00</time></trkpt><trkpt lat="34.9893149" lon="32.3473332"><ele>479.3</ele><time>2015-04-25T12:10:33.0000000+00:00</time></trkpt><trkpt lat="34.9893848" lon="32.3473269"><ele>478.1</ele><time>2015-04-25T12:10:34.0000000+00:00</time></trkpt><trkpt lat="34.989457" lon="32.3472894"><ele>477.0</ele><time>2015-04-25T12:10:35.0000000+00:00</time></trkpt><trkpt lat="34.9895338" lon="32.3472641"><ele>476.0</ele><time>2015-04-25T12:10:36.0000000+00:00</time></trkpt><trkpt lat="34.9896095" lon="32.3472326"><ele>475.0</ele><time>2015-04-25T12:10:37.0000000+00:00</time></trkpt><trkpt lat="34.9896701" lon="32.3471763"><ele>473.4</ele><time>2015-04-25T12:10:38.0000000+00:00</time></trkpt><trkpt lat="34.9897325" lon="32.3471097"><ele>472.7</ele><time>2015-04-25T12:10:39.0000000+00:00</time></trkpt><trkpt lat="34.989776" lon="32.3470476"><ele>471.8</ele><time>2015-04-25T12:10:40.0000000+00:00</time></trkpt><trkpt lat="34.9898247" lon="32.346996"><ele>470.9</ele><time>2015-04-25T12:10:41.0000000+00:00</time></trkpt><trkpt lat="34.9898831" lon="32.3469707"><ele>470.4</ele><time>2015-04-25T12:10:42.0000000+00:00</time></trkpt><trkpt lat="34.9899383" lon="32.3469472"><ele>469.7</ele><time>2015-04-25T12:10:43.0000000+00:00</time></trkpt><trkpt lat="34.990009" lon="32.3469407"><ele>469.3</ele><time>2015-04-25T12:10:44.0000000+00:00</time></trkpt><trkpt lat="34.9900793" lon="32.3469357"><ele>469.1</ele><time>2015-04-25T12:10:45.0000000+00:00</time></trkpt><trkpt lat="34.9901596" lon="32.3469207"><ele>469.5</ele><time>2015-04-25T12:10:46.0000000+00:00</time></trkpt><trkpt lat="34.9902314" lon="32.3468823"><ele>470.2</ele><time>2015-04-25T12:10:47.0000000+00:00</time></trkpt><trkpt lat="34.9903038" lon="32.3468626"><ele>470.1</ele><time>2015-04-25T12:10:48.0000000+00:00</time></trkpt><trkpt lat="34.9903734" lon="32.3468408"><ele>470.5</ele><time>2015-04-25T12:10:49.0000000+00:00</time></trkpt><trkpt lat="34.9904503" lon="32.34684"><ele>471.2</ele><time>2015-04-25T12:10:50.0000000+00:00</time></trkpt><trkpt lat="34.9905111" lon="32.3468255"><ele>471.1</ele><time>2015-04-25T12:10:51.0000000+00:00</time></trkpt><trkpt lat="34.990594" lon="32.3468092"><ele>471.5</ele><time>2015-04-25T12:10:52.0000000+00:00</time></trkpt><trkpt lat="34.9906548" lon="32.3467646"><ele>471.7</ele><time>2015-04-25T12:10:53.0000000+00:00</time></trkpt><trkpt lat="34.9907053" lon="32.3467223"><ele>471.8</ele><time>2015-04-25T12:10:54.0000000+00:00</time></trkpt><trkpt lat="34.9907526" lon="32.3466666"><ele>472.4</ele><time>2015-04-25T12:10:55.0000000+00:00</time></trkpt><trkpt lat="34.990792" lon="32.3466074"><ele>472.2</ele><time>2015-04-25T12:10:56.0000000+00:00</time></trkpt><trkpt lat="34.9908282" lon="32.3465605"><ele>471.0</ele><time>2015-04-25T12:10:57.0000000+00:00</time></trkpt><trkpt lat="34.990869" lon="32.3465018"><ele>470.0</ele><time>2015-04-25T12:10:58.0000000+00:00</time></trkpt><trkpt lat="34.9909124" lon="32.3464477"><ele>469.0</ele><time>2015-04-25T12:10:59.0000000+00:00</time></trkpt><trkpt lat="34.9909617" lon="32.346396"><ele>468.4</ele><time>2015-04-25T12:11:00.0000000+00:00</time></trkpt><trkpt lat="34.9910305" lon="32.3463654"><ele>468.7</ele><time>2015-04-25T12:11:01.0000000+00:00</time></trkpt><trkpt lat="34.9910805" lon="32.3463371"><ele>468.8</ele><time>2015-04-25T12:11:02.0000000+00:00</time></trkpt><trkpt lat="34.9911275" lon="32.346316"><ele>468.9</ele><time>2015-04-25T12:11:03.0000000+00:00</time></trkpt><trkpt lat="34.9912259" lon="32.3463191"><ele>470.9</ele><time>2015-04-25T12:11:04.0000000+00:00</time></trkpt><trkpt lat="34.9912856" lon="32.3462961"><ele>472.9</ele><time>2015-04-25T12:11:05.0000000+00:00</time></trkpt><trkpt lat="34.9913485" lon="32.3462829"><ele>475.4</ele><time>2015-04-25T12:11:06.0000000+00:00</time></trkpt><trkpt lat="34.9914061" lon="32.3462658"><ele>476.7</ele><time>2015-04-25T12:11:07.0000000+00:00</time></trkpt><trkpt lat="34.9914606" lon="32.3462222"><ele>475.8</ele><time>2015-04-25T12:11:08.0000000+00:00</time></trkpt><trkpt lat="34.9915245" lon="32.3461942"><ele>474.9</ele><time>2015-04-25T12:11:09.0000000+00:00</time></trkpt><trkpt lat="34.9915825" lon="32.3461805"><ele>473.9</ele><time>2015-04-25T12:11:10.0000000+00:00</time></trkpt><trkpt lat="34.9916503" lon="32.3461686"><ele>472.9</ele><time>2015-04-25T12:11:11.0000000+00:00</time></trkpt><trkpt lat="34.9917202" lon="32.3461511"><ele>472.4</ele><time>2015-04-25T12:11:12.0000000+00:00</time></trkpt><trkpt lat="34.9917713" lon="32.3461495"><ele>472.2</ele><time>2015-04-25T12:11:13.0000000+00:00</time></trkpt><trkpt lat="34.9918214" lon="32.3461517"><ele>471.6</ele><time>2015-04-25T12:11:14.0000000+00:00</time></trkpt><trkpt lat="34.9918894" lon="32.3461333"><ele>471.1</ele><time>2015-04-25T12:11:16.0000000+00:00</time></trkpt><trkpt lat="34.9919421" lon="32.3461335"><ele>470.2</ele><time>2015-04-25T12:11:18.0000000+00:00</time></trkpt><trkpt lat="34.9919799" lon="32.3460998"><ele>468.9</ele><time>2015-04-25T12:11:58.0000000+00:00</time></trkpt><trkpt lat="34.9920144" lon="32.3460588"><ele>464.9</ele><time>2015-04-25T12:14:40.0000000+00:00</time></trkpt><trkpt lat="34.9920728" lon="32.346008"><ele>463.7</ele><time>2015-04-25T12:14:42.0000000+00:00</time></trkpt><trkpt lat="34.992126" lon="32.3459557"><ele>462.4</ele><time>2015-04-25T12:14:44.0000000+00:00</time></trkpt><trkpt lat="34.9921778" lon="32.3459124"><ele>461.3</ele><time>2015-04-25T12:14:46.0000000+00:00</time></trkpt><trkpt lat="34.9922274" lon="32.3458725"><ele>461.0</ele><time>2015-04-25T12:14:48.0000000+00:00</time></trkpt><trkpt lat="34.9922788" lon="32.3458421"><ele>461.0</ele><time>2015-04-25T12:14:50.0000000+00:00</time></trkpt><trkpt lat="34.9923297" lon="32.345811"><ele>460.4</ele><time>2015-04-25T12:14:52.0000000+00:00</time></trkpt><trkpt lat="34.9923813" lon="32.3457767"><ele>460.8</ele><time>2015-04-25T12:14:54.0000000+00:00</time></trkpt><trkpt lat="34.9924382" lon="32.3457416"><ele>460.1</ele><time>2015-04-25T12:14:56.0000000+00:00</time></trkpt><trkpt lat="34.9924981" lon="32.345708"><ele>459.5</ele><time>2015-04-25T12:14:58.0000000+00:00</time></trkpt><trkpt lat="34.9925537" lon="32.3456763"><ele>458.6</ele><time>2015-04-25T12:15:00.0000000+00:00</time></trkpt><trkpt lat="34.9926011" lon="32.3456434"><ele>457.6</ele><time>2015-04-25T12:15:02.0000000+00:00</time></trkpt><trkpt lat="34.9926506" lon="32.3456186"><ele>456.6</ele><time>2015-04-25T12:15:04.0000000+00:00</time></trkpt><trkpt lat="34.9926971" lon="32.345595"><ele>456.1</ele><time>2015-04-25T12:15:06.0000000+00:00</time></trkpt><trkpt lat="34.9927492" lon="32.3455806"><ele>456.0</ele><time>2015-04-25T12:15:08.0000000+00:00</time></trkpt><trkpt lat="34.9928048" lon="32.3455665"><ele>455.9</ele><time>2015-04-25T12:15:10.0000000+00:00</time></trkpt><trkpt lat="34.9928579" lon="32.3455443"><ele>454.7</ele><time>2015-04-25T12:15:12.0000000+00:00</time></trkpt><trkpt lat="34.9929111" lon="32.3455141"><ele>452.9</ele><time>2015-04-25T12:15:14.0000000+00:00</time></trkpt><trkpt lat="34.9929689" lon="32.3454849"><ele>451.7</ele><time>2015-04-25T12:15:16.0000000+00:00</time></trkpt><trkpt lat="34.9930292" lon="32.3454499"><ele>449.1</ele><time>2015-04-25T12:15:18.0000000+00:00</time></trkpt><trkpt lat="34.9930903" lon="32.3454034"><ele>448.2</ele><time>2015-04-25T12:15:20.0000000+00:00</time></trkpt><trkpt lat="34.9931342" lon="32.3453377"><ele>448.0</ele><time>2015-04-25T12:15:22.0000000+00:00</time></trkpt><trkpt lat="34.9931543" lon="32.3452663"><ele>449.2</ele><time>2015-04-25T12:15:24.0000000+00:00</time></trkpt><trkpt lat="34.9931673" lon="32.3451998"><ele>449.0</ele><time>2015-04-25T12:15:26.0000000+00:00</time></trkpt><trkpt lat="34.9931441" lon="32.3451405"><ele>447.7</ele><time>2015-04-25T12:15:28.0000000+00:00</time></trkpt><trkpt lat="34.9931062" lon="32.3450782"><ele>445.9</ele><time>2015-04-25T12:15:30.0000000+00:00</time></trkpt><trkpt lat="34.9930473" lon="32.3449512"><ele>445.4</ele><time>2015-04-25T12:15:32.0000000+00:00</time></trkpt><trkpt lat="34.9930631" lon="32.3448553"><ele>445.1</ele><time>2015-04-25T12:15:34.0000000+00:00</time></trkpt><trkpt lat="34.9931138" lon="32.3447615"><ele>443.7</ele><time>2015-04-25T12:15:36.0000000+00:00</time></trkpt><trkpt lat="34.9931529" lon="32.3447085"><ele>442.8</ele><time>2015-04-25T12:15:37.0000000+00:00</time></trkpt><trkpt lat="34.9931901" lon="32.3446772"><ele>442.4</ele><time>2015-04-25T12:15:38.0000000+00:00</time></trkpt><trkpt lat="34.993239" lon="32.3446562"><ele>442.2</ele><time>2015-04-25T12:15:39.0000000+00:00</time></trkpt><trkpt lat="34.9932951" lon="32.3446339"><ele>442.0</ele><time>2015-04-25T12:15:40.0000000+00:00</time></trkpt><trkpt lat="34.9933745" lon="32.3445746"><ele>442.0</ele><time>2015-04-25T12:15:42.0000000+00:00</time></trkpt><trkpt lat="34.9934163" lon="32.3445346"><ele>442.4</ele><time>2015-04-25T12:15:43.0000000+00:00</time></trkpt><trkpt lat="34.9934686" lon="32.3445036"><ele>442.2</ele><time>2015-04-25T12:15:44.0000000+00:00</time></trkpt><trkpt lat="34.9935207" lon="32.3444382"><ele>441.5</ele><time>2015-04-25T12:15:46.0000000+00:00</time></trkpt><trkpt lat="34.993554" lon="32.3443737"><ele>439.3</ele><time>2015-04-25T12:15:48.0000000+00:00</time></trkpt><trkpt lat="34.993582" lon="32.3442853"><ele>439.0</ele><time>2015-04-25T12:15:50.0000000+00:00</time></trkpt><trkpt lat="34.9935823" lon="32.3442036"><ele>438.2</ele><time>2015-04-25T12:15:52.0000000+00:00</time></trkpt><trkpt lat="34.9935541" lon="32.3441102"><ele>439.5</ele><time>2015-04-25T12:15:54.0000000+00:00</time></trkpt><trkpt lat="34.9935183" lon="32.3440312"><ele>438.8</ele><time>2015-04-25T12:15:56.0000000+00:00</time></trkpt><trkpt lat="34.9934957" lon="32.3439499"><ele>437.7</ele><time>2015-04-25T12:15:58.0000000+00:00</time></trkpt><trkpt lat="34.9935137" lon="32.3438699"><ele>437.1</ele><time>2015-04-25T12:16:00.0000000+00:00</time></trkpt><trkpt lat="34.993563" lon="32.3438246"><ele>437.0</ele><time>2015-04-25T12:16:02.0000000+00:00</time></trkpt><trkpt lat="34.9936374" lon="32.3438077"><ele>434.9</ele><time>2015-04-25T12:16:04.0000000+00:00</time></trkpt><trkpt lat="34.9937243" lon="32.3438386"><ele>434.4</ele><time>2015-04-25T12:16:05.0000000+00:00</time></trkpt><trkpt lat="34.9937758" lon="32.343838"><ele>433.7</ele><time>2015-04-25T12:16:06.0000000+00:00</time></trkpt><trkpt lat="34.9938351" lon="32.3438423"><ele>433.3</ele><time>2015-04-25T12:16:07.0000000+00:00</time></trkpt><trkpt lat="34.9938866" lon="32.3438443"><ele>433.6</ele><time>2015-04-25T12:16:08.0000000+00:00</time></trkpt><trkpt lat="34.9939318" lon="32.3438459"><ele>433.8</ele><time>2015-04-25T12:16:09.0000000+00:00</time></trkpt><trkpt lat="34.9939837" lon="32.3438359"><ele>433.9</ele><time>2015-04-25T12:16:10.0000000+00:00</time></trkpt><trkpt lat="34.9940671" lon="32.343842"><ele>433.9</ele><time>2015-04-25T12:16:12.0000000+00:00</time></trkpt><trkpt lat="34.9941227" lon="32.3438563"><ele>434.9</ele><time>2015-04-25T12:16:13.0000000+00:00</time></trkpt><trkpt lat="34.9941686" lon="32.3438665"><ele>434.9</ele><time>2015-04-25T12:16:14.0000000+00:00</time></trkpt><trkpt lat="34.9942169" lon="32.3438806"><ele>434.4</ele><time>2015-04-25T12:16:15.0000000+00:00</time></trkpt><trkpt lat="34.9942616" lon="32.3439043"><ele>432.7</ele><time>2015-04-25T12:16:16.0000000+00:00</time></trkpt><trkpt lat="34.9943086" lon="32.3439372"><ele>431.8</ele><time>2015-04-25T12:16:17.0000000+00:00</time></trkpt><trkpt lat="34.9943489" lon="32.3439807"><ele>431.4</ele><time>2015-04-25T12:16:18.0000000+00:00</time></trkpt><trkpt lat="34.994388" lon="32.3440268"><ele>431.1</ele><time>2015-04-25T12:16:19.0000000+00:00</time></trkpt><trkpt lat="34.9944266" lon="32.3440818"><ele>431.5</ele><time>2015-04-25T12:16:20.0000000+00:00</time></trkpt><trkpt lat="34.9944604" lon="32.3441331"><ele>431.2</ele><time>2015-04-25T12:16:21.0000000+00:00</time></trkpt><trkpt lat="34.9945072" lon="32.3441804"><ele>430.6</ele><time>2015-04-25T12:16:22.0000000+00:00</time></trkpt><trkpt lat="34.9945534" lon="32.3442137"><ele>430.8</ele><time>2015-04-25T12:16:23.0000000+00:00</time></trkpt><trkpt lat="34.99459" lon="32.3442596"><ele>430.8</ele><time>2015-04-25T12:16:24.0000000+00:00</time></trkpt><trkpt lat="34.9946271" lon="32.344295"><ele>430.9</ele><time>2015-04-25T12:16:25.0000000+00:00</time></trkpt><trkpt lat="34.9946775" lon="32.3443214"><ele>430.9</ele><time>2015-04-25T12:16:26.0000000+00:00</time></trkpt><trkpt lat="34.9947236" lon="32.3443519"><ele>430.9</ele><time>2015-04-25T12:16:27.0000000+00:00</time></trkpt><trkpt lat="34.9947744" lon="32.344385"><ele>431.4</ele><time>2015-04-25T12:16:28.0000000+00:00</time></trkpt><trkpt lat="34.994836" lon="32.3444016"><ele>431.7</ele><time>2015-04-25T12:16:29.0000000+00:00</time></trkpt><trkpt lat="34.9948873" lon="32.3444318"><ele>431.3</ele><time>2015-04-25T12:16:30.0000000+00:00</time></trkpt><trkpt lat="34.9949443" lon="32.3444592"><ele>430.1</ele><time>2015-04-25T12:16:31.0000000+00:00</time></trkpt><trkpt lat="34.9950071" lon="32.3444758"><ele>429.5</ele><time>2015-04-25T12:16:32.0000000+00:00</time></trkpt><trkpt lat="34.9950645" lon="32.3445136"><ele>428.7</ele><time>2015-04-25T12:16:33.0000000+00:00</time></trkpt><trkpt lat="34.9950944" lon="32.3445697"><ele>428.8</ele><time>2015-04-25T12:16:34.0000000+00:00</time></trkpt><trkpt lat="34.9951039" lon="32.3446382"><ele>428.4</ele><time>2015-04-25T12:16:35.0000000+00:00</time></trkpt><trkpt lat="34.9951234" lon="32.3446935"><ele>428.2</ele><time>2015-04-25T12:16:36.0000000+00:00</time></trkpt><trkpt lat="34.9951137" lon="32.344754"><ele>428.5</ele><time>2015-04-25T12:16:37.0000000+00:00</time></trkpt><trkpt lat="34.9951014" lon="32.3448086"><ele>428.2</ele><time>2015-04-25T12:16:38.0000000+00:00</time></trkpt><trkpt lat="34.9951042" lon="32.3448654"><ele>428.1</ele><time>2015-04-25T12:16:39.0000000+00:00</time></trkpt><trkpt lat="34.9951002" lon="32.3449759"><ele>427.5</ele><time>2015-04-25T12:16:41.0000000+00:00</time></trkpt><trkpt lat="34.995117" lon="32.3450299"><ele>427.2</ele><time>2015-04-25T12:16:42.0000000+00:00</time></trkpt><trkpt lat="34.9951585" lon="32.3451106"><ele>426.5</ele><time>2015-04-25T12:16:44.0000000+00:00</time></trkpt><trkpt lat="34.9952013" lon="32.3452177"><ele>425.3</ele><time>2015-04-25T12:16:46.0000000+00:00</time></trkpt><trkpt lat="34.9952247" lon="32.3452647"><ele>424.6</ele><time>2015-04-25T12:16:47.0000000+00:00</time></trkpt><trkpt lat="34.995263" lon="32.3453266"><ele>423.4</ele><time>2015-04-25T12:16:49.0000000+00:00</time></trkpt><trkpt lat="34.995284" lon="32.3453788"><ele>423.0</ele><time>2015-04-25T12:16:51.0000000+00:00</time></trkpt><trkpt lat="34.9953351" lon="32.3454153"><ele>423.0</ele><time>2015-04-25T12:16:53.0000000+00:00</time></trkpt><trkpt lat="34.9953774" lon="32.3454521"><ele>422.9</ele><time>2015-04-25T12:16:55.0000000+00:00</time></trkpt><trkpt lat="34.9954419" lon="32.3454734"><ele>423.4</ele><time>2015-04-25T12:16:57.0000000+00:00</time></trkpt><trkpt lat="34.9955079" lon="32.345485"><ele>424.6</ele><time>2015-04-25T12:16:59.0000000+00:00</time></trkpt><trkpt lat="34.9955851" lon="32.3454689"><ele>420.8</ele><time>2015-04-25T12:17:01.0000000+00:00</time></trkpt><trkpt lat="34.9956607" lon="32.3454453"><ele>418.9</ele><time>2015-04-25T12:17:03.0000000+00:00</time></trkpt><trkpt lat="34.9957356" lon="32.3454104"><ele>418.4</ele><time>2015-04-25T12:17:04.0000000+00:00</time></trkpt><trkpt lat="34.9957874" lon="32.3453862"><ele>418.7</ele><time>2015-04-25T12:17:05.0000000+00:00</time></trkpt><trkpt lat="34.9958572" lon="32.3453602"><ele>418.8</ele><time>2015-04-25T12:17:06.0000000+00:00</time></trkpt><trkpt lat="34.9959005" lon="32.3453212"><ele>418.9</ele><time>2015-04-25T12:17:07.0000000+00:00</time></trkpt><trkpt lat="34.9959548" lon="32.3452714"><ele>418.9</ele><time>2015-04-25T12:17:08.0000000+00:00</time></trkpt><trkpt lat="34.9960052" lon="32.3452386"><ele>418.9</ele><time>2015-04-25T12:17:09.0000000+00:00</time></trkpt><trkpt lat="34.9960525" lon="32.3452041"><ele>418.4</ele><time>2015-04-25T12:17:10.0000000+00:00</time></trkpt><trkpt lat="34.9961025" lon="32.3451709"><ele>418.2</ele><time>2015-04-25T12:17:11.0000000+00:00</time></trkpt><trkpt lat="34.9961607" lon="32.3451475"><ele>417.6</ele><time>2015-04-25T12:17:12.0000000+00:00</time></trkpt><trkpt lat="34.9962263" lon="32.3451178"><ele>416.7</ele><time>2015-04-25T12:17:13.0000000+00:00</time></trkpt><trkpt lat="34.9962885" lon="32.3450792"><ele>415.8</ele><time>2015-04-25T12:17:14.0000000+00:00</time></trkpt><trkpt lat="34.9963499" lon="32.3450538"><ele>415.9</ele><time>2015-04-25T12:17:15.0000000+00:00</time></trkpt><trkpt lat="34.9964207" lon="32.3450217"><ele>415.4</ele><time>2015-04-25T12:17:16.0000000+00:00</time></trkpt><trkpt lat="34.9964761" lon="32.344969"><ele>414.7</ele><time>2015-04-25T12:17:17.0000000+00:00</time></trkpt><trkpt lat="34.9965134" lon="32.3449383"><ele>414.3</ele><time>2015-04-25T12:17:18.0000000+00:00</time></trkpt><trkpt lat="34.9965372" lon="32.3448433"><ele>413.3</ele><time>2015-04-25T12:17:20.0000000+00:00</time></trkpt><trkpt lat="34.9965698" lon="32.3447665"><ele>414.3</ele><time>2015-04-25T12:17:22.0000000+00:00</time></trkpt><trkpt lat="34.9965811" lon="32.3446721"><ele>414.8</ele><time>2015-04-25T12:17:24.0000000+00:00</time></trkpt><trkpt lat="34.9965844" lon="32.3445822"><ele>414.9</ele><time>2015-04-25T12:17:26.0000000+00:00</time></trkpt><trkpt lat="34.9965768" lon="32.3445272"><ele>412.5</ele><time>2015-04-25T12:17:29.0000000+00:00</time></trkpt><trkpt lat="34.9965774" lon="32.3444718"><ele>408.4</ele><time>2015-04-25T12:22:56.0000000+00:00</time></trkpt><trkpt lat="34.9965863" lon="32.3444124"><ele>408.1</ele><time>2015-04-25T12:22:58.0000000+00:00</time></trkpt><trkpt lat="34.9966055" lon="32.3443456"><ele>407.5</ele><time>2015-04-25T12:23:00.0000000+00:00</time></trkpt><trkpt lat="34.9966396" lon="32.3442569"><ele>407.1</ele><time>2015-04-25T12:23:02.0000000+00:00</time></trkpt><trkpt lat="34.9966703" lon="32.3441752"><ele>406.5</ele><time>2015-04-25T12:23:03.0000000+00:00</time></trkpt><trkpt lat="34.996687" lon="32.3441075"><ele>406.2</ele><time>2015-04-25T12:23:04.0000000+00:00</time></trkpt><trkpt lat="34.9967076" lon="32.3440495"><ele>405.6</ele><time>2015-04-25T12:23:05.0000000+00:00</time></trkpt><trkpt lat="34.9967268" lon="32.3439922"><ele>405.3</ele><time>2015-04-25T12:23:06.0000000+00:00</time></trkpt><trkpt lat="34.99675" lon="32.3439408"><ele>405.1</ele><time>2015-04-25T12:23:07.0000000+00:00</time></trkpt><trkpt lat="34.9967579" lon="32.3438762"><ele>404.5</ele><time>2015-04-25T12:23:08.0000000+00:00</time></trkpt><trkpt lat="34.9967713" lon="32.3438034"><ele>403.7</ele><time>2015-04-25T12:23:09.0000000+00:00</time></trkpt><trkpt lat="34.9967782" lon="32.3437153"><ele>402.8</ele><time>2015-04-25T12:23:10.0000000+00:00</time></trkpt><trkpt lat="34.9967945" lon="32.343613"><ele>401.4</ele><time>2015-04-25T12:23:11.0000000+00:00</time></trkpt><trkpt lat="34.9967972" lon="32.3435232"><ele>400.2</ele><time>2015-04-25T12:23:12.0000000+00:00</time></trkpt><trkpt lat="34.9968057" lon="32.3434315"><ele>399.0</ele><time>2015-04-25T12:23:13.0000000+00:00</time></trkpt><trkpt lat="34.9968056" lon="32.3433484"><ele>398.5</ele><time>2015-04-25T12:23:14.0000000+00:00</time></trkpt><trkpt lat="34.9968088" lon="32.3432661"><ele>397.7</ele><time>2015-04-25T12:23:15.0000000+00:00</time></trkpt><trkpt lat="34.9968123" lon="32.3431851"><ele>397.3</ele><time>2015-04-25T12:23:16.0000000+00:00</time></trkpt><trkpt lat="34.9968153" lon="32.3431105"><ele>397.1</ele><time>2015-04-25T12:23:17.0000000+00:00</time></trkpt><trkpt lat="34.9968204" lon="32.3430319"><ele>397.0</ele><time>2015-04-25T12:23:18.0000000+00:00</time></trkpt><trkpt lat="34.9968288" lon="32.3429548"><ele>396.5</ele><time>2015-04-25T12:23:19.0000000+00:00</time></trkpt><trkpt lat="34.9968454" lon="32.3428721"><ele>395.7</ele><time>2015-04-25T12:23:20.0000000+00:00</time></trkpt><trkpt lat="34.9968616" lon="32.3427929"><ele>395.8</ele><time>2015-04-25T12:23:21.0000000+00:00</time></trkpt><trkpt lat="34.996879" lon="32.3427204"><ele>395.4</ele><time>2015-04-25T12:23:22.0000000+00:00</time></trkpt><trkpt lat="34.9969043" lon="32.3426506"><ele>395.7</ele><time>2015-04-25T12:23:23.0000000+00:00</time></trkpt><trkpt lat="34.9969236" lon="32.3425871"><ele>395.3</ele><time>2015-04-25T12:23:24.0000000+00:00</time></trkpt><trkpt lat="34.9969581" lon="32.3425201"><ele>395.1</ele><time>2015-04-25T12:23:25.0000000+00:00</time></trkpt><trkpt lat="34.996989" lon="32.3424663"><ele>395.5</ele><time>2015-04-25T12:23:26.0000000+00:00</time></trkpt><trkpt lat="34.9970162" lon="32.3424072"><ele>395.2</ele><time>2015-04-25T12:23:27.0000000+00:00</time></trkpt><trkpt lat="34.9970252" lon="32.3423345"><ele>395.1</ele><time>2015-04-25T12:23:28.0000000+00:00</time></trkpt><trkpt lat="34.9970386" lon="32.3422494"><ele>394.0</ele><time>2015-04-25T12:23:29.0000000+00:00</time></trkpt><trkpt lat="34.9970591" lon="32.3421738"><ele>392.5</ele><time>2015-04-25T12:23:30.0000000+00:00</time></trkpt><trkpt lat="34.9970933" lon="32.3421148"><ele>390.7</ele><time>2015-04-25T12:23:31.0000000+00:00</time></trkpt><trkpt lat="34.9971406" lon="32.3420788"><ele>389.8</ele><time>2015-04-25T12:23:32.0000000+00:00</time></trkpt><trkpt lat="34.9971944" lon="32.3420459"><ele>388.9</ele><time>2015-04-25T12:23:33.0000000+00:00</time></trkpt><trkpt lat="34.9972511" lon="32.3420182"><ele>388.4</ele><time>2015-04-25T12:23:34.0000000+00:00</time></trkpt><trkpt lat="34.9972976" lon="32.341972"><ele>388.7</ele><time>2015-04-25T12:23:35.0000000+00:00</time></trkpt><trkpt lat="34.9973546" lon="32.341915"><ele>389.3</ele><time>2015-04-25T12:23:36.0000000+00:00</time></trkpt><trkpt lat="34.9974085" lon="32.3418766"><ele>388.6</ele><time>2015-04-25T12:23:37.0000000+00:00</time></trkpt><trkpt lat="34.9974845" lon="32.3418245"><ele>388.3</ele><time>2015-04-25T12:23:38.0000000+00:00</time></trkpt><trkpt lat="34.9975401" lon="32.3417764"><ele>388.1</ele><time>2015-04-25T12:23:39.0000000+00:00</time></trkpt><trkpt lat="34.997604" lon="32.3417254"><ele>386.5</ele><time>2015-04-25T12:23:40.0000000+00:00</time></trkpt><trkpt lat="34.9976711" lon="32.3416828"><ele>385.7</ele><time>2015-04-25T12:23:41.0000000+00:00</time></trkpt><trkpt lat="34.9977554" lon="32.3416637"><ele>385.8</ele><time>2015-04-25T12:23:42.0000000+00:00</time></trkpt><trkpt lat="34.99783" lon="32.3416529"><ele>385.4</ele><time>2015-04-25T12:23:43.0000000+00:00</time></trkpt><trkpt lat="34.9979065" lon="32.3416403"><ele>385.2</ele><time>2015-04-25T12:23:44.0000000+00:00</time></trkpt><trkpt lat="34.9979739" lon="32.3416281"><ele>384.5</ele><time>2015-04-25T12:23:45.0000000+00:00</time></trkpt><trkpt lat="34.9980289" lon="32.3416121"><ele>383.7</ele><time>2015-04-25T12:23:46.0000000+00:00</time></trkpt><trkpt lat="34.9980825" lon="32.3415978"><ele>383.3</ele><time>2015-04-25T12:23:47.0000000+00:00</time></trkpt><trkpt lat="34.9981622" lon="32.3415863"><ele>383.1</ele><time>2015-04-25T12:23:48.0000000+00:00</time></trkpt><trkpt lat="34.9982346" lon="32.3415748"><ele>383.0</ele><time>2015-04-25T12:23:49.0000000+00:00</time></trkpt><trkpt lat="34.9983018" lon="32.3415738"><ele>383.0</ele><time>2015-04-25T12:23:50.0000000+00:00</time></trkpt><trkpt lat="34.9983716" lon="32.3415677"><ele>383.0</ele><time>2015-04-25T12:23:51.0000000+00:00</time></trkpt><trkpt lat="34.9984463" lon="32.3415832"><ele>382.9</ele><time>2015-04-25T12:23:52.0000000+00:00</time></trkpt><trkpt lat="34.9985186" lon="32.3415561"><ele>381.9</ele><time>2015-04-25T12:23:53.0000000+00:00</time></trkpt><trkpt lat="34.9985718" lon="32.3415549"><ele>381.4</ele><time>2015-04-25T12:23:54.0000000+00:00</time></trkpt><trkpt lat="34.9986304" lon="32.3415581"><ele>381.2</ele><time>2015-04-25T12:23:55.0000000+00:00</time></trkpt><trkpt lat="34.9986997" lon="32.341554"><ele>381.6</ele><time>2015-04-25T12:23:56.0000000+00:00</time></trkpt><trkpt lat="34.9987651" lon="32.3415384"><ele>381.7</ele><time>2015-04-25T12:23:57.0000000+00:00</time></trkpt><trkpt lat="34.9988249" lon="32.3415035"><ele>381.3</ele><time>2015-04-25T12:23:58.0000000+00:00</time></trkpt><trkpt lat="34.9988915" lon="32.3414846"><ele>380.6</ele><time>2015-04-25T12:23:59.0000000+00:00</time></trkpt><trkpt lat="34.9989624" lon="32.3414506"><ele>379.8</ele><time>2015-04-25T12:24:00.0000000+00:00</time></trkpt><trkpt lat="34.9990418" lon="32.3414099"><ele>379.4</ele><time>2015-04-25T12:24:01.0000000+00:00</time></trkpt><trkpt lat="34.9991181" lon="32.341375"><ele>379.1</ele><time>2015-04-25T12:24:02.0000000+00:00</time></trkpt><trkpt lat="34.9991791" lon="32.3413427"><ele>379.0</ele><time>2015-04-25T12:24:03.0000000+00:00</time></trkpt><trkpt lat="34.9992395" lon="32.3413044"><ele>379.0</ele><time>2015-04-25T12:24:04.0000000+00:00</time></trkpt><trkpt lat="34.9992826" lon="32.3412786"><ele>379.0</ele><time>2015-04-25T12:24:05.0000000+00:00</time></trkpt><trkpt lat="34.9993361" lon="32.3412731"><ele>379.4</ele><time>2015-04-25T12:24:06.0000000+00:00</time></trkpt><trkpt lat="34.999418" lon="32.341276"><ele>381.1</ele><time>2015-04-25T12:24:08.0000000+00:00</time></trkpt><trkpt lat="34.9994816" lon="32.3412971"><ele>382.5</ele><time>2015-04-25T12:24:10.0000000+00:00</time></trkpt><trkpt lat="34.9995294" lon="32.3413464"><ele>383.6</ele><time>2015-04-25T12:24:12.0000000+00:00</time></trkpt><trkpt lat="34.9995662" lon="32.3414088"><ele>383.8</ele><time>2015-04-25T12:24:14.0000000+00:00</time></trkpt><trkpt lat="34.9995903" lon="32.341491"><ele>385.2</ele><time>2015-04-25T12:24:16.0000000+00:00</time></trkpt><trkpt lat="34.9996034" lon="32.3415607"><ele>386.5</ele><time>2015-04-25T12:24:18.0000000+00:00</time></trkpt><trkpt lat="34.9996289" lon="32.3416216"><ele>387.6</ele><time>2015-04-25T12:24:20.0000000+00:00</time></trkpt><trkpt lat="34.9996594" lon="32.3416791"><ele>387.8</ele><time>2015-04-25T12:24:22.0000000+00:00</time></trkpt><trkpt lat="34.9997025" lon="32.3417315"><ele>386.7</ele><time>2015-04-25T12:24:24.0000000+00:00</time></trkpt><trkpt lat="34.9997429" lon="32.3417832"><ele>384.9</ele><time>2015-04-25T12:24:26.0000000+00:00</time></trkpt><trkpt lat="34.9997797" lon="32.3418203"><ele>384.9</ele><time>2015-04-25T12:24:28.0000000+00:00</time></trkpt><trkpt lat="34.9998386" lon="32.3418408"><ele>386.2</ele><time>2015-04-25T12:24:31.0000000+00:00</time></trkpt><trkpt lat="34.9999014" lon="32.341835"><ele>386.7</ele><time>2015-04-25T12:24:35.0000000+00:00</time></trkpt><trkpt lat="34.9999531" lon="32.3418301"><ele>388.4</ele><time>2015-04-25T12:24:37.0000000+00:00</time></trkpt><trkpt lat="35.0000029" lon="32.341836"><ele>388.0</ele><time>2015-04-25T12:24:39.0000000+00:00</time></trkpt><trkpt lat="35.0000559" lon="32.3418818"><ele>390.1</ele><time>2015-04-25T12:24:42.0000000+00:00</time></trkpt><trkpt lat="35.0000571" lon="32.3419513"><ele>391.9</ele><time>2015-04-25T12:24:45.0000000+00:00</time></trkpt><trkpt lat="35.0000801" lon="32.3420312"><ele>391.7</ele><time>2015-04-25T12:24:48.0000000+00:00</time></trkpt><trkpt lat="35.0000939" lon="32.3421022"><ele>391.6</ele><time>2015-04-25T12:24:50.0000000+00:00</time></trkpt><trkpt lat="35.0001078" lon="32.3421864"><ele>391.1</ele><time>2015-04-25T12:24:52.0000000+00:00</time></trkpt><trkpt lat="35.0001263" lon="32.3422642"><ele>391.0</ele><time>2015-04-25T12:24:54.0000000+00:00</time></trkpt><trkpt lat="35.0001544" lon="32.3423392"><ele>390.9</ele><time>2015-04-25T12:24:56.0000000+00:00</time></trkpt><trkpt lat="35.0002065" lon="32.3424061"><ele>390.9</ele><time>2015-04-25T12:24:58.0000000+00:00</time></trkpt><trkpt lat="35.0002847" lon="32.3424379"><ele>389.2</ele><time>2015-04-25T12:25:00.0000000+00:00</time></trkpt><trkpt lat="35.0003757" lon="32.3424238"><ele>389.1</ele><time>2015-04-25T12:25:01.0000000+00:00</time></trkpt><trkpt lat="35.0004647" lon="32.3423852"><ele>388.5</ele><time>2015-04-25T12:25:03.0000000+00:00</time></trkpt><trkpt lat="35.0004962" lon="32.3423452"><ele>388.2</ele><time>2015-04-25T12:25:04.0000000+00:00</time></trkpt><trkpt lat="35.0005264" lon="32.3422964"><ele>388.1</ele><time>2015-04-25T12:25:05.0000000+00:00</time></trkpt><trkpt lat="35.0005689" lon="32.3422381"><ele>387.5</ele><time>2015-04-25T12:25:06.0000000+00:00</time></trkpt><trkpt lat="35.0006005" lon="32.3421657"><ele>387.2</ele><time>2015-04-25T12:25:07.0000000+00:00</time></trkpt><trkpt lat="35.0006125" lon="32.3420927"><ele>387.1</ele><time>2015-04-25T12:25:08.0000000+00:00</time></trkpt><trkpt lat="35.00063" lon="32.342002"><ele>387.0</ele><time>2015-04-25T12:25:09.0000000+00:00</time></trkpt><trkpt lat="35.0006689" lon="32.3419268"><ele>387.5</ele><time>2015-04-25T12:25:10.0000000+00:00</time></trkpt><trkpt lat="35.0007067" lon="32.3418415"><ele>387.7</ele><time>2015-04-25T12:25:11.0000000+00:00</time></trkpt><trkpt lat="35.0007466" lon="32.3417687"><ele>387.3</ele><time>2015-04-25T12:25:12.0000000+00:00</time></trkpt><trkpt lat="35.0008083" lon="32.3416993"><ele>387.1</ele><time>2015-04-25T12:25:13.0000000+00:00</time></trkpt><trkpt lat="35.0008536" lon="32.3416157"><ele>387.0</ele><time>2015-04-25T12:25:14.0000000+00:00</time></trkpt><trkpt lat="35.0009067" lon="32.3415668"><ele>386.5</ele><time>2015-04-25T12:25:15.0000000+00:00</time></trkpt><trkpt lat="35.0009437" lon="32.3415056"><ele>386.2</ele><time>2015-04-25T12:25:16.0000000+00:00</time></trkpt><trkpt lat="35.0009637" lon="32.3414502"><ele>385.6</ele><time>2015-04-25T12:25:17.0000000+00:00</time></trkpt><trkpt lat="35.0010034" lon="32.3413649"><ele>384.7</ele><time>2015-04-25T12:25:18.0000000+00:00</time></trkpt><trkpt lat="35.0010363" lon="32.3412804"><ele>383.8</ele><time>2015-04-25T12:25:19.0000000+00:00</time></trkpt><trkpt lat="35.0010626" lon="32.3412179"><ele>383.9</ele><time>2015-04-25T12:25:20.0000000+00:00</time></trkpt><trkpt lat="35.0010899" lon="32.3411657"><ele>383.9</ele><time>2015-04-25T12:25:21.0000000+00:00</time></trkpt><trkpt lat="35.0011411" lon="32.3411698"><ele>384.2</ele><time>2015-04-25T12:25:23.0000000+00:00</time></trkpt><trkpt lat="35.0011996" lon="32.3411807"><ele>381.7</ele><time>2015-04-25T12:25:25.0000000+00:00</time></trkpt><trkpt lat="35.0012583" lon="32.3411662"><ele>380.8</ele><time>2015-04-25T12:25:26.0000000+00:00</time></trkpt><trkpt lat="35.0013068" lon="32.3411489"><ele>379.9</ele><time>2015-04-25T12:25:27.0000000+00:00</time></trkpt><trkpt lat="35.0013637" lon="32.3411268"><ele>378.9</ele><time>2015-04-25T12:25:28.0000000+00:00</time></trkpt><trkpt lat="35.0014157" lon="32.3411037"><ele>378.4</ele><time>2015-04-25T12:25:29.0000000+00:00</time></trkpt><trkpt lat="35.0014654" lon="32.3410784"><ele>377.2</ele><time>2015-04-25T12:25:30.0000000+00:00</time></trkpt><trkpt lat="35.0015186" lon="32.3410454"><ele>375.6</ele><time>2015-04-25T12:25:31.0000000+00:00</time></trkpt><trkpt lat="35.0015968" lon="32.3410177"><ele>373.7</ele><time>2015-04-25T12:25:32.0000000+00:00</time></trkpt><trkpt lat="35.0016906" lon="32.3409881"><ele>373.8</ele><time>2015-04-25T12:25:33.0000000+00:00</time></trkpt><trkpt lat="35.0017745" lon="32.3409604"><ele>373.4</ele><time>2015-04-25T12:25:34.0000000+00:00</time></trkpt><trkpt lat="35.0018612" lon="32.3409286"><ele>372.7</ele><time>2015-04-25T12:25:35.0000000+00:00</time></trkpt><trkpt lat="35.00195" lon="32.3408888"><ele>373.8</ele><time>2015-04-25T12:25:36.0000000+00:00</time></trkpt><trkpt lat="35.0020245" lon="32.340846"><ele>374.4</ele><time>2015-04-25T12:25:37.0000000+00:00</time></trkpt><trkpt lat="35.0020945" lon="32.3408003"><ele>374.6</ele><time>2015-04-25T12:25:38.0000000+00:00</time></trkpt><trkpt lat="35.0021485" lon="32.3407663"><ele>374.8</ele><time>2015-04-25T12:25:39.0000000+00:00</time></trkpt><trkpt lat="35.0022054" lon="32.3407307"><ele>375.4</ele><time>2015-04-25T12:25:40.0000000+00:00</time></trkpt><trkpt lat="35.0022535" lon="32.3406953"><ele>376.1</ele><time>2015-04-25T12:25:41.0000000+00:00</time></trkpt><trkpt lat="35.0023196" lon="32.3406641"><ele>376.5</ele><time>2015-04-25T12:25:42.0000000+00:00</time></trkpt><trkpt lat="35.0023699" lon="32.3406403"><ele>377.2</ele><time>2015-04-25T12:25:43.0000000+00:00</time></trkpt><trkpt lat="35.0024142" lon="32.340573"><ele>378.5</ele><time>2015-04-25T12:25:45.0000000+00:00</time></trkpt><trkpt lat="35.0024569" lon="32.3405345"><ele>379.3</ele><time>2015-04-25T12:25:47.0000000+00:00</time></trkpt><trkpt lat="35.0025154" lon="32.3404682"><ele>379.4</ele><time>2015-04-25T12:25:50.0000000+00:00</time></trkpt><trkpt lat="35.0025546" lon="32.3404115"><ele>380.2</ele><time>2015-04-25T12:25:53.0000000+00:00</time></trkpt><trkpt lat="35.0025991" lon="32.3403726"><ele>379.1</ele><time>2015-04-25T12:25:56.0000000+00:00</time></trkpt><trkpt lat="35.0026399" lon="32.3403378"><ele>378.6</ele><time>2015-04-25T12:25:59.0000000+00:00</time></trkpt><trkpt lat="35.0026864" lon="32.3403143"><ele>378.8</ele><time>2015-04-25T12:26:02.0000000+00:00</time></trkpt><trkpt lat="35.0027369" lon="32.3402799"><ele>380.0</ele><time>2015-04-25T12:26:05.0000000+00:00</time></trkpt><trkpt lat="35.002781" lon="32.3402597"><ele>380.7</ele><time>2015-04-25T12:26:07.0000000+00:00</time></trkpt><trkpt lat="35.0028236" lon="32.3402408"><ele>381.9</ele><time>2015-04-25T12:26:09.0000000+00:00</time></trkpt><trkpt lat="35.002874" lon="32.3402289"><ele>382.7</ele><time>2015-04-25T12:26:11.0000000+00:00</time></trkpt><trkpt lat="35.002931" lon="32.3402165"><ele>383.6</ele><time>2015-04-25T12:26:13.0000000+00:00</time></trkpt><trkpt lat="35.0029861" lon="32.3402095"><ele>383.1</ele><time>2015-04-25T12:26:15.0000000+00:00</time></trkpt><trkpt lat="35.0030391" lon="32.3402038"><ele>383.0</ele><time>2015-04-25T12:26:17.0000000+00:00</time></trkpt><trkpt lat="35.0030904" lon="32.3402017"><ele>383.7</ele><time>2015-04-25T12:26:19.0000000+00:00</time></trkpt><trkpt lat="35.0031458" lon="32.3401992"><ele>383.1</ele><time>2015-04-25T12:26:21.0000000+00:00</time></trkpt><trkpt lat="35.0031985" lon="32.3401926"><ele>383.2</ele><time>2015-04-25T12:26:23.0000000+00:00</time></trkpt><trkpt lat="35.0032539" lon="32.3401751"><ele>383.8</ele><time>2015-04-25T12:26:25.0000000+00:00</time></trkpt><trkpt lat="35.0033071" lon="32.3401496"><ele>383.1</ele><time>2015-04-25T12:26:27.0000000+00:00</time></trkpt><trkpt lat="35.0033651" lon="32.3401314"><ele>382.5</ele><time>2015-04-25T12:26:29.0000000+00:00</time></trkpt><trkpt lat="35.0034171" lon="32.3401198"><ele>382.6</ele><time>2015-04-25T12:26:31.0000000+00:00</time></trkpt><trkpt lat="35.0034664" lon="32.3401117"><ele>382.1</ele><time>2015-04-25T12:26:33.0000000+00:00</time></trkpt><trkpt lat="35.0035239" lon="32.3401141"><ele>381.2</ele><time>2015-04-25T12:26:35.0000000+00:00</time></trkpt><trkpt lat="35.0036053" lon="32.3401286"><ele>381.0</ele><time>2015-04-25T12:26:37.0000000+00:00</time></trkpt><trkpt lat="35.0036775" lon="32.3401483"><ele>381.0</ele><time>2015-04-25T12:26:38.0000000+00:00</time></trkpt><trkpt lat="35.0037235" lon="32.3401598"><ele>380.9</ele><time>2015-04-25T12:26:39.0000000+00:00</time></trkpt><trkpt lat="35.0037755" lon="32.3401725"><ele>380.2</ele><time>2015-04-25T12:26:41.0000000+00:00</time></trkpt><trkpt lat="35.0038335" lon="32.3401744"><ele>379.2</ele><time>2015-04-25T12:26:44.0000000+00:00</time></trkpt><trkpt lat="35.0038942" lon="32.3401834"><ele>380.7</ele><time>2015-04-25T12:26:48.0000000+00:00</time></trkpt><trkpt lat="35.0039439" lon="32.3401932"><ele>380.8</ele><time>2015-04-25T12:26:51.0000000+00:00</time></trkpt><trkpt lat="35.0039953" lon="32.3401967"><ele>381.3</ele><time>2015-04-25T12:26:54.0000000+00:00</time></trkpt><trkpt lat="35.0040542" lon="32.3401931"><ele>381.7</ele><time>2015-04-25T12:26:57.0000000+00:00</time></trkpt><trkpt lat="35.004114" lon="32.3401813"><ele>382.2</ele><time>2015-04-25T12:27:00.0000000+00:00</time></trkpt><trkpt lat="35.0041736" lon="32.3401644"><ele>382.8</ele><time>2015-04-25T12:27:03.0000000+00:00</time></trkpt><trkpt lat="35.0042202" lon="32.3401494"><ele>383.4</ele><time>2015-04-25T12:27:05.0000000+00:00</time></trkpt><trkpt lat="35.0042815" lon="32.3401341"><ele>382.5</ele><time>2015-04-25T12:27:07.0000000+00:00</time></trkpt><trkpt lat="35.0043712" lon="32.34011"><ele>381.6</ele><time>2015-04-25T12:27:09.0000000+00:00</time></trkpt><trkpt lat="35.0044546" lon="32.3400884"><ele>381.3</ele><time>2015-04-25T12:27:10.0000000+00:00</time></trkpt><trkpt lat="35.0045474" lon="32.3400798"><ele>381.0</ele><time>2015-04-25T12:27:12.0000000+00:00</time></trkpt><trkpt lat="35.0045992" lon="32.3400797"><ele>381.0</ele><time>2015-04-25T12:27:13.0000000+00:00</time></trkpt><trkpt lat="35.0046487" lon="32.3400777"><ele>381.5</ele><time>2015-04-25T12:27:14.0000000+00:00</time></trkpt><trkpt lat="35.0047093" lon="32.3400842"><ele>381.7</ele><time>2015-04-25T12:27:15.0000000+00:00</time></trkpt><trkpt lat="35.004798" lon="32.3400786"><ele>381.9</ele><time>2015-04-25T12:27:17.0000000+00:00</time></trkpt><trkpt lat="35.0048776" lon="32.3400646"><ele>383.2</ele><time>2015-04-25T12:27:19.0000000+00:00</time></trkpt><trkpt lat="35.0049468" lon="32.3400482"><ele>383.7</ele><time>2015-04-25T12:27:21.0000000+00:00</time></trkpt><trkpt lat="35.0050272" lon="32.3400264"><ele>384.4</ele><time>2015-04-25T12:27:23.0000000+00:00</time></trkpt><trkpt lat="35.0050926" lon="32.3399971"><ele>384.8</ele><time>2015-04-25T12:27:25.0000000+00:00</time></trkpt><trkpt lat="35.0051619" lon="32.3399705"><ele>386.4</ele><time>2015-04-25T12:27:27.0000000+00:00</time></trkpt><trkpt lat="35.0052196" lon="32.3399209"><ele>388.0</ele><time>2015-04-25T12:27:29.0000000+00:00</time></trkpt><trkpt lat="35.0052581" lon="32.3398529"><ele>389.5</ele><time>2015-04-25T12:27:31.0000000+00:00</time></trkpt><trkpt lat="35.005291" lon="32.3397924"><ele>389.3</ele><time>2015-04-25T12:27:33.0000000+00:00</time></trkpt><trkpt lat="35.0053284" lon="32.3397459"><ele>388.0</ele><time>2015-04-25T12:27:35.0000000+00:00</time></trkpt><trkpt lat="35.0053717" lon="32.3397038"><ele>389.2</ele><time>2015-04-25T12:27:37.0000000+00:00</time></trkpt><trkpt lat="35.0054398" lon="32.3396754"><ele>388.3</ele><time>2015-04-25T12:27:40.0000000+00:00</time></trkpt><trkpt lat="35.0054896" lon="32.3396508"><ele>386.8</ele><time>2015-04-25T12:27:42.0000000+00:00</time></trkpt><trkpt lat="35.0055336" lon="32.3396196"><ele>386.1</ele><time>2015-04-25T12:27:44.0000000+00:00</time></trkpt><trkpt lat="35.0055737" lon="32.3395809"><ele>385.7</ele><time>2015-04-25T12:27:46.0000000+00:00</time></trkpt><trkpt lat="35.0056108" lon="32.3395334"><ele>386.9</ele><time>2015-04-25T12:27:48.0000000+00:00</time></trkpt><trkpt lat="35.0056486" lon="32.3394847"><ele>385.7</ele><time>2015-04-25T12:27:50.0000000+00:00</time></trkpt><trkpt lat="35.0057189" lon="32.3394493"><ele>386.6</ele><time>2015-04-25T12:27:52.0000000+00:00</time></trkpt><trkpt lat="35.005766" lon="32.3394351"><ele>387.8</ele><time>2015-04-25T12:27:53.0000000+00:00</time></trkpt><trkpt lat="35.0058124" lon="32.3394169"><ele>387.9</ele><time>2015-04-25T12:27:54.0000000+00:00</time></trkpt><trkpt lat="35.0058962" lon="32.3393749"><ele>387.9</ele><time>2015-04-25T12:27:55.0000000+00:00</time></trkpt><trkpt lat="35.00593" lon="32.3393315"><ele>386.9</ele><time>2015-04-25T12:27:56.0000000+00:00</time></trkpt><trkpt lat="35.0059672" lon="32.3392864"><ele>386.4</ele><time>2015-04-25T12:27:57.0000000+00:00</time></trkpt><trkpt lat="35.0059698" lon="32.339224"><ele>385.7</ele><time>2015-04-25T12:27:58.0000000+00:00</time></trkpt><trkpt lat="35.0060036" lon="32.339129"><ele>385.1</ele><time>2015-04-25T12:28:00.0000000+00:00</time></trkpt><trkpt lat="35.0060526" lon="32.3390696"><ele>383.5</ele><time>2015-04-25T12:28:02.0000000+00:00</time></trkpt><trkpt lat="35.0061111" lon="32.3390483"><ele>384.6</ele><time>2015-04-25T12:28:04.0000000+00:00</time></trkpt><trkpt lat="35.0061697" lon="32.339046"><ele>383.6</ele><time>2015-04-25T12:28:06.0000000+00:00</time></trkpt><trkpt lat="35.0062404" lon="32.3390675"><ele>383.8</ele><time>2015-04-25T12:28:08.0000000+00:00</time></trkpt><trkpt lat="35.0063021" lon="32.339091"><ele>383.2</ele><time>2015-04-25T12:28:10.0000000+00:00</time></trkpt><trkpt lat="35.0063599" lon="32.3391134"><ele>382.2</ele><time>2015-04-25T12:28:12.0000000+00:00</time></trkpt><trkpt lat="35.0064192" lon="32.339128"><ele>380.8</ele><time>2015-04-25T12:28:14.0000000+00:00</time></trkpt><trkpt lat="35.0064848" lon="32.339136"><ele>378.9</ele><time>2015-04-25T12:28:16.0000000+00:00</time></trkpt><trkpt lat="35.0065601" lon="32.3391399"><ele>378.2</ele><time>2015-04-25T12:28:18.0000000+00:00</time></trkpt><trkpt lat="35.0066482" lon="32.3391518"><ele>378.0</ele><time>2015-04-25T12:28:20.0000000+00:00</time></trkpt><trkpt lat="35.0067194" lon="32.339179"><ele>378.0</ele><time>2015-04-25T12:28:21.0000000+00:00</time></trkpt><trkpt lat="35.0067736" lon="32.3391958"><ele>377.4</ele><time>2015-04-25T12:28:22.0000000+00:00</time></trkpt><trkpt lat="35.0068315" lon="32.3392166"><ele>377.2</ele><time>2015-04-25T12:28:23.0000000+00:00</time></trkpt><trkpt lat="35.0068978" lon="32.3392441"><ele>377.1</ele><time>2015-04-25T12:28:24.0000000+00:00</time></trkpt><trkpt lat="35.0069633" lon="32.3392665"><ele>377.0</ele><time>2015-04-25T12:28:25.0000000+00:00</time></trkpt><trkpt lat="35.0070339" lon="32.3392917"><ele>376.5</ele><time>2015-04-25T12:28:26.0000000+00:00</time></trkpt><trkpt lat="35.0071115" lon="32.3393247"><ele>376.7</ele><time>2015-04-25T12:28:27.0000000+00:00</time></trkpt><trkpt lat="35.0071846" lon="32.3393623"><ele>376.3</ele><time>2015-04-25T12:28:28.0000000+00:00</time></trkpt><trkpt lat="35.007259" lon="32.339404"><ele>375.6</ele><time>2015-04-25T12:28:29.0000000+00:00</time></trkpt><trkpt lat="35.0073146" lon="32.3394558"><ele>374.3</ele><time>2015-04-25T12:28:30.0000000+00:00</time></trkpt><trkpt lat="35.0073738" lon="32.3394993"><ele>373.6</ele><time>2015-04-25T12:28:31.0000000+00:00</time></trkpt><trkpt lat="35.0074499" lon="32.3395258"><ele>373.3</ele><time>2015-04-25T12:28:32.0000000+00:00</time></trkpt><trkpt lat="35.0075293" lon="32.3395455"><ele>372.1</ele><time>2015-04-25T12:28:33.0000000+00:00</time></trkpt><trkpt lat="35.0075749" lon="32.339515"><ele>371.0</ele><time>2015-04-25T12:28:34.0000000+00:00</time></trkpt><trkpt lat="35.0076114" lon="32.3394675"><ele>370.0</ele><time>2015-04-25T12:28:35.0000000+00:00</time></trkpt><trkpt lat="35.0076635" lon="32.3394133"><ele>370.0</ele><time>2015-04-25T12:28:36.0000000+00:00</time></trkpt><trkpt lat="35.0077021" lon="32.3393587"><ele>369.9</ele><time>2015-04-25T12:28:37.0000000+00:00</time></trkpt><trkpt lat="35.0077496" lon="32.3393064"><ele>370.4</ele><time>2015-04-25T12:28:38.0000000+00:00</time></trkpt><trkpt lat="35.0078028" lon="32.3392648"><ele>370.2</ele><time>2015-04-25T12:28:39.0000000+00:00</time></trkpt><trkpt lat="35.0078602" lon="32.3392295"><ele>370.6</ele><time>2015-04-25T12:28:40.0000000+00:00</time></trkpt><trkpt lat="35.007917" lon="32.3391901"><ele>371.2</ele><time>2015-04-25T12:28:41.0000000+00:00</time></trkpt><trkpt lat="35.0079743" lon="32.3391489"><ele>371.6</ele><time>2015-04-25T12:28:42.0000000+00:00</time></trkpt><trkpt lat="35.0080083" lon="32.3391085"><ele>371.8</ele><time>2015-04-25T12:28:43.0000000+00:00</time></trkpt><trkpt lat="35.0080766" lon="32.3390755"><ele>371.6</ele><time>2015-04-25T12:28:45.0000000+00:00</time></trkpt><trkpt lat="35.0081313" lon="32.339046"><ele>373.1</ele><time>2015-04-25T12:28:47.0000000+00:00</time></trkpt><trkpt lat="35.008195" lon="32.3390179"><ele>374.7</ele><time>2015-04-25T12:28:49.0000000+00:00</time></trkpt><trkpt lat="35.008239" lon="32.3389898"><ele>375.1</ele><time>2015-04-25T12:28:51.0000000+00:00</time></trkpt><trkpt lat="35.008292" lon="32.3389642"><ele>374.7</ele><time>2015-04-25T12:28:53.0000000+00:00</time></trkpt><trkpt lat="35.0083488" lon="32.3389545"><ele>374.9</ele><time>2015-04-25T12:28:55.0000000+00:00</time></trkpt><trkpt lat="35.0084055" lon="32.3389408"><ele>374.9</ele><time>2015-04-25T12:28:57.0000000+00:00</time></trkpt><trkpt lat="35.008471" lon="32.3389252"><ele>374.2</ele><time>2015-04-25T12:28:59.0000000+00:00</time></trkpt><trkpt lat="35.0085382" lon="32.338911"><ele>374.5</ele><time>2015-04-25T12:29:01.0000000+00:00</time></trkpt><trkpt lat="35.0086074" lon="32.338896"><ele>375.3</ele><time>2015-04-25T12:29:03.0000000+00:00</time></trkpt><trkpt lat="35.0086819" lon="32.3388822"><ele>375.0</ele><time>2015-04-25T12:29:05.0000000+00:00</time></trkpt><trkpt lat="35.00876" lon="32.3388757"><ele>375.0</ele><time>2015-04-25T12:29:07.0000000+00:00</time></trkpt><trkpt lat="35.0088401" lon="32.3388736"><ele>374.9</ele><time>2015-04-25T12:29:09.0000000+00:00</time></trkpt><trkpt lat="35.0089097" lon="32.3388668"><ele>376.4</ele><time>2015-04-25T12:29:11.0000000+00:00</time></trkpt><trkpt lat="35.008972" lon="32.3388563"><ele>376.8</ele><time>2015-04-25T12:29:13.0000000+00:00</time></trkpt><trkpt lat="35.0090286" lon="32.3388463"><ele>376.1</ele><time>2015-04-25T12:29:15.0000000+00:00</time></trkpt><trkpt lat="35.0090842" lon="32.3388329"><ele>376.7</ele><time>2015-04-25T12:29:17.0000000+00:00</time></trkpt><trkpt lat="35.009133" lon="32.3388088"><ele>377.6</ele><time>2015-04-25T12:29:19.0000000+00:00</time></trkpt><trkpt lat="35.0091738" lon="32.3387756"><ele>377.4</ele><time>2015-04-25T12:29:21.0000000+00:00</time></trkpt><trkpt lat="35.009206" lon="32.3387366"><ele>377.0</ele><time>2015-04-25T12:29:23.0000000+00:00</time></trkpt><trkpt lat="35.0092346" lon="32.3386886"><ele>377.0</ele><time>2015-04-25T12:29:25.0000000+00:00</time></trkpt><trkpt lat="35.0092607" lon="32.3386416"><ele>376.9</ele><time>2015-04-25T12:29:27.0000000+00:00</time></trkpt><trkpt lat="35.0092899" lon="32.3385694"><ele>376.2</ele><time>2015-04-25T12:29:30.0000000+00:00</time></trkpt><trkpt lat="35.0093134" lon="32.3384968"><ele>376.7</ele><time>2015-04-25T12:29:33.0000000+00:00</time></trkpt><trkpt lat="35.009356" lon="32.3384357"><ele>376.2</ele><time>2015-04-25T12:29:36.0000000+00:00</time></trkpt><trkpt lat="35.009408" lon="32.338411"><ele>377.2</ele><time>2015-04-25T12:29:38.0000000+00:00</time></trkpt><trkpt lat="35.0094684" lon="32.3384057"><ele>378.3</ele><time>2015-04-25T12:29:40.0000000+00:00</time></trkpt><trkpt lat="35.0095237" lon="32.3384239"><ele>379.5</ele><time>2015-04-25T12:29:42.0000000+00:00</time></trkpt><trkpt lat="35.0095729" lon="32.3384578"><ele>380.6</ele><time>2015-04-25T12:29:44.0000000+00:00</time></trkpt><trkpt lat="35.0096175" lon="32.3385077"><ele>381.3</ele><time>2015-04-25T12:29:46.0000000+00:00</time></trkpt><trkpt lat="35.0096617" lon="32.3385665"><ele>381.3</ele><time>2015-04-25T12:29:48.0000000+00:00</time></trkpt><trkpt lat="35.0097051" lon="32.3386393"><ele>381.0</ele><time>2015-04-25T12:29:50.0000000+00:00</time></trkpt><trkpt lat="35.009747" lon="32.3387188"><ele>380.7</ele><time>2015-04-25T12:29:52.0000000+00:00</time></trkpt><trkpt lat="35.0097935" lon="32.3387931"><ele>381.4</ele><time>2015-04-25T12:29:54.0000000+00:00</time></trkpt><trkpt lat="35.0098592" lon="32.3388253"><ele>381.8</ele><time>2015-04-25T12:29:56.0000000+00:00</time></trkpt><trkpt lat="35.0099261" lon="32.3387932"><ele>381.4</ele><time>2015-04-25T12:29:58.0000000+00:00</time></trkpt><trkpt lat="35.0099809" lon="32.3387262"><ele>380.3</ele><time>2015-04-25T12:30:00.0000000+00:00</time></trkpt><trkpt lat="35.010019" lon="32.3386376"><ele>380.0</ele><time>2015-04-25T12:30:02.0000000+00:00</time></trkpt><trkpt lat="35.0100568" lon="32.3385494"><ele>379.2</ele><time>2015-04-25T12:30:04.0000000+00:00</time></trkpt><trkpt lat="35.0101038" lon="32.3384744"><ele>379.0</ele><time>2015-04-25T12:30:06.0000000+00:00</time></trkpt><trkpt lat="35.0101821" lon="32.3384361"><ele>378.2</ele><time>2015-04-25T12:30:08.0000000+00:00</time></trkpt><trkpt lat="35.0102439" lon="32.3384062"><ele>378.0</ele><time>2015-04-25T12:30:10.0000000+00:00</time></trkpt><trkpt lat="35.0102951" lon="32.3383823"><ele>377.9</ele><time>2015-04-25T12:30:13.0000000+00:00</time></trkpt><trkpt lat="35.0103403" lon="32.3383449"><ele>377.9</ele><time>2015-04-25T12:30:16.0000000+00:00</time></trkpt><trkpt lat="35.0103809" lon="32.3383051"><ele>377.9</ele><time>2015-04-25T12:30:18.0000000+00:00</time></trkpt><trkpt lat="35.0104246" lon="32.3382564"><ele>377.9</ele><time>2015-04-25T12:30:20.0000000+00:00</time></trkpt><trkpt lat="35.0104804" lon="32.3381956"><ele>377.9</ele><time>2015-04-25T12:30:22.0000000+00:00</time></trkpt><trkpt lat="35.010545" lon="32.3381322"><ele>379.2</ele><time>2015-04-25T12:30:24.0000000+00:00</time></trkpt><trkpt lat="35.0106087" lon="32.338071"><ele>380.5</ele><time>2015-04-25T12:30:26.0000000+00:00</time></trkpt><trkpt lat="35.0106585" lon="32.338004"><ele>381.3</ele><time>2015-04-25T12:30:28.0000000+00:00</time></trkpt><trkpt lat="35.0106866" lon="32.3379254"><ele>382.5</ele><time>2015-04-25T12:30:30.0000000+00:00</time></trkpt><trkpt lat="35.0106907" lon="32.337839"><ele>382.3</ele><time>2015-04-25T12:30:32.0000000+00:00</time></trkpt><trkpt lat="35.0106756" lon="32.3377514"><ele>381.5</ele><time>2015-04-25T12:30:34.0000000+00:00</time></trkpt><trkpt lat="35.0106508" lon="32.3376648"><ele>380.3</ele><time>2015-04-25T12:30:36.0000000+00:00</time></trkpt><trkpt lat="35.0106224" lon="32.3375763"><ele>379.5</ele><time>2015-04-25T12:30:38.0000000+00:00</time></trkpt><trkpt lat="35.0105777" lon="32.3375188"><ele>378.7</ele><time>2015-04-25T12:30:39.0000000+00:00</time></trkpt><trkpt lat="35.0105502" lon="32.3374716"><ele>378.3</ele><time>2015-04-25T12:30:40.0000000+00:00</time></trkpt><trkpt lat="35.010523" lon="32.3374256"><ele>378.1</ele><time>2015-04-25T12:30:41.0000000+00:00</time></trkpt><trkpt lat="35.010482" lon="32.3373785"><ele>377.0</ele><time>2015-04-25T12:30:42.0000000+00:00</time></trkpt><trkpt lat="35.0104439" lon="32.337338"><ele>376.0</ele><time>2015-04-25T12:30:43.0000000+00:00</time></trkpt><trkpt lat="35.0103987" lon="32.3372854"><ele>376.0</ele><time>2015-04-25T12:30:44.0000000+00:00</time></trkpt><trkpt lat="35.010358" lon="32.3372257"><ele>375.4</ele><time>2015-04-25T12:30:45.0000000+00:00</time></trkpt><trkpt lat="35.0103426" lon="32.3371618"><ele>374.7</ele><time>2015-04-25T12:30:46.0000000+00:00</time></trkpt><trkpt lat="35.0103703" lon="32.3370766"><ele>373.9</ele><time>2015-04-25T12:30:48.0000000+00:00</time></trkpt><trkpt lat="35.0103995" lon="32.3370193"><ele>373.9</ele><time>2015-04-25T12:30:49.0000000+00:00</time></trkpt><trkpt lat="35.010438" lon="32.3369604"><ele>372.9</ele><time>2015-04-25T12:30:50.0000000+00:00</time></trkpt><trkpt lat="35.0104785" lon="32.3369153"><ele>372.9</ele><time>2015-04-25T12:30:51.0000000+00:00</time></trkpt><trkpt lat="35.0105187" lon="32.3368563"><ele>372.9</ele><time>2015-04-25T12:30:52.0000000+00:00</time></trkpt><trkpt lat="35.0105551" lon="32.3367944"><ele>372.9</ele><time>2015-04-25T12:30:53.0000000+00:00</time></trkpt><trkpt lat="35.010605" lon="32.3367396"><ele>372.9</ele><time>2015-04-25T12:30:54.0000000+00:00</time></trkpt><trkpt lat="35.0106513" lon="32.336679"><ele>372.9</ele><time>2015-04-25T12:30:55.0000000+00:00</time></trkpt><trkpt lat="35.0107015" lon="32.3366272"><ele>372.9</ele><time>2015-04-25T12:30:56.0000000+00:00</time></trkpt><trkpt lat="35.010745" lon="32.336573"><ele>372.9</ele><time>2015-04-25T12:30:57.0000000+00:00</time></trkpt><trkpt lat="35.0107893" lon="32.3365192"><ele>372.9</ele><time>2015-04-25T12:30:58.0000000+00:00</time></trkpt><trkpt lat="35.0108424" lon="32.3364664"><ele>372.9</ele><time>2015-04-25T12:30:59.0000000+00:00</time></trkpt><trkpt lat="35.0109063" lon="32.3364241"><ele>372.9</ele><time>2015-04-25T12:31:00.0000000+00:00</time></trkpt><trkpt lat="35.0109645" lon="32.3363778"><ele>373.4</ele><time>2015-04-25T12:31:01.0000000+00:00</time></trkpt><trkpt lat="35.011021" lon="32.3363257"><ele>373.2</ele><time>2015-04-25T12:31:02.0000000+00:00</time></trkpt><trkpt lat="35.0110679" lon="32.3362629"><ele>373.1</ele><time>2015-04-25T12:31:03.0000000+00:00</time></trkpt><trkpt lat="35.0111194" lon="32.3362147"><ele>372.5</ele><time>2015-04-25T12:31:04.0000000+00:00</time></trkpt><trkpt lat="35.0111628" lon="32.3361631"><ele>372.2</ele><time>2015-04-25T12:31:05.0000000+00:00</time></trkpt><trkpt lat="35.0112207" lon="32.3361139"><ele>372.1</ele><time>2015-04-25T12:31:06.0000000+00:00</time></trkpt><trkpt lat="35.0112667" lon="32.3360899"><ele>372.5</ele><time>2015-04-25T12:31:07.0000000+00:00</time></trkpt><trkpt lat="35.0113176" lon="32.3360704"><ele>372.7</ele><time>2015-04-25T12:31:08.0000000+00:00</time></trkpt><trkpt lat="35.011366" lon="32.3360568"><ele>373.3</ele><time>2015-04-25T12:31:09.0000000+00:00</time></trkpt><trkpt lat="35.0114184" lon="32.336058"><ele>374.1</ele><time>2015-04-25T12:31:10.0000000+00:00</time></trkpt><trkpt lat="35.0114993" lon="32.3360581"><ele>373.5</ele><time>2015-04-25T12:31:12.0000000+00:00</time></trkpt><trkpt lat="35.0115813" lon="32.3360509"><ele>373.6</ele><time>2015-04-25T12:31:14.0000000+00:00</time></trkpt><trkpt lat="35.0116552" lon="32.3360394"><ele>374.1</ele><time>2015-04-25T12:31:16.0000000+00:00</time></trkpt><trkpt lat="35.0117225" lon="32.336019"><ele>374.5</ele><time>2015-04-25T12:31:18.0000000+00:00</time></trkpt><trkpt lat="35.0117978" lon="32.335996"><ele>374.8</ele><time>2015-04-25T12:31:20.0000000+00:00</time></trkpt><trkpt lat="35.0118881" lon="32.33595"><ele>373.7</ele><time>2015-04-25T12:31:22.0000000+00:00</time></trkpt><trkpt lat="35.0119337" lon="32.3359248"><ele>373.3</ele><time>2015-04-25T12:31:23.0000000+00:00</time></trkpt><trkpt lat="35.011983" lon="32.3358936"><ele>373.1</ele><time>2015-04-25T12:31:24.0000000+00:00</time></trkpt><trkpt lat="35.0120399" lon="32.3358719"><ele>373.0</ele><time>2015-04-25T12:31:25.0000000+00:00</time></trkpt><trkpt lat="35.0120912" lon="32.3358428"><ele>373.0</ele><time>2015-04-25T12:31:26.0000000+00:00</time></trkpt><trkpt lat="35.012144" lon="32.3358273"><ele>372.5</ele><time>2015-04-25T12:31:27.0000000+00:00</time></trkpt><trkpt lat="35.0121976" lon="32.3358054"><ele>372.2</ele><time>2015-04-25T12:31:28.0000000+00:00</time></trkpt><trkpt lat="35.0122461" lon="32.3357802"><ele>372.6</ele><time>2015-04-25T12:31:29.0000000+00:00</time></trkpt><trkpt lat="35.0122987" lon="32.3357657"><ele>372.7</ele><time>2015-04-25T12:31:30.0000000+00:00</time></trkpt><trkpt lat="35.0123471" lon="32.3357451"><ele>372.3</ele><time>2015-04-25T12:31:31.0000000+00:00</time></trkpt><trkpt lat="35.0123915" lon="32.3357269"><ele>372.1</ele><time>2015-04-25T12:31:32.0000000+00:00</time></trkpt><trkpt lat="35.0124984" lon="32.335694"><ele>371.5</ele><time>2015-04-25T12:31:34.0000000+00:00</time></trkpt><trkpt lat="35.0125455" lon="32.3356785"><ele>371.2</ele><time>2015-04-25T12:31:35.0000000+00:00</time></trkpt><trkpt lat="35.0125895" lon="32.3356637"><ele>370.6</ele><time>2015-04-25T12:31:36.0000000+00:00</time></trkpt><trkpt lat="35.0126408" lon="32.335644"><ele>369.7</ele><time>2015-04-25T12:31:37.0000000+00:00</time></trkpt><trkpt lat="35.0126936" lon="32.3356022"><ele>368.8</ele><time>2015-04-25T12:31:38.0000000+00:00</time></trkpt><trkpt lat="35.0127565" lon="32.3355718"><ele>367.9</ele><time>2015-04-25T12:31:39.0000000+00:00</time></trkpt><trkpt lat="35.012831" lon="32.3355466"><ele>367.4</ele><time>2015-04-25T12:31:40.0000000+00:00</time></trkpt><trkpt lat="35.0128992" lon="32.3355235"><ele>366.7</ele><time>2015-04-25T12:31:41.0000000+00:00</time></trkpt><trkpt lat="35.0129658" lon="32.3355048"><ele>366.3</ele><time>2015-04-25T12:31:42.0000000+00:00</time></trkpt><trkpt lat="35.0130291" lon="32.3354918"><ele>366.1</ele><time>2015-04-25T12:31:43.0000000+00:00</time></trkpt><trkpt lat="35.0130901" lon="32.3354798"><ele>366.0</ele><time>2015-04-25T12:31:44.0000000+00:00</time></trkpt><trkpt lat="35.0131434" lon="32.3354647"><ele>366.5</ele><time>2015-04-25T12:31:45.0000000+00:00</time></trkpt><trkpt lat="35.0132" lon="32.3354486"><ele>366.7</ele><time>2015-04-25T12:31:46.0000000+00:00</time></trkpt><trkpt lat="35.0132501" lon="32.3354341"><ele>366.8</ele><time>2015-04-25T12:31:47.0000000+00:00</time></trkpt><trkpt lat="35.0133065" lon="32.3354165"><ele>366.9</ele><time>2015-04-25T12:31:48.0000000+00:00</time></trkpt><trkpt lat="35.0133534" lon="32.3354055"><ele>366.9</ele><time>2015-04-25T12:31:49.0000000+00:00</time></trkpt><trkpt lat="35.0134472" lon="32.3353605"><ele>367.7</ele><time>2015-04-25T12:31:51.0000000+00:00</time></trkpt><trkpt lat="35.0134924" lon="32.3353412"><ele>367.8</ele><time>2015-04-25T12:31:52.0000000+00:00</time></trkpt><trkpt lat="35.0135513" lon="32.3353231"><ele>367.9</ele><time>2015-04-25T12:31:53.0000000+00:00</time></trkpt><trkpt lat="35.0136066" lon="32.3352929"><ele>367.4</ele><time>2015-04-25T12:31:54.0000000+00:00</time></trkpt><trkpt lat="35.0136502" lon="32.3352623"><ele>366.2</ele><time>2015-04-25T12:31:55.0000000+00:00</time></trkpt><trkpt lat="35.0137186" lon="32.3352212"><ele>365.5</ele><time>2015-04-25T12:31:56.0000000+00:00</time></trkpt><trkpt lat="35.0137951" lon="32.3351876"><ele>364.7</ele><time>2015-04-25T12:31:57.0000000+00:00</time></trkpt><trkpt lat="35.0138637" lon="32.3351527"><ele>364.8</ele><time>2015-04-25T12:31:58.0000000+00:00</time></trkpt><trkpt lat="35.0139338" lon="32.3351278"><ele>364.4</ele><time>2015-04-25T12:31:59.0000000+00:00</time></trkpt><trkpt lat="35.0140107" lon="32.3351035"><ele>364.7</ele><time>2015-04-25T12:32:00.0000000+00:00</time></trkpt><trkpt lat="35.0141026" lon="32.3350789"><ele>364.8</ele><time>2015-04-25T12:32:01.0000000+00:00</time></trkpt><trkpt lat="35.0141658" lon="32.335059"><ele>364.4</ele><time>2015-04-25T12:32:02.0000000+00:00</time></trkpt><trkpt lat="35.0142246" lon="32.3350477"><ele>363.6</ele><time>2015-04-25T12:32:03.0000000+00:00</time></trkpt><trkpt lat="35.0143012" lon="32.335043"><ele>363.3</ele><time>2015-04-25T12:32:04.0000000+00:00</time></trkpt><trkpt lat="35.0143586" lon="32.3350466"><ele>363.1</ele><time>2015-04-25T12:32:05.0000000+00:00</time></trkpt><trkpt lat="35.0144187" lon="32.3350647"><ele>363.0</ele><time>2015-04-25T12:32:06.0000000+00:00</time></trkpt><trkpt lat="35.014488" lon="32.335066"><ele>362.5</ele><time>2015-04-25T12:32:07.0000000+00:00</time></trkpt><trkpt lat="35.0145484" lon="32.3350682"><ele>361.7</ele><time>2015-04-25T12:32:08.0000000+00:00</time></trkpt><trkpt lat="35.0146072" lon="32.3350712"><ele>360.8</ele><time>2015-04-25T12:32:09.0000000+00:00</time></trkpt><trkpt lat="35.0146717" lon="32.3350699"><ele>360.4</ele><time>2015-04-25T12:32:10.0000000+00:00</time></trkpt><trkpt lat="35.0147238" lon="32.3350715"><ele>360.2</ele><time>2015-04-25T12:32:11.0000000+00:00</time></trkpt><trkpt lat="35.0147848" lon="32.3350747"><ele>360.0</ele><time>2015-04-25T12:32:12.0000000+00:00</time></trkpt><trkpt lat="35.0148485" lon="32.3350733"><ele>359.5</ele><time>2015-04-25T12:32:13.0000000+00:00</time></trkpt><trkpt lat="35.0149222" lon="32.3350779"><ele>359.2</ele><time>2015-04-25T12:32:14.0000000+00:00</time></trkpt><trkpt lat="35.0149982" lon="32.3350835"><ele>359.1</ele><time>2015-04-25T12:32:15.0000000+00:00</time></trkpt><trkpt lat="35.0150728" lon="32.3350895"><ele>358.5</ele><time>2015-04-25T12:32:16.0000000+00:00</time></trkpt><trkpt lat="35.01514" lon="32.3350978"><ele>357.7</ele><time>2015-04-25T12:32:17.0000000+00:00</time></trkpt><trkpt lat="35.0152091" lon="32.3351117"><ele>356.8</ele><time>2015-04-25T12:32:18.0000000+00:00</time></trkpt><trkpt lat="35.0152877" lon="32.3351261"><ele>355.9</ele><time>2015-04-25T12:32:19.0000000+00:00</time></trkpt><trkpt lat="35.0153674" lon="32.3351335"><ele>354.9</ele><time>2015-04-25T12:32:20.0000000+00:00</time></trkpt><trkpt lat="35.0154451" lon="32.3351259"><ele>355.9</ele><time>2015-04-25T12:32:21.0000000+00:00</time></trkpt><trkpt lat="35.0155179" lon="32.3351196"><ele>356.4</ele><time>2015-04-25T12:32:22.0000000+00:00</time></trkpt><trkpt lat="35.0155811" lon="32.3351064"><ele>356.2</ele><time>2015-04-25T12:32:23.0000000+00:00</time></trkpt><trkpt lat="35.0156386" lon="32.3350808"><ele>356.1</ele><time>2015-04-25T12:32:24.0000000+00:00</time></trkpt><trkpt lat="35.0157114" lon="32.335057"><ele>355.5</ele><time>2015-04-25T12:32:25.0000000+00:00</time></trkpt><trkpt lat="35.0157663" lon="32.3350137"><ele>354.7</ele><time>2015-04-25T12:32:26.0000000+00:00</time></trkpt><trkpt lat="35.0158175" lon="32.3349613"><ele>354.3</ele><time>2015-04-25T12:32:27.0000000+00:00</time></trkpt><trkpt lat="35.0158808" lon="32.3348959"><ele>353.1</ele><time>2015-04-25T12:32:28.0000000+00:00</time></trkpt><trkpt lat="35.0159347" lon="32.3348278"><ele>352.5</ele><time>2015-04-25T12:32:29.0000000+00:00</time></trkpt><trkpt lat="35.0159732" lon="32.3347654"><ele>351.7</ele><time>2015-04-25T12:32:30.0000000+00:00</time></trkpt><trkpt lat="35.0160048" lon="32.3347041"><ele>351.3</ele><time>2015-04-25T12:32:31.0000000+00:00</time></trkpt><trkpt lat="35.0160417" lon="32.3346401"><ele>351.1</ele><time>2015-04-25T12:32:32.0000000+00:00</time></trkpt><trkpt lat="35.0160815" lon="32.3345663"><ele>350.5</ele><time>2015-04-25T12:32:33.0000000+00:00</time></trkpt><trkpt lat="35.0161394" lon="32.334516"><ele>350.2</ele><time>2015-04-25T12:32:34.0000000+00:00</time></trkpt><trkpt lat="35.0161951" lon="32.334471"><ele>350.1</ele><time>2015-04-25T12:32:35.0000000+00:00</time></trkpt><trkpt lat="35.0162539" lon="32.3344643"><ele>350.0</ele><time>2015-04-25T12:32:36.0000000+00:00</time></trkpt><trkpt lat="35.016297" lon="32.3344342"><ele>349.5</ele><time>2015-04-25T12:32:37.0000000+00:00</time></trkpt><trkpt lat="35.0163567" lon="32.334411"><ele>348.7</ele><time>2015-04-25T12:32:38.0000000+00:00</time></trkpt><trkpt lat="35.0164115" lon="32.3343812"><ele>347.8</ele><time>2015-04-25T12:32:39.0000000+00:00</time></trkpt><trkpt lat="35.0164538" lon="32.3343431"><ele>346.4</ele><time>2015-04-25T12:32:40.0000000+00:00</time></trkpt><trkpt lat="35.016501" lon="32.3343127"><ele>346.2</ele><time>2015-04-25T12:32:41.0000000+00:00</time></trkpt><trkpt lat="35.016565" lon="32.3342674"><ele>346.0</ele><time>2015-04-25T12:32:43.0000000+00:00</time></trkpt><trkpt lat="35.01661" lon="32.334233"><ele>345.9</ele><time>2015-04-25T12:32:45.0000000+00:00</time></trkpt><trkpt lat="35.0166517" lon="32.3341938"><ele>345.8</ele><time>2015-04-25T12:32:48.0000000+00:00</time></trkpt><trkpt lat="35.0167046" lon="32.3341695"><ele>348.0</ele><time>2015-04-25T12:32:51.0000000+00:00</time></trkpt><trkpt lat="35.0167646" lon="32.3341398"><ele>349.6</ele><time>2015-04-25T12:32:54.0000000+00:00</time></trkpt><trkpt lat="35.0168136" lon="32.3341056"><ele>350.4</ele><time>2015-04-25T12:32:57.0000000+00:00</time></trkpt><trkpt lat="35.0168611" lon="32.3340988"><ele>352.2</ele><time>2015-04-25T12:33:00.0000000+00:00</time></trkpt><trkpt lat="35.0169168" lon="32.3340866"><ele>353.8</ele><time>2015-04-25T12:33:04.0000000+00:00</time></trkpt><trkpt lat="35.0169675" lon="32.3340606"><ele>354.7</ele><time>2015-04-25T12:33:09.0000000+00:00</time></trkpt><trkpt lat="35.0170156" lon="32.334043"><ele>354.7</ele><time>2015-04-25T12:33:13.0000000+00:00</time></trkpt><trkpt lat="35.0170685" lon="32.3340403"><ele>355.7</ele><time>2015-04-25T12:33:17.0000000+00:00</time></trkpt><trkpt lat="35.0171142" lon="32.3340271"><ele>355.4</ele><time>2015-04-25T12:33:21.0000000+00:00</time></trkpt><trkpt lat="35.0171591" lon="32.3340123"><ele>355.8</ele><time>2015-04-25T12:33:25.0000000+00:00</time></trkpt><trkpt lat="35.0172087" lon="32.3340006"><ele>357.3</ele><time>2015-04-25T12:33:29.0000000+00:00</time></trkpt><trkpt lat="35.0172532" lon="32.3339776"><ele>358.4</ele><time>2015-04-25T12:33:33.0000000+00:00</time></trkpt><trkpt lat="35.0173013" lon="32.3339538"><ele>359.8</ele><time>2015-04-25T12:33:37.0000000+00:00</time></trkpt><trkpt lat="35.0173456" lon="32.333933"><ele>360.8</ele><time>2015-04-25T12:33:41.0000000+00:00</time></trkpt><trkpt lat="35.0173899" lon="32.3339041"><ele>361.7</ele><time>2015-04-25T12:33:45.0000000+00:00</time></trkpt><trkpt lat="35.017432" lon="32.3338674"><ele>361.9</ele><time>2015-04-25T12:33:49.0000000+00:00</time></trkpt><trkpt lat="35.0174713" lon="32.3338263"><ele>361.9</ele><time>2015-04-25T12:33:52.0000000+00:00</time></trkpt><trkpt lat="35.0175159" lon="32.3337807"><ele>362.1</ele><time>2015-04-25T12:33:55.0000000+00:00</time></trkpt><trkpt lat="35.0175504" lon="32.3337456"><ele>361.9</ele><time>2015-04-25T12:33:59.0000000+00:00</time></trkpt><trkpt lat="35.0175966" lon="32.3337096"><ele>362.9</ele><time>2015-04-25T12:41:23.0000000+00:00</time></trkpt><trkpt lat="35.017642" lon="32.333666"><ele>363.9</ele><time>2015-04-25T12:41:27.0000000+00:00</time></trkpt><trkpt lat="35.0176936" lon="32.3336292"><ele>363.9</ele><time>2015-04-25T12:41:31.0000000+00:00</time></trkpt><trkpt lat="35.0177401" lon="32.3335924"><ele>364.8</ele><time>2015-04-25T12:41:34.0000000+00:00</time></trkpt><trkpt lat="35.0177844" lon="32.3335478"><ele>364.4</ele><time>2015-04-25T12:41:37.0000000+00:00</time></trkpt><trkpt lat="35.0178265" lon="32.3335047"><ele>364.9</ele><time>2015-04-25T12:41:40.0000000+00:00</time></trkpt><trkpt lat="35.0178705" lon="32.3334658"><ele>365.0</ele><time>2015-04-25T12:41:43.0000000+00:00</time></trkpt><trkpt lat="35.0179037" lon="32.3334161"><ele>365.8</ele><time>2015-04-25T12:41:46.0000000+00:00</time></trkpt><trkpt lat="35.0179314" lon="32.3333644"><ele>365.7</ele><time>2015-04-25T12:41:49.0000000+00:00</time></trkpt><trkpt lat="35.0179544" lon="32.3333139"><ele>365.3</ele><time>2015-04-25T12:41:52.0000000+00:00</time></trkpt><trkpt lat="35.0179706" lon="32.3332597"><ele>365.1</ele><time>2015-04-25T12:41:55.0000000+00:00</time></trkpt><trkpt lat="35.0179832" lon="32.3331994"><ele>365.7</ele><time>2015-04-25T12:41:58.0000000+00:00</time></trkpt><trkpt lat="35.0179999" lon="32.3331339"><ele>365.0</ele><time>2015-04-25T12:42:01.0000000+00:00</time></trkpt><trkpt lat="35.0180202" lon="32.3330787"><ele>365.1</ele><time>2015-04-25T12:42:04.0000000+00:00</time></trkpt><trkpt lat="35.0180358" lon="32.3330264"><ele>364.9</ele><time>2015-04-25T12:42:07.0000000+00:00</time></trkpt><trkpt lat="35.0180534" lon="32.3329728"><ele>367.9</ele><time>2015-04-25T12:42:10.0000000+00:00</time></trkpt><trkpt lat="35.01807" lon="32.3329128"><ele>369.7</ele><time>2015-04-25T12:42:13.0000000+00:00</time></trkpt><trkpt lat="35.0180897" lon="32.3328532"><ele>368.4</ele><time>2015-04-25T12:42:16.0000000+00:00</time></trkpt><trkpt lat="35.0181246" lon="32.3327904"><ele>367.6</ele><time>2015-04-25T12:42:19.0000000+00:00</time></trkpt><trkpt lat="35.0181654" lon="32.3327249"><ele>367.1</ele><time>2015-04-25T12:42:21.0000000+00:00</time></trkpt><trkpt lat="35.0181968" lon="32.3326754"><ele>367.0</ele><time>2015-04-25T12:42:22.0000000+00:00</time></trkpt><trkpt lat="35.0182608" lon="32.3325862"><ele>366.5</ele><time>2015-04-25T12:42:23.0000000+00:00</time></trkpt><trkpt lat="35.0183114" lon="32.332528"><ele>365.7</ele><time>2015-04-25T12:42:24.0000000+00:00</time></trkpt><trkpt lat="35.0183648" lon="32.3324578"><ele>364.8</ele><time>2015-04-25T12:42:25.0000000+00:00</time></trkpt><trkpt lat="35.018413" lon="32.3323886"><ele>363.9</ele><time>2015-04-25T12:42:26.0000000+00:00</time></trkpt><trkpt lat="35.0184737" lon="32.3323054"><ele>363.4</ele><time>2015-04-25T12:42:27.0000000+00:00</time></trkpt><trkpt lat="35.0185325" lon="32.3322293"><ele>362.7</ele><time>2015-04-25T12:42:28.0000000+00:00</time></trkpt><trkpt lat="35.01859" lon="32.3321568"><ele>361.8</ele><time>2015-04-25T12:42:29.0000000+00:00</time></trkpt><trkpt lat="35.0186439" lon="32.3320948"><ele>361.4</ele><time>2015-04-25T12:42:30.0000000+00:00</time></trkpt><trkpt lat="35.0186889" lon="32.33204"><ele>361.1</ele><time>2015-04-25T12:42:31.0000000+00:00</time></trkpt><trkpt lat="35.0187337" lon="32.3319945"><ele>361.5</ele><time>2015-04-25T12:42:32.0000000+00:00</time></trkpt><trkpt lat="35.0187647" lon="32.331952"><ele>361.2</ele><time>2015-04-25T12:42:33.0000000+00:00</time></trkpt><trkpt lat="35.0188288" lon="32.3318873"><ele>360.5</ele><time>2015-04-25T12:42:35.0000000+00:00</time></trkpt><trkpt lat="35.0188627" lon="32.3318497"><ele>360.7</ele><time>2015-04-25T12:42:36.0000000+00:00</time></trkpt><trkpt lat="35.0188933" lon="32.3318033"><ele>360.3</ele><time>2015-04-25T12:42:37.0000000+00:00</time></trkpt><trkpt lat="35.0189284" lon="32.331759"><ele>360.1</ele><time>2015-04-25T12:42:38.0000000+00:00</time></trkpt><trkpt lat="35.0189683" lon="32.331698"><ele>360.0</ele><time>2015-04-25T12:42:39.0000000+00:00</time></trkpt><trkpt lat="35.0190117" lon="32.331646"><ele>359.0</ele><time>2015-04-25T12:42:40.0000000+00:00</time></trkpt><trkpt lat="35.0190551" lon="32.3315969"><ele>358.0</ele><time>2015-04-25T12:42:41.0000000+00:00</time></trkpt><trkpt lat="35.0190964" lon="32.3315387"><ele>358.4</ele><time>2015-04-25T12:42:42.0000000+00:00</time></trkpt><trkpt lat="35.0191372" lon="32.3314886"><ele>358.7</ele><time>2015-04-25T12:42:43.0000000+00:00</time></trkpt><trkpt lat="35.0191731" lon="32.3314442"><ele>358.3</ele><time>2015-04-25T12:42:44.0000000+00:00</time></trkpt><trkpt lat="35.0192188" lon="32.3313954"><ele>358.1</ele><time>2015-04-25T12:42:45.0000000+00:00</time></trkpt><trkpt lat="35.0192558" lon="32.3313483"><ele>358.0</ele><time>2015-04-25T12:42:46.0000000+00:00</time></trkpt><trkpt lat="35.0193078" lon="32.3313207"><ele>357.5</ele><time>2015-04-25T12:42:47.0000000+00:00</time></trkpt><trkpt lat="35.0193644" lon="32.3312857"><ele>356.7</ele><time>2015-04-25T12:42:48.0000000+00:00</time></trkpt><trkpt lat="35.0194173" lon="32.3312548"><ele>356.3</ele><time>2015-04-25T12:42:49.0000000+00:00</time></trkpt><trkpt lat="35.0194564" lon="32.331224"><ele>355.6</ele><time>2015-04-25T12:42:50.0000000+00:00</time></trkpt><trkpt lat="35.0195027" lon="32.331191"><ele>355.3</ele><time>2015-04-25T12:42:51.0000000+00:00</time></trkpt><trkpt lat="35.0195526" lon="32.3311541"><ele>355.1</ele><time>2015-04-25T12:42:52.0000000+00:00</time></trkpt><trkpt lat="35.0195936" lon="32.3311184"><ele>355.0</ele><time>2015-04-25T12:42:53.0000000+00:00</time></trkpt><trkpt lat="35.019668" lon="32.3310704"><ele>354.7</ele><time>2015-04-25T12:42:55.0000000+00:00</time></trkpt><trkpt lat="35.0197115" lon="32.331029"><ele>353.4</ele><time>2015-04-25T12:42:57.0000000+00:00</time></trkpt><trkpt lat="35.0197564" lon="32.3309999"><ele>351.8</ele><time>2015-04-25T12:42:59.0000000+00:00</time></trkpt><trkpt lat="35.0198111" lon="32.3309386"><ele>350.4</ele><time>2015-04-25T12:43:01.0000000+00:00</time></trkpt><trkpt lat="35.0198413" lon="32.3308973"><ele>350.7</ele><time>2015-04-25T12:43:02.0000000+00:00</time></trkpt><trkpt lat="35.0198917" lon="32.3308176"><ele>350.4</ele><time>2015-04-25T12:43:04.0000000+00:00</time></trkpt><trkpt lat="35.0199223" lon="32.3306991"><ele>348.5</ele><time>2015-04-25T12:43:06.0000000+00:00</time></trkpt><trkpt lat="35.0199315" lon="32.3306332"><ele>348.2</ele><time>2015-04-25T12:43:07.0000000+00:00</time></trkpt><trkpt lat="35.0199227" lon="32.3305401"><ele>348.1</ele><time>2015-04-25T12:43:08.0000000+00:00</time></trkpt><trkpt lat="35.0199225" lon="32.3304515"><ele>347.5</ele><time>2015-04-25T12:43:09.0000000+00:00</time></trkpt><trkpt lat="35.0199497" lon="32.3303772"><ele>347.2</ele><time>2015-04-25T12:43:10.0000000+00:00</time></trkpt><trkpt lat="35.0199728" lon="32.3303056"><ele>347.1</ele><time>2015-04-25T12:43:11.0000000+00:00</time></trkpt><trkpt lat="35.0200247" lon="32.3302376"><ele>347.0</ele><time>2015-04-25T12:43:12.0000000+00:00</time></trkpt><trkpt lat="35.0200664" lon="32.3302078"><ele>346.5</ele><time>2015-04-25T12:43:13.0000000+00:00</time></trkpt><trkpt lat="35.0201196" lon="32.3301667"><ele>345.7</ele><time>2015-04-25T12:43:14.0000000+00:00</time></trkpt><trkpt lat="35.0201604" lon="32.3301258"><ele>345.3</ele><time>2015-04-25T12:43:15.0000000+00:00</time></trkpt><trkpt lat="35.0202051" lon="32.3300856"><ele>345.1</ele><time>2015-04-25T12:43:16.0000000+00:00</time></trkpt><trkpt lat="35.0202509" lon="32.3300525"><ele>345.0</ele><time>2015-04-25T12:43:17.0000000+00:00</time></trkpt><trkpt lat="35.0202935" lon="32.330007"><ele>345.0</ele><time>2015-04-25T12:43:18.0000000+00:00</time></trkpt><trkpt lat="35.0203735" lon="32.3299275"><ele>343.7</ele><time>2015-04-25T12:43:20.0000000+00:00</time></trkpt><trkpt lat="35.0204099" lon="32.329893"><ele>342.8</ele><time>2015-04-25T12:43:21.0000000+00:00</time></trkpt><trkpt lat="35.0204528" lon="32.3298566"><ele>342.9</ele><time>2015-04-25T12:43:22.0000000+00:00</time></trkpt><trkpt lat="35.0204926" lon="32.3298304"><ele>342.4</ele><time>2015-04-25T12:43:23.0000000+00:00</time></trkpt><trkpt lat="35.0205377" lon="32.3298103"><ele>341.7</ele><time>2015-04-25T12:43:24.0000000+00:00</time></trkpt><trkpt lat="35.020596" lon="32.3297898"><ele>340.8</ele><time>2015-04-25T12:43:25.0000000+00:00</time></trkpt><trkpt lat="35.0206542" lon="32.3297656"><ele>339.9</ele><time>2015-04-25T12:43:26.0000000+00:00</time></trkpt><trkpt lat="35.0207171" lon="32.329743"><ele>339.4</ele><time>2015-04-25T12:43:27.0000000+00:00</time></trkpt><trkpt lat="35.0207875" lon="32.3297058"><ele>339.7</ele><time>2015-04-25T12:43:28.0000000+00:00</time></trkpt><trkpt lat="35.0208566" lon="32.3296759"><ele>339.3</ele><time>2015-04-25T12:43:29.0000000+00:00</time></trkpt><trkpt lat="35.020919" lon="32.3296244"><ele>338.6</ele><time>2015-04-25T12:43:30.0000000+00:00</time></trkpt><trkpt lat="35.0209867" lon="32.329579"><ele>337.8</ele><time>2015-04-25T12:43:31.0000000+00:00</time></trkpt><trkpt lat="35.0210566" lon="32.329524"><ele>336.9</ele><time>2015-04-25T12:43:32.0000000+00:00</time></trkpt><trkpt lat="35.0211252" lon="32.3294778"><ele>335.9</ele><time>2015-04-25T12:43:33.0000000+00:00</time></trkpt><trkpt lat="35.021198" lon="32.3294335"><ele>335.4</ele><time>2015-04-25T12:43:34.0000000+00:00</time></trkpt><trkpt lat="35.0212714" lon="32.3293915"><ele>334.7</ele><time>2015-04-25T12:43:35.0000000+00:00</time></trkpt><trkpt lat="35.0213358" lon="32.3293422"><ele>333.8</ele><time>2015-04-25T12:43:36.0000000+00:00</time></trkpt><trkpt lat="35.0213978" lon="32.3293022"><ele>333.4</ele><time>2015-04-25T12:43:37.0000000+00:00</time></trkpt><trkpt lat="35.0214596" lon="32.3292671"><ele>333.1</ele><time>2015-04-25T12:43:38.0000000+00:00</time></trkpt><trkpt lat="35.0215304" lon="32.3292639"><ele>332.5</ele><time>2015-04-25T12:43:39.0000000+00:00</time></trkpt><trkpt lat="35.0216089" lon="32.3292644"><ele>331.7</ele><time>2015-04-25T12:43:40.0000000+00:00</time></trkpt><trkpt lat="35.021664" lon="32.3292702"><ele>331.8</ele><time>2015-04-25T12:43:41.0000000+00:00</time></trkpt><trkpt lat="35.0217224" lon="32.3292848"><ele>331.4</ele><time>2015-04-25T12:43:42.0000000+00:00</time></trkpt><trkpt lat="35.0218001" lon="32.3292907"><ele>331.2</ele><time>2015-04-25T12:43:43.0000000+00:00</time></trkpt><trkpt lat="35.0218751" lon="32.3293043"><ele>330.5</ele><time>2015-04-25T12:43:44.0000000+00:00</time></trkpt><trkpt lat="35.0219434" lon="32.3292988"><ele>330.2</ele><time>2015-04-25T12:43:45.0000000+00:00</time></trkpt><trkpt lat="35.0220108" lon="32.3292899"><ele>330.1</ele><time>2015-04-25T12:43:46.0000000+00:00</time></trkpt><trkpt lat="35.0220907" lon="32.3292895"><ele>329.0</ele><time>2015-04-25T12:43:47.0000000+00:00</time></trkpt><trkpt lat="35.0221811" lon="32.3292734"><ele>328.5</ele><time>2015-04-25T12:43:48.0000000+00:00</time></trkpt><trkpt lat="35.022266" lon="32.3292483"><ele>327.7</ele><time>2015-04-25T12:43:49.0000000+00:00</time></trkpt><trkpt lat="35.0223562" lon="32.3292144"><ele>327.3</ele><time>2015-04-25T12:43:50.0000000+00:00</time></trkpt><trkpt lat="35.0224368" lon="32.329179"><ele>326.6</ele><time>2015-04-25T12:43:51.0000000+00:00</time></trkpt><trkpt lat="35.0225212" lon="32.3291502"><ele>325.8</ele><time>2015-04-25T12:43:52.0000000+00:00</time></trkpt><trkpt lat="35.0226024" lon="32.3291111"><ele>324.9</ele><time>2015-04-25T12:43:53.0000000+00:00</time></trkpt><trkpt lat="35.0226744" lon="32.3290802"><ele>324.4</ele><time>2015-04-25T12:43:54.0000000+00:00</time></trkpt><trkpt lat="35.0227486" lon="32.3290524"><ele>324.7</ele><time>2015-04-25T12:43:55.0000000+00:00</time></trkpt><trkpt lat="35.0228212" lon="32.3290326"><ele>325.3</ele><time>2015-04-25T12:43:56.0000000+00:00</time></trkpt><trkpt lat="35.0228898" lon="32.3290198"><ele>325.1</ele><time>2015-04-25T12:43:57.0000000+00:00</time></trkpt><trkpt lat="35.0229484" lon="32.3290067"><ele>325.0</ele><time>2015-04-25T12:43:58.0000000+00:00</time></trkpt><trkpt lat="35.0230013" lon="32.3289866"><ele>325.0</ele><time>2015-04-25T12:43:59.0000000+00:00</time></trkpt><trkpt lat="35.0230461" lon="32.328975"><ele>325.5</ele><time>2015-04-25T12:44:00.0000000+00:00</time></trkpt><trkpt lat="35.0230911" lon="32.3289479"><ele>326.7</ele><time>2015-04-25T12:44:01.0000000+00:00</time></trkpt><trkpt lat="35.023139" lon="32.3289307"><ele>328.3</ele><time>2015-04-25T12:44:02.0000000+00:00</time></trkpt><trkpt lat="35.0231896" lon="32.3288827"><ele>328.8</ele><time>2015-04-25T12:44:04.0000000+00:00</time></trkpt><trkpt lat="35.0232313" lon="32.3288409"><ele>330.4</ele><time>2015-04-25T12:44:06.0000000+00:00</time></trkpt><trkpt lat="35.023276" lon="32.3287922"><ele>331.7</ele><time>2015-04-25T12:44:09.0000000+00:00</time></trkpt><trkpt lat="35.0232855" lon="32.3287342"><ele>331.9</ele><time>2015-04-25T12:44:12.0000000+00:00</time></trkpt><trkpt lat="35.0233005" lon="32.3286655"><ele>334.3</ele><time>2015-04-25T12:44:16.0000000+00:00</time></trkpt><trkpt lat="35.0233446" lon="32.3286292"><ele>333.6</ele><time>2015-04-25T12:44:20.0000000+00:00</time></trkpt><trkpt lat="35.0233581" lon="32.3285701"><ele>333.2</ele><time>2015-04-25T12:44:25.0000000+00:00</time></trkpt><trkpt lat="35.023347" lon="32.3285062"><ele>333.8</ele><time>2015-04-25T12:44:29.0000000+00:00</time></trkpt><trkpt lat="35.0233449" lon="32.3284429"><ele>332.7</ele><time>2015-04-25T12:44:33.0000000+00:00</time></trkpt><trkpt lat="35.0233453" lon="32.3283717"><ele>332.0</ele><time>2015-04-25T12:44:37.0000000+00:00</time></trkpt><trkpt lat="35.0233515" lon="32.328316"><ele>332.2</ele><time>2015-04-25T12:44:40.0000000+00:00</time></trkpt><trkpt lat="35.0233677" lon="32.3282578"><ele>334.5</ele><time>2015-04-25T12:44:44.0000000+00:00</time></trkpt><trkpt lat="35.023411" lon="32.3282234"><ele>334.9</ele><time>2015-04-25T12:44:48.0000000+00:00</time></trkpt><trkpt lat="35.0234633" lon="32.3282038"><ele>335.1</ele><time>2015-04-25T12:44:52.0000000+00:00</time></trkpt><trkpt lat="35.02351" lon="32.3281763"><ele>334.4</ele><time>2015-04-25T12:44:56.0000000+00:00</time></trkpt><trkpt lat="35.0235527" lon="32.3281584"><ele>335.6</ele><time>2015-04-25T12:45:00.0000000+00:00</time></trkpt><trkpt lat="35.0236021" lon="32.3281308"><ele>335.9</ele><time>2015-04-25T12:45:04.0000000+00:00</time></trkpt><trkpt lat="35.0236564" lon="32.3281011"><ele>336.0</ele><time>2015-04-25T12:45:08.0000000+00:00</time></trkpt><trkpt lat="35.0236974" lon="32.3280777"><ele>335.1</ele><time>2015-04-25T12:45:11.0000000+00:00</time></trkpt><trkpt lat="35.0237461" lon="32.3280482"><ele>336.8</ele><time>2015-04-25T12:45:15.0000000+00:00</time></trkpt><trkpt lat="35.0237809" lon="32.3280013"><ele>337.9</ele><time>2015-04-25T12:45:19.0000000+00:00</time></trkpt><trkpt lat="35.0238058" lon="32.3279486"><ele>338.7</ele><time>2015-04-25T12:45:23.0000000+00:00</time></trkpt><trkpt lat="35.0238343" lon="32.3278935"><ele>338.4</ele><time>2015-04-25T12:45:27.0000000+00:00</time></trkpt><trkpt lat="35.0238718" lon="32.3278326"><ele>339.3</ele><time>2015-04-25T12:45:31.0000000+00:00</time></trkpt><trkpt lat="35.0238994" lon="32.327781"><ele>341.4</ele><time>2015-04-25T12:45:34.0000000+00:00</time></trkpt><trkpt lat="35.0239252" lon="32.3277147"><ele>342.1</ele><time>2015-04-25T12:45:38.0000000+00:00</time></trkpt><trkpt lat="35.0239614" lon="32.3276582"><ele>341.8</ele><time>2015-04-25T12:45:42.0000000+00:00</time></trkpt><trkpt lat="35.023997" lon="32.327599"><ele>341.9</ele><time>2015-04-25T12:45:46.0000000+00:00</time></trkpt><trkpt lat="35.024039" lon="32.3275638"><ele>342.8</ele><time>2015-04-25T12:45:49.0000000+00:00</time></trkpt><trkpt lat="35.0240943" lon="32.327537"><ele>343.9</ele><time>2015-04-25T12:45:52.0000000+00:00</time></trkpt><trkpt lat="35.0241569" lon="32.327517"><ele>345.9</ele><time>2015-04-25T12:45:55.0000000+00:00</time></trkpt><trkpt lat="35.024223" lon="32.3274964"><ele>346.4</ele><time>2015-04-25T12:45:57.0000000+00:00</time></trkpt><trkpt lat="35.0242833" lon="32.3274782"><ele>346.8</ele><time>2015-04-25T12:45:59.0000000+00:00</time></trkpt><trkpt lat="35.0243364" lon="32.3274621"><ele>346.9</ele><time>2015-04-25T12:46:01.0000000+00:00</time></trkpt><trkpt lat="35.0243992" lon="32.3274511"><ele>346.9</ele><time>2015-04-25T12:46:04.0000000+00:00</time></trkpt><trkpt lat="35.0244486" lon="32.3274465"><ele>346.4</ele><time>2015-04-25T12:46:07.0000000+00:00</time></trkpt><trkpt lat="35.0245011" lon="32.3274561"><ele>346.0</ele><time>2015-04-25T12:46:10.0000000+00:00</time></trkpt><trkpt lat="35.024551" lon="32.3274498"><ele>346.4</ele><time>2015-04-25T12:46:13.0000000+00:00</time></trkpt><trkpt lat="35.0245949" lon="32.3274208"><ele>346.9</ele><time>2015-04-25T12:46:16.0000000+00:00</time></trkpt><trkpt lat="35.024637" lon="32.3273898"><ele>346.4</ele><time>2015-04-25T12:46:19.0000000+00:00</time></trkpt><trkpt lat="35.0246723" lon="32.3273552"><ele>347.4</ele><time>2015-04-25T12:46:22.0000000+00:00</time></trkpt><trkpt lat="35.0247162" lon="32.3273139"><ele>348.5</ele><time>2015-04-25T12:46:26.0000000+00:00</time></trkpt><trkpt lat="35.0247698" lon="32.3272818"><ele>348.4</ele><time>2015-04-25T12:46:30.0000000+00:00</time></trkpt><trkpt lat="35.0248175" lon="32.3272417"><ele>348.0</ele><time>2015-04-25T12:46:34.0000000+00:00</time></trkpt><trkpt lat="35.0248456" lon="32.3271976"><ele>347.1</ele><time>2015-04-25T12:46:37.0000000+00:00</time></trkpt><trkpt lat="35.0248595" lon="32.327132"><ele>349.6</ele><time>2015-04-25T12:46:41.0000000+00:00</time></trkpt><trkpt lat="35.0248532" lon="32.3270732"><ele>349.9</ele><time>2015-04-25T12:46:44.0000000+00:00</time></trkpt><trkpt lat="35.0248367" lon="32.3270015"><ele>349.9</ele><time>2015-04-25T12:46:47.0000000+00:00</time></trkpt><trkpt lat="35.0248288" lon="32.3269436"><ele>348.7</ele><time>2015-04-25T12:46:49.0000000+00:00</time></trkpt><trkpt lat="35.0248347" lon="32.3268796"><ele>347.6</ele><time>2015-04-25T12:46:51.0000000+00:00</time></trkpt><trkpt lat="35.0248676" lon="32.3268224"><ele>346.6</ele><time>2015-04-25T12:46:53.0000000+00:00</time></trkpt><trkpt lat="35.0249264" lon="32.3268008"><ele>345.3</ele><time>2015-04-25T12:46:55.0000000+00:00</time></trkpt><trkpt lat="35.0249873" lon="32.3268061"><ele>344.3</ele><time>2015-04-25T12:46:57.0000000+00:00</time></trkpt><trkpt lat="35.0250458" lon="32.3268337"><ele>344.3</ele><time>2015-04-25T12:46:59.0000000+00:00</time></trkpt><trkpt lat="35.0250959" lon="32.3268687"><ele>344.0</ele><time>2015-04-25T12:47:01.0000000+00:00</time></trkpt><trkpt lat="35.0251469" lon="32.3269018"><ele>344.3</ele><time>2015-04-25T12:47:04.0000000+00:00</time></trkpt><trkpt lat="35.0252002" lon="32.3269295"><ele>344.5</ele><time>2015-04-25T12:47:07.0000000+00:00</time></trkpt><trkpt lat="35.0252477" lon="32.3269548"><ele>344.6</ele><time>2015-04-25T12:47:10.0000000+00:00</time></trkpt><trkpt lat="35.0252956" lon="32.3269667"><ele>344.9</ele><time>2015-04-25T12:47:14.0000000+00:00</time></trkpt><trkpt lat="35.0253492" lon="32.3269804"><ele>346.4</ele><time>2015-04-25T12:49:04.0000000+00:00</time></trkpt><trkpt lat="35.0254079" lon="32.326974"><ele>346.9</ele><time>2015-04-25T12:49:08.0000000+00:00</time></trkpt><trkpt lat="35.0254593" lon="32.3269223"><ele>346.9</ele><time>2015-04-25T12:49:11.0000000+00:00</time></trkpt><trkpt lat="35.0254852" lon="32.3268468"><ele>348.1</ele><time>2015-04-25T12:49:14.0000000+00:00</time></trkpt><trkpt lat="35.0255088" lon="32.3267744"><ele>347.9</ele><time>2015-04-25T12:49:17.0000000+00:00</time></trkpt><trkpt lat="35.0255424" lon="32.3267046"><ele>347.4</ele><time>2015-04-25T12:49:20.0000000+00:00</time></trkpt><trkpt lat="35.0255741" lon="32.326664"><ele>346.6</ele><time>2015-04-25T12:49:22.0000000+00:00</time></trkpt><trkpt lat="35.0256128" lon="32.3266359"><ele>346.1</ele><time>2015-04-25T12:49:24.0000000+00:00</time></trkpt><trkpt lat="35.0256745" lon="32.3266177"><ele>345.1</ele><time>2015-04-25T12:49:27.0000000+00:00</time></trkpt><trkpt lat="35.0257368" lon="32.3266199"><ele>344.9</ele><time>2015-04-25T12:49:30.0000000+00:00</time></trkpt><trkpt lat="35.0258027" lon="32.3266421"><ele>345.4</ele><time>2015-04-25T12:49:33.0000000+00:00</time></trkpt><trkpt lat="35.0258436" lon="32.3266709"><ele>345.1</ele><time>2015-04-25T12:49:35.0000000+00:00</time></trkpt><trkpt lat="35.0258815" lon="32.326704"><ele>345.7</ele><time>2015-04-25T12:49:37.0000000+00:00</time></trkpt><trkpt lat="35.0259209" lon="32.3267365"><ele>345.9</ele><time>2015-04-25T12:49:39.0000000+00:00</time></trkpt><trkpt lat="35.0259588" lon="32.3267734"><ele>345.9</ele><time>2015-04-25T12:49:41.0000000+00:00</time></trkpt><trkpt lat="35.0260159" lon="32.3268142"><ele>347.2</ele><time>2015-04-25T12:49:44.0000000+00:00</time></trkpt><trkpt lat="35.0260778" lon="32.326825"><ele>347.8</ele><time>2015-04-25T12:49:47.0000000+00:00</time></trkpt><trkpt lat="35.0261414" lon="32.3268098"><ele>347.2</ele><time>2015-04-25T12:49:50.0000000+00:00</time></trkpt><trkpt lat="35.0261851" lon="32.3267931"><ele>347.7</ele><time>2015-04-25T12:49:52.0000000+00:00</time></trkpt><trkpt lat="35.0262299" lon="32.3267783"><ele>348.4</ele><time>2015-04-25T12:49:54.0000000+00:00</time></trkpt><trkpt lat="35.0262744" lon="32.3267602"><ele>348.8</ele><time>2015-04-25T12:49:56.0000000+00:00</time></trkpt><trkpt lat="35.0263178" lon="32.326742"><ele>349.6</ele><time>2015-04-25T12:49:58.0000000+00:00</time></trkpt><trkpt lat="35.0263687" lon="32.3267244"><ele>349.5</ele><time>2015-04-25T12:50:02.0000000+00:00</time></trkpt><trkpt lat="35.0264126" lon="32.3266934"><ele>350.7</ele><time>2015-04-25T12:50:06.0000000+00:00</time></trkpt><trkpt lat="35.0264528" lon="32.3266454"><ele>350.9</ele><time>2015-04-25T12:50:10.0000000+00:00</time></trkpt><trkpt lat="35.026482" lon="32.326602"><ele>350.9</ele><time>2015-04-25T12:50:13.0000000+00:00</time></trkpt><trkpt lat="35.0265172" lon="32.3265422"><ele>351.8</ele><time>2015-04-25T12:50:16.0000000+00:00</time></trkpt><trkpt lat="35.0265418" lon="32.326473"><ele>351.9</ele><time>2015-04-25T12:50:19.0000000+00:00</time></trkpt><trkpt lat="35.0265638" lon="32.3264095"><ele>351.9</ele><time>2015-04-25T12:50:21.0000000+00:00</time></trkpt><trkpt lat="35.026586" lon="32.3263401"><ele>351.9</ele><time>2015-04-25T12:50:23.0000000+00:00</time></trkpt><trkpt lat="35.0266057" lon="32.3262715"><ele>352.4</ele><time>2015-04-25T12:50:25.0000000+00:00</time></trkpt><trkpt lat="35.0266227" lon="32.3261968"><ele>352.1</ele><time>2015-04-25T12:50:27.0000000+00:00</time></trkpt><trkpt lat="35.0266457" lon="32.3261096"><ele>352.0</ele><time>2015-04-25T12:50:29.0000000+00:00</time></trkpt><trkpt lat="35.0266754" lon="32.3260342"><ele>351.9</ele><time>2015-04-25T12:50:31.0000000+00:00</time></trkpt><trkpt lat="35.0267092" lon="32.3259845"><ele>351.2</ele><time>2015-04-25T12:50:33.0000000+00:00</time></trkpt><trkpt lat="35.0267542" lon="32.3259528"><ele>351.0</ele><time>2015-04-25T12:50:36.0000000+00:00</time></trkpt><trkpt lat="35.026807" lon="32.325956"><ele>350.9</ele><time>2015-04-25T12:50:40.0000000+00:00</time></trkpt><trkpt lat="35.0268654" lon="32.3259628"><ele>350.9</ele><time>2015-04-25T12:50:44.0000000+00:00</time></trkpt><trkpt lat="35.0269222" lon="32.3259662"><ele>351.8</ele><time>2015-04-25T12:50:47.0000000+00:00</time></trkpt><trkpt lat="35.0269845" lon="32.325972"><ele>351.9</ele><time>2015-04-25T12:50:50.0000000+00:00</time></trkpt><trkpt lat="35.0270448" lon="32.3259742"><ele>352.4</ele><time>2015-04-25T12:50:53.0000000+00:00</time></trkpt><trkpt lat="35.0271" lon="32.3259864"><ele>352.9</ele><time>2015-04-25T12:50:56.0000000+00:00</time></trkpt><trkpt lat="35.0271569" lon="32.326006"><ele>352.9</ele><time>2015-04-25T12:50:59.0000000+00:00</time></trkpt><trkpt lat="35.0272146" lon="32.3260346"><ele>352.9</ele><time>2015-04-25T12:51:02.0000000+00:00</time></trkpt><trkpt lat="35.0272681" lon="32.3260791"><ele>353.2</ele><time>2015-04-25T12:51:05.0000000+00:00</time></trkpt><trkpt lat="35.027306" lon="32.3261192"><ele>352.5</ele><time>2015-04-25T12:51:07.0000000+00:00</time></trkpt><trkpt lat="35.0273402" lon="32.3261608"><ele>352.1</ele><time>2015-04-25T12:51:09.0000000+00:00</time></trkpt><trkpt lat="35.0273847" lon="32.3262174"><ele>351.9</ele><time>2015-04-25T12:51:12.0000000+00:00</time></trkpt><trkpt lat="35.027432" lon="32.3262647"><ele>351.9</ele><time>2015-04-25T12:51:15.0000000+00:00</time></trkpt><trkpt lat="35.0274708" lon="32.3263141"><ele>351.9</ele><time>2015-04-25T12:51:18.0000000+00:00</time></trkpt><trkpt lat="35.0275191" lon="32.3263504"><ele>351.6</ele><time>2015-04-25T12:51:21.0000000+00:00</time></trkpt><trkpt lat="35.0275766" lon="32.3263634"><ele>352.8</ele><time>2015-04-25T12:51:24.0000000+00:00</time></trkpt><trkpt lat="35.027642" lon="32.3263514"><ele>353.7</ele><time>2015-04-25T12:51:27.0000000+00:00</time></trkpt><trkpt lat="35.0276919" lon="32.3263396"><ele>353.9</ele><time>2015-04-25T12:51:29.0000000+00:00</time></trkpt><trkpt lat="35.0277496" lon="32.3263253"><ele>353.4</ele><time>2015-04-25T12:51:31.0000000+00:00</time></trkpt><trkpt lat="35.0278095" lon="32.3263084"><ele>353.3</ele><time>2015-04-25T12:51:33.0000000+00:00</time></trkpt><trkpt lat="35.0278673" lon="32.3262931"><ele>353.8</ele><time>2015-04-25T12:51:35.0000000+00:00</time></trkpt><trkpt lat="35.0279243" lon="32.3262856"><ele>354.6</ele><time>2015-04-25T12:51:37.0000000+00:00</time></trkpt><trkpt lat="35.0279812" lon="32.326283"><ele>355.4</ele><time>2015-04-25T12:51:39.0000000+00:00</time></trkpt><trkpt lat="35.0280363" lon="32.3262866"><ele>356.5</ele><time>2015-04-25T12:51:41.0000000+00:00</time></trkpt><trkpt lat="35.0280873" lon="32.326299"><ele>356.8</ele><time>2015-04-25T12:51:43.0000000+00:00</time></trkpt><trkpt lat="35.0281348" lon="32.3263168"><ele>357.2</ele><time>2015-04-25T12:51:45.0000000+00:00</time></trkpt><trkpt lat="35.0281849" lon="32.3263381"><ele>357.2</ele><time>2015-04-25T12:51:47.0000000+00:00</time></trkpt><trkpt lat="35.0282408" lon="32.3263614"><ele>357.0</ele><time>2015-04-25T12:51:49.0000000+00:00</time></trkpt><trkpt lat="35.0283036" lon="32.3263861"><ele>356.9</ele><time>2015-04-25T12:51:51.0000000+00:00</time></trkpt><trkpt lat="35.028367" lon="32.3263999"><ele>356.9</ele><time>2015-04-25T12:51:53.0000000+00:00</time></trkpt><trkpt lat="35.0284308" lon="32.3264015"><ele>357.7</ele><time>2015-04-25T12:51:55.0000000+00:00</time></trkpt><trkpt lat="35.0284877" lon="32.3263931"><ele>357.9</ele><time>2015-04-25T12:51:57.0000000+00:00</time></trkpt><trkpt lat="35.0285352" lon="32.3263831"><ele>357.9</ele><time>2015-04-25T12:51:59.0000000+00:00</time></trkpt><trkpt lat="35.0285817" lon="32.3263845"><ele>358.7</ele><time>2015-04-25T12:52:01.0000000+00:00</time></trkpt><trkpt lat="35.028642" lon="32.3264044"><ele>358.0</ele><time>2015-04-25T12:52:04.0000000+00:00</time></trkpt><trkpt lat="35.0286942" lon="32.3264248"><ele>357.9</ele><time>2015-04-25T12:52:07.0000000+00:00</time></trkpt><trkpt lat="35.0287466" lon="32.3264624"><ele>358.7</ele><time>2015-04-25T12:52:10.0000000+00:00</time></trkpt><trkpt lat="35.0287826" lon="32.3265054"><ele>358.4</ele><time>2015-04-25T12:52:12.0000000+00:00</time></trkpt><trkpt lat="35.0288113" lon="32.326554"><ele>358.0</ele><time>2015-04-25T12:52:14.0000000+00:00</time></trkpt><trkpt lat="35.0288322" lon="32.3266092"><ele>357.5</ele><time>2015-04-25T12:52:16.0000000+00:00</time></trkpt><trkpt lat="35.0288607" lon="32.3266576"><ele>357.1</ele><time>2015-04-25T12:52:18.0000000+00:00</time></trkpt><trkpt lat="35.0288993" lon="32.326698"><ele>357.0</ele><time>2015-04-25T12:52:20.0000000+00:00</time></trkpt><trkpt lat="35.0289438" lon="32.3267335"><ele>356.9</ele><time>2015-04-25T12:52:22.0000000+00:00</time></trkpt><trkpt lat="35.0289926" lon="32.3267652"><ele>356.9</ele><time>2015-04-25T12:52:24.0000000+00:00</time></trkpt><trkpt lat="35.0290424" lon="32.3267933"><ele>357.7</ele><time>2015-04-25T12:52:26.0000000+00:00</time></trkpt><trkpt lat="35.02909" lon="32.3268194"><ele>357.9</ele><time>2015-04-25T12:52:28.0000000+00:00</time></trkpt><trkpt lat="35.0291382" lon="32.3268456"><ele>357.9</ele><time>2015-04-25T12:52:30.0000000+00:00</time></trkpt><trkpt lat="35.029186" lon="32.3268736"><ele>358.7</ele><time>2015-04-25T12:52:32.0000000+00:00</time></trkpt><trkpt lat="35.0292314" lon="32.3269016"><ele>359.4</ele><time>2015-04-25T12:52:34.0000000+00:00</time></trkpt><trkpt lat="35.0292747" lon="32.3269293"><ele>359.8</ele><time>2015-04-25T12:52:36.0000000+00:00</time></trkpt><trkpt lat="35.0293233" lon="32.3269554"><ele>359.9</ele><time>2015-04-25T12:52:38.0000000+00:00</time></trkpt><trkpt lat="35.0293787" lon="32.3269829"><ele>359.9</ele><time>2015-04-25T12:52:40.0000000+00:00</time></trkpt><trkpt lat="35.0294283" lon="32.3270125"><ele>359.9</ele><time>2015-04-25T12:52:42.0000000+00:00</time></trkpt><trkpt lat="35.0294876" lon="32.3270424"><ele>359.9</ele><time>2015-04-25T12:52:45.0000000+00:00</time></trkpt><trkpt lat="35.0295462" lon="32.3270745"><ele>360.7</ele><time>2015-04-25T12:52:48.0000000+00:00</time></trkpt><trkpt lat="35.0296055" lon="32.3271038"><ele>360.0</ele><time>2015-04-25T12:52:51.0000000+00:00</time></trkpt><trkpt lat="35.0296492" lon="32.3271258"><ele>360.7</ele><time>2015-04-25T12:52:53.0000000+00:00</time></trkpt><trkpt lat="35.0296988" lon="32.3271576"><ele>360.9</ele><time>2015-04-25T12:52:56.0000000+00:00</time></trkpt><trkpt lat="35.0297382" lon="32.3271856"><ele>360.9</ele><time>2015-04-25T12:52:59.0000000+00:00</time></trkpt><trkpt lat="35.0297802" lon="32.3272238"><ele>360.4</ele><time>2015-04-25T12:53:02.0000000+00:00</time></trkpt><trkpt lat="35.0298279" lon="32.3272594"><ele>360.6</ele><time>2015-04-25T12:53:05.0000000+00:00</time></trkpt><trkpt lat="35.0298787" lon="32.3273032"><ele>360.6</ele><time>2015-04-25T12:53:08.0000000+00:00</time></trkpt><trkpt lat="35.0299295" lon="32.3273488"><ele>361.6</ele><time>2015-04-25T12:53:11.0000000+00:00</time></trkpt><trkpt lat="35.0299695" lon="32.327375"><ele>362.6</ele><time>2015-04-25T12:53:13.0000000+00:00</time></trkpt><trkpt lat="35.0300148" lon="32.3274094"><ele>362.8</ele><time>2015-04-25T12:53:15.0000000+00:00</time></trkpt><trkpt lat="35.0300623" lon="32.3274443"><ele>363.4</ele><time>2015-04-25T12:53:17.0000000+00:00</time></trkpt><trkpt lat="35.0301042" lon="32.327472"><ele>363.8</ele><time>2015-04-25T12:53:19.0000000+00:00</time></trkpt><trkpt lat="35.0301624" lon="32.3275124"><ele>364.3</ele><time>2015-04-25T12:53:22.0000000+00:00</time></trkpt><trkpt lat="35.0302249" lon="32.3275454"><ele>364.0</ele><time>2015-04-25T12:53:25.0000000+00:00</time></trkpt><trkpt lat="35.0302832" lon="32.327576"><ele>363.9</ele><time>2015-04-25T12:53:28.0000000+00:00</time></trkpt><trkpt lat="35.0303388" lon="32.3276103"><ele>364.8</ele><time>2015-04-25T12:53:31.0000000+00:00</time></trkpt><trkpt lat="35.0303914" lon="32.3276526"><ele>364.9</ele><time>2015-04-25T12:53:34.0000000+00:00</time></trkpt><trkpt lat="35.0304486" lon="32.3276861"><ele>364.9</ele><time>2015-04-25T12:53:37.0000000+00:00</time></trkpt><trkpt lat="35.0304928" lon="32.3277063"><ele>366.1</ele><time>2015-04-25T12:53:40.0000000+00:00</time></trkpt><trkpt lat="35.0305417" lon="32.3277268"><ele>368.4</ele><time>2015-04-25T12:53:44.0000000+00:00</time></trkpt><trkpt lat="35.0305912" lon="32.3277332"><ele>370.1</ele><time>2015-04-25T12:53:48.0000000+00:00</time></trkpt><trkpt lat="35.0306434" lon="32.327743"><ele>370.1</ele><time>2015-04-25T12:53:52.0000000+00:00</time></trkpt><trkpt lat="35.0306945" lon="32.3277352"><ele>370.2</ele><time>2015-04-25T12:53:55.0000000+00:00</time></trkpt><trkpt lat="35.0307382" lon="32.3277186"><ele>370.0</ele><time>2015-04-25T12:53:57.0000000+00:00</time></trkpt><trkpt lat="35.0307968" lon="32.3276903"><ele>370.4</ele><time>2015-04-25T12:54:00.0000000+00:00</time></trkpt><trkpt lat="35.0308469" lon="32.3276465"><ele>369.2</ele><time>2015-04-25T12:54:03.0000000+00:00</time></trkpt><trkpt lat="35.0309011" lon="32.3276042"><ele>369.8</ele><time>2015-04-25T12:54:06.0000000+00:00</time></trkpt><trkpt lat="35.0309381" lon="32.3275724"><ele>369.9</ele><time>2015-04-25T12:54:08.0000000+00:00</time></trkpt><trkpt lat="35.0309934" lon="32.3275314"><ele>369.1</ele><time>2015-04-25T12:54:11.0000000+00:00</time></trkpt><trkpt lat="35.0310492" lon="32.3274944"><ele>369.6</ele><time>2015-04-25T12:54:14.0000000+00:00</time></trkpt><trkpt lat="35.0311042" lon="32.3274683"><ele>369.4</ele><time>2015-04-25T12:54:17.0000000+00:00</time></trkpt><trkpt lat="35.0311725" lon="32.3274414"><ele>369.0</ele><time>2015-04-25T12:54:20.0000000+00:00</time></trkpt><trkpt lat="35.0312356" lon="32.3274154"><ele>368.9</ele><time>2015-04-25T12:54:22.0000000+00:00</time></trkpt><trkpt lat="35.0313022" lon="32.327386"><ele>368.9</ele><time>2015-04-25T12:54:24.0000000+00:00</time></trkpt><trkpt lat="35.031365" lon="32.3273613"><ele>368.7</ele><time>2015-04-25T12:54:26.0000000+00:00</time></trkpt><trkpt lat="35.0314285" lon="32.3273458"><ele>368.9</ele><time>2015-04-25T12:54:28.0000000+00:00</time></trkpt><trkpt lat="35.0314942" lon="32.3273316"><ele>368.9</ele><time>2015-04-25T12:54:30.0000000+00:00</time></trkpt><trkpt lat="35.0315616" lon="32.3273235"><ele>368.9</ele><time>2015-04-25T12:54:32.0000000+00:00</time></trkpt><trkpt lat="35.0316256" lon="32.3273209"><ele>368.4</ele><time>2015-04-25T12:54:34.0000000+00:00</time></trkpt><trkpt lat="35.0316898" lon="32.327316"><ele>368.3</ele><time>2015-04-25T12:54:36.0000000+00:00</time></trkpt><trkpt lat="35.0317762" lon="32.3273128"><ele>367.5</ele><time>2015-04-25T12:54:38.0000000+00:00</time></trkpt><trkpt lat="35.0318379" lon="32.3273272"><ele>367.2</ele><time>2015-04-25T12:54:39.0000000+00:00</time></trkpt><trkpt lat="35.0318808" lon="32.3273534"><ele>367.1</ele><time>2015-04-25T12:54:40.0000000+00:00</time></trkpt><trkpt lat="35.0319677" lon="32.3273929"><ele>367.0</ele><time>2015-04-25T12:54:42.0000000+00:00</time></trkpt><trkpt lat="35.0320131" lon="32.3273918"><ele>367.4</ele><time>2015-04-25T12:54:43.0000000+00:00</time></trkpt><trkpt lat="35.0320636" lon="32.3273851"><ele>367.2</ele><time>2015-04-25T12:54:44.0000000+00:00</time></trkpt><trkpt lat="35.0321154" lon="32.3273822"><ele>367.1</ele><time>2015-04-25T12:54:45.0000000+00:00</time></trkpt><trkpt lat="35.0322" lon="32.3273847"><ele>367.7</ele><time>2015-04-25T12:54:47.0000000+00:00</time></trkpt><trkpt lat="35.0322648" lon="32.327371"><ele>368.4</ele><time>2015-04-25T12:54:49.0000000+00:00</time></trkpt><trkpt lat="35.0323154" lon="32.3273489"><ele>369.5</ele><time>2015-04-25T12:54:51.0000000+00:00</time></trkpt><trkpt lat="35.0323603" lon="32.327329"><ele>370.6</ele><time>2015-04-25T12:54:53.0000000+00:00</time></trkpt><trkpt lat="35.0324234" lon="32.3273101"><ele>370.6</ele><time>2015-04-25T12:54:56.0000000+00:00</time></trkpt><trkpt lat="35.0324857" lon="32.3272818"><ele>370.9</ele><time>2015-04-25T12:54:59.0000000+00:00</time></trkpt><trkpt lat="35.0325443" lon="32.3272649"><ele>370.9</ele><time>2015-04-25T12:55:01.0000000+00:00</time></trkpt><trkpt lat="35.0326075" lon="32.3272573"><ele>371.4</ele><time>2015-04-25T12:55:03.0000000+00:00</time></trkpt><trkpt lat="35.0326649" lon="32.3272494"><ele>371.3</ele><time>2015-04-25T12:55:05.0000000+00:00</time></trkpt><trkpt lat="35.0327195" lon="32.3272348"><ele>371.8</ele><time>2015-04-25T12:55:07.0000000+00:00</time></trkpt><trkpt lat="35.0327825" lon="32.3272162"><ele>371.9</ele><time>2015-04-25T12:55:09.0000000+00:00</time></trkpt><trkpt lat="35.0328431" lon="32.3272007"><ele>372.4</ele><time>2015-04-25T12:55:11.0000000+00:00</time></trkpt><trkpt lat="35.0329045" lon="32.3271876"><ele>372.3</ele><time>2015-04-25T12:55:13.0000000+00:00</time></trkpt><trkpt lat="35.0329659" lon="32.3271752"><ele>372.0</ele><time>2015-04-25T12:55:15.0000000+00:00</time></trkpt><trkpt lat="35.0330422" lon="32.3271512"><ele>372.0</ele><time>2015-04-25T12:55:17.0000000+00:00</time></trkpt><trkpt lat="35.0331122" lon="32.32713"><ele>372.7</ele><time>2015-04-25T12:55:19.0000000+00:00</time></trkpt><trkpt lat="35.033178" lon="32.3271077"><ele>373.6</ele><time>2015-04-25T12:55:21.0000000+00:00</time></trkpt><trkpt lat="35.0332532" lon="32.3270928"><ele>372.6</ele><time>2015-04-25T12:55:23.0000000+00:00</time></trkpt><trkpt lat="35.0333296" lon="32.3270814"><ele>372.1</ele><time>2015-04-25T12:55:25.0000000+00:00</time></trkpt><trkpt lat="35.0333997" lon="32.3270772"><ele>372.5</ele><time>2015-04-25T12:55:27.0000000+00:00</time></trkpt><trkpt lat="35.0334696" lon="32.3270761"><ele>372.8</ele><time>2015-04-25T12:55:29.0000000+00:00</time></trkpt><trkpt lat="35.033539" lon="32.3270725"><ele>373.7</ele><time>2015-04-25T12:55:31.0000000+00:00</time></trkpt><trkpt lat="35.0336126" lon="32.3270606"><ele>373.9</ele><time>2015-04-25T12:55:33.0000000+00:00</time></trkpt><trkpt lat="35.0336879" lon="32.3270463"><ele>374.9</ele><time>2015-04-25T12:55:35.0000000+00:00</time></trkpt><trkpt lat="35.0337594" lon="32.3270332"><ele>376.4</ele><time>2015-04-25T12:55:37.0000000+00:00</time></trkpt><trkpt lat="35.0338271" lon="32.3270191"><ele>376.8</ele><time>2015-04-25T12:55:39.0000000+00:00</time></trkpt><trkpt lat="35.0338985" lon="32.3269831"><ele>378.1</ele><time>2015-04-25T12:55:41.0000000+00:00</time></trkpt><trkpt lat="35.0339625" lon="32.3269421"><ele>379.0</ele><time>2015-04-25T12:55:43.0000000+00:00</time></trkpt><trkpt lat="35.0340244" lon="32.3269072"><ele>379.9</ele><time>2015-04-25T12:55:45.0000000+00:00</time></trkpt><trkpt lat="35.0340776" lon="32.3268804"><ele>380.9</ele><time>2015-04-25T12:55:47.0000000+00:00</time></trkpt><trkpt lat="35.0341245" lon="32.3268558"><ele>383.7</ele><time>2015-04-25T12:55:49.0000000+00:00</time></trkpt><trkpt lat="35.0341721" lon="32.326838"><ele>386.4</ele><time>2015-04-25T12:55:52.0000000+00:00</time></trkpt><trkpt lat="35.0342231" lon="32.3268414"><ele>377.0</ele><time>2015-04-25T12:56:13.0000000+00:00</time></trkpt><trkpt lat="35.0342716" lon="32.3268325"><ele>377.2</ele><time>2015-04-25T12:56:15.0000000+00:00</time></trkpt><trkpt lat="35.0343205" lon="32.3268264"><ele>377.0</ele><time>2015-04-25T12:56:17.0000000+00:00</time></trkpt><trkpt lat="35.0343692" lon="32.3268285"><ele>377.7</ele><time>2015-04-25T12:56:19.0000000+00:00</time></trkpt><trkpt lat="35.0344206" lon="32.3268357"><ele>377.7</ele><time>2015-04-25T12:56:22.0000000+00:00</time></trkpt><trkpt lat="35.0344745" lon="32.326838"><ele>376.5</ele><time>2015-04-25T12:56:26.0000000+00:00</time></trkpt><trkpt lat="35.0345227" lon="32.3268462"><ele>375.9</ele><time>2015-04-25T12:56:29.0000000+00:00</time></trkpt><trkpt lat="35.0345797" lon="32.3268671"><ele>376.2</ele><time>2015-04-25T12:56:32.0000000+00:00</time></trkpt><trkpt lat="35.0346277" lon="32.3268772"><ele>375.7</ele><time>2015-04-25T12:56:35.0000000+00:00</time></trkpt><trkpt lat="35.0346748" lon="32.3268866"><ele>375.9</ele><time>2015-04-25T12:56:38.0000000+00:00</time></trkpt><trkpt lat="35.0347241" lon="32.3268825"><ele>376.2</ele><time>2015-04-25T12:56:41.0000000+00:00</time></trkpt><trkpt lat="35.0347802" lon="32.3268798"><ele>375.1</ele><time>2015-04-25T12:56:44.0000000+00:00</time></trkpt><trkpt lat="35.0348473" lon="32.3268829"><ele>375.7</ele><time>2015-04-25T12:56:47.0000000+00:00</time></trkpt><trkpt lat="35.034904" lon="32.3268963"><ele>376.3</ele><time>2015-04-25T12:56:50.0000000+00:00</time></trkpt><trkpt lat="35.034968" lon="32.3269053"><ele>376.8</ele><time>2015-04-25T12:56:53.0000000+00:00</time></trkpt><trkpt lat="35.0350168" lon="32.3269082"><ele>376.9</ele><time>2015-04-25T12:56:55.0000000+00:00</time></trkpt><trkpt lat="35.0350795" lon="32.3269085"><ele>377.4</ele><time>2015-04-25T12:56:57.0000000+00:00</time></trkpt><trkpt lat="35.0351478" lon="32.3268982"><ele>377.8</ele><time>2015-04-25T12:56:59.0000000+00:00</time></trkpt><trkpt lat="35.0352134" lon="32.3268796"><ele>378.4</ele><time>2015-04-25T12:57:01.0000000+00:00</time></trkpt><trkpt lat="35.0352801" lon="32.3268616"><ele>378.3</ele><time>2015-04-25T12:57:03.0000000+00:00</time></trkpt><trkpt lat="35.035355" lon="32.326826"><ele>377.5</ele><time>2015-04-25T12:57:05.0000000+00:00</time></trkpt><trkpt lat="35.035414" lon="32.3267708"><ele>376.6</ele><time>2015-04-25T12:57:07.0000000+00:00</time></trkpt><trkpt lat="35.0354528" lon="32.3267164"><ele>376.1</ele><time>2015-04-25T12:57:09.0000000+00:00</time></trkpt><trkpt lat="35.0354906" lon="32.3266704"><ele>376.0</ele><time>2015-04-25T12:57:11.0000000+00:00</time></trkpt><trkpt lat="35.0355274" lon="32.3266338"><ele>375.9</ele><time>2015-04-25T12:57:13.0000000+00:00</time></trkpt><trkpt lat="35.0355721" lon="32.3266056"><ele>376.8</ele><time>2015-04-25T12:57:16.0000000+00:00</time></trkpt><trkpt lat="35.0356253" lon="32.3265805"><ele>377.7</ele><time>2015-04-25T12:57:19.0000000+00:00</time></trkpt><trkpt lat="35.0356818" lon="32.3265511"><ele>378.3</ele><time>2015-04-25T12:57:22.0000000+00:00</time></trkpt><trkpt lat="35.0357258" lon="32.3265229"><ele>379.3</ele><time>2015-04-25T12:57:24.0000000+00:00</time></trkpt><trkpt lat="35.0357759" lon="32.3264897"><ele>379.5</ele><time>2015-04-25T12:57:26.0000000+00:00</time></trkpt><trkpt lat="35.0358241" lon="32.326453"><ele>379.8</ele><time>2015-04-25T12:57:28.0000000+00:00</time></trkpt><trkpt lat="35.0358691" lon="32.3264184"><ele>379.9</ele><time>2015-04-25T12:57:30.0000000+00:00</time></trkpt><trkpt lat="35.0359095" lon="32.3263868"><ele>379.9</ele><time>2015-04-25T12:57:32.0000000+00:00</time></trkpt><trkpt lat="35.0359485" lon="32.3263565"><ele>379.7</ele><time>2015-04-25T12:57:34.0000000+00:00</time></trkpt><trkpt lat="35.035987" lon="32.3263194"><ele>379.4</ele><time>2015-04-25T12:57:36.0000000+00:00</time></trkpt><trkpt lat="35.0360244" lon="32.3262754"><ele>379.8</ele><time>2015-04-25T12:57:38.0000000+00:00</time></trkpt><trkpt lat="35.0360643" lon="32.3262373"><ele>379.6</ele><time>2015-04-25T12:57:40.0000000+00:00</time></trkpt><trkpt lat="35.0361057" lon="32.3262066"><ele>379.9</ele><time>2015-04-25T12:57:42.0000000+00:00</time></trkpt><trkpt lat="35.0361458" lon="32.326171"><ele>379.8</ele><time>2015-04-25T12:57:45.0000000+00:00</time></trkpt><trkpt lat="35.0361899" lon="32.3261376"><ele>379.9</ele><time>2015-04-25T12:57:48.0000000+00:00</time></trkpt><trkpt lat="35.0362351" lon="32.3261089"><ele>381.3</ele><time>2015-04-25T12:57:51.0000000+00:00</time></trkpt><trkpt lat="35.0362868" lon="32.3260907"><ele>381.4</ele><time>2015-04-25T12:57:54.0000000+00:00</time></trkpt><trkpt lat="35.0363583" lon="32.3260734"><ele>380.3</ele><time>2015-04-25T12:57:56.0000000+00:00</time></trkpt><trkpt lat="35.0364067" lon="32.3260607"><ele>379.6</ele><time>2015-04-25T12:57:57.0000000+00:00</time></trkpt><trkpt lat="35.0364883" lon="32.3260211"><ele>377.8</ele><time>2015-04-25T12:57:59.0000000+00:00</time></trkpt><trkpt lat="35.0365501" lon="32.3259576"><ele>376.7</ele><time>2015-04-25T12:58:01.0000000+00:00</time></trkpt><trkpt lat="35.0365769" lon="32.3259126"><ele>376.3</ele><time>2015-04-25T12:58:02.0000000+00:00</time></trkpt><trkpt lat="35.0366244" lon="32.3257879"><ele>375.5</ele><time>2015-04-25T12:58:04.0000000+00:00</time></trkpt><trkpt lat="35.036663" lon="32.325727"><ele>375.2</ele><time>2015-04-25T12:58:05.0000000+00:00</time></trkpt><trkpt lat="35.0367012" lon="32.3256806"><ele>374.6</ele><time>2015-04-25T12:58:06.0000000+00:00</time></trkpt><trkpt lat="35.0367495" lon="32.3256374"><ele>374.3</ele><time>2015-04-25T12:58:07.0000000+00:00</time></trkpt><trkpt lat="35.0367956" lon="32.3255996"><ele>374.1</ele><time>2015-04-25T12:58:08.0000000+00:00</time></trkpt><trkpt lat="35.0368354" lon="32.3255617"><ele>374.0</ele><time>2015-04-25T12:58:09.0000000+00:00</time></trkpt><trkpt lat="35.0368782" lon="32.3255118"><ele>373.5</ele><time>2015-04-25T12:58:10.0000000+00:00</time></trkpt><trkpt lat="35.036905" lon="32.3254615"><ele>373.2</ele><time>2015-04-25T12:58:11.0000000+00:00</time></trkpt><trkpt lat="35.036933" lon="32.3254001"><ele>373.1</ele><time>2015-04-25T12:58:12.0000000+00:00</time></trkpt><trkpt lat="35.036956" lon="32.3253315"><ele>372.5</ele><time>2015-04-25T12:58:13.0000000+00:00</time></trkpt><trkpt lat="35.036972" lon="32.3252607"><ele>372.7</ele><time>2015-04-25T12:58:14.0000000+00:00</time></trkpt><trkpt lat="35.0369764" lon="32.3251892"><ele>372.3</ele><time>2015-04-25T12:58:15.0000000+00:00</time></trkpt><trkpt lat="35.0369742" lon="32.3251156"><ele>372.6</ele><time>2015-04-25T12:58:16.0000000+00:00</time></trkpt><trkpt lat="35.0369615" lon="32.3250401"><ele>372.3</ele><time>2015-04-25T12:58:17.0000000+00:00</time></trkpt><trkpt lat="35.0369546" lon="32.3249533"><ele>372.1</ele><time>2015-04-25T12:58:18.0000000+00:00</time></trkpt><trkpt lat="35.0369634" lon="32.3248674"><ele>372.0</ele><time>2015-04-25T12:58:19.0000000+00:00</time></trkpt><trkpt lat="35.0369715" lon="32.3247791"><ele>371.5</ele><time>2015-04-25T12:58:20.0000000+00:00</time></trkpt><trkpt lat="35.0369862" lon="32.3246854"><ele>371.2</ele><time>2015-04-25T12:58:21.0000000+00:00</time></trkpt><trkpt lat="35.037004" lon="32.3245962"><ele>371.1</ele><time>2015-04-25T12:58:22.0000000+00:00</time></trkpt><trkpt lat="35.0370235" lon="32.3245024"><ele>371.0</ele><time>2015-04-25T12:58:23.0000000+00:00</time></trkpt><trkpt lat="35.0370308" lon="32.3244144"><ele>371.0</ele><time>2015-04-25T12:58:24.0000000+00:00</time></trkpt><trkpt lat="35.0370638" lon="32.3243444"><ele>370.9</ele><time>2015-04-25T12:58:25.0000000+00:00</time></trkpt><trkpt lat="35.0370954" lon="32.3242796"><ele>371.9</ele><time>2015-04-25T12:58:26.0000000+00:00</time></trkpt><trkpt lat="35.0371379" lon="32.3242382"><ele>372.9</ele><time>2015-04-25T12:58:27.0000000+00:00</time></trkpt><trkpt lat="35.0372129" lon="32.3241906"><ele>374.2</ele><time>2015-04-25T12:58:29.0000000+00:00</time></trkpt><trkpt lat="35.0372496" lon="32.3241582"><ele>376.0</ele><time>2015-04-25T12:58:31.0000000+00:00</time></trkpt><trkpt lat="35.0372922" lon="32.3241289"><ele>375.9</ele><time>2015-04-25T12:58:33.0000000+00:00</time></trkpt><trkpt lat="35.0373339" lon="32.3241022"><ele>377.4</ele><time>2015-04-25T12:58:36.0000000+00:00</time></trkpt><trkpt lat="35.037376" lon="32.324081"><ele>378.7</ele><time>2015-04-25T12:58:39.0000000+00:00</time></trkpt><trkpt lat="35.0374323" lon="32.3240784"><ele>379.0</ele><time>2015-04-25T12:58:44.0000000+00:00</time></trkpt><trkpt lat="35.037485" lon="32.3240876"><ele>379.2</ele><time>2015-04-25T12:58:48.0000000+00:00</time></trkpt><trkpt lat="35.0375359" lon="32.3240987"><ele>380.1</ele><time>2015-04-25T12:58:52.0000000+00:00</time></trkpt><trkpt lat="35.0375856" lon="32.3241324"><ele>380.9</ele><time>2015-04-25T12:58:56.0000000+00:00</time></trkpt><trkpt lat="35.0376372" lon="32.3241564"><ele>381.2</ele><time>2015-04-25T12:59:00.0000000+00:00</time></trkpt><trkpt lat="35.0376962" lon="32.3241754"><ele>381.0</ele><time>2015-04-25T12:59:03.0000000+00:00</time></trkpt><trkpt lat="35.0377495" lon="32.3241872"><ele>381.7</ele><time>2015-04-25T12:59:06.0000000+00:00</time></trkpt><trkpt lat="35.0378074" lon="32.3241988"><ele>381.9</ele><time>2015-04-25T12:59:09.0000000+00:00</time></trkpt><trkpt lat="35.0378694" lon="32.3242015"><ele>381.4</ele><time>2015-04-25T12:59:12.0000000+00:00</time></trkpt><trkpt lat="35.0379144" lon="32.3241949"><ele>381.1</ele><time>2015-04-25T12:59:14.0000000+00:00</time></trkpt><trkpt lat="35.0379621" lon="32.3241752"><ele>381.0</ele><time>2015-04-25T12:59:16.0000000+00:00</time></trkpt><trkpt lat="35.038001" lon="32.3241444"><ele>380.2</ele><time>2015-04-25T12:59:18.0000000+00:00</time></trkpt><trkpt lat="35.0380434" lon="32.3240821"><ele>378.3</ele><time>2015-04-25T12:59:21.0000000+00:00</time></trkpt><trkpt lat="35.0380764" lon="32.3240071"><ele>377.3</ele><time>2015-04-25T12:59:23.0000000+00:00</time></trkpt><trkpt lat="35.0380987" lon="32.3239551"><ele>376.6</ele><time>2015-04-25T12:59:24.0000000+00:00</time></trkpt><trkpt lat="35.0381216" lon="32.323898"><ele>376.3</ele><time>2015-04-25T12:59:25.0000000+00:00</time></trkpt><trkpt lat="35.0381429" lon="32.3238268"><ele>375.6</ele><time>2015-04-25T12:59:26.0000000+00:00</time></trkpt><trkpt lat="35.0381682" lon="32.3237594"><ele>374.8</ele><time>2015-04-25T12:59:27.0000000+00:00</time></trkpt><trkpt lat="35.0381912" lon="32.3236955"><ele>374.3</ele><time>2015-04-25T12:59:28.0000000+00:00</time></trkpt><trkpt lat="35.0382185" lon="32.3236352"><ele>373.6</ele><time>2015-04-25T12:59:29.0000000+00:00</time></trkpt><trkpt lat="35.0382563" lon="32.3235755"><ele>373.3</ele><time>2015-04-25T12:59:30.0000000+00:00</time></trkpt><trkpt lat="35.0382923" lon="32.3235284"><ele>373.1</ele><time>2015-04-25T12:59:31.0000000+00:00</time></trkpt><trkpt lat="35.0383449" lon="32.3234912"><ele>372.5</ele><time>2015-04-25T12:59:32.0000000+00:00</time></trkpt><trkpt lat="35.0383923" lon="32.323478"><ele>372.2</ele><time>2015-04-25T12:59:33.0000000+00:00</time></trkpt><trkpt lat="35.0384712" lon="32.3234521"><ele>371.5</ele><time>2015-04-25T12:59:35.0000000+00:00</time></trkpt><trkpt lat="35.0385262" lon="32.3234131"><ele>371.3</ele><time>2015-04-25T12:59:37.0000000+00:00</time></trkpt><trkpt lat="35.0385802" lon="32.3233792"><ele>371.8</ele><time>2015-04-25T12:59:39.0000000+00:00</time></trkpt><trkpt lat="35.0386337" lon="32.3233429"><ele>371.9</ele><time>2015-04-25T12:59:41.0000000+00:00</time></trkpt><trkpt lat="35.0386896" lon="32.3232928"><ele>371.9</ele><time>2015-04-25T12:59:43.0000000+00:00</time></trkpt><trkpt lat="35.0387431" lon="32.3232284"><ele>372.7</ele><time>2015-04-25T12:59:45.0000000+00:00</time></trkpt><trkpt lat="35.038783" lon="32.3231595"><ele>372.9</ele><time>2015-04-25T12:59:47.0000000+00:00</time></trkpt><trkpt lat="35.0388236" lon="32.3230824"><ele>372.9</ele><time>2015-04-25T12:59:49.0000000+00:00</time></trkpt><trkpt lat="35.0388685" lon="32.3230122"><ele>372.4</ele><time>2015-04-25T12:59:51.0000000+00:00</time></trkpt><trkpt lat="35.0389293" lon="32.3229504"><ele>372.1</ele><time>2015-04-25T12:59:53.0000000+00:00</time></trkpt><trkpt lat="35.0390023" lon="32.3229064"><ele>371.5</ele><time>2015-04-25T12:59:55.0000000+00:00</time></trkpt><trkpt lat="35.0390677" lon="32.3229147"><ele>371.2</ele><time>2015-04-25T12:59:56.0000000+00:00</time></trkpt><trkpt lat="35.0391194" lon="32.3229118"><ele>371.6</ele><time>2015-04-25T12:59:57.0000000+00:00</time></trkpt><trkpt lat="35.0391761" lon="32.3228988"><ele>371.7</ele><time>2015-04-25T12:59:58.0000000+00:00</time></trkpt><trkpt lat="35.0392308" lon="32.3228914"><ele>371.8</ele><time>2015-04-25T12:59:59.0000000+00:00</time></trkpt><trkpt lat="35.039316" lon="32.3228809"><ele>372.4</ele><time>2015-04-25T13:00:01.0000000+00:00</time></trkpt><trkpt lat="35.0393696" lon="32.3228584"><ele>374.5</ele><time>2015-04-25T13:00:04.0000000+00:00</time></trkpt><trkpt lat="35.0394246" lon="32.3228708"><ele>380.9</ele><time>2015-04-25T13:01:10.0000000+00:00</time></trkpt><trkpt lat="35.0394712" lon="32.3228742"><ele>380.6</ele><time>2015-04-25T13:01:13.0000000+00:00</time></trkpt><trkpt lat="35.0395196" lon="32.3228842"><ele>382.3</ele><time>2015-04-25T13:01:16.0000000+00:00</time></trkpt><trkpt lat="35.0395762" lon="32.3228892"><ele>383.7</ele><time>2015-04-25T13:01:19.0000000+00:00</time></trkpt><trkpt lat="35.0396302" lon="32.3228975"><ele>383.5</ele><time>2015-04-25T13:01:22.0000000+00:00</time></trkpt><trkpt lat="35.0396902" lon="32.3229216"><ele>383.4</ele><time>2015-04-25T13:01:25.0000000+00:00</time></trkpt><trkpt lat="35.039734" lon="32.3229342"><ele>384.3</ele><time>2015-04-25T13:01:27.0000000+00:00</time></trkpt><trkpt lat="35.0397807" lon="32.3229459"><ele>384.8</ele><time>2015-04-25T13:01:29.0000000+00:00</time></trkpt><trkpt lat="35.0398467" lon="32.3229584"><ele>385.0</ele><time>2015-04-25T13:01:32.0000000+00:00</time></trkpt><trkpt lat="35.0399052" lon="32.3229696"><ele>383.6</ele><time>2015-04-25T13:01:35.0000000+00:00</time></trkpt><trkpt lat="35.0399639" lon="32.3229854"><ele>382.3</ele><time>2015-04-25T13:01:38.0000000+00:00</time></trkpt><trkpt lat="35.040028" lon="32.3230018"><ele>382.0</ele><time>2015-04-25T13:01:41.0000000+00:00</time></trkpt><trkpt lat="35.0400947" lon="32.3229962"><ele>381.1</ele><time>2015-04-25T13:01:44.0000000+00:00</time></trkpt><trkpt lat="35.0401548" lon="32.3229878"><ele>380.2</ele><time>2015-04-25T13:01:46.0000000+00:00</time></trkpt><trkpt lat="35.040283" lon="32.3229522"><ele>380.8</ele><time>2015-04-25T13:01:48.0000000+00:00</time></trkpt><trkpt lat="35.0403337" lon="32.3229393"><ele>381.3</ele><time>2015-04-25T13:01:49.0000000+00:00</time></trkpt><trkpt lat="35.0404214" lon="32.3229214"><ele>382.3</ele><time>2015-04-25T13:01:51.0000000+00:00</time></trkpt><trkpt lat="35.0404898" lon="32.3229139"><ele>383.3</ele><time>2015-04-25T13:01:53.0000000+00:00</time></trkpt><trkpt lat="35.0405456" lon="32.3229015"><ele>383.8</ele><time>2015-04-25T13:01:55.0000000+00:00</time></trkpt><trkpt lat="35.0406102" lon="32.322859"><ele>383.4</ele><time>2015-04-25T13:01:57.0000000+00:00</time></trkpt><trkpt lat="35.0406567" lon="32.3228393"><ele>382.7</ele><time>2015-04-25T13:01:58.0000000+00:00</time></trkpt><trkpt lat="35.0407002" lon="32.3227943"><ele>382.3</ele><time>2015-04-25T13:01:59.0000000+00:00</time></trkpt><trkpt lat="35.0407486" lon="32.3227549"><ele>382.6</ele><time>2015-04-25T13:02:00.0000000+00:00</time></trkpt><trkpt lat="35.0408068" lon="32.3227252"><ele>382.8</ele><time>2015-04-25T13:02:01.0000000+00:00</time></trkpt><trkpt lat="35.0408628" lon="32.3226776"><ele>381.9</ele><time>2015-04-25T13:02:02.0000000+00:00</time></trkpt><trkpt lat="35.0409209" lon="32.3226526"><ele>382.4</ele><time>2015-04-25T13:02:03.0000000+00:00</time></trkpt><trkpt lat="35.0409849" lon="32.3226267"><ele>382.7</ele><time>2015-04-25T13:02:04.0000000+00:00</time></trkpt><trkpt lat="35.0410399" lon="32.3226087"><ele>382.3</ele><time>2015-04-25T13:02:05.0000000+00:00</time></trkpt><trkpt lat="35.0411088" lon="32.3225891"><ele>381.6</ele><time>2015-04-25T13:02:06.0000000+00:00</time></trkpt><trkpt lat="35.0411584" lon="32.3225813"><ele>381.8</ele><time>2015-04-25T13:02:07.0000000+00:00</time></trkpt><trkpt lat="35.0412068" lon="32.3225753"><ele>381.9</ele><time>2015-04-25T13:02:08.0000000+00:00</time></trkpt><trkpt lat="35.0412489" lon="32.3225555"><ele>381.7</ele><time>2015-04-25T13:02:10.0000000+00:00</time></trkpt><trkpt lat="35.0412602" lon="32.3225009"><ele>380.2</ele><time>2015-04-25T13:02:20.0000000+00:00</time></trkpt><trkpt lat="35.0412936" lon="32.3225669"><ele>377.0</ele><time>2015-04-25T13:02:59.0000000+00:00</time></trkpt><trkpt lat="35.0413548" lon="32.322598"><ele>376.7</ele><time>2015-04-25T13:03:01.0000000+00:00</time></trkpt><trkpt lat="35.0414351" lon="32.3226104"><ele>377.6</ele><time>2015-04-25T13:03:03.0000000+00:00</time></trkpt><trkpt lat="35.041504" lon="32.3226252"><ele>378.4</ele><time>2015-04-25T13:03:05.0000000+00:00</time></trkpt><trkpt lat="35.0415605" lon="32.3226434"><ele>378.8</ele><time>2015-04-25T13:03:07.0000000+00:00</time></trkpt><trkpt lat="35.0416199" lon="32.3226577"><ele>379.9</ele><time>2015-04-25T13:03:09.0000000+00:00</time></trkpt><trkpt lat="35.0416812" lon="32.3226687"><ele>380.4</ele><time>2015-04-25T13:03:11.0000000+00:00</time></trkpt><trkpt lat="35.0417771" lon="32.3226776"><ele>380.8</ele><time>2015-04-25T13:03:13.0000000+00:00</time></trkpt><trkpt lat="35.0418291" lon="32.3226816"><ele>380.9</ele><time>2015-04-25T13:03:14.0000000+00:00</time></trkpt><trkpt lat="35.0418832" lon="32.3226851"><ele>379.9</ele><time>2015-04-25T13:03:15.0000000+00:00</time></trkpt><trkpt lat="35.0419416" lon="32.3226933"><ele>379.4</ele><time>2015-04-25T13:03:16.0000000+00:00</time></trkpt><trkpt lat="35.0419965" lon="32.3226974"><ele>379.2</ele><time>2015-04-25T13:03:17.0000000+00:00</time></trkpt><trkpt lat="35.0420868" lon="32.3227163"><ele>379.0</ele><time>2015-04-25T13:03:19.0000000+00:00</time></trkpt><trkpt lat="35.0421348" lon="32.3227357"><ele>378.5</ele><time>2015-04-25T13:03:20.0000000+00:00</time></trkpt><trkpt lat="35.0421868" lon="32.3227499"><ele>378.2</ele><time>2015-04-25T13:03:21.0000000+00:00</time></trkpt><trkpt lat="35.0422349" lon="32.3227691"><ele>377.6</ele><time>2015-04-25T13:03:22.0000000+00:00</time></trkpt><trkpt lat="35.0422838" lon="32.3228023"><ele>376.7</ele><time>2015-04-25T13:03:23.0000000+00:00</time></trkpt><trkpt lat="35.0423264" lon="32.322836"><ele>376.8</ele><time>2015-04-25T13:03:24.0000000+00:00</time></trkpt><trkpt lat="35.0423699" lon="32.322858"><ele>376.4</ele><time>2015-04-25T13:03:25.0000000+00:00</time></trkpt><trkpt lat="35.0424155" lon="32.3228798"><ele>376.2</ele><time>2015-04-25T13:03:26.0000000+00:00</time></trkpt><trkpt lat="35.0424749" lon="32.322948"><ele>375.5</ele><time>2015-04-25T13:03:28.0000000+00:00</time></trkpt><trkpt lat="35.0425359" lon="32.3230037"><ele>375.1</ele><time>2015-04-25T13:03:30.0000000+00:00</time></trkpt><trkpt lat="35.0426226" lon="32.3230375"><ele>375.2</ele><time>2015-04-25T13:03:32.0000000+00:00</time></trkpt><trkpt lat="35.0427047" lon="32.323057"><ele>375.8</ele><time>2015-04-25T13:03:34.0000000+00:00</time></trkpt><trkpt lat="35.0427473" lon="32.323075"><ele>374.8</ele><time>2015-04-25T13:03:35.0000000+00:00</time></trkpt><trkpt lat="35.0428275" lon="32.3231008"><ele>373.9</ele><time>2015-04-25T13:03:37.0000000+00:00</time></trkpt><trkpt lat="35.042896" lon="32.3231358"><ele>372.9</ele><time>2015-04-25T13:03:39.0000000+00:00</time></trkpt><trkpt lat="35.042939" lon="32.3231591"><ele>372.4</ele><time>2015-04-25T13:03:40.0000000+00:00</time></trkpt><trkpt lat="35.0429816" lon="32.3231839"><ele>371.7</ele><time>2015-04-25T13:03:41.0000000+00:00</time></trkpt><trkpt lat="35.0430304" lon="32.3232203"><ele>372.3</ele><time>2015-04-25T13:03:42.0000000+00:00</time></trkpt><trkpt lat="35.0430764" lon="32.3232592"><ele>371.6</ele><time>2015-04-25T13:03:43.0000000+00:00</time></trkpt><trkpt lat="35.0431243" lon="32.3232887"><ele>370.8</ele><time>2015-04-25T13:03:44.0000000+00:00</time></trkpt><trkpt lat="35.0431704" lon="32.3233043"><ele>370.4</ele><time>2015-04-25T13:03:45.0000000+00:00</time></trkpt><trkpt lat="35.0432423" lon="32.3232885"><ele>370.0</ele><time>2015-04-25T13:03:47.0000000+00:00</time></trkpt><trkpt lat="35.0433228" lon="32.3232456"><ele>369.2</ele><time>2015-04-25T13:03:49.0000000+00:00</time></trkpt><trkpt lat="35.0433734" lon="32.3232185"><ele>369.1</ele><time>2015-04-25T13:03:50.0000000+00:00</time></trkpt><trkpt lat="35.0434191" lon="32.3231948"><ele>368.5</ele><time>2015-04-25T13:03:51.0000000+00:00</time></trkpt><trkpt lat="35.043466" lon="32.3231777"><ele>367.7</ele><time>2015-04-25T13:03:52.0000000+00:00</time></trkpt><trkpt lat="35.0435118" lon="32.3231572"><ele>367.3</ele><time>2015-04-25T13:03:53.0000000+00:00</time></trkpt><trkpt lat="35.0435621" lon="32.3231431"><ele>367.1</ele><time>2015-04-25T13:03:54.0000000+00:00</time></trkpt><trkpt lat="35.0436198" lon="32.323118"><ele>367.0</ele><time>2015-04-25T13:03:55.0000000+00:00</time></trkpt><trkpt lat="35.0436769" lon="32.3230919"><ele>367.0</ele><time>2015-04-25T13:03:56.0000000+00:00</time></trkpt><trkpt lat="35.0437261" lon="32.3230623"><ele>367.0</ele><time>2015-04-25T13:03:57.0000000+00:00</time></trkpt><trkpt lat="35.0437898" lon="32.3230127"><ele>367.2</ele><time>2015-04-25T13:03:59.0000000+00:00</time></trkpt><trkpt lat="35.0438482" lon="32.3229732"><ele>366.7</ele><time>2015-04-25T13:04:01.0000000+00:00</time></trkpt><trkpt lat="35.0438992" lon="32.3229763"><ele>366.9</ele><time>2015-04-25T13:04:03.0000000+00:00</time></trkpt><trkpt lat="35.0439601" lon="32.3229904"><ele>366.2</ele><time>2015-04-25T13:04:05.0000000+00:00</time></trkpt><trkpt lat="35.0440292" lon="32.3229743"><ele>367.2</ele><time>2015-04-25T13:04:07.0000000+00:00</time></trkpt><trkpt lat="35.0440993" lon="32.322934"><ele>367.5</ele><time>2015-04-25T13:04:09.0000000+00:00</time></trkpt><trkpt lat="35.0441728" lon="32.322885"><ele>366.3</ele><time>2015-04-25T13:04:11.0000000+00:00</time></trkpt><trkpt lat="35.0442271" lon="32.322861"><ele>366.1</ele><time>2015-04-25T13:04:12.0000000+00:00</time></trkpt><trkpt lat="35.0442768" lon="32.3228352"><ele>366.0</ele><time>2015-04-25T13:04:13.0000000+00:00</time></trkpt><trkpt lat="35.0443733" lon="32.3228049"><ele>363.0</ele><time>2015-04-25T13:04:15.0000000+00:00</time></trkpt><trkpt lat="35.0444265" lon="32.3227868"><ele>362.4</ele><time>2015-04-25T13:04:16.0000000+00:00</time></trkpt><trkpt lat="35.0444728" lon="32.3227798"><ele>362.7</ele><time>2015-04-25T13:04:17.0000000+00:00</time></trkpt><trkpt lat="35.0445296" lon="32.3227783"><ele>362.8</ele><time>2015-04-25T13:04:18.0000000+00:00</time></trkpt><trkpt lat="35.0446138" lon="32.3227845"><ele>362.9</ele><time>2015-04-25T13:04:20.0000000+00:00</time></trkpt><trkpt lat="35.0446861" lon="32.3228056"><ele>362.9</ele><time>2015-04-25T13:04:22.0000000+00:00</time></trkpt><trkpt lat="35.0447665" lon="32.3228469"><ele>362.7</ele><time>2015-04-25T13:04:24.0000000+00:00</time></trkpt><trkpt lat="35.044817" lon="32.3228703"><ele>362.1</ele><time>2015-04-25T13:04:26.0000000+00:00</time></trkpt><trkpt lat="35.0448699" lon="32.322888"><ele>363.5</ele><time>2015-04-25T13:04:28.0000000+00:00</time></trkpt><trkpt lat="35.0449261" lon="32.322897"><ele>362.3</ele><time>2015-04-25T13:04:30.0000000+00:00</time></trkpt><trkpt lat="35.0449899" lon="32.3228964"><ele>361.3</ele><time>2015-04-25T13:04:32.0000000+00:00</time></trkpt><trkpt lat="35.0450501" lon="32.3228844"><ele>360.5</ele><time>2015-04-25T13:04:34.0000000+00:00</time></trkpt><trkpt lat="35.0451103" lon="32.3228673"><ele>361.6</ele><time>2015-04-25T13:04:36.0000000+00:00</time></trkpt><trkpt lat="35.0451671" lon="32.322864"><ele>362.8</ele><time>2015-04-25T13:04:38.0000000+00:00</time></trkpt><trkpt lat="35.045218" lon="32.3228738"><ele>362.9</ele><time>2015-04-25T13:04:40.0000000+00:00</time></trkpt><trkpt lat="35.0452626" lon="32.3228897"><ele>363.4</ele><time>2015-04-25T13:04:42.0000000+00:00</time></trkpt><trkpt lat="35.0453012" lon="32.3229293"><ele>363.3</ele><time>2015-04-25T13:04:44.0000000+00:00</time></trkpt><trkpt lat="35.0453316" lon="32.3229922"><ele>362.0</ele><time>2015-04-25T13:04:46.0000000+00:00</time></trkpt><trkpt lat="35.0453594" lon="32.3230659"><ele>361.2</ele><time>2015-04-25T13:04:48.0000000+00:00</time></trkpt><trkpt lat="35.0453887" lon="32.3231461"><ele>361.2</ele><time>2015-04-25T13:04:50.0000000+00:00</time></trkpt><trkpt lat="35.0454262" lon="32.3232276"><ele>361.5</ele><time>2015-04-25T13:04:52.0000000+00:00</time></trkpt><trkpt lat="35.0454703" lon="32.3233049"><ele>362.8</ele><time>2015-04-25T13:04:54.0000000+00:00</time></trkpt><trkpt lat="35.0455223" lon="32.3233816"><ele>363.7</ele><time>2015-04-25T13:04:56.0000000+00:00</time></trkpt><trkpt lat="35.0455732" lon="32.3234585"><ele>363.8</ele><time>2015-04-25T13:04:57.0000000+00:00</time></trkpt><trkpt lat="35.0456117" lon="32.3234952"><ele>363.9</ele><time>2015-04-25T13:04:58.0000000+00:00</time></trkpt><trkpt lat="35.0456763" lon="32.32355"><ele>364.2</ele><time>2015-04-25T13:05:00.0000000+00:00</time></trkpt><trkpt lat="35.0457239" lon="32.3235816"><ele>364.0</ele><time>2015-04-25T13:05:02.0000000+00:00</time></trkpt><trkpt lat="35.0457827" lon="32.3236137"><ele>364.4</ele><time>2015-04-25T13:05:04.0000000+00:00</time></trkpt><trkpt lat="35.0458372" lon="32.3236312"><ele>365.6</ele><time>2015-04-25T13:05:06.0000000+00:00</time></trkpt><trkpt lat="35.0458938" lon="32.3236571"><ele>364.6</ele><time>2015-04-25T13:05:08.0000000+00:00</time></trkpt><trkpt lat="35.0459577" lon="32.3236697"><ele>363.8</ele><time>2015-04-25T13:05:10.0000000+00:00</time></trkpt><trkpt lat="35.0460182" lon="32.3236652"><ele>361.9</ele><time>2015-04-25T13:05:12.0000000+00:00</time></trkpt><trkpt lat="35.0460725" lon="32.3236399"><ele>361.2</ele><time>2015-04-25T13:05:14.0000000+00:00</time></trkpt><trkpt lat="35.0461611" lon="32.323541"><ele>358.5</ele><time>2015-04-25T13:05:16.0000000+00:00</time></trkpt><trkpt lat="35.0462042" lon="32.3234891"><ele>357.2</ele><time>2015-04-25T13:05:17.0000000+00:00</time></trkpt><trkpt lat="35.0462405" lon="32.3234485"><ele>355.6</ele><time>2015-04-25T13:05:18.0000000+00:00</time></trkpt><trkpt lat="35.0462757" lon="32.3234128"><ele>354.3</ele><time>2015-04-25T13:05:19.0000000+00:00</time></trkpt><trkpt lat="35.0463259" lon="32.3233607"><ele>353.1</ele><time>2015-04-25T13:05:20.0000000+00:00</time></trkpt><trkpt lat="35.0463733" lon="32.3233139"><ele>352.5</ele><time>2015-04-25T13:05:21.0000000+00:00</time></trkpt><trkpt lat="35.0464407" lon="32.3232654"><ele>352.2</ele><time>2015-04-25T13:05:22.0000000+00:00</time></trkpt><trkpt lat="35.0465078" lon="32.3232222"><ele>351.1</ele><time>2015-04-25T13:05:23.0000000+00:00</time></trkpt><trkpt lat="35.0465784" lon="32.3231834"><ele>351.0</ele><time>2015-04-25T13:05:24.0000000+00:00</time></trkpt><trkpt lat="35.0466572" lon="32.3231686"><ele>351.0</ele><time>2015-04-25T13:05:25.0000000+00:00</time></trkpt><trkpt lat="35.0467442" lon="32.3231374"><ele>349.9</ele><time>2015-04-25T13:05:26.0000000+00:00</time></trkpt><trkpt lat="35.0468154" lon="32.3231084"><ele>349.9</ele><time>2015-04-25T13:05:27.0000000+00:00</time></trkpt><trkpt lat="35.0468847" lon="32.3230742"><ele>349.4</ele><time>2015-04-25T13:05:28.0000000+00:00</time></trkpt><trkpt lat="35.046962" lon="32.3230294"><ele>348.7</ele><time>2015-04-25T13:05:29.0000000+00:00</time></trkpt><trkpt lat="35.0470238" lon="32.3229796"><ele>348.3</ele><time>2015-04-25T13:05:30.0000000+00:00</time></trkpt><trkpt lat="35.047089" lon="32.3229323"><ele>347.6</ele><time>2015-04-25T13:05:31.0000000+00:00</time></trkpt><trkpt lat="35.0471689" lon="32.3228619"><ele>346.8</ele><time>2015-04-25T13:05:32.0000000+00:00</time></trkpt><trkpt lat="35.0472418" lon="32.3228032"><ele>346.4</ele><time>2015-04-25T13:05:33.0000000+00:00</time></trkpt><trkpt lat="35.047313" lon="32.3227613"><ele>345.6</ele><time>2015-04-25T13:05:34.0000000+00:00</time></trkpt><trkpt lat="35.0474025" lon="32.3227411"><ele>345.3</ele><time>2015-04-25T13:05:35.0000000+00:00</time></trkpt><trkpt lat="35.047487" lon="32.3227404"><ele>344.6</ele><time>2015-04-25T13:05:36.0000000+00:00</time></trkpt><trkpt lat="35.0475734" lon="32.3227438"><ele>343.8</ele><time>2015-04-25T13:05:37.0000000+00:00</time></trkpt><trkpt lat="35.0476512" lon="32.3227356"><ele>343.8</ele><time>2015-04-25T13:05:38.0000000+00:00</time></trkpt><trkpt lat="35.0477179" lon="32.322728"><ele>344.4</ele><time>2015-04-25T13:05:39.0000000+00:00</time></trkpt><trkpt lat="35.0477796" lon="32.3227104"><ele>345.2</ele><time>2015-04-25T13:05:40.0000000+00:00</time></trkpt><trkpt lat="35.0478276" lon="32.3226944"><ele>345.5</ele><time>2015-04-25T13:05:41.0000000+00:00</time></trkpt><trkpt lat="35.0479067" lon="32.322649"><ele>345.3</ele><time>2015-04-25T13:05:43.0000000+00:00</time></trkpt><trkpt lat="35.0479879" lon="32.3226196"><ele>345.0</ele><time>2015-04-25T13:05:45.0000000+00:00</time></trkpt><trkpt lat="35.0480474" lon="32.3225876"><ele>345.7</ele><time>2015-04-25T13:05:47.0000000+00:00</time></trkpt><trkpt lat="35.0481144" lon="32.3225767"><ele>345.4</ele><time>2015-04-25T13:05:49.0000000+00:00</time></trkpt><trkpt lat="35.0481651" lon="32.3225643"><ele>345.5</ele><time>2015-04-25T13:05:51.0000000+00:00</time></trkpt><trkpt lat="35.0482336" lon="32.3225696"><ele>345.8</ele><time>2015-04-25T13:05:54.0000000+00:00</time></trkpt><trkpt lat="35.0482851" lon="32.3225913"><ele>345.9</ele><time>2015-04-25T13:05:56.0000000+00:00</time></trkpt><trkpt lat="35.0483322" lon="32.3226205"><ele>346.4</ele><time>2015-04-25T13:05:58.0000000+00:00</time></trkpt><trkpt lat="35.0483797" lon="32.3226593"><ele>347.3</ele><time>2015-04-25T13:06:00.0000000+00:00</time></trkpt><trkpt lat="35.0484168" lon="32.3227013"><ele>348.5</ele><time>2015-04-25T13:06:02.0000000+00:00</time></trkpt><trkpt lat="35.0484462" lon="32.3227575"><ele>348.0</ele><time>2015-04-25T13:06:05.0000000+00:00</time></trkpt><trkpt lat="35.0484669" lon="32.32282"><ele>348.4</ele><time>2015-04-25T13:06:10.0000000+00:00</time></trkpt><trkpt lat="35.0485031" lon="32.322867"><ele>349.5</ele><time>2015-04-25T13:06:14.0000000+00:00</time></trkpt><trkpt lat="35.0485196" lon="32.3229222"><ele>351.0</ele><time>2015-04-25T13:06:18.0000000+00:00</time></trkpt><trkpt lat="35.0485545" lon="32.3229685"><ele>350.9</ele><time>2015-04-25T13:06:23.0000000+00:00</time></trkpt><trkpt lat="35.0485832" lon="32.3230281"><ele>351.4</ele><time>2015-04-25T13:06:28.0000000+00:00</time></trkpt><trkpt lat="35.048616" lon="32.3230746"><ele>352.8</ele><time>2015-04-25T13:06:32.0000000+00:00</time></trkpt><trkpt lat="35.0486462" lon="32.3231236"><ele>350.6</ele><time>2015-04-25T13:06:36.0000000+00:00</time></trkpt><trkpt lat="35.0486824" lon="32.3231727"><ele>348.9</ele><time>2015-04-25T13:06:40.0000000+00:00</time></trkpt><trkpt lat="35.0487213" lon="32.3232211"><ele>348.9</ele><time>2015-04-25T13:06:44.0000000+00:00</time></trkpt><trkpt lat="35.0487652" lon="32.3232598"><ele>348.2</ele><time>2015-04-25T13:06:48.0000000+00:00</time></trkpt><trkpt lat="35.048805" lon="32.323308"><ele>347.9</ele><time>2015-04-25T13:06:52.0000000+00:00</time></trkpt><trkpt lat="35.0488444" lon="32.3233351"><ele>348.7</ele><time>2015-04-25T13:06:55.0000000+00:00</time></trkpt><trkpt lat="35.0488844" lon="32.3233603"><ele>349.6</ele><time>2015-04-25T13:06:58.0000000+00:00</time></trkpt><trkpt lat="35.0489301" lon="32.3233907"><ele>349.9</ele><time>2015-04-25T13:07:02.0000000+00:00</time></trkpt><trkpt lat="35.0489782" lon="32.3234268"><ele>350.9</ele><time>2015-04-25T13:07:06.0000000+00:00</time></trkpt><trkpt lat="35.0490197" lon="32.3234519"><ele>350.9</ele><time>2015-04-25T13:07:09.0000000+00:00</time></trkpt><trkpt lat="35.049065" lon="32.3234684"><ele>351.8</ele><time>2015-04-25T13:07:12.0000000+00:00</time></trkpt><trkpt lat="35.049108" lon="32.3234911"><ele>352.7</ele><time>2015-04-25T13:07:15.0000000+00:00</time></trkpt><trkpt lat="35.0491636" lon="32.3235153"><ele>353.9</ele><time>2015-04-25T13:07:19.0000000+00:00</time></trkpt><trkpt lat="35.0492135" lon="32.3235331"><ele>354.2</ele><time>2015-04-25T13:07:23.0000000+00:00</time></trkpt><trkpt lat="35.0492654" lon="32.3235487"><ele>354.9</ele><time>2015-04-25T13:07:27.0000000+00:00</time></trkpt><trkpt lat="35.0493113" lon="32.3235423"><ele>354.9</ele><time>2015-04-25T13:07:32.0000000+00:00</time></trkpt><trkpt lat="35.0493592" lon="32.3235414"><ele>356.3</ele><time>2015-04-25T13:07:37.0000000+00:00</time></trkpt><trkpt lat="35.0494129" lon="32.323537"><ele>357.7</ele><time>2015-04-25T13:07:42.0000000+00:00</time></trkpt><trkpt lat="35.0494584" lon="32.3235393"><ele>359.3</ele><time>2015-04-25T13:07:46.0000000+00:00</time></trkpt><trkpt lat="35.0495138" lon="32.3235318"><ele>361.6</ele><time>2015-04-25T13:07:51.0000000+00:00</time></trkpt><trkpt lat="35.0495646" lon="32.3235221"><ele>360.5</ele><time>2015-04-25T13:07:55.0000000+00:00</time></trkpt><trkpt lat="35.0496094" lon="32.3235073"><ele>360.8</ele><time>2015-04-25T13:07:59.0000000+00:00</time></trkpt><trkpt lat="35.0496584" lon="32.323483"><ele>364.4</ele><time>2015-04-25T13:08:03.0000000+00:00</time></trkpt><trkpt lat="35.0497095" lon="32.3234687"><ele>367.3</ele><time>2015-04-25T13:08:07.0000000+00:00</time></trkpt><trkpt lat="35.0497496" lon="32.3234408"><ele>367.8</ele><time>2015-04-25T13:08:11.0000000+00:00</time></trkpt><trkpt lat="35.0497942" lon="32.3233949"><ele>366.4</ele><time>2015-04-25T13:08:20.0000000+00:00</time></trkpt><trkpt lat="35.0498298" lon="32.3233531"><ele>365.9</ele><time>2015-04-25T13:08:23.0000000+00:00</time></trkpt><trkpt lat="35.0498638" lon="32.3233062"><ele>366.8</ele><time>2015-04-25T13:08:26.0000000+00:00</time></trkpt><trkpt lat="35.0498953" lon="32.3232651"><ele>369.4</ele><time>2015-04-25T13:08:29.0000000+00:00</time></trkpt><trkpt lat="35.0499293" lon="32.323214"><ele>369.6</ele><time>2015-04-25T13:08:32.0000000+00:00</time></trkpt><trkpt lat="35.049967" lon="32.3231592"><ele>368.6</ele><time>2015-04-25T13:08:35.0000000+00:00</time></trkpt><trkpt lat="35.0499969" lon="32.3231169"><ele>368.1</ele><time>2015-04-25T13:08:37.0000000+00:00</time></trkpt><trkpt lat="35.0500269" lon="32.3230702"><ele>368.0</ele><time>2015-04-25T13:08:39.0000000+00:00</time></trkpt><trkpt lat="35.0500564" lon="32.3230199"><ele>368.2</ele><time>2015-04-25T13:08:41.0000000+00:00</time></trkpt><trkpt lat="35.0500884" lon="32.3229689"><ele>368.5</ele><time>2015-04-25T13:08:43.0000000+00:00</time></trkpt><trkpt lat="35.0501246" lon="32.3229078"><ele>369.3</ele><time>2015-04-25T13:08:45.0000000+00:00</time></trkpt><trkpt lat="35.0501584" lon="32.3228585"><ele>372.0</ele><time>2015-04-25T13:08:47.0000000+00:00</time></trkpt><trkpt lat="35.0502029" lon="32.3228036"><ele>372.8</ele><time>2015-04-25T13:08:50.0000000+00:00</time></trkpt><trkpt lat="35.0502486" lon="32.3227493"><ele>371.5</ele><time>2015-04-25T13:08:53.0000000+00:00</time></trkpt><trkpt lat="35.0502939" lon="32.3227005"><ele>371.3</ele><time>2015-04-25T13:08:55.0000000+00:00</time></trkpt><trkpt lat="35.0503367" lon="32.3226575"><ele>371.0</ele><time>2015-04-25T13:08:57.0000000+00:00</time></trkpt><trkpt lat="35.0503918" lon="32.3226164"><ele>371.7</ele><time>2015-04-25T13:09:00.0000000+00:00</time></trkpt><trkpt lat="35.0504428" lon="32.3225688"><ele>373.2</ele><time>2015-04-25T13:09:03.0000000+00:00</time></trkpt><trkpt lat="35.0504896" lon="32.3225108"><ele>374.2</ele><time>2015-04-25T13:09:06.0000000+00:00</time></trkpt><trkpt lat="35.050529" lon="32.3224504"><ele>371.8</ele><time>2015-04-25T13:09:09.0000000+00:00</time></trkpt><trkpt lat="35.0505567" lon="32.3223926"><ele>372.7</ele><time>2015-04-25T13:09:12.0000000+00:00</time></trkpt><trkpt lat="35.0505774" lon="32.3223431"><ele>373.0</ele><time>2015-04-25T13:09:15.0000000+00:00</time></trkpt><trkpt lat="35.0506175" lon="32.3222961"><ele>373.8</ele><time>2015-04-25T13:09:19.0000000+00:00</time></trkpt><trkpt lat="35.0506611" lon="32.3222468"><ele>372.5</ele><time>2015-04-25T13:09:23.0000000+00:00</time></trkpt><trkpt lat="35.0507002" lon="32.3221855"><ele>371.9</ele><time>2015-04-25T13:09:26.0000000+00:00</time></trkpt><trkpt lat="35.0507392" lon="32.3221323"><ele>372.2</ele><time>2015-04-25T13:09:28.0000000+00:00</time></trkpt><trkpt lat="35.0507839" lon="32.322074"><ele>372.0</ele><time>2015-04-25T13:09:30.0000000+00:00</time></trkpt><trkpt lat="35.0508375" lon="32.3220174"><ele>371.9</ele><time>2015-04-25T13:09:32.0000000+00:00</time></trkpt><trkpt lat="35.0508917" lon="32.3219587"><ele>370.7</ele><time>2015-04-25T13:09:34.0000000+00:00</time></trkpt><trkpt lat="35.050946" lon="32.3219014"><ele>371.1</ele><time>2015-04-25T13:09:36.0000000+00:00</time></trkpt><trkpt lat="35.0510042" lon="32.32185"><ele>372.2</ele><time>2015-04-25T13:09:38.0000000+00:00</time></trkpt><trkpt lat="35.0510647" lon="32.3217967"><ele>372.8</ele><time>2015-04-25T13:09:40.0000000+00:00</time></trkpt><trkpt lat="35.0511289" lon="32.3217434"><ele>372.1</ele><time>2015-04-25T13:09:42.0000000+00:00</time></trkpt><trkpt lat="35.0511933" lon="32.3216935"><ele>372.5</ele><time>2015-04-25T13:09:44.0000000+00:00</time></trkpt><trkpt lat="35.0512564" lon="32.3216463"><ele>372.8</ele><time>2015-04-25T13:09:46.0000000+00:00</time></trkpt><trkpt lat="35.051319" lon="32.3215939"><ele>373.4</ele><time>2015-04-25T13:09:48.0000000+00:00</time></trkpt><trkpt lat="35.0513833" lon="32.3215535"><ele>372.8</ele><time>2015-04-25T13:09:50.0000000+00:00</time></trkpt><trkpt lat="35.0514458" lon="32.3214975"><ele>371.6</ele><time>2015-04-25T13:09:52.0000000+00:00</time></trkpt><trkpt lat="35.0514953" lon="32.3214217"><ele>370.3</ele><time>2015-04-25T13:09:53.0000000+00:00</time></trkpt><trkpt lat="35.0515336" lon="32.32136"><ele>369.6</ele><time>2015-04-25T13:09:54.0000000+00:00</time></trkpt><trkpt lat="35.0515737" lon="32.3213064"><ele>369.3</ele><time>2015-04-25T13:09:55.0000000+00:00</time></trkpt><trkpt lat="35.0516266" lon="32.3212504"><ele>369.6</ele><time>2015-04-25T13:09:56.0000000+00:00</time></trkpt><trkpt lat="35.0516789" lon="32.3212071"><ele>369.8</ele><time>2015-04-25T13:09:57.0000000+00:00</time></trkpt><trkpt lat="35.0517435" lon="32.3211673"><ele>370.3</ele><time>2015-04-25T13:09:58.0000000+00:00</time></trkpt><trkpt lat="35.0518093" lon="32.3211384"><ele>371.1</ele><time>2015-04-25T13:09:59.0000000+00:00</time></trkpt><trkpt lat="35.0518762" lon="32.3211267"><ele>371.0</ele><time>2015-04-25T13:10:00.0000000+00:00</time></trkpt><trkpt lat="35.0519467" lon="32.3211339"><ele>370.0</ele><time>2015-04-25T13:10:01.0000000+00:00</time></trkpt><trkpt lat="35.0520086" lon="32.321149"><ele>368.5</ele><time>2015-04-25T13:10:02.0000000+00:00</time></trkpt><trkpt lat="35.0520559" lon="32.3211597"><ele>368.2</ele><time>2015-04-25T13:10:03.0000000+00:00</time></trkpt><trkpt lat="35.0521278" lon="32.3211895"><ele>368.0</ele><time>2015-04-25T13:10:05.0000000+00:00</time></trkpt><trkpt lat="35.0521881" lon="32.3212035"><ele>368.4</ele><time>2015-04-25T13:10:07.0000000+00:00</time></trkpt><trkpt lat="35.0522538" lon="32.3212204"><ele>368.8</ele><time>2015-04-25T13:10:09.0000000+00:00</time></trkpt><trkpt lat="35.0523058" lon="32.3212249"><ele>368.9</ele><time>2015-04-25T13:10:11.0000000+00:00</time></trkpt><trkpt lat="35.0523622" lon="32.32122"><ele>370.2</ele><time>2015-04-25T13:10:14.0000000+00:00</time></trkpt><trkpt lat="35.0524173" lon="32.3212058"><ele>370.7</ele><time>2015-04-25T13:10:17.0000000+00:00</time></trkpt><trkpt lat="35.0524675" lon="32.3211879"><ele>370.1</ele><time>2015-04-25T13:10:19.0000000+00:00</time></trkpt><trkpt lat="35.0525154" lon="32.3211553"><ele>369.5</ele><time>2015-04-25T13:10:21.0000000+00:00</time></trkpt><trkpt lat="35.05256" lon="32.3211213"><ele>369.3</ele><time>2015-04-25T13:10:23.0000000+00:00</time></trkpt><trkpt lat="35.052599" lon="32.3210898"><ele>368.5</ele><time>2015-04-25T13:10:25.0000000+00:00</time></trkpt><trkpt lat="35.0526472" lon="32.3210431"><ele>366.6</ele><time>2015-04-25T13:10:28.0000000+00:00</time></trkpt><trkpt lat="35.0526918" lon="32.3210006"><ele>366.0</ele><time>2015-04-25T13:10:31.0000000+00:00</time></trkpt><trkpt lat="35.0527258" lon="32.3209564"><ele>364.3</ele><time>2015-04-25T13:10:34.0000000+00:00</time></trkpt><trkpt lat="35.0527633" lon="32.3208883"><ele>363.1</ele><time>2015-04-25T13:10:37.0000000+00:00</time></trkpt><trkpt lat="35.0527911" lon="32.3208291"><ele>363.0</ele><time>2015-04-25T13:10:39.0000000+00:00</time></trkpt><trkpt lat="35.0528275" lon="32.3207427"><ele>362.7</ele><time>2015-04-25T13:10:41.0000000+00:00</time></trkpt><trkpt lat="35.0528552" lon="32.3206973"><ele>362.3</ele><time>2015-04-25T13:10:42.0000000+00:00</time></trkpt><trkpt lat="35.0528891" lon="32.3206592"><ele>362.1</ele><time>2015-04-25T13:10:43.0000000+00:00</time></trkpt><trkpt lat="35.0529278" lon="32.3206296"><ele>361.0</ele><time>2015-04-25T13:10:44.0000000+00:00</time></trkpt><trkpt lat="35.0530033" lon="32.3205822"><ele>360.2</ele><time>2015-04-25T13:10:46.0000000+00:00</time></trkpt><trkpt lat="35.0530435" lon="32.3205075"><ele>360.6</ele><time>2015-04-25T13:10:47.0000000+00:00</time></trkpt><trkpt lat="35.0530844" lon="32.3204383"><ele>360.7</ele><time>2015-04-25T13:10:48.0000000+00:00</time></trkpt><trkpt lat="35.053118" lon="32.3203682"><ele>360.3</ele><time>2015-04-25T13:10:49.0000000+00:00</time></trkpt><trkpt lat="35.053154" lon="32.3202926"><ele>360.1</ele><time>2015-04-25T13:10:50.0000000+00:00</time></trkpt><trkpt lat="35.0532004" lon="32.3202225"><ele>360.0</ele><time>2015-04-25T13:10:51.0000000+00:00</time></trkpt><trkpt lat="35.0532445" lon="32.320164"><ele>359.5</ele><time>2015-04-25T13:10:52.0000000+00:00</time></trkpt><trkpt lat="35.0532957" lon="32.3201092"><ele>359.2</ele><time>2015-04-25T13:10:53.0000000+00:00</time></trkpt><trkpt lat="35.0533563" lon="32.3200742"><ele>358.6</ele><time>2015-04-25T13:10:54.0000000+00:00</time></trkpt><trkpt lat="35.0534213" lon="32.3200481"><ele>357.7</ele><time>2015-04-25T13:10:55.0000000+00:00</time></trkpt><trkpt lat="35.0534921" lon="32.3200357"><ele>356.8</ele><time>2015-04-25T13:10:56.0000000+00:00</time></trkpt><trkpt lat="35.0535575" lon="32.3200279"><ele>355.9</ele><time>2015-04-25T13:10:57.0000000+00:00</time></trkpt><trkpt lat="35.0536157" lon="32.3200363"><ele>355.4</ele><time>2015-04-25T13:10:58.0000000+00:00</time></trkpt><trkpt lat="35.0536812" lon="32.320049"><ele>355.2</ele><time>2015-04-25T13:10:59.0000000+00:00</time></trkpt><trkpt lat="35.0537413" lon="32.3200568"><ele>354.5</ele><time>2015-04-25T13:11:00.0000000+00:00</time></trkpt><trkpt lat="35.0537916" lon="32.32006"><ele>354.7</ele><time>2015-04-25T13:11:01.0000000+00:00</time></trkpt><trkpt lat="35.053845" lon="32.3200453"><ele>353.8</ele><time>2015-04-25T13:11:02.0000000+00:00</time></trkpt><trkpt lat="35.0539086" lon="32.3200291"><ele>353.4</ele><time>2015-04-25T13:11:03.0000000+00:00</time></trkpt><trkpt lat="35.0539714" lon="32.320005"><ele>353.2</ele><time>2015-04-25T13:11:04.0000000+00:00</time></trkpt><trkpt lat="35.05403" lon="32.3199868"><ele>352.5</ele><time>2015-04-25T13:11:05.0000000+00:00</time></trkpt><trkpt lat="35.054087" lon="32.3199685"><ele>352.2</ele><time>2015-04-25T13:11:06.0000000+00:00</time></trkpt><trkpt lat="35.0541478" lon="32.3199512"><ele>352.1</ele><time>2015-04-25T13:11:07.0000000+00:00</time></trkpt><trkpt lat="35.0541982" lon="32.3199441"><ele>351.5</ele><time>2015-04-25T13:11:08.0000000+00:00</time></trkpt><trkpt lat="35.0542615" lon="32.3199413"><ele>352.3</ele><time>2015-04-25T13:11:10.0000000+00:00</time></trkpt><trkpt lat="35.0543224" lon="32.3199322"><ele>352.5</ele><time>2015-04-25T13:11:12.0000000+00:00</time></trkpt><trkpt lat="35.0543773" lon="32.3199332"><ele>352.3</ele><time>2015-04-25T13:11:14.0000000+00:00</time></trkpt><trkpt lat="35.0544348" lon="32.3199566"><ele>352.5</ele><time>2015-04-25T13:11:16.0000000+00:00</time></trkpt><trkpt lat="35.0544839" lon="32.3199836"><ele>352.8</ele><time>2015-04-25T13:11:18.0000000+00:00</time></trkpt><trkpt lat="35.0545345" lon="32.3200111"><ele>352.9</ele><time>2015-04-25T13:11:20.0000000+00:00</time></trkpt><trkpt lat="35.0545984" lon="32.3200342"><ele>352.9</ele><time>2015-04-25T13:11:22.0000000+00:00</time></trkpt><trkpt lat="35.0546918" lon="32.3200818"><ele>353.2</ele><time>2015-04-25T13:11:24.0000000+00:00</time></trkpt><trkpt lat="35.0547615" lon="32.3201332"><ele>353.0</ele><time>2015-04-25T13:11:26.0000000+00:00</time></trkpt><trkpt lat="35.0548416" lon="32.3201594"><ele>353.4</ele><time>2015-04-25T13:11:28.0000000+00:00</time></trkpt><trkpt lat="35.0549361" lon="32.3201969"><ele>352.8</ele><time>2015-04-25T13:11:30.0000000+00:00</time></trkpt><trkpt lat="35.0549805" lon="32.3202078"><ele>352.9</ele><time>2015-04-25T13:11:31.0000000+00:00</time></trkpt><trkpt lat="35.0550325" lon="32.3202019"><ele>352.4</ele><time>2015-04-25T13:11:32.0000000+00:00</time></trkpt><trkpt lat="35.0550886" lon="32.3201931"><ele>352.2</ele><time>2015-04-25T13:11:33.0000000+00:00</time></trkpt><trkpt lat="35.0551379" lon="32.3201898"><ele>352.0</ele><time>2015-04-25T13:11:34.0000000+00:00</time></trkpt><trkpt lat="35.055188" lon="32.3201752"><ele>352.0</ele><time>2015-04-25T13:11:35.0000000+00:00</time></trkpt><trkpt lat="35.0552474" lon="32.3201307"><ele>350.7</ele><time>2015-04-25T13:11:37.0000000+00:00</time></trkpt><trkpt lat="35.0552539" lon="32.3200539"><ele>349.4</ele><time>2015-04-25T13:11:39.0000000+00:00</time></trkpt><trkpt lat="35.0552262" lon="32.3199769"><ele>349.8</ele><time>2015-04-25T13:11:41.0000000+00:00</time></trkpt><trkpt lat="35.0551724" lon="32.3199126"><ele>349.1</ele><time>2015-04-25T13:11:43.0000000+00:00</time></trkpt><trkpt lat="35.0551226" lon="32.3198393"><ele>347.7</ele><time>2015-04-25T13:11:45.0000000+00:00</time></trkpt><trkpt lat="35.0550949" lon="32.3197934"><ele>346.8</ele><time>2015-04-25T13:11:46.0000000+00:00</time></trkpt><trkpt lat="35.055071" lon="32.3197466"><ele>346.4</ele><time>2015-04-25T13:11:47.0000000+00:00</time></trkpt><trkpt lat="35.0550508" lon="32.3196775"><ele>346.2</ele><time>2015-04-25T13:11:48.0000000+00:00</time></trkpt><trkpt lat="35.0550263" lon="32.3196224"><ele>345.5</ele><time>2015-04-25T13:11:49.0000000+00:00</time></trkpt><trkpt lat="35.0549982" lon="32.3195737"><ele>345.2</ele><time>2015-04-25T13:11:50.0000000+00:00</time></trkpt><trkpt lat="35.0549714" lon="32.3195242"><ele>345.1</ele><time>2015-04-25T13:11:51.0000000+00:00</time></trkpt><trkpt lat="35.0549496" lon="32.3194754"><ele>344.5</ele><time>2015-04-25T13:11:52.0000000+00:00</time></trkpt><trkpt lat="35.0549275" lon="32.3193687"><ele>343.6</ele><time>2015-04-25T13:11:54.0000000+00:00</time></trkpt><trkpt lat="35.0549166" lon="32.319303"><ele>343.3</ele><time>2015-04-25T13:11:55.0000000+00:00</time></trkpt><trkpt lat="35.0549253" lon="32.3192394"><ele>342.1</ele><time>2015-04-25T13:11:56.0000000+00:00</time></trkpt><trkpt lat="35.0549447" lon="32.3191616"><ele>342.0</ele><time>2015-04-25T13:11:57.0000000+00:00</time></trkpt><trkpt lat="35.0549609" lon="32.3190908"><ele>341.5</ele><time>2015-04-25T13:11:58.0000000+00:00</time></trkpt><trkpt lat="35.0549889" lon="32.3190092"><ele>340.7</ele><time>2015-04-25T13:11:59.0000000+00:00</time></trkpt><trkpt lat="35.0550218" lon="32.3189258"><ele>340.3</ele><time>2015-04-25T13:12:00.0000000+00:00</time></trkpt><trkpt lat="35.0550692" lon="32.3188361"><ele>339.6</ele><time>2015-04-25T13:12:01.0000000+00:00</time></trkpt><trkpt lat="35.0551279" lon="32.3187486"><ele>338.8</ele><time>2015-04-25T13:12:02.0000000+00:00</time></trkpt><trkpt lat="35.0551871" lon="32.3186667"><ele>338.4</ele><time>2015-04-25T13:12:03.0000000+00:00</time></trkpt><trkpt lat="35.0552447" lon="32.3185747"><ele>337.6</ele><time>2015-04-25T13:12:04.0000000+00:00</time></trkpt><trkpt lat="35.0553044" lon="32.3184751"><ele>337.3</ele><time>2015-04-25T13:12:05.0000000+00:00</time></trkpt><trkpt lat="35.0553611" lon="32.3183794"><ele>336.1</ele><time>2015-04-25T13:12:06.0000000+00:00</time></trkpt><trkpt lat="35.0554237" lon="32.318287"><ele>335.5</ele><time>2015-04-25T13:12:07.0000000+00:00</time></trkpt><trkpt lat="35.0554955" lon="32.3181878"><ele>335.2</ele><time>2015-04-25T13:12:08.0000000+00:00</time></trkpt><trkpt lat="35.0555518" lon="32.318105"><ele>335.1</ele><time>2015-04-25T13:12:09.0000000+00:00</time></trkpt><trkpt lat="35.0556058" lon="32.3180501"><ele>334.5</ele><time>2015-04-25T13:12:10.0000000+00:00</time></trkpt><trkpt lat="35.0556785" lon="32.3179971"><ele>334.2</ele><time>2015-04-25T13:12:11.0000000+00:00</time></trkpt><trkpt lat="35.0557598" lon="32.3179494"><ele>333.6</ele><time>2015-04-25T13:12:12.0000000+00:00</time></trkpt><trkpt lat="35.0558416" lon="32.3179005"><ele>333.3</ele><time>2015-04-25T13:12:13.0000000+00:00</time></trkpt><trkpt lat="35.0559196" lon="32.3178607"><ele>332.6</ele><time>2015-04-25T13:12:14.0000000+00:00</time></trkpt><trkpt lat="35.0559988" lon="32.3178183"><ele>331.8</ele><time>2015-04-25T13:12:15.0000000+00:00</time></trkpt><trkpt lat="35.0560809" lon="32.3177751"><ele>330.8</ele><time>2015-04-25T13:12:16.0000000+00:00</time></trkpt><trkpt lat="35.0561565" lon="32.3177388"><ele>329.9</ele><time>2015-04-25T13:12:17.0000000+00:00</time></trkpt><trkpt lat="35.0562419" lon="32.317705"><ele>329.4</ele><time>2015-04-25T13:12:18.0000000+00:00</time></trkpt><trkpt lat="35.0563297" lon="32.3176719"><ele>328.7</ele><time>2015-04-25T13:12:19.0000000+00:00</time></trkpt><trkpt lat="35.0564216" lon="32.317639"><ele>327.8</ele><time>2015-04-25T13:12:20.0000000+00:00</time></trkpt><trkpt lat="35.0564998" lon="32.3175897"><ele>327.9</ele><time>2015-04-25T13:12:21.0000000+00:00</time></trkpt><trkpt lat="35.0565716" lon="32.3175307"><ele>326.9</ele><time>2015-04-25T13:12:22.0000000+00:00</time></trkpt><trkpt lat="35.0566409" lon="32.3174734"><ele>326.4</ele><time>2015-04-25T13:12:23.0000000+00:00</time></trkpt><trkpt lat="35.0566959" lon="32.3174133"><ele>325.7</ele><time>2015-04-25T13:12:24.0000000+00:00</time></trkpt><trkpt lat="35.0567527" lon="32.3173542"><ele>324.8</ele><time>2015-04-25T13:12:25.0000000+00:00</time></trkpt><trkpt lat="35.0568067" lon="32.3172741"><ele>323.9</ele><time>2015-04-25T13:12:26.0000000+00:00</time></trkpt><trkpt lat="35.0568549" lon="32.3171982"><ele>323.4</ele><time>2015-04-25T13:12:27.0000000+00:00</time></trkpt><trkpt lat="35.0568969" lon="32.3171201"><ele>322.7</ele><time>2015-04-25T13:12:28.0000000+00:00</time></trkpt><trkpt lat="35.0569439" lon="32.3170367"><ele>322.3</ele><time>2015-04-25T13:12:29.0000000+00:00</time></trkpt><trkpt lat="35.0569939" lon="32.3169508"><ele>321.6</ele><time>2015-04-25T13:12:30.0000000+00:00</time></trkpt><trkpt lat="35.0570299" lon="32.3168796"><ele>321.3</ele><time>2015-04-25T13:12:31.0000000+00:00</time></trkpt><trkpt lat="35.0570797" lon="32.3168071"><ele>321.1</ele><time>2015-04-25T13:12:32.0000000+00:00</time></trkpt><trkpt lat="35.0571387" lon="32.3167291"><ele>321.0</ele><time>2015-04-25T13:12:33.0000000+00:00</time></trkpt><trkpt lat="35.0571912" lon="32.3166638"><ele>320.5</ele><time>2015-04-25T13:12:34.0000000+00:00</time></trkpt><trkpt lat="35.0572475" lon="32.316601"><ele>320.7</ele><time>2015-04-25T13:12:35.0000000+00:00</time></trkpt><trkpt lat="35.0573138" lon="32.3165543"><ele>320.8</ele><time>2015-04-25T13:12:36.0000000+00:00</time></trkpt><trkpt lat="35.0573793" lon="32.3165264"><ele>320.9</ele><time>2015-04-25T13:12:37.0000000+00:00</time></trkpt><trkpt lat="35.0574512" lon="32.3165009"><ele>321.9</ele><time>2015-04-25T13:12:38.0000000+00:00</time></trkpt><trkpt lat="35.0575072" lon="32.3164827"><ele>322.4</ele><time>2015-04-25T13:12:39.0000000+00:00</time></trkpt><trkpt lat="35.0575645" lon="32.3164696"><ele>323.7</ele><time>2015-04-25T13:12:40.0000000+00:00</time></trkpt><trkpt lat="35.0576526" lon="32.316478"><ele>324.6</ele><time>2015-04-25T13:12:42.0000000+00:00</time></trkpt><trkpt lat="35.0577266" lon="32.3165211"><ele>324.9</ele><time>2015-04-25T13:12:44.0000000+00:00</time></trkpt><trkpt lat="35.0577888" lon="32.3165854"><ele>327.2</ele><time>2015-04-25T13:12:46.0000000+00:00</time></trkpt><trkpt lat="35.0578383" lon="32.3166373"><ele>328.2</ele><time>2015-04-25T13:12:48.0000000+00:00</time></trkpt><trkpt lat="35.05786" lon="32.3166961"><ele>328.9</ele><time>2015-04-25T13:12:52.0000000+00:00</time></trkpt><trkpt lat="35.0578855" lon="32.3167465"><ele>331.1</ele><time>2015-04-25T13:12:56.0000000+00:00</time></trkpt><trkpt lat="35.0579252" lon="32.3167906"><ele>334.5</ele><time>2015-04-25T13:13:00.0000000+00:00</time></trkpt><trkpt lat="35.0579654" lon="32.3168203"><ele>335.3</ele><time>2015-04-25T13:13:04.0000000+00:00</time></trkpt><trkpt lat="35.0580117" lon="32.3168121"><ele>335.0</ele><time>2015-04-25T13:13:08.0000000+00:00</time></trkpt><trkpt lat="35.0580655" lon="32.316796"><ele>337.0</ele><time>2015-04-25T13:13:12.0000000+00:00</time></trkpt><trkpt lat="35.0581064" lon="32.3167707"><ele>337.4</ele><time>2015-04-25T13:13:16.0000000+00:00</time></trkpt><trkpt lat="35.0581531" lon="32.3167325"><ele>339.4</ele><time>2015-04-25T13:13:21.0000000+00:00</time></trkpt><trkpt lat="35.0581827" lon="32.3166881"><ele>339.6</ele><time>2015-04-25T13:13:25.0000000+00:00</time></trkpt><trkpt lat="35.0582307" lon="32.3166542"><ele>339.5</ele><time>2015-04-25T13:13:30.0000000+00:00</time></trkpt><trkpt lat="35.0582778" lon="32.3166336"><ele>340.7</ele><time>2015-04-25T13:13:35.0000000+00:00</time></trkpt><trkpt lat="35.0583253" lon="32.3166135"><ele>342.4</ele><time>2015-04-25T13:13:40.0000000+00:00</time></trkpt><trkpt lat="35.0583727" lon="32.3165974"><ele>342.5</ele><time>2015-04-25T13:13:44.0000000+00:00</time></trkpt><trkpt lat="35.0584207" lon="32.3165642"><ele>342.0</ele><time>2015-04-25T13:13:49.0000000+00:00</time></trkpt><trkpt lat="35.0584656" lon="32.3165348"><ele>343.0</ele><time>2015-04-25T13:13:55.0000000+00:00</time></trkpt><trkpt lat="35.0585114" lon="32.3165464"><ele>345.2</ele><time>2015-04-25T13:13:59.0000000+00:00</time></trkpt><trkpt lat="35.058556" lon="32.3165698"><ele>345.4</ele><time>2015-04-25T13:14:03.0000000+00:00</time></trkpt><trkpt lat="35.0586032" lon="32.3165792"><ele>343.3</ele><time>2015-04-25T13:14:07.0000000+00:00</time></trkpt><trkpt lat="35.0586499" lon="32.3165867"><ele>342.3</ele><time>2015-04-25T13:14:11.0000000+00:00</time></trkpt><trkpt lat="35.0587038" lon="32.3166025"><ele>341.6</ele><time>2015-04-25T13:14:15.0000000+00:00</time></trkpt><trkpt lat="35.0587632" lon="32.3166003"><ele>341.3</ele><time>2015-04-25T13:14:19.0000000+00:00</time></trkpt><trkpt lat="35.0588165" lon="32.3165878"><ele>342.2</ele><time>2015-04-25T13:14:22.0000000+00:00</time></trkpt><trkpt lat="35.0588682" lon="32.3165808"><ele>343.7</ele><time>2015-04-25T13:14:25.0000000+00:00</time></trkpt><trkpt lat="35.0589167" lon="32.316566"><ele>343.9</ele><time>2015-04-25T13:14:28.0000000+00:00</time></trkpt><trkpt lat="35.0589645" lon="32.3165498"><ele>343.9</ele><time>2015-04-25T13:14:30.0000000+00:00</time></trkpt><trkpt lat="35.0590186" lon="32.3165285"><ele>344.7</ele><time>2015-04-25T13:14:32.0000000+00:00</time></trkpt><trkpt lat="35.0590734" lon="32.316507"><ele>344.9</ele><time>2015-04-25T13:14:34.0000000+00:00</time></trkpt><trkpt lat="35.0591265" lon="32.3164853"><ele>344.9</ele><time>2015-04-25T13:14:36.0000000+00:00</time></trkpt><trkpt lat="35.0591874" lon="32.3164646"><ele>344.9</ele><time>2015-04-25T13:14:38.0000000+00:00</time></trkpt><trkpt lat="35.0592502" lon="32.3164437"><ele>345.4</ele><time>2015-04-25T13:14:40.0000000+00:00</time></trkpt><trkpt lat="35.0593131" lon="32.3164237"><ele>345.8</ele><time>2015-04-25T13:14:42.0000000+00:00</time></trkpt><trkpt lat="35.0593758" lon="32.3164055"><ele>345.9</ele><time>2015-04-25T13:14:44.0000000+00:00</time></trkpt><trkpt lat="35.0594441" lon="32.3163886"><ele>345.2</ele><time>2015-04-25T13:14:46.0000000+00:00</time></trkpt><trkpt lat="35.0595128" lon="32.316374"><ele>344.7</ele><time>2015-04-25T13:14:48.0000000+00:00</time></trkpt><trkpt lat="35.0595733" lon="32.3163618"><ele>346.1</ele><time>2015-04-25T13:14:50.0000000+00:00</time></trkpt><trkpt lat="35.0596339" lon="32.3163581"><ele>346.7</ele><time>2015-04-25T13:14:52.0000000+00:00</time></trkpt><trkpt lat="35.0596948" lon="32.31636"><ele>346.9</ele><time>2015-04-25T13:14:54.0000000+00:00</time></trkpt><trkpt lat="35.0597526" lon="32.3163656"><ele>346.9</ele><time>2015-04-25T13:14:56.0000000+00:00</time></trkpt><trkpt lat="35.059803" lon="32.3163806"><ele>348.2</ele><time>2015-04-25T13:14:58.0000000+00:00</time></trkpt><trkpt lat="35.0598563" lon="32.3164002"><ele>348.5</ele><time>2015-04-25T13:15:01.0000000+00:00</time></trkpt><trkpt lat="35.0599095" lon="32.316388"><ele>348.8</ele><time>2015-04-25T13:15:05.0000000+00:00</time></trkpt><trkpt lat="35.0599493" lon="32.3163554"><ele>349.4</ele><time>2015-04-25T13:15:08.0000000+00:00</time></trkpt><trkpt lat="35.0600069" lon="32.3163253"><ele>350.2</ele><time>2015-04-25T13:15:11.0000000+00:00</time></trkpt><trkpt lat="35.060058" lon="32.3162874"><ele>349.5</ele><time>2015-04-25T13:15:13.0000000+00:00</time></trkpt><trkpt lat="35.0601198" lon="32.3162325"><ele>349.1</ele><time>2015-04-25T13:15:15.0000000+00:00</time></trkpt><trkpt lat="35.0601798" lon="32.3161691"><ele>350.2</ele><time>2015-04-25T13:15:17.0000000+00:00</time></trkpt><trkpt lat="35.0602295" lon="32.3161058"><ele>349.5</ele><time>2015-04-25T13:15:19.0000000+00:00</time></trkpt><trkpt lat="35.0602669" lon="32.3160391"><ele>349.3</ele><time>2015-04-25T13:15:21.0000000+00:00</time></trkpt><trkpt lat="35.0602884" lon="32.315978"><ele>348.5</ele><time>2015-04-25T13:15:23.0000000+00:00</time></trkpt><trkpt lat="35.0603094" lon="32.3159269"><ele>348.3</ele><time>2015-04-25T13:15:25.0000000+00:00</time></trkpt><trkpt lat="35.0603384" lon="32.31588"><ele>347.5</ele><time>2015-04-25T13:15:27.0000000+00:00</time></trkpt><trkpt lat="35.0603623" lon="32.315819"><ele>347.6</ele><time>2015-04-25T13:15:29.0000000+00:00</time></trkpt><trkpt lat="35.0603797" lon="32.3157547"><ele>347.8</ele><time>2015-04-25T13:15:31.0000000+00:00</time></trkpt><trkpt lat="35.060401" lon="32.3156865"><ele>348.7</ele><time>2015-04-25T13:15:33.0000000+00:00</time></trkpt><trkpt lat="35.0604144" lon="32.3156233"><ele>348.1</ele><time>2015-04-25T13:15:35.0000000+00:00</time></trkpt><trkpt lat="35.0604211" lon="32.3155604"><ele>347.2</ele><time>2015-04-25T13:15:37.0000000+00:00</time></trkpt><trkpt lat="35.0604287" lon="32.3154918"><ele>346.5</ele><time>2015-04-25T13:15:39.0000000+00:00</time></trkpt><trkpt lat="35.0604414" lon="32.3154219"><ele>344.8</ele><time>2015-04-25T13:15:41.0000000+00:00</time></trkpt><trkpt lat="35.0604464" lon="32.3153566"><ele>344.2</ele><time>2015-04-25T13:15:43.0000000+00:00</time></trkpt><trkpt lat="35.0604537" lon="32.3152902"><ele>343.2</ele><time>2015-04-25T13:15:45.0000000+00:00</time></trkpt><trkpt lat="35.0604654" lon="32.315221"><ele>344.3</ele><time>2015-04-25T13:15:47.0000000+00:00</time></trkpt><trkpt lat="35.0604732" lon="32.3151451"><ele>344.5</ele><time>2015-04-25T13:15:49.0000000+00:00</time></trkpt><trkpt lat="35.0604689" lon="32.3150735"><ele>343.6</ele><time>2015-04-25T13:15:51.0000000+00:00</time></trkpt><trkpt lat="35.0604615" lon="32.3150082"><ele>342.6</ele><time>2015-04-25T13:15:53.0000000+00:00</time></trkpt><trkpt lat="35.0604498" lon="32.3149458"><ele>341.3</ele><time>2015-04-25T13:15:55.0000000+00:00</time></trkpt><trkpt lat="35.0604221" lon="32.3148849"><ele>340.3</ele><time>2015-04-25T13:15:57.0000000+00:00</time></trkpt><trkpt lat="35.0603843" lon="32.314828"><ele>340.8</ele><time>2015-04-25T13:15:59.0000000+00:00</time></trkpt><trkpt lat="35.0603329" lon="32.3147764"><ele>340.1</ele><time>2015-04-25T13:16:01.0000000+00:00</time></trkpt><trkpt lat="35.0602743" lon="32.3147142"><ele>340.0</ele><time>2015-04-25T13:16:03.0000000+00:00</time></trkpt><trkpt lat="35.0602172" lon="32.3146403"><ele>340.0</ele><time>2015-04-25T13:16:04.0000000+00:00</time></trkpt><trkpt lat="35.0601927" lon="32.3145828"><ele>339.9</ele><time>2015-04-25T13:16:05.0000000+00:00</time></trkpt><trkpt lat="35.0601729" lon="32.3145152"><ele>339.4</ele><time>2015-04-25T13:16:06.0000000+00:00</time></trkpt><trkpt lat="35.0601548" lon="32.3144554"><ele>338.7</ele><time>2015-04-25T13:16:07.0000000+00:00</time></trkpt><trkpt lat="35.0601465" lon="32.3143864"><ele>337.8</ele><time>2015-04-25T13:16:08.0000000+00:00</time></trkpt><trkpt lat="35.0601465" lon="32.3143264"><ele>336.4</ele><time>2015-04-25T13:16:09.0000000+00:00</time></trkpt><trkpt lat="35.0601335" lon="32.3142484"><ele>335.1</ele><time>2015-04-25T13:16:10.0000000+00:00</time></trkpt><trkpt lat="35.0601185" lon="32.31417"><ele>334.5</ele><time>2015-04-25T13:16:11.0000000+00:00</time></trkpt><trkpt lat="35.0600941" lon="32.3140894"><ele>333.7</ele><time>2015-04-25T13:16:12.0000000+00:00</time></trkpt><trkpt lat="35.0600632" lon="32.3140066"><ele>333.3</ele><time>2015-04-25T13:16:13.0000000+00:00</time></trkpt><trkpt lat="35.0600288" lon="32.3139239"><ele>332.6</ele><time>2015-04-25T13:16:14.0000000+00:00</time></trkpt><trkpt lat="35.0599945" lon="32.3138447"><ele>331.8</ele><time>2015-04-25T13:16:15.0000000+00:00</time></trkpt><trkpt lat="35.0599563" lon="32.313763"><ele>331.4</ele><time>2015-04-25T13:16:16.0000000+00:00</time></trkpt><trkpt lat="35.0599302" lon="32.313678"><ele>331.1</ele><time>2015-04-25T13:16:17.0000000+00:00</time></trkpt><trkpt lat="35.0599074" lon="32.3136014"><ele>330.0</ele><time>2015-04-25T13:16:18.0000000+00:00</time></trkpt><trkpt lat="35.0598964" lon="32.3135202"><ele>329.0</ele><time>2015-04-25T13:16:19.0000000+00:00</time></trkpt><trkpt lat="35.059891" lon="32.3134273"><ele>328.5</ele><time>2015-04-25T13:16:20.0000000+00:00</time></trkpt><trkpt lat="35.0598948" lon="32.3133293"><ele>328.2</ele><time>2015-04-25T13:16:21.0000000+00:00</time></trkpt><trkpt lat="35.0598916" lon="32.3132277"><ele>327.6</ele><time>2015-04-25T13:16:22.0000000+00:00</time></trkpt><trkpt lat="35.0598996" lon="32.3131246"><ele>326.7</ele><time>2015-04-25T13:16:23.0000000+00:00</time></trkpt><trkpt lat="35.0599257" lon="32.3130093"><ele>326.3</ele><time>2015-04-25T13:16:24.0000000+00:00</time></trkpt><trkpt lat="35.0599526" lon="32.3129232"><ele>326.6</ele><time>2015-04-25T13:16:25.0000000+00:00</time></trkpt><trkpt lat="35.0599912" lon="32.3128248"><ele>326.3</ele><time>2015-04-25T13:16:26.0000000+00:00</time></trkpt><trkpt lat="35.0600458" lon="32.3127379"><ele>326.6</ele><time>2015-04-25T13:16:27.0000000+00:00</time></trkpt><trkpt lat="35.0600962" lon="32.312645"><ele>326.3</ele><time>2015-04-25T13:16:28.0000000+00:00</time></trkpt><trkpt lat="35.0601516" lon="32.3125698"><ele>327.6</ele><time>2015-04-25T13:16:29.0000000+00:00</time></trkpt><trkpt lat="35.060196" lon="32.3124843"><ele>328.3</ele><time>2015-04-25T13:16:30.0000000+00:00</time></trkpt><trkpt lat="35.0602436" lon="32.3124053"><ele>328.6</ele><time>2015-04-25T13:16:31.0000000+00:00</time></trkpt><trkpt lat="35.0603021" lon="32.3123323"><ele>329.8</ele><time>2015-04-25T13:16:32.0000000+00:00</time></trkpt><trkpt lat="35.0603454" lon="32.3122621"><ele>329.8</ele><time>2015-04-25T13:16:33.0000000+00:00</time></trkpt><trkpt lat="35.0603858" lon="32.3121944"><ele>330.4</ele><time>2015-04-25T13:16:34.0000000+00:00</time></trkpt><trkpt lat="35.0604229" lon="32.3121466"><ele>330.2</ele><time>2015-04-25T13:16:35.0000000+00:00</time></trkpt><trkpt lat="35.0604766" lon="32.3121065"><ele>330.0</ele><time>2015-04-25T13:16:36.0000000+00:00</time></trkpt><trkpt lat="35.0605378" lon="32.3120745"><ele>329.5</ele><time>2015-04-25T13:16:37.0000000+00:00</time></trkpt><trkpt lat="35.0605898" lon="32.3120368"><ele>328.7</ele><time>2015-04-25T13:16:38.0000000+00:00</time></trkpt><trkpt lat="35.0606456" lon="32.3119939"><ele>327.8</ele><time>2015-04-25T13:16:39.0000000+00:00</time></trkpt><trkpt lat="35.060709" lon="32.31195"><ele>327.4</ele><time>2015-04-25T13:16:40.0000000+00:00</time></trkpt><trkpt lat="35.0607698" lon="32.3119093"><ele>326.2</ele><time>2015-04-25T13:16:41.0000000+00:00</time></trkpt><trkpt lat="35.0608434" lon="32.3118552"><ele>325.5</ele><time>2015-04-25T13:16:42.0000000+00:00</time></trkpt><trkpt lat="35.0609064" lon="32.3117888"><ele>324.7</ele><time>2015-04-25T13:16:43.0000000+00:00</time></trkpt><trkpt lat="35.0609782" lon="32.3117229"><ele>322.8</ele><time>2015-04-25T13:16:44.0000000+00:00</time></trkpt><trkpt lat="35.061047" lon="32.3116404"><ele>321.9</ele><time>2015-04-25T13:16:45.0000000+00:00</time></trkpt><trkpt lat="35.0611075" lon="32.3115634"><ele>320.4</ele><time>2015-04-25T13:16:46.0000000+00:00</time></trkpt><trkpt lat="35.0611592" lon="32.3114899"><ele>319.2</ele><time>2015-04-25T13:16:47.0000000+00:00</time></trkpt><trkpt lat="35.061215" lon="32.3114175"><ele>318.0</ele><time>2015-04-25T13:16:48.0000000+00:00</time></trkpt><trkpt lat="35.0612926" lon="32.3113541"><ele>317.5</ele><time>2015-04-25T13:16:49.0000000+00:00</time></trkpt><trkpt lat="35.0613618" lon="32.3113004"><ele>317.2</ele><time>2015-04-25T13:16:50.0000000+00:00</time></trkpt><trkpt lat="35.0614372" lon="32.311253"><ele>316.6</ele><time>2015-04-25T13:16:51.0000000+00:00</time></trkpt><trkpt lat="35.061509" lon="32.3112043"><ele>315.7</ele><time>2015-04-25T13:16:52.0000000+00:00</time></trkpt><trkpt lat="35.0615765" lon="32.3111336"><ele>314.8</ele><time>2015-04-25T13:16:53.0000000+00:00</time></trkpt><trkpt lat="35.0616404" lon="32.3110578"><ele>314.4</ele><time>2015-04-25T13:16:54.0000000+00:00</time></trkpt><trkpt lat="35.0617022" lon="32.3109795"><ele>313.7</ele><time>2015-04-25T13:16:55.0000000+00:00</time></trkpt><trkpt lat="35.0617635" lon="32.3109053"><ele>312.8</ele><time>2015-04-25T13:16:56.0000000+00:00</time></trkpt><trkpt lat="35.061822" lon="32.3108274"><ele>311.9</ele><time>2015-04-25T13:16:57.0000000+00:00</time></trkpt><trkpt lat="35.0618848" lon="32.3107544"><ele>310.4</ele><time>2015-04-25T13:16:58.0000000+00:00</time></trkpt><trkpt lat="35.0619545" lon="32.3106799"><ele>308.7</ele><time>2015-04-25T13:16:59.0000000+00:00</time></trkpt><trkpt lat="35.0620227" lon="32.3106046"><ele>307.8</ele><time>2015-04-25T13:17:00.0000000+00:00</time></trkpt><trkpt lat="35.062085" lon="32.3105265"><ele>306.9</ele><time>2015-04-25T13:17:01.0000000+00:00</time></trkpt><trkpt lat="35.0621376" lon="32.3104634"><ele>305.9</ele><time>2015-04-25T13:17:02.0000000+00:00</time></trkpt><trkpt lat="35.062182" lon="32.3104018"><ele>305.4</ele><time>2015-04-25T13:17:03.0000000+00:00</time></trkpt><trkpt lat="35.0622268" lon="32.3103314"><ele>304.7</ele><time>2015-04-25T13:17:04.0000000+00:00</time></trkpt><trkpt lat="35.062281" lon="32.3102813"><ele>303.3</ele><time>2015-04-25T13:17:05.0000000+00:00</time></trkpt><trkpt lat="35.0623243" lon="32.3102141"><ele>302.6</ele><time>2015-04-25T13:17:06.0000000+00:00</time></trkpt><trkpt lat="35.0623702" lon="32.3101384"><ele>301.8</ele><time>2015-04-25T13:17:07.0000000+00:00</time></trkpt><trkpt lat="35.0624229" lon="32.3100625"><ele>300.9</ele><time>2015-04-25T13:17:08.0000000+00:00</time></trkpt><trkpt lat="35.0624643" lon="32.3099868"><ele>299.4</ele><time>2015-04-25T13:17:09.0000000+00:00</time></trkpt><trkpt lat="35.0625113" lon="32.3099148"><ele>298.2</ele><time>2015-04-25T13:17:10.0000000+00:00</time></trkpt><trkpt lat="35.0625543" lon="32.3098401"><ele>297.0</ele><time>2015-04-25T13:17:11.0000000+00:00</time></trkpt><trkpt lat="35.062597" lon="32.3097892"><ele>296.0</ele><time>2015-04-25T13:17:12.0000000+00:00</time></trkpt><trkpt lat="35.0626534" lon="32.3097423"><ele>295.0</ele><time>2015-04-25T13:17:13.0000000+00:00</time></trkpt><trkpt lat="35.0627115" lon="32.3096993"><ele>294.4</ele><time>2015-04-25T13:17:14.0000000+00:00</time></trkpt><trkpt lat="35.0627703" lon="32.3096597"><ele>294.2</ele><time>2015-04-25T13:17:15.0000000+00:00</time></trkpt><trkpt lat="35.0628263" lon="32.309612"><ele>294.1</ele><time>2015-04-25T13:17:16.0000000+00:00</time></trkpt><trkpt lat="35.0628803" lon="32.3095485"><ele>293.5</ele><time>2015-04-25T13:17:17.0000000+00:00</time></trkpt><trkpt lat="35.0629222" lon="32.3094935"><ele>292.7</ele><time>2015-04-25T13:17:18.0000000+00:00</time></trkpt><trkpt lat="35.0629521" lon="32.3094314"><ele>291.8</ele><time>2015-04-25T13:17:19.0000000+00:00</time></trkpt><trkpt lat="35.0629709" lon="32.3093654"><ele>291.4</ele><time>2015-04-25T13:17:20.0000000+00:00</time></trkpt><trkpt lat="35.062997" lon="32.3092975"><ele>291.2</ele><time>2015-04-25T13:17:21.0000000+00:00</time></trkpt><trkpt lat="35.0630272" lon="32.3092306"><ele>290.5</ele><time>2015-04-25T13:17:22.0000000+00:00</time></trkpt><trkpt lat="35.063055" lon="32.30916"><ele>290.2</ele><time>2015-04-25T13:17:23.0000000+00:00</time></trkpt><trkpt lat="35.0630871" lon="32.3090778"><ele>290.6</ele><time>2015-04-25T13:17:24.0000000+00:00</time></trkpt><trkpt lat="35.0631191" lon="32.3090131"><ele>291.8</ele><time>2015-04-25T13:17:25.0000000+00:00</time></trkpt><trkpt lat="35.0631401" lon="32.3089338"><ele>291.3</ele><time>2015-04-25T13:17:26.0000000+00:00</time></trkpt><trkpt lat="35.0631476" lon="32.3088457"><ele>290.6</ele><time>2015-04-25T13:17:27.0000000+00:00</time></trkpt><trkpt lat="35.0631544" lon="32.3087534"><ele>290.3</ele><time>2015-04-25T13:17:28.0000000+00:00</time></trkpt><trkpt lat="35.0631625" lon="32.3086673"><ele>289.1</ele><time>2015-04-25T13:17:29.0000000+00:00</time></trkpt><trkpt lat="35.063183" lon="32.3085782"><ele>288.5</ele><time>2015-04-25T13:17:30.0000000+00:00</time></trkpt><trkpt lat="35.0632097" lon="32.3084934"><ele>289.2</ele><time>2015-04-25T13:17:31.0000000+00:00</time></trkpt><trkpt lat="35.0632338" lon="32.3084021"><ele>289.6</ele><time>2015-04-25T13:17:32.0000000+00:00</time></trkpt><trkpt lat="35.0632513" lon="32.3082999"><ele>289.8</ele><time>2015-04-25T13:17:33.0000000+00:00</time></trkpt><trkpt lat="35.0632694" lon="32.3082269"><ele>289.3</ele><time>2015-04-25T13:17:34.0000000+00:00</time></trkpt><trkpt lat="35.0632992" lon="32.3081584"><ele>288.6</ele><time>2015-04-25T13:17:35.0000000+00:00</time></trkpt><trkpt lat="35.0633395" lon="32.3080926"><ele>287.8</ele><time>2015-04-25T13:17:36.0000000+00:00</time></trkpt><trkpt lat="35.0633763" lon="32.3080332"><ele>287.4</ele><time>2015-04-25T13:17:37.0000000+00:00</time></trkpt><trkpt lat="35.0634065" lon="32.3079818"><ele>286.6</ele><time>2015-04-25T13:17:38.0000000+00:00</time></trkpt><trkpt lat="35.0634452" lon="32.3079272"><ele>285.8</ele><time>2015-04-25T13:17:39.0000000+00:00</time></trkpt><trkpt lat="35.0634757" lon="32.3078619"><ele>284.9</ele><time>2015-04-25T13:17:40.0000000+00:00</time></trkpt><trkpt lat="35.0635052" lon="32.3077922"><ele>283.9</ele><time>2015-04-25T13:17:41.0000000+00:00</time></trkpt><trkpt lat="35.0635334" lon="32.3077259"><ele>282.9</ele><time>2015-04-25T13:17:42.0000000+00:00</time></trkpt><trkpt lat="35.0635705" lon="32.3076514"><ele>281.9</ele><time>2015-04-25T13:17:43.0000000+00:00</time></trkpt><trkpt lat="35.0635993" lon="32.307571"><ele>280.9</ele><time>2015-04-25T13:17:44.0000000+00:00</time></trkpt><trkpt lat="35.0636262" lon="32.3074964"><ele>279.9</ele><time>2015-04-25T13:17:45.0000000+00:00</time></trkpt><trkpt lat="35.0636509" lon="32.3074119"><ele>279.4</ele><time>2015-04-25T13:17:46.0000000+00:00</time></trkpt><trkpt lat="35.0636708" lon="32.3073372"><ele>279.2</ele><time>2015-04-25T13:17:47.0000000+00:00</time></trkpt><trkpt lat="35.0636896" lon="32.30726"><ele>279.1</ele><time>2015-04-25T13:17:48.0000000+00:00</time></trkpt><trkpt lat="35.0637139" lon="32.3072033"><ele>279.0</ele><time>2015-04-25T13:17:49.0000000+00:00</time></trkpt><trkpt lat="35.0637727" lon="32.3071181"><ele>278.9</ele><time>2015-04-25T13:17:51.0000000+00:00</time></trkpt><trkpt lat="35.0638105" lon="32.3070778"><ele>278.9</ele><time>2015-04-25T13:17:52.0000000+00:00</time></trkpt><trkpt lat="35.0638414" lon="32.3070364"><ele>278.4</ele><time>2015-04-25T13:17:53.0000000+00:00</time></trkpt><trkpt lat="35.0638934" lon="32.3069487"><ele>277.6</ele><time>2015-04-25T13:17:55.0000000+00:00</time></trkpt><trkpt lat="35.0639334" lon="32.3068739"><ele>277.6</ele><time>2015-04-25T13:17:57.0000000+00:00</time></trkpt><trkpt lat="35.0639918" lon="32.3067902"><ele>280.6</ele><time>2015-04-25T13:17:59.0000000+00:00</time></trkpt><trkpt lat="35.064038" lon="32.3067311"><ele>282.8</ele><time>2015-04-25T13:18:01.0000000+00:00</time></trkpt><trkpt lat="35.0640817" lon="32.3066586"><ele>285.3</ele><time>2015-04-25T13:18:04.0000000+00:00</time></trkpt><trkpt lat="35.0641156" lon="32.306622"><ele>286.0</ele><time>2015-04-25T13:18:06.0000000+00:00</time></trkpt><trkpt lat="35.0641711" lon="32.3065866"><ele>285.2</ele><time>2015-04-25T13:18:09.0000000+00:00</time></trkpt><trkpt lat="35.0642155" lon="32.3065708"><ele>284.2</ele><time>2015-04-25T13:18:11.0000000+00:00</time></trkpt><trkpt lat="35.0642667" lon="32.3065383"><ele>283.3</ele><time>2015-04-25T13:18:13.0000000+00:00</time></trkpt><trkpt lat="35.0643513" lon="32.3064591"><ele>283.0</ele><time>2015-04-25T13:18:15.0000000+00:00</time></trkpt><trkpt lat="35.0643924" lon="32.3064226"><ele>282.5</ele><time>2015-04-25T13:18:16.0000000+00:00</time></trkpt><trkpt lat="35.0644291" lon="32.3063814"><ele>282.7</ele><time>2015-04-25T13:18:17.0000000+00:00</time></trkpt><trkpt lat="35.0644643" lon="32.3063314"><ele>282.8</ele><time>2015-04-25T13:18:18.0000000+00:00</time></trkpt><trkpt lat="35.0645031" lon="32.3062797"><ele>282.9</ele><time>2015-04-25T13:18:19.0000000+00:00</time></trkpt><trkpt lat="35.0645504" lon="32.3062226"><ele>283.4</ele><time>2015-04-25T13:18:20.0000000+00:00</time></trkpt><trkpt lat="35.0645969" lon="32.3061734"><ele>283.7</ele><time>2015-04-25T13:18:21.0000000+00:00</time></trkpt><trkpt lat="35.0646496" lon="32.3061128"><ele>283.3</ele><time>2015-04-25T13:18:22.0000000+00:00</time></trkpt><trkpt lat="35.0646986" lon="32.3060651"><ele>283.6</ele><time>2015-04-25T13:18:23.0000000+00:00</time></trkpt><trkpt lat="35.0647508" lon="32.3060355"><ele>283.3</ele><time>2015-04-25T13:18:24.0000000+00:00</time></trkpt><trkpt lat="35.0647999" lon="32.3060095"><ele>283.6</ele><time>2015-04-25T13:18:25.0000000+00:00</time></trkpt><trkpt lat="35.0648386" lon="32.3059751"><ele>283.8</ele><time>2015-04-25T13:18:26.0000000+00:00</time></trkpt><trkpt lat="35.0648869" lon="32.3059524"><ele>283.1</ele><time>2015-04-25T13:18:28.0000000+00:00</time></trkpt><trkpt lat="35.0649349" lon="32.3059474"><ele>281.4</ele><time>2015-04-25T13:21:26.0000000+00:00</time></trkpt><trkpt lat="35.0649786" lon="32.3059155"><ele>281.3</ele><time>2015-04-25T13:21:28.0000000+00:00</time></trkpt><trkpt lat="35.0650344" lon="32.3058678"><ele>281.3</ele><time>2015-04-25T13:21:30.0000000+00:00</time></trkpt><trkpt lat="35.0650836" lon="32.305811"><ele>280.3</ele><time>2015-04-25T13:21:32.0000000+00:00</time></trkpt><trkpt lat="35.0651339" lon="32.3057465"><ele>279.3</ele><time>2015-04-25T13:21:34.0000000+00:00</time></trkpt><trkpt lat="35.0652199" lon="32.305637"><ele>277.8</ele><time>2015-04-25T13:21:36.0000000+00:00</time></trkpt><trkpt lat="35.0652486" lon="32.305579"><ele>277.3</ele><time>2015-04-25T13:21:37.0000000+00:00</time></trkpt><trkpt lat="35.0652775" lon="32.3055171"><ele>276.6</ele><time>2015-04-25T13:21:38.0000000+00:00</time></trkpt><trkpt lat="35.0653077" lon="32.3054542"><ele>275.3</ele><time>2015-04-25T13:21:39.0000000+00:00</time></trkpt><trkpt lat="35.0653334" lon="32.3053846"><ele>274.6</ele><time>2015-04-25T13:21:40.0000000+00:00</time></trkpt><trkpt lat="35.0653702" lon="32.3053012"><ele>275.3</ele><time>2015-04-25T13:21:41.0000000+00:00</time></trkpt><trkpt lat="35.0654054" lon="32.3052354"><ele>275.1</ele><time>2015-04-25T13:21:42.0000000+00:00</time></trkpt><trkpt lat="35.0654363" lon="32.3051631"><ele>275.5</ele><time>2015-04-25T13:21:43.0000000+00:00</time></trkpt><trkpt lat="35.0654737" lon="32.305094"><ele>275.2</ele><time>2015-04-25T13:21:44.0000000+00:00</time></trkpt><trkpt lat="35.0655048" lon="32.3050286"><ele>275.1</ele><time>2015-04-25T13:21:45.0000000+00:00</time></trkpt><trkpt lat="35.0655388" lon="32.3049636"><ele>275.0</ele><time>2015-04-25T13:21:46.0000000+00:00</time></trkpt><trkpt lat="35.0655726" lon="32.3048888"><ele>274.0</ele><time>2015-04-25T13:21:47.0000000+00:00</time></trkpt><trkpt lat="35.0656118" lon="32.304802"><ele>272.4</ele><time>2015-04-25T13:21:48.0000000+00:00</time></trkpt><trkpt lat="35.0656402" lon="32.3047077"><ele>270.7</ele><time>2015-04-25T13:21:49.0000000+00:00</time></trkpt><trkpt lat="35.0656629" lon="32.3046168"><ele>269.3</ele><time>2015-04-25T13:21:50.0000000+00:00</time></trkpt><trkpt lat="35.0656916" lon="32.3045273"><ele>268.1</ele><time>2015-04-25T13:21:51.0000000+00:00</time></trkpt><trkpt lat="35.0657143" lon="32.3044549"><ele>267.0</ele><time>2015-04-25T13:21:52.0000000+00:00</time></trkpt><trkpt lat="35.0657464" lon="32.3043799"><ele>266.2</ele><time>2015-04-25T13:21:54.0000000+00:00</time></trkpt><trkpt lat="35.0657518" lon="32.3043013"><ele>257.7</ele><time>2015-04-25T13:22:44.0000000+00:00</time></trkpt><trkpt lat="35.0657693" lon="32.3042506"><ele>255.9</ele><time>2015-04-25T13:22:46.0000000+00:00</time></trkpt><trkpt lat="35.0657945" lon="32.3041879"><ele>255.2</ele><time>2015-04-25T13:22:48.0000000+00:00</time></trkpt><trkpt lat="35.065821" lon="32.3041171"><ele>253.7</ele><time>2015-04-25T13:22:50.0000000+00:00</time></trkpt><trkpt lat="35.0658622" lon="32.304038"><ele>253.6</ele><time>2015-04-25T13:22:52.0000000+00:00</time></trkpt><trkpt lat="35.0659342" lon="32.3039264"><ele>252.6</ele><time>2015-04-25T13:22:54.0000000+00:00</time></trkpt><trkpt lat="35.0659633" lon="32.303872"><ele>251.8</ele><time>2015-04-25T13:22:55.0000000+00:00</time></trkpt><trkpt lat="35.0659984" lon="32.3038164"><ele>250.3</ele><time>2015-04-25T13:22:56.0000000+00:00</time></trkpt><trkpt lat="35.0660306" lon="32.3037678"><ele>249.6</ele><time>2015-04-25T13:22:57.0000000+00:00</time></trkpt><trkpt lat="35.0660722" lon="32.3037117"><ele>248.3</ele><time>2015-04-25T13:22:58.0000000+00:00</time></trkpt><trkpt lat="35.0661003" lon="32.3036593"><ele>247.1</ele><time>2015-04-25T13:22:59.0000000+00:00</time></trkpt><trkpt lat="35.0661391" lon="32.3035997"><ele>246.5</ele><time>2015-04-25T13:23:00.0000000+00:00</time></trkpt><trkpt lat="35.0661778" lon="32.3035422"><ele>246.2</ele><time>2015-04-25T13:23:01.0000000+00:00</time></trkpt><trkpt lat="35.0662223" lon="32.3034792"><ele>246.1</ele><time>2015-04-25T13:23:02.0000000+00:00</time></trkpt><trkpt lat="35.0662594" lon="32.3034195"><ele>245.5</ele><time>2015-04-25T13:23:03.0000000+00:00</time></trkpt><trkpt lat="35.0662908" lon="32.3033621"><ele>244.7</ele><time>2015-04-25T13:23:04.0000000+00:00</time></trkpt><trkpt lat="35.0663294" lon="32.3033043"><ele>243.8</ele><time>2015-04-25T13:23:05.0000000+00:00</time></trkpt><trkpt lat="35.0663685" lon="32.303245"><ele>243.9</ele><time>2015-04-25T13:23:06.0000000+00:00</time></trkpt><trkpt lat="35.0664019" lon="32.3031915"><ele>243.9</ele><time>2015-04-25T13:23:07.0000000+00:00</time></trkpt><trkpt lat="35.0664572" lon="32.3031236"><ele>243.4</ele><time>2015-04-25T13:23:08.0000000+00:00</time></trkpt><trkpt lat="35.0665049" lon="32.30306"><ele>242.7</ele><time>2015-04-25T13:23:09.0000000+00:00</time></trkpt><trkpt lat="35.0665465" lon="32.3029814"><ele>242.3</ele><time>2015-04-25T13:23:10.0000000+00:00</time></trkpt><trkpt lat="35.0665897" lon="32.3028854"><ele>242.6</ele><time>2015-04-25T13:23:11.0000000+00:00</time></trkpt><trkpt lat="35.066633" lon="32.3027925"><ele>243.8</ele><time>2015-04-25T13:23:12.0000000+00:00</time></trkpt><trkpt lat="35.0666698" lon="32.3027129"><ele>244.4</ele><time>2015-04-25T13:23:13.0000000+00:00</time></trkpt><trkpt lat="35.0667142" lon="32.3026361"><ele>245.1</ele><time>2015-04-25T13:23:14.0000000+00:00</time></trkpt><trkpt lat="35.0667607" lon="32.3025556"><ele>245.5</ele><time>2015-04-25T13:23:15.0000000+00:00</time></trkpt><trkpt lat="35.0668075" lon="32.3024724"><ele>245.7</ele><time>2015-04-25T13:23:16.0000000+00:00</time></trkpt><trkpt lat="35.0668417" lon="32.3023913"><ele>245.8</ele><time>2015-04-25T13:23:17.0000000+00:00</time></trkpt><trkpt lat="35.0668705" lon="32.302303"><ele>245.4</ele><time>2015-04-25T13:23:18.0000000+00:00</time></trkpt><trkpt lat="35.066894" lon="32.302233"><ele>244.7</ele><time>2015-04-25T13:23:19.0000000+00:00</time></trkpt><trkpt lat="35.0669201" lon="32.3021722"><ele>244.8</ele><time>2015-04-25T13:23:20.0000000+00:00</time></trkpt><trkpt lat="35.0669391" lon="32.3021004"><ele>244.4</ele><time>2015-04-25T13:23:21.0000000+00:00</time></trkpt><trkpt lat="35.0669656" lon="32.3020302"><ele>243.6</ele><time>2015-04-25T13:23:22.0000000+00:00</time></trkpt><trkpt lat="35.0669946" lon="32.3019667"><ele>242.8</ele><time>2015-04-25T13:23:23.0000000+00:00</time></trkpt><trkpt lat="35.0670429" lon="32.3018844"><ele>241.4</ele><time>2015-04-25T13:23:24.0000000+00:00</time></trkpt><trkpt lat="35.0670829" lon="32.3018131"><ele>240.6</ele><time>2015-04-25T13:23:25.0000000+00:00</time></trkpt><trkpt lat="35.067125" lon="32.3017278"><ele>239.8</ele><time>2015-04-25T13:23:26.0000000+00:00</time></trkpt><trkpt lat="35.0671713" lon="32.3016498"><ele>239.9</ele><time>2015-04-25T13:23:27.0000000+00:00</time></trkpt><trkpt lat="35.0672169" lon="32.3015751"><ele>239.9</ele><time>2015-04-25T13:23:28.0000000+00:00</time></trkpt><trkpt lat="35.0672597" lon="32.3015072"><ele>240.4</ele><time>2015-04-25T13:23:29.0000000+00:00</time></trkpt><trkpt lat="35.0672988" lon="32.3014411"><ele>241.7</ele><time>2015-04-25T13:23:30.0000000+00:00</time></trkpt><trkpt lat="35.0673282" lon="32.3013877"><ele>242.3</ele><time>2015-04-25T13:23:31.0000000+00:00</time></trkpt><trkpt lat="35.0673604" lon="32.3013248"><ele>243.1</ele><time>2015-04-25T13:23:32.0000000+00:00</time></trkpt><trkpt lat="35.0673862" lon="32.3012794"><ele>243.0</ele><time>2015-04-25T13:23:33.0000000+00:00</time></trkpt><trkpt lat="35.0674413" lon="32.3012016"><ele>243.0</ele><time>2015-04-25T13:23:35.0000000+00:00</time></trkpt><trkpt lat="35.0674854" lon="32.3011353"><ele>242.7</ele><time>2015-04-25T13:23:37.0000000+00:00</time></trkpt><trkpt lat="35.0675478" lon="32.3010768"><ele>241.9</ele><time>2015-04-25T13:23:39.0000000+00:00</time></trkpt><trkpt lat="35.0676101" lon="32.3010125"><ele>239.9</ele><time>2015-04-25T13:23:41.0000000+00:00</time></trkpt><trkpt lat="35.0676522" lon="32.3009823"><ele>239.9</ele><time>2015-04-25T13:23:42.0000000+00:00</time></trkpt><trkpt lat="35.067686" lon="32.300945"><ele>239.9</ele><time>2015-04-25T13:23:43.0000000+00:00</time></trkpt><trkpt lat="35.0677204" lon="32.3009063"><ele>239.4</ele><time>2015-04-25T13:23:44.0000000+00:00</time></trkpt><trkpt lat="35.0677613" lon="32.3008767"><ele>240.7</ele><time>2015-04-25T13:23:45.0000000+00:00</time></trkpt><trkpt lat="35.0678161" lon="32.3007884"><ele>242.4</ele><time>2015-04-25T13:23:47.0000000+00:00</time></trkpt><trkpt lat="35.0678554" lon="32.300731"><ele>243.8</ele><time>2015-04-25T13:23:49.0000000+00:00</time></trkpt><trkpt lat="35.0679076" lon="32.3007294"><ele>245.3</ele><time>2015-04-25T13:23:52.0000000+00:00</time></trkpt><trkpt lat="35.067947" lon="32.3007014"><ele>245.8</ele><time>2015-04-25T13:23:54.0000000+00:00</time></trkpt><trkpt lat="35.0679988" lon="32.3006843"><ele>245.6</ele><time>2015-04-25T13:23:56.0000000+00:00</time></trkpt><trkpt lat="35.068061" lon="32.3006714"><ele>246.6</ele><time>2015-04-25T13:23:58.0000000+00:00</time></trkpt><trkpt lat="35.0681332" lon="32.3006673"><ele>244.8</ele><time>2015-04-25T13:24:00.0000000+00:00</time></trkpt><trkpt lat="35.0682095" lon="32.3006625"><ele>244.7</ele><time>2015-04-25T13:24:02.0000000+00:00</time></trkpt><trkpt lat="35.0682876" lon="32.3006632"><ele>244.4</ele><time>2015-04-25T13:24:04.0000000+00:00</time></trkpt><trkpt lat="35.0683649" lon="32.3006709"><ele>244.0</ele><time>2015-04-25T13:24:06.0000000+00:00</time></trkpt><trkpt lat="35.0684364" lon="32.3006707"><ele>244.0</ele><time>2015-04-25T13:24:08.0000000+00:00</time></trkpt><trkpt lat="35.0684892" lon="32.3006678"><ele>244.7</ele><time>2015-04-25T13:24:10.0000000+00:00</time></trkpt><trkpt lat="35.0685418" lon="32.3006578"><ele>246.1</ele><time>2015-04-25T13:24:13.0000000+00:00</time></trkpt><trkpt lat="35.0685898" lon="32.3006582"><ele>246.0</ele><time>2015-04-25T13:24:16.0000000+00:00</time></trkpt><trkpt lat="35.0686487" lon="32.3006462"><ele>247.6</ele><time>2015-04-25T13:24:20.0000000+00:00</time></trkpt><trkpt lat="35.0687003" lon="32.3006322"><ele>247.4</ele><time>2015-04-25T13:24:23.0000000+00:00</time></trkpt><trkpt lat="35.0687656" lon="32.3006192"><ele>247.7</ele><time>2015-04-25T13:24:26.0000000+00:00</time></trkpt><trkpt lat="35.0688144" lon="32.3006131"><ele>248.4</ele><time>2015-04-25T13:24:28.0000000+00:00</time></trkpt><trkpt lat="35.0688628" lon="32.3006142"><ele>248.8</ele><time>2015-04-25T13:24:30.0000000+00:00</time></trkpt><trkpt lat="35.068909" lon="32.3006114"><ele>248.1</ele><time>2015-04-25T13:24:32.0000000+00:00</time></trkpt><trkpt lat="35.0689569" lon="32.3005849"><ele>249.3</ele><time>2015-04-25T13:24:35.0000000+00:00</time></trkpt><trkpt lat="35.0690025" lon="32.3005625"><ele>249.1</ele><time>2015-04-25T13:24:38.0000000+00:00</time></trkpt><trkpt lat="35.0690485" lon="32.3005038"><ele>247.8</ele><time>2015-04-25T13:24:41.0000000+00:00</time></trkpt><trkpt lat="35.0690752" lon="32.3004462"><ele>247.4</ele><time>2015-04-25T13:24:43.0000000+00:00</time></trkpt><trkpt lat="35.0691086" lon="32.3003725"><ele>244.8</ele><time>2015-04-25T13:24:45.0000000+00:00</time></trkpt><trkpt lat="35.0691489" lon="32.3002907"><ele>242.9</ele><time>2015-04-25T13:24:47.0000000+00:00</time></trkpt><trkpt lat="35.0691931" lon="32.3001972"><ele>241.7</ele><time>2015-04-25T13:24:49.0000000+00:00</time></trkpt><trkpt lat="35.0692156" lon="32.3001138"><ele>241.3</ele><time>2015-04-25T13:24:50.0000000+00:00</time></trkpt><trkpt lat="35.0692446" lon="32.3000196"><ele>240.5</ele><time>2015-04-25T13:24:52.0000000+00:00</time></trkpt><trkpt lat="35.0692738" lon="32.299929"><ele>240.8</ele><time>2015-04-25T13:24:54.0000000+00:00</time></trkpt><trkpt lat="35.0693039" lon="32.2998426"><ele>241.7</ele><time>2015-04-25T13:24:56.0000000+00:00</time></trkpt><trkpt lat="35.0693308" lon="32.2997761"><ele>241.4</ele><time>2015-04-25T13:24:58.0000000+00:00</time></trkpt><trkpt lat="35.0693631" lon="32.299711"><ele>240.8</ele><time>2015-04-25T13:25:00.0000000+00:00</time></trkpt><trkpt lat="35.0693945" lon="32.2996402"><ele>240.9</ele><time>2015-04-25T13:25:02.0000000+00:00</time></trkpt><trkpt lat="35.0694193" lon="32.2995657"><ele>241.2</ele><time>2015-04-25T13:25:04.0000000+00:00</time></trkpt><trkpt lat="35.0694348" lon="32.2994891"><ele>240.2</ele><time>2015-04-25T13:25:06.0000000+00:00</time></trkpt><trkpt lat="35.0694458" lon="32.2994187"><ele>240.8</ele><time>2015-04-25T13:25:08.0000000+00:00</time></trkpt><trkpt lat="35.0694642" lon="32.2993528"><ele>239.4</ele><time>2015-04-25T13:25:10.0000000+00:00</time></trkpt><trkpt lat="35.0694864" lon="32.299292"><ele>239.0</ele><time>2015-04-25T13:25:12.0000000+00:00</time></trkpt><trkpt lat="35.0695206" lon="32.2992481"><ele>239.2</ele><time>2015-04-25T13:25:14.0000000+00:00</time></trkpt><trkpt lat="35.069563" lon="32.2992105"><ele>238.7</ele><time>2015-04-25T13:25:16.0000000+00:00</time></trkpt><trkpt lat="35.0696006" lon="32.2991688"><ele>240.4</ele><time>2015-04-25T13:25:18.0000000+00:00</time></trkpt><trkpt lat="35.0696295" lon="32.2991248"><ele>241.3</ele><time>2015-04-25T13:25:20.0000000+00:00</time></trkpt><trkpt lat="35.0696737" lon="32.2990624"><ele>241.1</ele><time>2015-04-25T13:25:23.0000000+00:00</time></trkpt><trkpt lat="35.0697023" lon="32.29901"><ele>241.0</ele><time>2015-04-25T13:25:25.0000000+00:00</time></trkpt><trkpt lat="35.0697377" lon="32.2989536"><ele>240.9</ele><time>2015-04-25T13:25:27.0000000+00:00</time></trkpt><trkpt lat="35.0697832" lon="32.2989003"><ele>240.9</ele><time>2015-04-25T13:25:29.0000000+00:00</time></trkpt><trkpt lat="35.0698279" lon="32.2988472"><ele>241.7</ele><time>2015-04-25T13:25:31.0000000+00:00</time></trkpt><trkpt lat="35.0698709" lon="32.2987899"><ele>241.9</ele><time>2015-04-25T13:25:33.0000000+00:00</time></trkpt><trkpt lat="35.0699079" lon="32.2987388"><ele>242.4</ele><time>2015-04-25T13:25:35.0000000+00:00</time></trkpt><trkpt lat="35.0699438" lon="32.2986908"><ele>242.1</ele><time>2015-04-25T13:25:37.0000000+00:00</time></trkpt><trkpt lat="35.069971" lon="32.2986378"><ele>242.5</ele><time>2015-04-25T13:25:39.0000000+00:00</time></trkpt><trkpt lat="35.069995" lon="32.2985798"><ele>243.6</ele><time>2015-04-25T13:25:41.0000000+00:00</time></trkpt><trkpt lat="35.0700207" lon="32.2985265"><ele>244.1</ele><time>2015-04-25T13:25:43.0000000+00:00</time></trkpt><trkpt lat="35.0700615" lon="32.2984633"><ele>245.7</ele><time>2015-04-25T13:25:46.0000000+00:00</time></trkpt><trkpt lat="35.0700959" lon="32.2983984"><ele>245.9</ele><time>2015-04-25T13:25:49.0000000+00:00</time></trkpt><trkpt lat="35.0701272" lon="32.2983588"><ele>245.4</ele><time>2015-04-25T13:25:51.0000000+00:00</time></trkpt><trkpt lat="35.0701585" lon="32.2983165"><ele>246.1</ele><time>2015-04-25T13:25:53.0000000+00:00</time></trkpt><trkpt lat="35.0701892" lon="32.2982759"><ele>246.5</ele><time>2015-04-25T13:25:55.0000000+00:00</time></trkpt><trkpt lat="35.0702265" lon="32.2982332"><ele>246.8</ele><time>2015-04-25T13:25:57.0000000+00:00</time></trkpt><trkpt lat="35.0702675" lon="32.2981856"><ele>246.9</ele><time>2015-04-25T13:25:59.0000000+00:00</time></trkpt><trkpt lat="35.0703156" lon="32.2981213"><ele>246.9</ele><time>2015-04-25T13:26:01.0000000+00:00</time></trkpt><trkpt lat="35.0703659" lon="32.2980568"><ele>246.4</ele><time>2015-04-25T13:26:02.0000000+00:00</time></trkpt><trkpt lat="35.0704006" lon="32.29802"><ele>246.2</ele><time>2015-04-25T13:26:03.0000000+00:00</time></trkpt><trkpt lat="35.0704686" lon="32.29797"><ele>246.7</ele><time>2015-04-25T13:26:05.0000000+00:00</time></trkpt><trkpt lat="35.0705454" lon="32.2979406"><ele>248.1</ele><time>2015-04-25T13:26:07.0000000+00:00</time></trkpt><trkpt lat="35.0706102" lon="32.2979344"><ele>248.5</ele><time>2015-04-25T13:26:09.0000000+00:00</time></trkpt><trkpt lat="35.0706559" lon="32.2979358"><ele>248.2</ele><time>2015-04-25T13:26:10.0000000+00:00</time></trkpt><trkpt lat="35.0707385" lon="32.2979103"><ele>248.7</ele><time>2015-04-25T13:26:12.0000000+00:00</time></trkpt><trkpt lat="35.0707859" lon="32.2978942"><ele>248.8</ele><time>2015-04-25T13:26:13.0000000+00:00</time></trkpt><trkpt lat="35.0708291" lon="32.2978784"><ele>248.4</ele><time>2015-04-25T13:26:14.0000000+00:00</time></trkpt><trkpt lat="35.0709163" lon="32.29785"><ele>248.5</ele><time>2015-04-25T13:26:16.0000000+00:00</time></trkpt><trkpt lat="35.0709617" lon="32.2978391"><ele>248.7</ele><time>2015-04-25T13:26:17.0000000+00:00</time></trkpt><trkpt lat="35.0710142" lon="32.2978334"><ele>247.8</ele><time>2015-04-25T13:26:18.0000000+00:00</time></trkpt><trkpt lat="35.0710684" lon="32.2978215"><ele>247.9</ele><time>2015-04-25T13:26:19.0000000+00:00</time></trkpt><trkpt lat="35.0711319" lon="32.2978007"><ele>247.4</ele><time>2015-04-25T13:26:20.0000000+00:00</time></trkpt><trkpt lat="35.0711856" lon="32.2977737"><ele>246.7</ele><time>2015-04-25T13:26:21.0000000+00:00</time></trkpt><trkpt lat="35.0712407" lon="32.2977466"><ele>245.8</ele><time>2015-04-25T13:26:22.0000000+00:00</time></trkpt><trkpt lat="35.0712939" lon="32.297704"><ele>244.9</ele><time>2015-04-25T13:26:23.0000000+00:00</time></trkpt><trkpt lat="35.0713301" lon="32.2976505"><ele>244.4</ele><time>2015-04-25T13:26:24.0000000+00:00</time></trkpt><trkpt lat="35.0713677" lon="32.2975899"><ele>244.2</ele><time>2015-04-25T13:26:25.0000000+00:00</time></trkpt><trkpt lat="35.0713939" lon="32.2975288"><ele>244.0</ele><time>2015-04-25T13:26:26.0000000+00:00</time></trkpt><trkpt lat="35.0714303" lon="32.2974836"><ele>243.5</ele><time>2015-04-25T13:26:27.0000000+00:00</time></trkpt><trkpt lat="35.0714624" lon="32.2974371"><ele>243.2</ele><time>2015-04-25T13:26:28.0000000+00:00</time></trkpt><trkpt lat="35.0715152" lon="32.2973852"><ele>243.0</ele><time>2015-04-25T13:26:30.0000000+00:00</time></trkpt><trkpt lat="35.0715677" lon="32.2973278"><ele>241.7</ele><time>2015-04-25T13:26:32.0000000+00:00</time></trkpt><trkpt lat="35.0716276" lon="32.2972816"><ele>240.6</ele><time>2015-04-25T13:26:34.0000000+00:00</time></trkpt><trkpt lat="35.0716884" lon="32.2972425"><ele>238.9</ele><time>2015-04-25T13:26:36.0000000+00:00</time></trkpt><trkpt lat="35.0717567" lon="32.2972049"><ele>237.2</ele><time>2015-04-25T13:26:38.0000000+00:00</time></trkpt><trkpt lat="35.0718163" lon="32.2971698"><ele>237.0</ele><time>2015-04-25T13:26:40.0000000+00:00</time></trkpt><trkpt lat="35.0718798" lon="32.2971362"><ele>236.2</ele><time>2015-04-25T13:26:42.0000000+00:00</time></trkpt><trkpt lat="35.0719463" lon="32.2971046"><ele>236.5</ele><time>2015-04-25T13:26:44.0000000+00:00</time></trkpt><trkpt lat="35.0720102" lon="32.2970813"><ele>236.8</ele><time>2015-04-25T13:26:46.0000000+00:00</time></trkpt><trkpt lat="35.0720665" lon="32.2970439"><ele>238.4</ele><time>2015-04-25T13:26:48.0000000+00:00</time></trkpt><trkpt lat="35.0721054" lon="32.2969951"><ele>239.0</ele><time>2015-04-25T13:26:50.0000000+00:00</time></trkpt><trkpt lat="35.0721457" lon="32.2969551"><ele>238.2</ele><time>2015-04-25T13:26:52.0000000+00:00</time></trkpt><trkpt lat="35.0721812" lon="32.296919"><ele>237.5</ele><time>2015-04-25T13:26:54.0000000+00:00</time></trkpt><trkpt lat="35.0722215" lon="32.2968686"><ele>236.5</ele><time>2015-04-25T13:26:57.0000000+00:00</time></trkpt><trkpt lat="35.0722778" lon="32.2968325"><ele>235.3</ele><time>2015-04-25T13:27:00.0000000+00:00</time></trkpt><trkpt lat="35.0723302" lon="32.2968174"><ele>235.5</ele><time>2015-04-25T13:27:02.0000000+00:00</time></trkpt><trkpt lat="35.0723893" lon="32.2968036"><ele>235.1</ele><time>2015-04-25T13:27:04.0000000+00:00</time></trkpt><trkpt lat="35.0724501" lon="32.2967822"><ele>233.7</ele><time>2015-04-25T13:27:06.0000000+00:00</time></trkpt><trkpt lat="35.0725202" lon="32.2967389"><ele>233.4</ele><time>2015-04-25T13:27:08.0000000+00:00</time></trkpt><trkpt lat="35.0725937" lon="32.2966783"><ele>233.8</ele><time>2015-04-25T13:27:10.0000000+00:00</time></trkpt><trkpt lat="35.0726682" lon="32.2966225"><ele>234.6</ele><time>2015-04-25T13:27:12.0000000+00:00</time></trkpt><trkpt lat="35.0727397" lon="32.296586"><ele>235.1</ele><time>2015-04-25T13:27:14.0000000+00:00</time></trkpt><trkpt lat="35.0728012" lon="32.2965478"><ele>234.7</ele><time>2015-04-25T13:27:16.0000000+00:00</time></trkpt><trkpt lat="35.0728492" lon="32.296504"><ele>235.6</ele><time>2015-04-25T13:27:18.0000000+00:00</time></trkpt><trkpt lat="35.0728851" lon="32.2964586"><ele>235.9</ele><time>2015-04-25T13:27:20.0000000+00:00</time></trkpt><trkpt lat="35.0729212" lon="32.2964017"><ele>235.0</ele><time>2015-04-25T13:27:23.0000000+00:00</time></trkpt><trkpt lat="35.0729634" lon="32.2963402"><ele>233.8</ele><time>2015-04-25T13:27:26.0000000+00:00</time></trkpt><trkpt lat="35.073014" lon="32.2963071"><ele>233.9</ele><time>2015-04-25T13:27:29.0000000+00:00</time></trkpt><trkpt lat="35.0730577" lon="32.2962932"><ele>234.4</ele><time>2015-04-25T13:27:31.0000000+00:00</time></trkpt><trkpt lat="35.0731165" lon="32.2962759"><ele>235.3</ele><time>2015-04-25T13:27:33.0000000+00:00</time></trkpt><trkpt lat="35.0731849" lon="32.2962498"><ele>235.8</ele><time>2015-04-25T13:27:35.0000000+00:00</time></trkpt><trkpt lat="35.0732601" lon="32.2962094"><ele>235.1</ele><time>2015-04-25T13:27:37.0000000+00:00</time></trkpt><trkpt lat="35.0733344" lon="32.2961612"><ele>234.5</ele><time>2015-04-25T13:27:39.0000000+00:00</time></trkpt><trkpt lat="35.0734134" lon="32.2961319"><ele>234.8</ele><time>2015-04-25T13:27:41.0000000+00:00</time></trkpt><trkpt lat="35.0734871" lon="32.2961108"><ele>236.2</ele><time>2015-04-25T13:27:43.0000000+00:00</time></trkpt><trkpt lat="35.0735457" lon="32.296075"><ele>238.0</ele><time>2015-04-25T13:27:45.0000000+00:00</time></trkpt><trkpt lat="35.0735907" lon="32.2960317"><ele>236.9</ele><time>2015-04-25T13:27:47.0000000+00:00</time></trkpt><trkpt lat="35.0736314" lon="32.2959773"><ele>235.7</ele><time>2015-04-25T13:27:49.0000000+00:00</time></trkpt><trkpt lat="35.0736683" lon="32.2959256"><ele>235.9</ele><time>2015-04-25T13:27:51.0000000+00:00</time></trkpt><trkpt lat="35.0737093" lon="32.2958856"><ele>235.4</ele><time>2015-04-25T13:27:53.0000000+00:00</time></trkpt><trkpt lat="35.0737571" lon="32.2958549"><ele>233.8</ele><time>2015-04-25T13:27:55.0000000+00:00</time></trkpt><trkpt lat="35.0738005" lon="32.2958126"><ele>233.1</ele><time>2015-04-25T13:27:57.0000000+00:00</time></trkpt><trkpt lat="35.0738416" lon="32.2957654"><ele>232.2</ele><time>2015-04-25T13:27:59.0000000+00:00</time></trkpt><trkpt lat="35.0738818" lon="32.295718"><ele>230.8</ele><time>2015-04-25T13:28:01.0000000+00:00</time></trkpt><trkpt lat="35.0739235" lon="32.2956774"><ele>230.1</ele><time>2015-04-25T13:28:03.0000000+00:00</time></trkpt><trkpt lat="35.0739783" lon="32.295657"><ele>230.2</ele><time>2015-04-25T13:28:05.0000000+00:00</time></trkpt><trkpt lat="35.0740325" lon="32.2956578"><ele>230.5</ele><time>2015-04-25T13:28:07.0000000+00:00</time></trkpt><trkpt lat="35.0740878" lon="32.2956665"><ele>230.8</ele><time>2015-04-25T13:28:09.0000000+00:00</time></trkpt><trkpt lat="35.074141" lon="32.2956679"><ele>230.7</ele><time>2015-04-25T13:28:11.0000000+00:00</time></trkpt><trkpt lat="35.0741967" lon="32.295663"><ele>229.6</ele><time>2015-04-25T13:28:13.0000000+00:00</time></trkpt><trkpt lat="35.0742485" lon="32.2956593"><ele>228.6</ele><time>2015-04-25T13:28:15.0000000+00:00</time></trkpt><trkpt lat="35.0742985" lon="32.295654"><ele>227.3</ele><time>2015-04-25T13:28:17.0000000+00:00</time></trkpt><trkpt lat="35.074348" lon="32.2956369"><ele>226.1</ele><time>2015-04-25T13:28:20.0000000+00:00</time></trkpt><trkpt lat="35.0743931" lon="32.2956242"><ele>224.8</ele><time>2015-04-25T13:28:24.0000000+00:00</time></trkpt><trkpt lat="35.0744419" lon="32.2956163"><ele>224.2</ele><time>2015-04-25T13:28:27.0000000+00:00</time></trkpt><trkpt lat="35.0744928" lon="32.2956018"><ele>223.5</ele><time>2015-04-25T13:28:29.0000000+00:00</time></trkpt><trkpt lat="35.0745461" lon="32.2955844"><ele>222.6</ele><time>2015-04-25T13:28:31.0000000+00:00</time></trkpt><trkpt lat="35.0745935" lon="32.2955612"><ele>220.8</ele><time>2015-04-25T13:28:33.0000000+00:00</time></trkpt><trkpt lat="35.0746312" lon="32.2955302"><ele>220.9</ele><time>2015-04-25T13:28:35.0000000+00:00</time></trkpt><trkpt lat="35.0746684" lon="32.2954599"><ele>221.3</ele><time>2015-04-25T13:28:38.0000000+00:00</time></trkpt><trkpt lat="35.0746971" lon="32.2953942"><ele>219.8</ele><time>2015-04-25T13:28:40.0000000+00:00</time></trkpt><trkpt lat="35.074742" lon="32.295303"><ele>218.9</ele><time>2015-04-25T13:28:41.0000000+00:00</time></trkpt><trkpt lat="35.0747752" lon="32.2952394"><ele>218.4</ele><time>2015-04-25T13:28:42.0000000+00:00</time></trkpt><trkpt lat="35.0748021" lon="32.2951681"><ele>217.7</ele><time>2015-04-25T13:28:43.0000000+00:00</time></trkpt><trkpt lat="35.0748268" lon="32.2950861"><ele>216.3</ele><time>2015-04-25T13:28:44.0000000+00:00</time></trkpt><trkpt lat="35.0748616" lon="32.2950038"><ele>215.1</ele><time>2015-04-25T13:28:45.0000000+00:00</time></trkpt><trkpt lat="35.0748944" lon="32.2949338"><ele>214.5</ele><time>2015-04-25T13:28:46.0000000+00:00</time></trkpt><trkpt lat="35.0749452" lon="32.2948374"><ele>213.2</ele><time>2015-04-25T13:28:47.0000000+00:00</time></trkpt><trkpt lat="35.0749785" lon="32.2947415"><ele>212.6</ele><time>2015-04-25T13:28:48.0000000+00:00</time></trkpt><trkpt lat="35.0750093" lon="32.2946608"><ele>212.3</ele><time>2015-04-25T13:28:49.0000000+00:00</time></trkpt><trkpt lat="35.0750463" lon="32.294575"><ele>211.6</ele><time>2015-04-25T13:28:50.0000000+00:00</time></trkpt><trkpt lat="35.0750996" lon="32.2944989"><ele>210.8</ele><time>2015-04-25T13:28:51.0000000+00:00</time></trkpt><trkpt lat="35.0751685" lon="32.2944566"><ele>209.8</ele><time>2015-04-25T13:28:52.0000000+00:00</time></trkpt><trkpt lat="35.0752313" lon="32.2944045"><ele>209.4</ele><time>2015-04-25T13:28:53.0000000+00:00</time></trkpt><trkpt lat="35.0752947" lon="32.2943595"><ele>209.7</ele><time>2015-04-25T13:28:54.0000000+00:00</time></trkpt><trkpt lat="35.0753474" lon="32.2943084"><ele>209.8</ele><time>2015-04-25T13:28:55.0000000+00:00</time></trkpt><trkpt lat="35.0753945" lon="32.294243"><ele>209.4</ele><time>2015-04-25T13:28:56.0000000+00:00</time></trkpt><trkpt lat="35.0754313" lon="32.2941864"><ele>209.1</ele><time>2015-04-25T13:28:57.0000000+00:00</time></trkpt><trkpt lat="35.0754704" lon="32.2941335"><ele>209.0</ele><time>2015-04-25T13:28:58.0000000+00:00</time></trkpt><trkpt lat="35.0755024" lon="32.2940717"><ele>209.0</ele><time>2015-04-25T13:28:59.0000000+00:00</time></trkpt><trkpt lat="35.0755363" lon="32.2940107"><ele>209.0</ele><time>2015-04-25T13:29:00.0000000+00:00</time></trkpt><trkpt lat="35.0755696" lon="32.2939625"><ele>208.9</ele><time>2015-04-25T13:29:01.0000000+00:00</time></trkpt><trkpt lat="35.0756071" lon="32.2939018"><ele>208.9</ele><time>2015-04-25T13:29:02.0000000+00:00</time></trkpt><trkpt lat="35.0756468" lon="32.2938568"><ele>208.9</ele><time>2015-04-25T13:29:03.0000000+00:00</time></trkpt><trkpt lat="35.0756886" lon="32.2938126"><ele>209.4</ele><time>2015-04-25T13:29:04.0000000+00:00</time></trkpt><trkpt lat="35.075731" lon="32.2937612"><ele>210.2</ele><time>2015-04-25T13:29:05.0000000+00:00</time></trkpt><trkpt lat="35.0757717" lon="32.2937269"><ele>210.1</ele><time>2015-04-25T13:29:06.0000000+00:00</time></trkpt><trkpt lat="35.0758069" lon="32.2936926"><ele>210.0</ele><time>2015-04-25T13:29:07.0000000+00:00</time></trkpt><trkpt lat="35.0758542" lon="32.2936474"><ele>211.0</ele><time>2015-04-25T13:29:08.0000000+00:00</time></trkpt><trkpt lat="35.0758884" lon="32.2936034"><ele>211.9</ele><time>2015-04-25T13:29:09.0000000+00:00</time></trkpt><trkpt lat="35.0759503" lon="32.2935235"><ele>213.9</ele><time>2015-04-25T13:29:11.0000000+00:00</time></trkpt><trkpt lat="35.075978" lon="32.293463"><ele>214.4</ele><time>2015-04-25T13:29:12.0000000+00:00</time></trkpt><trkpt lat="35.0760129" lon="32.2934083"><ele>214.2</ele><time>2015-04-25T13:29:13.0000000+00:00</time></trkpt><trkpt lat="35.076042" lon="32.2933586"><ele>214.1</ele><time>2015-04-25T13:29:14.0000000+00:00</time></trkpt><trkpt lat="35.076079" lon="32.2933017"><ele>213.5</ele><time>2015-04-25T13:29:15.0000000+00:00</time></trkpt><trkpt lat="35.07612" lon="32.2932469"><ele>213.2</ele><time>2015-04-25T13:29:16.0000000+00:00</time></trkpt><trkpt lat="35.0761565" lon="32.2932033"><ele>213.6</ele><time>2015-04-25T13:29:17.0000000+00:00</time></trkpt><trkpt lat="35.0762002" lon="32.2931738"><ele>213.3</ele><time>2015-04-25T13:29:18.0000000+00:00</time></trkpt><trkpt lat="35.0762437" lon="32.29314"><ele>212.6</ele><time>2015-04-25T13:29:19.0000000+00:00</time></trkpt><trkpt lat="35.0762845" lon="32.2931072"><ele>212.8</ele><time>2015-04-25T13:29:20.0000000+00:00</time></trkpt><trkpt lat="35.0763499" lon="32.2930486"><ele>213.6</ele><time>2015-04-25T13:29:22.0000000+00:00</time></trkpt><trkpt lat="35.0764135" lon="32.2929955"><ele>214.6</ele><time>2015-04-25T13:29:24.0000000+00:00</time></trkpt><trkpt lat="35.07645" lon="32.2929582"><ele>215.3</ele><time>2015-04-25T13:29:25.0000000+00:00</time></trkpt><trkpt lat="35.076484" lon="32.2929174"><ele>215.6</ele><time>2015-04-25T13:29:26.0000000+00:00</time></trkpt><trkpt lat="35.076519" lon="32.2928746"><ele>215.8</ele><time>2015-04-25T13:29:27.0000000+00:00</time></trkpt><trkpt lat="35.0765605" lon="32.2928398"><ele>216.8</ele><time>2015-04-25T13:29:28.0000000+00:00</time></trkpt><trkpt lat="35.0766161" lon="32.2927889"><ele>217.9</ele><time>2015-04-25T13:29:30.0000000+00:00</time></trkpt><trkpt lat="35.0766652" lon="32.2927451"><ele>217.9</ele><time>2015-04-25T13:29:32.0000000+00:00</time></trkpt><trkpt lat="35.0767074" lon="32.2927117"><ele>215.2</ele><time>2015-04-25T13:30:23.0000000+00:00</time></trkpt><trkpt lat="35.0767575" lon="32.2926635"><ele>213.6</ele><time>2015-04-25T13:30:28.0000000+00:00</time></trkpt><trkpt lat="35.0767992" lon="32.2926185"><ele>213.1</ele><time>2015-04-25T13:30:30.0000000+00:00</time></trkpt><trkpt lat="35.0768439" lon="32.2925646"><ele>214.2</ele><time>2015-04-25T13:30:32.0000000+00:00</time></trkpt><trkpt lat="35.0768844" lon="32.2925158"><ele>214.5</ele><time>2015-04-25T13:30:34.0000000+00:00</time></trkpt><trkpt lat="35.0769298" lon="32.2924691"><ele>214.8</ele><time>2015-04-25T13:30:36.0000000+00:00</time></trkpt><trkpt lat="35.0769745" lon="32.2924181"><ele>214.2</ele><time>2015-04-25T13:30:38.0000000+00:00</time></trkpt><trkpt lat="35.0770113" lon="32.2923637"><ele>214.5</ele><time>2015-04-25T13:30:40.0000000+00:00</time></trkpt><trkpt lat="35.0770452" lon="32.2923156"><ele>214.8</ele><time>2015-04-25T13:30:42.0000000+00:00</time></trkpt><trkpt lat="35.077077" lon="32.2922654"><ele>214.4</ele><time>2015-04-25T13:30:44.0000000+00:00</time></trkpt><trkpt lat="35.0771158" lon="32.2922195"><ele>214.3</ele><time>2015-04-25T13:30:46.0000000+00:00</time></trkpt><trkpt lat="35.0771586" lon="32.2921723"><ele>214.8</ele><time>2015-04-25T13:30:48.0000000+00:00</time></trkpt><trkpt lat="35.0772025" lon="32.2921334"><ele>214.9</ele><time>2015-04-25T13:30:50.0000000+00:00</time></trkpt><trkpt lat="35.0772462" lon="32.2920934"><ele>214.4</ele><time>2015-04-25T13:30:52.0000000+00:00</time></trkpt><trkpt lat="35.0772835" lon="32.2920542"><ele>214.1</ele><time>2015-04-25T13:30:54.0000000+00:00</time></trkpt><trkpt lat="35.0773252" lon="32.2920219"><ele>213.4</ele><time>2015-04-25T13:30:57.0000000+00:00</time></trkpt><trkpt lat="35.0773605" lon="32.2919852"><ele>213.7</ele><time>2015-04-25T13:31:00.0000000+00:00</time></trkpt><trkpt lat="35.0773962" lon="32.2919484"><ele>213.9</ele><time>2015-04-25T13:31:03.0000000+00:00</time></trkpt><trkpt lat="35.0774278" lon="32.291909"><ele>213.4</ele><time>2015-04-25T13:31:06.0000000+00:00</time></trkpt><trkpt lat="35.0774438" lon="32.2918523"><ele>210.4</ele><time>2015-04-25T13:31:54.0000000+00:00</time></trkpt><trkpt lat="35.0774856" lon="32.2917849"><ele>208.7</ele><time>2015-04-25T13:31:57.0000000+00:00</time></trkpt><trkpt lat="35.07752" lon="32.2917385"><ele>207.4</ele><time>2015-04-25T13:31:59.0000000+00:00</time></trkpt><trkpt lat="35.0775549" lon="32.2916888"><ele>206.5</ele><time>2015-04-25T13:32:01.0000000+00:00</time></trkpt><trkpt lat="35.0775924" lon="32.2916289"><ele>205.3</ele><time>2015-04-25T13:32:03.0000000+00:00</time></trkpt><trkpt lat="35.0776346" lon="32.2915645"><ele>205.8</ele><time>2015-04-25T13:32:05.0000000+00:00</time></trkpt><trkpt lat="35.0776789" lon="32.2914967"><ele>205.1</ele><time>2015-04-25T13:32:07.0000000+00:00</time></trkpt><trkpt lat="35.0777082" lon="32.2914542"><ele>204.5</ele><time>2015-04-25T13:32:08.0000000+00:00</time></trkpt><trkpt lat="35.0777694" lon="32.2913747"><ele>203.7</ele><time>2015-04-25T13:32:09.0000000+00:00</time></trkpt><trkpt lat="35.077817" lon="32.2913136"><ele>203.8</ele><time>2015-04-25T13:32:10.0000000+00:00</time></trkpt><trkpt lat="35.0778635" lon="32.2912664"><ele>201.9</ele><time>2015-04-25T13:32:11.0000000+00:00</time></trkpt><trkpt lat="35.0779016" lon="32.2911965"><ele>200.9</ele><time>2015-04-25T13:32:12.0000000+00:00</time></trkpt><trkpt lat="35.0779439" lon="32.291142"><ele>199.9</ele><time>2015-04-25T13:32:13.0000000+00:00</time></trkpt><trkpt lat="35.0779804" lon="32.2910851"><ele>199.4</ele><time>2015-04-25T13:32:14.0000000+00:00</time></trkpt><trkpt lat="35.0780063" lon="32.2910338"><ele>198.7</ele><time>2015-04-25T13:32:15.0000000+00:00</time></trkpt><trkpt lat="35.0780347" lon="32.2909696"><ele>197.8</ele><time>2015-04-25T13:32:16.0000000+00:00</time></trkpt><trkpt lat="35.0780665" lon="32.2909058"><ele>197.4</ele><time>2015-04-25T13:32:17.0000000+00:00</time></trkpt><trkpt lat="35.0780986" lon="32.2908408"><ele>197.1</ele><time>2015-04-25T13:32:18.0000000+00:00</time></trkpt><trkpt lat="35.0781349" lon="32.2907793"><ele>197.0</ele><time>2015-04-25T13:32:19.0000000+00:00</time></trkpt><trkpt lat="35.0781697" lon="32.2907161"><ele>196.5</ele><time>2015-04-25T13:32:20.0000000+00:00</time></trkpt><trkpt lat="35.07821" lon="32.2906612"><ele>197.2</ele><time>2015-04-25T13:32:21.0000000+00:00</time></trkpt><trkpt lat="35.0782521" lon="32.2906123"><ele>197.6</ele><time>2015-04-25T13:32:22.0000000+00:00</time></trkpt><trkpt lat="35.0782925" lon="32.2905586"><ele>197.7</ele><time>2015-04-25T13:32:23.0000000+00:00</time></trkpt><trkpt lat="35.0783363" lon="32.2904983"><ele>197.3</ele><time>2015-04-25T13:32:24.0000000+00:00</time></trkpt><trkpt lat="35.0783784" lon="32.2904366"><ele>196.6</ele><time>2015-04-25T13:32:25.0000000+00:00</time></trkpt><trkpt lat="35.0784174" lon="32.2903743"><ele>196.3</ele><time>2015-04-25T13:32:26.0000000+00:00</time></trkpt><trkpt lat="35.0784494" lon="32.2903208"><ele>196.1</ele><time>2015-04-25T13:32:27.0000000+00:00</time></trkpt><trkpt lat="35.078479" lon="32.2902664"><ele>195.5</ele><time>2015-04-25T13:32:28.0000000+00:00</time></trkpt><trkpt lat="35.0785042" lon="32.2902075"><ele>194.7</ele><time>2015-04-25T13:32:29.0000000+00:00</time></trkpt><trkpt lat="35.0785258" lon="32.2901281"><ele>194.8</ele><time>2015-04-25T13:32:30.0000000+00:00</time></trkpt><trkpt lat="35.0785311" lon="32.2900517"><ele>194.9</ele><time>2015-04-25T13:32:31.0000000+00:00</time></trkpt><trkpt lat="35.0785358" lon="32.2899694"><ele>194.9</ele><time>2015-04-25T13:32:32.0000000+00:00</time></trkpt><trkpt lat="35.0785352" lon="32.2898998"><ele>194.4</ele><time>2015-04-25T13:32:33.0000000+00:00</time></trkpt><trkpt lat="35.0785373" lon="32.2898284"><ele>193.7</ele><time>2015-04-25T13:32:34.0000000+00:00</time></trkpt><trkpt lat="35.0785361" lon="32.2897562"><ele>192.8</ele><time>2015-04-25T13:32:35.0000000+00:00</time></trkpt><trkpt lat="35.0785379" lon="32.2896929"><ele>192.4</ele><time>2015-04-25T13:32:36.0000000+00:00</time></trkpt><trkpt lat="35.0785478" lon="32.2896349"><ele>191.6</ele><time>2015-04-25T13:32:37.0000000+00:00</time></trkpt><trkpt lat="35.0785779" lon="32.2895341"><ele>191.9</ele><time>2015-04-25T13:32:39.0000000+00:00</time></trkpt><trkpt lat="35.0786268" lon="32.2894535"><ele>191.2</ele><time>2015-04-25T13:32:41.0000000+00:00</time></trkpt><trkpt lat="35.0786749" lon="32.2893985"><ele>192.0</ele><time>2015-04-25T13:32:43.0000000+00:00</time></trkpt><trkpt lat="35.0787384" lon="32.2893548"><ele>190.2</ele><time>2015-04-25T13:32:45.0000000+00:00</time></trkpt><trkpt lat="35.0787754" lon="32.2893197"><ele>190.0</ele><time>2015-04-25T13:32:47.0000000+00:00</time></trkpt><trkpt lat="35.0788352" lon="32.2892828"><ele>191.8</ele><time>2015-04-25T13:32:50.0000000+00:00</time></trkpt><trkpt lat="35.0788903" lon="32.289265"><ele>192.7</ele><time>2015-04-25T13:32:52.0000000+00:00</time></trkpt><trkpt lat="35.0789536" lon="32.2892547"><ele>192.1</ele><time>2015-04-25T13:32:54.0000000+00:00</time></trkpt><trkpt lat="35.0790246" lon="32.2892468"><ele>191.5</ele><time>2015-04-25T13:32:56.0000000+00:00</time></trkpt><trkpt lat="35.0791016" lon="32.2892554"><ele>190.8</ele><time>2015-04-25T13:32:58.0000000+00:00</time></trkpt><trkpt lat="35.0791732" lon="32.2892734"><ele>190.9</ele><time>2015-04-25T13:32:59.0000000+00:00</time></trkpt><trkpt lat="35.07922" lon="32.2892686"><ele>190.9</ele><time>2015-04-25T13:33:00.0000000+00:00</time></trkpt><trkpt lat="35.0792678" lon="32.2892655"><ele>190.9</ele><time>2015-04-25T13:33:01.0000000+00:00</time></trkpt><trkpt lat="35.0793132" lon="32.2892616"><ele>190.4</ele><time>2015-04-25T13:33:02.0000000+00:00</time></trkpt><trkpt lat="35.0793618" lon="32.2892513"><ele>189.7</ele><time>2015-04-25T13:33:03.0000000+00:00</time></trkpt><trkpt lat="35.0794195" lon="32.2892337"><ele>188.8</ele><time>2015-04-25T13:33:04.0000000+00:00</time></trkpt><trkpt lat="35.0794748" lon="32.2892171"><ele>187.9</ele><time>2015-04-25T13:33:05.0000000+00:00</time></trkpt><trkpt lat="35.0795211" lon="32.2891937"><ele>187.9</ele><time>2015-04-25T13:33:06.0000000+00:00</time></trkpt><trkpt lat="35.0795921" lon="32.2891142"><ele>187.9</ele><time>2015-04-25T13:33:08.0000000+00:00</time></trkpt><trkpt lat="35.0796354" lon="32.289075"><ele>187.4</ele><time>2015-04-25T13:33:09.0000000+00:00</time></trkpt><trkpt lat="35.0796699" lon="32.2890334"><ele>186.7</ele><time>2015-04-25T13:33:10.0000000+00:00</time></trkpt><trkpt lat="35.0797164" lon="32.288943"><ele>184.9</ele><time>2015-04-25T13:33:12.0000000+00:00</time></trkpt><trkpt lat="35.079744" lon="32.288895"><ele>184.4</ele><time>2015-04-25T13:33:13.0000000+00:00</time></trkpt><trkpt lat="35.0797707" lon="32.288843"><ele>184.2</ele><time>2015-04-25T13:33:14.0000000+00:00</time></trkpt><trkpt lat="35.079806" lon="32.2887464"><ele>185.2</ele><time>2015-04-25T13:33:16.0000000+00:00</time></trkpt><trkpt lat="35.0798241" lon="32.2886874"><ele>185.6</ele><time>2015-04-25T13:33:17.0000000+00:00</time></trkpt><trkpt lat="35.079849" lon="32.2886375"><ele>185.3</ele><time>2015-04-25T13:33:18.0000000+00:00</time></trkpt><trkpt lat="35.0798724" lon="32.288586"><ele>184.6</ele><time>2015-04-25T13:33:19.0000000+00:00</time></trkpt><trkpt lat="35.0798951" lon="32.2885336"><ele>183.3</ele><time>2015-04-25T13:33:20.0000000+00:00</time></trkpt><trkpt lat="35.0799346" lon="32.2884337"><ele>182.5</ele><time>2015-04-25T13:33:22.0000000+00:00</time></trkpt><trkpt lat="35.079983" lon="32.288346"><ele>181.6</ele><time>2015-04-25T13:33:24.0000000+00:00</time></trkpt><trkpt lat="35.0800111" lon="32.2882943"><ele>180.8</ele><time>2015-04-25T13:33:25.0000000+00:00</time></trkpt><trkpt lat="35.0800251" lon="32.2882229"><ele>179.6</ele><time>2015-04-25T13:33:27.0000000+00:00</time></trkpt><trkpt lat="35.0800426" lon="32.2881594"><ele>179.1</ele><time>2015-04-25T13:33:29.0000000+00:00</time></trkpt><trkpt lat="35.0800722" lon="32.2880832"><ele>180.3</ele><time>2015-04-25T13:33:32.0000000+00:00</time></trkpt><trkpt lat="35.0801006" lon="32.2880252"><ele>179.5</ele><time>2015-04-25T13:33:34.0000000+00:00</time></trkpt><trkpt lat="35.0801421" lon="32.2879802"><ele>177.6</ele><time>2015-04-25T13:33:36.0000000+00:00</time></trkpt><trkpt lat="35.0801826" lon="32.2879564"><ele>177.1</ele><time>2015-04-25T13:33:38.0000000+00:00</time></trkpt><trkpt lat="35.0802311" lon="32.2879228"><ele>176.5</ele><time>2015-04-25T13:33:41.0000000+00:00</time></trkpt><trkpt lat="35.0802852" lon="32.2879124"><ele>177.6</ele><time>2015-04-25T13:33:44.0000000+00:00</time></trkpt><trkpt lat="35.0803354" lon="32.2878947"><ele>177.1</ele><time>2015-04-25T13:33:47.0000000+00:00</time></trkpt><trkpt lat="35.0803872" lon="32.2878925"><ele>177.7</ele><time>2015-04-25T13:33:50.0000000+00:00</time></trkpt><trkpt lat="35.0804333" lon="32.2878845"><ele>178.8</ele><time>2015-04-25T13:33:53.0000000+00:00</time></trkpt><trkpt lat="35.0804781" lon="32.2878328"><ele>178.9</ele><time>2015-04-25T13:33:57.0000000+00:00</time></trkpt><trkpt lat="35.0805025" lon="32.2877783"><ele>180.2</ele><time>2015-04-25T13:34:00.0000000+00:00</time></trkpt><trkpt lat="35.0805268" lon="32.2877226"><ele>179.7</ele><time>2015-04-25T13:34:03.0000000+00:00</time></trkpt><trkpt lat="35.0805503" lon="32.2876733"><ele>180.4</ele><time>2015-04-25T13:34:06.0000000+00:00</time></trkpt><trkpt lat="35.0805788" lon="32.2876162"><ele>180.7</ele><time>2015-04-25T13:34:10.0000000+00:00</time></trkpt><trkpt lat="35.0806265" lon="32.2876076"><ele>181.0</ele><time>2015-04-25T13:34:14.0000000+00:00</time></trkpt><trkpt lat="35.0806733" lon="32.2875784"><ele>181.2</ele><time>2015-04-25T13:34:18.0000000+00:00</time></trkpt><trkpt lat="35.0807185" lon="32.2875392"><ele>181.1</ele><time>2015-04-25T13:34:22.0000000+00:00</time></trkpt><trkpt lat="35.0807483" lon="32.2874847"><ele>182.3</ele><time>2015-04-25T13:34:26.0000000+00:00</time></trkpt><trkpt lat="35.0807848" lon="32.2874443"><ele>181.8</ele><time>2015-04-25T13:34:31.0000000+00:00</time></trkpt><trkpt lat="35.0808231" lon="32.2874056"><ele>181.7</ele><time>2015-04-25T13:34:36.0000000+00:00</time></trkpt><trkpt lat="35.0808601" lon="32.2873716"><ele>179.6</ele><time>2015-04-25T13:34:40.0000000+00:00</time></trkpt><trkpt lat="35.080822" lon="32.2874009"><ele>180.8</ele><time>2015-04-25T13:35:06.0000000+00:00</time></trkpt><trkpt lat="35.0808732" lon="32.2873741"><ele>178.4</ele><time>2015-04-25T13:35:38.0000000+00:00</time></trkpt><trkpt lat="35.0809141" lon="32.2873413"><ele>178.7</ele><time>2015-04-25T13:35:42.0000000+00:00</time></trkpt><trkpt lat="35.0809718" lon="32.2873418"><ele>179.1</ele><time>2015-04-25T13:35:46.0000000+00:00</time></trkpt><trkpt lat="35.0810229" lon="32.2873159"><ele>178.2</ele><time>2015-04-25T13:35:50.0000000+00:00</time></trkpt><trkpt lat="35.0810778" lon="32.2872942"><ele>178.7</ele><time>2015-04-25T13:35:54.0000000+00:00</time></trkpt><trkpt lat="35.0811292" lon="32.2872732"><ele>180.4</ele><time>2015-04-25T13:35:58.0000000+00:00</time></trkpt><trkpt lat="35.0811857" lon="32.2872526"><ele>179.3</ele><time>2015-04-25T13:36:02.0000000+00:00</time></trkpt><trkpt lat="35.0812382" lon="32.2872276"><ele>178.2</ele><time>2015-04-25T13:36:06.0000000+00:00</time></trkpt><trkpt lat="35.081283" lon="32.2872113"><ele>177.1</ele><time>2015-04-25T13:36:09.0000000+00:00</time></trkpt><trkpt lat="35.0813358" lon="32.2871958"><ele>177.8</ele><time>2015-04-25T13:36:13.0000000+00:00</time></trkpt><trkpt lat="35.081391" lon="32.2872107"><ele>179.5</ele><time>2015-04-25T13:36:18.0000000+00:00</time></trkpt><trkpt lat="35.0814406" lon="32.2872352"><ele>178.1</ele><time>2015-04-25T13:36:22.0000000+00:00</time></trkpt><trkpt lat="35.0814907" lon="32.28724"><ele>176.4</ele><time>2015-04-25T13:36:26.0000000+00:00</time></trkpt><trkpt lat="35.0815375" lon="32.2872364"><ele>175.3</ele><time>2015-04-25T13:36:30.0000000+00:00</time></trkpt><trkpt lat="35.081585" lon="32.2872376"><ele>176.6</ele><time>2015-04-25T13:36:34.0000000+00:00</time></trkpt><trkpt lat="35.0816302" lon="32.2872346"><ele>177.4</ele><time>2015-04-25T13:36:38.0000000+00:00</time></trkpt><trkpt lat="35.0816878" lon="32.2872292"><ele>177.5</ele><time>2015-04-25T13:36:42.0000000+00:00</time></trkpt><trkpt lat="35.0817349" lon="32.2872123"><ele>177.5</ele><time>2015-04-25T13:36:45.0000000+00:00</time></trkpt><trkpt lat="35.0817816" lon="32.2872047"><ele>179.5</ele><time>2015-04-25T13:36:48.0000000+00:00</time></trkpt><trkpt lat="35.0818283" lon="32.2872073"><ele>182.9</ele><time>2015-04-25T13:36:51.0000000+00:00</time></trkpt><trkpt lat="35.0818804" lon="32.2872082"><ele>185.0</ele><time>2015-04-25T13:36:54.0000000+00:00</time></trkpt><trkpt lat="35.0819348" lon="32.2871979"><ele>185.8</ele><time>2015-04-25T13:36:57.0000000+00:00</time></trkpt><trkpt lat="35.0819834" lon="32.2871829"><ele>185.4</ele><time>2015-04-25T13:37:00.0000000+00:00</time></trkpt><trkpt lat="35.0820299" lon="32.2871673"><ele>184.5</ele><time>2015-04-25T13:37:03.0000000+00:00</time></trkpt><trkpt lat="35.0820795" lon="32.2871895"><ele>182.6</ele><time>2015-04-25T13:37:06.0000000+00:00</time></trkpt><trkpt lat="35.0821273" lon="32.2872143"><ele>182.8</ele><time>2015-04-25T13:37:09.0000000+00:00</time></trkpt><trkpt lat="35.082174" lon="32.287238"><ele>184.5</ele><time>2015-04-25T13:37:12.0000000+00:00</time></trkpt><trkpt lat="35.0822265" lon="32.2872572"><ele>185.8</ele><time>2015-04-25T13:37:15.0000000+00:00</time></trkpt><trkpt lat="35.0822815" lon="32.287266"><ele>185.9</ele><time>2015-04-25T13:37:18.0000000+00:00</time></trkpt><trkpt lat="35.0823403" lon="32.2872646"><ele>188.1</ele><time>2015-04-25T13:37:21.0000000+00:00</time></trkpt><trkpt lat="35.0824037" lon="32.2872656"><ele>188.3</ele><time>2015-04-25T13:37:24.0000000+00:00</time></trkpt><trkpt lat="35.0824674" lon="32.2872579"><ele>188.5</ele><time>2015-04-25T13:37:27.0000000+00:00</time></trkpt><trkpt lat="35.0825158" lon="32.2872573"><ele>188.1</ele><time>2015-04-25T13:37:30.0000000+00:00</time></trkpt><trkpt lat="35.0825752" lon="32.2872501"><ele>187.4</ele><time>2015-04-25T13:37:34.0000000+00:00</time></trkpt><trkpt lat="35.0826331" lon="32.2872343"><ele>188.3</ele><time>2015-04-25T13:37:38.0000000+00:00</time></trkpt><trkpt lat="35.0826796" lon="32.2872306"><ele>187.6</ele><time>2015-04-25T13:37:41.0000000+00:00</time></trkpt><trkpt lat="35.0827339" lon="32.2872254"><ele>187.9</ele><time>2015-04-25T13:37:44.0000000+00:00</time></trkpt><trkpt lat="35.0827802" lon="32.287215"><ele>188.9</ele><time>2015-04-25T13:37:47.0000000+00:00</time></trkpt><trkpt lat="35.0828294" lon="32.2872206"><ele>189.1</ele><time>2015-04-25T13:37:50.0000000+00:00</time></trkpt><trkpt lat="35.0828789" lon="32.287213"><ele>188.1</ele><time>2015-04-25T13:37:53.0000000+00:00</time></trkpt><trkpt lat="35.082938" lon="32.2871931"><ele>189.8</ele><time>2015-04-25T13:37:57.0000000+00:00</time></trkpt><trkpt lat="35.0829959" lon="32.287197"><ele>192.2</ele><time>2015-04-25T13:38:01.0000000+00:00</time></trkpt><trkpt lat="35.0830565" lon="32.2872006"><ele>192.4</ele><time>2015-04-25T13:38:05.0000000+00:00</time></trkpt><trkpt lat="35.0831074" lon="32.2872122"><ele>191.0</ele><time>2015-04-25T13:38:08.0000000+00:00</time></trkpt><trkpt lat="35.0831588" lon="32.2872205"><ele>190.1</ele><time>2015-04-25T13:38:11.0000000+00:00</time></trkpt><trkpt lat="35.0832043" lon="32.2872244"><ele>189.9</ele><time>2015-04-25T13:38:14.0000000+00:00</time></trkpt><trkpt lat="35.0832516" lon="32.2872238"><ele>189.9</ele><time>2015-04-25T13:38:17.0000000+00:00</time></trkpt><trkpt lat="35.0833002" lon="32.287219"><ele>189.2</ele><time>2015-04-25T13:38:20.0000000+00:00</time></trkpt><trkpt lat="35.0833496" lon="32.2872181"><ele>190.2</ele><time>2015-04-25T13:38:23.0000000+00:00</time></trkpt><trkpt lat="35.0834087" lon="32.2872182"><ele>190.1</ele><time>2015-04-25T13:38:26.0000000+00:00</time></trkpt><trkpt lat="35.0834689" lon="32.2872168"><ele>189.2</ele><time>2015-04-25T13:38:28.0000000+00:00</time></trkpt><trkpt lat="35.0835367" lon="32.2872184"><ele>189.8</ele><time>2015-04-25T13:38:30.0000000+00:00</time></trkpt><trkpt lat="35.0835975" lon="32.2872218"><ele>189.9</ele><time>2015-04-25T13:38:32.0000000+00:00</time></trkpt><trkpt lat="35.0836482" lon="32.2872196"><ele>189.9</ele><time>2015-04-25T13:38:34.0000000+00:00</time></trkpt><trkpt lat="35.0836937" lon="32.2872165"><ele>190.4</ele><time>2015-04-25T13:38:36.0000000+00:00</time></trkpt><trkpt lat="35.0837616" lon="32.2872072"><ele>189.4</ele><time>2015-04-25T13:38:39.0000000+00:00</time></trkpt><trkpt lat="35.0838175" lon="32.2871933"><ele>189.0</ele><time>2015-04-25T13:38:42.0000000+00:00</time></trkpt><trkpt lat="35.0838742" lon="32.2871735"><ele>189.7</ele><time>2015-04-25T13:38:45.0000000+00:00</time></trkpt><trkpt lat="35.0839179" lon="32.2871465"><ele>190.4</ele><time>2015-04-25T13:38:48.0000000+00:00</time></trkpt><trkpt lat="35.0839679" lon="32.2871218"><ele>191.2</ele><time>2015-04-25T13:38:51.0000000+00:00</time></trkpt><trkpt lat="35.0840172" lon="32.2870843"><ele>189.7</ele><time>2015-04-25T13:38:54.0000000+00:00</time></trkpt><trkpt lat="35.0840644" lon="32.2870429"><ele>188.5</ele><time>2015-04-25T13:38:57.0000000+00:00</time></trkpt><trkpt lat="35.0841016" lon="32.286997"><ele>189.4</ele><time>2015-04-25T13:39:00.0000000+00:00</time></trkpt><trkpt lat="35.0841372" lon="32.286958"><ele>188.2</ele><time>2015-04-25T13:39:03.0000000+00:00</time></trkpt><trkpt lat="35.0841797" lon="32.2869087"><ele>186.5</ele><time>2015-04-25T13:39:07.0000000+00:00</time></trkpt><trkpt lat="35.0842198" lon="32.2868796"><ele>186.5</ele><time>2015-04-25T13:39:10.0000000+00:00</time></trkpt><trkpt lat="35.0842609" lon="32.2868472"><ele>185.5</ele><time>2015-04-25T13:39:13.0000000+00:00</time></trkpt><trkpt lat="35.0843081" lon="32.2868283"><ele>184.1</ele><time>2015-04-25T13:39:16.0000000+00:00</time></trkpt><trkpt lat="35.0843604" lon="32.2868141"><ele>185.2</ele><time>2015-04-25T13:39:19.0000000+00:00</time></trkpt><trkpt lat="35.0844251" lon="32.2868013"><ele>185.8</ele><time>2015-04-25T13:39:22.0000000+00:00</time></trkpt><trkpt lat="35.0844904" lon="32.2867907"><ele>185.2</ele><time>2015-04-25T13:39:25.0000000+00:00</time></trkpt><trkpt lat="35.0845486" lon="32.2867716"><ele>185.0</ele><time>2015-04-25T13:39:28.0000000+00:00</time></trkpt><trkpt lat="35.0845914" lon="32.2867426"><ele>186.3</ele><time>2015-04-25T13:39:31.0000000+00:00</time></trkpt><trkpt lat="35.084638" lon="32.2867031"><ele>186.0</ele><time>2015-04-25T13:39:34.0000000+00:00</time></trkpt><trkpt lat="35.0846786" lon="32.2866486"><ele>185.7</ele><time>2015-04-25T13:39:37.0000000+00:00</time></trkpt><trkpt lat="35.0847149" lon="32.2865889"><ele>186.6</ele><time>2015-04-25T13:39:40.0000000+00:00</time></trkpt><trkpt lat="35.0847478" lon="32.2865408"><ele>187.0</ele><time>2015-04-25T13:39:43.0000000+00:00</time></trkpt><trkpt lat="35.0847635" lon="32.2864727"><ele>189.1</ele><time>2015-04-25T13:39:47.0000000+00:00</time></trkpt><trkpt lat="35.084796" lon="32.2864155"><ele>190.6</ele><time>2015-04-25T13:39:51.0000000+00:00</time></trkpt><trkpt lat="35.0848347" lon="32.2863762"><ele>191.0</ele><time>2015-04-25T13:39:55.0000000+00:00</time></trkpt><trkpt lat="35.0848664" lon="32.286335"><ele>191.6</ele><time>2015-04-25T13:39:59.0000000+00:00</time></trkpt><trkpt lat="35.0848934" lon="32.2862877"><ele>192.3</ele><time>2015-04-25T13:40:03.0000000+00:00</time></trkpt><trkpt lat="35.0849246" lon="32.2862296"><ele>192.4</ele><time>2015-04-25T13:40:07.0000000+00:00</time></trkpt><trkpt lat="35.0849533" lon="32.2861854"><ele>192.0</ele><time>2015-04-25T13:40:10.0000000+00:00</time></trkpt><trkpt lat="35.0850035" lon="32.2861438"><ele>191.1</ele><time>2015-04-25T13:40:14.0000000+00:00</time></trkpt><trkpt lat="35.085045" lon="32.2861106"><ele>191.4</ele><time>2015-04-25T13:40:17.0000000+00:00</time></trkpt><trkpt lat="35.0850845" lon="32.2860667"><ele>192.0</ele><time>2015-04-25T13:40:20.0000000+00:00</time></trkpt><trkpt lat="35.0851202" lon="32.2860171"><ele>192.7</ele><time>2015-04-25T13:40:23.0000000+00:00</time></trkpt><trkpt lat="35.0851659" lon="32.2859703"><ele>192.8</ele><time>2015-04-25T13:40:26.0000000+00:00</time></trkpt><trkpt lat="35.0852184" lon="32.285924"><ele>192.9</ele><time>2015-04-25T13:40:29.0000000+00:00</time></trkpt><trkpt lat="35.0852745" lon="32.285885"><ele>193.7</ele><time>2015-04-25T13:40:32.0000000+00:00</time></trkpt><trkpt lat="35.0853216" lon="32.2858434"><ele>195.1</ele><time>2015-04-25T13:40:35.0000000+00:00</time></trkpt><trkpt lat="35.0853733" lon="32.2858024"><ele>195.0</ele><time>2015-04-25T13:40:38.0000000+00:00</time></trkpt><trkpt lat="35.0854267" lon="32.285779"><ele>195.7</ele><time>2015-04-25T13:40:41.0000000+00:00</time></trkpt><trkpt lat="35.0854782" lon="32.2857632"><ele>196.6</ele><time>2015-04-25T13:40:44.0000000+00:00</time></trkpt><trkpt lat="35.0855227" lon="32.2857439"><ele>195.6</ele><time>2015-04-25T13:40:47.0000000+00:00</time></trkpt><trkpt lat="35.0855746" lon="32.2857073"><ele>196.8</ele><time>2015-04-25T13:40:51.0000000+00:00</time></trkpt><trkpt lat="35.085605" lon="32.2856452"><ele>196.9</ele><time>2015-04-25T13:40:54.0000000+00:00</time></trkpt><trkpt lat="35.0856171" lon="32.2855726"><ele>199.1</ele><time>2015-04-25T13:40:57.0000000+00:00</time></trkpt><trkpt lat="35.0856118" lon="32.2855021"><ele>199.3</ele><time>2015-04-25T13:41:00.0000000+00:00</time></trkpt><trkpt lat="35.0856433" lon="32.2854535"><ele>197.9</ele><time>2015-04-25T13:41:03.0000000+00:00</time></trkpt><trkpt lat="35.0857027" lon="32.2854311"><ele>196.3</ele><time>2015-04-25T13:41:06.0000000+00:00</time></trkpt><trkpt lat="35.085756" lon="32.2854075"><ele>195.6</ele><time>2015-04-25T13:41:07.0000000+00:00</time></trkpt><trkpt lat="35.0858068" lon="32.2853866"><ele>195.3</ele><time>2015-04-25T13:41:08.0000000+00:00</time></trkpt><trkpt lat="35.0858542" lon="32.2853644"><ele>195.1</ele><time>2015-04-25T13:41:09.0000000+00:00</time></trkpt><trkpt lat="35.0859123" lon="32.2853448"><ele>194.5</ele><time>2015-04-25T13:41:10.0000000+00:00</time></trkpt><trkpt lat="35.0859556" lon="32.2853181"><ele>194.2</ele><time>2015-04-25T13:41:11.0000000+00:00</time></trkpt><trkpt lat="35.0859953" lon="32.2852908"><ele>193.6</ele><time>2015-04-25T13:41:12.0000000+00:00</time></trkpt><trkpt lat="35.0860725" lon="32.2852488"><ele>193.1</ele><time>2015-04-25T13:41:14.0000000+00:00</time></trkpt><trkpt lat="35.0861524" lon="32.2851982"><ele>191.7</ele><time>2015-04-25T13:41:16.0000000+00:00</time></trkpt><trkpt lat="35.0861988" lon="32.2851609"><ele>191.3</ele><time>2015-04-25T13:41:17.0000000+00:00</time></trkpt><trkpt lat="35.0862418" lon="32.2851353"><ele>190.6</ele><time>2015-04-25T13:41:18.0000000+00:00</time></trkpt><trkpt lat="35.0862886" lon="32.2851042"><ele>190.3</ele><time>2015-04-25T13:41:19.0000000+00:00</time></trkpt><trkpt lat="35.0863377" lon="32.2850658"><ele>189.6</ele><time>2015-04-25T13:41:20.0000000+00:00</time></trkpt><trkpt lat="35.0863865" lon="32.2850273"><ele>189.3</ele><time>2015-04-25T13:41:21.0000000+00:00</time></trkpt><trkpt lat="35.0864381" lon="32.2849996"><ele>189.1</ele><time>2015-04-25T13:41:22.0000000+00:00</time></trkpt><trkpt lat="35.0865068" lon="32.2849448"><ele>189.0</ele><time>2015-04-25T13:41:24.0000000+00:00</time></trkpt><trkpt lat="35.0865713" lon="32.2848931"><ele>188.9</ele><time>2015-04-25T13:41:26.0000000+00:00</time></trkpt><trkpt lat="35.0866253" lon="32.284835"><ele>188.9</ele><time>2015-04-25T13:41:28.0000000+00:00</time></trkpt><trkpt lat="35.0866829" lon="32.2847949"><ele>188.2</ele><time>2015-04-25T13:41:30.0000000+00:00</time></trkpt><trkpt lat="35.086738" lon="32.2847719"><ele>188.2</ele><time>2015-04-25T13:41:32.0000000+00:00</time></trkpt><trkpt lat="35.0868082" lon="32.284777"><ele>188.8</ele><time>2015-04-25T13:41:34.0000000+00:00</time></trkpt><trkpt lat="35.0868868" lon="32.2847779"><ele>188.9</ele><time>2015-04-25T13:41:36.0000000+00:00</time></trkpt><trkpt lat="35.0869664" lon="32.284778"><ele>189.7</ele><time>2015-04-25T13:41:38.0000000+00:00</time></trkpt><trkpt lat="35.0870455" lon="32.2847792"><ele>189.4</ele><time>2015-04-25T13:41:40.0000000+00:00</time></trkpt><trkpt lat="35.0871267" lon="32.2847877"><ele>189.0</ele><time>2015-04-25T13:41:42.0000000+00:00</time></trkpt><trkpt lat="35.0872052" lon="32.284802"><ele>189.0</ele><time>2015-04-25T13:41:44.0000000+00:00</time></trkpt><trkpt lat="35.0872744" lon="32.2848203"><ele>189.4</ele><time>2015-04-25T13:41:46.0000000+00:00</time></trkpt><trkpt lat="35.0873358" lon="32.2848417"><ele>189.1</ele><time>2015-04-25T13:41:48.0000000+00:00</time></trkpt><trkpt lat="35.0873892" lon="32.2848716"><ele>188.5</ele><time>2015-04-25T13:41:50.0000000+00:00</time></trkpt><trkpt lat="35.087448" lon="32.284896"><ele>188.3</ele><time>2015-04-25T13:41:52.0000000+00:00</time></trkpt><trkpt lat="35.0875063" lon="32.2849121"><ele>188.0</ele><time>2015-04-25T13:41:54.0000000+00:00</time></trkpt><trkpt lat="35.0875658" lon="32.2849144"><ele>186.7</ele><time>2015-04-25T13:41:56.0000000+00:00</time></trkpt><trkpt lat="35.0876257" lon="32.2849202"><ele>186.1</ele><time>2015-04-25T13:41:58.0000000+00:00</time></trkpt><trkpt lat="35.0876913" lon="32.2849171"><ele>186.0</ele><time>2015-04-25T13:42:00.0000000+00:00</time></trkpt><trkpt lat="35.0877559" lon="32.2848996"><ele>185.9</ele><time>2015-04-25T13:42:02.0000000+00:00</time></trkpt><trkpt lat="35.0878152" lon="32.2848675"><ele>185.9</ele><time>2015-04-25T13:42:04.0000000+00:00</time></trkpt><trkpt lat="35.087873" lon="32.2848367"><ele>185.9</ele><time>2015-04-25T13:42:06.0000000+00:00</time></trkpt><trkpt lat="35.0879159" lon="32.2848027"><ele>185.9</ele><time>2015-04-25T13:42:08.0000000+00:00</time></trkpt><trkpt lat="35.0879532" lon="32.2847648"><ele>185.9</ele><time>2015-04-25T13:42:10.0000000+00:00</time></trkpt><trkpt lat="35.0879884" lon="32.2847302"><ele>186.7</ele><time>2015-04-25T13:42:12.0000000+00:00</time></trkpt><trkpt lat="35.0880266" lon="32.2847007"><ele>186.9</ele><time>2015-04-25T13:42:14.0000000+00:00</time></trkpt><trkpt lat="35.088085" lon="32.2846681"><ele>186.9</ele><time>2015-04-25T13:42:17.0000000+00:00</time></trkpt><trkpt lat="35.0881425" lon="32.2846368"><ele>187.7</ele><time>2015-04-25T13:42:20.0000000+00:00</time></trkpt><trkpt lat="35.0881976" lon="32.2846135"><ele>187.9</ele><time>2015-04-25T13:42:24.0000000+00:00</time></trkpt><trkpt lat="35.0882461" lon="32.2845822"><ele>187.9</ele><time>2015-04-25T13:42:28.0000000+00:00</time></trkpt><trkpt lat="35.0882822" lon="32.2845356"><ele>187.9</ele><time>2015-04-25T13:42:31.0000000+00:00</time></trkpt><trkpt lat="35.0883276" lon="32.2844987"><ele>188.7</ele><time>2015-04-25T13:42:34.0000000+00:00</time></trkpt><trkpt lat="35.0883772" lon="32.2844698"><ele>188.9</ele><time>2015-04-25T13:42:37.0000000+00:00</time></trkpt><trkpt lat="35.0884343" lon="32.284469"><ele>189.8</ele><time>2015-04-25T13:42:40.0000000+00:00</time></trkpt><trkpt lat="35.0884863" lon="32.2844705"><ele>190.8</ele><time>2015-04-25T13:42:44.0000000+00:00</time></trkpt><trkpt lat="35.0885343" lon="32.2844423"><ele>191.9</ele><time>2015-04-25T13:42:48.0000000+00:00</time></trkpt><trkpt lat="35.0885808" lon="32.2844598"><ele>192.8</ele><time>2015-04-25T13:42:52.0000000+00:00</time></trkpt><trkpt lat="35.0886264" lon="32.2844337"><ele>194.1</ele><time>2015-04-25T13:43:11.0000000+00:00</time></trkpt><trkpt lat="35.0886745" lon="32.28442"><ele>194.4</ele><time>2015-04-25T13:43:16.0000000+00:00</time></trkpt><trkpt lat="35.0887182" lon="32.2844053"><ele>194.9</ele><time>2015-04-25T13:43:21.0000000+00:00</time></trkpt><trkpt lat="35.0887632" lon="32.2844106"><ele>197.8</ele><time>2015-04-25T13:43:32.0000000+00:00</time></trkpt><trkpt lat="35.0888108" lon="32.2844103"><ele>199.2</ele><time>2015-04-25T13:43:48.0000000+00:00</time></trkpt><trkpt lat="35.0888565" lon="32.284405"><ele>199.9</ele><time>2015-04-25T13:43:59.0000000+00:00</time></trkpt><trkpt lat="35.0889054" lon="32.2843869"><ele>199.9</ele><time>2015-04-25T13:44:04.0000000+00:00</time></trkpt><trkpt lat="35.0889483" lon="32.2843672"><ele>200.2</ele><time>2015-04-25T13:44:08.0000000+00:00</time></trkpt><trkpt lat="35.0889874" lon="32.2843388"><ele>200.7</ele><time>2015-04-25T13:44:12.0000000+00:00</time></trkpt><trkpt lat="35.0890236" lon="32.2843037"><ele>200.0</ele><time>2015-04-25T13:44:17.0000000+00:00</time></trkpt><trkpt lat="35.0890756" lon="32.2842828"><ele>199.7</ele><time>2015-04-25T13:44:21.0000000+00:00</time></trkpt><trkpt lat="35.0891147" lon="32.2842518"><ele>199.5</ele><time>2015-04-25T13:44:24.0000000+00:00</time></trkpt><trkpt lat="35.0891558" lon="32.2841925"><ele>200.8</ele><time>2015-04-25T13:44:27.0000000+00:00</time></trkpt><trkpt lat="35.0891985" lon="32.2841441"><ele>200.9</ele><time>2015-04-25T13:44:29.0000000+00:00</time></trkpt><trkpt lat="35.0892395" lon="32.2840962"><ele>200.9</ele><time>2015-04-25T13:44:31.0000000+00:00</time></trkpt><trkpt lat="35.0892721" lon="32.2840434"><ele>201.7</ele><time>2015-04-25T13:44:33.0000000+00:00</time></trkpt><trkpt lat="35.089301" lon="32.2839832"><ele>201.4</ele><time>2015-04-25T13:44:35.0000000+00:00</time></trkpt><trkpt lat="35.0893342" lon="32.2839081"><ele>200.5</ele><time>2015-04-25T13:44:37.0000000+00:00</time></trkpt><trkpt lat="35.0893751" lon="32.2838208"><ele>199.6</ele><time>2015-04-25T13:44:39.0000000+00:00</time></trkpt><trkpt lat="35.0894171" lon="32.2837339"><ele>199.1</ele><time>2015-04-25T13:44:41.0000000+00:00</time></trkpt><trkpt lat="35.0894564" lon="32.2836524"><ele>199.0</ele><time>2015-04-25T13:44:43.0000000+00:00</time></trkpt><trkpt lat="35.0894943" lon="32.2835805"><ele>200.9</ele><time>2015-04-25T13:44:45.0000000+00:00</time></trkpt><trkpt lat="35.0895332" lon="32.2835199"><ele>202.2</ele><time>2015-04-25T13:44:47.0000000+00:00</time></trkpt><trkpt lat="35.0895722" lon="32.2834663"><ele>204.0</ele><time>2015-04-25T13:44:49.0000000+00:00</time></trkpt><trkpt lat="35.0896172" lon="32.2834278"><ele>205.2</ele><time>2015-04-25T13:44:51.0000000+00:00</time></trkpt><trkpt lat="35.089661" lon="32.2833935"><ele>205.7</ele><time>2015-04-25T13:44:53.0000000+00:00</time></trkpt><trkpt lat="35.0897043" lon="32.2833664"><ele>206.2</ele><time>2015-04-25T13:44:56.0000000+00:00</time></trkpt><trkpt lat="35.0897534" lon="32.2833349"><ele>206.9</ele><time>2015-04-25T13:45:00.0000000+00:00</time></trkpt><trkpt lat="35.0897915" lon="32.2833034"><ele>207.3</ele><time>2015-04-25T13:45:03.0000000+00:00</time></trkpt><trkpt lat="35.0898442" lon="32.283291"><ele>207.7</ele><time>2015-04-25T13:45:06.0000000+00:00</time></trkpt><trkpt lat="35.0898983" lon="32.2832795"><ele>208.4</ele><time>2015-04-25T13:45:09.0000000+00:00</time></trkpt><trkpt lat="35.0899452" lon="32.2832639"><ele>209.7</ele><time>2015-04-25T13:45:12.0000000+00:00</time></trkpt><trkpt lat="35.0899893" lon="32.2832339"><ele>210.8</ele><time>2015-04-25T13:45:15.0000000+00:00</time></trkpt><trkpt lat="35.0900351" lon="32.2832018"><ele>210.9</ele><time>2015-04-25T13:45:18.0000000+00:00</time></trkpt><trkpt lat="35.0900769" lon="32.283156"><ele>214.1</ele><time>2015-04-25T13:45:21.0000000+00:00</time></trkpt><trkpt lat="35.0901236" lon="32.2831285"><ele>213.2</ele><time>2015-04-25T13:45:24.0000000+00:00</time></trkpt><trkpt lat="35.0901692" lon="32.283102"><ele>213.3</ele><time>2015-04-25T13:45:27.0000000+00:00</time></trkpt><trkpt lat="35.0902177" lon="32.2830857"><ele>213.0</ele><time>2015-04-25T13:45:30.0000000+00:00</time></trkpt><trkpt lat="35.0902718" lon="32.2830974"><ele>215.2</ele><time>2015-04-25T13:45:33.0000000+00:00</time></trkpt><trkpt lat="35.090328" lon="32.2831107"><ele>216.7</ele><time>2015-04-25T13:45:36.0000000+00:00</time></trkpt><trkpt lat="35.0903796" lon="32.2831184"><ele>216.2</ele><time>2015-04-25T13:45:39.0000000+00:00</time></trkpt><trkpt lat="35.0904368" lon="32.2831268"><ele>214.7</ele><time>2015-04-25T13:45:42.0000000+00:00</time></trkpt><trkpt lat="35.0904826" lon="32.2831401"><ele>215.7</ele><time>2015-04-25T13:45:45.0000000+00:00</time></trkpt><trkpt lat="35.090533" lon="32.2831524"><ele>213.1</ele><time>2015-04-25T13:45:49.0000000+00:00</time></trkpt><trkpt lat="35.0905902" lon="32.2831519"><ele>210.8</ele><time>2015-04-25T13:45:54.0000000+00:00</time></trkpt><trkpt lat="35.0906386" lon="32.2831271"><ele>210.5</ele><time>2015-04-25T13:45:57.0000000+00:00</time></trkpt><trkpt lat="35.090705" lon="32.2830931"><ele>210.0</ele><time>2015-04-25T13:46:00.0000000+00:00</time></trkpt><trkpt lat="35.0907499" lon="32.2830504"><ele>208.2</ele><time>2015-04-25T13:46:02.0000000+00:00</time></trkpt><trkpt lat="35.0907864" lon="32.2830059"><ele>207.7</ele><time>2015-04-25T13:46:04.0000000+00:00</time></trkpt><trkpt lat="35.0908167" lon="32.2829653"><ele>207.6</ele><time>2015-04-25T13:46:06.0000000+00:00</time></trkpt><trkpt lat="35.0908566" lon="32.2829065"><ele>209.5</ele><time>2015-04-25T13:46:09.0000000+00:00</time></trkpt><trkpt lat="35.0908874" lon="32.2828454"><ele>209.9</ele><time>2015-04-25T13:46:12.0000000+00:00</time></trkpt><trkpt lat="35.0909033" lon="32.2827927"><ele>210.3</ele><time>2015-04-25T13:46:15.0000000+00:00</time></trkpt><trkpt lat="35.0909166" lon="32.2827392"><ele>210.7</ele><time>2015-04-25T13:46:23.0000000+00:00</time></trkpt><trkpt lat="35.0909213" lon="32.2826828"><ele>213.4</ele><time>2015-04-25T13:46:49.0000000+00:00</time></trkpt><trkpt lat="35.0909492" lon="32.2826346"><ele>212.9</ele><time>2015-04-25T13:47:00.0000000+00:00</time></trkpt><trkpt lat="35.0909552" lon="32.2825787"><ele>216.0</ele><time>2015-04-25T13:47:16.0000000+00:00</time></trkpt><trkpt lat="35.0909781" lon="32.2825252"><ele>210.3</ele><time>2015-04-25T13:47:24.0000000+00:00</time></trkpt><trkpt lat="35.0910119" lon="32.2824834"><ele>205.9</ele><time>2015-04-25T13:47:32.0000000+00:00</time></trkpt><trkpt lat="35.0910522" lon="32.2824568"><ele>208.9</ele><time>2015-04-25T13:47:40.0000000+00:00</time></trkpt><trkpt lat="35.0910867" lon="32.2824124"><ele>211.8</ele><time>2015-04-25T13:47:47.0000000+00:00</time></trkpt><trkpt lat="35.0911214" lon="32.282369"><ele>213.6</ele><time>2015-04-25T13:47:53.0000000+00:00</time></trkpt><trkpt lat="35.0911452" lon="32.2823187"><ele>216.4</ele><time>2015-04-25T13:47:59.0000000+00:00</time></trkpt><trkpt lat="35.0911698" lon="32.2822608"><ele>218.0</ele><time>2015-04-25T13:48:06.0000000+00:00</time></trkpt><trkpt lat="35.0911635" lon="32.2821981"><ele>216.7</ele><time>2015-04-25T13:48:11.0000000+00:00</time></trkpt><trkpt lat="35.0911577" lon="32.2821387"><ele>218.8</ele><time>2015-04-25T13:48:16.0000000+00:00</time></trkpt><trkpt lat="35.0911278" lon="32.2820912"><ele>217.1</ele><time>2015-04-25T13:48:30.0000000+00:00</time></trkpt><trkpt lat="35.0910974" lon="32.2820492"><ele>216.5</ele><time>2015-04-25T13:48:36.0000000+00:00</time></trkpt><trkpt lat="35.0910564" lon="32.2820207"><ele>219.3</ele><time>2015-04-25T13:48:45.0000000+00:00</time></trkpt><trkpt lat="35.091014" lon="32.2820002"><ele>220.3</ele><time>2015-04-25T13:48:52.0000000+00:00</time></trkpt><trkpt lat="35.091057" lon="32.2820166"><ele>217.6</ele><time>2015-04-25T13:51:24.0000000+00:00</time></trkpt><trkpt lat="35.0910988" lon="32.282052"><ele>218.6</ele><time>2015-04-25T13:51:31.0000000+00:00</time></trkpt><trkpt lat="35.0911202" lon="32.282109"><ele>219.7</ele><time>2015-04-25T13:51:44.0000000+00:00</time></trkpt><trkpt lat="35.0909192" lon="32.2829212"><ele>201.9</ele><time>2015-04-25T14:15:12.0000000+00:00</time></trkpt><trkpt lat="35.0909078" lon="32.2828411"><ele>196.4</ele><time>2015-04-25T14:15:14.0000000+00:00</time></trkpt><trkpt lat="35.0908678" lon="32.2828701"><ele>215.4</ele><time>2015-04-25T14:15:54.0000000+00:00</time></trkpt><trkpt lat="35.0908322" lon="32.2829252"><ele>219.5</ele><time>2015-04-25T14:16:01.0000000+00:00</time></trkpt><trkpt lat="35.0908011" lon="32.282982"><ele>222.5</ele><time>2015-04-25T14:16:04.0000000+00:00</time></trkpt><trkpt lat="35.0907634" lon="32.2830367"><ele>223.9</ele><time>2015-04-25T14:16:07.0000000+00:00</time></trkpt><trkpt lat="35.0907093" lon="32.2830828"><ele>224.0</ele><time>2015-04-25T14:16:10.0000000+00:00</time></trkpt><trkpt lat="35.0906551" lon="32.2831242"><ele>222.6</ele><time>2015-04-25T14:16:13.0000000+00:00</time></trkpt><trkpt lat="35.0905971" lon="32.2831376"><ele>220.8</ele><time>2015-04-25T14:16:18.0000000+00:00</time></trkpt><trkpt lat="35.0905314" lon="32.2831238"><ele>221.8</ele><time>2015-04-25T14:16:21.0000000+00:00</time></trkpt><trkpt lat="35.0904683" lon="32.2831071"><ele>223.0</ele><time>2015-04-25T14:16:24.0000000+00:00</time></trkpt><trkpt lat="35.0904149" lon="32.2830979"><ele>222.4</ele><time>2015-04-25T14:16:27.0000000+00:00</time></trkpt><trkpt lat="35.0903626" lon="32.2830868"><ele>221.2</ele><time>2015-04-25T14:16:30.0000000+00:00</time></trkpt><trkpt lat="35.0903092" lon="32.2830888"><ele>220.3</ele><time>2015-04-25T14:16:33.0000000+00:00</time></trkpt><trkpt lat="35.0902458" lon="32.2830974"><ele>219.5</ele><time>2015-04-25T14:16:36.0000000+00:00</time></trkpt><trkpt lat="35.0901983" lon="32.2831102"><ele>219.1</ele><time>2015-04-25T14:16:38.0000000+00:00</time></trkpt><trkpt lat="35.0901463" lon="32.2831355"><ele>219.2</ele><time>2015-04-25T14:16:40.0000000+00:00</time></trkpt><trkpt lat="35.0900973" lon="32.2831693"><ele>219.0</ele><time>2015-04-25T14:16:42.0000000+00:00</time></trkpt><trkpt lat="35.0900495" lon="32.2832053"><ele>218.9</ele><time>2015-04-25T14:16:44.0000000+00:00</time></trkpt><trkpt lat="35.0899991" lon="32.2832384"><ele>219.7</ele><time>2015-04-25T14:16:46.0000000+00:00</time></trkpt><trkpt lat="35.0899445" lon="32.2832651"><ele>219.9</ele><time>2015-04-25T14:16:48.0000000+00:00</time></trkpt><trkpt lat="35.0898929" lon="32.2832882"><ele>219.7</ele><time>2015-04-25T14:16:50.0000000+00:00</time></trkpt><trkpt lat="35.0898314" lon="32.2833106"><ele>219.4</ele><time>2015-04-25T14:16:53.0000000+00:00</time></trkpt><trkpt lat="35.0897828" lon="32.2833178"><ele>219.0</ele><time>2015-04-25T14:17:17.0000000+00:00</time></trkpt><trkpt lat="35.0897362" lon="32.2833488"><ele>219.5</ele><time>2015-04-25T14:18:29.0000000+00:00</time></trkpt><trkpt lat="35.0896953" lon="32.2833894"><ele>219.4</ele><time>2015-04-25T14:18:56.0000000+00:00</time></trkpt><trkpt lat="35.0896654" lon="32.2834325"><ele>218.6</ele><time>2015-04-25T14:18:58.0000000+00:00</time></trkpt><trkpt lat="35.0896252" lon="32.2834774"><ele>217.6</ele><time>2015-04-25T14:19:00.0000000+00:00</time></trkpt><trkpt lat="35.0895783" lon="32.2835178"><ele>216.6</ele><time>2015-04-25T14:19:02.0000000+00:00</time></trkpt><trkpt lat="35.0895374" lon="32.2835542"><ele>216.3</ele><time>2015-04-25T14:19:04.0000000+00:00</time></trkpt><trkpt lat="35.0894995" lon="32.2836006"><ele>215.2</ele><time>2015-04-25T14:19:07.0000000+00:00</time></trkpt><trkpt lat="35.0894542" lon="32.283655"><ele>213.6</ele><time>2015-04-25T14:19:10.0000000+00:00</time></trkpt><trkpt lat="35.0894281" lon="32.283701"><ele>213.1</ele><time>2015-04-25T14:19:12.0000000+00:00</time></trkpt><trkpt lat="35.089405" lon="32.2837527"><ele>212.2</ele><time>2015-04-25T14:19:14.0000000+00:00</time></trkpt><trkpt lat="35.0893804" lon="32.2838119"><ele>211.5</ele><time>2015-04-25T14:19:16.0000000+00:00</time></trkpt><trkpt lat="35.0893548" lon="32.2838673"><ele>211.1</ele><time>2015-04-25T14:19:18.0000000+00:00</time></trkpt><trkpt lat="35.0893308" lon="32.2839236"><ele>211.0</ele><time>2015-04-25T14:19:20.0000000+00:00</time></trkpt><trkpt lat="35.0893096" lon="32.2839848"><ele>210.9</ele><time>2015-04-25T14:19:22.0000000+00:00</time></trkpt><trkpt lat="35.0892885" lon="32.284045"><ele>210.7</ele><time>2015-04-25T14:19:24.0000000+00:00</time></trkpt><trkpt lat="35.0892583" lon="32.284098"><ele>210.9</ele><time>2015-04-25T14:19:26.0000000+00:00</time></trkpt><trkpt lat="35.0892213" lon="32.2841323"><ele>212.6</ele><time>2015-04-25T14:19:30.0000000+00:00</time></trkpt><trkpt lat="35.0891856" lon="32.2841673"><ele>212.9</ele><time>2015-04-25T14:19:37.0000000+00:00</time></trkpt><trkpt lat="35.089144" lon="32.2842089"><ele>212.4</ele><time>2015-04-25T14:19:45.0000000+00:00</time></trkpt><trkpt lat="35.0891091" lon="32.2842492"><ele>212.1</ele><time>2015-04-25T14:19:47.0000000+00:00</time></trkpt><trkpt lat="35.0890677" lon="32.2842914"><ele>211.2</ele><time>2015-04-25T14:19:49.0000000+00:00</time></trkpt><trkpt lat="35.0890234" lon="32.284328"><ele>210.3</ele><time>2015-04-25T14:19:51.0000000+00:00</time></trkpt><trkpt lat="35.088968" lon="32.2843652"><ele>209.3</ele><time>2015-04-25T14:19:53.0000000+00:00</time></trkpt><trkpt lat="35.0889038" lon="32.2843984"><ele>208.3</ele><time>2015-04-25T14:19:55.0000000+00:00</time></trkpt><trkpt lat="35.088832" lon="32.2844211"><ele>207.5</ele><time>2015-04-25T14:19:57.0000000+00:00</time></trkpt><trkpt lat="35.088766" lon="32.2844314"><ele>206.6</ele><time>2015-04-25T14:19:59.0000000+00:00</time></trkpt><trkpt lat="35.0886993" lon="32.2844388"><ele>205.6</ele><time>2015-04-25T14:20:01.0000000+00:00</time></trkpt><trkpt lat="35.0886337" lon="32.2844491"><ele>205.1</ele><time>2015-04-25T14:20:03.0000000+00:00</time></trkpt><trkpt lat="35.0885668" lon="32.2844614"><ele>204.5</ele><time>2015-04-25T14:20:05.0000000+00:00</time></trkpt><trkpt lat="35.0885065" lon="32.2844746"><ele>204.1</ele><time>2015-04-25T14:20:07.0000000+00:00</time></trkpt><trkpt lat="35.0884502" lon="32.284485"><ele>204.0</ele><time>2015-04-25T14:20:09.0000000+00:00</time></trkpt><trkpt lat="35.088399" lon="32.2844979"><ele>203.9</ele><time>2015-04-25T14:20:11.0000000+00:00</time></trkpt><trkpt lat="35.088347" lon="32.2845183"><ele>203.2</ele><time>2015-04-25T14:20:13.0000000+00:00</time></trkpt><trkpt lat="35.0883046" lon="32.2845441"><ele>202.2</ele><time>2015-04-25T14:20:15.0000000+00:00</time></trkpt><trkpt lat="35.0882559" lon="32.2845729"><ele>202.8</ele><time>2015-04-25T14:20:17.0000000+00:00</time></trkpt><trkpt lat="35.088192" lon="32.2846183"><ele>202.9</ele><time>2015-04-25T14:20:19.0000000+00:00</time></trkpt><trkpt lat="35.088112" lon="32.2846736"><ele>201.7</ele><time>2015-04-25T14:20:21.0000000+00:00</time></trkpt><trkpt lat="35.0880626" lon="32.2847016"><ele>201.3</ele><time>2015-04-25T14:20:22.0000000+00:00</time></trkpt><trkpt lat="35.0880149" lon="32.2847244"><ele>201.1</ele><time>2015-04-25T14:20:23.0000000+00:00</time></trkpt><trkpt lat="35.0879651" lon="32.2847583"><ele>201.0</ele><time>2015-04-25T14:20:24.0000000+00:00</time></trkpt><trkpt lat="35.0879252" lon="32.2847901"><ele>201.0</ele><time>2015-04-25T14:20:25.0000000+00:00</time></trkpt><trkpt lat="35.0878772" lon="32.2848256"><ele>201.0</ele><time>2015-04-25T14:20:26.0000000+00:00</time></trkpt><trkpt lat="35.0878332" lon="32.2848572"><ele>200.4</ele><time>2015-04-25T14:20:27.0000000+00:00</time></trkpt><trkpt lat="35.0877846" lon="32.2848836"><ele>200.2</ele><time>2015-04-25T14:20:28.0000000+00:00</time></trkpt><trkpt lat="35.0877253" lon="32.2849032"><ele>200.1</ele><time>2015-04-25T14:20:29.0000000+00:00</time></trkpt><trkpt lat="35.0876723" lon="32.2849159"><ele>200.0</ele><time>2015-04-25T14:20:30.0000000+00:00</time></trkpt><trkpt lat="35.08762" lon="32.2849235"><ele>199.5</ele><time>2015-04-25T14:20:31.0000000+00:00</time></trkpt><trkpt lat="35.0875586" lon="32.2849318"><ele>199.7</ele><time>2015-04-25T14:20:32.0000000+00:00</time></trkpt><trkpt lat="35.0875082" lon="32.2849298"><ele>199.3</ele><time>2015-04-25T14:20:33.0000000+00:00</time></trkpt><trkpt lat="35.0874514" lon="32.2849225"><ele>198.6</ele><time>2015-04-25T14:20:34.0000000+00:00</time></trkpt><trkpt lat="35.087404" lon="32.284905"><ele>197.8</ele><time>2015-04-25T14:20:35.0000000+00:00</time></trkpt><trkpt lat="35.087355" lon="32.2848898"><ele>196.9</ele><time>2015-04-25T14:20:36.0000000+00:00</time></trkpt><trkpt lat="35.0872987" lon="32.2848687"><ele>195.9</ele><time>2015-04-25T14:20:37.0000000+00:00</time></trkpt><trkpt lat="35.0872494" lon="32.2848496"><ele>195.4</ele><time>2015-04-25T14:20:38.0000000+00:00</time></trkpt><trkpt lat="35.0872" lon="32.284835"><ele>194.7</ele><time>2015-04-25T14:20:39.0000000+00:00</time></trkpt><trkpt lat="35.0871468" lon="32.2848259"><ele>193.8</ele><time>2015-04-25T14:20:40.0000000+00:00</time></trkpt><trkpt lat="35.0870951" lon="32.2848149"><ele>193.4</ele><time>2015-04-25T14:20:41.0000000+00:00</time></trkpt><trkpt lat="35.0870388" lon="32.2848103"><ele>193.1</ele><time>2015-04-25T14:20:42.0000000+00:00</time></trkpt><trkpt lat="35.0869911" lon="32.2848109"><ele>193.0</ele><time>2015-04-25T14:20:43.0000000+00:00</time></trkpt><trkpt lat="35.0869391" lon="32.2848152"><ele>192.5</ele><time>2015-04-25T14:20:44.0000000+00:00</time></trkpt><trkpt lat="35.0868866" lon="32.2848239"><ele>192.2</ele><time>2015-04-25T14:20:45.0000000+00:00</time></trkpt><trkpt lat="35.086839" lon="32.2848299"><ele>192.1</ele><time>2015-04-25T14:20:46.0000000+00:00</time></trkpt><trkpt lat="35.086792" lon="32.2848312"><ele>192.5</ele><time>2015-04-25T14:20:47.0000000+00:00</time></trkpt><trkpt lat="35.0867155" lon="32.2848434"><ele>192.8</ele><time>2015-04-25T14:20:49.0000000+00:00</time></trkpt><trkpt lat="35.0866516" lon="32.28487"><ele>192.2</ele><time>2015-04-25T14:20:51.0000000+00:00</time></trkpt><trkpt lat="35.0866039" lon="32.2848972"><ele>192.0</ele><time>2015-04-25T14:20:53.0000000+00:00</time></trkpt><trkpt lat="35.086557" lon="32.2849434"><ele>191.9</ele><time>2015-04-25T14:20:56.0000000+00:00</time></trkpt><trkpt lat="35.0865172" lon="32.2849773"><ele>191.9</ele><time>2015-04-25T14:20:58.0000000+00:00</time></trkpt><trkpt lat="35.0864742" lon="32.2850083"><ele>192.7</ele><time>2015-04-25T14:21:00.0000000+00:00</time></trkpt><trkpt lat="35.0864269" lon="32.285038"><ele>193.6</ele><time>2015-04-25T14:21:02.0000000+00:00</time></trkpt><trkpt lat="35.086376" lon="32.2850682"><ele>193.9</ele><time>2015-04-25T14:21:04.0000000+00:00</time></trkpt><trkpt lat="35.0863242" lon="32.285097"><ele>194.4</ele><time>2015-04-25T14:21:06.0000000+00:00</time></trkpt><trkpt lat="35.0862794" lon="32.2851331"><ele>194.6</ele><time>2015-04-25T14:21:08.0000000+00:00</time></trkpt><trkpt lat="35.086233" lon="32.2851669"><ele>195.3</ele><time>2015-04-25T14:21:10.0000000+00:00</time></trkpt><trkpt lat="35.0861911" lon="32.285193"><ele>195.8</ele><time>2015-04-25T14:21:12.0000000+00:00</time></trkpt><trkpt lat="35.086133" lon="32.2852317"><ele>195.9</ele><time>2015-04-25T14:21:15.0000000+00:00</time></trkpt><trkpt lat="35.0860799" lon="32.2852689"><ele>195.9</ele><time>2015-04-25T14:21:18.0000000+00:00</time></trkpt><trkpt lat="35.0860307" lon="32.2852949"><ele>196.7</ele><time>2015-04-25T14:21:21.0000000+00:00</time></trkpt><trkpt lat="35.0859829" lon="32.2853157"><ele>196.0</ele><time>2015-04-25T14:21:24.0000000+00:00</time></trkpt><trkpt lat="35.0859237" lon="32.2853459"><ele>195.9</ele><time>2015-04-25T14:21:27.0000000+00:00</time></trkpt><trkpt lat="35.0858636" lon="32.2853784"><ele>195.9</ele><time>2015-04-25T14:21:30.0000000+00:00</time></trkpt><trkpt lat="35.0857999" lon="32.2854049"><ele>195.6</ele><time>2015-04-25T14:21:33.0000000+00:00</time></trkpt><trkpt lat="35.0857567" lon="32.2854253"><ele>195.8</ele><time>2015-04-25T14:21:35.0000000+00:00</time></trkpt><trkpt lat="35.0857127" lon="32.28544"><ele>195.9</ele><time>2015-04-25T14:21:37.0000000+00:00</time></trkpt><trkpt lat="35.0856646" lon="32.2854603"><ele>196.8</ele><time>2015-04-25T14:21:40.0000000+00:00</time></trkpt><trkpt lat="35.0856142" lon="32.2854874"><ele>196.9</ele><time>2015-04-25T14:21:44.0000000+00:00</time></trkpt><trkpt lat="35.0855765" lon="32.2855401"><ele>197.8</ele><time>2015-04-25T14:21:48.0000000+00:00</time></trkpt><trkpt lat="35.0855605" lon="32.2856026"><ele>196.6</ele><time>2015-04-25T14:21:52.0000000+00:00</time></trkpt><trkpt lat="35.085521" lon="32.2857203"><ele>195.6</ele><time>2015-04-25T14:21:55.0000000+00:00</time></trkpt><trkpt lat="35.0854575" lon="32.285778"><ele>195.9</ele><time>2015-04-25T14:21:57.0000000+00:00</time></trkpt><trkpt lat="35.08539" lon="32.2857975"><ele>195.7</ele><time>2015-04-25T14:21:59.0000000+00:00</time></trkpt><trkpt lat="35.0853358" lon="32.2858114"><ele>195.9</ele><time>2015-04-25T14:22:01.0000000+00:00</time></trkpt><trkpt lat="35.0852874" lon="32.2858419"><ele>195.9</ele><time>2015-04-25T14:22:03.0000000+00:00</time></trkpt><trkpt lat="35.0852351" lon="32.285886"><ele>195.7</ele><time>2015-04-25T14:22:05.0000000+00:00</time></trkpt><trkpt lat="35.0851675" lon="32.2859422"><ele>195.4</ele><time>2015-04-25T14:22:07.0000000+00:00</time></trkpt><trkpt lat="35.0851307" lon="32.2859753"><ele>195.1</ele><time>2015-04-25T14:22:08.0000000+00:00</time></trkpt><trkpt lat="35.0850661" lon="32.2860392"><ele>195.0</ele><time>2015-04-25T14:22:10.0000000+00:00</time></trkpt><trkpt lat="35.0850337" lon="32.286079"><ele>195.0</ele><time>2015-04-25T14:22:11.0000000+00:00</time></trkpt><trkpt lat="35.0849658" lon="32.2861546"><ele>194.4</ele><time>2015-04-25T14:22:13.0000000+00:00</time></trkpt><trkpt lat="35.0848986" lon="32.2862166"><ele>194.1</ele><time>2015-04-25T14:22:15.0000000+00:00</time></trkpt><trkpt lat="35.0848424" lon="32.2862926"><ele>194.0</ele><time>2015-04-25T14:22:17.0000000+00:00</time></trkpt><trkpt lat="35.0848004" lon="32.2863763"><ele>193.9</ele><time>2015-04-25T14:22:19.0000000+00:00</time></trkpt><trkpt lat="35.0847607" lon="32.2864528"><ele>193.2</ele><time>2015-04-25T14:22:21.0000000+00:00</time></trkpt><trkpt lat="35.0847213" lon="32.2865213"><ele>193.0</ele><time>2015-04-25T14:22:23.0000000+00:00</time></trkpt><trkpt lat="35.0846833" lon="32.2865896"><ele>192.2</ele><time>2015-04-25T14:22:25.0000000+00:00</time></trkpt><trkpt lat="35.0846442" lon="32.2866623"><ele>191.2</ele><time>2015-04-25T14:22:27.0000000+00:00</time></trkpt><trkpt lat="35.0845592" lon="32.2867471"><ele>190.5</ele><time>2015-04-25T14:22:29.0000000+00:00</time></trkpt><trkpt lat="35.0845142" lon="32.2867675"><ele>190.2</ele><time>2015-04-25T14:22:30.0000000+00:00</time></trkpt><trkpt lat="35.0844654" lon="32.2867925"><ele>190.1</ele><time>2015-04-25T14:22:31.0000000+00:00</time></trkpt><trkpt lat="35.0844137" lon="32.2868082"><ele>190.0</ele><time>2015-04-25T14:22:32.0000000+00:00</time></trkpt><trkpt lat="35.0843245" lon="32.2868232"><ele>189.9</ele><time>2015-04-25T14:22:34.0000000+00:00</time></trkpt><trkpt lat="35.0842456" lon="32.2868619"><ele>189.9</ele><time>2015-04-25T14:22:36.0000000+00:00</time></trkpt><trkpt lat="35.0842079" lon="32.286892"><ele>189.4</ele><time>2015-04-25T14:22:37.0000000+00:00</time></trkpt><trkpt lat="35.0841376" lon="32.2869561"><ele>189.1</ele><time>2015-04-25T14:22:39.0000000+00:00</time></trkpt><trkpt lat="35.0840989" lon="32.2870015"><ele>188.5</ele><time>2015-04-25T14:22:40.0000000+00:00</time></trkpt><trkpt lat="35.0840211" lon="32.2870759"><ele>187.3</ele><time>2015-04-25T14:22:42.0000000+00:00</time></trkpt><trkpt lat="35.0839755" lon="32.2870978"><ele>187.1</ele><time>2015-04-25T14:22:43.0000000+00:00</time></trkpt><trkpt lat="35.0839261" lon="32.287124"><ele>187.0</ele><time>2015-04-25T14:22:44.0000000+00:00</time></trkpt><trkpt lat="35.0838752" lon="32.2871497"><ele>187.0</ele><time>2015-04-25T14:22:45.0000000+00:00</time></trkpt><trkpt lat="35.0838261" lon="32.2871724"><ele>187.0</ele><time>2015-04-25T14:22:46.0000000+00:00</time></trkpt><trkpt lat="35.0837701" lon="32.2871917"><ele>187.4</ele><time>2015-04-25T14:22:47.0000000+00:00</time></trkpt><trkpt lat="35.0837094" lon="32.2872099"><ele>187.7</ele><time>2015-04-25T14:22:48.0000000+00:00</time></trkpt><trkpt lat="35.083653" lon="32.2872197"><ele>187.8</ele><time>2015-04-25T14:22:49.0000000+00:00</time></trkpt><trkpt lat="35.0835989" lon="32.2872215"><ele>187.9</ele><time>2015-04-25T14:22:50.0000000+00:00</time></trkpt><trkpt lat="35.0835535" lon="32.2872209"><ele>187.9</ele><time>2015-04-25T14:22:51.0000000+00:00</time></trkpt><trkpt lat="35.0835006" lon="32.2872192"><ele>188.4</ele><time>2015-04-25T14:22:52.0000000+00:00</time></trkpt><trkpt lat="35.0834465" lon="32.287225"><ele>188.7</ele><time>2015-04-25T14:22:53.0000000+00:00</time></trkpt><trkpt lat="35.0833535" lon="32.28723"><ele>188.9</ele><time>2015-04-25T14:22:55.0000000+00:00</time></trkpt><trkpt lat="35.0832997" lon="32.287228"><ele>188.9</ele><time>2015-04-25T14:22:56.0000000+00:00</time></trkpt><trkpt lat="35.0832083" lon="32.2872234"><ele>188.9</ele><time>2015-04-25T14:22:58.0000000+00:00</time></trkpt><trkpt lat="35.0831342" lon="32.2872057"><ele>189.7</ele><time>2015-04-25T14:23:00.0000000+00:00</time></trkpt><trkpt lat="35.083053" lon="32.2871963"><ele>190.6</ele><time>2015-04-25T14:23:02.0000000+00:00</time></trkpt><trkpt lat="35.0829734" lon="32.2871854"><ele>190.1</ele><time>2015-04-25T14:23:04.0000000+00:00</time></trkpt><trkpt lat="35.0828867" lon="32.2872031"><ele>190.0</ele><time>2015-04-25T14:23:06.0000000+00:00</time></trkpt><trkpt lat="35.0827972" lon="32.2872239"><ele>189.2</ele><time>2015-04-25T14:23:08.0000000+00:00</time></trkpt><trkpt lat="35.0827472" lon="32.2872239"><ele>189.1</ele><time>2015-04-25T14:23:09.0000000+00:00</time></trkpt><trkpt lat="35.0826512" lon="32.287213"><ele>189.2</ele><time>2015-04-25T14:23:11.0000000+00:00</time></trkpt><trkpt lat="35.0825987" lon="32.2872196"><ele>189.1</ele><time>2015-04-25T14:23:12.0000000+00:00</time></trkpt><trkpt lat="35.0825518" lon="32.2872259"><ele>188.5</ele><time>2015-04-25T14:23:13.0000000+00:00</time></trkpt><trkpt lat="35.0824961" lon="32.2872276"><ele>188.2</ele><time>2015-04-25T14:23:14.0000000+00:00</time></trkpt><trkpt lat="35.0824467" lon="32.2872385"><ele>188.1</ele><time>2015-04-25T14:23:15.0000000+00:00</time></trkpt><trkpt lat="35.0823923" lon="32.2872488"><ele>188.0</ele><time>2015-04-25T14:23:16.0000000+00:00</time></trkpt><trkpt lat="35.0823336" lon="32.2872526"><ele>187.5</ele><time>2015-04-25T14:23:17.0000000+00:00</time></trkpt><trkpt lat="35.0822822" lon="32.2872563"><ele>187.2</ele><time>2015-04-25T14:23:18.0000000+00:00</time></trkpt><trkpt lat="35.0822179" lon="32.2872531"><ele>186.6</ele><time>2015-04-25T14:23:19.0000000+00:00</time></trkpt><trkpt lat="35.0821554" lon="32.2872394"><ele>186.2</ele><time>2015-04-25T14:23:20.0000000+00:00</time></trkpt><trkpt lat="35.082091" lon="32.2872202"><ele>186.1</ele><time>2015-04-25T14:23:21.0000000+00:00</time></trkpt><trkpt lat="35.0820288" lon="32.2872019"><ele>186.0</ele><time>2015-04-25T14:23:22.0000000+00:00</time></trkpt><trkpt lat="35.0819723" lon="32.2871951"><ele>185.5</ele><time>2015-04-25T14:23:23.0000000+00:00</time></trkpt><trkpt lat="35.0819135" lon="32.2871954"><ele>185.2</ele><time>2015-04-25T14:23:24.0000000+00:00</time></trkpt><trkpt lat="35.0818433" lon="32.2872144"><ele>184.6</ele><time>2015-04-25T14:23:25.0000000+00:00</time></trkpt><trkpt lat="35.08178" lon="32.2872138"><ele>184.2</ele><time>2015-04-25T14:23:26.0000000+00:00</time></trkpt><trkpt lat="35.0817082" lon="32.2872122"><ele>184.1</ele><time>2015-04-25T14:23:27.0000000+00:00</time></trkpt><trkpt lat="35.0816367" lon="32.2872264"><ele>184.0</ele><time>2015-04-25T14:23:28.0000000+00:00</time></trkpt><trkpt lat="35.0815741" lon="32.2872424"><ele>183.5</ele><time>2015-04-25T14:23:29.0000000+00:00</time></trkpt><trkpt lat="35.0815061" lon="32.2872556"><ele>183.2</ele><time>2015-04-25T14:23:30.0000000+00:00</time></trkpt><trkpt lat="35.0814526" lon="32.287253"><ele>183.6</ele><time>2015-04-25T14:23:31.0000000+00:00</time></trkpt><trkpt lat="35.0813937" lon="32.2872387"><ele>183.2</ele><time>2015-04-25T14:23:32.0000000+00:00</time></trkpt><trkpt lat="35.0813367" lon="32.2872209"><ele>183.6</ele><time>2015-04-25T14:23:33.0000000+00:00</time></trkpt><trkpt lat="35.0812899" lon="32.2872064"><ele>183.3</ele><time>2015-04-25T14:23:34.0000000+00:00</time></trkpt><trkpt lat="35.0812374" lon="32.2872083"><ele>183.1</ele><time>2015-04-25T14:23:35.0000000+00:00</time></trkpt><trkpt lat="35.0811868" lon="32.2872196"><ele>183.0</ele><time>2015-04-25T14:23:36.0000000+00:00</time></trkpt><trkpt lat="35.0810998" lon="32.2872614"><ele>182.5</ele><time>2015-04-25T14:23:38.0000000+00:00</time></trkpt><trkpt lat="35.0810584" lon="32.28729"><ele>182.2</ele><time>2015-04-25T14:23:39.0000000+00:00</time></trkpt><trkpt lat="35.0810155" lon="32.287313"><ele>182.1</ele><time>2015-04-25T14:23:40.0000000+00:00</time></trkpt><trkpt lat="35.080967" lon="32.2873364"><ele>182.0</ele><time>2015-04-25T14:23:41.0000000+00:00</time></trkpt><trkpt lat="35.0808903" lon="32.2873632"><ele>180.7</ele><time>2015-04-25T14:23:43.0000000+00:00</time></trkpt><trkpt lat="35.0808181" lon="32.2873984"><ele>180.1</ele><time>2015-04-25T14:23:45.0000000+00:00</time></trkpt><trkpt lat="35.0807547" lon="32.2874625"><ele>179.2</ele><time>2015-04-25T14:23:47.0000000+00:00</time></trkpt><trkpt lat="35.0806944" lon="32.2875261"><ele>177.8</ele><time>2015-04-25T14:23:49.0000000+00:00</time></trkpt><trkpt lat="35.0806519" lon="32.287563"><ele>176.4</ele><time>2015-04-25T14:23:51.0000000+00:00</time></trkpt><trkpt lat="35.0806059" lon="32.2876154"><ele>175.0</ele><time>2015-04-25T14:23:54.0000000+00:00</time></trkpt><trkpt lat="35.0805587" lon="32.2876531"><ele>174.1</ele><time>2015-04-25T14:23:57.0000000+00:00</time></trkpt><trkpt lat="35.080502" lon="32.2877068"><ele>173.2</ele><time>2015-04-25T14:24:00.0000000+00:00</time></trkpt><trkpt lat="35.0804604" lon="32.2877566"><ele>173.0</ele><time>2015-04-25T14:24:02.0000000+00:00</time></trkpt><trkpt lat="35.0804167" lon="32.2878185"><ele>172.2</ele><time>2015-04-25T14:24:04.0000000+00:00</time></trkpt><trkpt lat="35.0803551" lon="32.2878821"><ele>171.5</ele><time>2015-04-25T14:24:06.0000000+00:00</time></trkpt><trkpt lat="35.0802491" lon="32.2879072"><ele>170.6</ele><time>2015-04-25T14:24:08.0000000+00:00</time></trkpt><trkpt lat="35.0801613" lon="32.2879387"><ele>170.1</ele><time>2015-04-25T14:24:10.0000000+00:00</time></trkpt><trkpt lat="35.0801175" lon="32.2879649"><ele>170.0</ele><time>2015-04-25T14:24:11.0000000+00:00</time></trkpt><trkpt lat="35.0800832" lon="32.2880114"><ele>170.0</ele><time>2015-04-25T14:24:12.0000000+00:00</time></trkpt><trkpt lat="35.0800507" lon="32.2880647"><ele>170.0</ele><time>2015-04-25T14:24:13.0000000+00:00</time></trkpt><trkpt lat="35.0800162" lon="32.2881598"><ele>169.9</ele><time>2015-04-25T14:24:15.0000000+00:00</time></trkpt><trkpt lat="35.0799977" lon="32.2882101"><ele>169.9</ele><time>2015-04-25T14:24:16.0000000+00:00</time></trkpt><trkpt lat="35.0799762" lon="32.2883047"><ele>170.2</ele><time>2015-04-25T14:24:18.0000000+00:00</time></trkpt><trkpt lat="35.0799801" lon="32.2883612"><ele>170.0</ele><time>2015-04-25T14:24:20.0000000+00:00</time></trkpt><trkpt lat="35.0800056" lon="32.2884164"><ele>169.9</ele><time>2015-04-25T14:24:23.0000000+00:00</time></trkpt><trkpt lat="35.0800464" lon="32.2884491"><ele>169.9</ele><time>2015-04-25T14:24:26.0000000+00:00</time></trkpt><trkpt lat="35.0800825" lon="32.2884863"><ele>169.9</ele><time>2015-04-25T14:24:29.0000000+00:00</time></trkpt><trkpt lat="35.0801248" lon="32.2885214"><ele>169.9</ele><time>2015-04-25T14:24:32.0000000+00:00</time></trkpt><trkpt lat="35.0801553" lon="32.2885718"><ele>169.9</ele><time>2015-04-25T14:25:38.0000000+00:00</time></trkpt><trkpt lat="35.0801962" lon="32.2886278"><ele>169.7</ele><time>2015-04-25T14:25:42.0000000+00:00</time></trkpt><trkpt lat="35.0802288" lon="32.2886773"><ele>169.9</ele><time>2015-04-25T14:25:44.0000000+00:00</time></trkpt><trkpt lat="35.0802637" lon="32.2887273"><ele>169.2</ele><time>2015-04-25T14:25:46.0000000+00:00</time></trkpt><trkpt lat="35.0803021" lon="32.2887812"><ele>168.5</ele><time>2015-04-25T14:25:48.0000000+00:00</time></trkpt><trkpt lat="35.0803405" lon="32.288847"><ele>168.1</ele><time>2015-04-25T14:25:50.0000000+00:00</time></trkpt><trkpt lat="35.0803787" lon="32.2889183"><ele>168.0</ele><time>2015-04-25T14:25:52.0000000+00:00</time></trkpt><trkpt lat="35.0804186" lon="32.288987"><ele>167.9</ele><time>2015-04-25T14:25:54.0000000+00:00</time></trkpt><trkpt lat="35.0804604" lon="32.2890516"><ele>167.2</ele><time>2015-04-25T14:25:56.0000000+00:00</time></trkpt><trkpt lat="35.0805109" lon="32.2891186"><ele>167.0</ele><time>2015-04-25T14:25:58.0000000+00:00</time></trkpt><trkpt lat="35.0805618" lon="32.289192"><ele>166.9</ele><time>2015-04-25T14:26:00.0000000+00:00</time></trkpt><trkpt lat="35.0806077" lon="32.2892618"><ele>166.4</ele><time>2015-04-25T14:26:02.0000000+00:00</time></trkpt><trkpt lat="35.0806475" lon="32.2893294"><ele>166.1</ele><time>2015-04-25T14:26:04.0000000+00:00</time></trkpt><trkpt lat="35.0806876" lon="32.2894027"><ele>165.5</ele><time>2015-04-25T14:26:06.0000000+00:00</time></trkpt><trkpt lat="35.0807411" lon="32.28949"><ele>164.6</ele><time>2015-04-25T14:26:08.0000000+00:00</time></trkpt><trkpt lat="35.0807781" lon="32.2895369"><ele>164.2</ele><time>2015-04-25T14:26:09.0000000+00:00</time></trkpt><trkpt lat="35.0808086" lon="32.2895813"><ele>164.1</ele><time>2015-04-25T14:26:10.0000000+00:00</time></trkpt><trkpt lat="35.0808669" lon="32.28966"><ele>164.0</ele><time>2015-04-25T14:26:12.0000000+00:00</time></trkpt><trkpt lat="35.0809188" lon="32.2897433"><ele>163.9</ele><time>2015-04-25T14:26:14.0000000+00:00</time></trkpt><trkpt lat="35.0809738" lon="32.2898344"><ele>163.4</ele><time>2015-04-25T14:26:16.0000000+00:00</time></trkpt><trkpt lat="35.0810021" lon="32.2898805"><ele>163.2</ele><time>2015-04-25T14:26:17.0000000+00:00</time></trkpt><trkpt lat="35.0810378" lon="32.2899354"><ele>163.1</ele><time>2015-04-25T14:26:18.0000000+00:00</time></trkpt><trkpt lat="35.0810718" lon="32.2899829"><ele>162.5</ele><time>2015-04-25T14:26:19.0000000+00:00</time></trkpt><trkpt lat="35.0811055" lon="32.2900311"><ele>162.2</ele><time>2015-04-25T14:26:20.0000000+00:00</time></trkpt><trkpt lat="35.0811343" lon="32.2900858"><ele>161.6</ele><time>2015-04-25T14:26:21.0000000+00:00</time></trkpt><trkpt lat="35.081161" lon="32.2901331"><ele>161.3</ele><time>2015-04-25T14:26:22.0000000+00:00</time></trkpt><trkpt lat="35.0811964" lon="32.2901798"><ele>161.1</ele><time>2015-04-25T14:26:23.0000000+00:00</time></trkpt><trkpt lat="35.0812373" lon="32.2902302"><ele>160.5</ele><time>2015-04-25T14:26:24.0000000+00:00</time></trkpt><trkpt lat="35.0812753" lon="32.2902735"><ele>160.2</ele><time>2015-04-25T14:26:25.0000000+00:00</time></trkpt><trkpt lat="35.081315" lon="32.2903253"><ele>159.6</ele><time>2015-04-25T14:26:26.0000000+00:00</time></trkpt><trkpt lat="35.0813495" lon="32.2903686"><ele>159.3</ele><time>2015-04-25T14:26:27.0000000+00:00</time></trkpt><trkpt lat="35.0813884" lon="32.2904212"><ele>158.6</ele><time>2015-04-25T14:26:28.0000000+00:00</time></trkpt><trkpt lat="35.0814307" lon="32.290475"><ele>158.3</ele><time>2015-04-25T14:26:29.0000000+00:00</time></trkpt><trkpt lat="35.0814628" lon="32.2905203"><ele>157.6</ele><time>2015-04-25T14:26:30.0000000+00:00</time></trkpt><trkpt lat="35.0814955" lon="32.2905625"><ele>157.3</ele><time>2015-04-25T14:26:31.0000000+00:00</time></trkpt><trkpt lat="35.0815272" lon="32.2906108"><ele>156.6</ele><time>2015-04-25T14:26:32.0000000+00:00</time></trkpt><trkpt lat="35.0815824" lon="32.2906965"><ele>156.1</ele><time>2015-04-25T14:26:34.0000000+00:00</time></trkpt><trkpt lat="35.0816313" lon="32.2907816"><ele>156.0</ele><time>2015-04-25T14:26:36.0000000+00:00</time></trkpt><trkpt lat="35.0816634" lon="32.2908291"><ele>155.5</ele><time>2015-04-25T14:26:37.0000000+00:00</time></trkpt><trkpt lat="35.0817218" lon="32.290907"><ele>155.1</ele><time>2015-04-25T14:26:39.0000000+00:00</time></trkpt><trkpt lat="35.0817673" lon="32.2909805"><ele>153.5</ele><time>2015-04-25T14:26:41.0000000+00:00</time></trkpt><trkpt lat="35.0817962" lon="32.2910289"><ele>152.7</ele><time>2015-04-25T14:26:42.0000000+00:00</time></trkpt><trkpt lat="35.0818228" lon="32.2910792"><ele>152.3</ele><time>2015-04-25T14:26:43.0000000+00:00</time></trkpt><trkpt lat="35.0818515" lon="32.2911401"><ele>151.6</ele><time>2015-04-25T14:26:44.0000000+00:00</time></trkpt><trkpt lat="35.0818825" lon="32.291205"><ele>150.8</ele><time>2015-04-25T14:26:45.0000000+00:00</time></trkpt><trkpt lat="35.0819063" lon="32.2912596"><ele>150.9</ele><time>2015-04-25T14:26:46.0000000+00:00</time></trkpt><trkpt lat="35.0819324" lon="32.2913212"><ele>150.4</ele><time>2015-04-25T14:26:47.0000000+00:00</time></trkpt><trkpt lat="35.0819513" lon="32.2913775"><ele>149.7</ele><time>2015-04-25T14:26:48.0000000+00:00</time></trkpt><trkpt lat="35.0819778" lon="32.2914566"><ele>148.4</ele><time>2015-04-25T14:26:50.0000000+00:00</time></trkpt><trkpt lat="35.0819709" lon="32.2915264"><ele>147.1</ele><time>2015-04-25T14:26:53.0000000+00:00</time></trkpt><trkpt lat="35.0819225" lon="32.2915698"><ele>146.1</ele><time>2015-04-25T14:26:57.0000000+00:00</time></trkpt><trkpt lat="35.0818708" lon="32.2916184"><ele>145.7</ele><time>2015-04-25T14:27:00.0000000+00:00</time></trkpt><trkpt lat="35.0818284" lon="32.2916542"><ele>145.1</ele><time>2015-04-25T14:27:02.0000000+00:00</time></trkpt><trkpt lat="35.081778" lon="32.2916849"><ele>144.5</ele><time>2015-04-25T14:27:04.0000000+00:00</time></trkpt><trkpt lat="35.0816935" lon="32.2917331"><ele>143.3</ele><time>2015-04-25T14:27:06.0000000+00:00</time></trkpt><trkpt lat="35.0816331" lon="32.291775"><ele>142.1</ele><time>2015-04-25T14:27:07.0000000+00:00</time></trkpt><trkpt lat="35.081577" lon="32.2918222"><ele>141.5</ele><time>2015-04-25T14:27:08.0000000+00:00</time></trkpt><trkpt lat="35.0815155" lon="32.2918716"><ele>141.2</ele><time>2015-04-25T14:27:09.0000000+00:00</time></trkpt><trkpt lat="35.081465" lon="32.2919075"><ele>141.1</ele><time>2015-04-25T14:27:10.0000000+00:00</time></trkpt><trkpt lat="35.081415" lon="32.2919536"><ele>141.5</ele><time>2015-04-25T14:27:11.0000000+00:00</time></trkpt><trkpt lat="35.0813686" lon="32.2920109"><ele>141.2</ele><time>2015-04-25T14:27:12.0000000+00:00</time></trkpt><trkpt lat="35.0813302" lon="32.2920566"><ele>141.1</ele><time>2015-04-25T14:27:13.0000000+00:00</time></trkpt><trkpt lat="35.0812916" lon="32.2921133"><ele>140.5</ele><time>2015-04-25T14:27:14.0000000+00:00</time></trkpt><trkpt lat="35.0812551" lon="32.2921597"><ele>139.7</ele><time>2015-04-25T14:27:15.0000000+00:00</time></trkpt><trkpt lat="35.0812144" lon="32.2922112"><ele>139.3</ele><time>2015-04-25T14:27:16.0000000+00:00</time></trkpt><trkpt lat="35.0811678" lon="32.2922702"><ele>138.6</ele><time>2015-04-25T14:27:17.0000000+00:00</time></trkpt><trkpt lat="35.0811297" lon="32.2923186"><ele>137.8</ele><time>2015-04-25T14:27:18.0000000+00:00</time></trkpt><trkpt lat="35.0810835" lon="32.292371"><ele>137.4</ele><time>2015-04-25T14:27:19.0000000+00:00</time></trkpt><trkpt lat="35.0810401" lon="32.292418"><ele>136.6</ele><time>2015-04-25T14:27:20.0000000+00:00</time></trkpt><trkpt lat="35.0809654" lon="32.2924701"><ele>134.9</ele><time>2015-04-25T14:27:22.0000000+00:00</time></trkpt><trkpt lat="35.0808957" lon="32.2924664"><ele>134.2</ele><time>2015-04-25T14:27:24.0000000+00:00</time></trkpt><trkpt lat="35.0808205" lon="32.2924726"><ele>133.2</ele><time>2015-04-25T14:27:26.0000000+00:00</time></trkpt><trkpt lat="35.0807743" lon="32.2925309"><ele>131.8</ele><time>2015-04-25T14:27:28.0000000+00:00</time></trkpt><trkpt lat="35.080764" lon="32.2926225"><ele>130.1</ele><time>2015-04-25T14:27:30.0000000+00:00</time></trkpt><trkpt lat="35.080751" lon="32.2927147"><ele>130.0</ele><time>2015-04-25T14:27:32.0000000+00:00</time></trkpt><trkpt lat="35.0807271" lon="32.2927927"><ele>129.4</ele><time>2015-04-25T14:27:34.0000000+00:00</time></trkpt><trkpt lat="35.0806808" lon="32.2928569"><ele>128.6</ele><time>2015-04-25T14:27:36.0000000+00:00</time></trkpt><trkpt lat="35.0806234" lon="32.2929225"><ele>128.1</ele><time>2015-04-25T14:27:38.0000000+00:00</time></trkpt><trkpt lat="35.0805646" lon="32.2929858"><ele>127.2</ele><time>2015-04-25T14:27:40.0000000+00:00</time></trkpt><trkpt lat="35.0805043" lon="32.2930436"><ele>126.3</ele><time>2015-04-25T14:27:42.0000000+00:00</time></trkpt><trkpt lat="35.0804553" lon="32.2930917"><ele>125.5</ele><time>2015-04-25T14:27:44.0000000+00:00</time></trkpt><trkpt lat="35.0804334" lon="32.2931657"><ele>124.5</ele><time>2015-04-25T14:27:47.0000000+00:00</time></trkpt><trkpt lat="35.0804595" lon="32.2932264"><ele>123.6</ele><time>2015-04-25T14:27:49.0000000+00:00</time></trkpt><trkpt lat="35.0805113" lon="32.2932874"><ele>122.1</ele><time>2015-04-25T14:27:51.0000000+00:00</time></trkpt><trkpt lat="35.080556" lon="32.2933236"><ele>121.0</ele><time>2015-04-25T14:27:52.0000000+00:00</time></trkpt><trkpt lat="35.0806294" lon="32.2933459"><ele>119.5</ele><time>2015-04-25T14:27:53.0000000+00:00</time></trkpt><trkpt lat="35.0806878" lon="32.2933755"><ele>118.2</ele><time>2015-04-25T14:27:54.0000000+00:00</time></trkpt><trkpt lat="35.080742" lon="32.2934028"><ele>117.1</ele><time>2015-04-25T14:27:55.0000000+00:00</time></trkpt><trkpt lat="35.0807981" lon="32.2934282"><ele>116.0</ele><time>2015-04-25T14:27:56.0000000+00:00</time></trkpt><trkpt lat="35.0808483" lon="32.293454"><ele>115.0</ele><time>2015-04-25T14:27:57.0000000+00:00</time></trkpt><trkpt lat="35.0808941" lon="32.293476"><ele>113.9</ele><time>2015-04-25T14:27:58.0000000+00:00</time></trkpt><trkpt lat="35.0809443" lon="32.2934979"><ele>112.9</ele><time>2015-04-25T14:27:59.0000000+00:00</time></trkpt><trkpt lat="35.0809983" lon="32.2935217"><ele>111.4</ele><time>2015-04-25T14:28:00.0000000+00:00</time></trkpt><trkpt lat="35.0810519" lon="32.2935419"><ele>110.7</ele><time>2015-04-25T14:28:01.0000000+00:00</time></trkpt><trkpt lat="35.0811062" lon="32.2935708"><ele>109.8</ele><time>2015-04-25T14:28:02.0000000+00:00</time></trkpt><trkpt lat="35.0811588" lon="32.2936062"><ele>108.9</ele><time>2015-04-25T14:28:03.0000000+00:00</time></trkpt><trkpt lat="35.0812153" lon="32.2936414"><ele>108.4</ele><time>2015-04-25T14:28:04.0000000+00:00</time></trkpt><trkpt lat="35.0812746" lon="32.2936854"><ele>108.2</ele><time>2015-04-25T14:28:05.0000000+00:00</time></trkpt><trkpt lat="35.081313" lon="32.2937203"><ele>107.5</ele><time>2015-04-25T14:28:06.0000000+00:00</time></trkpt><trkpt lat="35.0813468" lon="32.2937568"><ele>106.7</ele><time>2015-04-25T14:28:07.0000000+00:00</time></trkpt><trkpt lat="35.0814023" lon="32.2938077"><ele>105.4</ele><time>2015-04-25T14:28:09.0000000+00:00</time></trkpt><trkpt lat="35.0814478" lon="32.2938479"><ele>104.1</ele><time>2015-04-25T14:28:12.0000000+00:00</time></trkpt><trkpt lat="35.0815182" lon="32.2938861"><ele>101.8</ele><time>2015-04-25T14:28:15.0000000+00:00</time></trkpt><trkpt lat="35.0815634" lon="32.2939179"><ele>100.9</ele><time>2015-04-25T14:28:16.0000000+00:00</time></trkpt><trkpt lat="35.0816121" lon="32.2939545"><ele>99.9</ele><time>2015-04-25T14:28:17.0000000+00:00</time></trkpt><trkpt lat="35.0816691" lon="32.2940053"><ele>98.9</ele><time>2015-04-25T14:28:18.0000000+00:00</time></trkpt><trkpt lat="35.0817294" lon="32.2940563"><ele>97.9</ele><time>2015-04-25T14:28:19.0000000+00:00</time></trkpt><trkpt lat="35.0817946" lon="32.2941178"><ele>96.9</ele><time>2015-04-25T14:28:20.0000000+00:00</time></trkpt><trkpt lat="35.0818561" lon="32.2941758"><ele>95.9</ele><time>2015-04-25T14:28:21.0000000+00:00</time></trkpt><trkpt lat="35.0819039" lon="32.2942253"><ele>94.9</ele><time>2015-04-25T14:28:22.0000000+00:00</time></trkpt><trkpt lat="35.08195" lon="32.2942745"><ele>94.4</ele><time>2015-04-25T14:28:23.0000000+00:00</time></trkpt><trkpt lat="35.0819968" lon="32.2943279"><ele>93.7</ele><time>2015-04-25T14:28:24.0000000+00:00</time></trkpt><trkpt lat="35.0820291" lon="32.2943695"><ele>93.3</ele><time>2015-04-25T14:28:25.0000000+00:00</time></trkpt><trkpt lat="35.0820666" lon="32.2944162"><ele>92.6</ele><time>2015-04-25T14:28:26.0000000+00:00</time></trkpt><trkpt lat="35.08214" lon="32.294472"><ele>91.4</ele><time>2015-04-25T14:28:28.0000000+00:00</time></trkpt><trkpt lat="35.0822106" lon="32.2945253"><ele>90.3</ele><time>2015-04-25T14:28:30.0000000+00:00</time></trkpt><trkpt lat="35.0822598" lon="32.2945644"><ele>89.1</ele><time>2015-04-25T14:28:31.0000000+00:00</time></trkpt><trkpt lat="35.0823247" lon="32.294602"><ele>87.5</ele><time>2015-04-25T14:28:32.0000000+00:00</time></trkpt><trkpt lat="35.082394" lon="32.2946402"><ele>86.7</ele><time>2015-04-25T14:28:33.0000000+00:00</time></trkpt><trkpt lat="35.0824708" lon="32.2946799"><ele>86.8</ele><time>2015-04-25T14:28:34.0000000+00:00</time></trkpt><trkpt lat="35.0825356" lon="32.2947081"><ele>86.4</ele><time>2015-04-25T14:28:35.0000000+00:00</time></trkpt><trkpt lat="35.0826143" lon="32.2947439"><ele>85.7</ele><time>2015-04-25T14:28:36.0000000+00:00</time></trkpt><trkpt lat="35.0827015" lon="32.2947807"><ele>85.3</ele><time>2015-04-25T14:28:37.0000000+00:00</time></trkpt><trkpt lat="35.0827729" lon="32.2948123"><ele>85.6</ele><time>2015-04-25T14:28:38.0000000+00:00</time></trkpt><trkpt lat="35.0828486" lon="32.2948463"><ele>85.8</ele><time>2015-04-25T14:28:39.0000000+00:00</time></trkpt><trkpt lat="35.0829251" lon="32.2948942"><ele>85.9</ele><time>2015-04-25T14:28:40.0000000+00:00</time></trkpt><trkpt lat="35.0830007" lon="32.2949319"><ele>85.4</ele><time>2015-04-25T14:28:41.0000000+00:00</time></trkpt><trkpt lat="35.083085" lon="32.2949797"><ele>85.2</ele><time>2015-04-25T14:28:42.0000000+00:00</time></trkpt><trkpt lat="35.0831601" lon="32.2950128"><ele>84.5</ele><time>2015-04-25T14:28:43.0000000+00:00</time></trkpt><trkpt lat="35.0832395" lon="32.2950513"><ele>83.7</ele><time>2015-04-25T14:28:44.0000000+00:00</time></trkpt><trkpt lat="35.0833047" lon="32.2950924"><ele>83.3</ele><time>2015-04-25T14:28:45.0000000+00:00</time></trkpt><trkpt lat="35.0833495" lon="32.2951232"><ele>82.6</ele><time>2015-04-25T14:28:46.0000000+00:00</time></trkpt><trkpt lat="35.0834053" lon="32.2951693"><ele>81.8</ele><time>2015-04-25T14:28:47.0000000+00:00</time></trkpt><trkpt lat="35.0834655" lon="32.2952306"><ele>79.9</ele><time>2015-04-25T14:28:48.0000000+00:00</time></trkpt><trkpt lat="35.08351" lon="32.2953102"><ele>78.4</ele><time>2015-04-25T14:28:49.0000000+00:00</time></trkpt><trkpt lat="35.0835618" lon="32.2954018"><ele>77.7</ele><time>2015-04-25T14:28:50.0000000+00:00</time></trkpt><trkpt lat="35.0836042" lon="32.2954869"><ele>77.3</ele><time>2015-04-25T14:28:51.0000000+00:00</time></trkpt><trkpt lat="35.0836486" lon="32.2955642"><ele>76.6</ele><time>2015-04-25T14:28:52.0000000+00:00</time></trkpt><trkpt lat="35.0836899" lon="32.2956525"><ele>76.3</ele><time>2015-04-25T14:28:53.0000000+00:00</time></trkpt><trkpt lat="35.0837214" lon="32.2957315"><ele>75.6</ele><time>2015-04-25T14:28:54.0000000+00:00</time></trkpt><trkpt lat="35.0837539" lon="32.2958227"><ele>75.3</ele><time>2015-04-25T14:28:55.0000000+00:00</time></trkpt><trkpt lat="35.0837892" lon="32.2959161"><ele>75.1</ele><time>2015-04-25T14:28:56.0000000+00:00</time></trkpt><trkpt lat="35.0838246" lon="32.2959935"><ele>74.0</ele><time>2015-04-25T14:28:57.0000000+00:00</time></trkpt><trkpt lat="35.0838699" lon="32.2960825"><ele>73.5</ele><time>2015-04-25T14:28:58.0000000+00:00</time></trkpt><trkpt lat="35.083912" lon="32.2961438"><ele>72.7</ele><time>2015-04-25T14:28:59.0000000+00:00</time></trkpt><trkpt lat="35.0839487" lon="32.2961933"><ele>71.8</ele><time>2015-04-25T14:29:00.0000000+00:00</time></trkpt><trkpt lat="35.0839915" lon="32.2962465"><ele>71.4</ele><time>2015-04-25T14:29:01.0000000+00:00</time></trkpt><trkpt lat="35.0840331" lon="32.2962992"><ele>70.7</ele><time>2015-04-25T14:29:02.0000000+00:00</time></trkpt><trkpt lat="35.0840754" lon="32.2963697"><ele>69.3</ele><time>2015-04-25T14:29:03.0000000+00:00</time></trkpt><trkpt lat="35.0841189" lon="32.2964624"><ele>68.1</ele><time>2015-04-25T14:29:04.0000000+00:00</time></trkpt><trkpt lat="35.0841594" lon="32.2965486"><ele>66.5</ele><time>2015-04-25T14:29:05.0000000+00:00</time></trkpt><trkpt lat="35.0842073" lon="32.2966491"><ele>65.7</ele><time>2015-04-25T14:29:06.0000000+00:00</time></trkpt><trkpt lat="35.084248" lon="32.2967247"><ele>64.8</ele><time>2015-04-25T14:29:07.0000000+00:00</time></trkpt><trkpt lat="35.0842919" lon="32.2967921"><ele>64.4</ele><time>2015-04-25T14:29:08.0000000+00:00</time></trkpt><trkpt lat="35.08434" lon="32.2968507"><ele>64.2</ele><time>2015-04-25T14:29:09.0000000+00:00</time></trkpt><trkpt lat="35.0843851" lon="32.2969013"><ele>63.5</ele><time>2015-04-25T14:29:10.0000000+00:00</time></trkpt><trkpt lat="35.0844287" lon="32.2969605"><ele>63.2</ele><time>2015-04-25T14:29:11.0000000+00:00</time></trkpt><trkpt lat="35.0844719" lon="32.2970154"><ele>63.1</ele><time>2015-04-25T14:29:12.0000000+00:00</time></trkpt><trkpt lat="35.0845068" lon="32.2970644"><ele>63.0</ele><time>2015-04-25T14:29:13.0000000+00:00</time></trkpt><trkpt lat="35.0845502" lon="32.2971189"><ele>63.0</ele><time>2015-04-25T14:29:14.0000000+00:00</time></trkpt><trkpt lat="35.0845895" lon="32.2971688"><ele>62.9</ele><time>2015-04-25T14:29:15.0000000+00:00</time></trkpt><trkpt lat="35.0846212" lon="32.2972157"><ele>62.4</ele><time>2015-04-25T14:29:16.0000000+00:00</time></trkpt><trkpt lat="35.0846601" lon="32.2972657"><ele>61.7</ele><time>2015-04-25T14:29:17.0000000+00:00</time></trkpt><trkpt lat="35.0846916" lon="32.2973063"><ele>61.3</ele><time>2015-04-25T14:29:18.0000000+00:00</time></trkpt><trkpt lat="35.0847318" lon="32.2973495"><ele>61.1</ele><time>2015-04-25T14:29:19.0000000+00:00</time></trkpt><trkpt lat="35.0847688" lon="32.2973968"><ele>60.5</ele><time>2015-04-25T14:29:20.0000000+00:00</time></trkpt><trkpt lat="35.0848084" lon="32.2974338"><ele>59.7</ele><time>2015-04-25T14:29:21.0000000+00:00</time></trkpt><trkpt lat="35.0848493" lon="32.297476"><ele>59.8</ele><time>2015-04-25T14:29:22.0000000+00:00</time></trkpt><trkpt lat="35.0848854" lon="32.2975123"><ele>59.9</ele><time>2015-04-25T14:29:23.0000000+00:00</time></trkpt><trkpt lat="35.0849203" lon="32.2975504"><ele>59.9</ele><time>2015-04-25T14:29:24.0000000+00:00</time></trkpt><trkpt lat="35.0849534" lon="32.2975879"><ele>59.4</ele><time>2015-04-25T14:29:25.0000000+00:00</time></trkpt><trkpt lat="35.0850063" lon="32.2976691"><ele>59.8</ele><time>2015-04-25T14:29:27.0000000+00:00</time></trkpt><trkpt lat="35.0850576" lon="32.2977359"><ele>60.6</ele><time>2015-04-25T14:29:29.0000000+00:00</time></trkpt><trkpt lat="35.0851086" lon="32.2977982"><ele>60.9</ele><time>2015-04-25T14:29:31.0000000+00:00</time></trkpt><trkpt lat="35.0851476" lon="32.2978574"><ele>60.2</ele><time>2015-04-25T14:29:33.0000000+00:00</time></trkpt><trkpt lat="35.0851919" lon="32.297904"><ele>60.0</ele><time>2015-04-25T14:29:35.0000000+00:00</time></trkpt><trkpt lat="35.0852342" lon="32.297952"><ele>59.9</ele><time>2015-04-25T14:29:37.0000000+00:00</time></trkpt><trkpt lat="35.085278" lon="32.2980015"><ele>59.9</ele><time>2015-04-25T14:29:39.0000000+00:00</time></trkpt><trkpt lat="35.0853289" lon="32.2980504"><ele>59.9</ele><time>2015-04-25T14:29:41.0000000+00:00</time></trkpt><trkpt lat="35.0853781" lon="32.2980979"><ele>59.7</ele><time>2015-04-25T14:29:43.0000000+00:00</time></trkpt><trkpt lat="35.0854286" lon="32.2981437"><ele>59.6</ele><time>2015-04-25T14:29:45.0000000+00:00</time></trkpt><trkpt lat="35.0854752" lon="32.298179"><ele>59.4</ele><time>2015-04-25T14:29:47.0000000+00:00</time></trkpt><trkpt lat="35.0855221" lon="32.2982068"><ele>59.0</ele><time>2015-04-25T14:29:49.0000000+00:00</time></trkpt><trkpt lat="35.0855687" lon="32.298238"><ele>59.7</ele><time>2015-04-25T14:29:51.0000000+00:00</time></trkpt><trkpt lat="35.0856303" lon="32.2982746"><ele>59.9</ele><time>2015-04-25T14:29:53.0000000+00:00</time></trkpt><trkpt lat="35.0856854" lon="32.2983053"><ele>59.9</ele><time>2015-04-25T14:29:55.0000000+00:00</time></trkpt><trkpt lat="35.0857317" lon="32.298342"><ele>59.9</ele><time>2015-04-25T14:30:23.0000000+00:00</time></trkpt><trkpt lat="35.085796" lon="32.2983733"><ele>59.9</ele><time>2015-04-25T14:30:26.0000000+00:00</time></trkpt><trkpt lat="35.0858402" lon="32.2983933"><ele>59.9</ele><time>2015-04-25T14:30:28.0000000+00:00</time></trkpt><trkpt lat="35.0858847" lon="32.2984126"><ele>59.4</ele><time>2015-04-25T14:30:30.0000000+00:00</time></trkpt><trkpt lat="35.0859332" lon="32.2984393"><ele>59.1</ele><time>2015-04-25T14:30:32.0000000+00:00</time></trkpt><trkpt lat="35.0859852" lon="32.2984714"><ele>59.0</ele><time>2015-04-25T14:30:34.0000000+00:00</time></trkpt><trkpt lat="35.086043" lon="32.2985099"><ele>58.2</ele><time>2015-04-25T14:30:36.0000000+00:00</time></trkpt><trkpt lat="35.0861031" lon="32.2985731"><ele>56.7</ele><time>2015-04-25T14:30:38.0000000+00:00</time></trkpt><trkpt lat="35.0861609" lon="32.2986483"><ele>55.6</ele><time>2015-04-25T14:30:40.0000000+00:00</time></trkpt><trkpt lat="35.0862312" lon="32.2987471"><ele>54.6</ele><time>2015-04-25T14:30:42.0000000+00:00</time></trkpt><trkpt lat="35.0862691" lon="32.2987914"><ele>54.3</ele><time>2015-04-25T14:30:43.0000000+00:00</time></trkpt><trkpt lat="35.0863119" lon="32.2988413"><ele>53.6</ele><time>2015-04-25T14:30:44.0000000+00:00</time></trkpt><trkpt lat="35.0863579" lon="32.2988931"><ele>53.3</ele><time>2015-04-25T14:30:45.0000000+00:00</time></trkpt><trkpt lat="35.0863988" lon="32.2989325"><ele>53.1</ele><time>2015-04-25T14:30:46.0000000+00:00</time></trkpt><trkpt lat="35.0864541" lon="32.2989703"><ele>53.0</ele><time>2015-04-25T14:30:47.0000000+00:00</time></trkpt><trkpt lat="35.0865022" lon="32.2990099"><ele>53.0</ele><time>2015-04-25T14:30:48.0000000+00:00</time></trkpt><trkpt lat="35.0865425" lon="32.2990431"><ele>52.5</ele><time>2015-04-25T14:30:49.0000000+00:00</time></trkpt><trkpt lat="35.0865951" lon="32.2990985"><ele>51.6</ele><time>2015-04-25T14:30:51.0000000+00:00</time></trkpt><trkpt lat="35.086629" lon="32.2991501"><ele>51.1</ele><time>2015-04-25T14:30:53.0000000+00:00</time></trkpt><trkpt lat="35.0866469" lon="32.2992028"><ele>50.4</ele><time>2015-04-25T14:30:56.0000000+00:00</time></trkpt><trkpt lat="35.086628" lon="32.2992532"><ele>51.7</ele><time>2015-04-25T14:31:22.0000000+00:00</time></trkpt><trkpt lat="35.0865719" lon="32.2992847"><ele>51.2</ele><time>2015-04-25T14:31:58.0000000+00:00</time></trkpt><trkpt lat="35.0864949" lon="32.2992896"><ele>50.5</ele><time>2015-04-25T14:32:00.0000000+00:00</time></trkpt><trkpt lat="35.0864166" lon="32.2992866"><ele>50.1</ele><time>2015-04-25T14:32:02.0000000+00:00</time></trkpt><trkpt lat="35.086345" lon="32.2992803"><ele>49.5</ele><time>2015-04-25T14:32:04.0000000+00:00</time></trkpt><trkpt lat="35.0862927" lon="32.2992764"><ele>49.1</ele><time>2015-04-25T14:32:06.0000000+00:00</time></trkpt><trkpt lat="35.0862434" lon="32.2992752"><ele>49.0</ele><time>2015-04-25T14:32:08.0000000+00:00</time></trkpt><trkpt lat="35.0861914" lon="32.2992729"><ele>48.9</ele><time>2015-04-25T14:32:10.0000000+00:00</time></trkpt><trkpt lat="35.0861405" lon="32.2992662"><ele>48.2</ele><time>2015-04-25T14:32:12.0000000+00:00</time></trkpt><trkpt lat="35.0860899" lon="32.2992676"><ele>48.0</ele><time>2015-04-25T14:32:14.0000000+00:00</time></trkpt><trkpt lat="35.086035" lon="32.2992808"><ele>46.7</ele><time>2015-04-25T14:32:16.0000000+00:00</time></trkpt><trkpt lat="35.085972" lon="32.299298"><ele>46.1</ele><time>2015-04-25T14:32:18.0000000+00:00</time></trkpt><trkpt lat="35.0859074" lon="32.2993231"><ele>45.2</ele><time>2015-04-25T14:32:20.0000000+00:00</time></trkpt><trkpt lat="35.0858388" lon="32.2993542"><ele>44.3</ele><time>2015-04-25T14:32:22.0000000+00:00</time></trkpt><trkpt lat="35.0857546" lon="32.2994084"><ele>42.8</ele><time>2015-04-25T14:32:24.0000000+00:00</time></trkpt><trkpt lat="35.0857179" lon="32.2994803"><ele>41.8</ele><time>2015-04-25T14:32:25.0000000+00:00</time></trkpt><trkpt lat="35.0856996" lon="32.2995529"><ele>41.4</ele><time>2015-04-25T14:32:26.0000000+00:00</time></trkpt><trkpt lat="35.0856951" lon="32.2996119"><ele>41.2</ele><time>2015-04-25T14:32:27.0000000+00:00</time></trkpt><trkpt lat="35.0857162" lon="32.2996995"><ele>41.2</ele><time>2015-04-25T14:32:29.0000000+00:00</time></trkpt><trkpt lat="35.0857298" lon="32.2997853"><ele>42.3</ele><time>2015-04-25T14:32:31.0000000+00:00</time></trkpt><trkpt lat="35.0857272" lon="32.2998721"><ele>42.8</ele><time>2015-04-25T14:32:33.0000000+00:00</time></trkpt><trkpt lat="35.0857182" lon="32.2999438"><ele>43.4</ele><time>2015-04-25T14:32:35.0000000+00:00</time></trkpt><trkpt lat="35.0857227" lon="32.3000064"><ele>43.8</ele><time>2015-04-25T14:32:37.0000000+00:00</time></trkpt><trkpt lat="35.0857425" lon="32.300068"><ele>43.4</ele><time>2015-04-25T14:32:40.0000000+00:00</time></trkpt><trkpt lat="35.0857734" lon="32.3001301"><ele>43.0</ele><time>2015-04-25T14:32:43.0000000+00:00</time></trkpt><trkpt lat="35.0858028" lon="32.3001896"><ele>42.4</ele><time>2015-04-25T14:32:46.0000000+00:00</time></trkpt><trkpt lat="35.0858468" lon="32.3002336"><ele>42.0</ele><time>2015-04-25T14:32:49.0000000+00:00</time></trkpt><trkpt lat="35.0858976" lon="32.3002665"><ele>40.6</ele><time>2015-04-25T14:32:52.0000000+00:00</time></trkpt><trkpt lat="35.0859401" lon="32.3002972"><ele>40.0</ele><time>2015-04-25T14:32:55.0000000+00:00</time></trkpt><trkpt lat="35.0859967" lon="32.3003201"><ele>37.7</ele><time>2015-04-25T14:32:59.0000000+00:00</time></trkpt><trkpt lat="35.0860622" lon="32.3003309"><ele>36.3</ele><time>2015-04-25T14:33:02.0000000+00:00</time></trkpt><trkpt lat="35.0861328" lon="32.3003323"><ele>34.0</ele><time>2015-04-25T14:33:04.0000000+00:00</time></trkpt><trkpt lat="35.0862361" lon="32.300332"><ele>33.5</ele><time>2015-04-25T14:33:05.0000000+00:00</time></trkpt><trkpt lat="35.0863094" lon="32.3003416"><ele>32.7</ele><time>2015-04-25T14:33:06.0000000+00:00</time></trkpt><trkpt lat="35.0863729" lon="32.300349"><ele>32.3</ele><time>2015-04-25T14:33:07.0000000+00:00</time></trkpt><trkpt lat="35.0864353" lon="32.3003538"><ele>32.1</ele><time>2015-04-25T14:33:08.0000000+00:00</time></trkpt><trkpt lat="35.0864985" lon="32.3003534"><ele>32.0</ele><time>2015-04-25T14:33:09.0000000+00:00</time></trkpt><trkpt lat="35.0865446" lon="32.3003469"><ele>32.5</ele><time>2015-04-25T14:33:10.0000000+00:00</time></trkpt><trkpt lat="35.0866229" lon="32.300327"><ele>32.8</ele><time>2015-04-25T14:33:12.0000000+00:00</time></trkpt><trkpt lat="35.0866784" lon="32.3003256"><ele>33.7</ele><time>2015-04-25T14:33:14.0000000+00:00</time></trkpt><trkpt lat="35.0867344" lon="32.3003266"><ele>34.6</ele><time>2015-04-25T14:33:16.0000000+00:00</time></trkpt><trkpt lat="35.0867867" lon="32.3003244"><ele>34.9</ele><time>2015-04-25T14:33:18.0000000+00:00</time></trkpt><trkpt lat="35.0868349" lon="32.3003442"><ele>34.9</ele><time>2015-04-25T14:33:20.0000000+00:00</time></trkpt><trkpt lat="35.0868807" lon="32.3003661"><ele>34.4</ele><time>2015-04-25T14:33:23.0000000+00:00</time></trkpt><trkpt lat="35.0869287" lon="32.3003718"><ele>34.0</ele><time>2015-04-25T14:33:26.0000000+00:00</time></trkpt><trkpt lat="35.0869857" lon="32.3003724"><ele>34.2</ele><time>2015-04-25T14:34:00.0000000+00:00</time></trkpt><trkpt lat="35.0870377" lon="32.3003786"><ele>34.1</ele><time>2015-04-25T14:34:03.0000000+00:00</time></trkpt><trkpt lat="35.0870894" lon="32.3003955"><ele>33.5</ele><time>2015-04-25T14:34:05.0000000+00:00</time></trkpt><trkpt lat="35.0871679" lon="32.3004141"><ele>32.8</ele><time>2015-04-25T14:34:07.0000000+00:00</time></trkpt><trkpt lat="35.0872463" lon="32.300426"><ele>31.7</ele><time>2015-04-25T14:34:09.0000000+00:00</time></trkpt><trkpt lat="35.0873242" lon="32.3004282"><ele>30.4</ele><time>2015-04-25T14:34:11.0000000+00:00</time></trkpt><trkpt lat="35.0873975" lon="32.3004199"><ele>29.6</ele><time>2015-04-25T14:34:12.0000000+00:00</time></trkpt><trkpt lat="35.0874473" lon="32.3004053"><ele>28.3</ele><time>2015-04-25T14:34:13.0000000+00:00</time></trkpt><trkpt lat="35.0875009" lon="32.300388"><ele>27.6</ele><time>2015-04-25T14:34:14.0000000+00:00</time></trkpt><trkpt lat="35.0875577" lon="32.3003747"><ele>27.3</ele><time>2015-04-25T14:34:15.0000000+00:00</time></trkpt><trkpt lat="35.0876216" lon="32.3003533"><ele>27.1</ele><time>2015-04-25T14:34:16.0000000+00:00</time></trkpt><trkpt lat="35.0876915" lon="32.3003407"><ele>26.5</ele><time>2015-04-25T14:34:17.0000000+00:00</time></trkpt><trkpt lat="35.0877596" lon="32.3003272"><ele>26.2</ele><time>2015-04-25T14:34:18.0000000+00:00</time></trkpt><trkpt lat="35.0878388" lon="32.3002978"><ele>25.1</ele><time>2015-04-25T14:34:19.0000000+00:00</time></trkpt><trkpt lat="35.0879324" lon="32.3002904"><ele>24.5</ele><time>2015-04-25T14:34:20.0000000+00:00</time></trkpt><trkpt lat="35.0880158" lon="32.3002899"><ele>23.7</ele><time>2015-04-25T14:34:21.0000000+00:00</time></trkpt><trkpt lat="35.0880915" lon="32.3002892"><ele>23.3</ele><time>2015-04-25T14:34:22.0000000+00:00</time></trkpt><trkpt lat="35.0881807" lon="32.3002788"><ele>22.1</ele><time>2015-04-25T14:34:23.0000000+00:00</time></trkpt><trkpt lat="35.0882638" lon="32.300277"><ele>21.0</ele><time>2015-04-25T14:34:24.0000000+00:00</time></trkpt><trkpt lat="35.0883381" lon="32.3002672"><ele>20.5</ele><time>2015-04-25T14:34:25.0000000+00:00</time></trkpt><trkpt lat="35.088415" lon="32.3002585"><ele>19.7</ele><time>2015-04-25T14:34:26.0000000+00:00</time></trkpt><trkpt lat="35.0884898" lon="32.3002538"><ele>19.3</ele><time>2015-04-25T14:34:27.0000000+00:00</time></trkpt><trkpt lat="35.0885736" lon="32.3002478"><ele>19.6</ele><time>2015-04-25T14:34:28.0000000+00:00</time></trkpt><trkpt lat="35.088661" lon="32.3002474"><ele>19.8</ele><time>2015-04-25T14:34:29.0000000+00:00</time></trkpt><trkpt lat="35.0887358" lon="32.300242"><ele>19.4</ele><time>2015-04-25T14:34:30.0000000+00:00</time></trkpt><trkpt lat="35.0888132" lon="32.3002369"><ele>18.6</ele><time>2015-04-25T14:34:31.0000000+00:00</time></trkpt><trkpt lat="35.0888976" lon="32.3002342"><ele>17.8</ele><time>2015-04-25T14:34:32.0000000+00:00</time></trkpt><trkpt lat="35.0889704" lon="32.3002332"><ele>17.4</ele><time>2015-04-25T14:34:33.0000000+00:00</time></trkpt><trkpt lat="35.0890454" lon="32.3002378"><ele>17.1</ele><time>2015-04-25T14:34:34.0000000+00:00</time></trkpt><trkpt lat="35.089111" lon="32.3002348"><ele>16.5</ele><time>2015-04-25T14:34:35.0000000+00:00</time></trkpt><trkpt lat="35.0891732" lon="32.3002417"><ele>16.2</ele><time>2015-04-25T14:34:36.0000000+00:00</time></trkpt><trkpt lat="35.0892246" lon="32.3002364"><ele>15.6</ele><time>2015-04-25T14:34:37.0000000+00:00</time></trkpt><trkpt lat="35.0892861" lon="32.300239"><ele>16.3</ele><time>2015-04-25T14:34:38.0000000+00:00</time></trkpt><trkpt lat="35.0893402" lon="32.3002317"><ele>16.1</ele><time>2015-04-25T14:34:39.0000000+00:00</time></trkpt><trkpt lat="35.0893984" lon="32.3002269"><ele>15.5</ele><time>2015-04-25T14:34:40.0000000+00:00</time></trkpt><trkpt lat="35.0894578" lon="32.3002373"><ele>16.2</ele><time>2015-04-25T14:34:41.0000000+00:00</time></trkpt><trkpt lat="35.089526" lon="32.3002226"><ele>15.6</ele><time>2015-04-25T14:34:42.0000000+00:00</time></trkpt><trkpt lat="35.0896172" lon="32.3002295"><ele>15.1</ele><time>2015-04-25T14:34:44.0000000+00:00</time></trkpt><trkpt lat="35.0896663" lon="32.3002263"><ele>15.0</ele><time>2015-04-25T14:34:45.0000000+00:00</time></trkpt><trkpt lat="35.0897513" lon="32.3002219"><ele>14.5</ele><time>2015-04-25T14:34:47.0000000+00:00</time></trkpt><trkpt lat="35.089844" lon="32.300238"><ele>13.8</ele><time>2015-04-25T14:34:49.0000000+00:00</time></trkpt><trkpt lat="35.0898913" lon="32.3002407"><ele>13.9</ele><time>2015-04-25T14:34:50.0000000+00:00</time></trkpt><trkpt lat="35.0899775" lon="32.3002348"><ele>13.9</ele><time>2015-04-25T14:34:52.0000000+00:00</time></trkpt><trkpt lat="35.0900459" lon="32.3002302"><ele>14.7</ele><time>2015-04-25T14:34:54.0000000+00:00</time></trkpt><trkpt lat="35.0901278" lon="32.3002495"><ele>14.6</ele><time>2015-04-25T14:34:56.0000000+00:00</time></trkpt><trkpt lat="35.0901926" lon="32.3002724"><ele>15.6</ele><time>2015-04-25T14:34:58.0000000+00:00</time></trkpt><trkpt lat="35.0902502" lon="32.3003022"><ele>17.8</ele><time>2015-04-25T14:35:00.0000000+00:00</time></trkpt><trkpt lat="35.0903045" lon="32.3003495"><ele>18.7</ele><time>2015-04-25T14:35:02.0000000+00:00</time></trkpt><trkpt lat="35.0903472" lon="32.3003969"><ele>20.1</ele><time>2015-04-25T14:35:04.0000000+00:00</time></trkpt><trkpt lat="35.0903766" lon="32.3004552"><ele>20.0</ele><time>2015-04-25T14:35:06.0000000+00:00</time></trkpt><trkpt lat="35.0904105" lon="32.3005139"><ele>18.7</ele><time>2015-04-25T14:35:08.0000000+00:00</time></trkpt><trkpt lat="35.0904471" lon="32.300568"><ele>18.1</ele><time>2015-04-25T14:35:10.0000000+00:00</time></trkpt><trkpt lat="35.0904812" lon="32.3006184"><ele>18.7</ele><time>2015-04-25T14:35:12.0000000+00:00</time></trkpt><trkpt lat="35.0905134" lon="32.3006649"><ele>18.9</ele><time>2015-04-25T14:35:14.0000000+00:00</time></trkpt><trkpt lat="35.0905434" lon="32.300711"><ele>18.9</ele><time>2015-04-25T14:35:16.0000000+00:00</time></trkpt><trkpt lat="35.0905816" lon="32.3007516"><ele>18.9</ele><time>2015-04-25T14:35:18.0000000+00:00</time></trkpt><trkpt lat="35.090625" lon="32.30079"><ele>19.7</ele><time>2015-04-25T14:35:20.0000000+00:00</time></trkpt><trkpt lat="35.0906702" lon="32.3008257"><ele>19.9</ele><time>2015-04-25T14:35:22.0000000+00:00</time></trkpt><trkpt lat="35.0907184" lon="32.3008544"><ele>19.9</ele><time>2015-04-25T14:35:24.0000000+00:00</time></trkpt><trkpt lat="35.090767" lon="32.3008776"><ele>19.9</ele><time>2015-04-25T14:35:26.0000000+00:00</time></trkpt><trkpt lat="35.0908144" lon="32.3008993"><ele>19.4</ele><time>2015-04-25T14:35:28.0000000+00:00</time></trkpt><trkpt lat="35.0908612" lon="32.3009196"><ele>19.1</ele><time>2015-04-25T14:35:30.0000000+00:00</time></trkpt><trkpt lat="35.0909091" lon="32.3009402"><ele>19.5</ele><time>2015-04-25T14:35:32.0000000+00:00</time></trkpt><trkpt lat="35.0909566" lon="32.3009627"><ele>20.6</ele><time>2015-04-25T14:35:34.0000000+00:00</time></trkpt><trkpt lat="35.0910039" lon="32.3009848"><ele>21.6</ele><time>2015-04-25T14:35:36.0000000+00:00</time></trkpt><trkpt lat="35.0910527" lon="32.3010044"><ele>22.6</ele><time>2015-04-25T14:35:38.0000000+00:00</time></trkpt><trkpt lat="35.0911029" lon="32.301027"><ele>22.3</ele><time>2015-04-25T14:35:40.0000000+00:00</time></trkpt><trkpt lat="35.0911504" lon="32.3010513"><ele>22.0</ele><time>2015-04-25T14:35:42.0000000+00:00</time></trkpt><trkpt lat="35.0911995" lon="32.3010694"><ele>21.7</ele><time>2015-04-25T14:35:44.0000000+00:00</time></trkpt><trkpt lat="35.091243" lon="32.3010917"><ele>21.4</ele><time>2015-04-25T14:35:46.0000000+00:00</time></trkpt><trkpt lat="35.0912989" lon="32.3011273"><ele>20.2</ele><time>2015-04-25T14:35:49.0000000+00:00</time></trkpt><trkpt lat="35.091354" lon="32.301156"><ele>20.0</ele><time>2015-04-25T14:35:52.0000000+00:00</time></trkpt><trkpt lat="35.0914098" lon="32.3011478"><ele>19.8</ele><time>2015-04-25T14:35:55.0000000+00:00</time></trkpt><trkpt lat="35.091461" lon="32.3011224"><ele>19.9</ele><time>2015-04-25T14:35:59.0000000+00:00</time></trkpt><trkpt lat="35.0914848" lon="32.3010721"><ele>14.6</ele><time>2015-04-25T14:39:29.0000000+00:00</time></trkpt><trkpt lat="35.091516" lon="32.3010218"><ele>14.9</ele><time>2015-04-25T14:39:32.0000000+00:00</time></trkpt><trkpt lat="35.0915505" lon="32.300975"><ele>15.0</ele><time>2015-04-25T14:39:35.0000000+00:00</time></trkpt><trkpt lat="35.0915912" lon="32.3009239"><ele>14.9</ele><time>2015-04-25T14:39:39.0000000+00:00</time></trkpt><trkpt lat="35.0916317" lon="32.3008989"><ele>14.2</ele><time>2015-04-25T14:39:42.0000000+00:00</time></trkpt><trkpt lat="35.091669" lon="32.3008489"><ele>13.9</ele><time>2015-04-25T14:39:46.0000000+00:00</time></trkpt><trkpt lat="35.0917014" lon="32.3008094"><ele>13.9</ele><time>2015-04-25T14:39:49.0000000+00:00</time></trkpt><trkpt lat="35.0917304" lon="32.3007641"><ele>15.8</ele><time>2015-04-25T14:39:52.0000000+00:00</time></trkpt><trkpt lat="35.0917665" lon="32.3007197"><ele>16.9</ele><time>2015-04-25T14:39:55.0000000+00:00</time></trkpt><trkpt lat="35.0918111" lon="32.3006745"><ele>17.7</ele><time>2015-04-25T14:39:58.0000000+00:00</time></trkpt><trkpt lat="35.0918493" lon="32.3006245"><ele>18.4</ele><time>2015-04-25T14:40:01.0000000+00:00</time></trkpt><trkpt lat="35.091876" lon="32.3005766"><ele>19.7</ele><time>2015-04-25T14:40:04.0000000+00:00</time></trkpt><trkpt lat="35.0919147" lon="32.3005275"><ele>18.2</ele><time>2015-04-25T14:40:08.0000000+00:00</time></trkpt><trkpt lat="35.0919664" lon="32.300491"><ele>17.4</ele><time>2015-04-25T14:40:12.0000000+00:00</time></trkpt><trkpt lat="35.0920036" lon="32.3004503"><ele>17.0</ele><time>2015-04-25T14:40:15.0000000+00:00</time></trkpt><trkpt lat="35.0920422" lon="32.3004028"><ele>17.7</ele><time>2015-04-25T14:40:18.0000000+00:00</time></trkpt><trkpt lat="35.0920927" lon="32.3003563"><ele>18.1</ele><time>2015-04-25T14:40:21.0000000+00:00</time></trkpt><trkpt lat="35.0921452" lon="32.3003132"><ele>17.7</ele><time>2015-04-25T14:40:24.0000000+00:00</time></trkpt><trkpt lat="35.0921926" lon="32.3002803"><ele>17.9</ele><time>2015-04-25T14:40:27.0000000+00:00</time></trkpt><trkpt lat="35.0922465" lon="32.3002635"><ele>17.9</ele><time>2015-04-25T14:40:30.0000000+00:00</time></trkpt><trkpt lat="35.0923016" lon="32.3002166"><ele>18.8</ele><time>2015-04-25T14:40:33.0000000+00:00</time></trkpt><trkpt lat="35.0923289" lon="32.3001564"><ele>19.4</ele><time>2015-04-25T14:40:35.0000000+00:00</time></trkpt><trkpt lat="35.0923425" lon="32.300085"><ele>19.8</ele><time>2015-04-25T14:40:37.0000000+00:00</time></trkpt><trkpt lat="35.0923432" lon="32.3000157"><ele>19.9</ele><time>2015-04-25T14:40:39.0000000+00:00</time></trkpt><trkpt lat="35.0923478" lon="32.2999495"><ele>19.4</ele><time>2015-04-25T14:40:41.0000000+00:00</time></trkpt><trkpt lat="35.0923628" lon="32.2998842"><ele>19.6</ele><time>2015-04-25T14:40:43.0000000+00:00</time></trkpt><trkpt lat="35.0923829" lon="32.2998198"><ele>19.6</ele><time>2015-04-25T14:40:45.0000000+00:00</time></trkpt><trkpt lat="35.092396" lon="32.2997574"><ele>19.8</ele><time>2015-04-25T14:40:47.0000000+00:00</time></trkpt><trkpt lat="35.0923954" lon="32.2996918"><ele>19.9</ele><time>2015-04-25T14:40:49.0000000+00:00</time></trkpt><trkpt lat="35.0923822" lon="32.2996278"><ele>19.9</ele><time>2015-04-25T14:40:51.0000000+00:00</time></trkpt><trkpt lat="35.0923552" lon="32.2995758"><ele>19.2</ele><time>2015-04-25T14:40:53.0000000+00:00</time></trkpt><trkpt lat="35.092327" lon="32.2995329"><ele>19.5</ele><time>2015-04-25T14:40:56.0000000+00:00</time></trkpt><trkpt lat="35.0922866" lon="32.2994888"><ele>20.6</ele><time>2015-04-25T14:40:59.0000000+00:00</time></trkpt><trkpt lat="35.0922668" lon="32.2994171"><ele>20.9</ele><time>2015-04-25T14:41:02.0000000+00:00</time></trkpt><trkpt lat="35.0922716" lon="32.2993609"><ele>21.2</ele><time>2015-04-25T14:41:04.0000000+00:00</time></trkpt><trkpt lat="35.0922866" lon="32.2992998"><ele>21.5</ele><time>2015-04-25T14:41:06.0000000+00:00</time></trkpt><trkpt lat="35.0923042" lon="32.2992339"><ele>21.8</ele><time>2015-04-25T14:41:08.0000000+00:00</time></trkpt><trkpt lat="35.0923258" lon="32.2991715"><ele>21.9</ele><time>2015-04-25T14:41:10.0000000+00:00</time></trkpt><trkpt lat="35.092347" lon="32.2991175"><ele>21.9</ele><time>2015-04-25T14:41:12.0000000+00:00</time></trkpt><trkpt lat="35.0923655" lon="32.2990669"><ele>21.2</ele><time>2015-04-25T14:41:14.0000000+00:00</time></trkpt><trkpt lat="35.0923669" lon="32.2989878"><ele>20.8</ele><time>2015-04-25T14:41:17.0000000+00:00</time></trkpt><trkpt lat="35.0923789" lon="32.298919"><ele>22.3</ele><time>2015-04-25T14:41:20.0000000+00:00</time></trkpt><trkpt lat="35.0924057" lon="32.2988594"><ele>22.6</ele><time>2015-04-25T14:41:23.0000000+00:00</time></trkpt><trkpt lat="35.0924304" lon="32.2987922"><ele>22.9</ele><time>2015-04-25T14:41:26.0000000+00:00</time></trkpt><trkpt lat="35.0924617" lon="32.2987299"><ele>22.9</ele><time>2015-04-25T14:41:29.0000000+00:00</time></trkpt><trkpt lat="35.0925007" lon="32.2986771"><ele>20.8</ele><time>2015-04-25T14:41:32.0000000+00:00</time></trkpt><trkpt lat="35.0925346" lon="32.2986201"><ele>20.0</ele><time>2015-04-25T14:41:35.0000000+00:00</time></trkpt><trkpt lat="35.0925484" lon="32.2985578"><ele>19.2</ele><time>2015-04-25T14:41:38.0000000+00:00</time></trkpt><trkpt lat="35.0925665" lon="32.2984994"><ele>20.2</ele><time>2015-04-25T14:41:41.0000000+00:00</time></trkpt><trkpt lat="35.0925801" lon="32.2984432"><ele>20.8</ele><time>2015-04-25T14:41:44.0000000+00:00</time></trkpt><trkpt lat="35.0925835" lon="32.2983727"><ele>20.5</ele><time>2015-04-25T14:41:48.0000000+00:00</time></trkpt><trkpt lat="35.0925786" lon="32.2983168"><ele>21.6</ele><time>2015-04-25T14:41:51.0000000+00:00</time></trkpt><trkpt lat="35.0926086" lon="32.298273"><ele>21.4</ele><time>2015-04-25T14:41:54.0000000+00:00</time></trkpt><trkpt lat="35.092651" lon="32.2982297"><ele>20.5</ele><time>2015-04-25T14:41:57.0000000+00:00</time></trkpt><trkpt lat="35.0926368" lon="32.2981575"><ele>20.9</ele><time>2015-04-25T14:42:00.0000000+00:00</time></trkpt><trkpt lat="35.0925969" lon="32.2981086"><ele>21.0</ele><time>2015-04-25T14:42:03.0000000+00:00</time></trkpt><trkpt lat="35.0925743" lon="32.2980581"><ele>20.9</ele><time>2015-04-25T14:42:06.0000000+00:00</time></trkpt><trkpt lat="35.0925785" lon="32.2980008"><ele>21.3</ele><time>2015-04-25T14:42:09.0000000+00:00</time></trkpt><trkpt lat="35.0925828" lon="32.2979415"><ele>22.7</ele><time>2015-04-25T14:42:12.0000000+00:00</time></trkpt><trkpt lat="35.0925918" lon="32.297881"><ele>23.0</ele><time>2015-04-25T14:42:15.0000000+00:00</time></trkpt><trkpt lat="35.0926004" lon="32.297817"><ele>22.7</ele><time>2015-04-25T14:42:18.0000000+00:00</time></trkpt><trkpt lat="35.0926074" lon="32.2977545"><ele>22.2</ele><time>2015-04-25T14:42:21.0000000+00:00</time></trkpt><trkpt lat="35.0926323" lon="32.2976869"><ele>23.6</ele><time>2015-04-25T14:42:24.0000000+00:00</time></trkpt><trkpt lat="35.0926487" lon="32.2976356"><ele>23.6</ele><time>2015-04-25T14:42:26.0000000+00:00</time></trkpt><trkpt lat="35.0926612" lon="32.297578"><ele>23.6</ele><time>2015-04-25T14:42:28.0000000+00:00</time></trkpt><trkpt lat="35.0926752" lon="32.2975194"><ele>24.6</ele><time>2015-04-25T14:42:30.0000000+00:00</time></trkpt><trkpt lat="35.0926982" lon="32.2974715"><ele>24.3</ele><time>2015-04-25T14:42:32.0000000+00:00</time></trkpt><trkpt lat="35.0927327" lon="32.2974234"><ele>24.0</ele><time>2015-04-25T14:42:35.0000000+00:00</time></trkpt><trkpt lat="35.0927836" lon="32.2973924"><ele>23.0</ele><time>2015-04-25T14:42:39.0000000+00:00</time></trkpt><trkpt lat="35.0928418" lon="32.2973894"><ele>22.2</ele><time>2015-04-25T14:42:43.0000000+00:00</time></trkpt><trkpt lat="35.0928926" lon="32.2973829"><ele>23.2</ele><time>2015-04-25T14:42:46.0000000+00:00</time></trkpt><trkpt lat="35.0929475" lon="32.2973677"><ele>23.0</ele><time>2015-04-25T14:42:49.0000000+00:00</time></trkpt><trkpt lat="35.0930036" lon="32.2973292"><ele>22.1</ele><time>2015-04-25T14:42:52.0000000+00:00</time></trkpt><trkpt lat="35.0930562" lon="32.2972802"><ele>22.2</ele><time>2015-04-25T14:42:55.0000000+00:00</time></trkpt><trkpt lat="35.093116" lon="32.2972471"><ele>22.1</ele><time>2015-04-25T14:42:58.0000000+00:00</time></trkpt><trkpt lat="35.093168" lon="32.297194"><ele>22.8</ele><time>2015-04-25T14:43:01.0000000+00:00</time></trkpt><trkpt lat="35.0932077" lon="32.2971588"><ele>22.9</ele><time>2015-04-25T14:43:03.0000000+00:00</time></trkpt><trkpt lat="35.0932483" lon="32.2971302"><ele>22.2</ele><time>2015-04-25T14:43:05.0000000+00:00</time></trkpt><trkpt lat="35.0932773" lon="32.2970564"><ele>22.0</ele><time>2015-04-25T14:43:08.0000000+00:00</time></trkpt><trkpt lat="35.0932902" lon="32.2969999"><ele>22.4</ele><time>2015-04-25T14:43:10.0000000+00:00</time></trkpt><trkpt lat="35.0933109" lon="32.296948"><ele>23.6</ele><time>2015-04-25T14:43:12.0000000+00:00</time></trkpt><trkpt lat="35.0933402" lon="32.2968774"><ele>23.9</ele><time>2015-04-25T14:43:15.0000000+00:00</time></trkpt><trkpt lat="35.0933593" lon="32.2968271"><ele>24.4</ele><time>2015-04-25T14:43:17.0000000+00:00</time></trkpt><trkpt lat="35.0933742" lon="32.2967743"><ele>24.8</ele><time>2015-04-25T14:43:19.0000000+00:00</time></trkpt><trkpt lat="35.0934071" lon="32.2967078"><ele>24.9</ele><time>2015-04-25T14:43:22.0000000+00:00</time></trkpt><trkpt lat="35.0934416" lon="32.2966532"><ele>24.9</ele><time>2015-04-25T14:43:25.0000000+00:00</time></trkpt><trkpt lat="35.0934762" lon="32.2965847"><ele>24.9</ele><time>2015-04-25T14:43:28.0000000+00:00</time></trkpt><trkpt lat="35.0935006" lon="32.2965369"><ele>25.4</ele><time>2015-04-25T14:43:30.0000000+00:00</time></trkpt><trkpt lat="35.0935192" lon="32.2964795"><ele>26.3</ele><time>2015-04-25T14:43:32.0000000+00:00</time></trkpt><trkpt lat="35.0935461" lon="32.2964257"><ele>26.8</ele><time>2015-04-25T14:43:34.0000000+00:00</time></trkpt><trkpt lat="35.0935715" lon="32.2963739"><ele>26.9</ele><time>2015-04-25T14:43:36.0000000+00:00</time></trkpt><trkpt lat="35.0936023" lon="32.2963303"><ele>27.4</ele><time>2015-04-25T14:43:38.0000000+00:00</time></trkpt><trkpt lat="35.0936712" lon="32.2963292"><ele>27.1</ele><time>2015-04-25T14:43:41.0000000+00:00</time></trkpt><trkpt lat="35.0937202" lon="32.2963304"><ele>27.0</ele><time>2015-04-25T14:43:43.0000000+00:00</time></trkpt><trkpt lat="35.0937616" lon="32.296357"><ele>26.4</ele><time>2015-04-25T14:43:45.0000000+00:00</time></trkpt><trkpt lat="35.0938244" lon="32.2963618"><ele>26.4</ele><time>2015-04-25T14:43:48.0000000+00:00</time></trkpt><trkpt lat="35.0938573" lon="32.2962969"><ele>26.0</ele><time>2015-04-25T14:43:51.0000000+00:00</time></trkpt><trkpt lat="35.0938779" lon="32.2962299"><ele>26.3</ele><time>2015-04-25T14:43:54.0000000+00:00</time></trkpt><trkpt lat="35.093889" lon="32.2961669"><ele>26.7</ele><time>2015-04-25T14:43:57.0000000+00:00</time></trkpt><trkpt lat="35.0939051" lon="32.2961052"><ele>26.7</ele><time>2015-04-25T14:44:00.0000000+00:00</time></trkpt><trkpt lat="35.0939173" lon="32.2960386"><ele>26.9</ele><time>2015-04-25T14:44:03.0000000+00:00</time></trkpt><trkpt lat="35.0939315" lon="32.295961"><ele>27.6</ele><time>2015-04-25T14:44:06.0000000+00:00</time></trkpt><trkpt lat="35.0939458" lon="32.2958899"><ele>27.6</ele><time>2015-04-25T14:44:09.0000000+00:00</time></trkpt><trkpt lat="35.0939695" lon="32.2958235"><ele>27.2</ele><time>2015-04-25T14:44:13.0000000+00:00</time></trkpt><trkpt lat="35.0940006" lon="32.2957775"><ele>27.7</ele><time>2015-04-25T14:44:16.0000000+00:00</time></trkpt><trkpt lat="35.094042" lon="32.2957257"><ele>27.9</ele><time>2015-04-25T14:44:20.0000000+00:00</time></trkpt><trkpt lat="35.09409" lon="32.295697"><ele>28.2</ele><time>2015-04-25T14:44:24.0000000+00:00</time></trkpt><trkpt lat="35.0941412" lon="32.2956886"><ele>28.0</ele><time>2015-04-25T14:44:27.0000000+00:00</time></trkpt><trkpt lat="35.0941984" lon="32.2956827"><ele>27.3</ele><time>2015-04-25T14:44:30.0000000+00:00</time></trkpt><trkpt lat="35.0942483" lon="32.2956611"><ele>27.0</ele><time>2015-04-25T14:44:32.0000000+00:00</time></trkpt><trkpt lat="35.0942928" lon="32.2956068"><ele>27.5</ele><time>2015-04-25T14:44:34.0000000+00:00</time></trkpt><trkpt lat="35.0943291" lon="32.295545"><ele>27.8</ele><time>2015-04-25T14:44:36.0000000+00:00</time></trkpt><trkpt lat="35.0943759" lon="32.2954963"><ele>27.9</ele><time>2015-04-25T14:44:38.0000000+00:00</time></trkpt><trkpt lat="35.0944291" lon="32.2954619"><ele>27.2</ele><time>2015-04-25T14:44:40.0000000+00:00</time></trkpt><trkpt lat="35.0944866" lon="32.2954427"><ele>27.0</ele><time>2015-04-25T14:44:42.0000000+00:00</time></trkpt><trkpt lat="35.094542" lon="32.2954197"><ele>27.7</ele><time>2015-04-25T14:44:44.0000000+00:00</time></trkpt><trkpt lat="35.094583" lon="32.2953777"><ele>27.9</ele><time>2015-04-25T14:44:46.0000000+00:00</time></trkpt><trkpt lat="35.0946076" lon="32.29532"><ele>29.2</ele><time>2015-04-25T14:44:48.0000000+00:00</time></trkpt><trkpt lat="35.0946406" lon="32.2952599"><ele>29.7</ele><time>2015-04-25T14:44:50.0000000+00:00</time></trkpt><trkpt lat="35.0946832" lon="32.2952032"><ele>29.9</ele><time>2015-04-25T14:44:52.0000000+00:00</time></trkpt><trkpt lat="35.0947344" lon="32.2951565"><ele>29.9</ele><time>2015-04-25T14:44:54.0000000+00:00</time></trkpt><trkpt lat="35.0947896" lon="32.2951198"><ele>29.7</ele><time>2015-04-25T14:44:56.0000000+00:00</time></trkpt><trkpt lat="35.0948447" lon="32.2950888"><ele>29.9</ele><time>2015-04-25T14:44:58.0000000+00:00</time></trkpt><trkpt lat="35.0948876" lon="32.2950436"><ele>29.9</ele><time>2015-04-25T14:45:00.0000000+00:00</time></trkpt><trkpt lat="35.094924" lon="32.2949938"><ele>29.9</ele><time>2015-04-25T14:45:02.0000000+00:00</time></trkpt><trkpt lat="35.0949679" lon="32.2949612"><ele>29.4</ele><time>2015-04-25T14:45:04.0000000+00:00</time></trkpt><trkpt lat="35.0950186" lon="32.2949498"><ele>29.1</ele><time>2015-04-25T14:45:06.0000000+00:00</time></trkpt><trkpt lat="35.0950691" lon="32.2949377"><ele>29.0</ele><time>2015-04-25T14:45:08.0000000+00:00</time></trkpt><trkpt lat="35.0951195" lon="32.2949418"><ele>28.9</ele><time>2015-04-25T14:45:10.0000000+00:00</time></trkpt><trkpt lat="35.0951692" lon="32.2949516"><ele>28.4</ele><time>2015-04-25T14:45:12.0000000+00:00</time></trkpt><trkpt lat="35.0952251" lon="32.2949468"><ele>29.1</ele><time>2015-04-25T14:45:14.0000000+00:00</time></trkpt><trkpt lat="35.0952855" lon="32.2949263"><ele>28.5</ele><time>2015-04-25T14:45:16.0000000+00:00</time></trkpt><trkpt lat="35.0953435" lon="32.294902"><ele>28.8</ele><time>2015-04-25T14:45:18.0000000+00:00</time></trkpt><trkpt lat="35.0953932" lon="32.2948651"><ele>29.7</ele><time>2015-04-25T14:45:20.0000000+00:00</time></trkpt><trkpt lat="35.095437" lon="32.2948239"><ele>31.6</ele><time>2015-04-25T14:45:22.0000000+00:00</time></trkpt><trkpt lat="35.0954727" lon="32.2947767"><ele>33.4</ele><time>2015-04-25T14:45:24.0000000+00:00</time></trkpt><trkpt lat="35.0954826" lon="32.2947167"><ele>33.8</ele><time>2015-04-25T14:45:26.0000000+00:00</time></trkpt><trkpt lat="35.0954731" lon="32.2946564"><ele>33.1</ele><time>2015-04-25T14:45:28.0000000+00:00</time></trkpt><trkpt lat="35.0954578" lon="32.2945992"><ele>32.5</ele><time>2015-04-25T14:45:30.0000000+00:00</time></trkpt><trkpt lat="35.0954733" lon="32.2945217"><ele>32.2</ele><time>2015-04-25T14:45:33.0000000+00:00</time></trkpt><trkpt lat="35.0955048" lon="32.294475"><ele>33.0</ele><time>2015-04-25T14:45:35.0000000+00:00</time></trkpt><trkpt lat="35.0955277" lon="32.2944236"><ele>33.2</ele><time>2015-04-25T14:45:37.0000000+00:00</time></trkpt><trkpt lat="35.095558" lon="32.2943517"><ele>33.5</ele><time>2015-04-25T14:45:40.0000000+00:00</time></trkpt><trkpt lat="35.0955708" lon="32.2942762"><ele>33.4</ele><time>2015-04-25T14:45:43.0000000+00:00</time></trkpt><trkpt lat="35.0955948" lon="32.2942147"><ele>33.0</ele><time>2015-04-25T14:45:46.0000000+00:00</time></trkpt><trkpt lat="35.0956263" lon="32.2941641"><ele>32.4</ele><time>2015-04-25T14:45:49.0000000+00:00</time></trkpt><trkpt lat="35.0956362" lon="32.2941049"><ele>32.0</ele><time>2015-04-25T14:45:52.0000000+00:00</time></trkpt><trkpt lat="35.095618" lon="32.2940444"><ele>31.9</ele><time>2015-04-25T14:45:55.0000000+00:00</time></trkpt><trkpt lat="35.0956125" lon="32.2939674"><ele>32.4</ele><time>2015-04-25T14:45:58.0000000+00:00</time></trkpt><trkpt lat="35.095634" lon="32.2938915"><ele>31.2</ele><time>2015-04-25T14:46:01.0000000+00:00</time></trkpt><trkpt lat="35.0956566" lon="32.2938402"><ele>30.5</ele><time>2015-04-25T14:46:03.0000000+00:00</time></trkpt><trkpt lat="35.0956761" lon="32.293784"><ele>30.8</ele><time>2015-04-25T14:46:05.0000000+00:00</time></trkpt><trkpt lat="35.0956914" lon="32.2937248"><ele>31.7</ele><time>2015-04-25T14:46:07.0000000+00:00</time></trkpt><trkpt lat="35.0956917" lon="32.2936614"><ele>31.4</ele><time>2015-04-25T14:46:09.0000000+00:00</time></trkpt><trkpt lat="35.09568" lon="32.2935982"><ele>31.3</ele><time>2015-04-25T14:46:11.0000000+00:00</time></trkpt><trkpt lat="35.0956655" lon="32.2935299"><ele>31.8</ele><time>2015-04-25T14:46:13.0000000+00:00</time></trkpt><trkpt lat="35.0956577" lon="32.2934618"><ele>31.9</ele><time>2015-04-25T14:46:15.0000000+00:00</time></trkpt><trkpt lat="35.0956547" lon="32.2933914"><ele>31.9</ele><time>2015-04-25T14:46:17.0000000+00:00</time></trkpt><trkpt lat="35.0956541" lon="32.2933244"><ele>31.4</ele><time>2015-04-25T14:46:19.0000000+00:00</time></trkpt><trkpt lat="35.0956575" lon="32.2932559"><ele>31.8</ele><time>2015-04-25T14:46:21.0000000+00:00</time></trkpt><trkpt lat="35.0956574" lon="32.2931907"><ele>32.1</ele><time>2015-04-25T14:46:23.0000000+00:00</time></trkpt><trkpt lat="35.0956559" lon="32.2931305"><ele>32.5</ele><time>2015-04-25T14:46:25.0000000+00:00</time></trkpt><trkpt lat="35.0956836" lon="32.2930628"><ele>31.1</ele><time>2015-04-25T14:46:28.0000000+00:00</time></trkpt><trkpt lat="35.0957374" lon="32.2930239"><ele>31.5</ele><time>2015-04-25T14:46:31.0000000+00:00</time></trkpt><trkpt lat="35.0957726" lon="32.2929865"><ele>32.3</ele><time>2015-04-25T14:46:33.0000000+00:00</time></trkpt><trkpt lat="35.095785" lon="32.2929024"><ele>32.7</ele><time>2015-04-25T14:46:36.0000000+00:00</time></trkpt><trkpt lat="35.095777" lon="32.292844"><ele>32.9</ele><time>2015-04-25T14:46:38.0000000+00:00</time></trkpt><trkpt lat="35.095764" lon="32.2927905"><ele>34.2</ele><time>2015-04-25T14:46:40.0000000+00:00</time></trkpt><trkpt lat="35.0957398" lon="32.2927243"><ele>34.1</ele><time>2015-04-25T14:46:43.0000000+00:00</time></trkpt><trkpt lat="35.0957354" lon="32.2926503"><ele>33.2</ele><time>2015-04-25T14:46:46.0000000+00:00</time></trkpt><trkpt lat="35.0957782" lon="32.2925887"><ele>32.5</ele><time>2015-04-25T14:46:49.0000000+00:00</time></trkpt><trkpt lat="35.0958168" lon="32.2925576"><ele>31.3</ele><time>2015-04-25T14:46:51.0000000+00:00</time></trkpt><trkpt lat="35.0958649" lon="32.2925352"><ele>31.0</ele><time>2015-04-25T14:46:53.0000000+00:00</time></trkpt><trkpt lat="35.0959188" lon="32.2924895"><ele>32.8</ele><time>2015-04-25T14:46:56.0000000+00:00</time></trkpt><trkpt lat="35.0959597" lon="32.2924456"><ele>32.5</ele><time>2015-04-25T14:46:59.0000000+00:00</time></trkpt><trkpt lat="35.0960165" lon="32.2924437"><ele>31.3</ele><time>2015-04-25T14:47:02.0000000+00:00</time></trkpt><trkpt lat="35.0960677" lon="32.2924312"><ele>31.0</ele><time>2015-04-25T14:47:05.0000000+00:00</time></trkpt><trkpt lat="35.0960738" lon="32.2923756"><ele>31.7</ele><time>2015-04-25T14:47:07.0000000+00:00</time></trkpt><trkpt lat="35.0960585" lon="32.2923118"><ele>31.9</ele><time>2015-04-25T14:47:09.0000000+00:00</time></trkpt><trkpt lat="35.0960324" lon="32.2922577"><ele>31.9</ele><time>2015-04-25T14:47:11.0000000+00:00</time></trkpt><trkpt lat="35.096018" lon="32.292181"><ele>31.9</ele><time>2015-04-25T14:47:14.0000000+00:00</time></trkpt><trkpt lat="35.0960291" lon="32.2921032"><ele>32.4</ele><time>2015-04-25T14:47:17.0000000+00:00</time></trkpt><trkpt lat="35.0960478" lon="32.2920509"><ele>32.8</ele><time>2015-04-25T14:47:19.0000000+00:00</time></trkpt><trkpt lat="35.0960809" lon="32.2920101"><ele>32.9</ele><time>2015-04-25T14:47:21.0000000+00:00</time></trkpt><trkpt lat="35.0961165" lon="32.2919754"><ele>32.9</ele><time>2015-04-25T14:47:23.0000000+00:00</time></trkpt><trkpt lat="35.0961483" lon="32.2919307"><ele>32.9</ele><time>2015-04-25T14:47:25.0000000+00:00</time></trkpt><trkpt lat="35.0961871" lon="32.2918759"><ele>33.4</ele><time>2015-04-25T14:47:28.0000000+00:00</time></trkpt><trkpt lat="35.0962286" lon="32.2918384"><ele>33.5</ele><time>2015-04-25T14:47:31.0000000+00:00</time></trkpt><trkpt lat="35.0962839" lon="32.2918497"><ele>33.9</ele><time>2015-04-25T14:47:34.0000000+00:00</time></trkpt><trkpt lat="35.0963457" lon="32.2918468"><ele>33.9</ele><time>2015-04-25T14:47:37.0000000+00:00</time></trkpt><trkpt lat="35.0963886" lon="32.2918227"><ele>34.4</ele><time>2015-04-25T14:47:39.0000000+00:00</time></trkpt><trkpt lat="35.096433" lon="32.2917882"><ele>34.3</ele><time>2015-04-25T14:47:41.0000000+00:00</time></trkpt><trkpt lat="35.0964739" lon="32.2917472"><ele>34.8</ele><time>2015-04-25T14:47:43.0000000+00:00</time></trkpt><trkpt lat="35.0964975" lon="32.2916925"><ele>33.6</ele><time>2015-04-25T14:47:45.0000000+00:00</time></trkpt><trkpt lat="35.0965184" lon="32.2916436"><ele>33.1</ele><time>2015-04-25T14:47:47.0000000+00:00</time></trkpt><trkpt lat="35.0965543" lon="32.291597"><ele>33.5</ele><time>2015-04-25T14:47:49.0000000+00:00</time></trkpt><trkpt lat="35.096592" lon="32.2915504"><ele>33.8</ele><time>2015-04-25T14:47:51.0000000+00:00</time></trkpt><trkpt lat="35.0966368" lon="32.2915143"><ele>34.2</ele><time>2015-04-25T14:47:53.0000000+00:00</time></trkpt><trkpt lat="35.0966787" lon="32.2914767"><ele>33.2</ele><time>2015-04-25T14:47:55.0000000+00:00</time></trkpt><trkpt lat="35.096717" lon="32.29143"><ele>33.0</ele><time>2015-04-25T14:47:57.0000000+00:00</time></trkpt><trkpt lat="35.0967405" lon="32.291375"><ele>32.9</ele><time>2015-04-25T14:47:59.0000000+00:00</time></trkpt><trkpt lat="35.0967434" lon="32.2913097"><ele>33.7</ele><time>2015-04-25T14:48:01.0000000+00:00</time></trkpt><trkpt lat="35.0967282" lon="32.2912434"><ele>33.9</ele><time>2015-04-25T14:48:03.0000000+00:00</time></trkpt><trkpt lat="35.0967185" lon="32.2911721"><ele>34.4</ele><time>2015-04-25T14:48:05.0000000+00:00</time></trkpt><trkpt lat="35.0967302" lon="32.2911031"><ele>34.3</ele><time>2015-04-25T14:48:07.0000000+00:00</time></trkpt><trkpt lat="35.0967525" lon="32.2910376"><ele>34.8</ele><time>2015-04-25T14:48:09.0000000+00:00</time></trkpt><trkpt lat="35.0967816" lon="32.2909766"><ele>35.6</ele><time>2015-04-25T14:48:11.0000000+00:00</time></trkpt><trkpt lat="35.0968174" lon="32.290915"><ele>35.1</ele><time>2015-04-25T14:48:13.0000000+00:00</time></trkpt><trkpt lat="35.09686" lon="32.2908531"><ele>35.5</ele><time>2015-04-25T14:48:15.0000000+00:00</time></trkpt><trkpt lat="35.0969135" lon="32.290788"><ele>34.6</ele><time>2015-04-25T14:48:17.0000000+00:00</time></trkpt><trkpt lat="35.0969527" lon="32.2907219"><ele>34.1</ele><time>2015-04-25T14:48:19.0000000+00:00</time></trkpt><trkpt lat="35.0969646" lon="32.2906602"><ele>34.7</ele><time>2015-04-25T14:48:21.0000000+00:00</time></trkpt><trkpt lat="35.0969633" lon="32.290604"><ele>35.7</ele><time>2015-04-25T14:48:24.0000000+00:00</time></trkpt><trkpt lat="35.0969638" lon="32.2905426"><ele>35.7</ele><time>2015-04-25T14:48:28.0000000+00:00</time></trkpt><trkpt lat="35.0969807" lon="32.2904764"><ele>35.9</ele><time>2015-04-25T14:48:32.0000000+00:00</time></trkpt><trkpt lat="35.0970135" lon="32.2904343"><ele>35.2</ele><time>2015-04-25T14:48:35.0000000+00:00</time></trkpt><trkpt lat="35.0970547" lon="32.2903835"><ele>33.1</ele><time>2015-04-25T14:48:38.0000000+00:00</time></trkpt><trkpt lat="35.097114" lon="32.2903426"><ele>32.2</ele><time>2015-04-25T14:48:41.0000000+00:00</time></trkpt><trkpt lat="35.0971658" lon="32.2903261"><ele>32.0</ele><time>2015-04-25T14:48:43.0000000+00:00</time></trkpt><trkpt lat="35.0972258" lon="32.2903309"><ele>32.2</ele><time>2015-04-25T14:48:45.0000000+00:00</time></trkpt><trkpt lat="35.097278" lon="32.2903388"><ele>32.0</ele><time>2015-04-25T14:48:47.0000000+00:00</time></trkpt><trkpt lat="35.09733" lon="32.2903452"><ele>31.2</ele><time>2015-04-25T14:48:49.0000000+00:00</time></trkpt><trkpt lat="35.0973819" lon="32.2903394"><ele>31.0</ele><time>2015-04-25T14:48:51.0000000+00:00</time></trkpt><trkpt lat="35.0974362" lon="32.2903266"><ele>30.2</ele><time>2015-04-25T14:48:53.0000000+00:00</time></trkpt><trkpt lat="35.097491" lon="32.2903119"><ele>29.7</ele><time>2015-04-25T14:48:55.0000000+00:00</time></trkpt><trkpt lat="35.0975447" lon="32.2902949"><ele>30.9</ele><time>2015-04-25T14:48:57.0000000+00:00</time></trkpt><trkpt lat="35.0975903" lon="32.2902731"><ele>31.2</ele><time>2015-04-25T14:48:59.0000000+00:00</time></trkpt><trkpt lat="35.0976253" lon="32.290228"><ele>31.5</ele><time>2015-04-25T14:49:01.0000000+00:00</time></trkpt><trkpt lat="35.0976621" lon="32.2901811"><ele>32.6</ele><time>2015-04-25T14:49:03.0000000+00:00</time></trkpt><trkpt lat="35.097705" lon="32.290136"><ele>33.3</ele><time>2015-04-25T14:49:05.0000000+00:00</time></trkpt><trkpt lat="35.0977326" lon="32.2900835"><ele>33.8</ele><time>2015-04-25T14:49:07.0000000+00:00</time></trkpt><trkpt lat="35.097758" lon="32.2900339"><ele>33.1</ele><time>2015-04-25T14:49:09.0000000+00:00</time></trkpt><trkpt lat="35.097788" lon="32.28996"><ele>33.0</ele><time>2015-04-25T14:49:12.0000000+00:00</time></trkpt><trkpt lat="35.0977867" lon="32.2898818"><ele>33.4</ele><time>2015-04-25T14:49:15.0000000+00:00</time></trkpt><trkpt lat="35.0977911" lon="32.2898042"><ele>33.4</ele><time>2015-04-25T14:49:18.0000000+00:00</time></trkpt><trkpt lat="35.0978238" lon="32.289746"><ele>33.5</ele><time>2015-04-25T14:49:21.0000000+00:00</time></trkpt><trkpt lat="35.0978682" lon="32.2897053"><ele>33.4</ele><time>2015-04-25T14:49:24.0000000+00:00</time></trkpt><trkpt lat="35.09791" lon="32.2896622"><ele>33.9</ele><time>2015-04-25T14:49:27.0000000+00:00</time></trkpt><trkpt lat="35.0979506" lon="32.2896158"><ele>33.2</ele><time>2015-04-25T14:49:30.0000000+00:00</time></trkpt><trkpt lat="35.0979989" lon="32.2895724"><ele>33.2</ele><time>2015-04-25T14:49:33.0000000+00:00</time></trkpt><trkpt lat="35.0980625" lon="32.2895435"><ele>33.0</ele><time>2015-04-25T14:49:36.0000000+00:00</time></trkpt><trkpt lat="35.0981075" lon="32.2895179"><ele>32.9</ele><time>2015-04-25T14:49:38.0000000+00:00</time></trkpt><trkpt lat="35.0981543" lon="32.2894918"><ele>31.7</ele><time>2015-04-25T14:49:40.0000000+00:00</time></trkpt><trkpt lat="35.0981975" lon="32.2894563"><ele>32.6</ele><time>2015-04-25T14:49:42.0000000+00:00</time></trkpt><trkpt lat="35.0982262" lon="32.2894038"><ele>33.6</ele><time>2015-04-25T14:49:44.0000000+00:00</time></trkpt><trkpt lat="35.0982361" lon="32.2893395"><ele>33.8</ele><time>2015-04-25T14:49:46.0000000+00:00</time></trkpt><trkpt lat="35.0982324" lon="32.2892779"><ele>33.7</ele><time>2015-04-25T14:49:48.0000000+00:00</time></trkpt><trkpt lat="35.0982265" lon="32.2892203"><ele>34.4</ele><time>2015-04-25T14:49:50.0000000+00:00</time></trkpt><trkpt lat="35.0982265" lon="32.289161"><ele>34.0</ele><time>2015-04-25T14:49:52.0000000+00:00</time></trkpt><trkpt lat="35.0982279" lon="32.289099"><ele>35.5</ele><time>2015-04-25T14:49:54.0000000+00:00</time></trkpt><trkpt lat="35.0982293" lon="32.289037"><ele>35.3</ele><time>2015-04-25T14:49:56.0000000+00:00</time></trkpt><trkpt lat="35.0982291" lon="32.2889793"><ele>35.0</ele><time>2015-04-25T14:49:58.0000000+00:00</time></trkpt><trkpt lat="35.0982755" lon="32.2889364"><ele>35.8</ele><time>2015-04-25T14:50:01.0000000+00:00</time></trkpt><trkpt lat="35.0983149" lon="32.2889639"><ele>35.0</ele><time>2015-04-25T14:50:04.0000000+00:00</time></trkpt><trkpt lat="35.0983629" lon="32.2889436"><ele>34.9</ele><time>2015-04-25T14:50:08.0000000+00:00</time></trkpt><trkpt lat="35.0983575" lon="32.28888"><ele>34.1</ele><time>2015-04-25T14:50:11.0000000+00:00</time></trkpt><trkpt lat="35.0983388" lon="32.2888025"><ele>33.9</ele><time>2015-04-25T14:50:14.0000000+00:00</time></trkpt><trkpt lat="35.0983147" lon="32.288749"><ele>33.9</ele><time>2015-04-25T14:50:16.0000000+00:00</time></trkpt><trkpt lat="35.0982992" lon="32.2886912"><ele>33.9</ele><time>2015-04-25T14:50:18.0000000+00:00</time></trkpt><trkpt lat="35.0983179" lon="32.2886361"><ele>33.9</ele><time>2015-04-25T14:50:20.0000000+00:00</time></trkpt><trkpt lat="35.0983588" lon="32.2885932"><ele>33.9</ele><time>2015-04-25T14:50:22.0000000+00:00</time></trkpt><trkpt lat="35.0984029" lon="32.2885538"><ele>34.4</ele><time>2015-04-25T14:50:24.0000000+00:00</time></trkpt><trkpt lat="35.098446" lon="32.2885123"><ele>34.1</ele><time>2015-04-25T14:50:26.0000000+00:00</time></trkpt><trkpt lat="35.0984891" lon="32.2884538"><ele>34.0</ele><time>2015-04-25T14:50:28.0000000+00:00</time></trkpt><trkpt lat="35.0985421" lon="32.2883786"><ele>33.7</ele><time>2015-04-25T14:50:30.0000000+00:00</time></trkpt><trkpt lat="35.0985742" lon="32.2883397"><ele>33.3</ele><time>2015-04-25T14:50:31.0000000+00:00</time></trkpt><trkpt lat="35.0986339" lon="32.2882742"><ele>33.1</ele><time>2015-04-25T14:50:32.0000000+00:00</time></trkpt><trkpt lat="35.0986644" lon="32.288224"><ele>32.5</ele><time>2015-04-25T14:50:33.0000000+00:00</time></trkpt><trkpt lat="35.0986874" lon="32.2881658"><ele>32.7</ele><time>2015-04-25T14:50:34.0000000+00:00</time></trkpt><trkpt lat="35.0987075" lon="32.2881084"><ele>32.8</ele><time>2015-04-25T14:50:35.0000000+00:00</time></trkpt><trkpt lat="35.0987335" lon="32.2880574"><ele>32.9</ele><time>2015-04-25T14:50:36.0000000+00:00</time></trkpt><trkpt lat="35.0987599" lon="32.288003"><ele>32.4</ele><time>2015-04-25T14:50:37.0000000+00:00</time></trkpt><trkpt lat="35.0988349" lon="32.2879608"><ele>31.5</ele><time>2015-04-25T14:50:39.0000000+00:00</time></trkpt><trkpt lat="35.0988837" lon="32.2879608"><ele>30.3</ele><time>2015-04-25T14:50:41.0000000+00:00</time></trkpt><trkpt lat="35.0989413" lon="32.2879023"><ele>31.3</ele><time>2015-04-25T14:50:43.0000000+00:00</time></trkpt><trkpt lat="35.0990026" lon="32.2878471"><ele>32.3</ele><time>2015-04-25T14:50:45.0000000+00:00</time></trkpt><trkpt lat="35.0990733" lon="32.2878049"><ele>33.8</ele><time>2015-04-25T14:50:47.0000000+00:00</time></trkpt><trkpt lat="35.0991429" lon="32.287765"><ele>34.6</ele><time>2015-04-25T14:50:49.0000000+00:00</time></trkpt><trkpt lat="35.099208" lon="32.2877368"><ele>35.6</ele><time>2015-04-25T14:50:51.0000000+00:00</time></trkpt><trkpt lat="35.0992755" lon="32.2877162"><ele>34.6</ele><time>2015-04-25T14:50:53.0000000+00:00</time></trkpt><trkpt lat="35.0993338" lon="32.2877011"><ele>34.1</ele><time>2015-04-25T14:50:55.0000000+00:00</time></trkpt><trkpt lat="35.0993857" lon="32.2877079"><ele>34.0</ele><time>2015-04-25T14:50:57.0000000+00:00</time></trkpt><trkpt lat="35.0994272" lon="32.2876806"><ele>33.9</ele><time>2015-04-25T14:50:59.0000000+00:00</time></trkpt><trkpt lat="35.0994625" lon="32.2876316"><ele>34.4</ele><time>2015-04-25T14:51:01.0000000+00:00</time></trkpt><trkpt lat="35.0995052" lon="32.2875887"><ele>34.8</ele><time>2015-04-25T14:51:03.0000000+00:00</time></trkpt><trkpt lat="35.0995596" lon="32.2875581"><ele>34.9</ele><time>2015-04-25T14:51:05.0000000+00:00</time></trkpt><trkpt lat="35.0996198" lon="32.2875368"><ele>34.4</ele><time>2015-04-25T14:51:07.0000000+00:00</time></trkpt><trkpt lat="35.0996914" lon="32.287536"><ele>33.3</ele><time>2015-04-25T14:51:09.0000000+00:00</time></trkpt><trkpt lat="35.0997751" lon="32.2875518"><ele>32.5</ele><time>2015-04-25T14:51:11.0000000+00:00</time></trkpt><trkpt lat="35.0998613" lon="32.2875482"><ele>31.6</ele><time>2015-04-25T14:51:13.0000000+00:00</time></trkpt><trkpt lat="35.0999605" lon="32.2875594"><ele>31.1</ele><time>2015-04-25T14:51:15.0000000+00:00</time></trkpt><trkpt lat="35.1000072" lon="32.287565"><ele>31.0</ele><time>2015-04-25T14:51:16.0000000+00:00</time></trkpt><trkpt lat="35.1000519" lon="32.2875568"><ele>31.0</ele><time>2015-04-25T14:51:17.0000000+00:00</time></trkpt><trkpt lat="35.1000981" lon="32.2875509"><ele>30.5</ele><time>2015-04-25T14:51:18.0000000+00:00</time></trkpt><trkpt lat="35.100144" lon="32.2875426"><ele>29.7</ele><time>2015-04-25T14:51:19.0000000+00:00</time></trkpt><trkpt lat="35.1001844" lon="32.2875056"><ele>29.3</ele><time>2015-04-25T14:51:20.0000000+00:00</time></trkpt><trkpt lat="35.1002569" lon="32.2874527"><ele>29.0</ele><time>2015-04-25T14:51:22.0000000+00:00</time></trkpt><trkpt lat="35.1003268" lon="32.287429"><ele>29.7</ele><time>2015-04-25T14:51:24.0000000+00:00</time></trkpt><trkpt lat="35.1004079" lon="32.287392"><ele>30.4</ele><time>2015-04-25T14:51:26.0000000+00:00</time></trkpt><trkpt lat="35.1004805" lon="32.2873536"><ele>30.0</ele><time>2015-04-25T14:51:28.0000000+00:00</time></trkpt><trkpt lat="35.1005398" lon="32.2873018"><ele>30.0</ele><time>2015-04-25T14:51:30.0000000+00:00</time></trkpt><trkpt lat="35.1005908" lon="32.2872383"><ele>30.4</ele><time>2015-04-25T14:51:32.0000000+00:00</time></trkpt><trkpt lat="35.1006241" lon="32.2871739"><ele>30.8</ele><time>2015-04-25T14:51:34.0000000+00:00</time></trkpt><trkpt lat="35.100639" lon="32.2871081"><ele>30.9</ele><time>2015-04-25T14:51:36.0000000+00:00</time></trkpt><trkpt lat="35.1006463" lon="32.2870538"><ele>30.7</ele><time>2015-04-25T14:51:38.0000000+00:00</time></trkpt><trkpt lat="35.1006464" lon="32.286991"><ele>30.9</ele><time>2015-04-25T14:51:40.0000000+00:00</time></trkpt><trkpt lat="35.10065" lon="32.2869307"><ele>30.9</ele><time>2015-04-25T14:51:42.0000000+00:00</time></trkpt><trkpt lat="35.100659" lon="32.2868548"><ele>30.9</ele><time>2015-04-25T14:51:45.0000000+00:00</time></trkpt><trkpt lat="35.1006733" lon="32.2867843"><ele>31.1</ele><time>2015-04-25T14:51:48.0000000+00:00</time></trkpt><trkpt lat="35.1007213" lon="32.2867349"><ele>31.8</ele><time>2015-04-25T14:51:51.0000000+00:00</time></trkpt><trkpt lat="35.1007687" lon="32.2867043"><ele>32.7</ele><time>2015-04-25T14:51:53.0000000+00:00</time></trkpt><trkpt lat="35.1008236" lon="32.2866848"><ele>32.4</ele><time>2015-04-25T14:51:55.0000000+00:00</time></trkpt><trkpt lat="35.1008854" lon="32.2866787"><ele>32.0</ele><time>2015-04-25T14:51:57.0000000+00:00</time></trkpt><trkpt lat="35.1009488" lon="32.286664"><ele>31.5</ele><time>2015-04-25T14:51:59.0000000+00:00</time></trkpt><trkpt lat="35.1010015" lon="32.2866313"><ele>31.3</ele><time>2015-04-25T14:52:01.0000000+00:00</time></trkpt><trkpt lat="35.1010456" lon="32.2866009"><ele>31.0</ele><time>2015-04-25T14:52:03.0000000+00:00</time></trkpt><trkpt lat="35.1010833" lon="32.2865634"><ele>31.5</ele><time>2015-04-25T14:52:05.0000000+00:00</time></trkpt><trkpt lat="35.1011067" lon="32.2865116"><ele>31.0</ele><time>2015-04-25T14:52:08.0000000+00:00</time></trkpt><trkpt lat="35.1010488" lon="32.2864948"><ele>32.4</ele><time>2015-04-25T14:52:12.0000000+00:00</time></trkpt><trkpt lat="35.1010301" lon="32.2865623"><ele>32.4</ele><time>2015-04-25T14:52:15.0000000+00:00</time></trkpt><trkpt lat="35.1010701" lon="32.2866063"><ele>31.7</ele><time>2015-04-25T14:52:18.0000000+00:00</time></trkpt><trkpt lat="35.1011157" lon="32.2865802"><ele>31.9</ele><time>2015-04-25T14:52:21.0000000+00:00</time></trkpt><trkpt lat="35.1011531" lon="32.2865228"><ele>32.9</ele><time>2015-04-25T14:52:25.0000000+00:00</time></trkpt><trkpt lat="35.1011903" lon="32.2864767"><ele>32.9</ele><time>2015-04-25T14:52:28.0000000+00:00</time></trkpt><trkpt lat="35.1012276" lon="32.2864208"><ele>32.1</ele><time>2015-04-25T14:52:31.0000000+00:00</time></trkpt><trkpt lat="35.1012607" lon="32.2863537"><ele>32.3</ele><time>2015-04-25T14:52:34.0000000+00:00</time></trkpt><trkpt lat="35.101281" lon="32.2863043"><ele>33.3</ele><time>2015-04-25T14:52:36.0000000+00:00</time></trkpt><trkpt lat="35.1013002" lon="32.2862498"><ele>32.5</ele><time>2015-04-25T14:52:38.0000000+00:00</time></trkpt><trkpt lat="35.1013344" lon="32.2861874"><ele>32.0</ele><time>2015-04-25T14:52:41.0000000+00:00</time></trkpt><trkpt lat="35.1013648" lon="32.2861468"><ele>32.4</ele><time>2015-04-25T14:52:43.0000000+00:00</time></trkpt><trkpt lat="35.1013996" lon="32.2861118"><ele>32.1</ele><time>2015-04-25T14:52:45.0000000+00:00</time></trkpt><trkpt lat="35.1014486" lon="32.2860535"><ele>31.4</ele><time>2015-04-25T14:52:48.0000000+00:00</time></trkpt><trkpt lat="35.1014746" lon="32.285987"><ele>30.3</ele><time>2015-04-25T14:52:50.0000000+00:00</time></trkpt><trkpt lat="35.1014915" lon="32.2858971"><ele>30.0</ele><time>2015-04-25T14:52:52.0000000+00:00</time></trkpt><trkpt lat="35.101504" lon="32.2858108"><ele>29.5</ele><time>2015-04-25T14:52:54.0000000+00:00</time></trkpt><trkpt lat="35.1015286" lon="32.2857368"><ele>28.3</ele><time>2015-04-25T14:52:56.0000000+00:00</time></trkpt><trkpt lat="35.1015601" lon="32.2856955"><ele>28.0</ele><time>2015-04-25T14:52:58.0000000+00:00</time></trkpt><trkpt lat="35.1016089" lon="32.2857067"><ele>28.3</ele><time>2015-04-25T14:53:01.0000000+00:00</time></trkpt><trkpt lat="35.1016661" lon="32.2856756"><ele>29.0</ele><time>2015-04-25T14:53:53.0000000+00:00</time></trkpt><trkpt lat="35.1017128" lon="32.2856403"><ele>27.7</ele><time>2015-04-25T14:53:55.0000000+00:00</time></trkpt><trkpt lat="35.1017748" lon="32.285592"><ele>26.9</ele><time>2015-04-25T14:53:57.0000000+00:00</time></trkpt><trkpt lat="35.1018414" lon="32.285539"><ele>27.7</ele><time>2015-04-25T14:53:59.0000000+00:00</time></trkpt><trkpt lat="35.1019137" lon="32.2854953"><ele>27.4</ele><time>2015-04-25T14:54:01.0000000+00:00</time></trkpt><trkpt lat="35.101989" lon="32.2854676"><ele>26.3</ele><time>2015-04-25T14:54:03.0000000+00:00</time></trkpt><trkpt lat="35.102056" lon="32.2854077"><ele>25.5</ele><time>2015-04-25T14:54:05.0000000+00:00</time></trkpt><trkpt lat="35.1020912" lon="32.2853141"><ele>24.6</ele><time>2015-04-25T14:54:07.0000000+00:00</time></trkpt><trkpt lat="35.1021012" lon="32.2852105"><ele>24.6</ele><time>2015-04-25T14:54:09.0000000+00:00</time></trkpt><trkpt lat="35.1020978" lon="32.2851134"><ele>24.8</ele><time>2015-04-25T14:54:11.0000000+00:00</time></trkpt><trkpt lat="35.1021083" lon="32.2850178"><ele>25.4</ele><time>2015-04-25T14:54:13.0000000+00:00</time></trkpt><trkpt lat="35.1021292" lon="32.2849331"><ele>24.5</ele><time>2015-04-25T14:54:15.0000000+00:00</time></trkpt><trkpt lat="35.1021421" lon="32.2848486"><ele>24.6</ele><time>2015-04-25T14:54:17.0000000+00:00</time></trkpt><trkpt lat="35.1021394" lon="32.2847693"><ele>24.8</ele><time>2015-04-25T14:54:19.0000000+00:00</time></trkpt><trkpt lat="35.1021327" lon="32.2846899"><ele>24.9</ele><time>2015-04-25T14:54:21.0000000+00:00</time></trkpt><trkpt lat="35.1021488" lon="32.2846294"><ele>24.4</ele><time>2015-04-25T14:54:23.0000000+00:00</time></trkpt><trkpt lat="35.102183" lon="32.2845903"><ele>24.0</ele><time>2015-04-25T14:54:26.0000000+00:00</time></trkpt><trkpt lat="35.1022252" lon="32.284538"><ele>23.9</ele><time>2015-04-25T14:54:29.0000000+00:00</time></trkpt><trkpt lat="35.1022721" lon="32.2844826"><ele>23.1</ele><time>2015-04-25T14:54:32.0000000+00:00</time></trkpt><trkpt lat="35.1023105" lon="32.2844417"><ele>23.0</ele><time>2015-04-25T14:54:34.0000000+00:00</time></trkpt><trkpt lat="35.1023535" lon="32.2843968"><ele>22.4</ele><time>2015-04-25T14:54:36.0000000+00:00</time></trkpt><trkpt lat="35.1024" lon="32.2843499"><ele>22.8</ele><time>2015-04-25T14:54:38.0000000+00:00</time></trkpt><trkpt lat="35.1024448" lon="32.2842985"><ele>22.6</ele><time>2015-04-25T14:54:40.0000000+00:00</time></trkpt><trkpt lat="35.1024768" lon="32.2842352"><ele>22.1</ele><time>2015-04-25T14:54:42.0000000+00:00</time></trkpt><trkpt lat="35.1024991" lon="32.2841618"><ele>21.2</ele><time>2015-04-25T14:54:44.0000000+00:00</time></trkpt><trkpt lat="35.1025285" lon="32.2840886"><ele>21.0</ele><time>2015-04-25T14:54:46.0000000+00:00</time></trkpt><trkpt lat="35.1025686" lon="32.2840292"><ele>21.7</ele><time>2015-04-25T14:54:48.0000000+00:00</time></trkpt><trkpt lat="35.1026094" lon="32.2839771"><ele>21.1</ele><time>2015-04-25T14:54:50.0000000+00:00</time></trkpt><trkpt lat="35.1026569" lon="32.2839346"><ele>20.2</ele><time>2015-04-25T14:54:52.0000000+00:00</time></trkpt><trkpt lat="35.1027085" lon="32.2838952"><ele>20.0</ele><time>2015-04-25T14:54:54.0000000+00:00</time></trkpt><trkpt lat="35.1027637" lon="32.283858"><ele>19.9</ele><time>2015-04-25T14:54:56.0000000+00:00</time></trkpt><trkpt lat="35.1028238" lon="32.2838222"><ele>19.7</ele><time>2015-04-25T14:54:58.0000000+00:00</time></trkpt><trkpt lat="35.1028839" lon="32.2837785"><ele>19.6</ele><time>2015-04-25T14:55:00.0000000+00:00</time></trkpt><trkpt lat="35.1029395" lon="32.2837322"><ele>19.9</ele><time>2015-04-25T14:55:02.0000000+00:00</time></trkpt><trkpt lat="35.1029904" lon="32.2836835"><ele>19.9</ele><time>2015-04-25T14:55:04.0000000+00:00</time></trkpt><trkpt lat="35.1030413" lon="32.2836437"><ele>19.9</ele><time>2015-04-25T14:55:06.0000000+00:00</time></trkpt><trkpt lat="35.1030921" lon="32.2836204"><ele>19.4</ele><time>2015-04-25T14:55:08.0000000+00:00</time></trkpt><trkpt lat="35.1031464" lon="32.2835952"><ele>19.1</ele><time>2015-04-25T14:55:11.0000000+00:00</time></trkpt><trkpt lat="35.1031934" lon="32.2835873"><ele>18.5</ele><time>2015-04-25T14:55:14.0000000+00:00</time></trkpt><trkpt lat="35.1032401" lon="32.283582"><ele>18.2</ele><time>2015-04-25T14:55:17.0000000+00:00</time></trkpt><trkpt lat="35.1032983" lon="32.283569"><ele>17.9</ele><time>2015-04-25T14:55:21.0000000+00:00</time></trkpt><trkpt lat="35.1033423" lon="32.2835545"><ele>17.4</ele><time>2015-04-25T14:55:24.0000000+00:00</time></trkpt><trkpt lat="35.1033914" lon="32.2835165"><ele>17.8</ele><time>2015-04-25T14:55:28.0000000+00:00</time></trkpt><trkpt lat="35.1034426" lon="32.2834817"><ele>18.2</ele><time>2015-04-25T14:55:32.0000000+00:00</time></trkpt><trkpt lat="35.1034902" lon="32.2834442"><ele>17.4</ele><time>2015-04-25T14:55:36.0000000+00:00</time></trkpt><trkpt lat="35.1035399" lon="32.2834311"><ele>16.6</ele><time>2015-04-25T14:55:39.0000000+00:00</time></trkpt><trkpt lat="35.1035901" lon="32.2834381"><ele>16.9</ele><time>2015-04-25T14:55:42.0000000+00:00</time></trkpt><trkpt lat="35.1036397" lon="32.2834632"><ele>16.9</ele><time>2015-04-25T14:55:46.0000000+00:00</time></trkpt><trkpt lat="35.1036451" lon="32.2835262"><ele>15.7</ele><time>2015-04-25T14:55:50.0000000+00:00</time></trkpt><trkpt lat="35.1036466" lon="32.2836026"><ele>15.7</ele><time>2015-04-25T14:55:54.0000000+00:00</time></trkpt><trkpt lat="35.1036611" lon="32.2836791"><ele>16.8</ele><time>2015-04-25T14:55:57.0000000+00:00</time></trkpt><trkpt lat="35.1036724" lon="32.2837326"><ele>16.9</ele><time>2015-04-25T14:55:59.0000000+00:00</time></trkpt><trkpt lat="35.1036857" lon="32.2837861"><ele>16.2</ele><time>2015-04-25T14:56:01.0000000+00:00</time></trkpt><trkpt lat="35.1037218" lon="32.2838296"><ele>16.0</ele><time>2015-04-25T14:56:03.0000000+00:00</time></trkpt><trkpt lat="35.1037837" lon="32.2838517"><ele>15.7</ele><time>2015-04-25T14:56:05.0000000+00:00</time></trkpt><trkpt lat="35.1038488" lon="32.2838551"><ele>15.9</ele><time>2015-04-25T14:56:07.0000000+00:00</time></trkpt><trkpt lat="35.1039196" lon="32.2838677"><ele>15.9</ele><time>2015-04-25T14:56:09.0000000+00:00</time></trkpt><trkpt lat="35.1039902" lon="32.2838922"><ele>16.4</ele><time>2015-04-25T14:56:11.0000000+00:00</time></trkpt><trkpt lat="35.1040611" lon="32.2839241"><ele>16.8</ele><time>2015-04-25T14:56:13.0000000+00:00</time></trkpt><trkpt lat="35.1041304" lon="32.283941"><ele>16.4</ele><time>2015-04-25T14:56:15.0000000+00:00</time></trkpt><trkpt lat="35.1041985" lon="32.2839466"><ele>16.0</ele><time>2015-04-25T14:56:17.0000000+00:00</time></trkpt><trkpt lat="35.104261" lon="32.2839639"><ele>16.0</ele><time>2015-04-25T14:56:19.0000000+00:00</time></trkpt><trkpt lat="35.1043211" lon="32.2839997"><ele>15.9</ele><time>2015-04-25T14:56:21.0000000+00:00</time></trkpt><trkpt lat="35.1043725" lon="32.2840412"><ele>15.9</ele><time>2015-04-25T14:56:23.0000000+00:00</time></trkpt><trkpt lat="35.1044158" lon="32.2840849"><ele>15.9</ele><time>2015-04-25T14:56:25.0000000+00:00</time></trkpt><trkpt lat="35.1044526" lon="32.2841332"><ele>15.4</ele><time>2015-04-25T14:56:27.0000000+00:00</time></trkpt><trkpt lat="35.1044897" lon="32.284185"><ele>15.8</ele><time>2015-04-25T14:56:29.0000000+00:00</time></trkpt><trkpt lat="35.1045213" lon="32.2842346"><ele>16.4</ele><time>2015-04-25T14:56:31.0000000+00:00</time></trkpt><trkpt lat="35.1045525" lon="32.2842826"><ele>16.8</ele><time>2015-04-25T14:56:33.0000000+00:00</time></trkpt><trkpt lat="35.1045896" lon="32.2843527"><ele>16.4</ele><time>2015-04-25T14:56:36.0000000+00:00</time></trkpt><trkpt lat="35.1046316" lon="32.2844125"><ele>15.5</ele><time>2015-04-25T14:56:39.0000000+00:00</time></trkpt><trkpt lat="35.1046565" lon="32.2844617"><ele>15.0</ele><time>2015-04-25T14:56:42.0000000+00:00</time></trkpt><trkpt lat="35.10469" lon="32.2845057"><ele>15.9</ele><time>2015-04-25T14:56:46.0000000+00:00</time></trkpt><trkpt lat="35.1047343" lon="32.2845528"><ele>17.2</ele><time>2015-04-25T14:56:50.0000000+00:00</time></trkpt><trkpt lat="35.1047758" lon="32.2846058"><ele>16.9</ele><time>2015-04-25T14:56:54.0000000+00:00</time></trkpt><trkpt lat="35.1047972" lon="32.2846656"><ele>17.4</ele><time>2015-04-25T14:56:58.0000000+00:00</time></trkpt><trkpt lat="35.1048166" lon="32.2847221"><ele>17.9</ele><time>2015-04-25T14:57:02.0000000+00:00</time></trkpt><trkpt lat="35.1048113" lon="32.2847815"><ele>17.7</ele><time>2015-04-25T14:57:06.0000000+00:00</time></trkpt><trkpt lat="35.1048275" lon="32.2848349"><ele>17.0</ele><time>2015-04-25T14:57:10.0000000+00:00</time></trkpt><trkpt lat="35.1048683" lon="32.2848828"><ele>16.1</ele><time>2015-04-25T14:57:14.0000000+00:00</time></trkpt><trkpt lat="35.1049171" lon="32.2849122"><ele>16.0</ele><time>2015-04-25T14:57:17.0000000+00:00</time></trkpt><trkpt lat="35.1049797" lon="32.2849206"><ele>15.2</ele><time>2015-04-25T14:57:20.0000000+00:00</time></trkpt><trkpt lat="35.1050342" lon="32.2849445"><ele>15.0</ele><time>2015-04-25T14:57:23.0000000+00:00</time></trkpt><trkpt lat="35.1050681" lon="32.2849914"><ele>14.9</ele><time>2015-04-25T14:57:26.0000000+00:00</time></trkpt><trkpt lat="35.1050724" lon="32.285047"><ele>14.7</ele><time>2015-04-25T14:57:29.0000000+00:00</time></trkpt><trkpt lat="35.105072" lon="32.2851027"><ele>14.9</ele><time>2015-04-25T14:57:32.0000000+00:00</time></trkpt><trkpt lat="35.1050585" lon="32.285168"><ele>14.9</ele><time>2015-04-25T14:57:36.0000000+00:00</time></trkpt><trkpt lat="35.1050387" lon="32.2852332"><ele>14.0</ele><time>2015-04-25T14:57:40.0000000+00:00</time></trkpt><trkpt lat="35.1050121" lon="32.2852863"><ele>14.8</ele><time>2015-04-25T14:57:43.0000000+00:00</time></trkpt><trkpt lat="35.1049825" lon="32.2853411"><ele>14.9</ele><time>2015-04-25T14:57:46.0000000+00:00</time></trkpt><trkpt lat="35.1049535" lon="32.2853958"><ele>14.2</ele><time>2015-04-25T14:57:49.0000000+00:00</time></trkpt><trkpt lat="35.1049328" lon="32.2854513"><ele>14.2</ele><time>2015-04-25T14:57:52.0000000+00:00</time></trkpt><trkpt lat="35.1049228" lon="32.2855146"><ele>12.3</ele><time>2015-04-25T14:57:55.0000000+00:00</time></trkpt><trkpt lat="35.104904" lon="32.2855809"><ele>12.9</ele><time>2015-04-25T14:57:58.0000000+00:00</time></trkpt><trkpt lat="35.104896" lon="32.2856495"><ele>13.8</ele><time>2015-04-25T14:58:01.0000000+00:00</time></trkpt><trkpt lat="35.1048886" lon="32.2857074"><ele>13.9</ele><time>2015-04-25T14:58:04.0000000+00:00</time></trkpt><trkpt lat="35.1048797" lon="32.285763"><ele>13.9</ele><time>2015-04-25T14:58:07.0000000+00:00</time></trkpt><trkpt lat="35.1048672" lon="32.2858294"><ele>13.7</ele><time>2015-04-25T14:58:10.0000000+00:00</time></trkpt><trkpt lat="35.1048496" lon="32.2858957"><ele>14.8</ele><time>2015-04-25T14:58:13.0000000+00:00</time></trkpt><trkpt lat="35.1048376" lon="32.2859571"><ele>15.8</ele><time>2015-04-25T14:58:16.0000000+00:00</time></trkpt><trkpt lat="35.1048179" lon="32.28601"><ele>16.4</ele><time>2015-04-25T14:58:19.0000000+00:00</time></trkpt><trkpt lat="35.1048007" lon="32.2860688"><ele>16.0</ele><time>2015-04-25T14:58:22.0000000+00:00</time></trkpt><trkpt lat="35.1047888" lon="32.2861399"><ele>15.9</ele><time>2015-04-25T14:58:25.0000000+00:00</time></trkpt><trkpt lat="35.1047763" lon="32.2862121"><ele>15.2</ele><time>2015-04-25T14:58:28.0000000+00:00</time></trkpt><trkpt lat="35.1047615" lon="32.2862823"><ele>15.0</ele><time>2015-04-25T14:58:31.0000000+00:00</time></trkpt><trkpt lat="35.1047471" lon="32.2863479"><ele>15.1</ele><time>2015-04-25T14:58:34.0000000+00:00</time></trkpt><trkpt lat="35.104744" lon="32.2864076"><ele>15.4</ele><time>2015-04-25T14:58:37.0000000+00:00</time></trkpt><trkpt lat="35.1047492" lon="32.2864652"><ele>15.4</ele><time>2015-04-25T14:58:40.0000000+00:00</time></trkpt><trkpt lat="35.1047534" lon="32.2865322"><ele>15.7</ele><time>2015-04-25T14:58:43.0000000+00:00</time></trkpt><trkpt lat="35.1047662" lon="32.2866078"><ele>14.5</ele><time>2015-04-25T14:58:46.0000000+00:00</time></trkpt><trkpt lat="35.1047793" lon="32.2866776"><ele>14.0</ele><time>2015-04-25T14:58:49.0000000+00:00</time></trkpt><trkpt lat="35.1047973" lon="32.2867464"><ele>13.9</ele><time>2015-04-25T14:58:52.0000000+00:00</time></trkpt><trkpt lat="35.104811" lon="32.2868228"><ele>13.9</ele><time>2015-04-25T14:58:55.0000000+00:00</time></trkpt><trkpt lat="35.1048321" lon="32.2868988"><ele>13.9</ele><time>2015-04-25T14:58:58.0000000+00:00</time></trkpt><trkpt lat="35.1048528" lon="32.2869726"><ele>13.9</ele><time>2015-04-25T14:59:01.0000000+00:00</time></trkpt><trkpt lat="35.1048666" lon="32.2870403"><ele>13.1</ele><time>2015-04-25T14:59:04.0000000+00:00</time></trkpt><trkpt lat="35.1048814" lon="32.287103"><ele>13.2</ele><time>2015-04-25T14:59:08.0000000+00:00</time></trkpt><trkpt lat="35.1049285" lon="32.2871227"><ele>14.6</ele><time>2015-04-25T14:59:18.0000000+00:00</time></trkpt><trkpt lat="35.1049688" lon="32.2871634"><ele>14.9</ele><time>2015-04-25T14:59:22.0000000+00:00</time></trkpt><trkpt lat="35.1049668" lon="32.2872222"><ele>15.9</ele><time>2015-04-25T15:07:42.0000000+00:00</time></trkpt><trkpt lat="35.1049355" lon="32.2872685"><ele>16.4</ele><time>2015-04-25T15:07:48.0000000+00:00</time></trkpt><trkpt lat="35.1049027" lon="32.2873145"><ele>17.7</ele><time>2015-04-25T15:07:53.0000000+00:00</time></trkpt><trkpt lat="35.1048757" lon="32.2873625"><ele>18.9</ele><time>2015-04-25T15:07:58.0000000+00:00</time></trkpt><trkpt lat="35.1048549" lon="32.2874148"><ele>18.8</ele><time>2015-04-25T15:08:04.0000000+00:00</time></trkpt><trkpt lat="35.1048319" lon="32.2874713"><ele>19.0</ele><time>2015-04-25T15:08:10.0000000+00:00</time></trkpt><trkpt lat="35.1047947" lon="32.28751"><ele>19.1</ele><time>2015-04-25T15:08:44.0000000+00:00</time></trkpt><trkpt lat="35.1047653" lon="32.2875552"><ele>18.7</ele><time>2015-04-25T15:08:51.0000000+00:00</time></trkpt><trkpt lat="35.1047871" lon="32.2875"><ele>17.9</ele><time>2015-04-25T15:13:44.0000000+00:00</time></trkpt><trkpt lat="35.1048313" lon="32.2875274"><ele>18.8</ele><time>2015-04-25T15:13:52.0000000+00:00</time></trkpt><trkpt lat="35.1048791" lon="32.2875196"><ele>19.2</ele><time>2015-04-25T15:13:58.0000000+00:00</time></trkpt><trkpt lat="35.1048409" lon="32.2874886"><ele>16.2</ele><time>2015-04-25T15:22:55.0000000+00:00</time></trkpt><trkpt lat="35.1048201" lon="32.2874356"><ele>15.6</ele><time>2015-04-25T15:23:01.0000000+00:00</time></trkpt><trkpt lat="35.1047759" lon="32.2874192"><ele>16.5</ele><time>2015-04-25T15:23:06.0000000+00:00</time></trkpt><trkpt lat="35.1047412" lon="32.2873767"><ele>15.0</ele><time>2015-04-25T15:23:15.0000000+00:00</time></trkpt><trkpt lat="35.1047065" lon="32.2873338"><ele>15.4</ele><time>2015-04-25T15:23:26.0000000+00:00</time></trkpt><trkpt lat="35.1046594" lon="32.2873056"><ele>15.5</ele><time>2015-04-25T15:23:32.0000000+00:00</time></trkpt><trkpt lat="35.1046096" lon="32.2872816"><ele>11.4</ele><time>2015-04-25T15:23:57.0000000+00:00</time></trkpt><trkpt lat="35.1045497" lon="32.2872588"><ele>10.2</ele><time>2015-04-25T15:24:00.0000000+00:00</time></trkpt><trkpt lat="35.1044872" lon="32.2872487"><ele>10.8</ele><time>2015-04-25T15:24:03.0000000+00:00</time></trkpt><trkpt lat="35.1044367" lon="32.287244"><ele>11.4</ele><time>2015-04-25T15:24:06.0000000+00:00</time></trkpt><trkpt lat="35.1043895" lon="32.2872474"><ele>13.2</ele><time>2015-04-25T15:24:09.0000000+00:00</time></trkpt><trkpt lat="35.104337" lon="32.2872533"><ele>13.0</ele><time>2015-04-25T15:24:12.0000000+00:00</time></trkpt><trkpt lat="35.10428" lon="32.2872663"><ele>11.3</ele><time>2015-04-25T15:24:15.0000000+00:00</time></trkpt><trkpt lat="35.1042179" lon="32.2872831"><ele>11.9</ele><time>2015-04-25T15:24:18.0000000+00:00</time></trkpt><trkpt lat="35.1041524" lon="32.2872935"><ele>11.9</ele><time>2015-04-25T15:24:21.0000000+00:00</time></trkpt><trkpt lat="35.1041064" lon="32.2872908"><ele>11.9</ele><time>2015-04-25T15:24:23.0000000+00:00</time></trkpt><trkpt lat="35.1040603" lon="32.2872868"><ele>11.9</ele><time>2015-04-25T15:24:25.0000000+00:00</time></trkpt><trkpt lat="35.1040144" lon="32.2872859"><ele>11.9</ele><time>2015-04-25T15:24:27.0000000+00:00</time></trkpt><trkpt lat="35.1039657" lon="32.2872884"><ele>12.4</ele><time>2015-04-25T15:24:29.0000000+00:00</time></trkpt><trkpt lat="35.1039236" lon="32.287309"><ele>12.8</ele><time>2015-04-25T15:24:31.0000000+00:00</time></trkpt><trkpt lat="35.103883" lon="32.2873384"><ele>12.4</ele><time>2015-04-25T15:24:33.0000000+00:00</time></trkpt><trkpt lat="35.1038435" lon="32.2873667"><ele>12.5</ele><time>2015-04-25T15:24:35.0000000+00:00</time></trkpt><trkpt lat="35.1038017" lon="32.2873905"><ele>12.1</ele><time>2015-04-25T15:24:37.0000000+00:00</time></trkpt><trkpt lat="35.1037574" lon="32.287411"><ele>12.7</ele><time>2015-04-25T15:24:39.0000000+00:00</time></trkpt><trkpt lat="35.1037088" lon="32.2874249"><ele>12.9</ele><time>2015-04-25T15:24:41.0000000+00:00</time></trkpt><trkpt lat="35.1036441" lon="32.2874362"><ele>13.3</ele><time>2015-04-25T15:24:44.0000000+00:00</time></trkpt><trkpt lat="35.1035796" lon="32.2874549"><ele>13.0</ele><time>2015-04-25T15:24:47.0000000+00:00</time></trkpt><trkpt lat="35.1035162" lon="32.2874724"><ele>13.1</ele><time>2015-04-25T15:24:50.0000000+00:00</time></trkpt><trkpt lat="35.1034621" lon="32.2874958"><ele>12.2</ele><time>2015-04-25T15:24:53.0000000+00:00</time></trkpt><trkpt lat="35.1034138" lon="32.2875158"><ele>12.0</ele><time>2015-04-25T15:24:56.0000000+00:00</time></trkpt><trkpt lat="35.1033657" lon="32.2875175"><ele>11.7</ele><time>2015-04-25T15:25:09.0000000+00:00</time></trkpt><trkpt lat="35.1033189" lon="32.2875122"><ele>12.0</ele><time>2015-04-25T15:25:12.0000000+00:00</time></trkpt><trkpt lat="35.1032683" lon="32.2875148"><ele>11.6</ele><time>2015-04-25T15:25:15.0000000+00:00</time></trkpt><trkpt lat="35.1032233" lon="32.2875264"><ele>11.9</ele><time>2015-04-25T15:25:18.0000000+00:00</time></trkpt><trkpt lat="35.1031819" lon="32.2875645"><ele>11.2</ele><time>2015-04-25T15:25:22.0000000+00:00</time></trkpt><trkpt lat="35.1031631" lon="32.2876169"><ele>11.0</ele><time>2015-04-25T15:25:26.0000000+00:00</time></trkpt><trkpt lat="35.1031526" lon="32.2876736"><ele>9.7</ele><time>2015-04-25T15:25:45.0000000+00:00</time></trkpt><trkpt lat="35.1031135" lon="32.287714"><ele>8.0</ele><time>2015-04-25T15:25:50.0000000+00:00</time></trkpt><trkpt lat="35.1030544" lon="32.2877155"><ele>7.6</ele><time>2015-04-25T15:25:54.0000000+00:00</time></trkpt><trkpt lat="35.102997" lon="32.2877059"><ele>7.0</ele><time>2015-04-25T15:25:57.0000000+00:00</time></trkpt><trkpt lat="35.1029405" lon="32.2877085"><ele>6.9</ele><time>2015-04-25T15:26:00.0000000+00:00</time></trkpt><trkpt lat="35.1028832" lon="32.2877135"><ele>5.6</ele><time>2015-04-25T15:26:03.0000000+00:00</time></trkpt><trkpt lat="35.1028259" lon="32.2877063"><ele>6.3</ele><time>2015-04-25T15:26:06.0000000+00:00</time></trkpt><trkpt lat="35.1027779" lon="32.2876867"><ele>6.8</ele><time>2015-04-25T15:26:09.0000000+00:00</time></trkpt><trkpt lat="35.1027299" lon="32.2876726"><ele>6.2</ele><time>2015-04-25T15:26:12.0000000+00:00</time></trkpt><trkpt lat="35.1026868" lon="32.2876554"><ele>6.3</ele><time>2015-04-25T15:26:15.0000000+00:00</time></trkpt><trkpt lat="35.1026483" lon="32.2876249"><ele>6.5</ele><time>2015-04-25T15:26:18.0000000+00:00</time></trkpt><trkpt lat="35.102595" lon="32.2876218"><ele>7.7</ele><time>2015-04-25T15:26:22.0000000+00:00</time></trkpt><trkpt lat="35.1025704" lon="32.2876792"><ele>8.0</ele><time>2015-04-25T15:26:26.0000000+00:00</time></trkpt><trkpt lat="35.1025394" lon="32.2877386"><ele>8.6</ele><time>2015-04-25T15:26:30.0000000+00:00</time></trkpt><trkpt lat="35.102501" lon="32.2877889"><ele>10.6</ele><time>2015-04-25T15:26:34.0000000+00:00</time></trkpt><trkpt lat="35.102473" lon="32.2878476"><ele>11.0</ele><time>2015-04-25T15:26:38.0000000+00:00</time></trkpt><trkpt lat="35.1024586" lon="32.2879031"><ele>11.8</ele><time>2015-04-25T15:26:41.0000000+00:00</time></trkpt><trkpt lat="35.1024664" lon="32.2879669"><ele>12.8</ele><time>2015-04-25T15:26:44.0000000+00:00</time></trkpt><trkpt lat="35.1024718" lon="32.2880305"><ele>12.5</ele><time>2015-04-25T15:26:47.0000000+00:00</time></trkpt><trkpt lat="35.1024878" lon="32.2880888"><ele>13.6</ele><time>2015-04-25T15:26:50.0000000+00:00</time></trkpt><trkpt lat="35.1024998" lon="32.288142"><ele>13.9</ele><time>2015-04-25T15:26:53.0000000+00:00</time></trkpt><trkpt lat="35.1024678" lon="32.2881922"><ele>14.9</ele><time>2015-04-25T15:27:03.0000000+00:00</time></trkpt><trkpt lat="35.102434" lon="32.288244"><ele>16.0</ele><time>2015-04-25T15:27:08.0000000+00:00</time></trkpt><trkpt lat="35.1023949" lon="32.2882792"><ele>17.4</ele><time>2015-04-25T15:27:14.0000000+00:00</time></trkpt><trkpt lat="35.1024019" lon="32.2883408"><ele>16.7</ele><time>2015-04-25T15:27:28.0000000+00:00</time></trkpt><trkpt lat="35.1024325" lon="32.2883884"><ele>16.9</ele><time>2015-04-25T15:27:31.0000000+00:00</time></trkpt><trkpt lat="35.1024582" lon="32.2884421"><ele>17.7</ele><time>2015-04-25T15:27:34.0000000+00:00</time></trkpt><trkpt lat="35.1024607" lon="32.288499"><ele>17.8</ele><time>2015-04-25T15:27:37.0000000+00:00</time></trkpt><trkpt lat="35.1024644" lon="32.2885568"><ele>17.0</ele><time>2015-04-25T15:27:40.0000000+00:00</time></trkpt><trkpt lat="35.1024529" lon="32.2886229"><ele>16.1</ele><time>2015-04-25T15:27:44.0000000+00:00</time></trkpt><trkpt lat="35.1024493" lon="32.288687"><ele>17.5</ele><time>2015-04-25T15:27:48.0000000+00:00</time></trkpt><trkpt lat="35.102424" lon="32.2887411"><ele>17.6</ele><time>2015-04-25T15:27:52.0000000+00:00</time></trkpt><trkpt lat="35.1023683" lon="32.2887545"><ele>16.3</ele><time>2015-04-25T15:27:56.0000000+00:00</time></trkpt><trkpt lat="35.1023105" lon="32.2887661"><ele>14.7</ele><time>2015-04-25T15:28:00.0000000+00:00</time></trkpt><trkpt lat="35.1022582" lon="32.2888044"><ele>13.0</ele><time>2015-04-25T15:28:04.0000000+00:00</time></trkpt><trkpt lat="35.1021974" lon="32.288852"><ele>12.4</ele><time>2015-04-25T15:28:07.0000000+00:00</time></trkpt><trkpt lat="35.1021305" lon="32.2888878"><ele>12.1</ele><time>2015-04-25T15:28:09.0000000+00:00</time></trkpt><trkpt lat="35.1020516" lon="32.2888944"><ele>10.5</ele><time>2015-04-25T15:28:11.0000000+00:00</time></trkpt><trkpt lat="35.1019835" lon="32.2888743"><ele>10.1</ele><time>2015-04-25T15:28:13.0000000+00:00</time></trkpt><trkpt lat="35.1019244" lon="32.2888553"><ele>10.7</ele><time>2015-04-25T15:28:15.0000000+00:00</time></trkpt><trkpt lat="35.1018747" lon="32.2888456"><ele>10.9</ele><time>2015-04-25T15:28:17.0000000+00:00</time></trkpt><trkpt lat="35.1018314" lon="32.2888244"><ele>10.4</ele><time>2015-04-25T15:28:19.0000000+00:00</time></trkpt><trkpt lat="35.101786" lon="32.2888025"><ele>10.8</ele><time>2015-04-25T15:28:21.0000000+00:00</time></trkpt><trkpt lat="35.1017358" lon="32.288788"><ele>11.4</ele><time>2015-04-25T15:28:23.0000000+00:00</time></trkpt><trkpt lat="35.1016878" lon="32.2887746"><ele>12.5</ele><time>2015-04-25T15:28:25.0000000+00:00</time></trkpt><trkpt lat="35.1016203" lon="32.2887513"><ele>13.1</ele><time>2015-04-25T15:28:28.0000000+00:00</time></trkpt><trkpt lat="35.1015723" lon="32.2887381"><ele>13.0</ele><time>2015-04-25T15:28:30.0000000+00:00</time></trkpt><trkpt lat="35.1015168" lon="32.2887317"><ele>12.9</ele><time>2015-04-25T15:28:32.0000000+00:00</time></trkpt><trkpt lat="35.1014586" lon="32.2887323"><ele>12.9</ele><time>2015-04-25T15:28:34.0000000+00:00</time></trkpt><trkpt lat="35.1014047" lon="32.2887343"><ele>12.9</ele><time>2015-04-25T15:28:36.0000000+00:00</time></trkpt><trkpt lat="35.1013558" lon="32.2887345"><ele>12.9</ele><time>2015-04-25T15:28:38.0000000+00:00</time></trkpt><trkpt lat="35.1013074" lon="32.2887145"><ele>13.4</ele><time>2015-04-25T15:28:40.0000000+00:00</time></trkpt><trkpt lat="35.1012683" lon="32.2886808"><ele>13.6</ele><time>2015-04-25T15:28:42.0000000+00:00</time></trkpt><trkpt lat="35.1012314" lon="32.2886441"><ele>13.1</ele><time>2015-04-25T15:28:44.0000000+00:00</time></trkpt><trkpt lat="35.1011943" lon="32.2886084"><ele>13.7</ele><time>2015-04-25T15:28:46.0000000+00:00</time></trkpt><trkpt lat="35.1011543" lon="32.2885734"><ele>13.9</ele><time>2015-04-25T15:28:48.0000000+00:00</time></trkpt><trkpt lat="35.101108" lon="32.2885295"><ele>14.8</ele><time>2015-04-25T15:28:51.0000000+00:00</time></trkpt><trkpt lat="35.1010609" lon="32.2884879"><ele>14.9</ele><time>2015-04-25T15:28:55.0000000+00:00</time></trkpt><trkpt lat="35.1010073" lon="32.2884703"><ele>17.2</ele><time>2015-04-25T15:28:58.0000000+00:00</time></trkpt><trkpt lat="35.1009583" lon="32.2884689"><ele>18.2</ele><time>2015-04-25T15:29:01.0000000+00:00</time></trkpt><trkpt lat="35.1009122" lon="32.2884361"><ele>16.8</ele><time>2015-04-25T15:29:05.0000000+00:00</time></trkpt><trkpt lat="35.1008623" lon="32.2884123"><ele>18.0</ele><time>2015-04-25T15:29:09.0000000+00:00</time></trkpt><trkpt lat="35.1008111" lon="32.2883978"><ele>17.7</ele><time>2015-04-25T15:29:13.0000000+00:00</time></trkpt><trkpt lat="35.1007614" lon="32.2884127"><ele>18.8</ele><time>2015-04-25T15:29:16.0000000+00:00</time></trkpt><trkpt lat="35.1007321" lon="32.288462"><ele>19.4</ele><time>2015-04-25T15:29:18.0000000+00:00</time></trkpt><trkpt lat="35.1007234" lon="32.288526"><ele>19.8</ele><time>2015-04-25T15:29:20.0000000+00:00</time></trkpt><trkpt lat="35.1007156" lon="32.2885914"><ele>19.4</ele><time>2015-04-25T15:29:22.0000000+00:00</time></trkpt><trkpt lat="35.1007038" lon="32.2886554"><ele>19.8</ele><time>2015-04-25T15:29:24.0000000+00:00</time></trkpt><trkpt lat="35.1006928" lon="32.2887415"><ele>19.4</ele><time>2015-04-25T15:29:26.0000000+00:00</time></trkpt><trkpt lat="35.1006827" lon="32.2888192"><ele>19.8</ele><time>2015-04-25T15:29:28.0000000+00:00</time></trkpt><trkpt lat="35.1006769" lon="32.2889"><ele>19.9</ele><time>2015-04-25T15:29:30.0000000+00:00</time></trkpt><trkpt lat="35.1006818" lon="32.2889938"><ele>19.4</ele><time>2015-04-25T15:29:32.0000000+00:00</time></trkpt><trkpt lat="35.1006991" lon="32.2890909"><ele>19.6</ele><time>2015-04-25T15:29:34.0000000+00:00</time></trkpt><trkpt lat="35.1007192" lon="32.2891858"><ele>19.3</ele><time>2015-04-25T15:29:36.0000000+00:00</time></trkpt><trkpt lat="35.1007193" lon="32.2892822"><ele>19.0</ele><time>2015-04-25T15:29:38.0000000+00:00</time></trkpt><trkpt lat="35.1007206" lon="32.2893722"><ele>19.2</ele><time>2015-04-25T15:29:40.0000000+00:00</time></trkpt><trkpt lat="35.1007238" lon="32.2894568"><ele>19.0</ele><time>2015-04-25T15:29:42.0000000+00:00</time></trkpt><trkpt lat="35.100728" lon="32.2895404"><ele>17.7</ele><time>2015-04-25T15:29:44.0000000+00:00</time></trkpt><trkpt lat="35.1007363" lon="32.2896174"><ele>17.6</ele><time>2015-04-25T15:29:46.0000000+00:00</time></trkpt><trkpt lat="35.1007546" lon="32.289693"><ele>17.6</ele><time>2015-04-25T15:29:48.0000000+00:00</time></trkpt><trkpt lat="35.1007853" lon="32.2897468"><ele>18.6</ele><time>2015-04-25T15:29:50.0000000+00:00</time></trkpt><trkpt lat="35.1008184" lon="32.2897868"><ele>19.3</ele><time>2015-04-25T15:29:53.0000000+00:00</time></trkpt><trkpt lat="35.1008459" lon="32.2898391"><ele>17.5</ele><time>2015-04-25T15:29:56.0000000+00:00</time></trkpt><trkpt lat="35.1008563" lon="32.2899146"><ele>17.9</ele><time>2015-04-25T15:29:59.0000000+00:00</time></trkpt><trkpt lat="35.1008247" lon="32.2899609"><ele>17.9</ele><time>2015-04-25T15:30:01.0000000+00:00</time></trkpt><trkpt lat="35.1007893" lon="32.29"><ele>18.2</ele><time>2015-04-25T15:30:03.0000000+00:00</time></trkpt><trkpt lat="35.1007609" lon="32.2900456"><ele>18.0</ele><time>2015-04-25T15:30:05.0000000+00:00</time></trkpt><trkpt lat="35.1007551" lon="32.290101"><ele>16.7</ele><time>2015-04-25T15:30:07.0000000+00:00</time></trkpt><trkpt lat="35.1007686" lon="32.2901639"><ele>16.4</ele><time>2015-04-25T15:30:09.0000000+00:00</time></trkpt><trkpt lat="35.1007804" lon="32.2902426"><ele>16.5</ele><time>2015-04-25T15:30:11.0000000+00:00</time></trkpt><trkpt lat="35.1007726" lon="32.2903237"><ele>16.8</ele><time>2015-04-25T15:30:13.0000000+00:00</time></trkpt><trkpt lat="35.1007592" lon="32.2903964"><ele>16.2</ele><time>2015-04-25T15:30:15.0000000+00:00</time></trkpt><trkpt lat="35.1007445" lon="32.2904656"><ele>15.0</ele><time>2015-04-25T15:30:17.0000000+00:00</time></trkpt><trkpt lat="35.1007403" lon="32.2905455"><ele>13.4</ele><time>2015-04-25T15:30:19.0000000+00:00</time></trkpt><trkpt lat="35.1007392" lon="32.2906351"><ele>12.8</ele><time>2015-04-25T15:30:21.0000000+00:00</time></trkpt><trkpt lat="35.1007166" lon="32.2907174"><ele>12.9</ele><time>2015-04-25T15:30:23.0000000+00:00</time></trkpt><trkpt lat="35.1006764" lon="32.2907824"><ele>12.4</ele><time>2015-04-25T15:30:25.0000000+00:00</time></trkpt><trkpt lat="35.1006436" lon="32.2908372"><ele>11.3</ele><time>2015-04-25T15:30:27.0000000+00:00</time></trkpt><trkpt lat="35.1006183" lon="32.2909045"><ele>11.0</ele><time>2015-04-25T15:30:29.0000000+00:00</time></trkpt><trkpt lat="35.1006024" lon="32.2909748"><ele>11.0</ele><time>2015-04-25T15:30:31.0000000+00:00</time></trkpt><trkpt lat="35.1005894" lon="32.2910441"><ele>10.9</ele><time>2015-04-25T15:30:33.0000000+00:00</time></trkpt><trkpt lat="35.1005776" lon="32.291116"><ele>10.2</ele><time>2015-04-25T15:30:35.0000000+00:00</time></trkpt><trkpt lat="35.1005961" lon="32.2911934"><ele>9.5</ele><time>2015-04-25T15:30:37.0000000+00:00</time></trkpt><trkpt lat="35.10061" lon="32.2912706"><ele>9.1</ele><time>2015-04-25T15:30:39.0000000+00:00</time></trkpt><trkpt lat="35.1006118" lon="32.2913523"><ele>9.0</ele><time>2015-04-25T15:30:41.0000000+00:00</time></trkpt><trkpt lat="35.1006123" lon="32.2914305"><ele>9.2</ele><time>2015-04-25T15:30:43.0000000+00:00</time></trkpt><trkpt lat="35.1006146" lon="32.2915125"><ele>9.7</ele><time>2015-04-25T15:30:45.0000000+00:00</time></trkpt><trkpt lat="35.1006083" lon="32.2915922"><ele>9.1</ele><time>2015-04-25T15:30:47.0000000+00:00</time></trkpt><trkpt lat="35.1005972" lon="32.2916706"><ele>7.7</ele><time>2015-04-25T15:30:49.0000000+00:00</time></trkpt><trkpt lat="35.1005879" lon="32.2917454"><ele>7.1</ele><time>2015-04-25T15:30:51.0000000+00:00</time></trkpt><trkpt lat="35.1005816" lon="32.2918168"><ele>7.7</ele><time>2015-04-25T15:30:53.0000000+00:00</time></trkpt><trkpt lat="35.1005697" lon="32.291875"><ele>8.4</ele><time>2015-04-25T15:30:55.0000000+00:00</time></trkpt><trkpt lat="35.1005573" lon="32.2919418"><ele>8.9</ele><time>2015-04-25T15:30:58.0000000+00:00</time></trkpt><trkpt lat="35.1005794" lon="32.2920079"><ele>10.3</ele><time>2015-04-25T15:31:01.0000000+00:00</time></trkpt><trkpt lat="35.1005731" lon="32.292069"><ele>10.5</ele><time>2015-04-25T15:31:04.0000000+00:00</time></trkpt><trkpt lat="35.1005338" lon="32.2921313"><ele>11.8</ele><time>2015-04-25T15:31:08.0000000+00:00</time></trkpt><trkpt lat="35.100504" lon="32.2921892"><ele>12.3</ele><time>2015-04-25T15:31:12.0000000+00:00</time></trkpt><trkpt lat="35.1004746" lon="32.2922464"><ele>14.3</ele><time>2015-04-25T15:31:16.0000000+00:00</time></trkpt><trkpt lat="35.1004339" lon="32.2922759"><ele>15.3</ele><time>2015-04-25T15:31:19.0000000+00:00</time></trkpt><trkpt lat="35.1003838" lon="32.292301"><ele>15.4</ele><time>2015-04-25T15:31:22.0000000+00:00</time></trkpt><trkpt lat="35.1003405" lon="32.2923346"><ele>14.7</ele><time>2015-04-25T15:31:25.0000000+00:00</time></trkpt><trkpt lat="35.1003033" lon="32.2923872"><ele>15.3</ele><time>2015-04-25T15:31:29.0000000+00:00</time></trkpt><trkpt lat="35.1002587" lon="32.2924364"><ele>17.5</ele><time>2015-04-25T15:31:33.0000000+00:00</time></trkpt><trkpt lat="35.1002172" lon="32.2924743"><ele>19.4</ele><time>2015-04-25T15:31:37.0000000+00:00</time></trkpt><trkpt lat="35.1001721" lon="32.2924892"><ele>20.4</ele><time>2015-04-25T15:31:40.0000000+00:00</time></trkpt><trkpt lat="35.1001166" lon="32.2925107"><ele>20.9</ele><time>2015-04-25T15:31:44.0000000+00:00</time></trkpt><trkpt lat="35.1000767" lon="32.2925366"><ele>20.2</ele><time>2015-04-25T15:31:47.0000000+00:00</time></trkpt><trkpt lat="35.1000297" lon="32.2925746"><ele>19.1</ele><time>2015-04-25T15:31:50.0000000+00:00</time></trkpt><trkpt lat="35.0999874" lon="32.2926174"><ele>18.9</ele><time>2015-04-25T15:31:53.0000000+00:00</time></trkpt><trkpt lat="35.0999426" lon="32.2926616"><ele>19.8</ele><time>2015-04-25T15:31:57.0000000+00:00</time></trkpt><trkpt lat="35.0998886" lon="32.2926811"><ele>19.9</ele><time>2015-04-25T15:32:01.0000000+00:00</time></trkpt><trkpt lat="35.0998374" lon="32.2926763"><ele>19.4</ele><time>2015-04-25T15:32:04.0000000+00:00</time></trkpt><trkpt lat="35.0997856" lon="32.2926721"><ele>18.2</ele><time>2015-04-25T15:32:07.0000000+00:00</time></trkpt><trkpt lat="35.099729" lon="32.2926817"><ele>17.1</ele><time>2015-04-25T15:32:10.0000000+00:00</time></trkpt><trkpt lat="35.0996711" lon="32.292696"><ele>18.6</ele><time>2015-04-25T15:32:13.0000000+00:00</time></trkpt><trkpt lat="35.099619" lon="32.2927409"><ele>18.8</ele><time>2015-04-25T15:32:16.0000000+00:00</time></trkpt><trkpt lat="35.0995663" lon="32.2927853"><ele>19.7</ele><time>2015-04-25T15:32:19.0000000+00:00</time></trkpt><trkpt lat="35.09952" lon="32.2927961"><ele>19.4</ele><time>2015-04-25T15:32:21.0000000+00:00</time></trkpt><trkpt lat="35.0994739" lon="32.2928048"><ele>19.8</ele><time>2015-04-25T15:32:23.0000000+00:00</time></trkpt><trkpt lat="35.0994124" lon="32.2928244"><ele>19.7</ele><time>2015-04-25T15:32:26.0000000+00:00</time></trkpt><trkpt lat="35.0993602" lon="32.2928623"><ele>19.0</ele><time>2015-04-25T15:32:29.0000000+00:00</time></trkpt><trkpt lat="35.0993145" lon="32.2929076"><ele>20.4</ele><time>2015-04-25T15:32:32.0000000+00:00</time></trkpt><trkpt lat="35.0992877" lon="32.2929653"><ele>20.1</ele><time>2015-04-25T15:32:34.0000000+00:00</time></trkpt><trkpt lat="35.0992692" lon="32.2930394"><ele>20.7</ele><time>2015-04-25T15:32:36.0000000+00:00</time></trkpt><trkpt lat="35.0992363" lon="32.2931194"><ele>20.4</ele><time>2015-04-25T15:32:38.0000000+00:00</time></trkpt><trkpt lat="35.0992038" lon="32.2932015"><ele>20.5</ele><time>2015-04-25T15:32:40.0000000+00:00</time></trkpt><trkpt lat="35.0991769" lon="32.2932801"><ele>21.1</ele><time>2015-04-25T15:32:42.0000000+00:00</time></trkpt><trkpt lat="35.0991403" lon="32.2933473"><ele>21.5</ele><time>2015-04-25T15:32:44.0000000+00:00</time></trkpt><trkpt lat="35.099115" lon="32.2934197"><ele>21.1</ele><time>2015-04-25T15:32:46.0000000+00:00</time></trkpt><trkpt lat="35.0991049" lon="32.2934959"><ele>19.0</ele><time>2015-04-25T15:32:48.0000000+00:00</time></trkpt><trkpt lat="35.0990823" lon="32.2935579"><ele>18.2</ele><time>2015-04-25T15:32:50.0000000+00:00</time></trkpt><trkpt lat="35.0990433" lon="32.2935933"><ele>16.7</ele><time>2015-04-25T15:32:52.0000000+00:00</time></trkpt><trkpt lat="35.0990051" lon="32.2935642"><ele>14.2</ele><time>2015-04-25T15:33:11.0000000+00:00</time></trkpt><trkpt lat="35.0989432" lon="32.2935509"><ele>14.4</ele><time>2015-04-25T15:33:15.0000000+00:00</time></trkpt><trkpt lat="35.0988843" lon="32.2935587"><ele>14.0</ele><time>2015-04-25T15:33:18.0000000+00:00</time></trkpt><trkpt lat="35.0988251" lon="32.2935646"><ele>13.1</ele><time>2015-04-25T15:33:21.0000000+00:00</time></trkpt><trkpt lat="35.0987666" lon="32.293577"><ele>14.4</ele><time>2015-04-25T15:33:24.0000000+00:00</time></trkpt><trkpt lat="35.0987019" lon="32.2935856"><ele>14.5</ele><time>2015-04-25T15:33:27.0000000+00:00</time></trkpt><trkpt lat="35.0986556" lon="32.2936016"><ele>14.1</ele><time>2015-04-25T15:33:29.0000000+00:00</time></trkpt><trkpt lat="35.0986133" lon="32.2936442"><ele>14.0</ele><time>2015-04-25T15:33:31.0000000+00:00</time></trkpt><trkpt lat="35.0985863" lon="32.2937091"><ele>13.9</ele><time>2015-04-25T15:33:33.0000000+00:00</time></trkpt><trkpt lat="35.0985598" lon="32.293793"><ele>13.9</ele><time>2015-04-25T15:33:35.0000000+00:00</time></trkpt><trkpt lat="35.0985168" lon="32.2938524"><ele>13.9</ele><time>2015-04-25T15:33:37.0000000+00:00</time></trkpt><trkpt lat="35.0984655" lon="32.2938928"><ele>13.9</ele><time>2015-04-25T15:33:39.0000000+00:00</time></trkpt><trkpt lat="35.0984111" lon="32.2939137"><ele>13.9</ele><time>2015-04-25T15:33:41.0000000+00:00</time></trkpt><trkpt lat="35.0983542" lon="32.2939216"><ele>13.9</ele><time>2015-04-25T15:33:43.0000000+00:00</time></trkpt><trkpt lat="35.0982982" lon="32.2939299"><ele>14.7</ele><time>2015-04-25T15:33:45.0000000+00:00</time></trkpt><trkpt lat="35.098243" lon="32.2939336"><ele>14.9</ele><time>2015-04-25T15:33:47.0000000+00:00</time></trkpt><trkpt lat="35.0981864" lon="32.2939299"><ele>15.4</ele><time>2015-04-25T15:33:49.0000000+00:00</time></trkpt><trkpt lat="35.0981288" lon="32.2939288"><ele>15.1</ele><time>2015-04-25T15:33:51.0000000+00:00</time></trkpt><trkpt lat="35.0980684" lon="32.2939292"><ele>14.5</ele><time>2015-04-25T15:33:53.0000000+00:00</time></trkpt><trkpt lat="35.098011" lon="32.2939294"><ele>14.3</ele><time>2015-04-25T15:33:55.0000000+00:00</time></trkpt><trkpt lat="35.0979597" lon="32.2939301"><ele>14.8</ele><time>2015-04-25T15:33:57.0000000+00:00</time></trkpt><trkpt lat="35.0979074" lon="32.2939284"><ele>14.9</ele><time>2015-04-25T15:34:03.0000000+00:00</time></trkpt><trkpt lat="35.097858" lon="32.2939504"><ele>14.6</ele><time>2015-04-25T15:34:06.0000000+00:00</time></trkpt><trkpt lat="35.097794" lon="32.2939901"><ele>13.1</ele><time>2015-04-25T15:34:08.0000000+00:00</time></trkpt><trkpt lat="35.0977527" lon="32.2940137"><ele>12.5</ele><time>2015-04-25T15:34:09.0000000+00:00</time></trkpt><trkpt lat="35.0977083" lon="32.2940338"><ele>12.2</ele><time>2015-04-25T15:34:10.0000000+00:00</time></trkpt><trkpt lat="35.0976311" lon="32.2940691"><ele>13.3</ele><time>2015-04-25T15:34:12.0000000+00:00</time></trkpt><trkpt lat="35.0975774" lon="32.2941024"><ele>13.8</ele><time>2015-04-25T15:34:14.0000000+00:00</time></trkpt><trkpt lat="35.0975449" lon="32.294153"><ele>15.2</ele><time>2015-04-25T15:34:17.0000000+00:00</time></trkpt><trkpt lat="35.0974985" lon="32.2941936"><ele>15.5</ele><time>2015-04-25T15:34:20.0000000+00:00</time></trkpt><trkpt lat="35.0974509" lon="32.2941908"><ele>14.5</ele><time>2015-04-25T15:34:23.0000000+00:00</time></trkpt><trkpt lat="35.097397" lon="32.2941799"><ele>16.2</ele><time>2015-04-25T15:34:27.0000000+00:00</time></trkpt><trkpt lat="35.0973536" lon="32.2942248"><ele>17.6</ele><time>2015-04-25T15:34:31.0000000+00:00</time></trkpt><trkpt lat="35.0973038" lon="32.2942535"><ele>16.3</ele><time>2015-04-25T15:34:35.0000000+00:00</time></trkpt><trkpt lat="35.0972835" lon="32.2943076"><ele>15.1</ele><time>2015-04-25T15:34:38.0000000+00:00</time></trkpt><trkpt lat="35.0972835" lon="32.2943965"><ele>15.0</ele><time>2015-04-25T15:34:41.0000000+00:00</time></trkpt><trkpt lat="35.0972792" lon="32.2944806"><ele>14.4</ele><time>2015-04-25T15:34:43.0000000+00:00</time></trkpt><trkpt lat="35.0972692" lon="32.294565"><ele>13.3</ele><time>2015-04-25T15:34:45.0000000+00:00</time></trkpt><trkpt lat="35.0972566" lon="32.2946351"><ele>13.3</ele><time>2015-04-25T15:34:47.0000000+00:00</time></trkpt><trkpt lat="35.0972396" lon="32.2946954"><ele>12.3</ele><time>2015-04-25T15:34:49.0000000+00:00</time></trkpt><trkpt lat="35.0972133" lon="32.2947436"><ele>9.7</ele><time>2015-04-25T15:35:11.0000000+00:00</time></trkpt><trkpt lat="35.0971729" lon="32.2947749"><ele>9.7</ele><time>2015-04-25T15:35:18.0000000+00:00</time></trkpt><trkpt lat="35.0971286" lon="32.2948041"><ele>9.7</ele><time>2015-04-25T15:35:23.0000000+00:00</time></trkpt><trkpt lat="35.097092" lon="32.2948364"><ele>11.7</ele><time>2015-04-25T15:35:29.0000000+00:00</time></trkpt><trkpt lat="35.0970523" lon="32.2948624"><ele>13.8</ele><time>2015-04-25T15:35:35.0000000+00:00</time></trkpt><trkpt lat="35.0970157" lon="32.2949035"><ele>10.8</ele><time>2015-04-25T15:35:42.0000000+00:00</time></trkpt><trkpt lat="35.0970005" lon="32.2949582"><ele>11.8</ele><time>2015-04-25T15:35:48.0000000+00:00</time></trkpt><trkpt lat="35.0969661" lon="32.2949961"><ele>8.8</ele><time>2015-04-25T15:35:55.0000000+00:00</time></trkpt><trkpt lat="35.0969334" lon="32.2950378"><ele>9.7</ele><time>2015-04-25T15:36:01.0000000+00:00</time></trkpt><trkpt lat="35.0969182" lon="32.2950927"><ele>12.4</ele><time>2015-04-25T15:36:07.0000000+00:00</time></trkpt><trkpt lat="35.0969125" lon="32.2951553"><ele>12.4</ele><time>2015-04-25T15:36:27.0000000+00:00</time></trkpt><trkpt lat="35.0969001" lon="32.2952106"><ele>12.9</ele><time>2015-04-25T15:36:32.0000000+00:00</time></trkpt><trkpt lat="35.0968823" lon="32.2952705"><ele>12.0</ele><time>2015-04-25T15:36:37.0000000+00:00</time></trkpt><trkpt lat="35.0968736" lon="32.2953336"><ele>11.7</ele><time>2015-04-25T15:36:50.0000000+00:00</time></trkpt><trkpt lat="35.0968412" lon="32.295387"><ele>14.1</ele><time>2015-04-25T15:36:54.0000000+00:00</time></trkpt><trkpt lat="35.0968064" lon="32.295449"><ele>13.3</ele><time>2015-04-25T15:36:58.0000000+00:00</time></trkpt><trkpt lat="35.0967767" lon="32.2955069"><ele>12.2</ele><time>2015-04-25T15:37:01.0000000+00:00</time></trkpt><trkpt lat="35.0967434" lon="32.2955677"><ele>10.6</ele><time>2015-04-25T15:37:04.0000000+00:00</time></trkpt><trkpt lat="35.0967088" lon="32.2956339"><ele>10.0</ele><time>2015-04-25T15:37:07.0000000+00:00</time></trkpt><trkpt lat="35.0966661" lon="32.295683"><ele>9.4</ele><time>2015-04-25T15:37:10.0000000+00:00</time></trkpt><trkpt lat="35.0966354" lon="32.2957318"><ele>8.9</ele><time>2015-04-25T15:37:13.0000000+00:00</time></trkpt><trkpt lat="35.0965934" lon="32.2957647"><ele>8.9</ele><time>2015-04-25T15:37:16.0000000+00:00</time></trkpt><trkpt lat="35.0965411" lon="32.295774"><ele>9.8</ele><time>2015-04-25T15:37:19.0000000+00:00</time></trkpt><trkpt lat="35.0964882" lon="32.2958106"><ele>9.8</ele><time>2015-04-25T15:37:22.0000000+00:00</time></trkpt><trkpt lat="35.0964458" lon="32.2958721"><ele>9.4</ele><time>2015-04-25T15:37:25.0000000+00:00</time></trkpt><trkpt lat="35.0964172" lon="32.2959179"><ele>8.6</ele><time>2015-04-25T15:37:27.0000000+00:00</time></trkpt><trkpt lat="35.0963762" lon="32.2959796"><ele>8.9</ele><time>2015-04-25T15:37:30.0000000+00:00</time></trkpt><trkpt lat="35.0963279" lon="32.2960305"><ele>9.8</ele><time>2015-04-25T15:37:33.0000000+00:00</time></trkpt><trkpt lat="35.0962725" lon="32.2960641"><ele>9.9</ele><time>2015-04-25T15:37:36.0000000+00:00</time></trkpt><trkpt lat="35.0962198" lon="32.2960954"><ele>9.9</ele><time>2015-04-25T15:37:39.0000000+00:00</time></trkpt><trkpt lat="35.0961666" lon="32.2961348"><ele>9.9</ele><time>2015-04-25T15:37:42.0000000+00:00</time></trkpt><trkpt lat="35.0961145" lon="32.2961788"><ele>10.3</ele><time>2015-04-25T15:37:45.0000000+00:00</time></trkpt><trkpt lat="35.0960717" lon="32.2962099"><ele>9.5</ele><time>2015-04-25T15:37:47.0000000+00:00</time></trkpt><trkpt lat="35.0960173" lon="32.2962429"><ele>9.1</ele><time>2015-04-25T15:37:49.0000000+00:00</time></trkpt><trkpt lat="35.0959646" lon="32.2962768"><ele>9.5</ele><time>2015-04-25T15:37:51.0000000+00:00</time></trkpt><trkpt lat="35.0959166" lon="32.2963168"><ele>9.8</ele><time>2015-04-25T15:37:53.0000000+00:00</time></trkpt><trkpt lat="35.095874" lon="32.296367"><ele>9.9</ele><time>2015-04-25T15:37:55.0000000+00:00</time></trkpt><trkpt lat="35.0958223" lon="32.2964177"><ele>9.9</ele><time>2015-04-25T15:37:57.0000000+00:00</time></trkpt><trkpt lat="35.0957734" lon="32.2964656"><ele>9.9</ele><time>2015-04-25T15:37:59.0000000+00:00</time></trkpt><trkpt lat="35.0957216" lon="32.2965068"><ele>9.9</ele><time>2015-04-25T15:38:01.0000000+00:00</time></trkpt><trkpt lat="35.0956619" lon="32.296544"><ele>9.9</ele><time>2015-04-25T15:38:03.0000000+00:00</time></trkpt><trkpt lat="35.0955939" lon="32.2965754"><ele>9.4</ele><time>2015-04-25T15:38:05.0000000+00:00</time></trkpt><trkpt lat="35.0955262" lon="32.2966027"><ele>9.8</ele><time>2015-04-25T15:38:07.0000000+00:00</time></trkpt><trkpt lat="35.0954593" lon="32.2966197"><ele>9.9</ele><time>2015-04-25T15:38:09.0000000+00:00</time></trkpt><trkpt lat="35.0954019" lon="32.2966245"><ele>9.9</ele><time>2015-04-25T15:38:11.0000000+00:00</time></trkpt><trkpt lat="35.0953432" lon="32.2966243"><ele>9.9</ele><time>2015-04-25T15:38:13.0000000+00:00</time></trkpt><trkpt lat="35.0952905" lon="32.2966272"><ele>10.7</ele><time>2015-04-25T15:38:15.0000000+00:00</time></trkpt><trkpt lat="35.0952291" lon="32.2966402"><ele>11.4</ele><time>2015-04-25T15:38:18.0000000+00:00</time></trkpt><trkpt lat="35.095186" lon="32.2966759"><ele>11.1</ele><time>2015-04-25T15:38:21.0000000+00:00</time></trkpt><trkpt lat="35.0951453" lon="32.2967244"><ele>11.1</ele><time>2015-04-25T15:38:24.0000000+00:00</time></trkpt><trkpt lat="35.0950999" lon="32.2967591"><ele>10.9</ele><time>2015-04-25T15:38:27.0000000+00:00</time></trkpt><trkpt lat="35.095045" lon="32.2967888"><ele>10.1</ele><time>2015-04-25T15:38:30.0000000+00:00</time></trkpt><trkpt lat="35.0949958" lon="32.2968295"><ele>10.1</ele><time>2015-04-25T15:38:33.0000000+00:00</time></trkpt><trkpt lat="35.0949408" lon="32.2968764"><ele>9.1</ele><time>2015-04-25T15:38:36.0000000+00:00</time></trkpt><trkpt lat="35.0948868" lon="32.2969148"><ele>11.8</ele><time>2015-04-25T15:38:39.0000000+00:00</time></trkpt><trkpt lat="35.0948387" lon="32.296959"><ele>12.3</ele><time>2015-04-25T15:38:42.0000000+00:00</time></trkpt><trkpt lat="35.0947888" lon="32.2970111"><ele>12.0</ele><time>2015-04-25T15:38:45.0000000+00:00</time></trkpt><trkpt lat="35.0947462" lon="32.2970648"><ele>11.9</ele><time>2015-04-25T15:38:48.0000000+00:00</time></trkpt><trkpt lat="35.0947009" lon="32.2971226"><ele>11.8</ele><time>2015-04-25T15:38:51.0000000+00:00</time></trkpt><trkpt lat="35.094667" lon="32.2971593"><ele>11.9</ele><time>2015-04-25T15:38:53.0000000+00:00</time></trkpt><trkpt lat="35.0946316" lon="32.2971968"><ele>11.7</ele><time>2015-04-25T15:38:55.0000000+00:00</time></trkpt><trkpt lat="35.0945826" lon="32.2972415"><ele>11.5</ele><time>2015-04-25T15:38:58.0000000+00:00</time></trkpt><trkpt lat="35.0945339" lon="32.2972577"><ele>12.3</ele><time>2015-04-25T15:39:01.0000000+00:00</time></trkpt><trkpt lat="35.0944995" lon="32.2973036"><ele>12.8</ele><time>2015-04-25T15:39:04.0000000+00:00</time></trkpt><trkpt lat="35.094453" lon="32.2973573"><ele>13.4</ele><time>2015-04-25T15:39:07.0000000+00:00</time></trkpt><trkpt lat="35.094409" lon="32.297391"><ele>13.1</ele><time>2015-04-25T15:39:09.0000000+00:00</time></trkpt><trkpt lat="35.0943617" lon="32.2974177"><ele>12.2</ele><time>2015-04-25T15:39:11.0000000+00:00</time></trkpt><trkpt lat="35.0943146" lon="32.2974344"><ele>12.0</ele><time>2015-04-25T15:39:13.0000000+00:00</time></trkpt><trkpt lat="35.0942693" lon="32.2974478"><ele>12.4</ele><time>2015-04-25T15:39:15.0000000+00:00</time></trkpt><trkpt lat="35.0942085" lon="32.2974766"><ele>12.9</ele><time>2015-04-25T15:39:18.0000000+00:00</time></trkpt><trkpt lat="35.0941591" lon="32.2975094"><ele>13.0</ele><time>2015-04-25T15:39:21.0000000+00:00</time></trkpt><trkpt lat="35.0941137" lon="32.2975395"><ele>12.8</ele><time>2015-04-25T15:39:24.0000000+00:00</time></trkpt><trkpt lat="35.0940694" lon="32.2975684"><ele>12.8</ele><time>2015-04-25T15:39:27.0000000+00:00</time></trkpt><trkpt lat="35.0940018" lon="32.2976066"><ele>12.0</ele><time>2015-04-25T15:39:30.0000000+00:00</time></trkpt><trkpt lat="35.0939388" lon="32.2976562"><ele>12.0</ele><time>2015-04-25T15:39:32.0000000+00:00</time></trkpt><trkpt lat="35.0938921" lon="32.2977311"><ele>11.9</ele><time>2015-04-25T15:39:34.0000000+00:00</time></trkpt><trkpt lat="35.0938522" lon="32.2977966"><ele>11.9</ele><time>2015-04-25T15:39:36.0000000+00:00</time></trkpt><trkpt lat="35.0938029" lon="32.2978533"><ele>11.2</ele><time>2015-04-25T15:39:38.0000000+00:00</time></trkpt><trkpt lat="35.0937587" lon="32.2979105"><ele>11.7</ele><time>2015-04-25T15:39:40.0000000+00:00</time></trkpt><trkpt lat="35.0937254" lon="32.2979734"><ele>11.9</ele><time>2015-04-25T15:39:42.0000000+00:00</time></trkpt><trkpt lat="35.0937048" lon="32.2980375"><ele>12.7</ele><time>2015-04-25T15:39:44.0000000+00:00</time></trkpt><trkpt lat="35.0936864" lon="32.2980964"><ele>13.4</ele><time>2015-04-25T15:39:46.0000000+00:00</time></trkpt><trkpt lat="35.0936722" lon="32.2981547"><ele>13.8</ele><time>2015-04-25T15:39:48.0000000+00:00</time></trkpt><trkpt lat="35.0936199" lon="32.2981924"><ele>16.0</ele><time>2015-04-25T15:39:51.0000000+00:00</time></trkpt><trkpt lat="35.0935698" lon="32.2982063"><ele>16.8</ele><time>2015-04-25T15:39:54.0000000+00:00</time></trkpt><trkpt lat="35.093522" lon="32.2982403"><ele>16.4</ele><time>2015-04-25T15:39:57.0000000+00:00</time></trkpt><trkpt lat="35.093485" lon="32.2982945"><ele>16.0</ele><time>2015-04-25T15:40:00.0000000+00:00</time></trkpt><trkpt lat="35.0934545" lon="32.2983615"><ele>15.9</ele><time>2015-04-25T15:40:03.0000000+00:00</time></trkpt><trkpt lat="35.0934199" lon="32.2984092"><ele>15.9</ele><time>2015-04-25T15:40:05.0000000+00:00</time></trkpt><trkpt lat="35.0933735" lon="32.2984353"><ele>17.2</ele><time>2015-04-25T15:40:07.0000000+00:00</time></trkpt><trkpt lat="35.0933112" lon="32.2984522"><ele>18.6</ele><time>2015-04-25T15:40:10.0000000+00:00</time></trkpt><trkpt lat="35.0932458" lon="32.298454"><ele>17.3</ele><time>2015-04-25T15:40:13.0000000+00:00</time></trkpt><trkpt lat="35.0931801" lon="32.2984731"><ele>15.3</ele><time>2015-04-25T15:40:16.0000000+00:00</time></trkpt><trkpt lat="35.0931204" lon="32.2984877"><ele>16.2</ele><time>2015-04-25T15:40:19.0000000+00:00</time></trkpt><trkpt lat="35.0930672" lon="32.2985"><ele>16.8</ele><time>2015-04-25T15:40:22.0000000+00:00</time></trkpt><trkpt lat="35.0930113" lon="32.2984974"><ele>17.4</ele><time>2015-04-25T15:40:26.0000000+00:00</time></trkpt><trkpt lat="35.0929615" lon="32.2984563"><ele>18.6</ele><time>2015-04-25T15:40:30.0000000+00:00</time></trkpt><trkpt lat="35.092917" lon="32.2984471"><ele>19.4</ele><time>2015-04-25T15:40:33.0000000+00:00</time></trkpt><trkpt lat="35.0928611" lon="32.2984444"><ele>20.0</ele><time>2015-04-25T15:40:37.0000000+00:00</time></trkpt><trkpt lat="35.0928156" lon="32.298455"><ele>19.6</ele><time>2015-04-25T15:40:40.0000000+00:00</time></trkpt><trkpt lat="35.092776" lon="32.2984827"><ele>19.9</ele><time>2015-04-25T15:40:43.0000000+00:00</time></trkpt><trkpt lat="35.0927463" lon="32.2985362"><ele>19.0</ele><time>2015-04-25T15:40:46.0000000+00:00</time></trkpt><trkpt lat="35.0927212" lon="32.2985958"><ele>18.9</ele><time>2015-04-25T15:40:49.0000000+00:00</time></trkpt><trkpt lat="35.0926942" lon="32.298653"><ele>17.6</ele><time>2015-04-25T15:40:52.0000000+00:00</time></trkpt><trkpt lat="35.0926482" lon="32.2986795"><ele>17.6</ele><time>2015-04-25T15:40:55.0000000+00:00</time></trkpt><trkpt lat="35.0925958" lon="32.2987007"><ele>17.9</ele><time>2015-04-25T15:40:58.0000000+00:00</time></trkpt><trkpt lat="35.0925499" lon="32.2987336"><ele>18.7</ele><time>2015-04-25T15:41:01.0000000+00:00</time></trkpt><trkpt lat="35.0925104" lon="32.2987803"><ele>18.4</ele><time>2015-04-25T15:41:04.0000000+00:00</time></trkpt><trkpt lat="35.0924679" lon="32.2988198"><ele>17.6</ele><time>2015-04-25T15:41:07.0000000+00:00</time></trkpt><trkpt lat="35.0924358" lon="32.2988679"><ele>17.1</ele><time>2015-04-25T15:41:10.0000000+00:00</time></trkpt><trkpt lat="35.0923834" lon="32.2989018"><ele>16.4</ele><time>2015-04-25T15:41:14.0000000+00:00</time></trkpt><trkpt lat="35.0923348" lon="32.2989115"><ele>16.9</ele><time>2015-04-25T15:41:17.0000000+00:00</time></trkpt><trkpt lat="35.0923297" lon="32.298979"><ele>18.7</ele><time>2015-04-25T15:41:21.0000000+00:00</time></trkpt><trkpt lat="35.0923552" lon="32.2990296"><ele>18.1</ele><time>2015-04-25T15:41:24.0000000+00:00</time></trkpt><trkpt lat="35.0923422" lon="32.2991016"><ele>17.9</ele><time>2015-04-25T15:41:28.0000000+00:00</time></trkpt><trkpt lat="35.0923173" lon="32.2991525"><ele>17.9</ele><time>2015-04-25T15:41:31.0000000+00:00</time></trkpt><trkpt lat="35.0922893" lon="32.2992046"><ele>19.2</ele><time>2015-04-25T15:41:34.0000000+00:00</time></trkpt><trkpt lat="35.0922578" lon="32.2992583"><ele>19.1</ele><time>2015-04-25T15:41:37.0000000+00:00</time></trkpt><trkpt lat="35.0922346" lon="32.2993252"><ele>18.8</ele><time>2015-04-25T15:41:40.0000000+00:00</time></trkpt><trkpt lat="35.0922304" lon="32.2993809"><ele>18.9</ele><time>2015-04-25T15:41:42.0000000+00:00</time></trkpt><trkpt lat="35.0922388" lon="32.2994375"><ele>18.9</ele><time>2015-04-25T15:41:44.0000000+00:00</time></trkpt><trkpt lat="35.0922573" lon="32.2994913"><ele>19.4</ele><time>2015-04-25T15:41:46.0000000+00:00</time></trkpt><trkpt lat="35.0922864" lon="32.2995386"><ele>19.8</ele><time>2015-04-25T15:41:48.0000000+00:00</time></trkpt><trkpt lat="35.0923222" lon="32.2995993"><ele>19.4</ele><time>2015-04-25T15:41:50.0000000+00:00</time></trkpt><trkpt lat="35.0923494" lon="32.2996788"><ele>20.5</ele><time>2015-04-25T15:41:52.0000000+00:00</time></trkpt><trkpt lat="35.0923516" lon="32.299735"><ele>20.2</ele><time>2015-04-25T15:41:53.0000000+00:00</time></trkpt><trkpt lat="35.0923405" lon="32.299827"><ele>20.0</ele><time>2015-04-25T15:41:55.0000000+00:00</time></trkpt><trkpt lat="35.0923166" lon="32.2999138"><ele>19.9</ele><time>2015-04-25T15:41:57.0000000+00:00</time></trkpt><trkpt lat="35.0923001" lon="32.2999909"><ele>19.2</ele><time>2015-04-25T15:41:59.0000000+00:00</time></trkpt><trkpt lat="35.0922994" lon="32.3000713"><ele>19.0</ele><time>2015-04-25T15:42:01.0000000+00:00</time></trkpt><trkpt lat="35.0922887" lon="32.3001452"><ele>19.9</ele><time>2015-04-25T15:42:03.0000000+00:00</time></trkpt><trkpt lat="35.0922578" lon="32.3002092"><ele>20.7</ele><time>2015-04-25T15:42:05.0000000+00:00</time></trkpt><trkpt lat="35.0922119" lon="32.3002575"><ele>20.4</ele><time>2015-04-25T15:42:07.0000000+00:00</time></trkpt><trkpt lat="35.0921558" lon="32.3002803"><ele>19.5</ele><time>2015-04-25T15:42:09.0000000+00:00</time></trkpt><trkpt lat="35.0921067" lon="32.3002909"><ele>19.3</ele><time>2015-04-25T15:42:11.0000000+00:00</time></trkpt><trkpt lat="35.0920483" lon="32.3003217"><ele>19.4</ele><time>2015-04-25T15:42:14.0000000+00:00</time></trkpt><trkpt lat="35.0920126" lon="32.3003591"><ele>19.3</ele><time>2015-04-25T15:42:16.0000000+00:00</time></trkpt><trkpt lat="35.0919742" lon="32.3004005"><ele>19.3</ele><time>2015-04-25T15:42:18.0000000+00:00</time></trkpt><trkpt lat="35.0919382" lon="32.3004514"><ele>19.0</ele><time>2015-04-25T15:42:20.0000000+00:00</time></trkpt><trkpt lat="35.0918997" lon="32.3005024"><ele>19.0</ele><time>2015-04-25T15:42:22.0000000+00:00</time></trkpt><trkpt lat="35.091857" lon="32.300546"><ele>19.7</ele><time>2015-04-25T15:42:24.0000000+00:00</time></trkpt><trkpt lat="35.0918215" lon="32.3005931"><ele>19.6</ele><time>2015-04-25T15:42:26.0000000+00:00</time></trkpt><trkpt lat="35.0918018" lon="32.300646"><ele>19.9</ele><time>2015-04-25T15:42:28.0000000+00:00</time></trkpt><trkpt lat="35.0917618" lon="32.3007093"><ele>21.3</ele><time>2015-04-25T15:42:31.0000000+00:00</time></trkpt><trkpt lat="35.0917053" lon="32.3007424"><ele>21.9</ele><time>2015-04-25T15:42:34.0000000+00:00</time></trkpt><trkpt lat="35.0916604" lon="32.3007987"><ele>21.0</ele><time>2015-04-25T15:42:37.0000000+00:00</time></trkpt><trkpt lat="35.0916236" lon="32.3008625"><ele>20.1</ele><time>2015-04-25T15:42:40.0000000+00:00</time></trkpt><trkpt lat="35.0915898" lon="32.3008989"><ele>18.7</ele><time>2015-04-25T15:42:42.0000000+00:00</time></trkpt><trkpt lat="35.0915412" lon="32.3009487"><ele>18.0</ele><time>2015-04-25T15:42:45.0000000+00:00</time></trkpt><trkpt lat="35.0914982" lon="32.3010035"><ele>17.2</ele><time>2015-04-25T15:42:48.0000000+00:00</time></trkpt><trkpt lat="35.0914571" lon="32.3010555"><ele>16.2</ele><time>2015-04-25T15:42:51.0000000+00:00</time></trkpt><trkpt lat="35.0914124" lon="32.3010965"><ele>16.8</ele><time>2015-04-25T15:42:54.0000000+00:00</time></trkpt><trkpt lat="35.0913849" lon="32.3011432"><ele>16.0</ele><time>2015-04-25T15:42:57.0000000+00:00</time></trkpt><trkpt lat="35.0913607" lon="32.3012031"><ele>16.2</ele><time>2015-04-25T15:42:59.0000000+00:00</time></trkpt><trkpt lat="35.091333" lon="32.3012621"><ele>16.5</ele><time>2015-04-25T15:43:01.0000000+00:00</time></trkpt><trkpt lat="35.091312" lon="32.3013175"><ele>16.8</ele><time>2015-04-25T15:43:03.0000000+00:00</time></trkpt><trkpt lat="35.0912917" lon="32.3013786"><ele>16.9</ele><time>2015-04-25T15:43:05.0000000+00:00</time></trkpt><trkpt lat="35.0912716" lon="32.301438"><ele>16.9</ele><time>2015-04-25T15:43:07.0000000+00:00</time></trkpt><trkpt lat="35.0912497" lon="32.3014897"><ele>16.9</ele><time>2015-04-25T15:43:09.0000000+00:00</time></trkpt><trkpt lat="35.0912303" lon="32.301557"><ele>16.1</ele><time>2015-04-25T15:43:12.0000000+00:00</time></trkpt><trkpt lat="35.0912111" lon="32.3016231"><ele>15.2</ele><time>2015-04-25T15:43:15.0000000+00:00</time></trkpt><trkpt lat="35.091179" lon="32.3016886"><ele>14.5</ele><time>2015-04-25T15:43:18.0000000+00:00</time></trkpt><trkpt lat="35.0911486" lon="32.3017298"><ele>14.1</ele><time>2015-04-25T15:43:20.0000000+00:00</time></trkpt><trkpt lat="35.0911042" lon="32.3017874"><ele>13.9</ele><time>2015-04-25T15:43:23.0000000+00:00</time></trkpt><trkpt lat="35.0910667" lon="32.3018517"><ele>13.4</ele><time>2015-04-25T15:43:26.0000000+00:00</time></trkpt><trkpt lat="35.0910446" lon="32.3019045"><ele>13.1</ele><time>2015-04-25T15:43:28.0000000+00:00</time></trkpt><trkpt lat="35.0910241" lon="32.3019585"><ele>13.0</ele><time>2015-04-25T15:43:30.0000000+00:00</time></trkpt><trkpt lat="35.0910006" lon="32.3020171"><ele>12.9</ele><time>2015-04-25T15:43:32.0000000+00:00</time></trkpt><trkpt lat="35.0909721" lon="32.3020788"><ele>12.4</ele><time>2015-04-25T15:43:34.0000000+00:00</time></trkpt><trkpt lat="35.0909439" lon="32.302141"><ele>12.1</ele><time>2015-04-25T15:43:36.0000000+00:00</time></trkpt><trkpt lat="35.0909202" lon="32.3022017"><ele>12.5</ele><time>2015-04-25T15:43:38.0000000+00:00</time></trkpt><trkpt lat="35.0908942" lon="32.3022569"><ele>12.8</ele><time>2015-04-25T15:43:40.0000000+00:00</time></trkpt><trkpt lat="35.0908671" lon="32.3023141"><ele>12.9</ele><time>2015-04-25T15:43:42.0000000+00:00</time></trkpt><trkpt lat="35.0908392" lon="32.3023759"><ele>13.4</ele><time>2015-04-25T15:43:44.0000000+00:00</time></trkpt><trkpt lat="35.0908096" lon="32.3024326"><ele>13.8</ele><time>2015-04-25T15:43:46.0000000+00:00</time></trkpt><trkpt lat="35.0907784" lon="32.3024802"><ele>13.9</ele><time>2015-04-25T15:43:48.0000000+00:00</time></trkpt><trkpt lat="35.0907247" lon="32.3025191"><ele>13.8</ele><time>2015-04-25T15:43:51.0000000+00:00</time></trkpt><trkpt lat="35.0906595" lon="32.302526"><ele>13.9</ele><time>2015-04-25T15:43:54.0000000+00:00</time></trkpt><trkpt lat="35.090614" lon="32.3025192"><ele>13.9</ele><time>2015-04-25T15:43:56.0000000+00:00</time></trkpt><trkpt lat="35.0905721" lon="32.3024915"><ele>14.4</ele><time>2015-04-25T15:43:58.0000000+00:00</time></trkpt><trkpt lat="35.0905366" lon="32.302434"><ele>14.9</ele><time>2015-04-25T15:44:01.0000000+00:00</time></trkpt><trkpt lat="35.0905235" lon="32.3023777"><ele>14.9</ele><time>2015-04-25T15:44:04.0000000+00:00</time></trkpt><trkpt lat="35.0905283" lon="32.3023169"><ele>14.2</ele><time>2015-04-25T15:44:07.0000000+00:00</time></trkpt><trkpt lat="35.090541" lon="32.3022372"><ele>14.7</ele><time>2015-04-25T15:44:10.0000000+00:00</time></trkpt><trkpt lat="35.0905463" lon="32.3021817"><ele>14.4</ele><time>2015-04-25T15:44:12.0000000+00:00</time></trkpt><trkpt lat="35.0905473" lon="32.302105"><ele>14.9</ele><time>2015-04-25T15:44:15.0000000+00:00</time></trkpt><trkpt lat="35.0905394" lon="32.3020234"><ele>14.9</ele><time>2015-04-25T15:44:18.0000000+00:00</time></trkpt><trkpt lat="35.0905197" lon="32.3019512"><ele>14.9</ele><time>2015-04-25T15:44:20.0000000+00:00</time></trkpt><trkpt lat="35.0905012" lon="32.3018912"><ele>15.2</ele><time>2015-04-25T15:44:22.0000000+00:00</time></trkpt><trkpt lat="35.0904802" lon="32.3018334"><ele>15.2</ele><time>2015-04-25T15:44:24.0000000+00:00</time></trkpt><trkpt lat="35.0904567" lon="32.3017821"><ele>15.0</ele><time>2015-04-25T15:44:26.0000000+00:00</time></trkpt><trkpt lat="35.0904333" lon="32.3017345"><ele>14.2</ele><time>2015-04-25T15:44:28.0000000+00:00</time></trkpt><trkpt lat="35.0904087" lon="32.3016833"><ele>14.7</ele><time>2015-04-25T15:44:30.0000000+00:00</time></trkpt><trkpt lat="35.0903826" lon="32.3016363"><ele>14.1</ele><time>2015-04-25T15:44:32.0000000+00:00</time></trkpt><trkpt lat="35.0903754" lon="32.3015797"><ele>14.0</ele><time>2015-04-25T15:44:34.0000000+00:00</time></trkpt><trkpt lat="35.0903739" lon="32.301499"><ele>13.9</ele><time>2015-04-25T15:44:37.0000000+00:00</time></trkpt><trkpt lat="35.090382" lon="32.301419"><ele>14.4</ele><time>2015-04-25T15:44:40.0000000+00:00</time></trkpt><trkpt lat="35.0903858" lon="32.3013401"><ele>14.9</ele><time>2015-04-25T15:44:43.0000000+00:00</time></trkpt><trkpt lat="35.0903785" lon="32.3012619"><ele>14.7</ele><time>2015-04-25T15:44:46.0000000+00:00</time></trkpt><trkpt lat="35.0903553" lon="32.3012137"><ele>14.4</ele><time>2015-04-25T15:44:48.0000000+00:00</time></trkpt><trkpt lat="35.0903207" lon="32.301174"><ele>14.5</ele><time>2015-04-25T15:44:50.0000000+00:00</time></trkpt><trkpt lat="35.0902854" lon="32.3011375"><ele>14.8</ele><time>2015-04-25T15:44:52.0000000+00:00</time></trkpt><trkpt lat="35.0902465" lon="32.3011035"><ele>15.4</ele><time>2015-04-25T15:44:54.0000000+00:00</time></trkpt><trkpt lat="35.0902018" lon="32.3010771"><ele>15.3</ele><time>2015-04-25T15:44:56.0000000+00:00</time></trkpt><trkpt lat="35.0901588" lon="32.3010534"><ele>15.0</ele><time>2015-04-25T15:44:58.0000000+00:00</time></trkpt><trkpt lat="35.0901144" lon="32.301036"><ele>15.0</ele><time>2015-04-25T15:45:00.0000000+00:00</time></trkpt><trkpt lat="35.0900666" lon="32.3010161"><ele>14.9</ele><time>2015-04-25T15:45:02.0000000+00:00</time></trkpt><trkpt lat="35.0900058" lon="32.300977"><ele>14.2</ele><time>2015-04-25T15:45:04.0000000+00:00</time></trkpt><trkpt lat="35.089953" lon="32.300926"><ele>14.0</ele><time>2015-04-25T15:45:06.0000000+00:00</time></trkpt><trkpt lat="35.0899112" lon="32.3008689"><ele>13.9</ele><time>2015-04-25T15:45:08.0000000+00:00</time></trkpt><trkpt lat="35.0898723" lon="32.3008139"><ele>13.9</ele><time>2015-04-25T15:45:10.0000000+00:00</time></trkpt><trkpt lat="35.0898312" lon="32.3007603"><ele>13.9</ele><time>2015-04-25T15:45:12.0000000+00:00</time></trkpt><trkpt lat="35.089786" lon="32.3007107"><ele>13.9</ele><time>2015-04-25T15:45:14.0000000+00:00</time></trkpt><trkpt lat="35.0897398" lon="32.3006705"><ele>14.4</ele><time>2015-04-25T15:45:16.0000000+00:00</time></trkpt><trkpt lat="35.0896889" lon="32.300634"><ele>14.4</ele><time>2015-04-25T15:45:19.0000000+00:00</time></trkpt><trkpt lat="35.0896362" lon="32.3006184"><ele>13.2</ele><time>2015-04-25T15:45:22.0000000+00:00</time></trkpt><trkpt lat="35.0895781" lon="32.3006045"><ele>13.0</ele><time>2015-04-25T15:45:25.0000000+00:00</time></trkpt><trkpt lat="35.0895239" lon="32.3005873"><ele>12.9</ele><time>2015-04-25T15:45:28.0000000+00:00</time></trkpt><trkpt lat="35.0894748" lon="32.3005778"><ele>12.9</ele><time>2015-04-25T15:45:31.0000000+00:00</time></trkpt><trkpt lat="35.0894149" lon="32.3005626"><ele>12.6</ele><time>2015-04-25T15:45:34.0000000+00:00</time></trkpt><trkpt lat="35.0893667" lon="32.3005465"><ele>12.3</ele><time>2015-04-25T15:45:36.0000000+00:00</time></trkpt><trkpt lat="35.0893172" lon="32.3005391"><ele>12.0</ele><time>2015-04-25T15:45:38.0000000+00:00</time></trkpt><trkpt lat="35.0892722" lon="32.3005336"><ele>12.2</ele><time>2015-04-25T15:45:40.0000000+00:00</time></trkpt><trkpt lat="35.0892138" lon="32.3005091"><ele>12.8</ele><time>2015-04-25T15:45:43.0000000+00:00</time></trkpt><trkpt lat="35.0891521" lon="32.3004917"><ele>12.9</ele><time>2015-04-25T15:45:46.0000000+00:00</time></trkpt><trkpt lat="35.0891064" lon="32.3004812"><ele>13.9</ele><time>2015-04-25T15:45:51.0000000+00:00</time></trkpt><trkpt lat="35.0890507" lon="32.3004721"><ele>16.2</ele><time>2015-04-25T15:47:09.0000000+00:00</time></trkpt><trkpt lat="35.0889878" lon="32.3004918"><ele>16.8</ele><time>2015-04-25T15:47:12.0000000+00:00</time></trkpt><trkpt lat="35.0889347" lon="32.3005089"><ele>16.9</ele><time>2015-04-25T15:47:14.0000000+00:00</time></trkpt><trkpt lat="35.0888907" lon="32.300524"><ele>16.9</ele><time>2015-04-25T15:47:16.0000000+00:00</time></trkpt><trkpt lat="35.0888419" lon="32.3005506"><ele>16.9</ele><time>2015-04-25T15:47:20.0000000+00:00</time></trkpt><trkpt lat="35.0888135" lon="32.3006004"><ele>17.6</ele><time>2015-04-25T15:47:23.0000000+00:00</time></trkpt><trkpt lat="35.0887875" lon="32.3006557"><ele>17.6</ele><time>2015-04-25T15:47:25.0000000+00:00</time></trkpt><trkpt lat="35.0887569" lon="32.3007012"><ele>17.8</ele><time>2015-04-25T15:47:27.0000000+00:00</time></trkpt><trkpt lat="35.0887195" lon="32.3007358"><ele>17.9</ele><time>2015-04-25T15:47:29.0000000+00:00</time></trkpt><trkpt lat="35.0886596" lon="32.3007696"><ele>17.9</ele><time>2015-04-25T15:47:32.0000000+00:00</time></trkpt><trkpt lat="35.0886004" lon="32.3007891"><ele>17.9</ele><time>2015-04-25T15:47:35.0000000+00:00</time></trkpt><trkpt lat="35.0885502" lon="32.3008133"><ele>17.1</ele><time>2015-04-25T15:47:38.0000000+00:00</time></trkpt><trkpt lat="35.0884987" lon="32.3008579"><ele>15.6</ele><time>2015-04-25T15:47:41.0000000+00:00</time></trkpt><trkpt lat="35.0884398" lon="32.3008949"><ele>15.9</ele><time>2015-04-25T15:47:44.0000000+00:00</time></trkpt><trkpt lat="35.0884003" lon="32.3009209"><ele>15.7</ele><time>2015-04-25T15:47:46.0000000+00:00</time></trkpt><trkpt lat="35.0883415" lon="32.3009671"><ele>15.3</ele><time>2015-04-25T15:47:49.0000000+00:00</time></trkpt><trkpt lat="35.0882883" lon="32.3010097"><ele>15.0</ele><time>2015-04-25T15:47:52.0000000+00:00</time></trkpt><trkpt lat="35.0882572" lon="32.3010508"><ele>15.9</ele><time>2015-04-25T15:47:56.0000000+00:00</time></trkpt><trkpt lat="35.0882097" lon="32.3011063"><ele>16.7</ele><time>2015-04-25T15:48:00.0000000+00:00</time></trkpt><trkpt lat="35.0881662" lon="32.301159"><ele>16.4</ele><time>2015-04-25T15:48:02.0000000+00:00</time></trkpt><trkpt lat="35.0881438" lon="32.3012176"><ele>16.5</ele><time>2015-04-25T15:48:04.0000000+00:00</time></trkpt><trkpt lat="35.0881716" lon="32.3012731"><ele>17.0</ele><time>2015-04-25T15:48:07.0000000+00:00</time></trkpt><trkpt lat="35.0882196" lon="32.3012579"><ele>16.9</ele><time>2015-04-25T15:48:09.0000000+00:00</time></trkpt><trkpt lat="35.0882576" lon="32.3012276"><ele>17.7</ele><time>2015-04-25T15:48:11.0000000+00:00</time></trkpt><trkpt lat="35.0883076" lon="32.3011937"><ele>17.5</ele><time>2015-04-25T15:48:14.0000000+00:00</time></trkpt><trkpt lat="35.0883503" lon="32.3011748"><ele>18.1</ele><time>2015-04-25T15:49:17.0000000+00:00</time></trkpt><trkpt lat="35.0882922" lon="32.3011917"><ele>17.7</ele><time>2015-04-25T15:50:04.0000000+00:00</time></trkpt><trkpt lat="35.0882374" lon="32.3012234"><ele>17.9</ele><time>2015-04-25T15:50:06.0000000+00:00</time></trkpt><trkpt lat="35.0881713" lon="32.3012599"><ele>17.9</ele><time>2015-04-25T15:50:08.0000000+00:00</time></trkpt><trkpt lat="35.0881135" lon="32.3012961"><ele>18.7</ele><time>2015-04-25T15:50:10.0000000+00:00</time></trkpt><trkpt lat="35.088063" lon="32.3013414"><ele>18.1</ele><time>2015-04-25T15:50:12.0000000+00:00</time></trkpt><trkpt lat="35.088016" lon="32.3013928"><ele>18.0</ele><time>2015-04-25T15:50:14.0000000+00:00</time></trkpt><trkpt lat="35.0879678" lon="32.3014514"><ele>17.2</ele><time>2015-04-25T15:50:16.0000000+00:00</time></trkpt><trkpt lat="35.0879197" lon="32.3015226"><ele>16.2</ele><time>2015-04-25T15:50:18.0000000+00:00</time></trkpt><trkpt lat="35.0878887" lon="32.3016077"><ele>16.8</ele><time>2015-04-25T15:50:20.0000000+00:00</time></trkpt><trkpt lat="35.087876" lon="32.301695"><ele>16.6</ele><time>2015-04-25T15:50:22.0000000+00:00</time></trkpt><trkpt lat="35.0878545" lon="32.3017827"><ele>18.1</ele><time>2015-04-25T15:50:24.0000000+00:00</time></trkpt><trkpt lat="35.0878269" lon="32.3018592"><ele>19.5</ele><time>2015-04-25T15:50:26.0000000+00:00</time></trkpt><trkpt lat="35.0877875" lon="32.3019243"><ele>19.1</ele><time>2015-04-25T15:50:28.0000000+00:00</time></trkpt><trkpt lat="35.0877418" lon="32.3019871"><ele>19.0</ele><time>2015-04-25T15:50:30.0000000+00:00</time></trkpt><trkpt lat="35.0876895" lon="32.3020488"><ele>18.9</ele><time>2015-04-25T15:50:32.0000000+00:00</time></trkpt><trkpt lat="35.0876345" lon="32.302109"><ele>19.7</ele><time>2015-04-25T15:50:34.0000000+00:00</time></trkpt><trkpt lat="35.0875824" lon="32.3021734"><ele>19.6</ele><time>2015-04-25T15:50:36.0000000+00:00</time></trkpt><trkpt lat="35.0875317" lon="32.302236"><ele>19.9</ele><time>2015-04-25T15:50:38.0000000+00:00</time></trkpt><trkpt lat="35.087482" lon="32.302293"><ele>20.4</ele><time>2015-04-25T15:50:40.0000000+00:00</time></trkpt><trkpt lat="35.0874447" lon="32.3023607"><ele>20.8</ele><time>2015-04-25T15:50:42.0000000+00:00</time></trkpt><trkpt lat="35.0874198" lon="32.3024323"><ele>21.1</ele><time>2015-04-25T15:50:44.0000000+00:00</time></trkpt><trkpt lat="35.087386" lon="32.302492"><ele>21.0</ele><time>2015-04-25T15:50:46.0000000+00:00</time></trkpt><trkpt lat="35.0873361" lon="32.3025346"><ele>20.2</ele><time>2015-04-25T15:50:48.0000000+00:00</time></trkpt><trkpt lat="35.0872829" lon="32.3025719"><ele>20.0</ele><time>2015-04-25T15:50:50.0000000+00:00</time></trkpt><trkpt lat="35.0872314" lon="32.3026149"><ele>19.9</ele><time>2015-04-25T15:50:52.0000000+00:00</time></trkpt><trkpt lat="35.0871769" lon="32.3026552"><ele>19.9</ele><time>2015-04-25T15:50:54.0000000+00:00</time></trkpt><trkpt lat="35.0871227" lon="32.302696"><ele>20.4</ele><time>2015-04-25T15:50:56.0000000+00:00</time></trkpt><trkpt lat="35.0870691" lon="32.3027348"><ele>20.1</ele><time>2015-04-25T15:50:58.0000000+00:00</time></trkpt><trkpt lat="35.0870105" lon="32.3027794"><ele>19.5</ele><time>2015-04-25T15:51:00.0000000+00:00</time></trkpt><trkpt lat="35.0869467" lon="32.3028221"><ele>19.8</ele><time>2015-04-25T15:51:02.0000000+00:00</time></trkpt><trkpt lat="35.086883" lon="32.3028506"><ele>19.9</ele><time>2015-04-25T15:51:04.0000000+00:00</time></trkpt><trkpt lat="35.0868199" lon="32.3028818"><ele>19.9</ele><time>2015-04-25T15:51:06.0000000+00:00</time></trkpt><trkpt lat="35.0867624" lon="32.3029202"><ele>19.2</ele><time>2015-04-25T15:51:08.0000000+00:00</time></trkpt><trkpt lat="35.0867211" lon="32.3029682"><ele>19.5</ele><time>2015-04-25T15:51:10.0000000+00:00</time></trkpt><trkpt lat="35.0866858" lon="32.3030174"><ele>19.8</ele><time>2015-04-25T15:51:12.0000000+00:00</time></trkpt><trkpt lat="35.0866439" lon="32.3030709"><ele>20.4</ele><time>2015-04-25T15:51:14.0000000+00:00</time></trkpt><trkpt lat="35.0865992" lon="32.303135"><ele>20.8</ele><time>2015-04-25T15:51:16.0000000+00:00</time></trkpt><trkpt lat="35.0865565" lon="32.303199"><ele>21.1</ele><time>2015-04-25T15:51:18.0000000+00:00</time></trkpt><trkpt lat="35.0865217" lon="32.3032627"><ele>21.0</ele><time>2015-04-25T15:51:20.0000000+00:00</time></trkpt><trkpt lat="35.0864767" lon="32.3033221"><ele>20.4</ele><time>2015-04-25T15:51:22.0000000+00:00</time></trkpt><trkpt lat="35.0864237" lon="32.3033717"><ele>19.3</ele><time>2015-04-25T15:51:24.0000000+00:00</time></trkpt><trkpt lat="35.0863683" lon="32.30342"><ele>19.0</ele><time>2015-04-25T15:51:26.0000000+00:00</time></trkpt><trkpt lat="35.086305" lon="32.3034587"><ele>19.0</ele><time>2015-04-25T15:51:28.0000000+00:00</time></trkpt><trkpt lat="35.0862394" lon="32.3035018"><ele>18.4</ele><time>2015-04-25T15:51:30.0000000+00:00</time></trkpt><trkpt lat="35.0861742" lon="32.3035499"><ele>18.6</ele><time>2015-04-25T15:51:32.0000000+00:00</time></trkpt><trkpt lat="35.0861042" lon="32.3035946"><ele>20.1</ele><time>2015-04-25T15:51:34.0000000+00:00</time></trkpt><trkpt lat="35.0860335" lon="32.3036294"><ele>20.2</ele><time>2015-04-25T15:51:36.0000000+00:00</time></trkpt><trkpt lat="35.0859655" lon="32.3036663"><ele>20.0</ele><time>2015-04-25T15:51:38.0000000+00:00</time></trkpt><trkpt lat="35.0858952" lon="32.303708"><ele>19.2</ele><time>2015-04-25T15:51:40.0000000+00:00</time></trkpt><trkpt lat="35.0858172" lon="32.3037345"><ele>19.7</ele><time>2015-04-25T15:51:42.0000000+00:00</time></trkpt><trkpt lat="35.0857357" lon="32.3037549"><ele>19.9</ele><time>2015-04-25T15:51:44.0000000+00:00</time></trkpt><trkpt lat="35.0856573" lon="32.3037601"><ele>19.9</ele><time>2015-04-25T15:51:46.0000000+00:00</time></trkpt><trkpt lat="35.0855806" lon="32.3037559"><ele>19.9</ele><time>2015-04-25T15:51:48.0000000+00:00</time></trkpt><trkpt lat="35.0855034" lon="32.3037431"><ele>19.9</ele><time>2015-04-25T15:51:50.0000000+00:00</time></trkpt><trkpt lat="35.0854223" lon="32.3037478"><ele>19.9</ele><time>2015-04-25T15:51:52.0000000+00:00</time></trkpt><trkpt lat="35.0853275" lon="32.303778"><ele>19.9</ele><time>2015-04-25T15:51:54.0000000+00:00</time></trkpt><trkpt lat="35.0852506" lon="32.3037953"><ele>19.9</ele><time>2015-04-25T15:51:56.0000000+00:00</time></trkpt><trkpt lat="35.0852058" lon="32.3038081"><ele>20.4</ele><time>2015-04-25T15:51:57.0000000+00:00</time></trkpt><trkpt lat="35.0851436" lon="32.3038524"><ele>20.8</ele><time>2015-04-25T15:51:59.0000000+00:00</time></trkpt><trkpt lat="35.0850731" lon="32.3038902"><ele>20.9</ele><time>2015-04-25T15:52:01.0000000+00:00</time></trkpt><trkpt lat="35.0850095" lon="32.3039079"><ele>20.9</ele><time>2015-04-25T15:52:03.0000000+00:00</time></trkpt><trkpt lat="35.0849432" lon="32.3039178"><ele>20.2</ele><time>2015-04-25T15:52:05.0000000+00:00</time></trkpt><trkpt lat="35.0848774" lon="32.3039301"><ele>20.0</ele><time>2015-04-25T15:52:07.0000000+00:00</time></trkpt><trkpt lat="35.0848058" lon="32.3039434"><ele>19.4</ele><time>2015-04-25T15:52:09.0000000+00:00</time></trkpt><trkpt lat="35.0847366" lon="32.3039475"><ele>19.8</ele><time>2015-04-25T15:52:11.0000000+00:00</time></trkpt><trkpt lat="35.0846622" lon="32.3039472"><ele>19.6</ele><time>2015-04-25T15:52:13.0000000+00:00</time></trkpt><trkpt lat="35.0845876" lon="32.3039503"><ele>19.1</ele><time>2015-04-25T15:52:15.0000000+00:00</time></trkpt><trkpt lat="35.0845096" lon="32.303954"><ele>19.0</ele><time>2015-04-25T15:52:17.0000000+00:00</time></trkpt><trkpt lat="35.0844323" lon="32.3039568"><ele>19.7</ele><time>2015-04-25T15:52:19.0000000+00:00</time></trkpt><trkpt lat="35.084351" lon="32.3039545"><ele>19.1</ele><time>2015-04-25T15:52:21.0000000+00:00</time></trkpt><trkpt lat="35.0842695" lon="32.3039527"><ele>18.2</ele><time>2015-04-25T15:52:23.0000000+00:00</time></trkpt><trkpt lat="35.0841865" lon="32.3039632"><ele>18.0</ele><time>2015-04-25T15:52:25.0000000+00:00</time></trkpt><trkpt lat="35.0841084" lon="32.3039814"><ele>17.9</ele><time>2015-04-25T15:52:27.0000000+00:00</time></trkpt><trkpt lat="35.0840276" lon="32.3040033"><ele>18.4</ele><time>2015-04-25T15:52:29.0000000+00:00</time></trkpt><trkpt lat="35.0839503" lon="32.3040281"><ele>18.1</ele><time>2015-04-25T15:52:31.0000000+00:00</time></trkpt><trkpt lat="35.0838819" lon="32.3040595"><ele>18.7</ele><time>2015-04-25T15:52:33.0000000+00:00</time></trkpt><trkpt lat="35.0838219" lon="32.3041087"><ele>18.9</ele><time>2015-04-25T15:52:35.0000000+00:00</time></trkpt><trkpt lat="35.0837582" lon="32.3041637"><ele>18.9</ele><time>2015-04-25T15:52:37.0000000+00:00</time></trkpt><trkpt lat="35.0836896" lon="32.3042143"><ele>19.4</ele><time>2015-04-25T15:52:39.0000000+00:00</time></trkpt><trkpt lat="35.0836499" lon="32.3042547"><ele>19.2</ele><time>2015-04-25T15:52:40.0000000+00:00</time></trkpt><trkpt lat="35.0836098" lon="32.3042846"><ele>19.6</ele><time>2015-04-25T15:52:41.0000000+00:00</time></trkpt><trkpt lat="35.0835473" lon="32.3043246"><ele>19.6</ele><time>2015-04-25T15:52:43.0000000+00:00</time></trkpt><trkpt lat="35.083476" lon="32.3043786"><ele>20.6</ele><time>2015-04-25T15:52:45.0000000+00:00</time></trkpt><trkpt lat="35.0834314" lon="32.3044449"><ele>20.8</ele><time>2015-04-25T15:52:47.0000000+00:00</time></trkpt><trkpt lat="35.0833788" lon="32.3045033"><ele>21.7</ele><time>2015-04-25T15:52:49.0000000+00:00</time></trkpt><trkpt lat="35.08332" lon="32.3045584"><ele>21.9</ele><time>2015-04-25T15:52:51.0000000+00:00</time></trkpt><trkpt lat="35.08326" lon="32.3046138"><ele>21.9</ele><time>2015-04-25T15:52:53.0000000+00:00</time></trkpt><trkpt lat="35.083209" lon="32.3046784"><ele>22.7</ele><time>2015-04-25T15:52:55.0000000+00:00</time></trkpt><trkpt lat="35.0831639" lon="32.3047478"><ele>22.4</ele><time>2015-04-25T15:52:57.0000000+00:00</time></trkpt><trkpt lat="35.0831195" lon="32.3048149"><ele>22.8</ele><time>2015-04-25T15:52:59.0000000+00:00</time></trkpt><trkpt lat="35.0830719" lon="32.304883"><ele>22.9</ele><time>2015-04-25T15:53:01.0000000+00:00</time></trkpt><trkpt lat="35.0830223" lon="32.3049424"><ele>22.9</ele><time>2015-04-25T15:53:03.0000000+00:00</time></trkpt><trkpt lat="35.0829634" lon="32.3049942"><ele>21.7</ele><time>2015-04-25T15:53:05.0000000+00:00</time></trkpt><trkpt lat="35.0829005" lon="32.3050431"><ele>21.1</ele><time>2015-04-25T15:53:07.0000000+00:00</time></trkpt><trkpt lat="35.0828368" lon="32.3051044"><ele>21.7</ele><time>2015-04-25T15:53:09.0000000+00:00</time></trkpt><trkpt lat="35.0827777" lon="32.3051737"><ele>21.9</ele><time>2015-04-25T15:53:11.0000000+00:00</time></trkpt><trkpt lat="35.082704" lon="32.3052672"><ele>22.4</ele><time>2015-04-25T15:53:13.0000000+00:00</time></trkpt><trkpt lat="35.0826737" lon="32.3053116"><ele>22.7</ele><time>2015-04-25T15:53:14.0000000+00:00</time></trkpt><trkpt lat="35.0826346" lon="32.3054036"><ele>23.1</ele><time>2015-04-25T15:53:16.0000000+00:00</time></trkpt><trkpt lat="35.0826037" lon="32.3054836"><ele>23.2</ele><time>2015-04-25T15:53:18.0000000+00:00</time></trkpt><trkpt lat="35.0825612" lon="32.3055727"><ele>23.0</ele><time>2015-04-25T15:53:20.0000000+00:00</time></trkpt><trkpt lat="35.0825312" lon="32.3056159"><ele>23.5</ele><time>2015-04-25T15:53:21.0000000+00:00</time></trkpt><trkpt lat="35.0824999" lon="32.3056611"><ele>23.7</ele><time>2015-04-25T15:53:22.0000000+00:00</time></trkpt><trkpt lat="35.082455" lon="32.3057576"><ele>23.9</ele><time>2015-04-25T15:53:24.0000000+00:00</time></trkpt><trkpt lat="35.0824154" lon="32.30584"><ele>23.9</ele><time>2015-04-25T15:53:26.0000000+00:00</time></trkpt><trkpt lat="35.0823752" lon="32.3059217"><ele>23.2</ele><time>2015-04-25T15:53:28.0000000+00:00</time></trkpt><trkpt lat="35.0823202" lon="32.3060021"><ele>23.0</ele><time>2015-04-25T15:53:30.0000000+00:00</time></trkpt><trkpt lat="35.0822645" lon="32.3060754"><ele>23.7</ele><time>2015-04-25T15:53:32.0000000+00:00</time></trkpt><trkpt lat="35.0822228" lon="32.3061394"><ele>23.1</ele><time>2015-04-25T15:53:34.0000000+00:00</time></trkpt><trkpt lat="35.0821786" lon="32.3062111"><ele>23.0</ele><time>2015-04-25T15:53:36.0000000+00:00</time></trkpt><trkpt lat="35.082137" lon="32.3062745"><ele>22.2</ele><time>2015-04-25T15:53:38.0000000+00:00</time></trkpt><trkpt lat="35.0820938" lon="32.3063205"><ele>21.5</ele><time>2015-04-25T15:53:40.0000000+00:00</time></trkpt><trkpt lat="35.0820461" lon="32.3063728"><ele>21.8</ele><time>2015-04-25T15:53:42.0000000+00:00</time></trkpt><trkpt lat="35.0819902" lon="32.3064292"><ele>21.4</ele><time>2015-04-25T15:53:44.0000000+00:00</time></trkpt><trkpt lat="35.0819394" lon="32.306486"><ele>21.8</ele><time>2015-04-25T15:53:46.0000000+00:00</time></trkpt><trkpt lat="35.081888" lon="32.3065532"><ele>22.4</ele><time>2015-04-25T15:53:48.0000000+00:00</time></trkpt><trkpt lat="35.0818425" lon="32.3066352"><ele>22.0</ele><time>2015-04-25T15:53:50.0000000+00:00</time></trkpt><trkpt lat="35.0818098" lon="32.3067243"><ele>21.5</ele><time>2015-04-25T15:53:52.0000000+00:00</time></trkpt><trkpt lat="35.0817823" lon="32.306811"><ele>21.1</ele><time>2015-04-25T15:53:54.0000000+00:00</time></trkpt><trkpt lat="35.0817589" lon="32.3068909"><ele>21.5</ele><time>2015-04-25T15:53:56.0000000+00:00</time></trkpt><trkpt lat="35.0817345" lon="32.3069731"><ele>21.3</ele><time>2015-04-25T15:53:58.0000000+00:00</time></trkpt><trkpt lat="35.0817091" lon="32.3070492"><ele>21.8</ele><time>2015-04-25T15:54:00.0000000+00:00</time></trkpt><trkpt lat="35.0816597" lon="32.3071081"><ele>21.4</ele><time>2015-04-25T15:54:02.0000000+00:00</time></trkpt><trkpt lat="35.081604" lon="32.3071631"><ele>21.8</ele><time>2015-04-25T15:54:04.0000000+00:00</time></trkpt><trkpt lat="35.081555" lon="32.3072163"><ele>22.6</ele><time>2015-04-25T15:54:06.0000000+00:00</time></trkpt><trkpt lat="35.0815043" lon="32.3072628"><ele>23.4</ele><time>2015-04-25T15:54:08.0000000+00:00</time></trkpt><trkpt lat="35.0814588" lon="32.3073074"><ele>23.3</ele><time>2015-04-25T15:54:10.0000000+00:00</time></trkpt><trkpt lat="35.0814208" lon="32.3073521"><ele>23.5</ele><time>2015-04-25T15:54:12.0000000+00:00</time></trkpt><trkpt lat="35.081378" lon="32.3074076"><ele>23.9</ele><time>2015-04-25T15:54:15.0000000+00:00</time></trkpt><trkpt lat="35.0813431" lon="32.3074436"><ele>23.4</ele><time>2015-04-25T15:54:17.0000000+00:00</time></trkpt><trkpt lat="35.0813066" lon="32.3074775"><ele>23.8</ele><time>2015-04-25T15:54:19.0000000+00:00</time></trkpt><trkpt lat="35.081264" lon="32.3075124"><ele>24.4</ele><time>2015-04-25T15:54:21.0000000+00:00</time></trkpt><trkpt lat="35.0812194" lon="32.3075569"><ele>23.5</ele><time>2015-04-25T15:54:23.0000000+00:00</time></trkpt><trkpt lat="35.0811764" lon="32.3076077"><ele>23.8</ele><time>2015-04-25T15:54:25.0000000+00:00</time></trkpt><trkpt lat="35.0811396" lon="32.3076681"><ele>24.2</ele><time>2015-04-25T15:54:27.0000000+00:00</time></trkpt><trkpt lat="35.0811093" lon="32.3077392"><ele>23.2</ele><time>2015-04-25T15:54:29.0000000+00:00</time></trkpt><trkpt lat="35.0810874" lon="32.3078115"><ele>23.0</ele><time>2015-04-25T15:54:31.0000000+00:00</time></trkpt><trkpt lat="35.0810711" lon="32.3078858"><ele>22.9</ele><time>2015-04-25T15:54:33.0000000+00:00</time></trkpt><trkpt lat="35.0810524" lon="32.3079513"><ele>23.4</ele><time>2015-04-25T15:54:35.0000000+00:00</time></trkpt><trkpt lat="35.0810308" lon="32.3080223"><ele>23.1</ele><time>2015-04-25T15:54:37.0000000+00:00</time></trkpt><trkpt lat="35.0810097" lon="32.3080888"><ele>23.0</ele><time>2015-04-25T15:54:39.0000000+00:00</time></trkpt><trkpt lat="35.0809889" lon="32.3081536"><ele>22.9</ele><time>2015-04-25T15:54:41.0000000+00:00</time></trkpt><trkpt lat="35.080962" lon="32.3082157"><ele>22.9</ele><time>2015-04-25T15:54:43.0000000+00:00</time></trkpt><trkpt lat="35.0809252" lon="32.3082745"><ele>23.7</ele><time>2015-04-25T15:54:45.0000000+00:00</time></trkpt><trkpt lat="35.080878" lon="32.3083237"><ele>23.9</ele><time>2015-04-25T15:54:47.0000000+00:00</time></trkpt><trkpt lat="35.0808202" lon="32.3083605"><ele>23.9</ele><time>2015-04-25T15:54:49.0000000+00:00</time></trkpt><trkpt lat="35.0807668" lon="32.3084"><ele>24.4</ele><time>2015-04-25T15:54:51.0000000+00:00</time></trkpt><trkpt lat="35.0807048" lon="32.3084351"><ele>24.3</ele><time>2015-04-25T15:54:53.0000000+00:00</time></trkpt><trkpt lat="35.0806397" lon="32.3084466"><ele>23.5</ele><time>2015-04-25T15:54:55.0000000+00:00</time></trkpt><trkpt lat="35.0805782" lon="32.308456"><ele>23.6</ele><time>2015-04-25T15:54:57.0000000+00:00</time></trkpt><trkpt lat="35.0805248" lon="32.3084749"><ele>23.1</ele><time>2015-04-25T15:54:59.0000000+00:00</time></trkpt><trkpt lat="35.0804712" lon="32.3085004"><ele>22.5</ele><time>2015-04-25T15:55:01.0000000+00:00</time></trkpt><trkpt lat="35.0804177" lon="32.3085349"><ele>22.1</ele><time>2015-04-25T15:55:03.0000000+00:00</time></trkpt><trkpt lat="35.080356" lon="32.308581"><ele>22.0</ele><time>2015-04-25T15:55:05.0000000+00:00</time></trkpt><trkpt lat="35.0802823" lon="32.3086247"><ele>21.9</ele><time>2015-04-25T15:55:07.0000000+00:00</time></trkpt><trkpt lat="35.0802385" lon="32.308644"><ele>21.4</ele><time>2015-04-25T15:55:08.0000000+00:00</time></trkpt><trkpt lat="35.0801759" lon="32.3086588"><ele>21.2</ele><time>2015-04-25T15:55:09.0000000+00:00</time></trkpt><trkpt lat="35.0801287" lon="32.3086744"><ele>21.1</ele><time>2015-04-25T15:55:10.0000000+00:00</time></trkpt><trkpt lat="35.0800847" lon="32.3086865"><ele>21.0</ele><time>2015-04-25T15:55:11.0000000+00:00</time></trkpt><trkpt lat="35.080039" lon="32.3087029"><ele>21.5</ele><time>2015-04-25T15:55:12.0000000+00:00</time></trkpt><trkpt lat="35.0800049" lon="32.3087425"><ele>22.2</ele><time>2015-04-25T15:55:13.0000000+00:00</time></trkpt><trkpt lat="35.0799699" lon="32.3088127"><ele>22.1</ele><time>2015-04-25T15:55:14.0000000+00:00</time></trkpt><trkpt lat="35.0799368" lon="32.3088826"><ele>22.5</ele><time>2015-04-25T15:55:15.0000000+00:00</time></trkpt><trkpt lat="35.0799042" lon="32.3089485"><ele>22.7</ele><time>2015-04-25T15:55:16.0000000+00:00</time></trkpt><trkpt lat="35.079877" lon="32.309001"><ele>22.8</ele><time>2015-04-25T15:55:17.0000000+00:00</time></trkpt><trkpt lat="35.0798496" lon="32.3091089"><ele>22.9</ele><time>2015-04-25T15:55:19.0000000+00:00</time></trkpt><trkpt lat="35.0798367" lon="32.3091635"><ele>23.4</ele><time>2015-04-25T15:55:20.0000000+00:00</time></trkpt><trkpt lat="35.0798004" lon="32.309258"><ele>23.8</ele><time>2015-04-25T15:55:22.0000000+00:00</time></trkpt><trkpt lat="35.0797789" lon="32.3093494"><ele>24.4</ele><time>2015-04-25T15:55:24.0000000+00:00</time></trkpt><trkpt lat="35.0797361" lon="32.3094253"><ele>24.5</ele><time>2015-04-25T15:55:26.0000000+00:00</time></trkpt><trkpt lat="35.0796767" lon="32.3094898"><ele>25.3</ele><time>2015-04-25T15:55:28.0000000+00:00</time></trkpt><trkpt lat="35.0796224" lon="32.3095515"><ele>26.3</ele><time>2015-04-25T15:55:30.0000000+00:00</time></trkpt><trkpt lat="35.0795824" lon="32.3096154"><ele>26.8</ele><time>2015-04-25T15:55:32.0000000+00:00</time></trkpt><trkpt lat="35.0795483" lon="32.3096695"><ele>26.9</ele><time>2015-04-25T15:55:34.0000000+00:00</time></trkpt><trkpt lat="35.0795201" lon="32.3097266"><ele>27.7</ele><time>2015-04-25T15:55:36.0000000+00:00</time></trkpt><trkpt lat="35.0795039" lon="32.3097892"><ele>26.9</ele><time>2015-04-25T15:55:38.0000000+00:00</time></trkpt><trkpt lat="35.0794776" lon="32.3098429"><ele>26.7</ele><time>2015-04-25T15:55:40.0000000+00:00</time></trkpt><trkpt lat="35.0794463" lon="32.3099008"><ele>26.1</ele><time>2015-04-25T15:55:42.0000000+00:00</time></trkpt><trkpt lat="35.07941" lon="32.3099666"><ele>26.7</ele><time>2015-04-25T15:55:44.0000000+00:00</time></trkpt><trkpt lat="35.079364" lon="32.3100356"><ele>25.6</ele><time>2015-04-25T15:55:46.0000000+00:00</time></trkpt><trkpt lat="35.0793121" lon="32.3101067"><ele>25.4</ele><time>2015-04-25T15:55:48.0000000+00:00</time></trkpt><trkpt lat="35.0792252" lon="32.3101942"><ele>25.3</ele><time>2015-04-25T15:55:50.0000000+00:00</time></trkpt><trkpt lat="35.0791582" lon="32.3102713"><ele>24.5</ele><time>2015-04-25T15:55:52.0000000+00:00</time></trkpt><trkpt lat="35.0790797" lon="32.3103309"><ele>24.1</ele><time>2015-04-25T15:55:54.0000000+00:00</time></trkpt><trkpt lat="35.0790156" lon="32.3103916"><ele>23.5</ele><time>2015-04-25T15:55:56.0000000+00:00</time></trkpt><trkpt lat="35.0789498" lon="32.3104374"><ele>23.8</ele><time>2015-04-25T15:55:58.0000000+00:00</time></trkpt><trkpt lat="35.0788781" lon="32.3104765"><ele>24.7</ele><time>2015-04-25T15:56:00.0000000+00:00</time></trkpt><trkpt lat="35.0788172" lon="32.3105254"><ele>25.4</ele><time>2015-04-25T15:56:02.0000000+00:00</time></trkpt><trkpt lat="35.0787509" lon="32.3105777"><ele>25.0</ele><time>2015-04-25T15:56:04.0000000+00:00</time></trkpt><trkpt lat="35.0786908" lon="32.3106431"><ele>25.0</ele><time>2015-04-25T15:56:06.0000000+00:00</time></trkpt><trkpt lat="35.0786339" lon="32.3107183"><ele>25.4</ele><time>2015-04-25T15:56:08.0000000+00:00</time></trkpt><trkpt lat="35.0786079" lon="32.3107687"><ele>25.7</ele><time>2015-04-25T15:56:09.0000000+00:00</time></trkpt><trkpt lat="35.0785674" lon="32.3108362"><ele>24.4</ele><time>2015-04-25T15:56:11.0000000+00:00</time></trkpt><trkpt lat="35.0785376" lon="32.3108824"><ele>24.1</ele><time>2015-04-25T15:56:12.0000000+00:00</time></trkpt><trkpt lat="35.0785107" lon="32.3109268"><ele>24.0</ele><time>2015-04-25T15:56:13.0000000+00:00</time></trkpt><trkpt lat="35.0784571" lon="32.3110131"><ele>24.7</ele><time>2015-04-25T15:56:15.0000000+00:00</time></trkpt><trkpt lat="35.0784326" lon="32.3110596"><ele>24.8</ele><time>2015-04-25T15:56:16.0000000+00:00</time></trkpt><trkpt lat="35.0783884" lon="32.3111344"><ele>24.2</ele><time>2015-04-25T15:56:18.0000000+00:00</time></trkpt><trkpt lat="35.0783493" lon="32.311215"><ele>24.0</ele><time>2015-04-25T15:56:20.0000000+00:00</time></trkpt><trkpt lat="35.0783045" lon="32.3113094"><ele>23.9</ele><time>2015-04-25T15:56:22.0000000+00:00</time></trkpt><trkpt lat="35.078254" lon="32.3113972"><ele>23.9</ele><time>2015-04-25T15:56:24.0000000+00:00</time></trkpt><trkpt lat="35.0782072" lon="32.311482"><ele>24.7</ele><time>2015-04-25T15:56:26.0000000+00:00</time></trkpt><trkpt lat="35.0781562" lon="32.3115631"><ele>24.9</ele><time>2015-04-25T15:56:28.0000000+00:00</time></trkpt><trkpt lat="35.0781049" lon="32.3116366"><ele>24.4</ele><time>2015-04-25T15:56:30.0000000+00:00</time></trkpt><trkpt lat="35.0780574" lon="32.3117094"><ele>24.8</ele><time>2015-04-25T15:56:32.0000000+00:00</time></trkpt><trkpt lat="35.0780116" lon="32.3117831"><ele>25.4</ele><time>2015-04-25T15:56:34.0000000+00:00</time></trkpt><trkpt lat="35.0779639" lon="32.3118622"><ele>25.0</ele><time>2015-04-25T15:56:36.0000000+00:00</time></trkpt><trkpt lat="35.0779199" lon="32.3119319"><ele>25.0</ele><time>2015-04-25T15:56:38.0000000+00:00</time></trkpt><trkpt lat="35.0778744" lon="32.3120119"><ele>25.7</ele><time>2015-04-25T15:56:40.0000000+00:00</time></trkpt><trkpt lat="35.0778327" lon="32.3121034"><ele>25.9</ele><time>2015-04-25T15:56:42.0000000+00:00</time></trkpt><trkpt lat="35.0777865" lon="32.3121894"><ele>25.7</ele><time>2015-04-25T15:56:44.0000000+00:00</time></trkpt><trkpt lat="35.0777393" lon="32.3122665"><ele>25.4</ele><time>2015-04-25T15:56:46.0000000+00:00</time></trkpt><trkpt lat="35.0776894" lon="32.3123526"><ele>25.8</ele><time>2015-04-25T15:56:48.0000000+00:00</time></trkpt><trkpt lat="35.0776395" lon="32.3124361"><ele>26.4</ele><time>2015-04-25T15:56:50.0000000+00:00</time></trkpt><trkpt lat="35.0775902" lon="32.31252"><ele>27.3</ele><time>2015-04-25T15:56:52.0000000+00:00</time></trkpt><trkpt lat="35.077539" lon="32.3125988"><ele>27.5</ele><time>2015-04-25T15:56:54.0000000+00:00</time></trkpt><trkpt lat="35.0774898" lon="32.3126744"><ele>27.3</ele><time>2015-04-25T15:56:56.0000000+00:00</time></trkpt><trkpt lat="35.0774466" lon="32.3127502"><ele>27.0</ele><time>2015-04-25T15:56:58.0000000+00:00</time></trkpt><trkpt lat="35.0774072" lon="32.3128253"><ele>26.2</ele><time>2015-04-25T15:57:00.0000000+00:00</time></trkpt><trkpt lat="35.0773687" lon="32.3129003"><ele>26.0</ele><time>2015-04-25T15:57:02.0000000+00:00</time></trkpt><trkpt lat="35.0773259" lon="32.3129697"><ele>26.7</ele><time>2015-04-25T15:57:04.0000000+00:00</time></trkpt><trkpt lat="35.0772842" lon="32.3130342"><ele>26.6</ele><time>2015-04-25T15:57:06.0000000+00:00</time></trkpt><trkpt lat="35.0772377" lon="32.3130977"><ele>26.9</ele><time>2015-04-25T15:57:08.0000000+00:00</time></trkpt><trkpt lat="35.0771925" lon="32.3131627"><ele>26.4</ele><time>2015-04-25T15:57:10.0000000+00:00</time></trkpt><trkpt lat="35.0771482" lon="32.3132261"><ele>26.1</ele><time>2015-04-25T15:57:12.0000000+00:00</time></trkpt><trkpt lat="35.0770972" lon="32.3132905"><ele>26.0</ele><time>2015-04-25T15:57:14.0000000+00:00</time></trkpt><trkpt lat="35.0770364" lon="32.3133547"><ele>25.7</ele><time>2015-04-25T15:57:16.0000000+00:00</time></trkpt><trkpt lat="35.076987" lon="32.3134012"><ele>25.8</ele><time>2015-04-25T15:57:17.0000000+00:00</time></trkpt><trkpt lat="35.0769463" lon="32.313439"><ele>25.4</ele><time>2015-04-25T15:57:18.0000000+00:00</time></trkpt><trkpt lat="35.0769048" lon="32.3134764"><ele>25.1</ele><time>2015-04-25T15:57:19.0000000+00:00</time></trkpt><trkpt lat="35.0768668" lon="32.3135101"><ele>25.0</ele><time>2015-04-25T15:57:20.0000000+00:00</time></trkpt><trkpt lat="35.0768251" lon="32.313547"><ele>25.0</ele><time>2015-04-25T15:57:21.0000000+00:00</time></trkpt><trkpt lat="35.0767867" lon="32.3135891"><ele>25.0</ele><time>2015-04-25T15:57:22.0000000+00:00</time></trkpt><trkpt lat="35.0767442" lon="32.3136268"><ele>24.9</ele><time>2015-04-25T15:57:23.0000000+00:00</time></trkpt><trkpt lat="35.0767097" lon="32.313663"><ele>24.9</ele><time>2015-04-25T15:57:24.0000000+00:00</time></trkpt><trkpt lat="35.076644" lon="32.3137219"><ele>24.4</ele><time>2015-04-25T15:57:26.0000000+00:00</time></trkpt><trkpt lat="35.0765968" lon="32.313784"><ele>24.3</ele><time>2015-04-25T15:57:28.0000000+00:00</time></trkpt><trkpt lat="35.0765511" lon="32.3138489"><ele>24.0</ele><time>2015-04-25T15:57:30.0000000+00:00</time></trkpt><trkpt lat="35.0765008" lon="32.3139081"><ele>23.5</ele><time>2015-04-25T15:57:32.0000000+00:00</time></trkpt><trkpt lat="35.0764494" lon="32.3139648"><ele>22.3</ele><time>2015-04-25T15:57:34.0000000+00:00</time></trkpt><trkpt lat="35.0763957" lon="32.314016"><ele>21.5</ele><time>2015-04-25T15:57:36.0000000+00:00</time></trkpt><trkpt lat="35.0763318" lon="32.3140739"><ele>21.1</ele><time>2015-04-25T15:57:38.0000000+00:00</time></trkpt><trkpt lat="35.0762817" lon="32.3141042"><ele>21.0</ele><time>2015-04-25T15:57:39.0000000+00:00</time></trkpt><trkpt lat="35.0762442" lon="32.3141374"><ele>21.5</ele><time>2015-04-25T15:57:40.0000000+00:00</time></trkpt><trkpt lat="35.0762095" lon="32.3141762"><ele>21.7</ele><time>2015-04-25T15:57:41.0000000+00:00</time></trkpt><trkpt lat="35.0761734" lon="32.314212"><ele>21.8</ele><time>2015-04-25T15:57:42.0000000+00:00</time></trkpt><trkpt lat="35.0761325" lon="32.314249"><ele>22.4</ele><time>2015-04-25T15:57:43.0000000+00:00</time></trkpt><trkpt lat="35.0760985" lon="32.3142894"><ele>22.2</ele><time>2015-04-25T15:57:44.0000000+00:00</time></trkpt><trkpt lat="35.0760618" lon="32.3143283"><ele>22.5</ele><time>2015-04-25T15:57:45.0000000+00:00</time></trkpt><trkpt lat="35.0760045" lon="32.3143935"><ele>22.8</ele><time>2015-04-25T15:57:47.0000000+00:00</time></trkpt><trkpt lat="35.0759531" lon="32.3144704"><ele>22.4</ele><time>2015-04-25T15:57:49.0000000+00:00</time></trkpt><trkpt lat="35.0759104" lon="32.314536"><ele>22.0</ele><time>2015-04-25T15:57:51.0000000+00:00</time></trkpt><trkpt lat="35.0758622" lon="32.314609"><ele>22.2</ele><time>2015-04-25T15:57:53.0000000+00:00</time></trkpt><trkpt lat="35.0758238" lon="32.3146903"><ele>22.5</ele><time>2015-04-25T15:57:55.0000000+00:00</time></trkpt><trkpt lat="35.0757737" lon="32.3147682"><ele>22.8</ele><time>2015-04-25T15:57:57.0000000+00:00</time></trkpt><trkpt lat="35.0757199" lon="32.3148369"><ele>22.9</ele><time>2015-04-25T15:57:59.0000000+00:00</time></trkpt><trkpt lat="35.0756623" lon="32.3149036"><ele>22.2</ele><time>2015-04-25T15:58:01.0000000+00:00</time></trkpt><trkpt lat="35.0756028" lon="32.314962"><ele>21.2</ele><time>2015-04-25T15:58:03.0000000+00:00</time></trkpt><trkpt lat="35.0755424" lon="32.3150307"><ele>21.3</ele><time>2015-04-25T15:58:05.0000000+00:00</time></trkpt><trkpt lat="35.075482" lon="32.3150978"><ele>21.8</ele><time>2015-04-25T15:58:07.0000000+00:00</time></trkpt><trkpt lat="35.0754176" lon="32.3151579"><ele>21.9</ele><time>2015-04-25T15:58:09.0000000+00:00</time></trkpt><trkpt lat="35.0753575" lon="32.3152207"><ele>23.2</ele><time>2015-04-25T15:58:11.0000000+00:00</time></trkpt><trkpt lat="35.0752984" lon="32.3152832"><ele>23.2</ele><time>2015-04-25T15:58:13.0000000+00:00</time></trkpt><trkpt lat="35.0752414" lon="32.3153369"><ele>23.0</ele><time>2015-04-25T15:58:15.0000000+00:00</time></trkpt><trkpt lat="35.0751819" lon="32.3153898"><ele>22.9</ele><time>2015-04-25T15:58:17.0000000+00:00</time></trkpt><trkpt lat="35.0751202" lon="32.3154414"><ele>22.9</ele><time>2015-04-25T15:58:19.0000000+00:00</time></trkpt><trkpt lat="35.0750514" lon="32.3154942"><ele>22.2</ele><time>2015-04-25T15:58:21.0000000+00:00</time></trkpt><trkpt lat="35.0749828" lon="32.3155485"><ele>22.5</ele><time>2015-04-25T15:58:23.0000000+00:00</time></trkpt><trkpt lat="35.0749162" lon="32.3156031"><ele>22.8</ele><time>2015-04-25T15:58:25.0000000+00:00</time></trkpt><trkpt lat="35.074862" lon="32.3156584"><ele>22.2</ele><time>2015-04-25T15:58:27.0000000+00:00</time></trkpt><trkpt lat="35.0748093" lon="32.3157143"><ele>21.7</ele><time>2015-04-25T15:58:29.0000000+00:00</time></trkpt><trkpt lat="35.0747562" lon="32.3157641"><ele>21.1</ele><time>2015-04-25T15:58:31.0000000+00:00</time></trkpt><trkpt lat="35.0747149" lon="32.3158273"><ele>21.5</ele><time>2015-04-25T15:58:33.0000000+00:00</time></trkpt><trkpt lat="35.074682" lon="32.315899"><ele>21.6</ele><time>2015-04-25T15:58:35.0000000+00:00</time></trkpt><trkpt lat="35.0746513" lon="32.3159725"><ele>21.8</ele><time>2015-04-25T15:58:37.0000000+00:00</time></trkpt><trkpt lat="35.0746217" lon="32.3160486"><ele>21.9</ele><time>2015-04-25T15:58:39.0000000+00:00</time></trkpt><trkpt lat="35.0745898" lon="32.3161275"><ele>21.2</ele><time>2015-04-25T15:58:41.0000000+00:00</time></trkpt><trkpt lat="35.0745628" lon="32.3162077"><ele>21.0</ele><time>2015-04-25T15:58:43.0000000+00:00</time></trkpt><trkpt lat="35.074534" lon="32.3162972"><ele>20.9</ele><time>2015-04-25T15:58:45.0000000+00:00</time></trkpt><trkpt lat="35.0745219" lon="32.3163623"><ele>20.4</ele><time>2015-04-25T15:58:46.0000000+00:00</time></trkpt><trkpt lat="35.0744998" lon="32.3164683"><ele>19.3</ele><time>2015-04-25T15:58:48.0000000+00:00</time></trkpt><trkpt lat="35.0744838" lon="32.3165748"><ele>19.0</ele><time>2015-04-25T15:58:50.0000000+00:00</time></trkpt><trkpt lat="35.074463" lon="32.316662"><ele>19.0</ele><time>2015-04-25T15:58:52.0000000+00:00</time></trkpt><trkpt lat="35.0744536" lon="32.3167537"><ele>18.7</ele><time>2015-04-25T15:58:54.0000000+00:00</time></trkpt><trkpt lat="35.0744552" lon="32.3168502"><ele>17.6</ele><time>2015-04-25T15:58:56.0000000+00:00</time></trkpt><trkpt lat="35.0744601" lon="32.3169451"><ele>17.1</ele><time>2015-04-25T15:58:58.0000000+00:00</time></trkpt><trkpt lat="35.0744685" lon="32.317033"><ele>17.0</ele><time>2015-04-25T15:59:00.0000000+00:00</time></trkpt><trkpt lat="35.0744805" lon="32.317112"><ele>17.4</ele><time>2015-04-25T15:59:02.0000000+00:00</time></trkpt><trkpt lat="35.0744873" lon="32.3171911"><ele>17.1</ele><time>2015-04-25T15:59:04.0000000+00:00</time></trkpt><trkpt lat="35.0744894" lon="32.3172732"><ele>16.2</ele><time>2015-04-25T15:59:06.0000000+00:00</time></trkpt><trkpt lat="35.0744897" lon="32.3173632"><ele>16.0</ele><time>2015-04-25T15:59:08.0000000+00:00</time></trkpt><trkpt lat="35.0744725" lon="32.3174496"><ele>15.7</ele><time>2015-04-25T15:59:10.0000000+00:00</time></trkpt><trkpt lat="35.0744358" lon="32.3175285"><ele>15.9</ele><time>2015-04-25T15:59:12.0000000+00:00</time></trkpt><trkpt lat="35.0743982" lon="32.3176075"><ele>16.7</ele><time>2015-04-25T15:59:14.0000000+00:00</time></trkpt><trkpt lat="35.0743652" lon="32.3176963"><ele>18.1</ele><time>2015-04-25T15:59:16.0000000+00:00</time></trkpt><trkpt lat="35.0743368" lon="32.3177865"><ele>18.5</ele><time>2015-04-25T15:59:17.0000000+00:00</time></trkpt><trkpt lat="35.0743132" lon="32.3178471"><ele>19.2</ele><time>2015-04-25T15:59:18.0000000+00:00</time></trkpt><trkpt lat="35.0743017" lon="32.3179051"><ele>19.1</ele><time>2015-04-25T15:59:19.0000000+00:00</time></trkpt><trkpt lat="35.0742757" lon="32.3179971"><ele>19.0</ele><time>2015-04-25T15:59:21.0000000+00:00</time></trkpt><trkpt lat="35.0742614" lon="32.3180531"><ele>20.2</ele><time>2015-04-25T15:59:23.0000000+00:00</time></trkpt><trkpt lat="35.074275" lon="32.318116"><ele>19.7</ele><time>2015-04-25T15:59:26.0000000+00:00</time></trkpt><trkpt lat="35.0742737" lon="32.3181802"><ele>22.0</ele><time>2015-04-25T15:59:29.0000000+00:00</time></trkpt><trkpt lat="35.0742739" lon="32.3182376"><ele>22.7</ele><time>2015-04-25T15:59:31.0000000+00:00</time></trkpt><trkpt lat="35.0742672" lon="32.318299"><ele>23.6</ele><time>2015-04-25T15:59:33.0000000+00:00</time></trkpt><trkpt lat="35.0742508" lon="32.3183553"><ele>23.9</ele><time>2015-04-25T15:59:35.0000000+00:00</time></trkpt><trkpt lat="35.0742316" lon="32.3184068"><ele>23.9</ele><time>2015-04-25T15:59:37.0000000+00:00</time></trkpt><trkpt lat="35.0742002" lon="32.3184728"><ele>23.9</ele><time>2015-04-25T15:59:40.0000000+00:00</time></trkpt><trkpt lat="35.0741735" lon="32.3185305"><ele>24.1</ele><time>2015-04-25T15:59:43.0000000+00:00</time></trkpt><trkpt lat="35.0741569" lon="32.3185826"><ele>24.1</ele><time>2015-04-25T15:59:46.0000000+00:00</time></trkpt><trkpt lat="35.0741284" lon="32.3186454"><ele>24.1</ele><time>2015-04-25T15:59:50.0000000+00:00</time></trkpt><trkpt lat="35.0741091" lon="32.318712"><ele>24.2</ele><time>2015-04-25T15:59:54.0000000+00:00</time></trkpt><trkpt lat="35.0741037" lon="32.3187799"><ele>23.4</ele><time>2015-04-25T15:59:58.0000000+00:00</time></trkpt><trkpt lat="35.0740817" lon="32.3188375"><ele>22.2</ele><time>2015-04-25T16:00:01.0000000+00:00</time></trkpt><trkpt lat="35.0740464" lon="32.3189041"><ele>21.1</ele><time>2015-04-25T16:00:04.0000000+00:00</time></trkpt><trkpt lat="35.074" lon="32.3189458"><ele>20.7</ele><time>2015-04-25T16:00:06.0000000+00:00</time></trkpt><trkpt lat="35.0739496" lon="32.3189826"><ele>20.4</ele><time>2015-04-25T16:00:08.0000000+00:00</time></trkpt><trkpt lat="35.0739007" lon="32.319022"><ele>20.0</ele><time>2015-04-25T16:00:10.0000000+00:00</time></trkpt><trkpt lat="35.0738525" lon="32.3190744"><ele>19.5</ele><time>2015-04-25T16:00:12.0000000+00:00</time></trkpt><trkpt lat="35.0738314" lon="32.3192022"><ele>18.6</ele><time>2015-04-25T16:00:14.0000000+00:00</time></trkpt><trkpt lat="35.073801" lon="32.3193032"><ele>18.1</ele><time>2015-04-25T16:00:16.0000000+00:00</time></trkpt><trkpt lat="35.0737712" lon="32.3193453"><ele>17.5</ele><time>2015-04-25T16:00:17.0000000+00:00</time></trkpt><trkpt lat="35.0737332" lon="32.3193896"><ele>17.7</ele><time>2015-04-25T16:00:18.0000000+00:00</time></trkpt><trkpt lat="35.073691" lon="32.319424"><ele>17.8</ele><time>2015-04-25T16:00:19.0000000+00:00</time></trkpt><trkpt lat="35.0736393" lon="32.3194602"><ele>17.4</ele><time>2015-04-25T16:00:20.0000000+00:00</time></trkpt><trkpt lat="35.0735874" lon="32.3194931"><ele>17.2</ele><time>2015-04-25T16:00:21.0000000+00:00</time></trkpt><trkpt lat="35.073533" lon="32.3195257"><ele>16.0</ele><time>2015-04-25T16:00:22.0000000+00:00</time></trkpt><trkpt lat="35.07348" lon="32.3195578"><ele>15.0</ele><time>2015-04-25T16:00:23.0000000+00:00</time></trkpt><trkpt lat="35.0734267" lon="32.3195893"><ele>14.5</ele><time>2015-04-25T16:00:24.0000000+00:00</time></trkpt><trkpt lat="35.0733826" lon="32.3196215"><ele>14.2</ele><time>2015-04-25T16:00:25.0000000+00:00</time></trkpt><trkpt lat="35.0733469" lon="32.31967"><ele>14.1</ele><time>2015-04-25T16:00:26.0000000+00:00</time></trkpt><trkpt lat="35.0733018" lon="32.3197562"><ele>14.0</ele><time>2015-04-25T16:00:28.0000000+00:00</time></trkpt><trkpt lat="35.0732651" lon="32.3198539"><ele>13.2</ele><time>2015-04-25T16:00:30.0000000+00:00</time></trkpt><trkpt lat="35.0732366" lon="32.3199297"><ele>13.7</ele><time>2015-04-25T16:00:32.0000000+00:00</time></trkpt><trkpt lat="35.0731834" lon="32.3200026"><ele>13.9</ele><time>2015-04-25T16:00:34.0000000+00:00</time></trkpt><trkpt lat="35.0731061" lon="32.3200668"><ele>14.7</ele><time>2015-04-25T16:00:36.0000000+00:00</time></trkpt><trkpt lat="35.0730747" lon="32.3201107"><ele>15.3</ele><time>2015-04-25T16:00:37.0000000+00:00</time></trkpt><trkpt lat="35.0730513" lon="32.3201581"><ele>15.6</ele><time>2015-04-25T16:00:38.0000000+00:00</time></trkpt><trkpt lat="35.073045" lon="32.3202204"><ele>15.8</ele><time>2015-04-25T16:00:39.0000000+00:00</time></trkpt><trkpt lat="35.0730415" lon="32.3202764"><ele>15.9</ele><time>2015-04-25T16:00:40.0000000+00:00</time></trkpt><trkpt lat="35.0730416" lon="32.3203684"><ele>16.7</ele><time>2015-04-25T16:00:42.0000000+00:00</time></trkpt><trkpt lat="35.0730451" lon="32.3204319"><ele>17.3</ele><time>2015-04-25T16:00:43.0000000+00:00</time></trkpt><trkpt lat="35.0730507" lon="32.3205028"><ele>17.6</ele><time>2015-04-25T16:00:44.0000000+00:00</time></trkpt><trkpt lat="35.0730336" lon="32.3205987"><ele>18.6</ele><time>2015-04-25T16:00:46.0000000+00:00</time></trkpt><trkpt lat="35.073025" lon="32.3206552"><ele>18.6</ele><time>2015-04-25T16:00:48.0000000+00:00</time></trkpt><trkpt lat="35.0730577" lon="32.3207128"><ele>18.1</ele><time>2015-04-25T16:00:51.0000000+00:00</time></trkpt><trkpt lat="35.073104" lon="32.320758"><ele>17.7</ele><time>2015-04-25T16:00:54.0000000+00:00</time></trkpt><trkpt lat="35.0731513" lon="32.3207801"><ele>18.3</ele><time>2015-04-25T16:00:57.0000000+00:00</time></trkpt><trkpt lat="35.0731078" lon="32.3207658"><ele>19.0</ele><time>2015-04-25T16:05:27.0000000+00:00</time></trkpt><trkpt lat="35.0730733" lon="32.3207165"><ele>20.8</ele><time>2015-04-25T16:05:43.0000000+00:00</time></trkpt><trkpt lat="35.0730134" lon="32.3207019"><ele>19.2</ele><time>2015-04-25T16:05:46.0000000+00:00</time></trkpt><trkpt lat="35.0729579" lon="32.3207216"><ele>19.8</ele><time>2015-04-25T16:05:49.0000000+00:00</time></trkpt><trkpt lat="35.0729135" lon="32.3207638"><ele>20.7</ele><time>2015-04-25T16:05:58.0000000+00:00</time></trkpt><trkpt lat="35.0728592" lon="32.3208198"><ele>21.6</ele><time>2015-04-25T16:06:01.0000000+00:00</time></trkpt><trkpt lat="35.0728165" lon="32.3208607"><ele>21.4</ele><time>2015-04-25T16:06:03.0000000+00:00</time></trkpt><trkpt lat="35.0727701" lon="32.3209006"><ele>21.0</ele><time>2015-04-25T16:06:05.0000000+00:00</time></trkpt><trkpt lat="35.0727262" lon="32.3209329"><ele>21.0</ele><time>2015-04-25T16:06:07.0000000+00:00</time></trkpt><trkpt lat="35.0726799" lon="32.320954"><ele>21.2</ele><time>2015-04-25T16:06:09.0000000+00:00</time></trkpt><trkpt lat="35.0726355" lon="32.3209668"><ele>21.7</ele><time>2015-04-25T16:06:11.0000000+00:00</time></trkpt><trkpt lat="35.0725836" lon="32.3209821"><ele>22.1</ele><time>2015-04-25T16:06:13.0000000+00:00</time></trkpt><trkpt lat="35.0725378" lon="32.3209888"><ele>22.5</ele><time>2015-04-25T16:06:15.0000000+00:00</time></trkpt><trkpt lat="35.0724763" lon="32.3209984"><ele>22.6</ele><time>2015-04-25T16:06:18.0000000+00:00</time></trkpt><trkpt lat="35.0724179" lon="32.3210173"><ele>22.5</ele><time>2015-04-25T16:06:21.0000000+00:00</time></trkpt><trkpt lat="35.072357" lon="32.3210527"><ele>23.1</ele><time>2015-04-25T16:06:24.0000000+00:00</time></trkpt><trkpt lat="35.072314" lon="32.3210714"><ele>23.7</ele><time>2015-04-25T16:06:26.0000000+00:00</time></trkpt><trkpt lat="35.0722688" lon="32.3210842"><ele>24.6</ele><time>2015-04-25T16:06:28.0000000+00:00</time></trkpt><trkpt lat="35.0722225" lon="32.3211012"><ele>25.4</ele><time>2015-04-25T16:06:30.0000000+00:00</time></trkpt><trkpt lat="35.0721776" lon="32.3211241"><ele>25.8</ele><time>2015-04-25T16:06:32.0000000+00:00</time></trkpt><trkpt lat="35.0721335" lon="32.3211445"><ele>25.9</ele><time>2015-04-25T16:06:34.0000000+00:00</time></trkpt><trkpt lat="35.0720888" lon="32.3211591"><ele>25.9</ele><time>2015-04-25T16:06:36.0000000+00:00</time></trkpt><trkpt lat="35.0720436" lon="32.3211625"><ele>26.4</ele><time>2015-04-25T16:06:38.0000000+00:00</time></trkpt><trkpt lat="35.0719972" lon="32.3211653"><ele>26.1</ele><time>2015-04-25T16:06:40.0000000+00:00</time></trkpt><trkpt lat="35.0719338" lon="32.3211619"><ele>25.9</ele><time>2015-04-25T16:06:43.0000000+00:00</time></trkpt><trkpt lat="35.0718737" lon="32.3211628"><ele>26.7</ele><time>2015-04-25T16:06:46.0000000+00:00</time></trkpt><trkpt lat="35.0718133" lon="32.3211564"><ele>26.9</ele><time>2015-04-25T16:06:49.0000000+00:00</time></trkpt><trkpt lat="35.0717552" lon="32.3211464"><ele>26.9</ele><time>2015-04-25T16:06:52.0000000+00:00</time></trkpt><trkpt lat="35.0716984" lon="32.3211458"><ele>26.9</ele><time>2015-04-25T16:06:55.0000000+00:00</time></trkpt><trkpt lat="35.0716404" lon="32.3211388"><ele>26.9</ele><time>2015-04-25T16:06:58.0000000+00:00</time></trkpt><trkpt lat="35.0715871" lon="32.3211325"><ele>26.9</ele><time>2015-04-25T16:07:01.0000000+00:00</time></trkpt><trkpt lat="35.0715398" lon="32.3211071"><ele>27.0</ele><time>2015-04-25T16:07:05.0000000+00:00</time></trkpt><trkpt lat="35.0714917" lon="32.321074"><ele>27.8</ele><time>2015-04-25T16:07:09.0000000+00:00</time></trkpt><trkpt lat="35.0714573" lon="32.3210382"><ele>28.7</ele><time>2015-04-25T16:07:12.0000000+00:00</time></trkpt><trkpt lat="35.0714182" lon="32.3209999"><ele>29.8</ele><time>2015-04-25T16:07:15.0000000+00:00</time></trkpt><trkpt lat="35.0713757" lon="32.3209516"><ele>29.9</ele><time>2015-04-25T16:07:18.0000000+00:00</time></trkpt><trkpt lat="35.0713395" lon="32.3208987"><ele>30.4</ele><time>2015-04-25T16:07:21.0000000+00:00</time></trkpt><trkpt lat="35.071309" lon="32.3208441"><ele>30.9</ele><time>2015-04-25T16:07:24.0000000+00:00</time></trkpt><trkpt lat="35.0712824" lon="32.3207834"><ele>31.7</ele><time>2015-04-25T16:07:28.0000000+00:00</time></trkpt><trkpt lat="35.0712535" lon="32.3207391"><ele>31.9</ele><time>2015-04-25T16:07:31.0000000+00:00</time></trkpt><trkpt lat="35.0712302" lon="32.3206897"><ele>32.7</ele><time>2015-04-25T16:07:34.0000000+00:00</time></trkpt><trkpt lat="35.0711918" lon="32.3206382"><ele>33.8</ele><time>2015-04-25T16:07:38.0000000+00:00</time></trkpt><trkpt lat="35.0711483" lon="32.3206101"><ele>34.0</ele><time>2015-04-25T16:07:42.0000000+00:00</time></trkpt><trkpt lat="35.0710934" lon="32.3206233"><ele>34.4</ele><time>2015-04-25T16:07:46.0000000+00:00</time></trkpt><trkpt lat="35.071038" lon="32.3206462"><ele>34.0</ele><time>2015-04-25T16:07:49.0000000+00:00</time></trkpt><trkpt lat="35.070989" lon="32.320671"><ele>34.7</ele><time>2015-04-25T16:07:52.0000000+00:00</time></trkpt><trkpt lat="35.0709375" lon="32.3207069"><ele>34.1</ele><time>2015-04-25T16:07:56.0000000+00:00</time></trkpt><trkpt lat="35.0708981" lon="32.3207527"><ele>34.0</ele><time>2015-04-25T16:07:59.0000000+00:00</time></trkpt><trkpt lat="35.0708502" lon="32.3208005"><ele>33.2</ele><time>2015-04-25T16:08:02.0000000+00:00</time></trkpt><trkpt lat="35.070807" lon="32.3208659"><ele>33.0</ele><time>2015-04-25T16:08:05.0000000+00:00</time></trkpt><trkpt lat="35.0707612" lon="32.3209232"><ele>33.1</ele><time>2015-04-25T16:08:08.0000000+00:00</time></trkpt><trkpt lat="35.0707308" lon="32.3209688"><ele>33.0</ele><time>2015-04-25T16:08:10.0000000+00:00</time></trkpt><trkpt lat="35.0707009" lon="32.3210194"><ele>32.9</ele><time>2015-04-25T16:08:12.0000000+00:00</time></trkpt><trkpt lat="35.0706744" lon="32.3210734"><ele>32.4</ele><time>2015-04-25T16:08:14.0000000+00:00</time></trkpt><trkpt lat="35.0706533" lon="32.3211281"><ele>32.8</ele><time>2015-04-25T16:08:16.0000000+00:00</time></trkpt><trkpt lat="35.0706237" lon="32.3211722"><ele>32.9</ele><time>2015-04-25T16:08:18.0000000+00:00</time></trkpt><trkpt lat="35.0705724" lon="32.3212281"><ele>32.4</ele><time>2015-04-25T16:08:21.0000000+00:00</time></trkpt><trkpt lat="35.070534" lon="32.3212614"><ele>32.1</ele><time>2015-04-25T16:08:23.0000000+00:00</time></trkpt><trkpt lat="35.0704754" lon="32.3213078"><ele>32.0</ele><time>2015-04-25T16:08:25.0000000+00:00</time></trkpt><trkpt lat="35.0704133" lon="32.3213492"><ele>31.9</ele><time>2015-04-25T16:08:27.0000000+00:00</time></trkpt><trkpt lat="35.0703518" lon="32.3214011"><ele>31.4</ele><time>2015-04-25T16:08:29.0000000+00:00</time></trkpt><trkpt lat="35.070313" lon="32.3214637"><ele>31.6</ele><time>2015-04-25T16:08:31.0000000+00:00</time></trkpt><trkpt lat="35.0702923" lon="32.3215307"><ele>32.3</ele><time>2015-04-25T16:08:33.0000000+00:00</time></trkpt><trkpt lat="35.0702886" lon="32.321612"><ele>32.8</ele><time>2015-04-25T16:08:35.0000000+00:00</time></trkpt><trkpt lat="35.0702945" lon="32.3217001"><ele>33.6</ele><time>2015-04-25T16:08:37.0000000+00:00</time></trkpt><trkpt lat="35.0703138" lon="32.3217807"><ele>35.1</ele><time>2015-04-25T16:08:39.0000000+00:00</time></trkpt><trkpt lat="35.0703217" lon="32.321858"><ele>36.2</ele><time>2015-04-25T16:08:41.0000000+00:00</time></trkpt><trkpt lat="35.0703064" lon="32.321932"><ele>36.5</ele><time>2015-04-25T16:08:43.0000000+00:00</time></trkpt><trkpt lat="35.070295" lon="32.3220127"><ele>36.3</ele><time>2015-04-25T16:08:45.0000000+00:00</time></trkpt><trkpt lat="35.0702918" lon="32.3220919"><ele>36.5</ele><time>2015-04-25T16:08:47.0000000+00:00</time></trkpt><trkpt lat="35.0702962" lon="32.3221732"><ele>36.8</ele><time>2015-04-25T16:08:49.0000000+00:00</time></trkpt><trkpt lat="35.070305" lon="32.3222541"><ele>36.9</ele><time>2015-04-25T16:08:51.0000000+00:00</time></trkpt><trkpt lat="35.0703072" lon="32.3223383"><ele>37.4</ele><time>2015-04-25T16:08:53.0000000+00:00</time></trkpt><trkpt lat="35.0702978" lon="32.3224112"><ele>37.8</ele><time>2015-04-25T16:08:55.0000000+00:00</time></trkpt><trkpt lat="35.0702933" lon="32.3224773"><ele>37.4</ele><time>2015-04-25T16:08:57.0000000+00:00</time></trkpt><trkpt lat="35.0703006" lon="32.3225532"><ele>35.8</ele><time>2015-04-25T16:08:59.0000000+00:00</time></trkpt><trkpt lat="35.0703186" lon="32.3226078"><ele>35.4</ele><time>2015-04-25T16:09:00.0000000+00:00</time></trkpt><trkpt lat="35.0703454" lon="32.3226687"><ele>34.6</ele><time>2015-04-25T16:09:01.0000000+00:00</time></trkpt><trkpt lat="35.0703433" lon="32.3227647"><ele>34.6</ele><time>2015-04-25T16:09:03.0000000+00:00</time></trkpt><trkpt lat="35.0703472" lon="32.3228593"><ele>34.1</ele><time>2015-04-25T16:09:05.0000000+00:00</time></trkpt><trkpt lat="35.0703539" lon="32.3229254"><ele>34.0</ele><time>2015-04-25T16:09:06.0000000+00:00</time></trkpt><trkpt lat="35.0703577" lon="32.3229844"><ele>33.5</ele><time>2015-04-25T16:09:07.0000000+00:00</time></trkpt><trkpt lat="35.0703652" lon="32.323048"><ele>33.2</ele><time>2015-04-25T16:09:08.0000000+00:00</time></trkpt><trkpt lat="35.0703522" lon="32.3231121"><ele>34.1</ele><time>2015-04-25T16:09:09.0000000+00:00</time></trkpt><trkpt lat="35.0703359" lon="32.323209"><ele>34.7</ele><time>2015-04-25T16:09:11.0000000+00:00</time></trkpt><trkpt lat="35.0703164" lon="32.3232989"><ele>34.9</ele><time>2015-04-25T16:09:13.0000000+00:00</time></trkpt><trkpt lat="35.070304" lon="32.3233517"><ele>35.4</ele><time>2015-04-25T16:09:14.0000000+00:00</time></trkpt><trkpt lat="35.0702851" lon="32.3234554"><ele>35.0</ele><time>2015-04-25T16:09:16.0000000+00:00</time></trkpt><trkpt lat="35.0702733" lon="32.3235121"><ele>35.0</ele><time>2015-04-25T16:09:17.0000000+00:00</time></trkpt><trkpt lat="35.070266" lon="32.3236213"><ele>34.9</ele><time>2015-04-25T16:09:19.0000000+00:00</time></trkpt><trkpt lat="35.0702629" lon="32.3236831"><ele>34.9</ele><time>2015-04-25T16:09:20.0000000+00:00</time></trkpt><trkpt lat="35.0702525" lon="32.3237866"><ele>34.9</ele><time>2015-04-25T16:09:22.0000000+00:00</time></trkpt><trkpt lat="35.0702739" lon="32.3238734"><ele>34.9</ele><time>2015-04-25T16:09:24.0000000+00:00</time></trkpt><trkpt lat="35.0702996" lon="32.3239701"><ele>34.2</ele><time>2015-04-25T16:09:26.0000000+00:00</time></trkpt><trkpt lat="35.0703172" lon="32.3240263"><ele>33.6</ele><time>2015-04-25T16:09:27.0000000+00:00</time></trkpt><trkpt lat="35.0703266" lon="32.3240845"><ele>33.2</ele><time>2015-04-25T16:09:28.0000000+00:00</time></trkpt><trkpt lat="35.0703439" lon="32.3241992"><ele>32.5</ele><time>2015-04-25T16:09:30.0000000+00:00</time></trkpt><trkpt lat="35.0703303" lon="32.3242889"><ele>31.6</ele><time>2015-04-25T16:09:32.0000000+00:00</time></trkpt><trkpt lat="35.0703172" lon="32.3243723"><ele>31.3</ele><time>2015-04-25T16:09:34.0000000+00:00</time></trkpt><trkpt lat="35.0703019" lon="32.3244488"><ele>31.5</ele><time>2015-04-25T16:09:36.0000000+00:00</time></trkpt><trkpt lat="35.070272" lon="32.3244934"><ele>31.9</ele><time>2015-04-25T16:11:57.0000000+00:00</time></trkpt><trkpt lat="35.0702674" lon="32.3245562"><ele>32.9</ele><time>2015-04-25T16:12:02.0000000+00:00</time></trkpt><trkpt lat="35.0702637" lon="32.324623"><ele>32.9</ele><time>2015-04-25T16:12:04.0000000+00:00</time></trkpt><trkpt lat="35.0702513" lon="32.3247036"><ele>32.2</ele><time>2015-04-25T16:12:06.0000000+00:00</time></trkpt><trkpt lat="35.0702343" lon="32.324782"><ele>32.0</ele><time>2015-04-25T16:12:08.0000000+00:00</time></trkpt><trkpt lat="35.0702281" lon="32.3248635"><ele>31.9</ele><time>2015-04-25T16:12:10.0000000+00:00</time></trkpt><trkpt lat="35.0702277" lon="32.3249459"><ele>31.2</ele><time>2015-04-25T16:12:12.0000000+00:00</time></trkpt><trkpt lat="35.0702112" lon="32.3250284"><ele>31.0</ele><time>2015-04-25T16:12:14.0000000+00:00</time></trkpt><trkpt lat="35.0701816" lon="32.3251125"><ele>30.9</ele><time>2015-04-25T16:12:16.0000000+00:00</time></trkpt><trkpt lat="35.0701445" lon="32.3251852"><ele>30.9</ele><time>2015-04-25T16:12:18.0000000+00:00</time></trkpt><trkpt lat="35.0701158" lon="32.3252592"><ele>30.9</ele><time>2015-04-25T16:12:20.0000000+00:00</time></trkpt><trkpt lat="35.0700911" lon="32.3253405"><ele>31.7</ele><time>2015-04-25T16:12:22.0000000+00:00</time></trkpt><trkpt lat="35.0700642" lon="32.3254223"><ele>31.9</ele><time>2015-04-25T16:12:24.0000000+00:00</time></trkpt><trkpt lat="35.0700398" lon="32.325499"><ele>31.9</ele><time>2015-04-25T16:12:26.0000000+00:00</time></trkpt><trkpt lat="35.0700196" lon="32.3255714"><ele>32.4</ele><time>2015-04-25T16:12:28.0000000+00:00</time></trkpt><trkpt lat="35.0699963" lon="32.3256372"><ele>32.1</ele><time>2015-04-25T16:12:30.0000000+00:00</time></trkpt><trkpt lat="35.0699599" lon="32.3256922"><ele>32.5</ele><time>2015-04-25T16:12:32.0000000+00:00</time></trkpt><trkpt lat="35.0699273" lon="32.3257314"><ele>32.8</ele><time>2015-04-25T16:12:34.0000000+00:00</time></trkpt><trkpt lat="35.0698959" lon="32.3257718"><ele>32.4</ele><time>2015-04-25T16:12:37.0000000+00:00</time></trkpt><trkpt lat="35.0698471" lon="32.3258066"><ele>32.1</ele><time>2015-04-25T16:12:41.0000000+00:00</time></trkpt><trkpt lat="35.0698156" lon="32.325851"><ele>32.7</ele><time>2015-04-25T16:12:44.0000000+00:00</time></trkpt><trkpt lat="35.069775" lon="32.3258964"><ele>34.5</ele><time>2015-04-25T16:12:48.0000000+00:00</time></trkpt><trkpt lat="35.0697393" lon="32.3259314"><ele>38.4</ele><time>2015-04-25T16:14:42.0000000+00:00</time></trkpt><trkpt lat="35.069707" lon="32.3259742"><ele>39.0</ele><time>2015-04-25T16:16:02.0000000+00:00</time></trkpt><trkpt lat="35.0696964" lon="32.3260296"><ele>39.0</ele><time>2015-04-25T16:16:11.0000000+00:00</time></trkpt><trkpt lat="35.0696963" lon="32.326091"><ele>38.9</ele><time>2015-04-25T16:16:17.0000000+00:00</time></trkpt><trkpt lat="35.0696929" lon="32.3261494"><ele>38.9</ele><time>2015-04-25T16:16:21.0000000+00:00</time></trkpt><trkpt lat="35.069685" lon="32.3262182"><ele>38.5</ele><time>2015-04-25T16:16:25.0000000+00:00</time></trkpt><trkpt lat="35.0696754" lon="32.3262914"><ele>37.3</ele><time>2015-04-25T16:16:29.0000000+00:00</time></trkpt><trkpt lat="35.0696669" lon="32.3263531"><ele>37.0</ele><time>2015-04-25T16:16:32.0000000+00:00</time></trkpt><trkpt lat="35.0696606" lon="32.3264232"><ele>37.7</ele><time>2015-04-25T16:16:35.0000000+00:00</time></trkpt><trkpt lat="35.0696597" lon="32.326496"><ele>37.0</ele><time>2015-04-25T16:16:38.0000000+00:00</time></trkpt><trkpt lat="35.0696588" lon="32.3265703"><ele>36.7</ele><time>2015-04-25T16:16:41.0000000+00:00</time></trkpt><trkpt lat="35.069651" lon="32.3266456"><ele>37.3</ele><time>2015-04-25T16:16:44.0000000+00:00</time></trkpt><trkpt lat="35.0696278" lon="32.3267237"><ele>38.3</ele><time>2015-04-25T16:16:47.0000000+00:00</time></trkpt><trkpt lat="35.0696133" lon="32.3267782"><ele>38.8</ele><time>2015-04-25T16:16:49.0000000+00:00</time></trkpt><trkpt lat="35.069598" lon="32.32683"><ele>38.9</ele><time>2015-04-25T16:16:51.0000000+00:00</time></trkpt><trkpt lat="35.069586" lon="32.3268887"><ele>40.2</ele><time>2015-04-25T16:16:53.0000000+00:00</time></trkpt><trkpt lat="35.0695778" lon="32.3269481"><ele>40.7</ele><time>2015-04-25T16:16:55.0000000+00:00</time></trkpt><trkpt lat="35.0695744" lon="32.3270084"><ele>41.4</ele><time>2015-04-25T16:16:57.0000000+00:00</time></trkpt><trkpt lat="35.0695679" lon="32.3270674"><ele>42.0</ele><time>2015-04-25T16:16:59.0000000+00:00</time></trkpt><trkpt lat="35.0695645" lon="32.3271289"><ele>41.5</ele><time>2015-04-25T16:17:01.0000000+00:00</time></trkpt><trkpt lat="35.0695571" lon="32.3271858"><ele>40.3</ele><time>2015-04-25T16:17:03.0000000+00:00</time></trkpt><trkpt lat="35.069544" lon="32.3272414"><ele>40.8</ele><time>2015-04-25T16:17:05.0000000+00:00</time></trkpt><trkpt lat="35.0695346" lon="32.3272972"><ele>40.9</ele><time>2015-04-25T16:17:07.0000000+00:00</time></trkpt><trkpt lat="35.0695241" lon="32.3273534"><ele>40.2</ele><time>2015-04-25T16:17:09.0000000+00:00</time></trkpt><trkpt lat="35.0695206" lon="32.3274322"><ele>40.0</ele><time>2015-04-25T16:17:12.0000000+00:00</time></trkpt><trkpt lat="35.069525" lon="32.3274886"><ele>40.4</ele><time>2015-04-25T16:17:14.0000000+00:00</time></trkpt><trkpt lat="35.069528" lon="32.3275498"><ele>40.8</ele><time>2015-04-25T16:17:16.0000000+00:00</time></trkpt><trkpt lat="35.0695291" lon="32.3276161"><ele>40.9</ele><time>2015-04-25T16:17:18.0000000+00:00</time></trkpt><trkpt lat="35.0695238" lon="32.327684"><ele>40.4</ele><time>2015-04-25T16:17:20.0000000+00:00</time></trkpt><trkpt lat="35.069511" lon="32.3277588"><ele>40.8</ele><time>2015-04-25T16:17:22.0000000+00:00</time></trkpt><trkpt lat="35.0694976" lon="32.3278453"><ele>41.4</ele><time>2015-04-25T16:17:24.0000000+00:00</time></trkpt><trkpt lat="35.0694836" lon="32.3279269"><ele>41.8</ele><time>2015-04-25T16:17:26.0000000+00:00</time></trkpt><trkpt lat="35.0694658" lon="32.3280005"><ele>42.1</ele><time>2015-04-25T16:17:28.0000000+00:00</time></trkpt><trkpt lat="35.0694437" lon="32.3280672"><ele>42.5</ele><time>2015-04-25T16:17:30.0000000+00:00</time></trkpt><trkpt lat="35.0694266" lon="32.3281273"><ele>43.3</ele><time>2015-04-25T16:17:32.0000000+00:00</time></trkpt><trkpt lat="35.069407" lon="32.3281912"><ele>44.9</ele><time>2015-04-25T16:17:35.0000000+00:00</time></trkpt><trkpt lat="35.0693883" lon="32.3282559"><ele>46.1</ele><time>2015-04-25T16:17:39.0000000+00:00</time></trkpt><trkpt lat="35.069361" lon="32.3283045"><ele>46.2</ele><time>2015-04-25T16:17:43.0000000+00:00</time></trkpt><trkpt lat="35.0693266" lon="32.3283512"><ele>45.7</ele><time>2015-04-25T16:17:48.0000000+00:00</time></trkpt><trkpt lat="35.0693023" lon="32.3284143"><ele>45.9</ele><time>2015-04-25T16:17:52.0000000+00:00</time></trkpt><trkpt lat="35.0692806" lon="32.3284673"><ele>45.9</ele><time>2015-04-25T16:17:55.0000000+00:00</time></trkpt><trkpt lat="35.0692602" lon="32.3285215"><ele>46.7</ele><time>2015-04-25T16:17:58.0000000+00:00</time></trkpt><trkpt lat="35.0692356" lon="32.3285824"><ele>46.9</ele><time>2015-04-25T16:18:02.0000000+00:00</time></trkpt><trkpt lat="35.069209" lon="32.3286455"><ele>48.6</ele><time>2015-04-25T16:18:06.0000000+00:00</time></trkpt><trkpt lat="35.0691813" lon="32.3287062"><ele>49.2</ele><time>2015-04-25T16:18:10.0000000+00:00</time></trkpt><trkpt lat="35.06914" lon="32.3287366"><ele>49.8</ele><time>2015-04-25T16:18:13.0000000+00:00</time></trkpt><trkpt lat="35.0691051" lon="32.328772"><ele>50.4</ele><time>2015-04-25T16:18:16.0000000+00:00</time></trkpt><trkpt lat="35.0690693" lon="32.328822"><ele>51.8</ele><time>2015-04-25T16:18:20.0000000+00:00</time></trkpt><trkpt lat="35.0690353" lon="32.3288685"><ele>51.0</ele><time>2015-04-25T16:18:24.0000000+00:00</time></trkpt><trkpt lat="35.0690042" lon="32.3289163"><ele>51.1</ele><time>2015-04-25T16:18:28.0000000+00:00</time></trkpt><trkpt lat="35.0689859" lon="32.3289855"><ele>50.6</ele><time>2015-04-25T16:18:32.0000000+00:00</time></trkpt><trkpt lat="35.0689742" lon="32.3290422"><ele>51.6</ele><time>2015-04-25T16:18:35.0000000+00:00</time></trkpt><trkpt lat="35.068953" lon="32.3291084"><ele>53.2</ele><time>2015-04-25T16:18:39.0000000+00:00</time></trkpt><trkpt lat="35.0689438" lon="32.3291756"><ele>53.9</ele><time>2015-04-25T16:18:43.0000000+00:00</time></trkpt><trkpt lat="35.0689174" lon="32.3292376"><ele>55.6</ele><time>2015-04-25T16:18:47.0000000+00:00</time></trkpt><trkpt lat="35.06889" lon="32.3292951"><ele>55.8</ele><time>2015-04-25T16:18:51.0000000+00:00</time></trkpt><trkpt lat="35.0688829" lon="32.3293592"><ele>55.2</ele><time>2015-04-25T16:18:55.0000000+00:00</time></trkpt><trkpt lat="35.0688716" lon="32.3294158"><ele>54.9</ele><time>2015-04-25T16:18:59.0000000+00:00</time></trkpt><trkpt lat="35.0688536" lon="32.329478"><ele>54.5</ele><time>2015-04-25T16:19:03.0000000+00:00</time></trkpt><trkpt lat="35.0688201" lon="32.3295269"><ele>54.5</ele><time>2015-04-25T16:19:07.0000000+00:00</time></trkpt><trkpt lat="35.0687908" lon="32.3295829"><ele>55.4</ele><time>2015-04-25T16:19:11.0000000+00:00</time></trkpt><trkpt lat="35.0687632" lon="32.3296308"><ele>58.7</ele><time>2015-04-25T16:19:14.0000000+00:00</time></trkpt><trkpt lat="35.0687332" lon="32.3296804"><ele>60.5</ele><time>2015-04-25T16:19:17.0000000+00:00</time></trkpt><trkpt lat="35.0687008" lon="32.3297275"><ele>61.6</ele><time>2015-04-25T16:19:20.0000000+00:00</time></trkpt><trkpt lat="35.0686767" lon="32.329775"><ele>62.9</ele><time>2015-04-25T16:19:36.0000000+00:00</time></trkpt><trkpt lat="35.0686501" lon="32.3298243"><ele>64.8</ele><time>2015-04-25T16:19:41.0000000+00:00</time></trkpt><trkpt lat="35.0686156" lon="32.3298633"><ele>66.3</ele><time>2015-04-25T16:19:47.0000000+00:00</time></trkpt><trkpt lat="35.06857" lon="32.329893"><ele>67.2</ele><time>2015-04-25T16:19:55.0000000+00:00</time></trkpt><trkpt lat="35.068526" lon="32.3299049"><ele>66.9</ele><time>2015-04-25T16:20:02.0000000+00:00</time></trkpt><trkpt lat="35.0684831" lon="32.3299364"><ele>67.4</ele><time>2015-04-25T16:20:13.0000000+00:00</time></trkpt><trkpt lat="35.0684388" lon="32.3299612"><ele>68.6</ele><time>2015-04-25T16:20:37.0000000+00:00</time></trkpt><trkpt lat="35.0683975" lon="32.3299833"><ele>68.8</ele><time>2015-04-25T16:20:49.0000000+00:00</time></trkpt><trkpt lat="35.0683578" lon="32.33001"><ele>68.8</ele><time>2015-04-25T16:21:06.0000000+00:00</time></trkpt><trkpt lat="35.0683323" lon="32.3300559"><ele>69.9</ele><time>2015-04-25T16:21:32.0000000+00:00</time></trkpt><trkpt lat="35.0682872" lon="32.3301092"><ele>68.8</ele><time>2015-04-25T16:25:21.0000000+00:00</time></trkpt><trkpt lat="35.0682515" lon="32.3301492"><ele>68.9</ele><time>2015-04-25T16:25:23.0000000+00:00</time></trkpt><trkpt lat="35.0682146" lon="32.3301955"><ele>66.4</ele><time>2015-04-25T16:25:25.0000000+00:00</time></trkpt><trkpt lat="35.0681706" lon="32.3302414"><ele>66.1</ele><time>2015-04-25T16:25:27.0000000+00:00</time></trkpt><trkpt lat="35.0681306" lon="32.3302842"><ele>66.0</ele><time>2015-04-25T16:25:29.0000000+00:00</time></trkpt><trkpt lat="35.0680903" lon="32.3303223"><ele>65.1</ele><time>2015-04-25T16:25:32.0000000+00:00</time></trkpt><trkpt lat="35.0680568" lon="32.3303619"><ele>64.9</ele><time>2015-04-25T16:25:36.0000000+00:00</time></trkpt><trkpt lat="35.0680202" lon="32.3303976"><ele>64.0</ele><time>2015-04-25T16:25:40.0000000+00:00</time></trkpt><trkpt lat="35.0679809" lon="32.3304332"><ele>64.4</ele><time>2015-04-25T16:25:44.0000000+00:00</time></trkpt><trkpt lat="35.0679672" lon="32.3305073"><ele>63.5</ele><time>2015-04-25T16:25:48.0000000+00:00</time></trkpt><trkpt lat="35.0679604" lon="32.3305696"><ele>60.9</ele><time>2015-04-25T16:25:51.0000000+00:00</time></trkpt><trkpt lat="35.0679692" lon="32.3306431"><ele>59.3</ele><time>2015-04-25T16:25:54.0000000+00:00</time></trkpt><trkpt lat="35.0679601" lon="32.3307164"><ele>58.1</ele><time>2015-04-25T16:25:57.0000000+00:00</time></trkpt><trkpt lat="35.0679438" lon="32.3307869"><ele>58.5</ele><time>2015-04-25T16:26:00.0000000+00:00</time></trkpt><trkpt lat="35.0679102" lon="32.3308444"><ele>58.9</ele><time>2015-04-25T16:26:03.0000000+00:00</time></trkpt><trkpt lat="35.0678767" lon="32.3308955"><ele>57.5</ele><time>2015-04-25T16:26:06.0000000+00:00</time></trkpt><trkpt lat="35.0678422" lon="32.330946"><ele>58.8</ele><time>2015-04-25T16:26:09.0000000+00:00</time></trkpt><trkpt lat="35.0677927" lon="32.3310096"><ele>58.9</ele><time>2015-04-25T16:26:12.0000000+00:00</time></trkpt><trkpt lat="35.0677515" lon="32.3310563"><ele>58.2</ele><time>2015-04-25T16:26:14.0000000+00:00</time></trkpt><trkpt lat="35.0677153" lon="32.3310967"><ele>58.0</ele><time>2015-04-25T16:26:16.0000000+00:00</time></trkpt><trkpt lat="35.0676711" lon="32.3311424"><ele>58.3</ele><time>2015-04-25T16:26:19.0000000+00:00</time></trkpt><trkpt lat="35.0676375" lon="32.3311992"><ele>58.9</ele><time>2015-04-25T16:26:22.0000000+00:00</time></trkpt><trkpt lat="35.0676006" lon="32.3312642"><ele>58.2</ele><time>2015-04-25T16:26:25.0000000+00:00</time></trkpt><trkpt lat="35.0675743" lon="32.3313108"><ele>57.5</ele><time>2015-04-25T16:26:27.0000000+00:00</time></trkpt><trkpt lat="35.0675335" lon="32.3313584"><ele>56.8</ele><time>2015-04-25T16:26:29.0000000+00:00</time></trkpt><trkpt lat="35.067477" lon="32.3314266"><ele>56.2</ele><time>2015-04-25T16:26:31.0000000+00:00</time></trkpt><trkpt lat="35.0674436" lon="32.3314681"><ele>56.0</ele><time>2015-04-25T16:26:32.0000000+00:00</time></trkpt><trkpt lat="35.067386" lon="32.331537"><ele>55.5</ele><time>2015-04-25T16:26:33.0000000+00:00</time></trkpt><trkpt lat="35.0673548" lon="32.3315771"><ele>55.2</ele><time>2015-04-25T16:26:34.0000000+00:00</time></trkpt><trkpt lat="35.0672872" lon="32.3316573"><ele>54.2</ele><time>2015-04-25T16:26:36.0000000+00:00</time></trkpt><trkpt lat="35.0672441" lon="32.3316884"><ele>54.1</ele><time>2015-04-25T16:26:37.0000000+00:00</time></trkpt><trkpt lat="35.0672024" lon="32.3317149"><ele>54.0</ele><time>2015-04-25T16:26:38.0000000+00:00</time></trkpt><trkpt lat="35.0671327" lon="32.3317301"><ele>53.4</ele><time>2015-04-25T16:26:40.0000000+00:00</time></trkpt><trkpt lat="35.0670834" lon="32.3317579"><ele>53.1</ele><time>2015-04-25T16:26:42.0000000+00:00</time></trkpt><trkpt lat="35.0670234" lon="32.3317677"><ele>53.0</ele><time>2015-04-25T16:26:44.0000000+00:00</time></trkpt><trkpt lat="35.0669568" lon="32.3317793"><ele>53.4</ele><time>2015-04-25T16:26:46.0000000+00:00</time></trkpt><trkpt lat="35.0669022" lon="32.3318036"><ele>53.8</ele><time>2015-04-25T16:26:48.0000000+00:00</time></trkpt><trkpt lat="35.0668619" lon="32.3318543"><ele>53.9</ele><time>2015-04-25T16:26:50.0000000+00:00</time></trkpt><trkpt lat="35.066829" lon="32.3319195"><ele>54.4</ele><time>2015-04-25T16:26:52.0000000+00:00</time></trkpt><trkpt lat="35.0667962" lon="32.3319796"><ele>54.8</ele><time>2015-04-25T16:26:54.0000000+00:00</time></trkpt><trkpt lat="35.0667531" lon="32.3320291"><ele>54.1</ele><time>2015-04-25T16:26:56.0000000+00:00</time></trkpt><trkpt lat="35.0667057" lon="32.3320853"><ele>53.5</ele><time>2015-04-25T16:26:58.0000000+00:00</time></trkpt><trkpt lat="35.0666569" lon="32.3321424"><ele>53.1</ele><time>2015-04-25T16:27:00.0000000+00:00</time></trkpt><trkpt lat="35.0665977" lon="32.33219"><ele>52.5</ele><time>2015-04-25T16:27:02.0000000+00:00</time></trkpt><trkpt lat="35.0665375" lon="32.3322343"><ele>52.1</ele><time>2015-04-25T16:27:04.0000000+00:00</time></trkpt><trkpt lat="35.0664709" lon="32.332265"><ele>52.0</ele><time>2015-04-25T16:27:06.0000000+00:00</time></trkpt><trkpt lat="35.0664082" lon="32.3322953"><ele>51.4</ele><time>2015-04-25T16:27:08.0000000+00:00</time></trkpt><trkpt lat="35.0663492" lon="32.3323395"><ele>51.1</ele><time>2015-04-25T16:27:10.0000000+00:00</time></trkpt><trkpt lat="35.0662818" lon="32.3323874"><ele>50.2</ele><time>2015-04-25T16:27:12.0000000+00:00</time></trkpt><trkpt lat="35.0661991" lon="32.3324721"><ele>50.5</ele><time>2015-04-25T16:27:14.0000000+00:00</time></trkpt><trkpt lat="35.0661306" lon="32.3325116"><ele>50.1</ele><time>2015-04-25T16:27:16.0000000+00:00</time></trkpt><trkpt lat="35.0660518" lon="32.33254"><ele>49.5</ele><time>2015-04-25T16:27:18.0000000+00:00</time></trkpt><trkpt lat="35.0659811" lon="32.3326259"><ele>48.3</ele><time>2015-04-25T16:27:20.0000000+00:00</time></trkpt><trkpt lat="35.0659478" lon="32.3326783"><ele>47.1</ele><time>2015-04-25T16:27:21.0000000+00:00</time></trkpt><trkpt lat="35.065908" lon="32.3327518"><ele>45.5</ele><time>2015-04-25T16:27:22.0000000+00:00</time></trkpt><trkpt lat="35.0658731" lon="32.3328272"><ele>44.7</ele><time>2015-04-25T16:27:23.0000000+00:00</time></trkpt><trkpt lat="35.065832" lon="32.332918"><ele>44.3</ele><time>2015-04-25T16:27:24.0000000+00:00</time></trkpt><trkpt lat="35.0657956" lon="32.3330132"><ele>44.1</ele><time>2015-04-25T16:27:25.0000000+00:00</time></trkpt><trkpt lat="35.0657562" lon="32.3330999"><ele>44.5</ele><time>2015-04-25T16:27:26.0000000+00:00</time></trkpt><trkpt lat="35.065713" lon="32.3331774"><ele>45.2</ele><time>2015-04-25T16:27:27.0000000+00:00</time></trkpt><trkpt lat="35.0656746" lon="32.333242"><ele>45.6</ele><time>2015-04-25T16:27:28.0000000+00:00</time></trkpt><trkpt lat="35.0656299" lon="32.3332945"><ele>46.3</ele><time>2015-04-25T16:27:29.0000000+00:00</time></trkpt><trkpt lat="35.0655938" lon="32.3333483"><ele>46.6</ele><time>2015-04-25T16:27:30.0000000+00:00</time></trkpt><trkpt lat="35.0655693" lon="32.3334051"><ele>46.3</ele><time>2015-04-25T16:27:31.0000000+00:00</time></trkpt><trkpt lat="35.0655481" lon="32.3334648"><ele>46.1</ele><time>2015-04-25T16:27:32.0000000+00:00</time></trkpt><trkpt lat="35.065524" lon="32.3335157"><ele>46.0</ele><time>2015-04-25T16:27:33.0000000+00:00</time></trkpt><trkpt lat="35.0654682" lon="32.3336018"><ele>46.2</ele><time>2015-04-25T16:27:35.0000000+00:00</time></trkpt><trkpt lat="35.0654091" lon="32.3336534"><ele>46.0</ele><time>2015-04-25T16:27:37.0000000+00:00</time></trkpt><trkpt lat="35.0653712" lon="32.333685"><ele>45.9</ele><time>2015-04-25T16:27:39.0000000+00:00</time></trkpt><trkpt lat="35.0653204" lon="32.333734"><ele>45.9</ele><time>2015-04-25T16:27:41.0000000+00:00</time></trkpt><trkpt lat="35.0652648" lon="32.333778"><ele>45.9</ele><time>2015-04-25T16:27:43.0000000+00:00</time></trkpt><trkpt lat="35.0652119" lon="32.3338093"><ele>45.9</ele><time>2015-04-25T16:27:45.0000000+00:00</time></trkpt><trkpt lat="35.0651707" lon="32.3338403"><ele>45.9</ele><time>2015-04-25T16:27:47.0000000+00:00</time></trkpt><trkpt lat="35.0651246" lon="32.333877"><ele>45.9</ele><time>2015-04-25T16:27:49.0000000+00:00</time></trkpt><trkpt lat="35.0650778" lon="32.333935"><ele>44.7</ele><time>2015-04-25T16:27:51.0000000+00:00</time></trkpt><trkpt lat="35.0650362" lon="32.3339959"><ele>43.8</ele><time>2015-04-25T16:27:52.0000000+00:00</time></trkpt><trkpt lat="35.0649912" lon="32.3340212"><ele>43.4</ele><time>2015-04-25T16:27:53.0000000+00:00</time></trkpt><trkpt lat="35.0649448" lon="32.3340513"><ele>43.1</ele><time>2015-04-25T16:27:54.0000000+00:00</time></trkpt><trkpt lat="35.0648964" lon="32.334091"><ele>43.0</ele><time>2015-04-25T16:27:55.0000000+00:00</time></trkpt><trkpt lat="35.0648505" lon="32.3341215"><ele>43.0</ele><time>2015-04-25T16:27:56.0000000+00:00</time></trkpt><trkpt lat="35.0647984" lon="32.3341536"><ele>43.5</ele><time>2015-04-25T16:27:57.0000000+00:00</time></trkpt><trkpt lat="35.0647505" lon="32.334193"><ele>43.7</ele><time>2015-04-25T16:27:58.0000000+00:00</time></trkpt><trkpt lat="35.0647044" lon="32.334236"><ele>43.3</ele><time>2015-04-25T16:27:59.0000000+00:00</time></trkpt><trkpt lat="35.0646666" lon="32.3342671"><ele>43.1</ele><time>2015-04-25T16:28:00.0000000+00:00</time></trkpt><trkpt lat="35.0646002" lon="32.3343279"><ele>43.0</ele><time>2015-04-25T16:28:02.0000000+00:00</time></trkpt><trkpt lat="35.064564" lon="32.3343612"><ele>43.1</ele><time>2015-04-25T16:28:07.0000000+00:00</time></trkpt><trkpt lat="35.0645223" lon="32.3344093"><ele>43.9</ele><time>2015-04-25T16:30:16.0000000+00:00</time></trkpt><trkpt lat="35.0644878" lon="32.3344631"><ele>43.9</ele><time>2015-04-25T16:30:18.0000000+00:00</time></trkpt><trkpt lat="35.0644395" lon="32.3344995"><ele>43.9</ele><time>2015-04-25T16:30:20.0000000+00:00</time></trkpt><trkpt lat="35.0643946" lon="32.3345449"><ele>43.9</ele><time>2015-04-25T16:30:22.0000000+00:00</time></trkpt><trkpt lat="35.0643546" lon="32.3345919"><ele>44.4</ele><time>2015-04-25T16:30:24.0000000+00:00</time></trkpt><trkpt lat="35.0643167" lon="32.3346328"><ele>45.3</ele><time>2015-04-25T16:30:26.0000000+00:00</time></trkpt><trkpt lat="35.064281" lon="32.3346684"><ele>45.0</ele><time>2015-04-25T16:30:28.0000000+00:00</time></trkpt><trkpt lat="35.0642396" lon="32.3347323"><ele>44.9</ele><time>2015-04-25T16:30:31.0000000+00:00</time></trkpt><trkpt lat="35.064209" lon="32.3348023"><ele>45.8</ele><time>2015-04-25T16:30:34.0000000+00:00</time></trkpt><trkpt lat="35.064179" lon="32.3348564"><ele>45.9</ele><time>2015-04-25T16:30:37.0000000+00:00</time></trkpt><trkpt lat="35.0641546" lon="32.3349168"><ele>45.9</ele><time>2015-04-25T16:30:40.0000000+00:00</time></trkpt><trkpt lat="35.0641219" lon="32.3349766"><ele>45.9</ele><time>2015-04-25T16:30:43.0000000+00:00</time></trkpt><trkpt lat="35.0640885" lon="32.3350435"><ele>45.9</ele><time>2015-04-25T16:30:46.0000000+00:00</time></trkpt><trkpt lat="35.0640676" lon="32.3351177"><ele>46.1</ele><time>2015-04-25T16:30:49.0000000+00:00</time></trkpt><trkpt lat="35.0640562" lon="32.3351966"><ele>45.7</ele><time>2015-04-25T16:30:52.0000000+00:00</time></trkpt><trkpt lat="35.0640272" lon="32.3352477"><ele>44.9</ele><time>2015-04-25T16:30:54.0000000+00:00</time></trkpt><trkpt lat="35.0639794" lon="32.3353215"><ele>44.9</ele><time>2015-04-25T16:30:56.0000000+00:00</time></trkpt><trkpt lat="35.0639153" lon="32.3353943"><ele>44.2</ele><time>2015-04-25T16:30:58.0000000+00:00</time></trkpt><trkpt lat="35.0638534" lon="32.335464"><ele>43.5</ele><time>2015-04-25T16:31:00.0000000+00:00</time></trkpt><trkpt lat="35.063798" lon="32.3355279"><ele>43.3</ele><time>2015-04-25T16:31:02.0000000+00:00</time></trkpt><trkpt lat="35.0637504" lon="32.3355836"><ele>43.0</ele><time>2015-04-25T16:31:04.0000000+00:00</time></trkpt><trkpt lat="35.0637159" lon="32.3356249"><ele>42.2</ele><time>2015-04-25T16:31:06.0000000+00:00</time></trkpt><trkpt lat="35.0636798" lon="32.3356725"><ele>42.0</ele><time>2015-04-25T16:31:08.0000000+00:00</time></trkpt><trkpt lat="35.0636361" lon="32.3357343"><ele>42.4</ele><time>2015-04-25T16:31:10.0000000+00:00</time></trkpt><trkpt lat="35.0635889" lon="32.3357996"><ele>42.8</ele><time>2015-04-25T16:31:12.0000000+00:00</time></trkpt><trkpt lat="35.0635457" lon="32.3358697"><ele>42.9</ele><time>2015-04-25T16:31:14.0000000+00:00</time></trkpt><trkpt lat="35.0634979" lon="32.3359349"><ele>42.4</ele><time>2015-04-25T16:31:16.0000000+00:00</time></trkpt><trkpt lat="35.063449" lon="32.3359991"><ele>42.1</ele><time>2015-04-25T16:31:18.0000000+00:00</time></trkpt><trkpt lat="35.0634002" lon="32.336063"><ele>43.2</ele><time>2015-04-25T16:31:20.0000000+00:00</time></trkpt><trkpt lat="35.0633517" lon="32.3361259"><ele>43.8</ele><time>2015-04-25T16:31:22.0000000+00:00</time></trkpt><trkpt lat="35.0633018" lon="32.3361854"><ele>43.9</ele><time>2015-04-25T16:31:24.0000000+00:00</time></trkpt><trkpt lat="35.0632502" lon="32.3362381"><ele>43.9</ele><time>2015-04-25T16:31:26.0000000+00:00</time></trkpt><trkpt lat="35.0631893" lon="32.3362908"><ele>43.9</ele><time>2015-04-25T16:31:28.0000000+00:00</time></trkpt><trkpt lat="35.0631244" lon="32.3363356"><ele>44.7</ele><time>2015-04-25T16:31:30.0000000+00:00</time></trkpt><trkpt lat="35.0630535" lon="32.3363685"><ele>46.1</ele><time>2015-04-25T16:31:32.0000000+00:00</time></trkpt><trkpt lat="35.0629836" lon="32.3364043"><ele>46.7</ele><time>2015-04-25T16:31:34.0000000+00:00</time></trkpt><trkpt lat="35.062918" lon="32.3364455"><ele>46.9</ele><time>2015-04-25T16:31:36.0000000+00:00</time></trkpt><trkpt lat="35.0628614" lon="32.3364906"><ele>46.4</ele><time>2015-04-25T16:31:38.0000000+00:00</time></trkpt><trkpt lat="35.0628061" lon="32.3365264"><ele>45.6</ele><time>2015-04-25T16:31:40.0000000+00:00</time></trkpt><trkpt lat="35.0627461" lon="32.3365561"><ele>44.8</ele><time>2015-04-25T16:31:42.0000000+00:00</time></trkpt><trkpt lat="35.0626862" lon="32.3365822"><ele>45.7</ele><time>2015-04-25T16:31:44.0000000+00:00</time></trkpt><trkpt lat="35.0626285" lon="32.3366179"><ele>45.9</ele><time>2015-04-25T16:31:46.0000000+00:00</time></trkpt><trkpt lat="35.062577" lon="32.3366572"><ele>46.4</ele><time>2015-04-25T16:31:48.0000000+00:00</time></trkpt><trkpt lat="35.0625304" lon="32.3366971"><ele>46.3</ele><time>2015-04-25T16:31:50.0000000+00:00</time></trkpt><trkpt lat="35.0624949" lon="32.336747"><ele>47.6</ele><time>2015-04-25T16:31:53.0000000+00:00</time></trkpt><trkpt lat="35.0624461" lon="32.3367745"><ele>50.0</ele><time>2015-04-25T16:31:58.0000000+00:00</time></trkpt><trkpt lat="35.0624012" lon="32.3367773"><ele>50.7</ele><time>2015-04-25T16:32:02.0000000+00:00</time></trkpt><trkpt lat="35.0623592" lon="32.3368222"><ele>51.7</ele><time>2015-04-25T16:32:07.0000000+00:00</time></trkpt><trkpt lat="35.062329" lon="32.3368633"><ele>51.0</ele><time>2015-04-25T16:32:20.0000000+00:00</time></trkpt><trkpt lat="35.0622868" lon="32.336883"><ele>50.9</ele><time>2015-04-25T16:32:31.0000000+00:00</time></trkpt><trkpt lat="35.062244" lon="32.3369128"><ele>50.6</ele><time>2015-04-25T16:34:23.0000000+00:00</time></trkpt><trkpt lat="35.0622244" lon="32.3369626"><ele>50.8</ele><time>2015-04-25T16:34:35.0000000+00:00</time></trkpt><trkpt lat="35.0622037" lon="32.3370116"><ele>51.9</ele><time>2015-04-25T16:34:44.0000000+00:00</time></trkpt><trkpt lat="35.0621728" lon="32.3370527"><ele>52.8</ele><time>2015-04-25T16:34:50.0000000+00:00</time></trkpt><trkpt lat="35.0621434" lon="32.3371034"><ele>55.2</ele><time>2015-04-25T16:34:56.0000000+00:00</time></trkpt><trkpt lat="35.0621092" lon="32.3371415"><ele>55.7</ele><time>2015-04-25T16:35:02.0000000+00:00</time></trkpt><trkpt lat="35.0620921" lon="32.3371969"><ele>57.4</ele><time>2015-04-25T16:35:10.0000000+00:00</time></trkpt><trkpt lat="35.0620672" lon="32.3372524"><ele>56.0</ele><time>2015-04-25T16:35:17.0000000+00:00</time></trkpt><trkpt lat="35.0620447" lon="32.3373037"><ele>57.1</ele><time>2015-04-25T16:35:24.0000000+00:00</time></trkpt><trkpt lat="35.0620312" lon="32.3373576"><ele>57.4</ele><time>2015-04-25T16:35:37.0000000+00:00</time></trkpt><trkpt lat="35.0620141" lon="32.3374189"><ele>59.6</ele><time>2015-04-25T16:35:43.0000000+00:00</time></trkpt><trkpt lat="35.0619968" lon="32.3374763"><ele>61.8</ele><time>2015-04-25T16:35:49.0000000+00:00</time></trkpt><trkpt lat="35.0619693" lon="32.3375224"><ele>61.0</ele><time>2015-04-25T16:35:54.0000000+00:00</time></trkpt><trkpt lat="35.0619543" lon="32.3375805"><ele>61.6</ele><time>2015-04-25T16:36:00.0000000+00:00</time></trkpt><trkpt lat="35.0619519" lon="32.337637"><ele>64.7</ele><time>2015-04-25T16:36:06.0000000+00:00</time></trkpt><trkpt lat="35.0619215" lon="32.3376872"><ele>64.7</ele><time>2015-04-25T16:36:14.0000000+00:00</time></trkpt><trkpt lat="35.0619026" lon="32.3377428"><ele>67.3</ele><time>2015-04-25T16:36:21.0000000+00:00</time></trkpt><trkpt lat="35.0618806" lon="32.3377945"><ele>68.7</ele><time>2015-04-25T16:36:28.0000000+00:00</time></trkpt><trkpt lat="35.0618563" lon="32.3378446"><ele>68.9</ele><time>2015-04-25T16:36:36.0000000+00:00</time></trkpt><trkpt lat="35.0618483" lon="32.3379081"><ele>70.4</ele><time>2015-04-25T16:36:46.0000000+00:00</time></trkpt><trkpt lat="35.0618346" lon="32.3379645"><ele>71.7</ele><time>2015-04-25T16:36:51.0000000+00:00</time></trkpt><trkpt lat="35.061817" lon="32.3380157"><ele>72.4</ele><time>2015-04-25T16:36:56.0000000+00:00</time></trkpt><trkpt lat="35.0618023" lon="32.3380678"><ele>70.9</ele><time>2015-04-25T16:37:01.0000000+00:00</time></trkpt><trkpt lat="35.0618044" lon="32.338129"><ele>71.9</ele><time>2015-04-25T16:37:07.0000000+00:00</time></trkpt><trkpt lat="35.0617966" lon="32.3381896"><ele>71.7</ele><time>2015-04-25T16:37:14.0000000+00:00</time></trkpt><trkpt lat="35.0617921" lon="32.338248"><ele>71.9</ele><time>2015-04-25T16:37:21.0000000+00:00</time></trkpt><trkpt lat="35.0617856" lon="32.3383062"><ele>71.4</ele><time>2015-04-25T16:37:26.0000000+00:00</time></trkpt><trkpt lat="35.0617824" lon="32.3383623"><ele>72.4</ele><time>2015-04-25T16:37:31.0000000+00:00</time></trkpt><trkpt lat="35.0617828" lon="32.3384213"><ele>73.7</ele><time>2015-04-25T16:37:36.0000000+00:00</time></trkpt><trkpt lat="35.0617732" lon="32.3384779"><ele>73.9</ele><time>2015-04-25T16:37:41.0000000+00:00</time></trkpt><trkpt lat="35.0617771" lon="32.3385478"><ele>73.0</ele><time>2015-04-25T16:38:30.0000000+00:00</time></trkpt><trkpt lat="35.0617725" lon="32.3386115"><ele>72.1</ele><time>2015-04-25T16:38:33.0000000+00:00</time></trkpt><trkpt lat="35.0617717" lon="32.3386712"><ele>71.5</ele><time>2015-04-25T16:38:35.0000000+00:00</time></trkpt><trkpt lat="35.0617733" lon="32.338745"><ele>71.1</ele><time>2015-04-25T16:38:37.0000000+00:00</time></trkpt><trkpt lat="35.0617769" lon="32.3388128"><ele>70.5</ele><time>2015-04-25T16:38:39.0000000+00:00</time></trkpt><trkpt lat="35.0617802" lon="32.3388828"><ele>70.1</ele><time>2015-04-25T16:38:41.0000000+00:00</time></trkpt><trkpt lat="35.0617888" lon="32.3389552"><ele>69.5</ele><time>2015-04-25T16:38:43.0000000+00:00</time></trkpt><trkpt lat="35.0617992" lon="32.3390467"><ele>69.1</ele><time>2015-04-25T16:38:45.0000000+00:00</time></trkpt><trkpt lat="35.0618047" lon="32.3391342"><ele>69.0</ele><time>2015-04-25T16:38:47.0000000+00:00</time></trkpt><trkpt lat="35.0618056" lon="32.3392244"><ele>68.9</ele><time>2015-04-25T16:38:49.0000000+00:00</time></trkpt><trkpt lat="35.0618066" lon="32.3393145"><ele>68.9</ele><time>2015-04-25T16:38:51.0000000+00:00</time></trkpt><trkpt lat="35.0618082" lon="32.3394107"><ele>68.9</ele><time>2015-04-25T16:38:53.0000000+00:00</time></trkpt><trkpt lat="35.0618045" lon="32.3395029"><ele>68.4</ele><time>2015-04-25T16:38:55.0000000+00:00</time></trkpt><trkpt lat="35.0617866" lon="32.3395975"><ele>68.6</ele><time>2015-04-25T16:38:57.0000000+00:00</time></trkpt><trkpt lat="35.0617525" lon="32.3396796"><ele>68.8</ele><time>2015-04-25T16:38:59.0000000+00:00</time></trkpt><trkpt lat="35.06171" lon="32.3397534"><ele>68.9</ele><time>2015-04-25T16:39:01.0000000+00:00</time></trkpt><trkpt lat="35.0616749" lon="32.3398079"><ele>69.4</ele><time>2015-04-25T16:39:03.0000000+00:00</time></trkpt><trkpt lat="35.0616344" lon="32.3398469"><ele>70.3</ele><time>2015-04-25T16:39:05.0000000+00:00</time></trkpt><trkpt lat="35.0615857" lon="32.3398872"><ele>70.1</ele><time>2015-04-25T16:39:09.0000000+00:00</time></trkpt><trkpt lat="35.0615393" lon="32.3399234"><ele>70.9</ele><time>2015-04-25T16:39:13.0000000+00:00</time></trkpt><trkpt lat="35.0614839" lon="32.3399707"><ele>70.9</ele><time>2015-04-25T16:39:16.0000000+00:00</time></trkpt><trkpt lat="35.0614398" lon="32.3400101"><ele>70.2</ele><time>2015-04-25T16:39:18.0000000+00:00</time></trkpt><trkpt lat="35.061391" lon="32.3400505"><ele>70.0</ele><time>2015-04-25T16:39:20.0000000+00:00</time></trkpt><trkpt lat="35.0613322" lon="32.3400916"><ele>69.9</ele><time>2015-04-25T16:39:22.0000000+00:00</time></trkpt><trkpt lat="35.06126" lon="32.3401354"><ele>69.4</ele><time>2015-04-25T16:39:24.0000000+00:00</time></trkpt><trkpt lat="35.0611859" lon="32.3401738"><ele>69.6</ele><time>2015-04-25T16:39:26.0000000+00:00</time></trkpt><trkpt lat="35.061111" lon="32.3402153"><ele>70.6</ele><time>2015-04-25T16:39:28.0000000+00:00</time></trkpt><trkpt lat="35.0610365" lon="32.3402598"><ele>71.3</ele><time>2015-04-25T16:39:30.0000000+00:00</time></trkpt><trkpt lat="35.0609613" lon="32.3402891"><ele>71.8</ele><time>2015-04-25T16:39:32.0000000+00:00</time></trkpt><trkpt lat="35.0608922" lon="32.3403126"><ele>72.6</ele><time>2015-04-25T16:39:34.0000000+00:00</time></trkpt><trkpt lat="35.0608232" lon="32.340331"><ele>72.9</ele><time>2015-04-25T16:39:36.0000000+00:00</time></trkpt><trkpt lat="35.0607593" lon="32.3403524"><ele>72.9</ele><time>2015-04-25T16:39:38.0000000+00:00</time></trkpt><trkpt lat="35.0607132" lon="32.340374"><ele>72.9</ele><time>2015-04-25T16:39:40.0000000+00:00</time></trkpt><trkpt lat="35.0606714" lon="32.3403962"><ele>73.7</ele><time>2015-04-25T16:39:42.0000000+00:00</time></trkpt><trkpt lat="35.0606144" lon="32.3404229"><ele>74.1</ele><time>2015-04-25T16:39:45.0000000+00:00</time></trkpt><trkpt lat="35.0605573" lon="32.3404604"><ele>74.0</ele><time>2015-04-25T16:39:48.0000000+00:00</time></trkpt><trkpt lat="35.0605129" lon="32.3404925"><ele>74.7</ele><time>2015-04-25T16:39:50.0000000+00:00</time></trkpt><trkpt lat="35.0604643" lon="32.3405246"><ele>75.4</ele><time>2015-04-25T16:39:52.0000000+00:00</time></trkpt><trkpt lat="35.0604135" lon="32.3405517"><ele>75.8</ele><time>2015-04-25T16:39:54.0000000+00:00</time></trkpt><trkpt lat="35.0603608" lon="32.3405844"><ele>76.4</ele><time>2015-04-25T16:39:56.0000000+00:00</time></trkpt><trkpt lat="35.0602981" lon="32.3406313"><ele>76.0</ele><time>2015-04-25T16:39:58.0000000+00:00</time></trkpt><trkpt lat="35.0602606" lon="32.340663"><ele>76.0</ele><time>2015-04-25T16:39:59.0000000+00:00</time></trkpt><trkpt lat="35.0602233" lon="32.3406958"><ele>75.5</ele><time>2015-04-25T16:40:00.0000000+00:00</time></trkpt><trkpt lat="35.0601588" lon="32.3407516"><ele>74.7</ele><time>2015-04-25T16:40:01.0000000+00:00</time></trkpt><trkpt lat="35.0601177" lon="32.3407985"><ele>74.3</ele><time>2015-04-25T16:40:02.0000000+00:00</time></trkpt><trkpt lat="35.0600795" lon="32.3408323"><ele>73.6</ele><time>2015-04-25T16:40:03.0000000+00:00</time></trkpt><trkpt lat="35.0600357" lon="32.340876"><ele>73.3</ele><time>2015-04-25T16:40:04.0000000+00:00</time></trkpt><trkpt lat="35.0599959" lon="32.3409167"><ele>73.1</ele><time>2015-04-25T16:40:05.0000000+00:00</time></trkpt><trkpt lat="35.0599234" lon="32.3409898"><ele>71.7</ele><time>2015-04-25T16:40:07.0000000+00:00</time></trkpt><trkpt lat="35.0598916" lon="32.3410451"><ele>71.3</ele><time>2015-04-25T16:40:08.0000000+00:00</time></trkpt><trkpt lat="35.0598514" lon="32.3410794"><ele>71.1</ele><time>2015-04-25T16:40:09.0000000+00:00</time></trkpt><trkpt lat="35.0598142" lon="32.3411339"><ele>71.0</ele><time>2015-04-25T16:40:10.0000000+00:00</time></trkpt><trkpt lat="35.0597834" lon="32.3411787"><ele>70.5</ele><time>2015-04-25T16:40:11.0000000+00:00</time></trkpt><trkpt lat="35.0597524" lon="32.3412384"><ele>70.7</ele><time>2015-04-25T16:40:12.0000000+00:00</time></trkpt><trkpt lat="35.059729" lon="32.3412937"><ele>70.8</ele><time>2015-04-25T16:40:13.0000000+00:00</time></trkpt><trkpt lat="35.0596656" lon="32.3413667"><ele>70.9</ele><time>2015-04-25T16:40:15.0000000+00:00</time></trkpt><trkpt lat="35.0596132" lon="32.3414377"><ele>71.4</ele><time>2015-04-25T16:40:17.0000000+00:00</time></trkpt><trkpt lat="35.059573" lon="32.3414907"><ele>71.1</ele><time>2015-04-25T16:40:19.0000000+00:00</time></trkpt><trkpt lat="35.0595293" lon="32.3415282"><ele>71.5</ele><time>2015-04-25T16:40:21.0000000+00:00</time></trkpt><trkpt lat="35.0594885" lon="32.3415848"><ele>71.7</ele><time>2015-04-25T16:40:24.0000000+00:00</time></trkpt><trkpt lat="35.0594601" lon="32.3416362"><ele>72.2</ele><time>2015-04-25T16:40:27.0000000+00:00</time></trkpt><trkpt lat="35.0594273" lon="32.3416872"><ele>72.0</ele><time>2015-04-25T16:40:30.0000000+00:00</time></trkpt><trkpt lat="35.0593973" lon="32.3417299"><ele>71.2</ele><time>2015-04-25T16:40:33.0000000+00:00</time></trkpt><trkpt lat="35.0593802" lon="32.3417852"><ele>71.0</ele><time>2015-04-25T16:40:36.0000000+00:00</time></trkpt><trkpt lat="35.0593749" lon="32.3418415"><ele>70.9</ele><time>2015-04-25T16:40:39.0000000+00:00</time></trkpt><trkpt lat="35.0593595" lon="32.3419091"><ele>70.9</ele><time>2015-04-25T16:40:43.0000000+00:00</time></trkpt><trkpt lat="35.0593545" lon="32.3419769"><ele>69.1</ele><time>2015-04-25T16:40:47.0000000+00:00</time></trkpt><trkpt lat="35.0593356" lon="32.3420324"><ele>67.2</ele><time>2015-04-25T16:40:50.0000000+00:00</time></trkpt><trkpt lat="35.0592961" lon="32.3420652"><ele>66.5</ele><time>2015-04-25T16:40:52.0000000+00:00</time></trkpt><trkpt lat="35.0592131" lon="32.3420905"><ele>64.8</ele><time>2015-04-25T16:40:54.0000000+00:00</time></trkpt><trkpt lat="35.0591312" lon="32.3420998"><ele>64.4</ele><time>2015-04-25T16:40:55.0000000+00:00</time></trkpt><trkpt lat="35.0590792" lon="32.3421058"><ele>64.2</ele><time>2015-04-25T16:40:56.0000000+00:00</time></trkpt><trkpt lat="35.0590312" lon="32.3421146"><ele>63.5</ele><time>2015-04-25T16:40:57.0000000+00:00</time></trkpt><trkpt lat="35.0589448" lon="32.3421034"><ele>62.6</ele><time>2015-04-25T16:40:59.0000000+00:00</time></trkpt><trkpt lat="35.0588893" lon="32.3421048"><ele>62.3</ele><time>2015-04-25T16:41:00.0000000+00:00</time></trkpt><trkpt lat="35.0588151" lon="32.3421372"><ele>61.3</ele><time>2015-04-25T16:41:02.0000000+00:00</time></trkpt><trkpt lat="35.0587636" lon="32.3421978"><ele>60.3</ele><time>2015-04-25T16:41:04.0000000+00:00</time></trkpt><trkpt lat="35.0587235" lon="32.3422812"><ele>59.5</ele><time>2015-04-25T16:41:06.0000000+00:00</time></trkpt><trkpt lat="35.0586593" lon="32.3423654"><ele>59.8</ele><time>2015-04-25T16:41:08.0000000+00:00</time></trkpt><trkpt lat="35.0586177" lon="32.3424037"><ele>58.9</ele><time>2015-04-25T16:41:09.0000000+00:00</time></trkpt><trkpt lat="35.0585829" lon="32.3424464"><ele>58.4</ele><time>2015-04-25T16:41:10.0000000+00:00</time></trkpt><trkpt lat="35.0585494" lon="32.3424837"><ele>57.7</ele><time>2015-04-25T16:41:11.0000000+00:00</time></trkpt><trkpt lat="35.0585132" lon="32.3425226"><ele>57.8</ele><time>2015-04-25T16:41:12.0000000+00:00</time></trkpt><trkpt lat="35.0584768" lon="32.3425622"><ele>57.9</ele><time>2015-04-25T16:41:13.0000000+00:00</time></trkpt><trkpt lat="35.0584378" lon="32.3425901"><ele>57.9</ele><time>2015-04-25T16:41:14.0000000+00:00</time></trkpt><trkpt lat="35.058371" lon="32.342658"><ele>57.9</ele><time>2015-04-25T16:41:16.0000000+00:00</time></trkpt><trkpt lat="35.0583346" lon="32.3427006"><ele>58.4</ele><time>2015-04-25T16:41:17.0000000+00:00</time></trkpt><trkpt lat="35.0582861" lon="32.3427251"><ele>58.7</ele><time>2015-04-25T16:41:18.0000000+00:00</time></trkpt><trkpt lat="35.0582225" lon="32.3427925"><ele>58.9</ele><time>2015-04-25T16:41:20.0000000+00:00</time></trkpt><trkpt lat="35.0581877" lon="32.342828"><ele>58.4</ele><time>2015-04-25T16:41:21.0000000+00:00</time></trkpt><trkpt lat="35.0581242" lon="32.3428937"><ele>58.5</ele><time>2015-04-25T16:41:23.0000000+00:00</time></trkpt><trkpt lat="35.0580785" lon="32.342975"><ele>57.6</ele><time>2015-04-25T16:41:25.0000000+00:00</time></trkpt><trkpt lat="35.0580248" lon="32.3430508"><ele>57.6</ele><time>2015-04-25T16:41:27.0000000+00:00</time></trkpt><trkpt lat="35.0579768" lon="32.3431128"><ele>57.8</ele><time>2015-04-25T16:41:29.0000000+00:00</time></trkpt><trkpt lat="35.057937" lon="32.3431914"><ele>58.7</ele><time>2015-04-25T16:41:31.0000000+00:00</time></trkpt><trkpt lat="35.0578948" lon="32.3432934"><ele>58.1</ele><time>2015-04-25T16:41:33.0000000+00:00</time></trkpt><trkpt lat="35.0578694" lon="32.3433474"><ele>58.0</ele><time>2015-04-25T16:41:34.0000000+00:00</time></trkpt><trkpt lat="35.0578398" lon="32.3434004"><ele>57.5</ele><time>2015-04-25T16:41:35.0000000+00:00</time></trkpt><trkpt lat="35.0578109" lon="32.3434482"><ele>57.2</ele><time>2015-04-25T16:41:36.0000000+00:00</time></trkpt><trkpt lat="35.057785" lon="32.3435015"><ele>57.1</ele><time>2015-04-25T16:41:37.0000000+00:00</time></trkpt><trkpt lat="35.0577371" lon="32.3435796"><ele>57.0</ele><time>2015-04-25T16:41:39.0000000+00:00</time></trkpt><trkpt lat="35.057711" lon="32.3436252"><ele>57.4</ele><time>2015-04-25T16:41:40.0000000+00:00</time></trkpt><trkpt lat="35.0576571" lon="32.3437027"><ele>57.3</ele><time>2015-04-25T16:41:42.0000000+00:00</time></trkpt><trkpt lat="35.057603" lon="32.3437796"><ele>56.5</ele><time>2015-04-25T16:41:44.0000000+00:00</time></trkpt><trkpt lat="35.0575567" lon="32.3438668"><ele>56.1</ele><time>2015-04-25T16:41:46.0000000+00:00</time></trkpt><trkpt lat="35.0575156" lon="32.3439612"><ele>56.0</ele><time>2015-04-25T16:41:48.0000000+00:00</time></trkpt><trkpt lat="35.0574941" lon="32.3440608"><ele>55.9</ele><time>2015-04-25T16:41:50.0000000+00:00</time></trkpt><trkpt lat="35.0574623" lon="32.3441501"><ele>55.9</ele><time>2015-04-25T16:41:52.0000000+00:00</time></trkpt><trkpt lat="35.0574277" lon="32.3442501"><ele>55.4</ele><time>2015-04-25T16:41:54.0000000+00:00</time></trkpt><trkpt lat="35.0573994" lon="32.3442956"><ele>55.2</ele><time>2015-04-25T16:41:55.0000000+00:00</time></trkpt><trkpt lat="35.0573656" lon="32.3443354"><ele>55.1</ele><time>2015-04-25T16:41:56.0000000+00:00</time></trkpt><trkpt lat="35.057325" lon="32.34436"><ele>55.0</ele><time>2015-04-25T16:41:57.0000000+00:00</time></trkpt><trkpt lat="35.0572724" lon="32.3444128"><ele>54.7</ele><time>2015-04-25T16:41:59.0000000+00:00</time></trkpt><trkpt lat="35.0572298" lon="32.3444566"><ele>54.9</ele><time>2015-04-25T16:42:01.0000000+00:00</time></trkpt><trkpt lat="35.0571908" lon="32.3444902"><ele>53.9</ele><time>2015-04-25T16:43:03.0000000+00:00</time></trkpt><trkpt lat="35.0571678" lon="32.3445443"><ele>51.4</ele><time>2015-04-25T16:48:48.0000000+00:00</time></trkpt><trkpt lat="35.0571289" lon="32.3446179"><ele>51.6</ele><time>2015-04-25T16:48:50.0000000+00:00</time></trkpt><trkpt lat="35.0570783" lon="32.3447451"><ele>51.1</ele><time>2015-04-25T16:48:52.0000000+00:00</time></trkpt><trkpt lat="35.0570552" lon="32.344799"><ele>51.0</ele><time>2015-04-25T16:48:53.0000000+00:00</time></trkpt><trkpt lat="35.0570335" lon="32.3449025"><ele>50.2</ele><time>2015-04-25T16:48:55.0000000+00:00</time></trkpt><trkpt lat="35.0570247" lon="32.3450074"><ele>49.7</ele><time>2015-04-25T16:48:57.0000000+00:00</time></trkpt><trkpt lat="35.0570289" lon="32.3450719"><ele>48.8</ele><time>2015-04-25T16:48:58.0000000+00:00</time></trkpt><trkpt lat="35.0569841" lon="32.3451763"><ele>48.2</ele><time>2015-04-25T16:49:00.0000000+00:00</time></trkpt><trkpt lat="35.0569305" lon="32.3452539"><ele>47.7</ele><time>2015-04-25T16:49:02.0000000+00:00</time></trkpt><trkpt lat="35.0568962" lon="32.345346"><ele>46.6</ele><time>2015-04-25T16:49:04.0000000+00:00</time></trkpt><trkpt lat="35.0569156" lon="32.3454388"><ele>44.9</ele><time>2015-04-25T16:49:06.0000000+00:00</time></trkpt><trkpt lat="35.0569271" lon="32.3455466"><ele>43.4</ele><time>2015-04-25T16:49:08.0000000+00:00</time></trkpt><trkpt lat="35.0569002" lon="32.3456262"><ele>41.8</ele><time>2015-04-25T16:49:10.0000000+00:00</time></trkpt><trkpt lat="35.056875" lon="32.3456896"><ele>41.1</ele><time>2015-04-25T16:49:12.0000000+00:00</time></trkpt><trkpt lat="35.0568223" lon="32.34574"><ele>40.2</ele><time>2015-04-25T16:49:14.0000000+00:00</time></trkpt><trkpt lat="35.0567755" lon="32.3457469"><ele>40.6</ele><time>2015-04-25T16:49:15.0000000+00:00</time></trkpt><trkpt lat="35.0567235" lon="32.3457292"><ele>40.8</ele><time>2015-04-25T16:49:17.0000000+00:00</time></trkpt><trkpt lat="35.0566782" lon="32.3457129"><ele>40.4</ele><time>2015-04-25T16:49:19.0000000+00:00</time></trkpt><trkpt lat="35.0566265" lon="32.3456891"><ele>39.3</ele><time>2015-04-25T16:49:21.0000000+00:00</time></trkpt><trkpt lat="35.0565404" lon="32.3456297"><ele>38.1</ele><time>2015-04-25T16:49:22.0000000+00:00</time></trkpt><trkpt lat="35.0564952" lon="32.3455989"><ele>37.5</ele><time>2015-04-25T16:49:23.0000000+00:00</time></trkpt><trkpt lat="35.0564554" lon="32.3455537"><ele>36.7</ele><time>2015-04-25T16:49:24.0000000+00:00</time></trkpt><trkpt lat="35.0564135" lon="32.3455147"><ele>35.8</ele><time>2015-04-25T16:49:25.0000000+00:00</time></trkpt><trkpt lat="35.0563632" lon="32.3454972"><ele>36.4</ele><time>2015-04-25T16:49:26.0000000+00:00</time></trkpt><trkpt lat="35.0563159" lon="32.3454745"><ele>36.2</ele><time>2015-04-25T16:49:27.0000000+00:00</time></trkpt><trkpt lat="35.0562796" lon="32.3455225"><ele>37.0</ele><time>2015-04-25T16:49:28.0000000+00:00</time></trkpt><trkpt lat="35.0562574" lon="32.3455901"><ele>37.7</ele><time>2015-04-25T16:49:30.0000000+00:00</time></trkpt><trkpt lat="35.056216" lon="32.345637"><ele>38.0</ele><time>2015-04-25T16:49:33.0000000+00:00</time></trkpt><trkpt lat="35.0561858" lon="32.3457"><ele>37.9</ele><time>2015-04-25T16:49:36.0000000+00:00</time></trkpt><trkpt lat="35.0561718" lon="32.3457527"><ele>37.9</ele><time>2015-04-25T16:49:38.0000000+00:00</time></trkpt><trkpt lat="35.0561619" lon="32.3458078"><ele>38.4</ele><time>2015-04-25T16:49:40.0000000+00:00</time></trkpt><trkpt lat="35.0561633" lon="32.3458657"><ele>39.3</ele><time>2015-04-25T16:49:42.0000000+00:00</time></trkpt><trkpt lat="35.0561685" lon="32.3459213"><ele>39.8</ele><time>2015-04-25T16:49:44.0000000+00:00</time></trkpt><trkpt lat="35.056171" lon="32.3459807"><ele>39.9</ele><time>2015-04-25T16:49:47.0000000+00:00</time></trkpt><trkpt lat="35.0561463" lon="32.3460319"><ele>40.4</ele><time>2015-04-25T16:49:50.0000000+00:00</time></trkpt><trkpt lat="35.0561517" lon="32.3460922"><ele>38.2</ele><time>2015-04-25T16:53:40.0000000+00:00</time></trkpt><trkpt lat="35.0561631" lon="32.346157"><ele>38.0</ele><time>2015-04-25T16:53:42.0000000+00:00</time></trkpt><trkpt lat="35.056188" lon="32.346235"><ele>37.2</ele><time>2015-04-25T16:53:44.0000000+00:00</time></trkpt><trkpt lat="35.0562139" lon="32.3463873"><ele>36.2</ele><time>2015-04-25T16:53:46.0000000+00:00</time></trkpt><trkpt lat="35.0562239" lon="32.3464466"><ele>35.6</ele><time>2015-04-25T16:53:47.0000000+00:00</time></trkpt><trkpt lat="35.056234" lon="32.3465025"><ele>34.8</ele><time>2015-04-25T16:53:48.0000000+00:00</time></trkpt><trkpt lat="35.0562441" lon="32.3465771"><ele>33.8</ele><time>2015-04-25T16:53:49.0000000+00:00</time></trkpt><trkpt lat="35.0562513" lon="32.3466581"><ele>33.4</ele><time>2015-04-25T16:53:50.0000000+00:00</time></trkpt><trkpt lat="35.0562557" lon="32.3467379"><ele>33.2</ele><time>2015-04-25T16:53:51.0000000+00:00</time></trkpt><trkpt lat="35.0562586" lon="32.3468232"><ele>32.0</ele><time>2015-04-25T16:53:52.0000000+00:00</time></trkpt><trkpt lat="35.056255" lon="32.3469168"><ele>31.5</ele><time>2015-04-25T16:53:53.0000000+00:00</time></trkpt><trkpt lat="35.0562435" lon="32.3470092"><ele>31.2</ele><time>2015-04-25T16:53:54.0000000+00:00</time></trkpt><trkpt lat="35.0562257" lon="32.3470694"><ele>31.1</ele><time>2015-04-25T16:53:55.0000000+00:00</time></trkpt><trkpt lat="35.0562032" lon="32.3471343"><ele>31.0</ele><time>2015-04-25T16:53:56.0000000+00:00</time></trkpt><trkpt lat="35.0561824" lon="32.3471932"><ele>31.0</ele><time>2015-04-25T16:53:57.0000000+00:00</time></trkpt><trkpt lat="35.0561472" lon="32.3472437"><ele>30.9</ele><time>2015-04-25T16:53:58.0000000+00:00</time></trkpt><trkpt lat="35.056055" lon="32.347274"><ele>30.2</ele><time>2015-04-25T16:54:00.0000000+00:00</time></trkpt><trkpt lat="35.055969" lon="32.3472608"><ele>29.5</ele><time>2015-04-25T16:54:02.0000000+00:00</time></trkpt><trkpt lat="35.0559134" lon="32.3472279"><ele>29.2</ele><time>2015-04-25T16:54:03.0000000+00:00</time></trkpt><trkpt lat="35.0558732" lon="32.3471972"><ele>29.6</ele><time>2015-04-25T16:54:04.0000000+00:00</time></trkpt><trkpt lat="35.0558021" lon="32.3471364"><ele>29.6</ele><time>2015-04-25T16:54:06.0000000+00:00</time></trkpt><trkpt lat="35.0557638" lon="32.347104"><ele>29.3</ele><time>2015-04-25T16:54:07.0000000+00:00</time></trkpt><trkpt lat="35.0557316" lon="32.3470589"><ele>29.1</ele><time>2015-04-25T16:54:08.0000000+00:00</time></trkpt><trkpt lat="35.0556851" lon="32.3469677"><ele>27.7</ele><time>2015-04-25T16:54:10.0000000+00:00</time></trkpt><trkpt lat="35.0556537" lon="32.3469127"><ele>26.8</ele><time>2015-04-25T16:54:11.0000000+00:00</time></trkpt><trkpt lat="35.0556208" lon="32.3468516"><ele>25.9</ele><time>2015-04-25T16:54:12.0000000+00:00</time></trkpt><trkpt lat="35.0555702" lon="32.346798"><ele>26.4</ele><time>2015-04-25T16:54:13.0000000+00:00</time></trkpt><trkpt lat="35.0555188" lon="32.3467782"><ele>26.7</ele><time>2015-04-25T16:54:14.0000000+00:00</time></trkpt><trkpt lat="35.0554707" lon="32.3467778"><ele>26.3</ele><time>2015-04-25T16:54:15.0000000+00:00</time></trkpt><trkpt lat="35.0553995" lon="32.3468221"><ele>26.5</ele><time>2015-04-25T16:54:17.0000000+00:00</time></trkpt><trkpt lat="35.0553579" lon="32.3468688"><ele>27.3</ele><time>2015-04-25T16:54:19.0000000+00:00</time></trkpt><trkpt lat="35.0553357" lon="32.3469352"><ele>28.0</ele><time>2015-04-25T16:54:21.0000000+00:00</time></trkpt><trkpt lat="35.0553176" lon="32.3470069"><ele>28.5</ele><time>2015-04-25T16:54:23.0000000+00:00</time></trkpt><trkpt lat="35.0552992" lon="32.3470864"><ele>30.3</ele><time>2015-04-25T16:54:25.0000000+00:00</time></trkpt><trkpt lat="35.0552766" lon="32.3471662"><ele>31.3</ele><time>2015-04-25T16:54:27.0000000+00:00</time></trkpt><trkpt lat="35.0552423" lon="32.3472412"><ele>31.8</ele><time>2015-04-25T16:54:29.0000000+00:00</time></trkpt><trkpt lat="35.0552086" lon="32.3473007"><ele>31.9</ele><time>2015-04-25T16:54:31.0000000+00:00</time></trkpt><trkpt lat="35.0551717" lon="32.3473496"><ele>32.4</ele><time>2015-04-25T16:54:33.0000000+00:00</time></trkpt><trkpt lat="35.0551242" lon="32.3473885"><ele>32.8</ele><time>2015-04-25T16:54:35.0000000+00:00</time></trkpt><trkpt lat="35.0550641" lon="32.3474245"><ele>32.9</ele><time>2015-04-25T16:54:37.0000000+00:00</time></trkpt><trkpt lat="35.0550093" lon="32.3474617"><ele>32.9</ele><time>2015-04-25T16:54:39.0000000+00:00</time></trkpt><trkpt lat="35.054955" lon="32.3474916"><ele>33.4</ele><time>2015-04-25T16:54:41.0000000+00:00</time></trkpt><trkpt lat="35.0549062" lon="32.3475155"><ele>33.8</ele><time>2015-04-25T16:54:43.0000000+00:00</time></trkpt><trkpt lat="35.0548473" lon="32.347543"><ele>34.1</ele><time>2015-04-25T16:54:45.0000000+00:00</time></trkpt><trkpt lat="35.054785" lon="32.3475654"><ele>34.5</ele><time>2015-04-25T16:54:47.0000000+00:00</time></trkpt><trkpt lat="35.0547187" lon="32.3475856"><ele>34.8</ele><time>2015-04-25T16:54:49.0000000+00:00</time></trkpt><trkpt lat="35.054658" lon="32.3476012"><ele>34.9</ele><time>2015-04-25T16:54:51.0000000+00:00</time></trkpt><trkpt lat="35.0545961" lon="32.3476096"><ele>33.7</ele><time>2015-04-25T16:54:53.0000000+00:00</time></trkpt><trkpt lat="35.0545418" lon="32.3476147"><ele>32.9</ele><time>2015-04-25T16:54:55.0000000+00:00</time></trkpt><trkpt lat="35.0544973" lon="32.347623"><ele>33.2</ele><time>2015-04-25T16:54:59.0000000+00:00</time></trkpt><trkpt lat="35.0544458" lon="32.3476281"><ele>34.4</ele><time>2015-04-25T16:55:03.0000000+00:00</time></trkpt><trkpt lat="35.054396" lon="32.347631"><ele>35.4</ele><time>2015-04-25T16:55:06.0000000+00:00</time></trkpt><trkpt lat="35.0543407" lon="32.3476384"><ele>36.6</ele><time>2015-04-25T16:55:09.0000000+00:00</time></trkpt><trkpt lat="35.0542833" lon="32.3476559"><ele>36.9</ele><time>2015-04-25T16:55:12.0000000+00:00</time></trkpt><trkpt lat="35.0542232" lon="32.3476739"><ele>36.4</ele><time>2015-04-25T16:55:15.0000000+00:00</time></trkpt><trkpt lat="35.0541615" lon="32.3476901"><ele>36.9</ele><time>2015-04-25T16:55:18.0000000+00:00</time></trkpt><trkpt lat="35.0541061" lon="32.347717"><ele>37.2</ele><time>2015-04-25T16:55:21.0000000+00:00</time></trkpt><trkpt lat="35.0540532" lon="32.3477405"><ele>37.8</ele><time>2015-04-25T16:55:24.0000000+00:00</time></trkpt><trkpt lat="35.0539995" lon="32.3477774"><ele>38.7</ele><time>2015-04-25T16:55:27.0000000+00:00</time></trkpt><trkpt lat="35.0539508" lon="32.3478171"><ele>39.4</ele><time>2015-04-25T16:55:30.0000000+00:00</time></trkpt><trkpt lat="35.0539225" lon="32.3478603"><ele>39.1</ele><time>2015-04-25T16:55:43.0000000+00:00</time></trkpt><trkpt lat="35.053891" lon="32.3479016"><ele>39.0</ele><time>2015-04-25T16:55:45.0000000+00:00</time></trkpt><trkpt lat="35.0538404" lon="32.347986"><ele>39.4</ele><time>2015-04-25T16:55:47.0000000+00:00</time></trkpt><trkpt lat="35.0538144" lon="32.3480319"><ele>39.7</ele><time>2015-04-25T16:55:48.0000000+00:00</time></trkpt><trkpt lat="35.0537885" lon="32.3480769"><ele>39.3</ele><time>2015-04-25T16:55:49.0000000+00:00</time></trkpt><trkpt lat="35.0537627" lon="32.3481223"><ele>39.6</ele><time>2015-04-25T16:55:50.0000000+00:00</time></trkpt><trkpt lat="35.0537369" lon="32.3481672"><ele>39.8</ele><time>2015-04-25T16:55:51.0000000+00:00</time></trkpt><trkpt lat="35.0536847" lon="32.3482565"><ele>40.1</ele><time>2015-04-25T16:55:53.0000000+00:00</time></trkpt><trkpt lat="35.0536591" lon="32.348302"><ele>40.0</ele><time>2015-04-25T16:55:54.0000000+00:00</time></trkpt><trkpt lat="35.0536058" lon="32.3483902"><ele>38.7</ele><time>2015-04-25T16:55:56.0000000+00:00</time></trkpt><trkpt lat="35.0535794" lon="32.3484349"><ele>38.3</ele><time>2015-04-25T16:55:57.0000000+00:00</time></trkpt><trkpt lat="35.0535132" lon="32.3485333"><ele>38.5</ele><time>2015-04-25T16:55:59.0000000+00:00</time></trkpt><trkpt lat="35.0534856" lon="32.34858"><ele>39.2</ele><time>2015-04-25T16:56:00.0000000+00:00</time></trkpt><trkpt lat="35.0534594" lon="32.3486301"><ele>39.6</ele><time>2015-04-25T16:56:01.0000000+00:00</time></trkpt><trkpt lat="35.0534255" lon="32.3486783"><ele>39.3</ele><time>2015-04-25T16:56:02.0000000+00:00</time></trkpt><trkpt lat="35.0533772" lon="32.3487713"><ele>39.0</ele><time>2015-04-25T16:56:04.0000000+00:00</time></trkpt><trkpt lat="35.0533307" lon="32.3487992"><ele>39.0</ele><time>2015-04-25T16:56:05.0000000+00:00</time></trkpt><trkpt lat="35.0532902" lon="32.3488351"><ele>39.5</ele><time>2015-04-25T16:56:06.0000000+00:00</time></trkpt><trkpt lat="35.0532451" lon="32.3488964"><ele>39.8</ele><time>2015-04-25T16:56:08.0000000+00:00</time></trkpt><trkpt lat="35.053198" lon="32.3489766"><ele>39.4</ele><time>2015-04-25T16:56:10.0000000+00:00</time></trkpt><trkpt lat="35.0531439" lon="32.3490618"><ele>39.8</ele><time>2015-04-25T16:56:12.0000000+00:00</time></trkpt><trkpt lat="35.0530983" lon="32.3491341"><ele>39.9</ele><time>2015-04-25T16:56:14.0000000+00:00</time></trkpt><trkpt lat="35.0530492" lon="32.3492092"><ele>39.9</ele><time>2015-04-25T16:56:16.0000000+00:00</time></trkpt><trkpt lat="35.0530056" lon="32.3492777"><ele>39.2</ele><time>2015-04-25T16:56:18.0000000+00:00</time></trkpt><trkpt lat="35.0529487" lon="32.3493592"><ele>39.2</ele><time>2015-04-25T16:56:20.0000000+00:00</time></trkpt><trkpt lat="35.0528976" lon="32.3494339"><ele>40.3</ele><time>2015-04-25T16:56:22.0000000+00:00</time></trkpt><trkpt lat="35.0528481" lon="32.3495095"><ele>40.8</ele><time>2015-04-25T16:56:24.0000000+00:00</time></trkpt><trkpt lat="35.0527994" lon="32.3495869"><ele>40.1</ele><time>2015-04-25T16:56:26.0000000+00:00</time></trkpt><trkpt lat="35.0527518" lon="32.3496672"><ele>40.5</ele><time>2015-04-25T16:56:28.0000000+00:00</time></trkpt><trkpt lat="35.0527054" lon="32.3497486"><ele>40.3</ele><time>2015-04-25T16:56:30.0000000+00:00</time></trkpt><trkpt lat="35.0526555" lon="32.3498286"><ele>40.0</ele><time>2015-04-25T16:56:32.0000000+00:00</time></trkpt><trkpt lat="35.0526048" lon="32.3499098"><ele>39.5</ele><time>2015-04-25T16:56:34.0000000+00:00</time></trkpt><trkpt lat="35.0525547" lon="32.3499894"><ele>39.1</ele><time>2015-04-25T16:56:36.0000000+00:00</time></trkpt><trkpt lat="35.0525034" lon="32.3500647"><ele>38.5</ele><time>2015-04-25T16:56:38.0000000+00:00</time></trkpt><trkpt lat="35.0524395" lon="32.3501461"><ele>38.6</ele><time>2015-04-25T16:56:40.0000000+00:00</time></trkpt><trkpt lat="35.052408" lon="32.350193"><ele>38.7</ele><time>2015-04-25T16:56:41.0000000+00:00</time></trkpt><trkpt lat="35.0523483" lon="32.3502802"><ele>38.6</ele><time>2015-04-25T16:56:43.0000000+00:00</time></trkpt><trkpt lat="35.0523187" lon="32.3503275"><ele>38.8</ele><time>2015-04-25T16:56:44.0000000+00:00</time></trkpt><trkpt lat="35.052272" lon="32.3504128"><ele>37.4</ele><time>2015-04-25T16:56:46.0000000+00:00</time></trkpt><trkpt lat="35.05222" lon="32.3504883"><ele>36.0</ele><time>2015-04-25T16:56:48.0000000+00:00</time></trkpt><trkpt lat="35.0521868" lon="32.3505356"><ele>35.5</ele><time>2015-04-25T16:56:49.0000000+00:00</time></trkpt><trkpt lat="35.0521361" lon="32.3506211"><ele>35.1</ele><time>2015-04-25T16:56:51.0000000+00:00</time></trkpt><trkpt lat="35.0521" lon="32.3506845"><ele>32.7</ele><time>2015-04-25T16:56:53.0000000+00:00</time></trkpt><trkpt lat="35.0520742" lon="32.3507296"><ele>31.8</ele><time>2015-04-25T16:56:54.0000000+00:00</time></trkpt><trkpt lat="35.0520215" lon="32.3508143"><ele>31.2</ele><time>2015-04-25T16:56:56.0000000+00:00</time></trkpt><trkpt lat="35.0519824" lon="32.3508581"><ele>31.5</ele><time>2015-04-25T16:56:57.0000000+00:00</time></trkpt><trkpt lat="35.0519555" lon="32.3509081"><ele>31.7</ele><time>2015-04-25T16:56:58.0000000+00:00</time></trkpt><trkpt lat="35.0519182" lon="32.3509492"><ele>32.3</ele><time>2015-04-25T16:56:59.0000000+00:00</time></trkpt><trkpt lat="35.0518856" lon="32.351002"><ele>32.6</ele><time>2015-04-25T16:57:00.0000000+00:00</time></trkpt><trkpt lat="35.0518545" lon="32.3510466"><ele>32.8</ele><time>2015-04-25T16:57:01.0000000+00:00</time></trkpt><trkpt lat="35.0518253" lon="32.3510925"><ele>32.4</ele><time>2015-04-25T16:57:02.0000000+00:00</time></trkpt><trkpt lat="35.0517692" lon="32.3511782"><ele>32.8</ele><time>2015-04-25T16:57:04.0000000+00:00</time></trkpt><trkpt lat="35.0517443" lon="32.3512242"><ele>32.4</ele><time>2015-04-25T16:57:05.0000000+00:00</time></trkpt><trkpt lat="35.0517081" lon="32.3512906"><ele>31.0</ele><time>2015-04-25T16:57:07.0000000+00:00</time></trkpt><trkpt lat="35.0516814" lon="32.3513398"><ele>31.0</ele><time>2015-04-25T16:57:08.0000000+00:00</time></trkpt><trkpt lat="35.0516215" lon="32.3514188"><ele>31.7</ele><time>2015-04-25T16:57:10.0000000+00:00</time></trkpt><trkpt lat="35.0515708" lon="32.3514907"><ele>31.6</ele><time>2015-04-25T16:57:12.0000000+00:00</time></trkpt><trkpt lat="35.051526" lon="32.3515652"><ele>32.1</ele><time>2015-04-25T16:57:14.0000000+00:00</time></trkpt><trkpt lat="35.0514788" lon="32.3516308"><ele>32.7</ele><time>2015-04-25T16:57:16.0000000+00:00</time></trkpt><trkpt lat="35.0514299" lon="32.3516966"><ele>33.4</ele><time>2015-04-25T16:57:18.0000000+00:00</time></trkpt><trkpt lat="35.0513833" lon="32.3517644"><ele>33.8</ele><time>2015-04-25T16:57:20.0000000+00:00</time></trkpt><trkpt lat="35.0513344" lon="32.3518278"><ele>33.1</ele><time>2015-04-25T16:57:22.0000000+00:00</time></trkpt><trkpt lat="35.0512818" lon="32.3518894"><ele>33.0</ele><time>2015-04-25T16:57:24.0000000+00:00</time></trkpt><trkpt lat="35.0512248" lon="32.3519395"><ele>32.5</ele><time>2015-04-25T16:57:25.0000000+00:00</time></trkpt><trkpt lat="35.0511914" lon="32.3519777"><ele>31.7</ele><time>2015-04-25T16:57:26.0000000+00:00</time></trkpt><trkpt lat="35.051148" lon="32.3520111"><ele>32.3</ele><time>2015-04-25T16:57:27.0000000+00:00</time></trkpt><trkpt lat="35.0511015" lon="32.3520646"><ele>32.6</ele><time>2015-04-25T16:57:28.0000000+00:00</time></trkpt><trkpt lat="35.0510605" lon="32.3521126"><ele>32.8</ele><time>2015-04-25T16:57:29.0000000+00:00</time></trkpt><trkpt lat="35.0510126" lon="32.3521711"><ele>32.4</ele><time>2015-04-25T16:57:30.0000000+00:00</time></trkpt><trkpt lat="35.0509647" lon="32.3522224"><ele>32.1</ele><time>2015-04-25T16:57:31.0000000+00:00</time></trkpt><trkpt lat="35.0509117" lon="32.3522902"><ele>31.0</ele><time>2015-04-25T16:57:32.0000000+00:00</time></trkpt><trkpt lat="35.0508492" lon="32.352357"><ele>30.5</ele><time>2015-04-25T16:57:33.0000000+00:00</time></trkpt><trkpt lat="35.0507976" lon="32.3524278"><ele>29.7</ele><time>2015-04-25T16:57:34.0000000+00:00</time></trkpt><trkpt lat="35.0507502" lon="32.3525009"><ele>29.3</ele><time>2015-04-25T16:57:35.0000000+00:00</time></trkpt><trkpt lat="35.0507109" lon="32.3525705"><ele>29.1</ele><time>2015-04-25T16:57:36.0000000+00:00</time></trkpt><trkpt lat="35.0506819" lon="32.3526393"><ele>29.5</ele><time>2015-04-25T16:57:37.0000000+00:00</time></trkpt><trkpt lat="35.0506541" lon="32.3526925"><ele>29.7</ele><time>2015-04-25T16:57:38.0000000+00:00</time></trkpt><trkpt lat="35.0506058" lon="32.3527799"><ele>31.1</ele><time>2015-04-25T16:57:40.0000000+00:00</time></trkpt><trkpt lat="35.0505834" lon="32.3528773"><ele>31.2</ele><time>2015-04-25T16:57:42.0000000+00:00</time></trkpt><trkpt lat="35.0505536" lon="32.3529608"><ele>31.0</ele><time>2015-04-25T16:57:44.0000000+00:00</time></trkpt><trkpt lat="35.0504972" lon="32.3530291"><ele>30.9</ele><time>2015-04-25T16:57:46.0000000+00:00</time></trkpt><trkpt lat="35.0504372" lon="32.3530889"><ele>30.4</ele><time>2015-04-25T16:57:48.0000000+00:00</time></trkpt><trkpt lat="35.0503728" lon="32.3531425"><ele>29.6</ele><time>2015-04-25T16:57:50.0000000+00:00</time></trkpt><trkpt lat="35.0503065" lon="32.3531909"><ele>29.8</ele><time>2015-04-25T16:57:52.0000000+00:00</time></trkpt><trkpt lat="35.0502397" lon="32.3532412"><ele>30.4</ele><time>2015-04-25T16:57:54.0000000+00:00</time></trkpt><trkpt lat="35.0501747" lon="32.3532837"><ele>30.8</ele><time>2015-04-25T16:57:56.0000000+00:00</time></trkpt><trkpt lat="35.0501073" lon="32.3533235"><ele>30.9</ele><time>2015-04-25T16:57:58.0000000+00:00</time></trkpt><trkpt lat="35.0500458" lon="32.3533605"><ele>30.9</ele><time>2015-04-25T16:58:00.0000000+00:00</time></trkpt><trkpt lat="35.0499801" lon="32.3533947"><ele>30.9</ele><time>2015-04-25T16:58:02.0000000+00:00</time></trkpt><trkpt lat="35.0499234" lon="32.3534344"><ele>30.2</ele><time>2015-04-25T16:58:04.0000000+00:00</time></trkpt><trkpt lat="35.0498656" lon="32.3534741"><ele>29.5</ele><time>2015-04-25T16:58:06.0000000+00:00</time></trkpt><trkpt lat="35.0498077" lon="32.3535196"><ele>29.1</ele><time>2015-04-25T16:58:08.0000000+00:00</time></trkpt><trkpt lat="35.0497437" lon="32.3535611"><ele>28.2</ele><time>2015-04-25T16:58:10.0000000+00:00</time></trkpt><trkpt lat="35.0496807" lon="32.3536019"><ele>28.0</ele><time>2015-04-25T16:58:12.0000000+00:00</time></trkpt><trkpt lat="35.0496101" lon="32.3536462"><ele>27.4</ele><time>2015-04-25T16:58:14.0000000+00:00</time></trkpt><trkpt lat="35.0495417" lon="32.3536906"><ele>25.8</ele><time>2015-04-25T16:58:16.0000000+00:00</time></trkpt><trkpt lat="35.0494716" lon="32.3537389"><ele>26.6</ele><time>2015-04-25T16:58:18.0000000+00:00</time></trkpt><trkpt lat="35.0494308" lon="32.353767"><ele>26.8</ele><time>2015-04-25T16:58:19.0000000+00:00</time></trkpt><trkpt lat="35.0493496" lon="32.3538219"><ele>26.9</ele><time>2015-04-25T16:58:21.0000000+00:00</time></trkpt><trkpt lat="35.0492752" lon="32.3538741"><ele>27.2</ele><time>2015-04-25T16:58:23.0000000+00:00</time></trkpt><trkpt lat="35.0491993" lon="32.3539302"><ele>27.0</ele><time>2015-04-25T16:58:25.0000000+00:00</time></trkpt><trkpt lat="35.0491234" lon="32.3539881"><ele>26.9</ele><time>2015-04-25T16:58:27.0000000+00:00</time></trkpt><trkpt lat="35.0490366" lon="32.3540486"><ele>27.4</ele><time>2015-04-25T16:58:29.0000000+00:00</time></trkpt><trkpt lat="35.0489607" lon="32.3541014"><ele>27.8</ele><time>2015-04-25T16:58:31.0000000+00:00</time></trkpt><trkpt lat="35.0489203" lon="32.3541281"><ele>27.9</ele><time>2015-04-25T16:58:32.0000000+00:00</time></trkpt><trkpt lat="35.0488482" lon="32.3541935"><ele>27.9</ele><time>2015-04-25T16:58:34.0000000+00:00</time></trkpt><trkpt lat="35.0487746" lon="32.3542448"><ele>27.9</ele><time>2015-04-25T16:58:36.0000000+00:00</time></trkpt><trkpt lat="35.0487074" lon="32.3543107"><ele>27.9</ele><time>2015-04-25T16:58:38.0000000+00:00</time></trkpt><trkpt lat="35.0486376" lon="32.3543606"><ele>27.9</ele><time>2015-04-25T16:58:40.0000000+00:00</time></trkpt><trkpt lat="35.048572" lon="32.3544235"><ele>27.2</ele><time>2015-04-25T16:58:42.0000000+00:00</time></trkpt><trkpt lat="35.0485005" lon="32.3544794"><ele>27.0</ele><time>2015-04-25T16:58:44.0000000+00:00</time></trkpt><trkpt lat="35.0484312" lon="32.3545328"><ele>26.9</ele><time>2015-04-25T16:58:46.0000000+00:00</time></trkpt><trkpt lat="35.0483661" lon="32.3545924"><ele>26.9</ele><time>2015-04-25T16:58:48.0000000+00:00</time></trkpt><trkpt lat="35.0482983" lon="32.3546522"><ele>26.9</ele><time>2015-04-25T16:58:50.0000000+00:00</time></trkpt><trkpt lat="35.0482264" lon="32.3547127"><ele>26.9</ele><time>2015-04-25T16:58:52.0000000+00:00</time></trkpt><trkpt lat="35.0481594" lon="32.3547752"><ele>26.2</ele><time>2015-04-25T16:58:54.0000000+00:00</time></trkpt><trkpt lat="35.0480915" lon="32.3548307"><ele>26.0</ele><time>2015-04-25T16:58:56.0000000+00:00</time></trkpt><trkpt lat="35.0480242" lon="32.3548824"><ele>25.2</ele><time>2015-04-25T16:58:58.0000000+00:00</time></trkpt><trkpt lat="35.0479572" lon="32.3549364"><ele>25.0</ele><time>2015-04-25T16:59:00.0000000+00:00</time></trkpt><trkpt lat="35.0478945" lon="32.3549932"><ele>25.4</ele><time>2015-04-25T16:59:02.0000000+00:00</time></trkpt><trkpt lat="35.0478281" lon="32.3550496"><ele>25.8</ele><time>2015-04-25T16:59:04.0000000+00:00</time></trkpt><trkpt lat="35.0477706" lon="32.3551089"><ele>25.1</ele><time>2015-04-25T16:59:06.0000000+00:00</time></trkpt><trkpt lat="35.0477086" lon="32.3551656"><ele>25.0</ele><time>2015-04-25T16:59:08.0000000+00:00</time></trkpt><trkpt lat="35.0476405" lon="32.3552166"><ele>24.4</ele><time>2015-04-25T16:59:10.0000000+00:00</time></trkpt><trkpt lat="35.0475679" lon="32.3552677"><ele>24.1</ele><time>2015-04-25T16:59:12.0000000+00:00</time></trkpt><trkpt lat="35.0474957" lon="32.3553221"><ele>24.0</ele><time>2015-04-25T16:59:14.0000000+00:00</time></trkpt><trkpt lat="35.0474003" lon="32.3553786"><ele>23.9</ele><time>2015-04-25T16:59:16.0000000+00:00</time></trkpt><trkpt lat="35.0473518" lon="32.3554067"><ele>23.4</ele><time>2015-04-25T16:59:17.0000000+00:00</time></trkpt><trkpt lat="35.0472916" lon="32.3554472"><ele>23.2</ele><time>2015-04-25T16:59:18.0000000+00:00</time></trkpt><trkpt lat="35.0472374" lon="32.3554835"><ele>22.6</ele><time>2015-04-25T16:59:19.0000000+00:00</time></trkpt><trkpt lat="35.0471637" lon="32.3555242"><ele>22.2</ele><time>2015-04-25T16:59:20.0000000+00:00</time></trkpt><trkpt lat="35.0471043" lon="32.3555637"><ele>21.6</ele><time>2015-04-25T16:59:21.0000000+00:00</time></trkpt><trkpt lat="35.0470522" lon="32.3556415"><ele>21.3</ele><time>2015-04-25T16:59:22.0000000+00:00</time></trkpt><trkpt lat="35.0469999" lon="32.3557032"><ele>21.1</ele><time>2015-04-25T16:59:23.0000000+00:00</time></trkpt><trkpt lat="35.0470122" lon="32.3557928"><ele>21.5</ele><time>2015-04-25T16:59:24.0000000+00:00</time></trkpt><trkpt lat="35.0469992" lon="32.3558742"><ele>21.7</ele><time>2015-04-25T16:59:25.0000000+00:00</time></trkpt><trkpt lat="35.0470113" lon="32.3559392"><ele>21.8</ele><time>2015-04-25T16:59:26.0000000+00:00</time></trkpt><trkpt lat="35.0470123" lon="32.3560091"><ele>22.4</ele><time>2015-04-25T16:59:27.0000000+00:00</time></trkpt><trkpt lat="35.0470204" lon="32.3561054"><ele>22.8</ele><time>2015-04-25T16:59:29.0000000+00:00</time></trkpt><trkpt lat="35.0470177" lon="32.3561788"><ele>22.9</ele><time>2015-04-25T16:59:31.0000000+00:00</time></trkpt><trkpt lat="35.0470388" lon="32.3562609"><ele>23.4</ele><time>2015-04-25T16:59:34.0000000+00:00</time></trkpt><trkpt lat="35.0470393" lon="32.3563487"><ele>23.8</ele><time>2015-04-25T16:59:36.0000000+00:00</time></trkpt><trkpt lat="35.0470406" lon="32.3564415"><ele>24.1</ele><time>2015-04-25T16:59:38.0000000+00:00</time></trkpt><trkpt lat="35.0470408" lon="32.3565278"><ele>24.0</ele><time>2015-04-25T16:59:40.0000000+00:00</time></trkpt><trkpt lat="35.047036" lon="32.356603"><ele>24.4</ele><time>2015-04-25T16:59:42.0000000+00:00</time></trkpt><trkpt lat="35.0470277" lon="32.3566793"><ele>24.8</ele><time>2015-04-25T16:59:44.0000000+00:00</time></trkpt><trkpt lat="35.0470183" lon="32.3567556"><ele>24.9</ele><time>2015-04-25T16:59:46.0000000+00:00</time></trkpt><trkpt lat="35.0470064" lon="32.3568299"><ele>24.9</ele><time>2015-04-25T16:59:48.0000000+00:00</time></trkpt><trkpt lat="35.0469889" lon="32.3569072"><ele>24.9</ele><time>2015-04-25T16:59:50.0000000+00:00</time></trkpt><trkpt lat="35.0469667" lon="32.3569859"><ele>25.4</ele><time>2015-04-25T16:59:52.0000000+00:00</time></trkpt><trkpt lat="35.0469397" lon="32.3570601"><ele>26.1</ele><time>2015-04-25T16:59:54.0000000+00:00</time></trkpt><trkpt lat="35.0469107" lon="32.3571298"><ele>26.0</ele><time>2015-04-25T16:59:56.0000000+00:00</time></trkpt><trkpt lat="35.046877" lon="32.357198"><ele>25.9</ele><time>2015-04-25T16:59:58.0000000+00:00</time></trkpt><trkpt lat="35.0468352" lon="32.3572621"><ele>25.9</ele><time>2015-04-25T17:00:00.0000000+00:00</time></trkpt><trkpt lat="35.046791" lon="32.3573196"><ele>25.9</ele><time>2015-04-25T17:00:02.0000000+00:00</time></trkpt><trkpt lat="35.046747" lon="32.3573712"><ele>25.9</ele><time>2015-04-25T17:00:04.0000000+00:00</time></trkpt><trkpt lat="35.0467017" lon="32.3574262"><ele>25.9</ele><time>2015-04-25T17:00:06.0000000+00:00</time></trkpt><trkpt lat="35.0466513" lon="32.3574808"><ele>25.9</ele><time>2015-04-25T17:00:08.0000000+00:00</time></trkpt><trkpt lat="35.0466003" lon="32.3575349"><ele>25.4</ele><time>2015-04-25T17:00:10.0000000+00:00</time></trkpt><trkpt lat="35.0465376" lon="32.3576006"><ele>24.6</ele><time>2015-04-25T17:00:12.0000000+00:00</time></trkpt><trkpt lat="35.0464541" lon="32.3576693"><ele>23.6</ele><time>2015-04-25T17:00:14.0000000+00:00</time></trkpt><trkpt lat="35.0464073" lon="32.3577018"><ele>22.8</ele><time>2015-04-25T17:00:15.0000000+00:00</time></trkpt><trkpt lat="35.0463624" lon="32.3577364"><ele>22.3</ele><time>2015-04-25T17:00:16.0000000+00:00</time></trkpt><trkpt lat="35.0463202" lon="32.3577676"><ele>22.1</ele><time>2015-04-25T17:00:17.0000000+00:00</time></trkpt><trkpt lat="35.0462766" lon="32.3578029"><ele>22.0</ele><time>2015-04-25T17:00:18.0000000+00:00</time></trkpt><trkpt lat="35.0462339" lon="32.3578346"><ele>21.5</ele><time>2015-04-25T17:00:19.0000000+00:00</time></trkpt><trkpt lat="35.0461811" lon="32.3578638"><ele>21.2</ele><time>2015-04-25T17:00:20.0000000+00:00</time></trkpt><trkpt lat="35.0461314" lon="32.3578986"><ele>21.1</ele><time>2015-04-25T17:00:21.0000000+00:00</time></trkpt><trkpt lat="35.0460822" lon="32.3579346"><ele>20.5</ele><time>2015-04-25T17:00:22.0000000+00:00</time></trkpt><trkpt lat="35.046035" lon="32.3579739"><ele>20.2</ele><time>2015-04-25T17:00:23.0000000+00:00</time></trkpt><trkpt lat="35.045982" lon="32.3580118"><ele>20.1</ele><time>2015-04-25T17:00:24.0000000+00:00</time></trkpt><trkpt lat="35.045932" lon="32.3580449"><ele>20.0</ele><time>2015-04-25T17:00:25.0000000+00:00</time></trkpt><trkpt lat="35.0458732" lon="32.3580812"><ele>20.0</ele><time>2015-04-25T17:00:26.0000000+00:00</time></trkpt><trkpt lat="35.0458199" lon="32.3581111"><ele>19.9</ele><time>2015-04-25T17:00:27.0000000+00:00</time></trkpt><trkpt lat="35.0457586" lon="32.3581482"><ele>19.4</ele><time>2015-04-25T17:00:28.0000000+00:00</time></trkpt><trkpt lat="35.0456992" lon="32.3581853"><ele>18.7</ele><time>2015-04-25T17:00:29.0000000+00:00</time></trkpt><trkpt lat="35.0456423" lon="32.3582442"><ele>18.3</ele><time>2015-04-25T17:00:30.0000000+00:00</time></trkpt><trkpt lat="35.0455868" lon="32.3583009"><ele>17.6</ele><time>2015-04-25T17:00:31.0000000+00:00</time></trkpt><trkpt lat="35.0455661" lon="32.3583906"><ele>17.8</ele><time>2015-04-25T17:00:32.0000000+00:00</time></trkpt><trkpt lat="35.0455322" lon="32.3584579"><ele>17.9</ele><time>2015-04-25T17:00:33.0000000+00:00</time></trkpt><trkpt lat="35.0455043" lon="32.3585398"><ele>18.4</ele><time>2015-04-25T17:00:34.0000000+00:00</time></trkpt><trkpt lat="35.0454726" lon="32.3586099"><ele>19.2</ele><time>2015-04-25T17:00:35.0000000+00:00</time></trkpt><trkpt lat="35.0454316" lon="32.3586748"><ele>19.5</ele><time>2015-04-25T17:00:36.0000000+00:00</time></trkpt><trkpt lat="35.0453933" lon="32.358745"><ele>19.7</ele><time>2015-04-25T17:00:37.0000000+00:00</time></trkpt><trkpt lat="35.0453625" lon="32.3588076"><ele>20.3</ele><time>2015-04-25T17:00:38.0000000+00:00</time></trkpt><trkpt lat="35.0453326" lon="32.3588735"><ele>21.1</ele><time>2015-04-25T17:00:39.0000000+00:00</time></trkpt><trkpt lat="35.0452828" lon="32.3589561"><ele>22.2</ele><time>2015-04-25T17:00:41.0000000+00:00</time></trkpt><trkpt lat="35.0452611" lon="32.3590287"><ele>22.8</ele><time>2015-04-25T17:00:43.0000000+00:00</time></trkpt><trkpt lat="35.045221" lon="32.3590802"><ele>23.4</ele><time>2015-04-25T17:00:45.0000000+00:00</time></trkpt><trkpt lat="35.0451932" lon="32.3591444"><ele>23.8</ele><time>2015-04-25T17:00:47.0000000+00:00</time></trkpt><trkpt lat="35.0451594" lon="32.3592083"><ele>24.6</ele><time>2015-04-25T17:00:49.0000000+00:00</time></trkpt><trkpt lat="35.045135" lon="32.3592696"><ele>24.9</ele><time>2015-04-25T17:00:51.0000000+00:00</time></trkpt><trkpt lat="35.0451177" lon="32.3593284"><ele>25.4</ele><time>2015-04-25T17:00:53.0000000+00:00</time></trkpt><trkpt lat="35.0451025" lon="32.3594103"><ele>25.4</ele><time>2015-04-25T17:00:56.0000000+00:00</time></trkpt><trkpt lat="35.0450837" lon="32.3594635"><ele>25.8</ele><time>2015-04-25T17:00:58.0000000+00:00</time></trkpt><trkpt lat="35.045053" lon="32.3595397"><ele>25.9</ele><time>2015-04-25T17:01:01.0000000+00:00</time></trkpt><trkpt lat="35.0450248" lon="32.3595902"><ele>26.7</ele><time>2015-04-25T17:01:03.0000000+00:00</time></trkpt><trkpt lat="35.0449977" lon="32.3596476"><ele>26.9</ele><time>2015-04-25T17:01:05.0000000+00:00</time></trkpt><trkpt lat="35.0449722" lon="32.3597044"><ele>26.9</ele><time>2015-04-25T17:01:07.0000000+00:00</time></trkpt><trkpt lat="35.0449486" lon="32.3597627"><ele>26.9</ele><time>2015-04-25T17:01:09.0000000+00:00</time></trkpt><trkpt lat="35.0449227" lon="32.3598232"><ele>27.4</ele><time>2015-04-25T17:01:11.0000000+00:00</time></trkpt><trkpt lat="35.0448932" lon="32.3598805"><ele>27.8</ele><time>2015-04-25T17:01:13.0000000+00:00</time></trkpt><trkpt lat="35.0448715" lon="32.3599352"><ele>27.9</ele><time>2015-04-25T17:01:15.0000000+00:00</time></trkpt><trkpt lat="35.0448424" lon="32.3600082"><ele>27.9</ele><time>2015-04-25T17:01:18.0000000+00:00</time></trkpt><trkpt lat="35.0448126" lon="32.3600882"><ele>27.9</ele><time>2015-04-25T17:01:20.0000000+00:00</time></trkpt><trkpt lat="35.0447862" lon="32.3601648"><ele>27.9</ele><time>2015-04-25T17:01:22.0000000+00:00</time></trkpt><trkpt lat="35.0447631" lon="32.3602375"><ele>27.9</ele><time>2015-04-25T17:01:24.0000000+00:00</time></trkpt><trkpt lat="35.0447378" lon="32.3603111"><ele>27.9</ele><time>2015-04-25T17:01:26.0000000+00:00</time></trkpt><trkpt lat="35.0447124" lon="32.3603884"><ele>28.4</ele><time>2015-04-25T17:01:28.0000000+00:00</time></trkpt><trkpt lat="35.0446862" lon="32.3604627"><ele>28.8</ele><time>2015-04-25T17:01:30.0000000+00:00</time></trkpt><trkpt lat="35.0446538" lon="32.3605294"><ele>29.4</ele><time>2015-04-25T17:01:32.0000000+00:00</time></trkpt><trkpt lat="35.0446286" lon="32.3605989"><ele>29.3</ele><time>2015-04-25T17:01:34.0000000+00:00</time></trkpt><trkpt lat="35.0446048" lon="32.3606697"><ele>29.0</ele><time>2015-04-25T17:01:36.0000000+00:00</time></trkpt><trkpt lat="35.0445831" lon="32.3607289"><ele>29.2</ele><time>2015-04-25T17:01:38.0000000+00:00</time></trkpt><trkpt lat="35.0445627" lon="32.3607876"><ele>29.5</ele><time>2015-04-25T17:01:40.0000000+00:00</time></trkpt><trkpt lat="35.0445403" lon="32.3608568"><ele>29.8</ele><time>2015-04-25T17:01:42.0000000+00:00</time></trkpt><trkpt lat="35.0445083" lon="32.3609351"><ele>29.9</ele><time>2015-04-25T17:01:44.0000000+00:00</time></trkpt><trkpt lat="35.0444818" lon="32.3610102"><ele>29.9</ele><time>2015-04-25T17:01:46.0000000+00:00</time></trkpt><trkpt lat="35.0444618" lon="32.3610812"><ele>29.9</ele><time>2015-04-25T17:01:48.0000000+00:00</time></trkpt><trkpt lat="35.0444374" lon="32.3611514"><ele>29.2</ele><time>2015-04-25T17:01:50.0000000+00:00</time></trkpt><trkpt lat="35.0444064" lon="32.3612197"><ele>29.5</ele><time>2015-04-25T17:01:52.0000000+00:00</time></trkpt><trkpt lat="35.0443763" lon="32.3612839"><ele>29.8</ele><time>2015-04-25T17:01:54.0000000+00:00</time></trkpt><trkpt lat="35.0443526" lon="32.3613462"><ele>29.9</ele><time>2015-04-25T17:01:56.0000000+00:00</time></trkpt><trkpt lat="35.0443295" lon="32.3614115"><ele>29.9</ele><time>2015-04-25T17:01:58.0000000+00:00</time></trkpt><trkpt lat="35.0443052" lon="32.3614778"><ele>29.9</ele><time>2015-04-25T17:02:00.0000000+00:00</time></trkpt><trkpt lat="35.0442787" lon="32.3615404"><ele>30.7</ele><time>2015-04-25T17:02:02.0000000+00:00</time></trkpt><trkpt lat="35.044252" lon="32.3615997"><ele>30.4</ele><time>2015-04-25T17:02:04.0000000+00:00</time></trkpt><trkpt lat="35.0442239" lon="32.3616638"><ele>30.5</ele><time>2015-04-25T17:02:06.0000000+00:00</time></trkpt><trkpt lat="35.0441943" lon="32.3617301"><ele>30.8</ele><time>2015-04-25T17:02:08.0000000+00:00</time></trkpt><trkpt lat="35.0441665" lon="32.361796"><ele>30.9</ele><time>2015-04-25T17:02:10.0000000+00:00</time></trkpt><trkpt lat="35.0441377" lon="32.3618604"><ele>30.4</ele><time>2015-04-25T17:02:12.0000000+00:00</time></trkpt><trkpt lat="35.0441048" lon="32.3619251"><ele>30.1</ele><time>2015-04-25T17:02:14.0000000+00:00</time></trkpt><trkpt lat="35.0440712" lon="32.3619945"><ele>30.0</ele><time>2015-04-25T17:02:16.0000000+00:00</time></trkpt><trkpt lat="35.0440292" lon="32.3620642"><ele>29.2</ele><time>2015-04-25T17:02:18.0000000+00:00</time></trkpt><trkpt lat="35.0439814" lon="32.362136"><ele>29.0</ele><time>2015-04-25T17:02:20.0000000+00:00</time></trkpt><trkpt lat="35.0439274" lon="32.3622134"><ele>28.9</ele><time>2015-04-25T17:02:22.0000000+00:00</time></trkpt><trkpt lat="35.0438332" lon="32.3623124"><ele>27.7</ele><time>2015-04-25T17:02:24.0000000+00:00</time></trkpt><trkpt lat="35.043776" lon="32.3623529"><ele>27.3</ele><time>2015-04-25T17:02:25.0000000+00:00</time></trkpt><trkpt lat="35.0437275" lon="32.362408"><ele>26.6</ele><time>2015-04-25T17:02:26.0000000+00:00</time></trkpt><trkpt lat="35.0436742" lon="32.3624613"><ele>26.3</ele><time>2015-04-25T17:02:27.0000000+00:00</time></trkpt><trkpt lat="35.0436178" lon="32.3625187"><ele>25.6</ele><time>2015-04-25T17:02:28.0000000+00:00</time></trkpt><trkpt lat="35.0435638" lon="32.3625834"><ele>25.3</ele><time>2015-04-25T17:02:29.0000000+00:00</time></trkpt><trkpt lat="35.0435193" lon="32.362644"><ele>24.6</ele><time>2015-04-25T17:02:30.0000000+00:00</time></trkpt><trkpt lat="35.043494" lon="32.3627149"><ele>24.3</ele><time>2015-04-25T17:02:31.0000000+00:00</time></trkpt><trkpt lat="35.0434683" lon="32.3627866"><ele>23.6</ele><time>2015-04-25T17:02:32.0000000+00:00</time></trkpt><trkpt lat="35.0434809" lon="32.3628635"><ele>23.8</ele><time>2015-04-25T17:02:33.0000000+00:00</time></trkpt><trkpt lat="35.0435003" lon="32.3629398"><ele>23.8</ele><time>2015-04-25T17:02:34.0000000+00:00</time></trkpt><trkpt lat="35.0435126" lon="32.3630066"><ele>23.9</ele><time>2015-04-25T17:02:35.0000000+00:00</time></trkpt><trkpt lat="35.0435289" lon="32.3630796"><ele>23.9</ele><time>2015-04-25T17:02:36.0000000+00:00</time></trkpt><trkpt lat="35.0435418" lon="32.3631702"><ele>23.9</ele><time>2015-04-25T17:02:37.0000000+00:00</time></trkpt><trkpt lat="35.0435587" lon="32.3632489"><ele>23.9</ele><time>2015-04-25T17:02:38.0000000+00:00</time></trkpt><trkpt lat="35.0435781" lon="32.3633554"><ele>23.9</ele><time>2015-04-25T17:02:39.0000000+00:00</time></trkpt><trkpt lat="35.0435981" lon="32.3634558"><ele>23.9</ele><time>2015-04-25T17:02:40.0000000+00:00</time></trkpt><trkpt lat="35.04361" lon="32.3635566"><ele>23.9</ele><time>2015-04-25T17:02:41.0000000+00:00</time></trkpt><trkpt lat="35.0436265" lon="32.3636562"><ele>24.4</ele><time>2015-04-25T17:02:42.0000000+00:00</time></trkpt><trkpt lat="35.0436297" lon="32.3637322"><ele>24.7</ele><time>2015-04-25T17:02:43.0000000+00:00</time></trkpt><trkpt lat="35.0436358" lon="32.3638058"><ele>25.3</ele><time>2015-04-25T17:02:44.0000000+00:00</time></trkpt><trkpt lat="35.0436387" lon="32.3638758"><ele>25.6</ele><time>2015-04-25T17:02:45.0000000+00:00</time></trkpt><trkpt lat="35.0436419" lon="32.3639398"><ele>26.3</ele><time>2015-04-25T17:02:46.0000000+00:00</time></trkpt><trkpt lat="35.0436408" lon="32.3640398"><ele>26.8</ele><time>2015-04-25T17:02:48.0000000+00:00</time></trkpt><trkpt lat="35.0436626" lon="32.3641038"><ele>27.8</ele><time>2015-04-25T17:02:51.0000000+00:00</time></trkpt><trkpt lat="35.0436674" lon="32.3641832"><ele>27.9</ele><time>2015-04-25T17:02:53.0000000+00:00</time></trkpt><trkpt lat="35.0436672" lon="32.3642757"><ele>27.9</ele><time>2015-04-25T17:02:55.0000000+00:00</time></trkpt><trkpt lat="35.0436673" lon="32.364355"><ele>27.9</ele><time>2015-04-25T17:02:57.0000000+00:00</time></trkpt><trkpt lat="35.0436549" lon="32.3644389"><ele>28.4</ele><time>2015-04-25T17:02:59.0000000+00:00</time></trkpt><trkpt lat="35.0436407" lon="32.3645198"><ele>28.8</ele><time>2015-04-25T17:03:01.0000000+00:00</time></trkpt><trkpt lat="35.0436259" lon="32.3645845"><ele>28.9</ele><time>2015-04-25T17:03:03.0000000+00:00</time></trkpt><trkpt lat="35.0436072" lon="32.3646494"><ele>28.9</ele><time>2015-04-25T17:03:05.0000000+00:00</time></trkpt><trkpt lat="35.0435876" lon="32.3647105"><ele>28.9</ele><time>2015-04-25T17:03:07.0000000+00:00</time></trkpt><trkpt lat="35.0435635" lon="32.3647699"><ele>29.4</ele><time>2015-04-25T17:03:09.0000000+00:00</time></trkpt><trkpt lat="35.0435388" lon="32.3648375"><ele>29.9</ele><time>2015-04-25T17:03:12.0000000+00:00</time></trkpt><trkpt lat="35.0435264" lon="32.3648946"><ele>29.9</ele><time>2015-04-25T17:03:15.0000000+00:00</time></trkpt><trkpt lat="35.0435067" lon="32.3649533"><ele>30.8</ele><time>2015-04-25T17:03:18.0000000+00:00</time></trkpt><trkpt lat="35.0434777" lon="32.3650182"><ele>30.9</ele><time>2015-04-25T17:03:22.0000000+00:00</time></trkpt><trkpt lat="35.0434621" lon="32.3650906"><ele>30.9</ele><time>2015-04-25T17:03:25.0000000+00:00</time></trkpt><trkpt lat="35.0434451" lon="32.3651566"><ele>30.9</ele><time>2015-04-25T17:03:27.0000000+00:00</time></trkpt><trkpt lat="35.0434254" lon="32.3652287"><ele>30.9</ele><time>2015-04-25T17:03:29.0000000+00:00</time></trkpt><trkpt lat="35.0434006" lon="32.3653079"><ele>30.9</ele><time>2015-04-25T17:03:31.0000000+00:00</time></trkpt><trkpt lat="35.0433724" lon="32.3653874"><ele>31.4</ele><time>2015-04-25T17:03:33.0000000+00:00</time></trkpt><trkpt lat="35.0433482" lon="32.3654628"><ele>31.8</ele><time>2015-04-25T17:03:35.0000000+00:00</time></trkpt><trkpt lat="35.0433253" lon="32.3655388"><ele>31.4</ele><time>2015-04-25T17:03:37.0000000+00:00</time></trkpt><trkpt lat="35.0433065" lon="32.3656037"><ele>31.5</ele><time>2015-04-25T17:03:39.0000000+00:00</time></trkpt><trkpt lat="35.0432836" lon="32.3656591"><ele>31.6</ele><time>2015-04-25T17:03:41.0000000+00:00</time></trkpt><trkpt lat="35.0432725" lon="32.3657142"><ele>32.1</ele><time>2015-04-25T17:03:43.0000000+00:00</time></trkpt><trkpt lat="35.0432623" lon="32.3657746"><ele>32.0</ele><time>2015-04-25T17:03:45.0000000+00:00</time></trkpt><trkpt lat="35.0432433" lon="32.3658402"><ele>31.7</ele><time>2015-04-25T17:03:47.0000000+00:00</time></trkpt><trkpt lat="35.0432192" lon="32.3659277"><ele>31.4</ele><time>2015-04-25T17:03:49.0000000+00:00</time></trkpt><trkpt lat="35.043196" lon="32.3660115"><ele>31.5</ele><time>2015-04-25T17:03:51.0000000+00:00</time></trkpt><trkpt lat="35.0431705" lon="32.3661012"><ele>31.8</ele><time>2015-04-25T17:03:53.0000000+00:00</time></trkpt><trkpt lat="35.0431436" lon="32.3661937"><ele>31.9</ele><time>2015-04-25T17:03:55.0000000+00:00</time></trkpt><trkpt lat="35.0431136" lon="32.3662844"><ele>31.9</ele><time>2015-04-25T17:03:57.0000000+00:00</time></trkpt><trkpt lat="35.0430804" lon="32.3663632"><ele>31.9</ele><time>2015-04-25T17:03:59.0000000+00:00</time></trkpt><trkpt lat="35.0430537" lon="32.3664384"><ele>31.9</ele><time>2015-04-25T17:04:01.0000000+00:00</time></trkpt><trkpt lat="35.0430341" lon="32.3665157"><ele>31.4</ele><time>2015-04-25T17:04:03.0000000+00:00</time></trkpt><trkpt lat="35.0430135" lon="32.3666041"><ele>31.1</ele><time>2015-04-25T17:04:05.0000000+00:00</time></trkpt><trkpt lat="35.0429889" lon="32.3666876"><ele>31.0</ele><time>2015-04-25T17:04:07.0000000+00:00</time></trkpt><trkpt lat="35.0429627" lon="32.3667734"><ele>30.9</ele><time>2015-04-25T17:04:09.0000000+00:00</time></trkpt><trkpt lat="35.0429359" lon="32.3668587"><ele>30.9</ele><time>2015-04-25T17:04:11.0000000+00:00</time></trkpt><trkpt lat="35.0429052" lon="32.3669488"><ele>30.9</ele><time>2015-04-25T17:04:13.0000000+00:00</time></trkpt><trkpt lat="35.0428656" lon="32.3670615"><ele>30.2</ele><time>2015-04-25T17:04:15.0000000+00:00</time></trkpt><trkpt lat="35.0428477" lon="32.3671169"><ele>30.1</ele><time>2015-04-25T17:04:16.0000000+00:00</time></trkpt><trkpt lat="35.0428247" lon="32.367174"><ele>30.0</ele><time>2015-04-25T17:04:17.0000000+00:00</time></trkpt><trkpt lat="35.0428051" lon="32.3672339"><ele>29.5</ele><time>2015-04-25T17:04:18.0000000+00:00</time></trkpt><trkpt lat="35.0427901" lon="32.3673082"><ele>28.7</ele><time>2015-04-25T17:04:19.0000000+00:00</time></trkpt><trkpt lat="35.042772" lon="32.3673752"><ele>28.3</ele><time>2015-04-25T17:04:20.0000000+00:00</time></trkpt><trkpt lat="35.0427477" lon="32.3674574"><ele>28.6</ele><time>2015-04-25T17:04:21.0000000+00:00</time></trkpt><trkpt lat="35.0427291" lon="32.3675311"><ele>28.3</ele><time>2015-04-25T17:04:22.0000000+00:00</time></trkpt><trkpt lat="35.04272" lon="32.3676124"><ele>28.6</ele><time>2015-04-25T17:04:23.0000000+00:00</time></trkpt><trkpt lat="35.0427064" lon="32.3676965"><ele>28.8</ele><time>2015-04-25T17:04:24.0000000+00:00</time></trkpt><trkpt lat="35.0427079" lon="32.3677765"><ele>29.3</ele><time>2015-04-25T17:04:25.0000000+00:00</time></trkpt><trkpt lat="35.0427022" lon="32.3678572"><ele>29.6</ele><time>2015-04-25T17:04:26.0000000+00:00</time></trkpt><trkpt lat="35.042696" lon="32.3679145"><ele>29.8</ele><time>2015-04-25T17:04:27.0000000+00:00</time></trkpt><trkpt lat="35.042693" lon="32.367985"><ele>30.4</ele><time>2015-04-25T17:04:28.0000000+00:00</time></trkpt><trkpt lat="35.0426845" lon="32.3680459"><ele>30.6</ele><time>2015-04-25T17:04:29.0000000+00:00</time></trkpt><trkpt lat="35.042678" lon="32.3681037"><ele>30.8</ele><time>2015-04-25T17:04:30.0000000+00:00</time></trkpt><trkpt lat="35.0426782" lon="32.3682011"><ele>30.9</ele><time>2015-04-25T17:04:32.0000000+00:00</time></trkpt><trkpt lat="35.0426825" lon="32.3682839"><ele>31.7</ele><time>2015-04-25T17:04:34.0000000+00:00</time></trkpt><trkpt lat="35.0426825" lon="32.3683642"><ele>31.9</ele><time>2015-04-25T17:04:36.0000000+00:00</time></trkpt><trkpt lat="35.0426824" lon="32.3684533"><ele>31.9</ele><time>2015-04-25T17:04:38.0000000+00:00</time></trkpt><trkpt lat="35.0426738" lon="32.3685331"><ele>31.9</ele><time>2015-04-25T17:04:40.0000000+00:00</time></trkpt><trkpt lat="35.0426738" lon="32.3686156"><ele>31.9</ele><time>2015-04-25T17:04:42.0000000+00:00</time></trkpt><trkpt lat="35.0426794" lon="32.3687035"><ele>31.9</ele><time>2015-04-25T17:04:44.0000000+00:00</time></trkpt><trkpt lat="35.0426842" lon="32.368796"><ele>31.9</ele><time>2015-04-25T17:04:46.0000000+00:00</time></trkpt><trkpt lat="35.0426834" lon="32.3688908"><ele>31.9</ele><time>2015-04-25T17:04:48.0000000+00:00</time></trkpt><trkpt lat="35.0426815" lon="32.368987"><ele>31.9</ele><time>2015-04-25T17:04:50.0000000+00:00</time></trkpt><trkpt lat="35.0426803" lon="32.3690876"><ele>31.9</ele><time>2015-04-25T17:04:52.0000000+00:00</time></trkpt><trkpt lat="35.0426746" lon="32.3691706"><ele>31.4</ele><time>2015-04-25T17:04:53.0000000+00:00</time></trkpt><trkpt lat="35.0426728" lon="32.3692732"><ele>31.1</ele><time>2015-04-25T17:04:55.0000000+00:00</time></trkpt><trkpt lat="35.0426717" lon="32.3693292"><ele>30.5</ele><time>2015-04-25T17:04:56.0000000+00:00</time></trkpt><trkpt lat="35.042671" lon="32.3693965"><ele>31.2</ele><time>2015-04-25T17:04:57.0000000+00:00</time></trkpt><trkpt lat="35.0426747" lon="32.3694552"><ele>31.1</ele><time>2015-04-25T17:04:58.0000000+00:00</time></trkpt><trkpt lat="35.0426584" lon="32.3695633"><ele>31.7</ele><time>2015-04-25T17:05:00.0000000+00:00</time></trkpt><trkpt lat="35.0426554" lon="32.3696215"><ele>31.8</ele><time>2015-04-25T17:05:01.0000000+00:00</time></trkpt><trkpt lat="35.0426655" lon="32.3697343"><ele>31.9</ele><time>2015-04-25T17:05:03.0000000+00:00</time></trkpt><trkpt lat="35.0426706" lon="32.3697932"><ele>31.9</ele><time>2015-04-25T17:05:04.0000000+00:00</time></trkpt><trkpt lat="35.0426667" lon="32.3698619"><ele>31.9</ele><time>2015-04-25T17:05:05.0000000+00:00</time></trkpt><trkpt lat="35.0426712" lon="32.369932"><ele>31.9</ele><time>2015-04-25T17:05:06.0000000+00:00</time></trkpt><trkpt lat="35.0426736" lon="32.3699949"><ele>31.9</ele><time>2015-04-25T17:05:07.0000000+00:00</time></trkpt><trkpt lat="35.0426719" lon="32.3700593"><ele>31.9</ele><time>2015-04-25T17:05:08.0000000+00:00</time></trkpt><trkpt lat="35.0426587" lon="32.3701261"><ele>31.9</ele><time>2015-04-25T17:05:09.0000000+00:00</time></trkpt><trkpt lat="35.0426522" lon="32.3702577"><ele>32.4</ele><time>2015-04-25T17:05:11.0000000+00:00</time></trkpt><trkpt lat="35.0426433" lon="32.3703242"><ele>33.2</ele><time>2015-04-25T17:05:12.0000000+00:00</time></trkpt><trkpt lat="35.0426323" lon="32.3703812"><ele>34.1</ele><time>2015-04-25T17:05:13.0000000+00:00</time></trkpt><trkpt lat="35.0426208" lon="32.3704441"><ele>35.0</ele><time>2015-04-25T17:05:14.0000000+00:00</time></trkpt><trkpt lat="35.0426393" lon="32.370504"><ele>34.0</ele><time>2015-04-25T17:05:15.0000000+00:00</time></trkpt><trkpt lat="35.0426366" lon="32.3705642"><ele>33.4</ele><time>2015-04-25T17:05:16.0000000+00:00</time></trkpt><trkpt lat="35.0426538" lon="32.3706162"><ele>32.7</ele><time>2015-04-25T17:05:17.0000000+00:00</time></trkpt><trkpt lat="35.0426611" lon="32.3707146"><ele>31.6</ele><time>2015-04-25T17:05:19.0000000+00:00</time></trkpt><trkpt lat="35.0426682" lon="32.3708242"><ele>30.6</ele><time>2015-04-25T17:05:21.0000000+00:00</time></trkpt><trkpt lat="35.0426706" lon="32.3708803"><ele>30.8</ele><time>2015-04-25T17:05:22.0000000+00:00</time></trkpt><trkpt lat="35.0426754" lon="32.3709421"><ele>30.8</ele><time>2015-04-25T17:05:23.0000000+00:00</time></trkpt><trkpt lat="35.0426774" lon="32.3710016"><ele>30.9</ele><time>2015-04-25T17:05:24.0000000+00:00</time></trkpt><trkpt lat="35.0426882" lon="32.3710609"><ele>30.9</ele><time>2015-04-25T17:05:25.0000000+00:00</time></trkpt><trkpt lat="35.0426808" lon="32.371159"><ele>31.4</ele><time>2015-04-25T17:05:27.0000000+00:00</time></trkpt><trkpt lat="35.042692" lon="32.3712645"><ele>31.8</ele><time>2015-04-25T17:05:29.0000000+00:00</time></trkpt><trkpt lat="35.0426971" lon="32.3713738"><ele>31.9</ele><time>2015-04-25T17:05:31.0000000+00:00</time></trkpt><trkpt lat="35.0426938" lon="32.3714814"><ele>32.4</ele><time>2015-04-25T17:05:33.0000000+00:00</time></trkpt><trkpt lat="35.042682" lon="32.3715857"><ele>32.8</ele><time>2015-04-25T17:05:35.0000000+00:00</time></trkpt><trkpt lat="35.0426825" lon="32.3716415"><ele>32.9</ele><time>2015-04-25T17:05:36.0000000+00:00</time></trkpt><trkpt lat="35.0426876" lon="32.3716984"><ele>33.4</ele><time>2015-04-25T17:05:37.0000000+00:00</time></trkpt><trkpt lat="35.0426898" lon="32.3717553"><ele>33.7</ele><time>2015-04-25T17:05:38.0000000+00:00</time></trkpt><trkpt lat="35.0426973" lon="32.3718638"><ele>34.4</ele><time>2015-04-25T17:05:40.0000000+00:00</time></trkpt><trkpt lat="35.0426921" lon="32.3719465"><ele>34.0</ele><time>2015-04-25T17:05:42.0000000+00:00</time></trkpt><trkpt lat="35.0426849" lon="32.372036"><ele>34.2</ele><time>2015-04-25T17:05:44.0000000+00:00</time></trkpt><trkpt lat="35.0426871" lon="32.3721169"><ele>34.0</ele><time>2015-04-25T17:05:46.0000000+00:00</time></trkpt><trkpt lat="35.0426842" lon="32.3721981"><ele>33.2</ele><time>2015-04-25T17:05:48.0000000+00:00</time></trkpt><trkpt lat="35.0426694" lon="32.3722861"><ele>32.2</ele><time>2015-04-25T17:05:50.0000000+00:00</time></trkpt><trkpt lat="35.0426505" lon="32.3723409"><ele>33.1</ele><time>2015-04-25T17:05:51.0000000+00:00</time></trkpt><trkpt lat="35.0426266" lon="32.3724682"><ele>32.7</ele><time>2015-04-25T17:05:53.0000000+00:00</time></trkpt><trkpt lat="35.0426094" lon="32.3725279"><ele>32.3</ele><time>2015-04-25T17:05:54.0000000+00:00</time></trkpt><trkpt lat="35.0425906" lon="32.37258"><ele>32.6</ele><time>2015-04-25T17:05:55.0000000+00:00</time></trkpt><trkpt lat="35.0425716" lon="32.3726404"><ele>32.8</ele><time>2015-04-25T17:05:56.0000000+00:00</time></trkpt><trkpt lat="35.0425428" lon="32.3726952"><ele>32.4</ele><time>2015-04-25T17:05:57.0000000+00:00</time></trkpt><trkpt lat="35.0425179" lon="32.3727468"><ele>32.1</ele><time>2015-04-25T17:05:58.0000000+00:00</time></trkpt><trkpt lat="35.0424841" lon="32.3728036"><ele>32.0</ele><time>2015-04-25T17:05:59.0000000+00:00</time></trkpt><trkpt lat="35.0424538" lon="32.3728568"><ele>32.0</ele><time>2015-04-25T17:06:00.0000000+00:00</time></trkpt><trkpt lat="35.0424209" lon="32.3729089"><ele>32.0</ele><time>2015-04-25T17:06:01.0000000+00:00</time></trkpt><trkpt lat="35.0423872" lon="32.3729602"><ele>31.9</ele><time>2015-04-25T17:06:02.0000000+00:00</time></trkpt><trkpt lat="35.0423532" lon="32.3730059"><ele>31.4</ele><time>2015-04-25T17:06:03.0000000+00:00</time></trkpt><trkpt lat="35.0423202" lon="32.3730597"><ele>31.2</ele><time>2015-04-25T17:06:04.0000000+00:00</time></trkpt><trkpt lat="35.0422846" lon="32.3731136"><ele>30.6</ele><time>2015-04-25T17:06:05.0000000+00:00</time></trkpt><trkpt lat="35.042252" lon="32.37316"><ele>29.7</ele><time>2015-04-25T17:06:06.0000000+00:00</time></trkpt><trkpt lat="35.0422095" lon="32.3732024"><ele>29.8</ele><time>2015-04-25T17:06:07.0000000+00:00</time></trkpt><trkpt lat="35.0421714" lon="32.373251"><ele>29.9</ele><time>2015-04-25T17:06:08.0000000+00:00</time></trkpt><trkpt lat="35.0421244" lon="32.3732919"><ele>30.4</ele><time>2015-04-25T17:06:09.0000000+00:00</time></trkpt><trkpt lat="35.042086" lon="32.3733369"><ele>30.7</ele><time>2015-04-25T17:06:10.0000000+00:00</time></trkpt><trkpt lat="35.0420172" lon="32.3734102"><ele>30.1</ele><time>2015-04-25T17:06:12.0000000+00:00</time></trkpt><trkpt lat="35.0419532" lon="32.3734741"><ele>30.0</ele><time>2015-04-25T17:06:14.0000000+00:00</time></trkpt><trkpt lat="35.0418894" lon="32.373526"><ele>30.7</ele><time>2015-04-25T17:06:16.0000000+00:00</time></trkpt><trkpt lat="35.0418234" lon="32.3735873"><ele>31.4</ele><time>2015-04-25T17:06:18.0000000+00:00</time></trkpt><trkpt lat="35.0417571" lon="32.3736483"><ele>31.8</ele><time>2015-04-25T17:06:20.0000000+00:00</time></trkpt><trkpt lat="35.0417185" lon="32.3736767"><ele>31.9</ele><time>2015-04-25T17:06:21.0000000+00:00</time></trkpt><trkpt lat="35.0416431" lon="32.3737453"><ele>31.9</ele><time>2015-04-25T17:06:23.0000000+00:00</time></trkpt><trkpt lat="35.0416018" lon="32.3737786"><ele>31.9</ele><time>2015-04-25T17:06:24.0000000+00:00</time></trkpt><trkpt lat="35.041555" lon="32.3738069"><ele>32.4</ele><time>2015-04-25T17:06:25.0000000+00:00</time></trkpt><trkpt lat="35.0415102" lon="32.3738392"><ele>32.7</ele><time>2015-04-25T17:06:26.0000000+00:00</time></trkpt><trkpt lat="35.0414612" lon="32.3738707"><ele>32.8</ele><time>2015-04-25T17:06:27.0000000+00:00</time></trkpt><trkpt lat="35.0414144" lon="32.3739023"><ele>32.9</ele><time>2015-04-25T17:06:28.0000000+00:00</time></trkpt><trkpt lat="35.0413675" lon="32.3739315"><ele>32.9</ele><time>2015-04-25T17:06:29.0000000+00:00</time></trkpt><trkpt lat="35.0413216" lon="32.3739577"><ele>32.9</ele><time>2015-04-25T17:06:30.0000000+00:00</time></trkpt><trkpt lat="35.0412718" lon="32.3739723"><ele>33.4</ele><time>2015-04-25T17:06:31.0000000+00:00</time></trkpt><trkpt lat="35.0412207" lon="32.3739952"><ele>33.7</ele><time>2015-04-25T17:06:32.0000000+00:00</time></trkpt><trkpt lat="35.0411717" lon="32.3739938"><ele>33.8</ele><time>2015-04-25T17:06:33.0000000+00:00</time></trkpt><trkpt lat="35.0411218" lon="32.374006"><ele>33.9</ele><time>2015-04-25T17:06:34.0000000+00:00</time></trkpt><trkpt lat="35.0410753" lon="32.3740027"><ele>34.4</ele><time>2015-04-25T17:06:35.0000000+00:00</time></trkpt><trkpt lat="35.041025" lon="32.3740049"><ele>34.7</ele><time>2015-04-25T17:06:36.0000000+00:00</time></trkpt><trkpt lat="35.0409756" lon="32.3739962"><ele>34.8</ele><time>2015-04-25T17:06:37.0000000+00:00</time></trkpt><trkpt lat="35.0409289" lon="32.3739891"><ele>34.9</ele><time>2015-04-25T17:06:38.0000000+00:00</time></trkpt><trkpt lat="35.0408858" lon="32.3739718"><ele>34.9</ele><time>2015-04-25T17:06:39.0000000+00:00</time></trkpt><trkpt lat="35.0408371" lon="32.3739597"><ele>34.9</ele><time>2015-04-25T17:06:40.0000000+00:00</time></trkpt><trkpt lat="35.0407867" lon="32.3739508"><ele>35.4</ele><time>2015-04-25T17:06:41.0000000+00:00</time></trkpt><trkpt lat="35.040739" lon="32.3739387"><ele>35.7</ele><time>2015-04-25T17:06:42.0000000+00:00</time></trkpt><trkpt lat="35.0406924" lon="32.3739241"><ele>35.8</ele><time>2015-04-25T17:06:43.0000000+00:00</time></trkpt><trkpt lat="35.0406444" lon="32.3739109"><ele>35.9</ele><time>2015-04-25T17:06:44.0000000+00:00</time></trkpt><trkpt lat="35.0405922" lon="32.3739023"><ele>35.9</ele><time>2015-04-25T17:06:45.0000000+00:00</time></trkpt><trkpt lat="35.0405444" lon="32.3738903"><ele>36.4</ele><time>2015-04-25T17:06:46.0000000+00:00</time></trkpt><trkpt lat="35.0404966" lon="32.3738822"><ele>36.7</ele><time>2015-04-25T17:06:47.0000000+00:00</time></trkpt><trkpt lat="35.0404473" lon="32.3738674"><ele>36.8</ele><time>2015-04-25T17:06:48.0000000+00:00</time></trkpt><trkpt lat="35.040358" lon="32.3738378"><ele>36.9</ele><time>2015-04-25T17:06:50.0000000+00:00</time></trkpt><trkpt lat="35.0402824" lon="32.3738149"><ele>36.9</ele><time>2015-04-25T17:06:52.0000000+00:00</time></trkpt><trkpt lat="35.0402151" lon="32.3737998"><ele>36.9</ele><time>2015-04-25T17:06:54.0000000+00:00</time></trkpt><trkpt lat="35.0401408" lon="32.3737774"><ele>36.9</ele><time>2015-04-25T17:06:56.0000000+00:00</time></trkpt><trkpt lat="35.0400952" lon="32.3737681"><ele>36.9</ele><time>2015-04-25T17:06:57.0000000+00:00</time></trkpt><trkpt lat="35.0400102" lon="32.3737626"><ele>37.4</ele><time>2015-04-25T17:06:59.0000000+00:00</time></trkpt><trkpt lat="35.0399271" lon="32.3737679"><ele>37.3</ele><time>2015-04-25T17:07:01.0000000+00:00</time></trkpt><trkpt lat="35.0398391" lon="32.3737852"><ele>36.5</ele><time>2015-04-25T17:07:03.0000000+00:00</time></trkpt><trkpt lat="35.0397895" lon="32.3737958"><ele>36.2</ele><time>2015-04-25T17:07:04.0000000+00:00</time></trkpt><trkpt lat="35.0397311" lon="32.3737983"><ele>36.1</ele><time>2015-04-25T17:07:05.0000000+00:00</time></trkpt><trkpt lat="35.0396751" lon="32.3738086"><ele>36.0</ele><time>2015-04-25T17:07:06.0000000+00:00</time></trkpt><trkpt lat="35.0396139" lon="32.3738255"><ele>36.0</ele><time>2015-04-25T17:07:07.0000000+00:00</time></trkpt><trkpt lat="35.039553" lon="32.3738401"><ele>35.4</ele><time>2015-04-25T17:07:08.0000000+00:00</time></trkpt><trkpt lat="35.0394824" lon="32.3738564"><ele>35.2</ele><time>2015-04-25T17:07:09.0000000+00:00</time></trkpt><trkpt lat="35.0394202" lon="32.3738715"><ele>35.1</ele><time>2015-04-25T17:07:10.0000000+00:00</time></trkpt><trkpt lat="35.039341" lon="32.3738833"><ele>34.5</ele><time>2015-04-25T17:07:11.0000000+00:00</time></trkpt><trkpt lat="35.0392692" lon="32.3738977"><ele>33.7</ele><time>2015-04-25T17:07:12.0000000+00:00</time></trkpt><trkpt lat="35.0391906" lon="32.3739051"><ele>33.3</ele><time>2015-04-25T17:07:13.0000000+00:00</time></trkpt><trkpt lat="35.0391115" lon="32.3739136"><ele>32.6</ele><time>2015-04-25T17:07:14.0000000+00:00</time></trkpt><trkpt lat="35.0390314" lon="32.3739228"><ele>32.3</ele><time>2015-04-25T17:07:15.0000000+00:00</time></trkpt><trkpt lat="35.0389459" lon="32.3739317"><ele>31.6</ele><time>2015-04-25T17:07:16.0000000+00:00</time></trkpt><trkpt lat="35.0388487" lon="32.3739379"><ele>31.8</ele><time>2015-04-25T17:07:17.0000000+00:00</time></trkpt><trkpt lat="35.0387659" lon="32.3739449"><ele>31.8</ele><time>2015-04-25T17:07:18.0000000+00:00</time></trkpt><trkpt lat="35.0386864" lon="32.3739455"><ele>32.4</ele><time>2015-04-25T17:07:19.0000000+00:00</time></trkpt><trkpt lat="35.0386017" lon="32.3739498"><ele>32.7</ele><time>2015-04-25T17:07:20.0000000+00:00</time></trkpt><trkpt lat="35.0385348" lon="32.3739606"><ele>32.8</ele><time>2015-04-25T17:07:21.0000000+00:00</time></trkpt><trkpt lat="35.0384588" lon="32.3739686"><ele>32.9</ele><time>2015-04-25T17:07:22.0000000+00:00</time></trkpt><trkpt lat="35.0383974" lon="32.3739708"><ele>33.4</ele><time>2015-04-25T17:07:23.0000000+00:00</time></trkpt><trkpt lat="35.0383298" lon="32.3739752"><ele>33.7</ele><time>2015-04-25T17:07:24.0000000+00:00</time></trkpt><trkpt lat="35.0382844" lon="32.3739876"><ele>34.3</ele><time>2015-04-25T17:07:25.0000000+00:00</time></trkpt><trkpt lat="35.0382033" lon="32.3740026"><ele>35.3</ele><time>2015-04-25T17:07:27.0000000+00:00</time></trkpt><trkpt lat="35.0381282" lon="32.3740211"><ele>35.8</ele><time>2015-04-25T17:07:29.0000000+00:00</time></trkpt><trkpt lat="35.0380577" lon="32.3740418"><ele>35.9</ele><time>2015-04-25T17:07:31.0000000+00:00</time></trkpt><trkpt lat="35.0379728" lon="32.3740699"><ele>35.9</ele><time>2015-04-25T17:07:33.0000000+00:00</time></trkpt><trkpt lat="35.0379017" lon="32.3740791"><ele>36.7</ele><time>2015-04-25T17:07:35.0000000+00:00</time></trkpt><trkpt lat="35.0378512" lon="32.3740946"><ele>37.1</ele><time>2015-04-25T17:07:37.0000000+00:00</time></trkpt><trkpt lat="35.0377996" lon="32.3741145"><ele>37.0</ele><time>2015-04-25T17:07:39.0000000+00:00</time></trkpt><trkpt lat="35.0377446" lon="32.3741422"><ele>37.4</ele><time>2015-04-25T17:07:41.0000000+00:00</time></trkpt><trkpt lat="35.0376931" lon="32.3741698"><ele>37.8</ele><time>2015-04-25T17:07:43.0000000+00:00</time></trkpt><trkpt lat="35.0376372" lon="32.3742099"><ele>38.4</ele><time>2015-04-25T17:07:46.0000000+00:00</time></trkpt><trkpt lat="35.0376062" lon="32.3742549"><ele>38.8</ele><time>2015-04-25T17:07:48.0000000+00:00</time></trkpt><trkpt lat="35.037579" lon="32.3743053"><ele>39.4</ele><time>2015-04-25T17:07:50.0000000+00:00</time></trkpt><trkpt lat="35.0375519" lon="32.3743583"><ele>39.8</ele><time>2015-04-25T17:07:52.0000000+00:00</time></trkpt><trkpt lat="35.0375365" lon="32.3744276"><ele>39.9</ele><time>2015-04-25T17:07:54.0000000+00:00</time></trkpt><trkpt lat="35.0375204" lon="32.3744891"><ele>39.9</ele><time>2015-04-25T17:07:56.0000000+00:00</time></trkpt><trkpt lat="35.0375054" lon="32.3745562"><ele>40.7</ele><time>2015-04-25T17:07:58.0000000+00:00</time></trkpt><trkpt lat="35.0374885" lon="32.3746187"><ele>40.9</ele><time>2015-04-25T17:08:00.0000000+00:00</time></trkpt><trkpt lat="35.037481" lon="32.374683"><ele>41.7</ele><time>2015-04-25T17:08:02.0000000+00:00</time></trkpt><trkpt lat="35.037469" lon="32.3747462"><ele>41.9</ele><time>2015-04-25T17:08:04.0000000+00:00</time></trkpt><trkpt lat="35.0374572" lon="32.3748113"><ele>41.9</ele><time>2015-04-25T17:08:06.0000000+00:00</time></trkpt><trkpt lat="35.0374417" lon="32.3748926"><ele>41.9</ele><time>2015-04-25T17:08:08.0000000+00:00</time></trkpt><trkpt lat="35.0374207" lon="32.3749738"><ele>41.9</ele><time>2015-04-25T17:08:10.0000000+00:00</time></trkpt><trkpt lat="35.0373999" lon="32.3750611"><ele>42.2</ele><time>2015-04-25T17:08:12.0000000+00:00</time></trkpt><trkpt lat="35.0373913" lon="32.3751519"><ele>41.2</ele><time>2015-04-25T17:08:14.0000000+00:00</time></trkpt><trkpt lat="35.0373994" lon="32.3752285"><ele>40.3</ele><time>2015-04-25T17:08:16.0000000+00:00</time></trkpt><trkpt lat="35.0374326" lon="32.3753086"><ele>39.6</ele><time>2015-04-25T17:08:23.0000000+00:00</time></trkpt><trkpt lat="35.0374596" lon="32.3753673"><ele>39.1</ele><time>2015-04-25T17:08:25.0000000+00:00</time></trkpt><trkpt lat="35.0374848" lon="32.375436"><ele>39.0</ele><time>2015-04-25T17:08:27.0000000+00:00</time></trkpt><trkpt lat="35.0375245" lon="32.3755222"><ele>38.2</ele><time>2015-04-25T17:08:29.0000000+00:00</time></trkpt><trkpt lat="35.0375684" lon="32.3756092"><ele>37.5</ele><time>2015-04-25T17:08:31.0000000+00:00</time></trkpt><trkpt lat="35.0376185" lon="32.3757304"><ele>36.6</ele><time>2015-04-25T17:08:33.0000000+00:00</time></trkpt><trkpt lat="35.0376424" lon="32.3757906"><ele>36.3</ele><time>2015-04-25T17:08:34.0000000+00:00</time></trkpt><trkpt lat="35.0376787" lon="32.3758556"><ele>35.6</ele><time>2015-04-25T17:08:35.0000000+00:00</time></trkpt><trkpt lat="35.0377127" lon="32.3759183"><ele>35.3</ele><time>2015-04-25T17:08:36.0000000+00:00</time></trkpt><trkpt lat="35.0377447" lon="32.3759914"><ele>35.1</ele><time>2015-04-25T17:08:37.0000000+00:00</time></trkpt><trkpt lat="35.0377748" lon="32.376056"><ele>35.0</ele><time>2015-04-25T17:08:38.0000000+00:00</time></trkpt><trkpt lat="35.0378103" lon="32.3761395"><ele>35.0</ele><time>2015-04-25T17:08:39.0000000+00:00</time></trkpt><trkpt lat="35.0378446" lon="32.3762101"><ele>35.0</ele><time>2015-04-25T17:08:40.0000000+00:00</time></trkpt><trkpt lat="35.037887" lon="32.3762659"><ele>34.4</ele><time>2015-04-25T17:08:41.0000000+00:00</time></trkpt><trkpt lat="35.0379231" lon="32.3763363"><ele>34.2</ele><time>2015-04-25T17:08:42.0000000+00:00</time></trkpt><trkpt lat="35.037952" lon="32.3764066"><ele>34.1</ele><time>2015-04-25T17:08:43.0000000+00:00</time></trkpt><trkpt lat="35.0379868" lon="32.3764797"><ele>34.0</ele><time>2015-04-25T17:08:44.0000000+00:00</time></trkpt><trkpt lat="35.0380241" lon="32.3765602"><ele>33.5</ele><time>2015-04-25T17:08:45.0000000+00:00</time></trkpt><trkpt lat="35.0380563" lon="32.3766308"><ele>33.2</ele><time>2015-04-25T17:08:46.0000000+00:00</time></trkpt><trkpt lat="35.038098" lon="32.3767034"><ele>33.1</ele><time>2015-04-25T17:08:47.0000000+00:00</time></trkpt><trkpt lat="35.0381342" lon="32.3767786"><ele>33.0</ele><time>2015-04-25T17:08:48.0000000+00:00</time></trkpt><trkpt lat="35.0381648" lon="32.3768418"><ele>32.5</ele><time>2015-04-25T17:08:49.0000000+00:00</time></trkpt><trkpt lat="35.0382039" lon="32.3769187"><ele>32.2</ele><time>2015-04-25T17:08:50.0000000+00:00</time></trkpt><trkpt lat="35.0382322" lon="32.376984"><ele>32.1</ele><time>2015-04-25T17:08:51.0000000+00:00</time></trkpt><trkpt lat="35.0382669" lon="32.3770569"><ele>32.0</ele><time>2015-04-25T17:08:52.0000000+00:00</time></trkpt><trkpt lat="35.0383017" lon="32.377142"><ele>31.5</ele><time>2015-04-25T17:08:53.0000000+00:00</time></trkpt><trkpt lat="35.0383355" lon="32.3772156"><ele>31.2</ele><time>2015-04-25T17:08:54.0000000+00:00</time></trkpt><trkpt lat="35.0383706" lon="32.3772938"><ele>31.6</ele><time>2015-04-25T17:08:55.0000000+00:00</time></trkpt><trkpt lat="35.0384095" lon="32.3773771"><ele>31.7</ele><time>2015-04-25T17:08:56.0000000+00:00</time></trkpt><trkpt lat="35.0384435" lon="32.3774531"><ele>31.3</ele><time>2015-04-25T17:08:57.0000000+00:00</time></trkpt><trkpt lat="35.0384784" lon="32.3775382"><ele>31.1</ele><time>2015-04-25T17:08:58.0000000+00:00</time></trkpt><trkpt lat="35.0385112" lon="32.3776241"><ele>30.5</ele><time>2015-04-25T17:08:59.0000000+00:00</time></trkpt><trkpt lat="35.0385454" lon="32.3777086"><ele>30.2</ele><time>2015-04-25T17:09:00.0000000+00:00</time></trkpt><trkpt lat="35.0385653" lon="32.3777948"><ele>30.6</ele><time>2015-04-25T17:09:01.0000000+00:00</time></trkpt><trkpt lat="35.0385932" lon="32.3778752"><ele>30.3</ele><time>2015-04-25T17:09:02.0000000+00:00</time></trkpt><trkpt lat="35.0386074" lon="32.3779719"><ele>30.6</ele><time>2015-04-25T17:09:03.0000000+00:00</time></trkpt><trkpt lat="35.0386284" lon="32.3780605"><ele>30.8</ele><time>2015-04-25T17:09:04.0000000+00:00</time></trkpt><trkpt lat="35.0386522" lon="32.3781371"><ele>30.3</ele><time>2015-04-25T17:09:05.0000000+00:00</time></trkpt><trkpt lat="35.0386718" lon="32.3782237"><ele>30.1</ele><time>2015-04-25T17:09:06.0000000+00:00</time></trkpt><trkpt lat="35.0386944" lon="32.3783033"><ele>30.0</ele><time>2015-04-25T17:09:07.0000000+00:00</time></trkpt><trkpt lat="35.0387139" lon="32.3783884"><ele>30.0</ele><time>2015-04-25T17:09:08.0000000+00:00</time></trkpt><trkpt lat="35.0387342" lon="32.3784879"><ele>29.5</ele><time>2015-04-25T17:09:09.0000000+00:00</time></trkpt><trkpt lat="35.0387505" lon="32.3785714"><ele>29.2</ele><time>2015-04-25T17:09:10.0000000+00:00</time></trkpt><trkpt lat="35.0387671" lon="32.378659"><ele>29.1</ele><time>2015-04-25T17:09:11.0000000+00:00</time></trkpt><trkpt lat="35.0387854" lon="32.3787494"><ele>29.0</ele><time>2015-04-25T17:09:12.0000000+00:00</time></trkpt><trkpt lat="35.0388014" lon="32.378828"><ele>28.5</ele><time>2015-04-25T17:09:13.0000000+00:00</time></trkpt><trkpt lat="35.038819" lon="32.3789251"><ele>28.2</ele><time>2015-04-25T17:09:14.0000000+00:00</time></trkpt><trkpt lat="35.0388302" lon="32.3790084"><ele>28.1</ele><time>2015-04-25T17:09:15.0000000+00:00</time></trkpt><trkpt lat="35.0388451" lon="32.3791004"><ele>28.0</ele><time>2015-04-25T17:09:16.0000000+00:00</time></trkpt><trkpt lat="35.0388762" lon="32.379184"><ele>28.0</ele><time>2015-04-25T17:09:17.0000000+00:00</time></trkpt><trkpt lat="35.0388997" lon="32.3792663"><ele>28.4</ele><time>2015-04-25T17:09:18.0000000+00:00</time></trkpt><trkpt lat="35.0389116" lon="32.3793421"><ele>28.2</ele><time>2015-04-25T17:09:19.0000000+00:00</time></trkpt><trkpt lat="35.0389285" lon="32.3794249"><ele>27.6</ele><time>2015-04-25T17:09:20.0000000+00:00</time></trkpt><trkpt lat="35.0389394" lon="32.379495"><ele>27.2</ele><time>2015-04-25T17:09:21.0000000+00:00</time></trkpt><trkpt lat="35.0389539" lon="32.3795775"><ele>26.6</ele><time>2015-04-25T17:09:22.0000000+00:00</time></trkpt><trkpt lat="35.0389659" lon="32.3796493"><ele>25.8</ele><time>2015-04-25T17:09:23.0000000+00:00</time></trkpt><trkpt lat="35.0389819" lon="32.3797296"><ele>25.3</ele><time>2015-04-25T17:09:24.0000000+00:00</time></trkpt><trkpt lat="35.0389874" lon="32.3798236"><ele>24.6</ele><time>2015-04-25T17:09:25.0000000+00:00</time></trkpt><trkpt lat="35.0390017" lon="32.3799045"><ele>24.3</ele><time>2015-04-25T17:09:26.0000000+00:00</time></trkpt><trkpt lat="35.039017" lon="32.3800028"><ele>24.1</ele><time>2015-04-25T17:09:27.0000000+00:00</time></trkpt><trkpt lat="35.0390354" lon="32.3800943"><ele>23.5</ele><time>2015-04-25T17:09:28.0000000+00:00</time></trkpt><trkpt lat="35.0390493" lon="32.3801942"><ele>23.2</ele><time>2015-04-25T17:09:29.0000000+00:00</time></trkpt><trkpt lat="35.0390648" lon="32.3802935"><ele>23.1</ele><time>2015-04-25T17:09:30.0000000+00:00</time></trkpt><trkpt lat="35.0390883" lon="32.3803972"><ele>22.0</ele><time>2015-04-25T17:09:31.0000000+00:00</time></trkpt><trkpt lat="35.0391094" lon="32.3805013"><ele>21.0</ele><time>2015-04-25T17:09:32.0000000+00:00</time></trkpt><trkpt lat="35.0391348" lon="32.3806122"><ele>20.4</ele><time>2015-04-25T17:09:33.0000000+00:00</time></trkpt><trkpt lat="35.0391551" lon="32.3807148"><ele>19.7</ele><time>2015-04-25T17:09:34.0000000+00:00</time></trkpt><trkpt lat="35.0391829" lon="32.3808185"><ele>19.3</ele><time>2015-04-25T17:09:35.0000000+00:00</time></trkpt><trkpt lat="35.0392042" lon="32.3809288"><ele>19.1</ele><time>2015-04-25T17:09:36.0000000+00:00</time></trkpt><trkpt lat="35.0392245" lon="32.3810294"><ele>19.0</ele><time>2015-04-25T17:09:37.0000000+00:00</time></trkpt><trkpt lat="35.0392509" lon="32.3811418"><ele>18.5</ele><time>2015-04-25T17:09:38.0000000+00:00</time></trkpt><trkpt lat="35.0392964" lon="32.3812435"><ele>17.7</ele><time>2015-04-25T17:09:39.0000000+00:00</time></trkpt><trkpt lat="35.0393317" lon="32.3813537"><ele>17.3</ele><time>2015-04-25T17:09:40.0000000+00:00</time></trkpt><trkpt lat="35.0393919" lon="32.3814581"><ele>17.1</ele><time>2015-04-25T17:09:41.0000000+00:00</time></trkpt><trkpt lat="35.0394417" lon="32.3815535"><ele>16.5</ele><time>2015-04-25T17:09:42.0000000+00:00</time></trkpt><trkpt lat="35.039514" lon="32.3816312"><ele>16.7</ele><time>2015-04-25T17:09:43.0000000+00:00</time></trkpt><trkpt lat="35.0395754" lon="32.3817202"><ele>16.8</ele><time>2015-04-25T17:09:44.0000000+00:00</time></trkpt><trkpt lat="35.0396366" lon="32.3817825"><ele>16.9</ele><time>2015-04-25T17:09:45.0000000+00:00</time></trkpt><trkpt lat="35.0397031" lon="32.3818598"><ele>16.9</ele><time>2015-04-25T17:09:46.0000000+00:00</time></trkpt><trkpt lat="35.0397548" lon="32.381934"><ele>16.9</ele><time>2015-04-25T17:09:47.0000000+00:00</time></trkpt><trkpt lat="35.0398186" lon="32.382008"><ele>16.9</ele><time>2015-04-25T17:09:48.0000000+00:00</time></trkpt><trkpt lat="35.0398833" lon="32.3820786"><ele>16.9</ele><time>2015-04-25T17:09:49.0000000+00:00</time></trkpt><trkpt lat="35.0399452" lon="32.3821449"><ele>16.9</ele><time>2015-04-25T17:09:50.0000000+00:00</time></trkpt><trkpt lat="35.0400106" lon="32.3822162"><ele>16.4</ele><time>2015-04-25T17:09:51.0000000+00:00</time></trkpt><trkpt lat="35.0400767" lon="32.382286"><ele>16.2</ele><time>2015-04-25T17:09:52.0000000+00:00</time></trkpt><trkpt lat="35.0401339" lon="32.3823511"><ele>15.6</ele><time>2015-04-25T17:09:53.0000000+00:00</time></trkpt><trkpt lat="35.0402028" lon="32.3824212"><ele>15.7</ele><time>2015-04-25T17:09:54.0000000+00:00</time></trkpt><trkpt lat="35.0402641" lon="32.3824899"><ele>15.3</ele><time>2015-04-25T17:09:55.0000000+00:00</time></trkpt><trkpt lat="35.0403396" lon="32.3825631"><ele>15.1</ele><time>2015-04-25T17:09:56.0000000+00:00</time></trkpt><trkpt lat="35.0404063" lon="32.3826339"><ele>15.0</ele><time>2015-04-25T17:09:57.0000000+00:00</time></trkpt><trkpt lat="35.0404603" lon="32.3826889"><ele>15.0</ele><time>2015-04-25T17:09:58.0000000+00:00</time></trkpt><trkpt lat="35.0405261" lon="32.3827607"><ele>14.5</ele><time>2015-04-25T17:09:59.0000000+00:00</time></trkpt><trkpt lat="35.04059" lon="32.3828341"><ele>14.2</ele><time>2015-04-25T17:10:00.0000000+00:00</time></trkpt><trkpt lat="35.0406397" lon="32.3829105"><ele>13.6</ele><time>2015-04-25T17:10:01.0000000+00:00</time></trkpt><trkpt lat="35.0406893" lon="32.3829912"><ele>13.2</ele><time>2015-04-25T17:10:02.0000000+00:00</time></trkpt><trkpt lat="35.0407263" lon="32.3830733"><ele>13.6</ele><time>2015-04-25T17:10:03.0000000+00:00</time></trkpt><trkpt lat="35.0407695" lon="32.3831697"><ele>13.8</ele><time>2015-04-25T17:10:04.0000000+00:00</time></trkpt><trkpt lat="35.0408007" lon="32.3832662"><ele>13.8</ele><time>2015-04-25T17:10:05.0000000+00:00</time></trkpt><trkpt lat="35.0408218" lon="32.3833673"><ele>13.9</ele><time>2015-04-25T17:10:06.0000000+00:00</time></trkpt><trkpt lat="35.040826" lon="32.383452"><ele>13.9</ele><time>2015-04-25T17:10:07.0000000+00:00</time></trkpt><trkpt lat="35.0408338" lon="32.3835415"><ele>13.9</ele><time>2015-04-25T17:10:08.0000000+00:00</time></trkpt><trkpt lat="35.0408516" lon="32.3836271"><ele>13.4</ele><time>2015-04-25T17:10:09.0000000+00:00</time></trkpt><trkpt lat="35.0408516" lon="32.3837198"><ele>12.7</ele><time>2015-04-25T17:10:10.0000000+00:00</time></trkpt><trkpt lat="35.0408572" lon="32.383813"><ele>12.3</ele><time>2015-04-25T17:10:11.0000000+00:00</time></trkpt><trkpt lat="35.0408621" lon="32.3839123"><ele>12.1</ele><time>2015-04-25T17:10:12.0000000+00:00</time></trkpt><trkpt lat="35.0408686" lon="32.3840105"><ele>11.5</ele><time>2015-04-25T17:10:13.0000000+00:00</time></trkpt><trkpt lat="35.0408694" lon="32.3841155"><ele>11.7</ele><time>2015-04-25T17:10:14.0000000+00:00</time></trkpt><trkpt lat="35.0408727" lon="32.3842131"><ele>11.8</ele><time>2015-04-25T17:10:15.0000000+00:00</time></trkpt><trkpt lat="35.0408703" lon="32.3843064"><ele>11.9</ele><time>2015-04-25T17:10:16.0000000+00:00</time></trkpt><trkpt lat="35.0408642" lon="32.3843854"><ele>11.9</ele><time>2015-04-25T17:10:17.0000000+00:00</time></trkpt><trkpt lat="35.0408609" lon="32.3844688"><ele>11.9</ele><time>2015-04-25T17:10:18.0000000+00:00</time></trkpt><trkpt lat="35.0408624" lon="32.3845411"><ele>12.4</ele><time>2015-04-25T17:10:19.0000000+00:00</time></trkpt><trkpt lat="35.0408626" lon="32.3846265"><ele>12.7</ele><time>2015-04-25T17:10:20.0000000+00:00</time></trkpt><trkpt lat="35.0408858" lon="32.3847086"><ele>12.8</ele><time>2015-04-25T17:10:21.0000000+00:00</time></trkpt><trkpt lat="35.0408883" lon="32.3847851"><ele>12.4</ele><time>2015-04-25T17:10:22.0000000+00:00</time></trkpt><trkpt lat="35.0408938" lon="32.3848732"><ele>12.1</ele><time>2015-04-25T17:10:23.0000000+00:00</time></trkpt><trkpt lat="35.0408966" lon="32.384957"><ele>12.0</ele><time>2015-04-25T17:10:24.0000000+00:00</time></trkpt><trkpt lat="35.0408961" lon="32.3850299"><ele>11.5</ele><time>2015-04-25T17:10:25.0000000+00:00</time></trkpt><trkpt lat="35.0408991" lon="32.385113"><ele>11.2</ele><time>2015-04-25T17:10:26.0000000+00:00</time></trkpt><trkpt lat="35.0408954" lon="32.3851949"><ele>11.6</ele><time>2015-04-25T17:10:27.0000000+00:00</time></trkpt><trkpt lat="35.040896" lon="32.3852831"><ele>11.7</ele><time>2015-04-25T17:10:28.0000000+00:00</time></trkpt><trkpt lat="35.0409052" lon="32.3853721"><ele>11.3</ele><time>2015-04-25T17:10:29.0000000+00:00</time></trkpt><trkpt lat="35.0409075" lon="32.3854531"><ele>11.1</ele><time>2015-04-25T17:10:30.0000000+00:00</time></trkpt><trkpt lat="35.040906" lon="32.3855391"><ele>11.0</ele><time>2015-04-25T17:10:31.0000000+00:00</time></trkpt><trkpt lat="35.0409074" lon="32.3856171"><ele>11.0</ele><time>2015-04-25T17:10:32.0000000+00:00</time></trkpt><trkpt lat="35.0409091" lon="32.3856861"><ele>11.5</ele><time>2015-04-25T17:10:33.0000000+00:00</time></trkpt><trkpt lat="35.0409103" lon="32.3857626"><ele>11.7</ele><time>2015-04-25T17:10:34.0000000+00:00</time></trkpt><trkpt lat="35.0409112" lon="32.385829"><ele>11.8</ele><time>2015-04-25T17:10:35.0000000+00:00</time></trkpt><trkpt lat="35.0409138" lon="32.3858987"><ele>11.9</ele><time>2015-04-25T17:10:36.0000000+00:00</time></trkpt><trkpt lat="35.0409161" lon="32.3859574"><ele>11.9</ele><time>2015-04-25T17:10:37.0000000+00:00</time></trkpt><trkpt lat="35.0409182" lon="32.3860173"><ele>11.9</ele><time>2015-04-25T17:10:38.0000000+00:00</time></trkpt><trkpt lat="35.0409116" lon="32.3860826"><ele>11.4</ele><time>2015-04-25T17:10:39.0000000+00:00</time></trkpt><trkpt lat="35.0409128" lon="32.3861446"><ele>11.7</ele><time>2015-04-25T17:10:40.0000000+00:00</time></trkpt><trkpt lat="35.0409175" lon="32.3862035"><ele>11.3</ele><time>2015-04-25T17:10:41.0000000+00:00</time></trkpt><trkpt lat="35.0409231" lon="32.3862682"><ele>11.1</ele><time>2015-04-25T17:10:42.0000000+00:00</time></trkpt><trkpt lat="35.0409253" lon="32.3863372"><ele>11.5</ele><time>2015-04-25T17:10:43.0000000+00:00</time></trkpt><trkpt lat="35.0409293" lon="32.3864051"><ele>11.7</ele><time>2015-04-25T17:10:44.0000000+00:00</time></trkpt><trkpt lat="35.040939" lon="32.3864719"><ele>11.3</ele><time>2015-04-25T17:10:45.0000000+00:00</time></trkpt><trkpt lat="35.0409438" lon="32.386533"><ele>11.1</ele><time>2015-04-25T17:10:46.0000000+00:00</time></trkpt><trkpt lat="35.0409532" lon="32.386608"><ele>11.0</ele><time>2015-04-25T17:10:47.0000000+00:00</time></trkpt><trkpt lat="35.0409601" lon="32.3866782"><ele>11.0</ele><time>2015-04-25T17:10:48.0000000+00:00</time></trkpt><trkpt lat="35.0409644" lon="32.3867406"><ele>11.0</ele><time>2015-04-25T17:10:49.0000000+00:00</time></trkpt><trkpt lat="35.0409711" lon="32.3868134"><ele>10.9</ele><time>2015-04-25T17:10:50.0000000+00:00</time></trkpt><trkpt lat="35.0409795" lon="32.3868823"><ele>10.9</ele><time>2015-04-25T17:10:51.0000000+00:00</time></trkpt><trkpt lat="35.0409834" lon="32.3869495"><ele>10.9</ele><time>2015-04-25T17:10:52.0000000+00:00</time></trkpt><trkpt lat="35.0409906" lon="32.3870155"><ele>11.4</ele><time>2015-04-25T17:10:53.0000000+00:00</time></trkpt><trkpt lat="35.041002" lon="32.3870793"><ele>11.7</ele><time>2015-04-25T17:10:54.0000000+00:00</time></trkpt><trkpt lat="35.0410077" lon="32.3871396"><ele>11.8</ele><time>2015-04-25T17:10:55.0000000+00:00</time></trkpt><trkpt lat="35.0410126" lon="32.3872012"><ele>11.9</ele><time>2015-04-25T17:10:56.0000000+00:00</time></trkpt><trkpt lat="35.0410201" lon="32.3872676"><ele>11.9</ele><time>2015-04-25T17:10:57.0000000+00:00</time></trkpt><trkpt lat="35.0410285" lon="32.3873301"><ele>11.9</ele><time>2015-04-25T17:10:58.0000000+00:00</time></trkpt><trkpt lat="35.0410301" lon="32.3873851"><ele>11.9</ele><time>2015-04-25T17:10:59.0000000+00:00</time></trkpt><trkpt lat="35.0410406" lon="32.3874969"><ele>11.9</ele><time>2015-04-25T17:11:01.0000000+00:00</time></trkpt><trkpt lat="35.0410587" lon="32.3875747"><ele>11.9</ele><time>2015-04-25T17:11:03.0000000+00:00</time></trkpt><trkpt lat="35.0410758" lon="32.3876658"><ele>11.2</ele><time>2015-04-25T17:11:05.0000000+00:00</time></trkpt><trkpt lat="35.0410914" lon="32.3877489"><ele>11.7</ele><time>2015-04-25T17:11:07.0000000+00:00</time></trkpt><trkpt lat="35.0410991" lon="32.3878059"><ele>11.8</ele><time>2015-04-25T17:11:08.0000000+00:00</time></trkpt><trkpt lat="35.0411013" lon="32.3878655"><ele>12.4</ele><time>2015-04-25T17:11:09.0000000+00:00</time></trkpt><trkpt lat="35.0410996" lon="32.3879705"><ele>13.0</ele><time>2015-04-25T17:11:11.0000000+00:00</time></trkpt><trkpt lat="35.0410934" lon="32.3880258"><ele>13.5</ele><time>2015-04-25T17:11:12.0000000+00:00</time></trkpt><trkpt lat="35.0410949" lon="32.3880824"><ele>13.7</ele><time>2015-04-25T17:11:13.0000000+00:00</time></trkpt><trkpt lat="35.0410874" lon="32.3881685"><ele>13.4</ele><time>2015-04-25T17:11:15.0000000+00:00</time></trkpt><trkpt lat="35.0410824" lon="32.3882504"><ele>13.5</ele><time>2015-04-25T17:11:17.0000000+00:00</time></trkpt><trkpt lat="35.0410827" lon="32.3883333"><ele>13.1</ele><time>2015-04-25T17:11:19.0000000+00:00</time></trkpt><trkpt lat="35.0410872" lon="32.3884231"><ele>13.0</ele><time>2015-04-25T17:11:21.0000000+00:00</time></trkpt><trkpt lat="35.0410808" lon="32.3885094"><ele>12.4</ele><time>2015-04-25T17:11:23.0000000+00:00</time></trkpt><trkpt lat="35.0410759" lon="32.3886035"><ele>12.1</ele><time>2015-04-25T17:11:25.0000000+00:00</time></trkpt><trkpt lat="35.0410746" lon="32.3886932"><ele>13.2</ele><time>2015-04-25T17:11:27.0000000+00:00</time></trkpt><trkpt lat="35.0410723" lon="32.3887799"><ele>14.3</ele><time>2015-04-25T17:11:29.0000000+00:00</time></trkpt><trkpt lat="35.0410734" lon="32.3888631"><ele>15.3</ele><time>2015-04-25T17:11:31.0000000+00:00</time></trkpt><trkpt lat="35.0410711" lon="32.3889562"><ele>15.0</ele><time>2015-04-25T17:11:33.0000000+00:00</time></trkpt><trkpt lat="35.0410704" lon="32.3890533"><ele>15.5</ele><time>2015-04-25T17:11:35.0000000+00:00</time></trkpt><trkpt lat="35.0410662" lon="32.389153"><ele>16.1</ele><time>2015-04-25T17:11:37.0000000+00:00</time></trkpt><trkpt lat="35.0410593" lon="32.3892204"><ele>16.0</ele><time>2015-04-25T17:11:38.0000000+00:00</time></trkpt><trkpt lat="35.0410532" lon="32.389276"><ele>16.5</ele><time>2015-04-25T17:11:39.0000000+00:00</time></trkpt><trkpt lat="35.0410506" lon="32.3893337"><ele>16.7</ele><time>2015-04-25T17:11:40.0000000+00:00</time></trkpt><trkpt lat="35.0410436" lon="32.3894276"><ele>17.4</ele><time>2015-04-25T17:11:42.0000000+00:00</time></trkpt><trkpt lat="35.0410472" lon="32.3895323"><ele>18.3</ele><time>2015-04-25T17:11:44.0000000+00:00</time></trkpt><trkpt lat="35.0410486" lon="32.3895879"><ele>18.6</ele><time>2015-04-25T17:11:45.0000000+00:00</time></trkpt><trkpt lat="35.0410542" lon="32.38969"><ele>18.1</ele><time>2015-04-25T17:11:47.0000000+00:00</time></trkpt><trkpt lat="35.0410491" lon="32.389751"><ele>17.5</ele><time>2015-04-25T17:11:48.0000000+00:00</time></trkpt><trkpt lat="35.0410494" lon="32.3898063"><ele>17.7</ele><time>2015-04-25T17:11:49.0000000+00:00</time></trkpt><trkpt lat="35.0410435" lon="32.3899204"><ele>17.1</ele><time>2015-04-25T17:11:51.0000000+00:00</time></trkpt><trkpt lat="35.0410401" lon="32.3899787"><ele>17.5</ele><time>2015-04-25T17:11:52.0000000+00:00</time></trkpt><trkpt lat="35.0410305" lon="32.3900869"><ele>17.3</ele><time>2015-04-25T17:11:54.0000000+00:00</time></trkpt><trkpt lat="35.041032" lon="32.3901458"><ele>16.6</ele><time>2015-04-25T17:11:55.0000000+00:00</time></trkpt><trkpt lat="35.0410306" lon="32.3902027"><ele>16.3</ele><time>2015-04-25T17:11:56.0000000+00:00</time></trkpt><trkpt lat="35.0410269" lon="32.390302"><ele>16.0</ele><time>2015-04-25T17:11:58.0000000+00:00</time></trkpt><trkpt lat="35.0410268" lon="32.3904009"><ele>15.2</ele><time>2015-04-25T17:12:00.0000000+00:00</time></trkpt><trkpt lat="35.0410164" lon="32.3904967"><ele>16.2</ele><time>2015-04-25T17:12:02.0000000+00:00</time></trkpt><trkpt lat="35.0410169" lon="32.3906052"><ele>17.5</ele><time>2015-04-25T17:12:04.0000000+00:00</time></trkpt><trkpt lat="35.0410127" lon="32.3906604"><ele>17.2</ele><time>2015-04-25T17:12:05.0000000+00:00</time></trkpt><trkpt lat="35.0410069" lon="32.3907202"><ele>17.6</ele><time>2015-04-25T17:12:06.0000000+00:00</time></trkpt><trkpt lat="35.041007" lon="32.3908183"><ele>17.8</ele><time>2015-04-25T17:12:08.0000000+00:00</time></trkpt><trkpt lat="35.0410141" lon="32.3909075"><ele>18.7</ele><time>2015-04-25T17:12:10.0000000+00:00</time></trkpt><trkpt lat="35.0410215" lon="32.3909953"><ele>19.6</ele><time>2015-04-25T17:12:12.0000000+00:00</time></trkpt><trkpt lat="35.0410222" lon="32.3910751"><ele>19.9</ele><time>2015-04-25T17:12:14.0000000+00:00</time></trkpt><trkpt lat="35.0410213" lon="32.3911621"><ele>19.2</ele><time>2015-04-25T17:12:16.0000000+00:00</time></trkpt><trkpt lat="35.0410201" lon="32.3912367"><ele>18.2</ele><time>2015-04-25T17:12:18.0000000+00:00</time></trkpt><trkpt lat="35.0410152" lon="32.391308"><ele>18.0</ele><time>2015-04-25T17:12:20.0000000+00:00</time></trkpt><trkpt lat="35.0410125" lon="32.391382"><ele>17.4</ele><time>2015-04-25T17:12:22.0000000+00:00</time></trkpt><trkpt lat="35.0410159" lon="32.391459"><ele>17.1</ele><time>2015-04-25T17:12:24.0000000+00:00</time></trkpt><trkpt lat="35.04102" lon="32.3915417"><ele>17.0</ele><time>2015-04-25T17:12:26.0000000+00:00</time></trkpt><trkpt lat="35.0410176" lon="32.3916306"><ele>16.9</ele><time>2015-04-25T17:12:28.0000000+00:00</time></trkpt><trkpt lat="35.0410144" lon="32.3917179"><ele>16.9</ele><time>2015-04-25T17:12:30.0000000+00:00</time></trkpt><trkpt lat="35.0410106" lon="32.3918014"><ele>16.9</ele><time>2015-04-25T17:12:32.0000000+00:00</time></trkpt><trkpt lat="35.0410032" lon="32.3918801"><ele>16.9</ele><time>2015-04-25T17:12:34.0000000+00:00</time></trkpt><trkpt lat="35.0410047" lon="32.3919575"><ele>16.4</ele><time>2015-04-25T17:12:36.0000000+00:00</time></trkpt><trkpt lat="35.0410161" lon="32.3920347"><ele>15.6</ele><time>2015-04-25T17:12:38.0000000+00:00</time></trkpt><trkpt lat="35.0410303" lon="32.3921175"><ele>14.8</ele><time>2015-04-25T17:12:40.0000000+00:00</time></trkpt><trkpt lat="35.0410439" lon="32.3922074"><ele>15.4</ele><time>2015-04-25T17:12:42.0000000+00:00</time></trkpt><trkpt lat="35.0410659" lon="32.3922981"><ele>16.5</ele><time>2015-04-25T17:12:44.0000000+00:00</time></trkpt><trkpt lat="35.0410929" lon="32.3923868"><ele>16.8</ele><time>2015-04-25T17:12:46.0000000+00:00</time></trkpt><trkpt lat="35.0411192" lon="32.3924687"><ele>16.9</ele><time>2015-04-25T17:12:48.0000000+00:00</time></trkpt><trkpt lat="35.0411394" lon="32.3925484"><ele>17.7</ele><time>2015-04-25T17:12:50.0000000+00:00</time></trkpt><trkpt lat="35.0411468" lon="32.3926215"><ele>17.9</ele><time>2015-04-25T17:12:52.0000000+00:00</time></trkpt><trkpt lat="35.041149" lon="32.3926889"><ele>16.7</ele><time>2015-04-25T17:12:54.0000000+00:00</time></trkpt><trkpt lat="35.0411346" lon="32.3927476"><ele>16.6</ele><time>2015-04-25T17:12:56.0000000+00:00</time></trkpt><trkpt lat="35.0411071" lon="32.3928008"><ele>16.9</ele><time>2015-04-25T17:12:58.0000000+00:00</time></trkpt><trkpt lat="35.0410778" lon="32.3928573"><ele>16.9</ele><time>2015-04-25T17:13:00.0000000+00:00</time></trkpt><trkpt lat="35.0410478" lon="32.3929169"><ele>15.7</ele><time>2015-04-25T17:13:02.0000000+00:00</time></trkpt><trkpt lat="35.0410222" lon="32.3929788"><ele>15.1</ele><time>2015-04-25T17:13:04.0000000+00:00</time></trkpt><trkpt lat="35.0410025" lon="32.3930476"><ele>15.0</ele><time>2015-04-25T17:13:06.0000000+00:00</time></trkpt><trkpt lat="35.040983" lon="32.3931228"><ele>13.7</ele><time>2015-04-25T17:13:08.0000000+00:00</time></trkpt><trkpt lat="35.0409589" lon="32.393198"><ele>12.6</ele><time>2015-04-25T17:13:10.0000000+00:00</time></trkpt><trkpt lat="35.0409285" lon="32.3932676"><ele>12.6</ele><time>2015-04-25T17:13:12.0000000+00:00</time></trkpt><trkpt lat="35.0408978" lon="32.3933375"><ele>12.3</ele><time>2015-04-25T17:13:14.0000000+00:00</time></trkpt><trkpt lat="35.0408782" lon="32.3934072"><ele>12.8</ele><time>2015-04-25T17:13:16.0000000+00:00</time></trkpt><trkpt lat="35.0408601" lon="32.3934718"><ele>12.1</ele><time>2015-04-25T17:13:18.0000000+00:00</time></trkpt><trkpt lat="35.0408483" lon="32.3935376"><ele>12.0</ele><time>2015-04-25T17:13:20.0000000+00:00</time></trkpt><trkpt lat="35.0408436" lon="32.3936024"><ele>11.7</ele><time>2015-04-25T17:13:22.0000000+00:00</time></trkpt><trkpt lat="35.0408446" lon="32.3936619"><ele>11.9</ele><time>2015-04-25T17:13:24.0000000+00:00</time></trkpt><trkpt lat="35.040827" lon="32.3937273"><ele>14.0</ele><time>2015-04-25T17:13:27.0000000+00:00</time></trkpt><trkpt lat="35.0408103" lon="32.3937868"><ele>14.9</ele><time>2015-04-25T17:13:31.0000000+00:00</time></trkpt><trkpt lat="35.0408046" lon="32.3938554"><ele>13.6</ele><time>2015-04-25T17:13:35.0000000+00:00</time></trkpt><trkpt lat="35.0407873" lon="32.3939234"><ele>13.0</ele><time>2015-04-25T17:13:38.0000000+00:00</time></trkpt><trkpt lat="35.0407682" lon="32.3940017"><ele>14.6</ele><time>2015-04-25T17:13:41.0000000+00:00</time></trkpt><trkpt lat="35.0407516" lon="32.3940538"><ele>15.3</ele><time>2015-04-25T17:13:43.0000000+00:00</time></trkpt><trkpt lat="35.040736" lon="32.3941094"><ele>15.8</ele><time>2015-04-25T17:13:45.0000000+00:00</time></trkpt><trkpt lat="35.0407085" lon="32.3941835"><ele>16.7</ele><time>2015-04-25T17:13:48.0000000+00:00</time></trkpt><trkpt lat="35.0406793" lon="32.3942472"><ele>16.9</ele><time>2015-04-25T17:13:51.0000000+00:00</time></trkpt><trkpt lat="35.0406587" lon="32.3943039"><ele>16.9</ele><time>2015-04-25T17:13:54.0000000+00:00</time></trkpt><trkpt lat="35.0406661" lon="32.3943793"><ele>13.7</ele><time>2015-04-25T17:13:58.0000000+00:00</time></trkpt><trkpt lat="35.040656" lon="32.3944426"><ele>14.6</ele><time>2015-04-25T17:14:01.0000000+00:00</time></trkpt><trkpt lat="35.0406501" lon="32.3945001"><ele>16.3</ele><time>2015-04-25T17:14:04.0000000+00:00</time></trkpt><trkpt lat="35.0406556" lon="32.3945549"><ele>14.7</ele><time>2015-04-25T17:14:07.0000000+00:00</time></trkpt><trkpt lat="35.0406288" lon="32.3946229"><ele>14.8</ele><time>2015-04-25T17:14:10.0000000+00:00</time></trkpt><trkpt lat="35.0405999" lon="32.3946692"><ele>15.1</ele><time>2015-04-25T17:14:12.0000000+00:00</time></trkpt><trkpt lat="35.0405795" lon="32.3947433"><ele>14.2</ele><time>2015-04-25T17:14:15.0000000+00:00</time></trkpt><trkpt lat="35.0405743" lon="32.3948289"><ele>15.6</ele><time>2015-04-25T17:14:18.0000000+00:00</time></trkpt><trkpt lat="35.0405701" lon="32.3948874"><ele>16.3</ele><time>2015-04-25T17:14:20.0000000+00:00</time></trkpt><trkpt lat="35.0405616" lon="32.3949568"><ele>16.0</ele><time>2015-04-25T17:14:23.0000000+00:00</time></trkpt><trkpt lat="35.0405346" lon="32.3950124"><ele>17.1</ele><time>2015-04-25T17:14:26.0000000+00:00</time></trkpt><trkpt lat="35.040501" lon="32.3950504"><ele>16.6</ele><time>2015-04-25T17:14:31.0000000+00:00</time></trkpt><trkpt lat="35.040513" lon="32.3949941"><ele>18.3</ele><time>2015-04-25T17:15:25.0000000+00:00</time></trkpt><trkpt lat="35.0405086" lon="32.39493"><ele>20.9</ele><time>2015-04-25T17:15:36.0000000+00:00</time></trkpt><trkpt lat="35.0404876" lon="32.3948785"><ele>21.8</ele><time>2015-04-25T17:16:21.0000000+00:00</time></trkpt><trkpt lat="35.0404565" lon="32.3948388"><ele>16.9</ele><time>2015-04-25T17:30:49.0000000+00:00</time></trkpt><trkpt lat="35.040421" lon="32.3948737"><ele>12.3</ele><time>2015-04-25T17:35:03.0000000+00:00</time></trkpt><trkpt lat="35.0404631" lon="32.3948931"><ele>15.2</ele><time>2015-04-25T17:40:09.0000000+00:00</time></trkpt><trkpt lat="35.0404239" lon="32.3949314"><ele>14.7</ele><time>2015-04-25T17:41:03.0000000+00:00</time></trkpt><trkpt lat="35.0403899" lon="32.3949801"><ele>13.5</ele><time>2015-04-25T17:41:06.0000000+00:00</time></trkpt><trkpt lat="35.0403558" lon="32.3950583"><ele>12.3</ele><time>2015-04-25T17:41:08.0000000+00:00</time></trkpt><trkpt lat="35.0403212" lon="32.3951574"><ele>12.0</ele><time>2015-04-25T17:41:10.0000000+00:00</time></trkpt><trkpt lat="35.0402848" lon="32.3952533"><ele>12.5</ele><time>2015-04-25T17:41:12.0000000+00:00</time></trkpt><trkpt lat="35.0402513" lon="32.3953404"><ele>13.1</ele><time>2015-04-25T17:41:14.0000000+00:00</time></trkpt><trkpt lat="35.0402119" lon="32.395425"><ele>13.5</ele><time>2015-04-25T17:41:16.0000000+00:00</time></trkpt><trkpt lat="35.0401711" lon="32.3955015"><ele>13.3</ele><time>2015-04-25T17:41:18.0000000+00:00</time></trkpt><trkpt lat="35.0401292" lon="32.3955679"><ele>13.0</ele><time>2015-04-25T17:41:20.0000000+00:00</time></trkpt><trkpt lat="35.040101" lon="32.3956312"><ele>13.0</ele><time>2015-04-25T17:41:22.0000000+00:00</time></trkpt><trkpt lat="35.0400858" lon="32.3956841"><ele>12.2</ele><time>2015-04-25T17:41:24.0000000+00:00</time></trkpt><trkpt lat="35.0400532" lon="32.3957564"><ele>13.3</ele><time>2015-04-25T17:41:27.0000000+00:00</time></trkpt><trkpt lat="35.0400228" lon="32.3958206"><ele>14.3</ele><time>2015-04-25T17:41:29.0000000+00:00</time></trkpt><trkpt lat="35.039985" lon="32.395893"><ele>15.5</ele><time>2015-04-25T17:41:31.0000000+00:00</time></trkpt><trkpt lat="35.0399433" lon="32.3959706"><ele>15.8</ele><time>2015-04-25T17:41:33.0000000+00:00</time></trkpt><trkpt lat="35.039901" lon="32.3960561"><ele>16.7</ele><time>2015-04-25T17:41:35.0000000+00:00</time></trkpt><trkpt lat="35.0398778" lon="32.3961044"><ele>16.8</ele><time>2015-04-25T17:41:36.0000000+00:00</time></trkpt><trkpt lat="35.0398494" lon="32.3961855"><ele>17.4</ele><time>2015-04-25T17:41:37.0000000+00:00</time></trkpt><trkpt lat="35.0398063" lon="32.3962778"><ele>17.8</ele><time>2015-04-25T17:41:39.0000000+00:00</time></trkpt><trkpt lat="35.0397846" lon="32.3963294"><ele>17.9</ele><time>2015-04-25T17:41:40.0000000+00:00</time></trkpt><trkpt lat="35.0397429" lon="32.3964084"><ele>17.2</ele><time>2015-04-25T17:41:42.0000000+00:00</time></trkpt><trkpt lat="35.0397186" lon="32.3964827"><ele>16.5</ele><time>2015-04-25T17:41:44.0000000+00:00</time></trkpt><trkpt lat="35.039683" lon="32.3965398"><ele>15.6</ele><time>2015-04-25T17:41:46.0000000+00:00</time></trkpt><trkpt lat="35.0396477" lon="32.3966115"><ele>15.3</ele><time>2015-04-25T17:41:48.0000000+00:00</time></trkpt><trkpt lat="35.0396165" lon="32.3966947"><ele>15.5</ele><time>2015-04-25T17:41:50.0000000+00:00</time></trkpt><trkpt lat="35.0395938" lon="32.3967728"><ele>16.6</ele><time>2015-04-25T17:41:52.0000000+00:00</time></trkpt><trkpt lat="35.0395744" lon="32.3968429"><ele>16.1</ele><time>2015-04-25T17:41:54.0000000+00:00</time></trkpt><trkpt lat="35.0395538" lon="32.396909"><ele>16.0</ele><time>2015-04-25T17:41:56.0000000+00:00</time></trkpt><trkpt lat="35.0395281" lon="32.396973"><ele>16.7</ele><time>2015-04-25T17:41:58.0000000+00:00</time></trkpt><trkpt lat="35.039496" lon="32.3970371"><ele>16.1</ele><time>2015-04-25T17:42:00.0000000+00:00</time></trkpt><trkpt lat="35.0394704" lon="32.3971097"><ele>16.0</ele><time>2015-04-25T17:42:02.0000000+00:00</time></trkpt><trkpt lat="35.039443" lon="32.3971883"><ele>15.9</ele><time>2015-04-25T17:42:04.0000000+00:00</time></trkpt><trkpt lat="35.039417" lon="32.3972763"><ele>15.9</ele><time>2015-04-25T17:42:06.0000000+00:00</time></trkpt><trkpt lat="35.0393946" lon="32.397369"><ele>15.2</ele><time>2015-04-25T17:42:08.0000000+00:00</time></trkpt><trkpt lat="35.0393765" lon="32.3974669"><ele>15.5</ele><time>2015-04-25T17:42:10.0000000+00:00</time></trkpt><trkpt lat="35.039364" lon="32.397572"><ele>16.3</ele><time>2015-04-25T17:42:12.0000000+00:00</time></trkpt><trkpt lat="35.039359" lon="32.3976806"><ele>16.8</ele><time>2015-04-25T17:42:14.0000000+00:00</time></trkpt><trkpt lat="35.0393498" lon="32.3977887"><ele>16.9</ele><time>2015-04-25T17:42:16.0000000+00:00</time></trkpt><trkpt lat="35.0393453" lon="32.3978444"><ele>16.9</ele><time>2015-04-25T17:42:17.0000000+00:00</time></trkpt><trkpt lat="35.0393426" lon="32.3979486"><ele>16.4</ele><time>2015-04-25T17:42:18.0000000+00:00</time></trkpt><trkpt lat="35.0393356" lon="32.3980102"><ele>16.2</ele><time>2015-04-25T17:42:19.0000000+00:00</time></trkpt><trkpt lat="35.0393348" lon="32.3980829"><ele>16.1</ele><time>2015-04-25T17:42:20.0000000+00:00</time></trkpt><trkpt lat="35.039333" lon="32.3981548"><ele>16.5</ele><time>2015-04-25T17:42:21.0000000+00:00</time></trkpt><trkpt lat="35.0393261" lon="32.3982255"><ele>16.2</ele><time>2015-04-25T17:42:22.0000000+00:00</time></trkpt><trkpt lat="35.0393169" lon="32.3982936"><ele>15.6</ele><time>2015-04-25T17:42:23.0000000+00:00</time></trkpt><trkpt lat="35.0393092" lon="32.398373"><ele>15.3</ele><time>2015-04-25T17:42:24.0000000+00:00</time></trkpt><trkpt lat="35.0392947" lon="32.3984419"><ele>15.1</ele><time>2015-04-25T17:42:25.0000000+00:00</time></trkpt><trkpt lat="35.0392877" lon="32.3985122"><ele>15.0</ele><time>2015-04-25T17:42:26.0000000+00:00</time></trkpt><trkpt lat="35.0392845" lon="32.3985887"><ele>14.5</ele><time>2015-04-25T17:42:27.0000000+00:00</time></trkpt><trkpt lat="35.039278" lon="32.398665"><ele>14.2</ele><time>2015-04-25T17:42:28.0000000+00:00</time></trkpt><trkpt lat="35.0392809" lon="32.3987241"><ele>13.6</ele><time>2015-04-25T17:42:29.0000000+00:00</time></trkpt><trkpt lat="35.0392818" lon="32.3987992"><ele>12.7</ele><time>2015-04-25T17:42:30.0000000+00:00</time></trkpt><trkpt lat="35.039278" lon="32.3988661"><ele>12.3</ele><time>2015-04-25T17:42:31.0000000+00:00</time></trkpt><trkpt lat="35.0392827" lon="32.398935"><ele>11.6</ele><time>2015-04-25T17:42:32.0000000+00:00</time></trkpt><trkpt lat="35.0392813" lon="32.3990079"><ele>11.8</ele><time>2015-04-25T17:42:33.0000000+00:00</time></trkpt><trkpt lat="35.0392761" lon="32.3990842"><ele>11.9</ele><time>2015-04-25T17:42:34.0000000+00:00</time></trkpt><trkpt lat="35.0392683" lon="32.3991544"><ele>11.9</ele><time>2015-04-25T17:42:35.0000000+00:00</time></trkpt><trkpt lat="35.0392719" lon="32.3992214"><ele>11.4</ele><time>2015-04-25T17:42:36.0000000+00:00</time></trkpt><trkpt lat="35.0392537" lon="32.3992921"><ele>11.7</ele><time>2015-04-25T17:42:37.0000000+00:00</time></trkpt><trkpt lat="35.0392352" lon="32.3993723"><ele>12.3</ele><time>2015-04-25T17:42:38.0000000+00:00</time></trkpt><trkpt lat="35.0392354" lon="32.3994497"><ele>12.6</ele><time>2015-04-25T17:42:39.0000000+00:00</time></trkpt><trkpt lat="35.0392388" lon="32.3995322"><ele>12.8</ele><time>2015-04-25T17:42:40.0000000+00:00</time></trkpt><trkpt lat="35.0392294" lon="32.3996176"><ele>12.9</ele><time>2015-04-25T17:42:41.0000000+00:00</time></trkpt><trkpt lat="35.039231" lon="32.3996783"><ele>12.4</ele><time>2015-04-25T17:42:42.0000000+00:00</time></trkpt><trkpt lat="35.0392309" lon="32.3997594"><ele>12.7</ele><time>2015-04-25T17:42:43.0000000+00:00</time></trkpt><trkpt lat="35.0392259" lon="32.399849"><ele>12.8</ele><time>2015-04-25T17:42:44.0000000+00:00</time></trkpt><trkpt lat="35.0392261" lon="32.3999259"><ele>13.4</ele><time>2015-04-25T17:42:45.0000000+00:00</time></trkpt><trkpt lat="35.0392185" lon="32.4000018"><ele>13.6</ele><time>2015-04-25T17:42:46.0000000+00:00</time></trkpt><trkpt lat="35.0392062" lon="32.4000792"><ele>13.8</ele><time>2015-04-25T17:42:47.0000000+00:00</time></trkpt><trkpt lat="35.0392046" lon="32.4001521"><ele>13.4</ele><time>2015-04-25T17:42:48.0000000+00:00</time></trkpt><trkpt lat="35.0391938" lon="32.4002268"><ele>13.1</ele><time>2015-04-25T17:42:49.0000000+00:00</time></trkpt><trkpt lat="35.0391842" lon="32.4003044"><ele>13.0</ele><time>2015-04-25T17:42:50.0000000+00:00</time></trkpt><trkpt lat="35.0391805" lon="32.4003788"><ele>13.0</ele><time>2015-04-25T17:42:51.0000000+00:00</time></trkpt><trkpt lat="35.0391684" lon="32.4004593"><ele>13.0</ele><time>2015-04-25T17:42:52.0000000+00:00</time></trkpt><trkpt lat="35.0391523" lon="32.400518"><ele>12.4</ele><time>2015-04-25T17:42:53.0000000+00:00</time></trkpt><trkpt lat="35.0391426" lon="32.4005888"><ele>12.7</ele><time>2015-04-25T17:42:54.0000000+00:00</time></trkpt><trkpt lat="35.0391458" lon="32.4006554"><ele>12.3</ele><time>2015-04-25T17:42:55.0000000+00:00</time></trkpt><trkpt lat="35.03914" lon="32.4007242"><ele>12.6</ele><time>2015-04-25T17:42:56.0000000+00:00</time></trkpt><trkpt lat="35.0391408" lon="32.4007854"><ele>12.8</ele><time>2015-04-25T17:42:57.0000000+00:00</time></trkpt><trkpt lat="35.0391303" lon="32.4008428"><ele>12.9</ele><time>2015-04-25T17:42:58.0000000+00:00</time></trkpt><trkpt lat="35.0391282" lon="32.4009066"><ele>12.9</ele><time>2015-04-25T17:42:59.0000000+00:00</time></trkpt><trkpt lat="35.0391271" lon="32.4009738"><ele>12.4</ele><time>2015-04-25T17:43:00.0000000+00:00</time></trkpt><trkpt lat="35.0391219" lon="32.4010447"><ele>12.7</ele><time>2015-04-25T17:43:01.0000000+00:00</time></trkpt><trkpt lat="35.0391145" lon="32.4011039"><ele>12.8</ele><time>2015-04-25T17:43:02.0000000+00:00</time></trkpt><trkpt lat="35.0391114" lon="32.4011733"><ele>12.9</ele><time>2015-04-25T17:43:03.0000000+00:00</time></trkpt><trkpt lat="35.0391135" lon="32.4012409"><ele>12.9</ele><time>2015-04-25T17:43:04.0000000+00:00</time></trkpt><trkpt lat="35.0391053" lon="32.4013088"><ele>12.9</ele><time>2015-04-25T17:43:05.0000000+00:00</time></trkpt><trkpt lat="35.0391016" lon="32.4013688"><ele>12.9</ele><time>2015-04-25T17:43:06.0000000+00:00</time></trkpt><trkpt lat="35.0390876" lon="32.4014287"><ele>12.9</ele><time>2015-04-25T17:43:07.0000000+00:00</time></trkpt><trkpt lat="35.0390846" lon="32.4015073"><ele>12.4</ele><time>2015-04-25T17:43:08.0000000+00:00</time></trkpt><trkpt lat="35.0390855" lon="32.4015924"><ele>12.2</ele><time>2015-04-25T17:43:09.0000000+00:00</time></trkpt><trkpt lat="35.0390769" lon="32.401656"><ele>11.6</ele><time>2015-04-25T17:43:10.0000000+00:00</time></trkpt><trkpt lat="35.0390854" lon="32.40173"><ele>11.2</ele><time>2015-04-25T17:43:11.0000000+00:00</time></trkpt><trkpt lat="35.0390885" lon="32.4018108"><ele>11.1</ele><time>2015-04-25T17:43:12.0000000+00:00</time></trkpt><trkpt lat="35.0390813" lon="32.4018861"><ele>11.0</ele><time>2015-04-25T17:43:13.0000000+00:00</time></trkpt><trkpt lat="35.0390799" lon="32.4019706"><ele>11.5</ele><time>2015-04-25T17:43:14.0000000+00:00</time></trkpt><trkpt lat="35.0390688" lon="32.4020298"><ele>11.7</ele><time>2015-04-25T17:43:15.0000000+00:00</time></trkpt><trkpt lat="35.0390715" lon="32.402105"><ele>11.3</ele><time>2015-04-25T17:43:16.0000000+00:00</time></trkpt><trkpt lat="35.0390581" lon="32.4021752"><ele>11.6</ele><time>2015-04-25T17:43:17.0000000+00:00</time></trkpt><trkpt lat="35.0390508" lon="32.40225"><ele>12.3</ele><time>2015-04-25T17:43:18.0000000+00:00</time></trkpt><trkpt lat="35.039049" lon="32.4023275"><ele>12.6</ele><time>2015-04-25T17:43:19.0000000+00:00</time></trkpt><trkpt lat="35.03905" lon="32.402396"><ele>12.8</ele><time>2015-04-25T17:43:20.0000000+00:00</time></trkpt><trkpt lat="35.039046" lon="32.4024734"><ele>12.3</ele><time>2015-04-25T17:43:21.0000000+00:00</time></trkpt><trkpt lat="35.0390375" lon="32.4025477"><ele>12.1</ele><time>2015-04-25T17:43:22.0000000+00:00</time></trkpt><trkpt lat="35.0390297" lon="32.402617"><ele>12.0</ele><time>2015-04-25T17:43:23.0000000+00:00</time></trkpt><trkpt lat="35.0390276" lon="32.4026985"><ele>12.0</ele><time>2015-04-25T17:43:24.0000000+00:00</time></trkpt><trkpt lat="35.0390097" lon="32.4027656"><ele>12.5</ele><time>2015-04-25T17:43:25.0000000+00:00</time></trkpt><trkpt lat="35.0390076" lon="32.4028323"><ele>12.2</ele><time>2015-04-25T17:43:26.0000000+00:00</time></trkpt><trkpt lat="35.0390038" lon="32.4029029"><ele>12.6</ele><time>2015-04-25T17:43:27.0000000+00:00</time></trkpt><trkpt lat="35.0389917" lon="32.402973"><ele>13.2</ele><time>2015-04-25T17:43:28.0000000+00:00</time></trkpt><trkpt lat="35.0389786" lon="32.403044"><ele>13.6</ele><time>2015-04-25T17:43:29.0000000+00:00</time></trkpt><trkpt lat="35.0389702" lon="32.4031049"><ele>13.8</ele><time>2015-04-25T17:43:30.0000000+00:00</time></trkpt><trkpt lat="35.0389632" lon="32.4031665"><ele>13.8</ele><time>2015-04-25T17:43:31.0000000+00:00</time></trkpt><trkpt lat="35.0389548" lon="32.4032352"><ele>14.4</ele><time>2015-04-25T17:43:32.0000000+00:00</time></trkpt><trkpt lat="35.0389448" lon="32.4032951"><ele>14.7</ele><time>2015-04-25T17:43:33.0000000+00:00</time></trkpt><trkpt lat="35.0389205" lon="32.403359"><ele>15.3</ele><time>2015-04-25T17:43:34.0000000+00:00</time></trkpt><trkpt lat="35.0388983" lon="32.4034143"><ele>15.6</ele><time>2015-04-25T17:43:35.0000000+00:00</time></trkpt><trkpt lat="35.0388883" lon="32.4034816"><ele>15.8</ele><time>2015-04-25T17:43:36.0000000+00:00</time></trkpt><trkpt lat="35.0388799" lon="32.4035525"><ele>15.9</ele><time>2015-04-25T17:43:37.0000000+00:00</time></trkpt><trkpt lat="35.0388676" lon="32.4036171"><ele>15.9</ele><time>2015-04-25T17:43:38.0000000+00:00</time></trkpt><trkpt lat="35.0388546" lon="32.4036822"><ele>15.4</ele><time>2015-04-25T17:43:39.0000000+00:00</time></trkpt><trkpt lat="35.0388378" lon="32.403747"><ele>15.2</ele><time>2015-04-25T17:43:40.0000000+00:00</time></trkpt><trkpt lat="35.0388316" lon="32.4038135"><ele>15.1</ele><time>2015-04-25T17:43:41.0000000+00:00</time></trkpt><trkpt lat="35.0388146" lon="32.4038835"><ele>15.0</ele><time>2015-04-25T17:43:42.0000000+00:00</time></trkpt><trkpt lat="35.0388065" lon="32.4039511"><ele>15.0</ele><time>2015-04-25T17:43:43.0000000+00:00</time></trkpt><trkpt lat="35.0387841" lon="32.4040145"><ele>14.9</ele><time>2015-04-25T17:43:44.0000000+00:00</time></trkpt><trkpt lat="35.0387658" lon="32.4040853"><ele>14.9</ele><time>2015-04-25T17:43:45.0000000+00:00</time></trkpt><trkpt lat="35.0387497" lon="32.4041575"><ele>15.4</ele><time>2015-04-25T17:43:46.0000000+00:00</time></trkpt><trkpt lat="35.0387292" lon="32.404216"><ele>16.2</ele><time>2015-04-25T17:43:47.0000000+00:00</time></trkpt><trkpt lat="35.0387143" lon="32.4042905"><ele>16.6</ele><time>2015-04-25T17:43:48.0000000+00:00</time></trkpt><trkpt lat="35.038699" lon="32.4043479"><ele>16.7</ele><time>2015-04-25T17:43:49.0000000+00:00</time></trkpt><trkpt lat="35.0386822" lon="32.4044082"><ele>16.3</ele><time>2015-04-25T17:43:50.0000000+00:00</time></trkpt><trkpt lat="35.0386684" lon="32.4044685"><ele>16.1</ele><time>2015-04-25T17:43:51.0000000+00:00</time></trkpt><trkpt lat="35.0386527" lon="32.4045293"><ele>16.0</ele><time>2015-04-25T17:43:52.0000000+00:00</time></trkpt><trkpt lat="35.0386361" lon="32.4046004"><ele>16.0</ele><time>2015-04-25T17:43:53.0000000+00:00</time></trkpt><trkpt lat="35.0386099" lon="32.4046527"><ele>16.0</ele><time>2015-04-25T17:43:54.0000000+00:00</time></trkpt><trkpt lat="35.0385808" lon="32.4047546"><ele>14.4</ele><time>2015-04-25T17:43:56.0000000+00:00</time></trkpt><trkpt lat="35.0385631" lon="32.4048235"><ele>14.2</ele><time>2015-04-25T17:43:57.0000000+00:00</time></trkpt><trkpt lat="35.0385484" lon="32.4048839"><ele>14.1</ele><time>2015-04-25T17:43:58.0000000+00:00</time></trkpt><trkpt lat="35.0385329" lon="32.40495"><ele>14.0</ele><time>2015-04-25T17:43:59.0000000+00:00</time></trkpt><trkpt lat="35.0385246" lon="32.4050135"><ele>14.0</ele><time>2015-04-25T17:44:00.0000000+00:00</time></trkpt><trkpt lat="35.0385171" lon="32.4050753"><ele>13.9</ele><time>2015-04-25T17:44:01.0000000+00:00</time></trkpt><trkpt lat="35.0384966" lon="32.4051286"><ele>13.9</ele><time>2015-04-25T17:44:02.0000000+00:00</time></trkpt><trkpt lat="35.0384869" lon="32.4051884"><ele>13.9</ele><time>2015-04-25T17:44:03.0000000+00:00</time></trkpt><trkpt lat="35.0384511" lon="32.405239"><ele>13.9</ele><time>2015-04-25T17:44:04.0000000+00:00</time></trkpt><trkpt lat="35.0384384" lon="32.4053009"><ele>13.9</ele><time>2015-04-25T17:44:05.0000000+00:00</time></trkpt><trkpt lat="35.0384039" lon="32.4054024"><ele>13.2</ele><time>2015-04-25T17:44:07.0000000+00:00</time></trkpt><trkpt lat="35.038394" lon="32.4054586"><ele>12.6</ele><time>2015-04-25T17:44:08.0000000+00:00</time></trkpt><trkpt lat="35.0384057" lon="32.4055595"><ele>12.6</ele><time>2015-04-25T17:44:10.0000000+00:00</time></trkpt><trkpt lat="35.0384248" lon="32.4056676"><ele>12.3</ele><time>2015-04-25T17:44:12.0000000+00:00</time></trkpt><trkpt lat="35.0384394" lon="32.4057237"><ele>13.1</ele><time>2015-04-25T17:44:13.0000000+00:00</time></trkpt><trkpt lat="35.0384524" lon="32.4057857"><ele>13.5</ele><time>2015-04-25T17:44:14.0000000+00:00</time></trkpt><trkpt lat="35.0384824" lon="32.4058942"><ele>13.8</ele><time>2015-04-25T17:44:16.0000000+00:00</time></trkpt><trkpt lat="35.0384902" lon="32.4059618"><ele>14.4</ele><time>2015-04-25T17:44:17.0000000+00:00</time></trkpt><trkpt lat="35.0384924" lon="32.4060306"><ele>14.2</ele><time>2015-04-25T17:44:18.0000000+00:00</time></trkpt><trkpt lat="35.0384923" lon="32.4060975"><ele>14.0</ele><time>2015-04-25T17:44:19.0000000+00:00</time></trkpt><trkpt lat="35.0384991" lon="32.4061686"><ele>14.5</ele><time>2015-04-25T17:44:20.0000000+00:00</time></trkpt><trkpt lat="35.0385136" lon="32.4062368"><ele>14.7</ele><time>2015-04-25T17:44:21.0000000+00:00</time></trkpt><trkpt lat="35.0385236" lon="32.4063008"><ele>14.8</ele><time>2015-04-25T17:44:22.0000000+00:00</time></trkpt><trkpt lat="35.0385376" lon="32.4063768"><ele>14.9</ele><time>2015-04-25T17:44:23.0000000+00:00</time></trkpt><trkpt lat="35.0385466" lon="32.4064452"><ele>14.9</ele><time>2015-04-25T17:44:24.0000000+00:00</time></trkpt><trkpt lat="35.0385542" lon="32.4065118"><ele>15.4</ele><time>2015-04-25T17:44:25.0000000+00:00</time></trkpt><trkpt lat="35.0385698" lon="32.4065801"><ele>15.2</ele><time>2015-04-25T17:44:26.0000000+00:00</time></trkpt><trkpt lat="35.0385835" lon="32.4066407"><ele>15.1</ele><time>2015-04-25T17:44:27.0000000+00:00</time></trkpt><trkpt lat="35.0386045" lon="32.4067109"><ele>15.0</ele><time>2015-04-25T17:44:28.0000000+00:00</time></trkpt><trkpt lat="35.0386258" lon="32.4067773"><ele>15.5</ele><time>2015-04-25T17:44:29.0000000+00:00</time></trkpt><trkpt lat="35.0386349" lon="32.406847"><ele>15.7</ele><time>2015-04-25T17:44:30.0000000+00:00</time></trkpt><trkpt lat="35.0386408" lon="32.4069089"><ele>15.8</ele><time>2015-04-25T17:44:31.0000000+00:00</time></trkpt><trkpt lat="35.0386503" lon="32.4069641"><ele>15.9</ele><time>2015-04-25T17:44:32.0000000+00:00</time></trkpt><trkpt lat="35.0386692" lon="32.4070264"><ele>16.4</ele><time>2015-04-25T17:44:33.0000000+00:00</time></trkpt><trkpt lat="35.038676" lon="32.4070921"><ele>16.7</ele><time>2015-04-25T17:44:34.0000000+00:00</time></trkpt><trkpt lat="35.0386921" lon="32.4071446"><ele>16.3</ele><time>2015-04-25T17:44:35.0000000+00:00</time></trkpt><trkpt lat="35.0387103" lon="32.4072143"><ele>16.1</ele><time>2015-04-25T17:44:36.0000000+00:00</time></trkpt><trkpt lat="35.0387311" lon="32.4072859"><ele>16.0</ele><time>2015-04-25T17:44:37.0000000+00:00</time></trkpt><trkpt lat="35.0387426" lon="32.4073541"><ele>16.0</ele><time>2015-04-25T17:44:38.0000000+00:00</time></trkpt><trkpt lat="35.0387666" lon="32.4074239"><ele>16.0</ele><time>2015-04-25T17:44:39.0000000+00:00</time></trkpt><trkpt lat="35.0387809" lon="32.4074927"><ele>15.9</ele><time>2015-04-25T17:44:40.0000000+00:00</time></trkpt><trkpt lat="35.0387963" lon="32.4075696"><ele>16.4</ele><time>2015-04-25T17:44:41.0000000+00:00</time></trkpt><trkpt lat="35.0388117" lon="32.4076347"><ele>16.2</ele><time>2015-04-25T17:44:42.0000000+00:00</time></trkpt><trkpt lat="35.0388209" lon="32.407703"><ele>16.1</ele><time>2015-04-25T17:44:43.0000000+00:00</time></trkpt><trkpt lat="35.0388406" lon="32.4077638"><ele>16.0</ele><time>2015-04-25T17:44:44.0000000+00:00</time></trkpt><trkpt lat="35.0388521" lon="32.4078356"><ele>16.0</ele><time>2015-04-25T17:44:45.0000000+00:00</time></trkpt><trkpt lat="35.0388563" lon="32.4079002"><ele>15.4</ele><time>2015-04-25T17:44:46.0000000+00:00</time></trkpt><trkpt lat="35.038871" lon="32.407966"><ele>15.2</ele><time>2015-04-25T17:44:47.0000000+00:00</time></trkpt><trkpt lat="35.0388892" lon="32.4080313"><ele>14.6</ele><time>2015-04-25T17:44:48.0000000+00:00</time></trkpt><trkpt lat="35.0388971" lon="32.4081045"><ele>14.7</ele><time>2015-04-25T17:44:49.0000000+00:00</time></trkpt><trkpt lat="35.0389114" lon="32.4081654"><ele>15.3</ele><time>2015-04-25T17:44:50.0000000+00:00</time></trkpt><trkpt lat="35.0389304" lon="32.4082223"><ele>15.1</ele><time>2015-04-25T17:44:51.0000000+00:00</time></trkpt><trkpt lat="35.0389408" lon="32.4082966"><ele>15.5</ele><time>2015-04-25T17:44:52.0000000+00:00</time></trkpt><trkpt lat="35.0389452" lon="32.4083674"><ele>15.7</ele><time>2015-04-25T17:44:53.0000000+00:00</time></trkpt><trkpt lat="35.0389426" lon="32.4084378"><ele>15.3</ele><time>2015-04-25T17:44:54.0000000+00:00</time></trkpt><trkpt lat="35.0389526" lon="32.4085042"><ele>15.6</ele><time>2015-04-25T17:44:55.0000000+00:00</time></trkpt><trkpt lat="35.0389654" lon="32.4085738"><ele>15.8</ele><time>2015-04-25T17:44:56.0000000+00:00</time></trkpt><trkpt lat="35.0389793" lon="32.4086415"><ele>16.4</ele><time>2015-04-25T17:44:57.0000000+00:00</time></trkpt><trkpt lat="35.0389872" lon="32.4087191"><ele>17.1</ele><time>2015-04-25T17:44:58.0000000+00:00</time></trkpt><trkpt lat="35.0389925" lon="32.4087958"><ele>17.5</ele><time>2015-04-25T17:44:59.0000000+00:00</time></trkpt><trkpt lat="35.0390077" lon="32.4088698"><ele>17.7</ele><time>2015-04-25T17:45:00.0000000+00:00</time></trkpt><trkpt lat="35.039021" lon="32.4089495"><ele>17.3</ele><time>2015-04-25T17:45:01.0000000+00:00</time></trkpt><trkpt lat="35.0390377" lon="32.4090287"><ele>17.1</ele><time>2015-04-25T17:45:02.0000000+00:00</time></trkpt><trkpt lat="35.0390358" lon="32.4090966"><ele>17.5</ele><time>2015-04-25T17:45:03.0000000+00:00</time></trkpt><trkpt lat="35.0390496" lon="32.4091788"><ele>17.7</ele><time>2015-04-25T17:45:04.0000000+00:00</time></trkpt><trkpt lat="35.0390588" lon="32.4092526"><ele>17.8</ele><time>2015-04-25T17:45:05.0000000+00:00</time></trkpt><trkpt lat="35.0390764" lon="32.4093318"><ele>17.9</ele><time>2015-04-25T17:45:06.0000000+00:00</time></trkpt><trkpt lat="35.0390878" lon="32.4094055"><ele>17.9</ele><time>2015-04-25T17:45:07.0000000+00:00</time></trkpt><trkpt lat="35.0390971" lon="32.4094862"><ele>18.4</ele><time>2015-04-25T17:45:08.0000000+00:00</time></trkpt><trkpt lat="35.0391083" lon="32.4095577"><ele>18.7</ele><time>2015-04-25T17:45:09.0000000+00:00</time></trkpt><trkpt lat="35.0391172" lon="32.4096289"><ele>18.8</ele><time>2015-04-25T17:45:10.0000000+00:00</time></trkpt><trkpt lat="35.0391248" lon="32.4097034"><ele>18.9</ele><time>2015-04-25T17:45:11.0000000+00:00</time></trkpt><trkpt lat="35.0391324" lon="32.4097786"><ele>18.9</ele><time>2015-04-25T17:45:12.0000000+00:00</time></trkpt><trkpt lat="35.0391375" lon="32.4098529"><ele>18.9</ele><time>2015-04-25T17:45:13.0000000+00:00</time></trkpt><trkpt lat="35.0391389" lon="32.4099235"><ele>18.4</ele><time>2015-04-25T17:45:14.0000000+00:00</time></trkpt><trkpt lat="35.039143" lon="32.4099909"><ele>18.7</ele><time>2015-04-25T17:45:15.0000000+00:00</time></trkpt><trkpt lat="35.0391467" lon="32.4100719"><ele>18.3</ele><time>2015-04-25T17:45:16.0000000+00:00</time></trkpt><trkpt lat="35.0391511" lon="32.4101338"><ele>18.1</ele><time>2015-04-25T17:45:17.0000000+00:00</time></trkpt><trkpt lat="35.0391614" lon="32.4101962"><ele>18.0</ele><time>2015-04-25T17:45:18.0000000+00:00</time></trkpt><trkpt lat="35.0391768" lon="32.410261"><ele>18.0</ele><time>2015-04-25T17:45:19.0000000+00:00</time></trkpt><trkpt lat="35.039191" lon="32.410326"><ele>18.0</ele><time>2015-04-25T17:45:20.0000000+00:00</time></trkpt><trkpt lat="35.0392086" lon="32.4103877"><ele>18.9</ele><time>2015-04-25T17:45:21.0000000+00:00</time></trkpt><trkpt lat="35.0392223" lon="32.410448"><ele>19.9</ele><time>2015-04-25T17:45:22.0000000+00:00</time></trkpt><trkpt lat="35.0392332" lon="32.410505"><ele>20.4</ele><time>2015-04-25T17:45:23.0000000+00:00</time></trkpt><trkpt lat="35.0392429" lon="32.4105639"><ele>20.7</ele><time>2015-04-25T17:45:24.0000000+00:00</time></trkpt><trkpt lat="35.0392511" lon="32.4106297"><ele>20.3</ele><time>2015-04-25T17:45:25.0000000+00:00</time></trkpt><trkpt lat="35.0392584" lon="32.4106979"><ele>20.1</ele><time>2015-04-25T17:45:26.0000000+00:00</time></trkpt><trkpt lat="35.039269" lon="32.410767"><ele>20.0</ele><time>2015-04-25T17:45:27.0000000+00:00</time></trkpt><trkpt lat="35.0392714" lon="32.4108253"><ele>20.0</ele><time>2015-04-25T17:45:28.0000000+00:00</time></trkpt><trkpt lat="35.0392762" lon="32.4108948"><ele>20.0</ele><time>2015-04-25T17:45:29.0000000+00:00</time></trkpt><trkpt lat="35.0392775" lon="32.4109615"><ele>19.4</ele><time>2015-04-25T17:45:30.0000000+00:00</time></trkpt><trkpt lat="35.0392794" lon="32.4110192"><ele>19.2</ele><time>2015-04-25T17:45:31.0000000+00:00</time></trkpt><trkpt lat="35.039281" lon="32.4110849"><ele>19.1</ele><time>2015-04-25T17:45:32.0000000+00:00</time></trkpt><trkpt lat="35.0392886" lon="32.4111555"><ele>19.0</ele><time>2015-04-25T17:45:33.0000000+00:00</time></trkpt><trkpt lat="35.0392954" lon="32.4112279"><ele>18.5</ele><time>2015-04-25T17:45:34.0000000+00:00</time></trkpt><trkpt lat="35.0393042" lon="32.4113021"><ele>18.2</ele><time>2015-04-25T17:45:35.0000000+00:00</time></trkpt><trkpt lat="35.0393078" lon="32.411368"><ele>18.1</ele><time>2015-04-25T17:45:36.0000000+00:00</time></trkpt><trkpt lat="35.0393173" lon="32.4114332"><ele>18.5</ele><time>2015-04-25T17:45:37.0000000+00:00</time></trkpt><trkpt lat="35.0393252" lon="32.4114895"><ele>18.7</ele><time>2015-04-25T17:45:38.0000000+00:00</time></trkpt><trkpt lat="35.0393352" lon="32.4115574"><ele>18.8</ele><time>2015-04-25T17:45:39.0000000+00:00</time></trkpt><trkpt lat="35.0393362" lon="32.4116179"><ele>18.9</ele><time>2015-04-25T17:45:40.0000000+00:00</time></trkpt><trkpt lat="35.0393497" lon="32.4116806"><ele>18.4</ele><time>2015-04-25T17:45:41.0000000+00:00</time></trkpt><trkpt lat="35.0393566" lon="32.4118065"><ele>17.3</ele><time>2015-04-25T17:45:43.0000000+00:00</time></trkpt><trkpt lat="35.03937" lon="32.4118723"><ele>17.1</ele><time>2015-04-25T17:45:44.0000000+00:00</time></trkpt><trkpt lat="35.0393864" lon="32.4119378"><ele>17.0</ele><time>2015-04-25T17:45:45.0000000+00:00</time></trkpt><trkpt lat="35.0394008" lon="32.4119992"><ele>17.0</ele><time>2015-04-25T17:45:46.0000000+00:00</time></trkpt><trkpt lat="35.0394108" lon="32.4120599"><ele>17.0</ele><time>2015-04-25T17:45:47.0000000+00:00</time></trkpt><trkpt lat="35.0394239" lon="32.4121323"><ele>17.4</ele><time>2015-04-25T17:45:48.0000000+00:00</time></trkpt><trkpt lat="35.0394324" lon="32.4121978"><ele>17.7</ele><time>2015-04-25T17:45:49.0000000+00:00</time></trkpt><trkpt lat="35.0394484" lon="32.4122613"><ele>17.8</ele><time>2015-04-25T17:45:50.0000000+00:00</time></trkpt><trkpt lat="35.0394618" lon="32.4123282"><ele>18.4</ele><time>2015-04-25T17:45:51.0000000+00:00</time></trkpt><trkpt lat="35.03947" lon="32.4124018"><ele>18.6</ele><time>2015-04-25T17:45:52.0000000+00:00</time></trkpt><trkpt lat="35.0394796" lon="32.4124766"><ele>18.8</ele><time>2015-04-25T17:45:53.0000000+00:00</time></trkpt><trkpt lat="35.0394974" lon="32.4125324"><ele>18.9</ele><time>2015-04-25T17:45:54.0000000+00:00</time></trkpt><trkpt lat="35.039511" lon="32.412596"><ele>18.9</ele><time>2015-04-25T17:45:55.0000000+00:00</time></trkpt><trkpt lat="35.0395257" lon="32.4126681"><ele>18.9</ele><time>2015-04-25T17:45:56.0000000+00:00</time></trkpt><trkpt lat="35.039539" lon="32.4127305"><ele>18.9</ele><time>2015-04-25T17:45:57.0000000+00:00</time></trkpt><trkpt lat="35.0395497" lon="32.4127948"><ele>18.9</ele><time>2015-04-25T17:45:58.0000000+00:00</time></trkpt><trkpt lat="35.0395602" lon="32.4128557"><ele>19.4</ele><time>2015-04-25T17:45:59.0000000+00:00</time></trkpt><trkpt lat="35.0395724" lon="32.4129086"><ele>20.2</ele><time>2015-04-25T17:46:00.0000000+00:00</time></trkpt><trkpt lat="35.0395754" lon="32.4129699"><ele>20.6</ele><time>2015-04-25T17:46:01.0000000+00:00</time></trkpt><trkpt lat="35.0395907" lon="32.4130876"><ele>20.8</ele><time>2015-04-25T17:46:03.0000000+00:00</time></trkpt><trkpt lat="35.0395895" lon="32.4131458"><ele>20.9</ele><time>2015-04-25T17:46:04.0000000+00:00</time></trkpt><trkpt lat="35.0395938" lon="32.4132039"><ele>20.9</ele><time>2015-04-25T17:46:05.0000000+00:00</time></trkpt><trkpt lat="35.0396038" lon="32.4132648"><ele>21.4</ele><time>2015-04-25T17:46:06.0000000+00:00</time></trkpt><trkpt lat="35.0395976" lon="32.4133218"><ele>22.2</ele><time>2015-04-25T17:46:07.0000000+00:00</time></trkpt><trkpt lat="35.0395998" lon="32.4134278"><ele>22.7</ele><time>2015-04-25T17:46:09.0000000+00:00</time></trkpt><trkpt lat="35.0395848" lon="32.4135215"><ele>22.9</ele><time>2015-04-25T17:46:11.0000000+00:00</time></trkpt><trkpt lat="35.0395853" lon="32.4136066"><ele>22.9</ele><time>2015-04-25T17:46:13.0000000+00:00</time></trkpt><trkpt lat="35.0395572" lon="32.4137086"><ele>22.7</ele><time>2015-04-25T17:46:15.0000000+00:00</time></trkpt><trkpt lat="35.0395425" lon="32.4138014"><ele>22.9</ele><time>2015-04-25T17:46:17.0000000+00:00</time></trkpt><trkpt lat="35.0395302" lon="32.4138801"><ele>22.4</ele><time>2015-04-25T17:46:19.0000000+00:00</time></trkpt><trkpt lat="35.0395125" lon="32.4139599"><ele>22.1</ele><time>2015-04-25T17:46:21.0000000+00:00</time></trkpt><trkpt lat="35.0394946" lon="32.4140346"><ele>22.5</ele><time>2015-04-25T17:46:23.0000000+00:00</time></trkpt><trkpt lat="35.0394829" lon="32.4141101"><ele>22.1</ele><time>2015-04-25T17:46:25.0000000+00:00</time></trkpt><trkpt lat="35.0394614" lon="32.4141812"><ele>21.2</ele><time>2015-04-25T17:46:27.0000000+00:00</time></trkpt><trkpt lat="35.0394277" lon="32.4142448"><ele>21.0</ele><time>2015-04-25T17:46:29.0000000+00:00</time></trkpt><trkpt lat="35.0394085" lon="32.4143145"><ele>22.9</ele><time>2015-04-25T17:46:31.0000000+00:00</time></trkpt><trkpt lat="35.039392" lon="32.414395"><ele>23.4</ele><time>2015-04-25T17:46:33.0000000+00:00</time></trkpt><trkpt lat="35.0393689" lon="32.4144811"><ele>25.1</ele><time>2015-04-25T17:46:35.0000000+00:00</time></trkpt><trkpt lat="35.0393453" lon="32.4145732"><ele>25.2</ele><time>2015-04-25T17:46:37.0000000+00:00</time></trkpt><trkpt lat="35.0393153" lon="32.4146608"><ele>25.8</ele><time>2015-04-25T17:46:39.0000000+00:00</time></trkpt><trkpt lat="35.0392728" lon="32.414741"><ele>25.1</ele><time>2015-04-25T17:46:41.0000000+00:00</time></trkpt><trkpt lat="35.0392224" lon="32.4148101"><ele>23.2</ele><time>2015-04-25T17:46:43.0000000+00:00</time></trkpt><trkpt lat="35.0391521" lon="32.4149098"><ele>22.3</ele><time>2015-04-25T17:46:45.0000000+00:00</time></trkpt><trkpt lat="35.0390984" lon="32.414995"><ele>23.0</ele><time>2015-04-25T17:46:47.0000000+00:00</time></trkpt><trkpt lat="35.0390586" lon="32.4150308"><ele>23.0</ele><time>2015-04-25T17:46:48.0000000+00:00</time></trkpt><trkpt lat="35.0390158" lon="32.4150751"><ele>23.0</ele><time>2015-04-25T17:46:49.0000000+00:00</time></trkpt><trkpt lat="35.0389725" lon="32.4151059"><ele>22.9</ele><time>2015-04-25T17:46:50.0000000+00:00</time></trkpt><trkpt lat="35.0389293" lon="32.4151417"><ele>23.4</ele><time>2015-04-25T17:46:51.0000000+00:00</time></trkpt><trkpt lat="35.0388803" lon="32.4151825"><ele>23.7</ele><time>2015-04-25T17:46:52.0000000+00:00</time></trkpt><trkpt lat="35.0388416" lon="32.415224"><ele>23.8</ele><time>2015-04-25T17:46:53.0000000+00:00</time></trkpt><trkpt lat="35.0387896" lon="32.4152701"><ele>24.4</ele><time>2015-04-25T17:46:54.0000000+00:00</time></trkpt><trkpt lat="35.0387473" lon="32.4153118"><ele>24.1</ele><time>2015-04-25T17:46:55.0000000+00:00</time></trkpt><trkpt lat="35.038698" lon="32.4153424"><ele>24.0</ele><time>2015-04-25T17:46:56.0000000+00:00</time></trkpt><trkpt lat="35.0386445" lon="32.4153696"><ele>24.0</ele><time>2015-04-25T17:46:57.0000000+00:00</time></trkpt><trkpt lat="35.0385974" lon="32.415395"><ele>24.0</ele><time>2015-04-25T17:46:58.0000000+00:00</time></trkpt><trkpt lat="35.03856" lon="32.4154379"><ele>24.4</ele><time>2015-04-25T17:46:59.0000000+00:00</time></trkpt><trkpt lat="35.03852" lon="32.4154736"><ele>24.7</ele><time>2015-04-25T17:47:00.0000000+00:00</time></trkpt><trkpt lat="35.0384947" lon="32.4155198"><ele>24.8</ele><time>2015-04-25T17:47:01.0000000+00:00</time></trkpt><trkpt lat="35.0384729" lon="32.4155738"><ele>24.4</ele><time>2015-04-25T17:47:02.0000000+00:00</time></trkpt><trkpt lat="35.0384437" lon="32.4156271"><ele>24.1</ele><time>2015-04-25T17:47:03.0000000+00:00</time></trkpt><trkpt lat="35.0384144" lon="32.4156745"><ele>23.5</ele><time>2015-04-25T17:47:04.0000000+00:00</time></trkpt><trkpt lat="35.0383743" lon="32.4157152"><ele>23.2</ele><time>2015-04-25T17:47:05.0000000+00:00</time></trkpt><trkpt lat="35.0383398" lon="32.4157678"><ele>22.6</ele><time>2015-04-25T17:47:06.0000000+00:00</time></trkpt><trkpt lat="35.0383086" lon="32.4158196"><ele>22.3</ele><time>2015-04-25T17:47:07.0000000+00:00</time></trkpt><trkpt lat="35.0382742" lon="32.4158717"><ele>22.1</ele><time>2015-04-25T17:47:08.0000000+00:00</time></trkpt><trkpt lat="35.0382455" lon="32.4159282"><ele>22.0</ele><time>2015-04-25T17:47:09.0000000+00:00</time></trkpt><trkpt lat="35.038214" lon="32.4159956"><ele>22.0</ele><time>2015-04-25T17:47:11.0000000+00:00</time></trkpt><trkpt lat="35.0382695" lon="32.4160552"><ele>21.1</ele><time>2015-04-25T17:47:14.0000000+00:00</time></trkpt><trkpt lat="35.0383497" lon="32.4160783"><ele>19.7</ele><time>2015-04-25T17:47:16.0000000+00:00</time></trkpt><trkpt lat="35.038395" lon="32.4160894"><ele>19.8</ele><time>2015-04-25T17:47:17.0000000+00:00</time></trkpt><trkpt lat="35.03844" lon="32.4161018"><ele>19.4</ele><time>2015-04-25T17:47:18.0000000+00:00</time></trkpt><trkpt lat="35.0384928" lon="32.4161264"><ele>19.2</ele><time>2015-04-25T17:47:19.0000000+00:00</time></trkpt><trkpt lat="35.0385438" lon="32.4161483"><ele>19.0</ele><time>2015-04-25T17:47:20.0000000+00:00</time></trkpt><trkpt lat="35.0385983" lon="32.4161708"><ele>18.5</ele><time>2015-04-25T17:47:21.0000000+00:00</time></trkpt><trkpt lat="35.0386397" lon="32.416203"><ele>18.2</ele><time>2015-04-25T17:47:22.0000000+00:00</time></trkpt><trkpt lat="35.0386881" lon="32.4162278"><ele>18.6</ele><time>2015-04-25T17:47:23.0000000+00:00</time></trkpt><trkpt lat="35.038742" lon="32.4162527"><ele>18.7</ele><time>2015-04-25T17:47:24.0000000+00:00</time></trkpt><trkpt lat="35.0387954" lon="32.4162819"><ele>18.8</ele><time>2015-04-25T17:47:25.0000000+00:00</time></trkpt><trkpt lat="35.0388567" lon="32.4163074"><ele>19.4</ele><time>2015-04-25T17:47:26.0000000+00:00</time></trkpt><trkpt lat="35.0389048" lon="32.4163426"><ele>19.7</ele><time>2015-04-25T17:47:27.0000000+00:00</time></trkpt><trkpt lat="35.0389704" lon="32.4163698"><ele>19.8</ele><time>2015-04-25T17:47:28.0000000+00:00</time></trkpt><trkpt lat="35.0390146" lon="32.4163856"><ele>19.4</ele><time>2015-04-25T17:47:29.0000000+00:00</time></trkpt><trkpt lat="35.0390713" lon="32.4164144"><ele>18.6</ele><time>2015-04-25T17:47:30.0000000+00:00</time></trkpt><trkpt lat="35.0391246" lon="32.4164427"><ele>18.3</ele><time>2015-04-25T17:47:31.0000000+00:00</time></trkpt><trkpt lat="35.0391885" lon="32.4164801"><ele>18.1</ele><time>2015-04-25T17:47:32.0000000+00:00</time></trkpt><trkpt lat="35.039255" lon="32.4165151"><ele>18.5</ele><time>2015-04-25T17:47:33.0000000+00:00</time></trkpt><trkpt lat="35.0393165" lon="32.4165336"><ele>18.7</ele><time>2015-04-25T17:47:34.0000000+00:00</time></trkpt><trkpt lat="35.0393841" lon="32.4165475"><ele>19.8</ele><time>2015-04-25T17:47:35.0000000+00:00</time></trkpt><trkpt lat="35.0394383" lon="32.4165702"><ele>20.4</ele><time>2015-04-25T17:47:36.0000000+00:00</time></trkpt><trkpt lat="35.0394941" lon="32.4165912"><ele>20.2</ele><time>2015-04-25T17:47:37.0000000+00:00</time></trkpt><trkpt lat="35.0395457" lon="32.4166141"><ele>20.0</ele><time>2015-04-25T17:47:38.0000000+00:00</time></trkpt><trkpt lat="35.0396073" lon="32.4166442"><ele>20.5</ele><time>2015-04-25T17:47:39.0000000+00:00</time></trkpt><trkpt lat="35.039672" lon="32.4166658"><ele>20.7</ele><time>2015-04-25T17:47:40.0000000+00:00</time></trkpt><trkpt lat="35.0397315" lon="32.416695"><ele>20.8</ele><time>2015-04-25T17:47:41.0000000+00:00</time></trkpt><trkpt lat="35.0397904" lon="32.4167251"><ele>20.9</ele><time>2015-04-25T17:47:42.0000000+00:00</time></trkpt><trkpt lat="35.0398457" lon="32.4167446"><ele>20.4</ele><time>2015-04-25T17:47:43.0000000+00:00</time></trkpt><trkpt lat="35.0399017" lon="32.4167806"><ele>20.7</ele><time>2015-04-25T17:47:44.0000000+00:00</time></trkpt><trkpt lat="35.0399547" lon="32.4168051"><ele>20.3</ele><time>2015-04-25T17:47:45.0000000+00:00</time></trkpt><trkpt lat="35.0400172" lon="32.4168371"><ele>20.1</ele><time>2015-04-25T17:47:46.0000000+00:00</time></trkpt><trkpt lat="35.0400848" lon="32.4168692"><ele>20.0</ele><time>2015-04-25T17:47:47.0000000+00:00</time></trkpt><trkpt lat="35.0401555" lon="32.4169069"><ele>20.0</ele><time>2015-04-25T17:47:48.0000000+00:00</time></trkpt><trkpt lat="35.0402116" lon="32.4169422"><ele>19.5</ele><time>2015-04-25T17:47:49.0000000+00:00</time></trkpt><trkpt lat="35.0402724" lon="32.4169757"><ele>19.2</ele><time>2015-04-25T17:47:50.0000000+00:00</time></trkpt><trkpt lat="35.0403357" lon="32.4170073"><ele>19.1</ele><time>2015-04-25T17:47:51.0000000+00:00</time></trkpt><trkpt lat="35.0403929" lon="32.4170355"><ele>19.0</ele><time>2015-04-25T17:47:52.0000000+00:00</time></trkpt><trkpt lat="35.0404481" lon="32.4170607"><ele>19.0</ele><time>2015-04-25T17:47:53.0000000+00:00</time></trkpt><trkpt lat="35.040511" lon="32.41709"><ele>18.9</ele><time>2015-04-25T17:47:54.0000000+00:00</time></trkpt><trkpt lat="35.0405746" lon="32.4171205"><ele>18.9</ele><time>2015-04-25T17:47:55.0000000+00:00</time></trkpt><trkpt lat="35.0406364" lon="32.4171529"><ele>18.9</ele><time>2015-04-25T17:47:56.0000000+00:00</time></trkpt><trkpt lat="35.0406926" lon="32.4171711"><ele>18.9</ele><time>2015-04-25T17:47:57.0000000+00:00</time></trkpt><trkpt lat="35.0407505" lon="32.4171947"><ele>18.4</ele><time>2015-04-25T17:47:58.0000000+00:00</time></trkpt><trkpt lat="35.0408168" lon="32.4172218"><ele>18.7</ele><time>2015-04-25T17:47:59.0000000+00:00</time></trkpt><trkpt lat="35.0408749" lon="32.4172455"><ele>18.8</ele><time>2015-04-25T17:48:00.0000000+00:00</time></trkpt><trkpt lat="35.0409361" lon="32.4172643"><ele>19.4</ele><time>2015-04-25T17:48:01.0000000+00:00</time></trkpt><trkpt lat="35.0409916" lon="32.4172804"><ele>19.6</ele><time>2015-04-25T17:48:02.0000000+00:00</time></trkpt><trkpt lat="35.0410384" lon="32.4173128"><ele>19.3</ele><time>2015-04-25T17:48:03.0000000+00:00</time></trkpt><trkpt lat="35.0410723" lon="32.4173612"><ele>19.1</ele><time>2015-04-25T17:48:04.0000000+00:00</time></trkpt><trkpt lat="35.0410998" lon="32.4174138"><ele>19.5</ele><time>2015-04-25T17:48:05.0000000+00:00</time></trkpt><trkpt lat="35.0411028" lon="32.4174752"><ele>19.2</ele><time>2015-04-25T17:48:06.0000000+00:00</time></trkpt><trkpt lat="35.041079" lon="32.4175257"><ele>19.1</ele><time>2015-04-25T17:48:07.0000000+00:00</time></trkpt><trkpt lat="35.0410503" lon="32.4175872"><ele>18.5</ele><time>2015-04-25T17:48:08.0000000+00:00</time></trkpt><trkpt lat="35.0410254" lon="32.417635"><ele>18.2</ele><time>2015-04-25T17:48:09.0000000+00:00</time></trkpt><trkpt lat="35.0409821" lon="32.4176686"><ele>18.1</ele><time>2015-04-25T17:48:10.0000000+00:00</time></trkpt><trkpt lat="35.0409293" lon="32.4177558"><ele>18.2</ele><time>2015-04-25T17:48:12.0000000+00:00</time></trkpt><trkpt lat="35.0408953" lon="32.4178001"><ele>18.1</ele><time>2015-04-25T17:48:13.0000000+00:00</time></trkpt><trkpt lat="35.0408493" lon="32.4178782"><ele>17.5</ele><time>2015-04-25T17:48:15.0000000+00:00</time></trkpt><trkpt lat="35.0407947" lon="32.4179311"><ele>16.6</ele><time>2015-04-25T17:48:17.0000000+00:00</time></trkpt><trkpt lat="35.0407506" lon="32.4179889"><ele>16.6</ele><time>2015-04-25T17:48:19.0000000+00:00</time></trkpt><trkpt lat="35.0407153" lon="32.4180553"><ele>18.1</ele><time>2015-04-25T17:48:21.0000000+00:00</time></trkpt><trkpt lat="35.0406783" lon="32.4181316"><ele>20.1</ele><time>2015-04-25T17:48:24.0000000+00:00</time></trkpt><trkpt lat="35.0406543" lon="32.4182017"><ele>21.5</ele><time>2015-04-25T17:48:26.0000000+00:00</time></trkpt><trkpt lat="35.0406518" lon="32.4182899"><ele>21.8</ele><time>2015-04-25T17:48:28.0000000+00:00</time></trkpt><trkpt lat="35.0407028" lon="32.4184209"><ele>20.7</ele><time>2015-04-25T17:48:30.0000000+00:00</time></trkpt><trkpt lat="35.0407216" lon="32.4184867"><ele>20.3</ele><time>2015-04-25T17:48:31.0000000+00:00</time></trkpt><trkpt lat="35.0407343" lon="32.4185462"><ele>19.6</ele><time>2015-04-25T17:48:32.0000000+00:00</time></trkpt><trkpt lat="35.0407656" lon="32.4186436"><ele>17.1</ele><time>2015-04-25T17:48:34.0000000+00:00</time></trkpt><trkpt lat="35.0407965" lon="32.4187383"><ele>16.7</ele><time>2015-04-25T17:48:36.0000000+00:00</time></trkpt><trkpt lat="35.0408066" lon="32.4188255"><ele>16.9</ele><time>2015-04-25T17:48:38.0000000+00:00</time></trkpt><trkpt lat="35.0408298" lon="32.418906"><ele>16.2</ele><time>2015-04-25T17:48:40.0000000+00:00</time></trkpt><trkpt lat="35.0408525" lon="32.4190062"><ele>16.0</ele><time>2015-04-25T17:48:42.0000000+00:00</time></trkpt><trkpt lat="35.040887" lon="32.4191002"><ele>15.9</ele><time>2015-04-25T17:48:44.0000000+00:00</time></trkpt><trkpt lat="35.0409285" lon="32.4191791"><ele>15.9</ele><time>2015-04-25T17:48:46.0000000+00:00</time></trkpt><trkpt lat="35.0409768" lon="32.4192454"><ele>15.9</ele><time>2015-04-25T17:48:48.0000000+00:00</time></trkpt><trkpt lat="35.0410305" lon="32.4192916"><ele>17.2</ele><time>2015-04-25T17:48:50.0000000+00:00</time></trkpt><trkpt lat="35.041088" lon="32.4193397"><ele>17.2</ele><time>2015-04-25T17:48:52.0000000+00:00</time></trkpt><trkpt lat="35.0411461" lon="32.4193996"><ele>16.5</ele><time>2015-04-25T17:48:54.0000000+00:00</time></trkpt><trkpt lat="35.0412104" lon="32.4194629"><ele>15.3</ele><time>2015-04-25T17:48:56.0000000+00:00</time></trkpt><trkpt lat="35.0412683" lon="32.4195311"><ele>15.0</ele><time>2015-04-25T17:48:58.0000000+00:00</time></trkpt><trkpt lat="35.0413266" lon="32.4196004"><ele>14.7</ele><time>2015-04-25T17:49:00.0000000+00:00</time></trkpt><trkpt lat="35.0413855" lon="32.4196997"><ele>15.1</ele><time>2015-04-25T17:49:02.0000000+00:00</time></trkpt><trkpt lat="35.041413" lon="32.4197455"><ele>15.0</ele><time>2015-04-25T17:49:03.0000000+00:00</time></trkpt><trkpt lat="35.0414605" lon="32.4197894"><ele>15.0</ele><time>2015-04-25T17:49:04.0000000+00:00</time></trkpt><trkpt lat="35.0415278" lon="32.4198399"><ele>15.7</ele><time>2015-04-25T17:49:06.0000000+00:00</time></trkpt><trkpt lat="35.0415948" lon="32.4199104"><ele>14.6</ele><time>2015-04-25T17:49:08.0000000+00:00</time></trkpt><trkpt lat="35.0416284" lon="32.4199668"><ele>14.3</ele><time>2015-04-25T17:49:09.0000000+00:00</time></trkpt><trkpt lat="35.0416609" lon="32.4200265"><ele>14.1</ele><time>2015-04-25T17:49:10.0000000+00:00</time></trkpt><trkpt lat="35.0416876" lon="32.4200874"><ele>14.5</ele><time>2015-04-25T17:49:11.0000000+00:00</time></trkpt><trkpt lat="35.0417216" lon="32.4201338"><ele>14.7</ele><time>2015-04-25T17:49:12.0000000+00:00</time></trkpt><trkpt lat="35.0417433" lon="32.4201939"><ele>14.3</ele><time>2015-04-25T17:49:13.0000000+00:00</time></trkpt><trkpt lat="35.0417649" lon="32.4202575"><ele>14.1</ele><time>2015-04-25T17:49:14.0000000+00:00</time></trkpt><trkpt lat="35.0417812" lon="32.4203195"><ele>14.5</ele><time>2015-04-25T17:49:15.0000000+00:00</time></trkpt><trkpt lat="35.0417887" lon="32.4203964"><ele>14.7</ele><time>2015-04-25T17:49:16.0000000+00:00</time></trkpt><trkpt lat="35.0417899" lon="32.4204671"><ele>14.8</ele><time>2015-04-25T17:49:17.0000000+00:00</time></trkpt><trkpt lat="35.0417825" lon="32.4205386"><ele>14.4</ele><time>2015-04-25T17:49:18.0000000+00:00</time></trkpt><trkpt lat="35.0417866" lon="32.4206077"><ele>14.2</ele><time>2015-04-25T17:49:19.0000000+00:00</time></trkpt><trkpt lat="35.0417757" lon="32.4206773"><ele>15.0</ele><time>2015-04-25T17:49:20.0000000+00:00</time></trkpt><trkpt lat="35.0417798" lon="32.4207418"><ele>15.0</ele><time>2015-04-25T17:49:21.0000000+00:00</time></trkpt><trkpt lat="35.0417681" lon="32.4208193"><ele>16.0</ele><time>2015-04-25T17:49:22.0000000+00:00</time></trkpt><trkpt lat="35.0417684" lon="32.4208863"><ele>16.4</ele><time>2015-04-25T17:49:23.0000000+00:00</time></trkpt><trkpt lat="35.0417635" lon="32.4209566"><ele>16.7</ele><time>2015-04-25T17:49:24.0000000+00:00</time></trkpt><trkpt lat="35.0417632" lon="32.4210201"><ele>17.3</ele><time>2015-04-25T17:49:25.0000000+00:00</time></trkpt><trkpt lat="35.0417314" lon="32.4211263"><ele>17.8</ele><time>2015-04-25T17:49:27.0000000+00:00</time></trkpt><trkpt lat="35.0417196" lon="32.4211916"><ele>17.9</ele><time>2015-04-25T17:49:28.0000000+00:00</time></trkpt><trkpt lat="35.0417248" lon="32.4212655"><ele>16.9</ele><time>2015-04-25T17:49:29.0000000+00:00</time></trkpt><trkpt lat="35.04174" lon="32.4213394"><ele>15.9</ele><time>2015-04-25T17:49:30.0000000+00:00</time></trkpt><trkpt lat="35.0417659" lon="32.4214038"><ele>14.9</ele><time>2015-04-25T17:49:31.0000000+00:00</time></trkpt><trkpt lat="35.0418075" lon="32.4214505"><ele>14.4</ele><time>2015-04-25T17:49:32.0000000+00:00</time></trkpt><trkpt lat="35.0418522" lon="32.421499"><ele>14.2</ele><time>2015-04-25T17:49:33.0000000+00:00</time></trkpt><trkpt lat="35.0418956" lon="32.421559"><ele>14.1</ele><time>2015-04-25T17:49:34.0000000+00:00</time></trkpt><trkpt lat="35.0419493" lon="32.4215992"><ele>14.0</ele><time>2015-04-25T17:49:35.0000000+00:00</time></trkpt><trkpt lat="35.0420079" lon="32.421615"><ele>12.5</ele><time>2015-04-25T17:49:36.0000000+00:00</time></trkpt><trkpt lat="35.0420601" lon="32.4216416"><ele>11.7</ele><time>2015-04-25T17:49:37.0000000+00:00</time></trkpt><trkpt lat="35.0421128" lon="32.4216797"><ele>11.3</ele><time>2015-04-25T17:49:38.0000000+00:00</time></trkpt><trkpt lat="35.0421714" lon="32.4217637"><ele>10.3</ele><time>2015-04-25T17:49:40.0000000+00:00</time></trkpt><trkpt lat="35.0421578" lon="32.4218652"><ele>10.5</ele><time>2015-04-25T17:49:42.0000000+00:00</time></trkpt><trkpt lat="35.0421618" lon="32.4219259"><ele>10.7</ele><time>2015-04-25T17:49:43.0000000+00:00</time></trkpt><trkpt lat="35.0421706" lon="32.4220523"><ele>11.4</ele><time>2015-04-25T17:49:45.0000000+00:00</time></trkpt><trkpt lat="35.0421587" lon="32.4221239"><ele>11.7</ele><time>2015-04-25T17:49:46.0000000+00:00</time></trkpt><trkpt lat="35.0421426" lon="32.4221925"><ele>12.3</ele><time>2015-04-25T17:49:47.0000000+00:00</time></trkpt><trkpt lat="35.042128" lon="32.422257"><ele>12.6</ele><time>2015-04-25T17:49:48.0000000+00:00</time></trkpt><trkpt lat="35.0421154" lon="32.4223263"><ele>12.8</ele><time>2015-04-25T17:49:49.0000000+00:00</time></trkpt><trkpt lat="35.042087" lon="32.4223907"><ele>12.9</ele><time>2015-04-25T17:49:50.0000000+00:00</time></trkpt><trkpt lat="35.0420533" lon="32.4224397"><ele>12.9</ele><time>2015-04-25T17:49:51.0000000+00:00</time></trkpt><trkpt lat="35.0420166" lon="32.4224926"><ele>12.4</ele><time>2015-04-25T17:49:52.0000000+00:00</time></trkpt><trkpt lat="35.0419719" lon="32.4225426"><ele>12.7</ele><time>2015-04-25T17:49:53.0000000+00:00</time></trkpt><trkpt lat="35.0419411" lon="32.422595"><ele>12.3</ele><time>2015-04-25T17:49:54.0000000+00:00</time></trkpt><trkpt lat="35.0419027" lon="32.422643"><ele>12.1</ele><time>2015-04-25T17:49:55.0000000+00:00</time></trkpt><trkpt lat="35.041848" lon="32.4226796"><ele>12.0</ele><time>2015-04-25T17:49:56.0000000+00:00</time></trkpt><trkpt lat="35.0417951" lon="32.4227163"><ele>11.5</ele><time>2015-04-25T17:49:57.0000000+00:00</time></trkpt><trkpt lat="35.0417397" lon="32.4227466"><ele>11.7</ele><time>2015-04-25T17:49:58.0000000+00:00</time></trkpt><trkpt lat="35.0416883" lon="32.4227566"><ele>11.8</ele><time>2015-04-25T17:49:59.0000000+00:00</time></trkpt><trkpt lat="35.0416401" lon="32.4227837"><ele>11.4</ele><time>2015-04-25T17:50:00.0000000+00:00</time></trkpt><trkpt lat="35.0415811" lon="32.4227983"><ele>10.2</ele><time>2015-04-25T17:50:01.0000000+00:00</time></trkpt><trkpt lat="35.0415234" lon="32.4228126"><ele>9.5</ele><time>2015-04-25T17:50:02.0000000+00:00</time></trkpt><trkpt lat="35.0414814" lon="32.4228346"><ele>9.7</ele><time>2015-04-25T17:50:03.0000000+00:00</time></trkpt><trkpt lat="35.0414272" lon="32.4228709"><ele>9.8</ele><time>2015-04-25T17:50:04.0000000+00:00</time></trkpt><trkpt lat="35.0413739" lon="32.4229069"><ele>9.9</ele><time>2015-04-25T17:50:05.0000000+00:00</time></trkpt><trkpt lat="35.0413321" lon="32.4229457"><ele>9.9</ele><time>2015-04-25T17:50:06.0000000+00:00</time></trkpt><trkpt lat="35.0412906" lon="32.4229847"><ele>9.9</ele><time>2015-04-25T17:50:07.0000000+00:00</time></trkpt><trkpt lat="35.0412506" lon="32.4230321"><ele>9.9</ele><time>2015-04-25T17:50:08.0000000+00:00</time></trkpt><trkpt lat="35.0412158" lon="32.4230808"><ele>10.4</ele><time>2015-04-25T17:50:09.0000000+00:00</time></trkpt><trkpt lat="35.041177" lon="32.4231259"><ele>11.2</ele><time>2015-04-25T17:50:10.0000000+00:00</time></trkpt><trkpt lat="35.0411357" lon="32.4231565"><ele>11.1</ele><time>2015-04-25T17:50:11.0000000+00:00</time></trkpt><trkpt lat="35.0410864" lon="32.4231843"><ele>11.0</ele><time>2015-04-25T17:50:12.0000000+00:00</time></trkpt><trkpt lat="35.0410462" lon="32.4232222"><ele>11.0</ele><time>2015-04-25T17:50:13.0000000+00:00</time></trkpt><trkpt lat="35.0410019" lon="32.4232559"><ele>10.9</ele><time>2015-04-25T17:50:14.0000000+00:00</time></trkpt><trkpt lat="35.0409677" lon="32.4232975"><ele>11.4</ele><time>2015-04-25T17:50:15.0000000+00:00</time></trkpt><trkpt lat="35.0409262" lon="32.4233302"><ele>12.2</ele><time>2015-04-25T17:50:16.0000000+00:00</time></trkpt><trkpt lat="35.0408894" lon="32.4233679"><ele>12.6</ele><time>2015-04-25T17:50:17.0000000+00:00</time></trkpt><trkpt lat="35.0408448" lon="32.4233965"><ele>12.7</ele><time>2015-04-25T17:50:18.0000000+00:00</time></trkpt><trkpt lat="35.040808" lon="32.4234365"><ele>12.8</ele><time>2015-04-25T17:50:19.0000000+00:00</time></trkpt><trkpt lat="35.0407608" lon="32.423476"><ele>13.4</ele><time>2015-04-25T17:50:20.0000000+00:00</time></trkpt><trkpt lat="35.0407188" lon="32.4235056"><ele>13.2</ele><time>2015-04-25T17:50:21.0000000+00:00</time></trkpt><trkpt lat="35.040676" lon="32.4235381"><ele>13.0</ele><time>2015-04-25T17:50:22.0000000+00:00</time></trkpt><trkpt lat="35.0406351" lon="32.4235755"><ele>13.0</ele><time>2015-04-25T17:50:23.0000000+00:00</time></trkpt><trkpt lat="35.0405936" lon="32.423615"><ele>13.0</ele><time>2015-04-25T17:50:24.0000000+00:00</time></trkpt><trkpt lat="35.0405121" lon="32.4236855"><ele>12.9</ele><time>2015-04-25T17:50:26.0000000+00:00</time></trkpt><trkpt lat="35.0404756" lon="32.4237189"><ele>12.9</ele><time>2015-04-25T17:50:27.0000000+00:00</time></trkpt><trkpt lat="35.0404386" lon="32.4237618"><ele>13.4</ele><time>2015-04-25T17:50:28.0000000+00:00</time></trkpt><trkpt lat="35.0403814" lon="32.4238237"><ele>13.8</ele><time>2015-04-25T17:50:30.0000000+00:00</time></trkpt><trkpt lat="35.0403182" lon="32.4238751"><ele>13.4</ele><time>2015-04-25T17:50:32.0000000+00:00</time></trkpt><trkpt lat="35.0402741" lon="32.4239262"><ele>13.3</ele><time>2015-04-25T17:50:34.0000000+00:00</time></trkpt><trkpt lat="35.0402336" lon="32.4239746"><ele>13.8</ele><time>2015-04-25T17:50:36.0000000+00:00</time></trkpt><trkpt lat="35.04019" lon="32.4239961"><ele>13.6</ele><time>2015-04-25T17:50:38.0000000+00:00</time></trkpt><trkpt lat="35.0401367" lon="32.4240401"><ele>13.9</ele><time>2015-04-25T17:50:40.0000000+00:00</time></trkpt><trkpt lat="35.0400892" lon="32.4240869"><ele>14.7</ele><time>2015-04-25T17:50:42.0000000+00:00</time></trkpt><trkpt lat="35.0400372" lon="32.4241387"><ele>14.6</ele><time>2015-04-25T17:50:44.0000000+00:00</time></trkpt><trkpt lat="35.0399788" lon="32.4241903"><ele>16.1</ele><time>2015-04-25T17:50:46.0000000+00:00</time></trkpt><trkpt lat="35.039921" lon="32.4242448"><ele>16.7</ele><time>2015-04-25T17:50:48.0000000+00:00</time></trkpt><trkpt lat="35.0398579" lon="32.4242926"><ele>17.6</ele><time>2015-04-25T17:50:50.0000000+00:00</time></trkpt><trkpt lat="35.0397943" lon="32.424341"><ele>18.4</ele><time>2015-04-25T17:50:52.0000000+00:00</time></trkpt><trkpt lat="35.0397376" lon="32.4243949"><ele>19.5</ele><time>2015-04-25T17:50:54.0000000+00:00</time></trkpt><trkpt lat="35.0396816" lon="32.424441"><ele>19.8</ele><time>2015-04-25T17:50:56.0000000+00:00</time></trkpt><trkpt lat="35.0396327" lon="32.4244886"><ele>19.2</ele><time>2015-04-25T17:50:58.0000000+00:00</time></trkpt><trkpt lat="35.0395791" lon="32.4245278"><ele>19.0</ele><time>2015-04-25T17:51:00.0000000+00:00</time></trkpt><trkpt lat="35.0395218" lon="32.4245555"><ele>19.4</ele><time>2015-04-25T17:51:02.0000000+00:00</time></trkpt><trkpt lat="35.0394682" lon="32.4245838"><ele>20.6</ele><time>2015-04-25T17:51:04.0000000+00:00</time></trkpt><trkpt lat="35.039423" lon="32.4246184"><ele>20.8</ele><time>2015-04-25T17:51:06.0000000+00:00</time></trkpt><trkpt lat="35.0393834" lon="32.4246533"><ele>19.9</ele><time>2015-04-25T17:51:08.0000000+00:00</time></trkpt><trkpt lat="35.0393309" lon="32.4246888"><ele>20.1</ele><time>2015-04-25T17:51:12.0000000+00:00</time></trkpt><trkpt lat="35.0392867" lon="32.424721"><ele>19.4</ele><time>2015-04-25T17:51:15.0000000+00:00</time></trkpt><trkpt lat="35.0392435" lon="32.4247579"><ele>19.7</ele><time>2015-04-25T17:51:18.0000000+00:00</time></trkpt><trkpt lat="35.0392091" lon="32.4247983"><ele>20.7</ele><time>2015-04-25T17:51:21.0000000+00:00</time></trkpt><trkpt lat="35.0391893" lon="32.4248583"><ele>21.2</ele><time>2015-04-25T17:51:25.0000000+00:00</time></trkpt><trkpt lat="35.0392154" lon="32.4249251"><ele>21.9</ele><time>2015-04-25T17:51:29.0000000+00:00</time></trkpt><trkpt lat="35.0392452" lon="32.4249781"><ele>21.9</ele><time>2015-04-25T17:51:31.0000000+00:00</time></trkpt><trkpt lat="35.0392992" lon="32.4250696"><ele>21.4</ele><time>2015-04-25T17:51:33.0000000+00:00</time></trkpt><trkpt lat="35.0393516" lon="32.425148"><ele>20.7</ele><time>2015-04-25T17:51:34.0000000+00:00</time></trkpt><trkpt lat="35.0393831" lon="32.4251952"><ele>20.8</ele><time>2015-04-25T17:51:35.0000000+00:00</time></trkpt><trkpt lat="35.0394237" lon="32.4252416"><ele>20.9</ele><time>2015-04-25T17:51:36.0000000+00:00</time></trkpt><trkpt lat="35.0394647" lon="32.4252951"><ele>20.9</ele><time>2015-04-25T17:51:37.0000000+00:00</time></trkpt><trkpt lat="35.0395027" lon="32.4253478"><ele>20.9</ele><time>2015-04-25T17:51:38.0000000+00:00</time></trkpt><trkpt lat="35.0395442" lon="32.4253916"><ele>20.4</ele><time>2015-04-25T17:51:39.0000000+00:00</time></trkpt><trkpt lat="35.0395923" lon="32.4254512"><ele>19.7</ele><time>2015-04-25T17:51:40.0000000+00:00</time></trkpt><trkpt lat="35.0396338" lon="32.4255012"><ele>19.3</ele><time>2015-04-25T17:51:41.0000000+00:00</time></trkpt><trkpt lat="35.0396552" lon="32.4255527"><ele>18.1</ele><time>2015-04-25T17:51:42.0000000+00:00</time></trkpt><trkpt lat="35.039703" lon="32.4256212"><ele>17.5</ele><time>2015-04-25T17:51:43.0000000+00:00</time></trkpt><trkpt lat="35.039753" lon="32.4256892"><ele>17.2</ele><time>2015-04-25T17:51:44.0000000+00:00</time></trkpt><trkpt lat="35.039802" lon="32.4257547"><ele>17.1</ele><time>2015-04-25T17:51:45.0000000+00:00</time></trkpt><trkpt lat="35.0398432" lon="32.4258328"><ele>16.5</ele><time>2015-04-25T17:51:46.0000000+00:00</time></trkpt><trkpt lat="35.0398874" lon="32.4258994"><ele>16.7</ele><time>2015-04-25T17:51:47.0000000+00:00</time></trkpt><trkpt lat="35.0399245" lon="32.4259822"><ele>16.3</ele><time>2015-04-25T17:51:48.0000000+00:00</time></trkpt><trkpt lat="35.0399537" lon="32.4260553"><ele>16.6</ele><time>2015-04-25T17:51:49.0000000+00:00</time></trkpt><trkpt lat="35.0399954" lon="32.4261343"><ele>16.8</ele><time>2015-04-25T17:51:50.0000000+00:00</time></trkpt><trkpt lat="35.0400329" lon="32.4262116"><ele>16.9</ele><time>2015-04-25T17:51:51.0000000+00:00</time></trkpt><trkpt lat="35.0400693" lon="32.4262861"><ele>16.9</ele><time>2015-04-25T17:51:52.0000000+00:00</time></trkpt><trkpt lat="35.040111" lon="32.4263668"><ele>16.4</ele><time>2015-04-25T17:51:53.0000000+00:00</time></trkpt><trkpt lat="35.0401485" lon="32.4264414"><ele>16.2</ele><time>2015-04-25T17:51:54.0000000+00:00</time></trkpt><trkpt lat="35.0401786" lon="32.4264983"><ele>16.6</ele><time>2015-04-25T17:51:55.0000000+00:00</time></trkpt><trkpt lat="35.0402149" lon="32.4265727"><ele>16.7</ele><time>2015-04-25T17:51:56.0000000+00:00</time></trkpt><trkpt lat="35.0402438" lon="32.4266361"><ele>17.3</ele><time>2015-04-25T17:51:57.0000000+00:00</time></trkpt><trkpt lat="35.0402706" lon="32.4267045"><ele>18.1</ele><time>2015-04-25T17:51:58.0000000+00:00</time></trkpt><trkpt lat="35.0402918" lon="32.4267739"><ele>18.5</ele><time>2015-04-25T17:51:59.0000000+00:00</time></trkpt><trkpt lat="35.0403136" lon="32.4268388"><ele>19.2</ele><time>2015-04-25T17:52:00.0000000+00:00</time></trkpt><trkpt lat="35.0403353" lon="32.4268922"><ele>19.6</ele><time>2015-04-25T17:52:01.0000000+00:00</time></trkpt><trkpt lat="35.0403643" lon="32.4269573"><ele>19.8</ele><time>2015-04-25T17:52:02.0000000+00:00</time></trkpt><trkpt lat="35.0403947" lon="32.4270205"><ele>19.8</ele><time>2015-04-25T17:52:03.0000000+00:00</time></trkpt><trkpt lat="35.0404263" lon="32.4270876"><ele>19.4</ele><time>2015-04-25T17:52:04.0000000+00:00</time></trkpt><trkpt lat="35.0404701" lon="32.4271627"><ele>19.2</ele><time>2015-04-25T17:52:05.0000000+00:00</time></trkpt><trkpt lat="35.0404967" lon="32.4272209"><ele>19.0</ele><time>2015-04-25T17:52:06.0000000+00:00</time></trkpt><trkpt lat="35.0405295" lon="32.4272784"><ele>19.0</ele><time>2015-04-25T17:52:07.0000000+00:00</time></trkpt><trkpt lat="35.0405559" lon="32.4273384"><ele>19.0</ele><time>2015-04-25T17:52:08.0000000+00:00</time></trkpt><trkpt lat="35.0405777" lon="32.4273973"><ele>18.9</ele><time>2015-04-25T17:52:09.0000000+00:00</time></trkpt><trkpt lat="35.0406007" lon="32.4274491"><ele>18.9</ele><time>2015-04-25T17:52:10.0000000+00:00</time></trkpt><trkpt lat="35.0406315" lon="32.4274958"><ele>18.9</ele><time>2015-04-25T17:52:11.0000000+00:00</time></trkpt><trkpt lat="35.040658" lon="32.427557"><ele>18.9</ele><time>2015-04-25T17:52:12.0000000+00:00</time></trkpt><trkpt lat="35.0406774" lon="32.4276123"><ele>18.9</ele><time>2015-04-25T17:52:13.0000000+00:00</time></trkpt><trkpt lat="35.0407103" lon="32.4276666"><ele>18.9</ele><time>2015-04-25T17:52:14.0000000+00:00</time></trkpt><trkpt lat="35.0407396" lon="32.4277169"><ele>18.9</ele><time>2015-04-25T17:52:15.0000000+00:00</time></trkpt><trkpt lat="35.0407697" lon="32.4277683"><ele>19.4</ele><time>2015-04-25T17:52:16.0000000+00:00</time></trkpt><trkpt lat="35.0408459" lon="32.4278608"><ele>19.8</ele><time>2015-04-25T17:52:18.0000000+00:00</time></trkpt><trkpt lat="35.0408728" lon="32.427906"><ele>19.9</ele><time>2015-04-25T17:52:19.0000000+00:00</time></trkpt><trkpt lat="35.0409054" lon="32.4279508"><ele>19.4</ele><time>2015-04-25T17:52:20.0000000+00:00</time></trkpt><trkpt lat="35.0409371" lon="32.4279979"><ele>19.2</ele><time>2015-04-25T17:52:21.0000000+00:00</time></trkpt><trkpt lat="35.0409817" lon="32.4280319"><ele>19.0</ele><time>2015-04-25T17:52:22.0000000+00:00</time></trkpt><trkpt lat="35.0410191" lon="32.4280739"><ele>19.0</ele><time>2015-04-25T17:52:23.0000000+00:00</time></trkpt><trkpt lat="35.0410565" lon="32.4281178"><ele>18.5</ele><time>2015-04-25T17:52:24.0000000+00:00</time></trkpt><trkpt lat="35.0410946" lon="32.4281622"><ele>18.2</ele><time>2015-04-25T17:52:25.0000000+00:00</time></trkpt><trkpt lat="35.0411296" lon="32.4282"><ele>18.1</ele><time>2015-04-25T17:52:26.0000000+00:00</time></trkpt><trkpt lat="35.0412128" lon="32.4282719"><ele>17.2</ele><time>2015-04-25T17:52:28.0000000+00:00</time></trkpt><trkpt lat="35.0412542" lon="32.4283047"><ele>17.1</ele><time>2015-04-25T17:52:29.0000000+00:00</time></trkpt><trkpt lat="35.0413118" lon="32.4283656"><ele>17.7</ele><time>2015-04-25T17:52:31.0000000+00:00</time></trkpt><trkpt lat="35.0412707" lon="32.4284012"><ele>18.4</ele><time>2015-04-25T17:52:40.0000000+00:00</time></trkpt><trkpt lat="35.041311" lon="32.4284539"><ele>22.5</ele><time>2015-04-25T17:53:43.0000000+00:00</time></trkpt><trkpt lat="35.0413579" lon="32.4284802"><ele>22.9</ele><time>2015-04-25T17:53:46.0000000+00:00</time></trkpt><trkpt lat="35.041408" lon="32.428538"><ele>23.4</ele><time>2015-04-25T17:53:49.0000000+00:00</time></trkpt><trkpt lat="35.0414456" lon="32.4285842"><ele>23.8</ele><time>2015-04-25T17:53:51.0000000+00:00</time></trkpt><trkpt lat="35.0414898" lon="32.4286261"><ele>23.4</ele><time>2015-04-25T17:53:53.0000000+00:00</time></trkpt><trkpt lat="35.0415387" lon="32.428657"><ele>23.8</ele><time>2015-04-25T17:53:55.0000000+00:00</time></trkpt><trkpt lat="35.0415951" lon="32.428704"><ele>23.4</ele><time>2015-04-25T17:53:57.0000000+00:00</time></trkpt><trkpt lat="35.0416506" lon="32.4287638"><ele>23.0</ele><time>2015-04-25T17:53:59.0000000+00:00</time></trkpt><trkpt lat="35.041691" lon="32.4288249"><ele>23.0</ele><time>2015-04-25T17:54:01.0000000+00:00</time></trkpt><trkpt lat="35.0417324" lon="32.4288883"><ele>22.9</ele><time>2015-04-25T17:54:03.0000000+00:00</time></trkpt><trkpt lat="35.0417722" lon="32.428956"><ele>22.2</ele><time>2015-04-25T17:54:05.0000000+00:00</time></trkpt><trkpt lat="35.0418073" lon="32.4290286"><ele>22.0</ele><time>2015-04-25T17:54:07.0000000+00:00</time></trkpt><trkpt lat="35.0418552" lon="32.4290973"><ele>22.2</ele><time>2015-04-25T17:54:09.0000000+00:00</time></trkpt><trkpt lat="35.0419054" lon="32.42917"><ele>22.0</ele><time>2015-04-25T17:54:11.0000000+00:00</time></trkpt><trkpt lat="35.0419435" lon="32.4292426"><ele>21.2</ele><time>2015-04-25T17:54:13.0000000+00:00</time></trkpt><trkpt lat="35.0419878" lon="32.4293035"><ele>21.0</ele><time>2015-04-25T17:54:15.0000000+00:00</time></trkpt><trkpt lat="35.042034" lon="32.4293671"><ele>20.9</ele><time>2015-04-25T17:54:17.0000000+00:00</time></trkpt><trkpt lat="35.0420713" lon="32.429438"><ele>20.9</ele><time>2015-04-25T17:54:19.0000000+00:00</time></trkpt><trkpt lat="35.0421124" lon="32.4295028"><ele>20.7</ele><time>2015-04-25T17:54:21.0000000+00:00</time></trkpt><trkpt lat="35.042153" lon="32.4295629"><ele>20.1</ele><time>2015-04-25T17:54:23.0000000+00:00</time></trkpt><trkpt lat="35.0421934" lon="32.4296233"><ele>19.2</ele><time>2015-04-25T17:54:25.0000000+00:00</time></trkpt><trkpt lat="35.042234" lon="32.4296817"><ele>19.0</ele><time>2015-04-25T17:54:27.0000000+00:00</time></trkpt><trkpt lat="35.0422702" lon="32.4297412"><ele>18.2</ele><time>2015-04-25T17:54:29.0000000+00:00</time></trkpt><trkpt lat="35.0423036" lon="32.4298034"><ele>18.7</ele><time>2015-04-25T17:54:31.0000000+00:00</time></trkpt><trkpt lat="35.042339" lon="32.4298615"><ele>18.9</ele><time>2015-04-25T17:54:33.0000000+00:00</time></trkpt><trkpt lat="35.0423684" lon="32.4299134"><ele>18.2</ele><time>2015-04-25T17:54:35.0000000+00:00</time></trkpt><trkpt lat="35.0424003" lon="32.4299686"><ele>18.0</ele><time>2015-04-25T17:54:37.0000000+00:00</time></trkpt><trkpt lat="35.0424386" lon="32.4300259"><ele>17.9</ele><time>2015-04-25T17:54:39.0000000+00:00</time></trkpt><trkpt lat="35.0424674" lon="32.4300736"><ele>18.4</ele><time>2015-04-25T17:54:40.0000000+00:00</time></trkpt><trkpt lat="35.0425249" lon="32.4301568"><ele>18.3</ele><time>2015-04-25T17:54:42.0000000+00:00</time></trkpt><trkpt lat="35.042593" lon="32.4302446"><ele>18.0</ele><time>2015-04-25T17:54:44.0000000+00:00</time></trkpt><trkpt lat="35.0426273" lon="32.4302876"><ele>18.0</ele><time>2015-04-25T17:54:45.0000000+00:00</time></trkpt><trkpt lat="35.0426659" lon="32.4303241"><ele>17.5</ele><time>2015-04-25T17:54:46.0000000+00:00</time></trkpt><trkpt lat="35.0427016" lon="32.430362"><ele>17.2</ele><time>2015-04-25T17:54:47.0000000+00:00</time></trkpt><trkpt lat="35.0427443" lon="32.4303973"><ele>17.1</ele><time>2015-04-25T17:54:48.0000000+00:00</time></trkpt><trkpt lat="35.0428115" lon="32.4304714"><ele>17.0</ele><time>2015-04-25T17:54:50.0000000+00:00</time></trkpt><trkpt lat="35.0428875" lon="32.4305342"><ele>16.4</ele><time>2015-04-25T17:54:52.0000000+00:00</time></trkpt><trkpt lat="35.0429269" lon="32.4305639"><ele>16.2</ele><time>2015-04-25T17:54:53.0000000+00:00</time></trkpt><trkpt lat="35.0429853" lon="32.4306309"><ele>15.2</ele><time>2015-04-25T17:54:55.0000000+00:00</time></trkpt><trkpt lat="35.0430451" lon="32.430698"><ele>15.8</ele><time>2015-04-25T17:54:57.0000000+00:00</time></trkpt><trkpt lat="35.0431022" lon="32.4307456"><ele>15.1</ele><time>2015-04-25T17:54:59.0000000+00:00</time></trkpt><trkpt lat="35.0431707" lon="32.4308016"><ele>15.0</ele><time>2015-04-25T17:55:01.0000000+00:00</time></trkpt><trkpt lat="35.043209" lon="32.4308326"><ele>15.5</ele><time>2015-04-25T17:55:02.0000000+00:00</time></trkpt><trkpt lat="35.0432477" lon="32.4308681"><ele>15.2</ele><time>2015-04-25T17:55:03.0000000+00:00</time></trkpt><trkpt lat="35.0432918" lon="32.4309083"><ele>15.6</ele><time>2015-04-25T17:55:04.0000000+00:00</time></trkpt><trkpt lat="35.0433288" lon="32.4309443"><ele>15.2</ele><time>2015-04-25T17:55:05.0000000+00:00</time></trkpt><trkpt lat="35.0433708" lon="32.4309787"><ele>15.1</ele><time>2015-04-25T17:55:06.0000000+00:00</time></trkpt><trkpt lat="35.0434272" lon="32.4310563"><ele>14.2</ele><time>2015-04-25T17:55:08.0000000+00:00</time></trkpt><trkpt lat="35.0434842" lon="32.4311337"><ele>15.3</ele><time>2015-04-25T17:55:10.0000000+00:00</time></trkpt><trkpt lat="35.043518" lon="32.4311735"><ele>15.6</ele><time>2015-04-25T17:55:11.0000000+00:00</time></trkpt><trkpt lat="35.0435721" lon="32.431242"><ele>16.3</ele><time>2015-04-25T17:55:13.0000000+00:00</time></trkpt><trkpt lat="35.0436256" lon="32.4313046"><ele>16.8</ele><time>2015-04-25T17:55:15.0000000+00:00</time></trkpt><trkpt lat="35.0436854" lon="32.4313619"><ele>17.1</ele><time>2015-04-25T17:55:17.0000000+00:00</time></trkpt><trkpt lat="35.0437278" lon="32.4314307"><ele>16.7</ele><time>2015-04-25T17:55:19.0000000+00:00</time></trkpt><trkpt lat="35.0437773" lon="32.4314982"><ele>16.1</ele><time>2015-04-25T17:55:21.0000000+00:00</time></trkpt><trkpt lat="35.043828" lon="32.4315592"><ele>16.7</ele><time>2015-04-25T17:55:23.0000000+00:00</time></trkpt><trkpt lat="35.0438874" lon="32.43162"><ele>16.9</ele><time>2015-04-25T17:55:25.0000000+00:00</time></trkpt><trkpt lat="35.0439361" lon="32.4316831"><ele>16.9</ele><time>2015-04-25T17:55:27.0000000+00:00</time></trkpt><trkpt lat="35.0439872" lon="32.4317462"><ele>16.9</ele><time>2015-04-25T17:55:29.0000000+00:00</time></trkpt><trkpt lat="35.044043" lon="32.4318101"><ele>16.9</ele><time>2015-04-25T17:55:31.0000000+00:00</time></trkpt><trkpt lat="35.0440865" lon="32.4318697"><ele>16.9</ele><time>2015-04-25T17:55:32.0000000+00:00</time></trkpt><trkpt lat="35.0441171" lon="32.431912"><ele>16.9</ele><time>2015-04-25T17:55:33.0000000+00:00</time></trkpt><trkpt lat="35.0441505" lon="32.4319499"><ele>16.9</ele><time>2015-04-25T17:55:34.0000000+00:00</time></trkpt><trkpt lat="35.0441863" lon="32.4319966"><ele>16.9</ele><time>2015-04-25T17:55:35.0000000+00:00</time></trkpt><trkpt lat="35.0442157" lon="32.432047"><ele>17.4</ele><time>2015-04-25T17:55:36.0000000+00:00</time></trkpt><trkpt lat="35.0442532" lon="32.4321038"><ele>17.2</ele><time>2015-04-25T17:55:37.0000000+00:00</time></trkpt><trkpt lat="35.0442877" lon="32.4321486"><ele>17.1</ele><time>2015-04-25T17:55:38.0000000+00:00</time></trkpt><trkpt lat="35.0443235" lon="32.4321945"><ele>17.5</ele><time>2015-04-25T17:55:39.0000000+00:00</time></trkpt><trkpt lat="35.0443607" lon="32.4322485"><ele>17.7</ele><time>2015-04-25T17:55:40.0000000+00:00</time></trkpt><trkpt lat="35.044397" lon="32.4323019"><ele>18.3</ele><time>2015-04-25T17:55:41.0000000+00:00</time></trkpt><trkpt lat="35.0444474" lon="32.4323769"><ele>17.5</ele><time>2015-04-25T17:55:43.0000000+00:00</time></trkpt><trkpt lat="35.0444764" lon="32.4324278"><ele>16.7</ele><time>2015-04-25T17:55:44.0000000+00:00</time></trkpt><trkpt lat="35.0445136" lon="32.4324795"><ele>16.3</ele><time>2015-04-25T17:55:45.0000000+00:00</time></trkpt><trkpt lat="35.0445501" lon="32.4325338"><ele>16.1</ele><time>2015-04-25T17:55:46.0000000+00:00</time></trkpt><trkpt lat="35.0445859" lon="32.4325854"><ele>16.0</ele><time>2015-04-25T17:55:47.0000000+00:00</time></trkpt><trkpt lat="35.0446243" lon="32.4326357"><ele>16.0</ele><time>2015-04-25T17:55:48.0000000+00:00</time></trkpt><trkpt lat="35.0446671" lon="32.4326911"><ele>16.0</ele><time>2015-04-25T17:55:49.0000000+00:00</time></trkpt><trkpt lat="35.044705" lon="32.4327432"><ele>15.9</ele><time>2015-04-25T17:55:50.0000000+00:00</time></trkpt><trkpt lat="35.0447428" lon="32.4328004"><ele>15.9</ele><time>2015-04-25T17:55:51.0000000+00:00</time></trkpt><trkpt lat="35.0447801" lon="32.4328556"><ele>15.9</ele><time>2015-04-25T17:55:52.0000000+00:00</time></trkpt><trkpt lat="35.0448087" lon="32.4329042"><ele>15.4</ele><time>2015-04-25T17:55:53.0000000+00:00</time></trkpt><trkpt lat="35.0448645" lon="32.4329865"><ele>15.6</ele><time>2015-04-25T17:55:55.0000000+00:00</time></trkpt><trkpt lat="35.0449023" lon="32.4330398"><ele>15.7</ele><time>2015-04-25T17:55:56.0000000+00:00</time></trkpt><trkpt lat="35.0449346" lon="32.4330806"><ele>16.3</ele><time>2015-04-25T17:55:57.0000000+00:00</time></trkpt><trkpt lat="35.0449776" lon="32.4331706"><ele>16.8</ele><time>2015-04-25T17:55:59.0000000+00:00</time></trkpt><trkpt lat="35.0450233" lon="32.4332663"><ele>16.9</ele><time>2015-04-25T17:56:01.0000000+00:00</time></trkpt><trkpt lat="35.0450511" lon="32.4333151"><ele>16.9</ele><time>2015-04-25T17:56:02.0000000+00:00</time></trkpt><trkpt lat="35.0450916" lon="32.4334079"><ele>16.4</ele><time>2015-04-25T17:56:04.0000000+00:00</time></trkpt><trkpt lat="35.0451252" lon="32.4334946"><ele>16.1</ele><time>2015-04-25T17:56:06.0000000+00:00</time></trkpt><trkpt lat="35.0451712" lon="32.4335869"><ele>16.0</ele><time>2015-04-25T17:56:08.0000000+00:00</time></trkpt><trkpt lat="35.0451945" lon="32.433634"><ele>15.9</ele><time>2015-04-25T17:56:09.0000000+00:00</time></trkpt><trkpt lat="35.045234" lon="32.4337271"><ele>16.7</ele><time>2015-04-25T17:56:11.0000000+00:00</time></trkpt><trkpt lat="35.0452579" lon="32.4337855"><ele>16.3</ele><time>2015-04-25T17:56:12.0000000+00:00</time></trkpt><trkpt lat="35.0452852" lon="32.4338342"><ele>16.1</ele><time>2015-04-25T17:56:13.0000000+00:00</time></trkpt><trkpt lat="35.0453273" lon="32.4339308"><ele>16.7</ele><time>2015-04-25T17:56:15.0000000+00:00</time></trkpt><trkpt lat="35.0453532" lon="32.4339788"><ele>16.8</ele><time>2015-04-25T17:56:16.0000000+00:00</time></trkpt><trkpt lat="35.0453793" lon="32.4340551"><ele>16.4</ele><time>2015-04-25T17:56:18.0000000+00:00</time></trkpt><trkpt lat="35.0454037" lon="32.4341014"><ele>16.2</ele><time>2015-04-25T17:56:19.0000000+00:00</time></trkpt><trkpt lat="35.045432" lon="32.4341546"><ele>16.0</ele><time>2015-04-25T17:56:20.0000000+00:00</time></trkpt><trkpt lat="35.0454577" lon="32.4342068"><ele>16.5</ele><time>2015-04-25T17:56:21.0000000+00:00</time></trkpt><trkpt lat="35.0454813" lon="32.4342586"><ele>16.7</ele><time>2015-04-25T17:56:22.0000000+00:00</time></trkpt><trkpt lat="35.0455022" lon="32.4343083"><ele>16.8</ele><time>2015-04-25T17:56:23.0000000+00:00</time></trkpt><trkpt lat="35.0455265" lon="32.4343568"><ele>16.9</ele><time>2015-04-25T17:56:24.0000000+00:00</time></trkpt><trkpt lat="35.0455732" lon="32.434456"><ele>16.4</ele><time>2015-04-25T17:56:26.0000000+00:00</time></trkpt><trkpt lat="35.0456101" lon="32.4345503"><ele>15.8</ele><time>2015-04-25T17:56:28.0000000+00:00</time></trkpt><trkpt lat="35.0456402" lon="32.4346244"><ele>16.1</ele><time>2015-04-25T17:56:30.0000000+00:00</time></trkpt><trkpt lat="35.0456794" lon="32.4347026"><ele>15.2</ele><time>2015-04-25T17:56:32.0000000+00:00</time></trkpt><trkpt lat="35.0457228" lon="32.4347782"><ele>15.3</ele><time>2015-04-25T17:56:34.0000000+00:00</time></trkpt><trkpt lat="35.0457651" lon="32.4348665"><ele>15.0</ele><time>2015-04-25T17:56:36.0000000+00:00</time></trkpt><trkpt lat="35.0458012" lon="32.4349554"><ele>15.5</ele><time>2015-04-25T17:56:38.0000000+00:00</time></trkpt><trkpt lat="35.0458434" lon="32.4350442"><ele>15.8</ele><time>2015-04-25T17:56:40.0000000+00:00</time></trkpt><trkpt lat="35.0458835" lon="32.4351342"><ele>15.9</ele><time>2015-04-25T17:56:42.0000000+00:00</time></trkpt><trkpt lat="35.0459235" lon="32.4352244"><ele>15.2</ele><time>2015-04-25T17:56:44.0000000+00:00</time></trkpt><trkpt lat="35.0459633" lon="32.4353138"><ele>15.7</ele><time>2015-04-25T17:56:46.0000000+00:00</time></trkpt><trkpt lat="35.045986" lon="32.4353629"><ele>15.8</ele><time>2015-04-25T17:56:47.0000000+00:00</time></trkpt><trkpt lat="35.0460325" lon="32.4354643"><ele>15.9</ele><time>2015-04-25T17:56:49.0000000+00:00</time></trkpt><trkpt lat="35.0460769" lon="32.4355501"><ele>15.4</ele><time>2015-04-25T17:56:51.0000000+00:00</time></trkpt><trkpt lat="35.0460997" lon="32.4356006"><ele>15.2</ele><time>2015-04-25T17:56:52.0000000+00:00</time></trkpt><trkpt lat="35.0461345" lon="32.4356912"><ele>15.7</ele><time>2015-04-25T17:56:54.0000000+00:00</time></trkpt><trkpt lat="35.0461486" lon="32.4357808"><ele>15.1</ele><time>2015-04-25T17:56:56.0000000+00:00</time></trkpt><trkpt lat="35.0461636" lon="32.4358786"><ele>15.0</ele><time>2015-04-25T17:56:58.0000000+00:00</time></trkpt><trkpt lat="35.0461898" lon="32.4359644"><ele>15.7</ele><time>2015-04-25T17:57:00.0000000+00:00</time></trkpt><trkpt lat="35.046217" lon="32.4360505"><ele>15.6</ele><time>2015-04-25T17:57:02.0000000+00:00</time></trkpt><trkpt lat="35.0462364" lon="32.436141"><ele>15.9</ele><time>2015-04-25T17:57:04.0000000+00:00</time></trkpt><trkpt lat="35.046254" lon="32.4362336"><ele>15.9</ele><time>2015-04-25T17:57:06.0000000+00:00</time></trkpt><trkpt lat="35.0462753" lon="32.4363277"><ele>15.9</ele><time>2015-04-25T17:57:08.0000000+00:00</time></trkpt><trkpt lat="35.0462969" lon="32.4364236"><ele>16.4</ele><time>2015-04-25T17:57:10.0000000+00:00</time></trkpt><trkpt lat="35.0463186" lon="32.4365201"><ele>16.3</ele><time>2015-04-25T17:57:12.0000000+00:00</time></trkpt><trkpt lat="35.0463444" lon="32.4366143"><ele>16.0</ele><time>2015-04-25T17:57:14.0000000+00:00</time></trkpt><trkpt lat="35.0463652" lon="32.4367101"><ele>16.5</ele><time>2015-04-25T17:57:16.0000000+00:00</time></trkpt><trkpt lat="35.0463871" lon="32.4368054"><ele>16.8</ele><time>2015-04-25T17:57:18.0000000+00:00</time></trkpt><trkpt lat="35.0464139" lon="32.4369025"><ele>16.9</ele><time>2015-04-25T17:57:20.0000000+00:00</time></trkpt><trkpt lat="35.0464403" lon="32.4369998"><ele>17.7</ele><time>2015-04-25T17:57:22.0000000+00:00</time></trkpt><trkpt lat="35.0464683" lon="32.4370891"><ele>17.1</ele><time>2015-04-25T17:57:24.0000000+00:00</time></trkpt><trkpt lat="35.0464991" lon="32.437139"><ele>17.0</ele><time>2015-04-25T17:57:26.0000000+00:00</time></trkpt><trkpt lat="35.0464936" lon="32.4370845"><ele>16.9</ele><time>2015-04-25T17:57:31.0000000+00:00</time></trkpt><trkpt lat="35.0465232" lon="32.4371422"><ele>13.2</ele><time>2015-04-25T18:00:06.0000000+00:00</time></trkpt><trkpt lat="35.0465351" lon="32.4372007"><ele>13.0</ele><time>2015-04-25T18:00:09.0000000+00:00</time></trkpt><trkpt lat="35.0465518" lon="32.4372844"><ele>14.2</ele><time>2015-04-25T18:00:12.0000000+00:00</time></trkpt><trkpt lat="35.0465655" lon="32.4373459"><ele>14.5</ele><time>2015-04-25T18:00:14.0000000+00:00</time></trkpt><trkpt lat="35.0465787" lon="32.4374108"><ele>14.8</ele><time>2015-04-25T18:00:16.0000000+00:00</time></trkpt><trkpt lat="35.0465964" lon="32.4374801"><ele>16.2</ele><time>2015-04-25T18:00:18.0000000+00:00</time></trkpt><trkpt lat="35.046619" lon="32.4375446"><ele>16.7</ele><time>2015-04-25T18:00:20.0000000+00:00</time></trkpt><trkpt lat="35.0466417" lon="32.4376045"><ele>17.1</ele><time>2015-04-25T18:00:22.0000000+00:00</time></trkpt><trkpt lat="35.0466652" lon="32.4376623"><ele>17.7</ele><time>2015-04-25T18:00:24.0000000+00:00</time></trkpt><trkpt lat="35.0466847" lon="32.4377252"><ele>17.1</ele><time>2015-04-25T18:00:26.0000000+00:00</time></trkpt><trkpt lat="35.0467042" lon="32.4377924"><ele>17.0</ele><time>2015-04-25T18:00:28.0000000+00:00</time></trkpt><trkpt lat="35.0467293" lon="32.4378628"><ele>16.9</ele><time>2015-04-25T18:00:30.0000000+00:00</time></trkpt><trkpt lat="35.0467578" lon="32.4379363"><ele>16.9</ele><time>2015-04-25T18:00:32.0000000+00:00</time></trkpt><trkpt lat="35.0467934" lon="32.4380075"><ele>16.9</ele><time>2015-04-25T18:00:34.0000000+00:00</time></trkpt><trkpt lat="35.0468323" lon="32.4380795"><ele>16.9</ele><time>2015-04-25T18:00:36.0000000+00:00</time></trkpt><trkpt lat="35.0468659" lon="32.4381527"><ele>16.2</ele><time>2015-04-25T18:00:38.0000000+00:00</time></trkpt><trkpt lat="35.0469035" lon="32.438224"><ele>15.2</ele><time>2015-04-25T18:00:40.0000000+00:00</time></trkpt><trkpt lat="35.0469459" lon="32.4382932"><ele>14.5</ele><time>2015-04-25T18:00:42.0000000+00:00</time></trkpt><trkpt lat="35.0469854" lon="32.4383633"><ele>14.1</ele><time>2015-04-25T18:00:44.0000000+00:00</time></trkpt><trkpt lat="35.0470312" lon="32.4384329"><ele>14.0</ele><time>2015-04-25T18:00:46.0000000+00:00</time></trkpt><trkpt lat="35.0470765" lon="32.4385027"><ele>14.7</ele><time>2015-04-25T18:00:48.0000000+00:00</time></trkpt><trkpt lat="35.0471183" lon="32.4385761"><ele>14.1</ele><time>2015-04-25T18:00:50.0000000+00:00</time></trkpt><trkpt lat="35.0471738" lon="32.4386492"><ele>14.5</ele><time>2015-04-25T18:00:52.0000000+00:00</time></trkpt><trkpt lat="35.0472064" lon="32.4386882"><ele>14.7</ele><time>2015-04-25T18:00:53.0000000+00:00</time></trkpt><trkpt lat="35.0472409" lon="32.4387296"><ele>14.8</ele><time>2015-04-25T18:00:54.0000000+00:00</time></trkpt><trkpt lat="35.0472964" lon="32.4387934"><ele>14.9</ele><time>2015-04-25T18:00:55.0000000+00:00</time></trkpt><trkpt lat="35.0473289" lon="32.438837"><ele>14.4</ele><time>2015-04-25T18:00:56.0000000+00:00</time></trkpt><trkpt lat="35.0473604" lon="32.4388825"><ele>14.2</ele><time>2015-04-25T18:00:57.0000000+00:00</time></trkpt><trkpt lat="35.047388" lon="32.4389275"><ele>13.5</ele><time>2015-04-25T18:00:58.0000000+00:00</time></trkpt><trkpt lat="35.0474546" lon="32.4390101"><ele>13.1</ele><time>2015-04-25T18:01:00.0000000+00:00</time></trkpt><trkpt lat="35.0474932" lon="32.4390506"><ele>13.0</ele><time>2015-04-25T18:01:01.0000000+00:00</time></trkpt><trkpt lat="35.0475292" lon="32.4390963"><ele>13.0</ele><time>2015-04-25T18:01:02.0000000+00:00</time></trkpt><trkpt lat="35.0475596" lon="32.4391412"><ele>12.9</ele><time>2015-04-25T18:01:03.0000000+00:00</time></trkpt><trkpt lat="35.0475942" lon="32.439186"><ele>12.9</ele><time>2015-04-25T18:01:04.0000000+00:00</time></trkpt><trkpt lat="35.0476251" lon="32.4392291"><ele>12.9</ele><time>2015-04-25T18:01:05.0000000+00:00</time></trkpt><trkpt lat="35.0476835" lon="32.439296"><ele>13.7</ele><time>2015-04-25T18:01:07.0000000+00:00</time></trkpt><trkpt lat="35.0477153" lon="32.4393378"><ele>13.8</ele><time>2015-04-25T18:01:08.0000000+00:00</time></trkpt><trkpt lat="35.0477497" lon="32.4393744"><ele>13.9</ele><time>2015-04-25T18:01:09.0000000+00:00</time></trkpt><trkpt lat="35.0477832" lon="32.4394204"><ele>13.9</ele><time>2015-04-25T18:01:10.0000000+00:00</time></trkpt><trkpt lat="35.0478185" lon="32.4394653"><ele>13.9</ele><time>2015-04-25T18:01:11.0000000+00:00</time></trkpt><trkpt lat="35.0478502" lon="32.4395098"><ele>13.9</ele><time>2015-04-25T18:01:12.0000000+00:00</time></trkpt><trkpt lat="35.0478815" lon="32.4395562"><ele>13.9</ele><time>2015-04-25T18:01:13.0000000+00:00</time></trkpt><trkpt lat="35.0479267" lon="32.4396262"><ele>13.2</ele><time>2015-04-25T18:01:15.0000000+00:00</time></trkpt><trkpt lat="35.0479569" lon="32.43967"><ele>13.1</ele><time>2015-04-25T18:01:16.0000000+00:00</time></trkpt><trkpt lat="35.0480241" lon="32.4397374"><ele>13.5</ele><time>2015-04-25T18:01:18.0000000+00:00</time></trkpt><trkpt lat="35.0480576" lon="32.4397747"><ele>13.7</ele><time>2015-04-25T18:01:19.0000000+00:00</time></trkpt><trkpt lat="35.0481189" lon="32.4398486"><ele>13.4</ele><time>2015-04-25T18:01:21.0000000+00:00</time></trkpt><trkpt lat="35.0481586" lon="32.4398863"><ele>13.7</ele><time>2015-04-25T18:01:22.0000000+00:00</time></trkpt><trkpt lat="35.0482251" lon="32.4399528"><ele>13.9</ele><time>2015-04-25T18:01:24.0000000+00:00</time></trkpt><trkpt lat="35.0482669" lon="32.4399895"><ele>13.9</ele><time>2015-04-25T18:01:25.0000000+00:00</time></trkpt><trkpt lat="35.0483052" lon="32.4400227"><ele>13.9</ele><time>2015-04-25T18:01:26.0000000+00:00</time></trkpt><trkpt lat="35.0483643" lon="32.4400895"><ele>14.7</ele><time>2015-04-25T18:01:28.0000000+00:00</time></trkpt><trkpt lat="35.0484117" lon="32.4401154"><ele>14.8</ele><time>2015-04-25T18:01:29.0000000+00:00</time></trkpt><trkpt lat="35.0484521" lon="32.4401511"><ele>15.4</ele><time>2015-04-25T18:01:30.0000000+00:00</time></trkpt><trkpt lat="35.0484948" lon="32.440183"><ele>15.6</ele><time>2015-04-25T18:01:31.0000000+00:00</time></trkpt><trkpt lat="35.0485421" lon="32.4402196"><ele>15.8</ele><time>2015-04-25T18:01:32.0000000+00:00</time></trkpt><trkpt lat="35.0485851" lon="32.4402505"><ele>15.9</ele><time>2015-04-25T18:01:33.0000000+00:00</time></trkpt><trkpt lat="35.0486266" lon="32.4402827"><ele>15.4</ele><time>2015-04-25T18:01:34.0000000+00:00</time></trkpt><trkpt lat="35.0486735" lon="32.4403065"><ele>15.2</ele><time>2015-04-25T18:01:35.0000000+00:00</time></trkpt><trkpt lat="35.0487136" lon="32.4403415"><ele>15.0</ele><time>2015-04-25T18:01:36.0000000+00:00</time></trkpt><trkpt lat="35.0487563" lon="32.4403593"><ele>15.0</ele><time>2015-04-25T18:01:37.0000000+00:00</time></trkpt><trkpt lat="35.0488012" lon="32.4403888"><ele>15.0</ele><time>2015-04-25T18:01:38.0000000+00:00</time></trkpt><trkpt lat="35.0488458" lon="32.4404114"><ele>15.4</ele><time>2015-04-25T18:01:39.0000000+00:00</time></trkpt><trkpt lat="35.0488985" lon="32.440436"><ele>15.7</ele><time>2015-04-25T18:01:40.0000000+00:00</time></trkpt><trkpt lat="35.0489802" lon="32.4404883"><ele>15.4</ele><time>2015-04-25T18:01:42.0000000+00:00</time></trkpt><trkpt lat="35.0490182" lon="32.440521"><ele>15.1</ele><time>2015-04-25T18:01:43.0000000+00:00</time></trkpt><trkpt lat="35.0490681" lon="32.4405558"><ele>15.0</ele><time>2015-04-25T18:01:44.0000000+00:00</time></trkpt><trkpt lat="35.0491076" lon="32.4405948"><ele>15.0</ele><time>2015-04-25T18:01:45.0000000+00:00</time></trkpt><trkpt lat="35.0491471" lon="32.4406354"><ele>15.0</ele><time>2015-04-25T18:01:46.0000000+00:00</time></trkpt><trkpt lat="35.049183" lon="32.4406816"><ele>14.9</ele><time>2015-04-25T18:01:47.0000000+00:00</time></trkpt><trkpt lat="35.0492262" lon="32.4407288"><ele>14.9</ele><time>2015-04-25T18:01:48.0000000+00:00</time></trkpt><trkpt lat="35.0492589" lon="32.4407777"><ele>14.4</ele><time>2015-04-25T18:01:49.0000000+00:00</time></trkpt><trkpt lat="35.0492891" lon="32.4408259"><ele>14.2</ele><time>2015-04-25T18:01:50.0000000+00:00</time></trkpt><trkpt lat="35.0493321" lon="32.4408676"><ele>14.6</ele><time>2015-04-25T18:01:51.0000000+00:00</time></trkpt><trkpt lat="35.0493649" lon="32.4409202"><ele>14.7</ele><time>2015-04-25T18:01:52.0000000+00:00</time></trkpt><trkpt lat="35.0493975" lon="32.4409684"><ele>14.3</ele><time>2015-04-25T18:01:53.0000000+00:00</time></trkpt><trkpt lat="35.0494381" lon="32.4410166"><ele>14.1</ele><time>2015-04-25T18:01:54.0000000+00:00</time></trkpt><trkpt lat="35.0494655" lon="32.4410627"><ele>14.5</ele><time>2015-04-25T18:01:55.0000000+00:00</time></trkpt><trkpt lat="35.0495003" lon="32.4411113"><ele>14.7</ele><time>2015-04-25T18:01:56.0000000+00:00</time></trkpt><trkpt lat="35.0495408" lon="32.4411632"><ele>14.8</ele><time>2015-04-25T18:01:57.0000000+00:00</time></trkpt><trkpt lat="35.0495763" lon="32.44122"><ele>15.4</ele><time>2015-04-25T18:01:58.0000000+00:00</time></trkpt><trkpt lat="35.0496056" lon="32.4412675"><ele>15.2</ele><time>2015-04-25T18:01:59.0000000+00:00</time></trkpt><trkpt lat="35.0496368" lon="32.4413266"><ele>15.0</ele><time>2015-04-25T18:02:00.0000000+00:00</time></trkpt><trkpt lat="35.0496636" lon="32.4413877"><ele>15.0</ele><time>2015-04-25T18:02:01.0000000+00:00</time></trkpt><trkpt lat="35.0496898" lon="32.4414503"><ele>15.0</ele><time>2015-04-25T18:02:02.0000000+00:00</time></trkpt><trkpt lat="35.0497073" lon="32.4415082"><ele>14.9</ele><time>2015-04-25T18:02:03.0000000+00:00</time></trkpt><trkpt lat="35.0497302" lon="32.4415693"><ele>14.9</ele><time>2015-04-25T18:02:04.0000000+00:00</time></trkpt><trkpt lat="35.0497436" lon="32.4416796"><ele>14.4</ele><time>2015-04-25T18:02:06.0000000+00:00</time></trkpt><trkpt lat="35.0497486" lon="32.4417401"><ele>14.2</ele><time>2015-04-25T18:02:07.0000000+00:00</time></trkpt><trkpt lat="35.0497545" lon="32.4418003"><ele>13.6</ele><time>2015-04-25T18:02:08.0000000+00:00</time></trkpt><trkpt lat="35.0497651" lon="32.4418564"><ele>13.7</ele><time>2015-04-25T18:02:09.0000000+00:00</time></trkpt><trkpt lat="35.0497778" lon="32.44191"><ele>13.8</ele><time>2015-04-25T18:02:10.0000000+00:00</time></trkpt><trkpt lat="35.0498107" lon="32.4420086"><ele>13.9</ele><time>2015-04-25T18:02:12.0000000+00:00</time></trkpt><trkpt lat="35.0498357" lon="32.4421031"><ele>13.2</ele><time>2015-04-25T18:02:14.0000000+00:00</time></trkpt><trkpt lat="35.0498593" lon="32.4422042"><ele>13.0</ele><time>2015-04-25T18:02:16.0000000+00:00</time></trkpt><trkpt lat="35.0498915" lon="32.4422863"><ele>12.9</ele><time>2015-04-25T18:02:18.0000000+00:00</time></trkpt><trkpt lat="35.0499255" lon="32.4423688"><ele>12.9</ele><time>2015-04-25T18:02:20.0000000+00:00</time></trkpt><trkpt lat="35.0499632" lon="32.4424488"><ele>13.2</ele><time>2015-04-25T18:02:22.0000000+00:00</time></trkpt><trkpt lat="35.0499948" lon="32.4425408"><ele>14.7</ele><time>2015-04-25T18:02:24.0000000+00:00</time></trkpt><trkpt lat="35.0500185" lon="32.4426283"><ele>15.6</ele><time>2015-04-25T18:02:26.0000000+00:00</time></trkpt><trkpt lat="35.0500169" lon="32.4427205"><ele>15.1</ele><time>2015-04-25T18:02:28.0000000+00:00</time></trkpt><trkpt lat="35.0499748" lon="32.4428049"><ele>16.2</ele><time>2015-04-25T18:02:30.0000000+00:00</time></trkpt><trkpt lat="35.0499005" lon="32.4428666"><ele>16.8</ele><time>2015-04-25T18:02:32.0000000+00:00</time></trkpt><trkpt lat="35.0498597" lon="32.4428904"><ele>16.8</ele><time>2015-04-25T18:02:33.0000000+00:00</time></trkpt><trkpt lat="35.049779" lon="32.4429282"><ele>17.4</ele><time>2015-04-25T18:02:35.0000000+00:00</time></trkpt><trkpt lat="35.0497351" lon="32.4429472"><ele>18.7</ele><time>2015-04-25T18:02:36.0000000+00:00</time></trkpt><trkpt lat="35.0496751" lon="32.4429567"><ele>19.3</ele><time>2015-04-25T18:02:37.0000000+00:00</time></trkpt><trkpt lat="35.0496034" lon="32.4430032"><ele>19.8</ele><time>2015-04-25T18:02:39.0000000+00:00</time></trkpt><trkpt lat="35.0495343" lon="32.4430426"><ele>19.9</ele><time>2015-04-25T18:02:41.0000000+00:00</time></trkpt><trkpt lat="35.0494684" lon="32.4430741"><ele>19.9</ele><time>2015-04-25T18:02:43.0000000+00:00</time></trkpt><trkpt lat="35.0494262" lon="32.4430972"><ele>19.9</ele><time>2015-04-25T18:02:44.0000000+00:00</time></trkpt><trkpt lat="35.0493804" lon="32.4431243"><ele>19.9</ele><time>2015-04-25T18:02:45.0000000+00:00</time></trkpt><trkpt lat="35.0493167" lon="32.4431619"><ele>20.7</ele><time>2015-04-25T18:02:47.0000000+00:00</time></trkpt><trkpt lat="35.0492746" lon="32.4431856"><ele>20.8</ele><time>2015-04-25T18:02:48.0000000+00:00</time></trkpt><trkpt lat="35.0492113" lon="32.4432423"><ele>21.4</ele><time>2015-04-25T18:02:51.0000000+00:00</time></trkpt><trkpt lat="35.0491384" lon="32.4432755"><ele>22.1</ele><time>2015-04-25T18:02:53.0000000+00:00</time></trkpt><trkpt lat="35.0490679" lon="32.4433267"><ele>23.7</ele><time>2015-04-25T18:02:55.0000000+00:00</time></trkpt><trkpt lat="35.0489924" lon="32.4433659"><ele>24.4</ele><time>2015-04-25T18:02:57.0000000+00:00</time></trkpt><trkpt lat="35.0489171" lon="32.4433984"><ele>24.0</ele><time>2015-04-25T18:02:59.0000000+00:00</time></trkpt><trkpt lat="35.0488421" lon="32.4434376"><ele>22.7</ele><time>2015-04-25T18:03:01.0000000+00:00</time></trkpt><trkpt lat="35.0487722" lon="32.4434724"><ele>21.6</ele><time>2015-04-25T18:03:03.0000000+00:00</time></trkpt><trkpt lat="35.0487102" lon="32.4435012"><ele>19.9</ele><time>2015-04-25T18:03:05.0000000+00:00</time></trkpt><trkpt lat="35.0486581" lon="32.4435298"><ele>19.4</ele><time>2015-04-25T18:03:07.0000000+00:00</time></trkpt><trkpt lat="35.0486238" lon="32.4435842"><ele>19.3</ele><time>2015-04-25T18:03:09.0000000+00:00</time></trkpt><trkpt lat="35.048599" lon="32.4436439"><ele>19.9</ele><time>2015-04-25T18:03:12.0000000+00:00</time></trkpt><trkpt lat="35.0486142" lon="32.4437178"><ele>19.4</ele><time>2015-04-25T18:03:15.0000000+00:00</time></trkpt><trkpt lat="35.0486522" lon="32.4437672"><ele>19.1</ele><time>2015-04-25T18:03:17.0000000+00:00</time></trkpt><trkpt lat="35.0486855" lon="32.4438051"><ele>19.0</ele><time>2015-04-25T18:03:19.0000000+00:00</time></trkpt><trkpt lat="35.0487173" lon="32.4438504"><ele>18.9</ele><time>2015-04-25T18:03:21.0000000+00:00</time></trkpt><trkpt lat="35.048751" lon="32.4438964"><ele>18.4</ele><time>2015-04-25T18:03:23.0000000+00:00</time></trkpt><trkpt lat="35.0487856" lon="32.4439478"><ele>19.6</ele><time>2015-04-25T18:03:25.0000000+00:00</time></trkpt><trkpt lat="35.0488163" lon="32.4439985"><ele>20.6</ele><time>2015-04-25T18:03:27.0000000+00:00</time></trkpt><trkpt lat="35.0488488" lon="32.4440501"><ele>20.8</ele><time>2015-04-25T18:03:29.0000000+00:00</time></trkpt><trkpt lat="35.0488875" lon="32.4440995"><ele>20.9</ele><time>2015-04-25T18:03:31.0000000+00:00</time></trkpt><trkpt lat="35.0489313" lon="32.444158"><ele>21.7</ele><time>2015-04-25T18:03:33.0000000+00:00</time></trkpt><trkpt lat="35.0489703" lon="32.4442216"><ele>21.1</ele><time>2015-04-25T18:03:35.0000000+00:00</time></trkpt><trkpt lat="35.0490048" lon="32.4442832"><ele>21.0</ele><time>2015-04-25T18:03:37.0000000+00:00</time></trkpt><trkpt lat="35.0490375" lon="32.4443382"><ele>21.7</ele><time>2015-04-25T18:03:39.0000000+00:00</time></trkpt><trkpt lat="35.0490656" lon="32.4443938"><ele>20.6</ele><time>2015-04-25T18:03:41.0000000+00:00</time></trkpt><trkpt lat="35.0491011" lon="32.444453"><ele>20.1</ele><time>2015-04-25T18:03:43.0000000+00:00</time></trkpt><trkpt lat="35.0491748" lon="32.4445578"><ele>20.0</ele><time>2015-04-25T18:03:45.0000000+00:00</time></trkpt><trkpt lat="35.0492034" lon="32.4446013"><ele>19.5</ele><time>2015-04-25T18:03:46.0000000+00:00</time></trkpt><trkpt lat="35.0492513" lon="32.4446815"><ele>19.1</ele><time>2015-04-25T18:03:48.0000000+00:00</time></trkpt><trkpt lat="35.0492976" lon="32.4447618"><ele>20.2</ele><time>2015-04-25T18:03:50.0000000+00:00</time></trkpt><trkpt lat="35.0493448" lon="32.4448404"><ele>21.3</ele><time>2015-04-25T18:03:52.0000000+00:00</time></trkpt><trkpt lat="35.049395" lon="32.4449162"><ele>21.0</ele><time>2015-04-25T18:03:54.0000000+00:00</time></trkpt><trkpt lat="35.0494479" lon="32.4450012"><ele>21.0</ele><time>2015-04-25T18:03:56.0000000+00:00</time></trkpt><trkpt lat="35.0495027" lon="32.4450836"><ele>20.9</ele><time>2015-04-25T18:03:58.0000000+00:00</time></trkpt><trkpt lat="35.0495419" lon="32.4451232"><ele>21.4</ele><time>2015-04-25T18:03:59.0000000+00:00</time></trkpt><trkpt lat="35.0495738" lon="32.4451699"><ele>21.7</ele><time>2015-04-25T18:04:00.0000000+00:00</time></trkpt><trkpt lat="35.0496307" lon="32.4452633"><ele>21.6</ele><time>2015-04-25T18:04:02.0000000+00:00</time></trkpt><trkpt lat="35.0496562" lon="32.4453167"><ele>21.3</ele><time>2015-04-25T18:04:03.0000000+00:00</time></trkpt><trkpt lat="35.049685" lon="32.4453632"><ele>21.1</ele><time>2015-04-25T18:04:04.0000000+00:00</time></trkpt><trkpt lat="35.0497167" lon="32.4454116"><ele>21.0</ele><time>2015-04-25T18:04:05.0000000+00:00</time></trkpt><trkpt lat="35.0497729" lon="32.4455051"><ele>20.5</ele><time>2015-04-25T18:04:07.0000000+00:00</time></trkpt><trkpt lat="35.0498006" lon="32.4455537"><ele>20.2</ele><time>2015-04-25T18:04:08.0000000+00:00</time></trkpt><trkpt lat="35.0498442" lon="32.4456436"><ele>20.0</ele><time>2015-04-25T18:04:10.0000000+00:00</time></trkpt><trkpt lat="35.049909" lon="32.4457133"><ele>19.2</ele><time>2015-04-25T18:04:12.0000000+00:00</time></trkpt><trkpt lat="35.0499555" lon="32.4457988"><ele>18.2</ele><time>2015-04-25T18:04:14.0000000+00:00</time></trkpt><trkpt lat="35.0499912" lon="32.4458472"><ele>17.6</ele><time>2015-04-25T18:04:15.0000000+00:00</time></trkpt><trkpt lat="35.05002" lon="32.4458968"><ele>17.3</ele><time>2015-04-25T18:04:16.0000000+00:00</time></trkpt><trkpt lat="35.0500496" lon="32.4459434"><ele>17.1</ele><time>2015-04-25T18:04:17.0000000+00:00</time></trkpt><trkpt lat="35.0500814" lon="32.445989"><ele>17.5</ele><time>2015-04-25T18:04:18.0000000+00:00</time></trkpt><trkpt lat="35.0501148" lon="32.4460329"><ele>17.2</ele><time>2015-04-25T18:04:19.0000000+00:00</time></trkpt><trkpt lat="35.0501548" lon="32.4460882"><ele>17.6</ele><time>2015-04-25T18:04:20.0000000+00:00</time></trkpt><trkpt lat="35.0501808" lon="32.4461412"><ele>17.8</ele><time>2015-04-25T18:04:21.0000000+00:00</time></trkpt><trkpt lat="35.0502068" lon="32.4461922"><ele>17.3</ele><time>2015-04-25T18:04:22.0000000+00:00</time></trkpt><trkpt lat="35.0502404" lon="32.4462503"><ele>17.6</ele><time>2015-04-25T18:04:23.0000000+00:00</time></trkpt><trkpt lat="35.0502805" lon="32.4463023"><ele>17.3</ele><time>2015-04-25T18:04:24.0000000+00:00</time></trkpt><trkpt lat="35.0503171" lon="32.4463601"><ele>17.1</ele><time>2015-04-25T18:04:25.0000000+00:00</time></trkpt><trkpt lat="35.0503479" lon="32.4464196"><ele>17.0</ele><time>2015-04-25T18:04:26.0000000+00:00</time></trkpt><trkpt lat="35.0503792" lon="32.4464733"><ele>17.0</ele><time>2015-04-25T18:04:27.0000000+00:00</time></trkpt><trkpt lat="35.0504058" lon="32.4465213"><ele>16.5</ele><time>2015-04-25T18:04:28.0000000+00:00</time></trkpt><trkpt lat="35.0504386" lon="32.4465698"><ele>16.2</ele><time>2015-04-25T18:04:29.0000000+00:00</time></trkpt><trkpt lat="35.0504725" lon="32.4466234"><ele>16.6</ele><time>2015-04-25T18:04:30.0000000+00:00</time></trkpt><trkpt lat="35.050502" lon="32.4466766"><ele>16.7</ele><time>2015-04-25T18:04:31.0000000+00:00</time></trkpt><trkpt lat="35.0505282" lon="32.4467269"><ele>16.3</ele><time>2015-04-25T18:04:32.0000000+00:00</time></trkpt><trkpt lat="35.0505573" lon="32.4467756"><ele>16.1</ele><time>2015-04-25T18:04:33.0000000+00:00</time></trkpt><trkpt lat="35.0505832" lon="32.4468286"><ele>15.5</ele><time>2015-04-25T18:04:34.0000000+00:00</time></trkpt><trkpt lat="35.0506464" lon="32.4469202"><ele>14.3</ele><time>2015-04-25T18:04:36.0000000+00:00</time></trkpt><trkpt lat="35.0506782" lon="32.446978"><ele>14.6</ele><time>2015-04-25T18:04:37.0000000+00:00</time></trkpt><trkpt lat="35.0507154" lon="32.4470369"><ele>14.8</ele><time>2015-04-25T18:04:38.0000000+00:00</time></trkpt><trkpt lat="35.0507394" lon="32.4470944"><ele>14.9</ele><time>2015-04-25T18:04:39.0000000+00:00</time></trkpt><trkpt lat="35.0507759" lon="32.4471542"><ele>14.9</ele><time>2015-04-25T18:04:40.0000000+00:00</time></trkpt><trkpt lat="35.0507986" lon="32.4472122"><ele>14.9</ele><time>2015-04-25T18:04:41.0000000+00:00</time></trkpt><trkpt lat="35.0508293" lon="32.4472637"><ele>14.9</ele><time>2015-04-25T18:04:42.0000000+00:00</time></trkpt><trkpt lat="35.0508493" lon="32.4473136"><ele>14.4</ele><time>2015-04-25T18:04:43.0000000+00:00</time></trkpt><trkpt lat="35.050887" lon="32.447378"><ele>14.7</ele><time>2015-04-25T18:04:44.0000000+00:00</time></trkpt><trkpt lat="35.0509213" lon="32.4474284"><ele>14.3</ele><time>2015-04-25T18:04:45.0000000+00:00</time></trkpt><trkpt lat="35.0509658" lon="32.447517"><ele>14.0</ele><time>2015-04-25T18:04:47.0000000+00:00</time></trkpt><trkpt lat="35.0509926" lon="32.4475704"><ele>14.0</ele><time>2015-04-25T18:04:48.0000000+00:00</time></trkpt><trkpt lat="35.0510402" lon="32.4476721"><ele>14.7</ele><time>2015-04-25T18:04:50.0000000+00:00</time></trkpt><trkpt lat="35.0510852" lon="32.4477754"><ele>14.4</ele><time>2015-04-25T18:04:52.0000000+00:00</time></trkpt><trkpt lat="35.0511185" lon="32.4478352"><ele>14.7</ele><time>2015-04-25T18:04:53.0000000+00:00</time></trkpt><trkpt lat="35.0511458" lon="32.4478911"><ele>14.8</ele><time>2015-04-25T18:04:54.0000000+00:00</time></trkpt><trkpt lat="35.0511732" lon="32.447944"><ele>14.9</ele><time>2015-04-25T18:04:55.0000000+00:00</time></trkpt><trkpt lat="35.0512057" lon="32.4479996"><ele>15.4</ele><time>2015-04-25T18:04:56.0000000+00:00</time></trkpt><trkpt lat="35.0512212" lon="32.4480536"><ele>15.2</ele><time>2015-04-25T18:04:57.0000000+00:00</time></trkpt><trkpt lat="35.0512438" lon="32.4481101"><ele>15.0</ele><time>2015-04-25T18:04:58.0000000+00:00</time></trkpt><trkpt lat="35.051268" lon="32.4481608"><ele>15.0</ele><time>2015-04-25T18:04:59.0000000+00:00</time></trkpt><trkpt lat="35.0512893" lon="32.4482116"><ele>14.5</ele><time>2015-04-25T18:05:00.0000000+00:00</time></trkpt><trkpt lat="35.051324" lon="32.4482705"><ele>14.2</ele><time>2015-04-25T18:05:01.0000000+00:00</time></trkpt><trkpt lat="35.0513537" lon="32.4483247"><ele>14.6</ele><time>2015-04-25T18:05:02.0000000+00:00</time></trkpt><trkpt lat="35.0513881" lon="32.4483808"><ele>15.2</ele><time>2015-04-25T18:05:03.0000000+00:00</time></trkpt><trkpt lat="35.0514197" lon="32.4484287"><ele>15.6</ele><time>2015-04-25T18:05:04.0000000+00:00</time></trkpt><trkpt lat="35.0514493" lon="32.4484835"><ele>15.8</ele><time>2015-04-25T18:05:05.0000000+00:00</time></trkpt><trkpt lat="35.0514779" lon="32.4485352"><ele>15.8</ele><time>2015-04-25T18:05:06.0000000+00:00</time></trkpt><trkpt lat="35.0515208" lon="32.4486456"><ele>15.2</ele><time>2015-04-25T18:05:08.0000000+00:00</time></trkpt><trkpt lat="35.0515477" lon="32.4487008"><ele>15.0</ele><time>2015-04-25T18:05:09.0000000+00:00</time></trkpt><trkpt lat="35.0515864" lon="32.4488046"><ele>15.7</ele><time>2015-04-25T18:05:11.0000000+00:00</time></trkpt><trkpt lat="35.0516112" lon="32.4488638"><ele>15.8</ele><time>2015-04-25T18:05:12.0000000+00:00</time></trkpt><trkpt lat="35.0516405" lon="32.4489235"><ele>15.4</ele><time>2015-04-25T18:05:13.0000000+00:00</time></trkpt><trkpt lat="35.051674" lon="32.4489872"><ele>15.7</ele><time>2015-04-25T18:05:14.0000000+00:00</time></trkpt><trkpt lat="35.0517023" lon="32.449036"><ele>15.8</ele><time>2015-04-25T18:05:15.0000000+00:00</time></trkpt><trkpt lat="35.0517324" lon="32.4490917"><ele>15.4</ele><time>2015-04-25T18:05:16.0000000+00:00</time></trkpt><trkpt lat="35.0517634" lon="32.449155"><ele>15.1</ele><time>2015-04-25T18:05:17.0000000+00:00</time></trkpt><trkpt lat="35.0517901" lon="32.4492064"><ele>15.0</ele><time>2015-04-25T18:05:18.0000000+00:00</time></trkpt><trkpt lat="35.0518263" lon="32.4492641"><ele>15.0</ele><time>2015-04-25T18:05:19.0000000+00:00</time></trkpt><trkpt lat="35.0518588" lon="32.4493159"><ele>15.5</ele><time>2015-04-25T18:05:20.0000000+00:00</time></trkpt><trkpt lat="35.0518831" lon="32.4493734"><ele>15.7</ele><time>2015-04-25T18:05:21.0000000+00:00</time></trkpt><trkpt lat="35.0519138" lon="32.4494276"><ele>15.8</ele><time>2015-04-25T18:05:22.0000000+00:00</time></trkpt><trkpt lat="35.0519504" lon="32.4494842"><ele>15.9</ele><time>2015-04-25T18:05:23.0000000+00:00</time></trkpt><trkpt lat="35.0519849" lon="32.4495432"><ele>15.9</ele><time>2015-04-25T18:05:24.0000000+00:00</time></trkpt><trkpt lat="35.0520172" lon="32.4496002"><ele>15.9</ele><time>2015-04-25T18:05:25.0000000+00:00</time></trkpt><trkpt lat="35.0520447" lon="32.4496448"><ele>15.9</ele><time>2015-04-25T18:05:26.0000000+00:00</time></trkpt><trkpt lat="35.0521039" lon="32.4497364"><ele>15.7</ele><time>2015-04-25T18:05:28.0000000+00:00</time></trkpt><trkpt lat="35.0521169" lon="32.4497921"><ele>15.8</ele><time>2015-04-25T18:05:29.0000000+00:00</time></trkpt><trkpt lat="35.0521392" lon="32.4498566"><ele>15.9</ele><time>2015-04-25T18:05:30.0000000+00:00</time></trkpt><trkpt lat="35.0521825" lon="32.4499634"><ele>15.9</ele><time>2015-04-25T18:05:32.0000000+00:00</time></trkpt><trkpt lat="35.0522088" lon="32.4500188"><ele>15.4</ele><time>2015-04-25T18:05:33.0000000+00:00</time></trkpt><trkpt lat="35.0522339" lon="32.4500732"><ele>15.7</ele><time>2015-04-25T18:05:34.0000000+00:00</time></trkpt><trkpt lat="35.0522524" lon="32.4501292"><ele>15.8</ele><time>2015-04-25T18:05:35.0000000+00:00</time></trkpt><trkpt lat="35.0522732" lon="32.4501883"><ele>15.4</ele><time>2015-04-25T18:05:36.0000000+00:00</time></trkpt><trkpt lat="35.0522923" lon="32.4502477"><ele>14.6</ele><time>2015-04-25T18:05:37.0000000+00:00</time></trkpt><trkpt lat="35.0523182" lon="32.4503037"><ele>14.3</ele><time>2015-04-25T18:05:38.0000000+00:00</time></trkpt><trkpt lat="35.0523471" lon="32.4503562"><ele>14.6</ele><time>2015-04-25T18:05:39.0000000+00:00</time></trkpt><trkpt lat="35.0523761" lon="32.4504177"><ele>14.8</ele><time>2015-04-25T18:05:40.0000000+00:00</time></trkpt><trkpt lat="35.0524072" lon="32.4504698"><ele>14.8</ele><time>2015-04-25T18:05:41.0000000+00:00</time></trkpt><trkpt lat="35.0524368" lon="32.4505296"><ele>15.4</ele><time>2015-04-25T18:05:42.0000000+00:00</time></trkpt><trkpt lat="35.0524694" lon="32.4505891"><ele>15.2</ele><time>2015-04-25T18:05:43.0000000+00:00</time></trkpt><trkpt lat="35.0524993" lon="32.450647"><ele>15.0</ele><time>2015-04-25T18:05:44.0000000+00:00</time></trkpt><trkpt lat="35.0525206" lon="32.4507014"><ele>15.0</ele><time>2015-04-25T18:05:45.0000000+00:00</time></trkpt><trkpt lat="35.0525498" lon="32.4507606"><ele>15.0</ele><time>2015-04-25T18:05:46.0000000+00:00</time></trkpt><trkpt lat="35.0525748" lon="32.4508128"><ele>14.9</ele><time>2015-04-25T18:05:47.0000000+00:00</time></trkpt><trkpt lat="35.0526003" lon="32.4508788"><ele>14.9</ele><time>2015-04-25T18:05:48.0000000+00:00</time></trkpt><trkpt lat="35.0526276" lon="32.4509318"><ele>15.4</ele><time>2015-04-25T18:05:49.0000000+00:00</time></trkpt><trkpt lat="35.0526562" lon="32.4509873"><ele>16.2</ele><time>2015-04-25T18:05:50.0000000+00:00</time></trkpt><trkpt lat="35.0526934" lon="32.4510492"><ele>16.6</ele><time>2015-04-25T18:05:51.0000000+00:00</time></trkpt><trkpt lat="35.0527285" lon="32.4511114"><ele>16.2</ele><time>2015-04-25T18:05:52.0000000+00:00</time></trkpt><trkpt lat="35.0527529" lon="32.4511754"><ele>16.6</ele><time>2015-04-25T18:05:53.0000000+00:00</time></trkpt><trkpt lat="35.0527776" lon="32.4512353"><ele>16.8</ele><time>2015-04-25T18:05:54.0000000+00:00</time></trkpt><trkpt lat="35.0528094" lon="32.4512969"><ele>16.8</ele><time>2015-04-25T18:05:55.0000000+00:00</time></trkpt><trkpt lat="35.0528444" lon="32.4513684"><ele>17.4</ele><time>2015-04-25T18:05:56.0000000+00:00</time></trkpt><trkpt lat="35.0528784" lon="32.4514408"><ele>17.7</ele><time>2015-04-25T18:05:57.0000000+00:00</time></trkpt><trkpt lat="35.0529162" lon="32.4515101"><ele>17.3</ele><time>2015-04-25T18:05:58.0000000+00:00</time></trkpt><trkpt lat="35.0529522" lon="32.45157"><ele>17.1</ele><time>2015-04-25T18:05:59.0000000+00:00</time></trkpt><trkpt lat="35.052982" lon="32.4516349"><ele>17.5</ele><time>2015-04-25T18:06:00.0000000+00:00</time></trkpt><trkpt lat="35.0530173" lon="32.4516922"><ele>17.2</ele><time>2015-04-25T18:06:01.0000000+00:00</time></trkpt><trkpt lat="35.0530465" lon="32.4517412"><ele>17.1</ele><time>2015-04-25T18:06:02.0000000+00:00</time></trkpt><trkpt lat="35.0530745" lon="32.4517912"><ele>17.0</ele><time>2015-04-25T18:06:03.0000000+00:00</time></trkpt><trkpt lat="35.0530993" lon="32.4518405"><ele>17.0</ele><time>2015-04-25T18:06:04.0000000+00:00</time></trkpt><trkpt lat="35.0531292" lon="32.4519024"><ele>16.9</ele><time>2015-04-25T18:06:05.0000000+00:00</time></trkpt><trkpt lat="35.0531613" lon="32.4519499"><ele>16.9</ele><time>2015-04-25T18:06:06.0000000+00:00</time></trkpt><trkpt lat="35.053195" lon="32.4520145"><ele>16.9</ele><time>2015-04-25T18:06:07.0000000+00:00</time></trkpt><trkpt lat="35.0532227" lon="32.4520875"><ele>16.4</ele><time>2015-04-25T18:06:08.0000000+00:00</time></trkpt><trkpt lat="35.0532478" lon="32.4521536"><ele>16.2</ele><time>2015-04-25T18:06:09.0000000+00:00</time></trkpt><trkpt lat="35.0532825" lon="32.452215"><ele>16.1</ele><time>2015-04-25T18:06:10.0000000+00:00</time></trkpt><trkpt lat="35.0533081" lon="32.4522728"><ele>16.0</ele><time>2015-04-25T18:06:11.0000000+00:00</time></trkpt><trkpt lat="35.0533432" lon="32.4523378"><ele>15.5</ele><time>2015-04-25T18:06:12.0000000+00:00</time></trkpt><trkpt lat="35.0533746" lon="32.4524024"><ele>15.2</ele><time>2015-04-25T18:06:13.0000000+00:00</time></trkpt><trkpt lat="35.0533975" lon="32.4524651"><ele>15.1</ele><time>2015-04-25T18:06:14.0000000+00:00</time></trkpt><trkpt lat="35.0534226" lon="32.4525255"><ele>14.5</ele><time>2015-04-25T18:06:15.0000000+00:00</time></trkpt><trkpt lat="35.0534534" lon="32.4525934"><ele>14.7</ele><time>2015-04-25T18:06:16.0000000+00:00</time></trkpt><trkpt lat="35.0534857" lon="32.4526516"><ele>14.8</ele><time>2015-04-25T18:06:17.0000000+00:00</time></trkpt><trkpt lat="35.0535192" lon="32.4527044"><ele>15.4</ele><time>2015-04-25T18:06:18.0000000+00:00</time></trkpt><trkpt lat="35.0535441" lon="32.4527656"><ele>15.7</ele><time>2015-04-25T18:06:19.0000000+00:00</time></trkpt><trkpt lat="35.0535788" lon="32.4528326"><ele>15.8</ele><time>2015-04-25T18:06:20.0000000+00:00</time></trkpt><trkpt lat="35.0536117" lon="32.4528935"><ele>15.9</ele><time>2015-04-25T18:06:21.0000000+00:00</time></trkpt><trkpt lat="35.0536486" lon="32.4529453"><ele>16.4</ele><time>2015-04-25T18:06:22.0000000+00:00</time></trkpt><trkpt lat="35.0536738" lon="32.4530089"><ele>16.2</ele><time>2015-04-25T18:06:23.0000000+00:00</time></trkpt><trkpt lat="35.0537027" lon="32.45307"><ele>16.5</ele><time>2015-04-25T18:06:24.0000000+00:00</time></trkpt><trkpt lat="35.0537403" lon="32.4531362"><ele>16.2</ele><time>2015-04-25T18:06:25.0000000+00:00</time></trkpt><trkpt lat="35.05377" lon="32.4531862"><ele>16.1</ele><time>2015-04-25T18:06:26.0000000+00:00</time></trkpt><trkpt lat="35.0537902" lon="32.4532459"><ele>15.5</ele><time>2015-04-25T18:06:27.0000000+00:00</time></trkpt><trkpt lat="35.0538235" lon="32.4533089"><ele>15.2</ele><time>2015-04-25T18:06:28.0000000+00:00</time></trkpt><trkpt lat="35.053854" lon="32.4533676"><ele>15.1</ele><time>2015-04-25T18:06:29.0000000+00:00</time></trkpt><trkpt lat="35.0538822" lon="32.453416"><ele>15.0</ele><time>2015-04-25T18:06:30.0000000+00:00</time></trkpt><trkpt lat="35.0539232" lon="32.4534631"><ele>15.5</ele><time>2015-04-25T18:06:31.0000000+00:00</time></trkpt><trkpt lat="35.0539543" lon="32.4535217"><ele>16.2</ele><time>2015-04-25T18:06:32.0000000+00:00</time></trkpt><trkpt lat="35.0539835" lon="32.4535769"><ele>16.6</ele><time>2015-04-25T18:06:33.0000000+00:00</time></trkpt><trkpt lat="35.0540115" lon="32.4536253"><ele>16.2</ele><time>2015-04-25T18:06:34.0000000+00:00</time></trkpt><trkpt lat="35.0540312" lon="32.4536761"><ele>15.6</ele><time>2015-04-25T18:06:35.0000000+00:00</time></trkpt><trkpt lat="35.0540559" lon="32.4537338"><ele>15.3</ele><time>2015-04-25T18:06:36.0000000+00:00</time></trkpt><trkpt lat="35.054085" lon="32.4537954"><ele>15.6</ele><time>2015-04-25T18:06:37.0000000+00:00</time></trkpt><trkpt lat="35.0541171" lon="32.4538451"><ele>15.3</ele><time>2015-04-25T18:06:38.0000000+00:00</time></trkpt><trkpt lat="35.0541469" lon="32.4538956"><ele>14.6</ele><time>2015-04-25T18:06:39.0000000+00:00</time></trkpt><trkpt lat="35.0541802" lon="32.4539648"><ele>14.3</ele><time>2015-04-25T18:06:40.0000000+00:00</time></trkpt><trkpt lat="35.0542232" lon="32.4540282"><ele>14.1</ele><time>2015-04-25T18:06:41.0000000+00:00</time></trkpt><trkpt lat="35.0542628" lon="32.4540836"><ele>14.5</ele><time>2015-04-25T18:06:42.0000000+00:00</time></trkpt><trkpt lat="35.0543053" lon="32.454142"><ele>14.7</ele><time>2015-04-25T18:06:43.0000000+00:00</time></trkpt><trkpt lat="35.0543498" lon="32.4542017"><ele>14.8</ele><time>2015-04-25T18:06:44.0000000+00:00</time></trkpt><trkpt lat="35.054405" lon="32.4542533"><ele>15.4</ele><time>2015-04-25T18:06:45.0000000+00:00</time></trkpt><trkpt lat="35.0544528" lon="32.4542928"><ele>16.2</ele><time>2015-04-25T18:06:46.0000000+00:00</time></trkpt><trkpt lat="35.0545107" lon="32.454337"><ele>16.5</ele><time>2015-04-25T18:06:47.0000000+00:00</time></trkpt><trkpt lat="35.0545719" lon="32.4543783"><ele>17.2</ele><time>2015-04-25T18:06:48.0000000+00:00</time></trkpt><trkpt lat="35.0546208" lon="32.4544255"><ele>17.1</ele><time>2015-04-25T18:06:49.0000000+00:00</time></trkpt><trkpt lat="35.0546742" lon="32.4544649"><ele>17.5</ele><time>2015-04-25T18:06:50.0000000+00:00</time></trkpt><trkpt lat="35.0547285" lon="32.4544964"><ele>17.7</ele><time>2015-04-25T18:06:51.0000000+00:00</time></trkpt><trkpt lat="35.0547944" lon="32.4545379"><ele>17.3</ele><time>2015-04-25T18:06:52.0000000+00:00</time></trkpt><trkpt lat="35.0548503" lon="32.454566"><ele>17.1</ele><time>2015-04-25T18:06:53.0000000+00:00</time></trkpt><trkpt lat="35.0549161" lon="32.4545829"><ele>17.5</ele><time>2015-04-25T18:06:54.0000000+00:00</time></trkpt><trkpt lat="35.0549786" lon="32.4546017"><ele>17.2</ele><time>2015-04-25T18:06:55.0000000+00:00</time></trkpt><trkpt lat="35.055051" lon="32.4546195"><ele>17.6</ele><time>2015-04-25T18:06:56.0000000+00:00</time></trkpt><trkpt lat="35.0551203" lon="32.4546205"><ele>17.8</ele><time>2015-04-25T18:06:57.0000000+00:00</time></trkpt><trkpt lat="35.0551929" lon="32.4546362"><ele>17.8</ele><time>2015-04-25T18:06:58.0000000+00:00</time></trkpt><trkpt lat="35.0552611" lon="32.4546532"><ele>17.9</ele><time>2015-04-25T18:06:59.0000000+00:00</time></trkpt><trkpt lat="35.0553482" lon="32.4546492"><ele>18.4</ele><time>2015-04-25T18:07:00.0000000+00:00</time></trkpt><trkpt lat="35.0554176" lon="32.454659"><ele>18.2</ele><time>2015-04-25T18:07:01.0000000+00:00</time></trkpt><trkpt lat="35.0554842" lon="32.4546701"><ele>18.5</ele><time>2015-04-25T18:07:02.0000000+00:00</time></trkpt><trkpt lat="35.0555586" lon="32.454692"><ele>18.7</ele><time>2015-04-25T18:07:03.0000000+00:00</time></trkpt><trkpt lat="35.0556326" lon="32.4547026"><ele>18.8</ele><time>2015-04-25T18:07:04.0000000+00:00</time></trkpt><trkpt lat="35.0557082" lon="32.4547141"><ele>19.9</ele><time>2015-04-25T18:07:05.0000000+00:00</time></trkpt><trkpt lat="35.0557803" lon="32.4547212"><ele>19.9</ele><time>2015-04-25T18:07:06.0000000+00:00</time></trkpt><trkpt lat="35.0558504" lon="32.4547244"><ele>20.4</ele><time>2015-04-25T18:07:07.0000000+00:00</time></trkpt><trkpt lat="35.055927" lon="32.4547342"><ele>20.7</ele><time>2015-04-25T18:07:08.0000000+00:00</time></trkpt><trkpt lat="35.0559904" lon="32.4547405"><ele>20.8</ele><time>2015-04-25T18:07:09.0000000+00:00</time></trkpt><trkpt lat="35.0560692" lon="32.4547576"><ele>20.4</ele><time>2015-04-25T18:07:10.0000000+00:00</time></trkpt><trkpt lat="35.0561324" lon="32.4547648"><ele>21.1</ele><time>2015-04-25T18:07:11.0000000+00:00</time></trkpt><trkpt lat="35.0561993" lon="32.4547701"><ele>21.5</ele><time>2015-04-25T18:07:12.0000000+00:00</time></trkpt><trkpt lat="35.0562735" lon="32.4547868"><ele>21.2</ele><time>2015-04-25T18:07:13.0000000+00:00</time></trkpt><trkpt lat="35.0563442" lon="32.4547973"><ele>21.6</ele><time>2015-04-25T18:07:14.0000000+00:00</time></trkpt><trkpt lat="35.0564161" lon="32.4548007"><ele>21.3</ele><time>2015-04-25T18:07:15.0000000+00:00</time></trkpt><trkpt lat="35.0564904" lon="32.4548093"><ele>20.6</ele><time>2015-04-25T18:07:16.0000000+00:00</time></trkpt><trkpt lat="35.0565608" lon="32.4548173"><ele>20.8</ele><time>2015-04-25T18:07:17.0000000+00:00</time></trkpt><trkpt lat="35.0566231" lon="32.4548242"><ele>20.8</ele><time>2015-04-25T18:07:18.0000000+00:00</time></trkpt><trkpt lat="35.0566902" lon="32.4548334"><ele>20.4</ele><time>2015-04-25T18:07:19.0000000+00:00</time></trkpt><trkpt lat="35.0567549" lon="32.4548355"><ele>20.2</ele><time>2015-04-25T18:07:20.0000000+00:00</time></trkpt><trkpt lat="35.0568168" lon="32.4548442"><ele>19.5</ele><time>2015-04-25T18:07:21.0000000+00:00</time></trkpt><trkpt lat="35.0568832" lon="32.4548604"><ele>19.2</ele><time>2015-04-25T18:07:22.0000000+00:00</time></trkpt><trkpt lat="35.0569566" lon="32.4548744"><ele>19.6</ele><time>2015-04-25T18:07:23.0000000+00:00</time></trkpt><trkpt lat="35.0570334" lon="32.4548954"><ele>19.8</ele><time>2015-04-25T18:07:24.0000000+00:00</time></trkpt><trkpt lat="35.0571033" lon="32.45492"><ele>19.8</ele><time>2015-04-25T18:07:25.0000000+00:00</time></trkpt><trkpt lat="35.0571612" lon="32.4549481"><ele>19.9</ele><time>2015-04-25T18:07:26.0000000+00:00</time></trkpt><trkpt lat="35.0572245" lon="32.4549811"><ele>19.4</ele><time>2015-04-25T18:07:27.0000000+00:00</time></trkpt><trkpt lat="35.0572919" lon="32.4550358"><ele>17.7</ele><time>2015-04-25T18:07:28.0000000+00:00</time></trkpt><trkpt lat="35.0573524" lon="32.4550777"><ele>16.8</ele><time>2015-04-25T18:07:29.0000000+00:00</time></trkpt><trkpt lat="35.0574109" lon="32.4551467"><ele>15.9</ele><time>2015-04-25T18:07:30.0000000+00:00</time></trkpt><trkpt lat="35.057458" lon="32.4552149"><ele>15.9</ele><time>2015-04-25T18:07:31.0000000+00:00</time></trkpt><trkpt lat="35.057508" lon="32.4552814"><ele>15.4</ele><time>2015-04-25T18:07:32.0000000+00:00</time></trkpt><trkpt lat="35.0575521" lon="32.4553415"><ele>14.7</ele><time>2015-04-25T18:07:33.0000000+00:00</time></trkpt><trkpt lat="35.0576013" lon="32.4554039"><ele>14.3</ele><time>2015-04-25T18:07:34.0000000+00:00</time></trkpt><trkpt lat="35.057648" lon="32.4554819"><ele>13.6</ele><time>2015-04-25T18:07:35.0000000+00:00</time></trkpt><trkpt lat="35.0576837" lon="32.4555502"><ele>13.3</ele><time>2015-04-25T18:07:36.0000000+00:00</time></trkpt><trkpt lat="35.0577237" lon="32.4556215"><ele>12.6</ele><time>2015-04-25T18:07:37.0000000+00:00</time></trkpt><trkpt lat="35.0577631" lon="32.4556978"><ele>12.3</ele><time>2015-04-25T18:07:38.0000000+00:00</time></trkpt><trkpt lat="35.0577989" lon="32.4557668"><ele>12.1</ele><time>2015-04-25T18:07:39.0000000+00:00</time></trkpt><trkpt lat="35.057843" lon="32.4558452"><ele>12.0</ele><time>2015-04-25T18:07:40.0000000+00:00</time></trkpt><trkpt lat="35.0578887" lon="32.455914"><ele>12.5</ele><time>2015-04-25T18:07:41.0000000+00:00</time></trkpt><trkpt lat="35.0579252" lon="32.455984"><ele>12.7</ele><time>2015-04-25T18:07:42.0000000+00:00</time></trkpt><trkpt lat="35.0579624" lon="32.4560439"><ele>12.3</ele><time>2015-04-25T18:07:43.0000000+00:00</time></trkpt><trkpt lat="35.0579912" lon="32.4561126"><ele>12.1</ele><time>2015-04-25T18:07:44.0000000+00:00</time></trkpt><trkpt lat="35.0580268" lon="32.4561772"><ele>12.5</ele><time>2015-04-25T18:07:45.0000000+00:00</time></trkpt><trkpt lat="35.0580666" lon="32.4562469"><ele>12.7</ele><time>2015-04-25T18:07:46.0000000+00:00</time></trkpt><trkpt lat="35.0581054" lon="32.4563059"><ele>12.8</ele><time>2015-04-25T18:07:47.0000000+00:00</time></trkpt><trkpt lat="35.0581393" lon="32.4563835"><ele>13.4</ele><time>2015-04-25T18:07:48.0000000+00:00</time></trkpt><trkpt lat="35.0581719" lon="32.4564443"><ele>13.7</ele><time>2015-04-25T18:07:49.0000000+00:00</time></trkpt><trkpt lat="35.058212" lon="32.4565203"><ele>13.3</ele><time>2015-04-25T18:07:50.0000000+00:00</time></trkpt><trkpt lat="35.0582505" lon="32.4565893"><ele>13.1</ele><time>2015-04-25T18:07:51.0000000+00:00</time></trkpt><trkpt lat="35.05829" lon="32.4566545"><ele>13.0</ele><time>2015-04-25T18:07:52.0000000+00:00</time></trkpt><trkpt lat="35.0583255" lon="32.4567215"><ele>13.0</ele><time>2015-04-25T18:07:53.0000000+00:00</time></trkpt><trkpt lat="35.0583592" lon="32.4567962"><ele>13.0</ele><time>2015-04-25T18:07:54.0000000+00:00</time></trkpt><trkpt lat="35.0583987" lon="32.456864"><ele>12.9</ele><time>2015-04-25T18:07:55.0000000+00:00</time></trkpt><trkpt lat="35.0584386" lon="32.4569305"><ele>12.9</ele><time>2015-04-25T18:07:56.0000000+00:00</time></trkpt><trkpt lat="35.0584712" lon="32.4569935"><ele>12.9</ele><time>2015-04-25T18:07:57.0000000+00:00</time></trkpt><trkpt lat="35.0585072" lon="32.4570587"><ele>12.9</ele><time>2015-04-25T18:07:58.0000000+00:00</time></trkpt><trkpt lat="35.0585461" lon="32.4571239"><ele>12.9</ele><time>2015-04-25T18:07:59.0000000+00:00</time></trkpt><trkpt lat="35.0585732" lon="32.4571816"><ele>12.9</ele><time>2015-04-25T18:08:00.0000000+00:00</time></trkpt><trkpt lat="35.0586126" lon="32.4572381"><ele>13.4</ele><time>2015-04-25T18:08:01.0000000+00:00</time></trkpt><trkpt lat="35.0586494" lon="32.4572987"><ele>13.7</ele><time>2015-04-25T18:08:02.0000000+00:00</time></trkpt><trkpt lat="35.058674" lon="32.4573572"><ele>13.8</ele><time>2015-04-25T18:08:03.0000000+00:00</time></trkpt><trkpt lat="35.0587208" lon="32.4574143"><ele>14.4</ele><time>2015-04-25T18:08:04.0000000+00:00</time></trkpt><trkpt lat="35.0587605" lon="32.4574801"><ele>14.1</ele><time>2015-04-25T18:08:05.0000000+00:00</time></trkpt><trkpt lat="35.0587912" lon="32.457535"><ele>14.0</ele><time>2015-04-25T18:08:06.0000000+00:00</time></trkpt><trkpt lat="35.0588292" lon="32.4576034"><ele>14.0</ele><time>2015-04-25T18:08:07.0000000+00:00</time></trkpt><trkpt lat="35.0588732" lon="32.4576771"><ele>14.0</ele><time>2015-04-25T18:08:08.0000000+00:00</time></trkpt><trkpt lat="35.0589109" lon="32.4577402"><ele>13.9</ele><time>2015-04-25T18:08:09.0000000+00:00</time></trkpt><trkpt lat="35.0589576" lon="32.4578025"><ele>13.4</ele><time>2015-04-25T18:08:10.0000000+00:00</time></trkpt><trkpt lat="35.0590051" lon="32.4578589"><ele>13.2</ele><time>2015-04-25T18:08:11.0000000+00:00</time></trkpt><trkpt lat="35.0590445" lon="32.4579219"><ele>12.6</ele><time>2015-04-25T18:08:12.0000000+00:00</time></trkpt><trkpt lat="35.0590872" lon="32.4579703"><ele>12.7</ele><time>2015-04-25T18:08:13.0000000+00:00</time></trkpt><trkpt lat="35.0591278" lon="32.4580233"><ele>12.8</ele><time>2015-04-25T18:08:14.0000000+00:00</time></trkpt><trkpt lat="35.0591669" lon="32.4580768"><ele>12.9</ele><time>2015-04-25T18:08:15.0000000+00:00</time></trkpt><trkpt lat="35.0592204" lon="32.4581233"><ele>13.4</ele><time>2015-04-25T18:08:16.0000000+00:00</time></trkpt><trkpt lat="35.0592599" lon="32.4581676"><ele>13.2</ele><time>2015-04-25T18:08:17.0000000+00:00</time></trkpt><trkpt lat="35.0592924" lon="32.4582227"><ele>13.0</ele><time>2015-04-25T18:08:18.0000000+00:00</time></trkpt><trkpt lat="35.0593344" lon="32.4582718"><ele>13.0</ele><time>2015-04-25T18:08:19.0000000+00:00</time></trkpt><trkpt lat="35.0593712" lon="32.4583192"><ele>13.5</ele><time>2015-04-25T18:08:20.0000000+00:00</time></trkpt><trkpt lat="35.0594088" lon="32.4583602"><ele>14.2</ele><time>2015-04-25T18:08:21.0000000+00:00</time></trkpt><trkpt lat="35.0594448" lon="32.4584019"><ele>15.6</ele><time>2015-04-25T18:08:22.0000000+00:00</time></trkpt><trkpt lat="35.0594844" lon="32.4584482"><ele>16.2</ele><time>2015-04-25T18:08:23.0000000+00:00</time></trkpt><trkpt lat="35.0595229" lon="32.4584919"><ele>16.1</ele><time>2015-04-25T18:08:24.0000000+00:00</time></trkpt><trkpt lat="35.0595558" lon="32.4585427"><ele>16.0</ele><time>2015-04-25T18:08:25.0000000+00:00</time></trkpt><trkpt lat="35.0595919" lon="32.4585897"><ele>16.0</ele><time>2015-04-25T18:08:26.0000000+00:00</time></trkpt><trkpt lat="35.0596266" lon="32.458634"><ele>15.4</ele><time>2015-04-25T18:08:27.0000000+00:00</time></trkpt><trkpt lat="35.0596703" lon="32.4586904"><ele>15.2</ele><time>2015-04-25T18:08:28.0000000+00:00</time></trkpt><trkpt lat="35.0597133" lon="32.4587457"><ele>14.6</ele><time>2015-04-25T18:08:29.0000000+00:00</time></trkpt><trkpt lat="35.0597548" lon="32.4587859"><ele>14.2</ele><time>2015-04-25T18:08:30.0000000+00:00</time></trkpt><trkpt lat="35.0597866" lon="32.4588335"><ele>13.6</ele><time>2015-04-25T18:08:31.0000000+00:00</time></trkpt><trkpt lat="35.0598211" lon="32.4588868"><ele>13.3</ele><time>2015-04-25T18:08:32.0000000+00:00</time></trkpt><trkpt lat="35.0598494" lon="32.4589316"><ele>12.6</ele><time>2015-04-25T18:08:33.0000000+00:00</time></trkpt><trkpt lat="35.059881" lon="32.4589783"><ele>12.3</ele><time>2015-04-25T18:08:34.0000000+00:00</time></trkpt><trkpt lat="35.0599269" lon="32.4590617"><ele>13.3</ele><time>2015-04-25T18:08:36.0000000+00:00</time></trkpt><trkpt lat="35.0599587" lon="32.4591348"><ele>13.0</ele><time>2015-04-25T18:08:38.0000000+00:00</time></trkpt><trkpt lat="35.0599903" lon="32.4592193"><ele>12.7</ele><time>2015-04-25T18:08:40.0000000+00:00</time></trkpt><trkpt lat="35.0600343" lon="32.4593042"><ele>13.9</ele><time>2015-04-25T18:08:42.0000000+00:00</time></trkpt><trkpt lat="35.0600574" lon="32.4593754"><ele>13.9</ele><time>2015-04-25T18:08:44.0000000+00:00</time></trkpt><trkpt lat="35.0600856" lon="32.4594515"><ele>13.9</ele><time>2015-04-25T18:08:46.0000000+00:00</time></trkpt><trkpt lat="35.0601089" lon="32.4595274"><ele>14.4</ele><time>2015-04-25T18:08:48.0000000+00:00</time></trkpt><trkpt lat="35.0601276" lon="32.4596002"><ele>14.3</ele><time>2015-04-25T18:08:50.0000000+00:00</time></trkpt><trkpt lat="35.060153" lon="32.4596667"><ele>12.5</ele><time>2015-04-25T18:08:52.0000000+00:00</time></trkpt><trkpt lat="35.0601819" lon="32.4597386"><ele>12.8</ele><time>2015-04-25T18:08:54.0000000+00:00</time></trkpt><trkpt lat="35.0602125" lon="32.4598203"><ele>12.9</ele><time>2015-04-25T18:08:56.0000000+00:00</time></trkpt><trkpt lat="35.0602439" lon="32.4599027"><ele>12.9</ele><time>2015-04-25T18:08:58.0000000+00:00</time></trkpt><trkpt lat="35.0602755" lon="32.4599872"><ele>13.7</ele><time>2015-04-25T18:09:00.0000000+00:00</time></trkpt><trkpt lat="35.0603114" lon="32.4600694"><ele>14.4</ele><time>2015-04-25T18:09:02.0000000+00:00</time></trkpt><trkpt lat="35.060344" lon="32.4601498"><ele>14.8</ele><time>2015-04-25T18:09:04.0000000+00:00</time></trkpt><trkpt lat="35.0603746" lon="32.4602243"><ele>15.1</ele><time>2015-04-25T18:09:06.0000000+00:00</time></trkpt><trkpt lat="35.0604065" lon="32.460298"><ele>15.2</ele><time>2015-04-25T18:09:08.0000000+00:00</time></trkpt><trkpt lat="35.0604339" lon="32.460371"><ele>15.0</ele><time>2015-04-25T18:09:10.0000000+00:00</time></trkpt><trkpt lat="35.0604617" lon="32.4604443"><ele>14.2</ele><time>2015-04-25T18:09:12.0000000+00:00</time></trkpt><trkpt lat="35.0604926" lon="32.4605147"><ele>14.2</ele><time>2015-04-25T18:09:14.0000000+00:00</time></trkpt><trkpt lat="35.0605221" lon="32.4605812"><ele>14.0</ele><time>2015-04-25T18:09:16.0000000+00:00</time></trkpt><trkpt lat="35.0605539" lon="32.4606415"><ele>13.9</ele><time>2015-04-25T18:09:18.0000000+00:00</time></trkpt><trkpt lat="35.060591" lon="32.460703"><ele>13.9</ele><time>2015-04-25T18:09:20.0000000+00:00</time></trkpt><trkpt lat="35.0606307" lon="32.460766"><ele>14.7</ele><time>2015-04-25T18:09:22.0000000+00:00</time></trkpt><trkpt lat="35.060668" lon="32.4608262"><ele>14.4</ele><time>2015-04-25T18:09:24.0000000+00:00</time></trkpt><trkpt lat="35.0607064" lon="32.460882"><ele>14.0</ele><time>2015-04-25T18:09:26.0000000+00:00</time></trkpt><trkpt lat="35.060743" lon="32.4609364"><ele>14.5</ele><time>2015-04-25T18:09:28.0000000+00:00</time></trkpt><trkpt lat="35.0607778" lon="32.4609896"><ele>14.8</ele><time>2015-04-25T18:09:30.0000000+00:00</time></trkpt><trkpt lat="35.0608123" lon="32.4610404"><ele>14.9</ele><time>2015-04-25T18:09:32.0000000+00:00</time></trkpt><trkpt lat="35.0608474" lon="32.4610928"><ele>14.9</ele><time>2015-04-25T18:09:34.0000000+00:00</time></trkpt><trkpt lat="35.0608876" lon="32.4611501"><ele>15.7</ele><time>2015-04-25T18:09:36.0000000+00:00</time></trkpt><trkpt lat="35.0609292" lon="32.4612112"><ele>16.6</ele><time>2015-04-25T18:09:38.0000000+00:00</time></trkpt><trkpt lat="35.0609728" lon="32.4612773"><ele>16.1</ele><time>2015-04-25T18:09:40.0000000+00:00</time></trkpt><trkpt lat="35.0610164" lon="32.461347"><ele>16.0</ele><time>2015-04-25T18:09:42.0000000+00:00</time></trkpt><trkpt lat="35.0610609" lon="32.4614126"><ele>15.9</ele><time>2015-04-25T18:09:44.0000000+00:00</time></trkpt><trkpt lat="35.0611088" lon="32.4614782"><ele>15.9</ele><time>2015-04-25T18:09:46.0000000+00:00</time></trkpt><trkpt lat="35.0611566" lon="32.4615452"><ele>15.9</ele><time>2015-04-25T18:09:48.0000000+00:00</time></trkpt><trkpt lat="35.0612046" lon="32.4616111"><ele>15.2</ele><time>2015-04-25T18:09:50.0000000+00:00</time></trkpt><trkpt lat="35.0612512" lon="32.461677"><ele>15.2</ele><time>2015-04-25T18:09:52.0000000+00:00</time></trkpt><trkpt lat="35.0612962" lon="32.4617406"><ele>15.5</ele><time>2015-04-25T18:09:54.0000000+00:00</time></trkpt><trkpt lat="35.0613404" lon="32.4618047"><ele>15.8</ele><time>2015-04-25T18:09:56.0000000+00:00</time></trkpt><trkpt lat="35.0613884" lon="32.4618705"><ele>15.9</ele><time>2015-04-25T18:09:58.0000000+00:00</time></trkpt><trkpt lat="35.0614403" lon="32.4619395"><ele>16.7</ele><time>2015-04-25T18:10:00.0000000+00:00</time></trkpt><trkpt lat="35.061491" lon="32.4620099"><ele>16.9</ele><time>2015-04-25T18:10:02.0000000+00:00</time></trkpt><trkpt lat="35.0615429" lon="32.4620784"><ele>17.4</ele><time>2015-04-25T18:10:04.0000000+00:00</time></trkpt><trkpt lat="35.0615942" lon="32.4621459"><ele>17.8</ele><time>2015-04-25T18:10:06.0000000+00:00</time></trkpt><trkpt lat="35.0616458" lon="32.462213"><ele>17.1</ele><time>2015-04-25T18:10:08.0000000+00:00</time></trkpt><trkpt lat="35.0616904" lon="32.4622815"><ele>17.0</ele><time>2015-04-25T18:10:10.0000000+00:00</time></trkpt><trkpt lat="35.0617325" lon="32.4623516"><ele>16.9</ele><time>2015-04-25T18:10:12.0000000+00:00</time></trkpt><trkpt lat="35.061779" lon="32.4624173"><ele>16.2</ele><time>2015-04-25T18:10:14.0000000+00:00</time></trkpt><trkpt lat="35.0618287" lon="32.4624868"><ele>15.5</ele><time>2015-04-25T18:10:16.0000000+00:00</time></trkpt><trkpt lat="35.0618773" lon="32.462555"><ele>15.1</ele><time>2015-04-25T18:10:18.0000000+00:00</time></trkpt><trkpt lat="35.0619248" lon="32.4626205"><ele>14.2</ele><time>2015-04-25T18:10:20.0000000+00:00</time></trkpt><trkpt lat="35.061974" lon="32.4626865"><ele>14.8</ele><time>2015-04-25T18:10:22.0000000+00:00</time></trkpt><trkpt lat="35.0620256" lon="32.462756"><ele>15.6</ele><time>2015-04-25T18:10:24.0000000+00:00</time></trkpt><trkpt lat="35.0620756" lon="32.4628242"><ele>15.1</ele><time>2015-04-25T18:10:26.0000000+00:00</time></trkpt><trkpt lat="35.0621293" lon="32.4628951"><ele>15.0</ele><time>2015-04-25T18:10:28.0000000+00:00</time></trkpt><trkpt lat="35.0621828" lon="32.4629668"><ele>14.9</ele><time>2015-04-25T18:10:30.0000000+00:00</time></trkpt><trkpt lat="35.0622376" lon="32.4630405"><ele>15.2</ele><time>2015-04-25T18:10:32.0000000+00:00</time></trkpt><trkpt lat="35.062289" lon="32.4631101"><ele>15.5</ele><time>2015-04-25T18:10:34.0000000+00:00</time></trkpt><trkpt lat="35.0623427" lon="32.4631812"><ele>16.3</ele><time>2015-04-25T18:10:36.0000000+00:00</time></trkpt><trkpt lat="35.0623896" lon="32.4632458"><ele>16.8</ele><time>2015-04-25T18:10:38.0000000+00:00</time></trkpt><trkpt lat="35.0624329" lon="32.4633113"><ele>16.1</ele><time>2015-04-25T18:10:40.0000000+00:00</time></trkpt><trkpt lat="35.0624758" lon="32.4633745"><ele>16.7</ele><time>2015-04-25T18:10:42.0000000+00:00</time></trkpt><trkpt lat="35.0625222" lon="32.4634413"><ele>16.4</ele><time>2015-04-25T18:10:44.0000000+00:00</time></trkpt><trkpt lat="35.0625733" lon="32.4635132"><ele>15.8</ele><time>2015-04-25T18:10:46.0000000+00:00</time></trkpt><trkpt lat="35.0626275" lon="32.4635879"><ele>15.1</ele><time>2015-04-25T18:10:48.0000000+00:00</time></trkpt><trkpt lat="35.0626717" lon="32.4636512"><ele>15.0</ele><time>2015-04-25T18:10:49.0000000+00:00</time></trkpt><trkpt lat="35.0627039" lon="32.4636978"><ele>15.0</ele><time>2015-04-25T18:10:50.0000000+00:00</time></trkpt><trkpt lat="35.0627327" lon="32.4637426"><ele>15.0</ele><time>2015-04-25T18:10:51.0000000+00:00</time></trkpt><trkpt lat="35.0627584" lon="32.4637945"><ele>14.9</ele><time>2015-04-25T18:10:52.0000000+00:00</time></trkpt><trkpt lat="35.0627868" lon="32.4638377"><ele>15.4</ele><time>2015-04-25T18:10:53.0000000+00:00</time></trkpt><trkpt lat="35.0628173" lon="32.4638788"><ele>15.7</ele><time>2015-04-25T18:10:54.0000000+00:00</time></trkpt><trkpt lat="35.0628485" lon="32.4639189"><ele>16.3</ele><time>2015-04-25T18:10:55.0000000+00:00</time></trkpt><trkpt lat="35.0628824" lon="32.4639622"><ele>17.1</ele><time>2015-04-25T18:10:56.0000000+00:00</time></trkpt><trkpt lat="35.0629349" lon="32.4640302"><ele>17.0</ele><time>2015-04-25T18:10:58.0000000+00:00</time></trkpt><trkpt lat="35.0629833" lon="32.4641125"><ele>16.2</ele><time>2015-04-25T18:11:00.0000000+00:00</time></trkpt><trkpt lat="35.0630398" lon="32.4641914"><ele>16.0</ele><time>2015-04-25T18:11:02.0000000+00:00</time></trkpt><trkpt lat="35.0630986" lon="32.4642671"><ele>15.9</ele><time>2015-04-25T18:11:04.0000000+00:00</time></trkpt><trkpt lat="35.0631545" lon="32.4643409"><ele>16.7</ele><time>2015-04-25T18:11:06.0000000+00:00</time></trkpt><trkpt lat="35.0632023" lon="32.4644123"><ele>16.4</ele><time>2015-04-25T18:11:08.0000000+00:00</time></trkpt><trkpt lat="35.0632492" lon="32.4644824"><ele>16.0</ele><time>2015-04-25T18:11:10.0000000+00:00</time></trkpt><trkpt lat="35.063299" lon="32.4645533"><ele>16.7</ele><time>2015-04-25T18:11:12.0000000+00:00</time></trkpt><trkpt lat="35.063354" lon="32.4646235"><ele>16.1</ele><time>2015-04-25T18:11:14.0000000+00:00</time></trkpt><trkpt lat="35.063416" lon="32.4646896"><ele>15.2</ele><time>2015-04-25T18:11:16.0000000+00:00</time></trkpt><trkpt lat="35.0634849" lon="32.4647456"><ele>14.5</ele><time>2015-04-25T18:11:18.0000000+00:00</time></trkpt><trkpt lat="35.0635479" lon="32.4648056"><ele>13.3</ele><time>2015-04-25T18:11:20.0000000+00:00</time></trkpt><trkpt lat="35.063604" lon="32.4648733"><ele>13.0</ele><time>2015-04-25T18:11:22.0000000+00:00</time></trkpt><trkpt lat="35.0636568" lon="32.4649467"><ele>13.5</ele><time>2015-04-25T18:11:24.0000000+00:00</time></trkpt><trkpt lat="35.0637136" lon="32.4650195"><ele>13.3</ele><time>2015-04-25T18:11:26.0000000+00:00</time></trkpt><trkpt lat="35.0637699" lon="32.4650923"><ele>13.0</ele><time>2015-04-25T18:11:28.0000000+00:00</time></trkpt><trkpt lat="35.0638251" lon="32.4651629"><ele>13.0</ele><time>2015-04-25T18:11:30.0000000+00:00</time></trkpt><trkpt lat="35.0638849" lon="32.465229"><ele>12.7</ele><time>2015-04-25T18:11:32.0000000+00:00</time></trkpt><trkpt lat="35.0639447" lon="32.4652969"><ele>13.6</ele><time>2015-04-25T18:11:34.0000000+00:00</time></trkpt><trkpt lat="35.0640004" lon="32.4653619"><ele>13.1</ele><time>2015-04-25T18:11:36.0000000+00:00</time></trkpt><trkpt lat="35.0640662" lon="32.465445"><ele>13.0</ele><time>2015-04-25T18:11:38.0000000+00:00</time></trkpt><trkpt lat="35.0641342" lon="32.4655229"><ele>12.9</ele><time>2015-04-25T18:11:40.0000000+00:00</time></trkpt><trkpt lat="35.0641951" lon="32.4655912"><ele>12.2</ele><time>2015-04-25T18:11:42.0000000+00:00</time></trkpt><trkpt lat="35.0642629" lon="32.4656629"><ele>12.5</ele><time>2015-04-25T18:11:44.0000000+00:00</time></trkpt><trkpt lat="35.0643239" lon="32.4657275"><ele>12.8</ele><time>2015-04-25T18:11:46.0000000+00:00</time></trkpt><trkpt lat="35.0643809" lon="32.4657937"><ele>12.9</ele><time>2015-04-25T18:11:48.0000000+00:00</time></trkpt><trkpt lat="35.0644416" lon="32.4658626"><ele>12.9</ele><time>2015-04-25T18:11:50.0000000+00:00</time></trkpt><trkpt lat="35.0644995" lon="32.4659367"><ele>13.4</ele><time>2015-04-25T18:11:52.0000000+00:00</time></trkpt><trkpt lat="35.064564" lon="32.4660089"><ele>13.8</ele><time>2015-04-25T18:11:54.0000000+00:00</time></trkpt><trkpt lat="35.0646258" lon="32.4660764"><ele>13.1</ele><time>2015-04-25T18:11:56.0000000+00:00</time></trkpt><trkpt lat="35.0646919" lon="32.466151"><ele>13.0</ele><time>2015-04-25T18:11:58.0000000+00:00</time></trkpt><trkpt lat="35.0647495" lon="32.4662216"><ele>13.7</ele><time>2015-04-25T18:12:00.0000000+00:00</time></trkpt><trkpt lat="35.0647834" lon="32.4662578"><ele>13.8</ele><time>2015-04-25T18:12:01.0000000+00:00</time></trkpt><trkpt lat="35.0648341" lon="32.4663386"><ele>13.9</ele><time>2015-04-25T18:12:03.0000000+00:00</time></trkpt><trkpt lat="35.0648871" lon="32.4664172"><ele>13.9</ele><time>2015-04-25T18:12:05.0000000+00:00</time></trkpt><trkpt lat="35.0649172" lon="32.4664598"><ele>13.9</ele><time>2015-04-25T18:12:06.0000000+00:00</time></trkpt><trkpt lat="35.0649457" lon="32.4665056"><ele>13.9</ele><time>2015-04-25T18:12:07.0000000+00:00</time></trkpt><trkpt lat="35.064997" lon="32.4665936"><ele>13.9</ele><time>2015-04-25T18:12:09.0000000+00:00</time></trkpt><trkpt lat="35.0650456" lon="32.4666822"><ele>13.9</ele><time>2015-04-25T18:12:11.0000000+00:00</time></trkpt><trkpt lat="35.0650715" lon="32.4667308"><ele>13.9</ele><time>2015-04-25T18:12:12.0000000+00:00</time></trkpt><trkpt lat="35.0650954" lon="32.4667809"><ele>13.9</ele><time>2015-04-25T18:12:13.0000000+00:00</time></trkpt><trkpt lat="35.065134" lon="32.4668655"><ele>13.2</ele><time>2015-04-25T18:12:15.0000000+00:00</time></trkpt><trkpt lat="35.0651745" lon="32.4669466"><ele>13.0</ele><time>2015-04-25T18:12:17.0000000+00:00</time></trkpt><trkpt lat="35.0652205" lon="32.467036"><ele>13.4</ele><time>2015-04-25T18:12:19.0000000+00:00</time></trkpt><trkpt lat="35.0652512" lon="32.4670905"><ele>13.7</ele><time>2015-04-25T18:12:20.0000000+00:00</time></trkpt><trkpt lat="35.0652744" lon="32.4671402"><ele>14.3</ele><time>2015-04-25T18:12:21.0000000+00:00</time></trkpt><trkpt lat="35.0653067" lon="32.4671863"><ele>15.1</ele><time>2015-04-25T18:12:22.0000000+00:00</time></trkpt><trkpt lat="35.0653476" lon="32.467268"><ele>16.2</ele><time>2015-04-25T18:12:24.0000000+00:00</time></trkpt><trkpt lat="35.0653811" lon="32.4673436"><ele>16.0</ele><time>2015-04-25T18:12:26.0000000+00:00</time></trkpt><trkpt lat="35.0654131" lon="32.4674252"><ele>15.2</ele><time>2015-04-25T18:12:28.0000000+00:00</time></trkpt><trkpt lat="35.065463" lon="32.4675065"><ele>15.7</ele><time>2015-04-25T18:12:30.0000000+00:00</time></trkpt><trkpt lat="35.0654916" lon="32.4675521"><ele>16.3</ele><time>2015-04-25T18:12:31.0000000+00:00</time></trkpt><trkpt lat="35.0655329" lon="32.4676341"><ele>16.0</ele><time>2015-04-25T18:12:33.0000000+00:00</time></trkpt><trkpt lat="35.065575" lon="32.4677031"><ele>14.7</ele><time>2015-04-25T18:12:35.0000000+00:00</time></trkpt><trkpt lat="35.0656134" lon="32.4677779"><ele>14.6</ele><time>2015-04-25T18:12:37.0000000+00:00</time></trkpt><trkpt lat="35.0656436" lon="32.4678561"><ele>14.1</ele><time>2015-04-25T18:12:39.0000000+00:00</time></trkpt><trkpt lat="35.0656796" lon="32.4679339"><ele>14.0</ele><time>2015-04-25T18:12:41.0000000+00:00</time></trkpt><trkpt lat="35.0657166" lon="32.4680094"><ele>13.9</ele><time>2015-04-25T18:12:43.0000000+00:00</time></trkpt><trkpt lat="35.0657566" lon="32.4680934"><ele>14.2</ele><time>2015-04-25T18:12:45.0000000+00:00</time></trkpt><trkpt lat="35.0657987" lon="32.4681732"><ele>13.5</ele><time>2015-04-25T18:12:47.0000000+00:00</time></trkpt><trkpt lat="35.0658382" lon="32.4682532"><ele>13.8</ele><time>2015-04-25T18:12:49.0000000+00:00</time></trkpt><trkpt lat="35.0658752" lon="32.4683305"><ele>13.4</ele><time>2015-04-25T18:12:51.0000000+00:00</time></trkpt><trkpt lat="35.065918" lon="32.468413"><ele>13.8</ele><time>2015-04-25T18:12:53.0000000+00:00</time></trkpt><trkpt lat="35.0659608" lon="32.4684906"><ele>13.9</ele><time>2015-04-25T18:12:55.0000000+00:00</time></trkpt><trkpt lat="35.065999" lon="32.4685685"><ele>13.4</ele><time>2015-04-25T18:12:57.0000000+00:00</time></trkpt><trkpt lat="35.0660374" lon="32.4686427"><ele>13.3</ele><time>2015-04-25T18:12:59.0000000+00:00</time></trkpt><trkpt lat="35.0660806" lon="32.4687234"><ele>13.0</ele><time>2015-04-25T18:13:01.0000000+00:00</time></trkpt><trkpt lat="35.0661246" lon="32.4688052"><ele>13.7</ele><time>2015-04-25T18:13:03.0000000+00:00</time></trkpt><trkpt lat="35.0661709" lon="32.4688851"><ele>14.1</ele><time>2015-04-25T18:13:05.0000000+00:00</time></trkpt><trkpt lat="35.066213" lon="32.468963"><ele>14.5</ele><time>2015-04-25T18:13:07.0000000+00:00</time></trkpt><trkpt lat="35.0662556" lon="32.4690479"><ele>14.8</ele><time>2015-04-25T18:13:09.0000000+00:00</time></trkpt><trkpt lat="35.0662747" lon="32.4691069"><ele>14.9</ele><time>2015-04-25T18:13:10.0000000+00:00</time></trkpt><trkpt lat="35.0663083" lon="32.4691986"><ele>14.9</ele><time>2015-04-25T18:13:12.0000000+00:00</time></trkpt><trkpt lat="35.0663571" lon="32.4692785"><ele>14.4</ele><time>2015-04-25T18:13:14.0000000+00:00</time></trkpt><trkpt lat="35.0664113" lon="32.4693442"><ele>13.3</ele><time>2015-04-25T18:13:16.0000000+00:00</time></trkpt><trkpt lat="35.0664618" lon="32.4694028"><ele>13.0</ele><time>2015-04-25T18:13:18.0000000+00:00</time></trkpt><trkpt lat="35.0665016" lon="32.4694558"><ele>12.9</ele><time>2015-04-25T18:13:21.0000000+00:00</time></trkpt><trkpt lat="35.0664522" lon="32.4694507"><ele>14.7</ele><time>2015-04-25T18:13:34.0000000+00:00</time></trkpt><trkpt lat="35.0664146" lon="32.4694181"><ele>14.8</ele><time>2015-04-25T18:13:40.0000000+00:00</time></trkpt><trkpt lat="35.066446" lon="32.4693756"><ele>23.9</ele><time>2015-04-25T18:23:18.0000000+00:00</time></trkpt><trkpt lat="35.0664876" lon="32.4693991"><ele>25.4</ele><time>2015-04-25T18:25:28.0000000+00:00</time></trkpt><trkpt lat="35.0665232" lon="32.4694464"><ele>24.2</ele><time>2015-04-25T18:25:33.0000000+00:00</time></trkpt><trkpt lat="35.0665573" lon="32.4695015"><ele>25.3</ele><time>2015-04-25T18:25:37.0000000+00:00</time></trkpt><trkpt lat="35.0666032" lon="32.469538"><ele>25.0</ele><time>2015-04-25T18:25:40.0000000+00:00</time></trkpt><trkpt lat="35.0666488" lon="32.4695818"><ele>24.2</ele><time>2015-04-25T18:25:42.0000000+00:00</time></trkpt><trkpt lat="35.0666981" lon="32.4696304"><ele>24.0</ele><time>2015-04-25T18:25:44.0000000+00:00</time></trkpt><trkpt lat="35.066743" lon="32.4696776"><ele>23.9</ele><time>2015-04-25T18:25:46.0000000+00:00</time></trkpt><trkpt lat="35.0667838" lon="32.4697246"><ele>23.9</ele><time>2015-04-25T18:25:48.0000000+00:00</time></trkpt><trkpt lat="35.0668244" lon="32.4697685"><ele>23.2</ele><time>2015-04-25T18:25:50.0000000+00:00</time></trkpt><trkpt lat="35.0668691" lon="32.4698067"><ele>24.2</ele><time>2015-04-25T18:25:52.0000000+00:00</time></trkpt><trkpt lat="35.0669195" lon="32.4698251"><ele>24.0</ele><time>2015-04-25T18:25:54.0000000+00:00</time></trkpt><trkpt lat="35.0669644" lon="32.4698523"><ele>23.9</ele><time>2015-04-25T18:25:56.0000000+00:00</time></trkpt><trkpt lat="35.0670036" lon="32.4698869"><ele>22.7</ele><time>2015-04-25T18:25:58.0000000+00:00</time></trkpt><trkpt lat="35.0670418" lon="32.4699288"><ele>22.9</ele><time>2015-04-25T18:26:00.0000000+00:00</time></trkpt><trkpt lat="35.0670794" lon="32.469973"><ele>22.9</ele><time>2015-04-25T18:26:02.0000000+00:00</time></trkpt><trkpt lat="35.0671233" lon="32.4700133"><ele>22.4</ele><time>2015-04-25T18:26:04.0000000+00:00</time></trkpt><trkpt lat="35.0671646" lon="32.4700564"><ele>22.1</ele><time>2015-04-25T18:26:06.0000000+00:00</time></trkpt><trkpt lat="35.0672124" lon="32.4701084"><ele>22.0</ele><time>2015-04-25T18:26:08.0000000+00:00</time></trkpt><trkpt lat="35.0672744" lon="32.4701751"><ele>22.7</ele><time>2015-04-25T18:26:10.0000000+00:00</time></trkpt><trkpt lat="35.0673353" lon="32.4702364"><ele>22.9</ele><time>2015-04-25T18:26:12.0000000+00:00</time></trkpt><trkpt lat="35.0673902" lon="32.4702905"><ele>22.4</ele><time>2015-04-25T18:26:14.0000000+00:00</time></trkpt><trkpt lat="35.0674454" lon="32.4703553"><ele>22.6</ele><time>2015-04-25T18:26:16.0000000+00:00</time></trkpt><trkpt lat="35.0674988" lon="32.4704204"><ele>22.1</ele><time>2015-04-25T18:26:18.0000000+00:00</time></trkpt><trkpt lat="35.0675491" lon="32.4704897"><ele>22.0</ele><time>2015-04-25T18:26:20.0000000+00:00</time></trkpt><trkpt lat="35.0675991" lon="32.4705585"><ele>22.7</ele><time>2015-04-25T18:26:22.0000000+00:00</time></trkpt><trkpt lat="35.0676464" lon="32.4706262"><ele>22.6</ele><time>2015-04-25T18:26:24.0000000+00:00</time></trkpt><trkpt lat="35.0676926" lon="32.470693"><ele>22.1</ele><time>2015-04-25T18:26:26.0000000+00:00</time></trkpt><trkpt lat="35.0677376" lon="32.4707613"><ele>21.5</ele><time>2015-04-25T18:26:28.0000000+00:00</time></trkpt><trkpt lat="35.0677852" lon="32.4708272"><ele>20.3</ele><time>2015-04-25T18:26:30.0000000+00:00</time></trkpt><trkpt lat="35.067841" lon="32.4709176"><ele>19.5</ele><time>2015-04-25T18:26:32.0000000+00:00</time></trkpt><trkpt lat="35.0678755" lon="32.4709598"><ele>18.7</ele><time>2015-04-25T18:26:33.0000000+00:00</time></trkpt><trkpt lat="35.0679083" lon="32.4710076"><ele>18.8</ele><time>2015-04-25T18:26:34.0000000+00:00</time></trkpt><trkpt lat="35.0679642" lon="32.4710836"><ele>19.2</ele><time>2015-04-25T18:26:36.0000000+00:00</time></trkpt><trkpt lat="35.0680303" lon="32.4711646"><ele>18.2</ele><time>2015-04-25T18:26:38.0000000+00:00</time></trkpt><trkpt lat="35.0680784" lon="32.4712363"><ele>17.3</ele><time>2015-04-25T18:26:40.0000000+00:00</time></trkpt><trkpt lat="35.0681297" lon="32.4713027"><ele>17.0</ele><time>2015-04-25T18:26:42.0000000+00:00</time></trkpt><trkpt lat="35.0681684" lon="32.4713709"><ele>16.0</ele><time>2015-04-25T18:26:44.0000000+00:00</time></trkpt><trkpt lat="35.0682257" lon="32.47145"><ele>15.9</ele><time>2015-04-25T18:26:46.0000000+00:00</time></trkpt><trkpt lat="35.0682842" lon="32.4715274"><ele>15.9</ele><time>2015-04-25T18:26:48.0000000+00:00</time></trkpt><trkpt lat="35.0683448" lon="32.4716122"><ele>15.9</ele><time>2015-04-25T18:26:50.0000000+00:00</time></trkpt><trkpt lat="35.0684125" lon="32.4716944"><ele>15.9</ele><time>2015-04-25T18:26:52.0000000+00:00</time></trkpt><trkpt lat="35.0684409" lon="32.4717378"><ele>15.9</ele><time>2015-04-25T18:26:53.0000000+00:00</time></trkpt><trkpt lat="35.0685083" lon="32.4718188"><ele>15.9</ele><time>2015-04-25T18:26:55.0000000+00:00</time></trkpt><trkpt lat="35.0685482" lon="32.471861"><ele>15.9</ele><time>2015-04-25T18:26:56.0000000+00:00</time></trkpt><trkpt lat="35.068577" lon="32.4719067"><ele>16.4</ele><time>2015-04-25T18:26:57.0000000+00:00</time></trkpt><trkpt lat="35.0686208" lon="32.4719482"><ele>16.7</ele><time>2015-04-25T18:26:58.0000000+00:00</time></trkpt><trkpt lat="35.0686663" lon="32.4720254"><ele>16.1</ele><time>2015-04-25T18:27:00.0000000+00:00</time></trkpt><trkpt lat="35.068724" lon="32.4721082"><ele>16.0</ele><time>2015-04-25T18:27:02.0000000+00:00</time></trkpt><trkpt lat="35.0687566" lon="32.4721468"><ele>15.5</ele><time>2015-04-25T18:27:03.0000000+00:00</time></trkpt><trkpt lat="35.0688106" lon="32.4722214"><ele>15.8</ele><time>2015-04-25T18:27:05.0000000+00:00</time></trkpt><trkpt lat="35.0688608" lon="32.4723004"><ele>15.9</ele><time>2015-04-25T18:27:07.0000000+00:00</time></trkpt><trkpt lat="35.06889" lon="32.4723425"><ele>15.9</ele><time>2015-04-25T18:27:08.0000000+00:00</time></trkpt><trkpt lat="35.0689279" lon="32.4723875"><ele>15.9</ele><time>2015-04-25T18:27:09.0000000+00:00</time></trkpt><trkpt lat="35.0689592" lon="32.4724278"><ele>15.9</ele><time>2015-04-25T18:27:10.0000000+00:00</time></trkpt><trkpt lat="35.0689912" lon="32.4724763"><ele>15.9</ele><time>2015-04-25T18:27:11.0000000+00:00</time></trkpt><trkpt lat="35.0690265" lon="32.4725221"><ele>15.9</ele><time>2015-04-25T18:27:12.0000000+00:00</time></trkpt><trkpt lat="35.0690634" lon="32.4725714"><ele>15.9</ele><time>2015-04-25T18:27:13.0000000+00:00</time></trkpt><trkpt lat="35.0690998" lon="32.4726189"><ele>15.9</ele><time>2015-04-25T18:27:14.0000000+00:00</time></trkpt><trkpt lat="35.069134" lon="32.4726696"><ele>15.9</ele><time>2015-04-25T18:27:15.0000000+00:00</time></trkpt><trkpt lat="35.0691699" lon="32.4727182"><ele>15.9</ele><time>2015-04-25T18:27:16.0000000+00:00</time></trkpt><trkpt lat="35.0692045" lon="32.4727688"><ele>15.9</ele><time>2015-04-25T18:27:17.0000000+00:00</time></trkpt><trkpt lat="35.0692394" lon="32.4728145"><ele>15.9</ele><time>2015-04-25T18:27:18.0000000+00:00</time></trkpt><trkpt lat="35.0692744" lon="32.4728654"><ele>15.9</ele><time>2015-04-25T18:27:19.0000000+00:00</time></trkpt><trkpt lat="35.0693095" lon="32.4729162"><ele>15.9</ele><time>2015-04-25T18:27:20.0000000+00:00</time></trkpt><trkpt lat="35.0693462" lon="32.4729619"><ele>15.9</ele><time>2015-04-25T18:27:21.0000000+00:00</time></trkpt><trkpt lat="35.0693803" lon="32.4730055"><ele>15.9</ele><time>2015-04-25T18:27:22.0000000+00:00</time></trkpt><trkpt lat="35.0694078" lon="32.4730573"><ele>15.4</ele><time>2015-04-25T18:27:23.0000000+00:00</time></trkpt><trkpt lat="35.069453" lon="32.4731102"><ele>15.2</ele><time>2015-04-25T18:27:24.0000000+00:00</time></trkpt><trkpt lat="35.0694922" lon="32.4731594"><ele>15.1</ele><time>2015-04-25T18:27:25.0000000+00:00</time></trkpt><trkpt lat="35.0695304" lon="32.473199"><ele>15.0</ele><time>2015-04-25T18:27:26.0000000+00:00</time></trkpt><trkpt lat="35.0695717" lon="32.4732556"><ele>15.0</ele><time>2015-04-25T18:27:27.0000000+00:00</time></trkpt><trkpt lat="35.0695979" lon="32.4733009"><ele>14.4</ele><time>2015-04-25T18:27:28.0000000+00:00</time></trkpt><trkpt lat="35.0696369" lon="32.4733501"><ele>14.7</ele><time>2015-04-25T18:27:29.0000000+00:00</time></trkpt><trkpt lat="35.0696777" lon="32.4733948"><ele>14.8</ele><time>2015-04-25T18:27:30.0000000+00:00</time></trkpt><trkpt lat="35.0697146" lon="32.4734419"><ele>15.4</ele><time>2015-04-25T18:27:31.0000000+00:00</time></trkpt><trkpt lat="35.0697519" lon="32.4734918"><ele>15.6</ele><time>2015-04-25T18:27:32.0000000+00:00</time></trkpt><trkpt lat="35.0697852" lon="32.4735917"><ele>15.1</ele><time>2015-04-25T18:27:34.0000000+00:00</time></trkpt><trkpt lat="35.0698231" lon="32.4736444"><ele>15.0</ele><time>2015-04-25T18:27:35.0000000+00:00</time></trkpt><trkpt lat="35.0698629" lon="32.4736818"><ele>15.5</ele><time>2015-04-25T18:27:36.0000000+00:00</time></trkpt><trkpt lat="35.06991" lon="32.4737152"><ele>15.7</ele><time>2015-04-25T18:27:37.0000000+00:00</time></trkpt><trkpt lat="35.0699458" lon="32.4737493"><ele>16.3</ele><time>2015-04-25T18:27:38.0000000+00:00</time></trkpt><trkpt lat="35.0699869" lon="32.4737838"><ele>16.6</ele><time>2015-04-25T18:27:39.0000000+00:00</time></trkpt><trkpt lat="35.0700272" lon="32.4738332"><ele>17.3</ele><time>2015-04-25T18:27:40.0000000+00:00</time></trkpt><trkpt lat="35.070068" lon="32.4738701"><ele>17.1</ele><time>2015-04-25T18:27:41.0000000+00:00</time></trkpt><trkpt lat="35.0701279" lon="32.4739555"><ele>17.0</ele><time>2015-04-25T18:27:43.0000000+00:00</time></trkpt><trkpt lat="35.0701648" lon="32.4740054"><ele>16.5</ele><time>2015-04-25T18:27:44.0000000+00:00</time></trkpt><trkpt lat="35.0701995" lon="32.4740516"><ele>16.2</ele><time>2015-04-25T18:27:45.0000000+00:00</time></trkpt><trkpt lat="35.0702172" lon="32.4741024"><ele>15.6</ele><time>2015-04-25T18:27:46.0000000+00:00</time></trkpt><trkpt lat="35.0702497" lon="32.4741451"><ele>14.7</ele><time>2015-04-25T18:27:47.0000000+00:00</time></trkpt><trkpt lat="35.0702897" lon="32.4741897"><ele>14.3</ele><time>2015-04-25T18:27:48.0000000+00:00</time></trkpt><trkpt lat="35.0703337" lon="32.4742363"><ele>14.1</ele><time>2015-04-25T18:27:49.0000000+00:00</time></trkpt><trkpt lat="35.0703685" lon="32.4742767"><ele>14.0</ele><time>2015-04-25T18:27:50.0000000+00:00</time></trkpt><trkpt lat="35.0704164" lon="32.4743255"><ele>14.5</ele><time>2015-04-25T18:27:51.0000000+00:00</time></trkpt><trkpt lat="35.0704537" lon="32.4743734"><ele>14.2</ele><time>2015-04-25T18:27:52.0000000+00:00</time></trkpt><trkpt lat="35.0704872" lon="32.4744118"><ele>14.1</ele><time>2015-04-25T18:27:53.0000000+00:00</time></trkpt><trkpt lat="35.0705308" lon="32.4744563"><ele>14.0</ele><time>2015-04-25T18:27:54.0000000+00:00</time></trkpt><trkpt lat="35.0705632" lon="32.4745028"><ele>14.0</ele><time>2015-04-25T18:27:55.0000000+00:00</time></trkpt><trkpt lat="35.0706043" lon="32.4745458"><ele>13.9</ele><time>2015-04-25T18:27:56.0000000+00:00</time></trkpt><trkpt lat="35.0706473" lon="32.4745928"><ele>13.9</ele><time>2015-04-25T18:27:57.0000000+00:00</time></trkpt><trkpt lat="35.0706898" lon="32.4746362"><ele>14.4</ele><time>2015-04-25T18:27:58.0000000+00:00</time></trkpt><trkpt lat="35.070729" lon="32.4746817"><ele>14.7</ele><time>2015-04-25T18:27:59.0000000+00:00</time></trkpt><trkpt lat="35.0707824" lon="32.4747257"><ele>14.8</ele><time>2015-04-25T18:28:00.0000000+00:00</time></trkpt><trkpt lat="35.070821" lon="32.4747655"><ele>14.9</ele><time>2015-04-25T18:28:01.0000000+00:00</time></trkpt><trkpt lat="35.0708542" lon="32.4748038"><ele>14.9</ele><time>2015-04-25T18:28:02.0000000+00:00</time></trkpt><trkpt lat="35.0708876" lon="32.4748432"><ele>14.9</ele><time>2015-04-25T18:28:03.0000000+00:00</time></trkpt><trkpt lat="35.0709284" lon="32.4748807"><ele>14.9</ele><time>2015-04-25T18:28:04.0000000+00:00</time></trkpt><trkpt lat="35.0709656" lon="32.4749196"><ele>14.9</ele><time>2015-04-25T18:28:05.0000000+00:00</time></trkpt><trkpt lat="35.071004" lon="32.4749607"><ele>14.9</ele><time>2015-04-25T18:28:06.0000000+00:00</time></trkpt><trkpt lat="35.0710401" lon="32.4750016"><ele>14.9</ele><time>2015-04-25T18:28:07.0000000+00:00</time></trkpt><trkpt lat="35.0710797" lon="32.4750472"><ele>15.4</ele><time>2015-04-25T18:28:08.0000000+00:00</time></trkpt><trkpt lat="35.0711121" lon="32.4750874"><ele>15.7</ele><time>2015-04-25T18:28:09.0000000+00:00</time></trkpt><trkpt lat="35.0711516" lon="32.475126"><ele>15.8</ele><time>2015-04-25T18:28:10.0000000+00:00</time></trkpt><trkpt lat="35.0711849" lon="32.4751655"><ele>15.9</ele><time>2015-04-25T18:28:11.0000000+00:00</time></trkpt><trkpt lat="35.071222" lon="32.4752051"><ele>15.9</ele><time>2015-04-25T18:28:12.0000000+00:00</time></trkpt><trkpt lat="35.0712593" lon="32.4752475"><ele>15.9</ele><time>2015-04-25T18:28:13.0000000+00:00</time></trkpt><trkpt lat="35.0712929" lon="32.4752935"><ele>16.4</ele><time>2015-04-25T18:28:14.0000000+00:00</time></trkpt><trkpt lat="35.07133" lon="32.4753356"><ele>16.7</ele><time>2015-04-25T18:28:15.0000000+00:00</time></trkpt><trkpt lat="35.0713641" lon="32.4753817"><ele>16.8</ele><time>2015-04-25T18:28:16.0000000+00:00</time></trkpt><trkpt lat="35.0713969" lon="32.4754232"><ele>16.9</ele><time>2015-04-25T18:28:17.0000000+00:00</time></trkpt><trkpt lat="35.0714375" lon="32.475474"><ele>16.4</ele><time>2015-04-25T18:28:18.0000000+00:00</time></trkpt><trkpt lat="35.0714713" lon="32.475517"><ele>16.2</ele><time>2015-04-25T18:28:19.0000000+00:00</time></trkpt><trkpt lat="35.0715098" lon="32.4755606"><ele>16.5</ele><time>2015-04-25T18:28:20.0000000+00:00</time></trkpt><trkpt lat="35.0715472" lon="32.4756075"><ele>16.7</ele><time>2015-04-25T18:28:21.0000000+00:00</time></trkpt><trkpt lat="35.0715806" lon="32.4756521"><ele>17.3</ele><time>2015-04-25T18:28:22.0000000+00:00</time></trkpt><trkpt lat="35.0716157" lon="32.4756969"><ele>17.6</ele><time>2015-04-25T18:28:23.0000000+00:00</time></trkpt><trkpt lat="35.0716498" lon="32.4757359"><ele>17.3</ele><time>2015-04-25T18:28:24.0000000+00:00</time></trkpt><trkpt lat="35.071709" lon="32.4758111"><ele>17.5</ele><time>2015-04-25T18:28:26.0000000+00:00</time></trkpt><trkpt lat="35.0717792" lon="32.4758919"><ele>17.8</ele><time>2015-04-25T18:28:28.0000000+00:00</time></trkpt><trkpt lat="35.0718173" lon="32.4759341"><ele>17.9</ele><time>2015-04-25T18:28:29.0000000+00:00</time></trkpt><trkpt lat="35.0718561" lon="32.4759815"><ele>17.9</ele><time>2015-04-25T18:28:30.0000000+00:00</time></trkpt><trkpt lat="35.0718927" lon="32.4760281"><ele>17.9</ele><time>2015-04-25T18:28:31.0000000+00:00</time></trkpt><trkpt lat="35.0719302" lon="32.4760724"><ele>17.4</ele><time>2015-04-25T18:28:32.0000000+00:00</time></trkpt><trkpt lat="35.0719649" lon="32.4761146"><ele>17.7</ele><time>2015-04-25T18:28:33.0000000+00:00</time></trkpt><trkpt lat="35.0720082" lon="32.4761587"><ele>17.3</ele><time>2015-04-25T18:28:34.0000000+00:00</time></trkpt><trkpt lat="35.0720441" lon="32.4761998"><ele>17.1</ele><time>2015-04-25T18:28:35.0000000+00:00</time></trkpt><trkpt lat="35.0721086" lon="32.4762776"><ele>17.0</ele><time>2015-04-25T18:28:37.0000000+00:00</time></trkpt><trkpt lat="35.0721422" lon="32.4763142"><ele>17.0</ele><time>2015-04-25T18:28:38.0000000+00:00</time></trkpt><trkpt lat="35.072176" lon="32.4763575"><ele>16.9</ele><time>2015-04-25T18:28:39.0000000+00:00</time></trkpt><trkpt lat="35.0722143" lon="32.4764094"><ele>16.9</ele><time>2015-04-25T18:28:40.0000000+00:00</time></trkpt><trkpt lat="35.0722483" lon="32.476453"><ele>16.9</ele><time>2015-04-25T18:28:41.0000000+00:00</time></trkpt><trkpt lat="35.0722812" lon="32.4764949"><ele>16.9</ele><time>2015-04-25T18:28:42.0000000+00:00</time></trkpt><trkpt lat="35.0723146" lon="32.4765365"><ele>16.9</ele><time>2015-04-25T18:28:43.0000000+00:00</time></trkpt><trkpt lat="35.072376" lon="32.4766184"><ele>16.9</ele><time>2015-04-25T18:28:45.0000000+00:00</time></trkpt><trkpt lat="35.0724354" lon="32.4767002"><ele>16.9</ele><time>2015-04-25T18:28:47.0000000+00:00</time></trkpt><trkpt lat="35.0724908" lon="32.4767799"><ele>17.7</ele><time>2015-04-25T18:28:49.0000000+00:00</time></trkpt><trkpt lat="35.072546" lon="32.476849"><ele>17.9</ele><time>2015-04-25T18:28:51.0000000+00:00</time></trkpt><trkpt lat="35.0726123" lon="32.4769212"><ele>17.9</ele><time>2015-04-25T18:28:53.0000000+00:00</time></trkpt><trkpt lat="35.072646" lon="32.4769616"><ele>17.9</ele><time>2015-04-25T18:28:54.0000000+00:00</time></trkpt><trkpt lat="35.0726792" lon="32.4770027"><ele>17.9</ele><time>2015-04-25T18:28:55.0000000+00:00</time></trkpt><trkpt lat="35.0727157" lon="32.4770469"><ele>17.9</ele><time>2015-04-25T18:28:56.0000000+00:00</time></trkpt><trkpt lat="35.0727475" lon="32.4770876"><ele>17.9</ele><time>2015-04-25T18:28:57.0000000+00:00</time></trkpt><trkpt lat="35.0727812" lon="32.4771356"><ele>17.9</ele><time>2015-04-25T18:28:58.0000000+00:00</time></trkpt><trkpt lat="35.0728477" lon="32.4772154"><ele>17.9</ele><time>2015-04-25T18:29:00.0000000+00:00</time></trkpt><trkpt lat="35.0728819" lon="32.4772564"><ele>17.9</ele><time>2015-04-25T18:29:01.0000000+00:00</time></trkpt><trkpt lat="35.0729189" lon="32.4772963"><ele>17.9</ele><time>2015-04-25T18:29:02.0000000+00:00</time></trkpt><trkpt lat="35.0729545" lon="32.4773391"><ele>17.9</ele><time>2015-04-25T18:29:03.0000000+00:00</time></trkpt><trkpt lat="35.0729916" lon="32.4773845"><ele>17.9</ele><time>2015-04-25T18:29:04.0000000+00:00</time></trkpt><trkpt lat="35.073024" lon="32.4774273"><ele>17.9</ele><time>2015-04-25T18:29:05.0000000+00:00</time></trkpt><trkpt lat="35.0730616" lon="32.4774655"><ele>17.9</ele><time>2015-04-25T18:29:06.0000000+00:00</time></trkpt><trkpt lat="35.0730946" lon="32.4775056"><ele>17.9</ele><time>2015-04-25T18:29:07.0000000+00:00</time></trkpt><trkpt lat="35.0731254" lon="32.47755"><ele>17.9</ele><time>2015-04-25T18:29:08.0000000+00:00</time></trkpt><trkpt lat="35.0731604" lon="32.4775942"><ele>17.9</ele><time>2015-04-25T18:29:09.0000000+00:00</time></trkpt><trkpt lat="35.0731961" lon="32.4776336"><ele>17.9</ele><time>2015-04-25T18:29:10.0000000+00:00</time></trkpt><trkpt lat="35.0732329" lon="32.4776754"><ele>17.9</ele><time>2015-04-25T18:29:11.0000000+00:00</time></trkpt><trkpt lat="35.0732699" lon="32.4777249"><ele>18.4</ele><time>2015-04-25T18:29:12.0000000+00:00</time></trkpt><trkpt lat="35.0733032" lon="32.4777684"><ele>18.7</ele><time>2015-04-25T18:29:13.0000000+00:00</time></trkpt><trkpt lat="35.0733425" lon="32.4778209"><ele>18.3</ele><time>2015-04-25T18:29:14.0000000+00:00</time></trkpt><trkpt lat="35.0733771" lon="32.4778654"><ele>18.1</ele><time>2015-04-25T18:29:15.0000000+00:00</time></trkpt><trkpt lat="35.0734175" lon="32.4779101"><ele>18.0</ele><time>2015-04-25T18:29:16.0000000+00:00</time></trkpt><trkpt lat="35.0734557" lon="32.4779588"><ele>18.0</ele><time>2015-04-25T18:29:17.0000000+00:00</time></trkpt><trkpt lat="35.0734958" lon="32.4780024"><ele>18.0</ele><time>2015-04-25T18:29:18.0000000+00:00</time></trkpt><trkpt lat="35.0735334" lon="32.4780477"><ele>17.9</ele><time>2015-04-25T18:29:19.0000000+00:00</time></trkpt><trkpt lat="35.0735942" lon="32.4781319"><ele>18.4</ele><time>2015-04-25T18:29:21.0000000+00:00</time></trkpt><trkpt lat="35.0736347" lon="32.4781753"><ele>18.2</ele><time>2015-04-25T18:29:22.0000000+00:00</time></trkpt><trkpt lat="35.0736697" lon="32.4782167"><ele>18.1</ele><time>2015-04-25T18:29:23.0000000+00:00</time></trkpt><trkpt lat="35.0737028" lon="32.4782666"><ele>18.0</ele><time>2015-04-25T18:29:24.0000000+00:00</time></trkpt><trkpt lat="35.0737402" lon="32.4783122"><ele>18.0</ele><time>2015-04-25T18:29:25.0000000+00:00</time></trkpt><trkpt lat="35.0738073" lon="32.4783983"><ele>17.9</ele><time>2015-04-25T18:29:27.0000000+00:00</time></trkpt><trkpt lat="35.0738487" lon="32.4784396"><ele>17.9</ele><time>2015-04-25T18:29:28.0000000+00:00</time></trkpt><trkpt lat="35.0738828" lon="32.4784792"><ele>17.9</ele><time>2015-04-25T18:29:29.0000000+00:00</time></trkpt><trkpt lat="35.073922" lon="32.4785195"><ele>17.9</ele><time>2015-04-25T18:29:30.0000000+00:00</time></trkpt><trkpt lat="35.0739583" lon="32.4785603"><ele>17.9</ele><time>2015-04-25T18:29:31.0000000+00:00</time></trkpt><trkpt lat="35.0739921" lon="32.4786042"><ele>17.9</ele><time>2015-04-25T18:29:32.0000000+00:00</time></trkpt><trkpt lat="35.0740298" lon="32.4786452"><ele>17.9</ele><time>2015-04-25T18:29:33.0000000+00:00</time></trkpt><trkpt lat="35.0740661" lon="32.4786812"><ele>17.9</ele><time>2015-04-25T18:29:34.0000000+00:00</time></trkpt><trkpt lat="35.0741039" lon="32.4787222"><ele>17.9</ele><time>2015-04-25T18:29:35.0000000+00:00</time></trkpt><trkpt lat="35.0741515" lon="32.4787702"><ele>17.9</ele><time>2015-04-25T18:29:36.0000000+00:00</time></trkpt><trkpt lat="35.0741894" lon="32.4788096"><ele>17.9</ele><time>2015-04-25T18:29:37.0000000+00:00</time></trkpt><trkpt lat="35.0742277" lon="32.4788555"><ele>17.9</ele><time>2015-04-25T18:29:38.0000000+00:00</time></trkpt><trkpt lat="35.0742659" lon="32.4788953"><ele>17.9</ele><time>2015-04-25T18:29:39.0000000+00:00</time></trkpt><trkpt lat="35.0743056" lon="32.4789286"><ele>18.4</ele><time>2015-04-25T18:29:40.0000000+00:00</time></trkpt><trkpt lat="35.0743443" lon="32.4789697"><ele>18.7</ele><time>2015-04-25T18:29:41.0000000+00:00</time></trkpt><trkpt lat="35.0743793" lon="32.4790123"><ele>18.3</ele><time>2015-04-25T18:29:42.0000000+00:00</time></trkpt><trkpt lat="35.0744191" lon="32.4790535"><ele>18.1</ele><time>2015-04-25T18:29:43.0000000+00:00</time></trkpt><trkpt lat="35.0744606" lon="32.4791009"><ele>18.0</ele><time>2015-04-25T18:29:44.0000000+00:00</time></trkpt><trkpt lat="35.0744984" lon="32.4791436"><ele>18.0</ele><time>2015-04-25T18:29:45.0000000+00:00</time></trkpt><trkpt lat="35.074544" lon="32.479182"><ele>18.0</ele><time>2015-04-25T18:29:46.0000000+00:00</time></trkpt><trkpt lat="35.0745835" lon="32.4792216"><ele>17.9</ele><time>2015-04-25T18:29:47.0000000+00:00</time></trkpt><trkpt lat="35.074624" lon="32.4792582"><ele>17.9</ele><time>2015-04-25T18:29:48.0000000+00:00</time></trkpt><trkpt lat="35.074666" lon="32.479296"><ele>17.9</ele><time>2015-04-25T18:29:49.0000000+00:00</time></trkpt><trkpt lat="35.0746998" lon="32.4793388"><ele>17.9</ele><time>2015-04-25T18:29:50.0000000+00:00</time></trkpt><trkpt lat="35.0747348" lon="32.4793767"><ele>17.9</ele><time>2015-04-25T18:29:51.0000000+00:00</time></trkpt><trkpt lat="35.0747954" lon="32.4794443"><ele>17.9</ele><time>2015-04-25T18:29:53.0000000+00:00</time></trkpt><trkpt lat="35.074833" lon="32.4794776"><ele>17.9</ele><time>2015-04-25T18:29:54.0000000+00:00</time></trkpt><trkpt lat="35.0748841" lon="32.4795517"><ele>17.9</ele><time>2015-04-25T18:29:56.0000000+00:00</time></trkpt><trkpt lat="35.0749397" lon="32.4796109"><ele>17.9</ele><time>2015-04-25T18:29:58.0000000+00:00</time></trkpt><trkpt lat="35.0750024" lon="32.4796851"><ele>17.9</ele><time>2015-04-25T18:30:00.0000000+00:00</time></trkpt><trkpt lat="35.0750677" lon="32.4797568"><ele>17.9</ele><time>2015-04-25T18:30:02.0000000+00:00</time></trkpt><trkpt lat="35.0751312" lon="32.4798232"><ele>17.4</ele><time>2015-04-25T18:30:04.0000000+00:00</time></trkpt><trkpt lat="35.0751648" lon="32.4798635"><ele>17.2</ele><time>2015-04-25T18:30:05.0000000+00:00</time></trkpt><trkpt lat="35.0752022" lon="32.4799076"><ele>17.1</ele><time>2015-04-25T18:30:06.0000000+00:00</time></trkpt><trkpt lat="35.0752387" lon="32.4799493"><ele>17.0</ele><time>2015-04-25T18:30:07.0000000+00:00</time></trkpt><trkpt lat="35.0752774" lon="32.479988"><ele>17.0</ele><time>2015-04-25T18:30:08.0000000+00:00</time></trkpt><trkpt lat="35.075311" lon="32.4800264"><ele>16.9</ele><time>2015-04-25T18:30:09.0000000+00:00</time></trkpt><trkpt lat="35.0753473" lon="32.4800738"><ele>17.4</ele><time>2015-04-25T18:30:10.0000000+00:00</time></trkpt><trkpt lat="35.0753826" lon="32.4801155"><ele>17.7</ele><time>2015-04-25T18:30:11.0000000+00:00</time></trkpt><trkpt lat="35.0754194" lon="32.4801601"><ele>17.8</ele><time>2015-04-25T18:30:12.0000000+00:00</time></trkpt><trkpt lat="35.0754564" lon="32.4802055"><ele>17.9</ele><time>2015-04-25T18:30:13.0000000+00:00</time></trkpt><trkpt lat="35.0754871" lon="32.4802473"><ele>17.9</ele><time>2015-04-25T18:30:14.0000000+00:00</time></trkpt><trkpt lat="35.0755224" lon="32.4802895"><ele>17.9</ele><time>2015-04-25T18:30:15.0000000+00:00</time></trkpt><trkpt lat="35.0755654" lon="32.480325"><ele>17.9</ele><time>2015-04-25T18:30:16.0000000+00:00</time></trkpt><trkpt lat="35.0756334" lon="32.4803935"><ele>17.9</ele><time>2015-04-25T18:30:18.0000000+00:00</time></trkpt><trkpt lat="35.0756921" lon="32.4804569"><ele>17.4</ele><time>2015-04-25T18:30:20.0000000+00:00</time></trkpt><trkpt lat="35.0757448" lon="32.4805247"><ele>17.6</ele><time>2015-04-25T18:30:22.0000000+00:00</time></trkpt><trkpt lat="35.0758078" lon="32.4805923"><ele>17.3</ele><time>2015-04-25T18:30:24.0000000+00:00</time></trkpt><trkpt lat="35.0758794" lon="32.4806661"><ele>17.5</ele><time>2015-04-25T18:30:26.0000000+00:00</time></trkpt><trkpt lat="35.0759463" lon="32.4807434"><ele>17.8</ele><time>2015-04-25T18:30:28.0000000+00:00</time></trkpt><trkpt lat="35.0759815" lon="32.4807813"><ele>17.9</ele><time>2015-04-25T18:30:29.0000000+00:00</time></trkpt><trkpt lat="35.0760329" lon="32.4808492"><ele>18.2</ele><time>2015-04-25T18:30:31.0000000+00:00</time></trkpt><trkpt lat="35.0760672" lon="32.4808897"><ele>18.5</ele><time>2015-04-25T18:30:32.0000000+00:00</time></trkpt><trkpt lat="35.0761361" lon="32.480963"><ele>18.3</ele><time>2015-04-25T18:30:34.0000000+00:00</time></trkpt><trkpt lat="35.076194" lon="32.4810369"><ele>18.0</ele><time>2015-04-25T18:30:36.0000000+00:00</time></trkpt><trkpt lat="35.0762264" lon="32.481078"><ele>18.0</ele><time>2015-04-25T18:30:37.0000000+00:00</time></trkpt><trkpt lat="35.0762611" lon="32.4811249"><ele>18.5</ele><time>2015-04-25T18:30:38.0000000+00:00</time></trkpt><trkpt lat="35.0762942" lon="32.4811704"><ele>18.7</ele><time>2015-04-25T18:30:39.0000000+00:00</time></trkpt><trkpt lat="35.0763307" lon="32.4812144"><ele>18.3</ele><time>2015-04-25T18:30:40.0000000+00:00</time></trkpt><trkpt lat="35.0763615" lon="32.481256"><ele>18.1</ele><time>2015-04-25T18:30:41.0000000+00:00</time></trkpt><trkpt lat="35.0763976" lon="32.4812996"><ele>18.0</ele><time>2015-04-25T18:30:42.0000000+00:00</time></trkpt><trkpt lat="35.0764263" lon="32.4813426"><ele>18.0</ele><time>2015-04-25T18:30:43.0000000+00:00</time></trkpt><trkpt lat="35.0764563" lon="32.4813879"><ele>17.5</ele><time>2015-04-25T18:30:44.0000000+00:00</time></trkpt><trkpt lat="35.0764857" lon="32.4814325"><ele>17.2</ele><time>2015-04-25T18:30:45.0000000+00:00</time></trkpt><trkpt lat="35.0765503" lon="32.4815033"><ele>17.0</ele><time>2015-04-25T18:30:47.0000000+00:00</time></trkpt><trkpt lat="35.0766075" lon="32.4815725"><ele>17.7</ele><time>2015-04-25T18:30:49.0000000+00:00</time></trkpt><trkpt lat="35.0766443" lon="32.4816183"><ele>17.8</ele><time>2015-04-25T18:30:50.0000000+00:00</time></trkpt><trkpt lat="35.0766772" lon="32.4816574"><ele>17.9</ele><time>2015-04-25T18:30:51.0000000+00:00</time></trkpt><trkpt lat="35.0767145" lon="32.4816979"><ele>17.9</ele><time>2015-04-25T18:30:52.0000000+00:00</time></trkpt><trkpt lat="35.0767554" lon="32.4817386"><ele>17.9</ele><time>2015-04-25T18:30:53.0000000+00:00</time></trkpt><trkpt lat="35.0768029" lon="32.4817703"><ele>17.9</ele><time>2015-04-25T18:30:54.0000000+00:00</time></trkpt><trkpt lat="35.0768485" lon="32.4818075"><ele>17.9</ele><time>2015-04-25T18:30:55.0000000+00:00</time></trkpt><trkpt lat="35.0768958" lon="32.48183"><ele>17.9</ele><time>2015-04-25T18:30:56.0000000+00:00</time></trkpt><trkpt lat="35.0769418" lon="32.4818557"><ele>17.9</ele><time>2015-04-25T18:30:57.0000000+00:00</time></trkpt><trkpt lat="35.0769922" lon="32.4818779"><ele>17.9</ele><time>2015-04-25T18:30:58.0000000+00:00</time></trkpt><trkpt lat="35.0770375" lon="32.4818976"><ele>17.9</ele><time>2015-04-25T18:30:59.0000000+00:00</time></trkpt><trkpt lat="35.0770867" lon="32.4819183"><ele>17.9</ele><time>2015-04-25T18:31:00.0000000+00:00</time></trkpt><trkpt lat="35.077137" lon="32.4819408"><ele>17.9</ele><time>2015-04-25T18:31:01.0000000+00:00</time></trkpt><trkpt lat="35.0771911" lon="32.4819623"><ele>17.9</ele><time>2015-04-25T18:31:02.0000000+00:00</time></trkpt><trkpt lat="35.0772458" lon="32.4819846"><ele>17.9</ele><time>2015-04-25T18:31:03.0000000+00:00</time></trkpt><trkpt lat="35.0772906" lon="32.4820162"><ele>17.9</ele><time>2015-04-25T18:31:04.0000000+00:00</time></trkpt><trkpt lat="35.0773397" lon="32.4820429"><ele>17.9</ele><time>2015-04-25T18:31:05.0000000+00:00</time></trkpt><trkpt lat="35.0773889" lon="32.4820774"><ele>17.9</ele><time>2015-04-25T18:31:06.0000000+00:00</time></trkpt><trkpt lat="35.0774348" lon="32.4821082"><ele>17.9</ele><time>2015-04-25T18:31:07.0000000+00:00</time></trkpt><trkpt lat="35.0774779" lon="32.4821492"><ele>17.9</ele><time>2015-04-25T18:31:08.0000000+00:00</time></trkpt><trkpt lat="35.0775236" lon="32.4821895"><ele>17.9</ele><time>2015-04-25T18:31:09.0000000+00:00</time></trkpt><trkpt lat="35.0775688" lon="32.4822331"><ele>17.9</ele><time>2015-04-25T18:31:10.0000000+00:00</time></trkpt><trkpt lat="35.0776139" lon="32.482278"><ele>17.9</ele><time>2015-04-25T18:31:11.0000000+00:00</time></trkpt><trkpt lat="35.0776599" lon="32.4823244"><ele>17.4</ele><time>2015-04-25T18:31:12.0000000+00:00</time></trkpt><trkpt lat="35.0777008" lon="32.4823671"><ele>17.2</ele><time>2015-04-25T18:31:13.0000000+00:00</time></trkpt><trkpt lat="35.0777496" lon="32.4824183"><ele>17.6</ele><time>2015-04-25T18:31:14.0000000+00:00</time></trkpt><trkpt lat="35.0777904" lon="32.4824634"><ele>17.7</ele><time>2015-04-25T18:31:15.0000000+00:00</time></trkpt><trkpt lat="35.0778257" lon="32.4825152"><ele>17.8</ele><time>2015-04-25T18:31:16.0000000+00:00</time></trkpt><trkpt lat="35.0778682" lon="32.4825636"><ele>17.9</ele><time>2015-04-25T18:31:17.0000000+00:00</time></trkpt><trkpt lat="35.0779103" lon="32.4826138"><ele>17.4</ele><time>2015-04-25T18:31:18.0000000+00:00</time></trkpt><trkpt lat="35.0779554" lon="32.4826604"><ele>17.2</ele><time>2015-04-25T18:31:19.0000000+00:00</time></trkpt><trkpt lat="35.0780044" lon="32.4827106"><ele>17.0</ele><time>2015-04-25T18:31:20.0000000+00:00</time></trkpt><trkpt lat="35.0780457" lon="32.4827542"><ele>17.0</ele><time>2015-04-25T18:31:21.0000000+00:00</time></trkpt><trkpt lat="35.0780881" lon="32.4828066"><ele>17.0</ele><time>2015-04-25T18:31:22.0000000+00:00</time></trkpt><trkpt lat="35.0781263" lon="32.4828506"><ele>16.9</ele><time>2015-04-25T18:31:23.0000000+00:00</time></trkpt><trkpt lat="35.0781696" lon="32.4828874"><ele>16.9</ele><time>2015-04-25T18:31:24.0000000+00:00</time></trkpt><trkpt lat="35.0782093" lon="32.4829352"><ele>16.9</ele><time>2015-04-25T18:31:25.0000000+00:00</time></trkpt><trkpt lat="35.0782434" lon="32.4829807"><ele>16.9</ele><time>2015-04-25T18:31:26.0000000+00:00</time></trkpt><trkpt lat="35.0782837" lon="32.4830308"><ele>16.9</ele><time>2015-04-25T18:31:27.0000000+00:00</time></trkpt><trkpt lat="35.0783296" lon="32.4830786"><ele>16.9</ele><time>2015-04-25T18:31:28.0000000+00:00</time></trkpt><trkpt lat="35.0783691" lon="32.4831247"><ele>16.9</ele><time>2015-04-25T18:31:29.0000000+00:00</time></trkpt><trkpt lat="35.0784102" lon="32.4831808"><ele>16.9</ele><time>2015-04-25T18:31:30.0000000+00:00</time></trkpt><trkpt lat="35.0784492" lon="32.4832278"><ele>16.9</ele><time>2015-04-25T18:31:31.0000000+00:00</time></trkpt><trkpt lat="35.0784839" lon="32.4832733"><ele>17.4</ele><time>2015-04-25T18:31:32.0000000+00:00</time></trkpt><trkpt lat="35.0785252" lon="32.4833238"><ele>17.7</ele><time>2015-04-25T18:31:33.0000000+00:00</time></trkpt><trkpt lat="35.0785663" lon="32.4833682"><ele>17.8</ele><time>2015-04-25T18:31:34.0000000+00:00</time></trkpt><trkpt lat="35.0786085" lon="32.4834178"><ele>17.9</ele><time>2015-04-25T18:31:35.0000000+00:00</time></trkpt><trkpt lat="35.0786492" lon="32.483467"><ele>17.9</ele><time>2015-04-25T18:31:36.0000000+00:00</time></trkpt><trkpt lat="35.0786877" lon="32.483514"><ele>17.9</ele><time>2015-04-25T18:31:37.0000000+00:00</time></trkpt><trkpt lat="35.0787305" lon="32.4835554"><ele>18.4</ele><time>2015-04-25T18:31:38.0000000+00:00</time></trkpt><trkpt lat="35.078769" lon="32.4835998"><ele>18.7</ele><time>2015-04-25T18:31:39.0000000+00:00</time></trkpt><trkpt lat="35.0788056" lon="32.4836386"><ele>18.3</ele><time>2015-04-25T18:31:40.0000000+00:00</time></trkpt><trkpt lat="35.078846" lon="32.483686"><ele>18.1</ele><time>2015-04-25T18:31:41.0000000+00:00</time></trkpt><trkpt lat="35.078883" lon="32.4837328"><ele>18.0</ele><time>2015-04-25T18:31:42.0000000+00:00</time></trkpt><trkpt lat="35.0789231" lon="32.4837805"><ele>18.0</ele><time>2015-04-25T18:31:43.0000000+00:00</time></trkpt><trkpt lat="35.0789664" lon="32.4838311"><ele>18.0</ele><time>2015-04-25T18:31:44.0000000+00:00</time></trkpt><trkpt lat="35.0790028" lon="32.483875"><ele>17.9</ele><time>2015-04-25T18:31:45.0000000+00:00</time></trkpt><trkpt lat="35.0790484" lon="32.4839174"><ele>17.9</ele><time>2015-04-25T18:31:46.0000000+00:00</time></trkpt><trkpt lat="35.079086" lon="32.4839588"><ele>17.9</ele><time>2015-04-25T18:31:47.0000000+00:00</time></trkpt><trkpt lat="35.0791201" lon="32.4840002"><ele>17.9</ele><time>2015-04-25T18:31:48.0000000+00:00</time></trkpt><trkpt lat="35.0791599" lon="32.4840469"><ele>17.9</ele><time>2015-04-25T18:31:49.0000000+00:00</time></trkpt><trkpt lat="35.0791988" lon="32.4840961"><ele>17.9</ele><time>2015-04-25T18:31:50.0000000+00:00</time></trkpt><trkpt lat="35.0792383" lon="32.4841431"><ele>17.9</ele><time>2015-04-25T18:31:51.0000000+00:00</time></trkpt><trkpt lat="35.0792788" lon="32.4841837"><ele>17.9</ele><time>2015-04-25T18:31:52.0000000+00:00</time></trkpt><trkpt lat="35.079319" lon="32.4842249"><ele>17.9</ele><time>2015-04-25T18:31:53.0000000+00:00</time></trkpt><trkpt lat="35.0793613" lon="32.4842676"><ele>17.9</ele><time>2015-04-25T18:31:54.0000000+00:00</time></trkpt><trkpt lat="35.0794001" lon="32.4843083"><ele>17.9</ele><time>2015-04-25T18:31:55.0000000+00:00</time></trkpt><trkpt lat="35.0794377" lon="32.4843505"><ele>17.9</ele><time>2015-04-25T18:31:56.0000000+00:00</time></trkpt><trkpt lat="35.0794771" lon="32.484395"><ele>17.9</ele><time>2015-04-25T18:31:57.0000000+00:00</time></trkpt><trkpt lat="35.0795256" lon="32.484439"><ele>17.9</ele><time>2015-04-25T18:31:58.0000000+00:00</time></trkpt><trkpt lat="35.07957" lon="32.4844813"><ele>17.9</ele><time>2015-04-25T18:31:59.0000000+00:00</time></trkpt><trkpt lat="35.0796148" lon="32.4845258"><ele>17.4</ele><time>2015-04-25T18:32:00.0000000+00:00</time></trkpt><trkpt lat="35.0796565" lon="32.4845679"><ele>17.2</ele><time>2015-04-25T18:32:01.0000000+00:00</time></trkpt><trkpt lat="35.0797041" lon="32.4846095"><ele>17.1</ele><time>2015-04-25T18:32:02.0000000+00:00</time></trkpt><trkpt lat="35.0797473" lon="32.4846496"><ele>17.0</ele><time>2015-04-25T18:32:03.0000000+00:00</time></trkpt><trkpt lat="35.0797881" lon="32.4846975"><ele>16.5</ele><time>2015-04-25T18:32:04.0000000+00:00</time></trkpt><trkpt lat="35.0798333" lon="32.4847414"><ele>16.2</ele><time>2015-04-25T18:32:05.0000000+00:00</time></trkpt><trkpt lat="35.0798782" lon="32.484785"><ele>16.6</ele><time>2015-04-25T18:32:06.0000000+00:00</time></trkpt><trkpt lat="35.0799234" lon="32.4848298"><ele>16.7</ele><time>2015-04-25T18:32:07.0000000+00:00</time></trkpt><trkpt lat="35.0799769" lon="32.484874"><ele>17.3</ele><time>2015-04-25T18:32:08.0000000+00:00</time></trkpt><trkpt lat="35.0800214" lon="32.4849145"><ele>17.6</ele><time>2015-04-25T18:32:09.0000000+00:00</time></trkpt><trkpt lat="35.0800701" lon="32.4849601"><ele>17.3</ele><time>2015-04-25T18:32:10.0000000+00:00</time></trkpt><trkpt lat="35.080114" lon="32.4850012"><ele>17.1</ele><time>2015-04-25T18:32:11.0000000+00:00</time></trkpt><trkpt lat="35.0801603" lon="32.4850364"><ele>17.5</ele><time>2015-04-25T18:32:12.0000000+00:00</time></trkpt><trkpt lat="35.0802066" lon="32.4850768"><ele>17.7</ele><time>2015-04-25T18:32:13.0000000+00:00</time></trkpt><trkpt lat="35.0802495" lon="32.4851179"><ele>17.8</ele><time>2015-04-25T18:32:14.0000000+00:00</time></trkpt><trkpt lat="35.0802942" lon="32.4851622"><ele>17.9</ele><time>2015-04-25T18:32:15.0000000+00:00</time></trkpt><trkpt lat="35.0803391" lon="32.4852059"><ele>17.9</ele><time>2015-04-25T18:32:16.0000000+00:00</time></trkpt><trkpt lat="35.0803812" lon="32.485247"><ele>17.9</ele><time>2015-04-25T18:32:17.0000000+00:00</time></trkpt><trkpt lat="35.0804245" lon="32.4852947"><ele>18.4</ele><time>2015-04-25T18:32:18.0000000+00:00</time></trkpt><trkpt lat="35.0804681" lon="32.4853355"><ele>18.7</ele><time>2015-04-25T18:32:19.0000000+00:00</time></trkpt><trkpt lat="35.0805118" lon="32.4853739"><ele>18.8</ele><time>2015-04-25T18:32:20.0000000+00:00</time></trkpt><trkpt lat="35.0805595" lon="32.4854181"><ele>18.9</ele><time>2015-04-25T18:32:21.0000000+00:00</time></trkpt><trkpt lat="35.080605" lon="32.4854642"><ele>18.4</ele><time>2015-04-25T18:32:22.0000000+00:00</time></trkpt><trkpt lat="35.0806532" lon="32.4855092"><ele>18.2</ele><time>2015-04-25T18:32:23.0000000+00:00</time></trkpt><trkpt lat="35.0806991" lon="32.4855539"><ele>18.0</ele><time>2015-04-25T18:32:24.0000000+00:00</time></trkpt><trkpt lat="35.080743" lon="32.4855974"><ele>18.0</ele><time>2015-04-25T18:32:25.0000000+00:00</time></trkpt><trkpt lat="35.0807889" lon="32.4856436"><ele>18.0</ele><time>2015-04-25T18:32:26.0000000+00:00</time></trkpt><trkpt lat="35.080832" lon="32.4856844"><ele>17.9</ele><time>2015-04-25T18:32:27.0000000+00:00</time></trkpt><trkpt lat="35.0808728" lon="32.4857259"><ele>17.9</ele><time>2015-04-25T18:32:28.0000000+00:00</time></trkpt><trkpt lat="35.0809186" lon="32.4857682"><ele>17.9</ele><time>2015-04-25T18:32:29.0000000+00:00</time></trkpt><trkpt lat="35.0809715" lon="32.4858132"><ele>17.9</ele><time>2015-04-25T18:32:30.0000000+00:00</time></trkpt><trkpt lat="35.0810231" lon="32.4858619"><ele>17.9</ele><time>2015-04-25T18:32:31.0000000+00:00</time></trkpt><trkpt lat="35.0810707" lon="32.4859072"><ele>17.9</ele><time>2015-04-25T18:32:32.0000000+00:00</time></trkpt><trkpt lat="35.081117" lon="32.4859494"><ele>17.9</ele><time>2015-04-25T18:32:33.0000000+00:00</time></trkpt><trkpt lat="35.0811659" lon="32.4859943"><ele>17.9</ele><time>2015-04-25T18:32:34.0000000+00:00</time></trkpt><trkpt lat="35.08121" lon="32.4860367"><ele>17.9</ele><time>2015-04-25T18:32:35.0000000+00:00</time></trkpt><trkpt lat="35.0812516" lon="32.4860733"><ele>17.9</ele><time>2015-04-25T18:32:36.0000000+00:00</time></trkpt><trkpt lat="35.0812992" lon="32.4861157"><ele>17.9</ele><time>2015-04-25T18:32:37.0000000+00:00</time></trkpt><trkpt lat="35.081347" lon="32.4861574"><ele>17.9</ele><time>2015-04-25T18:32:38.0000000+00:00</time></trkpt><trkpt lat="35.0813888" lon="32.4861956"><ele>17.9</ele><time>2015-04-25T18:32:39.0000000+00:00</time></trkpt><trkpt lat="35.0814305" lon="32.486234"><ele>17.9</ele><time>2015-04-25T18:32:40.0000000+00:00</time></trkpt><trkpt lat="35.0814703" lon="32.4862695"><ele>17.9</ele><time>2015-04-25T18:32:41.0000000+00:00</time></trkpt><trkpt lat="35.081514" lon="32.4863114"><ele>17.9</ele><time>2015-04-25T18:32:42.0000000+00:00</time></trkpt><trkpt lat="35.0815567" lon="32.4863499"><ele>17.9</ele><time>2015-04-25T18:32:43.0000000+00:00</time></trkpt><trkpt lat="35.0816001" lon="32.4863948"><ele>17.9</ele><time>2015-04-25T18:32:44.0000000+00:00</time></trkpt><trkpt lat="35.0816486" lon="32.4864398"><ele>17.9</ele><time>2015-04-25T18:32:45.0000000+00:00</time></trkpt><trkpt lat="35.0817006" lon="32.4864864"><ele>17.9</ele><time>2015-04-25T18:32:46.0000000+00:00</time></trkpt><trkpt lat="35.081751" lon="32.4865292"><ele>17.9</ele><time>2015-04-25T18:32:47.0000000+00:00</time></trkpt><trkpt lat="35.081804" lon="32.4865738"><ele>17.9</ele><time>2015-04-25T18:32:48.0000000+00:00</time></trkpt><trkpt lat="35.0818486" lon="32.4866226"><ele>17.9</ele><time>2015-04-25T18:32:49.0000000+00:00</time></trkpt><trkpt lat="35.081899" lon="32.4866764"><ele>17.9</ele><time>2015-04-25T18:32:50.0000000+00:00</time></trkpt><trkpt lat="35.0819464" lon="32.4867203"><ele>17.9</ele><time>2015-04-25T18:32:51.0000000+00:00</time></trkpt><trkpt lat="35.081995" lon="32.4867673"><ele>18.4</ele><time>2015-04-25T18:32:52.0000000+00:00</time></trkpt><trkpt lat="35.0820464" lon="32.4868129"><ele>18.2</ele><time>2015-04-25T18:32:53.0000000+00:00</time></trkpt><trkpt lat="35.0820888" lon="32.486855"><ele>18.1</ele><time>2015-04-25T18:32:54.0000000+00:00</time></trkpt><trkpt lat="35.082139" lon="32.486894"><ele>18.0</ele><time>2015-04-25T18:32:55.0000000+00:00</time></trkpt><trkpt lat="35.0821869" lon="32.4869425"><ele>18.0</ele><time>2015-04-25T18:32:56.0000000+00:00</time></trkpt><trkpt lat="35.0822326" lon="32.486983"><ele>17.9</ele><time>2015-04-25T18:32:57.0000000+00:00</time></trkpt><trkpt lat="35.0822833" lon="32.4870273"><ele>17.9</ele><time>2015-04-25T18:32:58.0000000+00:00</time></trkpt><trkpt lat="35.0823283" lon="32.4870704"><ele>17.9</ele><time>2015-04-25T18:32:59.0000000+00:00</time></trkpt><trkpt lat="35.0823726" lon="32.4871116"><ele>17.9</ele><time>2015-04-25T18:33:00.0000000+00:00</time></trkpt><trkpt lat="35.0824202" lon="32.4871559"><ele>17.9</ele><time>2015-04-25T18:33:01.0000000+00:00</time></trkpt><trkpt lat="35.0824642" lon="32.4871953"><ele>17.9</ele><time>2015-04-25T18:33:02.0000000+00:00</time></trkpt><trkpt lat="35.0825113" lon="32.4872379"><ele>17.9</ele><time>2015-04-25T18:33:03.0000000+00:00</time></trkpt><trkpt lat="35.08256" lon="32.4872876"><ele>17.9</ele><time>2015-04-25T18:33:04.0000000+00:00</time></trkpt><trkpt lat="35.0826052" lon="32.4873291"><ele>17.9</ele><time>2015-04-25T18:33:05.0000000+00:00</time></trkpt><trkpt lat="35.0826519" lon="32.4873662"><ele>17.9</ele><time>2015-04-25T18:33:06.0000000+00:00</time></trkpt><trkpt lat="35.0826956" lon="32.4874078"><ele>17.9</ele><time>2015-04-25T18:33:07.0000000+00:00</time></trkpt><trkpt lat="35.0827514" lon="32.4874492"><ele>17.9</ele><time>2015-04-25T18:33:08.0000000+00:00</time></trkpt><trkpt lat="35.0828002" lon="32.4874933"><ele>17.9</ele><time>2015-04-25T18:33:09.0000000+00:00</time></trkpt><trkpt lat="35.0828522" lon="32.4875392"><ele>17.9</ele><time>2015-04-25T18:33:10.0000000+00:00</time></trkpt><trkpt lat="35.0829018" lon="32.4875835"><ele>17.9</ele><time>2015-04-25T18:33:11.0000000+00:00</time></trkpt><trkpt lat="35.0829486" lon="32.4876208"><ele>17.9</ele><time>2015-04-25T18:33:12.0000000+00:00</time></trkpt><trkpt lat="35.0829919" lon="32.4876595"><ele>17.9</ele><time>2015-04-25T18:33:13.0000000+00:00</time></trkpt><trkpt lat="35.0830513" lon="32.4877009"><ele>18.4</ele><time>2015-04-25T18:33:14.0000000+00:00</time></trkpt><trkpt lat="35.0830993" lon="32.4877386"><ele>18.7</ele><time>2015-04-25T18:33:15.0000000+00:00</time></trkpt><trkpt lat="35.0831489" lon="32.4877758"><ele>18.3</ele><time>2015-04-25T18:33:16.0000000+00:00</time></trkpt><trkpt lat="35.0832024" lon="32.4878191"><ele>18.1</ele><time>2015-04-25T18:33:17.0000000+00:00</time></trkpt><trkpt lat="35.08325" lon="32.4878611"><ele>18.0</ele><time>2015-04-25T18:33:18.0000000+00:00</time></trkpt><trkpt lat="35.0833018" lon="32.4879017"><ele>18.0</ele><time>2015-04-25T18:33:19.0000000+00:00</time></trkpt><trkpt lat="35.0833498" lon="32.4879384"><ele>18.0</ele><time>2015-04-25T18:33:20.0000000+00:00</time></trkpt><trkpt lat="35.0833959" lon="32.4879756"><ele>17.9</ele><time>2015-04-25T18:33:21.0000000+00:00</time></trkpt><trkpt lat="35.0834447" lon="32.4880094"><ele>17.9</ele><time>2015-04-25T18:33:22.0000000+00:00</time></trkpt><trkpt lat="35.0834892" lon="32.4880438"><ele>17.9</ele><time>2015-04-25T18:33:23.0000000+00:00</time></trkpt><trkpt lat="35.0835377" lon="32.4880768"><ele>18.4</ele><time>2015-04-25T18:33:24.0000000+00:00</time></trkpt><trkpt lat="35.083588" lon="32.4881125"><ele>18.7</ele><time>2015-04-25T18:33:25.0000000+00:00</time></trkpt><trkpt lat="35.0836341" lon="32.48815"><ele>18.8</ele><time>2015-04-25T18:33:26.0000000+00:00</time></trkpt><trkpt lat="35.0836855" lon="32.4881895"><ele>18.9</ele><time>2015-04-25T18:33:27.0000000+00:00</time></trkpt><trkpt lat="35.0837417" lon="32.4882358"><ele>18.9</ele><time>2015-04-25T18:33:28.0000000+00:00</time></trkpt><trkpt lat="35.0837913" lon="32.4882757"><ele>18.9</ele><time>2015-04-25T18:33:29.0000000+00:00</time></trkpt><trkpt lat="35.0838456" lon="32.488316"><ele>18.4</ele><time>2015-04-25T18:33:30.0000000+00:00</time></trkpt><trkpt lat="35.083897" lon="32.4883538"><ele>18.2</ele><time>2015-04-25T18:33:31.0000000+00:00</time></trkpt><trkpt lat="35.0839429" lon="32.4883966"><ele>18.1</ele><time>2015-04-25T18:33:32.0000000+00:00</time></trkpt><trkpt lat="35.0839945" lon="32.4884373"><ele>18.0</ele><time>2015-04-25T18:33:33.0000000+00:00</time></trkpt><trkpt lat="35.084047" lon="32.4884832"><ele>18.5</ele><time>2015-04-25T18:33:34.0000000+00:00</time></trkpt><trkpt lat="35.084099" lon="32.4885259"><ele>18.7</ele><time>2015-04-25T18:33:35.0000000+00:00</time></trkpt><trkpt lat="35.08415" lon="32.4885698"><ele>18.8</ele><time>2015-04-25T18:33:36.0000000+00:00</time></trkpt><trkpt lat="35.0841986" lon="32.488609"><ele>18.9</ele><time>2015-04-25T18:33:37.0000000+00:00</time></trkpt><trkpt lat="35.0842493" lon="32.4886451"><ele>18.4</ele><time>2015-04-25T18:33:38.0000000+00:00</time></trkpt><trkpt lat="35.0842968" lon="32.4886834"><ele>18.2</ele><time>2015-04-25T18:33:39.0000000+00:00</time></trkpt><trkpt lat="35.0843425" lon="32.4887211"><ele>18.5</ele><time>2015-04-25T18:33:40.0000000+00:00</time></trkpt><trkpt lat="35.0843914" lon="32.4887636"><ele>18.7</ele><time>2015-04-25T18:33:41.0000000+00:00</time></trkpt><trkpt lat="35.084443" lon="32.4888068"><ele>18.8</ele><time>2015-04-25T18:33:42.0000000+00:00</time></trkpt><trkpt lat="35.0844947" lon="32.4888494"><ele>18.4</ele><time>2015-04-25T18:33:43.0000000+00:00</time></trkpt><trkpt lat="35.0845413" lon="32.4888924"><ele>18.2</ele><time>2015-04-25T18:33:44.0000000+00:00</time></trkpt><trkpt lat="35.0845866" lon="32.4889334"><ele>18.0</ele><time>2015-04-25T18:33:45.0000000+00:00</time></trkpt><trkpt lat="35.0846303" lon="32.488965"><ele>17.5</ele><time>2015-04-25T18:33:46.0000000+00:00</time></trkpt><trkpt lat="35.0846705" lon="32.4889991"><ele>17.2</ele><time>2015-04-25T18:33:47.0000000+00:00</time></trkpt><trkpt lat="35.0847085" lon="32.4890391"><ele>17.1</ele><time>2015-04-25T18:33:48.0000000+00:00</time></trkpt><trkpt lat="35.0847525" lon="32.4890801"><ele>17.0</ele><time>2015-04-25T18:33:49.0000000+00:00</time></trkpt><trkpt lat="35.0847952" lon="32.4891224"><ele>17.0</ele><time>2015-04-25T18:33:50.0000000+00:00</time></trkpt><trkpt lat="35.0848411" lon="32.4891634"><ele>16.9</ele><time>2015-04-25T18:33:51.0000000+00:00</time></trkpt><trkpt lat="35.0848866" lon="32.4892065"><ele>17.4</ele><time>2015-04-25T18:33:52.0000000+00:00</time></trkpt><trkpt lat="35.0849278" lon="32.489245"><ele>17.2</ele><time>2015-04-25T18:33:53.0000000+00:00</time></trkpt><trkpt lat="35.0849798" lon="32.4892893"><ele>17.1</ele><time>2015-04-25T18:33:54.0000000+00:00</time></trkpt><trkpt lat="35.0850252" lon="32.4893304"><ele>17.0</ele><time>2015-04-25T18:33:55.0000000+00:00</time></trkpt><trkpt lat="35.0850811" lon="32.4893814"><ele>17.0</ele><time>2015-04-25T18:33:56.0000000+00:00</time></trkpt><trkpt lat="35.0851325" lon="32.4894267"><ele>16.9</ele><time>2015-04-25T18:33:57.0000000+00:00</time></trkpt><trkpt lat="35.0851829" lon="32.4894727"><ele>16.9</ele><time>2015-04-25T18:33:58.0000000+00:00</time></trkpt><trkpt lat="35.0852355" lon="32.4895213"><ele>16.9</ele><time>2015-04-25T18:33:59.0000000+00:00</time></trkpt><trkpt lat="35.0852893" lon="32.4895722"><ele>16.9</ele><time>2015-04-25T18:34:00.0000000+00:00</time></trkpt><trkpt lat="35.0853395" lon="32.4896182"><ele>16.9</ele><time>2015-04-25T18:34:01.0000000+00:00</time></trkpt><trkpt lat="35.0853979" lon="32.4896711"><ele>16.9</ele><time>2015-04-25T18:34:02.0000000+00:00</time></trkpt><trkpt lat="35.0854481" lon="32.4897163"><ele>16.9</ele><time>2015-04-25T18:34:03.0000000+00:00</time></trkpt><trkpt lat="35.0854939" lon="32.4897635"><ele>16.9</ele><time>2015-04-25T18:34:04.0000000+00:00</time></trkpt><trkpt lat="35.0855469" lon="32.4898136"><ele>16.9</ele><time>2015-04-25T18:34:05.0000000+00:00</time></trkpt><trkpt lat="35.0855947" lon="32.4898593"><ele>16.4</ele><time>2015-04-25T18:34:06.0000000+00:00</time></trkpt><trkpt lat="35.0856485" lon="32.4899079"><ele>16.2</ele><time>2015-04-25T18:34:07.0000000+00:00</time></trkpt><trkpt lat="35.0857001" lon="32.4899599"><ele>16.1</ele><time>2015-04-25T18:34:08.0000000+00:00</time></trkpt><trkpt lat="35.0857486" lon="32.4900052"><ele>16.0</ele><time>2015-04-25T18:34:09.0000000+00:00</time></trkpt><trkpt lat="35.0857876" lon="32.4900545"><ele>16.0</ele><time>2015-04-25T18:34:10.0000000+00:00</time></trkpt><trkpt lat="35.0858335" lon="32.4900981"><ele>15.9</ele><time>2015-04-25T18:34:11.0000000+00:00</time></trkpt><trkpt lat="35.0858843" lon="32.4901408"><ele>15.9</ele><time>2015-04-25T18:34:12.0000000+00:00</time></trkpt><trkpt lat="35.0859327" lon="32.4901871"><ele>15.9</ele><time>2015-04-25T18:34:13.0000000+00:00</time></trkpt><trkpt lat="35.0859845" lon="32.4902351"><ele>15.9</ele><time>2015-04-25T18:34:14.0000000+00:00</time></trkpt><trkpt lat="35.0860357" lon="32.4902822"><ele>15.9</ele><time>2015-04-25T18:34:15.0000000+00:00</time></trkpt><trkpt lat="35.0860929" lon="32.49033"><ele>15.9</ele><time>2015-04-25T18:34:16.0000000+00:00</time></trkpt><trkpt lat="35.0861428" lon="32.4903754"><ele>16.4</ele><time>2015-04-25T18:34:17.0000000+00:00</time></trkpt><trkpt lat="35.0861998" lon="32.4904232"><ele>16.7</ele><time>2015-04-25T18:34:18.0000000+00:00</time></trkpt><trkpt lat="35.08625" lon="32.4904702"><ele>16.8</ele><time>2015-04-25T18:34:19.0000000+00:00</time></trkpt><trkpt lat="35.0863019" lon="32.4905174"><ele>16.9</ele><time>2015-04-25T18:34:20.0000000+00:00</time></trkpt><trkpt lat="35.0863565" lon="32.4905667"><ele>16.9</ele><time>2015-04-25T18:34:21.0000000+00:00</time></trkpt><trkpt lat="35.0864134" lon="32.4906134"><ele>16.9</ele><time>2015-04-25T18:34:22.0000000+00:00</time></trkpt><trkpt lat="35.086468" lon="32.4906606"><ele>16.9</ele><time>2015-04-25T18:34:23.0000000+00:00</time></trkpt><trkpt lat="35.0865249" lon="32.4907104"><ele>16.9</ele><time>2015-04-25T18:34:24.0000000+00:00</time></trkpt><trkpt lat="35.0865769" lon="32.4907527"><ele>16.9</ele><time>2015-04-25T18:34:25.0000000+00:00</time></trkpt><trkpt lat="35.0866357" lon="32.4907934"><ele>17.4</ele><time>2015-04-25T18:34:26.0000000+00:00</time></trkpt><trkpt lat="35.0866892" lon="32.4908328"><ele>17.7</ele><time>2015-04-25T18:34:27.0000000+00:00</time></trkpt><trkpt lat="35.0867487" lon="32.4908693"><ele>17.8</ele><time>2015-04-25T18:34:28.0000000+00:00</time></trkpt><trkpt lat="35.0868058" lon="32.4909114"><ele>17.9</ele><time>2015-04-25T18:34:29.0000000+00:00</time></trkpt><trkpt lat="35.0868562" lon="32.4909529"><ele>17.4</ele><time>2015-04-25T18:34:30.0000000+00:00</time></trkpt><trkpt lat="35.0869108" lon="32.4909955"><ele>17.2</ele><time>2015-04-25T18:34:31.0000000+00:00</time></trkpt><trkpt lat="35.0869722" lon="32.4910336"><ele>17.5</ele><time>2015-04-25T18:34:32.0000000+00:00</time></trkpt><trkpt lat="35.0870246" lon="32.49107"><ele>17.7</ele><time>2015-04-25T18:34:33.0000000+00:00</time></trkpt><trkpt lat="35.0870733" lon="32.4911062"><ele>17.3</ele><time>2015-04-25T18:34:34.0000000+00:00</time></trkpt><trkpt lat="35.0871233" lon="32.4911428"><ele>17.1</ele><time>2015-04-25T18:34:35.0000000+00:00</time></trkpt><trkpt lat="35.0871667" lon="32.4911822"><ele>17.0</ele><time>2015-04-25T18:34:36.0000000+00:00</time></trkpt><trkpt lat="35.0872165" lon="32.4912207"><ele>17.0</ele><time>2015-04-25T18:34:37.0000000+00:00</time></trkpt><trkpt lat="35.0872661" lon="32.491253"><ele>17.0</ele><time>2015-04-25T18:34:38.0000000+00:00</time></trkpt><trkpt lat="35.0873182" lon="32.4912898"><ele>16.9</ele><time>2015-04-25T18:34:39.0000000+00:00</time></trkpt><trkpt lat="35.0873747" lon="32.491329"><ele>16.9</ele><time>2015-04-25T18:34:40.0000000+00:00</time></trkpt><trkpt lat="35.0874245" lon="32.4913666"><ele>16.9</ele><time>2015-04-25T18:34:41.0000000+00:00</time></trkpt><trkpt lat="35.0874731" lon="32.4914078"><ele>17.4</ele><time>2015-04-25T18:34:42.0000000+00:00</time></trkpt><trkpt lat="35.0875221" lon="32.491445"><ele>17.7</ele><time>2015-04-25T18:34:43.0000000+00:00</time></trkpt><trkpt lat="35.0875744" lon="32.4914789"><ele>17.8</ele><time>2015-04-25T18:34:44.0000000+00:00</time></trkpt><trkpt lat="35.087629" lon="32.4915109"><ele>17.4</ele><time>2015-04-25T18:34:45.0000000+00:00</time></trkpt><trkpt lat="35.0876751" lon="32.4915483"><ele>17.6</ele><time>2015-04-25T18:34:46.0000000+00:00</time></trkpt><trkpt lat="35.0877251" lon="32.4915864"><ele>17.8</ele><time>2015-04-25T18:34:47.0000000+00:00</time></trkpt><trkpt lat="35.0877791" lon="32.4916256"><ele>17.9</ele><time>2015-04-25T18:34:48.0000000+00:00</time></trkpt><trkpt lat="35.0878279" lon="32.4916608"><ele>17.9</ele><time>2015-04-25T18:34:49.0000000+00:00</time></trkpt><trkpt lat="35.0878833" lon="32.491702"><ele>17.9</ele><time>2015-04-25T18:34:50.0000000+00:00</time></trkpt><trkpt lat="35.0879312" lon="32.4917377"><ele>17.9</ele><time>2015-04-25T18:34:51.0000000+00:00</time></trkpt><trkpt lat="35.0879777" lon="32.4917722"><ele>17.9</ele><time>2015-04-25T18:34:52.0000000+00:00</time></trkpt><trkpt lat="35.0880283" lon="32.4918086"><ele>17.9</ele><time>2015-04-25T18:34:53.0000000+00:00</time></trkpt><trkpt lat="35.0880703" lon="32.4918426"><ele>17.9</ele><time>2015-04-25T18:34:54.0000000+00:00</time></trkpt><trkpt lat="35.0881175" lon="32.4918782"><ele>17.9</ele><time>2015-04-25T18:34:55.0000000+00:00</time></trkpt><trkpt lat="35.0881636" lon="32.491914"><ele>17.4</ele><time>2015-04-25T18:34:56.0000000+00:00</time></trkpt><trkpt lat="35.0882075" lon="32.4919483"><ele>17.2</ele><time>2015-04-25T18:34:57.0000000+00:00</time></trkpt><trkpt lat="35.0882599" lon="32.4919802"><ele>17.6</ele><time>2015-04-25T18:34:58.0000000+00:00</time></trkpt><trkpt lat="35.0883066" lon="32.4920136"><ele>17.7</ele><time>2015-04-25T18:34:59.0000000+00:00</time></trkpt><trkpt lat="35.0883536" lon="32.4920506"><ele>17.8</ele><time>2015-04-25T18:35:00.0000000+00:00</time></trkpt><trkpt lat="35.0884028" lon="32.4920875"><ele>17.9</ele><time>2015-04-25T18:35:01.0000000+00:00</time></trkpt><trkpt lat="35.0884534" lon="32.4921176"><ele>17.9</ele><time>2015-04-25T18:35:02.0000000+00:00</time></trkpt><trkpt lat="35.0885054" lon="32.4921568"><ele>18.4</ele><time>2015-04-25T18:35:03.0000000+00:00</time></trkpt><trkpt lat="35.0885607" lon="32.4922051"><ele>18.7</ele><time>2015-04-25T18:35:04.0000000+00:00</time></trkpt><trkpt lat="35.0886093" lon="32.4922433"><ele>18.8</ele><time>2015-04-25T18:35:05.0000000+00:00</time></trkpt><trkpt lat="35.0886672" lon="32.4922855"><ele>18.9</ele><time>2015-04-25T18:35:06.0000000+00:00</time></trkpt><trkpt lat="35.0887144" lon="32.4923244"><ele>19.4</ele><time>2015-04-25T18:35:07.0000000+00:00</time></trkpt><trkpt lat="35.0887525" lon="32.4923655"><ele>19.2</ele><time>2015-04-25T18:35:08.0000000+00:00</time></trkpt><trkpt lat="35.0887978" lon="32.4924048"><ele>19.0</ele><time>2015-04-25T18:35:09.0000000+00:00</time></trkpt><trkpt lat="35.0888391" lon="32.4924432"><ele>19.0</ele><time>2015-04-25T18:35:10.0000000+00:00</time></trkpt><trkpt lat="35.0888846" lon="32.4924852"><ele>19.0</ele><time>2015-04-25T18:35:11.0000000+00:00</time></trkpt><trkpt lat="35.0889331" lon="32.492524"><ele>19.4</ele><time>2015-04-25T18:35:12.0000000+00:00</time></trkpt><trkpt lat="35.088976" lon="32.4925645"><ele>19.7</ele><time>2015-04-25T18:35:13.0000000+00:00</time></trkpt><trkpt lat="35.0890247" lon="32.4926166"><ele>19.8</ele><time>2015-04-25T18:35:14.0000000+00:00</time></trkpt><trkpt lat="35.0890709" lon="32.4926602"><ele>19.9</ele><time>2015-04-25T18:35:15.0000000+00:00</time></trkpt><trkpt lat="35.0891168" lon="32.4927067"><ele>19.9</ele><time>2015-04-25T18:35:16.0000000+00:00</time></trkpt><trkpt lat="35.089164" lon="32.4927535"><ele>19.9</ele><time>2015-04-25T18:35:17.0000000+00:00</time></trkpt><trkpt lat="35.0892107" lon="32.4927916"><ele>20.4</ele><time>2015-04-25T18:35:18.0000000+00:00</time></trkpt><trkpt lat="35.0892599" lon="32.4928378"><ele>20.7</ele><time>2015-04-25T18:35:19.0000000+00:00</time></trkpt><trkpt lat="35.0893085" lon="32.4928827"><ele>20.3</ele><time>2015-04-25T18:35:20.0000000+00:00</time></trkpt><trkpt lat="35.0893548" lon="32.4929245"><ele>20.1</ele><time>2015-04-25T18:35:21.0000000+00:00</time></trkpt><trkpt lat="35.0894086" lon="32.4929727"><ele>20.0</ele><time>2015-04-25T18:35:22.0000000+00:00</time></trkpt><trkpt lat="35.0894552" lon="32.4930171"><ele>20.0</ele><time>2015-04-25T18:35:23.0000000+00:00</time></trkpt><trkpt lat="35.0895018" lon="32.4930598"><ele>20.0</ele><time>2015-04-25T18:35:24.0000000+00:00</time></trkpt><trkpt lat="35.089551" lon="32.4931061"><ele>19.9</ele><time>2015-04-25T18:35:25.0000000+00:00</time></trkpt><trkpt lat="35.0895978" lon="32.4931479"><ele>19.9</ele><time>2015-04-25T18:35:26.0000000+00:00</time></trkpt><trkpt lat="35.089647" lon="32.4931934"><ele>19.9</ele><time>2015-04-25T18:35:27.0000000+00:00</time></trkpt><trkpt lat="35.0896959" lon="32.4932409"><ele>19.9</ele><time>2015-04-25T18:35:28.0000000+00:00</time></trkpt><trkpt lat="35.0897419" lon="32.4932836"><ele>19.9</ele><time>2015-04-25T18:35:29.0000000+00:00</time></trkpt><trkpt lat="35.0897943" lon="32.4933266"><ele>19.9</ele><time>2015-04-25T18:35:30.0000000+00:00</time></trkpt><trkpt lat="35.0898412" lon="32.4933696"><ele>19.9</ele><time>2015-04-25T18:35:31.0000000+00:00</time></trkpt><trkpt lat="35.0898887" lon="32.4934137"><ele>19.9</ele><time>2015-04-25T18:35:32.0000000+00:00</time></trkpt><trkpt lat="35.0899385" lon="32.4934606"><ele>19.9</ele><time>2015-04-25T18:35:33.0000000+00:00</time></trkpt><trkpt lat="35.0899814" lon="32.4935082"><ele>19.9</ele><time>2015-04-25T18:35:34.0000000+00:00</time></trkpt><trkpt lat="35.0900299" lon="32.4935528"><ele>19.9</ele><time>2015-04-25T18:35:35.0000000+00:00</time></trkpt><trkpt lat="35.0900804" lon="32.4935988"><ele>19.9</ele><time>2015-04-25T18:35:36.0000000+00:00</time></trkpt><trkpt lat="35.0901246" lon="32.4936411"><ele>19.9</ele><time>2015-04-25T18:35:37.0000000+00:00</time></trkpt><trkpt lat="35.0901794" lon="32.4936887"><ele>20.4</ele><time>2015-04-25T18:35:38.0000000+00:00</time></trkpt><trkpt lat="35.0902258" lon="32.4937309"><ele>20.7</ele><time>2015-04-25T18:35:39.0000000+00:00</time></trkpt><trkpt lat="35.0902717" lon="32.4937827"><ele>20.8</ele><time>2015-04-25T18:35:40.0000000+00:00</time></trkpt><trkpt lat="35.090322" lon="32.4938309"><ele>20.9</ele><time>2015-04-25T18:35:41.0000000+00:00</time></trkpt><trkpt lat="35.0903734" lon="32.4938738"><ele>20.9</ele><time>2015-04-25T18:35:42.0000000+00:00</time></trkpt><trkpt lat="35.0904248" lon="32.4939205"><ele>20.9</ele><time>2015-04-25T18:35:43.0000000+00:00</time></trkpt><trkpt lat="35.0904789" lon="32.4939685"><ele>20.4</ele><time>2015-04-25T18:35:44.0000000+00:00</time></trkpt><trkpt lat="35.0905279" lon="32.494014"><ele>20.2</ele><time>2015-04-25T18:35:45.0000000+00:00</time></trkpt><trkpt lat="35.0905796" lon="32.4940626"><ele>20.1</ele><time>2015-04-25T18:35:46.0000000+00:00</time></trkpt><trkpt lat="35.0906286" lon="32.4941056"><ele>20.0</ele><time>2015-04-25T18:35:47.0000000+00:00</time></trkpt><trkpt lat="35.0906799" lon="32.4941545"><ele>20.0</ele><time>2015-04-25T18:35:48.0000000+00:00</time></trkpt><trkpt lat="35.0907336" lon="32.4942028"><ele>19.9</ele><time>2015-04-25T18:35:49.0000000+00:00</time></trkpt><trkpt lat="35.0907832" lon="32.494252"><ele>19.4</ele><time>2015-04-25T18:35:50.0000000+00:00</time></trkpt><trkpt lat="35.090834" lon="32.4943028"><ele>19.2</ele><time>2015-04-25T18:35:51.0000000+00:00</time></trkpt><trkpt lat="35.0908841" lon="32.4943485"><ele>19.6</ele><time>2015-04-25T18:35:52.0000000+00:00</time></trkpt><trkpt lat="35.0909303" lon="32.4943918"><ele>19.7</ele><time>2015-04-25T18:35:53.0000000+00:00</time></trkpt><trkpt lat="35.0909809" lon="32.4944386"><ele>19.8</ele><time>2015-04-25T18:35:54.0000000+00:00</time></trkpt><trkpt lat="35.0910285" lon="32.4944819"><ele>19.9</ele><time>2015-04-25T18:35:55.0000000+00:00</time></trkpt><trkpt lat="35.0910797" lon="32.4945301"><ele>19.9</ele><time>2015-04-25T18:35:56.0000000+00:00</time></trkpt><trkpt lat="35.0911316" lon="32.4945778"><ele>19.9</ele><time>2015-04-25T18:35:57.0000000+00:00</time></trkpt><trkpt lat="35.091175" lon="32.4946195"><ele>19.9</ele><time>2015-04-25T18:35:58.0000000+00:00</time></trkpt><trkpt lat="35.091226" lon="32.4946671"><ele>19.9</ele><time>2015-04-25T18:35:59.0000000+00:00</time></trkpt><trkpt lat="35.0912715" lon="32.4947158"><ele>19.4</ele><time>2015-04-25T18:36:00.0000000+00:00</time></trkpt><trkpt lat="35.0913164" lon="32.4947596"><ele>19.2</ele><time>2015-04-25T18:36:01.0000000+00:00</time></trkpt><trkpt lat="35.0913706" lon="32.4948059"><ele>19.6</ele><time>2015-04-25T18:36:02.0000000+00:00</time></trkpt><trkpt lat="35.0914162" lon="32.4948494"><ele>19.7</ele><time>2015-04-25T18:36:03.0000000+00:00</time></trkpt><trkpt lat="35.091468" lon="32.4948875"><ele>19.3</ele><time>2015-04-25T18:36:04.0000000+00:00</time></trkpt><trkpt lat="35.0915187" lon="32.4949312"><ele>19.1</ele><time>2015-04-25T18:36:05.0000000+00:00</time></trkpt><trkpt lat="35.0915651" lon="32.4949744"><ele>19.0</ele><time>2015-04-25T18:36:06.0000000+00:00</time></trkpt><trkpt lat="35.0916176" lon="32.4950202"><ele>19.0</ele><time>2015-04-25T18:36:07.0000000+00:00</time></trkpt><trkpt lat="35.0916659" lon="32.4950668"><ele>19.0</ele><time>2015-04-25T18:36:08.0000000+00:00</time></trkpt><trkpt lat="35.0917052" lon="32.4951114"><ele>18.4</ele><time>2015-04-25T18:36:09.0000000+00:00</time></trkpt><trkpt lat="35.0917538" lon="32.4951545"><ele>18.7</ele><time>2015-04-25T18:36:10.0000000+00:00</time></trkpt><trkpt lat="35.0917982" lon="32.4951956"><ele>18.8</ele><time>2015-04-25T18:36:11.0000000+00:00</time></trkpt><trkpt lat="35.0918494" lon="32.4952355"><ele>18.9</ele><time>2015-04-25T18:36:12.0000000+00:00</time></trkpt><trkpt lat="35.0918965" lon="32.4952778"><ele>18.9</ele><time>2015-04-25T18:36:13.0000000+00:00</time></trkpt><trkpt lat="35.0919442" lon="32.4953205"><ele>18.9</ele><time>2015-04-25T18:36:14.0000000+00:00</time></trkpt><trkpt lat="35.0919925" lon="32.4953621"><ele>18.9</ele><time>2015-04-25T18:36:15.0000000+00:00</time></trkpt><trkpt lat="35.0920388" lon="32.4953996"><ele>19.4</ele><time>2015-04-25T18:36:16.0000000+00:00</time></trkpt><trkpt lat="35.092082" lon="32.4954358"><ele>19.7</ele><time>2015-04-25T18:36:17.0000000+00:00</time></trkpt><trkpt lat="35.092127" lon="32.4954754"><ele>19.8</ele><time>2015-04-25T18:36:18.0000000+00:00</time></trkpt><trkpt lat="35.0921674" lon="32.4955106"><ele>19.9</ele><time>2015-04-25T18:36:19.0000000+00:00</time></trkpt><trkpt lat="35.0922135" lon="32.4955445"><ele>19.9</ele><time>2015-04-25T18:36:20.0000000+00:00</time></trkpt><trkpt lat="35.0922611" lon="32.4955831"><ele>19.9</ele><time>2015-04-25T18:36:21.0000000+00:00</time></trkpt><trkpt lat="35.0923084" lon="32.495624"><ele>19.9</ele><time>2015-04-25T18:36:22.0000000+00:00</time></trkpt><trkpt lat="35.0923585" lon="32.495665"><ele>20.4</ele><time>2015-04-25T18:36:23.0000000+00:00</time></trkpt><trkpt lat="35.0924123" lon="32.49571"><ele>20.7</ele><time>2015-04-25T18:36:24.0000000+00:00</time></trkpt><trkpt lat="35.0924594" lon="32.4957495"><ele>20.8</ele><time>2015-04-25T18:36:25.0000000+00:00</time></trkpt><trkpt lat="35.0925084" lon="32.4957884"><ele>20.9</ele><time>2015-04-25T18:36:26.0000000+00:00</time></trkpt><trkpt lat="35.0925522" lon="32.4958265"><ele>20.9</ele><time>2015-04-25T18:36:27.0000000+00:00</time></trkpt><trkpt lat="35.0925971" lon="32.4958586"><ele>20.9</ele><time>2015-04-25T18:36:28.0000000+00:00</time></trkpt><trkpt lat="35.0926429" lon="32.4958932"><ele>20.9</ele><time>2015-04-25T18:36:29.0000000+00:00</time></trkpt><trkpt lat="35.0926812" lon="32.4959268"><ele>21.4</ele><time>2015-04-25T18:36:30.0000000+00:00</time></trkpt><trkpt lat="35.0927256" lon="32.4959646"><ele>21.7</ele><time>2015-04-25T18:36:31.0000000+00:00</time></trkpt><trkpt lat="35.0927774" lon="32.496012"><ele>21.8</ele><time>2015-04-25T18:36:32.0000000+00:00</time></trkpt><trkpt lat="35.0928213" lon="32.4960481"><ele>21.9</ele><time>2015-04-25T18:36:33.0000000+00:00</time></trkpt><trkpt lat="35.0928723" lon="32.4960908"><ele>21.9</ele><time>2015-04-25T18:36:34.0000000+00:00</time></trkpt><trkpt lat="35.0929182" lon="32.4961281"><ele>21.9</ele><time>2015-04-25T18:36:35.0000000+00:00</time></trkpt><trkpt lat="35.092963" lon="32.496169"><ele>21.9</ele><time>2015-04-25T18:36:36.0000000+00:00</time></trkpt><trkpt lat="35.0930125" lon="32.4962118"><ele>21.9</ele><time>2015-04-25T18:36:37.0000000+00:00</time></trkpt><trkpt lat="35.0930642" lon="32.496251"><ele>21.9</ele><time>2015-04-25T18:36:38.0000000+00:00</time></trkpt><trkpt lat="35.0931152" lon="32.4962917"><ele>21.9</ele><time>2015-04-25T18:36:39.0000000+00:00</time></trkpt><trkpt lat="35.0931676" lon="32.4963342"><ele>21.9</ele><time>2015-04-25T18:36:40.0000000+00:00</time></trkpt><trkpt lat="35.0932148" lon="32.4963726"><ele>21.9</ele><time>2015-04-25T18:36:41.0000000+00:00</time></trkpt><trkpt lat="35.093266" lon="32.496418"><ele>21.9</ele><time>2015-04-25T18:36:42.0000000+00:00</time></trkpt><trkpt lat="35.0933125" lon="32.4964568"><ele>21.9</ele><time>2015-04-25T18:36:43.0000000+00:00</time></trkpt><trkpt lat="35.0933618" lon="32.4964941"><ele>21.9</ele><time>2015-04-25T18:36:44.0000000+00:00</time></trkpt><trkpt lat="35.0934112" lon="32.4965352"><ele>21.9</ele><time>2015-04-25T18:36:45.0000000+00:00</time></trkpt><trkpt lat="35.0934626" lon="32.4965757"><ele>21.9</ele><time>2015-04-25T18:36:46.0000000+00:00</time></trkpt><trkpt lat="35.0935114" lon="32.496618"><ele>21.9</ele><time>2015-04-25T18:36:47.0000000+00:00</time></trkpt><trkpt lat="35.093564" lon="32.4966585"><ele>21.9</ele><time>2015-04-25T18:36:48.0000000+00:00</time></trkpt><trkpt lat="35.0936102" lon="32.4966965"><ele>21.9</ele><time>2015-04-25T18:36:49.0000000+00:00</time></trkpt><trkpt lat="35.0936561" lon="32.4967365"><ele>21.9</ele><time>2015-04-25T18:36:50.0000000+00:00</time></trkpt><trkpt lat="35.0937032" lon="32.4967732"><ele>21.9</ele><time>2015-04-25T18:36:51.0000000+00:00</time></trkpt><trkpt lat="35.0937397" lon="32.4968104"><ele>21.4</ele><time>2015-04-25T18:36:52.0000000+00:00</time></trkpt><trkpt lat="35.0937888" lon="32.4968502"><ele>21.2</ele><time>2015-04-25T18:36:53.0000000+00:00</time></trkpt><trkpt lat="35.093836" lon="32.4968842"><ele>21.6</ele><time>2015-04-25T18:36:54.0000000+00:00</time></trkpt><trkpt lat="35.0938844" lon="32.4969235"><ele>21.7</ele><time>2015-04-25T18:36:55.0000000+00:00</time></trkpt><trkpt lat="35.0939391" lon="32.4969603"><ele>21.8</ele><time>2015-04-25T18:36:56.0000000+00:00</time></trkpt><trkpt lat="35.0939867" lon="32.4969959"><ele>21.9</ele><time>2015-04-25T18:36:57.0000000+00:00</time></trkpt><trkpt lat="35.0940396" lon="32.497031"><ele>21.9</ele><time>2015-04-25T18:36:58.0000000+00:00</time></trkpt><trkpt lat="35.0940873" lon="32.4970617"><ele>21.9</ele><time>2015-04-25T18:36:59.0000000+00:00</time></trkpt><trkpt lat="35.0941358" lon="32.497094"><ele>21.9</ele><time>2015-04-25T18:37:00.0000000+00:00</time></trkpt><trkpt lat="35.0941872" lon="32.4971256"><ele>21.9</ele><time>2015-04-25T18:37:01.0000000+00:00</time></trkpt><trkpt lat="35.094242" lon="32.4971497"><ele>21.4</ele><time>2015-04-25T18:37:02.0000000+00:00</time></trkpt><trkpt lat="35.0942955" lon="32.4971799"><ele>21.2</ele><time>2015-04-25T18:37:03.0000000+00:00</time></trkpt><trkpt lat="35.0943464" lon="32.497214"><ele>21.6</ele><time>2015-04-25T18:37:04.0000000+00:00</time></trkpt><trkpt lat="35.0943958" lon="32.4972427"><ele>21.7</ele><time>2015-04-25T18:37:05.0000000+00:00</time></trkpt><trkpt lat="35.0944583" lon="32.4972758"><ele>21.8</ele><time>2015-04-25T18:37:06.0000000+00:00</time></trkpt><trkpt lat="35.0945107" lon="32.4973032"><ele>21.9</ele><time>2015-04-25T18:37:07.0000000+00:00</time></trkpt><trkpt lat="35.0945599" lon="32.4973306"><ele>21.9</ele><time>2015-04-25T18:37:08.0000000+00:00</time></trkpt><trkpt lat="35.0946163" lon="32.4973638"><ele>22.4</ele><time>2015-04-25T18:37:09.0000000+00:00</time></trkpt><trkpt lat="35.0946641" lon="32.4973937"><ele>22.7</ele><time>2015-04-25T18:37:10.0000000+00:00</time></trkpt><trkpt lat="35.0947173" lon="32.4974248"><ele>22.8</ele><time>2015-04-25T18:37:11.0000000+00:00</time></trkpt><trkpt lat="35.0947698" lon="32.4974544"><ele>22.4</ele><time>2015-04-25T18:37:12.0000000+00:00</time></trkpt><trkpt lat="35.0948185" lon="32.4974826"><ele>22.1</ele><time>2015-04-25T18:37:13.0000000+00:00</time></trkpt><trkpt lat="35.0948674" lon="32.4975122"><ele>22.5</ele><time>2015-04-25T18:37:14.0000000+00:00</time></trkpt><trkpt lat="35.0949141" lon="32.4975375"><ele>22.7</ele><time>2015-04-25T18:37:15.0000000+00:00</time></trkpt><trkpt lat="35.0949576" lon="32.4975612"><ele>22.8</ele><time>2015-04-25T18:37:16.0000000+00:00</time></trkpt><trkpt lat="35.0950041" lon="32.4975869"><ele>22.9</ele><time>2015-04-25T18:37:17.0000000+00:00</time></trkpt><trkpt lat="35.0950495" lon="32.4976088"><ele>22.9</ele><time>2015-04-25T18:37:18.0000000+00:00</time></trkpt><trkpt lat="35.0951004" lon="32.4976251"><ele>22.9</ele><time>2015-04-25T18:37:19.0000000+00:00</time></trkpt><trkpt lat="35.0951549" lon="32.4976493"><ele>23.4</ele><time>2015-04-25T18:37:20.0000000+00:00</time></trkpt><trkpt lat="35.0952165" lon="32.4976754"><ele>23.7</ele><time>2015-04-25T18:37:21.0000000+00:00</time></trkpt><trkpt lat="35.0952681" lon="32.4977088"><ele>23.8</ele><time>2015-04-25T18:37:22.0000000+00:00</time></trkpt><trkpt lat="35.0953168" lon="32.49774"><ele>23.4</ele><time>2015-04-25T18:37:23.0000000+00:00</time></trkpt><trkpt lat="35.0953657" lon="32.4977696"><ele>23.1</ele><time>2015-04-25T18:37:24.0000000+00:00</time></trkpt><trkpt lat="35.0954185" lon="32.4978008"><ele>23.0</ele><time>2015-04-25T18:37:25.0000000+00:00</time></trkpt><trkpt lat="35.0954762" lon="32.4978402"><ele>22.5</ele><time>2015-04-25T18:37:26.0000000+00:00</time></trkpt><trkpt lat="35.0955342" lon="32.4978758"><ele>21.7</ele><time>2015-04-25T18:37:27.0000000+00:00</time></trkpt><trkpt lat="35.0955932" lon="32.4979138"><ele>21.3</ele><time>2015-04-25T18:37:28.0000000+00:00</time></trkpt><trkpt lat="35.0956495" lon="32.4979507"><ele>20.6</ele><time>2015-04-25T18:37:29.0000000+00:00</time></trkpt><trkpt lat="35.0957076" lon="32.4979905"><ele>20.3</ele><time>2015-04-25T18:37:30.0000000+00:00</time></trkpt><trkpt lat="35.095763" lon="32.4980235"><ele>20.1</ele><time>2015-04-25T18:37:31.0000000+00:00</time></trkpt><trkpt lat="35.0958326" lon="32.4980632"><ele>19.5</ele><time>2015-04-25T18:37:32.0000000+00:00</time></trkpt><trkpt lat="35.095909" lon="32.4981064"><ele>19.2</ele><time>2015-04-25T18:37:33.0000000+00:00</time></trkpt><trkpt lat="35.0959705" lon="32.4981405"><ele>19.1</ele><time>2015-04-25T18:37:34.0000000+00:00</time></trkpt><trkpt lat="35.0960325" lon="32.498177"><ele>19.0</ele><time>2015-04-25T18:37:35.0000000+00:00</time></trkpt><trkpt lat="35.0961006" lon="32.4982235"><ele>18.5</ele><time>2015-04-25T18:37:36.0000000+00:00</time></trkpt><trkpt lat="35.096162" lon="32.4982722"><ele>18.2</ele><time>2015-04-25T18:37:37.0000000+00:00</time></trkpt><trkpt lat="35.0962308" lon="32.4983163"><ele>17.6</ele><time>2015-04-25T18:37:38.0000000+00:00</time></trkpt><trkpt lat="35.0962939" lon="32.4983627"><ele>17.2</ele><time>2015-04-25T18:37:39.0000000+00:00</time></trkpt><trkpt lat="35.096361" lon="32.4984116"><ele>17.1</ele><time>2015-04-25T18:37:40.0000000+00:00</time></trkpt><trkpt lat="35.0964223" lon="32.4984458"><ele>17.5</ele><time>2015-04-25T18:37:41.0000000+00:00</time></trkpt><trkpt lat="35.0964991" lon="32.498479"><ele>17.2</ele><time>2015-04-25T18:37:42.0000000+00:00</time></trkpt><trkpt lat="35.0965602" lon="32.4985165"><ele>17.1</ele><time>2015-04-25T18:37:43.0000000+00:00</time></trkpt><trkpt lat="35.0966334" lon="32.4985674"><ele>17.0</ele><time>2015-04-25T18:37:44.0000000+00:00</time></trkpt><trkpt lat="35.0967027" lon="32.4986086"><ele>18.0</ele><time>2015-04-25T18:37:45.0000000+00:00</time></trkpt><trkpt lat="35.0967655" lon="32.4986475"><ele>17.9</ele><time>2015-04-25T18:37:46.0000000+00:00</time></trkpt><trkpt lat="35.0968241" lon="32.4986932"><ele>18.4</ele><time>2015-04-25T18:37:47.0000000+00:00</time></trkpt><trkpt lat="35.0968878" lon="32.498742"><ele>18.7</ele><time>2015-04-25T18:37:48.0000000+00:00</time></trkpt><trkpt lat="35.096948" lon="32.4987854"><ele>18.8</ele><time>2015-04-25T18:37:49.0000000+00:00</time></trkpt><trkpt lat="35.0970052" lon="32.4988248"><ele>19.4</ele><time>2015-04-25T18:37:50.0000000+00:00</time></trkpt><trkpt lat="35.0970516" lon="32.4988635"><ele>19.6</ele><time>2015-04-25T18:37:51.0000000+00:00</time></trkpt><trkpt lat="35.0971084" lon="32.498905"><ele>20.3</ele><time>2015-04-25T18:37:52.0000000+00:00</time></trkpt><trkpt lat="35.0971653" lon="32.498954"><ele>20.6</ele><time>2015-04-25T18:37:53.0000000+00:00</time></trkpt><trkpt lat="35.0972402" lon="32.498994"><ele>21.3</ele><time>2015-04-25T18:37:54.0000000+00:00</time></trkpt><trkpt lat="35.097287" lon="32.4990393"><ele>21.1</ele><time>2015-04-25T18:37:55.0000000+00:00</time></trkpt><trkpt lat="35.097355" lon="32.4990894"><ele>21.0</ele><time>2015-04-25T18:37:56.0000000+00:00</time></trkpt><trkpt lat="35.0974097" lon="32.4991353"><ele>21.0</ele><time>2015-04-25T18:37:57.0000000+00:00</time></trkpt><trkpt lat="35.0974621" lon="32.4991722"><ele>21.0</ele><time>2015-04-25T18:37:58.0000000+00:00</time></trkpt><trkpt lat="35.0975252" lon="32.4992145"><ele>21.4</ele><time>2015-04-25T18:37:59.0000000+00:00</time></trkpt><trkpt lat="35.0975837" lon="32.4992541"><ele>21.7</ele><time>2015-04-25T18:38:00.0000000+00:00</time></trkpt><trkpt lat="35.0976354" lon="32.4992876"><ele>21.3</ele><time>2015-04-25T18:38:01.0000000+00:00</time></trkpt><trkpt lat="35.0976848" lon="32.4993339"><ele>20.6</ele><time>2015-04-25T18:38:02.0000000+00:00</time></trkpt><trkpt lat="35.0977374" lon="32.4993731"><ele>20.3</ele><time>2015-04-25T18:38:03.0000000+00:00</time></trkpt><trkpt lat="35.097794" lon="32.4994101"><ele>20.6</ele><time>2015-04-25T18:38:04.0000000+00:00</time></trkpt><trkpt lat="35.0978541" lon="32.4994508"><ele>20.3</ele><time>2015-04-25T18:38:05.0000000+00:00</time></trkpt><trkpt lat="35.0979091" lon="32.499492"><ele>20.1</ele><time>2015-04-25T18:38:06.0000000+00:00</time></trkpt><trkpt lat="35.0979714" lon="32.4995395"><ele>20.0</ele><time>2015-04-25T18:38:07.0000000+00:00</time></trkpt><trkpt lat="35.0980307" lon="32.4995811"><ele>20.0</ele><time>2015-04-25T18:38:08.0000000+00:00</time></trkpt><trkpt lat="35.0980954" lon="32.4996153"><ele>20.0</ele><time>2015-04-25T18:38:09.0000000+00:00</time></trkpt><trkpt lat="35.0981577" lon="32.499663"><ele>19.9</ele><time>2015-04-25T18:38:10.0000000+00:00</time></trkpt><trkpt lat="35.0982159" lon="32.4997042"><ele>20.4</ele><time>2015-04-25T18:38:11.0000000+00:00</time></trkpt><trkpt lat="35.098283" lon="32.4997473"><ele>20.2</ele><time>2015-04-25T18:38:12.0000000+00:00</time></trkpt><trkpt lat="35.0983489" lon="32.4997892"><ele>20.1</ele><time>2015-04-25T18:38:13.0000000+00:00</time></trkpt><trkpt lat="35.0984066" lon="32.4998364"><ele>20.5</ele><time>2015-04-25T18:38:14.0000000+00:00</time></trkpt><trkpt lat="35.0984702" lon="32.4998742"><ele>20.7</ele><time>2015-04-25T18:38:15.0000000+00:00</time></trkpt><trkpt lat="35.0985281" lon="32.4999054"><ele>21.3</ele><time>2015-04-25T18:38:16.0000000+00:00</time></trkpt><trkpt lat="35.0985832" lon="32.4999404"><ele>21.6</ele><time>2015-04-25T18:38:17.0000000+00:00</time></trkpt><trkpt lat="35.0986416" lon="32.4999699"><ele>22.3</ele><time>2015-04-25T18:38:18.0000000+00:00</time></trkpt><trkpt lat="35.0986905" lon="32.500012"><ele>22.6</ele><time>2015-04-25T18:38:19.0000000+00:00</time></trkpt><trkpt lat="35.0987589" lon="32.5000636"><ele>22.8</ele><time>2015-04-25T18:38:20.0000000+00:00</time></trkpt><trkpt lat="35.0988077" lon="32.5001137"><ele>22.8</ele><time>2015-04-25T18:38:21.0000000+00:00</time></trkpt><trkpt lat="35.098862" lon="32.5001486"><ele>23.4</ele><time>2015-04-25T18:38:22.0000000+00:00</time></trkpt><trkpt lat="35.0989217" lon="32.5001918"><ele>23.7</ele><time>2015-04-25T18:38:23.0000000+00:00</time></trkpt><trkpt lat="35.098976" lon="32.5002394"><ele>23.8</ele><time>2015-04-25T18:38:24.0000000+00:00</time></trkpt><trkpt lat="35.0990415" lon="32.5002864"><ele>23.9</ele><time>2015-04-25T18:38:25.0000000+00:00</time></trkpt><trkpt lat="35.0991072" lon="32.5003293"><ele>23.9</ele><time>2015-04-25T18:38:26.0000000+00:00</time></trkpt><trkpt lat="35.09917" lon="32.5003656"><ele>23.9</ele><time>2015-04-25T18:38:27.0000000+00:00</time></trkpt><trkpt lat="35.099237" lon="32.5004166"><ele>23.9</ele><time>2015-04-25T18:38:28.0000000+00:00</time></trkpt><trkpt lat="35.099299" lon="32.5004565"><ele>24.4</ele><time>2015-04-25T18:38:29.0000000+00:00</time></trkpt><trkpt lat="35.099342" lon="32.5004985"><ele>24.7</ele><time>2015-04-25T18:38:30.0000000+00:00</time></trkpt><trkpt lat="35.0994019" lon="32.5005396"><ele>24.8</ele><time>2015-04-25T18:38:31.0000000+00:00</time></trkpt><trkpt lat="35.0994491" lon="32.5005839"><ele>24.4</ele><time>2015-04-25T18:38:32.0000000+00:00</time></trkpt><trkpt lat="35.0995117" lon="32.5006172"><ele>24.1</ele><time>2015-04-25T18:38:33.0000000+00:00</time></trkpt><trkpt lat="35.0995714" lon="32.5006542"><ele>24.5</ele><time>2015-04-25T18:38:34.0000000+00:00</time></trkpt><trkpt lat="35.0996236" lon="32.5006953"><ele>24.7</ele><time>2015-04-25T18:38:35.0000000+00:00</time></trkpt><trkpt lat="35.0996958" lon="32.5007282"><ele>24.3</ele><time>2015-04-25T18:38:36.0000000+00:00</time></trkpt><trkpt lat="35.0997623" lon="32.500773"><ele>24.1</ele><time>2015-04-25T18:38:37.0000000+00:00</time></trkpt><trkpt lat="35.0998283" lon="32.5008142"><ele>24.0</ele><time>2015-04-25T18:38:38.0000000+00:00</time></trkpt><trkpt lat="35.099886" lon="32.5008553"><ele>24.0</ele><time>2015-04-25T18:38:39.0000000+00:00</time></trkpt><trkpt lat="35.0999508" lon="32.5009058"><ele>24.5</ele><time>2015-04-25T18:38:40.0000000+00:00</time></trkpt><trkpt lat="35.1000176" lon="32.5009537"><ele>24.7</ele><time>2015-04-25T18:38:41.0000000+00:00</time></trkpt><trkpt lat="35.1000799" lon="32.5010045"><ele>24.8</ele><time>2015-04-25T18:38:42.0000000+00:00</time></trkpt><trkpt lat="35.1001414" lon="32.5010487"><ele>24.9</ele><time>2015-04-25T18:38:43.0000000+00:00</time></trkpt><trkpt lat="35.1002002" lon="32.5010993"><ele>24.4</ele><time>2015-04-25T18:38:44.0000000+00:00</time></trkpt><trkpt lat="35.1002547" lon="32.5011361"><ele>24.2</ele><time>2015-04-25T18:38:45.0000000+00:00</time></trkpt><trkpt lat="35.1003068" lon="32.5011788"><ele>23.5</ele><time>2015-04-25T18:38:46.0000000+00:00</time></trkpt><trkpt lat="35.1003653" lon="32.5012242"><ele>23.2</ele><time>2015-04-25T18:38:47.0000000+00:00</time></trkpt><trkpt lat="35.1004339" lon="32.501269"><ele>23.6</ele><time>2015-04-25T18:38:48.0000000+00:00</time></trkpt><trkpt lat="35.1004983" lon="32.5013057"><ele>23.8</ele><time>2015-04-25T18:38:49.0000000+00:00</time></trkpt><trkpt lat="35.1005582" lon="32.5013507"><ele>23.8</ele><time>2015-04-25T18:38:50.0000000+00:00</time></trkpt><trkpt lat="35.1006184" lon="32.5013942"><ele>23.9</ele><time>2015-04-25T18:38:51.0000000+00:00</time></trkpt><trkpt lat="35.1006664" lon="32.5014398"><ele>23.9</ele><time>2015-04-25T18:38:52.0000000+00:00</time></trkpt><trkpt lat="35.1007281" lon="32.5014836"><ele>23.9</ele><time>2015-04-25T18:38:53.0000000+00:00</time></trkpt><trkpt lat="35.1007869" lon="32.5015229"><ele>23.9</ele><time>2015-04-25T18:38:54.0000000+00:00</time></trkpt><trkpt lat="35.1008472" lon="32.501556"><ele>24.4</ele><time>2015-04-25T18:38:55.0000000+00:00</time></trkpt><trkpt lat="35.100907" lon="32.5015908"><ele>25.2</ele><time>2015-04-25T18:38:56.0000000+00:00</time></trkpt><trkpt lat="35.1009658" lon="32.5016274"><ele>25.1</ele><time>2015-04-25T18:38:57.0000000+00:00</time></trkpt><trkpt lat="35.101025" lon="32.5016608"><ele>25.0</ele><time>2015-04-25T18:38:58.0000000+00:00</time></trkpt><trkpt lat="35.101082" lon="32.5017012"><ele>25.0</ele><time>2015-04-25T18:38:59.0000000+00:00</time></trkpt><trkpt lat="35.1011527" lon="32.5017332"><ele>25.4</ele><time>2015-04-25T18:39:00.0000000+00:00</time></trkpt><trkpt lat="35.101212" lon="32.5017721"><ele>26.2</ele><time>2015-04-25T18:39:01.0000000+00:00</time></trkpt><trkpt lat="35.1012647" lon="32.5018117"><ele>26.6</ele><time>2015-04-25T18:39:02.0000000+00:00</time></trkpt><trkpt lat="35.1013258" lon="32.5018538"><ele>26.7</ele><time>2015-04-25T18:39:03.0000000+00:00</time></trkpt><trkpt lat="35.101384" lon="32.5018958"><ele>26.8</ele><time>2015-04-25T18:39:04.0000000+00:00</time></trkpt><trkpt lat="35.1014436" lon="32.5019322"><ele>26.9</ele><time>2015-04-25T18:39:05.0000000+00:00</time></trkpt><trkpt lat="35.1014918" lon="32.501974"><ele>26.9</ele><time>2015-04-25T18:39:06.0000000+00:00</time></trkpt><trkpt lat="35.1015446" lon="32.5019986"><ele>26.4</ele><time>2015-04-25T18:39:07.0000000+00:00</time></trkpt><trkpt lat="35.1016002" lon="32.50203"><ele>26.2</ele><time>2015-04-25T18:39:08.0000000+00:00</time></trkpt><trkpt lat="35.1016546" lon="32.5020553"><ele>26.1</ele><time>2015-04-25T18:39:09.0000000+00:00</time></trkpt><trkpt lat="35.1017113" lon="32.5020876"><ele>26.0</ele><time>2015-04-25T18:39:10.0000000+00:00</time></trkpt><trkpt lat="35.1017781" lon="32.502129"><ele>26.5</ele><time>2015-04-25T18:39:11.0000000+00:00</time></trkpt><trkpt lat="35.1018296" lon="32.5021674"><ele>26.2</ele><time>2015-04-25T18:39:12.0000000+00:00</time></trkpt><trkpt lat="35.101883" lon="32.5022028"><ele>26.1</ele><time>2015-04-25T18:39:13.0000000+00:00</time></trkpt><trkpt lat="35.1019407" lon="32.5022313"><ele>26.5</ele><time>2015-04-25T18:39:14.0000000+00:00</time></trkpt><trkpt lat="35.1019942" lon="32.5022614"><ele>26.2</ele><time>2015-04-25T18:39:15.0000000+00:00</time></trkpt><trkpt lat="35.1020575" lon="32.5022971"><ele>26.1</ele><time>2015-04-25T18:39:16.0000000+00:00</time></trkpt><trkpt lat="35.1021158" lon="32.5023334"><ele>26.0</ele><time>2015-04-25T18:39:17.0000000+00:00</time></trkpt><trkpt lat="35.102174" lon="32.5023631"><ele>26.0</ele><time>2015-04-25T18:39:18.0000000+00:00</time></trkpt><trkpt lat="35.1022339" lon="32.5023952"><ele>25.9</ele><time>2015-04-25T18:39:19.0000000+00:00</time></trkpt><trkpt lat="35.1022884" lon="32.5024309"><ele>25.9</ele><time>2015-04-25T18:39:20.0000000+00:00</time></trkpt><trkpt lat="35.1023441" lon="32.5024688"><ele>25.9</ele><time>2015-04-25T18:39:21.0000000+00:00</time></trkpt><trkpt lat="35.1023942" lon="32.5025099"><ele>25.9</ele><time>2015-04-25T18:39:22.0000000+00:00</time></trkpt><trkpt lat="35.1024475" lon="32.5025364"><ele>25.9</ele><time>2015-04-25T18:39:23.0000000+00:00</time></trkpt><trkpt lat="35.1025029" lon="32.5025679"><ele>25.9</ele><time>2015-04-25T18:39:24.0000000+00:00</time></trkpt><trkpt lat="35.1025629" lon="32.5025985"><ele>25.9</ele><time>2015-04-25T18:39:25.0000000+00:00</time></trkpt><trkpt lat="35.1026097" lon="32.5026142"><ele>25.9</ele><time>2015-04-25T18:39:26.0000000+00:00</time></trkpt><trkpt lat="35.1026654" lon="32.5026457"><ele>25.9</ele><time>2015-04-25T18:39:27.0000000+00:00</time></trkpt><trkpt lat="35.1027212" lon="32.5026729"><ele>25.9</ele><time>2015-04-25T18:39:28.0000000+00:00</time></trkpt><trkpt lat="35.1027647" lon="32.5026997"><ele>25.9</ele><time>2015-04-25T18:39:29.0000000+00:00</time></trkpt><trkpt lat="35.1028114" lon="32.5027413"><ele>25.4</ele><time>2015-04-25T18:39:30.0000000+00:00</time></trkpt><trkpt lat="35.1028526" lon="32.5027731"><ele>24.7</ele><time>2015-04-25T18:39:31.0000000+00:00</time></trkpt><trkpt lat="35.1029147" lon="32.5028176"><ele>24.3</ele><time>2015-04-25T18:39:32.0000000+00:00</time></trkpt><trkpt lat="35.1029694" lon="32.502853"><ele>24.6</ele><time>2015-04-25T18:39:33.0000000+00:00</time></trkpt><trkpt lat="35.1030136" lon="32.5028821"><ele>24.8</ele><time>2015-04-25T18:39:34.0000000+00:00</time></trkpt><trkpt lat="35.1030636" lon="32.5029184"><ele>24.9</ele><time>2015-04-25T18:39:35.0000000+00:00</time></trkpt><trkpt lat="35.103115" lon="32.5029604"><ele>24.4</ele><time>2015-04-25T18:39:36.0000000+00:00</time></trkpt><trkpt lat="35.1031612" lon="32.5029933"><ele>24.7</ele><time>2015-04-25T18:39:37.0000000+00:00</time></trkpt><trkpt lat="35.1032207" lon="32.5030268"><ele>24.8</ele><time>2015-04-25T18:39:38.0000000+00:00</time></trkpt><trkpt lat="35.1032687" lon="32.5030647"><ele>24.9</ele><time>2015-04-25T18:39:39.0000000+00:00</time></trkpt><trkpt lat="35.103322" lon="32.5031045"><ele>24.9</ele><time>2015-04-25T18:39:40.0000000+00:00</time></trkpt><trkpt lat="35.1033759" lon="32.5031396"><ele>24.4</ele><time>2015-04-25T18:39:41.0000000+00:00</time></trkpt><trkpt lat="35.1034218" lon="32.503176"><ele>24.2</ele><time>2015-04-25T18:39:42.0000000+00:00</time></trkpt><trkpt lat="35.1034718" lon="32.5032193"><ele>24.1</ele><time>2015-04-25T18:39:43.0000000+00:00</time></trkpt><trkpt lat="35.1035233" lon="32.5032587"><ele>24.0</ele><time>2015-04-25T18:39:44.0000000+00:00</time></trkpt><trkpt lat="35.1035742" lon="32.5032976"><ele>24.0</ele><time>2015-04-25T18:39:45.0000000+00:00</time></trkpt><trkpt lat="35.1036196" lon="32.5033312"><ele>23.9</ele><time>2015-04-25T18:39:46.0000000+00:00</time></trkpt><trkpt lat="35.1036643" lon="32.5033637"><ele>24.4</ele><time>2015-04-25T18:39:47.0000000+00:00</time></trkpt><trkpt lat="35.1037142" lon="32.5034051"><ele>24.7</ele><time>2015-04-25T18:39:48.0000000+00:00</time></trkpt><trkpt lat="35.1037651" lon="32.5034458"><ele>24.8</ele><time>2015-04-25T18:39:49.0000000+00:00</time></trkpt><trkpt lat="35.1038124" lon="32.5034714"><ele>25.4</ele><time>2015-04-25T18:39:50.0000000+00:00</time></trkpt><trkpt lat="35.103858" lon="32.5035041"><ele>25.6</ele><time>2015-04-25T18:39:51.0000000+00:00</time></trkpt><trkpt lat="35.1039051" lon="32.5035386"><ele>25.8</ele><time>2015-04-25T18:39:52.0000000+00:00</time></trkpt><trkpt lat="35.1039497" lon="32.5035686"><ele>25.9</ele><time>2015-04-25T18:39:53.0000000+00:00</time></trkpt><trkpt lat="35.1039949" lon="32.5035927"><ele>26.9</ele><time>2015-04-25T18:39:54.0000000+00:00</time></trkpt><trkpt lat="35.104041" lon="32.5036231"><ele>27.4</ele><time>2015-04-25T18:39:55.0000000+00:00</time></trkpt><trkpt lat="35.1040929" lon="32.5036546"><ele>27.7</ele><time>2015-04-25T18:39:56.0000000+00:00</time></trkpt><trkpt lat="35.1041462" lon="32.5036801"><ele>27.8</ele><time>2015-04-25T18:39:57.0000000+00:00</time></trkpt><trkpt lat="35.1041832" lon="32.503717"><ele>27.4</ele><time>2015-04-25T18:39:58.0000000+00:00</time></trkpt><trkpt lat="35.1042381" lon="32.5037399"><ele>27.1</ele><time>2015-04-25T18:39:59.0000000+00:00</time></trkpt><trkpt lat="35.1043" lon="32.5037681"><ele>27.0</ele><time>2015-04-25T18:40:00.0000000+00:00</time></trkpt><trkpt lat="35.1043614" lon="32.5037931"><ele>26.5</ele><time>2015-04-25T18:40:01.0000000+00:00</time></trkpt><trkpt lat="35.1044267" lon="32.5038101"><ele>26.2</ele><time>2015-04-25T18:40:02.0000000+00:00</time></trkpt><trkpt lat="35.1044849" lon="32.5038333"><ele>26.1</ele><time>2015-04-25T18:40:03.0000000+00:00</time></trkpt><trkpt lat="35.1045559" lon="32.5038524"><ele>26.0</ele><time>2015-04-25T18:40:04.0000000+00:00</time></trkpt><trkpt lat="35.1046337" lon="32.5038721"><ele>26.0</ele><time>2015-04-25T18:40:05.0000000+00:00</time></trkpt><trkpt lat="35.1047001" lon="32.503892"><ele>25.9</ele><time>2015-04-25T18:40:06.0000000+00:00</time></trkpt><trkpt lat="35.1047657" lon="32.5039083"><ele>25.9</ele><time>2015-04-25T18:40:07.0000000+00:00</time></trkpt><trkpt lat="35.1048253" lon="32.5039207"><ele>25.9</ele><time>2015-04-25T18:40:08.0000000+00:00</time></trkpt><trkpt lat="35.1048887" lon="32.5039335"><ele>25.9</ele><time>2015-04-25T18:40:09.0000000+00:00</time></trkpt><trkpt lat="35.1049578" lon="32.5039438"><ele>26.4</ele><time>2015-04-25T18:40:10.0000000+00:00</time></trkpt><trkpt lat="35.1050168" lon="32.5039505"><ele>26.7</ele><time>2015-04-25T18:40:11.0000000+00:00</time></trkpt><trkpt lat="35.1050884" lon="32.5039688"><ele>26.8</ele><time>2015-04-25T18:40:12.0000000+00:00</time></trkpt><trkpt lat="35.1051565" lon="32.5039805"><ele>26.4</ele><time>2015-04-25T18:40:13.0000000+00:00</time></trkpt><trkpt lat="35.1052128" lon="32.5039949"><ele>26.1</ele><time>2015-04-25T18:40:14.0000000+00:00</time></trkpt><trkpt lat="35.105271" lon="32.5040057"><ele>26.0</ele><time>2015-04-25T18:40:15.0000000+00:00</time></trkpt><trkpt lat="35.1053429" lon="32.504014"><ele>25.5</ele><time>2015-04-25T18:40:16.0000000+00:00</time></trkpt><trkpt lat="35.1054162" lon="32.5040277"><ele>25.2</ele><time>2015-04-25T18:40:17.0000000+00:00</time></trkpt><trkpt lat="35.1054758" lon="32.5040466"><ele>25.1</ele><time>2015-04-25T18:40:18.0000000+00:00</time></trkpt><trkpt lat="35.1055341" lon="32.5040686"><ele>25.0</ele><time>2015-04-25T18:40:19.0000000+00:00</time></trkpt><trkpt lat="35.1056036" lon="32.5040843"><ele>25.0</ele><time>2015-04-25T18:40:20.0000000+00:00</time></trkpt><trkpt lat="35.1056596" lon="32.5041089"><ele>24.9</ele><time>2015-04-25T18:40:21.0000000+00:00</time></trkpt><trkpt lat="35.1057222" lon="32.5041379"><ele>24.9</ele><time>2015-04-25T18:40:22.0000000+00:00</time></trkpt><trkpt lat="35.1057764" lon="32.5041696"><ele>24.9</ele><time>2015-04-25T18:40:23.0000000+00:00</time></trkpt><trkpt lat="35.1058402" lon="32.5042108"><ele>24.9</ele><time>2015-04-25T18:40:24.0000000+00:00</time></trkpt><trkpt lat="35.105903" lon="32.504257"><ele>25.4</ele><time>2015-04-25T18:40:25.0000000+00:00</time></trkpt><trkpt lat="35.1059589" lon="32.5042982"><ele>25.2</ele><time>2015-04-25T18:40:26.0000000+00:00</time></trkpt><trkpt lat="35.1060102" lon="32.5043345"><ele>25.1</ele><time>2015-04-25T18:40:27.0000000+00:00</time></trkpt><trkpt lat="35.1060692" lon="32.5043656"><ele>25.0</ele><time>2015-04-25T18:40:28.0000000+00:00</time></trkpt><trkpt lat="35.1061367" lon="32.5044038"><ele>26.0</ele><time>2015-04-25T18:40:29.0000000+00:00</time></trkpt><trkpt lat="35.1061906" lon="32.5044358"><ele>26.4</ele><time>2015-04-25T18:40:30.0000000+00:00</time></trkpt><trkpt lat="35.1062364" lon="32.5044708"><ele>26.7</ele><time>2015-04-25T18:40:31.0000000+00:00</time></trkpt><trkpt lat="35.1062914" lon="32.5045052"><ele>26.8</ele><time>2015-04-25T18:40:32.0000000+00:00</time></trkpt><trkpt lat="35.1063409" lon="32.504539"><ele>26.9</ele><time>2015-04-25T18:40:33.0000000+00:00</time></trkpt><trkpt lat="35.1063843" lon="32.5045744"><ele>26.9</ele><time>2015-04-25T18:40:34.0000000+00:00</time></trkpt><trkpt lat="35.1064263" lon="32.5046051"><ele>26.9</ele><time>2015-04-25T18:40:35.0000000+00:00</time></trkpt><trkpt lat="35.106488" lon="32.504637"><ele>26.9</ele><time>2015-04-25T18:40:36.0000000+00:00</time></trkpt><trkpt lat="35.1065343" lon="32.5046747"><ele>26.9</ele><time>2015-04-25T18:40:37.0000000+00:00</time></trkpt><trkpt lat="35.1065894" lon="32.504715"><ele>26.4</ele><time>2015-04-25T18:40:38.0000000+00:00</time></trkpt><trkpt lat="35.1066366" lon="32.5047519"><ele>26.2</ele><time>2015-04-25T18:40:39.0000000+00:00</time></trkpt><trkpt lat="35.10669" lon="32.5047917"><ele>26.1</ele><time>2015-04-25T18:40:40.0000000+00:00</time></trkpt><trkpt lat="35.1067384" lon="32.5048264"><ele>25.5</ele><time>2015-04-25T18:40:41.0000000+00:00</time></trkpt><trkpt lat="35.1067957" lon="32.5048526"><ele>25.2</ele><time>2015-04-25T18:40:42.0000000+00:00</time></trkpt><trkpt lat="35.1068441" lon="32.5048862"><ele>25.1</ele><time>2015-04-25T18:40:43.0000000+00:00</time></trkpt><trkpt lat="35.1068866" lon="32.5049238"><ele>25.0</ele><time>2015-04-25T18:40:44.0000000+00:00</time></trkpt><trkpt lat="35.1069363" lon="32.5049465"><ele>24.5</ele><time>2015-04-25T18:40:45.0000000+00:00</time></trkpt><trkpt lat="35.1069778" lon="32.5049775"><ele>23.7</ele><time>2015-04-25T18:40:46.0000000+00:00</time></trkpt><trkpt lat="35.107022" lon="32.505015"><ele>23.8</ele><time>2015-04-25T18:40:47.0000000+00:00</time></trkpt><trkpt lat="35.1070675" lon="32.5050518"><ele>23.9</ele><time>2015-04-25T18:40:48.0000000+00:00</time></trkpt><trkpt lat="35.1071395" lon="32.505099"><ele>24.7</ele><time>2015-04-25T18:40:50.0000000+00:00</time></trkpt><trkpt lat="35.1072153" lon="32.505142"><ele>24.9</ele><time>2015-04-25T18:40:52.0000000+00:00</time></trkpt><trkpt lat="35.1072586" lon="32.5051754"><ele>24.4</ele><time>2015-04-25T18:40:53.0000000+00:00</time></trkpt><trkpt lat="35.107336" lon="32.5052267"><ele>24.3</ele><time>2015-04-25T18:40:55.0000000+00:00</time></trkpt><trkpt lat="35.1073825" lon="32.5052493"><ele>24.1</ele><time>2015-04-25T18:40:56.0000000+00:00</time></trkpt><trkpt lat="35.10744" lon="32.5052692"><ele>25.0</ele><time>2015-04-25T18:40:57.0000000+00:00</time></trkpt><trkpt lat="35.1074929" lon="32.505292"><ele>25.5</ele><time>2015-04-25T18:40:58.0000000+00:00</time></trkpt><trkpt lat="35.1075348" lon="32.5053244"><ele>25.7</ele><time>2015-04-25T18:40:59.0000000+00:00</time></trkpt><trkpt lat="35.1075832" lon="32.5053571"><ele>25.3</ele><time>2015-04-25T18:41:00.0000000+00:00</time></trkpt><trkpt lat="35.1076263" lon="32.5053898"><ele>24.6</ele><time>2015-04-25T18:41:01.0000000+00:00</time></trkpt><trkpt lat="35.1076638" lon="32.5054206"><ele>24.3</ele><time>2015-04-25T18:41:02.0000000+00:00</time></trkpt><trkpt lat="35.1077107" lon="32.5054364"><ele>23.6</ele><time>2015-04-25T18:41:03.0000000+00:00</time></trkpt><trkpt lat="35.1077842" lon="32.5054891"><ele>23.1</ele><time>2015-04-25T18:41:05.0000000+00:00</time></trkpt><trkpt lat="35.1078251" lon="32.5055215"><ele>23.0</ele><time>2015-04-25T18:41:06.0000000+00:00</time></trkpt><trkpt lat="35.1078678" lon="32.505545"><ele>23.5</ele><time>2015-04-25T18:41:07.0000000+00:00</time></trkpt><trkpt lat="35.1079234" lon="32.5055774"><ele>23.7</ele><time>2015-04-25T18:41:08.0000000+00:00</time></trkpt><trkpt lat="35.1079783" lon="32.5056179"><ele>23.8</ele><time>2015-04-25T18:41:09.0000000+00:00</time></trkpt><trkpt lat="35.1080354" lon="32.5056664"><ele>23.9</ele><time>2015-04-25T18:41:10.0000000+00:00</time></trkpt><trkpt lat="35.108089" lon="32.5057149"><ele>23.4</ele><time>2015-04-25T18:41:11.0000000+00:00</time></trkpt><trkpt lat="35.1081409" lon="32.5057573"><ele>23.2</ele><time>2015-04-25T18:41:12.0000000+00:00</time></trkpt><trkpt lat="35.1081981" lon="32.5057947"><ele>23.5</ele><time>2015-04-25T18:41:13.0000000+00:00</time></trkpt><trkpt lat="35.1082594" lon="32.5058335"><ele>23.2</ele><time>2015-04-25T18:41:14.0000000+00:00</time></trkpt><trkpt lat="35.1083104" lon="32.5058735"><ele>23.6</ele><time>2015-04-25T18:41:15.0000000+00:00</time></trkpt><trkpt lat="35.1083674" lon="32.5059104"><ele>23.8</ele><time>2015-04-25T18:41:16.0000000+00:00</time></trkpt><trkpt lat="35.1084203" lon="32.5059475"><ele>23.8</ele><time>2015-04-25T18:41:17.0000000+00:00</time></trkpt><trkpt lat="35.1084696" lon="32.5059852"><ele>23.4</ele><time>2015-04-25T18:41:18.0000000+00:00</time></trkpt><trkpt lat="35.1085243" lon="32.506027"><ele>23.7</ele><time>2015-04-25T18:41:19.0000000+00:00</time></trkpt><trkpt lat="35.1085738" lon="32.5060698"><ele>23.3</ele><time>2015-04-25T18:41:20.0000000+00:00</time></trkpt><trkpt lat="35.1086283" lon="32.5061106"><ele>23.6</ele><time>2015-04-25T18:41:21.0000000+00:00</time></trkpt><trkpt lat="35.1086797" lon="32.5061429"><ele>23.8</ele><time>2015-04-25T18:41:22.0000000+00:00</time></trkpt><trkpt lat="35.1087391" lon="32.5061766"><ele>23.9</ele><time>2015-04-25T18:41:23.0000000+00:00</time></trkpt><trkpt lat="35.1087988" lon="32.5062158"><ele>24.4</ele><time>2015-04-25T18:41:24.0000000+00:00</time></trkpt><trkpt lat="35.1088514" lon="32.5062505"><ele>25.2</ele><time>2015-04-25T18:41:25.0000000+00:00</time></trkpt><trkpt lat="35.1089118" lon="32.5062837"><ele>25.5</ele><time>2015-04-25T18:41:26.0000000+00:00</time></trkpt><trkpt lat="35.1089624" lon="32.5063282"><ele>25.2</ele><time>2015-04-25T18:41:27.0000000+00:00</time></trkpt><trkpt lat="35.1090192" lon="32.5063758"><ele>25.1</ele><time>2015-04-25T18:41:28.0000000+00:00</time></trkpt><trkpt lat="35.1090794" lon="32.5064096"><ele>25.0</ele><time>2015-04-25T18:41:29.0000000+00:00</time></trkpt><trkpt lat="35.109133" lon="32.5064473"><ele>25.0</ele><time>2015-04-25T18:41:30.0000000+00:00</time></trkpt><trkpt lat="35.1091817" lon="32.5064829"><ele>25.4</ele><time>2015-04-25T18:41:31.0000000+00:00</time></trkpt><trkpt lat="35.1092255" lon="32.5065289"><ele>26.7</ele><time>2015-04-25T18:41:32.0000000+00:00</time></trkpt><trkpt lat="35.1092683" lon="32.5065591"><ele>27.3</ele><time>2015-04-25T18:41:33.0000000+00:00</time></trkpt><trkpt lat="35.1093169" lon="32.5065884"><ele>27.6</ele><time>2015-04-25T18:41:34.0000000+00:00</time></trkpt><trkpt lat="35.1093599" lon="32.506617"><ele>27.8</ele><time>2015-04-25T18:41:35.0000000+00:00</time></trkpt><trkpt lat="35.1094395" lon="32.5066723"><ele>27.9</ele><time>2015-04-25T18:41:37.0000000+00:00</time></trkpt><trkpt lat="35.109487" lon="32.5067035"><ele>27.9</ele><time>2015-04-25T18:41:38.0000000+00:00</time></trkpt><trkpt lat="35.1095677" lon="32.5067634"><ele>27.2</ele><time>2015-04-25T18:41:40.0000000+00:00</time></trkpt><trkpt lat="35.1096464" lon="32.5068115"><ele>27.5</ele><time>2015-04-25T18:41:42.0000000+00:00</time></trkpt><trkpt lat="35.1097234" lon="32.5068638"><ele>27.3</ele><time>2015-04-25T18:41:44.0000000+00:00</time></trkpt><trkpt lat="35.1097789" lon="32.5069097"><ele>27.0</ele><time>2015-04-25T18:41:46.0000000+00:00</time></trkpt><trkpt lat="35.1098473" lon="32.5069483"><ele>26.2</ele><time>2015-04-25T18:41:48.0000000+00:00</time></trkpt><trkpt lat="35.1099218" lon="32.5069912"><ele>26.0</ele><time>2015-04-25T18:41:50.0000000+00:00</time></trkpt><trkpt lat="35.109966" lon="32.5070164"><ele>26.0</ele><time>2015-04-25T18:41:51.0000000+00:00</time></trkpt><trkpt lat="35.1100076" lon="32.5070459"><ele>26.4</ele><time>2015-04-25T18:41:52.0000000+00:00</time></trkpt><trkpt lat="35.1100724" lon="32.5071065"><ele>28.3</ele><time>2015-04-25T18:41:54.0000000+00:00</time></trkpt><trkpt lat="35.1101593" lon="32.5071636"><ele>28.3</ele><time>2015-04-25T18:41:56.0000000+00:00</time></trkpt><trkpt lat="35.1102148" lon="32.5071996"><ele>28.1</ele><time>2015-04-25T18:41:57.0000000+00:00</time></trkpt><trkpt lat="35.1102679" lon="32.5072403"><ele>28.0</ele><time>2015-04-25T18:41:58.0000000+00:00</time></trkpt><trkpt lat="35.110324" lon="32.5072728"><ele>28.0</ele><time>2015-04-25T18:41:59.0000000+00:00</time></trkpt><trkpt lat="35.1103819" lon="32.5073131"><ele>28.0</ele><time>2015-04-25T18:42:00.0000000+00:00</time></trkpt><trkpt lat="35.1104328" lon="32.5073456"><ele>27.4</ele><time>2015-04-25T18:42:01.0000000+00:00</time></trkpt><trkpt lat="35.1104787" lon="32.5073777"><ele>26.7</ele><time>2015-04-25T18:42:02.0000000+00:00</time></trkpt><trkpt lat="35.1105274" lon="32.5074019"><ele>25.8</ele><time>2015-04-25T18:42:03.0000000+00:00</time></trkpt><trkpt lat="35.1105705" lon="32.5074409"><ele>25.4</ele><time>2015-04-25T18:42:04.0000000+00:00</time></trkpt><trkpt lat="35.1106101" lon="32.5074815"><ele>25.1</ele><time>2015-04-25T18:42:05.0000000+00:00</time></trkpt><trkpt lat="35.1106493" lon="32.5075227"><ele>25.0</ele><time>2015-04-25T18:42:06.0000000+00:00</time></trkpt><trkpt lat="35.1106919" lon="32.507565"><ele>25.0</ele><time>2015-04-25T18:42:07.0000000+00:00</time></trkpt><trkpt lat="35.1107342" lon="32.5075895"><ele>24.5</ele><time>2015-04-25T18:42:08.0000000+00:00</time></trkpt><trkpt lat="35.1108132" lon="32.5076426"><ele>25.8</ele><time>2015-04-25T18:42:10.0000000+00:00</time></trkpt><trkpt lat="35.1108661" lon="32.5077156"><ele>24.7</ele><time>2015-04-25T18:42:12.0000000+00:00</time></trkpt><trkpt lat="35.1108707" lon="32.5077735"><ele>23.4</ele><time>2015-04-25T18:42:14.0000000+00:00</time></trkpt><trkpt lat="35.1108508" lon="32.5078372"><ele>23.0</ele><time>2015-04-25T18:42:16.0000000+00:00</time></trkpt><trkpt lat="35.1108326" lon="32.5078891"><ele>23.5</ele><time>2015-04-25T18:42:18.0000000+00:00</time></trkpt><trkpt lat="35.1108132" lon="32.5079473"><ele>23.8</ele><time>2015-04-25T18:42:20.0000000+00:00</time></trkpt><trkpt lat="35.1107909" lon="32.5079957"><ele>23.9</ele><time>2015-04-25T18:42:22.0000000+00:00</time></trkpt></trkseg><trkseg><trkpt lat="35.1106433" lon="32.5082114"><ele>40.9</ele><time>2015-04-26T08:57:10.0000000+00:00</time></trkpt><trkpt lat="35.1106264" lon="32.5081467"><ele>40.9</ele><time>2015-04-26T08:57:11.0000000+00:00</time></trkpt><trkpt lat="35.1106719" lon="32.5081193"><ele>36.4</ele><time>2015-04-26T08:57:12.0000000+00:00</time></trkpt><trkpt lat="35.1107266" lon="32.5080942"><ele>29.2</ele><time>2015-04-26T08:57:13.0000000+00:00</time></trkpt><trkpt lat="35.1106844" lon="32.5080194"><ele>24.0</ele><time>2015-04-26T08:57:15.0000000+00:00</time></trkpt><trkpt lat="35.11075" lon="32.5079929"><ele>19.0</ele><time>2015-04-26T08:57:16.0000000+00:00</time></trkpt><trkpt lat="35.1107889" lon="32.5079613"><ele>17.4</ele><time>2015-04-26T08:58:12.0000000+00:00</time></trkpt><trkpt lat="35.1108129" lon="32.5078956"><ele>17.5</ele><time>2015-04-26T08:58:17.0000000+00:00</time></trkpt><trkpt lat="35.1108444" lon="32.5078459"><ele>18.2</ele><time>2015-04-26T08:58:20.0000000+00:00</time></trkpt><trkpt lat="35.1108757" lon="32.5077913"><ele>19.2</ele><time>2015-04-26T08:58:23.0000000+00:00</time></trkpt><trkpt lat="35.1108849" lon="32.5077305"><ele>18.7</ele><time>2015-04-26T08:58:26.0000000+00:00</time></trkpt><trkpt lat="35.1108524" lon="32.5076794"><ele>18.9</ele><time>2015-04-26T08:58:29.0000000+00:00</time></trkpt><trkpt lat="35.1108063" lon="32.5076431"><ele>20.6</ele><time>2015-04-26T08:58:32.0000000+00:00</time></trkpt><trkpt lat="35.110764" lon="32.5076157"><ele>21.8</ele><time>2015-04-26T08:58:34.0000000+00:00</time></trkpt><trkpt lat="35.110709" lon="32.5075833"><ele>22.4</ele><time>2015-04-26T08:58:36.0000000+00:00</time></trkpt><trkpt lat="35.1106533" lon="32.507555"><ele>23.3</ele><time>2015-04-26T08:58:38.0000000+00:00</time></trkpt><trkpt lat="35.1106012" lon="32.5075328"><ele>21.8</ele><time>2015-04-26T08:58:40.0000000+00:00</time></trkpt><trkpt lat="35.1105508" lon="32.5075065"><ele>21.6</ele><time>2015-04-26T08:58:42.0000000+00:00</time></trkpt><trkpt lat="35.1104996" lon="32.5074667"><ele>21.9</ele><time>2015-04-26T08:58:44.0000000+00:00</time></trkpt><trkpt lat="35.1104439" lon="32.5074304"><ele>21.7</ele><time>2015-04-26T08:58:46.0000000+00:00</time></trkpt><trkpt lat="35.1103897" lon="32.5073929"><ele>21.9</ele><time>2015-04-26T08:58:48.0000000+00:00</time></trkpt><trkpt lat="35.1103378" lon="32.5073564"><ele>22.4</ele><time>2015-04-26T08:58:50.0000000+00:00</time></trkpt><trkpt lat="35.1102883" lon="32.5073232"><ele>22.8</ele><time>2015-04-26T08:58:52.0000000+00:00</time></trkpt><trkpt lat="35.110241" lon="32.5072886"><ele>23.6</ele><time>2015-04-26T08:58:54.0000000+00:00</time></trkpt><trkpt lat="35.1101948" lon="32.5072585"><ele>23.4</ele><time>2015-04-26T08:58:56.0000000+00:00</time></trkpt><trkpt lat="35.1101479" lon="32.5072314"><ele>23.8</ele><time>2015-04-26T08:58:58.0000000+00:00</time></trkpt><trkpt lat="35.1101076" lon="32.5072047"><ele>23.1</ele><time>2015-04-26T08:59:00.0000000+00:00</time></trkpt><trkpt lat="35.110067" lon="32.5071799"><ele>23.0</ele><time>2015-04-26T08:59:02.0000000+00:00</time></trkpt><trkpt lat="35.1100256" lon="32.5071542"><ele>22.7</ele><time>2015-04-26T08:59:04.0000000+00:00</time></trkpt><trkpt lat="35.1099685" lon="32.5071192"><ele>22.9</ele><time>2015-04-26T08:59:07.0000000+00:00</time></trkpt><trkpt lat="35.1099145" lon="32.5070755"><ele>20.8</ele><time>2015-04-26T08:59:10.0000000+00:00</time></trkpt><trkpt lat="35.1098723" lon="32.5070404"><ele>20.4</ele><time>2015-04-26T08:59:12.0000000+00:00</time></trkpt><trkpt lat="35.1098216" lon="32.5070106"><ele>20.8</ele><time>2015-04-26T08:59:14.0000000+00:00</time></trkpt><trkpt lat="35.1097686" lon="32.506977"><ele>19.6</ele><time>2015-04-26T08:59:16.0000000+00:00</time></trkpt><trkpt lat="35.109716" lon="32.5069398"><ele>19.1</ele><time>2015-04-26T08:59:18.0000000+00:00</time></trkpt><trkpt lat="35.1096632" lon="32.5069025"><ele>18.7</ele><time>2015-04-26T08:59:20.0000000+00:00</time></trkpt><trkpt lat="35.1096111" lon="32.5068688"><ele>18.1</ele><time>2015-04-26T08:59:22.0000000+00:00</time></trkpt><trkpt lat="35.1095625" lon="32.5068394"><ele>18.0</ele><time>2015-04-26T08:59:24.0000000+00:00</time></trkpt><trkpt lat="35.1095185" lon="32.5068108"><ele>17.9</ele><time>2015-04-26T08:59:26.0000000+00:00</time></trkpt><trkpt lat="35.1094766" lon="32.5067839"><ele>18.4</ele><time>2015-04-26T08:59:28.0000000+00:00</time></trkpt><trkpt lat="35.1094339" lon="32.5067558"><ele>18.8</ele><time>2015-04-26T08:59:30.0000000+00:00</time></trkpt><trkpt lat="35.1093923" lon="32.5067281"><ele>19.1</ele><time>2015-04-26T08:59:32.0000000+00:00</time></trkpt><trkpt lat="35.1093486" lon="32.5066951"><ele>18.5</ele><time>2015-04-26T08:59:34.0000000+00:00</time></trkpt><trkpt lat="35.1093003" lon="32.5066626"><ele>17.3</ele><time>2015-04-26T08:59:36.0000000+00:00</time></trkpt><trkpt lat="35.1092488" lon="32.5066308"><ele>17.8</ele><time>2015-04-26T08:59:38.0000000+00:00</time></trkpt><trkpt lat="35.109197" lon="32.5065967"><ele>17.4</ele><time>2015-04-26T08:59:40.0000000+00:00</time></trkpt><trkpt lat="35.1091437" lon="32.5065644"><ele>17.0</ele><time>2015-04-26T08:59:42.0000000+00:00</time></trkpt><trkpt lat="35.1090907" lon="32.5065287"><ele>16.2</ele><time>2015-04-26T08:59:44.0000000+00:00</time></trkpt><trkpt lat="35.109038" lon="32.5064881"><ele>16.2</ele><time>2015-04-26T08:59:46.0000000+00:00</time></trkpt><trkpt lat="35.1089855" lon="32.5064475"><ele>15.5</ele><time>2015-04-26T08:59:48.0000000+00:00</time></trkpt><trkpt lat="35.1089307" lon="32.5064102"><ele>15.1</ele><time>2015-04-26T08:59:50.0000000+00:00</time></trkpt><trkpt lat="35.1088779" lon="32.5063724"><ele>15.5</ele><time>2015-04-26T08:59:52.0000000+00:00</time></trkpt><trkpt lat="35.1088283" lon="32.5063349"><ele>15.8</ele><time>2015-04-26T08:59:54.0000000+00:00</time></trkpt><trkpt lat="35.1087807" lon="32.5062975"><ele>15.2</ele><time>2015-04-26T08:59:56.0000000+00:00</time></trkpt><trkpt lat="35.1087318" lon="32.5062669"><ele>15.7</ele><time>2015-04-26T08:59:58.0000000+00:00</time></trkpt><trkpt lat="35.1086895" lon="32.5062319"><ele>15.4</ele><time>2015-04-26T09:00:00.0000000+00:00</time></trkpt><trkpt lat="35.1086486" lon="32.5061928"><ele>13.5</ele><time>2015-04-26T09:00:02.0000000+00:00</time></trkpt><trkpt lat="35.1086079" lon="32.5061587"><ele>13.1</ele><time>2015-04-26T09:00:04.0000000+00:00</time></trkpt><trkpt lat="35.1085669" lon="32.5061326"><ele>12.2</ele><time>2015-04-26T09:00:06.0000000+00:00</time></trkpt><trkpt lat="35.1085048" lon="32.5061127"><ele>13.3</ele><time>2015-04-26T09:00:09.0000000+00:00</time></trkpt><trkpt lat="35.1084502" lon="32.5060872"><ele>13.9</ele><time>2015-04-26T09:00:12.0000000+00:00</time></trkpt><trkpt lat="35.1083961" lon="32.5060521"><ele>13.0</ele><time>2015-04-26T09:00:15.0000000+00:00</time></trkpt><trkpt lat="35.1083418" lon="32.5060149"><ele>14.2</ele><time>2015-04-26T09:00:18.0000000+00:00</time></trkpt><trkpt lat="35.108288" lon="32.505977"><ele>15.7</ele><time>2015-04-26T09:00:21.0000000+00:00</time></trkpt><trkpt lat="35.1082368" lon="32.5059289"><ele>14.7</ele><time>2015-04-26T09:00:24.0000000+00:00</time></trkpt><trkpt lat="35.108191" lon="32.5058931"><ele>13.8</ele><time>2015-04-26T09:01:56.0000000+00:00</time></trkpt><trkpt lat="35.1081514" lon="32.5058666"><ele>13.4</ele><time>2015-04-26T09:01:58.0000000+00:00</time></trkpt><trkpt lat="35.1080948" lon="32.5058338"><ele>13.0</ele><time>2015-04-26T09:02:00.0000000+00:00</time></trkpt><trkpt lat="35.1080399" lon="32.5057992"><ele>11.5</ele><time>2015-04-26T09:02:02.0000000+00:00</time></trkpt><trkpt lat="35.1079889" lon="32.5057721"><ele>11.3</ele><time>2015-04-26T09:02:04.0000000+00:00</time></trkpt><trkpt lat="35.1079431" lon="32.5057507"><ele>11.0</ele><time>2015-04-26T09:02:06.0000000+00:00</time></trkpt><trkpt lat="35.1078919" lon="32.5057189"><ele>12.3</ele><time>2015-04-26T09:02:09.0000000+00:00</time></trkpt><trkpt lat="35.1078442" lon="32.5056749"><ele>13.6</ele><time>2015-04-26T09:02:12.0000000+00:00</time></trkpt><trkpt lat="35.1078058" lon="32.5056352"><ele>13.8</ele><time>2015-04-26T09:02:14.0000000+00:00</time></trkpt><trkpt lat="35.1077604" lon="32.5055979"><ele>13.7</ele><time>2015-04-26T09:02:16.0000000+00:00</time></trkpt><trkpt lat="35.1077062" lon="32.5055664"><ele>12.6</ele><time>2015-04-26T09:02:18.0000000+00:00</time></trkpt><trkpt lat="35.1076521" lon="32.5055316"><ele>12.4</ele><time>2015-04-26T09:02:20.0000000+00:00</time></trkpt><trkpt lat="35.107598" lon="32.5054904"><ele>12.5</ele><time>2015-04-26T09:02:22.0000000+00:00</time></trkpt><trkpt lat="35.1075406" lon="32.5054486"><ele>12.6</ele><time>2015-04-26T09:02:24.0000000+00:00</time></trkpt><trkpt lat="35.1074862" lon="32.5054064"><ele>11.6</ele><time>2015-04-26T09:02:26.0000000+00:00</time></trkpt><trkpt lat="35.1074326" lon="32.5053676"><ele>12.3</ele><time>2015-04-26T09:02:28.0000000+00:00</time></trkpt><trkpt lat="35.1073797" lon="32.5053298"><ele>12.8</ele><time>2015-04-26T09:02:30.0000000+00:00</time></trkpt><trkpt lat="35.1073245" lon="32.5052944"><ele>12.1</ele><time>2015-04-26T09:02:32.0000000+00:00</time></trkpt><trkpt lat="35.107269" lon="32.5052575"><ele>13.2</ele><time>2015-04-26T09:02:34.0000000+00:00</time></trkpt><trkpt lat="35.1072124" lon="32.505219"><ele>13.8</ele><time>2015-04-26T09:02:36.0000000+00:00</time></trkpt><trkpt lat="35.1071552" lon="32.5051775"><ele>13.9</ele><time>2015-04-26T09:02:38.0000000+00:00</time></trkpt><trkpt lat="35.1070956" lon="32.505135"><ele>13.7</ele><time>2015-04-26T09:02:40.0000000+00:00</time></trkpt><trkpt lat="35.1070366" lon="32.5050964"><ele>14.4</ele><time>2015-04-26T09:02:42.0000000+00:00</time></trkpt><trkpt lat="35.1069794" lon="32.5050603"><ele>15.5</ele><time>2015-04-26T09:02:44.0000000+00:00</time></trkpt><trkpt lat="35.1069247" lon="32.5050212"><ele>16.6</ele><time>2015-04-26T09:02:46.0000000+00:00</time></trkpt><trkpt lat="35.1068719" lon="32.5049896"><ele>16.8</ele><time>2015-04-26T09:02:48.0000000+00:00</time></trkpt><trkpt lat="35.1068196" lon="32.5049541"><ele>15.7</ele><time>2015-04-26T09:02:50.0000000+00:00</time></trkpt><trkpt lat="35.1067611" lon="32.504916"><ele>15.1</ele><time>2015-04-26T09:02:52.0000000+00:00</time></trkpt><trkpt lat="35.1066876" lon="32.5048692"><ele>15.7</ele><time>2015-04-26T09:02:54.0000000+00:00</time></trkpt><trkpt lat="35.1066457" lon="32.5048432"><ele>15.8</ele><time>2015-04-26T09:02:55.0000000+00:00</time></trkpt><trkpt lat="35.106587" lon="32.5048054"><ele>15.9</ele><time>2015-04-26T09:02:56.0000000+00:00</time></trkpt><trkpt lat="35.1065115" lon="32.5047499"><ele>15.2</ele><time>2015-04-26T09:02:58.0000000+00:00</time></trkpt><trkpt lat="35.1064691" lon="32.5047212"><ele>14.5</ele><time>2015-04-26T09:02:59.0000000+00:00</time></trkpt><trkpt lat="35.1064239" lon="32.5046924"><ele>14.2</ele><time>2015-04-26T09:03:00.0000000+00:00</time></trkpt><trkpt lat="35.1063824" lon="32.5046627"><ele>14.6</ele><time>2015-04-26T09:03:01.0000000+00:00</time></trkpt><trkpt lat="35.10634" lon="32.5046326"><ele>14.8</ele><time>2015-04-26T09:03:02.0000000+00:00</time></trkpt><trkpt lat="35.1063022" lon="32.5045948"><ele>14.3</ele><time>2015-04-26T09:03:03.0000000+00:00</time></trkpt><trkpt lat="35.1062558" lon="32.5045613"><ele>15.1</ele><time>2015-04-26T09:03:04.0000000+00:00</time></trkpt><trkpt lat="35.1062087" lon="32.5045297"><ele>15.0</ele><time>2015-04-26T09:03:05.0000000+00:00</time></trkpt><trkpt lat="35.1061622" lon="32.5044925"><ele>15.5</ele><time>2015-04-26T09:03:06.0000000+00:00</time></trkpt><trkpt lat="35.1061163" lon="32.5044602"><ele>16.2</ele><time>2015-04-26T09:03:07.0000000+00:00</time></trkpt><trkpt lat="35.1060774" lon="32.5044305"><ele>16.6</ele><time>2015-04-26T09:03:08.0000000+00:00</time></trkpt><trkpt lat="35.106036" lon="32.5043999"><ele>17.2</ele><time>2015-04-26T09:03:09.0000000+00:00</time></trkpt><trkpt lat="35.105939" lon="32.5043534"><ele>18.5</ele><time>2015-04-26T09:03:11.0000000+00:00</time></trkpt><trkpt lat="35.1058995" lon="32.5043258"><ele>19.2</ele><time>2015-04-26T09:03:12.0000000+00:00</time></trkpt><trkpt lat="35.10583" lon="32.5042639"><ele>20.0</ele><time>2015-04-26T09:03:14.0000000+00:00</time></trkpt><trkpt lat="35.1057885" lon="32.5042362"><ele>20.0</ele><time>2015-04-26T09:03:15.0000000+00:00</time></trkpt><trkpt lat="35.1057454" lon="32.5042049"><ele>18.9</ele><time>2015-04-26T09:03:16.0000000+00:00</time></trkpt><trkpt lat="35.1056645" lon="32.5041829"><ele>18.2</ele><time>2015-04-26T09:03:18.0000000+00:00</time></trkpt><trkpt lat="35.1055796" lon="32.5041653"><ele>18.2</ele><time>2015-04-26T09:03:20.0000000+00:00</time></trkpt><trkpt lat="35.1054938" lon="32.5041409"><ele>18.8</ele><time>2015-04-26T09:03:22.0000000+00:00</time></trkpt><trkpt lat="35.1054495" lon="32.5041253"><ele>18.8</ele><time>2015-04-26T09:03:23.0000000+00:00</time></trkpt><trkpt lat="35.1053662" lon="32.5040992"><ele>18.2</ele><time>2015-04-26T09:03:25.0000000+00:00</time></trkpt><trkpt lat="35.1053052" lon="32.5040799"><ele>17.2</ele><time>2015-04-26T09:03:27.0000000+00:00</time></trkpt><trkpt lat="35.1052422" lon="32.5040632"><ele>18.3</ele><time>2015-04-26T09:03:29.0000000+00:00</time></trkpt><trkpt lat="35.1051677" lon="32.5040494"><ele>18.8</ele><time>2015-04-26T09:03:31.0000000+00:00</time></trkpt><trkpt lat="35.1051025" lon="32.5040336"><ele>19.6</ele><time>2015-04-26T09:03:33.0000000+00:00</time></trkpt><trkpt lat="35.1050401" lon="32.5040232"><ele>21.9</ele><time>2015-04-26T09:03:35.0000000+00:00</time></trkpt><trkpt lat="35.1049768" lon="32.5040114"><ele>22.9</ele><time>2015-04-26T09:03:37.0000000+00:00</time></trkpt><trkpt lat="35.1049292" lon="32.5040065"><ele>19.9</ele><time>2015-04-26T09:04:07.0000000+00:00</time></trkpt><trkpt lat="35.1048689" lon="32.503994"><ele>18.1</ele><time>2015-04-26T09:04:10.0000000+00:00</time></trkpt><trkpt lat="35.1048096" lon="32.503972"><ele>17.2</ele><time>2015-04-26T09:04:12.0000000+00:00</time></trkpt><trkpt lat="35.1047442" lon="32.503958"><ele>17.0</ele><time>2015-04-26T09:04:14.0000000+00:00</time></trkpt><trkpt lat="35.1046694" lon="32.5039479"><ele>15.4</ele><time>2015-04-26T09:04:16.0000000+00:00</time></trkpt><trkpt lat="35.1046222" lon="32.5039392"><ele>15.2</ele><time>2015-04-26T09:04:17.0000000+00:00</time></trkpt><trkpt lat="35.1045294" lon="32.5039217"><ele>16.1</ele><time>2015-04-26T09:04:18.0000000+00:00</time></trkpt><trkpt lat="35.1044804" lon="32.5039122"><ele>16.5</ele><time>2015-04-26T09:04:19.0000000+00:00</time></trkpt><trkpt lat="35.1044353" lon="32.5039043"><ele>17.2</ele><time>2015-04-26T09:04:20.0000000+00:00</time></trkpt><trkpt lat="35.1043465" lon="32.5038644"><ele>17.0</ele><time>2015-04-26T09:04:22.0000000+00:00</time></trkpt><trkpt lat="35.1042888" lon="32.5038483"><ele>17.0</ele><time>2015-04-26T09:04:23.0000000+00:00</time></trkpt><trkpt lat="35.1042409" lon="32.5038334"><ele>16.9</ele><time>2015-04-26T09:04:24.0000000+00:00</time></trkpt><trkpt lat="35.1041462" lon="32.5037924"><ele>17.7</ele><time>2015-04-26T09:04:26.0000000+00:00</time></trkpt><trkpt lat="35.104061" lon="32.5037605"><ele>18.1</ele><time>2015-04-26T09:04:28.0000000+00:00</time></trkpt><trkpt lat="35.1040183" lon="32.5037382"><ele>18.0</ele><time>2015-04-26T09:04:29.0000000+00:00</time></trkpt><trkpt lat="35.1039553" lon="32.5036985"><ele>18.2</ele><time>2015-04-26T09:04:31.0000000+00:00</time></trkpt><trkpt lat="35.1039024" lon="32.5036449"><ele>17.2</ele><time>2015-04-26T09:04:33.0000000+00:00</time></trkpt><trkpt lat="35.1038541" lon="32.5036347"><ele>15.0</ele><time>2015-04-26T09:04:35.0000000+00:00</time></trkpt><trkpt lat="35.1038064" lon="32.5036112"><ele>14.2</ele><time>2015-04-26T09:04:37.0000000+00:00</time></trkpt><trkpt lat="35.1037623" lon="32.5035994"><ele>14.0</ele><time>2015-04-26T09:04:39.0000000+00:00</time></trkpt><trkpt lat="35.1037009" lon="32.5035914"><ele>15.6</ele><time>2015-04-26T09:04:42.0000000+00:00</time></trkpt><trkpt lat="35.1036553" lon="32.5035862"><ele>15.8</ele><time>2015-04-26T09:04:44.0000000+00:00</time></trkpt><trkpt lat="35.1036077" lon="32.5035977"><ele>16.7</ele><time>2015-04-26T09:04:46.0000000+00:00</time></trkpt><trkpt lat="35.1035637" lon="32.5036271"><ele>17.4</ele><time>2015-04-26T09:04:48.0000000+00:00</time></trkpt><trkpt lat="35.1035282" lon="32.5036735"><ele>17.8</ele><time>2015-04-26T09:04:50.0000000+00:00</time></trkpt><trkpt lat="35.1035174" lon="32.5037295"><ele>17.1</ele><time>2015-04-26T09:04:52.0000000+00:00</time></trkpt><trkpt lat="35.1035237" lon="32.5037904"><ele>17.7</ele><time>2015-04-26T09:04:54.0000000+00:00</time></trkpt><trkpt lat="35.1035341" lon="32.5038487"><ele>17.9</ele><time>2015-04-26T09:04:56.0000000+00:00</time></trkpt><trkpt lat="35.1035524" lon="32.5039027"><ele>16.4</ele><time>2015-04-26T09:04:58.0000000+00:00</time></trkpt><trkpt lat="35.1035694" lon="32.5039585"><ele>16.1</ele><time>2015-04-26T09:05:00.0000000+00:00</time></trkpt><trkpt lat="35.1035796" lon="32.5040195"><ele>16.0</ele><time>2015-04-26T09:05:02.0000000+00:00</time></trkpt><trkpt lat="35.1035834" lon="32.5040832"><ele>15.9</ele><time>2015-04-26T09:05:04.0000000+00:00</time></trkpt><trkpt lat="35.1035823" lon="32.50415"><ele>15.4</ele><time>2015-04-26T09:05:06.0000000+00:00</time></trkpt><trkpt lat="35.1035787" lon="32.5042182"><ele>15.3</ele><time>2015-04-26T09:05:08.0000000+00:00</time></trkpt><trkpt lat="35.1035694" lon="32.504282"><ele>15.0</ele><time>2015-04-26T09:05:10.0000000+00:00</time></trkpt><trkpt lat="35.1035529" lon="32.5043411"><ele>15.0</ele><time>2015-04-26T09:05:12.0000000+00:00</time></trkpt><trkpt lat="35.1035251" lon="32.5043876"><ele>15.7</ele><time>2015-04-26T09:05:14.0000000+00:00</time></trkpt><trkpt lat="35.103496" lon="32.5044311"><ele>15.4</ele><time>2015-04-26T09:05:16.0000000+00:00</time></trkpt><trkpt lat="35.1034675" lon="32.5044764"><ele>15.0</ele><time>2015-04-26T09:05:18.0000000+00:00</time></trkpt><trkpt lat="35.1034255" lon="32.5045383"><ele>15.6</ele><time>2015-04-26T09:05:21.0000000+00:00</time></trkpt><trkpt lat="35.103379" lon="32.5045775"><ele>16.6</ele><time>2015-04-26T09:05:24.0000000+00:00</time></trkpt><trkpt lat="35.1033245" lon="32.5046026"><ele>17.8</ele><time>2015-04-26T09:05:27.0000000+00:00</time></trkpt><trkpt lat="35.1032715" lon="32.5046378"><ele>17.9</ele><time>2015-04-26T09:05:30.0000000+00:00</time></trkpt><trkpt lat="35.1032173" lon="32.5046663"><ele>19.3</ele><time>2015-04-26T09:05:33.0000000+00:00</time></trkpt><trkpt lat="35.1031692" lon="32.5046915"><ele>19.9</ele><time>2015-04-26T09:05:36.0000000+00:00</time></trkpt><trkpt lat="35.1031169" lon="32.5047003"><ele>20.0</ele><time>2015-04-26T09:05:39.0000000+00:00</time></trkpt><trkpt lat="35.1030619" lon="32.5047237"><ele>20.6</ele><time>2015-04-26T09:05:42.0000000+00:00</time></trkpt><trkpt lat="35.1030025" lon="32.5047416"><ele>20.9</ele><time>2015-04-26T09:05:45.0000000+00:00</time></trkpt><trkpt lat="35.1029436" lon="32.5047733"><ele>22.9</ele><time>2015-04-26T09:05:48.0000000+00:00</time></trkpt><trkpt lat="35.1029015" lon="32.5047955"><ele>24.7</ele><time>2015-04-26T09:05:50.0000000+00:00</time></trkpt><trkpt lat="35.1028575" lon="32.5048161"><ele>26.4</ele><time>2015-04-26T09:05:52.0000000+00:00</time></trkpt><trkpt lat="35.1028144" lon="32.5048379"><ele>26.8</ele><time>2015-04-26T09:05:54.0000000+00:00</time></trkpt><trkpt lat="35.1027752" lon="32.5048694"><ele>26.9</ele><time>2015-04-26T09:05:56.0000000+00:00</time></trkpt><trkpt lat="35.1027401" lon="32.5049064"><ele>26.9</ele><time>2015-04-26T09:05:58.0000000+00:00</time></trkpt><trkpt lat="35.1027044" lon="32.5049444"><ele>28.2</ele><time>2015-04-26T09:06:00.0000000+00:00</time></trkpt><trkpt lat="35.1026622" lon="32.5049787"><ele>28.7</ele><time>2015-04-26T09:06:02.0000000+00:00</time></trkpt><trkpt lat="35.1026289" lon="32.505018"><ele>28.4</ele><time>2015-04-26T09:06:04.0000000+00:00</time></trkpt><trkpt lat="35.1025796" lon="32.5050735"><ele>28.0</ele><time>2015-04-26T09:06:07.0000000+00:00</time></trkpt><trkpt lat="35.102536" lon="32.5051291"><ele>27.9</ele><time>2015-04-26T09:06:10.0000000+00:00</time></trkpt><trkpt lat="35.102494" lon="32.5051622"><ele>30.5</ele><time>2015-04-26T09:06:15.0000000+00:00</time></trkpt><trkpt lat="35.1024557" lon="32.5051939"><ele>31.8</ele><time>2015-04-26T09:06:19.0000000+00:00</time></trkpt><trkpt lat="35.1024168" lon="32.5052314"><ele>31.6</ele><time>2015-04-26T09:06:23.0000000+00:00</time></trkpt><trkpt lat="35.1023693" lon="32.5052782"><ele>31.7</ele><time>2015-04-26T09:06:27.0000000+00:00</time></trkpt><trkpt lat="35.1023377" lon="32.505338"><ele>33.2</ele><time>2015-04-26T09:06:30.0000000+00:00</time></trkpt><trkpt lat="35.1023003" lon="32.5053968"><ele>34.6</ele><time>2015-04-26T09:06:33.0000000+00:00</time></trkpt><trkpt lat="35.1022581" lon="32.5054574"><ele>35.8</ele><time>2015-04-26T09:06:36.0000000+00:00</time></trkpt><trkpt lat="35.1022316" lon="32.5055022"><ele>35.4</ele><time>2015-04-26T09:06:38.0000000+00:00</time></trkpt><trkpt lat="35.1022047" lon="32.5055501"><ele>35.8</ele><time>2015-04-26T09:06:40.0000000+00:00</time></trkpt><trkpt lat="35.1021828" lon="32.5056011"><ele>35.4</ele><time>2015-04-26T09:06:42.0000000+00:00</time></trkpt><trkpt lat="35.102161" lon="32.5056526"><ele>35.0</ele><time>2015-04-26T09:06:44.0000000+00:00</time></trkpt><trkpt lat="35.1021399" lon="32.505704"><ele>35.7</ele><time>2015-04-26T09:06:46.0000000+00:00</time></trkpt><trkpt lat="35.102119" lon="32.5057552"><ele>35.9</ele><time>2015-04-26T09:06:48.0000000+00:00</time></trkpt><trkpt lat="35.1021017" lon="32.5058082"><ele>36.7</ele><time>2015-04-26T09:06:50.0000000+00:00</time></trkpt><trkpt lat="35.1020851" lon="32.5058642"><ele>36.4</ele><time>2015-04-26T09:06:52.0000000+00:00</time></trkpt><trkpt lat="35.1020677" lon="32.5059236"><ele>35.5</ele><time>2015-04-26T09:06:54.0000000+00:00</time></trkpt><trkpt lat="35.1020516" lon="32.5059843"><ele>34.3</ele><time>2015-04-26T09:06:56.0000000+00:00</time></trkpt><trkpt lat="35.1020316" lon="32.5060425"><ele>34.8</ele><time>2015-04-26T09:06:58.0000000+00:00</time></trkpt><trkpt lat="35.1020126" lon="32.5060984"><ele>34.9</ele><time>2015-04-26T09:07:00.0000000+00:00</time></trkpt><trkpt lat="35.1019935" lon="32.5061553"><ele>34.4</ele><time>2015-04-26T09:07:02.0000000+00:00</time></trkpt><trkpt lat="35.1019779" lon="32.5062141"><ele>35.3</ele><time>2015-04-26T09:07:04.0000000+00:00</time></trkpt><trkpt lat="35.1019632" lon="32.5062743"><ele>35.8</ele><time>2015-04-26T09:07:06.0000000+00:00</time></trkpt><trkpt lat="35.101946" lon="32.5063325"><ele>36.6</ele><time>2015-04-26T09:07:08.0000000+00:00</time></trkpt><trkpt lat="35.1019296" lon="32.5063933"><ele>36.1</ele><time>2015-04-26T09:07:10.0000000+00:00</time></trkpt><trkpt lat="35.1019114" lon="32.506456"><ele>35.2</ele><time>2015-04-26T09:07:12.0000000+00:00</time></trkpt><trkpt lat="35.1018897" lon="32.5065152"><ele>34.3</ele><time>2015-04-26T09:07:14.0000000+00:00</time></trkpt><trkpt lat="35.1018676" lon="32.5065741"><ele>35.3</ele><time>2015-04-26T09:07:16.0000000+00:00</time></trkpt><trkpt lat="35.1018518" lon="32.5066343"><ele>35.5</ele><time>2015-04-26T09:07:18.0000000+00:00</time></trkpt><trkpt lat="35.1018369" lon="32.506697"><ele>36.6</ele><time>2015-04-26T09:07:20.0000000+00:00</time></trkpt><trkpt lat="35.1018176" lon="32.5067583"><ele>37.6</ele><time>2015-04-26T09:07:22.0000000+00:00</time></trkpt><trkpt lat="35.1017884" lon="32.5068156"><ele>37.6</ele><time>2015-04-26T09:07:24.0000000+00:00</time></trkpt><trkpt lat="35.1017667" lon="32.5068755"><ele>37.1</ele><time>2015-04-26T09:07:26.0000000+00:00</time></trkpt><trkpt lat="35.101747" lon="32.506936"><ele>37.5</ele><time>2015-04-26T09:07:28.0000000+00:00</time></trkpt><trkpt lat="35.1017235" lon="32.5069933"><ele>37.1</ele><time>2015-04-26T09:07:30.0000000+00:00</time></trkpt><trkpt lat="35.1017012" lon="32.5070495"><ele>38.2</ele><time>2015-04-26T09:07:32.0000000+00:00</time></trkpt><trkpt lat="35.1016795" lon="32.5071084"><ele>38.8</ele><time>2015-04-26T09:07:34.0000000+00:00</time></trkpt><trkpt lat="35.1016583" lon="32.5071671"><ele>39.4</ele><time>2015-04-26T09:07:36.0000000+00:00</time></trkpt><trkpt lat="35.1016359" lon="32.5072279"><ele>39.5</ele><time>2015-04-26T09:07:38.0000000+00:00</time></trkpt><trkpt lat="35.1016155" lon="32.5072918"><ele>39.8</ele><time>2015-04-26T09:07:40.0000000+00:00</time></trkpt><trkpt lat="35.1015936" lon="32.5073529"><ele>39.2</ele><time>2015-04-26T09:07:42.0000000+00:00</time></trkpt><trkpt lat="35.1015713" lon="32.5074128"><ele>40.5</ele><time>2015-04-26T09:07:44.0000000+00:00</time></trkpt><trkpt lat="35.1015464" lon="32.5074657"><ele>40.8</ele><time>2015-04-26T09:07:46.0000000+00:00</time></trkpt><trkpt lat="35.1015124" lon="32.5075324"><ele>40.0</ele><time>2015-04-26T09:07:49.0000000+00:00</time></trkpt><trkpt lat="35.1014792" lon="32.5075941"><ele>38.6</ele><time>2015-04-26T09:07:52.0000000+00:00</time></trkpt><trkpt lat="35.1014413" lon="32.5076528"><ele>35.8</ele><time>2015-04-26T09:07:55.0000000+00:00</time></trkpt><trkpt lat="35.1014017" lon="32.5077093"><ele>35.9</ele><time>2015-04-26T09:07:58.0000000+00:00</time></trkpt><trkpt lat="35.1013634" lon="32.5077624"><ele>37.2</ele><time>2015-04-26T09:08:01.0000000+00:00</time></trkpt><trkpt lat="35.1013262" lon="32.507806"><ele>37.7</ele><time>2015-04-26T09:08:04.0000000+00:00</time></trkpt><trkpt lat="35.1012789" lon="32.5078397"><ele>39.2</ele><time>2015-04-26T09:08:07.0000000+00:00</time></trkpt><trkpt lat="35.1012319" lon="32.5078773"><ele>41.2</ele><time>2015-04-26T09:08:10.0000000+00:00</time></trkpt><trkpt lat="35.1011878" lon="32.5079189"><ele>42.3</ele><time>2015-04-26T09:08:13.0000000+00:00</time></trkpt><trkpt lat="35.1011468" lon="32.5079713"><ele>42.9</ele><time>2015-04-26T09:08:16.0000000+00:00</time></trkpt><trkpt lat="35.1011092" lon="32.5080334"><ele>44.2</ele><time>2015-04-26T09:08:19.0000000+00:00</time></trkpt><trkpt lat="35.1010728" lon="32.5080967"><ele>46.1</ele><time>2015-04-26T09:08:22.0000000+00:00</time></trkpt><trkpt lat="35.1010321" lon="32.5081602"><ele>48.9</ele><time>2015-04-26T09:08:25.0000000+00:00</time></trkpt><trkpt lat="35.1010071" lon="32.5082062"><ele>49.9</ele><time>2015-04-26T09:08:27.0000000+00:00</time></trkpt><trkpt lat="35.1009814" lon="32.5082519"><ele>49.9</ele><time>2015-04-26T09:08:29.0000000+00:00</time></trkpt><trkpt lat="35.1009515" lon="32.5083255"><ele>50.8</ele><time>2015-04-26T09:08:32.0000000+00:00</time></trkpt><trkpt lat="35.1009372" lon="32.50838"><ele>50.9</ele><time>2015-04-26T09:08:34.0000000+00:00</time></trkpt><trkpt lat="35.1009306" lon="32.5084564"><ele>51.4</ele><time>2015-04-26T09:08:37.0000000+00:00</time></trkpt><trkpt lat="35.100931" lon="32.5085255"><ele>51.1</ele><time>2015-04-26T09:08:40.0000000+00:00</time></trkpt><trkpt lat="35.1009332" lon="32.5085973"><ele>52.6</ele><time>2015-04-26T09:08:43.0000000+00:00</time></trkpt><trkpt lat="35.1009358" lon="32.5086534"><ele>52.6</ele><time>2015-04-26T09:08:45.0000000+00:00</time></trkpt><trkpt lat="35.1009377" lon="32.50871"><ele>52.6</ele><time>2015-04-26T09:08:47.0000000+00:00</time></trkpt><trkpt lat="35.1009389" lon="32.5087698"><ele>52.8</ele><time>2015-04-26T09:08:49.0000000+00:00</time></trkpt><trkpt lat="35.1009372" lon="32.5088255"><ele>52.4</ele><time>2015-04-26T09:08:51.0000000+00:00</time></trkpt><trkpt lat="35.1009444" lon="32.5089014"><ele>52.2</ele><time>2015-04-26T09:08:54.0000000+00:00</time></trkpt><trkpt lat="35.1009617" lon="32.5089743"><ele>53.3</ele><time>2015-04-26T09:08:57.0000000+00:00</time></trkpt><trkpt lat="35.1009746" lon="32.5090509"><ele>54.4</ele><time>2015-04-26T09:09:00.0000000+00:00</time></trkpt><trkpt lat="35.1009813" lon="32.5091259"><ele>51.1</ele><time>2015-04-26T09:09:03.0000000+00:00</time></trkpt><trkpt lat="35.1009865" lon="32.5092023"><ele>51.5</ele><time>2015-04-26T09:09:06.0000000+00:00</time></trkpt><trkpt lat="35.1009892" lon="32.5092774"><ele>54.6</ele><time>2015-04-26T09:09:09.0000000+00:00</time></trkpt><trkpt lat="35.1010015" lon="32.5093478"><ele>54.0</ele><time>2015-04-26T09:09:12.0000000+00:00</time></trkpt><trkpt lat="35.1010093" lon="32.5094176"><ele>51.8</ele><time>2015-04-26T09:09:15.0000000+00:00</time></trkpt><trkpt lat="35.1010203" lon="32.5094886"><ele>51.9</ele><time>2015-04-26T09:09:18.0000000+00:00</time></trkpt><trkpt lat="35.1010349" lon="32.5095684"><ele>53.2</ele><time>2015-04-26T09:09:21.0000000+00:00</time></trkpt><trkpt lat="35.1010407" lon="32.5096237"><ele>53.7</ele><time>2015-04-26T09:09:23.0000000+00:00</time></trkpt><trkpt lat="35.1010437" lon="32.5096986"><ele>53.5</ele><time>2015-04-26T09:09:26.0000000+00:00</time></trkpt><trkpt lat="35.1010446" lon="32.5097554"><ele>53.8</ele><time>2015-04-26T09:09:28.0000000+00:00</time></trkpt><trkpt lat="35.1010473" lon="32.5098177"><ele>54.4</ele><time>2015-04-26T09:09:30.0000000+00:00</time></trkpt><trkpt lat="35.1010516" lon="32.5098873"><ele>54.8</ele><time>2015-04-26T09:09:32.0000000+00:00</time></trkpt><trkpt lat="35.101053" lon="32.5099704"><ele>54.9</ele><time>2015-04-26T09:09:34.0000000+00:00</time></trkpt><trkpt lat="35.101057" lon="32.5100556"><ele>55.4</ele><time>2015-04-26T09:09:36.0000000+00:00</time></trkpt><trkpt lat="35.1010622" lon="32.5101429"><ele>55.8</ele><time>2015-04-26T09:09:38.0000000+00:00</time></trkpt><trkpt lat="35.1010647" lon="32.5102254"><ele>55.9</ele><time>2015-04-26T09:09:40.0000000+00:00</time></trkpt><trkpt lat="35.1010662" lon="32.5103065"><ele>55.9</ele><time>2015-04-26T09:09:42.0000000+00:00</time></trkpt><trkpt lat="35.1010663" lon="32.510387"><ele>56.4</ele><time>2015-04-26T09:09:44.0000000+00:00</time></trkpt><trkpt lat="35.1010626" lon="32.510465"><ele>56.6</ele><time>2015-04-26T09:09:46.0000000+00:00</time></trkpt><trkpt lat="35.1010622" lon="32.510532"><ele>56.8</ele><time>2015-04-26T09:09:48.0000000+00:00</time></trkpt><trkpt lat="35.1010634" lon="32.5105953"><ele>56.9</ele><time>2015-04-26T09:09:50.0000000+00:00</time></trkpt><trkpt lat="35.1010624" lon="32.5106537"><ele>56.9</ele><time>2015-04-26T09:09:52.0000000+00:00</time></trkpt><trkpt lat="35.1010648" lon="32.510709"><ele>56.9</ele><time>2015-04-26T09:09:55.0000000+00:00</time></trkpt><trkpt lat="35.1010742" lon="32.5107709"><ele>56.9</ele><time>2015-04-26T09:09:58.0000000+00:00</time></trkpt><trkpt lat="35.1010811" lon="32.5108259"><ele>56.9</ele><time>2015-04-26T09:10:00.0000000+00:00</time></trkpt><trkpt lat="35.101087" lon="32.5109067"><ele>56.9</ele><time>2015-04-26T09:10:03.0000000+00:00</time></trkpt><trkpt lat="35.1010918" lon="32.5109838"><ele>56.8</ele><time>2015-04-26T09:10:06.0000000+00:00</time></trkpt><trkpt lat="35.1011005" lon="32.5110672"><ele>56.9</ele><time>2015-04-26T09:10:09.0000000+00:00</time></trkpt><trkpt lat="35.1011088" lon="32.5111416"><ele>56.2</ele><time>2015-04-26T09:10:11.0000000+00:00</time></trkpt><trkpt lat="35.1011283" lon="32.5112949"><ele>55.2</ele><time>2015-04-26T09:10:13.0000000+00:00</time></trkpt><trkpt lat="35.1011413" lon="32.5113654"><ele>54.6</ele><time>2015-04-26T09:10:14.0000000+00:00</time></trkpt><trkpt lat="35.1011551" lon="32.5114419"><ele>53.8</ele><time>2015-04-26T09:10:15.0000000+00:00</time></trkpt><trkpt lat="35.1011714" lon="32.511529"><ele>53.3</ele><time>2015-04-26T09:10:16.0000000+00:00</time></trkpt><trkpt lat="35.1011838" lon="32.511624"><ele>52.6</ele><time>2015-04-26T09:10:17.0000000+00:00</time></trkpt><trkpt lat="35.1012058" lon="32.5117106"><ele>51.8</ele><time>2015-04-26T09:10:18.0000000+00:00</time></trkpt><trkpt lat="35.1012202" lon="32.5117981"><ele>51.4</ele><time>2015-04-26T09:10:19.0000000+00:00</time></trkpt><trkpt lat="35.1012341" lon="32.511884"><ele>51.1</ele><time>2015-04-26T09:10:20.0000000+00:00</time></trkpt><trkpt lat="35.10125" lon="32.5119729"><ele>51.5</ele><time>2015-04-26T09:10:21.0000000+00:00</time></trkpt><trkpt lat="35.1012711" lon="32.5120615"><ele>51.7</ele><time>2015-04-26T09:10:22.0000000+00:00</time></trkpt><trkpt lat="35.101289" lon="32.512149"><ele>52.3</ele><time>2015-04-26T09:10:23.0000000+00:00</time></trkpt><trkpt lat="35.1013061" lon="32.5122312"><ele>52.1</ele><time>2015-04-26T09:10:24.0000000+00:00</time></trkpt><trkpt lat="35.1013206" lon="32.5123117"><ele>52.0</ele><time>2015-04-26T09:10:25.0000000+00:00</time></trkpt><trkpt lat="35.1013266" lon="32.5123864"><ele>52.0</ele><time>2015-04-26T09:10:26.0000000+00:00</time></trkpt><trkpt lat="35.1013179" lon="32.5124754"><ele>51.5</ele><time>2015-04-26T09:10:27.0000000+00:00</time></trkpt><trkpt lat="35.1013168" lon="32.5125647"><ele>50.2</ele><time>2015-04-26T09:10:28.0000000+00:00</time></trkpt><trkpt lat="35.101307" lon="32.5126392"><ele>49.6</ele><time>2015-04-26T09:10:29.0000000+00:00</time></trkpt><trkpt lat="35.10129" lon="32.5127202"><ele>49.2</ele><time>2015-04-26T09:10:30.0000000+00:00</time></trkpt><trkpt lat="35.1012682" lon="32.5127974"><ele>48.6</ele><time>2015-04-26T09:10:31.0000000+00:00</time></trkpt><trkpt lat="35.1012539" lon="32.5128618"><ele>48.8</ele><time>2015-04-26T09:10:32.0000000+00:00</time></trkpt><trkpt lat="35.1012354" lon="32.512921"><ele>49.3</ele><time>2015-04-26T09:10:33.0000000+00:00</time></trkpt><trkpt lat="35.1012065" lon="32.5130169"><ele>49.1</ele><time>2015-04-26T09:10:34.0000000+00:00</time></trkpt><trkpt lat="35.1011791" lon="32.5130848"><ele>48.5</ele><time>2015-04-26T09:10:35.0000000+00:00</time></trkpt><trkpt lat="35.1011608" lon="32.5131485"><ele>48.2</ele><time>2015-04-26T09:10:36.0000000+00:00</time></trkpt><trkpt lat="35.1011444" lon="32.5132044"><ele>48.1</ele><time>2015-04-26T09:10:37.0000000+00:00</time></trkpt><trkpt lat="35.101097" lon="32.5133091"><ele>48.0</ele><time>2015-04-26T09:10:39.0000000+00:00</time></trkpt><trkpt lat="35.1010639" lon="32.5133565"><ele>48.4</ele><time>2015-04-26T09:10:40.0000000+00:00</time></trkpt><trkpt lat="35.1010263" lon="32.5134007"><ele>48.2</ele><time>2015-04-26T09:10:41.0000000+00:00</time></trkpt><trkpt lat="35.100967" lon="32.5134642"><ele>48.0</ele><time>2015-04-26T09:10:43.0000000+00:00</time></trkpt><trkpt lat="35.100908" lon="32.5135297"><ele>48.7</ele><time>2015-04-26T09:10:45.0000000+00:00</time></trkpt><trkpt lat="35.1008548" lon="32.5135996"><ele>49.6</ele><time>2015-04-26T09:10:47.0000000+00:00</time></trkpt><trkpt lat="35.1008014" lon="32.5136551"><ele>50.6</ele><time>2015-04-26T09:10:49.0000000+00:00</time></trkpt><trkpt lat="35.1007595" lon="32.5137118"><ele>50.8</ele><time>2015-04-26T09:10:51.0000000+00:00</time></trkpt><trkpt lat="35.1007182" lon="32.5137699"><ele>50.9</ele><time>2015-04-26T09:10:53.0000000+00:00</time></trkpt><trkpt lat="35.1006821" lon="32.5138284"><ele>51.2</ele><time>2015-04-26T09:10:55.0000000+00:00</time></trkpt><trkpt lat="35.1006556" lon="32.5138881"><ele>51.0</ele><time>2015-04-26T09:10:57.0000000+00:00</time></trkpt><trkpt lat="35.1006327" lon="32.513954"><ele>51.4</ele><time>2015-04-26T09:10:59.0000000+00:00</time></trkpt><trkpt lat="35.1006188" lon="32.5140245"><ele>52.6</ele><time>2015-04-26T09:11:01.0000000+00:00</time></trkpt><trkpt lat="35.1006066" lon="32.5140932"><ele>54.1</ele><time>2015-04-26T09:11:03.0000000+00:00</time></trkpt><trkpt lat="35.1005965" lon="32.5141585"><ele>52.7</ele><time>2015-04-26T09:11:05.0000000+00:00</time></trkpt><trkpt lat="35.1005825" lon="32.5142248"><ele>52.1</ele><time>2015-04-26T09:11:07.0000000+00:00</time></trkpt><trkpt lat="35.1005619" lon="32.5142944"><ele>52.5</ele><time>2015-04-26T09:11:09.0000000+00:00</time></trkpt><trkpt lat="35.1005387" lon="32.5143653"><ele>53.3</ele><time>2015-04-26T09:11:11.0000000+00:00</time></trkpt><trkpt lat="35.100509" lon="32.5144349"><ele>54.3</ele><time>2015-04-26T09:11:13.0000000+00:00</time></trkpt><trkpt lat="35.10048" lon="32.5145052"><ele>55.3</ele><time>2015-04-26T09:11:15.0000000+00:00</time></trkpt><trkpt lat="35.1004521" lon="32.5145742"><ele>55.0</ele><time>2015-04-26T09:11:17.0000000+00:00</time></trkpt><trkpt lat="35.100424" lon="32.5146356"><ele>54.5</ele><time>2015-04-26T09:11:19.0000000+00:00</time></trkpt><trkpt lat="35.1004044" lon="32.5146885"><ele>54.3</ele><time>2015-04-26T09:11:21.0000000+00:00</time></trkpt><trkpt lat="35.1003826" lon="32.5147508"><ele>53.5</ele><time>2015-04-26T09:11:25.0000000+00:00</time></trkpt><trkpt lat="35.1003654" lon="32.5148058"><ele>54.3</ele><time>2015-04-26T09:11:28.0000000+00:00</time></trkpt><trkpt lat="35.1003468" lon="32.5148632"><ele>54.1</ele><time>2015-04-26T09:11:31.0000000+00:00</time></trkpt><trkpt lat="35.1003388" lon="32.5149208"><ele>54.8</ele><time>2015-04-26T09:11:34.0000000+00:00</time></trkpt><trkpt lat="35.1003381" lon="32.5149866"><ele>54.0</ele><time>2015-04-26T09:11:38.0000000+00:00</time></trkpt><trkpt lat="35.1003574" lon="32.5150439"><ele>55.3</ele><time>2015-04-26T09:11:57.0000000+00:00</time></trkpt><trkpt lat="35.1003569" lon="32.5151252"><ele>54.5</ele><time>2015-04-26T09:12:00.0000000+00:00</time></trkpt><trkpt lat="35.1003577" lon="32.5151836"><ele>53.8</ele><time>2015-04-26T09:12:02.0000000+00:00</time></trkpt><trkpt lat="35.1003701" lon="32.5152422"><ele>54.7</ele><time>2015-04-26T09:12:04.0000000+00:00</time></trkpt><trkpt lat="35.1003763" lon="32.5153016"><ele>54.9</ele><time>2015-04-26T09:12:06.0000000+00:00</time></trkpt><trkpt lat="35.1003807" lon="32.5153584"><ele>55.4</ele><time>2015-04-26T09:12:08.0000000+00:00</time></trkpt><trkpt lat="35.10039" lon="32.5154123"><ele>56.1</ele><time>2015-04-26T09:12:10.0000000+00:00</time></trkpt><trkpt lat="35.1003955" lon="32.5154885"><ele>57.6</ele><time>2015-04-26T09:12:13.0000000+00:00</time></trkpt><trkpt lat="35.1003985" lon="32.5155604"><ele>58.6</ele><time>2015-04-26T09:12:16.0000000+00:00</time></trkpt><trkpt lat="35.1003998" lon="32.5156305"><ele>58.4</ele><time>2015-04-26T09:12:19.0000000+00:00</time></trkpt><trkpt lat="35.1003977" lon="32.5156972"><ele>59.7</ele><time>2015-04-26T09:12:22.0000000+00:00</time></trkpt><trkpt lat="35.1003852" lon="32.5157562"><ele>59.9</ele><time>2015-04-26T09:12:25.0000000+00:00</time></trkpt><trkpt lat="35.1003737" lon="32.515823"><ele>59.9</ele><time>2015-04-26T09:12:29.0000000+00:00</time></trkpt><trkpt lat="35.1003753" lon="32.5158971"><ele>63.5</ele><time>2015-04-26T09:13:56.0000000+00:00</time></trkpt><trkpt lat="35.1003831" lon="32.5159567"><ele>63.1</ele><time>2015-04-26T09:13:58.0000000+00:00</time></trkpt><trkpt lat="35.1003931" lon="32.5160253"><ele>62.5</ele><time>2015-04-26T09:14:00.0000000+00:00</time></trkpt><trkpt lat="35.1003986" lon="32.5160946"><ele>63.3</ele><time>2015-04-26T09:14:02.0000000+00:00</time></trkpt><trkpt lat="35.1004099" lon="32.5161634"><ele>64.3</ele><time>2015-04-26T09:14:04.0000000+00:00</time></trkpt><trkpt lat="35.100421" lon="32.5162315"><ele>64.0</ele><time>2015-04-26T09:14:06.0000000+00:00</time></trkpt><trkpt lat="35.1004331" lon="32.5163005"><ele>64.0</ele><time>2015-04-26T09:14:08.0000000+00:00</time></trkpt><trkpt lat="35.100451" lon="32.5163586"><ele>64.4</ele><time>2015-04-26T09:14:10.0000000+00:00</time></trkpt><trkpt lat="35.1004714" lon="32.5164349"><ele>64.9</ele><time>2015-04-26T09:14:13.0000000+00:00</time></trkpt><trkpt lat="35.1004853" lon="32.5164914"><ele>65.4</ele><time>2015-04-26T09:14:15.0000000+00:00</time></trkpt><trkpt lat="35.1004972" lon="32.5165451"><ele>65.8</ele><time>2015-04-26T09:14:17.0000000+00:00</time></trkpt><trkpt lat="35.1005061" lon="32.5166216"><ele>67.7</ele><time>2015-04-26T09:14:20.0000000+00:00</time></trkpt><trkpt lat="35.1004785" lon="32.5166917"><ele>69.1</ele><time>2015-04-26T09:14:23.0000000+00:00</time></trkpt><trkpt lat="35.1004458" lon="32.5167625"><ele>69.0</ele><time>2015-04-26T09:14:26.0000000+00:00</time></trkpt><trkpt lat="35.1004335" lon="32.5168161"><ele>69.7</ele><time>2015-04-26T09:14:28.0000000+00:00</time></trkpt><trkpt lat="35.1004214" lon="32.5168703"><ele>70.6</ele><time>2015-04-26T09:14:30.0000000+00:00</time></trkpt><trkpt lat="35.1003892" lon="32.5169379"><ele>71.6</ele><time>2015-04-26T09:14:33.0000000+00:00</time></trkpt><trkpt lat="35.1003563" lon="32.5170092"><ele>71.0</ele><time>2015-04-26T09:14:36.0000000+00:00</time></trkpt><trkpt lat="35.1003325" lon="32.517057"><ele>71.0</ele><time>2015-04-26T09:14:38.0000000+00:00</time></trkpt><trkpt lat="35.1002918" lon="32.5171206"><ele>70.9</ele><time>2015-04-26T09:14:41.0000000+00:00</time></trkpt><trkpt lat="35.1002646" lon="32.5171648"><ele>71.7</ele><time>2015-04-26T09:14:43.0000000+00:00</time></trkpt><trkpt lat="35.1002322" lon="32.5172054"><ele>71.4</ele><time>2015-04-26T09:14:45.0000000+00:00</time></trkpt><trkpt lat="35.1001974" lon="32.5172423"><ele>71.0</ele><time>2015-04-26T09:14:47.0000000+00:00</time></trkpt><trkpt lat="35.1001617" lon="32.5172777"><ele>70.5</ele><time>2015-04-26T09:14:49.0000000+00:00</time></trkpt><trkpt lat="35.1001253" lon="32.5173113"><ele>70.3</ele><time>2015-04-26T09:14:51.0000000+00:00</time></trkpt><trkpt lat="35.1000847" lon="32.5173464"><ele>71.0</ele><time>2015-04-26T09:14:53.0000000+00:00</time></trkpt><trkpt lat="35.100041" lon="32.5173812"><ele>70.5</ele><time>2015-04-26T09:14:55.0000000+00:00</time></trkpt><trkpt lat="35.0999984" lon="32.5174159"><ele>68.3</ele><time>2015-04-26T09:14:57.0000000+00:00</time></trkpt><trkpt lat="35.09996" lon="32.5174506"><ele>67.0</ele><time>2015-04-26T09:14:59.0000000+00:00</time></trkpt><trkpt lat="35.0999085" lon="32.5174966"><ele>68.3</ele><time>2015-04-26T09:15:02.0000000+00:00</time></trkpt><trkpt lat="35.0998794" lon="32.5175435"><ele>70.4</ele><time>2015-04-26T09:15:05.0000000+00:00</time></trkpt><trkpt lat="35.099927" lon="32.5174903"><ele>72.9</ele><time>2015-04-26T09:19:13.0000000+00:00</time></trkpt><trkpt lat="35.099958" lon="32.5174486"><ele>72.2</ele><time>2015-04-26T09:19:15.0000000+00:00</time></trkpt><trkpt lat="35.0999973" lon="32.5173997"><ele>71.5</ele><time>2015-04-26T09:19:17.0000000+00:00</time></trkpt><trkpt lat="35.1000423" lon="32.5173453"><ele>71.1</ele><time>2015-04-26T09:19:19.0000000+00:00</time></trkpt><trkpt lat="35.1000918" lon="32.5173018"><ele>70.2</ele><time>2015-04-26T09:19:21.0000000+00:00</time></trkpt><trkpt lat="35.1001409" lon="32.5172689"><ele>70.0</ele><time>2015-04-26T09:19:23.0000000+00:00</time></trkpt><trkpt lat="35.1001835" lon="32.5172232"><ele>70.7</ele><time>2015-04-26T09:19:25.0000000+00:00</time></trkpt><trkpt lat="35.1002213" lon="32.5171759"><ele>70.4</ele><time>2015-04-26T09:19:27.0000000+00:00</time></trkpt><trkpt lat="35.1002592" lon="32.5171343"><ele>70.0</ele><time>2015-04-26T09:19:29.0000000+00:00</time></trkpt><trkpt lat="35.1002908" lon="32.5170896"><ele>70.7</ele><time>2015-04-26T09:19:31.0000000+00:00</time></trkpt><trkpt lat="35.1003159" lon="32.5170437"><ele>71.1</ele><time>2015-04-26T09:19:33.0000000+00:00</time></trkpt><trkpt lat="35.1003516" lon="32.5169816"><ele>71.7</ele><time>2015-04-26T09:19:36.0000000+00:00</time></trkpt><trkpt lat="35.1003826" lon="32.5169198"><ele>69.9</ele><time>2015-04-26T09:19:39.0000000+00:00</time></trkpt><trkpt lat="35.1004103" lon="32.5168613"><ele>68.3</ele><time>2015-04-26T09:19:42.0000000+00:00</time></trkpt><trkpt lat="35.1004342" lon="32.5167909"><ele>66.4</ele><time>2015-04-26T09:19:45.0000000+00:00</time></trkpt><trkpt lat="35.1004568" lon="32.5167338"><ele>65.3</ele><time>2015-04-26T09:19:47.0000000+00:00</time></trkpt><trkpt lat="35.1004799" lon="32.5166565"><ele>65.5</ele><time>2015-04-26T09:19:49.0000000+00:00</time></trkpt><trkpt lat="35.1004982" lon="32.5165639"><ele>65.6</ele><time>2015-04-26T09:19:51.0000000+00:00</time></trkpt><trkpt lat="35.1005053" lon="32.5164687"><ele>65.8</ele><time>2015-04-26T09:19:53.0000000+00:00</time></trkpt><trkpt lat="35.1004936" lon="32.5163694"><ele>65.4</ele><time>2015-04-26T09:19:55.0000000+00:00</time></trkpt><trkpt lat="35.1004741" lon="32.5163041"><ele>64.7</ele><time>2015-04-26T09:19:56.0000000+00:00</time></trkpt><trkpt lat="35.1004451" lon="32.5162176"><ele>62.4</ele><time>2015-04-26T09:19:58.0000000+00:00</time></trkpt><trkpt lat="35.1004219" lon="32.5161133"><ele>61.3</ele><time>2015-04-26T09:20:00.0000000+00:00</time></trkpt><trkpt lat="35.1004154" lon="32.5160565"><ele>61.1</ele><time>2015-04-26T09:20:01.0000000+00:00</time></trkpt><trkpt lat="35.1003994" lon="32.5160048"><ele>60.5</ele><time>2015-04-26T09:20:02.0000000+00:00</time></trkpt><trkpt lat="35.1003992" lon="32.515947"><ele>60.7</ele><time>2015-04-26T09:20:03.0000000+00:00</time></trkpt><trkpt lat="35.1004178" lon="32.5158381"><ele>60.9</ele><time>2015-04-26T09:20:05.0000000+00:00</time></trkpt><trkpt lat="35.1004212" lon="32.5157805"><ele>60.4</ele><time>2015-04-26T09:20:06.0000000+00:00</time></trkpt><trkpt lat="35.1004229" lon="32.5156687"><ele>58.8</ele><time>2015-04-26T09:20:08.0000000+00:00</time></trkpt><trkpt lat="35.1004176" lon="32.5156047"><ele>58.4</ele><time>2015-04-26T09:20:09.0000000+00:00</time></trkpt><trkpt lat="35.1004133" lon="32.5155383"><ele>57.6</ele><time>2015-04-26T09:20:10.0000000+00:00</time></trkpt><trkpt lat="35.100413" lon="32.5154735"><ele>57.3</ele><time>2015-04-26T09:20:11.0000000+00:00</time></trkpt><trkpt lat="35.1004038" lon="32.515396"><ele>56.6</ele><time>2015-04-26T09:20:12.0000000+00:00</time></trkpt><trkpt lat="35.1003962" lon="32.5153189"><ele>56.3</ele><time>2015-04-26T09:20:13.0000000+00:00</time></trkpt><trkpt lat="35.1003854" lon="32.5152542"><ele>55.6</ele><time>2015-04-26T09:20:14.0000000+00:00</time></trkpt><trkpt lat="35.1003767" lon="32.5151924"><ele>55.3</ele><time>2015-04-26T09:20:15.0000000+00:00</time></trkpt><trkpt lat="35.1003689" lon="32.5151278"><ele>55.6</ele><time>2015-04-26T09:20:16.0000000+00:00</time></trkpt><trkpt lat="35.1003644" lon="32.5150612"><ele>55.8</ele><time>2015-04-26T09:20:17.0000000+00:00</time></trkpt><trkpt lat="35.1003481" lon="32.5150063"><ele>55.3</ele><time>2015-04-26T09:20:18.0000000+00:00</time></trkpt><trkpt lat="35.1003484" lon="32.514907"><ele>53.8</ele><time>2015-04-26T09:20:20.0000000+00:00</time></trkpt><trkpt lat="35.1003512" lon="32.5148278"><ele>52.1</ele><time>2015-04-26T09:20:22.0000000+00:00</time></trkpt><trkpt lat="35.1003688" lon="32.5147533"><ele>50.7</ele><time>2015-04-26T09:20:24.0000000+00:00</time></trkpt><trkpt lat="35.100418" lon="32.5147079"><ele>50.7</ele><time>2015-04-26T09:20:27.0000000+00:00</time></trkpt><trkpt lat="35.1004691" lon="32.5147067"><ele>51.6</ele><time>2015-04-26T09:20:29.0000000+00:00</time></trkpt><trkpt lat="35.1005099" lon="32.5147391"><ele>52.4</ele><time>2015-04-26T09:20:31.0000000+00:00</time></trkpt><trkpt lat="35.1005467" lon="32.5147825"><ele>53.3</ele><time>2015-04-26T09:20:33.0000000+00:00</time></trkpt><trkpt lat="35.1005813" lon="32.5148266"><ele>52.5</ele><time>2015-04-26T09:20:35.0000000+00:00</time></trkpt><trkpt lat="35.1006199" lon="32.5148651"><ele>52.8</ele><time>2015-04-26T09:20:37.0000000+00:00</time></trkpt><trkpt lat="35.1006559" lon="32.5149172"><ele>53.2</ele><time>2015-04-26T09:20:39.0000000+00:00</time></trkpt><trkpt lat="35.1006772" lon="32.5149858"><ele>53.7</ele><time>2015-04-26T09:20:41.0000000+00:00</time></trkpt><trkpt lat="35.1006874" lon="32.5150481"><ele>53.9</ele><time>2015-04-26T09:20:43.0000000+00:00</time></trkpt><trkpt lat="35.1007072" lon="32.5151172"><ele>53.4</ele><time>2015-04-26T09:20:46.0000000+00:00</time></trkpt><trkpt lat="35.1007268" lon="32.5151764"><ele>53.0</ele><time>2015-04-26T09:20:50.0000000+00:00</time></trkpt><trkpt lat="35.100735" lon="32.5152439"><ele>54.1</ele><time>2015-04-26T09:20:54.0000000+00:00</time></trkpt><trkpt lat="35.1007448" lon="32.5153047"><ele>54.4</ele><time>2015-04-26T09:20:58.0000000+00:00</time></trkpt><trkpt lat="35.1007495" lon="32.5153698"><ele>57.1</ele><time>2015-04-26T09:21:02.0000000+00:00</time></trkpt><trkpt lat="35.1007682" lon="32.5154311"><ele>58.4</ele><time>2015-04-26T09:21:06.0000000+00:00</time></trkpt><trkpt lat="35.1007804" lon="32.5154947"><ele>59.4</ele><time>2015-04-26T09:21:10.0000000+00:00</time></trkpt><trkpt lat="35.1007947" lon="32.5155632"><ele>59.0</ele><time>2015-04-26T09:21:14.0000000+00:00</time></trkpt><trkpt lat="35.100814" lon="32.5156229"><ele>59.7</ele><time>2015-04-26T09:21:18.0000000+00:00</time></trkpt><trkpt lat="35.1008293" lon="32.5156824"><ele>61.4</ele><time>2015-04-26T09:21:22.0000000+00:00</time></trkpt><trkpt lat="35.1008528" lon="32.5157404"><ele>61.1</ele><time>2015-04-26T09:21:26.0000000+00:00</time></trkpt><trkpt lat="35.1008885" lon="32.5157864"><ele>61.3</ele><time>2015-04-26T09:21:30.0000000+00:00</time></trkpt><trkpt lat="35.1009166" lon="32.5158388"><ele>61.8</ele><time>2015-04-26T09:21:34.0000000+00:00</time></trkpt><trkpt lat="35.1009429" lon="32.5158903"><ele>61.9</ele><time>2015-04-26T09:21:38.0000000+00:00</time></trkpt><trkpt lat="35.1009687" lon="32.5159456"><ele>62.7</ele><time>2015-04-26T09:21:42.0000000+00:00</time></trkpt><trkpt lat="35.1009951" lon="32.516003"><ele>62.0</ele><time>2015-04-26T09:21:46.0000000+00:00</time></trkpt><trkpt lat="35.1010278" lon="32.5160676"><ele>64.6</ele><time>2015-04-26T09:21:50.0000000+00:00</time></trkpt><trkpt lat="35.1010438" lon="32.5161249"><ele>66.4</ele><time>2015-04-26T09:21:53.0000000+00:00</time></trkpt><trkpt lat="35.1010611" lon="32.5161782"><ele>68.5</ele><time>2015-04-26T09:21:56.0000000+00:00</time></trkpt><trkpt lat="35.1010859" lon="32.5162342"><ele>68.9</ele><time>2015-04-26T09:22:00.0000000+00:00</time></trkpt><trkpt lat="35.1011002" lon="32.5162944"><ele>70.6</ele><time>2015-04-26T09:22:04.0000000+00:00</time></trkpt><trkpt lat="35.1011219" lon="32.5163464"><ele>69.7</ele><time>2015-04-26T09:22:08.0000000+00:00</time></trkpt><trkpt lat="35.1011438" lon="32.5163965"><ele>70.4</ele><time>2015-04-26T09:22:12.0000000+00:00</time></trkpt><trkpt lat="35.1011667" lon="32.516449"><ele>70.5</ele><time>2015-04-26T09:22:16.0000000+00:00</time></trkpt><trkpt lat="35.1011782" lon="32.5165145"><ele>71.2</ele><time>2015-04-26T09:22:20.0000000+00:00</time></trkpt><trkpt lat="35.101189" lon="32.5165782"><ele>70.1</ele><time>2015-04-26T09:22:24.0000000+00:00</time></trkpt><trkpt lat="35.1011939" lon="32.516642"><ele>70.4</ele><time>2015-04-26T09:22:28.0000000+00:00</time></trkpt><trkpt lat="35.1011912" lon="32.516711"><ele>71.1</ele><time>2015-04-26T09:22:32.0000000+00:00</time></trkpt><trkpt lat="35.1011816" lon="32.5167722"><ele>70.7</ele><time>2015-04-26T09:22:37.0000000+00:00</time></trkpt><trkpt lat="35.1011641" lon="32.5168287"><ele>71.4</ele><time>2015-04-26T09:22:42.0000000+00:00</time></trkpt><trkpt lat="35.1011582" lon="32.5168942"><ele>73.7</ele><time>2015-04-26T09:22:47.0000000+00:00</time></trkpt><trkpt lat="35.1011496" lon="32.5169488"><ele>74.9</ele><time>2015-04-26T09:22:51.0000000+00:00</time></trkpt><trkpt lat="35.101163" lon="32.5170024"><ele>75.6</ele><time>2015-04-26T09:22:55.0000000+00:00</time></trkpt><trkpt lat="35.1011666" lon="32.517066"><ele>75.6</ele><time>2015-04-26T09:23:00.0000000+00:00</time></trkpt><trkpt lat="35.1011315" lon="32.5171222"><ele>75.6</ele><time>2015-04-26T09:23:04.0000000+00:00</time></trkpt><trkpt lat="35.1011044" lon="32.5171784"><ele>75.4</ele><time>2015-04-26T09:23:07.0000000+00:00</time></trkpt><trkpt lat="35.1010767" lon="32.5172425"><ele>75.2</ele><time>2015-04-26T09:23:10.0000000+00:00</time></trkpt><trkpt lat="35.101049" lon="32.517311"><ele>75.7</ele><time>2015-04-26T09:23:13.0000000+00:00</time></trkpt><trkpt lat="35.1010206" lon="32.5173822"><ele>77.5</ele><time>2015-04-26T09:23:16.0000000+00:00</time></trkpt><trkpt lat="35.1009882" lon="32.517452"><ele>78.4</ele><time>2015-04-26T09:23:19.0000000+00:00</time></trkpt><trkpt lat="35.1009581" lon="32.5175221"><ele>78.1</ele><time>2015-04-26T09:23:22.0000000+00:00</time></trkpt><trkpt lat="35.1009335" lon="32.5175979"><ele>78.1</ele><time>2015-04-26T09:23:25.0000000+00:00</time></trkpt><trkpt lat="35.1009177" lon="32.517667"><ele>77.6</ele><time>2015-04-26T09:23:28.0000000+00:00</time></trkpt><trkpt lat="35.1008801" lon="32.5177"><ele>68.8</ele><time>2015-04-26T09:23:55.0000000+00:00</time></trkpt><trkpt lat="35.1008924" lon="32.5177541"><ele>70.8</ele><time>2015-04-26T09:25:48.0000000+00:00</time></trkpt><trkpt lat="35.1008927" lon="32.5178103"><ele>70.9</ele><time>2015-04-26T09:25:51.0000000+00:00</time></trkpt><trkpt lat="35.100899" lon="32.5178837"><ele>72.6</ele><time>2015-04-26T09:25:54.0000000+00:00</time></trkpt><trkpt lat="35.1009067" lon="32.517952"><ele>72.6</ele><time>2015-04-26T09:25:57.0000000+00:00</time></trkpt><trkpt lat="35.1009134" lon="32.518018"><ele>73.6</ele><time>2015-04-26T09:26:00.0000000+00:00</time></trkpt><trkpt lat="35.1009126" lon="32.5180796"><ele>75.5</ele><time>2015-04-26T09:26:03.0000000+00:00</time></trkpt><trkpt lat="35.100897" lon="32.5181377"><ele>76.9</ele><time>2015-04-26T09:26:06.0000000+00:00</time></trkpt><trkpt lat="35.1008788" lon="32.5182049"><ele>77.5</ele><time>2015-04-26T09:26:09.0000000+00:00</time></trkpt><trkpt lat="35.1008684" lon="32.5182696"><ele>77.1</ele><time>2015-04-26T09:26:12.0000000+00:00</time></trkpt><trkpt lat="35.1008444" lon="32.5183225"><ele>78.6</ele><time>2015-04-26T09:26:15.0000000+00:00</time></trkpt><trkpt lat="35.1008188" lon="32.5183797"><ele>80.6</ele><time>2015-04-26T09:26:18.0000000+00:00</time></trkpt><trkpt lat="35.1008002" lon="32.5184446"><ele>80.5</ele><time>2015-04-26T09:26:21.0000000+00:00</time></trkpt><trkpt lat="35.1007852" lon="32.5185058"><ele>82.5</ele><time>2015-04-26T09:26:24.0000000+00:00</time></trkpt><trkpt lat="35.1007723" lon="32.5185652"><ele>84.1</ele><time>2015-04-26T09:26:27.0000000+00:00</time></trkpt><trkpt lat="35.100763" lon="32.5186244"><ele>84.1</ele><time>2015-04-26T09:26:30.0000000+00:00</time></trkpt><trkpt lat="35.1007583" lon="32.5186885"><ele>85.7</ele><time>2015-04-26T09:26:33.0000000+00:00</time></trkpt><trkpt lat="35.1007614" lon="32.5187632"><ele>85.9</ele><time>2015-04-26T09:26:36.0000000+00:00</time></trkpt><trkpt lat="35.1007698" lon="32.5188208"><ele>85.2</ele><time>2015-04-26T09:26:38.0000000+00:00</time></trkpt><trkpt lat="35.1007876" lon="32.5188952"><ele>85.7</ele><time>2015-04-26T09:26:40.0000000+00:00</time></trkpt><trkpt lat="35.1008177" lon="32.5189775"><ele>85.9</ele><time>2015-04-26T09:26:42.0000000+00:00</time></trkpt><trkpt lat="35.1008578" lon="32.5190666"><ele>85.9</ele><time>2015-04-26T09:26:44.0000000+00:00</time></trkpt><trkpt lat="35.1008836" lon="32.5191129"><ele>85.9</ele><time>2015-04-26T09:26:45.0000000+00:00</time></trkpt><trkpt lat="35.100937" lon="32.5192034"><ele>85.4</ele><time>2015-04-26T09:26:47.0000000+00:00</time></trkpt><trkpt lat="35.1009865" lon="32.5192803"><ele>85.1</ele><time>2015-04-26T09:26:49.0000000+00:00</time></trkpt><trkpt lat="35.1010261" lon="32.5193289"><ele>84.5</ele><time>2015-04-26T09:26:51.0000000+00:00</time></trkpt><trkpt lat="35.1010602" lon="32.5193693"><ele>83.1</ele><time>2015-04-26T09:26:54.0000000+00:00</time></trkpt><trkpt lat="35.101089" lon="32.5194318"><ele>82.1</ele><time>2015-04-26T09:26:57.0000000+00:00</time></trkpt><trkpt lat="35.1011429" lon="32.5194672"><ele>81.4</ele><time>2015-04-26T09:27:00.0000000+00:00</time></trkpt><trkpt lat="35.1011891" lon="32.5194852"><ele>81.7</ele><time>2015-04-26T09:27:04.0000000+00:00</time></trkpt><trkpt lat="35.101237" lon="32.5194816"><ele>81.9</ele><time>2015-04-26T09:27:08.0000000+00:00</time></trkpt><trkpt lat="35.1012837" lon="32.5194997"><ele>82.9</ele><time>2015-04-26T09:27:12.0000000+00:00</time></trkpt><trkpt lat="35.1013337" lon="32.5195332"><ele>86.0</ele><time>2015-04-26T09:27:16.0000000+00:00</time></trkpt><trkpt lat="35.1013824" lon="32.5195571"><ele>88.7</ele><time>2015-04-26T09:27:20.0000000+00:00</time></trkpt><trkpt lat="35.1014217" lon="32.519599"><ele>85.9</ele><time>2015-04-26T09:27:24.0000000+00:00</time></trkpt><trkpt lat="35.1014516" lon="32.5196577"><ele>86.6</ele><time>2015-04-26T09:27:28.0000000+00:00</time></trkpt><trkpt lat="35.1014792" lon="32.5197145"><ele>86.2</ele><time>2015-04-26T09:27:32.0000000+00:00</time></trkpt><trkpt lat="35.1015097" lon="32.5197625"><ele>88.2</ele><time>2015-04-26T09:27:36.0000000+00:00</time></trkpt><trkpt lat="35.1015552" lon="32.519773"><ele>85.4</ele><time>2015-04-26T09:27:50.0000000+00:00</time></trkpt><trkpt lat="35.1016048" lon="32.519797"><ele>88.9</ele><time>2015-04-26T09:28:37.0000000+00:00</time></trkpt><trkpt lat="35.1016526" lon="32.5198182"><ele>89.7</ele><time>2015-04-26T09:28:43.0000000+00:00</time></trkpt><trkpt lat="35.1016975" lon="32.5198394"><ele>89.7</ele><time>2015-04-26T09:28:48.0000000+00:00</time></trkpt><trkpt lat="35.1017396" lon="32.5198605"><ele>91.7</ele><time>2015-04-26T09:28:53.0000000+00:00</time></trkpt><trkpt lat="35.1017855" lon="32.5198762"><ele>91.9</ele><time>2015-04-26T09:28:59.0000000+00:00</time></trkpt><trkpt lat="35.1018383" lon="32.5198822"><ele>94.0</ele><time>2015-04-26T09:29:05.0000000+00:00</time></trkpt><trkpt lat="35.1018871" lon="32.5198917"><ele>93.2</ele><time>2015-04-26T09:29:11.0000000+00:00</time></trkpt><trkpt lat="35.1019339" lon="32.5199144"><ele>95.5</ele><time>2015-04-26T09:29:18.0000000+00:00</time></trkpt><trkpt lat="35.1019794" lon="32.5199365"><ele>95.7</ele><time>2015-04-26T09:29:26.0000000+00:00</time></trkpt><trkpt lat="35.1020265" lon="32.5199568"><ele>95.9</ele><time>2015-04-26T09:29:33.0000000+00:00</time></trkpt><trkpt lat="35.1020744" lon="32.5199692"><ele>97.8</ele><time>2015-04-26T09:29:41.0000000+00:00</time></trkpt><trkpt lat="35.1021201" lon="32.5199615"><ele>99.8</ele><time>2015-04-26T09:29:46.0000000+00:00</time></trkpt><trkpt lat="35.1021684" lon="32.5199373"><ele>100.9</ele><time>2015-04-26T09:29:51.0000000+00:00</time></trkpt><trkpt lat="35.1022148" lon="32.519912"><ele>100.9</ele><time>2015-04-26T09:29:56.0000000+00:00</time></trkpt><trkpt lat="35.1022595" lon="32.5198934"><ele>101.9</ele><time>2015-04-26T09:30:02.0000000+00:00</time></trkpt><trkpt lat="35.1023033" lon="32.5198646"><ele>104.6</ele><time>2015-04-26T09:30:09.0000000+00:00</time></trkpt><trkpt lat="35.1023467" lon="32.519844"><ele>105.7</ele><time>2015-04-26T09:30:16.0000000+00:00</time></trkpt><trkpt lat="35.1023902" lon="32.519824"><ele>106.6</ele><time>2015-04-26T09:30:24.0000000+00:00</time></trkpt><trkpt lat="35.102436" lon="32.5198034"><ele>108.8</ele><time>2015-04-26T09:30:32.0000000+00:00</time></trkpt><trkpt lat="35.1024824" lon="32.5197899"><ele>110.8</ele><time>2015-04-26T09:30:39.0000000+00:00</time></trkpt><trkpt lat="35.1025294" lon="32.5197977"><ele>112.5</ele><time>2015-04-26T09:30:45.0000000+00:00</time></trkpt><trkpt lat="35.1025774" lon="32.519816"><ele>111.2</ele><time>2015-04-26T09:30:52.0000000+00:00</time></trkpt><trkpt lat="35.1026017" lon="32.5198676"><ele>109.5</ele><time>2015-04-26T09:31:03.0000000+00:00</time></trkpt><trkpt lat="35.1026106" lon="32.5199265"><ele>111.1</ele><time>2015-04-26T09:31:11.0000000+00:00</time></trkpt><trkpt lat="35.1025907" lon="32.5199826"><ele>111.6</ele><time>2015-04-26T09:31:18.0000000+00:00</time></trkpt><trkpt lat="35.1025525" lon="32.5200195"><ele>111.9</ele><time>2015-04-26T09:31:24.0000000+00:00</time></trkpt><trkpt lat="35.1025266" lon="32.5200723"><ele>114.1</ele><time>2015-04-26T09:31:39.0000000+00:00</time></trkpt><trkpt lat="35.1024999" lon="32.5201266"><ele>117.5</ele><time>2015-04-26T09:31:45.0000000+00:00</time></trkpt><trkpt lat="35.1024828" lon="32.5201785"><ele>116.8</ele><time>2015-04-26T09:31:50.0000000+00:00</time></trkpt><trkpt lat="35.102459" lon="32.5202303"><ele>119.5</ele><time>2015-04-26T09:31:56.0000000+00:00</time></trkpt><trkpt lat="35.102449" lon="32.5202879"><ele>122.2</ele><time>2015-04-26T09:32:02.0000000+00:00</time></trkpt><trkpt lat="35.1024435" lon="32.5203435"><ele>122.0</ele><time>2015-04-26T09:32:08.0000000+00:00</time></trkpt><trkpt lat="35.1024768" lon="32.5203906"><ele>122.6</ele><time>2015-04-26T09:32:15.0000000+00:00</time></trkpt><trkpt lat="35.102526" lon="32.5203839"><ele>121.1</ele><time>2015-04-26T09:32:20.0000000+00:00</time></trkpt><trkpt lat="35.1025708" lon="32.5203653"><ele>120.5</ele><time>2015-04-26T09:32:27.0000000+00:00</time></trkpt><trkpt lat="35.1026109" lon="32.5203309"><ele>120.8</ele><time>2015-04-26T09:32:40.0000000+00:00</time></trkpt><trkpt lat="35.1026537" lon="32.5202976"><ele>121.4</ele><time>2015-04-26T09:32:45.0000000+00:00</time></trkpt><trkpt lat="35.1026967" lon="32.5202682"><ele>122.5</ele><time>2015-04-26T09:32:50.0000000+00:00</time></trkpt><trkpt lat="35.102732" lon="32.5202322"><ele>123.0</ele><time>2015-04-26T09:32:55.0000000+00:00</time></trkpt><trkpt lat="35.1027758" lon="32.5202019"><ele>123.9</ele><time>2015-04-26T09:33:01.0000000+00:00</time></trkpt><trkpt lat="35.1028259" lon="32.5201774"><ele>124.1</ele><time>2015-04-26T09:33:07.0000000+00:00</time></trkpt><trkpt lat="35.1028696" lon="32.520152"><ele>124.8</ele><time>2015-04-26T09:33:12.0000000+00:00</time></trkpt><trkpt lat="35.1029095" lon="32.520121"><ele>128.3</ele><time>2015-04-26T09:33:31.0000000+00:00</time></trkpt><trkpt lat="35.102953" lon="32.5200964"><ele>127.9</ele><time>2015-04-26T09:33:37.0000000+00:00</time></trkpt><trkpt lat="35.1029954" lon="32.5200608"><ele>128.7</ele><time>2015-04-26T09:33:43.0000000+00:00</time></trkpt><trkpt lat="35.103023" lon="32.5200144"><ele>129.9</ele><time>2015-04-26T09:33:48.0000000+00:00</time></trkpt><trkpt lat="35.1030502" lon="32.519968"><ele>129.9</ele><time>2015-04-26T09:33:56.0000000+00:00</time></trkpt><trkpt lat="35.1030651" lon="32.5199136"><ele>131.0</ele><time>2015-04-26T09:34:03.0000000+00:00</time></trkpt><trkpt lat="35.1030959" lon="32.5198714"><ele>132.7</ele><time>2015-04-26T09:34:13.0000000+00:00</time></trkpt><trkpt lat="35.1031332" lon="32.5198365"><ele>134.0</ele><time>2015-04-26T09:34:20.0000000+00:00</time></trkpt><trkpt lat="35.1031751" lon="32.5198143"><ele>134.1</ele><time>2015-04-26T09:34:32.0000000+00:00</time></trkpt><trkpt lat="35.103204" lon="32.5198583"><ele>134.3</ele><time>2015-04-26T09:34:38.0000000+00:00</time></trkpt><trkpt lat="35.1032074" lon="32.5199198"><ele>134.0</ele><time>2015-04-26T09:34:44.0000000+00:00</time></trkpt><trkpt lat="35.1032171" lon="32.5199746"><ele>133.2</ele><time>2015-04-26T09:34:49.0000000+00:00</time></trkpt><trkpt lat="35.1032294" lon="32.5200397"><ele>131.4</ele><time>2015-04-26T09:34:55.0000000+00:00</time></trkpt><trkpt lat="35.103233" lon="32.5200948"><ele>131.9</ele><time>2015-04-26T09:35:00.0000000+00:00</time></trkpt><trkpt lat="35.1032254" lon="32.5201543"><ele>133.4</ele><time>2015-04-26T09:35:11.0000000+00:00</time></trkpt><trkpt lat="35.1032176" lon="32.5202162"><ele>135.6</ele><time>2015-04-26T09:35:16.0000000+00:00</time></trkpt><trkpt lat="35.1032191" lon="32.5202803"><ele>136.8</ele><time>2015-04-26T09:35:21.0000000+00:00</time></trkpt><trkpt lat="35.1032278" lon="32.520339"><ele>136.6</ele><time>2015-04-26T09:35:26.0000000+00:00</time></trkpt><trkpt lat="35.1032373" lon="32.520397"><ele>137.0</ele><time>2015-04-26T09:35:31.0000000+00:00</time></trkpt><trkpt lat="35.1032465" lon="32.5204517"><ele>138.6</ele><time>2015-04-26T09:35:36.0000000+00:00</time></trkpt><trkpt lat="35.1032588" lon="32.5205136"><ele>142.1</ele><time>2015-04-26T09:35:42.0000000+00:00</time></trkpt><trkpt lat="35.1032591" lon="32.5205756"><ele>142.2</ele><time>2015-04-26T09:35:47.0000000+00:00</time></trkpt><trkpt lat="35.1032664" lon="32.5206347"><ele>142.1</ele><time>2015-04-26T09:35:53.0000000+00:00</time></trkpt><trkpt lat="35.1032341" lon="32.5206877"><ele>142.9</ele><time>2015-04-26T09:35:58.0000000+00:00</time></trkpt><trkpt lat="35.1032326" lon="32.5207508"><ele>142.4</ele><time>2015-04-26T09:36:04.0000000+00:00</time></trkpt><trkpt lat="35.1032295" lon="32.5208159"><ele>143.4</ele><time>2015-04-26T09:36:09.0000000+00:00</time></trkpt><trkpt lat="35.1032328" lon="32.5208717"><ele>144.8</ele><time>2015-04-26T09:36:13.0000000+00:00</time></trkpt><trkpt lat="35.1032544" lon="32.5209308"><ele>144.9</ele><time>2015-04-26T09:36:18.0000000+00:00</time></trkpt><trkpt lat="35.1032484" lon="32.5209877"><ele>147.1</ele><time>2015-04-26T09:36:28.0000000+00:00</time></trkpt><trkpt lat="35.103245" lon="32.5210445"><ele>150.7</ele><time>2015-04-26T09:36:37.0000000+00:00</time></trkpt><trkpt lat="35.1032636" lon="32.5210981"><ele>154.3</ele><time>2015-04-26T09:36:46.0000000+00:00</time></trkpt><trkpt lat="35.103272" lon="32.5211554"><ele>151.4</ele><time>2015-04-26T09:37:01.0000000+00:00</time></trkpt><trkpt lat="35.1032836" lon="32.5212121"><ele>151.4</ele><time>2015-04-26T09:37:25.0000000+00:00</time></trkpt><trkpt lat="35.1032956" lon="32.5212718"><ele>151.5</ele><time>2015-04-26T09:37:34.0000000+00:00</time></trkpt><trkpt lat="35.1033062" lon="32.5213262"><ele>151.7</ele><time>2015-04-26T09:37:41.0000000+00:00</time></trkpt><trkpt lat="35.1033247" lon="32.5213808"><ele>152.0</ele><time>2015-04-26T09:37:49.0000000+00:00</time></trkpt><trkpt lat="35.1033465" lon="32.5214348"><ele>151.9</ele><time>2015-04-26T09:37:57.0000000+00:00</time></trkpt><trkpt lat="35.1033884" lon="32.521469"><ele>154.7</ele><time>2015-04-26T09:38:05.0000000+00:00</time></trkpt><trkpt lat="35.10343" lon="32.5215034"><ele>161.4</ele><time>2015-04-26T09:38:33.0000000+00:00</time></trkpt><trkpt lat="35.1034792" lon="32.5215175"><ele>161.8</ele><time>2015-04-26T09:39:30.0000000+00:00</time></trkpt><trkpt lat="35.1035242" lon="32.5215113"><ele>161.9</ele><time>2015-04-26T09:39:36.0000000+00:00</time></trkpt><trkpt lat="35.1035717" lon="32.5215034"><ele>163.7</ele><time>2015-04-26T09:39:43.0000000+00:00</time></trkpt><trkpt lat="35.1036094" lon="32.5214695"><ele>163.8</ele><time>2015-04-26T09:39:49.0000000+00:00</time></trkpt><trkpt lat="35.1036562" lon="32.5214425"><ele>163.9</ele><time>2015-04-26T09:39:56.0000000+00:00</time></trkpt><trkpt lat="35.1036998" lon="32.5214188"><ele>165.5</ele><time>2015-04-26T09:40:08.0000000+00:00</time></trkpt><trkpt lat="35.1037422" lon="32.521391"><ele>165.8</ele><time>2015-04-26T09:40:17.0000000+00:00</time></trkpt><trkpt lat="35.1037839" lon="32.52137"><ele>167.8</ele><time>2015-04-26T09:40:26.0000000+00:00</time></trkpt><trkpt lat="35.1038233" lon="32.5213324"><ele>169.1</ele><time>2015-04-26T09:40:33.0000000+00:00</time></trkpt><trkpt lat="35.1038709" lon="32.5213196"><ele>169.4</ele><time>2015-04-26T09:40:40.0000000+00:00</time></trkpt><trkpt lat="35.1039225" lon="32.5213031"><ele>170.9</ele><time>2015-04-26T09:40:55.0000000+00:00</time></trkpt><trkpt lat="35.1039672" lon="32.5212862"><ele>169.9</ele><time>2015-04-26T09:41:03.0000000+00:00</time></trkpt><trkpt lat="35.1040109" lon="32.5212476"><ele>170.9</ele><time>2015-04-26T09:41:07.0000000+00:00</time></trkpt><trkpt lat="35.1040657" lon="32.5212222"><ele>170.5</ele><time>2015-04-26T09:41:10.0000000+00:00</time></trkpt><trkpt lat="35.1041222" lon="32.5211969"><ele>171.3</ele><time>2015-04-26T09:41:13.0000000+00:00</time></trkpt><trkpt lat="35.1041799" lon="32.521185"><ele>171.1</ele><time>2015-04-26T09:41:16.0000000+00:00</time></trkpt><trkpt lat="35.1042298" lon="32.5211971"><ele>171.3</ele><time>2015-04-26T09:41:19.0000000+00:00</time></trkpt><trkpt lat="35.1042746" lon="32.5212228"><ele>171.6</ele><time>2015-04-26T09:41:22.0000000+00:00</time></trkpt><trkpt lat="35.1043124" lon="32.5212544"><ele>171.9</ele><time>2015-04-26T09:41:25.0000000+00:00</time></trkpt><trkpt lat="35.1043468" lon="32.521299"><ele>172.4</ele><time>2015-04-26T09:41:29.0000000+00:00</time></trkpt><trkpt lat="35.1043335" lon="32.5213568"><ele>174.5</ele><time>2015-04-26T09:41:57.0000000+00:00</time></trkpt><trkpt lat="35.104343" lon="32.5214196"><ele>177.6</ele><time>2015-04-26T09:42:03.0000000+00:00</time></trkpt><trkpt lat="35.1043509" lon="32.5214826"><ele>177.9</ele><time>2015-04-26T09:42:09.0000000+00:00</time></trkpt><trkpt lat="35.1043725" lon="32.5215371"><ele>179.6</ele><time>2015-04-26T09:42:14.0000000+00:00</time></trkpt><trkpt lat="35.1043811" lon="32.5215962"><ele>180.5</ele><time>2015-04-26T09:42:19.0000000+00:00</time></trkpt><trkpt lat="35.1043946" lon="32.5216587"><ele>181.4</ele><time>2015-04-26T09:42:25.0000000+00:00</time></trkpt><trkpt lat="35.1044133" lon="32.5217177"><ele>182.4</ele><time>2015-04-26T09:42:31.0000000+00:00</time></trkpt><trkpt lat="35.1044275" lon="32.5217781"><ele>182.6</ele><time>2015-04-26T09:42:37.0000000+00:00</time></trkpt><trkpt lat="35.1044291" lon="32.5218352"><ele>182.9</ele><time>2015-04-26T09:42:42.0000000+00:00</time></trkpt><trkpt lat="35.104431" lon="32.5219007"><ele>181.7</ele><time>2015-04-26T09:42:54.0000000+00:00</time></trkpt><trkpt lat="35.104457" lon="32.5219556"><ele>182.9</ele><time>2015-04-26T09:43:00.0000000+00:00</time></trkpt><trkpt lat="35.1044809" lon="32.5220114"><ele>182.9</ele><time>2015-04-26T09:43:05.0000000+00:00</time></trkpt><trkpt lat="35.1044869" lon="32.5220738"><ele>183.4</ele><time>2015-04-26T09:43:10.0000000+00:00</time></trkpt><trkpt lat="35.1044894" lon="32.5221372"><ele>186.6</ele><time>2015-04-26T09:43:30.0000000+00:00</time></trkpt><trkpt lat="35.1044934" lon="32.5222014"><ele>186.7</ele><time>2015-04-26T09:43:35.0000000+00:00</time></trkpt><trkpt lat="35.1045022" lon="32.5222684"><ele>186.0</ele><time>2015-04-26T09:43:40.0000000+00:00</time></trkpt><trkpt lat="35.1045014" lon="32.5223247"><ele>186.9</ele><time>2015-04-26T09:43:44.0000000+00:00</time></trkpt><trkpt lat="35.1045087" lon="32.5223892"><ele>186.7</ele><time>2015-04-26T09:43:49.0000000+00:00</time></trkpt><trkpt lat="35.1045132" lon="32.5224518"><ele>186.7</ele><time>2015-04-26T09:43:54.0000000+00:00</time></trkpt><trkpt lat="35.1045296" lon="32.5225107"><ele>186.9</ele><time>2015-04-26T09:43:59.0000000+00:00</time></trkpt><trkpt lat="35.1045437" lon="32.5225704"><ele>188.5</ele><time>2015-04-26T09:44:10.0000000+00:00</time></trkpt><trkpt lat="35.104561" lon="32.5226212"><ele>187.2</ele><time>2015-04-26T09:44:16.0000000+00:00</time></trkpt><trkpt lat="35.104569" lon="32.5226762"><ele>189.7</ele><time>2015-04-26T09:44:26.0000000+00:00</time></trkpt><trkpt lat="35.1045763" lon="32.5227329"><ele>192.7</ele><time>2015-04-26T09:44:32.0000000+00:00</time></trkpt><trkpt lat="35.1045768" lon="32.5227916"><ele>195.6</ele><time>2015-04-26T09:44:55.0000000+00:00</time></trkpt><trkpt lat="35.1045868" lon="32.5228474"><ele>195.6</ele><time>2015-04-26T09:45:16.0000000+00:00</time></trkpt><trkpt lat="35.1046071" lon="32.5228997"><ele>197.4</ele><time>2015-04-26T09:45:23.0000000+00:00</time></trkpt><trkpt lat="35.104631" lon="32.5229502"><ele>199.3</ele><time>2015-04-26T09:45:31.0000000+00:00</time></trkpt><trkpt lat="35.1046567" lon="32.5229982"><ele>198.8</ele><time>2015-04-26T09:45:38.0000000+00:00</time></trkpt><trkpt lat="35.104677" lon="32.5230495"><ele>200.6</ele><time>2015-04-26T09:45:46.0000000+00:00</time></trkpt><trkpt lat="35.1047004" lon="32.5231038"><ele>200.3</ele><time>2015-04-26T09:45:55.0000000+00:00</time></trkpt><trkpt lat="35.1047067" lon="32.5231587"><ele>202.7</ele><time>2015-04-26T09:46:05.0000000+00:00</time></trkpt><trkpt lat="35.1047401" lon="32.5232034"><ele>203.2</ele><time>2015-04-26T09:46:12.0000000+00:00</time></trkpt><trkpt lat="35.1047559" lon="32.523262"><ele>206.0</ele><time>2015-04-26T09:46:18.0000000+00:00</time></trkpt><trkpt lat="35.1047901" lon="32.5233023"><ele>204.8</ele><time>2015-04-26T09:46:38.0000000+00:00</time></trkpt><trkpt lat="35.1048252" lon="32.5233455"><ele>205.7</ele><time>2015-04-26T09:46:45.0000000+00:00</time></trkpt><trkpt lat="35.1048589" lon="32.523383"><ele>205.4</ele><time>2015-04-26T09:46:51.0000000+00:00</time></trkpt><trkpt lat="35.1048827" lon="32.5234307"><ele>205.5</ele><time>2015-04-26T09:46:57.0000000+00:00</time></trkpt><trkpt lat="35.1048996" lon="32.5234864"><ele>208.2</ele><time>2015-04-26T09:47:04.0000000+00:00</time></trkpt><trkpt lat="35.1049237" lon="32.5235441"><ele>211.2</ele><time>2015-04-26T09:47:11.0000000+00:00</time></trkpt><trkpt lat="35.1049402" lon="32.5236037"><ele>211.7</ele><time>2015-04-26T09:47:17.0000000+00:00</time></trkpt><trkpt lat="35.1049392" lon="32.5236636"><ele>208.2</ele><time>2015-04-26T09:47:39.0000000+00:00</time></trkpt><trkpt lat="35.104931" lon="32.5237256"><ele>207.0</ele><time>2015-04-26T09:47:45.0000000+00:00</time></trkpt><trkpt lat="35.1049769" lon="32.5237196"><ele>208.4</ele><time>2015-04-26T09:49:36.0000000+00:00</time></trkpt><trkpt lat="35.1050194" lon="32.5236796"><ele>208.9</ele><time>2015-04-26T09:51:13.0000000+00:00</time></trkpt><trkpt lat="35.1050685" lon="32.5236487"><ele>207.7</ele><time>2015-04-26T09:51:17.0000000+00:00</time></trkpt><trkpt lat="35.1051256" lon="32.523625"><ele>206.3</ele><time>2015-04-26T09:51:20.0000000+00:00</time></trkpt><trkpt lat="35.1051818" lon="32.5236011"><ele>204.5</ele><time>2015-04-26T09:51:23.0000000+00:00</time></trkpt><trkpt lat="35.1052363" lon="32.523581"><ele>205.6</ele><time>2015-04-26T09:51:26.0000000+00:00</time></trkpt><trkpt lat="35.1052923" lon="32.5235721"><ele>204.8</ele><time>2015-04-26T09:51:29.0000000+00:00</time></trkpt><trkpt lat="35.1053518" lon="32.5235568"><ele>204.0</ele><time>2015-04-26T09:51:32.0000000+00:00</time></trkpt><trkpt lat="35.1054002" lon="32.5235345"><ele>203.2</ele><time>2015-04-26T09:51:34.0000000+00:00</time></trkpt><trkpt lat="35.1054533" lon="32.5234968"><ele>203.7</ele><time>2015-04-26T09:51:36.0000000+00:00</time></trkpt><trkpt lat="35.1054988" lon="32.5234475"><ele>203.9</ele><time>2015-04-26T09:51:38.0000000+00:00</time></trkpt><trkpt lat="35.1055406" lon="32.5233946"><ele>203.2</ele><time>2015-04-26T09:51:40.0000000+00:00</time></trkpt><trkpt lat="35.1055792" lon="32.5233359"><ele>201.7</ele><time>2015-04-26T09:51:42.0000000+00:00</time></trkpt><trkpt lat="35.1056152" lon="32.5232743"><ele>201.9</ele><time>2015-04-26T09:51:44.0000000+00:00</time></trkpt><trkpt lat="35.1056514" lon="32.5232029"><ele>200.7</ele><time>2015-04-26T09:51:46.0000000+00:00</time></trkpt><trkpt lat="35.1056894" lon="32.5231229"><ele>199.1</ele><time>2015-04-26T09:51:48.0000000+00:00</time></trkpt><trkpt lat="35.1057301" lon="32.5230422"><ele>197.0</ele><time>2015-04-26T09:51:50.0000000+00:00</time></trkpt><trkpt lat="35.1057846" lon="32.5229213"><ele>195.7</ele><time>2015-04-26T09:51:52.0000000+00:00</time></trkpt><trkpt lat="35.1058065" lon="32.5228672"><ele>194.8</ele><time>2015-04-26T09:51:53.0000000+00:00</time></trkpt><trkpt lat="35.105833" lon="32.5228018"><ele>194.4</ele><time>2015-04-26T09:51:54.0000000+00:00</time></trkpt><trkpt lat="35.105854" lon="32.5227342"><ele>193.7</ele><time>2015-04-26T09:51:55.0000000+00:00</time></trkpt><trkpt lat="35.1058744" lon="32.522674"><ele>193.3</ele><time>2015-04-26T09:51:56.0000000+00:00</time></trkpt><trkpt lat="35.1059027" lon="32.5225846"><ele>192.3</ele><time>2015-04-26T09:51:58.0000000+00:00</time></trkpt><trkpt lat="35.1059282" lon="32.5225077"><ele>191.3</ele><time>2015-04-26T09:52:00.0000000+00:00</time></trkpt><trkpt lat="35.1059452" lon="32.522449"><ele>190.5</ele><time>2015-04-26T09:52:02.0000000+00:00</time></trkpt><trkpt lat="35.1059648" lon="32.522389"><ele>190.1</ele><time>2015-04-26T09:52:04.0000000+00:00</time></trkpt><trkpt lat="35.1059868" lon="32.5223244"><ele>189.5</ele><time>2015-04-26T09:52:06.0000000+00:00</time></trkpt><trkpt lat="35.1060048" lon="32.5222518"><ele>188.3</ele><time>2015-04-26T09:52:08.0000000+00:00</time></trkpt><trkpt lat="35.1060199" lon="32.5221862"><ele>187.3</ele><time>2015-04-26T09:52:10.0000000+00:00</time></trkpt><trkpt lat="35.1060367" lon="32.5221192"><ele>186.2</ele><time>2015-04-26T09:52:13.0000000+00:00</time></trkpt><trkpt lat="35.106042" lon="32.522064"><ele>186.3</ele><time>2015-04-26T09:52:16.0000000+00:00</time></trkpt><trkpt lat="35.1060432" lon="32.5220057"><ele>186.7</ele><time>2015-04-26T09:52:19.0000000+00:00</time></trkpt><trkpt lat="35.106049" lon="32.5219361"><ele>186.2</ele><time>2015-04-26T09:52:22.0000000+00:00</time></trkpt><trkpt lat="35.1060705" lon="32.5218698"><ele>186.1</ele><time>2015-04-26T09:52:25.0000000+00:00</time></trkpt><trkpt lat="35.1061124" lon="32.5218062"><ele>185.2</ele><time>2015-04-26T09:52:28.0000000+00:00</time></trkpt><trkpt lat="35.1061456" lon="32.5217555"><ele>184.2</ele><time>2015-04-26T09:52:30.0000000+00:00</time></trkpt><trkpt lat="35.1061788" lon="32.5216888"><ele>183.5</ele><time>2015-04-26T09:52:32.0000000+00:00</time></trkpt><trkpt lat="35.106203" lon="32.5216083"><ele>181.8</ele><time>2015-04-26T09:52:34.0000000+00:00</time></trkpt><trkpt lat="35.1062193" lon="32.5215164"><ele>181.2</ele><time>2015-04-26T09:52:36.0000000+00:00</time></trkpt><trkpt lat="35.1062321" lon="32.5214247"><ele>181.7</ele><time>2015-04-26T09:52:38.0000000+00:00</time></trkpt><trkpt lat="35.1062404" lon="32.5213513"><ele>182.1</ele><time>2015-04-26T09:52:40.0000000+00:00</time></trkpt><trkpt lat="35.1062393" lon="32.5212891"><ele>179.1</ele><time>2015-04-26T09:53:20.0000000+00:00</time></trkpt><trkpt lat="35.1062279" lon="32.5212354"><ele>181.9</ele><time>2015-04-26T09:53:48.0000000+00:00</time></trkpt><trkpt lat="35.1062391" lon="32.521182"><ele>179.9</ele><time>2015-04-26T09:54:04.0000000+00:00</time></trkpt><trkpt lat="35.1062213" lon="32.5211281"><ele>176.7</ele><time>2015-04-26T09:54:22.0000000+00:00</time></trkpt><trkpt lat="35.1061855" lon="32.5210845"><ele>175.9</ele><time>2015-04-26T09:54:30.0000000+00:00</time></trkpt><trkpt lat="35.1061606" lon="32.5210366"><ele>174.1</ele><time>2015-04-26T09:54:39.0000000+00:00</time></trkpt><trkpt lat="35.1061246" lon="32.520995"><ele>173.7</ele><time>2015-04-26T09:54:46.0000000+00:00</time></trkpt><trkpt lat="35.1060817" lon="32.5209626"><ele>173.1</ele><time>2015-04-26T09:54:52.0000000+00:00</time></trkpt><trkpt lat="35.1060572" lon="32.5209144"><ele>170.0</ele><time>2015-04-26T09:55:06.0000000+00:00</time></trkpt><trkpt lat="35.1060297" lon="32.5208668"><ele>166.2</ele><time>2015-04-26T09:55:11.0000000+00:00</time></trkpt><trkpt lat="35.1059994" lon="32.52082"><ele>165.9</ele><time>2015-04-26T09:55:15.0000000+00:00</time></trkpt><trkpt lat="35.1059606" lon="32.5207793"><ele>165.5</ele><time>2015-04-26T09:55:20.0000000+00:00</time></trkpt><trkpt lat="35.1059279" lon="32.5207375"><ele>165.9</ele><time>2015-04-26T09:55:36.0000000+00:00</time></trkpt><trkpt lat="35.1059011" lon="32.5206897"><ele>164.9</ele><time>2015-04-26T09:55:43.0000000+00:00</time></trkpt><trkpt lat="35.105909" lon="32.5206308"><ele>162.6</ele><time>2015-04-26T09:55:50.0000000+00:00</time></trkpt><trkpt lat="35.1058807" lon="32.5205825"><ele>160.0</ele><time>2015-04-26T09:56:10.0000000+00:00</time></trkpt><trkpt lat="35.1058813" lon="32.5205217"><ele>158.0</ele><time>2015-04-26T09:56:19.0000000+00:00</time></trkpt><trkpt lat="35.1058681" lon="32.5204687"><ele>157.2</ele><time>2015-04-26T09:57:04.0000000+00:00</time></trkpt><trkpt lat="35.1058493" lon="32.520418"><ele>156.4</ele><time>2015-04-26T09:57:09.0000000+00:00</time></trkpt><trkpt lat="35.1058376" lon="32.5203574"><ele>155.3</ele><time>2015-04-26T09:57:15.0000000+00:00</time></trkpt><trkpt lat="35.1058269" lon="32.5202969"><ele>155.1</ele><time>2015-04-26T09:57:21.0000000+00:00</time></trkpt><trkpt lat="35.1058165" lon="32.5202359"><ele>154.2</ele><time>2015-04-26T09:57:28.0000000+00:00</time></trkpt><trkpt lat="35.1058032" lon="32.5201771"><ele>152.5</ele><time>2015-04-26T09:57:34.0000000+00:00</time></trkpt><trkpt lat="35.1057749" lon="32.5201309"><ele>152.4</ele><time>2015-04-26T09:57:40.0000000+00:00</time></trkpt><trkpt lat="35.1057734" lon="32.5200644"><ele>150.2</ele><time>2015-04-26T09:57:50.0000000+00:00</time></trkpt><trkpt lat="35.1057532" lon="32.5200077"><ele>150.0</ele><time>2015-04-26T09:57:58.0000000+00:00</time></trkpt><trkpt lat="35.1057461" lon="32.519953"><ele>149.4</ele><time>2015-04-26T09:58:10.0000000+00:00</time></trkpt><trkpt lat="35.1057454" lon="32.5198759"><ele>146.8</ele><time>2015-04-26T09:58:14.0000000+00:00</time></trkpt><trkpt lat="35.1057555" lon="32.5198106"><ele>144.4</ele><time>2015-04-26T09:58:16.0000000+00:00</time></trkpt><trkpt lat="35.1057662" lon="32.5197335"><ele>142.0</ele><time>2015-04-26T09:58:18.0000000+00:00</time></trkpt><trkpt lat="35.1057715" lon="32.5196596"><ele>140.5</ele><time>2015-04-26T09:58:20.0000000+00:00</time></trkpt><trkpt lat="35.1057754" lon="32.5195972"><ele>140.1</ele><time>2015-04-26T09:58:22.0000000+00:00</time></trkpt><trkpt lat="35.1057823" lon="32.5195357"><ele>139.2</ele><time>2015-04-26T09:58:25.0000000+00:00</time></trkpt><trkpt lat="35.1057906" lon="32.5194647"><ele>136.6</ele><time>2015-04-26T09:58:29.0000000+00:00</time></trkpt><trkpt lat="35.1057937" lon="32.5193952"><ele>134.3</ele><time>2015-04-26T09:58:32.0000000+00:00</time></trkpt><trkpt lat="35.1057906" lon="32.5193186"><ele>132.3</ele><time>2015-04-26T09:58:35.0000000+00:00</time></trkpt><trkpt lat="35.1057771" lon="32.519265"><ele>130.1</ele><time>2015-04-26T09:58:46.0000000+00:00</time></trkpt><trkpt lat="35.1057627" lon="32.5192123"><ele>127.5</ele><time>2015-04-26T09:58:51.0000000+00:00</time></trkpt><trkpt lat="35.1057516" lon="32.5191548"><ele>126.2</ele><time>2015-04-26T09:58:56.0000000+00:00</time></trkpt><trkpt lat="35.1057428" lon="32.5190968"><ele>127.3</ele><time>2015-04-26T09:59:01.0000000+00:00</time></trkpt><trkpt lat="35.1057256" lon="32.5190428"><ele>126.9</ele><time>2015-04-26T09:59:06.0000000+00:00</time></trkpt><trkpt lat="35.105706" lon="32.5189922"><ele>129.9</ele><time>2015-04-26T09:59:15.0000000+00:00</time></trkpt><trkpt lat="35.1056994" lon="32.5189292"><ele>126.0</ele><time>2015-04-26T09:59:23.0000000+00:00</time></trkpt><trkpt lat="35.1057166" lon="32.5188706"><ele>123.3</ele><time>2015-04-26T09:59:29.0000000+00:00</time></trkpt><trkpt lat="35.1057219" lon="32.518814"><ele>121.9</ele><time>2015-04-26T09:59:44.0000000+00:00</time></trkpt><trkpt lat="35.1057414" lon="32.5187616"><ele>121.0</ele><time>2015-04-26T09:59:55.0000000+00:00</time></trkpt><trkpt lat="35.1057415" lon="32.5187065"><ele>120.1</ele><time>2015-04-26T10:00:09.0000000+00:00</time></trkpt><trkpt lat="35.1057563" lon="32.5186503"><ele>117.6</ele><time>2015-04-26T10:00:34.0000000+00:00</time></trkpt><trkpt lat="35.1057914" lon="32.5185812"><ele>115.0</ele><time>2015-04-26T10:00:56.0000000+00:00</time></trkpt><trkpt lat="35.1058332" lon="32.5184694"><ele>112.4</ele><time>2015-04-26T10:00:58.0000000+00:00</time></trkpt><trkpt lat="35.1058545" lon="32.5184131"><ele>111.2</ele><time>2015-04-26T10:00:59.0000000+00:00</time></trkpt><trkpt lat="35.1058922" lon="32.518314"><ele>109.6</ele><time>2015-04-26T10:01:00.0000000+00:00</time></trkpt><trkpt lat="35.1059273" lon="32.5182269"><ele>107.7</ele><time>2015-04-26T10:01:01.0000000+00:00</time></trkpt><trkpt lat="35.10596" lon="32.5181346"><ele>105.8</ele><time>2015-04-26T10:01:02.0000000+00:00</time></trkpt><trkpt lat="35.1059923" lon="32.5180431"><ele>103.9</ele><time>2015-04-26T10:01:03.0000000+00:00</time></trkpt><trkpt lat="35.1060224" lon="32.5179278"><ele>101.9</ele><time>2015-04-26T10:01:04.0000000+00:00</time></trkpt><trkpt lat="35.1060562" lon="32.5178229"><ele>100.4</ele><time>2015-04-26T10:01:05.0000000+00:00</time></trkpt><trkpt lat="35.1060818" lon="32.5177308"><ele>98.7</ele><time>2015-04-26T10:01:06.0000000+00:00</time></trkpt><trkpt lat="35.1061037" lon="32.5176482"><ele>97.3</ele><time>2015-04-26T10:01:07.0000000+00:00</time></trkpt><trkpt lat="35.1061339" lon="32.517577"><ele>96.1</ele><time>2015-04-26T10:01:08.0000000+00:00</time></trkpt><trkpt lat="35.1061653" lon="32.5175034"><ele>95.5</ele><time>2015-04-26T10:01:09.0000000+00:00</time></trkpt><trkpt lat="35.1061817" lon="32.5174328"><ele>94.7</ele><time>2015-04-26T10:01:10.0000000+00:00</time></trkpt><trkpt lat="35.1061967" lon="32.5173586"><ele>93.8</ele><time>2015-04-26T10:01:11.0000000+00:00</time></trkpt><trkpt lat="35.1062038" lon="32.5172971"><ele>92.9</ele><time>2015-04-26T10:01:12.0000000+00:00</time></trkpt><trkpt lat="35.1062243" lon="32.5172246"><ele>92.4</ele><time>2015-04-26T10:01:13.0000000+00:00</time></trkpt><trkpt lat="35.1062522" lon="32.517155"><ele>92.2</ele><time>2015-04-26T10:01:14.0000000+00:00</time></trkpt><trkpt lat="35.1062663" lon="32.5170855"><ele>91.5</ele><time>2015-04-26T10:01:15.0000000+00:00</time></trkpt><trkpt lat="35.1062835" lon="32.5170287"><ele>90.7</ele><time>2015-04-26T10:01:16.0000000+00:00</time></trkpt><trkpt lat="35.1063105" lon="32.5169604"><ele>89.3</ele><time>2015-04-26T10:01:17.0000000+00:00</time></trkpt><trkpt lat="35.1063245" lon="32.5169005"><ele>88.6</ele><time>2015-04-26T10:01:18.0000000+00:00</time></trkpt><trkpt lat="35.1063432" lon="32.516815"><ele>86.9</ele><time>2015-04-26T10:01:20.0000000+00:00</time></trkpt><trkpt lat="35.1063589" lon="32.5167425"><ele>86.2</ele><time>2015-04-26T10:01:22.0000000+00:00</time></trkpt><trkpt lat="35.1063901" lon="32.5166766"><ele>84.7</ele><time>2015-04-26T10:01:24.0000000+00:00</time></trkpt><trkpt lat="35.1064248" lon="32.5166078"><ele>83.1</ele><time>2015-04-26T10:01:26.0000000+00:00</time></trkpt><trkpt lat="35.1064382" lon="32.5165474"><ele>82.2</ele><time>2015-04-26T10:01:28.0000000+00:00</time></trkpt><trkpt lat="35.106469" lon="32.516475"><ele>81.2</ele><time>2015-04-26T10:01:31.0000000+00:00</time></trkpt><trkpt lat="35.1065" lon="32.5164144"><ele>79.6</ele><time>2015-04-26T10:01:34.0000000+00:00</time></trkpt><trkpt lat="35.1065316" lon="32.516355"><ele>78.5</ele><time>2015-04-26T10:01:37.0000000+00:00</time></trkpt><trkpt lat="35.1065696" lon="32.5162937"><ele>76.4</ele><time>2015-04-26T10:01:40.0000000+00:00</time></trkpt><trkpt lat="35.1066076" lon="32.5162455"><ele>74.6</ele><time>2015-04-26T10:01:43.0000000+00:00</time></trkpt><trkpt lat="35.1066498" lon="32.5162079"><ele>73.3</ele><time>2015-04-26T10:01:46.0000000+00:00</time></trkpt><trkpt lat="35.1066546" lon="32.5161452"><ele>73.0</ele><time>2015-04-26T10:01:49.0000000+00:00</time></trkpt><trkpt lat="35.1066338" lon="32.5160856"><ele>73.4</ele><time>2015-04-26T10:01:52.0000000+00:00</time></trkpt><trkpt lat="35.1065884" lon="32.516049"><ele>73.1</ele><time>2015-04-26T10:02:26.0000000+00:00</time></trkpt><trkpt lat="35.1065369" lon="32.5159964"><ele>71.3</ele><time>2015-04-26T10:02:29.0000000+00:00</time></trkpt><trkpt lat="35.1064914" lon="32.5159692"><ele>70.8</ele><time>2015-04-26T10:02:31.0000000+00:00</time></trkpt><trkpt lat="35.1064341" lon="32.5159575"><ele>70.1</ele><time>2015-04-26T10:02:33.0000000+00:00</time></trkpt><trkpt lat="35.1063616" lon="32.5159724"><ele>70.0</ele><time>2015-04-26T10:02:35.0000000+00:00</time></trkpt><trkpt lat="35.1062866" lon="32.5160093"><ele>69.2</ele><time>2015-04-26T10:02:37.0000000+00:00</time></trkpt><trkpt lat="35.1062167" lon="32.5160503"><ele>68.5</ele><time>2015-04-26T10:02:39.0000000+00:00</time></trkpt><trkpt lat="35.1061437" lon="32.5160598"><ele>68.1</ele><time>2015-04-26T10:02:41.0000000+00:00</time></trkpt><trkpt lat="35.1060827" lon="32.5160204"><ele>67.2</ele><time>2015-04-26T10:02:43.0000000+00:00</time></trkpt><trkpt lat="35.1060427" lon="32.5159528"><ele>66.0</ele><time>2015-04-26T10:02:45.0000000+00:00</time></trkpt><trkpt lat="35.1060327" lon="32.515871"><ele>65.7</ele><time>2015-04-26T10:02:47.0000000+00:00</time></trkpt><trkpt lat="35.1060404" lon="32.5157958"><ele>65.1</ele><time>2015-04-26T10:02:49.0000000+00:00</time></trkpt><trkpt lat="35.1060527" lon="32.515735"><ele>65.0</ele><time>2015-04-26T10:02:51.0000000+00:00</time></trkpt><trkpt lat="35.1060685" lon="32.5156791"><ele>63.2</ele><time>2015-04-26T10:02:55.0000000+00:00</time></trkpt><trkpt lat="35.106085" lon="32.5156135"><ele>63.8</ele><time>2015-04-26T10:02:59.0000000+00:00</time></trkpt><trkpt lat="35.1060955" lon="32.5155533"><ele>63.5</ele><time>2015-04-26T10:03:02.0000000+00:00</time></trkpt><trkpt lat="35.1061119" lon="32.5154781"><ele>63.0</ele><time>2015-04-26T10:03:05.0000000+00:00</time></trkpt><trkpt lat="35.106114" lon="32.5154181"><ele>63.4</ele><time>2015-04-26T10:03:07.0000000+00:00</time></trkpt><trkpt lat="35.1061109" lon="32.5153616"><ele>64.3</ele><time>2015-04-26T10:03:09.0000000+00:00</time></trkpt><trkpt lat="35.1060925" lon="32.5152851"><ele>64.9</ele><time>2015-04-26T10:03:12.0000000+00:00</time></trkpt><trkpt lat="35.1060611" lon="32.5152227"><ele>65.8</ele><time>2015-04-26T10:03:15.0000000+00:00</time></trkpt><trkpt lat="35.106024" lon="32.5151691"><ele>66.8</ele><time>2015-04-26T10:03:18.0000000+00:00</time></trkpt><trkpt lat="35.105995" lon="32.5151189"><ele>66.8</ele><time>2015-04-26T10:03:21.0000000+00:00</time></trkpt><trkpt lat="35.1059496" lon="32.5150792"><ele>66.0</ele><time>2015-04-26T10:03:24.0000000+00:00</time></trkpt><trkpt lat="35.1058984" lon="32.515053"><ele>66.5</ele><time>2015-04-26T10:03:26.0000000+00:00</time></trkpt><trkpt lat="35.1058182" lon="32.5150133"><ele>66.1</ele><time>2015-04-26T10:03:28.0000000+00:00</time></trkpt><trkpt lat="35.1057504" lon="32.5149875"><ele>66.0</ele><time>2015-04-26T10:03:29.0000000+00:00</time></trkpt><trkpt lat="35.1057057" lon="32.51496"><ele>66.0</ele><time>2015-04-26T10:03:30.0000000+00:00</time></trkpt><trkpt lat="35.1056591" lon="32.5149392"><ele>65.4</ele><time>2015-04-26T10:03:31.0000000+00:00</time></trkpt><trkpt lat="35.1056164" lon="32.5149128"><ele>65.2</ele><time>2015-04-26T10:03:32.0000000+00:00</time></trkpt><trkpt lat="35.1055704" lon="32.5148937"><ele>65.6</ele><time>2015-04-26T10:03:33.0000000+00:00</time></trkpt><trkpt lat="35.1055246" lon="32.5148672"><ele>65.2</ele><time>2015-04-26T10:03:34.0000000+00:00</time></trkpt><trkpt lat="35.1054806" lon="32.5148422"><ele>65.1</ele><time>2015-04-26T10:03:35.0000000+00:00</time></trkpt><trkpt lat="35.1054027" lon="32.514807"><ele>65.0</ele><time>2015-04-26T10:03:37.0000000+00:00</time></trkpt><trkpt lat="35.1053274" lon="32.5147637"><ele>64.2</ele><time>2015-04-26T10:03:39.0000000+00:00</time></trkpt><trkpt lat="35.1052546" lon="32.5147345"><ele>64.0</ele><time>2015-04-26T10:03:41.0000000+00:00</time></trkpt><trkpt lat="35.1051953" lon="32.51471"><ele>64.7</ele><time>2015-04-26T10:03:43.0000000+00:00</time></trkpt><trkpt lat="35.1051334" lon="32.5146689"><ele>65.4</ele><time>2015-04-26T10:03:45.0000000+00:00</time></trkpt><trkpt lat="35.1050678" lon="32.5146195"><ele>65.8</ele><time>2015-04-26T10:03:47.0000000+00:00</time></trkpt><trkpt lat="35.1050067" lon="32.5145668"><ele>65.9</ele><time>2015-04-26T10:03:49.0000000+00:00</time></trkpt><trkpt lat="35.1049525" lon="32.5145088"><ele>65.9</ele><time>2015-04-26T10:03:51.0000000+00:00</time></trkpt><trkpt lat="35.1049024" lon="32.5144484"><ele>65.2</ele><time>2015-04-26T10:03:53.0000000+00:00</time></trkpt><trkpt lat="35.1048532" lon="32.5143895"><ele>65.0</ele><time>2015-04-26T10:03:55.0000000+00:00</time></trkpt><trkpt lat="35.1048011" lon="32.5143357"><ele>65.4</ele><time>2015-04-26T10:03:57.0000000+00:00</time></trkpt><trkpt lat="35.1047484" lon="32.5142838"><ele>65.8</ele><time>2015-04-26T10:03:59.0000000+00:00</time></trkpt><trkpt lat="35.1047022" lon="32.5142308"><ele>65.9</ele><time>2015-04-26T10:04:01.0000000+00:00</time></trkpt><trkpt lat="35.1046543" lon="32.5141848"><ele>65.4</ele><time>2015-04-26T10:04:03.0000000+00:00</time></trkpt><trkpt lat="35.1046021" lon="32.5141525"><ele>65.8</ele><time>2015-04-26T10:04:05.0000000+00:00</time></trkpt><trkpt lat="35.1045581" lon="32.5141266"><ele>65.9</ele><time>2015-04-26T10:04:07.0000000+00:00</time></trkpt><trkpt lat="35.1045027" lon="32.5141098"><ele>65.9</ele><time>2015-04-26T10:04:10.0000000+00:00</time></trkpt><trkpt lat="35.1044427" lon="32.5141001"><ele>65.9</ele><time>2015-04-26T10:04:13.0000000+00:00</time></trkpt><trkpt lat="35.104389" lon="32.5140896"><ele>65.9</ele><time>2015-04-26T10:04:16.0000000+00:00</time></trkpt><trkpt lat="35.1043529" lon="32.5140568"><ele>65.7</ele><time>2015-04-26T10:04:19.0000000+00:00</time></trkpt><trkpt lat="35.1043894" lon="32.5140054"><ele>64.3</ele><time>2015-04-26T10:04:22.0000000+00:00</time></trkpt><trkpt lat="35.1044412" lon="32.51399"><ele>63.8</ele><time>2015-04-26T10:04:24.0000000+00:00</time></trkpt><trkpt lat="35.1045067" lon="32.513992"><ele>62.6</ele><time>2015-04-26T10:04:26.0000000+00:00</time></trkpt><trkpt lat="35.1045985" lon="32.5140032"><ele>62.1</ele><time>2015-04-26T10:04:28.0000000+00:00</time></trkpt><trkpt lat="35.1046825" lon="32.5140098"><ele>61.5</ele><time>2015-04-26T10:04:29.0000000+00:00</time></trkpt><trkpt lat="35.1047405" lon="32.5140091"><ele>61.2</ele><time>2015-04-26T10:04:30.0000000+00:00</time></trkpt><trkpt lat="35.1048038" lon="32.5140079"><ele>60.6</ele><time>2015-04-26T10:04:31.0000000+00:00</time></trkpt><trkpt lat="35.1048685" lon="32.5140036"><ele>60.3</ele><time>2015-04-26T10:04:32.0000000+00:00</time></trkpt><trkpt lat="35.1049392" lon="32.5140051"><ele>59.6</ele><time>2015-04-26T10:04:33.0000000+00:00</time></trkpt><trkpt lat="35.1050137" lon="32.5140113"><ele>58.8</ele><time>2015-04-26T10:04:34.0000000+00:00</time></trkpt><trkpt lat="35.1050921" lon="32.5140084"><ele>57.8</ele><time>2015-04-26T10:04:35.0000000+00:00</time></trkpt><trkpt lat="35.1051786" lon="32.5140052"><ele>57.4</ele><time>2015-04-26T10:04:36.0000000+00:00</time></trkpt><trkpt lat="35.1052588" lon="32.5140037"><ele>56.7</ele><time>2015-04-26T10:04:37.0000000+00:00</time></trkpt><trkpt lat="35.1053488" lon="32.5140019"><ele>56.3</ele><time>2015-04-26T10:04:38.0000000+00:00</time></trkpt><trkpt lat="35.1054455" lon="32.5140116"><ele>55.6</ele><time>2015-04-26T10:04:39.0000000+00:00</time></trkpt><trkpt lat="35.1055367" lon="32.5140112"><ele>55.8</ele><time>2015-04-26T10:04:40.0000000+00:00</time></trkpt><trkpt lat="35.1056251" lon="32.514019"><ele>55.9</ele><time>2015-04-26T10:04:41.0000000+00:00</time></trkpt><trkpt lat="35.1057206" lon="32.5140315"><ele>55.9</ele><time>2015-04-26T10:04:42.0000000+00:00</time></trkpt><trkpt lat="35.1058112" lon="32.5140279"><ele>55.9</ele><time>2015-04-26T10:04:43.0000000+00:00</time></trkpt><trkpt lat="35.1058957" lon="32.5140206"><ele>55.4</ele><time>2015-04-26T10:04:44.0000000+00:00</time></trkpt><trkpt lat="35.1059771" lon="32.5140044"><ele>55.2</ele><time>2015-04-26T10:04:45.0000000+00:00</time></trkpt><trkpt lat="35.1060503" lon="32.5139813"><ele>55.1</ele><time>2015-04-26T10:04:46.0000000+00:00</time></trkpt><trkpt lat="35.1061262" lon="32.513949"><ele>55.0</ele><time>2015-04-26T10:04:47.0000000+00:00</time></trkpt><trkpt lat="35.1061984" lon="32.5139137"><ele>54.5</ele><time>2015-04-26T10:04:48.0000000+00:00</time></trkpt><trkpt lat="35.1062646" lon="32.5138804"><ele>54.2</ele><time>2015-04-26T10:04:49.0000000+00:00</time></trkpt><trkpt lat="35.1063328" lon="32.5138641"><ele>54.6</ele><time>2015-04-26T10:04:50.0000000+00:00</time></trkpt><trkpt lat="35.1063963" lon="32.5138476"><ele>54.7</ele><time>2015-04-26T10:04:51.0000000+00:00</time></trkpt><trkpt lat="35.106467" lon="32.513837"><ele>54.3</ele><time>2015-04-26T10:04:52.0000000+00:00</time></trkpt><trkpt lat="35.1065356" lon="32.5138394"><ele>53.6</ele><time>2015-04-26T10:04:53.0000000+00:00</time></trkpt><trkpt lat="35.1065968" lon="32.5138246"><ele>53.3</ele><time>2015-04-26T10:04:54.0000000+00:00</time></trkpt><trkpt lat="35.1066585" lon="32.5138158"><ele>53.1</ele><time>2015-04-26T10:04:55.0000000+00:00</time></trkpt><trkpt lat="35.1067244" lon="32.5138068"><ele>52.0</ele><time>2015-04-26T10:04:56.0000000+00:00</time></trkpt><trkpt lat="35.106788" lon="32.5137954"><ele>51.5</ele><time>2015-04-26T10:04:57.0000000+00:00</time></trkpt><trkpt lat="35.106859" lon="32.5137997"><ele>51.2</ele><time>2015-04-26T10:04:58.0000000+00:00</time></trkpt><trkpt lat="35.1069343" lon="32.5138024"><ele>51.1</ele><time>2015-04-26T10:04:59.0000000+00:00</time></trkpt><trkpt lat="35.1070067" lon="32.513802"><ele>50.5</ele><time>2015-04-26T10:05:00.0000000+00:00</time></trkpt><trkpt lat="35.1070828" lon="32.5138144"><ele>50.2</ele><time>2015-04-26T10:05:01.0000000+00:00</time></trkpt><trkpt lat="35.1071589" lon="32.5138265"><ele>50.1</ele><time>2015-04-26T10:05:02.0000000+00:00</time></trkpt><trkpt lat="35.1072342" lon="32.513851"><ele>49.5</ele><time>2015-04-26T10:05:03.0000000+00:00</time></trkpt><trkpt lat="35.107315" lon="32.5138828"><ele>49.2</ele><time>2015-04-26T10:05:04.0000000+00:00</time></trkpt><trkpt lat="35.1073946" lon="32.5139246"><ele>49.1</ele><time>2015-04-26T10:05:05.0000000+00:00</time></trkpt><trkpt lat="35.1074813" lon="32.5139578"><ele>48.0</ele><time>2015-04-26T10:05:06.0000000+00:00</time></trkpt><trkpt lat="35.1075623" lon="32.5140097"><ele>47.5</ele><time>2015-04-26T10:05:07.0000000+00:00</time></trkpt><trkpt lat="35.1076407" lon="32.5140658"><ele>47.2</ele><time>2015-04-26T10:05:08.0000000+00:00</time></trkpt><trkpt lat="35.107711" lon="32.5141253"><ele>46.6</ele><time>2015-04-26T10:05:09.0000000+00:00</time></trkpt><trkpt lat="35.1077817" lon="32.5141847"><ele>46.2</ele><time>2015-04-26T10:05:10.0000000+00:00</time></trkpt><trkpt lat="35.1078551" lon="32.5142437"><ele>46.6</ele><time>2015-04-26T10:05:11.0000000+00:00</time></trkpt><trkpt lat="35.107926" lon="32.5143183"><ele>46.8</ele><time>2015-04-26T10:05:12.0000000+00:00</time></trkpt><trkpt lat="35.1079936" lon="32.5143825"><ele>46.8</ele><time>2015-04-26T10:05:13.0000000+00:00</time></trkpt><trkpt lat="35.108058" lon="32.5144499"><ele>46.9</ele><time>2015-04-26T10:05:14.0000000+00:00</time></trkpt><trkpt lat="35.1081142" lon="32.5145148"><ele>46.9</ele><time>2015-04-26T10:05:15.0000000+00:00</time></trkpt><trkpt lat="35.1081736" lon="32.5145662"><ele>46.9</ele><time>2015-04-26T10:05:16.0000000+00:00</time></trkpt><trkpt lat="35.1082384" lon="32.5146021"><ele>46.9</ele><time>2015-04-26T10:05:17.0000000+00:00</time></trkpt><trkpt lat="35.1083058" lon="32.5146239"><ele>46.9</ele><time>2015-04-26T10:05:18.0000000+00:00</time></trkpt><trkpt lat="35.1083699" lon="32.5146385"><ele>46.9</ele><time>2015-04-26T10:05:19.0000000+00:00</time></trkpt><trkpt lat="35.1084338" lon="32.514651"><ele>46.9</ele><time>2015-04-26T10:05:20.0000000+00:00</time></trkpt><trkpt lat="35.1085036" lon="32.5146727"><ele>46.9</ele><time>2015-04-26T10:05:21.0000000+00:00</time></trkpt><trkpt lat="35.108577" lon="32.5146888"><ele>46.9</ele><time>2015-04-26T10:05:22.0000000+00:00</time></trkpt><trkpt lat="35.1086405" lon="32.5147078"><ele>46.9</ele><time>2015-04-26T10:05:23.0000000+00:00</time></trkpt><trkpt lat="35.1086967" lon="32.5147344"><ele>46.9</ele><time>2015-04-26T10:05:24.0000000+00:00</time></trkpt><trkpt lat="35.1087715" lon="32.5147731"><ele>46.9</ele><time>2015-04-26T10:05:25.0000000+00:00</time></trkpt><trkpt lat="35.1088427" lon="32.5148107"><ele>47.4</ele><time>2015-04-26T10:05:26.0000000+00:00</time></trkpt><trkpt lat="35.1089266" lon="32.5148462"><ele>47.7</ele><time>2015-04-26T10:05:27.0000000+00:00</time></trkpt><trkpt lat="35.1089997" lon="32.5148865"><ele>47.8</ele><time>2015-04-26T10:05:28.0000000+00:00</time></trkpt><trkpt lat="35.1090703" lon="32.5149306"><ele>48.4</ele><time>2015-04-26T10:05:29.0000000+00:00</time></trkpt><trkpt lat="35.1091345" lon="32.5149536"><ele>47.6</ele><time>2015-04-26T10:05:30.0000000+00:00</time></trkpt><trkpt lat="35.1092132" lon="32.514964"><ele>47.3</ele><time>2015-04-26T10:05:31.0000000+00:00</time></trkpt><trkpt lat="35.1092972" lon="32.5149638"><ele>46.1</ele><time>2015-04-26T10:05:32.0000000+00:00</time></trkpt><trkpt lat="35.1093736" lon="32.514964"><ele>45.0</ele><time>2015-04-26T10:05:33.0000000+00:00</time></trkpt><trkpt lat="35.1094472" lon="32.5149521"><ele>44.0</ele><time>2015-04-26T10:05:34.0000000+00:00</time></trkpt><trkpt lat="35.1095368" lon="32.5149323"><ele>43.0</ele><time>2015-04-26T10:05:35.0000000+00:00</time></trkpt><trkpt lat="35.1096194" lon="32.5149048"><ele>42.4</ele><time>2015-04-26T10:05:36.0000000+00:00</time></trkpt><trkpt lat="35.1096879" lon="32.5148659"><ele>41.7</ele><time>2015-04-26T10:05:37.0000000+00:00</time></trkpt><trkpt lat="35.109753" lon="32.5148273"><ele>40.8</ele><time>2015-04-26T10:05:38.0000000+00:00</time></trkpt><trkpt lat="35.1098107" lon="32.5147665"><ele>40.4</ele><time>2015-04-26T10:05:39.0000000+00:00</time></trkpt><trkpt lat="35.109856" lon="32.514712"><ele>40.1</ele><time>2015-04-26T10:05:40.0000000+00:00</time></trkpt><trkpt lat="35.1098954" lon="32.5146632"><ele>40.0</ele><time>2015-04-26T10:05:41.0000000+00:00</time></trkpt><trkpt lat="35.1099421" lon="32.5146158"><ele>40.5</ele><time>2015-04-26T10:05:42.0000000+00:00</time></trkpt><trkpt lat="35.1099835" lon="32.5145838"><ele>40.7</ele><time>2015-04-26T10:05:43.0000000+00:00</time></trkpt><trkpt lat="35.1100251" lon="32.5145532"><ele>41.3</ele><time>2015-04-26T10:05:44.0000000+00:00</time></trkpt><trkpt lat="35.1100698" lon="32.5145113"><ele>41.6</ele><time>2015-04-26T10:05:45.0000000+00:00</time></trkpt><trkpt lat="35.1101146" lon="32.5144804"><ele>41.3</ele><time>2015-04-26T10:05:46.0000000+00:00</time></trkpt><trkpt lat="35.1101613" lon="32.5144465"><ele>41.6</ele><time>2015-04-26T10:05:47.0000000+00:00</time></trkpt><trkpt lat="35.1102128" lon="32.5144309"><ele>42.3</ele><time>2015-04-26T10:05:48.0000000+00:00</time></trkpt><trkpt lat="35.1102649" lon="32.5144203"><ele>42.6</ele><time>2015-04-26T10:05:49.0000000+00:00</time></trkpt><trkpt lat="35.1103114" lon="32.514406"><ele>42.8</ele><time>2015-04-26T10:05:50.0000000+00:00</time></trkpt><trkpt lat="35.1103625" lon="32.5144049"><ele>43.3</ele><time>2015-04-26T10:05:51.0000000+00:00</time></trkpt><trkpt lat="35.1104157" lon="32.5144063"><ele>43.6</ele><time>2015-04-26T10:05:52.0000000+00:00</time></trkpt><trkpt lat="35.1104972" lon="32.5143913"><ele>43.9</ele><time>2015-04-26T10:05:54.0000000+00:00</time></trkpt><trkpt lat="35.1105504" lon="32.5143894"><ele>43.9</ele><time>2015-04-26T10:05:55.0000000+00:00</time></trkpt><trkpt lat="35.1105976" lon="32.5143719"><ele>43.4</ele><time>2015-04-26T10:05:56.0000000+00:00</time></trkpt><trkpt lat="35.1106474" lon="32.5143536"><ele>43.2</ele><time>2015-04-26T10:05:57.0000000+00:00</time></trkpt><trkpt lat="35.1106921" lon="32.5143352"><ele>43.1</ele><time>2015-04-26T10:05:58.0000000+00:00</time></trkpt><trkpt lat="35.1107436" lon="32.514324"><ele>43.0</ele><time>2015-04-26T10:05:59.0000000+00:00</time></trkpt><trkpt lat="35.1107892" lon="32.5143165"><ele>43.0</ele><time>2015-04-26T10:06:00.0000000+00:00</time></trkpt><trkpt lat="35.1108873" lon="32.5142946"><ele>42.4</ele><time>2015-04-26T10:06:02.0000000+00:00</time></trkpt><trkpt lat="35.110943" lon="32.5142971"><ele>42.2</ele><time>2015-04-26T10:06:03.0000000+00:00</time></trkpt><trkpt lat="35.1109986" lon="32.514289"><ele>41.6</ele><time>2015-04-26T10:06:04.0000000+00:00</time></trkpt><trkpt lat="35.1110513" lon="32.514274"><ele>41.2</ele><time>2015-04-26T10:06:05.0000000+00:00</time></trkpt><trkpt lat="35.1111058" lon="32.5142632"><ele>41.1</ele><time>2015-04-26T10:06:06.0000000+00:00</time></trkpt><trkpt lat="35.1111565" lon="32.5142518"><ele>41.0</ele><time>2015-04-26T10:06:07.0000000+00:00</time></trkpt><trkpt lat="35.1112145" lon="32.5142373"><ele>40.5</ele><time>2015-04-26T10:06:08.0000000+00:00</time></trkpt><trkpt lat="35.1112743" lon="32.5142208"><ele>40.7</ele><time>2015-04-26T10:06:09.0000000+00:00</time></trkpt><trkpt lat="35.1113387" lon="32.5142118"><ele>40.8</ele><time>2015-04-26T10:06:10.0000000+00:00</time></trkpt><trkpt lat="35.1114057" lon="32.5142115"><ele>40.4</ele><time>2015-04-26T10:06:11.0000000+00:00</time></trkpt><trkpt lat="35.1114602" lon="32.5142022"><ele>39.7</ele><time>2015-04-26T10:06:12.0000000+00:00</time></trkpt><trkpt lat="35.1115323" lon="32.5141842"><ele>39.8</ele><time>2015-04-26T10:06:13.0000000+00:00</time></trkpt><trkpt lat="35.1116014" lon="32.5141732"><ele>39.4</ele><time>2015-04-26T10:06:14.0000000+00:00</time></trkpt><trkpt lat="35.1116719" lon="32.5141636"><ele>39.1</ele><time>2015-04-26T10:06:15.0000000+00:00</time></trkpt><trkpt lat="35.1117443" lon="32.5141606"><ele>39.0</ele><time>2015-04-26T10:06:16.0000000+00:00</time></trkpt><trkpt lat="35.111817" lon="32.5141672"><ele>39.5</ele><time>2015-04-26T10:06:17.0000000+00:00</time></trkpt><trkpt lat="35.1118844" lon="32.5141779"><ele>39.2</ele><time>2015-04-26T10:06:18.0000000+00:00</time></trkpt><trkpt lat="35.111964" lon="32.5142042"><ele>39.6</ele><time>2015-04-26T10:06:19.0000000+00:00</time></trkpt><trkpt lat="35.1120367" lon="32.514235"><ele>39.2</ele><time>2015-04-26T10:06:20.0000000+00:00</time></trkpt><trkpt lat="35.1121003" lon="32.5142656"><ele>39.6</ele><time>2015-04-26T10:06:21.0000000+00:00</time></trkpt><trkpt lat="35.1121696" lon="32.514301"><ele>39.3</ele><time>2015-04-26T10:06:22.0000000+00:00</time></trkpt><trkpt lat="35.1122453" lon="32.5143365"><ele>39.1</ele><time>2015-04-26T10:06:23.0000000+00:00</time></trkpt><trkpt lat="35.1123155" lon="32.5143739"><ele>39.0</ele><time>2015-04-26T10:06:24.0000000+00:00</time></trkpt><trkpt lat="35.1123907" lon="32.51441"><ele>38.5</ele><time>2015-04-26T10:06:25.0000000+00:00</time></trkpt><trkpt lat="35.112467" lon="32.5144447"><ele>38.2</ele><time>2015-04-26T10:06:26.0000000+00:00</time></trkpt><trkpt lat="35.1125459" lon="32.5144808"><ele>37.6</ele><time>2015-04-26T10:06:27.0000000+00:00</time></trkpt><trkpt lat="35.1126293" lon="32.5145169"><ele>37.2</ele><time>2015-04-26T10:06:28.0000000+00:00</time></trkpt><trkpt lat="35.1127134" lon="32.5145403"><ele>37.1</ele><time>2015-04-26T10:06:29.0000000+00:00</time></trkpt><trkpt lat="35.112799" lon="32.5145595"><ele>36.5</ele><time>2015-04-26T10:06:30.0000000+00:00</time></trkpt><trkpt lat="35.1128809" lon="32.514575"><ele>36.2</ele><time>2015-04-26T10:06:31.0000000+00:00</time></trkpt><trkpt lat="35.1129726" lon="32.5145836"><ele>35.6</ele><time>2015-04-26T10:06:32.0000000+00:00</time></trkpt><trkpt lat="35.1130559" lon="32.5145975"><ele>34.8</ele><time>2015-04-26T10:06:33.0000000+00:00</time></trkpt><trkpt lat="35.1131301" lon="32.514595"><ele>34.8</ele><time>2015-04-26T10:06:34.0000000+00:00</time></trkpt><trkpt lat="35.1132002" lon="32.5145735"><ele>33.9</ele><time>2015-04-26T10:06:35.0000000+00:00</time></trkpt><trkpt lat="35.1132675" lon="32.514528"><ele>33.4</ele><time>2015-04-26T10:06:36.0000000+00:00</time></trkpt><trkpt lat="35.1133296" lon="32.514493"><ele>33.2</ele><time>2015-04-26T10:06:37.0000000+00:00</time></trkpt><trkpt lat="35.113394" lon="32.5144585"><ele>32.5</ele><time>2015-04-26T10:06:38.0000000+00:00</time></trkpt><trkpt lat="35.1134543" lon="32.5144158"><ele>32.2</ele><time>2015-04-26T10:06:39.0000000+00:00</time></trkpt><trkpt lat="35.1135074" lon="32.514385"><ele>32.1</ele><time>2015-04-26T10:06:40.0000000+00:00</time></trkpt><trkpt lat="35.1135734" lon="32.5143496"><ele>32.0</ele><time>2015-04-26T10:06:41.0000000+00:00</time></trkpt><trkpt lat="35.1136379" lon="32.5143081"><ele>32.0</ele><time>2015-04-26T10:06:42.0000000+00:00</time></trkpt><trkpt lat="35.1136924" lon="32.5142799"><ele>31.4</ele><time>2015-04-26T10:06:43.0000000+00:00</time></trkpt><trkpt lat="35.1137492" lon="32.5142382"><ele>31.2</ele><time>2015-04-26T10:06:44.0000000+00:00</time></trkpt><trkpt lat="35.1138122" lon="32.514198"><ele>31.1</ele><time>2015-04-26T10:06:45.0000000+00:00</time></trkpt><trkpt lat="35.1138758" lon="32.5141519"><ele>31.0</ele><time>2015-04-26T10:06:46.0000000+00:00</time></trkpt><trkpt lat="35.113933" lon="32.5141109"><ele>30.5</ele><time>2015-04-26T10:06:47.0000000+00:00</time></trkpt><trkpt lat="35.1139867" lon="32.5140678"><ele>30.2</ele><time>2015-04-26T10:06:48.0000000+00:00</time></trkpt><trkpt lat="35.1140391" lon="32.5140312"><ele>30.1</ele><time>2015-04-26T10:06:49.0000000+00:00</time></trkpt><trkpt lat="35.1140943" lon="32.5139968"><ele>30.0</ele><time>2015-04-26T10:06:50.0000000+00:00</time></trkpt><trkpt lat="35.114138" lon="32.5139571"><ele>29.5</ele><time>2015-04-26T10:06:51.0000000+00:00</time></trkpt><trkpt lat="35.1141898" lon="32.5139263"><ele>29.2</ele><time>2015-04-26T10:06:52.0000000+00:00</time></trkpt><trkpt lat="35.1142451" lon="32.5138994"><ele>28.6</ele><time>2015-04-26T10:06:53.0000000+00:00</time></trkpt><trkpt lat="35.1142962" lon="32.5138729"><ele>27.7</ele><time>2015-04-26T10:06:54.0000000+00:00</time></trkpt><trkpt lat="35.1143511" lon="32.5138491"><ele>26.8</ele><time>2015-04-26T10:06:55.0000000+00:00</time></trkpt><trkpt lat="35.1144077" lon="32.5138311"><ele>26.4</ele><time>2015-04-26T10:06:56.0000000+00:00</time></trkpt><trkpt lat="35.1144709" lon="32.5138125"><ele>26.2</ele><time>2015-04-26T10:06:57.0000000+00:00</time></trkpt><trkpt lat="35.1145224" lon="32.5137969"><ele>26.0</ele><time>2015-04-26T10:06:58.0000000+00:00</time></trkpt><trkpt lat="35.1145739" lon="32.5137958"><ele>25.5</ele><time>2015-04-26T10:06:59.0000000+00:00</time></trkpt><trkpt lat="35.1146513" lon="32.5137892"><ele>25.8</ele><time>2015-04-26T10:07:01.0000000+00:00</time></trkpt><trkpt lat="35.1146997" lon="32.513792"><ele>25.7</ele><time>2015-04-26T10:07:03.0000000+00:00</time></trkpt><trkpt lat="35.1147525" lon="32.51377"><ele>25.3</ele><time>2015-04-26T10:07:06.0000000+00:00</time></trkpt><trkpt lat="35.1147897" lon="32.5137383"><ele>26.2</ele><time>2015-04-26T10:07:10.0000000+00:00</time></trkpt><trkpt lat="35.1148135" lon="32.5137929"><ele>26.4</ele><time>2015-04-26T10:09:26.0000000+00:00</time></trkpt><trkpt lat="35.1147755" lon="32.5138639"><ele>26.9</ele><time>2015-04-26T10:09:29.0000000+00:00</time></trkpt><trkpt lat="35.1147588" lon="32.5139278"><ele>26.2</ele><time>2015-04-26T10:09:31.0000000+00:00</time></trkpt><trkpt lat="35.1147525" lon="32.513996"><ele>25.2</ele><time>2015-04-26T10:09:33.0000000+00:00</time></trkpt><trkpt lat="35.1147504" lon="32.5140592"><ele>25.8</ele><time>2015-04-26T10:09:35.0000000+00:00</time></trkpt><trkpt lat="35.1147374" lon="32.5141325"><ele>27.3</ele><time>2015-04-26T10:09:38.0000000+00:00</time></trkpt><trkpt lat="35.114726" lon="32.514187"><ele>28.3</ele><time>2015-04-26T10:09:41.0000000+00:00</time></trkpt><trkpt lat="35.114736" lon="32.5142494"><ele>28.9</ele><time>2015-04-26T10:09:44.0000000+00:00</time></trkpt><trkpt lat="35.114751" lon="32.514331"><ele>29.7</ele><time>2015-04-26T10:09:47.0000000+00:00</time></trkpt><trkpt lat="35.1147569" lon="32.5143866"><ele>29.9</ele><time>2015-04-26T10:09:49.0000000+00:00</time></trkpt><trkpt lat="35.1147638" lon="32.5144577"><ele>30.4</ele><time>2015-04-26T10:09:52.0000000+00:00</time></trkpt><trkpt lat="35.1147685" lon="32.5145209"><ele>31.2</ele><time>2015-04-26T10:09:55.0000000+00:00</time></trkpt><trkpt lat="35.1147506" lon="32.5145724"><ele>31.0</ele><time>2015-04-26T10:09:58.0000000+00:00</time></trkpt><trkpt lat="35.1146962" lon="32.5145727"><ele>30.9</ele><time>2015-04-26T10:10:01.0000000+00:00</time></trkpt><trkpt lat="35.1146719" lon="32.5145126"><ele>30.6</ele><time>2015-04-26T10:10:04.0000000+00:00</time></trkpt><trkpt lat="35.1146994" lon="32.514457"><ele>30.9</ele><time>2015-04-26T10:10:07.0000000+00:00</time></trkpt><trkpt lat="35.114679" lon="32.5145062"><ele>31.9</ele><time>2015-04-26T10:10:37.0000000+00:00</time></trkpt><trkpt lat="35.1146909" lon="32.5144488"><ele>31.9</ele><time>2015-04-26T10:10:48.0000000+00:00</time></trkpt><trkpt lat="35.114709" lon="32.5145063"><ele>34.7</ele><time>2015-04-26T10:11:12.0000000+00:00</time></trkpt><trkpt lat="35.1147423" lon="32.5145519"><ele>31.9</ele><time>2015-04-26T10:11:35.0000000+00:00</time></trkpt><trkpt lat="35.1147643" lon="32.5146054"><ele>32.7</ele><time>2015-04-26T10:11:40.0000000+00:00</time></trkpt><trkpt lat="35.1148034" lon="32.5146407"><ele>31.9</ele><time>2015-04-26T10:12:00.0000000+00:00</time></trkpt><trkpt lat="35.1148342" lon="32.5146863"><ele>33.2</ele><time>2015-04-26T10:12:02.0000000+00:00</time></trkpt><trkpt lat="35.1148658" lon="32.5147415"><ele>33.7</ele><time>2015-04-26T10:12:04.0000000+00:00</time></trkpt><trkpt lat="35.1148974" lon="32.514798"><ele>34.6</ele><time>2015-04-26T10:12:06.0000000+00:00</time></trkpt><trkpt lat="35.1149303" lon="32.5148532"><ele>34.9</ele><time>2015-04-26T10:12:08.0000000+00:00</time></trkpt><trkpt lat="35.1149607" lon="32.5149062"><ele>35.7</ele><time>2015-04-26T10:12:10.0000000+00:00</time></trkpt><trkpt lat="35.1149889" lon="32.5149585"><ele>35.9</ele><time>2015-04-26T10:12:12.0000000+00:00</time></trkpt><trkpt lat="35.115014" lon="32.5150091"><ele>35.9</ele><time>2015-04-26T10:12:14.0000000+00:00</time></trkpt><trkpt lat="35.1150421" lon="32.5150657"><ele>36.7</ele><time>2015-04-26T10:12:17.0000000+00:00</time></trkpt><trkpt lat="35.1150172" lon="32.5151162"><ele>36.2</ele><time>2015-04-26T10:12:30.0000000+00:00</time></trkpt><trkpt lat="35.1150457" lon="32.5151832"><ele>34.9</ele><time>2015-04-26T10:13:32.0000000+00:00</time></trkpt><trkpt lat="35.115052" lon="32.5152457"><ele>35.8</ele><time>2015-04-26T10:13:35.0000000+00:00</time></trkpt><trkpt lat="35.1150494" lon="32.5153209"><ele>36.4</ele><time>2015-04-26T10:13:38.0000000+00:00</time></trkpt><trkpt lat="35.1150564" lon="32.5153994"><ele>36.6</ele><time>2015-04-26T10:13:41.0000000+00:00</time></trkpt><trkpt lat="35.1150593" lon="32.5154787"><ele>36.4</ele><time>2015-04-26T10:13:44.0000000+00:00</time></trkpt><trkpt lat="35.1150524" lon="32.5155536"><ele>36.0</ele><time>2015-04-26T10:13:47.0000000+00:00</time></trkpt><trkpt lat="35.1150346" lon="32.5156141"><ele>35.1</ele><time>2015-04-26T10:13:50.0000000+00:00</time></trkpt><trkpt lat="35.1149967" lon="32.5156698"><ele>33.7</ele><time>2015-04-26T10:13:54.0000000+00:00</time></trkpt><trkpt lat="35.1149952" lon="32.5157314"><ele>31.1</ele><time>2015-04-26T10:14:11.0000000+00:00</time></trkpt><trkpt lat="35.1149985" lon="32.5157938"><ele>31.6</ele><time>2015-04-26T10:14:14.0000000+00:00</time></trkpt><trkpt lat="35.115011" lon="32.515855"><ele>32.3</ele><time>2015-04-26T10:14:16.0000000+00:00</time></trkpt><trkpt lat="35.1150281" lon="32.5159248"><ele>33.3</ele><time>2015-04-26T10:14:18.0000000+00:00</time></trkpt><trkpt lat="35.1150434" lon="32.5159921"><ele>34.3</ele><time>2015-04-26T10:14:20.0000000+00:00</time></trkpt><trkpt lat="35.1150659" lon="32.5160548"><ele>34.0</ele><time>2015-04-26T10:14:22.0000000+00:00</time></trkpt><trkpt lat="35.1150847" lon="32.516118"><ele>34.0</ele><time>2015-04-26T10:14:24.0000000+00:00</time></trkpt><trkpt lat="35.1150976" lon="32.5161778"><ele>35.4</ele><time>2015-04-26T10:14:26.0000000+00:00</time></trkpt><trkpt lat="35.1151071" lon="32.5162326"><ele>36.6</ele><time>2015-04-26T10:14:28.0000000+00:00</time></trkpt><trkpt lat="35.115123" lon="32.5163034"><ele>37.1</ele><time>2015-04-26T10:14:31.0000000+00:00</time></trkpt><trkpt lat="35.1151469" lon="32.5163712"><ele>37.5</ele><time>2015-04-26T10:14:34.0000000+00:00</time></trkpt><trkpt lat="35.115166" lon="32.5164429"><ele>38.4</ele><time>2015-04-26T10:14:37.0000000+00:00</time></trkpt><trkpt lat="35.1151818" lon="32.5165171"><ele>39.7</ele><time>2015-04-26T10:14:40.0000000+00:00</time></trkpt><trkpt lat="35.115199" lon="32.5165918"><ele>39.8</ele><time>2015-04-26T10:14:43.0000000+00:00</time></trkpt><trkpt lat="35.1152109" lon="32.516665"><ele>39.2</ele><time>2015-04-26T10:14:46.0000000+00:00</time></trkpt><trkpt lat="35.1152327" lon="32.5167365"><ele>39.8</ele><time>2015-04-26T10:14:49.0000000+00:00</time></trkpt><trkpt lat="35.1152644" lon="32.5168051"><ele>40.0</ele><time>2015-04-26T10:14:52.0000000+00:00</time></trkpt><trkpt lat="35.1152904" lon="32.5168731"><ele>39.9</ele><time>2015-04-26T10:14:55.0000000+00:00</time></trkpt><trkpt lat="35.1153137" lon="32.5169384"><ele>40.3</ele><time>2015-04-26T10:14:58.0000000+00:00</time></trkpt><trkpt lat="35.1153374" lon="32.5170043"><ele>39.5</ele><time>2015-04-26T10:15:01.0000000+00:00</time></trkpt><trkpt lat="35.1153493" lon="32.517073"><ele>41.5</ele><time>2015-04-26T10:15:04.0000000+00:00</time></trkpt><trkpt lat="35.1153641" lon="32.5171349"><ele>42.5</ele><time>2015-04-26T10:15:07.0000000+00:00</time></trkpt><trkpt lat="35.1153766" lon="32.5172025"><ele>42.0</ele><time>2015-04-26T10:15:11.0000000+00:00</time></trkpt><trkpt lat="35.1153767" lon="32.517259"><ele>41.9</ele><time>2015-04-26T10:15:14.0000000+00:00</time></trkpt><trkpt lat="35.1153754" lon="32.5173174"><ele>41.9</ele><time>2015-04-26T10:15:17.0000000+00:00</time></trkpt><trkpt lat="35.1153804" lon="32.517377"><ele>42.7</ele><time>2015-04-26T10:15:20.0000000+00:00</time></trkpt><trkpt lat="35.1153913" lon="32.5174328"><ele>44.3</ele><time>2015-04-26T10:15:23.0000000+00:00</time></trkpt><trkpt lat="35.1154003" lon="32.5174974"><ele>44.9</ele><time>2015-04-26T10:15:27.0000000+00:00</time></trkpt><trkpt lat="35.1154147" lon="32.5175634"><ele>45.4</ele><time>2015-04-26T10:15:31.0000000+00:00</time></trkpt><trkpt lat="35.1154293" lon="32.5176248"><ele>44.6</ele><time>2015-04-26T10:15:35.0000000+00:00</time></trkpt><trkpt lat="35.1154341" lon="32.5176876"><ele>44.5</ele><time>2015-04-26T10:15:40.0000000+00:00</time></trkpt><trkpt lat="35.1154516" lon="32.517743"><ele>45.8</ele><time>2015-04-26T10:15:45.0000000+00:00</time></trkpt><trkpt lat="35.1154184" lon="32.5177881"><ele>48.7</ele><time>2015-04-26T10:18:38.0000000+00:00</time></trkpt><trkpt lat="35.1154514" lon="32.5178312"><ele>43.9</ele><time>2015-04-26T10:19:15.0000000+00:00</time></trkpt><trkpt lat="35.1154534" lon="32.5178966"><ele>45.3</ele><time>2015-04-26T10:19:19.0000000+00:00</time></trkpt><trkpt lat="35.1154717" lon="32.5179559"><ele>46.8</ele><time>2015-04-26T10:19:23.0000000+00:00</time></trkpt><trkpt lat="35.1154815" lon="32.5180126"><ele>47.9</ele><time>2015-04-26T10:19:27.0000000+00:00</time></trkpt><trkpt lat="35.1154902" lon="32.5180717"><ele>47.7</ele><time>2015-04-26T10:19:31.0000000+00:00</time></trkpt><trkpt lat="35.1154637" lon="32.5181257"><ele>47.9</ele><time>2015-04-26T10:19:35.0000000+00:00</time></trkpt><trkpt lat="35.1154437" lon="32.518182"><ele>47.4</ele><time>2015-04-26T10:20:12.0000000+00:00</time></trkpt><trkpt lat="35.115453" lon="32.5182454"><ele>49.7</ele><time>2015-04-26T10:20:21.0000000+00:00</time></trkpt><trkpt lat="35.1154677" lon="32.5183032"><ele>49.9</ele><time>2015-04-26T10:20:25.0000000+00:00</time></trkpt><trkpt lat="35.1154828" lon="32.518371"><ele>50.6</ele><time>2015-04-26T10:20:29.0000000+00:00</time></trkpt><trkpt lat="35.1154974" lon="32.5184236"><ele>50.9</ele><time>2015-04-26T10:20:32.0000000+00:00</time></trkpt><trkpt lat="35.1155062" lon="32.5184914"><ele>51.4</ele><time>2015-04-26T10:20:36.0000000+00:00</time></trkpt><trkpt lat="35.1155129" lon="32.5185624"><ele>51.0</ele><time>2015-04-26T10:20:40.0000000+00:00</time></trkpt><trkpt lat="35.1155201" lon="32.5186285"><ele>51.1</ele><time>2015-04-26T10:20:44.0000000+00:00</time></trkpt><trkpt lat="35.1155335" lon="32.5186943"><ele>52.8</ele><time>2015-04-26T10:20:48.0000000+00:00</time></trkpt><trkpt lat="35.1155417" lon="32.5187496"><ele>52.0</ele><time>2015-04-26T10:20:51.0000000+00:00</time></trkpt><trkpt lat="35.1155371" lon="32.5188076"><ele>53.6</ele><time>2015-04-26T10:20:54.0000000+00:00</time></trkpt><trkpt lat="35.1155399" lon="32.5188673"><ele>53.9</ele><time>2015-04-26T10:20:57.0000000+00:00</time></trkpt><trkpt lat="35.1155386" lon="32.5189276"><ele>53.9</ele><time>2015-04-26T10:21:00.0000000+00:00</time></trkpt><trkpt lat="35.1155367" lon="32.5189868"><ele>53.9</ele><time>2015-04-26T10:21:03.0000000+00:00</time></trkpt><trkpt lat="35.1155358" lon="32.5190467"><ele>53.4</ele><time>2015-04-26T10:21:06.0000000+00:00</time></trkpt><trkpt lat="35.1155351" lon="32.5191057"><ele>53.9</ele><time>2015-04-26T10:21:09.0000000+00:00</time></trkpt><trkpt lat="35.1155413" lon="32.5191615"><ele>55.2</ele><time>2015-04-26T10:21:12.0000000+00:00</time></trkpt><trkpt lat="35.1155376" lon="32.5192186"><ele>55.1</ele><time>2015-04-26T10:21:15.0000000+00:00</time></trkpt><trkpt lat="35.1155273" lon="32.5192746"><ele>54.4</ele><time>2015-04-26T10:21:18.0000000+00:00</time></trkpt><trkpt lat="35.1155308" lon="32.5193462"><ele>54.8</ele><time>2015-04-26T10:21:22.0000000+00:00</time></trkpt><trkpt lat="35.1155414" lon="32.5194054"><ele>54.0</ele><time>2015-04-26T10:21:26.0000000+00:00</time></trkpt><trkpt lat="35.115535" lon="32.5194692"><ele>54.1</ele><time>2015-04-26T10:21:30.0000000+00:00</time></trkpt><trkpt lat="35.1155276" lon="32.5195346"><ele>53.9</ele><time>2015-04-26T10:21:34.0000000+00:00</time></trkpt><trkpt lat="35.1155103" lon="32.5195982"><ele>55.4</ele><time>2015-04-26T10:21:38.0000000+00:00</time></trkpt><trkpt lat="35.1155007" lon="32.5196662"><ele>56.6</ele><time>2015-04-26T10:21:42.0000000+00:00</time></trkpt><trkpt lat="35.1154885" lon="32.5197338"><ele>56.8</ele><time>2015-04-26T10:21:46.0000000+00:00</time></trkpt><trkpt lat="35.1154842" lon="32.5198013"><ele>56.9</ele><time>2015-04-26T10:21:50.0000000+00:00</time></trkpt><trkpt lat="35.11547" lon="32.5198649"><ele>57.9</ele><time>2015-04-26T10:21:54.0000000+00:00</time></trkpt><trkpt lat="35.1154538" lon="32.5199289"><ele>59.6</ele><time>2015-04-26T10:21:58.0000000+00:00</time></trkpt><trkpt lat="35.1154385" lon="32.5199942"><ele>60.7</ele><time>2015-04-26T10:22:02.0000000+00:00</time></trkpt><trkpt lat="35.1154302" lon="32.5200494"><ele>61.9</ele><time>2015-04-26T10:22:06.0000000+00:00</time></trkpt><trkpt lat="35.1154169" lon="32.52011"><ele>62.7</ele><time>2015-04-26T10:22:10.0000000+00:00</time></trkpt><trkpt lat="35.1154063" lon="32.5201678"><ele>64.7</ele><time>2015-04-26T10:22:14.0000000+00:00</time></trkpt><trkpt lat="35.1153972" lon="32.520225"><ele>64.4</ele><time>2015-04-26T10:22:18.0000000+00:00</time></trkpt><trkpt lat="35.1153949" lon="32.5202903"><ele>65.6</ele><time>2015-04-26T10:22:23.0000000+00:00</time></trkpt><trkpt lat="35.1153936" lon="32.5203524"><ele>66.7</ele><time>2015-04-26T10:22:28.0000000+00:00</time></trkpt><trkpt lat="35.1153881" lon="32.5204128"><ele>67.9</ele><time>2015-04-26T10:22:33.0000000+00:00</time></trkpt><trkpt lat="35.115373" lon="32.5204678"><ele>68.9</ele><time>2015-04-26T10:22:38.0000000+00:00</time></trkpt><trkpt lat="35.1153644" lon="32.5205261"><ele>69.9</ele><time>2015-04-26T10:22:43.0000000+00:00</time></trkpt><trkpt lat="35.1153574" lon="32.5205847"><ele>69.9</ele><time>2015-04-26T10:22:48.0000000+00:00</time></trkpt><trkpt lat="35.1153489" lon="32.5206465"><ele>69.9</ele><time>2015-04-26T10:22:53.0000000+00:00</time></trkpt><trkpt lat="35.1153369" lon="32.5207093"><ele>69.9</ele><time>2015-04-26T10:22:58.0000000+00:00</time></trkpt><trkpt lat="35.1153264" lon="32.5207646"><ele>70.9</ele><time>2015-04-26T10:23:02.0000000+00:00</time></trkpt><trkpt lat="35.1153296" lon="32.5208263"><ele>71.9</ele><time>2015-04-26T10:23:07.0000000+00:00</time></trkpt><trkpt lat="35.1153318" lon="32.5208813"><ele>72.7</ele><time>2015-04-26T10:23:11.0000000+00:00</time></trkpt><trkpt lat="35.115337" lon="32.5209397"><ele>72.9</ele><time>2015-04-26T10:23:15.0000000+00:00</time></trkpt><trkpt lat="35.1153272" lon="32.5209982"><ele>72.9</ele><time>2015-04-26T10:23:19.0000000+00:00</time></trkpt><trkpt lat="35.1153325" lon="32.5210589"><ele>72.4</ele><time>2015-04-26T10:23:23.0000000+00:00</time></trkpt><trkpt lat="35.1153358" lon="32.5211171"><ele>72.8</ele><time>2015-04-26T10:23:27.0000000+00:00</time></trkpt><trkpt lat="35.1153358" lon="32.5211821"><ele>72.9</ele><time>2015-04-26T10:23:31.0000000+00:00</time></trkpt><trkpt lat="35.1153291" lon="32.5212434"><ele>73.1</ele><time>2015-04-26T10:23:35.0000000+00:00</time></trkpt><trkpt lat="35.115297" lon="32.5212912"><ele>72.0</ele><time>2015-04-26T10:23:39.0000000+00:00</time></trkpt><trkpt lat="35.1152871" lon="32.5213572"><ele>71.7</ele><time>2015-04-26T10:23:44.0000000+00:00</time></trkpt><trkpt lat="35.1152843" lon="32.5214173"><ele>71.0</ele><time>2015-04-26T10:23:48.0000000+00:00</time></trkpt><trkpt lat="35.1152813" lon="32.5214745"><ele>71.0</ele><time>2015-04-26T10:23:52.0000000+00:00</time></trkpt><trkpt lat="35.115279" lon="32.5215431"><ele>71.8</ele><time>2015-04-26T10:23:57.0000000+00:00</time></trkpt><trkpt lat="35.1152695" lon="32.5216048"><ele>73.6</ele><time>2015-04-26T10:24:02.0000000+00:00</time></trkpt><trkpt lat="35.1152635" lon="32.5216593"><ele>73.9</ele><time>2015-04-26T10:24:06.0000000+00:00</time></trkpt><trkpt lat="35.1152441" lon="32.521714"><ele>73.8</ele><time>2015-04-26T10:24:10.0000000+00:00</time></trkpt><trkpt lat="35.1152338" lon="32.5217749"><ele>74.8</ele><time>2015-04-26T10:24:14.0000000+00:00</time></trkpt><trkpt lat="35.1152363" lon="32.5218371"><ele>75.7</ele><time>2015-04-26T10:24:18.0000000+00:00</time></trkpt><trkpt lat="35.1152234" lon="32.5218945"><ele>76.0</ele><time>2015-04-26T10:24:22.0000000+00:00</time></trkpt><trkpt lat="35.1152155" lon="32.5219627"><ele>77.9</ele><time>2015-04-26T10:24:27.0000000+00:00</time></trkpt><trkpt lat="35.1151929" lon="32.5220167"><ele>78.3</ele><time>2015-04-26T10:24:31.0000000+00:00</time></trkpt><trkpt lat="35.1151748" lon="32.5220762"><ele>78.1</ele><time>2015-04-26T10:24:35.0000000+00:00</time></trkpt><trkpt lat="35.1151597" lon="32.5221299"><ele>77.9</ele><time>2015-04-26T10:24:39.0000000+00:00</time></trkpt><trkpt lat="35.1151642" lon="32.5221881"><ele>77.0</ele><time>2015-04-26T10:24:43.0000000+00:00</time></trkpt><trkpt lat="35.1151705" lon="32.5222466"><ele>78.4</ele><time>2015-04-26T10:24:47.0000000+00:00</time></trkpt><trkpt lat="35.1151732" lon="32.5223058"><ele>79.3</ele><time>2015-04-26T10:24:51.0000000+00:00</time></trkpt><trkpt lat="35.1151761" lon="32.5223634"><ele>78.5</ele><time>2015-04-26T10:24:55.0000000+00:00</time></trkpt><trkpt lat="35.1151887" lon="32.5224246"><ele>78.9</ele><time>2015-04-26T10:24:59.0000000+00:00</time></trkpt><trkpt lat="35.1151847" lon="32.5224882"><ele>78.9</ele><time>2015-04-26T10:25:03.0000000+00:00</time></trkpt><trkpt lat="35.1151751" lon="32.5225506"><ele>80.3</ele><time>2015-04-26T10:25:07.0000000+00:00</time></trkpt><trkpt lat="35.1151682" lon="32.5226126"><ele>81.0</ele><time>2015-04-26T10:25:11.0000000+00:00</time></trkpt><trkpt lat="35.1151653" lon="32.5226729"><ele>81.1</ele><time>2015-04-26T10:25:15.0000000+00:00</time></trkpt><trkpt lat="35.1151597" lon="32.5227335"><ele>80.2</ele><time>2015-04-26T10:25:19.0000000+00:00</time></trkpt><trkpt lat="35.1151559" lon="32.5227961"><ele>80.8</ele><time>2015-04-26T10:25:23.0000000+00:00</time></trkpt><trkpt lat="35.1151466" lon="32.5228569"><ele>80.9</ele><time>2015-04-26T10:25:27.0000000+00:00</time></trkpt><trkpt lat="35.1151379" lon="32.5229113"><ele>80.9</ele><time>2015-04-26T10:25:31.0000000+00:00</time></trkpt><trkpt lat="35.1151178" lon="32.5229658"><ele>81.7</ele><time>2015-04-26T10:25:35.0000000+00:00</time></trkpt><trkpt lat="35.1151044" lon="32.5230221"><ele>81.1</ele><time>2015-04-26T10:25:39.0000000+00:00</time></trkpt><trkpt lat="35.115101" lon="32.5230896"><ele>83.3</ele><time>2015-04-26T10:25:44.0000000+00:00</time></trkpt><trkpt lat="35.1150911" lon="32.5231434"><ele>84.3</ele><time>2015-04-26T10:25:48.0000000+00:00</time></trkpt><trkpt lat="35.1150712" lon="32.5231983"><ele>87.1</ele><time>2015-04-26T10:25:52.0000000+00:00</time></trkpt><trkpt lat="35.1150478" lon="32.5232556"><ele>87.9</ele><time>2015-04-26T10:25:56.0000000+00:00</time></trkpt><trkpt lat="35.1150114" lon="32.5232987"><ele>87.4</ele><time>2015-04-26T10:26:00.0000000+00:00</time></trkpt><trkpt lat="35.1149692" lon="32.5233348"><ele>88.3</ele><time>2015-04-26T10:26:04.0000000+00:00</time></trkpt><trkpt lat="35.1149214" lon="32.523376"><ele>90.4</ele><time>2015-04-26T10:26:08.0000000+00:00</time></trkpt><trkpt lat="35.1148798" lon="32.5234206"><ele>91.8</ele><time>2015-04-26T10:26:12.0000000+00:00</time></trkpt><trkpt lat="35.1148409" lon="32.5234536"><ele>92.7</ele><time>2015-04-26T10:26:16.0000000+00:00</time></trkpt><trkpt lat="35.1148062" lon="32.5234913"><ele>92.7</ele><time>2015-04-26T10:26:20.0000000+00:00</time></trkpt><trkpt lat="35.1147773" lon="32.5235407"><ele>93.4</ele><time>2015-04-26T10:26:24.0000000+00:00</time></trkpt><trkpt lat="35.1147558" lon="32.523601"><ele>93.0</ele><time>2015-04-26T10:26:28.0000000+00:00</time></trkpt><trkpt lat="35.1147503" lon="32.523662"><ele>92.9</ele><time>2015-04-26T10:26:32.0000000+00:00</time></trkpt><trkpt lat="35.1147348" lon="32.523718"><ele>93.9</ele><time>2015-04-26T10:26:36.0000000+00:00</time></trkpt><trkpt lat="35.114717" lon="32.52377"><ele>94.7</ele><time>2015-04-26T10:26:40.0000000+00:00</time></trkpt><trkpt lat="35.1147004" lon="32.5238213"><ele>95.8</ele><time>2015-04-26T10:26:44.0000000+00:00</time></trkpt><trkpt lat="35.1147003" lon="32.5238867"><ele>97.6</ele><time>2015-04-26T10:26:49.0000000+00:00</time></trkpt><trkpt lat="35.1146961" lon="32.5239445"><ele>97.9</ele><time>2015-04-26T10:26:53.0000000+00:00</time></trkpt><trkpt lat="35.1146755" lon="32.5240056"><ele>99.7</ele><time>2015-04-26T10:26:57.0000000+00:00</time></trkpt><trkpt lat="35.1146541" lon="32.5240682"><ele>100.6</ele><time>2015-04-26T10:27:01.0000000+00:00</time></trkpt><trkpt lat="35.1146358" lon="32.524129"><ele>101.0</ele><time>2015-04-26T10:27:05.0000000+00:00</time></trkpt><trkpt lat="35.1146037" lon="32.524187"><ele>101.3</ele><time>2015-04-26T10:27:09.0000000+00:00</time></trkpt><trkpt lat="35.1145768" lon="32.5242483"><ele>101.0</ele><time>2015-04-26T10:27:13.0000000+00:00</time></trkpt><trkpt lat="35.1145586" lon="32.5243064"><ele>101.6</ele><time>2015-04-26T10:27:17.0000000+00:00</time></trkpt><trkpt lat="35.1145408" lon="32.5243689"><ele>101.9</ele><time>2015-04-26T10:27:21.0000000+00:00</time></trkpt><trkpt lat="35.114538" lon="32.5244299"><ele>101.9</ele><time>2015-04-26T10:27:25.0000000+00:00</time></trkpt><trkpt lat="35.1145369" lon="32.524489"><ele>101.7</ele><time>2015-04-26T10:27:29.0000000+00:00</time></trkpt><trkpt lat="35.1145352" lon="32.5245467"><ele>103.4</ele><time>2015-04-26T10:27:33.0000000+00:00</time></trkpt><trkpt lat="35.1145384" lon="32.5246026"><ele>104.5</ele><time>2015-04-26T10:27:37.0000000+00:00</time></trkpt><trkpt lat="35.1145372" lon="32.5246632"><ele>105.7</ele><time>2015-04-26T10:27:41.0000000+00:00</time></trkpt><trkpt lat="35.1145323" lon="32.52473"><ele>107.3</ele><time>2015-04-26T10:27:45.0000000+00:00</time></trkpt><trkpt lat="35.1145398" lon="32.5247965"><ele>108.2</ele><time>2015-04-26T10:27:49.0000000+00:00</time></trkpt><trkpt lat="35.1145457" lon="32.5248661"><ele>109.5</ele><time>2015-04-26T10:27:53.0000000+00:00</time></trkpt><trkpt lat="35.11454" lon="32.5249257"><ele>109.9</ele><time>2015-04-26T10:27:57.0000000+00:00</time></trkpt><trkpt lat="35.1145225" lon="32.5249881"><ele>109.9</ele><time>2015-04-26T10:28:01.0000000+00:00</time></trkpt><trkpt lat="35.1145049" lon="32.5250497"><ele>108.5</ele><time>2015-04-26T10:28:05.0000000+00:00</time></trkpt><trkpt lat="35.1144831" lon="32.5251183"><ele>108.9</ele><time>2015-04-26T10:28:09.0000000+00:00</time></trkpt><trkpt lat="35.1144619" lon="32.5251852"><ele>109.0</ele><time>2015-04-26T10:28:13.0000000+00:00</time></trkpt><trkpt lat="35.1144362" lon="32.5252482"><ele>108.4</ele><time>2015-04-26T10:28:17.0000000+00:00</time></trkpt><trkpt lat="35.1144184" lon="32.5252992"><ele>108.5</ele><time>2015-04-26T10:28:20.0000000+00:00</time></trkpt><trkpt lat="35.1143986" lon="32.5253543"><ele>108.0</ele><time>2015-04-26T10:28:23.0000000+00:00</time></trkpt><trkpt lat="35.1143834" lon="32.5254073"><ele>107.1</ele><time>2015-04-26T10:28:26.0000000+00:00</time></trkpt><trkpt lat="35.114365" lon="32.5254691"><ele>108.8</ele><time>2015-04-26T10:28:30.0000000+00:00</time></trkpt><trkpt lat="35.11437" lon="32.5255329"><ele>109.9</ele><time>2015-04-26T10:28:34.0000000+00:00</time></trkpt><trkpt lat="35.1143753" lon="32.5256006"><ele>111.2</ele><time>2015-04-26T10:28:38.0000000+00:00</time></trkpt><trkpt lat="35.1143859" lon="32.5256602"><ele>111.6</ele><time>2015-04-26T10:28:41.0000000+00:00</time></trkpt><trkpt lat="35.1143993" lon="32.5257184"><ele>111.0</ele><time>2015-04-26T10:28:44.0000000+00:00</time></trkpt><trkpt lat="35.1144098" lon="32.5257757"><ele>111.8</ele><time>2015-04-26T10:28:47.0000000+00:00</time></trkpt><trkpt lat="35.1144239" lon="32.5258436"><ele>112.9</ele><time>2015-04-26T10:28:51.0000000+00:00</time></trkpt><trkpt lat="35.1144303" lon="32.5259112"><ele>113.2</ele><time>2015-04-26T10:28:55.0000000+00:00</time></trkpt><trkpt lat="35.1144439" lon="32.5259674"><ele>113.1</ele><time>2015-04-26T10:28:59.0000000+00:00</time></trkpt><trkpt lat="35.1144614" lon="32.5260285"><ele>112.9</ele><time>2015-04-26T10:29:03.0000000+00:00</time></trkpt><trkpt lat="35.1144797" lon="32.5260967"><ele>111.9</ele><time>2015-04-26T10:29:07.0000000+00:00</time></trkpt><trkpt lat="35.1145046" lon="32.5261615"><ele>111.1</ele><time>2015-04-26T10:29:11.0000000+00:00</time></trkpt><trkpt lat="35.1145351" lon="32.5262213"><ele>110.9</ele><time>2015-04-26T10:29:15.0000000+00:00</time></trkpt><trkpt lat="35.1145584" lon="32.5262868"><ele>112.2</ele><time>2015-04-26T10:29:19.0000000+00:00</time></trkpt><trkpt lat="35.1145702" lon="32.5263546"><ele>112.2</ele><time>2015-04-26T10:29:23.0000000+00:00</time></trkpt><trkpt lat="35.1145771" lon="32.5264094"><ele>113.6</ele><time>2015-04-26T10:29:26.0000000+00:00</time></trkpt><trkpt lat="35.1145667" lon="32.5264682"><ele>113.9</ele><time>2015-04-26T10:29:29.0000000+00:00</time></trkpt><trkpt lat="35.1145611" lon="32.526529"><ele>114.7</ele><time>2015-04-26T10:29:32.0000000+00:00</time></trkpt><trkpt lat="35.1145308" lon="32.5265765"><ele>114.1</ele><time>2015-04-26T10:30:07.0000000+00:00</time></trkpt><trkpt lat="35.1145063" lon="32.5266379"><ele>114.7</ele><time>2015-04-26T10:30:12.0000000+00:00</time></trkpt><trkpt lat="35.1144918" lon="32.5266951"><ele>115.5</ele><time>2015-04-26T10:30:16.0000000+00:00</time></trkpt><trkpt lat="35.1145069" lon="32.5266394"><ele>115.6</ele><time>2015-04-26T10:30:29.0000000+00:00</time></trkpt><trkpt lat="35.1145161" lon="32.5265739"><ele>115.0</ele><time>2015-04-26T10:30:33.0000000+00:00</time></trkpt><trkpt lat="35.1145604" lon="32.5265895"><ele>115.1</ele><time>2015-04-26T10:30:38.0000000+00:00</time></trkpt><trkpt lat="35.1145601" lon="32.5266692"><ele>114.2</ele><time>2015-04-26T10:30:41.0000000+00:00</time></trkpt><trkpt lat="35.1145598" lon="32.5268204"><ele>112.7</ele><time>2015-04-26T10:30:43.0000000+00:00</time></trkpt><trkpt lat="35.1145665" lon="32.5269125"><ele>110.9</ele><time>2015-04-26T10:30:45.0000000+00:00</time></trkpt><trkpt lat="35.114564" lon="32.5269858"><ele>109.7</ele><time>2015-04-26T10:30:47.0000000+00:00</time></trkpt><trkpt lat="35.1145647" lon="32.5270663"><ele>108.6</ele><time>2015-04-26T10:30:49.0000000+00:00</time></trkpt><trkpt lat="35.1145277" lon="32.5271212"><ele>108.8</ele><time>2015-04-26T10:30:50.0000000+00:00</time></trkpt><trkpt lat="35.1145229" lon="32.527223"><ele>108.9</ele><time>2015-04-26T10:30:52.0000000+00:00</time></trkpt><trkpt lat="35.11451" lon="32.5272845"><ele>107.9</ele><time>2015-04-26T10:30:53.0000000+00:00</time></trkpt><trkpt lat="35.1144895" lon="32.5273476"><ele>106.9</ele><time>2015-04-26T10:30:54.0000000+00:00</time></trkpt><trkpt lat="35.1144689" lon="32.5274273"><ele>106.4</ele><time>2015-04-26T10:30:55.0000000+00:00</time></trkpt><trkpt lat="35.1144523" lon="32.5274998"><ele>105.7</ele><time>2015-04-26T10:30:56.0000000+00:00</time></trkpt><trkpt lat="35.1144338" lon="32.5275755"><ele>105.3</ele><time>2015-04-26T10:30:57.0000000+00:00</time></trkpt><trkpt lat="35.1144345" lon="32.5276483"><ele>105.1</ele><time>2015-04-26T10:30:58.0000000+00:00</time></trkpt><trkpt lat="35.1144258" lon="32.5277286"><ele>105.0</ele><time>2015-04-26T10:30:59.0000000+00:00</time></trkpt><trkpt lat="35.1144121" lon="32.5277981"><ele>105.0</ele><time>2015-04-26T10:31:00.0000000+00:00</time></trkpt><trkpt lat="35.1143692" lon="32.5278706"><ele>104.5</ele><time>2015-04-26T10:31:01.0000000+00:00</time></trkpt><trkpt lat="35.1143685" lon="32.5279532"><ele>104.2</ele><time>2015-04-26T10:31:02.0000000+00:00</time></trkpt><trkpt lat="35.1143756" lon="32.5280372"><ele>104.6</ele><time>2015-04-26T10:31:03.0000000+00:00</time></trkpt><trkpt lat="35.1143954" lon="32.5281022"><ele>104.7</ele><time>2015-04-26T10:31:04.0000000+00:00</time></trkpt><trkpt lat="35.1143959" lon="32.5281754"><ele>104.8</ele><time>2015-04-26T10:31:05.0000000+00:00</time></trkpt><trkpt lat="35.1143832" lon="32.5282336"><ele>104.4</ele><time>2015-04-26T10:31:06.0000000+00:00</time></trkpt><trkpt lat="35.1143742" lon="32.528292"><ele>103.7</ele><time>2015-04-26T10:31:07.0000000+00:00</time></trkpt><trkpt lat="35.1143834" lon="32.5283477"><ele>102.8</ele><time>2015-04-26T10:31:08.0000000+00:00</time></trkpt><trkpt lat="35.1144052" lon="32.5284368"><ele>101.6</ele><time>2015-04-26T10:31:10.0000000+00:00</time></trkpt><trkpt lat="35.1144547" lon="32.5284991"><ele>100.4</ele><time>2015-04-26T10:31:12.0000000+00:00</time></trkpt><trkpt lat="35.114511" lon="32.5285118"><ele>100.5</ele><time>2015-04-26T10:31:14.0000000+00:00</time></trkpt><trkpt lat="35.1145677" lon="32.5284726"><ele>101.8</ele><time>2015-04-26T10:31:16.0000000+00:00</time></trkpt><trkpt lat="35.1146146" lon="32.5284561"><ele>102.7</ele><time>2015-04-26T10:31:18.0000000+00:00</time></trkpt><trkpt lat="35.1146532" lon="32.5284192"><ele>102.9</ele><time>2015-04-26T10:31:20.0000000+00:00</time></trkpt><trkpt lat="35.1146792" lon="32.5283708"><ele>102.4</ele><time>2015-04-26T10:31:22.0000000+00:00</time></trkpt><trkpt lat="35.114698" lon="32.5283204"><ele>102.1</ele><time>2015-04-26T10:31:24.0000000+00:00</time></trkpt><trkpt lat="35.1147235" lon="32.5282645"><ele>102.0</ele><time>2015-04-26T10:31:26.0000000+00:00</time></trkpt><trkpt lat="35.1147587" lon="32.5282122"><ele>104.2</ele><time>2015-04-26T10:31:28.0000000+00:00</time></trkpt><trkpt lat="35.1148088" lon="32.5281811"><ele>104.2</ele><time>2015-04-26T10:31:30.0000000+00:00</time></trkpt><trkpt lat="35.1148669" lon="32.5281721"><ele>103.3</ele><time>2015-04-26T10:31:32.0000000+00:00</time></trkpt><trkpt lat="35.1149212" lon="32.5281707"><ele>103.0</ele><time>2015-04-26T10:31:34.0000000+00:00</time></trkpt><trkpt lat="35.1149675" lon="32.5281756"><ele>103.0</ele><time>2015-04-26T10:31:36.0000000+00:00</time></trkpt><trkpt lat="35.1150282" lon="32.5281912"><ele>101.7</ele><time>2015-04-26T10:31:39.0000000+00:00</time></trkpt><trkpt lat="35.1150751" lon="32.5282008"><ele>100.4</ele><time>2015-04-26T10:31:41.0000000+00:00</time></trkpt><trkpt lat="35.1151296" lon="32.5282112"><ele>99.8</ele><time>2015-04-26T10:31:43.0000000+00:00</time></trkpt><trkpt lat="35.1151919" lon="32.5281952"><ele>99.4</ele><time>2015-04-26T10:31:45.0000000+00:00</time></trkpt><trkpt lat="35.1152302" lon="32.5281379"><ele>98.5</ele><time>2015-04-26T10:31:47.0000000+00:00</time></trkpt><trkpt lat="35.1152453" lon="32.5280613"><ele>98.1</ele><time>2015-04-26T10:31:49.0000000+00:00</time></trkpt><trkpt lat="35.115268" lon="32.5279154"><ele>97.7</ele><time>2015-04-26T10:31:51.0000000+00:00</time></trkpt><trkpt lat="35.1152727" lon="32.527852"><ele>96.8</ele><time>2015-04-26T10:31:52.0000000+00:00</time></trkpt><trkpt lat="35.115285" lon="32.5277854"><ele>96.9</ele><time>2015-04-26T10:31:53.0000000+00:00</time></trkpt><trkpt lat="35.115293" lon="32.5277263"><ele>96.9</ele><time>2015-04-26T10:31:54.0000000+00:00</time></trkpt><trkpt lat="35.1152943" lon="32.5276642"><ele>97.4</ele><time>2015-04-26T10:31:55.0000000+00:00</time></trkpt><trkpt lat="35.1153032" lon="32.5276064"><ele>97.7</ele><time>2015-04-26T10:31:56.0000000+00:00</time></trkpt><trkpt lat="35.1153197" lon="32.5275381"><ele>97.3</ele><time>2015-04-26T10:31:57.0000000+00:00</time></trkpt><trkpt lat="35.115338" lon="32.527474"><ele>96.6</ele><time>2015-04-26T10:31:58.0000000+00:00</time></trkpt><trkpt lat="35.1153605" lon="32.5274166"><ele>96.3</ele><time>2015-04-26T10:31:59.0000000+00:00</time></trkpt><trkpt lat="35.1153904" lon="32.5273491"><ele>95.6</ele><time>2015-04-26T10:32:00.0000000+00:00</time></trkpt><trkpt lat="35.1154341" lon="32.5272845"><ele>94.3</ele><time>2015-04-26T10:32:01.0000000+00:00</time></trkpt><trkpt lat="35.1154767" lon="32.5272154"><ele>93.1</ele><time>2015-04-26T10:32:02.0000000+00:00</time></trkpt><trkpt lat="35.1155293" lon="32.527156"><ele>92.0</ele><time>2015-04-26T10:32:03.0000000+00:00</time></trkpt><trkpt lat="35.1155762" lon="32.5270923"><ele>91.5</ele><time>2015-04-26T10:32:04.0000000+00:00</time></trkpt><trkpt lat="35.1156162" lon="32.52701"><ele>91.2</ele><time>2015-04-26T10:32:05.0000000+00:00</time></trkpt><trkpt lat="35.115633" lon="32.5269109"><ele>91.1</ele><time>2015-04-26T10:32:06.0000000+00:00</time></trkpt><trkpt lat="35.1156515" lon="32.5268265"><ele>91.5</ele><time>2015-04-26T10:32:07.0000000+00:00</time></trkpt><trkpt lat="35.1156472" lon="32.5267512"><ele>91.7</ele><time>2015-04-26T10:32:08.0000000+00:00</time></trkpt><trkpt lat="35.1156469" lon="32.5266954"><ele>91.8</ele><time>2015-04-26T10:32:09.0000000+00:00</time></trkpt><trkpt lat="35.1156419" lon="32.5266354"><ele>92.4</ele><time>2015-04-26T10:32:10.0000000+00:00</time></trkpt><trkpt lat="35.1156615" lon="32.5265685"><ele>92.7</ele><time>2015-04-26T10:32:11.0000000+00:00</time></trkpt><trkpt lat="35.1156778" lon="32.5265063"><ele>92.8</ele><time>2015-04-26T10:32:12.0000000+00:00</time></trkpt><trkpt lat="35.1157075" lon="32.5264416"><ele>92.9</ele><time>2015-04-26T10:32:13.0000000+00:00</time></trkpt><trkpt lat="35.1157393" lon="32.5263813"><ele>93.4</ele><time>2015-04-26T10:32:14.0000000+00:00</time></trkpt><trkpt lat="35.1157761" lon="32.5263262"><ele>93.2</ele><time>2015-04-26T10:32:15.0000000+00:00</time></trkpt><trkpt lat="35.115809" lon="32.5262768"><ele>93.5</ele><time>2015-04-26T10:32:16.0000000+00:00</time></trkpt><trkpt lat="35.1158552" lon="32.5261997"><ele>94.6</ele><time>2015-04-26T10:32:18.0000000+00:00</time></trkpt><trkpt lat="35.115888" lon="32.5261602"><ele>94.8</ele><time>2015-04-26T10:32:20.0000000+00:00</time></trkpt><trkpt lat="35.1159196" lon="32.526109"><ele>94.9</ele><time>2015-04-26T10:32:22.0000000+00:00</time></trkpt><trkpt lat="35.1159634" lon="32.526062"><ele>95.7</ele><time>2015-04-26T10:32:25.0000000+00:00</time></trkpt><trkpt lat="35.1160197" lon="32.526021"><ele>95.4</ele><time>2015-04-26T10:32:28.0000000+00:00</time></trkpt><trkpt lat="35.1160619" lon="32.5259895"><ele>95.5</ele><time>2015-04-26T10:32:30.0000000+00:00</time></trkpt><trkpt lat="35.1161091" lon="32.5259466"><ele>95.3</ele><time>2015-04-26T10:32:32.0000000+00:00</time></trkpt><trkpt lat="35.1161793" lon="32.5258784"><ele>94.3</ele><time>2015-04-26T10:32:34.0000000+00:00</time></trkpt><trkpt lat="35.116248" lon="32.5257905"><ele>93.6</ele><time>2015-04-26T10:32:35.0000000+00:00</time></trkpt><trkpt lat="35.1162712" lon="32.5257183"><ele>94.8</ele><time>2015-04-26T10:32:36.0000000+00:00</time></trkpt><trkpt lat="35.1162776" lon="32.525649"><ele>95.3</ele><time>2015-04-26T10:32:37.0000000+00:00</time></trkpt><trkpt lat="35.1162725" lon="32.5255893"><ele>95.6</ele><time>2015-04-26T10:32:38.0000000+00:00</time></trkpt><trkpt lat="35.1162726" lon="32.5255309"><ele>96.3</ele><time>2015-04-26T10:32:39.0000000+00:00</time></trkpt><trkpt lat="35.1162816" lon="32.5254332"><ele>97.5</ele><time>2015-04-26T10:32:41.0000000+00:00</time></trkpt><trkpt lat="35.1162928" lon="32.5253798"><ele>97.7</ele><time>2015-04-26T10:32:42.0000000+00:00</time></trkpt><trkpt lat="35.1163024" lon="32.5253255"><ele>97.8</ele><time>2015-04-26T10:32:43.0000000+00:00</time></trkpt><trkpt lat="35.1163187" lon="32.525269"><ele>98.4</ele><time>2015-04-26T10:32:44.0000000+00:00</time></trkpt><trkpt lat="35.1163381" lon="32.5252058"><ele>99.3</ele><time>2015-04-26T10:32:46.0000000+00:00</time></trkpt><trkpt lat="35.1163632" lon="32.5251548"><ele>99.8</ele><time>2015-04-26T10:32:48.0000000+00:00</time></trkpt><trkpt lat="35.116409" lon="32.5250974"><ele>100.3</ele><time>2015-04-26T10:32:51.0000000+00:00</time></trkpt><trkpt lat="35.1164531" lon="32.5250611"><ele>100.8</ele><time>2015-04-26T10:32:53.0000000+00:00</time></trkpt><trkpt lat="35.1164993" lon="32.525042"><ele>100.1</ele><time>2015-04-26T10:32:55.0000000+00:00</time></trkpt><trkpt lat="35.116547" lon="32.5250138"><ele>100.0</ele><time>2015-04-26T10:32:57.0000000+00:00</time></trkpt><trkpt lat="35.1165986" lon="32.5249734"><ele>99.9</ele><time>2015-04-26T10:32:59.0000000+00:00</time></trkpt><trkpt lat="35.1166469" lon="32.5249142"><ele>99.9</ele><time>2015-04-26T10:33:01.0000000+00:00</time></trkpt><trkpt lat="35.1166855" lon="32.5248456"><ele>99.9</ele><time>2015-04-26T10:33:03.0000000+00:00</time></trkpt><trkpt lat="35.1167219" lon="32.5247751"><ele>99.4</ele><time>2015-04-26T10:33:05.0000000+00:00</time></trkpt><trkpt lat="35.1167619" lon="32.5247044"><ele>99.1</ele><time>2015-04-26T10:33:07.0000000+00:00</time></trkpt><trkpt lat="35.1168111" lon="32.5246359"><ele>99.0</ele><time>2015-04-26T10:33:09.0000000+00:00</time></trkpt><trkpt lat="35.1168789" lon="32.5245784"><ele>97.7</ele><time>2015-04-26T10:33:11.0000000+00:00</time></trkpt><trkpt lat="35.1169466" lon="32.5245413"><ele>97.3</ele><time>2015-04-26T10:33:12.0000000+00:00</time></trkpt><trkpt lat="35.1169913" lon="32.5245174"><ele>97.1</ele><time>2015-04-26T10:33:13.0000000+00:00</time></trkpt><trkpt lat="35.1170419" lon="32.5244887"><ele>97.0</ele><time>2015-04-26T10:33:14.0000000+00:00</time></trkpt><trkpt lat="35.1170871" lon="32.5244811"><ele>96.5</ele><time>2015-04-26T10:33:15.0000000+00:00</time></trkpt><trkpt lat="35.1171662" lon="32.524481"><ele>95.8</ele><time>2015-04-26T10:33:17.0000000+00:00</time></trkpt><trkpt lat="35.1172411" lon="32.5245208"><ele>94.7</ele><time>2015-04-26T10:33:19.0000000+00:00</time></trkpt><trkpt lat="35.1173123" lon="32.5246029"><ele>92.9</ele><time>2015-04-26T10:33:21.0000000+00:00</time></trkpt><trkpt lat="35.1173467" lon="32.5246653"><ele>91.9</ele><time>2015-04-26T10:33:22.0000000+00:00</time></trkpt><trkpt lat="35.1173867" lon="32.5247373"><ele>90.4</ele><time>2015-04-26T10:33:23.0000000+00:00</time></trkpt><trkpt lat="35.1174369" lon="32.5248272"><ele>89.2</ele><time>2015-04-26T10:33:24.0000000+00:00</time></trkpt><trkpt lat="35.1174903" lon="32.5249275"><ele>87.6</ele><time>2015-04-26T10:33:25.0000000+00:00</time></trkpt><trkpt lat="35.1175382" lon="32.5250074"><ele>86.7</ele><time>2015-04-26T10:33:26.0000000+00:00</time></trkpt><trkpt lat="35.1175773" lon="32.5250798"><ele>85.8</ele><time>2015-04-26T10:33:27.0000000+00:00</time></trkpt><trkpt lat="35.1176232" lon="32.5251487"><ele>84.9</ele><time>2015-04-26T10:33:28.0000000+00:00</time></trkpt><trkpt lat="35.1176612" lon="32.5251948"><ele>84.9</ele><time>2015-04-26T10:33:29.0000000+00:00</time></trkpt><trkpt lat="35.1177478" lon="32.5252469"><ele>85.7</ele><time>2015-04-26T10:33:31.0000000+00:00</time></trkpt><trkpt lat="35.1178156" lon="32.5252277"><ele>86.1</ele><time>2015-04-26T10:33:33.0000000+00:00</time></trkpt><trkpt lat="35.1178638" lon="32.5251985"><ele>86.0</ele><time>2015-04-26T10:33:35.0000000+00:00</time></trkpt><trkpt lat="35.1179092" lon="32.5251837"><ele>86.7</ele><time>2015-04-26T10:33:37.0000000+00:00</time></trkpt><trkpt lat="35.1179562" lon="32.5251847"><ele>86.9</ele><time>2015-04-26T10:33:39.0000000+00:00</time></trkpt><trkpt lat="35.1180046" lon="32.5251943"><ele>86.9</ele><time>2015-04-26T10:33:41.0000000+00:00</time></trkpt><trkpt lat="35.11806" lon="32.5251874"><ele>88.3</ele><time>2015-04-26T10:33:44.0000000+00:00</time></trkpt><trkpt lat="35.1181084" lon="32.5251551"><ele>88.2</ele><time>2015-04-26T10:33:47.0000000+00:00</time></trkpt><trkpt lat="35.1181493" lon="32.5250884"><ele>88.0</ele><time>2015-04-26T10:33:50.0000000+00:00</time></trkpt><trkpt lat="35.1181761" lon="32.5250377"><ele>87.9</ele><time>2015-04-26T10:33:52.0000000+00:00</time></trkpt><trkpt lat="35.1182138" lon="32.5250035"><ele>86.2</ele><time>2015-04-26T10:34:16.0000000+00:00</time></trkpt><trkpt lat="35.1182377" lon="32.5249566"><ele>87.0</ele><time>2015-04-26T10:38:45.0000000+00:00</time></trkpt><trkpt lat="35.1182864" lon="32.5248971"><ele>86.9</ele><time>2015-04-26T10:38:47.0000000+00:00</time></trkpt><trkpt lat="35.1183428" lon="32.5248273"><ele>86.4</ele><time>2015-04-26T10:38:48.0000000+00:00</time></trkpt><trkpt lat="35.1184003" lon="32.5247462"><ele>84.8</ele><time>2015-04-26T10:38:50.0000000+00:00</time></trkpt><trkpt lat="35.1184294" lon="32.5247034"><ele>83.9</ele><time>2015-04-26T10:38:51.0000000+00:00</time></trkpt><trkpt lat="35.118479" lon="32.5246284"><ele>82.7</ele><time>2015-04-26T10:38:53.0000000+00:00</time></trkpt><trkpt lat="35.1185284" lon="32.5245531"><ele>81.6</ele><time>2015-04-26T10:38:55.0000000+00:00</time></trkpt><trkpt lat="35.1185773" lon="32.5244601"><ele>80.4</ele><time>2015-04-26T10:38:57.0000000+00:00</time></trkpt><trkpt lat="35.1185881" lon="32.5244059"><ele>80.1</ele><time>2015-04-26T10:38:58.0000000+00:00</time></trkpt><trkpt lat="35.118591" lon="32.5242995"><ele>79.5</ele><time>2015-04-26T10:39:00.0000000+00:00</time></trkpt><trkpt lat="35.1185997" lon="32.5242408"><ele>78.7</ele><time>2015-04-26T10:39:01.0000000+00:00</time></trkpt><trkpt lat="35.1186137" lon="32.5241781"><ele>77.8</ele><time>2015-04-26T10:39:02.0000000+00:00</time></trkpt><trkpt lat="35.1186266" lon="32.5241194"><ele>76.9</ele><time>2015-04-26T10:39:03.0000000+00:00</time></trkpt><trkpt lat="35.1186442" lon="32.524062"><ele>76.4</ele><time>2015-04-26T10:39:04.0000000+00:00</time></trkpt><trkpt lat="35.1186833" lon="32.5239696"><ele>76.0</ele><time>2015-04-26T10:39:06.0000000+00:00</time></trkpt><trkpt lat="35.118694" lon="32.5239006"><ele>75.5</ele><time>2015-04-26T10:39:08.0000000+00:00</time></trkpt><trkpt lat="35.1187062" lon="32.5238472"><ele>75.1</ele><time>2015-04-26T10:39:10.0000000+00:00</time></trkpt><trkpt lat="35.1187066" lon="32.5237841"><ele>75.7</ele><time>2015-04-26T10:39:13.0000000+00:00</time></trkpt><trkpt lat="35.1186788" lon="32.5237305"><ele>75.9</ele><time>2015-04-26T10:39:16.0000000+00:00</time></trkpt><trkpt lat="35.1186511" lon="32.5236743"><ele>75.9</ele><time>2015-04-26T10:39:19.0000000+00:00</time></trkpt><trkpt lat="35.1186503" lon="32.5236141"><ele>75.2</ele><time>2015-04-26T10:39:22.0000000+00:00</time></trkpt><trkpt lat="35.118692" lon="32.5235847"><ele>75.5</ele><time>2015-04-26T10:39:25.0000000+00:00</time></trkpt><trkpt lat="35.1187258" lon="32.5236232"><ele>75.4</ele><time>2015-04-26T10:39:28.0000000+00:00</time></trkpt><trkpt lat="35.1187538" lon="32.5236732"><ele>75.1</ele><time>2015-04-26T10:39:31.0000000+00:00</time></trkpt><trkpt lat="35.1187986" lon="32.523714"><ele>74.9</ele><time>2015-04-26T10:39:35.0000000+00:00</time></trkpt><trkpt lat="35.1188457" lon="32.5236588"><ele>73.5</ele><time>2015-04-26T10:39:45.0000000+00:00</time></trkpt><trkpt lat="35.1188919" lon="32.5236256"><ele>72.3</ele><time>2015-04-26T10:39:47.0000000+00:00</time></trkpt><trkpt lat="35.1189347" lon="32.5235891"><ele>72.0</ele><time>2015-04-26T10:39:49.0000000+00:00</time></trkpt><trkpt lat="35.1189652" lon="32.5235403"><ele>72.0</ele><time>2015-04-26T10:39:51.0000000+00:00</time></trkpt><trkpt lat="35.1189865" lon="32.5234868"><ele>71.4</ele><time>2015-04-26T10:39:53.0000000+00:00</time></trkpt><trkpt lat="35.1190075" lon="32.5234153"><ele>69.7</ele><time>2015-04-26T10:39:56.0000000+00:00</time></trkpt><trkpt lat="35.1190428" lon="32.5233587"><ele>68.7</ele><time>2015-04-26T10:39:59.0000000+00:00</time></trkpt><trkpt lat="35.1190833" lon="32.5232941"><ele>67.9</ele><time>2015-04-26T10:40:02.0000000+00:00</time></trkpt><trkpt lat="35.1191128" lon="32.5232448"><ele>67.9</ele><time>2015-04-26T10:40:04.0000000+00:00</time></trkpt><trkpt lat="35.1191418" lon="32.5231871"><ele>67.4</ele><time>2015-04-26T10:40:06.0000000+00:00</time></trkpt><trkpt lat="35.1191695" lon="32.5231249"><ele>67.1</ele><time>2015-04-26T10:40:08.0000000+00:00</time></trkpt><trkpt lat="35.1191956" lon="32.5230602"><ele>67.0</ele><time>2015-04-26T10:40:10.0000000+00:00</time></trkpt><trkpt lat="35.1192208" lon="32.5229921"><ele>66.2</ele><time>2015-04-26T10:40:12.0000000+00:00</time></trkpt><trkpt lat="35.1192515" lon="32.5229147"><ele>65.2</ele><time>2015-04-26T10:40:14.0000000+00:00</time></trkpt><trkpt lat="35.1192912" lon="32.5228248"><ele>65.5</ele><time>2015-04-26T10:40:16.0000000+00:00</time></trkpt><trkpt lat="35.1193342" lon="32.522735"><ele>65.8</ele><time>2015-04-26T10:40:18.0000000+00:00</time></trkpt><trkpt lat="35.1193733" lon="32.5226478"><ele>65.2</ele><time>2015-04-26T10:40:20.0000000+00:00</time></trkpt><trkpt lat="35.1194074" lon="32.52257"><ele>65.0</ele><time>2015-04-26T10:40:22.0000000+00:00</time></trkpt><trkpt lat="35.1194358" lon="32.522513"><ele>64.2</ele><time>2015-04-26T10:40:24.0000000+00:00</time></trkpt><trkpt lat="35.1194666" lon="32.5224645"><ele>64.2</ele><time>2015-04-26T10:40:27.0000000+00:00</time></trkpt><trkpt lat="35.1195088" lon="32.5224432"><ele>64.0</ele><time>2015-04-26T10:40:30.0000000+00:00</time></trkpt><trkpt lat="35.1195588" lon="32.5224331"><ele>63.4</ele><time>2015-04-26T10:40:34.0000000+00:00</time></trkpt><trkpt lat="35.1196007" lon="32.5224114"><ele>61.8</ele><time>2015-04-26T10:40:36.0000000+00:00</time></trkpt><trkpt lat="35.1197026" lon="32.5223739"><ele>60.1</ele><time>2015-04-26T10:40:38.0000000+00:00</time></trkpt><trkpt lat="35.1197476" lon="32.5223474"><ele>59.5</ele><time>2015-04-26T10:40:39.0000000+00:00</time></trkpt><trkpt lat="35.1197898" lon="32.5223183"><ele>58.7</ele><time>2015-04-26T10:40:40.0000000+00:00</time></trkpt><trkpt lat="35.1198383" lon="32.5222947"><ele>57.8</ele><time>2015-04-26T10:40:41.0000000+00:00</time></trkpt><trkpt lat="35.1198868" lon="32.5222676"><ele>57.4</ele><time>2015-04-26T10:40:42.0000000+00:00</time></trkpt><trkpt lat="35.1199337" lon="32.5222503"><ele>57.2</ele><time>2015-04-26T10:40:43.0000000+00:00</time></trkpt><trkpt lat="35.1199874" lon="32.5222291"><ele>56.5</ele><time>2015-04-26T10:40:44.0000000+00:00</time></trkpt><trkpt lat="35.1200352" lon="32.5222256"><ele>56.2</ele><time>2015-04-26T10:40:45.0000000+00:00</time></trkpt><trkpt lat="35.1200985" lon="32.5222211"><ele>55.1</ele><time>2015-04-26T10:40:46.0000000+00:00</time></trkpt><trkpt lat="35.1201725" lon="32.5222149"><ele>53.5</ele><time>2015-04-26T10:40:47.0000000+00:00</time></trkpt><trkpt lat="35.1202484" lon="32.5222082"><ele>52.2</ele><time>2015-04-26T10:40:48.0000000+00:00</time></trkpt><trkpt lat="35.120324" lon="32.5222074"><ele>51.1</ele><time>2015-04-26T10:40:49.0000000+00:00</time></trkpt><trkpt lat="35.1204019" lon="32.5222262"><ele>50.0</ele><time>2015-04-26T10:40:50.0000000+00:00</time></trkpt><trkpt lat="35.1204833" lon="32.5222422"><ele>49.5</ele><time>2015-04-26T10:40:51.0000000+00:00</time></trkpt><trkpt lat="35.1205712" lon="32.5222514"><ele>48.2</ele><time>2015-04-26T10:40:52.0000000+00:00</time></trkpt><trkpt lat="35.1206604" lon="32.5222622"><ele>47.1</ele><time>2015-04-26T10:40:53.0000000+00:00</time></trkpt><trkpt lat="35.1207483" lon="32.5222692"><ele>46.5</ele><time>2015-04-26T10:40:54.0000000+00:00</time></trkpt><trkpt lat="35.1208438" lon="32.5222708"><ele>45.2</ele><time>2015-04-26T10:40:55.0000000+00:00</time></trkpt><trkpt lat="35.1209375" lon="32.5222764"><ele>44.6</ele><time>2015-04-26T10:40:56.0000000+00:00</time></trkpt><trkpt lat="35.1210195" lon="32.5222572"><ele>44.8</ele><time>2015-04-26T10:40:57.0000000+00:00</time></trkpt><trkpt lat="35.1211029" lon="32.5222282"><ele>44.3</ele><time>2015-04-26T10:40:58.0000000+00:00</time></trkpt><trkpt lat="35.1211885" lon="32.5221871"><ele>43.6</ele><time>2015-04-26T10:40:59.0000000+00:00</time></trkpt><trkpt lat="35.1212705" lon="32.5221493"><ele>43.3</ele><time>2015-04-26T10:41:00.0000000+00:00</time></trkpt><trkpt lat="35.1213448" lon="32.5221115"><ele>43.1</ele><time>2015-04-26T10:41:01.0000000+00:00</time></trkpt><trkpt lat="35.1214234" lon="32.5220723"><ele>43.5</ele><time>2015-04-26T10:41:02.0000000+00:00</time></trkpt><trkpt lat="35.121487" lon="32.5220397"><ele>44.2</ele><time>2015-04-26T10:41:03.0000000+00:00</time></trkpt><trkpt lat="35.1215325" lon="32.5220097"><ele>44.1</ele><time>2015-04-26T10:41:04.0000000+00:00</time></trkpt><trkpt lat="35.1215688" lon="32.5219735"><ele>43.5</ele><time>2015-04-26T10:41:05.0000000+00:00</time></trkpt><trkpt lat="35.121598" lon="32.5218949"><ele>43.8</ele><time>2015-04-26T10:41:07.0000000+00:00</time></trkpt><trkpt lat="35.1216032" lon="32.5218099"><ele>43.4</ele><time>2015-04-26T10:41:09.0000000+00:00</time></trkpt><trkpt lat="35.1216004" lon="32.5217376"><ele>43.0</ele><time>2015-04-26T10:41:11.0000000+00:00</time></trkpt><trkpt lat="35.1216083" lon="32.5216632"><ele>42.2</ele><time>2015-04-26T10:41:13.0000000+00:00</time></trkpt><trkpt lat="35.121623" lon="32.5215982"><ele>41.2</ele><time>2015-04-26T10:41:15.0000000+00:00</time></trkpt><trkpt lat="35.1216295" lon="32.5215426"><ele>40.3</ele><time>2015-04-26T10:41:17.0000000+00:00</time></trkpt><trkpt lat="35.1216133" lon="32.5215963"><ele>42.1</ele><time>2015-04-26T10:42:20.0000000+00:00</time></trkpt><trkpt lat="35.1216094" lon="32.5216553"><ele>41.9</ele><time>2015-04-26T10:42:23.0000000+00:00</time></trkpt><trkpt lat="35.1216037" lon="32.52172"><ele>41.7</ele><time>2015-04-26T10:42:26.0000000+00:00</time></trkpt><trkpt lat="35.1216027" lon="32.521787"><ele>42.3</ele><time>2015-04-26T10:42:29.0000000+00:00</time></trkpt><trkpt lat="35.1216058" lon="32.5218456"><ele>41.5</ele><time>2015-04-26T10:42:43.0000000+00:00</time></trkpt><trkpt lat="35.1215893" lon="32.5219239"><ele>42.5</ele><time>2015-04-26T10:42:47.0000000+00:00</time></trkpt><trkpt lat="35.1215747" lon="32.5219768"><ele>42.1</ele><time>2015-04-26T10:42:49.0000000+00:00</time></trkpt><trkpt lat="35.121547" lon="32.5220325"><ele>42.7</ele><time>2015-04-26T10:42:52.0000000+00:00</time></trkpt><trkpt lat="35.121554" lon="32.5219771"><ele>41.2</ele><time>2015-04-26T10:42:58.0000000+00:00</time></trkpt><trkpt lat="35.1215824" lon="32.5219241"><ele>40.1</ele><time>2015-04-26T10:43:01.0000000+00:00</time></trkpt><trkpt lat="35.1215986" lon="32.5218675"><ele>40.4</ele><time>2015-04-26T10:43:04.0000000+00:00</time></trkpt><trkpt lat="35.1216224" lon="32.5218176"><ele>41.7</ele><time>2015-04-26T10:43:07.0000000+00:00</time></trkpt><trkpt lat="35.1216662" lon="32.5218392"><ele>42.1</ele><time>2015-04-26T10:43:11.0000000+00:00</time></trkpt><trkpt lat="35.121698" lon="32.521885"><ele>42.2</ele><time>2015-04-26T10:43:40.0000000+00:00</time></trkpt><trkpt lat="35.1217256" lon="32.5219298"><ele>43.9</ele><time>2015-04-26T10:43:48.0000000+00:00</time></trkpt><trkpt lat="35.1217588" lon="32.5219791"><ele>43.6</ele><time>2015-04-26T10:43:58.0000000+00:00</time></trkpt><trkpt lat="35.1217924" lon="32.5220273"><ele>43.8</ele><time>2015-04-26T10:44:02.0000000+00:00</time></trkpt><trkpt lat="35.1218229" lon="32.5220721"><ele>45.3</ele><time>2015-04-26T10:44:06.0000000+00:00</time></trkpt><trkpt lat="35.1218478" lon="32.5221243"><ele>47.8</ele><time>2015-04-26T10:44:11.0000000+00:00</time></trkpt><trkpt lat="35.1218709" lon="32.5221805"><ele>47.2</ele><time>2015-04-26T10:44:16.0000000+00:00</time></trkpt><trkpt lat="35.1218909" lon="32.5222332"><ele>47.0</ele><time>2015-04-26T10:44:21.0000000+00:00</time></trkpt><trkpt lat="35.1219115" lon="32.5222938"><ele>46.6</ele><time>2015-04-26T10:44:27.0000000+00:00</time></trkpt><trkpt lat="35.1219441" lon="32.5223387"><ele>48.7</ele><time>2015-04-26T10:44:33.0000000+00:00</time></trkpt><trkpt lat="35.1219811" lon="32.5223736"><ele>49.7</ele><time>2015-04-26T10:44:40.0000000+00:00</time></trkpt><trkpt lat="35.1220251" lon="32.5223956"><ele>52.5</ele><time>2015-04-26T10:44:49.0000000+00:00</time></trkpt><trkpt lat="35.1220682" lon="32.5224112"><ele>54.7</ele><time>2015-04-26T10:44:56.0000000+00:00</time></trkpt><trkpt lat="35.1221183" lon="32.5224285"><ele>56.0</ele><time>2015-04-26T10:45:02.0000000+00:00</time></trkpt><trkpt lat="35.1221136" lon="32.5224874"><ele>56.9</ele><time>2015-04-26T10:45:08.0000000+00:00</time></trkpt><trkpt lat="35.1220948" lon="32.5225499"><ele>56.1</ele><time>2015-04-26T10:45:13.0000000+00:00</time></trkpt><trkpt lat="35.1221107" lon="32.5226013"><ele>55.7</ele><time>2015-04-26T10:45:18.0000000+00:00</time></trkpt><trkpt lat="35.1221606" lon="32.5226414"><ele>56.6</ele><time>2015-04-26T10:45:24.0000000+00:00</time></trkpt><trkpt lat="35.1222288" lon="32.5226677"><ele>57.6</ele><time>2015-04-26T10:45:27.0000000+00:00</time></trkpt><trkpt lat="35.1222825" lon="32.5226994"><ele>57.9</ele><time>2015-04-26T10:45:29.0000000+00:00</time></trkpt><trkpt lat="35.1223346" lon="32.5227309"><ele>57.9</ele><time>2015-04-26T10:45:31.0000000+00:00</time></trkpt><trkpt lat="35.1223861" lon="32.5227637"><ele>57.9</ele><time>2015-04-26T10:45:33.0000000+00:00</time></trkpt><trkpt lat="35.1224375" lon="32.52279"><ele>58.7</ele><time>2015-04-26T10:45:35.0000000+00:00</time></trkpt><trkpt lat="35.1224902" lon="32.5228084"><ele>58.9</ele><time>2015-04-26T10:45:37.0000000+00:00</time></trkpt><trkpt lat="35.1225411" lon="32.5228264"><ele>58.2</ele><time>2015-04-26T10:45:39.0000000+00:00</time></trkpt><trkpt lat="35.122583" lon="32.5228578"><ele>57.7</ele><time>2015-04-26T10:45:41.0000000+00:00</time></trkpt><trkpt lat="35.1226135" lon="32.5228984"><ele>57.4</ele><time>2015-04-26T10:45:43.0000000+00:00</time></trkpt><trkpt lat="35.1226415" lon="32.5229415"><ele>57.0</ele><time>2015-04-26T10:45:45.0000000+00:00</time></trkpt><trkpt lat="35.1226709" lon="32.5230057"><ele>57.1</ele><time>2015-04-26T10:45:48.0000000+00:00</time></trkpt><trkpt lat="35.1226826" lon="32.5230762"><ele>56.1</ele><time>2015-04-26T10:45:51.0000000+00:00</time></trkpt><trkpt lat="35.1227069" lon="32.5231309"><ele>56.3</ele><time>2015-04-26T10:45:54.0000000+00:00</time></trkpt><trkpt lat="35.1227307" lon="32.5231797"><ele>55.5</ele><time>2015-04-26T10:45:59.0000000+00:00</time></trkpt><trkpt lat="35.1227122" lon="32.5231284"><ele>54.9</ele><time>2015-04-26T10:46:08.0000000+00:00</time></trkpt><trkpt lat="35.1226754" lon="32.5230903"><ele>56.3</ele><time>2015-04-26T10:46:24.0000000+00:00</time></trkpt><trkpt lat="35.1226528" lon="32.5230296"><ele>56.0</ele><time>2015-04-26T10:46:28.0000000+00:00</time></trkpt><trkpt lat="35.1226206" lon="32.522959"><ele>55.9</ele><time>2015-04-26T10:46:31.0000000+00:00</time></trkpt><trkpt lat="35.1225858" lon="32.5229041"><ele>56.4</ele><time>2015-04-26T10:46:33.0000000+00:00</time></trkpt><trkpt lat="35.122549" lon="32.5228568"><ele>55.6</ele><time>2015-04-26T10:46:35.0000000+00:00</time></trkpt><trkpt lat="35.1225085" lon="32.5228222"><ele>55.8</ele><time>2015-04-26T10:46:37.0000000+00:00</time></trkpt><trkpt lat="35.1224637" lon="32.522799"><ele>55.7</ele><time>2015-04-26T10:46:39.0000000+00:00</time></trkpt><trkpt lat="35.1224115" lon="32.5227812"><ele>55.1</ele><time>2015-04-26T10:46:41.0000000+00:00</time></trkpt><trkpt lat="35.1223602" lon="32.52276"><ele>54.5</ele><time>2015-04-26T10:46:43.0000000+00:00</time></trkpt><trkpt lat="35.1223087" lon="32.5227319"><ele>54.1</ele><time>2015-04-26T10:46:45.0000000+00:00</time></trkpt><trkpt lat="35.1222541" lon="32.5227055"><ele>53.2</ele><time>2015-04-26T10:46:47.0000000+00:00</time></trkpt><trkpt lat="35.1222019" lon="32.5226813"><ele>52.3</ele><time>2015-04-26T10:46:49.0000000+00:00</time></trkpt><trkpt lat="35.1221556" lon="32.5226504"><ele>51.5</ele><time>2015-04-26T10:46:51.0000000+00:00</time></trkpt><trkpt lat="35.1221161" lon="32.5226095"><ele>50.6</ele><time>2015-04-26T10:46:53.0000000+00:00</time></trkpt><trkpt lat="35.1220983" lon="32.52255"><ele>50.1</ele><time>2015-04-26T10:46:55.0000000+00:00</time></trkpt><trkpt lat="35.1221138" lon="32.5224833"><ele>50.5</ele><time>2015-04-26T10:46:57.0000000+00:00</time></trkpt><trkpt lat="35.122123" lon="32.5224227"><ele>50.8</ele><time>2015-04-26T10:46:59.0000000+00:00</time></trkpt><trkpt lat="35.1220882" lon="32.5223615"><ele>52.4</ele><time>2015-04-26T10:47:02.0000000+00:00</time></trkpt><trkpt lat="35.1220314" lon="32.5223436"><ele>51.1</ele><time>2015-04-26T10:47:06.0000000+00:00</time></trkpt><trkpt lat="35.1219793" lon="32.5223419"><ele>49.3</ele><time>2015-04-26T10:47:09.0000000+00:00</time></trkpt><trkpt lat="35.1219211" lon="32.5222946"><ele>47.6</ele><time>2015-04-26T10:47:12.0000000+00:00</time></trkpt><trkpt lat="35.1218834" lon="32.5222347"><ele>46.6</ele><time>2015-04-26T10:47:14.0000000+00:00</time></trkpt><trkpt lat="35.1218404" lon="32.5221485"><ele>45.3</ele><time>2015-04-26T10:47:16.0000000+00:00</time></trkpt><trkpt lat="35.1218068" lon="32.5220788"><ele>44.6</ele><time>2015-04-26T10:47:17.0000000+00:00</time></trkpt><trkpt lat="35.1217792" lon="32.5220261"><ele>44.3</ele><time>2015-04-26T10:47:18.0000000+00:00</time></trkpt><trkpt lat="35.1217521" lon="32.5219814"><ele>44.1</ele><time>2015-04-26T10:47:19.0000000+00:00</time></trkpt><trkpt lat="35.1217084" lon="32.5219142"><ele>42.7</ele><time>2015-04-26T10:47:21.0000000+00:00</time></trkpt><trkpt lat="35.1216638" lon="32.5218768"><ele>42.1</ele><time>2015-04-26T10:47:23.0000000+00:00</time></trkpt><trkpt lat="35.1216171" lon="32.5218693"><ele>42.4</ele><time>2015-04-26T10:47:27.0000000+00:00</time></trkpt><trkpt lat="35.1215912" lon="32.5219271"><ele>42.9</ele><time>2015-04-26T10:47:31.0000000+00:00</time></trkpt><trkpt lat="35.1215811" lon="32.5219982"><ele>42.7</ele><time>2015-04-26T10:47:35.0000000+00:00</time></trkpt><trkpt lat="35.1215393" lon="32.5220347"><ele>42.4</ele><time>2015-04-26T10:47:37.0000000+00:00</time></trkpt><trkpt lat="35.121476" lon="32.5220649"><ele>42.0</ele><time>2015-04-26T10:47:39.0000000+00:00</time></trkpt><trkpt lat="35.1214054" lon="32.5220928"><ele>42.7</ele><time>2015-04-26T10:47:41.0000000+00:00</time></trkpt><trkpt lat="35.1213291" lon="32.5221244"><ele>42.9</ele><time>2015-04-26T10:47:43.0000000+00:00</time></trkpt><trkpt lat="35.1212502" lon="32.5221567"><ele>42.4</ele><time>2015-04-26T10:47:45.0000000+00:00</time></trkpt><trkpt lat="35.12114" lon="32.5222112"><ele>42.6</ele><time>2015-04-26T10:47:47.0000000+00:00</time></trkpt><trkpt lat="35.1210908" lon="32.5222354"><ele>42.7</ele><time>2015-04-26T10:47:48.0000000+00:00</time></trkpt><trkpt lat="35.1210444" lon="32.5222485"><ele>42.8</ele><time>2015-04-26T10:47:49.0000000+00:00</time></trkpt><trkpt lat="35.121" lon="32.5222617"><ele>43.4</ele><time>2015-04-26T10:47:50.0000000+00:00</time></trkpt><trkpt lat="35.1209194" lon="32.5222778"><ele>43.8</ele><time>2015-04-26T10:47:52.0000000+00:00</time></trkpt><trkpt lat="35.120843" lon="32.5222804"><ele>45.1</ele><time>2015-04-26T10:47:54.0000000+00:00</time></trkpt><trkpt lat="35.1207758" lon="32.5222793"><ele>45.7</ele><time>2015-04-26T10:47:56.0000000+00:00</time></trkpt><trkpt lat="35.1207224" lon="32.5222895"><ele>45.9</ele><time>2015-04-26T10:47:58.0000000+00:00</time></trkpt><trkpt lat="35.1206652" lon="32.5223067"><ele>46.4</ele><time>2015-04-26T10:48:00.0000000+00:00</time></trkpt><trkpt lat="35.1206111" lon="32.5223317"><ele>46.8</ele><time>2015-04-26T10:48:02.0000000+00:00</time></trkpt><trkpt lat="35.1205542" lon="32.5223629"><ele>46.4</ele><time>2015-04-26T10:48:04.0000000+00:00</time></trkpt><trkpt lat="35.1204979" lon="32.5223933"><ele>46.0</ele><time>2015-04-26T10:48:06.0000000+00:00</time></trkpt><trkpt lat="35.1204424" lon="32.5224169"><ele>46.0</ele><time>2015-04-26T10:48:08.0000000+00:00</time></trkpt><trkpt lat="35.1203895" lon="32.5224433"><ele>45.2</ele><time>2015-04-26T10:48:10.0000000+00:00</time></trkpt><trkpt lat="35.1203346" lon="32.5224832"><ele>45.0</ele><time>2015-04-26T10:48:12.0000000+00:00</time></trkpt><trkpt lat="35.120283" lon="32.5225335"><ele>44.9</ele><time>2015-04-26T10:48:14.0000000+00:00</time></trkpt><trkpt lat="35.1202484" lon="32.522591"><ele>44.4</ele><time>2015-04-26T10:48:16.0000000+00:00</time></trkpt><trkpt lat="35.1202305" lon="32.522661"><ele>43.3</ele><time>2015-04-26T10:48:18.0000000+00:00</time></trkpt><trkpt lat="35.1202284" lon="32.5227368"><ele>42.8</ele><time>2015-04-26T10:48:20.0000000+00:00</time></trkpt><trkpt lat="35.1202244" lon="32.5228122"><ele>44.1</ele><time>2015-04-26T10:48:22.0000000+00:00</time></trkpt><trkpt lat="35.1202199" lon="32.5228839"><ele>44.0</ele><time>2015-04-26T10:48:24.0000000+00:00</time></trkpt><trkpt lat="35.1202132" lon="32.5229567"><ele>44.7</ele><time>2015-04-26T10:48:26.0000000+00:00</time></trkpt><trkpt lat="35.1202018" lon="32.5230283"><ele>46.1</ele><time>2015-04-26T10:48:28.0000000+00:00</time></trkpt><trkpt lat="35.1201833" lon="32.523101"><ele>48.0</ele><time>2015-04-26T10:48:30.0000000+00:00</time></trkpt><trkpt lat="35.1201577" lon="32.5231708"><ele>48.4</ele><time>2015-04-26T10:48:32.0000000+00:00</time></trkpt><trkpt lat="35.1201206" lon="32.5232271"><ele>48.8</ele><time>2015-04-26T10:48:34.0000000+00:00</time></trkpt><trkpt lat="35.120076" lon="32.5232682"><ele>48.4</ele><time>2015-04-26T10:48:36.0000000+00:00</time></trkpt><trkpt lat="35.1200288" lon="32.5233097"><ele>48.3</ele><time>2015-04-26T10:48:38.0000000+00:00</time></trkpt><trkpt lat="35.1199764" lon="32.5233438"><ele>48.0</ele><time>2015-04-26T10:48:40.0000000+00:00</time></trkpt><trkpt lat="35.1199241" lon="32.5233794"><ele>47.7</ele><time>2015-04-26T10:48:42.0000000+00:00</time></trkpt><trkpt lat="35.1198753" lon="32.5234204"><ele>47.1</ele><time>2015-04-26T10:48:44.0000000+00:00</time></trkpt><trkpt lat="35.1198278" lon="32.5234702"><ele>47.2</ele><time>2015-04-26T10:48:46.0000000+00:00</time></trkpt><trkpt lat="35.119784" lon="32.5235264"><ele>46.5</ele><time>2015-04-26T10:48:48.0000000+00:00</time></trkpt><trkpt lat="35.1197441" lon="32.5235908"><ele>46.8</ele><time>2015-04-26T10:48:50.0000000+00:00</time></trkpt><trkpt lat="35.1197072" lon="32.5236573"><ele>47.7</ele><time>2015-04-26T10:48:52.0000000+00:00</time></trkpt><trkpt lat="35.1196816" lon="32.5237288"><ele>48.4</ele><time>2015-04-26T10:48:54.0000000+00:00</time></trkpt><trkpt lat="35.1196685" lon="32.5238036"><ele>48.8</ele><time>2015-04-26T10:48:56.0000000+00:00</time></trkpt><trkpt lat="35.1196638" lon="32.5238811"><ele>49.6</ele><time>2015-04-26T10:48:58.0000000+00:00</time></trkpt><trkpt lat="35.119666" lon="32.5239577"><ele>49.9</ele><time>2015-04-26T10:49:00.0000000+00:00</time></trkpt><trkpt lat="35.1196703" lon="32.5240348"><ele>51.2</ele><time>2015-04-26T10:49:02.0000000+00:00</time></trkpt><trkpt lat="35.1196711" lon="32.52411"><ele>52.2</ele><time>2015-04-26T10:49:04.0000000+00:00</time></trkpt><trkpt lat="35.1196724" lon="32.5241765"><ele>53.5</ele><time>2015-04-26T10:49:06.0000000+00:00</time></trkpt><trkpt lat="35.1196748" lon="32.5242365"><ele>54.6</ele><time>2015-04-26T10:49:08.0000000+00:00</time></trkpt><trkpt lat="35.1196789" lon="32.5242945"><ele>54.8</ele><time>2015-04-26T10:49:10.0000000+00:00</time></trkpt><trkpt lat="35.1196772" lon="32.5243526"><ele>55.4</ele><time>2015-04-26T10:49:12.0000000+00:00</time></trkpt><trkpt lat="35.1196712" lon="32.5244132"><ele>55.0</ele><time>2015-04-26T10:49:14.0000000+00:00</time></trkpt><trkpt lat="35.1196686" lon="32.5244741"><ele>55.5</ele><time>2015-04-26T10:49:16.0000000+00:00</time></trkpt><trkpt lat="35.1196647" lon="32.5245345"><ele>55.8</ele><time>2015-04-26T10:49:18.0000000+00:00</time></trkpt><trkpt lat="35.1196626" lon="32.5245984"><ele>55.9</ele><time>2015-04-26T10:49:20.0000000+00:00</time></trkpt><trkpt lat="35.1196692" lon="32.5246645"><ele>55.9</ele><time>2015-04-26T10:49:22.0000000+00:00</time></trkpt><trkpt lat="35.1196824" lon="32.5247345"><ele>55.9</ele><time>2015-04-26T10:49:24.0000000+00:00</time></trkpt><trkpt lat="35.1196959" lon="32.5248069"><ele>56.4</ele><time>2015-04-26T10:49:26.0000000+00:00</time></trkpt><trkpt lat="35.1197003" lon="32.5248788"><ele>56.8</ele><time>2015-04-26T10:49:28.0000000+00:00</time></trkpt><trkpt lat="35.1196859" lon="32.5249492"><ele>57.4</ele><time>2015-04-26T10:49:30.0000000+00:00</time></trkpt><trkpt lat="35.1196573" lon="32.5250135"><ele>56.3</ele><time>2015-04-26T10:49:32.0000000+00:00</time></trkpt><trkpt lat="35.11962" lon="32.5250723"><ele>55.5</ele><time>2015-04-26T10:49:34.0000000+00:00</time></trkpt><trkpt lat="35.119584" lon="32.5251287"><ele>54.3</ele><time>2015-04-26T10:49:36.0000000+00:00</time></trkpt><trkpt lat="35.1195508" lon="32.5251786"><ele>53.3</ele><time>2015-04-26T10:49:38.0000000+00:00</time></trkpt><trkpt lat="35.1195266" lon="32.5252327"><ele>52.2</ele><time>2015-04-26T10:49:41.0000000+00:00</time></trkpt><trkpt lat="35.1194959" lon="32.5252909"><ele>52.0</ele><time>2015-04-26T10:49:44.0000000+00:00</time></trkpt><trkpt lat="35.1194676" lon="32.5253678"><ele>51.6</ele><time>2015-04-26T10:49:47.0000000+00:00</time></trkpt><trkpt lat="35.1194577" lon="32.5254531"><ele>51.8</ele><time>2015-04-26T10:49:49.0000000+00:00</time></trkpt><trkpt lat="35.1194641" lon="32.5255333"><ele>51.2</ele><time>2015-04-26T10:49:51.0000000+00:00</time></trkpt><trkpt lat="35.1194754" lon="32.5255992"><ele>51.0</ele><time>2015-04-26T10:49:53.0000000+00:00</time></trkpt><trkpt lat="35.1194911" lon="32.5256579"><ele>51.4</ele><time>2015-04-26T10:49:55.0000000+00:00</time></trkpt><trkpt lat="35.1195172" lon="32.5257119"><ele>51.8</ele><time>2015-04-26T10:49:57.0000000+00:00</time></trkpt><trkpt lat="35.1195452" lon="32.5257654"><ele>51.9</ele><time>2015-04-26T10:49:59.0000000+00:00</time></trkpt><trkpt lat="35.1195803" lon="32.5258134"><ele>51.4</ele><time>2015-04-26T10:50:01.0000000+00:00</time></trkpt><trkpt lat="35.1196215" lon="32.5258489"><ele>51.1</ele><time>2015-04-26T10:50:03.0000000+00:00</time></trkpt><trkpt lat="35.1196608" lon="32.5258853"><ele>50.4</ele><time>2015-04-26T10:50:06.0000000+00:00</time></trkpt><trkpt lat="35.1196866" lon="32.5259326"><ele>50.8</ele><time>2015-04-26T10:50:11.0000000+00:00</time></trkpt><trkpt lat="35.1197095" lon="32.5259948"><ele>52.8</ele><time>2015-04-26T10:50:16.0000000+00:00</time></trkpt><trkpt lat="35.1197425" lon="32.5260404"><ele>52.4</ele><time>2015-04-26T10:50:21.0000000+00:00</time></trkpt><trkpt lat="35.1196987" lon="32.526026"><ele>54.2</ele><time>2015-04-26T10:50:27.0000000+00:00</time></trkpt><trkpt lat="35.1196818" lon="32.5259564"><ele>55.4</ele><time>2015-04-26T10:50:31.0000000+00:00</time></trkpt><trkpt lat="35.1196909" lon="32.5258685"><ele>57.2</ele><time>2015-04-26T10:50:34.0000000+00:00</time></trkpt><trkpt lat="35.1197192" lon="32.5258026"><ele>57.0</ele><time>2015-04-26T10:50:36.0000000+00:00</time></trkpt><trkpt lat="35.1197575" lon="32.52575"><ele>55.9</ele><time>2015-04-26T10:50:38.0000000+00:00</time></trkpt><trkpt lat="35.1198023" lon="32.5257006"><ele>54.4</ele><time>2015-04-26T10:50:40.0000000+00:00</time></trkpt><trkpt lat="35.1198446" lon="32.5256596"><ele>54.8</ele><time>2015-04-26T10:50:42.0000000+00:00</time></trkpt><trkpt lat="35.1198888" lon="32.525617"><ele>55.0</ele><time>2015-04-26T10:50:45.0000000+00:00</time></trkpt><trkpt lat="35.1199192" lon="32.525562"><ele>57.3</ele><time>2015-04-26T10:50:49.0000000+00:00</time></trkpt><trkpt lat="35.1199363" lon="32.5255072"><ele>58.6</ele><time>2015-04-26T10:50:53.0000000+00:00</time></trkpt><trkpt lat="35.1199677" lon="32.5254489"><ele>62.3</ele><time>2015-04-26T10:50:57.0000000+00:00</time></trkpt><trkpt lat="35.1200075" lon="32.5254055"><ele>63.7</ele><time>2015-04-26T10:51:00.0000000+00:00</time></trkpt><trkpt lat="35.1200586" lon="32.5253765"><ele>64.8</ele><time>2015-04-26T10:51:03.0000000+00:00</time></trkpt><trkpt lat="35.1201091" lon="32.5253566"><ele>65.8</ele><time>2015-04-26T10:51:06.0000000+00:00</time></trkpt><trkpt lat="35.1201561" lon="32.5253336"><ele>66.8</ele><time>2015-04-26T10:51:09.0000000+00:00</time></trkpt><trkpt lat="35.1202079" lon="32.5253108"><ele>66.7</ele><time>2015-04-26T10:51:12.0000000+00:00</time></trkpt><trkpt lat="35.1202599" lon="32.5252921"><ele>67.4</ele><time>2015-04-26T10:51:15.0000000+00:00</time></trkpt><trkpt lat="35.120304" lon="32.5252674"><ele>67.1</ele><time>2015-04-26T10:51:18.0000000+00:00</time></trkpt><trkpt lat="35.1203471" lon="32.5252394"><ele>67.8</ele><time>2015-04-26T10:51:21.0000000+00:00</time></trkpt><trkpt lat="35.120381" lon="32.5251996"><ele>69.3</ele><time>2015-04-26T10:51:24.0000000+00:00</time></trkpt><trkpt lat="35.1204171" lon="32.525155"><ele>69.7</ele><time>2015-04-26T10:51:27.0000000+00:00</time></trkpt><trkpt lat="35.1204537" lon="32.5251164"><ele>70.4</ele><time>2015-04-26T10:51:30.0000000+00:00</time></trkpt><trkpt lat="35.1204917" lon="32.5250856"><ele>71.4</ele><time>2015-04-26T10:51:33.0000000+00:00</time></trkpt><trkpt lat="35.1205318" lon="32.5250366"><ele>71.9</ele><time>2015-04-26T10:51:37.0000000+00:00</time></trkpt><trkpt lat="35.1205644" lon="32.5249789"><ele>71.6</ele><time>2015-04-26T10:51:41.0000000+00:00</time></trkpt><trkpt lat="35.1205597" lon="32.5249148"><ele>72.7</ele><time>2015-04-26T10:51:45.0000000+00:00</time></trkpt><trkpt lat="35.1205408" lon="32.5248478"><ele>74.7</ele><time>2015-04-26T10:51:49.0000000+00:00</time></trkpt><trkpt lat="35.1205298" lon="32.5247834"><ele>77.2</ele><time>2015-04-26T10:51:53.0000000+00:00</time></trkpt><trkpt lat="35.1205691" lon="32.5247354"><ele>77.4</ele><time>2015-04-26T10:51:57.0000000+00:00</time></trkpt><trkpt lat="35.1206232" lon="32.5247528"><ele>77.4</ele><time>2015-04-26T10:52:01.0000000+00:00</time></trkpt><trkpt lat="35.1206506" lon="32.5247972"><ele>77.0</ele><time>2015-04-26T10:52:04.0000000+00:00</time></trkpt><trkpt lat="35.1206884" lon="32.5248464"><ele>78.3</ele><time>2015-04-26T10:52:08.0000000+00:00</time></trkpt><trkpt lat="35.1207329" lon="32.5248861"><ele>78.1</ele><time>2015-04-26T10:52:12.0000000+00:00</time></trkpt><trkpt lat="35.1207871" lon="32.5249106"><ele>80.2</ele><time>2015-04-26T10:52:16.0000000+00:00</time></trkpt><trkpt lat="35.1208311" lon="32.5249229"><ele>79.2</ele><time>2015-04-26T10:52:19.0000000+00:00</time></trkpt><trkpt lat="35.1208745" lon="32.5249432"><ele>79.8</ele><time>2015-04-26T10:52:22.0000000+00:00</time></trkpt><trkpt lat="35.120927" lon="32.5249665"><ele>79.9</ele><time>2015-04-26T10:52:26.0000000+00:00</time></trkpt><trkpt lat="35.120982" lon="32.5249858"><ele>80.2</ele><time>2015-04-26T10:52:30.0000000+00:00</time></trkpt><trkpt lat="35.1210347" lon="32.5249903"><ele>79.6</ele><time>2015-04-26T10:52:33.0000000+00:00</time></trkpt><trkpt lat="35.1210967" lon="32.5250086"><ele>79.1</ele><time>2015-04-26T10:52:36.0000000+00:00</time></trkpt><trkpt lat="35.1211476" lon="32.5250211"><ele>79.0</ele><time>2015-04-26T10:52:38.0000000+00:00</time></trkpt><trkpt lat="35.1212173" lon="32.5250408"><ele>78.9</ele><time>2015-04-26T10:52:40.0000000+00:00</time></trkpt><trkpt lat="35.1212978" lon="32.5250689"><ele>78.2</ele><time>2015-04-26T10:52:42.0000000+00:00</time></trkpt><trkpt lat="35.1213417" lon="32.5250815"><ele>78.6</ele><time>2015-04-26T10:52:43.0000000+00:00</time></trkpt><trkpt lat="35.1214166" lon="32.5250983"><ele>78.7</ele><time>2015-04-26T10:52:44.0000000+00:00</time></trkpt><trkpt lat="35.1214623" lon="32.5251055"><ele>79.3</ele><time>2015-04-26T10:52:45.0000000+00:00</time></trkpt><trkpt lat="35.1215156" lon="32.5251019"><ele>79.1</ele><time>2015-04-26T10:52:46.0000000+00:00</time></trkpt><trkpt lat="35.121569" lon="32.5251046"><ele>79.0</ele><time>2015-04-26T10:52:47.0000000+00:00</time></trkpt><trkpt lat="35.1216226" lon="32.5251106"><ele>79.0</ele><time>2015-04-26T10:52:48.0000000+00:00</time></trkpt><trkpt lat="35.1216818" lon="32.5251151"><ele>79.0</ele><time>2015-04-26T10:52:49.0000000+00:00</time></trkpt><trkpt lat="35.121746" lon="32.525126"><ele>78.4</ele><time>2015-04-26T10:52:50.0000000+00:00</time></trkpt><trkpt lat="35.1218134" lon="32.5251415"><ele>78.2</ele><time>2015-04-26T10:52:51.0000000+00:00</time></trkpt><trkpt lat="35.1218832" lon="32.525156"><ele>77.1</ele><time>2015-04-26T10:52:52.0000000+00:00</time></trkpt><trkpt lat="35.1219594" lon="32.5251756"><ele>76.0</ele><time>2015-04-26T10:52:53.0000000+00:00</time></trkpt><trkpt lat="35.1220304" lon="32.5251659"><ele>76.0</ele><time>2015-04-26T10:52:54.0000000+00:00</time></trkpt><trkpt lat="35.1220966" lon="32.5251615"><ele>76.4</ele><time>2015-04-26T10:52:55.0000000+00:00</time></trkpt><trkpt lat="35.1221601" lon="32.5251402"><ele>77.2</ele><time>2015-04-26T10:52:56.0000000+00:00</time></trkpt><trkpt lat="35.1222093" lon="32.5251142"><ele>78.1</ele><time>2015-04-26T10:52:57.0000000+00:00</time></trkpt><trkpt lat="35.1222547" lon="32.5250734"><ele>78.5</ele><time>2015-04-26T10:52:58.0000000+00:00</time></trkpt><trkpt lat="35.1223058" lon="32.5250179"><ele>79.3</ele><time>2015-04-26T10:53:00.0000000+00:00</time></trkpt><trkpt lat="35.1223357" lon="32.5249735"><ele>80.2</ele><time>2015-04-26T10:53:03.0000000+00:00</time></trkpt><trkpt lat="35.1223538" lon="32.524916"><ele>80.5</ele><time>2015-04-26T10:53:06.0000000+00:00</time></trkpt><trkpt lat="35.122371" lon="32.5248593"><ele>80.9</ele><time>2015-04-26T10:53:09.0000000+00:00</time></trkpt><trkpt lat="35.1223979" lon="32.5248061"><ele>83.0</ele><time>2015-04-26T10:53:12.0000000+00:00</time></trkpt><trkpt lat="35.1224319" lon="32.5247605"><ele>83.6</ele><time>2015-04-26T10:53:15.0000000+00:00</time></trkpt><trkpt lat="35.1224666" lon="32.5247188"><ele>84.6</ele><time>2015-04-26T10:53:18.0000000+00:00</time></trkpt><trkpt lat="35.1225046" lon="32.524688"><ele>85.4</ele><time>2015-04-26T10:53:21.0000000+00:00</time></trkpt><trkpt lat="35.12255" lon="32.5246772"><ele>85.7</ele><time>2015-04-26T10:53:24.0000000+00:00</time></trkpt><trkpt lat="35.1225973" lon="32.5246704"><ele>85.9</ele><time>2015-04-26T10:53:27.0000000+00:00</time></trkpt><trkpt lat="35.122645" lon="32.5246684"><ele>85.1</ele><time>2015-04-26T10:53:30.0000000+00:00</time></trkpt><trkpt lat="35.1226932" lon="32.5246725"><ele>84.2</ele><time>2015-04-26T10:53:33.0000000+00:00</time></trkpt><trkpt lat="35.1227496" lon="32.5246807"><ele>84.0</ele><time>2015-04-26T10:53:36.0000000+00:00</time></trkpt><trkpt lat="35.1228169" lon="32.5246963"><ele>84.4</ele><time>2015-04-26T10:53:39.0000000+00:00</time></trkpt><trkpt lat="35.1228757" lon="32.5247091"><ele>84.3</ele><time>2015-04-26T10:53:41.0000000+00:00</time></trkpt><trkpt lat="35.1229334" lon="32.5247261"><ele>83.5</ele><time>2015-04-26T10:53:43.0000000+00:00</time></trkpt><trkpt lat="35.1229872" lon="32.524745"><ele>82.6</ele><time>2015-04-26T10:53:45.0000000+00:00</time></trkpt><trkpt lat="35.1230452" lon="32.5247725"><ele>83.3</ele><time>2015-04-26T10:53:47.0000000+00:00</time></trkpt><trkpt lat="35.1230991" lon="32.5247972"><ele>83.8</ele><time>2015-04-26T10:53:49.0000000+00:00</time></trkpt><trkpt lat="35.1231565" lon="32.5248274"><ele>83.9</ele><time>2015-04-26T10:53:51.0000000+00:00</time></trkpt><trkpt lat="35.1232156" lon="32.5248622"><ele>83.9</ele><time>2015-04-26T10:53:53.0000000+00:00</time></trkpt><trkpt lat="35.1232738" lon="32.5249093"><ele>83.9</ele><time>2015-04-26T10:53:55.0000000+00:00</time></trkpt><trkpt lat="35.1233271" lon="32.5249704"><ele>83.9</ele><time>2015-04-26T10:53:57.0000000+00:00</time></trkpt><trkpt lat="35.1233823" lon="32.5250425"><ele>83.9</ele><time>2015-04-26T10:53:59.0000000+00:00</time></trkpt><trkpt lat="35.1234377" lon="32.5251075"><ele>83.4</ele><time>2015-04-26T10:54:00.0000000+00:00</time></trkpt><trkpt lat="35.1234744" lon="32.5251411"><ele>83.2</ele><time>2015-04-26T10:54:01.0000000+00:00</time></trkpt><trkpt lat="35.1235208" lon="32.525177"><ele>82.6</ele><time>2015-04-26T10:54:02.0000000+00:00</time></trkpt><trkpt lat="35.1236089" lon="32.5252152"><ele>81.6</ele><time>2015-04-26T10:54:04.0000000+00:00</time></trkpt><trkpt lat="35.1236576" lon="32.5252347"><ele>81.3</ele><time>2015-04-26T10:54:05.0000000+00:00</time></trkpt><trkpt lat="35.1237109" lon="32.525252"><ele>81.6</ele><time>2015-04-26T10:54:06.0000000+00:00</time></trkpt><trkpt lat="35.1237608" lon="32.5252656"><ele>81.8</ele><time>2015-04-26T10:54:07.0000000+00:00</time></trkpt><trkpt lat="35.1238148" lon="32.5252787"><ele>81.8</ele><time>2015-04-26T10:54:08.0000000+00:00</time></trkpt><trkpt lat="35.123868" lon="32.5252868"><ele>82.4</ele><time>2015-04-26T10:54:09.0000000+00:00</time></trkpt><trkpt lat="35.1239182" lon="32.5252864"><ele>82.7</ele><time>2015-04-26T10:54:10.0000000+00:00</time></trkpt><trkpt lat="35.1239621" lon="32.5253019"><ele>82.8</ele><time>2015-04-26T10:54:11.0000000+00:00</time></trkpt><trkpt lat="35.1240068" lon="32.5253267"><ele>83.4</ele><time>2015-04-26T10:54:12.0000000+00:00</time></trkpt><trkpt lat="35.1240594" lon="32.5253598"><ele>84.5</ele><time>2015-04-26T10:54:14.0000000+00:00</time></trkpt><trkpt lat="35.1241003" lon="32.5254099"><ele>85.6</ele><time>2015-04-26T10:54:16.0000000+00:00</time></trkpt><trkpt lat="35.1241497" lon="32.5254498"><ele>85.8</ele><time>2015-04-26T10:54:18.0000000+00:00</time></trkpt><trkpt lat="35.1242116" lon="32.5254914"><ele>85.9</ele><time>2015-04-26T10:54:20.0000000+00:00</time></trkpt><trkpt lat="35.1242616" lon="32.5255332"><ele>86.7</ele><time>2015-04-26T10:54:22.0000000+00:00</time></trkpt><trkpt lat="35.1243079" lon="32.5255714"><ele>86.9</ele><time>2015-04-26T10:54:24.0000000+00:00</time></trkpt><trkpt lat="35.1243532" lon="32.5256144"><ele>86.9</ele><time>2015-04-26T10:54:26.0000000+00:00</time></trkpt><trkpt lat="35.1244021" lon="32.525657"><ele>88.2</ele><time>2015-04-26T10:54:28.0000000+00:00</time></trkpt><trkpt lat="35.1244458" lon="32.5256962"><ele>88.7</ele><time>2015-04-26T10:54:30.0000000+00:00</time></trkpt><trkpt lat="35.1244872" lon="32.5257325"><ele>89.6</ele><time>2015-04-26T10:54:32.0000000+00:00</time></trkpt><trkpt lat="35.1245316" lon="32.5257652"><ele>89.9</ele><time>2015-04-26T10:54:34.0000000+00:00</time></trkpt><trkpt lat="35.1245804" lon="32.5257971"><ele>90.7</ele><time>2015-04-26T10:54:36.0000000+00:00</time></trkpt><trkpt lat="35.1246293" lon="32.525835"><ele>91.6</ele><time>2015-04-26T10:54:38.0000000+00:00</time></trkpt><trkpt lat="35.1246779" lon="32.5258822"><ele>91.6</ele><time>2015-04-26T10:54:40.0000000+00:00</time></trkpt><trkpt lat="35.1247268" lon="32.52592"><ele>91.8</ele><time>2015-04-26T10:54:42.0000000+00:00</time></trkpt><trkpt lat="35.1247657" lon="32.525951"><ele>91.9</ele><time>2015-04-26T10:54:44.0000000+00:00</time></trkpt><trkpt lat="35.1248112" lon="32.525981"><ele>92.8</ele><time>2015-04-26T10:54:47.0000000+00:00</time></trkpt><trkpt lat="35.1248608" lon="32.5260042"><ele>92.2</ele><time>2015-04-26T10:54:50.0000000+00:00</time></trkpt><trkpt lat="35.1249028" lon="32.5260285"><ele>91.1</ele><time>2015-04-26T10:54:53.0000000+00:00</time></trkpt><trkpt lat="35.1249394" lon="32.5260639"><ele>91.8</ele><time>2015-04-26T10:54:56.0000000+00:00</time></trkpt><trkpt lat="35.12498" lon="32.5260974"><ele>91.4</ele><time>2015-04-26T10:54:59.0000000+00:00</time></trkpt><trkpt lat="35.1250235" lon="32.5261384"><ele>91.7</ele><time>2015-04-26T10:55:02.0000000+00:00</time></trkpt><trkpt lat="35.125058" lon="32.5261798"><ele>94.3</ele><time>2015-04-26T10:55:05.0000000+00:00</time></trkpt><trkpt lat="35.1250827" lon="32.5262271"><ele>94.8</ele><time>2015-04-26T10:55:08.0000000+00:00</time></trkpt><trkpt lat="35.1251151" lon="32.5262833"><ele>95.2</ele><time>2015-04-26T10:55:11.0000000+00:00</time></trkpt><trkpt lat="35.125144" lon="32.5263518"><ele>95.8</ele><time>2015-04-26T10:55:14.0000000+00:00</time></trkpt><trkpt lat="35.1251488" lon="32.5264066"><ele>95.9</ele><time>2015-04-26T10:55:16.0000000+00:00</time></trkpt><trkpt lat="35.1251454" lon="32.5264693"><ele>96.7</ele><time>2015-04-26T10:55:18.0000000+00:00</time></trkpt><trkpt lat="35.1251421" lon="32.5265504"><ele>96.9</ele><time>2015-04-26T10:55:20.0000000+00:00</time></trkpt><trkpt lat="35.125146" lon="32.5266384"><ele>97.2</ele><time>2015-04-26T10:55:22.0000000+00:00</time></trkpt><trkpt lat="35.125154" lon="32.5267255"><ele>96.7</ele><time>2015-04-26T10:55:24.0000000+00:00</time></trkpt><trkpt lat="35.1251644" lon="32.5268094"><ele>96.1</ele><time>2015-04-26T10:55:26.0000000+00:00</time></trkpt><trkpt lat="35.1252049" lon="32.5268788"><ele>96.0</ele><time>2015-04-26T10:55:28.0000000+00:00</time></trkpt><trkpt lat="35.125275" lon="32.5268862"><ele>97.7</ele><time>2015-04-26T10:55:30.0000000+00:00</time></trkpt><trkpt lat="35.1253364" lon="32.52683"><ele>99.4</ele><time>2015-04-26T10:55:32.0000000+00:00</time></trkpt><trkpt lat="35.1253894" lon="32.5267718"><ele>99.5</ele><time>2015-04-26T10:55:34.0000000+00:00</time></trkpt><trkpt lat="35.1254441" lon="32.526746"><ele>99.1</ele><time>2015-04-26T10:55:36.0000000+00:00</time></trkpt><trkpt lat="35.1254958" lon="32.5267533"><ele>97.7</ele><time>2015-04-26T10:55:38.0000000+00:00</time></trkpt><trkpt lat="35.1255447" lon="32.5267751"><ele>98.4</ele><time>2015-04-26T10:55:40.0000000+00:00</time></trkpt><trkpt lat="35.1255898" lon="32.5268055"><ele>98.3</ele><time>2015-04-26T10:55:42.0000000+00:00</time></trkpt><trkpt lat="35.1256323" lon="32.526859"><ele>98.0</ele><time>2015-04-26T10:55:45.0000000+00:00</time></trkpt><trkpt lat="35.1256561" lon="32.5269058"><ele>97.9</ele><time>2015-04-26T10:55:47.0000000+00:00</time></trkpt><trkpt lat="35.1256865" lon="32.5269659"><ele>97.2</ele><time>2015-04-26T10:55:49.0000000+00:00</time></trkpt><trkpt lat="35.1257243" lon="32.5270444"><ele>96.5</ele><time>2015-04-26T10:55:51.0000000+00:00</time></trkpt><trkpt lat="35.1257599" lon="32.5271331"><ele>95.6</ele><time>2015-04-26T10:55:53.0000000+00:00</time></trkpt><trkpt lat="35.1257802" lon="32.5272239"><ele>93.8</ele><time>2015-04-26T10:55:55.0000000+00:00</time></trkpt><trkpt lat="35.1258178" lon="32.527304"><ele>91.4</ele><time>2015-04-26T10:55:57.0000000+00:00</time></trkpt><trkpt lat="35.1258748" lon="32.5273322"><ele>90.2</ele><time>2015-04-26T10:55:58.0000000+00:00</time></trkpt><trkpt lat="35.1259337" lon="32.527371"><ele>89.5</ele><time>2015-04-26T10:55:59.0000000+00:00</time></trkpt><trkpt lat="35.1260047" lon="32.5274051"><ele>88.7</ele><time>2015-04-26T10:56:00.0000000+00:00</time></trkpt><trkpt lat="35.1260803" lon="32.5274348"><ele>88.3</ele><time>2015-04-26T10:56:01.0000000+00:00</time></trkpt><trkpt lat="35.1261531" lon="32.527444"><ele>88.1</ele><time>2015-04-26T10:56:02.0000000+00:00</time></trkpt><trkpt lat="35.1262038" lon="32.527437"><ele>87.5</ele><time>2015-04-26T10:56:03.0000000+00:00</time></trkpt><trkpt lat="35.1262586" lon="32.5273771"><ele>87.3</ele><time>2015-04-26T10:56:05.0000000+00:00</time></trkpt><trkpt lat="35.1262924" lon="32.5272894"><ele>87.0</ele><time>2015-04-26T10:56:07.0000000+00:00</time></trkpt><trkpt lat="35.1263063" lon="32.5272023"><ele>86.2</ele><time>2015-04-26T10:56:09.0000000+00:00</time></trkpt><trkpt lat="35.126297" lon="32.5271368"><ele>86.7</ele><time>2015-04-26T10:56:11.0000000+00:00</time></trkpt><trkpt lat="35.126296" lon="32.5270741"><ele>88.0</ele><time>2015-04-26T10:56:14.0000000+00:00</time></trkpt><trkpt lat="35.1262972" lon="32.5270077"><ele>89.3</ele><time>2015-04-26T10:56:17.0000000+00:00</time></trkpt><trkpt lat="35.1263045" lon="32.5269439"><ele>90.2</ele><time>2015-04-26T10:56:20.0000000+00:00</time></trkpt><trkpt lat="35.1263274" lon="32.5268822"><ele>90.3</ele><time>2015-04-26T10:56:23.0000000+00:00</time></trkpt><trkpt lat="35.1263661" lon="32.526829"><ele>93.0</ele><time>2015-04-26T10:56:26.0000000+00:00</time></trkpt><trkpt lat="35.1264133" lon="32.5267887"><ele>94.7</ele><time>2015-04-26T10:56:29.0000000+00:00</time></trkpt><trkpt lat="35.1264689" lon="32.5267688"><ele>95.5</ele><time>2015-04-26T10:56:32.0000000+00:00</time></trkpt><trkpt lat="35.1265245" lon="32.5267641"><ele>96.6</ele><time>2015-04-26T10:56:35.0000000+00:00</time></trkpt><trkpt lat="35.1265763" lon="32.526774"><ele>97.6</ele><time>2015-04-26T10:56:38.0000000+00:00</time></trkpt><trkpt lat="35.1266269" lon="32.5267777"><ele>98.4</ele><time>2015-04-26T10:56:41.0000000+00:00</time></trkpt><trkpt lat="35.1266757" lon="32.5267913"><ele>98.9</ele><time>2015-04-26T10:56:44.0000000+00:00</time></trkpt><trkpt lat="35.1267167" lon="32.5268176"><ele>99.7</ele><time>2015-04-26T10:56:47.0000000+00:00</time></trkpt><trkpt lat="35.1267743" lon="32.5268483"><ele>99.9</ele><time>2015-04-26T10:56:51.0000000+00:00</time></trkpt><trkpt lat="35.1268282" lon="32.52689"><ele>99.3</ele><time>2015-04-26T10:56:54.0000000+00:00</time></trkpt><trkpt lat="35.1268663" lon="32.5269274"><ele>98.5</ele><time>2015-04-26T10:56:56.0000000+00:00</time></trkpt><trkpt lat="35.1269104" lon="32.5269749"><ele>97.6</ele><time>2015-04-26T10:56:58.0000000+00:00</time></trkpt><trkpt lat="35.126955" lon="32.527018"><ele>96.3</ele><time>2015-04-26T10:57:00.0000000+00:00</time></trkpt><trkpt lat="35.1269896" lon="32.5270599"><ele>95.5</ele><time>2015-04-26T10:57:02.0000000+00:00</time></trkpt><trkpt lat="35.1270055" lon="32.5271218"><ele>92.2</ele><time>2015-04-26T10:57:23.0000000+00:00</time></trkpt><trkpt lat="35.1270792" lon="32.5272518"><ele>90.7</ele><time>2015-04-26T10:57:25.0000000+00:00</time></trkpt><trkpt lat="35.1271203" lon="32.5272999"><ele>89.8</ele><time>2015-04-26T10:57:26.0000000+00:00</time></trkpt><trkpt lat="35.1271768" lon="32.5273516"><ele>89.4</ele><time>2015-04-26T10:57:27.0000000+00:00</time></trkpt><trkpt lat="35.1272389" lon="32.5274046"><ele>88.7</ele><time>2015-04-26T10:57:28.0000000+00:00</time></trkpt><trkpt lat="35.1273111" lon="32.527459"><ele>87.8</ele><time>2015-04-26T10:57:29.0000000+00:00</time></trkpt><trkpt lat="35.1273861" lon="32.5275134"><ele>86.9</ele><time>2015-04-26T10:57:30.0000000+00:00</time></trkpt><trkpt lat="35.1274787" lon="32.527529"><ele>87.4</ele><time>2015-04-26T10:57:31.0000000+00:00</time></trkpt><trkpt lat="35.1275532" lon="32.5275409"><ele>87.7</ele><time>2015-04-26T10:57:32.0000000+00:00</time></trkpt><trkpt lat="35.1276295" lon="32.5275482"><ele>87.8</ele><time>2015-04-26T10:57:33.0000000+00:00</time></trkpt><trkpt lat="35.1277033" lon="32.5275635"><ele>87.9</ele><time>2015-04-26T10:57:34.0000000+00:00</time></trkpt><trkpt lat="35.1277719" lon="32.5275759"><ele>88.4</ele><time>2015-04-26T10:57:35.0000000+00:00</time></trkpt><trkpt lat="35.127841" lon="32.527578"><ele>88.7</ele><time>2015-04-26T10:57:36.0000000+00:00</time></trkpt><trkpt lat="35.1279016" lon="32.5275668"><ele>88.8</ele><time>2015-04-26T10:57:37.0000000+00:00</time></trkpt><trkpt lat="35.1279373" lon="32.5275172"><ele>88.9</ele><time>2015-04-26T10:57:38.0000000+00:00</time></trkpt><trkpt lat="35.1279613" lon="32.5274702"><ele>88.4</ele><time>2015-04-26T10:57:39.0000000+00:00</time></trkpt><trkpt lat="35.1279751" lon="32.5274045"><ele>89.5</ele><time>2015-04-26T10:57:41.0000000+00:00</time></trkpt><trkpt lat="35.1280018" lon="32.5273349"><ele>90.8</ele><time>2015-04-26T10:57:44.0000000+00:00</time></trkpt><trkpt lat="35.1280308" lon="32.527285"><ele>92.4</ele><time>2015-04-26T10:57:46.0000000+00:00</time></trkpt><trkpt lat="35.128076" lon="32.5272607"><ele>92.8</ele><time>2015-04-26T10:57:48.0000000+00:00</time></trkpt><trkpt lat="35.1281309" lon="32.5272296"><ele>92.9</ele><time>2015-04-26T10:57:51.0000000+00:00</time></trkpt><trkpt lat="35.1281889" lon="32.5272173"><ele>92.9</ele><time>2015-04-26T10:57:54.0000000+00:00</time></trkpt><trkpt lat="35.1282458" lon="32.527214"><ele>92.9</ele><time>2015-04-26T10:57:57.0000000+00:00</time></trkpt><trkpt lat="35.1283018" lon="32.5271928"><ele>93.1</ele><time>2015-04-26T10:58:00.0000000+00:00</time></trkpt><trkpt lat="35.1282562" lon="32.5272342"><ele>92.8</ele><time>2015-04-26T10:58:07.0000000+00:00</time></trkpt><trkpt lat="35.1282047" lon="32.5272336"><ele>93.1</ele><time>2015-04-26T10:58:09.0000000+00:00</time></trkpt><trkpt lat="35.1281532" lon="32.5272366"><ele>92.5</ele><time>2015-04-26T10:58:11.0000000+00:00</time></trkpt><trkpt lat="35.1281073" lon="32.5272455"><ele>92.1</ele><time>2015-04-26T10:58:13.0000000+00:00</time></trkpt><trkpt lat="35.1280701" lon="32.5272988"><ele>92.6</ele><time>2015-04-26T10:58:16.0000000+00:00</time></trkpt><trkpt lat="35.1280745" lon="32.5273788"><ele>95.1</ele><time>2015-04-26T10:58:19.0000000+00:00</time></trkpt><trkpt lat="35.1281036" lon="32.5274443"><ele>96.1</ele><time>2015-04-26T10:58:22.0000000+00:00</time></trkpt><trkpt lat="35.1281265" lon="32.5275016"><ele>96.8</ele><time>2015-04-26T10:58:25.0000000+00:00</time></trkpt><trkpt lat="35.1281559" lon="32.5275552"><ele>96.9</ele><time>2015-04-26T10:58:28.0000000+00:00</time></trkpt><trkpt lat="35.1281879" lon="32.5276018"><ele>95.3</ele><time>2015-04-26T10:58:31.0000000+00:00</time></trkpt><trkpt lat="35.1282198" lon="32.5276475"><ele>95.0</ele><time>2015-04-26T10:58:34.0000000+00:00</time></trkpt><trkpt lat="35.1282563" lon="32.5276831"><ele>94.9</ele><time>2015-04-26T10:58:37.0000000+00:00</time></trkpt><trkpt lat="35.1283005" lon="32.5277197"><ele>97.1</ele><time>2015-04-26T10:58:41.0000000+00:00</time></trkpt><trkpt lat="35.1283454" lon="32.5277554"><ele>96.9</ele><time>2015-04-26T10:58:45.0000000+00:00</time></trkpt><trkpt lat="35.1283821" lon="32.5277992"><ele>96.9</ele><time>2015-04-26T10:58:49.0000000+00:00</time></trkpt><trkpt lat="35.1284111" lon="32.5278457"><ele>97.1</ele><time>2015-04-26T10:58:53.0000000+00:00</time></trkpt><trkpt lat="35.1284063" lon="32.5279089"><ele>100.5</ele><time>2015-04-26T10:59:05.0000000+00:00</time></trkpt><trkpt lat="35.128422" lon="32.5279656"><ele>101.9</ele><time>2015-04-26T10:59:10.0000000+00:00</time></trkpt><trkpt lat="35.1284427" lon="32.5280254"><ele>104.2</ele><time>2015-04-26T10:59:16.0000000+00:00</time></trkpt><trkpt lat="35.1284486" lon="32.5280831"><ele>104.9</ele><time>2015-04-26T10:59:22.0000000+00:00</time></trkpt><trkpt lat="35.1284657" lon="32.5281369"><ele>108.6</ele><time>2015-04-26T10:59:29.0000000+00:00</time></trkpt><trkpt lat="35.1285042" lon="32.5281786"><ele>107.5</ele><time>2015-04-26T10:59:42.0000000+00:00</time></trkpt><trkpt lat="35.1285496" lon="32.5281809"><ele>106.9</ele><time>2015-04-26T10:59:47.0000000+00:00</time></trkpt><trkpt lat="35.1286043" lon="32.5281711"><ele>104.3</ele><time>2015-04-26T11:00:07.0000000+00:00</time></trkpt><trkpt lat="35.1286606" lon="32.5281683"><ele>104.0</ele><time>2015-04-26T11:00:11.0000000+00:00</time></trkpt><trkpt lat="35.1287089" lon="32.528165"><ele>103.9</ele><time>2015-04-26T11:00:14.0000000+00:00</time></trkpt><trkpt lat="35.1287678" lon="32.5281572"><ele>105.6</ele><time>2015-04-26T11:00:18.0000000+00:00</time></trkpt><trkpt lat="35.1288146" lon="32.5281632"><ele>105.9</ele><time>2015-04-26T11:00:21.0000000+00:00</time></trkpt><trkpt lat="35.1288663" lon="32.5281755"><ele>106.0</ele><time>2015-04-26T11:00:24.0000000+00:00</time></trkpt><trkpt lat="35.1289206" lon="32.5281959"><ele>104.7</ele><time>2015-04-26T11:00:26.0000000+00:00</time></trkpt><trkpt lat="35.1289735" lon="32.5282154"><ele>103.6</ele><time>2015-04-26T11:00:28.0000000+00:00</time></trkpt><trkpt lat="35.1290182" lon="32.5282367"><ele>102.6</ele><time>2015-04-26T11:00:30.0000000+00:00</time></trkpt><trkpt lat="35.1290769" lon="32.5282746"><ele>103.0</ele><time>2015-04-26T11:00:33.0000000+00:00</time></trkpt><trkpt lat="35.1291311" lon="32.5283083"><ele>102.2</ele><time>2015-04-26T11:00:36.0000000+00:00</time></trkpt><trkpt lat="35.1291727" lon="32.5283341"><ele>103.2</ele><time>2015-04-26T11:00:38.0000000+00:00</time></trkpt><trkpt lat="35.1292216" lon="32.528365"><ele>104.5</ele><time>2015-04-26T11:00:40.0000000+00:00</time></trkpt><trkpt lat="35.1292735" lon="32.5284"><ele>104.8</ele><time>2015-04-26T11:00:42.0000000+00:00</time></trkpt><trkpt lat="35.1293261" lon="32.5284368"><ele>104.9</ele><time>2015-04-26T11:00:44.0000000+00:00</time></trkpt><trkpt lat="35.1293773" lon="32.5284729"><ele>104.9</ele><time>2015-04-26T11:00:46.0000000+00:00</time></trkpt><trkpt lat="35.1294264" lon="32.5285125"><ele>105.4</ele><time>2015-04-26T11:00:48.0000000+00:00</time></trkpt><trkpt lat="35.1294721" lon="32.5285579"><ele>105.3</ele><time>2015-04-26T11:00:50.0000000+00:00</time></trkpt><trkpt lat="35.1295105" lon="32.528605"><ele>105.5</ele><time>2015-04-26T11:00:52.0000000+00:00</time></trkpt><trkpt lat="35.1295412" lon="32.5286456"><ele>105.6</ele><time>2015-04-26T11:00:54.0000000+00:00</time></trkpt><trkpt lat="35.129574" lon="32.528686"><ele>105.4</ele><time>2015-04-26T11:00:57.0000000+00:00</time></trkpt><trkpt lat="35.1296168" lon="32.5287283"><ele>105.9</ele><time>2015-04-26T11:01:01.0000000+00:00</time></trkpt><trkpt lat="35.1296759" lon="32.5287758"><ele>105.9</ele><time>2015-04-26T11:01:04.0000000+00:00</time></trkpt><trkpt lat="35.1297298" lon="32.5288159"><ele>105.9</ele><time>2015-04-26T11:01:06.0000000+00:00</time></trkpt><trkpt lat="35.1297861" lon="32.5288601"><ele>106.4</ele><time>2015-04-26T11:01:08.0000000+00:00</time></trkpt><trkpt lat="35.1298412" lon="32.5289089"><ele>106.8</ele><time>2015-04-26T11:01:10.0000000+00:00</time></trkpt><trkpt lat="35.1298923" lon="32.5289631"><ele>106.9</ele><time>2015-04-26T11:01:12.0000000+00:00</time></trkpt><trkpt lat="35.1299328" lon="32.5290215"><ele>106.2</ele><time>2015-04-26T11:01:14.0000000+00:00</time></trkpt><trkpt lat="35.1299457" lon="32.529075"><ele>106.0</ele><time>2015-04-26T11:01:16.0000000+00:00</time></trkpt><trkpt lat="35.1299375" lon="32.5291305"><ele>107.6</ele><time>2015-04-26T11:01:19.0000000+00:00</time></trkpt><trkpt lat="35.129908" lon="32.5291733"><ele>108.4</ele><time>2015-04-26T11:01:22.0000000+00:00</time></trkpt><trkpt lat="35.1298708" lon="32.5292269"><ele>108.0</ele><time>2015-04-26T11:01:26.0000000+00:00</time></trkpt><trkpt lat="35.1298586" lon="32.5292907"><ele>108.7</ele><time>2015-04-26T11:01:30.0000000+00:00</time></trkpt><trkpt lat="35.1298836" lon="32.5293474"><ele>108.5</ele><time>2015-04-26T11:01:34.0000000+00:00</time></trkpt><trkpt lat="35.1299275" lon="32.5293723"><ele>108.7</ele><time>2015-04-26T11:01:48.0000000+00:00</time></trkpt><trkpt lat="35.129964" lon="32.5294058"><ele>107.5</ele><time>2015-04-26T11:01:57.0000000+00:00</time></trkpt><trkpt lat="35.1300104" lon="32.5294228"><ele>108.9</ele><time>2015-04-26T11:02:07.0000000+00:00</time></trkpt><trkpt lat="35.1300576" lon="32.5294361"><ele>108.4</ele><time>2015-04-26T11:02:14.0000000+00:00</time></trkpt><trkpt lat="35.130107" lon="32.5294524"><ele>108.2</ele><time>2015-04-26T11:02:20.0000000+00:00</time></trkpt><trkpt lat="35.1301504" lon="32.529467"><ele>108.0</ele><time>2015-04-26T11:02:25.0000000+00:00</time></trkpt><trkpt lat="35.1301936" lon="32.5294961"><ele>107.9</ele><time>2015-04-26T11:02:31.0000000+00:00</time></trkpt><trkpt lat="35.1302404" lon="32.5295069"><ele>108.6</ele><time>2015-04-26T11:02:38.0000000+00:00</time></trkpt><trkpt lat="35.1302737" lon="32.5295472"><ele>107.0</ele><time>2015-04-26T11:02:42.0000000+00:00</time></trkpt><trkpt lat="35.1303259" lon="32.5295951"><ele>105.0</ele><time>2015-04-26T11:02:46.0000000+00:00</time></trkpt><trkpt lat="35.130377" lon="32.5296214"><ele>104.2</ele><time>2015-04-26T11:02:48.0000000+00:00</time></trkpt><trkpt lat="35.1304273" lon="32.5296388"><ele>104.5</ele><time>2015-04-26T11:02:50.0000000+00:00</time></trkpt><trkpt lat="35.1304713" lon="32.5296525"><ele>105.3</ele><time>2015-04-26T11:02:52.0000000+00:00</time></trkpt><trkpt lat="35.1305305" lon="32.5296662"><ele>107.1</ele><time>2015-04-26T11:02:55.0000000+00:00</time></trkpt><trkpt lat="35.1305798" lon="32.5296841"><ele>108.3</ele><time>2015-04-26T11:02:58.0000000+00:00</time></trkpt><trkpt lat="35.1306327" lon="32.5297171"><ele>110.1</ele><time>2015-04-26T11:03:02.0000000+00:00</time></trkpt><trkpt lat="35.1306678" lon="32.5297706"><ele>109.2</ele><time>2015-04-26T11:03:05.0000000+00:00</time></trkpt><trkpt lat="35.1307061" lon="32.5298383"><ele>110.2</ele><time>2015-04-26T11:03:08.0000000+00:00</time></trkpt><trkpt lat="35.1307317" lon="32.5298902"><ele>110.8</ele><time>2015-04-26T11:03:10.0000000+00:00</time></trkpt><trkpt lat="35.1307607" lon="32.5299687"><ele>110.4</ele><time>2015-04-26T11:03:12.0000000+00:00</time></trkpt><trkpt lat="35.1307901" lon="32.5300597"><ele>109.5</ele><time>2015-04-26T11:03:14.0000000+00:00</time></trkpt><trkpt lat="35.1308245" lon="32.5301482"><ele>107.6</ele><time>2015-04-26T11:03:16.0000000+00:00</time></trkpt><trkpt lat="35.1309296" lon="32.5301903"><ele>107.6</ele><time>2015-04-26T11:03:18.0000000+00:00</time></trkpt><trkpt lat="35.1309731" lon="32.5301722"><ele>108.8</ele><time>2015-04-26T11:03:19.0000000+00:00</time></trkpt><trkpt lat="35.1310416" lon="32.5301509"><ele>109.6</ele><time>2015-04-26T11:03:21.0000000+00:00</time></trkpt><trkpt lat="35.1310868" lon="32.5301495"><ele>110.4</ele><time>2015-04-26T11:03:23.0000000+00:00</time></trkpt><trkpt lat="35.1311471" lon="32.5301657"><ele>113.6</ele><time>2015-04-26T11:03:59.0000000+00:00</time></trkpt><trkpt lat="35.1311906" lon="32.5301872"><ele>114.1</ele><time>2015-04-26T11:04:01.0000000+00:00</time></trkpt><trkpt lat="35.1312505" lon="32.5302258"><ele>113.0</ele><time>2015-04-26T11:04:03.0000000+00:00</time></trkpt><trkpt lat="35.1313387" lon="32.530255"><ele>112.4</ele><time>2015-04-26T11:04:05.0000000+00:00</time></trkpt><trkpt lat="35.1313852" lon="32.5302502"><ele>112.7</ele><time>2015-04-26T11:04:06.0000000+00:00</time></trkpt><trkpt lat="35.1314272" lon="32.530228"><ele>113.3</ele><time>2015-04-26T11:04:07.0000000+00:00</time></trkpt><trkpt lat="35.1314802" lon="32.5301498"><ele>114.3</ele><time>2015-04-26T11:04:09.0000000+00:00</time></trkpt><trkpt lat="35.1314918" lon="32.5300589"><ele>114.8</ele><time>2015-04-26T11:04:11.0000000+00:00</time></trkpt><trkpt lat="35.1314904" lon="32.5299824"><ele>115.6</ele><time>2015-04-26T11:04:13.0000000+00:00</time></trkpt><trkpt lat="35.1314879" lon="32.5299267"><ele>115.9</ele><time>2015-04-26T11:04:15.0000000+00:00</time></trkpt><trkpt lat="35.1315021" lon="32.529853"><ele>116.2</ele><time>2015-04-26T11:04:18.0000000+00:00</time></trkpt><trkpt lat="35.1315275" lon="32.529795"><ele>115.1</ele><time>2015-04-26T11:04:21.0000000+00:00</time></trkpt><trkpt lat="35.1315662" lon="32.5297513"><ele>113.7</ele><time>2015-04-26T11:04:24.0000000+00:00</time></trkpt><trkpt lat="35.1316122" lon="32.5297145"><ele>113.9</ele><time>2015-04-26T11:04:27.0000000+00:00</time></trkpt><trkpt lat="35.1316648" lon="32.5296939"><ele>114.8</ele><time>2015-04-26T11:04:30.0000000+00:00</time></trkpt><trkpt lat="35.1317201" lon="32.5296729"><ele>114.9</ele><time>2015-04-26T11:04:33.0000000+00:00</time></trkpt><trkpt lat="35.1317752" lon="32.5296613"><ele>114.1</ele><time>2015-04-26T11:04:36.0000000+00:00</time></trkpt><trkpt lat="35.1318297" lon="32.5296446"><ele>111.9</ele><time>2015-04-26T11:04:39.0000000+00:00</time></trkpt><trkpt lat="35.131889" lon="32.5296145"><ele>111.4</ele><time>2015-04-26T11:04:42.0000000+00:00</time></trkpt><trkpt lat="35.1319544" lon="32.5295966"><ele>111.4</ele><time>2015-04-26T11:04:45.0000000+00:00</time></trkpt><trkpt lat="35.1320053" lon="32.5295956"><ele>110.8</ele><time>2015-04-26T11:04:47.0000000+00:00</time></trkpt><trkpt lat="35.1320711" lon="32.5296113"><ele>110.6</ele><time>2015-04-26T11:04:49.0000000+00:00</time></trkpt><trkpt lat="35.1321363" lon="32.5296366"><ele>112.1</ele><time>2015-04-26T11:04:51.0000000+00:00</time></trkpt><trkpt lat="35.1321922" lon="32.5296646"><ele>114.2</ele><time>2015-04-26T11:04:53.0000000+00:00</time></trkpt><trkpt lat="35.1322416" lon="32.5296898"><ele>115.5</ele><time>2015-04-26T11:04:55.0000000+00:00</time></trkpt><trkpt lat="35.132291" lon="32.529703"><ele>115.8</ele><time>2015-04-26T11:04:57.0000000+00:00</time></trkpt><trkpt lat="35.1323402" lon="32.5297038"><ele>116.7</ele><time>2015-04-26T11:04:59.0000000+00:00</time></trkpt><trkpt lat="35.1323855" lon="32.529689"><ele>117.4</ele><time>2015-04-26T11:05:01.0000000+00:00</time></trkpt><trkpt lat="35.132414" lon="32.529643"><ele>118.3</ele><time>2015-04-26T11:05:03.0000000+00:00</time></trkpt><trkpt lat="35.1324292" lon="32.5295876"><ele>118.5</ele><time>2015-04-26T11:05:05.0000000+00:00</time></trkpt><trkpt lat="35.1324389" lon="32.5295273"><ele>118.4</ele><time>2015-04-26T11:05:08.0000000+00:00</time></trkpt><trkpt lat="35.1324288" lon="32.529471"><ele>118.0</ele><time>2015-04-26T11:05:12.0000000+00:00</time></trkpt><trkpt lat="35.1324132" lon="32.5294092"><ele>118.7</ele><time>2015-04-26T11:05:16.0000000+00:00</time></trkpt><trkpt lat="35.1324071" lon="32.529341"><ele>120.2</ele><time>2015-04-26T11:05:20.0000000+00:00</time></trkpt><trkpt lat="35.1324034" lon="32.52928"><ele>120.3</ele><time>2015-04-26T11:05:23.0000000+00:00</time></trkpt><trkpt lat="35.1324064" lon="32.5292081"><ele>120.4</ele><time>2015-04-26T11:05:26.0000000+00:00</time></trkpt><trkpt lat="35.132409" lon="32.5291332"><ele>120.5</ele><time>2015-04-26T11:05:29.0000000+00:00</time></trkpt><trkpt lat="35.1324222" lon="32.5290613"><ele>121.0</ele><time>2015-04-26T11:05:32.0000000+00:00</time></trkpt><trkpt lat="35.1324367" lon="32.5289936"><ele>121.1</ele><time>2015-04-26T11:05:35.0000000+00:00</time></trkpt><trkpt lat="35.1324504" lon="32.5289402"><ele>121.0</ele><time>2015-04-26T11:05:37.0000000+00:00</time></trkpt><trkpt lat="35.132472" lon="32.5288477"><ele>121.7</ele><time>2015-04-26T11:05:39.0000000+00:00</time></trkpt><trkpt lat="35.1324901" lon="32.5287451"><ele>121.3</ele><time>2015-04-26T11:05:40.0000000+00:00</time></trkpt><trkpt lat="35.132499" lon="32.5286542"><ele>121.0</ele><time>2015-04-26T11:05:42.0000000+00:00</time></trkpt><trkpt lat="35.1325177" lon="32.5285635"><ele>120.2</ele><time>2015-04-26T11:05:44.0000000+00:00</time></trkpt><trkpt lat="35.1325394" lon="32.5284761"><ele>120.7</ele><time>2015-04-26T11:05:46.0000000+00:00</time></trkpt><trkpt lat="35.1325968" lon="32.5284079"><ele>119.6</ele><time>2015-04-26T11:05:48.0000000+00:00</time></trkpt><trkpt lat="35.1326433" lon="32.5283348"><ele>118.6</ele><time>2015-04-26T11:05:50.0000000+00:00</time></trkpt><trkpt lat="35.1326988" lon="32.5282715"><ele>117.6</ele><time>2015-04-26T11:05:52.0000000+00:00</time></trkpt><trkpt lat="35.1327624" lon="32.5282126"><ele>116.3</ele><time>2015-04-26T11:05:54.0000000+00:00</time></trkpt><trkpt lat="35.1328396" lon="32.5281676"><ele>115.3</ele><time>2015-04-26T11:05:56.0000000+00:00</time></trkpt><trkpt lat="35.1329213" lon="32.5281343"><ele>114.5</ele><time>2015-04-26T11:05:58.0000000+00:00</time></trkpt><trkpt lat="35.133002" lon="32.5281044"><ele>114.1</ele><time>2015-04-26T11:06:00.0000000+00:00</time></trkpt><trkpt lat="35.1330808" lon="32.528082"><ele>114.0</ele><time>2015-04-26T11:06:02.0000000+00:00</time></trkpt><trkpt lat="35.1331577" lon="32.5280799"><ele>113.2</ele><time>2015-04-26T11:06:04.0000000+00:00</time></trkpt><trkpt lat="35.1332574" lon="32.5281208"><ele>111.7</ele><time>2015-04-26T11:06:06.0000000+00:00</time></trkpt><trkpt lat="35.1333185" lon="32.5281071"><ele>111.3</ele><time>2015-04-26T11:06:07.0000000+00:00</time></trkpt><trkpt lat="35.133378" lon="32.5280729"><ele>112.1</ele><time>2015-04-26T11:06:08.0000000+00:00</time></trkpt><trkpt lat="35.1334223" lon="32.5280352"><ele>112.5</ele><time>2015-04-26T11:06:09.0000000+00:00</time></trkpt><trkpt lat="35.1334652" lon="32.5279712"><ele>114.1</ele><time>2015-04-26T11:06:11.0000000+00:00</time></trkpt><trkpt lat="35.1335044" lon="32.527924"><ele>116.2</ele><time>2015-04-26T11:06:15.0000000+00:00</time></trkpt><trkpt lat="35.1335553" lon="32.5279063"><ele>114.7</ele><time>2015-04-26T11:06:17.0000000+00:00</time></trkpt><trkpt lat="35.1336011" lon="32.5278816"><ele>113.4</ele><time>2015-04-26T11:06:19.0000000+00:00</time></trkpt><trkpt lat="35.133653" lon="32.5278598"><ele>113.8</ele><time>2015-04-26T11:06:21.0000000+00:00</time></trkpt><trkpt lat="35.1337035" lon="32.5278446"><ele>114.1</ele><time>2015-04-26T11:06:23.0000000+00:00</time></trkpt><trkpt lat="35.1337514" lon="32.527838"><ele>113.5</ele><time>2015-04-26T11:06:25.0000000+00:00</time></trkpt><trkpt lat="35.1338141" lon="32.5278486"><ele>113.4</ele><time>2015-04-26T11:06:28.0000000+00:00</time></trkpt><trkpt lat="35.1338625" lon="32.5278758"><ele>112.2</ele><time>2015-04-26T11:06:31.0000000+00:00</time></trkpt><trkpt lat="35.133904" lon="32.5279072"><ele>111.5</ele><time>2015-04-26T11:06:33.0000000+00:00</time></trkpt><trkpt lat="35.1340345" lon="32.5279194"><ele>111.6</ele><time>2015-04-26T11:06:35.0000000+00:00</time></trkpt><trkpt lat="35.134077" lon="32.5278899"><ele>111.3</ele><time>2015-04-26T11:06:36.0000000+00:00</time></trkpt><trkpt lat="35.1341356" lon="32.5278403"><ele>111.0</ele><time>2015-04-26T11:06:38.0000000+00:00</time></trkpt><trkpt lat="35.1341972" lon="32.5277877"><ele>111.5</ele><time>2015-04-26T11:06:40.0000000+00:00</time></trkpt><trkpt lat="35.1342462" lon="32.5277643"><ele>112.6</ele><time>2015-04-26T11:06:42.0000000+00:00</time></trkpt><trkpt lat="35.1342995" lon="32.5277684"><ele>113.8</ele><time>2015-04-26T11:06:44.0000000+00:00</time></trkpt><trkpt lat="35.1343584" lon="32.5277896"><ele>113.4</ele><time>2015-04-26T11:06:46.0000000+00:00</time></trkpt><trkpt lat="35.1344133" lon="32.5278244"><ele>111.8</ele><time>2015-04-26T11:06:48.0000000+00:00</time></trkpt><trkpt lat="35.1344545" lon="32.5278718"><ele>111.9</ele><time>2015-04-26T11:06:50.0000000+00:00</time></trkpt><trkpt lat="35.1344905" lon="32.5279325"><ele>110.9</ele><time>2015-04-26T11:06:52.0000000+00:00</time></trkpt><trkpt lat="35.134526" lon="32.5279896"><ele>109.7</ele><time>2015-04-26T11:06:54.0000000+00:00</time></trkpt><trkpt lat="35.1345588" lon="32.5280438"><ele>108.9</ele><time>2015-04-26T11:06:56.0000000+00:00</time></trkpt><trkpt lat="35.1345913" lon="32.5280939"><ele>108.9</ele><time>2015-04-26T11:06:58.0000000+00:00</time></trkpt><trkpt lat="35.1346227" lon="32.5281408"><ele>108.9</ele><time>2015-04-26T11:07:00.0000000+00:00</time></trkpt><trkpt lat="35.1346505" lon="32.528189"><ele>109.4</ele><time>2015-04-26T11:07:02.0000000+00:00</time></trkpt><trkpt lat="35.1346745" lon="32.528241"><ele>109.8</ele><time>2015-04-26T11:07:04.0000000+00:00</time></trkpt><trkpt lat="35.1346937" lon="32.528298"><ele>109.4</ele><time>2015-04-26T11:07:06.0000000+00:00</time></trkpt><trkpt lat="35.134709" lon="32.5283585"><ele>109.8</ele><time>2015-04-26T11:07:08.0000000+00:00</time></trkpt><trkpt lat="35.1347236" lon="32.5284253"><ele>108.6</ele><time>2015-04-26T11:07:10.0000000+00:00</time></trkpt><trkpt lat="35.1347362" lon="32.5284993"><ele>107.4</ele><time>2015-04-26T11:07:12.0000000+00:00</time></trkpt><trkpt lat="35.1347381" lon="32.528597"><ele>107.0</ele><time>2015-04-26T11:07:14.0000000+00:00</time></trkpt><trkpt lat="35.1347325" lon="32.5286976"><ele>106.2</ele><time>2015-04-26T11:07:16.0000000+00:00</time></trkpt><trkpt lat="35.1347384" lon="32.5287862"><ele>106.1</ele><time>2015-04-26T11:07:17.0000000+00:00</time></trkpt><trkpt lat="35.1347439" lon="32.5288416"><ele>106.0</ele><time>2015-04-26T11:07:18.0000000+00:00</time></trkpt><trkpt lat="35.1347966" lon="32.5289398"><ele>106.4</ele><time>2015-04-26T11:07:20.0000000+00:00</time></trkpt><trkpt lat="35.1348655" lon="32.5289944"><ele>106.3</ele><time>2015-04-26T11:07:22.0000000+00:00</time></trkpt><trkpt lat="35.1349505" lon="32.528971"><ele>105.5</ele><time>2015-04-26T11:07:24.0000000+00:00</time></trkpt><trkpt lat="35.1349974" lon="32.5289042"><ele>103.8</ele><time>2015-04-26T11:07:26.0000000+00:00</time></trkpt><trkpt lat="35.1350242" lon="32.5288376"><ele>103.4</ele><time>2015-04-26T11:07:28.0000000+00:00</time></trkpt><trkpt lat="35.1350467" lon="32.5287848"><ele>103.5</ele><time>2015-04-26T11:07:30.0000000+00:00</time></trkpt><trkpt lat="35.1350007" lon="32.5287654"><ele>108.5</ele><time>2015-04-26T11:12:46.0000000+00:00</time></trkpt><trkpt lat="35.1350466" lon="32.5287689"><ele>108.4</ele><time>2015-04-26T11:34:58.0000000+00:00</time></trkpt><trkpt lat="35.1350798" lon="32.5287274"><ele>109.2</ele><time>2015-04-26T11:35:32.0000000+00:00</time></trkpt><trkpt lat="35.1351242" lon="32.5286827"><ele>109.0</ele><time>2015-04-26T11:35:35.0000000+00:00</time></trkpt><trkpt lat="35.1351712" lon="32.5286347"><ele>108.9</ele><time>2015-04-26T11:35:38.0000000+00:00</time></trkpt><trkpt lat="35.1352252" lon="32.528619"><ele>108.9</ele><time>2015-04-26T11:35:41.0000000+00:00</time></trkpt><trkpt lat="35.1352755" lon="32.5286036"><ele>108.9</ele><time>2015-04-26T11:35:44.0000000+00:00</time></trkpt><trkpt lat="35.1353215" lon="32.5285761"><ele>108.9</ele><time>2015-04-26T11:35:47.0000000+00:00</time></trkpt><trkpt lat="35.1353761" lon="32.5285374"><ele>108.9</ele><time>2015-04-26T11:35:50.0000000+00:00</time></trkpt><trkpt lat="35.1354259" lon="32.528502"><ele>108.9</ele><time>2015-04-26T11:35:53.0000000+00:00</time></trkpt><trkpt lat="35.1354804" lon="32.5284596"><ele>108.9</ele><time>2015-04-26T11:35:56.0000000+00:00</time></trkpt><trkpt lat="35.1355144" lon="32.5284207"><ele>108.9</ele><time>2015-04-26T11:35:58.0000000+00:00</time></trkpt><trkpt lat="35.1355519" lon="32.5283687"><ele>108.9</ele><time>2015-04-26T11:36:00.0000000+00:00</time></trkpt><trkpt lat="35.1355802" lon="32.528325"><ele>108.9</ele><time>2015-04-26T11:36:02.0000000+00:00</time></trkpt><trkpt lat="35.135609" lon="32.5282782"><ele>108.2</ele><time>2015-04-26T11:36:04.0000000+00:00</time></trkpt><trkpt lat="35.1356422" lon="32.5282308"><ele>108.0</ele><time>2015-04-26T11:36:06.0000000+00:00</time></trkpt><trkpt lat="35.1356786" lon="32.5281942"><ele>107.9</ele><time>2015-04-26T11:36:08.0000000+00:00</time></trkpt><trkpt lat="35.1357313" lon="32.5281713"><ele>107.9</ele><time>2015-04-26T11:36:12.0000000+00:00</time></trkpt><trkpt lat="35.1357776" lon="32.5281821"><ele>107.7</ele><time>2015-04-26T11:36:16.0000000+00:00</time></trkpt><trkpt lat="35.1358223" lon="32.5282059"><ele>107.9</ele><time>2015-04-26T11:36:20.0000000+00:00</time></trkpt><trkpt lat="35.1358737" lon="32.5282173"><ele>108.8</ele><time>2015-04-26T11:36:25.0000000+00:00</time></trkpt><trkpt lat="35.1359172" lon="32.5282342"><ele>108.9</ele><time>2015-04-26T11:36:29.0000000+00:00</time></trkpt><trkpt lat="35.1359679" lon="32.5282606"><ele>109.7</ele><time>2015-04-26T11:36:32.0000000+00:00</time></trkpt><trkpt lat="35.1360253" lon="32.5282839"><ele>109.1</ele><time>2015-04-26T11:36:35.0000000+00:00</time></trkpt><trkpt lat="35.1360906" lon="32.5283002"><ele>109.0</ele><time>2015-04-26T11:36:38.0000000+00:00</time></trkpt><trkpt lat="35.1361409" lon="32.5283038"><ele>108.9</ele><time>2015-04-26T11:36:40.0000000+00:00</time></trkpt><trkpt lat="35.1361935" lon="32.5282884"><ele>108.9</ele><time>2015-04-26T11:36:42.0000000+00:00</time></trkpt><trkpt lat="35.1362439" lon="32.5282601"><ele>109.7</ele><time>2015-04-26T11:36:44.0000000+00:00</time></trkpt><trkpt lat="35.1362879" lon="32.5282231"><ele>109.9</ele><time>2015-04-26T11:36:46.0000000+00:00</time></trkpt><trkpt lat="35.1363269" lon="32.5281849"><ele>109.9</ele><time>2015-04-26T11:36:48.0000000+00:00</time></trkpt><trkpt lat="35.136362" lon="32.5281464"><ele>109.9</ele><time>2015-04-26T11:36:50.0000000+00:00</time></trkpt><trkpt lat="35.136394" lon="32.5281025"><ele>109.9</ele><time>2015-04-26T11:36:52.0000000+00:00</time></trkpt><trkpt lat="35.1364276" lon="32.5280563"><ele>109.2</ele><time>2015-04-26T11:36:54.0000000+00:00</time></trkpt><trkpt lat="35.1364651" lon="32.5280129"><ele>109.0</ele><time>2015-04-26T11:36:56.0000000+00:00</time></trkpt><trkpt lat="35.1365095" lon="32.52798"><ele>108.4</ele><time>2015-04-26T11:36:58.0000000+00:00</time></trkpt><trkpt lat="35.1365557" lon="32.5279574"><ele>108.1</ele><time>2015-04-26T11:37:00.0000000+00:00</time></trkpt><trkpt lat="35.1366008" lon="32.5279486"><ele>108.0</ele><time>2015-04-26T11:37:02.0000000+00:00</time></trkpt><trkpt lat="35.1366432" lon="32.5279694"><ele>107.9</ele><time>2015-04-26T11:37:04.0000000+00:00</time></trkpt><trkpt lat="35.1366761" lon="32.5280171"><ele>107.9</ele><time>2015-04-26T11:37:06.0000000+00:00</time></trkpt><trkpt lat="35.1367017" lon="32.5280863"><ele>107.4</ele><time>2015-04-26T11:37:08.0000000+00:00</time></trkpt><trkpt lat="35.1367244" lon="32.5281611"><ele>107.1</ele><time>2015-04-26T11:37:10.0000000+00:00</time></trkpt><trkpt lat="35.1367502" lon="32.5282485"><ele>106.5</ele><time>2015-04-26T11:37:12.0000000+00:00</time></trkpt><trkpt lat="35.1367959" lon="32.5283419"><ele>105.6</ele><time>2015-04-26T11:37:14.0000000+00:00</time></trkpt><trkpt lat="35.1368557" lon="32.5284174"><ele>104.3</ele><time>2015-04-26T11:37:16.0000000+00:00</time></trkpt><trkpt lat="35.1369218" lon="32.5285002"><ele>103.3</ele><time>2015-04-26T11:37:18.0000000+00:00</time></trkpt><trkpt lat="35.1369531" lon="32.5285503"><ele>102.6</ele><time>2015-04-26T11:37:19.0000000+00:00</time></trkpt><trkpt lat="35.1369865" lon="32.5286053"><ele>101.8</ele><time>2015-04-26T11:37:20.0000000+00:00</time></trkpt><trkpt lat="35.1370212" lon="32.5286555"><ele>100.8</ele><time>2015-04-26T11:37:21.0000000+00:00</time></trkpt><trkpt lat="35.1370638" lon="32.5286998"><ele>99.9</ele><time>2015-04-26T11:37:22.0000000+00:00</time></trkpt><trkpt lat="35.1371097" lon="32.5287171"><ele>99.4</ele><time>2015-04-26T11:37:23.0000000+00:00</time></trkpt><trkpt lat="35.1371903" lon="32.5287054"><ele>99.0</ele><time>2015-04-26T11:37:25.0000000+00:00</time></trkpt><trkpt lat="35.1372337" lon="32.5286329"><ele>98.5</ele><time>2015-04-26T11:37:27.0000000+00:00</time></trkpt><trkpt lat="35.1372531" lon="32.5285757"><ele>98.2</ele><time>2015-04-26T11:37:28.0000000+00:00</time></trkpt><trkpt lat="35.1372794" lon="32.5285236"><ele>97.6</ele><time>2015-04-26T11:37:29.0000000+00:00</time></trkpt><trkpt lat="35.1373258" lon="32.5284365"><ele>97.1</ele><time>2015-04-26T11:37:31.0000000+00:00</time></trkpt><trkpt lat="35.1373652" lon="32.5283906"><ele>96.5</ele><time>2015-04-26T11:37:32.0000000+00:00</time></trkpt><trkpt lat="35.1374026" lon="32.5283483"><ele>96.2</ele><time>2015-04-26T11:37:33.0000000+00:00</time></trkpt><trkpt lat="35.1374496" lon="32.5283096"><ele>96.1</ele><time>2015-04-26T11:37:34.0000000+00:00</time></trkpt><trkpt lat="35.1374916" lon="32.5282747"><ele>96.0</ele><time>2015-04-26T11:37:35.0000000+00:00</time></trkpt><trkpt lat="35.1375324" lon="32.528251"><ele>95.5</ele><time>2015-04-26T11:37:36.0000000+00:00</time></trkpt><trkpt lat="35.1376054" lon="32.5282109"><ele>95.6</ele><time>2015-04-26T11:37:38.0000000+00:00</time></trkpt><trkpt lat="35.1376721" lon="32.528196"><ele>95.8</ele><time>2015-04-26T11:37:40.0000000+00:00</time></trkpt><trkpt lat="35.1377408" lon="32.5281781"><ele>95.9</ele><time>2015-04-26T11:37:42.0000000+00:00</time></trkpt><trkpt lat="35.1378052" lon="32.5281534"><ele>95.9</ele><time>2015-04-26T11:37:44.0000000+00:00</time></trkpt><trkpt lat="35.1378773" lon="32.5281444"><ele>95.9</ele><time>2015-04-26T11:37:46.0000000+00:00</time></trkpt><trkpt lat="35.1379487" lon="32.5281643"><ele>95.2</ele><time>2015-04-26T11:37:48.0000000+00:00</time></trkpt><trkpt lat="35.138022" lon="32.5282142"><ele>94.5</ele><time>2015-04-26T11:37:50.0000000+00:00</time></trkpt><trkpt lat="35.1380579" lon="32.528248"><ele>94.2</ele><time>2015-04-26T11:37:51.0000000+00:00</time></trkpt><trkpt lat="35.138087" lon="32.5283046"><ele>94.6</ele><time>2015-04-26T11:37:52.0000000+00:00</time></trkpt><trkpt lat="35.1381464" lon="32.5283838"><ele>94.8</ele><time>2015-04-26T11:37:54.0000000+00:00</time></trkpt><trkpt lat="35.1381912" lon="32.5284687"><ele>95.7</ele><time>2015-04-26T11:37:56.0000000+00:00</time></trkpt><trkpt lat="35.1382496" lon="32.5285523"><ele>95.9</ele><time>2015-04-26T11:37:58.0000000+00:00</time></trkpt><trkpt lat="35.1382821" lon="32.5285942"><ele>95.9</ele><time>2015-04-26T11:37:59.0000000+00:00</time></trkpt><trkpt lat="35.1383243" lon="32.5286282"><ele>95.9</ele><time>2015-04-26T11:38:00.0000000+00:00</time></trkpt><trkpt lat="35.1383895" lon="32.528695"><ele>95.9</ele><time>2015-04-26T11:38:02.0000000+00:00</time></trkpt><trkpt lat="35.1384504" lon="32.5287524"><ele>96.4</ele><time>2015-04-26T11:38:04.0000000+00:00</time></trkpt><trkpt lat="35.1384995" lon="32.5288124"><ele>96.8</ele><time>2015-04-26T11:38:06.0000000+00:00</time></trkpt><trkpt lat="35.1385371" lon="32.5288814"><ele>96.9</ele><time>2015-04-26T11:38:08.0000000+00:00</time></trkpt><trkpt lat="35.1385657" lon="32.5289514"><ele>96.9</ele><time>2015-04-26T11:38:10.0000000+00:00</time></trkpt><trkpt lat="35.1385917" lon="32.5290128"><ele>96.9</ele><time>2015-04-26T11:38:12.0000000+00:00</time></trkpt><trkpt lat="35.1386104" lon="32.5290693"><ele>96.9</ele><time>2015-04-26T11:38:14.0000000+00:00</time></trkpt><trkpt lat="35.1386307" lon="32.5291219"><ele>96.9</ele><time>2015-04-26T11:38:16.0000000+00:00</time></trkpt><trkpt lat="35.1386701" lon="32.5291634"><ele>97.4</ele><time>2015-04-26T11:38:18.0000000+00:00</time></trkpt><trkpt lat="35.1387173" lon="32.5291874"><ele>97.8</ele><time>2015-04-26T11:38:20.0000000+00:00</time></trkpt><trkpt lat="35.1387761" lon="32.5291772"><ele>98.7</ele><time>2015-04-26T11:38:23.0000000+00:00</time></trkpt><trkpt lat="35.1388254" lon="32.5291276"><ele>98.9</ele><time>2015-04-26T11:38:26.0000000+00:00</time></trkpt><trkpt lat="35.1388593" lon="32.5290742"><ele>98.9</ele><time>2015-04-26T11:38:28.0000000+00:00</time></trkpt><trkpt lat="35.1389008" lon="32.5290107"><ele>98.9</ele><time>2015-04-26T11:38:30.0000000+00:00</time></trkpt><trkpt lat="35.1389485" lon="32.5289461"><ele>99.7</ele><time>2015-04-26T11:38:32.0000000+00:00</time></trkpt><trkpt lat="35.1389943" lon="32.5288876"><ele>99.9</ele><time>2015-04-26T11:38:34.0000000+00:00</time></trkpt><trkpt lat="35.1390348" lon="32.5288292"><ele>99.9</ele><time>2015-04-26T11:38:36.0000000+00:00</time></trkpt><trkpt lat="35.1390727" lon="32.5287722"><ele>99.9</ele><time>2015-04-26T11:38:38.0000000+00:00</time></trkpt><trkpt lat="35.1391114" lon="32.5287192"><ele>99.9</ele><time>2015-04-26T11:38:40.0000000+00:00</time></trkpt><trkpt lat="35.1391618" lon="32.5286804"><ele>99.2</ele><time>2015-04-26T11:38:42.0000000+00:00</time></trkpt><trkpt lat="35.1392258" lon="32.5286774"><ele>99.5</ele><time>2015-04-26T11:38:44.0000000+00:00</time></trkpt><trkpt lat="35.139287" lon="32.528695"><ele>99.8</ele><time>2015-04-26T11:38:46.0000000+00:00</time></trkpt><trkpt lat="35.139343" lon="32.5287249"><ele>99.9</ele><time>2015-04-26T11:38:48.0000000+00:00</time></trkpt><trkpt lat="35.1393949" lon="32.5287577"><ele>99.9</ele><time>2015-04-26T11:38:50.0000000+00:00</time></trkpt><trkpt lat="35.1394482" lon="32.5287877"><ele>99.9</ele><time>2015-04-26T11:38:52.0000000+00:00</time></trkpt><trkpt lat="35.1395088" lon="32.5288254"><ele>99.9</ele><time>2015-04-26T11:38:54.0000000+00:00</time></trkpt><trkpt lat="35.1395683" lon="32.5288749"><ele>99.9</ele><time>2015-04-26T11:38:56.0000000+00:00</time></trkpt><trkpt lat="35.139616" lon="32.5289352"><ele>99.4</ele><time>2015-04-26T11:38:58.0000000+00:00</time></trkpt><trkpt lat="35.1396573" lon="32.5289975"><ele>99.6</ele><time>2015-04-26T11:39:00.0000000+00:00</time></trkpt><trkpt lat="35.1396858" lon="32.5290599"><ele>99.8</ele><time>2015-04-26T11:39:02.0000000+00:00</time></trkpt><trkpt lat="35.1396988" lon="32.5291154"><ele>99.9</ele><time>2015-04-26T11:39:04.0000000+00:00</time></trkpt><trkpt lat="35.1397153" lon="32.5291829"><ele>100.8</ele><time>2015-04-26T11:39:07.0000000+00:00</time></trkpt><trkpt lat="35.1397365" lon="32.5292388"><ele>100.9</ele><time>2015-04-26T11:39:10.0000000+00:00</time></trkpt><trkpt lat="35.1397663" lon="32.5293004"><ele>100.1</ele><time>2015-04-26T11:39:13.0000000+00:00</time></trkpt><trkpt lat="35.1397965" lon="32.5293562"><ele>100.4</ele><time>2015-04-26T11:39:16.0000000+00:00</time></trkpt><trkpt lat="35.1398343" lon="32.5294016"><ele>100.0</ele><time>2015-04-26T11:39:20.0000000+00:00</time></trkpt><trkpt lat="35.1398682" lon="32.5294451"><ele>100.8</ele><time>2015-04-26T11:39:23.0000000+00:00</time></trkpt><trkpt lat="35.1399001" lon="32.5294999"><ele>100.9</ele><time>2015-04-26T11:39:26.0000000+00:00</time></trkpt><trkpt lat="35.1399314" lon="32.529553"><ele>100.9</ele><time>2015-04-26T11:39:29.0000000+00:00</time></trkpt><trkpt lat="35.1399637" lon="32.5296032"><ele>100.9</ele><time>2015-04-26T11:39:32.0000000+00:00</time></trkpt><trkpt lat="35.1399943" lon="32.5296564"><ele>100.9</ele><time>2015-04-26T11:39:35.0000000+00:00</time></trkpt><trkpt lat="35.1400512" lon="32.5296807"><ele>101.4</ele><time>2015-04-26T11:39:38.0000000+00:00</time></trkpt><trkpt lat="35.1401099" lon="32.5296744"><ele>101.9</ele><time>2015-04-26T11:39:41.0000000+00:00</time></trkpt><trkpt lat="35.1401623" lon="32.5296412"><ele>101.9</ele><time>2015-04-26T11:39:44.0000000+00:00</time></trkpt><trkpt lat="35.1402158" lon="32.5295844"><ele>101.9</ele><time>2015-04-26T11:39:47.0000000+00:00</time></trkpt><trkpt lat="35.140261" lon="32.5295538"><ele>101.9</ele><time>2015-04-26T11:39:49.0000000+00:00</time></trkpt><trkpt lat="35.1403124" lon="32.5295414"><ele>101.9</ele><time>2015-04-26T11:39:51.0000000+00:00</time></trkpt><trkpt lat="35.1403621" lon="32.5295599"><ele>101.9</ele><time>2015-04-26T11:39:53.0000000+00:00</time></trkpt><trkpt lat="35.1403991" lon="32.5295981"><ele>101.9</ele><time>2015-04-26T11:39:55.0000000+00:00</time></trkpt><trkpt lat="35.1404286" lon="32.5296507"><ele>101.9</ele><time>2015-04-26T11:39:58.0000000+00:00</time></trkpt><trkpt lat="35.1404531" lon="32.5297053"><ele>101.9</ele><time>2015-04-26T11:40:02.0000000+00:00</time></trkpt><trkpt lat="35.1404657" lon="32.5297955"><ele>100.5</ele><time>2015-04-26T11:40:08.0000000+00:00</time></trkpt><trkpt lat="35.1404727" lon="32.5298691"><ele>100.1</ele><time>2015-04-26T11:40:10.0000000+00:00</time></trkpt><trkpt lat="35.1404867" lon="32.529943"><ele>100.0</ele><time>2015-04-26T11:40:12.0000000+00:00</time></trkpt><trkpt lat="35.1405056" lon="32.5300138"><ele>99.9</ele><time>2015-04-26T11:40:14.0000000+00:00</time></trkpt><trkpt lat="35.1405246" lon="32.5300776"><ele>99.2</ele><time>2015-04-26T11:40:16.0000000+00:00</time></trkpt><trkpt lat="35.1405492" lon="32.5301432"><ele>99.8</ele><time>2015-04-26T11:40:19.0000000+00:00</time></trkpt><trkpt lat="35.1405839" lon="32.5301986"><ele>99.9</ele><time>2015-04-26T11:40:22.0000000+00:00</time></trkpt><trkpt lat="35.1406148" lon="32.5302552"><ele>99.2</ele><time>2015-04-26T11:40:25.0000000+00:00</time></trkpt><trkpt lat="35.140641" lon="32.5303133"><ele>99.3</ele><time>2015-04-26T11:40:29.0000000+00:00</time></trkpt><trkpt lat="35.1406832" lon="32.5303846"><ele>100.3</ele><time>2015-04-26T11:40:33.0000000+00:00</time></trkpt><trkpt lat="35.1407242" lon="32.5304303"><ele>100.8</ele><time>2015-04-26T11:40:35.0000000+00:00</time></trkpt><trkpt lat="35.1407747" lon="32.5304792"><ele>100.9</ele><time>2015-04-26T11:40:37.0000000+00:00</time></trkpt><trkpt lat="35.1408414" lon="32.530496"><ele>100.9</ele><time>2015-04-26T11:40:39.0000000+00:00</time></trkpt><trkpt lat="35.140899" lon="32.5304491"><ele>100.9</ele><time>2015-04-26T11:40:41.0000000+00:00</time></trkpt><trkpt lat="35.1409342" lon="32.5303784"><ele>100.4</ele><time>2015-04-26T11:40:43.0000000+00:00</time></trkpt><trkpt lat="35.1409635" lon="32.5303118"><ele>100.6</ele><time>2015-04-26T11:40:45.0000000+00:00</time></trkpt><trkpt lat="35.1409885" lon="32.5302464"><ele>100.8</ele><time>2015-04-26T11:40:47.0000000+00:00</time></trkpt><trkpt lat="35.1410025" lon="32.5301762"><ele>101.4</ele><time>2015-04-26T11:40:49.0000000+00:00</time></trkpt><trkpt lat="35.1410136" lon="32.5301048"><ele>101.8</ele><time>2015-04-26T11:40:51.0000000+00:00</time></trkpt><trkpt lat="35.1410373" lon="32.5300365"><ele>101.9</ele><time>2015-04-26T11:40:53.0000000+00:00</time></trkpt><trkpt lat="35.1410738" lon="32.529973"><ele>101.9</ele><time>2015-04-26T11:40:55.0000000+00:00</time></trkpt><trkpt lat="35.1411342" lon="32.5299203"><ele>101.2</ele><time>2015-04-26T11:40:57.0000000+00:00</time></trkpt><trkpt lat="35.1412018" lon="32.529875"><ele>101.0</ele><time>2015-04-26T11:40:59.0000000+00:00</time></trkpt><trkpt lat="35.1412645" lon="32.5298288"><ele>100.9</ele><time>2015-04-26T11:41:01.0000000+00:00</time></trkpt><trkpt lat="35.1413247" lon="32.529788"><ele>101.4</ele><time>2015-04-26T11:41:03.0000000+00:00</time></trkpt><trkpt lat="35.141385" lon="32.5297507"><ele>101.8</ele><time>2015-04-26T11:41:05.0000000+00:00</time></trkpt><trkpt lat="35.141445" lon="32.5297215"><ele>101.9</ele><time>2015-04-26T11:41:07.0000000+00:00</time></trkpt><trkpt lat="35.1414984" lon="32.5297131"><ele>101.9</ele><time>2015-04-26T11:41:09.0000000+00:00</time></trkpt><trkpt lat="35.1415493" lon="32.5297186"><ele>102.7</ele><time>2015-04-26T11:41:11.0000000+00:00</time></trkpt><trkpt lat="35.1415948" lon="32.5297348"><ele>102.9</ele><time>2015-04-26T11:41:13.0000000+00:00</time></trkpt><trkpt lat="35.1416385" lon="32.52976"><ele>102.9</ele><time>2015-04-26T11:41:15.0000000+00:00</time></trkpt><trkpt lat="35.1416782" lon="32.5298018"><ele>102.9</ele><time>2015-04-26T11:41:17.0000000+00:00</time></trkpt><trkpt lat="35.1416994" lon="32.5298659"><ele>102.9</ele><time>2015-04-26T11:41:19.0000000+00:00</time></trkpt><trkpt lat="35.1416985" lon="32.5299404"><ele>102.9</ele><time>2015-04-26T11:41:21.0000000+00:00</time></trkpt><trkpt lat="35.1416938" lon="32.5300134"><ele>102.9</ele><time>2015-04-26T11:41:23.0000000+00:00</time></trkpt><trkpt lat="35.1416849" lon="32.5300854"><ele>102.9</ele><time>2015-04-26T11:41:25.0000000+00:00</time></trkpt><trkpt lat="35.1416776" lon="32.5301545"><ele>102.9</ele><time>2015-04-26T11:41:27.0000000+00:00</time></trkpt><trkpt lat="35.1416717" lon="32.5302224"><ele>102.9</ele><time>2015-04-26T11:41:29.0000000+00:00</time></trkpt><trkpt lat="35.1416635" lon="32.5302877"><ele>102.9</ele><time>2015-04-26T11:41:31.0000000+00:00</time></trkpt><trkpt lat="35.1416568" lon="32.53035"><ele>102.9</ele><time>2015-04-26T11:41:33.0000000+00:00</time></trkpt><trkpt lat="35.1416514" lon="32.5304128"><ele>102.9</ele><time>2015-04-26T11:41:35.0000000+00:00</time></trkpt><trkpt lat="35.141642" lon="32.5304773"><ele>102.2</ele><time>2015-04-26T11:41:37.0000000+00:00</time></trkpt><trkpt lat="35.1416355" lon="32.5305435"><ele>102.0</ele><time>2015-04-26T11:41:39.0000000+00:00</time></trkpt><trkpt lat="35.1416566" lon="32.5306063"><ele>101.9</ele><time>2015-04-26T11:41:41.0000000+00:00</time></trkpt><trkpt lat="35.1417056" lon="32.5306451"><ele>101.2</ele><time>2015-04-26T11:41:43.0000000+00:00</time></trkpt><trkpt lat="35.1417671" lon="32.5306234"><ele>101.0</ele><time>2015-04-26T11:41:45.0000000+00:00</time></trkpt><trkpt lat="35.1418178" lon="32.5305674"><ele>100.9</ele><time>2015-04-26T11:41:47.0000000+00:00</time></trkpt><trkpt lat="35.1418713" lon="32.5305067"><ele>100.9</ele><time>2015-04-26T11:41:49.0000000+00:00</time></trkpt><trkpt lat="35.1419287" lon="32.5304501"><ele>100.9</ele><time>2015-04-26T11:41:51.0000000+00:00</time></trkpt><trkpt lat="35.1419868" lon="32.5304015"><ele>100.9</ele><time>2015-04-26T11:41:53.0000000+00:00</time></trkpt><trkpt lat="35.1420419" lon="32.5303553"><ele>101.7</ele><time>2015-04-26T11:41:55.0000000+00:00</time></trkpt><trkpt lat="35.1420954" lon="32.530317"><ele>101.6</ele><time>2015-04-26T11:41:57.0000000+00:00</time></trkpt><trkpt lat="35.14215" lon="32.5302886"><ele>101.9</ele><time>2015-04-26T11:41:59.0000000+00:00</time></trkpt><trkpt lat="35.1421986" lon="32.5302716"><ele>101.9</ele><time>2015-04-26T11:42:01.0000000+00:00</time></trkpt><trkpt lat="35.1422617" lon="32.5302674"><ele>102.2</ele><time>2015-04-26T11:42:04.0000000+00:00</time></trkpt><trkpt lat="35.1423127" lon="32.5302607"><ele>102.0</ele><time>2015-04-26T11:42:06.0000000+00:00</time></trkpt><trkpt lat="35.1423671" lon="32.5302563"><ele>102.4</ele><time>2015-04-26T11:42:08.0000000+00:00</time></trkpt><trkpt lat="35.1424198" lon="32.5302519"><ele>103.6</ele><time>2015-04-26T11:42:10.0000000+00:00</time></trkpt><trkpt lat="35.1424703" lon="32.5302521"><ele>103.8</ele><time>2015-04-26T11:42:12.0000000+00:00</time></trkpt><trkpt lat="35.1425227" lon="32.5302536"><ele>103.7</ele><time>2015-04-26T11:42:14.0000000+00:00</time></trkpt><trkpt lat="35.1425803" lon="32.5302656"><ele>103.9</ele><time>2015-04-26T11:42:16.0000000+00:00</time></trkpt><trkpt lat="35.1426338" lon="32.5302834"><ele>103.9</ele><time>2015-04-26T11:42:18.0000000+00:00</time></trkpt><trkpt lat="35.1426852" lon="32.5303005"><ele>103.9</ele><time>2015-04-26T11:42:20.0000000+00:00</time></trkpt><trkpt lat="35.142736" lon="32.5303176"><ele>103.9</ele><time>2015-04-26T11:42:22.0000000+00:00</time></trkpt><trkpt lat="35.1427836" lon="32.5303353"><ele>103.9</ele><time>2015-04-26T11:42:24.0000000+00:00</time></trkpt><trkpt lat="35.1428282" lon="32.5303573"><ele>103.9</ele><time>2015-04-26T11:42:26.0000000+00:00</time></trkpt><trkpt lat="35.1428683" lon="32.5303847"><ele>103.9</ele><time>2015-04-26T11:42:28.0000000+00:00</time></trkpt><trkpt lat="35.1429035" lon="32.5304215"><ele>104.7</ele><time>2015-04-26T11:42:30.0000000+00:00</time></trkpt><trkpt lat="35.1429353" lon="32.5304634"><ele>104.9</ele><time>2015-04-26T11:42:32.0000000+00:00</time></trkpt><trkpt lat="35.1429635" lon="32.5305284"><ele>105.0</ele><time>2015-04-26T11:42:35.0000000+00:00</time></trkpt><trkpt lat="35.1429825" lon="32.530606"><ele>104.9</ele><time>2015-04-26T11:42:38.0000000+00:00</time></trkpt><trkpt lat="35.1429878" lon="32.5306631"><ele>104.2</ele><time>2015-04-26T11:42:40.0000000+00:00</time></trkpt><trkpt lat="35.1429936" lon="32.53072"><ele>104.0</ele><time>2015-04-26T11:42:42.0000000+00:00</time></trkpt><trkpt lat="35.1430001" lon="32.5307792"><ele>103.4</ele><time>2015-04-26T11:42:44.0000000+00:00</time></trkpt><trkpt lat="35.1430052" lon="32.5308408"><ele>103.1</ele><time>2015-04-26T11:42:46.0000000+00:00</time></trkpt><trkpt lat="35.1430116" lon="32.5309024"><ele>103.0</ele><time>2015-04-26T11:42:48.0000000+00:00</time></trkpt><trkpt lat="35.1430198" lon="32.5309583"><ele>102.2</ele><time>2015-04-26T11:42:50.0000000+00:00</time></trkpt><trkpt lat="35.1430391" lon="32.5310159"><ele>102.0</ele><time>2015-04-26T11:42:53.0000000+00:00</time></trkpt><trkpt lat="35.1430875" lon="32.5310494"><ele>101.0</ele><time>2015-04-26T11:42:57.0000000+00:00</time></trkpt><trkpt lat="35.1431542" lon="32.5310302"><ele>100.9</ele><time>2015-04-26T11:43:00.0000000+00:00</time></trkpt><trkpt lat="35.1432032" lon="32.5309892"><ele>100.2</ele><time>2015-04-26T11:43:02.0000000+00:00</time></trkpt><trkpt lat="35.1432437" lon="32.5309394"><ele>100.0</ele><time>2015-04-26T11:43:04.0000000+00:00</time></trkpt><trkpt lat="35.1432801" lon="32.5308842"><ele>99.4</ele><time>2015-04-26T11:43:06.0000000+00:00</time></trkpt><trkpt lat="35.1433161" lon="32.5308274"><ele>99.1</ele><time>2015-04-26T11:43:08.0000000+00:00</time></trkpt><trkpt lat="35.143351" lon="32.53078"><ele>99.0</ele><time>2015-04-26T11:43:10.0000000+00:00</time></trkpt><trkpt lat="35.1434098" lon="32.5307644"><ele>98.9</ele><time>2015-04-26T11:43:36.0000000+00:00</time></trkpt><trkpt lat="35.1434647" lon="32.5307282"><ele>98.6</ele><time>2015-04-26T11:43:39.0000000+00:00</time></trkpt><trkpt lat="35.143514" lon="32.5306954"><ele>98.9</ele><time>2015-04-26T11:43:42.0000000+00:00</time></trkpt><trkpt lat="35.1435578" lon="32.5306619"><ele>101.9</ele><time>2015-04-26T11:44:54.0000000+00:00</time></trkpt><trkpt lat="35.1436104" lon="32.5306288"><ele>102.6</ele><time>2015-04-26T11:44:58.0000000+00:00</time></trkpt><trkpt lat="35.1436595" lon="32.5305972"><ele>103.8</ele><time>2015-04-26T11:45:01.0000000+00:00</time></trkpt><trkpt lat="35.1437033" lon="32.5305732"><ele>103.9</ele><time>2015-04-26T11:45:03.0000000+00:00</time></trkpt><trkpt lat="35.1437492" lon="32.5305499"><ele>104.4</ele><time>2015-04-26T11:45:05.0000000+00:00</time></trkpt><trkpt lat="35.1437933" lon="32.5305311"><ele>105.1</ele><time>2015-04-26T11:45:07.0000000+00:00</time></trkpt><trkpt lat="35.1438384" lon="32.5305197"><ele>105.7</ele><time>2015-04-26T11:45:09.0000000+00:00</time></trkpt><trkpt lat="35.1439051" lon="32.5304975"><ele>105.4</ele><time>2015-04-26T11:45:12.0000000+00:00</time></trkpt><trkpt lat="35.1439531" lon="32.5304869"><ele>106.0</ele><time>2015-04-26T11:45:14.0000000+00:00</time></trkpt><trkpt lat="35.144016" lon="32.5304746"><ele>106.3</ele><time>2015-04-26T11:45:17.0000000+00:00</time></trkpt><trkpt lat="35.1440742" lon="32.5304754"><ele>106.1</ele><time>2015-04-26T11:45:20.0000000+00:00</time></trkpt><trkpt lat="35.1441355" lon="32.530491"><ele>106.1</ele><time>2015-04-26T11:45:23.0000000+00:00</time></trkpt><trkpt lat="35.1441806" lon="32.5305319"><ele>105.3</ele><time>2015-04-26T11:45:26.0000000+00:00</time></trkpt><trkpt lat="35.1442132" lon="32.5305705"><ele>104.9</ele><time>2015-04-26T11:45:29.0000000+00:00</time></trkpt><trkpt lat="35.1442499" lon="32.530611"><ele>104.9</ele><time>2015-04-26T11:45:33.0000000+00:00</time></trkpt><trkpt lat="35.1442622" lon="32.5306702"><ele>106.3</ele><time>2015-04-26T11:45:38.0000000+00:00</time></trkpt><trkpt lat="35.1442545" lon="32.5307478"><ele>103.8</ele><time>2015-04-26T11:46:53.0000000+00:00</time></trkpt><trkpt lat="35.1442427" lon="32.5308109"><ele>103.2</ele><time>2015-04-26T11:46:56.0000000+00:00</time></trkpt><trkpt lat="35.1442236" lon="32.5308858"><ele>101.8</ele><time>2015-04-26T11:46:59.0000000+00:00</time></trkpt><trkpt lat="35.1441912" lon="32.5309875"><ele>100.5</ele><time>2015-04-26T11:47:02.0000000+00:00</time></trkpt><trkpt lat="35.1441726" lon="32.5310619"><ele>101.3</ele><time>2015-04-26T11:47:04.0000000+00:00</time></trkpt><trkpt lat="35.1441604" lon="32.5311289"><ele>101.8</ele><time>2015-04-26T11:47:06.0000000+00:00</time></trkpt><trkpt lat="35.1441559" lon="32.5311937"><ele>101.6</ele><time>2015-04-26T11:47:08.0000000+00:00</time></trkpt><trkpt lat="35.1441566" lon="32.5312498"><ele>102.1</ele><time>2015-04-26T11:47:10.0000000+00:00</time></trkpt><trkpt lat="35.1441415" lon="32.5313228"><ele>102.3</ele><time>2015-04-26T11:47:13.0000000+00:00</time></trkpt><trkpt lat="35.1441339" lon="32.5313851"><ele>100.7</ele><time>2015-04-26T11:47:16.0000000+00:00</time></trkpt><trkpt lat="35.1441203" lon="32.5314404"><ele>100.3</ele><time>2015-04-26T11:47:19.0000000+00:00</time></trkpt><trkpt lat="35.144106" lon="32.5314954"><ele>98.7</ele><time>2015-04-26T11:47:22.0000000+00:00</time></trkpt><trkpt lat="35.1440979" lon="32.531553"><ele>96.7</ele><time>2015-04-26T11:47:25.0000000+00:00</time></trkpt><trkpt lat="35.1440905" lon="32.531618"><ele>95.5</ele><time>2015-04-26T11:47:28.0000000+00:00</time></trkpt><trkpt lat="35.1440777" lon="32.5316937"><ele>92.4</ele><time>2015-04-26T11:47:31.0000000+00:00</time></trkpt><trkpt lat="35.1440754" lon="32.5317544"><ele>93.0</ele><time>2015-04-26T11:47:33.0000000+00:00</time></trkpt><trkpt lat="35.1440842" lon="32.5318109"><ele>93.2</ele><time>2015-04-26T11:47:35.0000000+00:00</time></trkpt><trkpt lat="35.1441023" lon="32.5319047"><ele>93.5</ele><time>2015-04-26T11:47:37.0000000+00:00</time></trkpt><trkpt lat="35.1441157" lon="32.5319903"><ele>93.8</ele><time>2015-04-26T11:47:39.0000000+00:00</time></trkpt><trkpt lat="35.1441361" lon="32.5320846"><ele>93.4</ele><time>2015-04-26T11:47:41.0000000+00:00</time></trkpt><trkpt lat="35.1441503" lon="32.532164"><ele>91.8</ele><time>2015-04-26T11:47:43.0000000+00:00</time></trkpt><trkpt lat="35.1441647" lon="32.532236"><ele>90.9</ele><time>2015-04-26T11:47:45.0000000+00:00</time></trkpt><trkpt lat="35.14418" lon="32.5323046"><ele>91.4</ele><time>2015-04-26T11:47:47.0000000+00:00</time></trkpt><trkpt lat="35.144192" lon="32.5323724"><ele>91.8</ele><time>2015-04-26T11:47:49.0000000+00:00</time></trkpt><trkpt lat="35.1442009" lon="32.5324334"><ele>91.1</ele><time>2015-04-26T11:47:51.0000000+00:00</time></trkpt><trkpt lat="35.1442121" lon="32.5324945"><ele>90.7</ele><time>2015-04-26T11:47:53.0000000+00:00</time></trkpt><trkpt lat="35.1442161" lon="32.5325579"><ele>92.4</ele><time>2015-04-26T11:47:56.0000000+00:00</time></trkpt><trkpt lat="35.144171" lon="32.5325585"><ele>92.4</ele><time>2015-04-26T11:49:01.0000000+00:00</time></trkpt><trkpt lat="35.1441418" lon="32.532516"><ele>91.9</ele><time>2015-04-26T11:49:28.0000000+00:00</time></trkpt><trkpt lat="35.1441187" lon="32.53257"><ele>95.4</ele><time>2015-04-26T11:52:03.0000000+00:00</time></trkpt><trkpt lat="35.1440969" lon="32.5326195"><ele>100.9</ele><time>2015-04-26T11:53:04.0000000+00:00</time></trkpt><trkpt lat="35.1440539" lon="32.5326396"><ele>100.9</ele><time>2015-04-26T11:53:14.0000000+00:00</time></trkpt><trkpt lat="35.1440309" lon="32.5326984"><ele>98.2</ele><time>2015-04-26T11:54:33.0000000+00:00</time></trkpt><trkpt lat="35.1440391" lon="32.5327775"><ele>97.5</ele><time>2015-04-26T11:54:35.0000000+00:00</time></trkpt><trkpt lat="35.1440457" lon="32.5328747"><ele>97.1</ele><time>2015-04-26T11:54:37.0000000+00:00</time></trkpt><trkpt lat="35.1440316" lon="32.5329779"><ele>95.7</ele><time>2015-04-26T11:54:39.0000000+00:00</time></trkpt><trkpt lat="35.1440181" lon="32.533031"><ele>95.3</ele><time>2015-04-26T11:54:40.0000000+00:00</time></trkpt><trkpt lat="35.1439888" lon="32.5331041"><ele>95.1</ele><time>2015-04-26T11:54:41.0000000+00:00</time></trkpt><trkpt lat="35.1439705" lon="32.5331613"><ele>95.0</ele><time>2015-04-26T11:54:42.0000000+00:00</time></trkpt><trkpt lat="35.1439619" lon="32.5332214"><ele>95.0</ele><time>2015-04-26T11:54:43.0000000+00:00</time></trkpt><trkpt lat="35.1439355" lon="32.533282"><ele>95.0</ele><time>2015-04-26T11:54:44.0000000+00:00</time></trkpt><trkpt lat="35.1439138" lon="32.5333374"><ele>94.9</ele><time>2015-04-26T11:54:45.0000000+00:00</time></trkpt><trkpt lat="35.1438892" lon="32.533395"><ele>94.9</ele><time>2015-04-26T11:54:46.0000000+00:00</time></trkpt><trkpt lat="35.1438627" lon="32.5334459"><ele>94.4</ele><time>2015-04-26T11:54:47.0000000+00:00</time></trkpt><trkpt lat="35.1438341" lon="32.5334954"><ele>94.2</ele><time>2015-04-26T11:54:48.0000000+00:00</time></trkpt><trkpt lat="35.1438002" lon="32.533538"><ele>94.1</ele><time>2015-04-26T11:54:49.0000000+00:00</time></trkpt><trkpt lat="35.1437641" lon="32.5335854"><ele>94.0</ele><time>2015-04-26T11:54:50.0000000+00:00</time></trkpt><trkpt lat="35.1437272" lon="32.5336238"><ele>94.5</ele><time>2015-04-26T11:54:51.0000000+00:00</time></trkpt><trkpt lat="35.1436903" lon="32.5336594"><ele>94.7</ele><time>2015-04-26T11:54:52.0000000+00:00</time></trkpt><trkpt lat="35.1436506" lon="32.5336935"><ele>94.8</ele><time>2015-04-26T11:54:53.0000000+00:00</time></trkpt><trkpt lat="35.1436072" lon="32.5337271"><ele>94.9</ele><time>2015-04-26T11:54:54.0000000+00:00</time></trkpt><trkpt lat="35.1435672" lon="32.5337638"><ele>94.4</ele><time>2015-04-26T11:54:55.0000000+00:00</time></trkpt><trkpt lat="35.1435037" lon="32.5338424"><ele>94.0</ele><time>2015-04-26T11:54:57.0000000+00:00</time></trkpt><trkpt lat="35.1434548" lon="32.5339334"><ele>94.0</ele><time>2015-04-26T11:54:59.0000000+00:00</time></trkpt><trkpt lat="35.1434286" lon="32.5339817"><ele>93.9</ele><time>2015-04-26T11:55:00.0000000+00:00</time></trkpt><trkpt lat="35.1433727" lon="32.5340656"><ele>93.2</ele><time>2015-04-26T11:55:02.0000000+00:00</time></trkpt><trkpt lat="35.1433233" lon="32.5341164"><ele>93.0</ele><time>2015-04-26T11:55:04.0000000+00:00</time></trkpt><trkpt lat="35.1432562" lon="32.534161"><ele>92.9</ele><time>2015-04-26T11:55:06.0000000+00:00</time></trkpt><trkpt lat="35.1431725" lon="32.5342102"><ele>92.2</ele><time>2015-04-26T11:55:08.0000000+00:00</time></trkpt><trkpt lat="35.1431318" lon="32.5342424"><ele>91.6</ele><time>2015-04-26T11:55:09.0000000+00:00</time></trkpt><trkpt lat="35.1430931" lon="32.5342752"><ele>91.2</ele><time>2015-04-26T11:55:10.0000000+00:00</time></trkpt><trkpt lat="35.1430558" lon="32.5343122"><ele>91.6</ele><time>2015-04-26T11:55:11.0000000+00:00</time></trkpt><trkpt lat="35.143021" lon="32.5343558"><ele>90.8</ele><time>2015-04-26T11:55:12.0000000+00:00</time></trkpt><trkpt lat="35.1429871" lon="32.534399"><ele>90.3</ele><time>2015-04-26T11:55:13.0000000+00:00</time></trkpt><trkpt lat="35.1429422" lon="32.5344799"><ele>88.3</ele><time>2015-04-26T11:55:15.0000000+00:00</time></trkpt><trkpt lat="35.1429227" lon="32.5345308"><ele>87.6</ele><time>2015-04-26T11:55:16.0000000+00:00</time></trkpt><trkpt lat="35.1429091" lon="32.5345901"><ele>87.3</ele><time>2015-04-26T11:55:17.0000000+00:00</time></trkpt><trkpt lat="35.1429003" lon="32.5347006"><ele>87.0</ele><time>2015-04-26T11:55:19.0000000+00:00</time></trkpt><trkpt lat="35.1429185" lon="32.5347979"><ele>85.7</ele><time>2015-04-26T11:55:21.0000000+00:00</time></trkpt><trkpt lat="35.142932" lon="32.5348508"><ele>84.8</ele><time>2015-04-26T11:55:22.0000000+00:00</time></trkpt><trkpt lat="35.1429619" lon="32.5349009"><ele>83.9</ele><time>2015-04-26T11:55:23.0000000+00:00</time></trkpt><trkpt lat="35.1429999" lon="32.5349466"><ele>82.9</ele><time>2015-04-26T11:55:24.0000000+00:00</time></trkpt><trkpt lat="35.1430407" lon="32.5349781"><ele>82.4</ele><time>2015-04-26T11:55:25.0000000+00:00</time></trkpt><trkpt lat="35.143131" lon="32.5349923"><ele>82.8</ele><time>2015-04-26T11:55:27.0000000+00:00</time></trkpt><trkpt lat="35.1432078" lon="32.5349674"><ele>83.4</ele><time>2015-04-26T11:55:29.0000000+00:00</time></trkpt><trkpt lat="35.1432725" lon="32.5348895"><ele>84.8</ele><time>2015-04-26T11:55:31.0000000+00:00</time></trkpt><trkpt lat="35.1433273" lon="32.5348385"><ele>86.9</ele><time>2015-04-26T11:55:33.0000000+00:00</time></trkpt><trkpt lat="35.1433794" lon="32.5348055"><ele>88.4</ele><time>2015-04-26T11:55:35.0000000+00:00</time></trkpt><trkpt lat="35.1434341" lon="32.5347874"><ele>90.2</ele><time>2015-04-26T11:55:38.0000000+00:00</time></trkpt><trkpt lat="35.1434836" lon="32.5347968"><ele>90.8</ele><time>2015-04-26T11:55:41.0000000+00:00</time></trkpt><trkpt lat="35.1435312" lon="32.5347998"><ele>92.3</ele><time>2015-04-26T11:55:44.0000000+00:00</time></trkpt><trkpt lat="35.1435886" lon="32.5348071"><ele>92.7</ele><time>2015-04-26T11:55:48.0000000+00:00</time></trkpt><trkpt lat="35.1436328" lon="32.5347877"><ele>93.4</ele><time>2015-04-26T11:55:51.0000000+00:00</time></trkpt><trkpt lat="35.1436775" lon="32.5347686"><ele>94.4</ele><time>2015-04-26T11:55:54.0000000+00:00</time></trkpt><trkpt lat="35.1437199" lon="32.5347422"><ele>94.9</ele><time>2015-04-26T11:55:57.0000000+00:00</time></trkpt><trkpt lat="35.1437615" lon="32.5347106"><ele>95.4</ele><time>2015-04-26T11:56:00.0000000+00:00</time></trkpt><trkpt lat="35.1438133" lon="32.534686"><ele>95.4</ele><time>2015-04-26T11:56:03.0000000+00:00</time></trkpt><trkpt lat="35.143858" lon="32.5346701"><ele>95.9</ele><time>2015-04-26T11:56:06.0000000+00:00</time></trkpt><trkpt lat="35.1439051" lon="32.534652"><ele>96.7</ele><time>2015-04-26T11:56:09.0000000+00:00</time></trkpt><trkpt lat="35.1439458" lon="32.534627"><ele>97.4</ele><time>2015-04-26T11:56:11.0000000+00:00</time></trkpt><trkpt lat="35.1439855" lon="32.5346009"><ele>97.3</ele><time>2015-04-26T11:56:13.0000000+00:00</time></trkpt><trkpt lat="35.1440416" lon="32.5345589"><ele>97.5</ele><time>2015-04-26T11:56:16.0000000+00:00</time></trkpt><trkpt lat="35.1440974" lon="32.5345222"><ele>97.7</ele><time>2015-04-26T11:56:19.0000000+00:00</time></trkpt><trkpt lat="35.1441543" lon="32.5344975"><ele>97.9</ele><time>2015-04-26T11:56:22.0000000+00:00</time></trkpt><trkpt lat="35.1442165" lon="32.534477"><ele>98.8</ele><time>2015-04-26T11:56:25.0000000+00:00</time></trkpt><trkpt lat="35.1442792" lon="32.5344539"><ele>99.4</ele><time>2015-04-26T11:56:28.0000000+00:00</time></trkpt><trkpt lat="35.1443325" lon="32.5344181"><ele>100.4</ele><time>2015-04-26T11:56:31.0000000+00:00</time></trkpt><trkpt lat="35.1443778" lon="32.534368"><ele>100.9</ele><time>2015-04-26T11:56:34.0000000+00:00</time></trkpt><trkpt lat="35.1444206" lon="32.5343222"><ele>100.0</ele><time>2015-04-26T11:56:37.0000000+00:00</time></trkpt><trkpt lat="35.1444723" lon="32.5342781"><ele>100.7</ele><time>2015-04-26T11:56:40.0000000+00:00</time></trkpt><trkpt lat="35.144527" lon="32.5342373"><ele>100.9</ele><time>2015-04-26T11:56:43.0000000+00:00</time></trkpt><trkpt lat="35.1445871" lon="32.5341886"><ele>100.9</ele><time>2015-04-26T11:56:46.0000000+00:00</time></trkpt><trkpt lat="35.1446313" lon="32.534151"><ele>100.9</ele><time>2015-04-26T11:56:48.0000000+00:00</time></trkpt><trkpt lat="35.1446752" lon="32.5341102"><ele>100.9</ele><time>2015-04-26T11:56:50.0000000+00:00</time></trkpt><trkpt lat="35.1447203" lon="32.5340675"><ele>100.9</ele><time>2015-04-26T11:56:52.0000000+00:00</time></trkpt><trkpt lat="35.1447653" lon="32.5340197"><ele>101.2</ele><time>2015-04-26T11:56:54.0000000+00:00</time></trkpt><trkpt lat="35.1448162" lon="32.5339548"><ele>101.2</ele><time>2015-04-26T11:56:56.0000000+00:00</time></trkpt><trkpt lat="35.1448814" lon="32.533893"><ele>101.0</ele><time>2015-04-26T11:56:58.0000000+00:00</time></trkpt><trkpt lat="35.1449539" lon="32.533837"><ele>100.9</ele><time>2015-04-26T11:57:00.0000000+00:00</time></trkpt><trkpt lat="35.1450272" lon="32.533788"><ele>100.9</ele><time>2015-04-26T11:57:02.0000000+00:00</time></trkpt><trkpt lat="35.1451065" lon="32.5337545"><ele>100.9</ele><time>2015-04-26T11:57:04.0000000+00:00</time></trkpt><trkpt lat="35.1451918" lon="32.5337475"><ele>100.2</ele><time>2015-04-26T11:57:06.0000000+00:00</time></trkpt><trkpt lat="35.145293" lon="32.5337973"><ele>100.5</ele><time>2015-04-26T11:57:08.0000000+00:00</time></trkpt><trkpt lat="35.1453586" lon="32.5338495"><ele>101.3</ele><time>2015-04-26T11:57:10.0000000+00:00</time></trkpt><trkpt lat="35.1454018" lon="32.5338961"><ele>101.8</ele><time>2015-04-26T11:57:12.0000000+00:00</time></trkpt><trkpt lat="35.1454327" lon="32.5339373"><ele>101.9</ele><time>2015-04-26T11:57:14.0000000+00:00</time></trkpt><trkpt lat="35.1454601" lon="32.5339904"><ele>101.9</ele><time>2015-04-26T11:57:16.0000000+00:00</time></trkpt><trkpt lat="35.1454901" lon="32.5340573"><ele>102.7</ele><time>2015-04-26T11:57:18.0000000+00:00</time></trkpt><trkpt lat="35.1455149" lon="32.5341251"><ele>102.9</ele><time>2015-04-26T11:57:20.0000000+00:00</time></trkpt><trkpt lat="35.1455407" lon="32.5341893"><ele>102.9</ele><time>2015-04-26T11:57:22.0000000+00:00</time></trkpt><trkpt lat="35.1455721" lon="32.5342496"><ele>103.4</ele><time>2015-04-26T11:57:24.0000000+00:00</time></trkpt><trkpt lat="35.1456061" lon="32.534308"><ele>103.8</ele><time>2015-04-26T11:57:26.0000000+00:00</time></trkpt><trkpt lat="35.1456392" lon="32.5343672"><ele>103.4</ele><time>2015-04-26T11:57:28.0000000+00:00</time></trkpt><trkpt lat="35.1456771" lon="32.5344185"><ele>103.0</ele><time>2015-04-26T11:57:30.0000000+00:00</time></trkpt><trkpt lat="35.1457202" lon="32.5344579"><ele>103.0</ele><time>2015-04-26T11:57:32.0000000+00:00</time></trkpt><trkpt lat="35.1457632" lon="32.5344849"><ele>102.9</ele><time>2015-04-26T11:57:36.0000000+00:00</time></trkpt><trkpt lat="35.1458115" lon="32.5345103"><ele>102.3</ele><time>2015-04-26T11:57:45.0000000+00:00</time></trkpt><trkpt lat="35.1458499" lon="32.534545"><ele>102.8</ele><time>2015-04-26T11:57:47.0000000+00:00</time></trkpt><trkpt lat="35.1458955" lon="32.5345858"><ele>103.4</ele><time>2015-04-26T11:57:49.0000000+00:00</time></trkpt><trkpt lat="35.1459346" lon="32.534637"><ele>103.8</ele><time>2015-04-26T11:57:51.0000000+00:00</time></trkpt><trkpt lat="35.1459647" lon="32.5346978"><ele>103.9</ele><time>2015-04-26T11:57:53.0000000+00:00</time></trkpt><trkpt lat="35.1459915" lon="32.5347603"><ele>105.2</ele><time>2015-04-26T11:57:55.0000000+00:00</time></trkpt><trkpt lat="35.1460157" lon="32.5348238"><ele>105.7</ele><time>2015-04-26T11:57:57.0000000+00:00</time></trkpt><trkpt lat="35.1460319" lon="32.5348863"><ele>105.6</ele><time>2015-04-26T11:57:59.0000000+00:00</time></trkpt><trkpt lat="35.146051" lon="32.5349622"><ele>105.9</ele><time>2015-04-26T11:58:02.0000000+00:00</time></trkpt><trkpt lat="35.1460691" lon="32.5350166"><ele>105.9</ele><time>2015-04-26T11:58:04.0000000+00:00</time></trkpt><trkpt lat="35.1460796" lon="32.535075"><ele>106.7</ele><time>2015-04-26T11:58:06.0000000+00:00</time></trkpt><trkpt lat="35.1460778" lon="32.535136"><ele>105.6</ele><time>2015-04-26T11:58:08.0000000+00:00</time></trkpt><trkpt lat="35.1460615" lon="32.5351962"><ele>104.9</ele><time>2015-04-26T11:58:10.0000000+00:00</time></trkpt><trkpt lat="35.1460441" lon="32.535251"><ele>103.2</ele><time>2015-04-26T11:58:12.0000000+00:00</time></trkpt><trkpt lat="35.1460324" lon="32.5353054"><ele>101.0</ele><time>2015-04-26T11:58:14.0000000+00:00</time></trkpt><trkpt lat="35.146022" lon="32.5353728"><ele>99.2</ele><time>2015-04-26T11:58:16.0000000+00:00</time></trkpt><trkpt lat="35.1460257" lon="32.5354537"><ele>97.5</ele><time>2015-04-26T11:58:18.0000000+00:00</time></trkpt><trkpt lat="35.1460503" lon="32.5355291"><ele>97.3</ele><time>2015-04-26T11:58:20.0000000+00:00</time></trkpt><trkpt lat="35.146098" lon="32.5355804"><ele>97.8</ele><time>2015-04-26T11:58:22.0000000+00:00</time></trkpt><trkpt lat="35.1461556" lon="32.5355768"><ele>98.0</ele><time>2015-04-26T11:58:25.0000000+00:00</time></trkpt><trkpt lat="35.1462085" lon="32.5355501"><ele>97.8</ele><time>2015-04-26T11:58:28.0000000+00:00</time></trkpt><trkpt lat="35.1462615" lon="32.5355081"><ele>98.0</ele><time>2015-04-26T11:58:31.0000000+00:00</time></trkpt><trkpt lat="35.1463103" lon="32.5354741"><ele>97.5</ele><time>2015-04-26T11:58:33.0000000+00:00</time></trkpt><trkpt lat="35.1463662" lon="32.5354482"><ele>97.6</ele><time>2015-04-26T11:58:35.0000000+00:00</time></trkpt><trkpt lat="35.1464198" lon="32.5354288"><ele>97.8</ele><time>2015-04-26T11:58:37.0000000+00:00</time></trkpt><trkpt lat="35.1464748" lon="32.5354174"><ele>97.7</ele><time>2015-04-26T11:58:39.0000000+00:00</time></trkpt><trkpt lat="35.1465293" lon="32.5353986"><ele>98.4</ele><time>2015-04-26T11:58:41.0000000+00:00</time></trkpt><trkpt lat="35.146581" lon="32.5353854"><ele>98.3</ele><time>2015-04-26T11:58:43.0000000+00:00</time></trkpt><trkpt lat="35.1466312" lon="32.535394"><ele>99.3</ele><time>2015-04-26T11:58:45.0000000+00:00</time></trkpt><trkpt lat="35.1466692" lon="32.5354298"><ele>99.5</ele><time>2015-04-26T11:58:47.0000000+00:00</time></trkpt><trkpt lat="35.1466892" lon="32.5354834"><ele>99.8</ele><time>2015-04-26T11:58:49.0000000+00:00</time></trkpt><trkpt lat="35.1467004" lon="32.5355411"><ele>99.9</ele><time>2015-04-26T11:58:51.0000000+00:00</time></trkpt><trkpt lat="35.1467033" lon="32.535599"><ele>100.7</ele><time>2015-04-26T11:58:53.0000000+00:00</time></trkpt><trkpt lat="35.1467014" lon="32.5356557"><ele>100.4</ele><time>2015-04-26T11:58:55.0000000+00:00</time></trkpt><trkpt lat="35.1467047" lon="32.5357132"><ele>100.0</ele><time>2015-04-26T11:58:57.0000000+00:00</time></trkpt><trkpt lat="35.1467047" lon="32.535774"><ele>100.0</ele><time>2015-04-26T11:58:59.0000000+00:00</time></trkpt><trkpt lat="35.1467138" lon="32.5358466"><ele>100.4</ele><time>2015-04-26T11:59:01.0000000+00:00</time></trkpt><trkpt lat="35.146725" lon="32.535923"><ele>100.1</ele><time>2015-04-26T11:59:03.0000000+00:00</time></trkpt><trkpt lat="35.1467367" lon="32.5359997"><ele>100.2</ele><time>2015-04-26T11:59:05.0000000+00:00</time></trkpt><trkpt lat="35.1467459" lon="32.5360733"><ele>99.3</ele><time>2015-04-26T11:59:07.0000000+00:00</time></trkpt><trkpt lat="35.1467435" lon="32.5361349"><ele>98.5</ele><time>2015-04-26T11:59:09.0000000+00:00</time></trkpt><trkpt lat="35.1467263" lon="32.5361887"><ele>98.1</ele><time>2015-04-26T11:59:11.0000000+00:00</time></trkpt><trkpt lat="35.1467024" lon="32.5362404"><ele>97.5</ele><time>2015-04-26T11:59:13.0000000+00:00</time></trkpt><trkpt lat="35.1466791" lon="32.5362887"><ele>97.1</ele><time>2015-04-26T11:59:15.0000000+00:00</time></trkpt><trkpt lat="35.146646" lon="32.5363595"><ele>96.4</ele><time>2015-04-26T11:59:18.0000000+00:00</time></trkpt><trkpt lat="35.1466226" lon="32.5364086"><ele>96.1</ele><time>2015-04-26T11:59:20.0000000+00:00</time></trkpt><trkpt lat="35.1466039" lon="32.5364658"><ele>94.7</ele><time>2015-04-26T11:59:22.0000000+00:00</time></trkpt><trkpt lat="35.1466173" lon="32.5365643"><ele>95.4</ele><time>2015-04-26T11:59:24.0000000+00:00</time></trkpt><trkpt lat="35.146691" lon="32.5366215"><ele>95.3</ele><time>2015-04-26T11:59:26.0000000+00:00</time></trkpt><trkpt lat="35.1467372" lon="32.536619"><ele>95.6</ele><time>2015-04-26T11:59:27.0000000+00:00</time></trkpt><trkpt lat="35.1467811" lon="32.5366029"><ele>95.8</ele><time>2015-04-26T11:59:28.0000000+00:00</time></trkpt><trkpt lat="35.1468632" lon="32.5365613"><ele>95.9</ele><time>2015-04-26T11:59:30.0000000+00:00</time></trkpt><trkpt lat="35.146948" lon="32.5365256"><ele>95.9</ele><time>2015-04-26T11:59:32.0000000+00:00</time></trkpt><trkpt lat="35.1470307" lon="32.5365037"><ele>95.9</ele><time>2015-04-26T11:59:34.0000000+00:00</time></trkpt><trkpt lat="35.1471082" lon="32.5364969"><ele>95.4</ele><time>2015-04-26T11:59:36.0000000+00:00</time></trkpt><trkpt lat="35.1471746" lon="32.5364852"><ele>95.6</ele><time>2015-04-26T11:59:38.0000000+00:00</time></trkpt><trkpt lat="35.1472531" lon="32.5364689"><ele>95.1</ele><time>2015-04-26T11:59:40.0000000+00:00</time></trkpt><trkpt lat="35.1473335" lon="32.5364511"><ele>95.5</ele><time>2015-04-26T11:59:42.0000000+00:00</time></trkpt><trkpt lat="35.1474096" lon="32.5364353"><ele>95.8</ele><time>2015-04-26T11:59:44.0000000+00:00</time></trkpt><trkpt lat="35.1474702" lon="32.5364498"><ele>95.9</ele><time>2015-04-26T11:59:47.0000000+00:00</time></trkpt><trkpt lat="35.1475042" lon="32.5365152"><ele>96.8</ele><time>2015-04-26T11:59:50.0000000+00:00</time></trkpt><trkpt lat="35.1475178" lon="32.5365866"><ele>97.9</ele><time>2015-04-26T11:59:52.0000000+00:00</time></trkpt><trkpt lat="35.1475308" lon="32.5366702"><ele>98.7</ele><time>2015-04-26T11:59:54.0000000+00:00</time></trkpt><trkpt lat="35.147542" lon="32.5367598"><ele>99.1</ele><time>2015-04-26T11:59:56.0000000+00:00</time></trkpt><trkpt lat="35.1475552" lon="32.5368471"><ele>99.2</ele><time>2015-04-26T11:59:58.0000000+00:00</time></trkpt><trkpt lat="35.1475718" lon="32.5369322"><ele>99.0</ele><time>2015-04-26T12:00:00.0000000+00:00</time></trkpt><trkpt lat="35.1475872" lon="32.5370176"><ele>98.9</ele><time>2015-04-26T12:00:02.0000000+00:00</time></trkpt><trkpt lat="35.1476028" lon="32.5371015"><ele>99.4</ele><time>2015-04-26T12:00:04.0000000+00:00</time></trkpt><trkpt lat="35.1476187" lon="32.5371811"><ele>99.8</ele><time>2015-04-26T12:00:06.0000000+00:00</time></trkpt><trkpt lat="35.1476345" lon="32.5372506"><ele>99.9</ele><time>2015-04-26T12:00:08.0000000+00:00</time></trkpt><trkpt lat="35.147651" lon="32.5373195"><ele>99.9</ele><time>2015-04-26T12:00:10.0000000+00:00</time></trkpt><trkpt lat="35.1476651" lon="32.5373933"><ele>100.7</ele><time>2015-04-26T12:00:12.0000000+00:00</time></trkpt><trkpt lat="35.1476756" lon="32.5374682"><ele>100.9</ele><time>2015-04-26T12:00:14.0000000+00:00</time></trkpt><trkpt lat="35.147684" lon="32.537541"><ele>100.2</ele><time>2015-04-26T12:00:16.0000000+00:00</time></trkpt><trkpt lat="35.1476922" lon="32.5376115"><ele>100.0</ele><time>2015-04-26T12:00:18.0000000+00:00</time></trkpt><trkpt lat="35.147702" lon="32.5376801"><ele>99.4</ele><time>2015-04-26T12:00:20.0000000+00:00</time></trkpt><trkpt lat="35.1477119" lon="32.5377481"><ele>99.1</ele><time>2015-04-26T12:00:22.0000000+00:00</time></trkpt><trkpt lat="35.1477232" lon="32.537813"><ele>99.0</ele><time>2015-04-26T12:00:24.0000000+00:00</time></trkpt><trkpt lat="35.1477332" lon="32.5378856"><ele>98.1</ele><time>2015-04-26T12:00:27.0000000+00:00</time></trkpt><trkpt lat="35.1477316" lon="32.5379497"><ele>97.4</ele><time>2015-04-26T12:00:30.0000000+00:00</time></trkpt><trkpt lat="35.1477276" lon="32.5380266"><ele>97.9</ele><time>2015-04-26T12:00:33.0000000+00:00</time></trkpt><trkpt lat="35.1477328" lon="32.5380947"><ele>98.4</ele><time>2015-04-26T12:00:35.0000000+00:00</time></trkpt><trkpt lat="35.1477444" lon="32.5381611"><ele>98.6</ele><time>2015-04-26T12:00:37.0000000+00:00</time></trkpt><trkpt lat="35.1477589" lon="32.538228"><ele>98.8</ele><time>2015-04-26T12:00:39.0000000+00:00</time></trkpt><trkpt lat="35.1477848" lon="32.53829"><ele>98.9</ele><time>2015-04-26T12:00:41.0000000+00:00</time></trkpt><trkpt lat="35.1478164" lon="32.5383487"><ele>98.9</ele><time>2015-04-26T12:00:43.0000000+00:00</time></trkpt><trkpt lat="35.1478474" lon="32.5384129"><ele>99.2</ele><time>2015-04-26T12:00:45.0000000+00:00</time></trkpt><trkpt lat="35.1478766" lon="32.538512"><ele>99.0</ele><time>2015-04-26T12:00:47.0000000+00:00</time></trkpt><trkpt lat="35.1479082" lon="32.5386112"><ele>98.9</ele><time>2015-04-26T12:00:49.0000000+00:00</time></trkpt><trkpt lat="35.1479331" lon="32.5386729"><ele>98.9</ele><time>2015-04-26T12:00:50.0000000+00:00</time></trkpt><trkpt lat="35.1479577" lon="32.5387205"><ele>98.9</ele><time>2015-04-26T12:00:51.0000000+00:00</time></trkpt><trkpt lat="35.1480126" lon="32.5387943"><ele>100.2</ele><time>2015-04-26T12:00:53.0000000+00:00</time></trkpt><trkpt lat="35.1480509" lon="32.5388533"><ele>101.0</ele><time>2015-04-26T12:00:55.0000000+00:00</time></trkpt><trkpt lat="35.1480892" lon="32.5389139"><ele>101.7</ele><time>2015-04-26T12:00:57.0000000+00:00</time></trkpt><trkpt lat="35.1481298" lon="32.5389878"><ele>102.6</ele><time>2015-04-26T12:00:59.0000000+00:00</time></trkpt><trkpt lat="35.1481721" lon="32.5390691"><ele>103.4</ele><time>2015-04-26T12:01:01.0000000+00:00</time></trkpt><trkpt lat="35.1482085" lon="32.539152"><ele>104.3</ele><time>2015-04-26T12:01:03.0000000+00:00</time></trkpt><trkpt lat="35.1482461" lon="32.5392415"><ele>104.8</ele><time>2015-04-26T12:01:05.0000000+00:00</time></trkpt><trkpt lat="35.1482822" lon="32.5393311"><ele>105.6</ele><time>2015-04-26T12:01:07.0000000+00:00</time></trkpt><trkpt lat="35.1483032" lon="32.5394204"><ele>105.6</ele><time>2015-04-26T12:01:09.0000000+00:00</time></trkpt><trkpt lat="35.1482994" lon="32.5394966"><ele>105.3</ele><time>2015-04-26T12:01:11.0000000+00:00</time></trkpt><trkpt lat="35.148288" lon="32.5395783"><ele>104.5</ele><time>2015-04-26T12:01:13.0000000+00:00</time></trkpt><trkpt lat="35.1482771" lon="32.5396604"><ele>103.3</ele><time>2015-04-26T12:01:15.0000000+00:00</time></trkpt><trkpt lat="35.1482762" lon="32.5397513"><ele>103.0</ele><time>2015-04-26T12:01:17.0000000+00:00</time></trkpt><trkpt lat="35.148299" lon="32.5398529"><ele>103.0</ele><time>2015-04-26T12:01:19.0000000+00:00</time></trkpt><trkpt lat="35.1483481" lon="32.539937"><ele>102.9</ele><time>2015-04-26T12:01:21.0000000+00:00</time></trkpt><trkpt lat="35.1484232" lon="32.5399878"><ele>103.7</ele><time>2015-04-26T12:01:23.0000000+00:00</time></trkpt><trkpt lat="35.1485032" lon="32.5400222"><ele>104.1</ele><time>2015-04-26T12:01:25.0000000+00:00</time></trkpt><trkpt lat="35.1485835" lon="32.540054"><ele>105.2</ele><time>2015-04-26T12:01:27.0000000+00:00</time></trkpt><trkpt lat="35.1486595" lon="32.540083"><ele>105.8</ele><time>2015-04-26T12:01:29.0000000+00:00</time></trkpt><trkpt lat="35.1487252" lon="32.5401381"><ele>106.4</ele><time>2015-04-26T12:01:31.0000000+00:00</time></trkpt><trkpt lat="35.1487518" lon="32.5402023"><ele>106.7</ele><time>2015-04-26T12:01:32.0000000+00:00</time></trkpt><trkpt lat="35.1487785" lon="32.5402469"><ele>107.3</ele><time>2015-04-26T12:01:33.0000000+00:00</time></trkpt><trkpt lat="35.1488084" lon="32.5402954"><ele>107.6</ele><time>2015-04-26T12:01:34.0000000+00:00</time></trkpt><trkpt lat="35.1488382" lon="32.540338"><ele>108.3</ele><time>2015-04-26T12:01:35.0000000+00:00</time></trkpt><trkpt lat="35.1488778" lon="32.5404288"><ele>108.3</ele><time>2015-04-26T12:01:37.0000000+00:00</time></trkpt><trkpt lat="35.1488987" lon="32.5405128"><ele>108.8</ele><time>2015-04-26T12:01:39.0000000+00:00</time></trkpt><trkpt lat="35.1489218" lon="32.5406133"><ele>107.9</ele><time>2015-04-26T12:01:41.0000000+00:00</time></trkpt><trkpt lat="35.1489397" lon="32.5407108"><ele>107.2</ele><time>2015-04-26T12:01:43.0000000+00:00</time></trkpt><trkpt lat="35.1489441" lon="32.5408033"><ele>105.7</ele><time>2015-04-26T12:01:45.0000000+00:00</time></trkpt><trkpt lat="35.1489183" lon="32.540887"><ele>105.1</ele><time>2015-04-26T12:01:47.0000000+00:00</time></trkpt><trkpt lat="35.1488795" lon="32.54097"><ele>104.7</ele><time>2015-04-26T12:01:49.0000000+00:00</time></trkpt><trkpt lat="35.1488412" lon="32.5410712"><ele>104.9</ele><time>2015-04-26T12:01:51.0000000+00:00</time></trkpt><trkpt lat="35.1488421" lon="32.54113"><ele>104.4</ele><time>2015-04-26T12:01:52.0000000+00:00</time></trkpt><trkpt lat="35.1488869" lon="32.541219"><ele>104.3</ele><time>2015-04-26T12:01:54.0000000+00:00</time></trkpt><trkpt lat="35.1489197" lon="32.5412606"><ele>103.6</ele><time>2015-04-26T12:01:55.0000000+00:00</time></trkpt><trkpt lat="35.1489578" lon="32.5412922"><ele>103.3</ele><time>2015-04-26T12:01:56.0000000+00:00</time></trkpt><trkpt lat="35.1490004" lon="32.5413122"><ele>103.1</ele><time>2015-04-26T12:01:57.0000000+00:00</time></trkpt><trkpt lat="35.1490501" lon="32.5413261"><ele>103.5</ele><time>2015-04-26T12:01:58.0000000+00:00</time></trkpt><trkpt lat="35.1490952" lon="32.541327"><ele>103.2</ele><time>2015-04-26T12:01:59.0000000+00:00</time></trkpt><trkpt lat="35.1491427" lon="32.541324"><ele>103.1</ele><time>2015-04-26T12:02:00.0000000+00:00</time></trkpt><trkpt lat="35.1491893" lon="32.5413194"><ele>103.0</ele><time>2015-04-26T12:02:01.0000000+00:00</time></trkpt><trkpt lat="35.1492682" lon="32.5413277"><ele>102.2</ele><time>2015-04-26T12:02:03.0000000+00:00</time></trkpt><trkpt lat="35.149345" lon="32.5413514"><ele>102.2</ele><time>2015-04-26T12:02:05.0000000+00:00</time></trkpt><trkpt lat="35.1493966" lon="32.5414042"><ele>102.3</ele><time>2015-04-26T12:02:07.0000000+00:00</time></trkpt><trkpt lat="35.1494196" lon="32.5414855"><ele>102.0</ele><time>2015-04-26T12:02:09.0000000+00:00</time></trkpt><trkpt lat="35.1494188" lon="32.5415797"><ele>101.2</ele><time>2015-04-26T12:02:11.0000000+00:00</time></trkpt><trkpt lat="35.1494102" lon="32.5416793"><ele>99.7</ele><time>2015-04-26T12:02:13.0000000+00:00</time></trkpt><trkpt lat="35.1494029" lon="32.5417339"><ele>99.3</ele><time>2015-04-26T12:02:14.0000000+00:00</time></trkpt><trkpt lat="35.1493995" lon="32.54179"><ele>99.6</ele><time>2015-04-26T12:02:15.0000000+00:00</time></trkpt><trkpt lat="35.1494127" lon="32.5418508"><ele>99.8</ele><time>2015-04-26T12:02:16.0000000+00:00</time></trkpt><trkpt lat="35.1494694" lon="32.5419228"><ele>99.9</ele><time>2015-04-26T12:02:18.0000000+00:00</time></trkpt><trkpt lat="35.1495473" lon="32.5419357"><ele>99.7</ele><time>2015-04-26T12:02:20.0000000+00:00</time></trkpt><trkpt lat="35.1495925" lon="32.54193"><ele>100.3</ele><time>2015-04-26T12:02:21.0000000+00:00</time></trkpt><trkpt lat="35.149676" lon="32.5419042"><ele>100.8</ele><time>2015-04-26T12:02:23.0000000+00:00</time></trkpt><trkpt lat="35.1497463" lon="32.5418899"><ele>100.9</ele><time>2015-04-26T12:02:25.0000000+00:00</time></trkpt><trkpt lat="35.1498297" lon="32.5418766"><ele>100.2</ele><time>2015-04-26T12:02:27.0000000+00:00</time></trkpt><trkpt lat="35.149907" lon="32.5418771"><ele>100.0</ele><time>2015-04-26T12:02:29.0000000+00:00</time></trkpt><trkpt lat="35.1499609" lon="32.5419106"><ele>99.9</ele><time>2015-04-26T12:02:31.0000000+00:00</time></trkpt><trkpt lat="35.1499844" lon="32.5419712"><ele>99.9</ele><time>2015-04-26T12:02:34.0000000+00:00</time></trkpt><trkpt lat="35.1499692" lon="32.5420234"><ele>99.4</ele><time>2015-04-26T12:02:37.0000000+00:00</time></trkpt><trkpt lat="35.1499283" lon="32.5420616"><ele>99.1</ele><time>2015-04-26T12:02:39.0000000+00:00</time></trkpt><trkpt lat="35.149882" lon="32.5420992"><ele>99.0</ele><time>2015-04-26T12:02:41.0000000+00:00</time></trkpt><trkpt lat="35.1498362" lon="32.542134"><ele>99.2</ele><time>2015-04-26T12:02:43.0000000+00:00</time></trkpt><trkpt lat="35.1497951" lon="32.5421727"><ele>99.5</ele><time>2015-04-26T12:02:45.0000000+00:00</time></trkpt><trkpt lat="35.1497586" lon="32.5422078"><ele>99.8</ele><time>2015-04-26T12:02:47.0000000+00:00</time></trkpt><trkpt lat="35.1497104" lon="32.542268"><ele>99.5</ele><time>2015-04-26T12:02:50.0000000+00:00</time></trkpt><trkpt lat="35.1496706" lon="32.542316"><ele>98.6</ele><time>2015-04-26T12:02:52.0000000+00:00</time></trkpt><trkpt lat="35.1496268" lon="32.5423685"><ele>97.8</ele><time>2015-04-26T12:02:54.0000000+00:00</time></trkpt><trkpt lat="35.1495813" lon="32.5424244"><ele>97.2</ele><time>2015-04-26T12:02:56.0000000+00:00</time></trkpt><trkpt lat="35.1495263" lon="32.5424897"><ele>97.0</ele><time>2015-04-26T12:02:58.0000000+00:00</time></trkpt><trkpt lat="35.1494693" lon="32.5425551"><ele>96.2</ele><time>2015-04-26T12:03:00.0000000+00:00</time></trkpt><trkpt lat="35.1494374" lon="32.5425966"><ele>96.1</ele><time>2015-04-26T12:03:01.0000000+00:00</time></trkpt><trkpt lat="35.149407" lon="32.5426466"><ele>96.0</ele><time>2015-04-26T12:03:02.0000000+00:00</time></trkpt><trkpt lat="35.1494006" lon="32.542715"><ele>96.0</ele><time>2015-04-26T12:03:03.0000000+00:00</time></trkpt><trkpt lat="35.1493979" lon="32.5427884"><ele>95.9</ele><time>2015-04-26T12:03:05.0000000+00:00</time></trkpt><trkpt lat="35.1494006" lon="32.5428509"><ele>96.2</ele><time>2015-04-26T12:03:07.0000000+00:00</time></trkpt><trkpt lat="35.1494105" lon="32.5429267"><ele>96.5</ele><time>2015-04-26T12:03:09.0000000+00:00</time></trkpt><trkpt lat="35.1494474" lon="32.5430066"><ele>96.3</ele><time>2015-04-26T12:03:11.0000000+00:00</time></trkpt><trkpt lat="35.1495041" lon="32.5430643"><ele>95.5</ele><time>2015-04-26T12:03:13.0000000+00:00</time></trkpt><trkpt lat="35.1495656" lon="32.5430865"><ele>95.8</ele><time>2015-04-26T12:03:15.0000000+00:00</time></trkpt><trkpt lat="35.1496269" lon="32.5430855"><ele>95.9</ele><time>2015-04-26T12:03:17.0000000+00:00</time></trkpt><trkpt lat="35.1496779" lon="32.5430564"><ele>96.7</ele><time>2015-04-26T12:03:19.0000000+00:00</time></trkpt><trkpt lat="35.1497207" lon="32.543017"><ele>97.4</ele><time>2015-04-26T12:03:21.0000000+00:00</time></trkpt><trkpt lat="35.1497592" lon="32.5429767"><ele>97.8</ele><time>2015-04-26T12:03:23.0000000+00:00</time></trkpt><trkpt lat="35.1497993" lon="32.542934"><ele>98.6</ele><time>2015-04-26T12:03:25.0000000+00:00</time></trkpt><trkpt lat="35.1498434" lon="32.5428939"><ele>98.9</ele><time>2015-04-26T12:03:27.0000000+00:00</time></trkpt><trkpt lat="35.1498956" lon="32.5428666"><ele>98.9</ele><time>2015-04-26T12:03:29.0000000+00:00</time></trkpt><trkpt lat="35.1499755" lon="32.5428465"><ele>98.9</ele><time>2015-04-26T12:03:31.0000000+00:00</time></trkpt><trkpt lat="35.1500614" lon="32.5428317"><ele>99.7</ele><time>2015-04-26T12:03:33.0000000+00:00</time></trkpt><trkpt lat="35.1501431" lon="32.5428108"><ele>100.4</ele><time>2015-04-26T12:03:35.0000000+00:00</time></trkpt><trkpt lat="35.1502158" lon="32.5427939"><ele>100.8</ele><time>2015-04-26T12:03:37.0000000+00:00</time></trkpt><trkpt lat="35.1502786" lon="32.5427819"><ele>101.4</ele><time>2015-04-26T12:03:39.0000000+00:00</time></trkpt><trkpt lat="35.1503369" lon="32.5427868"><ele>101.8</ele><time>2015-04-26T12:03:41.0000000+00:00</time></trkpt><trkpt lat="35.1503874" lon="32.5428217"><ele>102.6</ele><time>2015-04-26T12:03:43.0000000+00:00</time></trkpt><trkpt lat="35.1504322" lon="32.5428676"><ele>103.4</ele><time>2015-04-26T12:03:45.0000000+00:00</time></trkpt><trkpt lat="35.1504679" lon="32.5429165"><ele>103.8</ele><time>2015-04-26T12:03:47.0000000+00:00</time></trkpt><trkpt lat="35.1504922" lon="32.542963"><ele>103.9</ele><time>2015-04-26T12:03:49.0000000+00:00</time></trkpt><trkpt lat="35.1505254" lon="32.543019"><ele>103.9</ele><time>2015-04-26T12:03:52.0000000+00:00</time></trkpt><trkpt lat="35.1505711" lon="32.5430972"><ele>103.9</ele><time>2015-04-26T12:03:55.0000000+00:00</time></trkpt><trkpt lat="35.1506124" lon="32.5431708"><ele>103.4</ele><time>2015-04-26T12:03:57.0000000+00:00</time></trkpt><trkpt lat="35.1506447" lon="32.5432498"><ele>103.1</ele><time>2015-04-26T12:03:59.0000000+00:00</time></trkpt><trkpt lat="35.1506561" lon="32.5433341"><ele>103.0</ele><time>2015-04-26T12:04:01.0000000+00:00</time></trkpt><trkpt lat="35.1506415" lon="32.5434106"><ele>102.9</ele><time>2015-04-26T12:04:03.0000000+00:00</time></trkpt><trkpt lat="35.1506073" lon="32.5434834"><ele>101.7</ele><time>2015-04-26T12:04:05.0000000+00:00</time></trkpt><trkpt lat="35.1505614" lon="32.5435541"><ele>101.1</ele><time>2015-04-26T12:04:07.0000000+00:00</time></trkpt><trkpt lat="35.1505248" lon="32.5436324"><ele>101.0</ele><time>2015-04-26T12:04:09.0000000+00:00</time></trkpt><trkpt lat="35.1505095" lon="32.5437153"><ele>100.2</ele><time>2015-04-26T12:04:11.0000000+00:00</time></trkpt><trkpt lat="35.1505204" lon="32.5437998"><ele>100.0</ele><time>2015-04-26T12:04:13.0000000+00:00</time></trkpt><trkpt lat="35.1505548" lon="32.543876"><ele>100.7</ele><time>2015-04-26T12:04:15.0000000+00:00</time></trkpt><trkpt lat="35.1505938" lon="32.5439411"><ele>101.1</ele><time>2015-04-26T12:04:17.0000000+00:00</time></trkpt><trkpt lat="35.1506319" lon="32.5439968"><ele>100.8</ele><time>2015-04-26T12:04:20.0000000+00:00</time></trkpt><trkpt lat="35.1506659" lon="32.5440544"><ele>100.0</ele><time>2015-04-26T12:04:23.0000000+00:00</time></trkpt><trkpt lat="35.1507142" lon="32.5441101"><ele>100.4</ele><time>2015-04-26T12:04:26.0000000+00:00</time></trkpt><trkpt lat="35.1507583" lon="32.5441301"><ele>100.8</ele><time>2015-04-26T12:04:28.0000000+00:00</time></trkpt><trkpt lat="35.1508055" lon="32.5441422"><ele>100.9</ele><time>2015-04-26T12:04:30.0000000+00:00</time></trkpt><trkpt lat="35.1508557" lon="32.5441547"><ele>101.4</ele><time>2015-04-26T12:04:32.0000000+00:00</time></trkpt><trkpt lat="35.1509079" lon="32.5441903"><ele>101.8</ele><time>2015-04-26T12:04:34.0000000+00:00</time></trkpt><trkpt lat="35.1509488" lon="32.5442365"><ele>101.9</ele><time>2015-04-26T12:04:36.0000000+00:00</time></trkpt><trkpt lat="35.1509641" lon="32.5442967"><ele>102.7</ele><time>2015-04-26T12:04:38.0000000+00:00</time></trkpt><trkpt lat="35.1509586" lon="32.5443629"><ele>102.4</ele><time>2015-04-26T12:04:40.0000000+00:00</time></trkpt><trkpt lat="35.1509526" lon="32.5444444"><ele>101.3</ele><time>2015-04-26T12:04:42.0000000+00:00</time></trkpt><trkpt lat="35.1509697" lon="32.5445356"><ele>101.0</ele><time>2015-04-26T12:04:44.0000000+00:00</time></trkpt><trkpt lat="35.1510172" lon="32.544614"><ele>100.7</ele><time>2015-04-26T12:04:46.0000000+00:00</time></trkpt><trkpt lat="35.1510812" lon="32.5446666"><ele>100.9</ele><time>2015-04-26T12:04:48.0000000+00:00</time></trkpt><trkpt lat="35.1511406" lon="32.5447098"><ele>100.9</ele><time>2015-04-26T12:04:50.0000000+00:00</time></trkpt><trkpt lat="35.1511976" lon="32.5447671"><ele>101.7</ele><time>2015-04-26T12:04:52.0000000+00:00</time></trkpt><trkpt lat="35.1512554" lon="32.544828"><ele>101.9</ele><time>2015-04-26T12:04:54.0000000+00:00</time></trkpt><trkpt lat="35.1513165" lon="32.5448786"><ele>102.7</ele><time>2015-04-26T12:04:56.0000000+00:00</time></trkpt><trkpt lat="35.1513821" lon="32.5449164"><ele>102.9</ele><time>2015-04-26T12:04:58.0000000+00:00</time></trkpt><trkpt lat="35.1514512" lon="32.544949"><ele>103.4</ele><time>2015-04-26T12:05:00.0000000+00:00</time></trkpt><trkpt lat="35.1515193" lon="32.5449778"><ele>103.6</ele><time>2015-04-26T12:05:02.0000000+00:00</time></trkpt><trkpt lat="35.1515845" lon="32.5450077"><ele>103.8</ele><time>2015-04-26T12:05:04.0000000+00:00</time></trkpt><trkpt lat="35.1516504" lon="32.5450354"><ele>104.7</ele><time>2015-04-26T12:05:06.0000000+00:00</time></trkpt><trkpt lat="35.1517147" lon="32.5450675"><ele>104.9</ele><time>2015-04-26T12:05:08.0000000+00:00</time></trkpt><trkpt lat="35.1517847" lon="32.545085"><ele>104.9</ele><time>2015-04-26T12:05:10.0000000+00:00</time></trkpt><trkpt lat="35.1518626" lon="32.5450749"><ele>105.4</ele><time>2015-04-26T12:05:12.0000000+00:00</time></trkpt><trkpt lat="35.1519384" lon="32.5450466"><ele>105.3</ele><time>2015-04-26T12:05:14.0000000+00:00</time></trkpt><trkpt lat="35.1520135" lon="32.5450211"><ele>105.8</ele><time>2015-04-26T12:05:16.0000000+00:00</time></trkpt><trkpt lat="35.1520906" lon="32.5450088"><ele>105.9</ele><time>2015-04-26T12:05:18.0000000+00:00</time></trkpt><trkpt lat="35.152163" lon="32.5450022"><ele>105.9</ele><time>2015-04-26T12:05:20.0000000+00:00</time></trkpt><trkpt lat="35.1522182" lon="32.5449978"><ele>105.4</ele><time>2015-04-26T12:05:22.0000000+00:00</time></trkpt><trkpt lat="35.1522642" lon="32.5449877"><ele>106.4</ele><time>2015-04-26T12:05:37.0000000+00:00</time></trkpt><trkpt lat="35.1523196" lon="32.5449814"><ele>109.2</ele><time>2015-04-26T12:07:31.0000000+00:00</time></trkpt><trkpt lat="35.1523644" lon="32.5449718"><ele>107.5</ele><time>2015-04-26T12:07:35.0000000+00:00</time></trkpt><trkpt lat="35.152429" lon="32.5449618"><ele>106.8</ele><time>2015-04-26T12:07:38.0000000+00:00</time></trkpt><trkpt lat="35.1524751" lon="32.5449658"><ele>106.1</ele><time>2015-04-26T12:07:40.0000000+00:00</time></trkpt><trkpt lat="35.1525175" lon="32.5449869"><ele>106.7</ele><time>2015-04-26T12:07:42.0000000+00:00</time></trkpt><trkpt lat="35.1525607" lon="32.5450452"><ele>106.0</ele><time>2015-04-26T12:07:45.0000000+00:00</time></trkpt><trkpt lat="35.1525736" lon="32.5451243"><ele>105.2</ele><time>2015-04-26T12:07:48.0000000+00:00</time></trkpt><trkpt lat="35.1525579" lon="32.5452019"><ele>104.1</ele><time>2015-04-26T12:07:51.0000000+00:00</time></trkpt><trkpt lat="35.1525242" lon="32.545261"><ele>103.1</ele><time>2015-04-26T12:07:54.0000000+00:00</time></trkpt><trkpt lat="35.1524832" lon="32.5453031"><ele>102.2</ele><time>2015-04-26T12:07:57.0000000+00:00</time></trkpt><trkpt lat="35.1524324" lon="32.5453362"><ele>101.4</ele><time>2015-04-26T12:08:01.0000000+00:00</time></trkpt><trkpt lat="35.1523713" lon="32.5453843"><ele>100.7</ele><time>2015-04-26T12:08:04.0000000+00:00</time></trkpt><trkpt lat="35.1523116" lon="32.5454405"><ele>99.6</ele><time>2015-04-26T12:08:06.0000000+00:00</time></trkpt><trkpt lat="35.1522508" lon="32.5454922"><ele>99.1</ele><time>2015-04-26T12:08:08.0000000+00:00</time></trkpt><trkpt lat="35.1521874" lon="32.5455467"><ele>99.5</ele><time>2015-04-26T12:08:10.0000000+00:00</time></trkpt><trkpt lat="35.1521104" lon="32.545621"><ele>99.8</ele><time>2015-04-26T12:08:12.0000000+00:00</time></trkpt><trkpt lat="35.1520407" lon="32.5456805"><ele>99.4</ele><time>2015-04-26T12:08:14.0000000+00:00</time></trkpt><trkpt lat="35.151986" lon="32.5457472"><ele>99.0</ele><time>2015-04-26T12:08:16.0000000+00:00</time></trkpt><trkpt lat="35.1519323" lon="32.5458172"><ele>99.0</ele><time>2015-04-26T12:08:18.0000000+00:00</time></trkpt><trkpt lat="35.1518918" lon="32.5459024"><ele>98.9</ele><time>2015-04-26T12:08:20.0000000+00:00</time></trkpt><trkpt lat="35.1518774" lon="32.5459642"><ele>98.9</ele><time>2015-04-26T12:08:21.0000000+00:00</time></trkpt><trkpt lat="35.1519191" lon="32.5460401"><ele>98.4</ele><time>2015-04-26T12:08:23.0000000+00:00</time></trkpt><trkpt lat="35.1519636" lon="32.5460503"><ele>99.7</ele><time>2015-04-26T12:08:24.0000000+00:00</time></trkpt><trkpt lat="35.1520244" lon="32.5460396"><ele>99.9</ele><time>2015-04-26T12:08:26.0000000+00:00</time></trkpt><trkpt lat="35.1520917" lon="32.5460258"><ele>99.9</ele><time>2015-04-26T12:08:28.0000000+00:00</time></trkpt><trkpt lat="35.1521402" lon="32.5460045"><ele>100.7</ele><time>2015-04-26T12:08:30.0000000+00:00</time></trkpt><trkpt lat="35.1522093" lon="32.5459919"><ele>100.9</ele><time>2015-04-26T12:08:32.0000000+00:00</time></trkpt><trkpt lat="35.1522747" lon="32.5459816"><ele>100.2</ele><time>2015-04-26T12:08:34.0000000+00:00</time></trkpt><trkpt lat="35.1523406" lon="32.5459798"><ele>100.2</ele><time>2015-04-26T12:08:36.0000000+00:00</time></trkpt><trkpt lat="35.152405" lon="32.5459843"><ele>100.8</ele><time>2015-04-26T12:08:38.0000000+00:00</time></trkpt><trkpt lat="35.1524654" lon="32.5459929"><ele>100.9</ele><time>2015-04-26T12:08:40.0000000+00:00</time></trkpt><trkpt lat="35.1525298" lon="32.5459974"><ele>101.4</ele><time>2015-04-26T12:08:42.0000000+00:00</time></trkpt><trkpt lat="35.1526091" lon="32.5460014"><ele>101.3</ele><time>2015-04-26T12:08:44.0000000+00:00</time></trkpt><trkpt lat="35.1526947" lon="32.5460035"><ele>101.8</ele><time>2015-04-26T12:08:46.0000000+00:00</time></trkpt><trkpt lat="35.15278" lon="32.5460085"><ele>101.9</ele><time>2015-04-26T12:08:48.0000000+00:00</time></trkpt><trkpt lat="35.1528606" lon="32.5460133"><ele>101.9</ele><time>2015-04-26T12:08:50.0000000+00:00</time></trkpt><trkpt lat="35.1529252" lon="32.5460444"><ele>102.7</ele><time>2015-04-26T12:08:52.0000000+00:00</time></trkpt><trkpt lat="35.1529605" lon="32.5461152"><ele>102.9</ele><time>2015-04-26T12:08:54.0000000+00:00</time></trkpt><trkpt lat="35.1529777" lon="32.5462002"><ele>102.9</ele><time>2015-04-26T12:08:56.0000000+00:00</time></trkpt><trkpt lat="35.1529925" lon="32.5462827"><ele>103.4</ele><time>2015-04-26T12:08:58.0000000+00:00</time></trkpt><trkpt lat="35.1529999" lon="32.5463704"><ele>103.8</ele><time>2015-04-26T12:09:00.0000000+00:00</time></trkpt><trkpt lat="35.1529986" lon="32.546475"><ele>103.9</ele><time>2015-04-26T12:09:02.0000000+00:00</time></trkpt><trkpt lat="35.1530031" lon="32.5465308"><ele>103.9</ele><time>2015-04-26T12:09:03.0000000+00:00</time></trkpt><trkpt lat="35.1530317" lon="32.5466294"><ele>103.2</ele><time>2015-04-26T12:09:05.0000000+00:00</time></trkpt><trkpt lat="35.153091" lon="32.5467"><ele>103.0</ele><time>2015-04-26T12:09:07.0000000+00:00</time></trkpt><trkpt lat="35.153158" lon="32.5467559"><ele>103.4</ele><time>2015-04-26T12:09:09.0000000+00:00</time></trkpt><trkpt lat="35.1532008" lon="32.5468274"><ele>103.8</ele><time>2015-04-26T12:09:11.0000000+00:00</time></trkpt><trkpt lat="35.1532022" lon="32.5469134"><ele>103.9</ele><time>2015-04-26T12:09:13.0000000+00:00</time></trkpt><trkpt lat="35.1531938" lon="32.5469983"><ele>104.4</ele><time>2015-04-26T12:09:15.0000000+00:00</time></trkpt><trkpt lat="35.1531937" lon="32.5470857"><ele>104.1</ele><time>2015-04-26T12:09:17.0000000+00:00</time></trkpt><trkpt lat="35.1532205" lon="32.5471678"><ele>104.0</ele><time>2015-04-26T12:09:19.0000000+00:00</time></trkpt><trkpt lat="35.1532798" lon="32.547237"><ele>103.9</ele><time>2015-04-26T12:09:21.0000000+00:00</time></trkpt><trkpt lat="35.1533555" lon="32.547284"><ele>104.7</ele><time>2015-04-26T12:09:23.0000000+00:00</time></trkpt><trkpt lat="35.153429" lon="32.5473298"><ele>104.9</ele><time>2015-04-26T12:09:25.0000000+00:00</time></trkpt><trkpt lat="35.1534734" lon="32.5474074"><ele>104.9</ele><time>2015-04-26T12:09:27.0000000+00:00</time></trkpt><trkpt lat="35.153488" lon="32.5475043"><ele>105.2</ele><time>2015-04-26T12:09:29.0000000+00:00</time></trkpt><trkpt lat="35.1534954" lon="32.5476045"><ele>105.7</ele><time>2015-04-26T12:09:31.0000000+00:00</time></trkpt><trkpt lat="35.1535066" lon="32.5477067"><ele>105.4</ele><time>2015-04-26T12:09:33.0000000+00:00</time></trkpt><trkpt lat="35.1535332" lon="32.5477645"><ele>105.7</ele><time>2015-04-26T12:09:34.0000000+00:00</time></trkpt><trkpt lat="35.1535802" lon="32.5478425"><ele>105.4</ele><time>2015-04-26T12:09:36.0000000+00:00</time></trkpt><trkpt lat="35.1536268" lon="32.5479094"><ele>105.3</ele><time>2015-04-26T12:09:38.0000000+00:00</time></trkpt><trkpt lat="35.1536906" lon="32.5479761"><ele>105.0</ele><time>2015-04-26T12:09:40.0000000+00:00</time></trkpt><trkpt lat="35.1537725" lon="32.5479986"><ele>105.0</ele><time>2015-04-26T12:09:42.0000000+00:00</time></trkpt><trkpt lat="35.1538581" lon="32.547979"><ele>105.7</ele><time>2015-04-26T12:09:44.0000000+00:00</time></trkpt><trkpt lat="35.1539264" lon="32.5479376"><ele>105.9</ele><time>2015-04-26T12:09:46.0000000+00:00</time></trkpt><trkpt lat="35.1539844" lon="32.5479091"><ele>106.7</ele><time>2015-04-26T12:09:48.0000000+00:00</time></trkpt><trkpt lat="35.1540405" lon="32.5479062"><ele>106.9</ele><time>2015-04-26T12:09:50.0000000+00:00</time></trkpt><trkpt lat="35.1540983" lon="32.5479426"><ele>106.9</ele><time>2015-04-26T12:09:52.0000000+00:00</time></trkpt><trkpt lat="35.1541615" lon="32.5480072"><ele>106.9</ele><time>2015-04-26T12:09:54.0000000+00:00</time></trkpt><trkpt lat="35.1541931" lon="32.5480471"><ele>106.9</ele><time>2015-04-26T12:09:55.0000000+00:00</time></trkpt><trkpt lat="35.1542218" lon="32.5480901"><ele>106.9</ele><time>2015-04-26T12:09:56.0000000+00:00</time></trkpt><trkpt lat="35.1542716" lon="32.5481791"><ele>106.9</ele><time>2015-04-26T12:09:58.0000000+00:00</time></trkpt><trkpt lat="35.1543086" lon="32.5482633"><ele>107.7</ele><time>2015-04-26T12:10:00.0000000+00:00</time></trkpt><trkpt lat="35.1543276" lon="32.5483494"><ele>107.1</ele><time>2015-04-26T12:10:02.0000000+00:00</time></trkpt><trkpt lat="35.1543358" lon="32.5484417"><ele>107.0</ele><time>2015-04-26T12:10:04.0000000+00:00</time></trkpt><trkpt lat="35.1543463" lon="32.5485491"><ele>106.9</ele><time>2015-04-26T12:10:06.0000000+00:00</time></trkpt><trkpt lat="35.1543555" lon="32.5486056"><ele>106.9</ele><time>2015-04-26T12:10:07.0000000+00:00</time></trkpt><trkpt lat="35.154361" lon="32.5486692"><ele>106.9</ele><time>2015-04-26T12:10:08.0000000+00:00</time></trkpt><trkpt lat="35.154379" lon="32.5487608"><ele>106.9</ele><time>2015-04-26T12:10:10.0000000+00:00</time></trkpt><trkpt lat="35.1543918" lon="32.5488484"><ele>106.9</ele><time>2015-04-26T12:10:12.0000000+00:00</time></trkpt><trkpt lat="35.1543872" lon="32.5489345"><ele>106.9</ele><time>2015-04-26T12:10:14.0000000+00:00</time></trkpt><trkpt lat="35.1543906" lon="32.5490308"><ele>106.9</ele><time>2015-04-26T12:10:16.0000000+00:00</time></trkpt><trkpt lat="35.1544121" lon="32.5491217"><ele>106.2</ele><time>2015-04-26T12:10:18.0000000+00:00</time></trkpt><trkpt lat="35.154442" lon="32.5492033"><ele>106.0</ele><time>2015-04-26T12:10:20.0000000+00:00</time></trkpt><trkpt lat="35.1544825" lon="32.5492721"><ele>105.4</ele><time>2015-04-26T12:10:22.0000000+00:00</time></trkpt><trkpt lat="35.1545407" lon="32.5492813"><ele>105.1</ele><time>2015-04-26T12:10:24.0000000+00:00</time></trkpt><trkpt lat="35.1545826" lon="32.5492299"><ele>104.7</ele><time>2015-04-26T12:10:26.0000000+00:00</time></trkpt><trkpt lat="35.1546147" lon="32.5491688"><ele>104.9</ele><time>2015-04-26T12:10:28.0000000+00:00</time></trkpt><trkpt lat="35.1546472" lon="32.5491133"><ele>104.9</ele><time>2015-04-26T12:10:30.0000000+00:00</time></trkpt><trkpt lat="35.1546804" lon="32.5490654"><ele>104.9</ele><time>2015-04-26T12:10:32.0000000+00:00</time></trkpt><trkpt lat="35.1547136" lon="32.5490218"><ele>104.9</ele><time>2015-04-26T12:10:34.0000000+00:00</time></trkpt><trkpt lat="35.1547462" lon="32.5489733"><ele>104.9</ele><time>2015-04-26T12:10:36.0000000+00:00</time></trkpt><trkpt lat="35.1547886" lon="32.5489169"><ele>104.9</ele><time>2015-04-26T12:10:38.0000000+00:00</time></trkpt><trkpt lat="35.1548529" lon="32.5488823"><ele>104.9</ele><time>2015-04-26T12:10:40.0000000+00:00</time></trkpt><trkpt lat="35.1549226" lon="32.5488511"><ele>105.2</ele><time>2015-04-26T12:10:42.0000000+00:00</time></trkpt><trkpt lat="35.1549944" lon="32.5488014"><ele>105.7</ele><time>2015-04-26T12:10:44.0000000+00:00</time></trkpt><trkpt lat="35.1550511" lon="32.5487237"><ele>106.4</ele><time>2015-04-26T12:10:46.0000000+00:00</time></trkpt><trkpt lat="35.1550851" lon="32.5486293"><ele>106.8</ele><time>2015-04-26T12:10:48.0000000+00:00</time></trkpt><trkpt lat="35.1551188" lon="32.5485366"><ele>106.1</ele><time>2015-04-26T12:10:50.0000000+00:00</time></trkpt><trkpt lat="35.1551524" lon="32.5484431"><ele>106.0</ele><time>2015-04-26T12:10:52.0000000+00:00</time></trkpt><trkpt lat="35.155193" lon="32.5483631"><ele>105.9</ele><time>2015-04-26T12:10:54.0000000+00:00</time></trkpt><trkpt lat="35.1552476" lon="32.5483292"><ele>105.9</ele><time>2015-04-26T12:10:56.0000000+00:00</time></trkpt><trkpt lat="35.1553064" lon="32.5483113"><ele>106.7</ele><time>2015-04-26T12:10:58.0000000+00:00</time></trkpt><trkpt lat="35.155364" lon="32.5483027"><ele>106.4</ele><time>2015-04-26T12:11:01.0000000+00:00</time></trkpt><trkpt lat="35.1554122" lon="32.5483101"><ele>106.0</ele><time>2015-04-26T12:11:04.0000000+00:00</time></trkpt><trkpt lat="35.1554573" lon="32.5483205"><ele>105.9</ele><time>2015-04-26T12:11:07.0000000+00:00</time></trkpt><trkpt lat="35.1555359" lon="32.5483397"><ele>105.4</ele><time>2015-04-26T12:11:10.0000000+00:00</time></trkpt><trkpt lat="35.1555833" lon="32.5483566"><ele>104.7</ele><time>2015-04-26T12:11:11.0000000+00:00</time></trkpt><trkpt lat="35.1556438" lon="32.5483867"><ele>103.8</ele><time>2015-04-26T12:11:12.0000000+00:00</time></trkpt><trkpt lat="35.1557" lon="32.5484089"><ele>103.4</ele><time>2015-04-26T12:11:13.0000000+00:00</time></trkpt><trkpt lat="35.1557616" lon="32.548434"><ele>102.6</ele><time>2015-04-26T12:11:14.0000000+00:00</time></trkpt><trkpt lat="35.1558248" lon="32.5484586"><ele>101.8</ele><time>2015-04-26T12:11:15.0000000+00:00</time></trkpt><trkpt lat="35.1558879" lon="32.5484845"><ele>100.9</ele><time>2015-04-26T12:11:16.0000000+00:00</time></trkpt><trkpt lat="35.15595" lon="32.5485124"><ele>99.9</ele><time>2015-04-26T12:11:17.0000000+00:00</time></trkpt><trkpt lat="35.1560143" lon="32.5485388"><ele>98.9</ele><time>2015-04-26T12:11:18.0000000+00:00</time></trkpt><trkpt lat="35.1560801" lon="32.5485572"><ele>97.9</ele><time>2015-04-26T12:11:19.0000000+00:00</time></trkpt><trkpt lat="35.1561555" lon="32.5485716"><ele>97.4</ele><time>2015-04-26T12:11:20.0000000+00:00</time></trkpt><trkpt lat="35.1562304" lon="32.548575"><ele>96.7</ele><time>2015-04-26T12:11:21.0000000+00:00</time></trkpt><trkpt lat="35.1563056" lon="32.5485804"><ele>95.8</ele><time>2015-04-26T12:11:22.0000000+00:00</time></trkpt><trkpt lat="35.156385" lon="32.5485807"><ele>94.9</ele><time>2015-04-26T12:11:23.0000000+00:00</time></trkpt><trkpt lat="35.1564725" lon="32.5485774"><ele>93.9</ele><time>2015-04-26T12:11:24.0000000+00:00</time></trkpt><trkpt lat="35.1565693" lon="32.5485674"><ele>92.9</ele><time>2015-04-26T12:11:25.0000000+00:00</time></trkpt><trkpt lat="35.1566694" lon="32.5485507"><ele>91.9</ele><time>2015-04-26T12:11:26.0000000+00:00</time></trkpt><trkpt lat="35.1567689" lon="32.5485358"><ele>90.9</ele><time>2015-04-26T12:11:27.0000000+00:00</time></trkpt><trkpt lat="35.1568779" lon="32.5485167"><ele>90.4</ele><time>2015-04-26T12:11:28.0000000+00:00</time></trkpt><trkpt lat="35.1569831" lon="32.5484973"><ele>89.7</ele><time>2015-04-26T12:11:29.0000000+00:00</time></trkpt><trkpt lat="35.1570958" lon="32.5484764"><ele>88.8</ele><time>2015-04-26T12:11:30.0000000+00:00</time></trkpt><trkpt lat="35.1572086" lon="32.5484561"><ele>87.9</ele><time>2015-04-26T12:11:31.0000000+00:00</time></trkpt><trkpt lat="35.1573193" lon="32.5484305"><ele>86.9</ele><time>2015-04-26T12:11:32.0000000+00:00</time></trkpt><trkpt lat="35.1574229" lon="32.5484064"><ele>85.9</ele><time>2015-04-26T12:11:33.0000000+00:00</time></trkpt><trkpt lat="35.1575245" lon="32.5483814"><ele>84.4</ele><time>2015-04-26T12:11:34.0000000+00:00</time></trkpt><trkpt lat="35.1576309" lon="32.5483521"><ele>83.7</ele><time>2015-04-26T12:11:35.0000000+00:00</time></trkpt><trkpt lat="35.1577251" lon="32.5483267"><ele>83.3</ele><time>2015-04-26T12:11:36.0000000+00:00</time></trkpt><trkpt lat="35.1578188" lon="32.5483014"><ele>82.6</ele><time>2015-04-26T12:11:37.0000000+00:00</time></trkpt><trkpt lat="35.1579039" lon="32.5482765"><ele>81.8</ele><time>2015-04-26T12:11:38.0000000+00:00</time></trkpt><trkpt lat="35.1579817" lon="32.5482525"><ele>80.9</ele><time>2015-04-26T12:11:39.0000000+00:00</time></trkpt><trkpt lat="35.1580427" lon="32.5482288"><ele>79.9</ele><time>2015-04-26T12:11:40.0000000+00:00</time></trkpt><trkpt lat="35.1580903" lon="32.5482096"><ele>78.9</ele><time>2015-04-26T12:11:41.0000000+00:00</time></trkpt><trkpt lat="35.1581689" lon="32.5481953"><ele>77.7</ele><time>2015-04-26T12:11:43.0000000+00:00</time></trkpt><trkpt lat="35.1582341" lon="32.5481869"><ele>75.9</ele><time>2015-04-26T12:11:45.0000000+00:00</time></trkpt><trkpt lat="35.1583071" lon="32.548182"><ele>74.7</ele><time>2015-04-26T12:11:47.0000000+00:00</time></trkpt><trkpt lat="35.1583572" lon="32.5481811"><ele>73.8</ele><time>2015-04-26T12:11:48.0000000+00:00</time></trkpt><trkpt lat="35.1584108" lon="32.5481826"><ele>72.9</ele><time>2015-04-26T12:11:49.0000000+00:00</time></trkpt><trkpt lat="35.1584657" lon="32.5481916"><ele>71.9</ele><time>2015-04-26T12:11:50.0000000+00:00</time></trkpt><trkpt lat="35.1585335" lon="32.5481861"><ele>70.9</ele><time>2015-04-26T12:11:51.0000000+00:00</time></trkpt><trkpt lat="35.1585946" lon="32.5481808"><ele>69.9</ele><time>2015-04-26T12:11:52.0000000+00:00</time></trkpt><trkpt lat="35.1586544" lon="32.548174"><ele>68.9</ele><time>2015-04-26T12:11:53.0000000+00:00</time></trkpt><trkpt lat="35.158706" lon="32.5481695"><ele>68.4</ele><time>2015-04-26T12:11:54.0000000+00:00</time></trkpt><trkpt lat="35.1587868" lon="32.5481624"><ele>67.3</ele><time>2015-04-26T12:11:56.0000000+00:00</time></trkpt><trkpt lat="35.1588538" lon="32.5481572"><ele>66.3</ele><time>2015-04-26T12:11:58.0000000+00:00</time></trkpt><trkpt lat="35.1589255" lon="32.5481504"><ele>65.5</ele><time>2015-04-26T12:12:00.0000000+00:00</time></trkpt><trkpt lat="35.158997" lon="32.5481223"><ele>64.3</ele><time>2015-04-26T12:12:02.0000000+00:00</time></trkpt><trkpt lat="35.1590761" lon="32.5480901"><ele>62.8</ele><time>2015-04-26T12:12:04.0000000+00:00</time></trkpt><trkpt lat="35.1591579" lon="32.5480603"><ele>60.4</ele><time>2015-04-26T12:12:06.0000000+00:00</time></trkpt><trkpt lat="35.159252" lon="32.5480409"><ele>58.0</ele><time>2015-04-26T12:12:08.0000000+00:00</time></trkpt><trkpt lat="35.1593035" lon="32.5480411"><ele>57.0</ele><time>2015-04-26T12:12:09.0000000+00:00</time></trkpt><trkpt lat="35.1593518" lon="32.5480396"><ele>56.0</ele><time>2015-04-26T12:12:10.0000000+00:00</time></trkpt><trkpt lat="35.1593984" lon="32.5480343"><ele>54.9</ele><time>2015-04-26T12:12:11.0000000+00:00</time></trkpt><trkpt lat="35.1594602" lon="32.5480296"><ele>52.9</ele><time>2015-04-26T12:12:13.0000000+00:00</time></trkpt><trkpt lat="35.1595168" lon="32.5480273"><ele>52.2</ele><time>2015-04-26T12:12:15.0000000+00:00</time></trkpt><trkpt lat="35.1595614" lon="32.5480346"><ele>50.7</ele><time>2015-04-26T12:12:17.0000000+00:00</time></trkpt><trkpt lat="35.1596038" lon="32.5480656"><ele>46.9</ele><time>2015-04-26T12:13:51.0000000+00:00</time></trkpt><trkpt lat="35.1595789" lon="32.5481129"><ele>47.4</ele><time>2015-04-26T12:13:54.0000000+00:00</time></trkpt><trkpt lat="35.1595385" lon="32.5481623"><ele>47.0</ele><time>2015-04-26T12:13:57.0000000+00:00</time></trkpt><trkpt lat="35.1594893" lon="32.5482082"><ele>45.3</ele><time>2015-04-26T12:14:00.0000000+00:00</time></trkpt><trkpt lat="35.1594515" lon="32.5482448"><ele>44.5</ele><time>2015-04-26T12:14:03.0000000+00:00</time></trkpt><trkpt lat="35.1594067" lon="32.5482792"><ele>43.5</ele><time>2015-04-26T12:14:07.0000000+00:00</time></trkpt><trkpt lat="35.1593654" lon="32.5483257"><ele>44.7</ele><time>2015-04-26T12:14:11.0000000+00:00</time></trkpt><trkpt lat="35.1593222" lon="32.5483592"><ele>45.5</ele><time>2015-04-26T12:14:14.0000000+00:00</time></trkpt><trkpt lat="35.1592736" lon="32.5484136"><ele>47.1</ele><time>2015-04-26T12:14:17.0000000+00:00</time></trkpt><trkpt lat="35.1592322" lon="32.5484629"><ele>47.0</ele><time>2015-04-26T12:14:19.0000000+00:00</time></trkpt><trkpt lat="35.1592105" lon="32.5485148"><ele>46.4</ele><time>2015-04-26T12:14:21.0000000+00:00</time></trkpt><trkpt lat="35.1592203" lon="32.5485687"><ele>45.2</ele><time>2015-04-26T12:14:24.0000000+00:00</time></trkpt><trkpt lat="35.1592554" lon="32.5486095"><ele>44.5</ele><time>2015-04-26T12:14:27.0000000+00:00</time></trkpt><trkpt lat="35.1592879" lon="32.5486543"><ele>44.1</ele><time>2015-04-26T12:14:29.0000000+00:00</time></trkpt><trkpt lat="35.1593211" lon="32.5487095"><ele>44.0</ele><time>2015-04-26T12:14:31.0000000+00:00</time></trkpt><trkpt lat="35.1593449" lon="32.548759"><ele>43.4</ele><time>2015-04-26T12:14:32.0000000+00:00</time></trkpt><trkpt lat="35.1593637" lon="32.5488135"><ele>43.2</ele><time>2015-04-26T12:14:33.0000000+00:00</time></trkpt><trkpt lat="35.1593642" lon="32.5488846"><ele>42.6</ele><time>2015-04-26T12:14:34.0000000+00:00</time></trkpt><trkpt lat="35.1593586" lon="32.5489514"><ele>42.2</ele><time>2015-04-26T12:14:35.0000000+00:00</time></trkpt><trkpt lat="35.1593723" lon="32.5490172"><ele>42.1</ele><time>2015-04-26T12:14:36.0000000+00:00</time></trkpt><trkpt lat="35.1593942" lon="32.5490831"><ele>42.0</ele><time>2015-04-26T12:14:37.0000000+00:00</time></trkpt><trkpt lat="35.1594223" lon="32.5491477"><ele>42.0</ele><time>2015-04-26T12:14:38.0000000+00:00</time></trkpt><trkpt lat="35.1594459" lon="32.5492087"><ele>41.9</ele><time>2015-04-26T12:14:39.0000000+00:00</time></trkpt><trkpt lat="35.1594702" lon="32.5492648"><ele>41.9</ele><time>2015-04-26T12:14:40.0000000+00:00</time></trkpt><trkpt lat="35.1595008" lon="32.5493107"><ele>41.9</ele><time>2015-04-26T12:14:41.0000000+00:00</time></trkpt><trkpt lat="35.1595344" lon="32.5493524"><ele>41.9</ele><time>2015-04-26T12:14:42.0000000+00:00</time></trkpt><trkpt lat="35.1595626" lon="32.5493981"><ele>41.9</ele><time>2015-04-26T12:14:43.0000000+00:00</time></trkpt><trkpt lat="35.1596182" lon="32.5494736"><ele>41.9</ele><time>2015-04-26T12:14:45.0000000+00:00</time></trkpt><trkpt lat="35.1596449" lon="32.5495204"><ele>41.4</ele><time>2015-04-26T12:14:46.0000000+00:00</time></trkpt><trkpt lat="35.1596901" lon="32.5496103"><ele>41.1</ele><time>2015-04-26T12:14:48.0000000+00:00</time></trkpt><trkpt lat="35.1597154" lon="32.5496577"><ele>41.0</ele><time>2015-04-26T12:14:49.0000000+00:00</time></trkpt><trkpt lat="35.1597411" lon="32.5497504"><ele>40.9</ele><time>2015-04-26T12:14:51.0000000+00:00</time></trkpt><trkpt lat="35.1597626" lon="32.5498519"><ele>39.7</ele><time>2015-04-26T12:14:53.0000000+00:00</time></trkpt><trkpt lat="35.1597776" lon="32.549924"><ele>38.8</ele><time>2015-04-26T12:14:54.0000000+00:00</time></trkpt><trkpt lat="35.1597856" lon="32.5499961"><ele>38.4</ele><time>2015-04-26T12:14:55.0000000+00:00</time></trkpt><trkpt lat="35.1597852" lon="32.5500734"><ele>38.1</ele><time>2015-04-26T12:14:56.0000000+00:00</time></trkpt><trkpt lat="35.1597927" lon="32.550146"><ele>37.5</ele><time>2015-04-26T12:14:57.0000000+00:00</time></trkpt><trkpt lat="35.1597994" lon="32.5502016"><ele>37.2</ele><time>2015-04-26T12:14:58.0000000+00:00</time></trkpt><trkpt lat="35.1598457" lon="32.5502859"><ele>36.5</ele><time>2015-04-26T12:15:00.0000000+00:00</time></trkpt><trkpt lat="35.1599" lon="32.5503354"><ele>36.1</ele><time>2015-04-26T12:15:02.0000000+00:00</time></trkpt><trkpt lat="35.1599497" lon="32.5503979"><ele>35.2</ele><time>2015-04-26T12:15:04.0000000+00:00</time></trkpt><trkpt lat="35.1599831" lon="32.5504841"><ele>35.0</ele><time>2015-04-26T12:15:06.0000000+00:00</time></trkpt><trkpt lat="35.1600016" lon="32.5505732"><ele>34.9</ele><time>2015-04-26T12:15:08.0000000+00:00</time></trkpt><trkpt lat="35.1600231" lon="32.5506542"><ele>34.9</ele><time>2015-04-26T12:15:10.0000000+00:00</time></trkpt><trkpt lat="35.1600451" lon="32.5507295"><ele>34.9</ele><time>2015-04-26T12:15:12.0000000+00:00</time></trkpt><trkpt lat="35.16006" lon="32.5508164"><ele>35.7</ele><time>2015-04-26T12:15:14.0000000+00:00</time></trkpt><trkpt lat="35.1600554" lon="32.550953"><ele>34.4</ele><time>2015-04-26T12:15:16.0000000+00:00</time></trkpt><trkpt lat="35.160052" lon="32.5510191"><ele>34.1</ele><time>2015-04-26T12:15:17.0000000+00:00</time></trkpt><trkpt lat="35.1600555" lon="32.5510798"><ele>34.5</ele><time>2015-04-26T12:15:18.0000000+00:00</time></trkpt><trkpt lat="35.1600641" lon="32.551145"><ele>35.2</ele><time>2015-04-26T12:15:19.0000000+00:00</time></trkpt><trkpt lat="35.160075" lon="32.5512017"><ele>36.1</ele><time>2015-04-26T12:15:20.0000000+00:00</time></trkpt><trkpt lat="35.1600812" lon="32.5512671"><ele>37.0</ele><time>2015-04-26T12:15:21.0000000+00:00</time></trkpt><trkpt lat="35.1601076" lon="32.5513293"><ele>38.0</ele><time>2015-04-26T12:15:22.0000000+00:00</time></trkpt><trkpt lat="35.1601258" lon="32.5513873"><ele>38.4</ele><time>2015-04-26T12:15:23.0000000+00:00</time></trkpt><trkpt lat="35.1601445" lon="32.5514544"><ele>38.7</ele><time>2015-04-26T12:15:24.0000000+00:00</time></trkpt><trkpt lat="35.1601652" lon="32.5515084"><ele>39.3</ele><time>2015-04-26T12:15:25.0000000+00:00</time></trkpt><trkpt lat="35.160181" lon="32.5515612"><ele>39.1</ele><time>2015-04-26T12:15:26.0000000+00:00</time></trkpt><trkpt lat="35.1602087" lon="32.5516494"><ele>37.5</ele><time>2015-04-26T12:15:28.0000000+00:00</time></trkpt><trkpt lat="35.1602293" lon="32.5517335"><ele>35.6</ele><time>2015-04-26T12:15:30.0000000+00:00</time></trkpt><trkpt lat="35.1602452" lon="32.5517963"><ele>34.3</ele><time>2015-04-26T12:15:32.0000000+00:00</time></trkpt><trkpt lat="35.1602745" lon="32.5518399"><ele>33.2</ele><time>2015-04-26T12:15:35.0000000+00:00</time></trkpt><trkpt lat="35.1603232" lon="32.5518216"><ele>33.4</ele><time>2015-04-26T12:15:40.0000000+00:00</time></trkpt><trkpt lat="35.1603257" lon="32.551758"><ele>33.9</ele><time>2015-04-26T12:15:45.0000000+00:00</time></trkpt><trkpt lat="35.1603331" lon="32.5517003"><ele>33.9</ele><time>2015-04-26T12:15:50.0000000+00:00</time></trkpt><trkpt lat="35.1603166" lon="32.5517624"><ele>33.9</ele><time>2015-04-26T12:16:01.0000000+00:00</time></trkpt><trkpt lat="35.1603143" lon="32.5518278"><ele>33.2</ele><time>2015-04-26T12:16:04.0000000+00:00</time></trkpt><trkpt lat="35.1603056" lon="32.5518825"><ele>33.0</ele><time>2015-04-26T12:16:06.0000000+00:00</time></trkpt><trkpt lat="35.1603036" lon="32.5519385"><ele>33.4</ele><time>2015-04-26T12:16:08.0000000+00:00</time></trkpt><trkpt lat="35.1603127" lon="32.5519997"><ele>33.9</ele><time>2015-04-26T12:16:11.0000000+00:00</time></trkpt><trkpt lat="35.1603504" lon="32.5520493"><ele>33.9</ele><time>2015-04-26T12:16:15.0000000+00:00</time></trkpt><trkpt lat="35.1603945" lon="32.5521009"><ele>33.4</ele><time>2015-04-26T12:16:18.0000000+00:00</time></trkpt><trkpt lat="35.1604572" lon="32.5521682"><ele>31.6</ele><time>2015-04-26T12:16:20.0000000+00:00</time></trkpt><trkpt lat="35.1605314" lon="32.5522006"><ele>31.1</ele><time>2015-04-26T12:16:22.0000000+00:00</time></trkpt><trkpt lat="35.1606143" lon="32.5521861"><ele>30.5</ele><time>2015-04-26T12:16:24.0000000+00:00</time></trkpt><trkpt lat="35.1606634" lon="32.5521622"><ele>30.2</ele><time>2015-04-26T12:16:25.0000000+00:00</time></trkpt><trkpt lat="35.1607212" lon="32.5521065"><ele>29.6</ele><time>2015-04-26T12:16:26.0000000+00:00</time></trkpt><trkpt lat="35.1607669" lon="32.5520714"><ele>29.2</ele><time>2015-04-26T12:16:27.0000000+00:00</time></trkpt><trkpt lat="35.1608096" lon="32.5520356"><ele>28.6</ele><time>2015-04-26T12:16:28.0000000+00:00</time></trkpt><trkpt lat="35.1608529" lon="32.551999"><ele>28.3</ele><time>2015-04-26T12:16:29.0000000+00:00</time></trkpt><trkpt lat="35.160891" lon="32.5519646"><ele>28.1</ele><time>2015-04-26T12:16:30.0000000+00:00</time></trkpt><trkpt lat="35.1609357" lon="32.5519306"><ele>27.5</ele><time>2015-04-26T12:16:31.0000000+00:00</time></trkpt><trkpt lat="35.1609783" lon="32.5518929"><ele>27.2</ele><time>2015-04-26T12:16:32.0000000+00:00</time></trkpt><trkpt lat="35.1610156" lon="32.5518516"><ele>27.1</ele><time>2015-04-26T12:16:33.0000000+00:00</time></trkpt><trkpt lat="35.1610577" lon="32.5518148"><ele>27.0</ele><time>2015-04-26T12:16:34.0000000+00:00</time></trkpt><trkpt lat="35.1610981" lon="32.5517733"><ele>27.0</ele><time>2015-04-26T12:16:35.0000000+00:00</time></trkpt><trkpt lat="35.1611316" lon="32.5517266"><ele>26.9</ele><time>2015-04-26T12:16:36.0000000+00:00</time></trkpt><trkpt lat="35.1611678" lon="32.5516785"><ele>26.9</ele><time>2015-04-26T12:16:37.0000000+00:00</time></trkpt><trkpt lat="35.1612006" lon="32.5516367"><ele>26.9</ele><time>2015-04-26T12:16:38.0000000+00:00</time></trkpt><trkpt lat="35.1612402" lon="32.551595"><ele>26.9</ele><time>2015-04-26T12:16:39.0000000+00:00</time></trkpt><trkpt lat="35.1612858" lon="32.5515497"><ele>26.9</ele><time>2015-04-26T12:16:40.0000000+00:00</time></trkpt><trkpt lat="35.1613298" lon="32.5515168"><ele>27.4</ele><time>2015-04-26T12:16:41.0000000+00:00</time></trkpt><trkpt lat="35.1613781" lon="32.5514793"><ele>27.7</ele><time>2015-04-26T12:16:42.0000000+00:00</time></trkpt><trkpt lat="35.1614237" lon="32.5514429"><ele>27.8</ele><time>2015-04-26T12:16:43.0000000+00:00</time></trkpt><trkpt lat="35.1614764" lon="32.5514128"><ele>28.9</ele><time>2015-04-26T12:16:44.0000000+00:00</time></trkpt><trkpt lat="35.1615255" lon="32.5513809"><ele>29.9</ele><time>2015-04-26T12:16:45.0000000+00:00</time></trkpt><trkpt lat="35.1615657" lon="32.5513464"><ele>30.4</ele><time>2015-04-26T12:16:46.0000000+00:00</time></trkpt><trkpt lat="35.1616093" lon="32.5513154"><ele>30.7</ele><time>2015-04-26T12:16:47.0000000+00:00</time></trkpt><trkpt lat="35.1616543" lon="32.551287"><ele>30.3</ele><time>2015-04-26T12:16:48.0000000+00:00</time></trkpt><trkpt lat="35.1616999" lon="32.5512484"><ele>30.1</ele><time>2015-04-26T12:16:49.0000000+00:00</time></trkpt><trkpt lat="35.1617398" lon="32.5512094"><ele>30.0</ele><time>2015-04-26T12:16:50.0000000+00:00</time></trkpt><trkpt lat="35.1617796" lon="32.5511712"><ele>30.0</ele><time>2015-04-26T12:16:51.0000000+00:00</time></trkpt><trkpt lat="35.1618158" lon="32.5511329"><ele>29.5</ele><time>2015-04-26T12:16:52.0000000+00:00</time></trkpt><trkpt lat="35.161854" lon="32.5510891"><ele>29.7</ele><time>2015-04-26T12:16:53.0000000+00:00</time></trkpt><trkpt lat="35.1618899" lon="32.5510496"><ele>29.3</ele><time>2015-04-26T12:16:54.0000000+00:00</time></trkpt><trkpt lat="35.161934" lon="32.5510065"><ele>28.6</ele><time>2015-04-26T12:16:55.0000000+00:00</time></trkpt><trkpt lat="35.1619722" lon="32.5509609"><ele>27.8</ele><time>2015-04-26T12:16:56.0000000+00:00</time></trkpt><trkpt lat="35.1620135" lon="32.5509362"><ele>27.9</ele><time>2015-04-26T12:16:57.0000000+00:00</time></trkpt><trkpt lat="35.1620786" lon="32.5508621"><ele>27.2</ele><time>2015-04-26T12:16:59.0000000+00:00</time></trkpt><trkpt lat="35.1621386" lon="32.5508412"><ele>27.5</ele><time>2015-04-26T12:17:01.0000000+00:00</time></trkpt><trkpt lat="35.1621935" lon="32.5508419"><ele>27.4</ele><time>2015-04-26T12:17:04.0000000+00:00</time></trkpt><trkpt lat="35.1622391" lon="32.5508222"><ele>28.5</ele><time>2015-04-26T12:17:06.0000000+00:00</time></trkpt><trkpt lat="35.162274" lon="32.550783"><ele>29.6</ele><time>2015-04-26T12:17:08.0000000+00:00</time></trkpt><trkpt lat="35.1623046" lon="32.5507349"><ele>29.8</ele><time>2015-04-26T12:17:10.0000000+00:00</time></trkpt><trkpt lat="35.1623411" lon="32.5506882"><ele>30.4</ele><time>2015-04-26T12:17:12.0000000+00:00</time></trkpt><trkpt lat="35.1623776" lon="32.5506341"><ele>30.3</ele><time>2015-04-26T12:17:14.0000000+00:00</time></trkpt><trkpt lat="35.1624185" lon="32.550569"><ele>30.0</ele><time>2015-04-26T12:17:16.0000000+00:00</time></trkpt><trkpt lat="35.162472" lon="32.5504936"><ele>30.0</ele><time>2015-04-26T12:17:18.0000000+00:00</time></trkpt><trkpt lat="35.1625116" lon="32.5504125"><ele>29.4</ele><time>2015-04-26T12:17:19.0000000+00:00</time></trkpt><trkpt lat="35.1625368" lon="32.550364"><ele>29.2</ele><time>2015-04-26T12:17:20.0000000+00:00</time></trkpt><trkpt lat="35.162562" lon="32.5503176"><ele>29.1</ele><time>2015-04-26T12:17:21.0000000+00:00</time></trkpt><trkpt lat="35.1625869" lon="32.550262"><ele>29.0</ele><time>2015-04-26T12:17:22.0000000+00:00</time></trkpt><trkpt lat="35.1626105" lon="32.550211"><ele>29.0</ele><time>2015-04-26T12:17:23.0000000+00:00</time></trkpt><trkpt lat="35.162637" lon="32.5501639"><ele>29.4</ele><time>2015-04-26T12:17:24.0000000+00:00</time></trkpt><trkpt lat="35.1626619" lon="32.5501069"><ele>29.7</ele><time>2015-04-26T12:17:25.0000000+00:00</time></trkpt><trkpt lat="35.1626847" lon="32.5500556"><ele>29.8</ele><time>2015-04-26T12:17:26.0000000+00:00</time></trkpt><trkpt lat="35.1627097" lon="32.550002"><ele>29.9</ele><time>2015-04-26T12:17:27.0000000+00:00</time></trkpt><trkpt lat="35.1627489" lon="32.5499065"><ele>29.4</ele><time>2015-04-26T12:17:29.0000000+00:00</time></trkpt><trkpt lat="35.1627886" lon="32.5498221"><ele>29.1</ele><time>2015-04-26T12:17:31.0000000+00:00</time></trkpt><trkpt lat="35.1628412" lon="32.5497539"><ele>29.5</ele><time>2015-04-26T12:17:33.0000000+00:00</time></trkpt><trkpt lat="35.1629055" lon="32.5496987"><ele>29.8</ele><time>2015-04-26T12:17:35.0000000+00:00</time></trkpt><trkpt lat="35.1629552" lon="32.5496634"><ele>29.9</ele><time>2015-04-26T12:17:37.0000000+00:00</time></trkpt><trkpt lat="35.163016" lon="32.5496208"><ele>30.4</ele><time>2015-04-26T12:17:39.0000000+00:00</time></trkpt><trkpt lat="35.1630613" lon="32.5495505"><ele>32.1</ele><time>2015-04-26T12:17:41.0000000+00:00</time></trkpt><trkpt lat="35.1631056" lon="32.5494774"><ele>34.2</ele><time>2015-04-26T12:17:43.0000000+00:00</time></trkpt><trkpt lat="35.1631437" lon="32.5494057"><ele>34.3</ele><time>2015-04-26T12:17:45.0000000+00:00</time></trkpt><trkpt lat="35.163176" lon="32.5493442"><ele>34.0</ele><time>2015-04-26T12:17:47.0000000+00:00</time></trkpt><trkpt lat="35.1632071" lon="32.5492876"><ele>33.7</ele><time>2015-04-26T12:17:49.0000000+00:00</time></trkpt><trkpt lat="35.1632388" lon="32.5492303"><ele>33.4</ele><time>2015-04-26T12:17:51.0000000+00:00</time></trkpt><trkpt lat="35.1632694" lon="32.5491731"><ele>33.0</ele><time>2015-04-26T12:17:53.0000000+00:00</time></trkpt><trkpt lat="35.1633031" lon="32.5491136"><ele>33.0</ele><time>2015-04-26T12:17:55.0000000+00:00</time></trkpt><trkpt lat="35.1633223" lon="32.5490463"><ele>33.4</ele><time>2015-04-26T12:17:57.0000000+00:00</time></trkpt><trkpt lat="35.1633466" lon="32.5489806"><ele>33.8</ele><time>2015-04-26T12:17:59.0000000+00:00</time></trkpt><trkpt lat="35.163373" lon="32.5489202"><ele>33.4</ele><time>2015-04-26T12:18:01.0000000+00:00</time></trkpt><trkpt lat="35.1633942" lon="32.5488574"><ele>32.5</ele><time>2015-04-26T12:18:03.0000000+00:00</time></trkpt><trkpt lat="35.1633861" lon="32.5487836"><ele>31.6</ele><time>2015-04-26T12:18:05.0000000+00:00</time></trkpt><trkpt lat="35.1633571" lon="32.548708"><ele>31.1</ele><time>2015-04-26T12:18:07.0000000+00:00</time></trkpt><trkpt lat="35.1633042" lon="32.5486142"><ele>30.5</ele><time>2015-04-26T12:18:08.0000000+00:00</time></trkpt><trkpt lat="35.1632947" lon="32.5485517"><ele>30.2</ele><time>2015-04-26T12:18:09.0000000+00:00</time></trkpt><trkpt lat="35.16329" lon="32.5484927"><ele>30.1</ele><time>2015-04-26T12:18:10.0000000+00:00</time></trkpt><trkpt lat="35.1632878" lon="32.5484363"><ele>30.0</ele><time>2015-04-26T12:18:11.0000000+00:00</time></trkpt><trkpt lat="35.1632978" lon="32.5483393"><ele>30.7</ele><time>2015-04-26T12:18:13.0000000+00:00</time></trkpt><trkpt lat="35.1633114" lon="32.548284"><ele>30.4</ele><time>2015-04-26T12:18:16.0000000+00:00</time></trkpt><trkpt lat="35.1633693" lon="32.5482959"><ele>32.3</ele><time>2015-04-26T12:18:20.0000000+00:00</time></trkpt><trkpt lat="35.1634198" lon="32.5483034"><ele>32.1</ele><time>2015-04-26T12:18:23.0000000+00:00</time></trkpt><trkpt lat="35.1634703" lon="32.5483083"><ele>32.7</ele><time>2015-04-26T12:18:26.0000000+00:00</time></trkpt><trkpt lat="35.1635169" lon="32.5483105"><ele>34.7</ele><time>2015-04-26T12:18:29.0000000+00:00</time></trkpt><trkpt lat="35.1635689" lon="32.5483107"><ele>35.9</ele><time>2015-04-26T12:18:33.0000000+00:00</time></trkpt><trkpt lat="35.1636199" lon="32.5483098"><ele>36.2</ele><time>2015-04-26T12:18:37.0000000+00:00</time></trkpt><trkpt lat="35.1636803" lon="32.5482976"><ele>36.2</ele><time>2015-04-26T12:18:41.0000000+00:00</time></trkpt><trkpt lat="35.1637269" lon="32.5482933"><ele>36.0</ele><time>2015-04-26T12:18:44.0000000+00:00</time></trkpt><trkpt lat="35.1637736" lon="32.5482802"><ele>35.2</ele><time>2015-04-26T12:18:47.0000000+00:00</time></trkpt><trkpt lat="35.1638246" lon="32.5482623"><ele>35.0</ele><time>2015-04-26T12:18:50.0000000+00:00</time></trkpt><trkpt lat="35.1638885" lon="32.5482442"><ele>34.9</ele><time>2015-04-26T12:18:53.0000000+00:00</time></trkpt><trkpt lat="35.1639449" lon="32.5482303"><ele>34.9</ele><time>2015-04-26T12:18:55.0000000+00:00</time></trkpt><trkpt lat="35.1640057" lon="32.5482165"><ele>35.7</ele><time>2015-04-26T12:18:57.0000000+00:00</time></trkpt><trkpt lat="35.1640636" lon="32.5482042"><ele>36.4</ele><time>2015-04-26T12:18:59.0000000+00:00</time></trkpt><trkpt lat="35.1641174" lon="32.5481948"><ele>36.0</ele><time>2015-04-26T12:19:01.0000000+00:00</time></trkpt><trkpt lat="35.1641751" lon="32.5481874"><ele>36.5</ele><time>2015-04-26T12:19:03.0000000+00:00</time></trkpt><trkpt lat="35.1642325" lon="32.54818"><ele>36.3</ele><time>2015-04-26T12:19:05.0000000+00:00</time></trkpt><trkpt lat="35.1642938" lon="32.5481718"><ele>36.0</ele><time>2015-04-26T12:19:07.0000000+00:00</time></trkpt><trkpt lat="35.1643559" lon="32.5481679"><ele>35.5</ele><time>2015-04-26T12:19:09.0000000+00:00</time></trkpt><trkpt lat="35.1644143" lon="32.5481696"><ele>36.3</ele><time>2015-04-26T12:19:11.0000000+00:00</time></trkpt><trkpt lat="35.1644789" lon="32.548174"><ele>35.5</ele><time>2015-04-26T12:19:13.0000000+00:00</time></trkpt><trkpt lat="35.1645344" lon="32.5481655"><ele>35.8</ele><time>2015-04-26T12:19:15.0000000+00:00</time></trkpt><trkpt lat="35.164588" lon="32.548156"><ele>36.4</ele><time>2015-04-26T12:19:17.0000000+00:00</time></trkpt><trkpt lat="35.164646" lon="32.5481589"><ele>38.0</ele><time>2015-04-26T12:19:19.0000000+00:00</time></trkpt><trkpt lat="35.1647168" lon="32.548168"><ele>38.2</ele><time>2015-04-26T12:19:21.0000000+00:00</time></trkpt><trkpt lat="35.1647957" lon="32.5481788"><ele>38.5</ele><time>2015-04-26T12:19:23.0000000+00:00</time></trkpt><trkpt lat="35.1648533" lon="32.5481766"><ele>38.7</ele><time>2015-04-26T12:19:24.0000000+00:00</time></trkpt><trkpt lat="35.1649079" lon="32.5481763"><ele>38.8</ele><time>2015-04-26T12:19:25.0000000+00:00</time></trkpt><trkpt lat="35.164962" lon="32.5481732"><ele>38.9</ele><time>2015-04-26T12:19:26.0000000+00:00</time></trkpt><trkpt lat="35.1650425" lon="32.5481774"><ele>39.4</ele><time>2015-04-26T12:19:28.0000000+00:00</time></trkpt><trkpt lat="35.1651263" lon="32.5481763"><ele>40.1</ele><time>2015-04-26T12:19:30.0000000+00:00</time></trkpt><trkpt lat="35.1652143" lon="32.5481858"><ele>40.0</ele><time>2015-04-26T12:19:32.0000000+00:00</time></trkpt><trkpt lat="35.1652835" lon="32.5481784"><ele>40.2</ele><time>2015-04-26T12:19:34.0000000+00:00</time></trkpt><trkpt lat="35.165351" lon="32.5481745"><ele>38.5</ele><time>2015-04-26T12:19:36.0000000+00:00</time></trkpt><trkpt lat="35.1654243" lon="32.5481602"><ele>37.3</ele><time>2015-04-26T12:19:38.0000000+00:00</time></trkpt><trkpt lat="35.1654964" lon="32.5481524"><ele>36.5</ele><time>2015-04-26T12:19:40.0000000+00:00</time></trkpt><trkpt lat="35.1655698" lon="32.548155"><ele>36.3</ele><time>2015-04-26T12:19:42.0000000+00:00</time></trkpt><trkpt lat="35.1656413" lon="32.5481573"><ele>36.5</ele><time>2015-04-26T12:19:44.0000000+00:00</time></trkpt><trkpt lat="35.1657144" lon="32.5481543"><ele>37.6</ele><time>2015-04-26T12:19:46.0000000+00:00</time></trkpt><trkpt lat="35.1657869" lon="32.5481618"><ele>37.3</ele><time>2015-04-26T12:19:48.0000000+00:00</time></trkpt><trkpt lat="35.1658545" lon="32.5481657"><ele>37.0</ele><time>2015-04-26T12:19:50.0000000+00:00</time></trkpt><trkpt lat="35.1659177" lon="32.5481701"><ele>36.7</ele><time>2015-04-26T12:19:52.0000000+00:00</time></trkpt><trkpt lat="35.1659788" lon="32.5481745"><ele>36.4</ele><time>2015-04-26T12:19:54.0000000+00:00</time></trkpt><trkpt lat="35.1660408" lon="32.5481813"><ele>36.8</ele><time>2015-04-26T12:19:56.0000000+00:00</time></trkpt><trkpt lat="35.1661058" lon="32.5481844"><ele>36.9</ele><time>2015-04-26T12:19:58.0000000+00:00</time></trkpt><trkpt lat="35.1661738" lon="32.5481796"><ele>36.9</ele><time>2015-04-26T12:20:00.0000000+00:00</time></trkpt><trkpt lat="35.1662405" lon="32.5481783"><ele>37.2</ele><time>2015-04-26T12:20:02.0000000+00:00</time></trkpt><trkpt lat="35.166308" lon="32.5481751"><ele>37.5</ele><time>2015-04-26T12:20:04.0000000+00:00</time></trkpt><trkpt lat="35.1663743" lon="32.5481678"><ele>37.1</ele><time>2015-04-26T12:20:06.0000000+00:00</time></trkpt><trkpt lat="35.1664405" lon="32.5481591"><ele>37.7</ele><time>2015-04-26T12:20:08.0000000+00:00</time></trkpt><trkpt lat="35.1665108" lon="32.5481553"><ele>37.1</ele><time>2015-04-26T12:20:10.0000000+00:00</time></trkpt><trkpt lat="35.1665828" lon="32.548156"><ele>36.5</ele><time>2015-04-26T12:20:12.0000000+00:00</time></trkpt><trkpt lat="35.1666626" lon="32.5481596"><ele>36.1</ele><time>2015-04-26T12:20:14.0000000+00:00</time></trkpt><trkpt lat="35.1667415" lon="32.5481557"><ele>36.0</ele><time>2015-04-26T12:20:16.0000000+00:00</time></trkpt><trkpt lat="35.1668185" lon="32.5481613"><ele>35.4</ele><time>2015-04-26T12:20:18.0000000+00:00</time></trkpt><trkpt lat="35.1668941" lon="32.5481782"><ele>35.6</ele><time>2015-04-26T12:20:20.0000000+00:00</time></trkpt><trkpt lat="35.1669712" lon="32.5481895"><ele>36.1</ele><time>2015-04-26T12:20:22.0000000+00:00</time></trkpt><trkpt lat="35.1670527" lon="32.5481993"><ele>36.7</ele><time>2015-04-26T12:20:24.0000000+00:00</time></trkpt><trkpt lat="35.1671299" lon="32.5482144"><ele>36.9</ele><time>2015-04-26T12:20:26.0000000+00:00</time></trkpt><trkpt lat="35.1672048" lon="32.5482352"><ele>37.9</ele><time>2015-04-26T12:20:28.0000000+00:00</time></trkpt><trkpt lat="35.1672762" lon="32.5482481"><ele>37.2</ele><time>2015-04-26T12:20:30.0000000+00:00</time></trkpt><trkpt lat="35.1673467" lon="32.5482434"><ele>36.2</ele><time>2015-04-26T12:20:32.0000000+00:00</time></trkpt><trkpt lat="35.1674158" lon="32.5482346"><ele>36.8</ele><time>2015-04-26T12:20:34.0000000+00:00</time></trkpt><trkpt lat="35.1674703" lon="32.5482704"><ele>36.9</ele><time>2015-04-26T12:20:37.0000000+00:00</time></trkpt><trkpt lat="35.1675175" lon="32.5483072"><ele>36.9</ele><time>2015-04-26T12:20:40.0000000+00:00</time></trkpt><trkpt lat="35.1675723" lon="32.548349"><ele>36.2</ele><time>2015-04-26T12:20:43.0000000+00:00</time></trkpt><trkpt lat="35.1676108" lon="32.5483816"><ele>36.2</ele><time>2015-04-26T12:20:45.0000000+00:00</time></trkpt><trkpt lat="35.1676536" lon="32.5484097"><ele>36.7</ele><time>2015-04-26T12:20:48.0000000+00:00</time></trkpt><trkpt lat="35.1676965" lon="32.548438"><ele>36.2</ele><time>2015-04-26T12:20:51.0000000+00:00</time></trkpt><trkpt lat="35.1677464" lon="32.5484586"><ele>36.0</ele><time>2015-04-26T12:20:53.0000000+00:00</time></trkpt><trkpt lat="35.1678105" lon="32.5484931"><ele>35.9</ele><time>2015-04-26T12:20:55.0000000+00:00</time></trkpt><trkpt lat="35.1678691" lon="32.5485295"><ele>35.2</ele><time>2015-04-26T12:20:57.0000000+00:00</time></trkpt><trkpt lat="35.1679165" lon="32.5485634"><ele>35.0</ele><time>2015-04-26T12:20:59.0000000+00:00</time></trkpt><trkpt lat="35.167962" lon="32.5485943"><ele>34.7</ele><time>2015-04-26T12:21:01.0000000+00:00</time></trkpt><trkpt lat="35.1680102" lon="32.5486207"><ele>34.1</ele><time>2015-04-26T12:21:03.0000000+00:00</time></trkpt><trkpt lat="35.1680625" lon="32.5486475"><ele>34.0</ele><time>2015-04-26T12:21:05.0000000+00:00</time></trkpt><trkpt lat="35.168116" lon="32.5486699"><ele>33.9</ele><time>2015-04-26T12:21:07.0000000+00:00</time></trkpt><trkpt lat="35.1681717" lon="32.5486927"><ele>33.9</ele><time>2015-04-26T12:21:09.0000000+00:00</time></trkpt><trkpt lat="35.1682348" lon="32.5487138"><ele>33.9</ele><time>2015-04-26T12:21:11.0000000+00:00</time></trkpt><trkpt lat="35.1683103" lon="32.5487331"><ele>33.4</ele><time>2015-04-26T12:21:13.0000000+00:00</time></trkpt><trkpt lat="35.1683861" lon="32.5487556"><ele>33.8</ele><time>2015-04-26T12:21:15.0000000+00:00</time></trkpt><trkpt lat="35.1684559" lon="32.5487796"><ele>33.9</ele><time>2015-04-26T12:21:17.0000000+00:00</time></trkpt><trkpt lat="35.1685262" lon="32.5488003"><ele>33.9</ele><time>2015-04-26T12:21:19.0000000+00:00</time></trkpt><trkpt lat="35.1686014" lon="32.5488179"><ele>34.7</ele><time>2015-04-26T12:21:21.0000000+00:00</time></trkpt><trkpt lat="35.1686824" lon="32.5488302"><ele>34.9</ele><time>2015-04-26T12:21:23.0000000+00:00</time></trkpt><trkpt lat="35.1687684" lon="32.5488415"><ele>34.9</ele><time>2015-04-26T12:21:25.0000000+00:00</time></trkpt><trkpt lat="35.1688516" lon="32.548853"><ele>34.9</ele><time>2015-04-26T12:21:27.0000000+00:00</time></trkpt><trkpt lat="35.1689305" lon="32.5488631"><ele>35.7</ele><time>2015-04-26T12:21:29.0000000+00:00</time></trkpt><trkpt lat="35.1690031" lon="32.5488806"><ele>36.6</ele><time>2015-04-26T12:21:31.0000000+00:00</time></trkpt><trkpt lat="35.1690716" lon="32.5489028"><ele>37.1</ele><time>2015-04-26T12:21:33.0000000+00:00</time></trkpt><trkpt lat="35.1691448" lon="32.5489184"><ele>38.0</ele><time>2015-04-26T12:21:35.0000000+00:00</time></trkpt><trkpt lat="35.169216" lon="32.5489356"><ele>38.7</ele><time>2015-04-26T12:21:37.0000000+00:00</time></trkpt><trkpt lat="35.1692817" lon="32.5489572"><ele>39.4</ele><time>2015-04-26T12:21:39.0000000+00:00</time></trkpt><trkpt lat="35.1693415" lon="32.5489764"><ele>39.8</ele><time>2015-04-26T12:21:41.0000000+00:00</time></trkpt><trkpt lat="35.1693903" lon="32.5489886"><ele>39.1</ele><time>2015-04-26T12:21:43.0000000+00:00</time></trkpt><trkpt lat="35.1694333" lon="32.5490061"><ele>39.2</ele><time>2015-04-26T12:21:45.0000000+00:00</time></trkpt><trkpt lat="35.1694856" lon="32.549021"><ele>40.0</ele><time>2015-04-26T12:21:47.0000000+00:00</time></trkpt><trkpt lat="35.1695462" lon="32.5490457"><ele>39.4</ele><time>2015-04-26T12:21:49.0000000+00:00</time></trkpt><trkpt lat="35.169613" lon="32.5490788"><ele>38.6</ele><time>2015-04-26T12:21:51.0000000+00:00</time></trkpt><trkpt lat="35.1696883" lon="32.5491104"><ele>38.1</ele><time>2015-04-26T12:21:53.0000000+00:00</time></trkpt><trkpt lat="35.1698187" lon="32.5491502"><ele>38.0</ele><time>2015-04-26T12:21:55.0000000+00:00</time></trkpt><trkpt lat="35.1698696" lon="32.5491733"><ele>37.9</ele><time>2015-04-26T12:21:56.0000000+00:00</time></trkpt><trkpt lat="35.1699137" lon="32.5492054"><ele>37.4</ele><time>2015-04-26T12:21:57.0000000+00:00</time></trkpt><trkpt lat="35.1699698" lon="32.5492308"><ele>37.2</ele><time>2015-04-26T12:21:58.0000000+00:00</time></trkpt><trkpt lat="35.1700183" lon="32.549262"><ele>37.1</ele><time>2015-04-26T12:21:59.0000000+00:00</time></trkpt><trkpt lat="35.1700666" lon="32.549279"><ele>37.0</ele><time>2015-04-26T12:22:00.0000000+00:00</time></trkpt><trkpt lat="35.170112" lon="32.5492996"><ele>37.0</ele><time>2015-04-26T12:22:01.0000000+00:00</time></trkpt><trkpt lat="35.1701564" lon="32.5493229"><ele>36.4</ele><time>2015-04-26T12:22:02.0000000+00:00</time></trkpt><trkpt lat="35.1702024" lon="32.5493455"><ele>36.2</ele><time>2015-04-26T12:22:03.0000000+00:00</time></trkpt><trkpt lat="35.1702409" lon="32.5493744"><ele>36.1</ele><time>2015-04-26T12:22:04.0000000+00:00</time></trkpt><trkpt lat="35.1702895" lon="32.5493936"><ele>36.0</ele><time>2015-04-26T12:22:05.0000000+00:00</time></trkpt><trkpt lat="35.1703391" lon="32.5494158"><ele>36.0</ele><time>2015-04-26T12:22:06.0000000+00:00</time></trkpt><trkpt lat="35.170394" lon="32.5494348"><ele>35.9</ele><time>2015-04-26T12:22:07.0000000+00:00</time></trkpt><trkpt lat="35.1704513" lon="32.5494681"><ele>35.9</ele><time>2015-04-26T12:22:08.0000000+00:00</time></trkpt><trkpt lat="35.1704954" lon="32.5494949"><ele>35.9</ele><time>2015-04-26T12:22:09.0000000+00:00</time></trkpt><trkpt lat="35.1705378" lon="32.5495222"><ele>35.9</ele><time>2015-04-26T12:22:10.0000000+00:00</time></trkpt><trkpt lat="35.1705936" lon="32.5495417"><ele>35.9</ele><time>2015-04-26T12:22:11.0000000+00:00</time></trkpt><trkpt lat="35.1706408" lon="32.5495707"><ele>36.4</ele><time>2015-04-26T12:22:12.0000000+00:00</time></trkpt><trkpt lat="35.1706863" lon="32.5496004"><ele>36.7</ele><time>2015-04-26T12:22:13.0000000+00:00</time></trkpt><trkpt lat="35.1707363" lon="32.549639"><ele>37.3</ele><time>2015-04-26T12:22:14.0000000+00:00</time></trkpt><trkpt lat="35.1707777" lon="32.5496749"><ele>37.6</ele><time>2015-04-26T12:22:15.0000000+00:00</time></trkpt><trkpt lat="35.1708234" lon="32.5497102"><ele>37.8</ele><time>2015-04-26T12:22:16.0000000+00:00</time></trkpt><trkpt lat="35.1708698" lon="32.5497455"><ele>37.9</ele><time>2015-04-26T12:22:17.0000000+00:00</time></trkpt><trkpt lat="35.1709148" lon="32.5497828"><ele>37.9</ele><time>2015-04-26T12:22:18.0000000+00:00</time></trkpt><trkpt lat="35.1709558" lon="32.5498165"><ele>37.4</ele><time>2015-04-26T12:22:19.0000000+00:00</time></trkpt><trkpt lat="35.1709883" lon="32.5498549"><ele>36.7</ele><time>2015-04-26T12:22:20.0000000+00:00</time></trkpt><trkpt lat="35.1710253" lon="32.5498911"><ele>35.8</ele><time>2015-04-26T12:22:21.0000000+00:00</time></trkpt><trkpt lat="35.1710687" lon="32.5499324"><ele>34.9</ele><time>2015-04-26T12:22:22.0000000+00:00</time></trkpt><trkpt lat="35.1711168" lon="32.5499696"><ele>34.4</ele><time>2015-04-26T12:22:23.0000000+00:00</time></trkpt><trkpt lat="35.1711545" lon="32.5500103"><ele>34.2</ele><time>2015-04-26T12:22:24.0000000+00:00</time></trkpt><trkpt lat="35.1712005" lon="32.55006"><ele>34.0</ele><time>2015-04-26T12:22:25.0000000+00:00</time></trkpt><trkpt lat="35.1712365" lon="32.5501038"><ele>33.5</ele><time>2015-04-26T12:22:26.0000000+00:00</time></trkpt><trkpt lat="35.1712902" lon="32.5501625"><ele>34.2</ele><time>2015-04-26T12:22:27.0000000+00:00</time></trkpt><trkpt lat="35.1713369" lon="32.5502267"><ele>34.1</ele><time>2015-04-26T12:22:28.0000000+00:00</time></trkpt><trkpt lat="35.1713913" lon="32.5502736"><ele>34.5</ele><time>2015-04-26T12:22:29.0000000+00:00</time></trkpt><trkpt lat="35.1714294" lon="32.5503245"><ele>35.2</ele><time>2015-04-26T12:22:30.0000000+00:00</time></trkpt><trkpt lat="35.1714718" lon="32.5503671"><ele>36.1</ele><time>2015-04-26T12:22:31.0000000+00:00</time></trkpt><trkpt lat="35.1715147" lon="32.550417"><ele>36.0</ele><time>2015-04-26T12:22:32.0000000+00:00</time></trkpt><trkpt lat="35.1715607" lon="32.5504614"><ele>37.0</ele><time>2015-04-26T12:22:33.0000000+00:00</time></trkpt><trkpt lat="35.1716253" lon="32.550559"><ele>35.7</ele><time>2015-04-26T12:22:35.0000000+00:00</time></trkpt><trkpt lat="35.1716569" lon="32.5506167"><ele>35.3</ele><time>2015-04-26T12:22:36.0000000+00:00</time></trkpt><trkpt lat="35.1717051" lon="32.5506788"><ele>35.1</ele><time>2015-04-26T12:22:37.0000000+00:00</time></trkpt><trkpt lat="35.1717337" lon="32.5507536"><ele>34.5</ele><time>2015-04-26T12:22:38.0000000+00:00</time></trkpt><trkpt lat="35.17177" lon="32.5508122"><ele>34.2</ele><time>2015-04-26T12:22:39.0000000+00:00</time></trkpt><trkpt lat="35.1718135" lon="32.550881"><ele>35.1</ele><time>2015-04-26T12:22:40.0000000+00:00</time></trkpt><trkpt lat="35.1718403" lon="32.5509414"><ele>35.0</ele><time>2015-04-26T12:22:41.0000000+00:00</time></trkpt><trkpt lat="35.1718744" lon="32.5510078"><ele>35.5</ele><time>2015-04-26T12:22:42.0000000+00:00</time></trkpt><trkpt lat="35.1719081" lon="32.5510695"><ele>35.2</ele><time>2015-04-26T12:22:43.0000000+00:00</time></trkpt><trkpt lat="35.1719337" lon="32.5511258"><ele>34.6</ele><time>2015-04-26T12:22:44.0000000+00:00</time></trkpt><trkpt lat="35.1719656" lon="32.5511907"><ele>34.7</ele><time>2015-04-26T12:22:45.0000000+00:00</time></trkpt><trkpt lat="35.1719872" lon="32.5512609"><ele>34.3</ele><time>2015-04-26T12:22:46.0000000+00:00</time></trkpt><trkpt lat="35.1720104" lon="32.5513319"><ele>34.1</ele><time>2015-04-26T12:22:47.0000000+00:00</time></trkpt><trkpt lat="35.1720381" lon="32.5514151"><ele>34.0</ele><time>2015-04-26T12:22:48.0000000+00:00</time></trkpt><trkpt lat="35.1720626" lon="32.5514872"><ele>34.0</ele><time>2015-04-26T12:22:49.0000000+00:00</time></trkpt><trkpt lat="35.1720771" lon="32.5515571"><ele>33.5</ele><time>2015-04-26T12:22:50.0000000+00:00</time></trkpt><trkpt lat="35.1720961" lon="32.5516254"><ele>33.2</ele><time>2015-04-26T12:22:51.0000000+00:00</time></trkpt><trkpt lat="35.172122" lon="32.5516887"><ele>33.6</ele><time>2015-04-26T12:22:52.0000000+00:00</time></trkpt><trkpt lat="35.1721379" lon="32.5517552"><ele>33.2</ele><time>2015-04-26T12:22:53.0000000+00:00</time></trkpt><trkpt lat="35.1721553" lon="32.5518245"><ele>33.1</ele><time>2015-04-26T12:22:54.0000000+00:00</time></trkpt><trkpt lat="35.17218" lon="32.5518885"><ele>33.0</ele><time>2015-04-26T12:22:55.0000000+00:00</time></trkpt><trkpt lat="35.1721921" lon="32.5519597"><ele>33.0</ele><time>2015-04-26T12:22:56.0000000+00:00</time></trkpt><trkpt lat="35.1722056" lon="32.5520343"><ele>32.9</ele><time>2015-04-26T12:22:57.0000000+00:00</time></trkpt><trkpt lat="35.1722223" lon="32.5521122"><ele>32.9</ele><time>2015-04-26T12:22:58.0000000+00:00</time></trkpt><trkpt lat="35.1722383" lon="32.5521917"><ele>32.9</ele><time>2015-04-26T12:22:59.0000000+00:00</time></trkpt><trkpt lat="35.1722568" lon="32.5522637"><ele>32.9</ele><time>2015-04-26T12:23:00.0000000+00:00</time></trkpt><trkpt lat="35.1722684" lon="32.5523348"><ele>32.9</ele><time>2015-04-26T12:23:01.0000000+00:00</time></trkpt><trkpt lat="35.1722849" lon="32.5524065"><ele>33.4</ele><time>2015-04-26T12:23:02.0000000+00:00</time></trkpt><trkpt lat="35.1722941" lon="32.5524885"><ele>33.2</ele><time>2015-04-26T12:23:03.0000000+00:00</time></trkpt><trkpt lat="35.1723036" lon="32.552567"><ele>32.6</ele><time>2015-04-26T12:23:04.0000000+00:00</time></trkpt><trkpt lat="35.1723164" lon="32.5526316"><ele>32.7</ele><time>2015-04-26T12:23:05.0000000+00:00</time></trkpt><trkpt lat="35.1723259" lon="32.5527051"><ele>32.3</ele><time>2015-04-26T12:23:06.0000000+00:00</time></trkpt><trkpt lat="35.1723328" lon="32.5527861"><ele>33.1</ele><time>2015-04-26T12:23:07.0000000+00:00</time></trkpt><trkpt lat="35.17234" lon="32.55286"><ele>33.5</ele><time>2015-04-26T12:23:08.0000000+00:00</time></trkpt><trkpt lat="35.172342" lon="32.5529332"><ele>33.2</ele><time>2015-04-26T12:23:09.0000000+00:00</time></trkpt><trkpt lat="35.1723424" lon="32.5530103"><ele>32.6</ele><time>2015-04-26T12:23:10.0000000+00:00</time></trkpt><trkpt lat="35.1723485" lon="32.5530784"><ele>32.8</ele><time>2015-04-26T12:23:11.0000000+00:00</time></trkpt><trkpt lat="35.1723634" lon="32.5531585"><ele>33.3</ele><time>2015-04-26T12:23:12.0000000+00:00</time></trkpt><trkpt lat="35.1723676" lon="32.5532313"><ele>33.6</ele><time>2015-04-26T12:23:13.0000000+00:00</time></trkpt><trkpt lat="35.1723722" lon="32.5533056"><ele>33.8</ele><time>2015-04-26T12:23:14.0000000+00:00</time></trkpt><trkpt lat="35.1723742" lon="32.5533812"><ele>33.9</ele><time>2015-04-26T12:23:15.0000000+00:00</time></trkpt><trkpt lat="35.1723718" lon="32.5534538"><ele>33.4</ele><time>2015-04-26T12:23:16.0000000+00:00</time></trkpt><trkpt lat="35.1723723" lon="32.5535203"><ele>33.2</ele><time>2015-04-26T12:23:17.0000000+00:00</time></trkpt><trkpt lat="35.1723756" lon="32.5535807"><ele>33.5</ele><time>2015-04-26T12:23:18.0000000+00:00</time></trkpt><trkpt lat="35.1723722" lon="32.5536648"><ele>33.6</ele><time>2015-04-26T12:23:20.0000000+00:00</time></trkpt><trkpt lat="35.172338" lon="32.5537323"><ele>33.3</ele><time>2015-04-26T12:23:22.0000000+00:00</time></trkpt><trkpt lat="35.1723278" lon="32.5538027"><ele>33.3</ele><time>2015-04-26T12:23:24.0000000+00:00</time></trkpt><trkpt lat="35.1723445" lon="32.5538875"><ele>33.0</ele><time>2015-04-26T12:23:26.0000000+00:00</time></trkpt><trkpt lat="35.1723431" lon="32.5539849"><ele>32.7</ele><time>2015-04-26T12:23:28.0000000+00:00</time></trkpt><trkpt lat="35.1723428" lon="32.5540906"><ele>32.1</ele><time>2015-04-26T12:23:30.0000000+00:00</time></trkpt><trkpt lat="35.1723453" lon="32.5542207"><ele>30.5</ele><time>2015-04-26T12:23:32.0000000+00:00</time></trkpt><trkpt lat="35.1723374" lon="32.5542862"><ele>30.2</ele><time>2015-04-26T12:23:33.0000000+00:00</time></trkpt><trkpt lat="35.1723187" lon="32.5543901"><ele>30.7</ele><time>2015-04-26T12:23:35.0000000+00:00</time></trkpt><trkpt lat="35.1723089" lon="32.5544448"><ele>30.3</ele><time>2015-04-26T12:23:36.0000000+00:00</time></trkpt><trkpt lat="35.1723053" lon="32.554531"><ele>30.8</ele><time>2015-04-26T12:23:38.0000000+00:00</time></trkpt><trkpt lat="35.1722877" lon="32.5546275"><ele>30.9</ele><time>2015-04-26T12:23:40.0000000+00:00</time></trkpt><trkpt lat="35.1722622" lon="32.5547343"><ele>30.7</ele><time>2015-04-26T12:23:42.0000000+00:00</time></trkpt><trkpt lat="35.1722458" lon="32.5547891"><ele>30.3</ele><time>2015-04-26T12:23:43.0000000+00:00</time></trkpt><trkpt lat="35.1722299" lon="32.5548437"><ele>30.1</ele><time>2015-04-26T12:23:44.0000000+00:00</time></trkpt><trkpt lat="35.1722207" lon="32.5549299"><ele>30.0</ele><time>2015-04-26T12:23:46.0000000+00:00</time></trkpt><trkpt lat="35.1722015" lon="32.5550068"><ele>30.2</ele><time>2015-04-26T12:23:48.0000000+00:00</time></trkpt><trkpt lat="35.1721791" lon="32.5550974"><ele>30.7</ele><time>2015-04-26T12:23:50.0000000+00:00</time></trkpt><trkpt lat="35.1721683" lon="32.5551767"><ele>31.4</ele><time>2015-04-26T12:23:52.0000000+00:00</time></trkpt><trkpt lat="35.1721483" lon="32.5552393"><ele>31.0</ele><time>2015-04-26T12:23:54.0000000+00:00</time></trkpt><trkpt lat="35.1721247" lon="32.5552987"><ele>31.5</ele><time>2015-04-26T12:23:56.0000000+00:00</time></trkpt><trkpt lat="35.1720995" lon="32.5553527"><ele>31.8</ele><time>2015-04-26T12:23:58.0000000+00:00</time></trkpt><trkpt lat="35.1720687" lon="32.5554231"><ele>31.9</ele><time>2015-04-26T12:24:01.0000000+00:00</time></trkpt><trkpt lat="35.1720493" lon="32.5554782"><ele>31.7</ele><time>2015-04-26T12:24:03.0000000+00:00</time></trkpt><trkpt lat="35.1720242" lon="32.5555393"><ele>32.6</ele><time>2015-04-26T12:24:05.0000000+00:00</time></trkpt><trkpt lat="35.1719924" lon="32.5556048"><ele>34.1</ele><time>2015-04-26T12:24:07.0000000+00:00</time></trkpt><trkpt lat="35.1719461" lon="32.5556955"><ele>34.7</ele><time>2015-04-26T12:24:09.0000000+00:00</time></trkpt><trkpt lat="35.1719039" lon="32.5557716"><ele>34.8</ele><time>2015-04-26T12:24:10.0000000+00:00</time></trkpt><trkpt lat="35.1718781" lon="32.5558169"><ele>34.9</ele><time>2015-04-26T12:24:11.0000000+00:00</time></trkpt><trkpt lat="35.171834" lon="32.5559024"><ele>34.9</ele><time>2015-04-26T12:24:13.0000000+00:00</time></trkpt><trkpt lat="35.1718078" lon="32.5559866"><ele>35.7</ele><time>2015-04-26T12:24:15.0000000+00:00</time></trkpt><trkpt lat="35.1717802" lon="32.5560301"><ele>35.8</ele><time>2015-04-26T12:24:16.0000000+00:00</time></trkpt><trkpt lat="35.1717405" lon="32.5560888"><ele>35.9</ele><time>2015-04-26T12:24:17.0000000+00:00</time></trkpt><trkpt lat="35.1717107" lon="32.5561315"><ele>35.9</ele><time>2015-04-26T12:24:18.0000000+00:00</time></trkpt><trkpt lat="35.1716741" lon="32.5561886"><ele>36.4</ele><time>2015-04-26T12:24:19.0000000+00:00</time></trkpt><trkpt lat="35.1716402" lon="32.5562386"><ele>36.7</ele><time>2015-04-26T12:24:20.0000000+00:00</time></trkpt><trkpt lat="35.1716097" lon="32.5562906"><ele>36.8</ele><time>2015-04-26T12:24:21.0000000+00:00</time></trkpt><trkpt lat="35.1715766" lon="32.5563432"><ele>36.9</ele><time>2015-04-26T12:24:22.0000000+00:00</time></trkpt><trkpt lat="35.1715488" lon="32.5563903"><ele>36.9</ele><time>2015-04-26T12:24:23.0000000+00:00</time></trkpt><trkpt lat="35.1715261" lon="32.5564379"><ele>36.9</ele><time>2015-04-26T12:24:24.0000000+00:00</time></trkpt><trkpt lat="35.1714985" lon="32.556486"><ele>36.9</ele><time>2015-04-26T12:24:25.0000000+00:00</time></trkpt><trkpt lat="35.1714713" lon="32.5565445"><ele>36.9</ele><time>2015-04-26T12:24:26.0000000+00:00</time></trkpt><trkpt lat="35.1714339" lon="32.5566011"><ele>37.4</ele><time>2015-04-26T12:24:27.0000000+00:00</time></trkpt><trkpt lat="35.1713987" lon="32.556646"><ele>37.2</ele><time>2015-04-26T12:24:28.0000000+00:00</time></trkpt><trkpt lat="35.1713587" lon="32.5567054"><ele>37.6</ele><time>2015-04-26T12:24:29.0000000+00:00</time></trkpt><trkpt lat="35.1713157" lon="32.5567636"><ele>37.7</ele><time>2015-04-26T12:24:30.0000000+00:00</time></trkpt><trkpt lat="35.1712753" lon="32.556824"><ele>37.8</ele><time>2015-04-26T12:24:31.0000000+00:00</time></trkpt><trkpt lat="35.1712384" lon="32.5568778"><ele>38.4</ele><time>2015-04-26T12:24:32.0000000+00:00</time></trkpt><trkpt lat="35.1712039" lon="32.5569267"><ele>38.2</ele><time>2015-04-26T12:24:33.0000000+00:00</time></trkpt><trkpt lat="35.1711644" lon="32.556975"><ele>38.0</ele><time>2015-04-26T12:24:34.0000000+00:00</time></trkpt><trkpt lat="35.1711317" lon="32.5570169"><ele>38.0</ele><time>2015-04-26T12:24:35.0000000+00:00</time></trkpt><trkpt lat="35.1710927" lon="32.5570727"><ele>37.5</ele><time>2015-04-26T12:24:36.0000000+00:00</time></trkpt><trkpt lat="35.1710483" lon="32.5571174"><ele>37.7</ele><time>2015-04-26T12:24:37.0000000+00:00</time></trkpt><trkpt lat="35.1710105" lon="32.5571638"><ele>37.8</ele><time>2015-04-26T12:24:38.0000000+00:00</time></trkpt><trkpt lat="35.1709691" lon="32.5572154"><ele>37.4</ele><time>2015-04-26T12:24:39.0000000+00:00</time></trkpt><trkpt lat="35.1709202" lon="32.5572668"><ele>37.2</ele><time>2015-04-26T12:24:40.0000000+00:00</time></trkpt><trkpt lat="35.1708774" lon="32.5573174"><ele>37.0</ele><time>2015-04-26T12:24:41.0000000+00:00</time></trkpt><trkpt lat="35.1708354" lon="32.5573734"><ele>37.0</ele><time>2015-04-26T12:24:42.0000000+00:00</time></trkpt><trkpt lat="35.170794" lon="32.5574174"><ele>36.5</ele><time>2015-04-26T12:24:43.0000000+00:00</time></trkpt><trkpt lat="35.1707458" lon="32.5574638"><ele>35.2</ele><time>2015-04-26T12:24:44.0000000+00:00</time></trkpt><trkpt lat="35.1707088" lon="32.5575053"><ele>34.6</ele><time>2015-04-26T12:24:45.0000000+00:00</time></trkpt><trkpt lat="35.1706649" lon="32.557551"><ele>34.2</ele><time>2015-04-26T12:24:46.0000000+00:00</time></trkpt><trkpt lat="35.1706312" lon="32.5576002"><ele>34.1</ele><time>2015-04-26T12:24:47.0000000+00:00</time></trkpt><trkpt lat="35.1705959" lon="32.5576426"><ele>33.5</ele><time>2015-04-26T12:24:48.0000000+00:00</time></trkpt><trkpt lat="35.1705577" lon="32.5577009"><ele>33.2</ele><time>2015-04-26T12:24:49.0000000+00:00</time></trkpt><trkpt lat="35.1705232" lon="32.5577644"><ele>32.6</ele><time>2015-04-26T12:24:50.0000000+00:00</time></trkpt><trkpt lat="35.1704951" lon="32.5578098"><ele>32.3</ele><time>2015-04-26T12:24:51.0000000+00:00</time></trkpt><trkpt lat="35.1704453" lon="32.5579021"><ele>31.8</ele><time>2015-04-26T12:24:53.0000000+00:00</time></trkpt><trkpt lat="35.1704134" lon="32.5579568"><ele>31.8</ele><time>2015-04-26T12:24:54.0000000+00:00</time></trkpt><trkpt lat="35.1703926" lon="32.5580059"><ele>32.4</ele><time>2015-04-26T12:24:55.0000000+00:00</time></trkpt><trkpt lat="35.1703709" lon="32.5580565"><ele>32.7</ele><time>2015-04-26T12:24:56.0000000+00:00</time></trkpt><trkpt lat="35.1703434" lon="32.5581205"><ele>32.3</ele><time>2015-04-26T12:24:57.0000000+00:00</time></trkpt><trkpt lat="35.1703225" lon="32.5581789"><ele>32.1</ele><time>2015-04-26T12:24:58.0000000+00:00</time></trkpt><trkpt lat="35.1703029" lon="32.5582402"><ele>32.5</ele><time>2015-04-26T12:24:59.0000000+00:00</time></trkpt><trkpt lat="35.1702787" lon="32.5582982"><ele>32.7</ele><time>2015-04-26T12:25:00.0000000+00:00</time></trkpt><trkpt lat="35.1702515" lon="32.558353"><ele>32.8</ele><time>2015-04-26T12:25:01.0000000+00:00</time></trkpt><trkpt lat="35.1702254" lon="32.5584431"><ele>32.2</ele><time>2015-04-26T12:25:03.0000000+00:00</time></trkpt><trkpt lat="35.1702052" lon="32.5585007"><ele>32.0</ele><time>2015-04-26T12:25:04.0000000+00:00</time></trkpt><trkpt lat="35.1701716" lon="32.5586054"><ele>32.0</ele><time>2015-04-26T12:25:06.0000000+00:00</time></trkpt><trkpt lat="35.1701514" lon="32.5587076"><ele>31.2</ele><time>2015-04-26T12:25:08.0000000+00:00</time></trkpt><trkpt lat="35.1701335" lon="32.5587661"><ele>31.1</ele><time>2015-04-26T12:25:09.0000000+00:00</time></trkpt><trkpt lat="35.1701115" lon="32.5588255"><ele>31.5</ele><time>2015-04-26T12:25:10.0000000+00:00</time></trkpt><trkpt lat="35.1700963" lon="32.558884"><ele>32.2</ele><time>2015-04-26T12:25:11.0000000+00:00</time></trkpt><trkpt lat="35.1700775" lon="32.5589363"><ele>32.1</ele><time>2015-04-26T12:25:12.0000000+00:00</time></trkpt><trkpt lat="35.1700442" lon="32.5590223"><ele>32.7</ele><time>2015-04-26T12:25:14.0000000+00:00</time></trkpt><trkpt lat="35.170024" lon="32.5590818"><ele>32.3</ele><time>2015-04-26T12:25:15.0000000+00:00</time></trkpt><trkpt lat="35.1700102" lon="32.5591424"><ele>32.1</ele><time>2015-04-26T12:25:16.0000000+00:00</time></trkpt><trkpt lat="35.1699919" lon="32.5591983"><ele>32.0</ele><time>2015-04-26T12:25:17.0000000+00:00</time></trkpt><trkpt lat="35.1699762" lon="32.5592548"><ele>32.0</ele><time>2015-04-26T12:25:18.0000000+00:00</time></trkpt><trkpt lat="35.1699564" lon="32.5593181"><ele>32.0</ele><time>2015-04-26T12:25:19.0000000+00:00</time></trkpt><trkpt lat="35.1699371" lon="32.5593942"><ele>32.4</ele><time>2015-04-26T12:25:20.0000000+00:00</time></trkpt><trkpt lat="35.169921" lon="32.5594603"><ele>33.2</ele><time>2015-04-26T12:25:21.0000000+00:00</time></trkpt><trkpt lat="35.1698828" lon="32.5595109"><ele>33.1</ele><time>2015-04-26T12:25:22.0000000+00:00</time></trkpt><trkpt lat="35.1698511" lon="32.5596133"><ele>31.7</ele><time>2015-04-26T12:25:24.0000000+00:00</time></trkpt><trkpt lat="35.1698258" lon="32.559668"><ele>31.3</ele><time>2015-04-26T12:25:25.0000000+00:00</time></trkpt><trkpt lat="35.1698149" lon="32.5597333"><ele>31.1</ele><time>2015-04-26T12:25:26.0000000+00:00</time></trkpt><trkpt lat="35.1697906" lon="32.5597942"><ele>31.0</ele><time>2015-04-26T12:25:27.0000000+00:00</time></trkpt><trkpt lat="35.1697651" lon="32.559847"><ele>31.5</ele><time>2015-04-26T12:25:28.0000000+00:00</time></trkpt><trkpt lat="35.1697242" lon="32.5599367"><ele>30.6</ele><time>2015-04-26T12:25:30.0000000+00:00</time></trkpt><trkpt lat="35.1697002" lon="32.5599905"><ele>30.7</ele><time>2015-04-26T12:25:31.0000000+00:00</time></trkpt><trkpt lat="35.1696804" lon="32.560041"><ele>30.8</ele><time>2015-04-26T12:25:32.0000000+00:00</time></trkpt><trkpt lat="35.169653" lon="32.5601064"><ele>31.4</ele><time>2015-04-26T12:25:33.0000000+00:00</time></trkpt><trkpt lat="35.1696307" lon="32.5601646"><ele>31.7</ele><time>2015-04-26T12:25:34.0000000+00:00</time></trkpt><trkpt lat="35.1696" lon="32.5602332"><ele>32.3</ele><time>2015-04-26T12:25:35.0000000+00:00</time></trkpt><trkpt lat="35.1695717" lon="32.5602954"><ele>33.1</ele><time>2015-04-26T12:25:36.0000000+00:00</time></trkpt><trkpt lat="35.1695538" lon="32.5603507"><ele>33.5</ele><time>2015-04-26T12:25:37.0000000+00:00</time></trkpt><trkpt lat="35.1695345" lon="32.5604067"><ele>34.2</ele><time>2015-04-26T12:25:38.0000000+00:00</time></trkpt><trkpt lat="35.1695103" lon="32.5604633"><ele>34.1</ele><time>2015-04-26T12:25:39.0000000+00:00</time></trkpt><trkpt lat="35.1694857" lon="32.560529"><ele>34.5</ele><time>2015-04-26T12:25:40.0000000+00:00</time></trkpt><trkpt lat="35.1694503" lon="32.560617"><ele>33.3</ele><time>2015-04-26T12:25:42.0000000+00:00</time></trkpt><trkpt lat="35.1694273" lon="32.5606816"><ele>33.6</ele><time>2015-04-26T12:25:43.0000000+00:00</time></trkpt><trkpt lat="35.1694047" lon="32.5607375"><ele>34.3</ele><time>2015-04-26T12:25:44.0000000+00:00</time></trkpt><trkpt lat="35.1693848" lon="32.5607942"><ele>34.6</ele><time>2015-04-26T12:25:45.0000000+00:00</time></trkpt><trkpt lat="35.1693674" lon="32.5608591"><ele>35.8</ele><time>2015-04-26T12:25:46.0000000+00:00</time></trkpt><trkpt lat="35.1693454" lon="32.5609182"><ele>36.8</ele><time>2015-04-26T12:25:47.0000000+00:00</time></trkpt><trkpt lat="35.1693235" lon="32.5609845"><ele>37.4</ele><time>2015-04-26T12:25:48.0000000+00:00</time></trkpt><trkpt lat="35.1692952" lon="32.5610435"><ele>37.7</ele><time>2015-04-26T12:25:49.0000000+00:00</time></trkpt><trkpt lat="35.1692688" lon="32.5610977"><ele>37.8</ele><time>2015-04-26T12:25:50.0000000+00:00</time></trkpt><trkpt lat="35.1692448" lon="32.5611554"><ele>37.9</ele><time>2015-04-26T12:25:51.0000000+00:00</time></trkpt><trkpt lat="35.1692001" lon="32.5612369"><ele>36.4</ele><time>2015-04-26T12:25:53.0000000+00:00</time></trkpt><trkpt lat="35.169187" lon="32.5612938"><ele>35.7</ele><time>2015-04-26T12:25:54.0000000+00:00</time></trkpt><trkpt lat="35.1691617" lon="32.5613844"><ele>34.9</ele><time>2015-04-26T12:25:56.0000000+00:00</time></trkpt><trkpt lat="35.169114" lon="32.5614863"><ele>35.4</ele><time>2015-04-26T12:25:58.0000000+00:00</time></trkpt><trkpt lat="35.1690931" lon="32.5615472"><ele>36.2</ele><time>2015-04-26T12:25:59.0000000+00:00</time></trkpt><trkpt lat="35.1690685" lon="32.5616097"><ele>37.1</ele><time>2015-04-26T12:26:00.0000000+00:00</time></trkpt><trkpt lat="35.169051" lon="32.5616795"><ele>39.0</ele><time>2015-04-26T12:26:01.0000000+00:00</time></trkpt><trkpt lat="35.1690217" lon="32.5617356"><ele>40.0</ele><time>2015-04-26T12:26:02.0000000+00:00</time></trkpt><trkpt lat="35.1689929" lon="32.5617874"><ele>40.4</ele><time>2015-04-26T12:26:03.0000000+00:00</time></trkpt><trkpt lat="35.168975" lon="32.5618395"><ele>40.7</ele><time>2015-04-26T12:26:04.0000000+00:00</time></trkpt><trkpt lat="35.1689499" lon="32.5618984"><ele>41.3</ele><time>2015-04-26T12:26:05.0000000+00:00</time></trkpt><trkpt lat="35.168934" lon="32.5619651"><ele>42.6</ele><time>2015-04-26T12:26:06.0000000+00:00</time></trkpt><trkpt lat="35.1689066" lon="32.5620215"><ele>43.3</ele><time>2015-04-26T12:26:07.0000000+00:00</time></trkpt><trkpt lat="35.1688794" lon="32.5620748"><ele>43.6</ele><time>2015-04-26T12:26:08.0000000+00:00</time></trkpt><trkpt lat="35.168841" lon="32.5621683"><ele>44.1</ele><time>2015-04-26T12:26:10.0000000+00:00</time></trkpt><trkpt lat="35.168819" lon="32.5622228"><ele>45.0</ele><time>2015-04-26T12:26:11.0000000+00:00</time></trkpt><trkpt lat="35.1687707" lon="32.5623254"><ele>46.2</ele><time>2015-04-26T12:26:13.0000000+00:00</time></trkpt><trkpt lat="35.1687196" lon="32.5624192"><ele>47.5</ele><time>2015-04-26T12:26:15.0000000+00:00</time></trkpt><trkpt lat="35.1686955" lon="32.5624876"><ele>46.3</ele><time>2015-04-26T12:26:17.0000000+00:00</time></trkpt><trkpt lat="35.168666" lon="32.5625778"><ele>45.5</ele><time>2015-04-26T12:26:19.0000000+00:00</time></trkpt><trkpt lat="35.1686197" lon="32.5626687"><ele>45.6</ele><time>2015-04-26T12:26:21.0000000+00:00</time></trkpt><trkpt lat="35.1685913" lon="32.5627445"><ele>45.3</ele><time>2015-04-26T12:26:23.0000000+00:00</time></trkpt><trkpt lat="35.1685617" lon="32.5628282"><ele>45.3</ele><time>2015-04-26T12:26:25.0000000+00:00</time></trkpt><trkpt lat="35.1685307" lon="32.5629074"><ele>45.8</ele><time>2015-04-26T12:26:27.0000000+00:00</time></trkpt><trkpt lat="35.1684992" lon="32.5629822"><ele>44.9</ele><time>2015-04-26T12:26:29.0000000+00:00</time></trkpt><trkpt lat="35.1684717" lon="32.5630609"><ele>45.7</ele><time>2015-04-26T12:26:31.0000000+00:00</time></trkpt><trkpt lat="35.1684412" lon="32.5631468"><ele>46.4</ele><time>2015-04-26T12:26:33.0000000+00:00</time></trkpt><trkpt lat="35.1684082" lon="32.5632343"><ele>47.5</ele><time>2015-04-26T12:26:35.0000000+00:00</time></trkpt><trkpt lat="35.1683849" lon="32.563329"><ele>47.1</ele><time>2015-04-26T12:26:37.0000000+00:00</time></trkpt><trkpt lat="35.168362" lon="32.5634201"><ele>47.2</ele><time>2015-04-26T12:26:39.0000000+00:00</time></trkpt><trkpt lat="35.168337" lon="32.5635102"><ele>47.8</ele><time>2015-04-26T12:26:41.0000000+00:00</time></trkpt><trkpt lat="35.1683153" lon="32.5636002"><ele>48.4</ele><time>2015-04-26T12:26:43.0000000+00:00</time></trkpt><trkpt lat="35.1682961" lon="32.5636913"><ele>48.8</ele><time>2015-04-26T12:26:45.0000000+00:00</time></trkpt><trkpt lat="35.1682798" lon="32.5637886"><ele>49.4</ele><time>2015-04-26T12:26:47.0000000+00:00</time></trkpt><trkpt lat="35.1682699" lon="32.5638893"><ele>49.8</ele><time>2015-04-26T12:26:49.0000000+00:00</time></trkpt><trkpt lat="35.1682668" lon="32.5639616"><ele>49.9</ele><time>2015-04-26T12:26:50.0000000+00:00</time></trkpt><trkpt lat="35.1682554" lon="32.5640202"><ele>49.9</ele><time>2015-04-26T12:26:51.0000000+00:00</time></trkpt><trkpt lat="35.1682437" lon="32.5640806"><ele>49.9</ele><time>2015-04-26T12:26:52.0000000+00:00</time></trkpt><trkpt lat="35.1682363" lon="32.5641368"><ele>50.4</ele><time>2015-04-26T12:26:53.0000000+00:00</time></trkpt><trkpt lat="35.1682254" lon="32.5642351"><ele>50.8</ele><time>2015-04-26T12:26:55.0000000+00:00</time></trkpt><trkpt lat="35.1682114" lon="32.5643457"><ele>50.9</ele><time>2015-04-26T12:26:57.0000000+00:00</time></trkpt><trkpt lat="35.168202" lon="32.5644068"><ele>50.4</ele><time>2015-04-26T12:26:58.0000000+00:00</time></trkpt><trkpt lat="35.1681925" lon="32.5644672"><ele>50.2</ele><time>2015-04-26T12:26:59.0000000+00:00</time></trkpt><trkpt lat="35.1681958" lon="32.5645808"><ele>49.2</ele><time>2015-04-26T12:27:01.0000000+00:00</time></trkpt><trkpt lat="35.1681963" lon="32.5646875"><ele>49.8</ele><time>2015-04-26T12:27:03.0000000+00:00</time></trkpt><trkpt lat="35.1682115" lon="32.5648102"><ele>49.9</ele><time>2015-04-26T12:27:05.0000000+00:00</time></trkpt><trkpt lat="35.1682175" lon="32.5648778"><ele>49.9</ele><time>2015-04-26T12:27:06.0000000+00:00</time></trkpt><trkpt lat="35.168228" lon="32.564941"><ele>49.9</ele><time>2015-04-26T12:27:07.0000000+00:00</time></trkpt><trkpt lat="35.1682352" lon="32.5650114"><ele>50.4</ele><time>2015-04-26T12:27:08.0000000+00:00</time></trkpt><trkpt lat="35.168237" lon="32.565099"><ele>50.2</ele><time>2015-04-26T12:27:09.0000000+00:00</time></trkpt><trkpt lat="35.1682492" lon="32.5651805"><ele>50.6</ele><time>2015-04-26T12:27:10.0000000+00:00</time></trkpt><trkpt lat="35.1682553" lon="32.5652592"><ele>50.7</ele><time>2015-04-26T12:27:11.0000000+00:00</time></trkpt><trkpt lat="35.1682611" lon="32.5653313"><ele>50.8</ele><time>2015-04-26T12:27:12.0000000+00:00</time></trkpt><trkpt lat="35.1682686" lon="32.5653952"><ele>50.4</ele><time>2015-04-26T12:27:13.0000000+00:00</time></trkpt><trkpt lat="35.1682788" lon="32.5654647"><ele>50.2</ele><time>2015-04-26T12:27:14.0000000+00:00</time></trkpt><trkpt lat="35.1682951" lon="32.5655335"><ele>50.0</ele><time>2015-04-26T12:27:15.0000000+00:00</time></trkpt><trkpt lat="35.1683124" lon="32.5656034"><ele>50.0</ele><time>2015-04-26T12:27:16.0000000+00:00</time></trkpt><trkpt lat="35.1683249" lon="32.5656792"><ele>49.5</ele><time>2015-04-26T12:27:17.0000000+00:00</time></trkpt><trkpt lat="35.1683449" lon="32.5657568"><ele>49.2</ele><time>2015-04-26T12:27:18.0000000+00:00</time></trkpt><trkpt lat="35.1683733" lon="32.5658374"><ele>49.1</ele><time>2015-04-26T12:27:19.0000000+00:00</time></trkpt><trkpt lat="35.168402" lon="32.565904"><ele>48.5</ele><time>2015-04-26T12:27:20.0000000+00:00</time></trkpt><trkpt lat="35.1684317" lon="32.5659676"><ele>49.2</ele><time>2015-04-26T12:27:21.0000000+00:00</time></trkpt><trkpt lat="35.168445" lon="32.5660359"><ele>49.1</ele><time>2015-04-26T12:27:22.0000000+00:00</time></trkpt><trkpt lat="35.1684751" lon="32.5661142"><ele>48.5</ele><time>2015-04-26T12:27:23.0000000+00:00</time></trkpt><trkpt lat="35.1685116" lon="32.5661822"><ele>50.2</ele><time>2015-04-26T12:27:24.0000000+00:00</time></trkpt><trkpt lat="35.1685414" lon="32.5662574"><ele>51.1</ele><time>2015-04-26T12:27:25.0000000+00:00</time></trkpt><trkpt lat="35.1685719" lon="32.5663371"><ele>52.0</ele><time>2015-04-26T12:27:26.0000000+00:00</time></trkpt><trkpt lat="35.168604" lon="32.5664079"><ele>53.0</ele><time>2015-04-26T12:27:27.0000000+00:00</time></trkpt><trkpt lat="35.1686371" lon="32.5664897"><ele>53.4</ele><time>2015-04-26T12:27:28.0000000+00:00</time></trkpt><trkpt lat="35.1686719" lon="32.5665666"><ele>54.2</ele><time>2015-04-26T12:27:29.0000000+00:00</time></trkpt><trkpt lat="35.1686959" lon="32.566652"><ele>53.1</ele><time>2015-04-26T12:27:30.0000000+00:00</time></trkpt><trkpt lat="35.1687287" lon="32.566722"><ele>53.5</ele><time>2015-04-26T12:27:31.0000000+00:00</time></trkpt><trkpt lat="35.1687482" lon="32.5667933"><ele>54.2</ele><time>2015-04-26T12:27:32.0000000+00:00</time></trkpt><trkpt lat="35.168782" lon="32.5668676"><ele>54.6</ele><time>2015-04-26T12:27:33.0000000+00:00</time></trkpt><trkpt lat="35.1688112" lon="32.5669392"><ele>54.8</ele><time>2015-04-26T12:27:34.0000000+00:00</time></trkpt><trkpt lat="35.1688228" lon="32.5670297"><ele>53.3</ele><time>2015-04-26T12:27:35.0000000+00:00</time></trkpt><trkpt lat="35.1688578" lon="32.5671129"><ele>51.1</ele><time>2015-04-26T12:27:36.0000000+00:00</time></trkpt><trkpt lat="35.1688828" lon="32.5671859"><ele>50.0</ele><time>2015-04-26T12:27:37.0000000+00:00</time></trkpt><trkpt lat="35.1689016" lon="32.5672708"><ele>50.0</ele><time>2015-04-26T12:27:38.0000000+00:00</time></trkpt><trkpt lat="35.1689126" lon="32.5673527"><ele>49.5</ele><time>2015-04-26T12:27:39.0000000+00:00</time></trkpt><trkpt lat="35.1689321" lon="32.5674272"><ele>49.2</ele><time>2015-04-26T12:27:40.0000000+00:00</time></trkpt><trkpt lat="35.1689583" lon="32.5675226"><ele>48.6</ele><time>2015-04-26T12:27:41.0000000+00:00</time></trkpt><trkpt lat="35.16898" lon="32.5676054"><ele>47.7</ele><time>2015-04-26T12:27:42.0000000+00:00</time></trkpt><trkpt lat="35.1690114" lon="32.5676807"><ele>47.3</ele><time>2015-04-26T12:27:43.0000000+00:00</time></trkpt><trkpt lat="35.1690403" lon="32.5677603"><ele>46.6</ele><time>2015-04-26T12:27:44.0000000+00:00</time></trkpt><trkpt lat="35.1690662" lon="32.5678479"><ele>45.8</ele><time>2015-04-26T12:27:45.0000000+00:00</time></trkpt><trkpt lat="35.1690804" lon="32.5679354"><ele>44.4</ele><time>2015-04-26T12:27:46.0000000+00:00</time></trkpt><trkpt lat="35.1691154" lon="32.5680133"><ele>43.6</ele><time>2015-04-26T12:27:47.0000000+00:00</time></trkpt><trkpt lat="35.1691325" lon="32.5681045"><ele>42.8</ele><time>2015-04-26T12:27:48.0000000+00:00</time></trkpt><trkpt lat="35.1691519" lon="32.5682022"><ele>41.9</ele><time>2015-04-26T12:27:49.0000000+00:00</time></trkpt><trkpt lat="35.169172" lon="32.5682826"><ele>40.9</ele><time>2015-04-26T12:27:50.0000000+00:00</time></trkpt><trkpt lat="35.1691999" lon="32.5683686"><ele>40.4</ele><time>2015-04-26T12:27:51.0000000+00:00</time></trkpt><trkpt lat="35.1692284" lon="32.5684498"><ele>40.7</ele><time>2015-04-26T12:27:52.0000000+00:00</time></trkpt><trkpt lat="35.1692562" lon="32.568539"><ele>40.8</ele><time>2015-04-26T12:27:53.0000000+00:00</time></trkpt><trkpt lat="35.169275" lon="32.5686333"><ele>40.4</ele><time>2015-04-26T12:27:54.0000000+00:00</time></trkpt><trkpt lat="35.1692988" lon="32.5687119"><ele>40.6</ele><time>2015-04-26T12:27:55.0000000+00:00</time></trkpt><trkpt lat="35.1693197" lon="32.5687967"><ele>40.8</ele><time>2015-04-26T12:27:56.0000000+00:00</time></trkpt><trkpt lat="35.1693374" lon="32.5688786"><ele>40.9</ele><time>2015-04-26T12:27:57.0000000+00:00</time></trkpt><trkpt lat="35.1693579" lon="32.5689541"><ele>41.4</ele><time>2015-04-26T12:27:58.0000000+00:00</time></trkpt><trkpt lat="35.1693752" lon="32.569019"><ele>41.2</ele><time>2015-04-26T12:27:59.0000000+00:00</time></trkpt><trkpt lat="35.1693857" lon="32.5690881"><ele>41.5</ele><time>2015-04-26T12:28:00.0000000+00:00</time></trkpt><trkpt lat="35.1693948" lon="32.5691519"><ele>41.2</ele><time>2015-04-26T12:28:01.0000000+00:00</time></trkpt><trkpt lat="35.1694118" lon="32.5692203"><ele>41.1</ele><time>2015-04-26T12:28:02.0000000+00:00</time></trkpt><trkpt lat="35.1694196" lon="32.5692833"><ele>41.0</ele><time>2015-04-26T12:28:03.0000000+00:00</time></trkpt><trkpt lat="35.1694254" lon="32.5693554"><ele>41.0</ele><time>2015-04-26T12:28:04.0000000+00:00</time></trkpt><trkpt lat="35.1694405" lon="32.5694256"><ele>40.9</ele><time>2015-04-26T12:28:05.0000000+00:00</time></trkpt><trkpt lat="35.1694439" lon="32.5695032"><ele>40.9</ele><time>2015-04-26T12:28:06.0000000+00:00</time></trkpt><trkpt lat="35.1694421" lon="32.569579"><ele>41.4</ele><time>2015-04-26T12:28:07.0000000+00:00</time></trkpt><trkpt lat="35.1694439" lon="32.5696509"><ele>41.7</ele><time>2015-04-26T12:28:08.0000000+00:00</time></trkpt><trkpt lat="35.169443" lon="32.5697336"><ele>41.8</ele><time>2015-04-26T12:28:09.0000000+00:00</time></trkpt><trkpt lat="35.1694445" lon="32.5698115"><ele>42.4</ele><time>2015-04-26T12:28:10.0000000+00:00</time></trkpt><trkpt lat="35.1694436" lon="32.5699041"><ele>43.1</ele><time>2015-04-26T12:28:11.0000000+00:00</time></trkpt><trkpt lat="35.1694419" lon="32.569969"><ele>44.0</ele><time>2015-04-26T12:28:12.0000000+00:00</time></trkpt><trkpt lat="35.1694351" lon="32.5700376"><ele>44.5</ele><time>2015-04-26T12:28:13.0000000+00:00</time></trkpt><trkpt lat="35.1694261" lon="32.5701034"><ele>45.2</ele><time>2015-04-26T12:28:14.0000000+00:00</time></trkpt><trkpt lat="35.1694208" lon="32.570166"><ele>45.6</ele><time>2015-04-26T12:28:15.0000000+00:00</time></trkpt><trkpt lat="35.1694137" lon="32.570222"><ele>45.7</ele><time>2015-04-26T12:28:16.0000000+00:00</time></trkpt><trkpt lat="35.1694055" lon="32.5703126"><ele>45.9</ele><time>2015-04-26T12:28:18.0000000+00:00</time></trkpt><trkpt lat="35.1693894" lon="32.5704068"><ele>45.9</ele><time>2015-04-26T12:28:20.0000000+00:00</time></trkpt><trkpt lat="35.1693819" lon="32.5704863"><ele>46.9</ele><time>2015-04-26T12:28:22.0000000+00:00</time></trkpt><trkpt lat="35.1693663" lon="32.5705421"><ele>46.9</ele><time>2015-04-26T12:28:24.0000000+00:00</time></trkpt><trkpt lat="35.1693734" lon="32.5706199"><ele>46.1</ele><time>2015-04-26T12:28:27.0000000+00:00</time></trkpt><trkpt lat="35.1693614" lon="32.5706947"><ele>46.7</ele><time>2015-04-26T12:28:30.0000000+00:00</time></trkpt><trkpt lat="35.1693536" lon="32.5707751"><ele>45.3</ele><time>2015-04-26T12:28:33.0000000+00:00</time></trkpt><trkpt lat="35.1693449" lon="32.5708322"><ele>45.0</ele><time>2015-04-26T12:28:35.0000000+00:00</time></trkpt><trkpt lat="35.1693248" lon="32.5708892"><ele>45.7</ele><time>2015-04-26T12:28:37.0000000+00:00</time></trkpt><trkpt lat="35.1693148" lon="32.5709506"><ele>46.6</ele><time>2015-04-26T12:28:39.0000000+00:00</time></trkpt><trkpt lat="35.1693076" lon="32.571022"><ele>47.1</ele><time>2015-04-26T12:28:41.0000000+00:00</time></trkpt><trkpt lat="35.1693022" lon="32.571105"><ele>47.5</ele><time>2015-04-26T12:28:43.0000000+00:00</time></trkpt><trkpt lat="35.1692975" lon="32.571206"><ele>47.1</ele><time>2015-04-26T12:28:45.0000000+00:00</time></trkpt><trkpt lat="35.1693162" lon="32.5713394"><ele>47.5</ele><time>2015-04-26T12:28:47.0000000+00:00</time></trkpt><trkpt lat="35.1693229" lon="32.5713963"><ele>47.7</ele><time>2015-04-26T12:28:48.0000000+00:00</time></trkpt><trkpt lat="35.1693312" lon="32.5715104"><ele>49.1</ele><time>2015-04-26T12:28:50.0000000+00:00</time></trkpt><trkpt lat="35.1693344" lon="32.5715708"><ele>49.5</ele><time>2015-04-26T12:28:51.0000000+00:00</time></trkpt><trkpt lat="35.1693406" lon="32.5716308"><ele>50.2</ele><time>2015-04-26T12:28:52.0000000+00:00</time></trkpt><trkpt lat="35.1693532" lon="32.5716852"><ele>50.6</ele><time>2015-04-26T12:28:53.0000000+00:00</time></trkpt><trkpt lat="35.169358" lon="32.5717424"><ele>50.3</ele><time>2015-04-26T12:28:54.0000000+00:00</time></trkpt><trkpt lat="35.1693794" lon="32.5718021"><ele>50.1</ele><time>2015-04-26T12:28:55.0000000+00:00</time></trkpt><trkpt lat="35.1693983" lon="32.5718614"><ele>50.5</ele><time>2015-04-26T12:28:56.0000000+00:00</time></trkpt><trkpt lat="35.1694135" lon="32.5719187"><ele>50.7</ele><time>2015-04-26T12:28:57.0000000+00:00</time></trkpt><trkpt lat="35.1694509" lon="32.5720158"><ele>52.1</ele><time>2015-04-26T12:28:59.0000000+00:00</time></trkpt><trkpt lat="35.1694702" lon="32.5720659"><ele>52.5</ele><time>2015-04-26T12:29:00.0000000+00:00</time></trkpt><trkpt lat="35.1694751" lon="32.5721224"><ele>52.7</ele><time>2015-04-26T12:29:01.0000000+00:00</time></trkpt><trkpt lat="35.1694934" lon="32.5722233"><ele>52.9</ele><time>2015-04-26T12:29:03.0000000+00:00</time></trkpt><trkpt lat="35.1695109" lon="32.5722877"><ele>52.9</ele><time>2015-04-26T12:29:04.0000000+00:00</time></trkpt><trkpt lat="35.1695248" lon="32.5723422"><ele>52.9</ele><time>2015-04-26T12:29:05.0000000+00:00</time></trkpt><trkpt lat="35.1695273" lon="32.5724043"><ele>52.9</ele><time>2015-04-26T12:29:06.0000000+00:00</time></trkpt><trkpt lat="35.1695356" lon="32.5724708"><ele>52.9</ele><time>2015-04-26T12:29:07.0000000+00:00</time></trkpt><trkpt lat="35.1695503" lon="32.5725278"><ele>52.9</ele><time>2015-04-26T12:29:08.0000000+00:00</time></trkpt><trkpt lat="35.1695615" lon="32.5725889"><ele>53.4</ele><time>2015-04-26T12:29:09.0000000+00:00</time></trkpt><trkpt lat="35.169565" lon="32.5726478"><ele>53.7</ele><time>2015-04-26T12:29:10.0000000+00:00</time></trkpt><trkpt lat="35.169574" lon="32.5727187"><ele>53.8</ele><time>2015-04-26T12:29:11.0000000+00:00</time></trkpt><trkpt lat="35.1695823" lon="32.5727821"><ele>54.4</ele><time>2015-04-26T12:29:12.0000000+00:00</time></trkpt><trkpt lat="35.1695907" lon="32.5728477"><ele>54.6</ele><time>2015-04-26T12:29:13.0000000+00:00</time></trkpt><trkpt lat="35.1695973" lon="32.5729079"><ele>54.8</ele><time>2015-04-26T12:29:14.0000000+00:00</time></trkpt><trkpt lat="35.1696052" lon="32.5729778"><ele>54.9</ele><time>2015-04-26T12:29:15.0000000+00:00</time></trkpt><trkpt lat="35.1696172" lon="32.5730311"><ele>54.4</ele><time>2015-04-26T12:29:16.0000000+00:00</time></trkpt><trkpt lat="35.1696275" lon="32.5730987"><ele>54.2</ele><time>2015-04-26T12:29:17.0000000+00:00</time></trkpt><trkpt lat="35.1696377" lon="32.5731602"><ele>54.0</ele><time>2015-04-26T12:29:18.0000000+00:00</time></trkpt><trkpt lat="35.1696455" lon="32.5732278"><ele>53.5</ele><time>2015-04-26T12:29:19.0000000+00:00</time></trkpt><trkpt lat="35.1696626" lon="32.5732888"><ele>53.2</ele><time>2015-04-26T12:29:20.0000000+00:00</time></trkpt><trkpt lat="35.1696773" lon="32.5733666"><ele>53.6</ele><time>2015-04-26T12:29:21.0000000+00:00</time></trkpt><trkpt lat="35.1696823" lon="32.5734262"><ele>53.2</ele><time>2015-04-26T12:29:22.0000000+00:00</time></trkpt><trkpt lat="35.169687" lon="32.5734889"><ele>52.6</ele><time>2015-04-26T12:29:23.0000000+00:00</time></trkpt><trkpt lat="35.1696926" lon="32.573552"><ele>52.3</ele><time>2015-04-26T12:29:24.0000000+00:00</time></trkpt><trkpt lat="35.1696962" lon="32.5736202"><ele>52.1</ele><time>2015-04-26T12:29:25.0000000+00:00</time></trkpt><trkpt lat="35.1697014" lon="32.5736772"><ele>51.5</ele><time>2015-04-26T12:29:26.0000000+00:00</time></trkpt><trkpt lat="35.1697074" lon="32.5737517"><ele>52.2</ele><time>2015-04-26T12:29:27.0000000+00:00</time></trkpt><trkpt lat="35.1697106" lon="32.5738122"><ele>52.6</ele><time>2015-04-26T12:29:28.0000000+00:00</time></trkpt><trkpt lat="35.1697217" lon="32.5738661"><ele>52.3</ele><time>2015-04-26T12:29:29.0000000+00:00</time></trkpt><trkpt lat="35.1697182" lon="32.5739313"><ele>52.1</ele><time>2015-04-26T12:29:30.0000000+00:00</time></trkpt><trkpt lat="35.169732" lon="32.5739857"><ele>51.5</ele><time>2015-04-26T12:29:31.0000000+00:00</time></trkpt><trkpt lat="35.169733" lon="32.5740586"><ele>51.2</ele><time>2015-04-26T12:29:32.0000000+00:00</time></trkpt><trkpt lat="35.1697426" lon="32.5741214"><ele>51.1</ele><time>2015-04-26T12:29:33.0000000+00:00</time></trkpt><trkpt lat="35.1697392" lon="32.5741974"><ele>50.5</ele><time>2015-04-26T12:29:34.0000000+00:00</time></trkpt><trkpt lat="35.1697415" lon="32.5742747"><ele>50.2</ele><time>2015-04-26T12:29:35.0000000+00:00</time></trkpt><trkpt lat="35.1697448" lon="32.5743573"><ele>50.6</ele><time>2015-04-26T12:29:36.0000000+00:00</time></trkpt><trkpt lat="35.1697396" lon="32.574434"><ele>50.8</ele><time>2015-04-26T12:29:37.0000000+00:00</time></trkpt><trkpt lat="35.1697445" lon="32.5745079"><ele>50.8</ele><time>2015-04-26T12:29:38.0000000+00:00</time></trkpt><trkpt lat="35.1697398" lon="32.5745807"><ele>50.9</ele><time>2015-04-26T12:29:39.0000000+00:00</time></trkpt><trkpt lat="35.1697444" lon="32.5746554"><ele>50.4</ele><time>2015-04-26T12:29:40.0000000+00:00</time></trkpt><trkpt lat="35.1697452" lon="32.5747224"><ele>49.7</ele><time>2015-04-26T12:29:41.0000000+00:00</time></trkpt><trkpt lat="35.1697489" lon="32.5747924"><ele>49.3</ele><time>2015-04-26T12:29:42.0000000+00:00</time></trkpt><trkpt lat="35.1697628" lon="32.5748713"><ele>49.1</ele><time>2015-04-26T12:29:43.0000000+00:00</time></trkpt><trkpt lat="35.169768" lon="32.574949"><ele>49.5</ele><time>2015-04-26T12:29:44.0000000+00:00</time></trkpt><trkpt lat="35.1697751" lon="32.5750255"><ele>49.7</ele><time>2015-04-26T12:29:45.0000000+00:00</time></trkpt><trkpt lat="35.1697869" lon="32.5750992"><ele>49.8</ele><time>2015-04-26T12:29:46.0000000+00:00</time></trkpt><trkpt lat="35.1698005" lon="32.5751808"><ele>49.9</ele><time>2015-04-26T12:29:47.0000000+00:00</time></trkpt><trkpt lat="35.1698156" lon="32.5752457"><ele>49.9</ele><time>2015-04-26T12:29:48.0000000+00:00</time></trkpt><trkpt lat="35.1698231" lon="32.5753162"><ele>49.9</ele><time>2015-04-26T12:29:49.0000000+00:00</time></trkpt><trkpt lat="35.1698309" lon="32.5754009"><ele>49.9</ele><time>2015-04-26T12:29:50.0000000+00:00</time></trkpt><trkpt lat="35.1698304" lon="32.5754747"><ele>49.9</ele><time>2015-04-26T12:29:51.0000000+00:00</time></trkpt><trkpt lat="35.1698491" lon="32.5755487"><ele>50.4</ele><time>2015-04-26T12:29:52.0000000+00:00</time></trkpt><trkpt lat="35.169858" lon="32.5756223"><ele>50.7</ele><time>2015-04-26T12:29:53.0000000+00:00</time></trkpt><trkpt lat="35.1698619" lon="32.5756985"><ele>50.3</ele><time>2015-04-26T12:29:54.0000000+00:00</time></trkpt><trkpt lat="35.1698642" lon="32.5757765"><ele>50.1</ele><time>2015-04-26T12:29:55.0000000+00:00</time></trkpt><trkpt lat="35.1698741" lon="32.5758604"><ele>50.0</ele><time>2015-04-26T12:29:56.0000000+00:00</time></trkpt><trkpt lat="35.1698779" lon="32.5759365"><ele>50.0</ele><time>2015-04-26T12:29:57.0000000+00:00</time></trkpt><trkpt lat="35.1698728" lon="32.5760126"><ele>49.5</ele><time>2015-04-26T12:29:58.0000000+00:00</time></trkpt><trkpt lat="35.1698819" lon="32.5760977"><ele>48.7</ele><time>2015-04-26T12:29:59.0000000+00:00</time></trkpt><trkpt lat="35.1698899" lon="32.5761703"><ele>47.8</ele><time>2015-04-26T12:30:00.0000000+00:00</time></trkpt><trkpt lat="35.1698949" lon="32.5762423"><ele>46.4</ele><time>2015-04-26T12:30:01.0000000+00:00</time></trkpt><trkpt lat="35.1699235" lon="32.5763246"><ele>46.7</ele><time>2015-04-26T12:30:02.0000000+00:00</time></trkpt><trkpt lat="35.1699378" lon="32.576402"><ele>46.3</ele><time>2015-04-26T12:30:03.0000000+00:00</time></trkpt><trkpt lat="35.1699518" lon="32.576478"><ele>45.6</ele><time>2015-04-26T12:30:04.0000000+00:00</time></trkpt><trkpt lat="35.1699755" lon="32.5765594"><ele>45.3</ele><time>2015-04-26T12:30:05.0000000+00:00</time></trkpt><trkpt lat="35.1699964" lon="32.5766399"><ele>45.1</ele><time>2015-04-26T12:30:06.0000000+00:00</time></trkpt><trkpt lat="35.1700188" lon="32.5767208"><ele>45.0</ele><time>2015-04-26T12:30:07.0000000+00:00</time></trkpt><trkpt lat="35.1700499" lon="32.5767989"><ele>44.5</ele><time>2015-04-26T12:30:08.0000000+00:00</time></trkpt><trkpt lat="35.1700818" lon="32.5768768"><ele>43.7</ele><time>2015-04-26T12:30:09.0000000+00:00</time></trkpt><trkpt lat="35.1701149" lon="32.5769556"><ele>43.3</ele><time>2015-04-26T12:30:10.0000000+00:00</time></trkpt><trkpt lat="35.1701579" lon="32.5770324"><ele>43.1</ele><time>2015-04-26T12:30:11.0000000+00:00</time></trkpt><trkpt lat="35.1702024" lon="32.5771109"><ele>43.0</ele><time>2015-04-26T12:30:12.0000000+00:00</time></trkpt><trkpt lat="35.1702563" lon="32.5771729"><ele>43.0</ele><time>2015-04-26T12:30:13.0000000+00:00</time></trkpt><trkpt lat="35.1703094" lon="32.5772304"><ele>43.5</ele><time>2015-04-26T12:30:14.0000000+00:00</time></trkpt><trkpt lat="35.1703698" lon="32.5772892"><ele>43.2</ele><time>2015-04-26T12:30:15.0000000+00:00</time></trkpt><trkpt lat="35.1704329" lon="32.5773488"><ele>44.6</ele><time>2015-04-26T12:30:16.0000000+00:00</time></trkpt><trkpt lat="35.1704804" lon="32.5774039"><ele>45.7</ele><time>2015-04-26T12:30:17.0000000+00:00</time></trkpt><trkpt lat="35.1705299" lon="32.5774382"><ele>45.8</ele><time>2015-04-26T12:30:18.0000000+00:00</time></trkpt><trkpt lat="35.1705854" lon="32.5774865"><ele>46.4</ele><time>2015-04-26T12:30:19.0000000+00:00</time></trkpt><trkpt lat="35.1706458" lon="32.5775236"><ele>48.2</ele><time>2015-04-26T12:30:20.0000000+00:00</time></trkpt><trkpt lat="35.1706985" lon="32.5775692"><ele>49.5</ele><time>2015-04-26T12:30:21.0000000+00:00</time></trkpt><trkpt lat="35.1707425" lon="32.5776078"><ele>49.7</ele><time>2015-04-26T12:30:22.0000000+00:00</time></trkpt><trkpt lat="35.1707801" lon="32.5776382"><ele>49.3</ele><time>2015-04-26T12:30:23.0000000+00:00</time></trkpt><trkpt lat="35.1708293" lon="32.5776762"><ele>48.6</ele><time>2015-04-26T12:30:24.0000000+00:00</time></trkpt><trkpt lat="35.1708707" lon="32.5777124"><ele>49.3</ele><time>2015-04-26T12:30:25.0000000+00:00</time></trkpt><trkpt lat="35.170909" lon="32.57776"><ele>49.6</ele><time>2015-04-26T12:30:26.0000000+00:00</time></trkpt><trkpt lat="35.1709453" lon="32.5778091"><ele>49.3</ele><time>2015-04-26T12:30:27.0000000+00:00</time></trkpt><trkpt lat="35.170987" lon="32.5778491"><ele>50.1</ele><time>2015-04-26T12:30:28.0000000+00:00</time></trkpt><trkpt lat="35.1710157" lon="32.5778968"><ele>51.0</ele><time>2015-04-26T12:30:29.0000000+00:00</time></trkpt><trkpt lat="35.1710662" lon="32.5779738"><ele>52.2</ele><time>2015-04-26T12:30:31.0000000+00:00</time></trkpt><trkpt lat="35.1711076" lon="32.5780675"><ele>51.7</ele><time>2015-04-26T12:30:33.0000000+00:00</time></trkpt><trkpt lat="35.1711208" lon="32.5781229"><ele>51.8</ele><time>2015-04-26T12:30:34.0000000+00:00</time></trkpt><trkpt lat="35.1711385" lon="32.5781858"><ele>51.4</ele><time>2015-04-26T12:30:35.0000000+00:00</time></trkpt><trkpt lat="35.1711499" lon="32.5782468"><ele>51.2</ele><time>2015-04-26T12:30:36.0000000+00:00</time></trkpt><trkpt lat="35.1711738" lon="32.57835"><ele>51.2</ele><time>2015-04-26T12:30:38.0000000+00:00</time></trkpt><trkpt lat="35.1711886" lon="32.5784453"><ele>51.0</ele><time>2015-04-26T12:30:40.0000000+00:00</time></trkpt><trkpt lat="35.1711941" lon="32.5785272"><ele>50.4</ele><time>2015-04-26T12:30:42.0000000+00:00</time></trkpt><trkpt lat="35.1712066" lon="32.5786034"><ele>49.8</ele><time>2015-04-26T12:30:44.0000000+00:00</time></trkpt><trkpt lat="35.1712221" lon="32.5786924"><ele>49.1</ele><time>2015-04-26T12:30:46.0000000+00:00</time></trkpt><trkpt lat="35.171228" lon="32.5787719"><ele>48.2</ele><time>2015-04-26T12:30:48.0000000+00:00</time></trkpt><trkpt lat="35.171234" lon="32.5788601"><ele>48.0</ele><time>2015-04-26T12:30:50.0000000+00:00</time></trkpt><trkpt lat="35.1712236" lon="32.5789443"><ele>48.4</ele><time>2015-04-26T12:30:52.0000000+00:00</time></trkpt><trkpt lat="35.1712147" lon="32.5790252"><ele>49.1</ele><time>2015-04-26T12:30:54.0000000+00:00</time></trkpt><trkpt lat="35.1712099" lon="32.579097"><ele>48.5</ele><time>2015-04-26T12:30:56.0000000+00:00</time></trkpt><trkpt lat="35.1712049" lon="32.5791625"><ele>48.6</ele><time>2015-04-26T12:30:58.0000000+00:00</time></trkpt><trkpt lat="35.1711999" lon="32.5792295"><ele>48.1</ele><time>2015-04-26T12:31:00.0000000+00:00</time></trkpt><trkpt lat="35.1711952" lon="32.5793028"><ele>48.0</ele><time>2015-04-26T12:31:02.0000000+00:00</time></trkpt><trkpt lat="35.1711885" lon="32.5793856"><ele>48.4</ele><time>2015-04-26T12:31:04.0000000+00:00</time></trkpt><trkpt lat="35.1711868" lon="32.5794718"><ele>48.6</ele><time>2015-04-26T12:31:06.0000000+00:00</time></trkpt><trkpt lat="35.1711847" lon="32.5795572"><ele>48.8</ele><time>2015-04-26T12:31:08.0000000+00:00</time></trkpt><trkpt lat="35.1711803" lon="32.5796386"><ele>49.7</ele><time>2015-04-26T12:31:10.0000000+00:00</time></trkpt><trkpt lat="35.1711796" lon="32.5797125"><ele>49.9</ele><time>2015-04-26T12:31:12.0000000+00:00</time></trkpt><trkpt lat="35.1711799" lon="32.5797776"><ele>49.9</ele><time>2015-04-26T12:31:14.0000000+00:00</time></trkpt><trkpt lat="35.1711705" lon="32.5798549"><ele>51.1</ele><time>2015-04-26T12:31:17.0000000+00:00</time></trkpt><trkpt lat="35.1711507" lon="32.5799201"><ele>51.1</ele><time>2015-04-26T12:31:20.0000000+00:00</time></trkpt><trkpt lat="35.171209" lon="32.5799061"><ele>51.7</ele><time>2015-04-26T12:31:25.0000000+00:00</time></trkpt><trkpt lat="35.1712174" lon="32.579851"><ele>51.2</ele><time>2015-04-26T12:32:22.0000000+00:00</time></trkpt><trkpt lat="35.1711726" lon="32.5798856"><ele>45.9</ele><time>2015-04-26T12:33:44.0000000+00:00</time></trkpt><trkpt lat="35.171159" lon="32.5799467"><ele>46.4</ele><time>2015-04-26T12:33:47.0000000+00:00</time></trkpt><trkpt lat="35.1711669" lon="32.5800157"><ele>46.9</ele><time>2015-04-26T12:33:50.0000000+00:00</time></trkpt><trkpt lat="35.1711695" lon="32.5800888"><ele>46.9</ele><time>2015-04-26T12:33:53.0000000+00:00</time></trkpt><trkpt lat="35.1711649" lon="32.5801658"><ele>49.3</ele><time>2015-04-26T12:33:56.0000000+00:00</time></trkpt><trkpt lat="35.1711628" lon="32.5802226"><ele>49.8</ele><time>2015-04-26T12:33:58.0000000+00:00</time></trkpt><trkpt lat="35.1711557" lon="32.5803035"><ele>50.4</ele><time>2015-04-26T12:34:01.0000000+00:00</time></trkpt><trkpt lat="35.1711506" lon="32.5803603"><ele>50.1</ele><time>2015-04-26T12:34:03.0000000+00:00</time></trkpt><trkpt lat="35.1711501" lon="32.5804201"><ele>50.7</ele><time>2015-04-26T12:34:05.0000000+00:00</time></trkpt><trkpt lat="35.171148" lon="32.5804784"><ele>50.1</ele><time>2015-04-26T12:34:07.0000000+00:00</time></trkpt><trkpt lat="35.1711472" lon="32.5805358"><ele>50.5</ele><time>2015-04-26T12:34:09.0000000+00:00</time></trkpt><trkpt lat="35.1711504" lon="32.5805914"><ele>50.8</ele><time>2015-04-26T12:34:11.0000000+00:00</time></trkpt><trkpt lat="35.1711572" lon="32.5806616"><ele>50.9</ele><time>2015-04-26T12:34:14.0000000+00:00</time></trkpt><trkpt lat="35.1711588" lon="32.5807199"><ele>50.1</ele><time>2015-04-26T12:34:17.0000000+00:00</time></trkpt><trkpt lat="35.1711674" lon="32.5807741"><ele>50.1</ele><time>2015-04-26T12:34:20.0000000+00:00</time></trkpt><trkpt lat="35.1711724" lon="32.5808325"><ele>49.9</ele><time>2015-04-26T12:34:23.0000000+00:00</time></trkpt><trkpt lat="35.1711892" lon="32.5808969"><ele>49.9</ele><time>2015-04-26T12:34:26.0000000+00:00</time></trkpt><trkpt lat="35.1712047" lon="32.5809646"><ele>49.2</ele><time>2015-04-26T12:34:29.0000000+00:00</time></trkpt><trkpt lat="35.1712214" lon="32.5810419"><ele>47.7</ele><time>2015-04-26T12:34:32.0000000+00:00</time></trkpt><trkpt lat="35.1712379" lon="32.5811094"><ele>47.1</ele><time>2015-04-26T12:34:34.0000000+00:00</time></trkpt><trkpt lat="35.171257" lon="32.581189"><ele>45.5</ele><time>2015-04-26T12:34:36.0000000+00:00</time></trkpt><trkpt lat="35.1712798" lon="32.5812691"><ele>45.8</ele><time>2015-04-26T12:34:38.0000000+00:00</time></trkpt><trkpt lat="35.1713029" lon="32.581348"><ele>45.9</ele><time>2015-04-26T12:34:40.0000000+00:00</time></trkpt><trkpt lat="35.1713247" lon="32.5814269"><ele>45.4</ele><time>2015-04-26T12:34:42.0000000+00:00</time></trkpt><trkpt lat="35.1713428" lon="32.5815012"><ele>45.3</ele><time>2015-04-26T12:34:44.0000000+00:00</time></trkpt><trkpt lat="35.1713616" lon="32.5815767"><ele>46.3</ele><time>2015-04-26T12:34:46.0000000+00:00</time></trkpt><trkpt lat="35.1713754" lon="32.581657"><ele>46.8</ele><time>2015-04-26T12:34:48.0000000+00:00</time></trkpt><trkpt lat="35.1713846" lon="32.5817394"><ele>46.9</ele><time>2015-04-26T12:34:50.0000000+00:00</time></trkpt><trkpt lat="35.1713982" lon="32.581831"><ele>46.9</ele><time>2015-04-26T12:34:52.0000000+00:00</time></trkpt><trkpt lat="35.1714105" lon="32.5819256"><ele>47.7</ele><time>2015-04-26T12:34:54.0000000+00:00</time></trkpt><trkpt lat="35.1714152" lon="32.5820217"><ele>49.1</ele><time>2015-04-26T12:34:56.0000000+00:00</time></trkpt><trkpt lat="35.1714094" lon="32.5821105"><ele>49.7</ele><time>2015-04-26T12:34:58.0000000+00:00</time></trkpt><trkpt lat="35.1713983" lon="32.5821936"><ele>50.1</ele><time>2015-04-26T12:35:00.0000000+00:00</time></trkpt><trkpt lat="35.1713896" lon="32.5822707"><ele>50.7</ele><time>2015-04-26T12:35:02.0000000+00:00</time></trkpt><trkpt lat="35.1713742" lon="32.5823457"><ele>50.9</ele><time>2015-04-26T12:35:04.0000000+00:00</time></trkpt><trkpt lat="35.1713522" lon="32.5824234"><ele>51.2</ele><time>2015-04-26T12:35:06.0000000+00:00</time></trkpt><trkpt lat="35.1713348" lon="32.5825089"><ele>51.0</ele><time>2015-04-26T12:35:08.0000000+00:00</time></trkpt><trkpt lat="35.1713146" lon="32.5825917"><ele>50.9</ele><time>2015-04-26T12:35:10.0000000+00:00</time></trkpt><trkpt lat="35.171285" lon="32.5826808"><ele>51.7</ele><time>2015-04-26T12:35:12.0000000+00:00</time></trkpt><trkpt lat="35.1712614" lon="32.582768"><ele>51.6</ele><time>2015-04-26T12:35:14.0000000+00:00</time></trkpt><trkpt lat="35.1712401" lon="32.582854"><ele>52.4</ele><time>2015-04-26T12:35:16.0000000+00:00</time></trkpt><trkpt lat="35.1712215" lon="32.582938"><ele>52.0</ele><time>2015-04-26T12:35:18.0000000+00:00</time></trkpt><trkpt lat="35.1712006" lon="32.5830193"><ele>52.5</ele><time>2015-04-26T12:35:20.0000000+00:00</time></trkpt><trkpt lat="35.1711776" lon="32.5830976"><ele>53.3</ele><time>2015-04-26T12:35:22.0000000+00:00</time></trkpt><trkpt lat="35.1711601" lon="32.5831818"><ele>53.3</ele><time>2015-04-26T12:35:24.0000000+00:00</time></trkpt><trkpt lat="35.1711406" lon="32.5832682"><ele>52.3</ele><time>2015-04-26T12:35:26.0000000+00:00</time></trkpt><trkpt lat="35.1711223" lon="32.5833532"><ele>52.0</ele><time>2015-04-26T12:35:28.0000000+00:00</time></trkpt><trkpt lat="35.1711156" lon="32.5834426"><ele>52.0</ele><time>2015-04-26T12:35:30.0000000+00:00</time></trkpt><trkpt lat="35.1711096" lon="32.5835333"><ele>52.4</ele><time>2015-04-26T12:35:32.0000000+00:00</time></trkpt><trkpt lat="35.1711074" lon="32.5836268"><ele>52.8</ele><time>2015-04-26T12:35:34.0000000+00:00</time></trkpt><trkpt lat="35.1711062" lon="32.583717"><ele>54.1</ele><time>2015-04-26T12:35:36.0000000+00:00</time></trkpt><trkpt lat="35.1711013" lon="32.5837975"><ele>54.7</ele><time>2015-04-26T12:35:38.0000000+00:00</time></trkpt><trkpt lat="35.1711016" lon="32.5838615"><ele>54.9</ele><time>2015-04-26T12:35:40.0000000+00:00</time></trkpt><trkpt lat="35.1711224" lon="32.5839282"><ele>54.9</ele><time>2015-04-26T12:35:43.0000000+00:00</time></trkpt><trkpt lat="35.171135" lon="32.5840037"><ele>54.9</ele><time>2015-04-26T12:35:46.0000000+00:00</time></trkpt><trkpt lat="35.1711078" lon="32.5840536"><ele>54.9</ele><time>2015-04-26T12:35:48.0000000+00:00</time></trkpt><trkpt lat="35.1710817" lon="32.5841083"><ele>55.4</ele><time>2015-04-26T12:35:50.0000000+00:00</time></trkpt><trkpt lat="35.171069" lon="32.5841671"><ele>55.1</ele><time>2015-04-26T12:35:52.0000000+00:00</time></trkpt><trkpt lat="35.171055" lon="32.5842243"><ele>55.5</ele><time>2015-04-26T12:35:54.0000000+00:00</time></trkpt><trkpt lat="35.171046" lon="32.5842787"><ele>55.1</ele><time>2015-04-26T12:35:56.0000000+00:00</time></trkpt><trkpt lat="35.1710327" lon="32.5843562"><ele>56.4</ele><time>2015-04-26T12:35:59.0000000+00:00</time></trkpt><trkpt lat="35.1710019" lon="32.5844301"><ele>57.5</ele><time>2015-04-26T12:36:02.0000000+00:00</time></trkpt><trkpt lat="35.1709711" lon="32.5844992"><ele>57.9</ele><time>2015-04-26T12:36:05.0000000+00:00</time></trkpt><trkpt lat="35.1709474" lon="32.584568"><ele>58.8</ele><time>2015-04-26T12:36:08.0000000+00:00</time></trkpt><trkpt lat="35.1709133" lon="32.5846217"><ele>57.8</ele><time>2015-04-26T12:36:11.0000000+00:00</time></trkpt><trkpt lat="35.1708913" lon="32.5846723"><ele>59.8</ele><time>2015-04-26T12:36:14.0000000+00:00</time></trkpt><trkpt lat="35.1708662" lon="32.5847477"><ele>61.5</ele><time>2015-04-26T12:36:17.0000000+00:00</time></trkpt><trkpt lat="35.170848" lon="32.5848025"><ele>61.8</ele><time>2015-04-26T12:36:19.0000000+00:00</time></trkpt><trkpt lat="35.1708318" lon="32.5848599"><ele>62.7</ele><time>2015-04-26T12:36:21.0000000+00:00</time></trkpt><trkpt lat="35.1708292" lon="32.5849221"><ele>63.4</ele><time>2015-04-26T12:36:23.0000000+00:00</time></trkpt><trkpt lat="35.1708399" lon="32.58498"><ele>62.8</ele><time>2015-04-26T12:36:25.0000000+00:00</time></trkpt><trkpt lat="35.1708522" lon="32.585033"><ele>63.1</ele><time>2015-04-26T12:36:27.0000000+00:00</time></trkpt><trkpt lat="35.1708764" lon="32.585085"><ele>66.7</ele><time>2015-04-26T12:36:29.0000000+00:00</time></trkpt><trkpt lat="35.1708973" lon="32.5851572"><ele>69.3</ele><time>2015-04-26T12:36:32.0000000+00:00</time></trkpt><trkpt lat="35.1709048" lon="32.585225"><ele>70.6</ele><time>2015-04-26T12:36:35.0000000+00:00</time></trkpt><trkpt lat="35.1709184" lon="32.5852893"><ele>73.5</ele><time>2015-04-26T12:36:38.0000000+00:00</time></trkpt><trkpt lat="35.1709163" lon="32.5853464"><ele>74.8</ele><time>2015-04-26T12:36:42.0000000+00:00</time></trkpt><trkpt lat="35.1709102" lon="32.5854137"><ele>76.7</ele><time>2015-04-26T12:36:47.0000000+00:00</time></trkpt><trkpt lat="35.1709008" lon="32.5854764"><ele>75.5</ele><time>2015-04-26T12:36:51.0000000+00:00</time></trkpt><trkpt lat="35.170914" lon="32.5855334"><ele>75.4</ele><time>2015-04-26T12:36:56.0000000+00:00</time></trkpt><trkpt lat="35.1709505" lon="32.5855782"><ele>75.9</ele><time>2015-04-26T12:37:03.0000000+00:00</time></trkpt><trkpt lat="35.1709903" lon="32.5856313"><ele>74.8</ele><time>2015-04-26T12:37:08.0000000+00:00</time></trkpt><trkpt lat="35.1709798" lon="32.585695"><ele>74.2</ele><time>2015-04-26T12:37:11.0000000+00:00</time></trkpt><trkpt lat="35.1709546" lon="32.5857496"><ele>74.0</ele><time>2015-04-26T12:37:14.0000000+00:00</time></trkpt><trkpt lat="35.1709069" lon="32.5857725"><ele>74.2</ele><time>2015-04-26T12:37:18.0000000+00:00</time></trkpt><trkpt lat="35.1708857" lon="32.5858419"><ele>73.4</ele><time>2015-04-26T12:37:22.0000000+00:00</time></trkpt><trkpt lat="35.170883" lon="32.5858999"><ele>72.2</ele><time>2015-04-26T12:37:25.0000000+00:00</time></trkpt><trkpt lat="35.1708882" lon="32.5859571"><ele>72.8</ele><time>2015-04-26T12:37:28.0000000+00:00</time></trkpt><trkpt lat="35.1708979" lon="32.586029"><ele>72.2</ele><time>2015-04-26T12:37:31.0000000+00:00</time></trkpt><trkpt lat="35.1709037" lon="32.5860996"><ele>71.1</ele><time>2015-04-26T12:37:34.0000000+00:00</time></trkpt><trkpt lat="35.1709073" lon="32.5861681"><ele>70.4</ele><time>2015-04-26T12:37:37.0000000+00:00</time></trkpt><trkpt lat="35.1709096" lon="32.5862338"><ele>70.1</ele><time>2015-04-26T12:37:39.0000000+00:00</time></trkpt><trkpt lat="35.1709042" lon="32.5863006"><ele>69.2</ele><time>2015-04-26T12:37:41.0000000+00:00</time></trkpt><trkpt lat="35.170896" lon="32.5863654"><ele>69.3</ele><time>2015-04-26T12:37:43.0000000+00:00</time></trkpt><trkpt lat="35.1708815" lon="32.5864269"><ele>69.0</ele><time>2015-04-26T12:37:45.0000000+00:00</time></trkpt><trkpt lat="35.1708622" lon="32.5864805"><ele>68.5</ele><time>2015-04-26T12:37:47.0000000+00:00</time></trkpt><trkpt lat="35.1708144" lon="32.5865323"><ele>63.6</ele><time>2015-04-26T12:40:43.0000000+00:00</time></trkpt><trkpt lat="35.1707504" lon="32.5865506"><ele>62.6</ele><time>2015-04-26T12:40:45.0000000+00:00</time></trkpt><trkpt lat="35.1706837" lon="32.5865581"><ele>62.8</ele><time>2015-04-26T12:40:47.0000000+00:00</time></trkpt><trkpt lat="35.1706235" lon="32.5865517"><ele>62.7</ele><time>2015-04-26T12:40:49.0000000+00:00</time></trkpt><trkpt lat="35.170578" lon="32.5865288"><ele>61.6</ele><time>2015-04-26T12:40:52.0000000+00:00</time></trkpt><trkpt lat="35.1705307" lon="32.5865062"><ele>60.5</ele><time>2015-04-26T12:40:55.0000000+00:00</time></trkpt><trkpt lat="35.1704775" lon="32.5864778"><ele>60.9</ele><time>2015-04-26T12:40:58.0000000+00:00</time></trkpt><trkpt lat="35.1704246" lon="32.5864537"><ele>60.9</ele><time>2015-04-26T12:41:01.0000000+00:00</time></trkpt><trkpt lat="35.1703796" lon="32.5864373"><ele>60.2</ele><time>2015-04-26T12:41:04.0000000+00:00</time></trkpt><trkpt lat="35.1703307" lon="32.5864121"><ele>61.1</ele><time>2015-04-26T12:41:08.0000000+00:00</time></trkpt><trkpt lat="35.170282" lon="32.5863895"><ele>61.5</ele><time>2015-04-26T12:41:11.0000000+00:00</time></trkpt><trkpt lat="35.1702276" lon="32.5863644"><ele>61.6</ele><time>2015-04-26T12:41:14.0000000+00:00</time></trkpt><trkpt lat="35.1701762" lon="32.5863374"><ele>60.5</ele><time>2015-04-26T12:41:17.0000000+00:00</time></trkpt><trkpt lat="35.1701368" lon="32.5863078"><ele>60.8</ele><time>2015-04-26T12:41:20.0000000+00:00</time></trkpt><trkpt lat="35.1700869" lon="32.5862745"><ele>60.0</ele><time>2015-04-26T12:41:24.0000000+00:00</time></trkpt><trkpt lat="35.1700402" lon="32.5862533"><ele>60.1</ele><time>2015-04-26T12:41:27.0000000+00:00</time></trkpt><trkpt lat="35.1699938" lon="32.5862351"><ele>62.2</ele><time>2015-04-26T12:41:30.0000000+00:00</time></trkpt><trkpt lat="35.1699465" lon="32.5862126"><ele>62.0</ele><time>2015-04-26T12:41:33.0000000+00:00</time></trkpt><trkpt lat="35.1699001" lon="32.586189"><ele>61.9</ele><time>2015-04-26T12:41:36.0000000+00:00</time></trkpt><trkpt lat="35.1698552" lon="32.5861689"><ele>61.9</ele><time>2015-04-26T12:41:40.0000000+00:00</time></trkpt><trkpt lat="35.1698003" lon="32.5861459"><ele>62.9</ele><time>2015-04-26T12:41:44.0000000+00:00</time></trkpt><trkpt lat="35.1697414" lon="32.5861248"><ele>63.8</ele><time>2015-04-26T12:41:47.0000000+00:00</time></trkpt><trkpt lat="35.1696874" lon="32.5861028"><ele>62.7</ele><time>2015-04-26T12:41:50.0000000+00:00</time></trkpt><trkpt lat="35.1696379" lon="32.5860807"><ele>62.5</ele><time>2015-04-26T12:41:53.0000000+00:00</time></trkpt><trkpt lat="35.1695881" lon="32.5860609"><ele>63.8</ele><time>2015-04-26T12:41:56.0000000+00:00</time></trkpt><trkpt lat="35.1695451" lon="32.58603"><ele>64.7</ele><time>2015-04-26T12:41:59.0000000+00:00</time></trkpt><trkpt lat="35.1694977" lon="32.5860086"><ele>65.1</ele><time>2015-04-26T12:42:02.0000000+00:00</time></trkpt><trkpt lat="35.1694462" lon="32.5859844"><ele>65.0</ele><time>2015-04-26T12:42:05.0000000+00:00</time></trkpt><trkpt lat="35.1693977" lon="32.5859587"><ele>65.4</ele><time>2015-04-26T12:42:08.0000000+00:00</time></trkpt><trkpt lat="35.1693505" lon="32.5859294"><ele>66.0</ele><time>2015-04-26T12:42:11.0000000+00:00</time></trkpt><trkpt lat="35.169299" lon="32.5859031"><ele>66.7</ele><time>2015-04-26T12:42:14.0000000+00:00</time></trkpt><trkpt lat="35.1692473" lon="32.5858864"><ele>66.9</ele><time>2015-04-26T12:42:17.0000000+00:00</time></trkpt><trkpt lat="35.1691952" lon="32.5858746"><ele>66.9</ele><time>2015-04-26T12:42:20.0000000+00:00</time></trkpt><trkpt lat="35.1691404" lon="32.5858708"><ele>67.2</ele><time>2015-04-26T12:42:23.0000000+00:00</time></trkpt><trkpt lat="35.1690858" lon="32.5858695"><ele>67.8</ele><time>2015-04-26T12:42:26.0000000+00:00</time></trkpt><trkpt lat="35.1690269" lon="32.5858794"><ele>68.7</ele><time>2015-04-26T12:42:29.0000000+00:00</time></trkpt><trkpt lat="35.1689682" lon="32.5858965"><ele>69.6</ele><time>2015-04-26T12:42:32.0000000+00:00</time></trkpt><trkpt lat="35.1689153" lon="32.5859195"><ele>69.9</ele><time>2015-04-26T12:42:35.0000000+00:00</time></trkpt><trkpt lat="35.168867" lon="32.5859487"><ele>70.7</ele><time>2015-04-26T12:42:38.0000000+00:00</time></trkpt><trkpt lat="35.1688195" lon="32.5859721"><ele>71.3</ele><time>2015-04-26T12:42:41.0000000+00:00</time></trkpt><trkpt lat="35.1687754" lon="32.5859962"><ele>72.7</ele><time>2015-04-26T12:42:44.0000000+00:00</time></trkpt><trkpt lat="35.1687263" lon="32.5860137"><ele>73.8</ele><time>2015-04-26T12:42:47.0000000+00:00</time></trkpt><trkpt lat="35.1686684" lon="32.5860064"><ele>73.9</ele><time>2015-04-26T12:42:50.0000000+00:00</time></trkpt><trkpt lat="35.16861" lon="32.5859852"><ele>73.9</ele><time>2015-04-26T12:42:53.0000000+00:00</time></trkpt><trkpt lat="35.1685528" lon="32.5859566"><ele>73.7</ele><time>2015-04-26T12:42:56.0000000+00:00</time></trkpt><trkpt lat="35.1684945" lon="32.585926"><ele>73.5</ele><time>2015-04-26T12:42:59.0000000+00:00</time></trkpt><trkpt lat="35.1684347" lon="32.5858958"><ele>73.1</ele><time>2015-04-26T12:43:02.0000000+00:00</time></trkpt><trkpt lat="35.1683726" lon="32.5858829"><ele>73.5</ele><time>2015-04-26T12:43:05.0000000+00:00</time></trkpt><trkpt lat="35.1683136" lon="32.5858722"><ele>73.9</ele><time>2015-04-26T12:43:08.0000000+00:00</time></trkpt><trkpt lat="35.1682718" lon="32.5858469"><ele>74.5</ele><time>2015-04-26T12:43:11.0000000+00:00</time></trkpt><trkpt lat="35.1682249" lon="32.5858257"><ele>74.0</ele><time>2015-04-26T12:43:14.0000000+00:00</time></trkpt><trkpt lat="35.1681658" lon="32.585829"><ele>74.4</ele><time>2015-04-26T12:43:17.0000000+00:00</time></trkpt><trkpt lat="35.1681017" lon="32.5858315"><ele>74.9</ele><time>2015-04-26T12:43:20.0000000+00:00</time></trkpt><trkpt lat="35.1680456" lon="32.5858357"><ele>75.7</ele><time>2015-04-26T12:43:23.0000000+00:00</time></trkpt><trkpt lat="35.1679922" lon="32.585847"><ele>76.8</ele><time>2015-04-26T12:43:27.0000000+00:00</time></trkpt><trkpt lat="35.1679398" lon="32.5858545"><ele>77.4</ele><time>2015-04-26T12:43:30.0000000+00:00</time></trkpt><trkpt lat="35.1678848" lon="32.5858635"><ele>78.6</ele><time>2015-04-26T12:43:33.0000000+00:00</time></trkpt><trkpt lat="35.1678267" lon="32.5858758"><ele>79.6</ele><time>2015-04-26T12:43:36.0000000+00:00</time></trkpt><trkpt lat="35.1677683" lon="32.5858679"><ele>80.4</ele><time>2015-04-26T12:43:39.0000000+00:00</time></trkpt><trkpt lat="35.1677155" lon="32.585851"><ele>81.4</ele><time>2015-04-26T12:43:42.0000000+00:00</time></trkpt><trkpt lat="35.1676724" lon="32.5858215"><ele>82.1</ele><time>2015-04-26T12:43:45.0000000+00:00</time></trkpt><trkpt lat="35.1676442" lon="32.5857742"><ele>82.8</ele><time>2015-04-26T12:43:48.0000000+00:00</time></trkpt><trkpt lat="35.1676133" lon="32.5857188"><ele>82.2</ele><time>2015-04-26T12:43:52.0000000+00:00</time></trkpt><trkpt lat="35.167567" lon="32.5856928"><ele>81.4</ele><time>2015-04-26T12:43:56.0000000+00:00</time></trkpt><trkpt lat="35.1675246" lon="32.585657"><ele>81.7</ele><time>2015-04-26T12:44:00.0000000+00:00</time></trkpt><trkpt lat="35.1674889" lon="32.5856119"><ele>82.1</ele><time>2015-04-26T12:44:04.0000000+00:00</time></trkpt><trkpt lat="35.1674475" lon="32.5855793"><ele>82.7</ele><time>2015-04-26T12:44:08.0000000+00:00</time></trkpt><trkpt lat="35.1673958" lon="32.5855519"><ele>82.0</ele><time>2015-04-26T12:44:12.0000000+00:00</time></trkpt><trkpt lat="35.1673619" lon="32.5855136"><ele>82.7</ele><time>2015-04-26T12:44:15.0000000+00:00</time></trkpt><trkpt lat="35.1673279" lon="32.5854743"><ele>83.4</ele><time>2015-04-26T12:44:18.0000000+00:00</time></trkpt><trkpt lat="35.1673027" lon="32.5854282"><ele>85.5</ele><time>2015-04-26T12:44:21.0000000+00:00</time></trkpt><trkpt lat="35.1672833" lon="32.585376"><ele>86.8</ele><time>2015-04-26T12:44:25.0000000+00:00</time></trkpt><trkpt lat="35.1672654" lon="32.585311"><ele>87.7</ele><time>2015-04-26T12:44:30.0000000+00:00</time></trkpt><trkpt lat="35.1672508" lon="32.5852554"><ele>87.4</ele><time>2015-04-26T12:44:34.0000000+00:00</time></trkpt><trkpt lat="35.167234" lon="32.5851996"><ele>86.7</ele><time>2015-04-26T12:44:38.0000000+00:00</time></trkpt><trkpt lat="35.1672098" lon="32.5851494"><ele>88.3</ele><time>2015-04-26T12:44:42.0000000+00:00</time></trkpt><trkpt lat="35.1671911" lon="32.5850922"><ele>89.8</ele><time>2015-04-26T12:44:46.0000000+00:00</time></trkpt><trkpt lat="35.1671662" lon="32.5850399"><ele>91.3</ele><time>2015-04-26T12:44:50.0000000+00:00</time></trkpt><trkpt lat="35.1671418" lon="32.5849907"><ele>92.0</ele><time>2015-04-26T12:44:54.0000000+00:00</time></trkpt><trkpt lat="35.1671582" lon="32.5849346"><ele>93.6</ele><time>2015-04-26T12:44:58.0000000+00:00</time></trkpt><trkpt lat="35.1672126" lon="32.584911"><ele>94.2</ele><time>2015-04-26T12:45:02.0000000+00:00</time></trkpt><trkpt lat="35.1672646" lon="32.5849407"><ele>95.1</ele><time>2015-04-26T12:45:06.0000000+00:00</time></trkpt><trkpt lat="35.1673013" lon="32.5849733"><ele>96.3</ele><time>2015-04-26T12:45:09.0000000+00:00</time></trkpt><trkpt lat="35.1673407" lon="32.5850029"><ele>96.9</ele><time>2015-04-26T12:45:12.0000000+00:00</time></trkpt><trkpt lat="35.1673796" lon="32.5850352"><ele>97.8</ele><time>2015-04-26T12:45:15.0000000+00:00</time></trkpt><trkpt lat="35.1674197" lon="32.5850834"><ele>98.7</ele><time>2015-04-26T12:45:18.0000000+00:00</time></trkpt><trkpt lat="35.1674607" lon="32.5851312"><ele>98.9</ele><time>2015-04-26T12:45:21.0000000+00:00</time></trkpt><trkpt lat="35.1674864" lon="32.5851859"><ele>98.9</ele><time>2015-04-26T12:45:24.0000000+00:00</time></trkpt><trkpt lat="35.1675174" lon="32.5852438"><ele>98.9</ele><time>2015-04-26T12:45:28.0000000+00:00</time></trkpt><trkpt lat="35.1675616" lon="32.5852938"><ele>98.9</ele><time>2015-04-26T12:45:32.0000000+00:00</time></trkpt><trkpt lat="35.16761" lon="32.585344"><ele>98.4</ele><time>2015-04-26T12:45:35.0000000+00:00</time></trkpt><trkpt lat="35.1676612" lon="32.5853879"><ele>98.0</ele><time>2015-04-26T12:45:38.0000000+00:00</time></trkpt><trkpt lat="35.1677141" lon="32.5854296"><ele>97.9</ele><time>2015-04-26T12:45:41.0000000+00:00</time></trkpt><trkpt lat="35.1677723" lon="32.585443"><ele>100.3</ele><time>2015-04-26T12:45:44.0000000+00:00</time></trkpt><trkpt lat="35.1678337" lon="32.5854164"><ele>100.9</ele><time>2015-04-26T12:45:47.0000000+00:00</time></trkpt><trkpt lat="35.1678797" lon="32.5853764"><ele>100.9</ele><time>2015-04-26T12:45:49.0000000+00:00</time></trkpt><trkpt lat="35.1679204" lon="32.5853304"><ele>100.9</ele><time>2015-04-26T12:45:51.0000000+00:00</time></trkpt><trkpt lat="35.1679519" lon="32.5852893"><ele>100.9</ele><time>2015-04-26T12:45:53.0000000+00:00</time></trkpt><trkpt lat="35.1679863" lon="32.5852443"><ele>101.7</ele><time>2015-04-26T12:45:56.0000000+00:00</time></trkpt><trkpt lat="35.1680257" lon="32.5852081"><ele>103.5</ele><time>2015-04-26T12:45:59.0000000+00:00</time></trkpt><trkpt lat="35.1680612" lon="32.5851632"><ele>103.9</ele><time>2015-04-26T12:46:02.0000000+00:00</time></trkpt><trkpt lat="35.1681002" lon="32.5851234"><ele>103.9</ele><time>2015-04-26T12:46:05.0000000+00:00</time></trkpt><trkpt lat="35.1681591" lon="32.5850948"><ele>104.6</ele><time>2015-04-26T12:46:08.0000000+00:00</time></trkpt><trkpt lat="35.1682112" lon="32.585084"><ele>104.1</ele><time>2015-04-26T12:46:10.0000000+00:00</time></trkpt><trkpt lat="35.1682667" lon="32.5850808"><ele>104.0</ele><time>2015-04-26T12:46:12.0000000+00:00</time></trkpt><trkpt lat="35.1683221" lon="32.5850799"><ele>104.7</ele><time>2015-04-26T12:46:14.0000000+00:00</time></trkpt><trkpt lat="35.1683762" lon="32.5850811"><ele>105.6</ele><time>2015-04-26T12:46:16.0000000+00:00</time></trkpt><trkpt lat="35.1684274" lon="32.5850831"><ele>106.4</ele><time>2015-04-26T12:46:18.0000000+00:00</time></trkpt><trkpt lat="35.1684802" lon="32.5850842"><ele>107.4</ele><time>2015-04-26T12:46:21.0000000+00:00</time></trkpt><trkpt lat="35.1685326" lon="32.585096"><ele>108.9</ele><time>2015-04-26T12:46:24.0000000+00:00</time></trkpt><trkpt lat="35.1685867" lon="32.5850885"><ele>110.3</ele><time>2015-04-26T12:46:27.0000000+00:00</time></trkpt><trkpt lat="35.1686345" lon="32.5850711"><ele>110.4</ele><time>2015-04-26T12:46:30.0000000+00:00</time></trkpt><trkpt lat="35.1686776" lon="32.5850389"><ele>110.0</ele><time>2015-04-26T12:46:33.0000000+00:00</time></trkpt><trkpt lat="35.1687276" lon="32.5850018"><ele>109.2</ele><time>2015-04-26T12:46:37.0000000+00:00</time></trkpt><trkpt lat="35.1687633" lon="32.5849657"><ele>108.7</ele><time>2015-04-26T12:46:40.0000000+00:00</time></trkpt><trkpt lat="35.168782" lon="32.5849083"><ele>108.2</ele><time>2015-04-26T12:46:43.0000000+00:00</time></trkpt><trkpt lat="35.1687863" lon="32.5848499"><ele>107.6</ele><time>2015-04-26T12:46:46.0000000+00:00</time></trkpt><trkpt lat="35.1687814" lon="32.5847729"><ele>107.9</ele><time>2015-04-26T12:46:49.0000000+00:00</time></trkpt><trkpt lat="35.1687776" lon="32.584711"><ele>108.4</ele><time>2015-04-26T12:46:51.0000000+00:00</time></trkpt><trkpt lat="35.1687818" lon="32.5846489"><ele>108.8</ele><time>2015-04-26T12:46:53.0000000+00:00</time></trkpt><trkpt lat="35.1687919" lon="32.584591"><ele>109.4</ele><time>2015-04-26T12:46:55.0000000+00:00</time></trkpt><trkpt lat="35.1688089" lon="32.584535"><ele>109.3</ele><time>2015-04-26T12:46:57.0000000+00:00</time></trkpt><trkpt lat="35.1688373" lon="32.5844889"><ele>109.0</ele><time>2015-04-26T12:46:59.0000000+00:00</time></trkpt><trkpt lat="35.1688832" lon="32.5844602"><ele>109.0</ele><time>2015-04-26T12:47:01.0000000+00:00</time></trkpt><trkpt lat="35.1689352" lon="32.5844355"><ele>108.2</ele><time>2015-04-26T12:47:03.0000000+00:00</time></trkpt><trkpt lat="35.1689831" lon="32.5844103"><ele>108.0</ele><time>2015-04-26T12:47:05.0000000+00:00</time></trkpt><trkpt lat="35.1690344" lon="32.5843912"><ele>107.6</ele><time>2015-04-26T12:47:08.0000000+00:00</time></trkpt><trkpt lat="35.1690876" lon="32.584368"><ele>106.3</ele><time>2015-04-26T12:47:11.0000000+00:00</time></trkpt><trkpt lat="35.1691359" lon="32.584335"><ele>106.0</ele><time>2015-04-26T12:47:13.0000000+00:00</time></trkpt><trkpt lat="35.1691918" lon="32.5842983"><ele>105.5</ele><time>2015-04-26T12:47:15.0000000+00:00</time></trkpt><trkpt lat="35.169244" lon="32.5842613"><ele>103.8</ele><time>2015-04-26T12:47:17.0000000+00:00</time></trkpt><trkpt lat="35.1692936" lon="32.5842273"><ele>103.7</ele><time>2015-04-26T12:47:20.0000000+00:00</time></trkpt><trkpt lat="35.1693326" lon="32.5841988"><ele>103.9</ele><time>2015-04-26T12:47:25.0000000+00:00</time></trkpt><trkpt lat="35.1693853" lon="32.5841716"><ele>108.1</ele><time>2015-04-26T12:49:30.0000000+00:00</time></trkpt><trkpt lat="35.1694358" lon="32.5841384"><ele>107.1</ele><time>2015-04-26T12:49:33.0000000+00:00</time></trkpt><trkpt lat="35.1694795" lon="32.5841199"><ele>106.0</ele><time>2015-04-26T12:49:35.0000000+00:00</time></trkpt><trkpt lat="35.1695259" lon="32.5841065"><ele>105.2</ele><time>2015-04-26T12:49:37.0000000+00:00</time></trkpt><trkpt lat="35.169575" lon="32.5840963"><ele>104.2</ele><time>2015-04-26T12:49:39.0000000+00:00</time></trkpt><trkpt lat="35.1696278" lon="32.5840882"><ele>102.8</ele><time>2015-04-26T12:49:41.0000000+00:00</time></trkpt><trkpt lat="35.1696781" lon="32.584079"><ele>101.6</ele><time>2015-04-26T12:49:43.0000000+00:00</time></trkpt><trkpt lat="35.1697406" lon="32.5840544"><ele>101.0</ele><time>2015-04-26T12:49:46.0000000+00:00</time></trkpt><trkpt lat="35.1697894" lon="32.5840276"><ele>99.0</ele><time>2015-04-26T12:49:48.0000000+00:00</time></trkpt><trkpt lat="35.1699017" lon="32.5839674"><ele>97.2</ele><time>2015-04-26T12:49:50.0000000+00:00</time></trkpt><trkpt lat="35.16995" lon="32.5839507"><ele>97.1</ele><time>2015-04-26T12:49:51.0000000+00:00</time></trkpt><trkpt lat="35.1699982" lon="32.5839469"><ele>96.5</ele><time>2015-04-26T12:49:52.0000000+00:00</time></trkpt><trkpt lat="35.1700455" lon="32.5839522"><ele>96.2</ele><time>2015-04-26T12:49:53.0000000+00:00</time></trkpt><trkpt lat="35.170123" lon="32.5839393"><ele>95.3</ele><time>2015-04-26T12:49:55.0000000+00:00</time></trkpt><trkpt lat="35.1701788" lon="32.5838737"><ele>95.0</ele><time>2015-04-26T12:49:57.0000000+00:00</time></trkpt><trkpt lat="35.1702132" lon="32.583825"><ele>94.2</ele><time>2015-04-26T12:49:59.0000000+00:00</time></trkpt><trkpt lat="35.1702404" lon="32.5837551"><ele>93.1</ele><time>2015-04-26T12:50:02.0000000+00:00</time></trkpt><trkpt lat="35.17025" lon="32.5836922"><ele>92.2</ele><time>2015-04-26T12:50:04.0000000+00:00</time></trkpt><trkpt lat="35.1702563" lon="32.5836208"><ele>92.0</ele><time>2015-04-26T12:50:06.0000000+00:00</time></trkpt><trkpt lat="35.1702476" lon="32.5835374"><ele>91.9</ele><time>2015-04-26T12:50:08.0000000+00:00</time></trkpt><trkpt lat="35.1702255" lon="32.5834492"><ele>92.7</ele><time>2015-04-26T12:50:10.0000000+00:00</time></trkpt><trkpt lat="35.1702026" lon="32.5833638"><ele>92.9</ele><time>2015-04-26T12:50:12.0000000+00:00</time></trkpt><trkpt lat="35.1701803" lon="32.5832782"><ele>92.2</ele><time>2015-04-26T12:50:14.0000000+00:00</time></trkpt><trkpt lat="35.1701601" lon="32.5831975"><ele>93.2</ele><time>2015-04-26T12:50:16.0000000+00:00</time></trkpt><trkpt lat="35.1701502" lon="32.5831151"><ele>93.3</ele><time>2015-04-26T12:50:18.0000000+00:00</time></trkpt><trkpt lat="35.1701499" lon="32.5830305"><ele>93.8</ele><time>2015-04-26T12:50:20.0000000+00:00</time></trkpt><trkpt lat="35.1701669" lon="32.5829526"><ele>93.9</ele><time>2015-04-26T12:50:22.0000000+00:00</time></trkpt><trkpt lat="35.1701934" lon="32.5828785"><ele>93.9</ele><time>2015-04-26T12:50:24.0000000+00:00</time></trkpt><trkpt lat="35.1702213" lon="32.5828072"><ele>91.9</ele><time>2015-04-26T12:50:26.0000000+00:00</time></trkpt><trkpt lat="35.1702554" lon="32.5827298"><ele>88.7</ele><time>2015-04-26T12:50:28.0000000+00:00</time></trkpt><trkpt lat="35.1702795" lon="32.582644"><ele>87.6</ele><time>2015-04-26T12:50:30.0000000+00:00</time></trkpt><trkpt lat="35.1702822" lon="32.5825528"><ele>87.1</ele><time>2015-04-26T12:50:32.0000000+00:00</time></trkpt><trkpt lat="35.1702624" lon="32.5824684"><ele>85.5</ele><time>2015-04-26T12:50:34.0000000+00:00</time></trkpt><trkpt lat="35.1702419" lon="32.5823846"><ele>84.8</ele><time>2015-04-26T12:50:36.0000000+00:00</time></trkpt><trkpt lat="35.1702291" lon="32.5822895"><ele>84.7</ele><time>2015-04-26T12:50:38.0000000+00:00</time></trkpt><trkpt lat="35.1702176" lon="32.5821977"><ele>84.4</ele><time>2015-04-26T12:50:40.0000000+00:00</time></trkpt><trkpt lat="35.1701906" lon="32.5821164"><ele>84.0</ele><time>2015-04-26T12:50:42.0000000+00:00</time></trkpt><trkpt lat="35.1701368" lon="32.5820568"><ele>84.0</ele><time>2015-04-26T12:50:44.0000000+00:00</time></trkpt><trkpt lat="35.1700963" lon="32.5820128"><ele>82.8</ele><time>2015-04-26T12:51:05.0000000+00:00</time></trkpt><trkpt lat="35.1700384" lon="32.581972"><ele>82.9</ele><time>2015-04-26T12:51:07.0000000+00:00</time></trkpt><trkpt lat="35.16998" lon="32.5819342"><ele>83.4</ele><time>2015-04-26T12:51:09.0000000+00:00</time></trkpt><trkpt lat="35.169926" lon="32.5819018"><ele>83.1</ele><time>2015-04-26T12:51:11.0000000+00:00</time></trkpt><trkpt lat="35.1698729" lon="32.581868"><ele>83.8</ele><time>2015-04-26T12:51:14.0000000+00:00</time></trkpt><trkpt lat="35.1698222" lon="32.5818378"><ele>85.3</ele><time>2015-04-26T12:51:17.0000000+00:00</time></trkpt><trkpt lat="35.1697748" lon="32.581824"><ele>85.5</ele><time>2015-04-26T12:51:21.0000000+00:00</time></trkpt><trkpt lat="35.1697221" lon="32.5818067"><ele>85.9</ele><time>2015-04-26T12:51:25.0000000+00:00</time></trkpt><trkpt lat="35.1696688" lon="32.5817864"><ele>87.2</ele><time>2015-04-26T12:51:29.0000000+00:00</time></trkpt><trkpt lat="35.1696248" lon="32.5817606"><ele>87.9</ele><time>2015-04-26T12:51:39.0000000+00:00</time></trkpt><trkpt lat="35.1695816" lon="32.5817404"><ele>89.8</ele><time>2015-04-26T12:51:46.0000000+00:00</time></trkpt><trkpt lat="35.1695369" lon="32.5817225"><ele>90.9</ele><time>2015-04-26T12:51:55.0000000+00:00</time></trkpt><trkpt lat="35.1694926" lon="32.5816975"><ele>91.9</ele><time>2015-04-26T12:52:01.0000000+00:00</time></trkpt><trkpt lat="35.1694488" lon="32.5816642"><ele>92.4</ele><time>2015-04-26T12:52:08.0000000+00:00</time></trkpt><trkpt lat="35.1694076" lon="32.5816339"><ele>93.0</ele><time>2015-04-26T12:52:14.0000000+00:00</time></trkpt><trkpt lat="35.1693689" lon="32.5816023"><ele>93.8</ele><time>2015-04-26T12:52:20.0000000+00:00</time></trkpt><trkpt lat="35.1693239" lon="32.5815733"><ele>94.2</ele><time>2015-04-26T12:52:26.0000000+00:00</time></trkpt><trkpt lat="35.1692784" lon="32.581556"><ele>94.2</ele><time>2015-04-26T12:52:31.0000000+00:00</time></trkpt><trkpt lat="35.1692296" lon="32.5815446"><ele>93.0</ele><time>2015-04-26T12:52:36.0000000+00:00</time></trkpt><trkpt lat="35.1691801" lon="32.5815356"><ele>94.4</ele><time>2015-04-26T12:52:41.0000000+00:00</time></trkpt><trkpt lat="35.1691313" lon="32.5815265"><ele>96.6</ele><time>2015-04-26T12:52:47.0000000+00:00</time></trkpt><trkpt lat="35.169085" lon="32.5815161"><ele>98.5</ele><time>2015-04-26T12:52:54.0000000+00:00</time></trkpt><trkpt lat="35.1690387" lon="32.5814999"><ele>98.7</ele><time>2015-04-26T12:53:02.0000000+00:00</time></trkpt><trkpt lat="35.1689942" lon="32.5815156"><ele>99.9</ele><time>2015-04-26T12:53:12.0000000+00:00</time></trkpt><trkpt lat="35.1689453" lon="32.5815256"><ele>100.5</ele><time>2015-04-26T12:53:22.0000000+00:00</time></trkpt><trkpt lat="35.1689005" lon="32.5815393"><ele>100.9</ele><time>2015-04-26T12:53:34.0000000+00:00</time></trkpt><trkpt lat="35.168853" lon="32.5815428"><ele>100.4</ele><time>2015-04-26T12:53:41.0000000+00:00</time></trkpt><trkpt lat="35.1688039" lon="32.58153"><ele>101.6</ele><time>2015-04-26T12:53:47.0000000+00:00</time></trkpt><trkpt lat="35.1687669" lon="32.581491"><ele>98.9</ele><time>2015-04-26T12:54:54.0000000+00:00</time></trkpt><trkpt lat="35.1687448" lon="32.5814412"><ele>103.1</ele><time>2015-04-26T12:55:08.0000000+00:00</time></trkpt><trkpt lat="35.1687469" lon="32.5813804"><ele>105.2</ele><time>2015-04-26T12:55:18.0000000+00:00</time></trkpt><trkpt lat="35.1687699" lon="32.5813268"><ele>107.4</ele><time>2015-04-26T12:55:24.0000000+00:00</time></trkpt><trkpt lat="35.1688107" lon="32.5812978"><ele>107.7</ele><time>2015-04-26T12:55:29.0000000+00:00</time></trkpt><trkpt lat="35.1688594" lon="32.5812747"><ele>108.7</ele><time>2015-04-26T12:55:34.0000000+00:00</time></trkpt><trkpt lat="35.1688998" lon="32.5812504"><ele>109.9</ele><time>2015-04-26T12:55:38.0000000+00:00</time></trkpt><trkpt lat="35.168944" lon="32.581231"><ele>110.8</ele><time>2015-04-26T12:55:42.0000000+00:00</time></trkpt><trkpt lat="35.168979" lon="32.5811898"><ele>109.9</ele><time>2015-04-26T12:55:53.0000000+00:00</time></trkpt><trkpt lat="35.1690227" lon="32.581163"><ele>110.7</ele><time>2015-04-26T12:55:57.0000000+00:00</time></trkpt><trkpt lat="35.1690665" lon="32.5811323"><ele>110.9</ele><time>2015-04-26T12:56:00.0000000+00:00</time></trkpt><trkpt lat="35.1691044" lon="32.5811018"><ele>110.9</ele><time>2015-04-26T12:56:03.0000000+00:00</time></trkpt><trkpt lat="35.1691518" lon="32.5810619"><ele>111.4</ele><time>2015-04-26T12:56:07.0000000+00:00</time></trkpt><trkpt lat="35.1691963" lon="32.5810202"><ele>111.9</ele><time>2015-04-26T12:56:11.0000000+00:00</time></trkpt><trkpt lat="35.1692382" lon="32.5809848"><ele>112.4</ele><time>2015-04-26T12:56:14.0000000+00:00</time></trkpt><trkpt lat="35.1692793" lon="32.5809514"><ele>112.9</ele><time>2015-04-26T12:56:17.0000000+00:00</time></trkpt><trkpt lat="35.1693252" lon="32.5809237"><ele>113.4</ele><time>2015-04-26T12:56:20.0000000+00:00</time></trkpt><trkpt lat="35.1693756" lon="32.5808932"><ele>113.9</ele><time>2015-04-26T12:56:23.0000000+00:00</time></trkpt><trkpt lat="35.1694216" lon="32.5808658"><ele>113.9</ele><time>2015-04-26T12:56:26.0000000+00:00</time></trkpt><trkpt lat="35.1694719" lon="32.5808405"><ele>113.7</ele><time>2015-04-26T12:56:29.0000000+00:00</time></trkpt><trkpt lat="35.1695162" lon="32.5808182"><ele>113.9</ele><time>2015-04-26T12:56:32.0000000+00:00</time></trkpt><trkpt lat="35.1695733" lon="32.5807922"><ele>114.7</ele><time>2015-04-26T12:56:36.0000000+00:00</time></trkpt><trkpt lat="35.1696253" lon="32.5807574"><ele>113.6</ele><time>2015-04-26T12:56:39.0000000+00:00</time></trkpt><trkpt lat="35.1696743" lon="32.5807165"><ele>113.6</ele><time>2015-04-26T12:56:41.0000000+00:00</time></trkpt><trkpt lat="35.1697111" lon="32.5806664"><ele>113.8</ele><time>2015-04-26T12:56:43.0000000+00:00</time></trkpt><trkpt lat="35.1697358" lon="32.5806137"><ele>114.7</ele><time>2015-04-26T12:56:45.0000000+00:00</time></trkpt><trkpt lat="35.1697553" lon="32.5805613"><ele>114.9</ele><time>2015-04-26T12:56:47.0000000+00:00</time></trkpt><trkpt lat="35.16977" lon="32.5805072"><ele>115.4</ele><time>2015-04-26T12:56:49.0000000+00:00</time></trkpt><trkpt lat="35.1697823" lon="32.5804528"><ele>117.1</ele><time>2015-04-26T12:56:51.0000000+00:00</time></trkpt><trkpt lat="35.1697888" lon="32.5803982"><ele>117.7</ele><time>2015-04-26T12:56:53.0000000+00:00</time></trkpt><trkpt lat="35.1697932" lon="32.5803426"><ele>117.6</ele><time>2015-04-26T12:56:55.0000000+00:00</time></trkpt><trkpt lat="35.1697974" lon="32.5802828"><ele>117.6</ele><time>2015-04-26T12:56:57.0000000+00:00</time></trkpt><trkpt lat="35.1697978" lon="32.5802257"><ele>117.8</ele><time>2015-04-26T12:56:59.0000000+00:00</time></trkpt><trkpt lat="35.169793" lon="32.5801463"><ele>117.9</ele><time>2015-04-26T12:57:02.0000000+00:00</time></trkpt><trkpt lat="35.1697856" lon="32.5800662"><ele>117.9</ele><time>2015-04-26T12:57:05.0000000+00:00</time></trkpt><trkpt lat="35.1697694" lon="32.5799918"><ele>117.9</ele><time>2015-04-26T12:57:08.0000000+00:00</time></trkpt><trkpt lat="35.1697478" lon="32.5799187"><ele>118.8</ele><time>2015-04-26T12:57:11.0000000+00:00</time></trkpt><trkpt lat="35.1697267" lon="32.5798699"><ele>118.9</ele><time>2015-04-26T12:57:13.0000000+00:00</time></trkpt><trkpt lat="35.1696933" lon="32.5798116"><ele>118.1</ele><time>2015-04-26T12:57:16.0000000+00:00</time></trkpt><trkpt lat="35.1696638" lon="32.5797498"><ele>118.9</ele><time>2015-04-26T12:58:30.0000000+00:00</time></trkpt><trkpt lat="35.1696294" lon="32.5797129"><ele>118.1</ele><time>2015-04-26T12:58:33.0000000+00:00</time></trkpt><trkpt lat="35.1695828" lon="32.5796649"><ele>118.1</ele><time>2015-04-26T12:58:36.0000000+00:00</time></trkpt><trkpt lat="35.1695289" lon="32.5796165"><ele>118.8</ele><time>2015-04-26T12:58:39.0000000+00:00</time></trkpt><trkpt lat="35.1694854" lon="32.5795797"><ele>118.9</ele><time>2015-04-26T12:58:41.0000000+00:00</time></trkpt><trkpt lat="35.1694413" lon="32.5795432"><ele>119.7</ele><time>2015-04-26T12:58:43.0000000+00:00</time></trkpt><trkpt lat="35.1694031" lon="32.5795118"><ele>119.9</ele><time>2015-04-26T12:58:45.0000000+00:00</time></trkpt><trkpt lat="35.1693518" lon="32.5794638"><ele>119.9</ele><time>2015-04-26T12:58:48.0000000+00:00</time></trkpt><trkpt lat="35.1693151" lon="32.5794288"><ele>119.9</ele><time>2015-04-26T12:58:50.0000000+00:00</time></trkpt><trkpt lat="35.1692768" lon="32.5793933"><ele>119.4</ele><time>2015-04-26T12:58:52.0000000+00:00</time></trkpt><trkpt lat="35.1692388" lon="32.5793601"><ele>119.1</ele><time>2015-04-26T12:58:54.0000000+00:00</time></trkpt><trkpt lat="35.1691877" lon="32.5793157"><ele>118.3</ele><time>2015-04-26T12:58:57.0000000+00:00</time></trkpt><trkpt lat="35.1691332" lon="32.5792757"><ele>118.9</ele><time>2015-04-26T12:59:00.0000000+00:00</time></trkpt><trkpt lat="35.1690733" lon="32.5792402"><ele>118.5</ele><time>2015-04-26T12:59:03.0000000+00:00</time></trkpt><trkpt lat="35.169021" lon="32.5792193"><ele>118.8</ele><time>2015-04-26T12:59:05.0000000+00:00</time></trkpt><trkpt lat="35.1689667" lon="32.5792053"><ele>119.2</ele><time>2015-04-26T12:59:07.0000000+00:00</time></trkpt><trkpt lat="35.1689153" lon="32.5791856"><ele>119.7</ele><time>2015-04-26T12:59:09.0000000+00:00</time></trkpt><trkpt lat="35.168868" lon="32.5791471"><ele>120.6</ele><time>2015-04-26T12:59:11.0000000+00:00</time></trkpt><trkpt lat="35.1688371" lon="32.5790969"><ele>122.1</ele><time>2015-04-26T12:59:13.0000000+00:00</time></trkpt><trkpt lat="35.1688252" lon="32.5790396"><ele>122.8</ele><time>2015-04-26T12:59:16.0000000+00:00</time></trkpt><trkpt lat="35.1688184" lon="32.5789847"><ele>123.8</ele><time>2015-04-26T12:59:19.0000000+00:00</time></trkpt><trkpt lat="35.1688052" lon="32.5789136"><ele>124.4</ele><time>2015-04-26T12:59:23.0000000+00:00</time></trkpt><trkpt lat="35.1687784" lon="32.5788501"><ele>125.6</ele><time>2015-04-26T12:59:27.0000000+00:00</time></trkpt><trkpt lat="35.1687365" lon="32.5788035"><ele>126.8</ele><time>2015-04-26T12:59:31.0000000+00:00</time></trkpt><trkpt lat="35.1686967" lon="32.5787627"><ele>128.7</ele><time>2015-04-26T12:59:42.0000000+00:00</time></trkpt><trkpt lat="35.1686668" lon="32.5787208"><ele>129.9</ele><time>2015-04-26T12:59:48.0000000+00:00</time></trkpt><trkpt lat="35.168624" lon="32.5786975"><ele>129.6</ele><time>2015-04-26T12:59:55.0000000+00:00</time></trkpt><trkpt lat="35.1685915" lon="32.5786579"><ele>130.9</ele><time>2015-04-26T13:00:02.0000000+00:00</time></trkpt><trkpt lat="35.1685595" lon="32.5786118"><ele>131.7</ele><time>2015-04-26T13:00:14.0000000+00:00</time></trkpt><trkpt lat="35.1685256" lon="32.5785747"><ele>131.9</ele><time>2015-04-26T13:00:19.0000000+00:00</time></trkpt><trkpt lat="35.1684893" lon="32.5785358"><ele>133.1</ele><time>2015-04-26T13:00:24.0000000+00:00</time></trkpt><trkpt lat="35.1684576" lon="32.5784963"><ele>134.5</ele><time>2015-04-26T13:00:29.0000000+00:00</time></trkpt><trkpt lat="35.1684221" lon="32.5784534"><ele>135.9</ele><time>2015-04-26T13:00:34.0000000+00:00</time></trkpt><trkpt lat="35.1683835" lon="32.5784172"><ele>136.7</ele><time>2015-04-26T13:00:39.0000000+00:00</time></trkpt><trkpt lat="35.1683465" lon="32.5783821"><ele>136.9</ele><time>2015-04-26T13:00:45.0000000+00:00</time></trkpt><trkpt lat="35.1683248" lon="32.5783294"><ele>137.8</ele><time>2015-04-26T13:00:52.0000000+00:00</time></trkpt><trkpt lat="35.168308" lon="32.5782716"><ele>138.2</ele><time>2015-04-26T13:00:58.0000000+00:00</time></trkpt><trkpt lat="35.1683032" lon="32.5782156"><ele>137.9</ele><time>2015-04-26T13:01:03.0000000+00:00</time></trkpt><trkpt lat="35.168306" lon="32.57816"><ele>137.9</ele><time>2015-04-26T13:01:08.0000000+00:00</time></trkpt><trkpt lat="35.1683173" lon="32.5780993"><ele>137.9</ele><time>2015-04-26T13:01:13.0000000+00:00</time></trkpt><trkpt lat="35.1683147" lon="32.5780347"><ele>138.0</ele><time>2015-04-26T13:01:18.0000000+00:00</time></trkpt><trkpt lat="35.1682997" lon="32.577969"><ele>138.7</ele><time>2015-04-26T13:01:23.0000000+00:00</time></trkpt><trkpt lat="35.1682668" lon="32.5779182"><ele>139.6</ele><time>2015-04-26T13:01:28.0000000+00:00</time></trkpt><trkpt lat="35.168233" lon="32.5778727"><ele>139.4</ele><time>2015-04-26T13:01:33.0000000+00:00</time></trkpt><trkpt lat="35.16819" lon="32.5778333"><ele>138.9</ele><time>2015-04-26T13:01:40.0000000+00:00</time></trkpt><trkpt lat="35.1681447" lon="32.5777934"><ele>139.9</ele><time>2015-04-26T13:01:44.0000000+00:00</time></trkpt><trkpt lat="35.168087" lon="32.57778"><ele>139.9</ele><time>2015-04-26T13:01:48.0000000+00:00</time></trkpt><trkpt lat="35.1680359" lon="32.5777638"><ele>140.8</ele><time>2015-04-26T13:01:52.0000000+00:00</time></trkpt><trkpt lat="35.1679876" lon="32.5777525"><ele>141.9</ele><time>2015-04-26T13:01:56.0000000+00:00</time></trkpt><trkpt lat="35.1679424" lon="32.5777393"><ele>143.4</ele><time>2015-04-26T13:02:00.0000000+00:00</time></trkpt><trkpt lat="35.1678936" lon="32.5777077"><ele>144.0</ele><time>2015-04-26T13:02:04.0000000+00:00</time></trkpt><trkpt lat="35.1678449" lon="32.5776872"><ele>144.9</ele><time>2015-04-26T13:02:08.0000000+00:00</time></trkpt><trkpt lat="35.1677908" lon="32.5776691"><ele>145.8</ele><time>2015-04-26T13:02:12.0000000+00:00</time></trkpt><trkpt lat="35.167743" lon="32.5776369"><ele>146.8</ele><time>2015-04-26T13:02:16.0000000+00:00</time></trkpt><trkpt lat="35.1677013" lon="32.5775906"><ele>147.4</ele><time>2015-04-26T13:02:20.0000000+00:00</time></trkpt><trkpt lat="35.1676727" lon="32.5775478"><ele>149.9</ele><time>2015-04-26T13:02:40.0000000+00:00</time></trkpt><trkpt lat="35.1676909" lon="32.5774943"><ele>151.7</ele><time>2015-04-26T13:02:56.0000000+00:00</time></trkpt><trkpt lat="35.1677177" lon="32.5774489"><ele>152.8</ele><time>2015-04-26T13:03:04.0000000+00:00</time></trkpt><trkpt lat="35.1677454" lon="32.5774038"><ele>152.9</ele><time>2015-04-26T13:03:13.0000000+00:00</time></trkpt><trkpt lat="35.1677745" lon="32.5773591"><ele>154.0</ele><time>2015-04-26T13:03:23.0000000+00:00</time></trkpt><trkpt lat="35.1678207" lon="32.5773285"><ele>156.6</ele><time>2015-04-26T13:03:30.0000000+00:00</time></trkpt><trkpt lat="35.1678552" lon="32.5772902"><ele>158.9</ele><time>2015-04-26T13:03:37.0000000+00:00</time></trkpt><trkpt lat="35.1678987" lon="32.5772609"><ele>162.7</ele><time>2015-04-26T13:03:45.0000000+00:00</time></trkpt><trkpt lat="35.1679323" lon="32.5772162"><ele>162.7</ele><time>2015-04-26T13:03:54.0000000+00:00</time></trkpt><trkpt lat="35.1679645" lon="32.5771643"><ele>162.9</ele><time>2015-04-26T13:04:02.0000000+00:00</time></trkpt><trkpt lat="35.1680005" lon="32.5771215"><ele>163.2</ele><time>2015-04-26T13:04:08.0000000+00:00</time></trkpt><trkpt lat="35.1680397" lon="32.5770818"><ele>163.9</ele><time>2015-04-26T13:04:14.0000000+00:00</time></trkpt><trkpt lat="35.1680715" lon="32.5770413"><ele>161.3</ele><time>2015-04-26T13:04:20.0000000+00:00</time></trkpt><trkpt lat="35.1681058" lon="32.5770007"><ele>160.9</ele><time>2015-04-26T13:04:26.0000000+00:00</time></trkpt><trkpt lat="35.168142" lon="32.5769628"><ele>161.7</ele><time>2015-04-26T13:04:32.0000000+00:00</time></trkpt><trkpt lat="35.1681768" lon="32.5769168"><ele>161.9</ele><time>2015-04-26T13:04:39.0000000+00:00</time></trkpt><trkpt lat="35.1682063" lon="32.576871"><ele>162.9</ele><time>2015-04-26T13:04:45.0000000+00:00</time></trkpt><trkpt lat="35.1682064" lon="32.576807"><ele>163.5</ele><time>2015-04-26T13:04:51.0000000+00:00</time></trkpt><trkpt lat="35.1682087" lon="32.5767462"><ele>165.2</ele><time>2015-04-26T13:14:06.0000000+00:00</time></trkpt><trkpt lat="35.1681933" lon="32.5766931"><ele>164.7</ele><time>2015-04-26T13:14:11.0000000+00:00</time></trkpt><trkpt lat="35.1681756" lon="32.5766254"><ele>164.3</ele><time>2015-04-26T13:14:16.0000000+00:00</time></trkpt><trkpt lat="35.1681553" lon="32.5765693"><ele>163.3</ele><time>2015-04-26T13:14:20.0000000+00:00</time></trkpt><trkpt lat="35.1681391" lon="32.576513"><ele>163.9</ele><time>2015-04-26T13:14:24.0000000+00:00</time></trkpt><trkpt lat="35.1681178" lon="32.5764509"><ele>164.3</ele><time>2015-04-26T13:14:27.0000000+00:00</time></trkpt><trkpt lat="35.1680813" lon="32.5763862"><ele>162.8</ele><time>2015-04-26T13:14:29.0000000+00:00</time></trkpt><trkpt lat="35.1680329" lon="32.5763025"><ele>162.1</ele><time>2015-04-26T13:14:31.0000000+00:00</time></trkpt><trkpt lat="35.1679832" lon="32.5762173"><ele>161.5</ele><time>2015-04-26T13:14:33.0000000+00:00</time></trkpt><trkpt lat="35.1679423" lon="32.5761329"><ele>161.1</ele><time>2015-04-26T13:14:35.0000000+00:00</time></trkpt><trkpt lat="35.1679147" lon="32.5760468"><ele>161.5</ele><time>2015-04-26T13:14:37.0000000+00:00</time></trkpt><trkpt lat="35.1678862" lon="32.5759668"><ele>161.3</ele><time>2015-04-26T13:14:39.0000000+00:00</time></trkpt><trkpt lat="35.1678568" lon="32.5758886"><ele>160.5</ele><time>2015-04-26T13:14:41.0000000+00:00</time></trkpt><trkpt lat="35.1678213" lon="32.5758093"><ele>159.8</ele><time>2015-04-26T13:14:43.0000000+00:00</time></trkpt><trkpt lat="35.1677804" lon="32.5757254"><ele>159.9</ele><time>2015-04-26T13:14:45.0000000+00:00</time></trkpt><trkpt lat="35.1677655" lon="32.5756461"><ele>159.9</ele><time>2015-04-26T13:14:46.0000000+00:00</time></trkpt><trkpt lat="35.1677587" lon="32.5755877"><ele>159.9</ele><time>2015-04-26T13:14:47.0000000+00:00</time></trkpt><trkpt lat="35.1677702" lon="32.5755289"><ele>160.4</ele><time>2015-04-26T13:14:48.0000000+00:00</time></trkpt><trkpt lat="35.167797" lon="32.5754314"><ele>159.6</ele><time>2015-04-26T13:14:50.0000000+00:00</time></trkpt><trkpt lat="35.1678263" lon="32.5753452"><ele>159.1</ele><time>2015-04-26T13:14:52.0000000+00:00</time></trkpt><trkpt lat="35.1678558" lon="32.5752698"><ele>158.5</ele><time>2015-04-26T13:14:54.0000000+00:00</time></trkpt><trkpt lat="35.167883" lon="32.5751846"><ele>157.6</ele><time>2015-04-26T13:14:56.0000000+00:00</time></trkpt><trkpt lat="35.1678977" lon="32.5751112"><ele>156.1</ele><time>2015-04-26T13:14:58.0000000+00:00</time></trkpt><trkpt lat="35.1678965" lon="32.5750367"><ele>155.2</ele><time>2015-04-26T13:15:00.0000000+00:00</time></trkpt><trkpt lat="35.1678832" lon="32.5749599"><ele>154.5</ele><time>2015-04-26T13:15:02.0000000+00:00</time></trkpt><trkpt lat="35.167861" lon="32.5748839"><ele>154.1</ele><time>2015-04-26T13:15:04.0000000+00:00</time></trkpt><trkpt lat="35.1678419" lon="32.5747934"><ele>152.5</ele><time>2015-04-26T13:15:06.0000000+00:00</time></trkpt><trkpt lat="35.1678586" lon="32.5747073"><ele>151.3</ele><time>2015-04-26T13:15:08.0000000+00:00</time></trkpt><trkpt lat="35.1679032" lon="32.5746278"><ele>149.0</ele><time>2015-04-26T13:15:10.0000000+00:00</time></trkpt><trkpt lat="35.1679488" lon="32.5745558"><ele>147.0</ele><time>2015-04-26T13:15:12.0000000+00:00</time></trkpt><trkpt lat="35.1679853" lon="32.5744624"><ele>144.9</ele><time>2015-04-26T13:15:14.0000000+00:00</time></trkpt><trkpt lat="35.1679902" lon="32.5742939"><ele>143.4</ele><time>2015-04-26T13:15:16.0000000+00:00</time></trkpt><trkpt lat="35.1679753" lon="32.5742338"><ele>142.7</ele><time>2015-04-26T13:15:17.0000000+00:00</time></trkpt><trkpt lat="35.1679607" lon="32.5741713"><ele>142.8</ele><time>2015-04-26T13:15:18.0000000+00:00</time></trkpt><trkpt lat="35.1679571" lon="32.5741163"><ele>142.4</ele><time>2015-04-26T13:15:19.0000000+00:00</time></trkpt><trkpt lat="35.1679347" lon="32.5740136"><ele>143.3</ele><time>2015-04-26T13:15:21.0000000+00:00</time></trkpt><trkpt lat="35.1679335" lon="32.5738988"><ele>143.8</ele><time>2015-04-26T13:15:23.0000000+00:00</time></trkpt><trkpt lat="35.1679145" lon="32.5737914"><ele>143.9</ele><time>2015-04-26T13:15:25.0000000+00:00</time></trkpt><trkpt lat="35.1678924" lon="32.5737368"><ele>143.4</ele><time>2015-04-26T13:15:26.0000000+00:00</time></trkpt><trkpt lat="35.1678816" lon="32.5736816"><ele>142.7</ele><time>2015-04-26T13:15:27.0000000+00:00</time></trkpt><trkpt lat="35.1678623" lon="32.5736257"><ele>142.3</ele><time>2015-04-26T13:15:28.0000000+00:00</time></trkpt><trkpt lat="35.1678324" lon="32.5735692"><ele>142.1</ele><time>2015-04-26T13:15:29.0000000+00:00</time></trkpt><trkpt lat="35.1678028" lon="32.5735074"><ele>142.0</ele><time>2015-04-26T13:15:30.0000000+00:00</time></trkpt><trkpt lat="35.1677741" lon="32.5734427"><ele>142.0</ele><time>2015-04-26T13:15:31.0000000+00:00</time></trkpt><trkpt lat="35.1677485" lon="32.5733732"><ele>142.0</ele><time>2015-04-26T13:15:32.0000000+00:00</time></trkpt><trkpt lat="35.1677154" lon="32.5733116"><ele>141.9</ele><time>2015-04-26T13:15:33.0000000+00:00</time></trkpt><trkpt lat="35.1676856" lon="32.5732603"><ele>141.9</ele><time>2015-04-26T13:15:34.0000000+00:00</time></trkpt><trkpt lat="35.1676667" lon="32.5731993"><ele>141.4</ele><time>2015-04-26T13:15:35.0000000+00:00</time></trkpt><trkpt lat="35.1676548" lon="32.5731372"><ele>141.2</ele><time>2015-04-26T13:15:36.0000000+00:00</time></trkpt><trkpt lat="35.1676453" lon="32.5730797"><ele>141.6</ele><time>2015-04-26T13:15:37.0000000+00:00</time></trkpt><trkpt lat="35.16765" lon="32.5730212"><ele>141.7</ele><time>2015-04-26T13:15:38.0000000+00:00</time></trkpt><trkpt lat="35.1676462" lon="32.5729648"><ele>141.3</ele><time>2015-04-26T13:15:39.0000000+00:00</time></trkpt><trkpt lat="35.167634" lon="32.5729074"><ele>141.1</ele><time>2015-04-26T13:15:40.0000000+00:00</time></trkpt><trkpt lat="35.1676013" lon="32.5728089"><ele>141.5</ele><time>2015-04-26T13:15:42.0000000+00:00</time></trkpt><trkpt lat="35.1675768" lon="32.5727137"><ele>141.8</ele><time>2015-04-26T13:15:44.0000000+00:00</time></trkpt><trkpt lat="35.1675652" lon="32.5726509"><ele>140.7</ele><time>2015-04-26T13:15:46.0000000+00:00</time></trkpt><trkpt lat="35.167561" lon="32.5725718"><ele>140.0</ele><time>2015-04-26T13:15:49.0000000+00:00</time></trkpt><trkpt lat="35.1675692" lon="32.5725065"><ele>137.6</ele><time>2015-04-26T13:15:52.0000000+00:00</time></trkpt><trkpt lat="35.167567" lon="32.5724471"><ele>137.5</ele><time>2015-04-26T13:15:55.0000000+00:00</time></trkpt><trkpt lat="35.1675591" lon="32.5723884"><ele>137.1</ele><time>2015-04-26T13:15:57.0000000+00:00</time></trkpt><trkpt lat="35.1675447" lon="32.57232"><ele>137.0</ele><time>2015-04-26T13:15:59.0000000+00:00</time></trkpt><trkpt lat="35.1675275" lon="32.5722536"><ele>136.9</ele><time>2015-04-26T13:16:01.0000000+00:00</time></trkpt><trkpt lat="35.1675144" lon="32.5721861"><ele>136.2</ele><time>2015-04-26T13:16:03.0000000+00:00</time></trkpt><trkpt lat="35.1674982" lon="32.5721174"><ele>136.0</ele><time>2015-04-26T13:16:05.0000000+00:00</time></trkpt><trkpt lat="35.1674781" lon="32.5720414"><ele>135.9</ele><time>2015-04-26T13:16:07.0000000+00:00</time></trkpt><trkpt lat="35.167461" lon="32.5719594"><ele>135.2</ele><time>2015-04-26T13:16:09.0000000+00:00</time></trkpt><trkpt lat="35.1674451" lon="32.5718719"><ele>135.0</ele><time>2015-04-26T13:16:11.0000000+00:00</time></trkpt><trkpt lat="35.1674356" lon="32.5718177"><ele>135.0</ele><time>2015-04-26T13:16:12.0000000+00:00</time></trkpt><trkpt lat="35.1674262" lon="32.5717637"><ele>134.4</ele><time>2015-04-26T13:16:13.0000000+00:00</time></trkpt><trkpt lat="35.1674179" lon="32.5717094"><ele>134.2</ele><time>2015-04-26T13:16:14.0000000+00:00</time></trkpt><trkpt lat="35.167402" lon="32.5716078"><ele>134.5</ele><time>2015-04-26T13:16:16.0000000+00:00</time></trkpt><trkpt lat="35.1673859" lon="32.5715134"><ele>134.1</ele><time>2015-04-26T13:16:18.0000000+00:00</time></trkpt><trkpt lat="35.1673687" lon="32.571417"><ele>134.0</ele><time>2015-04-26T13:16:20.0000000+00:00</time></trkpt><trkpt lat="35.1673605" lon="32.5713506"><ele>133.9</ele><time>2015-04-26T13:16:21.0000000+00:00</time></trkpt><trkpt lat="35.1673502" lon="32.571286"><ele>133.4</ele><time>2015-04-26T13:16:22.0000000+00:00</time></trkpt><trkpt lat="35.1673395" lon="32.5712203"><ele>132.7</ele><time>2015-04-26T13:16:23.0000000+00:00</time></trkpt><trkpt lat="35.1673304" lon="32.5711589"><ele>132.3</ele><time>2015-04-26T13:16:24.0000000+00:00</time></trkpt><trkpt lat="35.1673182" lon="32.5710967"><ele>132.1</ele><time>2015-04-26T13:16:25.0000000+00:00</time></trkpt><trkpt lat="35.1673037" lon="32.5710354"><ele>132.0</ele><time>2015-04-26T13:16:26.0000000+00:00</time></trkpt><trkpt lat="35.1672947" lon="32.5709714"><ele>131.5</ele><time>2015-04-26T13:16:27.0000000+00:00</time></trkpt><trkpt lat="35.1672872" lon="32.570914"><ele>131.2</ele><time>2015-04-26T13:16:28.0000000+00:00</time></trkpt><trkpt lat="35.1672767" lon="32.5708459"><ele>130.6</ele><time>2015-04-26T13:16:29.0000000+00:00</time></trkpt><trkpt lat="35.1672573" lon="32.5707754"><ele>129.7</ele><time>2015-04-26T13:16:30.0000000+00:00</time></trkpt><trkpt lat="35.1672318" lon="32.570717"><ele>128.8</ele><time>2015-04-26T13:16:31.0000000+00:00</time></trkpt><trkpt lat="35.1672027" lon="32.5706549"><ele>127.9</ele><time>2015-04-26T13:16:32.0000000+00:00</time></trkpt><trkpt lat="35.1671842" lon="32.5705943"><ele>127.9</ele><time>2015-04-26T13:16:33.0000000+00:00</time></trkpt><trkpt lat="35.1671737" lon="32.5705337"><ele>127.4</ele><time>2015-04-26T13:16:34.0000000+00:00</time></trkpt><trkpt lat="35.1671629" lon="32.5704644"><ele>126.7</ele><time>2015-04-26T13:16:35.0000000+00:00</time></trkpt><trkpt lat="35.1671479" lon="32.5703934"><ele>125.8</ele><time>2015-04-26T13:16:36.0000000+00:00</time></trkpt><trkpt lat="35.1671349" lon="32.570323"><ele>124.9</ele><time>2015-04-26T13:16:37.0000000+00:00</time></trkpt><trkpt lat="35.1671165" lon="32.5702601"><ele>124.4</ele><time>2015-04-26T13:16:38.0000000+00:00</time></trkpt><trkpt lat="35.1671043" lon="32.5702037"><ele>123.7</ele><time>2015-04-26T13:16:39.0000000+00:00</time></trkpt><trkpt lat="35.1670964" lon="32.5701359"><ele>122.8</ele><time>2015-04-26T13:16:40.0000000+00:00</time></trkpt><trkpt lat="35.167084" lon="32.5700738"><ele>122.4</ele><time>2015-04-26T13:16:41.0000000+00:00</time></trkpt><trkpt lat="35.1670788" lon="32.5700051"><ele>121.6</ele><time>2015-04-26T13:16:42.0000000+00:00</time></trkpt><trkpt lat="35.1670736" lon="32.5699335"><ele>120.8</ele><time>2015-04-26T13:16:43.0000000+00:00</time></trkpt><trkpt lat="35.1670644" lon="32.5698588"><ele>119.9</ele><time>2015-04-26T13:16:44.0000000+00:00</time></trkpt><trkpt lat="35.1670526" lon="32.5697706"><ele>118.9</ele><time>2015-04-26T13:16:45.0000000+00:00</time></trkpt><trkpt lat="35.1670377" lon="32.5696787"><ele>117.9</ele><time>2015-04-26T13:16:46.0000000+00:00</time></trkpt><trkpt lat="35.1670159" lon="32.5695819"><ele>116.9</ele><time>2015-04-26T13:16:47.0000000+00:00</time></trkpt><trkpt lat="35.1669949" lon="32.5694948"><ele>116.4</ele><time>2015-04-26T13:16:48.0000000+00:00</time></trkpt><trkpt lat="35.1669743" lon="32.5694018"><ele>115.7</ele><time>2015-04-26T13:16:49.0000000+00:00</time></trkpt><trkpt lat="35.1669569" lon="32.5693208"><ele>115.3</ele><time>2015-04-26T13:16:50.0000000+00:00</time></trkpt><trkpt lat="35.1669385" lon="32.5692353"><ele>114.6</ele><time>2015-04-26T13:16:51.0000000+00:00</time></trkpt><trkpt lat="35.166922" lon="32.5691593"><ele>114.3</ele><time>2015-04-26T13:16:52.0000000+00:00</time></trkpt><trkpt lat="35.1669122" lon="32.5690852"><ele>113.6</ele><time>2015-04-26T13:16:53.0000000+00:00</time></trkpt><trkpt lat="35.1668974" lon="32.5690176"><ele>112.8</ele><time>2015-04-26T13:16:54.0000000+00:00</time></trkpt><trkpt lat="35.1668855" lon="32.5689504"><ele>111.8</ele><time>2015-04-26T13:16:55.0000000+00:00</time></trkpt><trkpt lat="35.1668702" lon="32.5688934"><ele>111.4</ele><time>2015-04-26T13:16:56.0000000+00:00</time></trkpt><trkpt lat="35.1668511" lon="32.5687986"><ele>110.3</ele><time>2015-04-26T13:16:58.0000000+00:00</time></trkpt><trkpt lat="35.1668424" lon="32.5687268"><ele>109.5</ele><time>2015-04-26T13:17:00.0000000+00:00</time></trkpt><trkpt lat="35.1668416" lon="32.5686709"><ele>109.1</ele><time>2015-04-26T13:17:02.0000000+00:00</time></trkpt><trkpt lat="35.166843" lon="32.5686113"><ele>108.2</ele><time>2015-04-26T13:17:04.0000000+00:00</time></trkpt><trkpt lat="35.166848" lon="32.5685516"><ele>107.3</ele><time>2015-04-26T13:17:06.0000000+00:00</time></trkpt><trkpt lat="35.1668555" lon="32.568474"><ele>106.3</ele><time>2015-04-26T13:17:08.0000000+00:00</time></trkpt><trkpt lat="35.1668467" lon="32.5683685"><ele>105.3</ele><time>2015-04-26T13:17:10.0000000+00:00</time></trkpt><trkpt lat="35.1668265" lon="32.5683001"><ele>104.6</ele><time>2015-04-26T13:17:11.0000000+00:00</time></trkpt><trkpt lat="35.1668076" lon="32.5682442"><ele>104.3</ele><time>2015-04-26T13:17:12.0000000+00:00</time></trkpt><trkpt lat="35.1667941" lon="32.5681871"><ele>104.1</ele><time>2015-04-26T13:17:13.0000000+00:00</time></trkpt><trkpt lat="35.166779" lon="32.5681279"><ele>103.5</ele><time>2015-04-26T13:17:14.0000000+00:00</time></trkpt><trkpt lat="35.1667484" lon="32.5680362"><ele>103.6</ele><time>2015-04-26T13:17:16.0000000+00:00</time></trkpt><trkpt lat="35.1667148" lon="32.5679508"><ele>103.8</ele><time>2015-04-26T13:17:18.0000000+00:00</time></trkpt><trkpt lat="35.1666918" lon="32.5678687"><ele>103.7</ele><time>2015-04-26T13:17:20.0000000+00:00</time></trkpt><trkpt lat="35.1666695" lon="32.5677984"><ele>103.9</ele><time>2015-04-26T13:17:22.0000000+00:00</time></trkpt><trkpt lat="35.1666659" lon="32.567725"><ele>104.4</ele><time>2015-04-26T13:17:24.0000000+00:00</time></trkpt><trkpt lat="35.1666682" lon="32.5676536"><ele>104.1</ele><time>2015-04-26T13:17:26.0000000+00:00</time></trkpt><trkpt lat="35.1666716" lon="32.5675763"><ele>103.5</ele><time>2015-04-26T13:17:28.0000000+00:00</time></trkpt><trkpt lat="35.166667" lon="32.5675"><ele>103.8</ele><time>2015-04-26T13:17:30.0000000+00:00</time></trkpt><trkpt lat="35.1666512" lon="32.5674288"><ele>103.9</ele><time>2015-04-26T13:17:32.0000000+00:00</time></trkpt><trkpt lat="35.166632" lon="32.5673518"><ele>104.4</ele><time>2015-04-26T13:17:34.0000000+00:00</time></trkpt><trkpt lat="35.1666084" lon="32.5672535"><ele>104.8</ele><time>2015-04-26T13:17:36.0000000+00:00</time></trkpt><trkpt lat="35.1665884" lon="32.5671545"><ele>104.1</ele><time>2015-04-26T13:17:38.0000000+00:00</time></trkpt><trkpt lat="35.1665632" lon="32.5670564"><ele>104.0</ele><time>2015-04-26T13:17:40.0000000+00:00</time></trkpt><trkpt lat="35.166534" lon="32.5669642"><ele>103.4</ele><time>2015-04-26T13:17:42.0000000+00:00</time></trkpt><trkpt lat="35.1665076" lon="32.5668921"><ele>103.1</ele><time>2015-04-26T13:17:44.0000000+00:00</time></trkpt><trkpt lat="35.1664827" lon="32.5668381"><ele>103.5</ele><time>2015-04-26T13:17:46.0000000+00:00</time></trkpt><trkpt lat="35.1664495" lon="32.566795"><ele>103.3</ele><time>2015-04-26T13:17:48.0000000+00:00</time></trkpt><trkpt lat="35.1664174" lon="32.5667526"><ele>103.0</ele><time>2015-04-26T13:17:50.0000000+00:00</time></trkpt><trkpt lat="35.1663676" lon="32.5666976"><ele>103.7</ele><time>2015-04-26T13:17:53.0000000+00:00</time></trkpt><trkpt lat="35.1663218" lon="32.5666529"><ele>103.9</ele><time>2015-04-26T13:17:55.0000000+00:00</time></trkpt><trkpt lat="35.1662717" lon="32.566583"><ele>103.9</ele><time>2015-04-26T13:17:57.0000000+00:00</time></trkpt><trkpt lat="35.1662216" lon="32.5665077"><ele>103.9</ele><time>2015-04-26T13:17:59.0000000+00:00</time></trkpt><trkpt lat="35.1661819" lon="32.5664274"><ele>103.2</ele><time>2015-04-26T13:18:01.0000000+00:00</time></trkpt><trkpt lat="35.1661605" lon="32.5663388"><ele>103.7</ele><time>2015-04-26T13:18:03.0000000+00:00</time></trkpt><trkpt lat="35.166151" lon="32.5662475"><ele>103.4</ele><time>2015-04-26T13:18:05.0000000+00:00</time></trkpt><trkpt lat="35.1661403" lon="32.5661561"><ele>103.0</ele><time>2015-04-26T13:18:07.0000000+00:00</time></trkpt><trkpt lat="35.1661236" lon="32.5660631"><ele>103.0</ele><time>2015-04-26T13:18:09.0000000+00:00</time></trkpt><trkpt lat="35.1661032" lon="32.5659683"><ele>102.4</ele><time>2015-04-26T13:18:11.0000000+00:00</time></trkpt><trkpt lat="35.1660812" lon="32.5658747"><ele>102.1</ele><time>2015-04-26T13:18:13.0000000+00:00</time></trkpt><trkpt lat="35.1660636" lon="32.5657822"><ele>102.0</ele><time>2015-04-26T13:18:15.0000000+00:00</time></trkpt><trkpt lat="35.166056" lon="32.5656905"><ele>101.9</ele><time>2015-04-26T13:18:17.0000000+00:00</time></trkpt><trkpt lat="35.1660529" lon="32.5656158"><ele>101.9</ele><time>2015-04-26T13:18:19.0000000+00:00</time></trkpt><trkpt lat="35.1660538" lon="32.5655464"><ele>101.9</ele><time>2015-04-26T13:18:21.0000000+00:00</time></trkpt><trkpt lat="35.1660588" lon="32.5654888"><ele>101.9</ele><time>2015-04-26T13:18:23.0000000+00:00</time></trkpt><trkpt lat="35.1660652" lon="32.5654084"><ele>101.4</ele><time>2015-04-26T13:18:26.0000000+00:00</time></trkpt><trkpt lat="35.1660721" lon="32.5653505"><ele>100.6</ele><time>2015-04-26T13:18:28.0000000+00:00</time></trkpt><trkpt lat="35.1660758" lon="32.5652915"><ele>100.1</ele><time>2015-04-26T13:18:30.0000000+00:00</time></trkpt><trkpt lat="35.1660767" lon="32.5652113"><ele>100.6</ele><time>2015-04-26T13:18:33.0000000+00:00</time></trkpt><trkpt lat="35.1660666" lon="32.5651497"><ele>101.7</ele><time>2015-04-26T13:18:37.0000000+00:00</time></trkpt><trkpt lat="35.1660403" lon="32.5650841"><ele>101.9</ele><time>2015-04-26T13:18:40.0000000+00:00</time></trkpt><trkpt lat="35.1660143" lon="32.5650253"><ele>102.4</ele><time>2015-04-26T13:18:43.0000000+00:00</time></trkpt><trkpt lat="35.165978" lon="32.5649791"><ele>102.9</ele><time>2015-04-26T13:18:46.0000000+00:00</time></trkpt><trkpt lat="35.1659381" lon="32.5649394"><ele>102.9</ele><time>2015-04-26T13:18:49.0000000+00:00</time></trkpt><trkpt lat="35.1658893" lon="32.5649033"><ele>102.1</ele><time>2015-04-26T13:18:52.0000000+00:00</time></trkpt><trkpt lat="35.1658326" lon="32.5648788"><ele>101.2</ele><time>2015-04-26T13:18:54.0000000+00:00</time></trkpt><trkpt lat="35.1657649" lon="32.5648602"><ele>101.8</ele><time>2015-04-26T13:18:56.0000000+00:00</time></trkpt><trkpt lat="35.1657011" lon="32.5648475"><ele>101.9</ele><time>2015-04-26T13:18:58.0000000+00:00</time></trkpt><trkpt lat="35.1656416" lon="32.5648329"><ele>101.7</ele><time>2015-04-26T13:19:00.0000000+00:00</time></trkpt><trkpt lat="35.1655855" lon="32.564812"><ele>101.4</ele><time>2015-04-26T13:19:02.0000000+00:00</time></trkpt><trkpt lat="35.1655294" lon="32.5647838"><ele>101.8</ele><time>2015-04-26T13:19:04.0000000+00:00</time></trkpt><trkpt lat="35.1654779" lon="32.5647456"><ele>101.9</ele><time>2015-04-26T13:19:06.0000000+00:00</time></trkpt><trkpt lat="35.1654469" lon="32.5646845"><ele>101.4</ele><time>2015-04-26T13:19:08.0000000+00:00</time></trkpt><trkpt lat="35.1654374" lon="32.5646128"><ele>102.3</ele><time>2015-04-26T13:19:10.0000000+00:00</time></trkpt><trkpt lat="35.1654326" lon="32.5645408"><ele>102.8</ele><time>2015-04-26T13:19:12.0000000+00:00</time></trkpt><trkpt lat="35.1654174" lon="32.5644716"><ele>103.6</ele><time>2015-04-26T13:19:14.0000000+00:00</time></trkpt><trkpt lat="35.165393" lon="32.5644129"><ele>103.4</ele><time>2015-04-26T13:19:16.0000000+00:00</time></trkpt><trkpt lat="35.1653544" lon="32.5643685"><ele>103.5</ele><time>2015-04-26T13:19:18.0000000+00:00</time></trkpt><trkpt lat="35.1653165" lon="32.5643216"><ele>103.8</ele><time>2015-04-26T13:19:20.0000000+00:00</time></trkpt><trkpt lat="35.1652922" lon="32.5642632"><ele>103.9</ele><time>2015-04-26T13:19:22.0000000+00:00</time></trkpt><trkpt lat="35.1652811" lon="32.5641935"><ele>103.2</ele><time>2015-04-26T13:19:24.0000000+00:00</time></trkpt><trkpt lat="35.1652998" lon="32.564112"><ele>103.5</ele><time>2015-04-26T13:19:26.0000000+00:00</time></trkpt><trkpt lat="35.165352" lon="32.5640507"><ele>103.6</ele><time>2015-04-26T13:19:28.0000000+00:00</time></trkpt><trkpt lat="35.1654167" lon="32.564014"><ele>103.1</ele><time>2015-04-26T13:19:30.0000000+00:00</time></trkpt><trkpt lat="35.1654815" lon="32.5639743"><ele>103.0</ele><time>2015-04-26T13:19:32.0000000+00:00</time></trkpt><trkpt lat="35.1655516" lon="32.5639228"><ele>102.9</ele><time>2015-04-26T13:19:34.0000000+00:00</time></trkpt><trkpt lat="35.1656153" lon="32.5638712"><ele>102.9</ele><time>2015-04-26T13:19:36.0000000+00:00</time></trkpt><trkpt lat="35.1656698" lon="32.5638173"><ele>103.2</ele><time>2015-04-26T13:19:38.0000000+00:00</time></trkpt><trkpt lat="35.1657183" lon="32.5637545"><ele>103.2</ele><time>2015-04-26T13:19:40.0000000+00:00</time></trkpt><trkpt lat="35.1657655" lon="32.5636862"><ele>102.8</ele><time>2015-04-26T13:19:42.0000000+00:00</time></trkpt><trkpt lat="35.1658092" lon="32.5636118"><ele>102.6</ele><time>2015-04-26T13:19:44.0000000+00:00</time></trkpt><trkpt lat="35.1658484" lon="32.5635318"><ele>102.9</ele><time>2015-04-26T13:19:46.0000000+00:00</time></trkpt><trkpt lat="35.1658719" lon="32.56344"><ele>102.7</ele><time>2015-04-26T13:19:48.0000000+00:00</time></trkpt><trkpt lat="35.1658694" lon="32.5633431"><ele>102.9</ele><time>2015-04-26T13:19:50.0000000+00:00</time></trkpt><trkpt lat="35.1658489" lon="32.5632495"><ele>102.7</ele><time>2015-04-26T13:19:52.0000000+00:00</time></trkpt><trkpt lat="35.1658096" lon="32.5631647"><ele>103.4</ele><time>2015-04-26T13:19:54.0000000+00:00</time></trkpt><trkpt lat="35.1657669" lon="32.5630804"><ele>104.8</ele><time>2015-04-26T13:19:56.0000000+00:00</time></trkpt><trkpt lat="35.165717" lon="32.5630032"><ele>106.4</ele><time>2015-04-26T13:19:58.0000000+00:00</time></trkpt><trkpt lat="35.1656581" lon="32.5629329"><ele>107.3</ele><time>2015-04-26T13:20:00.0000000+00:00</time></trkpt><trkpt lat="35.1656011" lon="32.5628618"><ele>107.3</ele><time>2015-04-26T13:20:02.0000000+00:00</time></trkpt><trkpt lat="35.1655581" lon="32.5627828"><ele>106.8</ele><time>2015-04-26T13:20:04.0000000+00:00</time></trkpt><trkpt lat="35.165522" lon="32.5627008"><ele>107.1</ele><time>2015-04-26T13:20:06.0000000+00:00</time></trkpt><trkpt lat="35.1654897" lon="32.5626142"><ele>107.2</ele><time>2015-04-26T13:20:08.0000000+00:00</time></trkpt><trkpt lat="35.1654843" lon="32.5625167"><ele>107.3</ele><time>2015-04-26T13:20:10.0000000+00:00</time></trkpt><trkpt lat="35.1655318" lon="32.5624334"><ele>106.3</ele><time>2015-04-26T13:20:12.0000000+00:00</time></trkpt><trkpt lat="35.165615" lon="32.562397"><ele>106.0</ele><time>2015-04-26T13:20:14.0000000+00:00</time></trkpt><trkpt lat="35.1656603" lon="32.5623954"><ele>106.0</ele><time>2015-04-26T13:20:15.0000000+00:00</time></trkpt><trkpt lat="35.1657485" lon="32.5624077"><ele>106.4</ele><time>2015-04-26T13:20:17.0000000+00:00</time></trkpt><trkpt lat="35.1658315" lon="32.5624269"><ele>106.1</ele><time>2015-04-26T13:20:19.0000000+00:00</time></trkpt><trkpt lat="35.1659103" lon="32.5624418"><ele>105.2</ele><time>2015-04-26T13:20:21.0000000+00:00</time></trkpt><trkpt lat="35.1659894" lon="32.5624394"><ele>105.0</ele><time>2015-04-26T13:20:23.0000000+00:00</time></trkpt><trkpt lat="35.1660713" lon="32.5623992"><ele>104.9</ele><time>2015-04-26T13:20:25.0000000+00:00</time></trkpt><trkpt lat="35.166109" lon="32.5623475"><ele>104.9</ele><time>2015-04-26T13:20:26.0000000+00:00</time></trkpt><trkpt lat="35.1661804" lon="32.5622872"><ele>104.7</ele><time>2015-04-26T13:20:28.0000000+00:00</time></trkpt><trkpt lat="35.1662489" lon="32.5622224"><ele>104.4</ele><time>2015-04-26T13:20:30.0000000+00:00</time></trkpt><trkpt lat="35.1663149" lon="32.5621488"><ele>104.0</ele><time>2015-04-26T13:20:32.0000000+00:00</time></trkpt><trkpt lat="35.1663477" lon="32.562104"><ele>104.0</ele><time>2015-04-26T13:20:33.0000000+00:00</time></trkpt><trkpt lat="35.166376" lon="32.5620602"><ele>103.5</ele><time>2015-04-26T13:20:34.0000000+00:00</time></trkpt><trkpt lat="35.1664058" lon="32.5620156"><ele>102.7</ele><time>2015-04-26T13:20:35.0000000+00:00</time></trkpt><trkpt lat="35.1664473" lon="32.5619227"><ele>102.1</ele><time>2015-04-26T13:20:37.0000000+00:00</time></trkpt><trkpt lat="35.1664876" lon="32.5618327"><ele>101.2</ele><time>2015-04-26T13:20:39.0000000+00:00</time></trkpt><trkpt lat="35.1665294" lon="32.5617489"><ele>101.0</ele><time>2015-04-26T13:20:41.0000000+00:00</time></trkpt><trkpt lat="35.1665553" lon="32.5616552"><ele>101.4</ele><time>2015-04-26T13:20:43.0000000+00:00</time></trkpt><trkpt lat="35.1665893" lon="32.5615713"><ele>101.3</ele><time>2015-04-26T13:20:45.0000000+00:00</time></trkpt><trkpt lat="35.1666026" lon="32.561489"><ele>101.8</ele><time>2015-04-26T13:20:47.0000000+00:00</time></trkpt><trkpt lat="35.1666185" lon="32.5614079"><ele>101.1</ele><time>2015-04-26T13:20:49.0000000+00:00</time></trkpt><trkpt lat="35.1666208" lon="32.5613218"><ele>100.5</ele><time>2015-04-26T13:20:51.0000000+00:00</time></trkpt><trkpt lat="35.1665933" lon="32.5612405"><ele>100.6</ele><time>2015-04-26T13:20:53.0000000+00:00</time></trkpt><trkpt lat="35.1665312" lon="32.5611843"><ele>100.8</ele><time>2015-04-26T13:20:55.0000000+00:00</time></trkpt><trkpt lat="35.1664494" lon="32.5611508"><ele>100.4</ele><time>2015-04-26T13:20:57.0000000+00:00</time></trkpt><trkpt lat="35.1663839" lon="32.5611312"><ele>100.2</ele><time>2015-04-26T13:20:58.0000000+00:00</time></trkpt><trkpt lat="35.1663273" lon="32.5610606"><ele>99.5</ele><time>2015-04-26T13:21:00.0000000+00:00</time></trkpt><trkpt lat="35.1662816" lon="32.5609717"><ele>99.6</ele><time>2015-04-26T13:21:02.0000000+00:00</time></trkpt><trkpt lat="35.1662725" lon="32.5609175"><ele>99.7</ele><time>2015-04-26T13:21:03.0000000+00:00</time></trkpt><trkpt lat="35.1662897" lon="32.5608108"><ele>99.9</ele><time>2015-04-26T13:21:05.0000000+00:00</time></trkpt><trkpt lat="35.1663305" lon="32.5607186"><ele>99.9</ele><time>2015-04-26T13:21:07.0000000+00:00</time></trkpt><trkpt lat="35.1663564" lon="32.5606691"><ele>99.9</ele><time>2015-04-26T13:21:08.0000000+00:00</time></trkpt><trkpt lat="35.1663782" lon="32.5606205"><ele>99.9</ele><time>2015-04-26T13:21:09.0000000+00:00</time></trkpt><trkpt lat="35.1664256" lon="32.5605212"><ele>100.2</ele><time>2015-04-26T13:21:11.0000000+00:00</time></trkpt><trkpt lat="35.1664413" lon="32.5604126"><ele>102.0</ele><time>2015-04-26T13:21:13.0000000+00:00</time></trkpt><trkpt lat="35.1664288" lon="32.560296"><ele>103.2</ele><time>2015-04-26T13:21:15.0000000+00:00</time></trkpt><trkpt lat="35.1663901" lon="32.5602096"><ele>103.2</ele><time>2015-04-26T13:21:17.0000000+00:00</time></trkpt><trkpt lat="35.166365" lon="32.5601247"><ele>102.5</ele><time>2015-04-26T13:21:19.0000000+00:00</time></trkpt><trkpt lat="35.1663325" lon="32.5600509"><ele>101.6</ele><time>2015-04-26T13:21:21.0000000+00:00</time></trkpt><trkpt lat="35.1663098" lon="32.5599933"><ele>102.6</ele><time>2015-04-26T13:21:23.0000000+00:00</time></trkpt><trkpt lat="35.1662826" lon="32.5599061"><ele>102.3</ele><time>2015-04-26T13:21:25.0000000+00:00</time></trkpt><trkpt lat="35.16629" lon="32.5598108"><ele>102.3</ele><time>2015-04-26T13:21:27.0000000+00:00</time></trkpt><trkpt lat="35.1698595" lon="32.5554749"><ele>107.0</ele><time>2015-04-26T13:26:29.0000000+00:00</time></trkpt><trkpt lat="35.1699168" lon="32.5554418"><ele>107.4</ele><time>2015-04-26T13:26:32.0000000+00:00</time></trkpt><trkpt lat="35.1699616" lon="32.555422"><ele>108.3</ele><time>2015-04-26T13:26:34.0000000+00:00</time></trkpt><trkpt lat="35.1700191" lon="32.5553813"><ele>109.3</ele><time>2015-04-26T13:26:36.0000000+00:00</time></trkpt><trkpt lat="35.1700807" lon="32.5553166"><ele>109.0</ele><time>2015-04-26T13:26:38.0000000+00:00</time></trkpt><trkpt lat="35.1701308" lon="32.5552347"><ele>109.0</ele><time>2015-04-26T13:26:40.0000000+00:00</time></trkpt><trkpt lat="35.1701738" lon="32.5551522"><ele>108.2</ele><time>2015-04-26T13:26:42.0000000+00:00</time></trkpt><trkpt lat="35.1702154" lon="32.5550778"><ele>108.0</ele><time>2015-04-26T13:26:44.0000000+00:00</time></trkpt><trkpt lat="35.1702474" lon="32.5550281"><ele>107.9</ele><time>2015-04-26T13:26:46.0000000+00:00</time></trkpt><trkpt lat="35.170279" lon="32.5549837"><ele>107.9</ele><time>2015-04-26T13:26:48.0000000+00:00</time></trkpt><trkpt lat="35.1703057" lon="32.5549264"><ele>105.4</ele><time>2015-04-26T13:27:57.0000000+00:00</time></trkpt><trkpt lat="35.1703296" lon="32.5548726"><ele>105.0</ele><time>2015-04-26T13:28:00.0000000+00:00</time></trkpt><trkpt lat="35.1703567" lon="32.5548069"><ele>104.9</ele><time>2015-04-26T13:28:03.0000000+00:00</time></trkpt><trkpt lat="35.1703822" lon="32.5547364"><ele>104.9</ele><time>2015-04-26T13:28:05.0000000+00:00</time></trkpt><trkpt lat="35.1703999" lon="32.5546727"><ele>105.7</ele><time>2015-04-26T13:28:07.0000000+00:00</time></trkpt><trkpt lat="35.170414" lon="32.5546181"><ele>105.1</ele><time>2015-04-26T13:28:09.0000000+00:00</time></trkpt><trkpt lat="35.1704284" lon="32.5545508"><ele>105.0</ele><time>2015-04-26T13:28:11.0000000+00:00</time></trkpt><trkpt lat="35.1704408" lon="32.55447"><ele>104.9</ele><time>2015-04-26T13:28:13.0000000+00:00</time></trkpt><trkpt lat="35.1704493" lon="32.5543941"><ele>105.7</ele><time>2015-04-26T13:28:15.0000000+00:00</time></trkpt><trkpt lat="35.1704534" lon="32.5543241"><ele>105.9</ele><time>2015-04-26T13:28:17.0000000+00:00</time></trkpt><trkpt lat="35.1704455" lon="32.5542585"><ele>105.2</ele><time>2015-04-26T13:28:20.0000000+00:00</time></trkpt><trkpt lat="35.1704356" lon="32.5541924"><ele>104.1</ele><time>2015-04-26T13:28:23.0000000+00:00</time></trkpt><trkpt lat="35.1704149" lon="32.5541215"><ele>104.7</ele><time>2015-04-26T13:28:26.0000000+00:00</time></trkpt><trkpt lat="35.1703745" lon="32.5540611"><ele>104.9</ele><time>2015-04-26T13:28:29.0000000+00:00</time></trkpt><trkpt lat="35.1703276" lon="32.5540417"><ele>104.2</ele><time>2015-04-26T13:28:31.0000000+00:00</time></trkpt><trkpt lat="35.1702662" lon="32.5540309"><ele>104.0</ele><time>2015-04-26T13:28:33.0000000+00:00</time></trkpt><trkpt lat="35.1702034" lon="32.5540347"><ele>103.9</ele><time>2015-04-26T13:28:35.0000000+00:00</time></trkpt><trkpt lat="35.1701404" lon="32.5540396"><ele>103.4</ele><time>2015-04-26T13:28:37.0000000+00:00</time></trkpt><trkpt lat="35.1700813" lon="32.5540465"><ele>103.1</ele><time>2015-04-26T13:28:39.0000000+00:00</time></trkpt><trkpt lat="35.1700281" lon="32.5540556"><ele>103.0</ele><time>2015-04-26T13:28:41.0000000+00:00</time></trkpt><trkpt lat="35.1699772" lon="32.554078"><ele>102.2</ele><time>2015-04-26T13:28:43.0000000+00:00</time></trkpt><trkpt lat="35.1699267" lon="32.5540968"><ele>102.0</ele><time>2015-04-26T13:28:45.0000000+00:00</time></trkpt><trkpt lat="35.1698806" lon="32.554106"><ele>101.4</ele><time>2015-04-26T13:28:47.0000000+00:00</time></trkpt><trkpt lat="35.1698347" lon="32.5541231"><ele>101.1</ele><time>2015-04-26T13:28:49.0000000+00:00</time></trkpt><trkpt lat="35.1697657" lon="32.5541457"><ele>101.5</ele><time>2015-04-26T13:28:51.0000000+00:00</time></trkpt><trkpt lat="35.1696965" lon="32.5541412"><ele>102.3</ele><time>2015-04-26T13:28:53.0000000+00:00</time></trkpt><trkpt lat="35.1696482" lon="32.5540957"><ele>103.6</ele><time>2015-04-26T13:28:56.0000000+00:00</time></trkpt><trkpt lat="35.1696242" lon="32.5540478"><ele>104.6</ele><time>2015-04-26T13:28:58.0000000+00:00</time></trkpt><trkpt lat="35.1695988" lon="32.5539944"><ele>105.3</ele><time>2015-04-26T13:29:00.0000000+00:00</time></trkpt><trkpt lat="35.1695544" lon="32.5539741"><ele>105.4</ele><time>2015-04-26T13:29:04.0000000+00:00</time></trkpt><trkpt lat="35.1695106" lon="32.5539352"><ele>105.7</ele><time>2015-04-26T13:29:07.0000000+00:00</time></trkpt><trkpt lat="35.1694654" lon="32.5538827"><ele>106.7</ele><time>2015-04-26T13:29:10.0000000+00:00</time></trkpt><trkpt lat="35.1694234" lon="32.5538363"><ele>106.9</ele><time>2015-04-26T13:29:13.0000000+00:00</time></trkpt><trkpt lat="35.1693824" lon="32.5537789"><ele>106.9</ele><time>2015-04-26T13:29:16.0000000+00:00</time></trkpt><trkpt lat="35.169343" lon="32.5537241"><ele>107.8</ele><time>2015-04-26T13:29:19.0000000+00:00</time></trkpt><trkpt lat="35.169297" lon="32.5536759"><ele>107.9</ele><time>2015-04-26T13:29:22.0000000+00:00</time></trkpt><trkpt lat="35.1692542" lon="32.5536413"><ele>107.9</ele><time>2015-04-26T13:29:24.0000000+00:00</time></trkpt><trkpt lat="35.1692113" lon="32.5536113"><ele>107.9</ele><time>2015-04-26T13:29:26.0000000+00:00</time></trkpt><trkpt lat="35.1691662" lon="32.5535842"><ele>107.9</ele><time>2015-04-26T13:29:28.0000000+00:00</time></trkpt><trkpt lat="35.1691236" lon="32.5535573"><ele>107.2</ele><time>2015-04-26T13:29:30.0000000+00:00</time></trkpt><trkpt lat="35.1690808" lon="32.5535358"><ele>107.7</ele><time>2015-04-26T13:29:32.0000000+00:00</time></trkpt><trkpt lat="35.1690389" lon="32.5535133"><ele>107.9</ele><time>2015-04-26T13:29:34.0000000+00:00</time></trkpt><trkpt lat="35.1689797" lon="32.5534772"><ele>107.9</ele><time>2015-04-26T13:29:37.0000000+00:00</time></trkpt><trkpt lat="35.1689371" lon="32.5534565"><ele>107.9</ele><time>2015-04-26T13:29:39.0000000+00:00</time></trkpt><trkpt lat="35.1688916" lon="32.5534358"><ele>107.2</ele><time>2015-04-26T13:29:41.0000000+00:00</time></trkpt><trkpt lat="35.1688427" lon="32.5534192"><ele>106.5</ele><time>2015-04-26T13:29:43.0000000+00:00</time></trkpt><trkpt lat="35.1687926" lon="32.5534038"><ele>106.6</ele><time>2015-04-26T13:29:45.0000000+00:00</time></trkpt><trkpt lat="35.1687426" lon="32.5533906"><ele>106.8</ele><time>2015-04-26T13:29:47.0000000+00:00</time></trkpt><trkpt lat="35.168692" lon="32.553378"><ele>106.9</ele><time>2015-04-26T13:29:49.0000000+00:00</time></trkpt><trkpt lat="35.1686333" lon="32.5533603"><ele>106.2</ele><time>2015-04-26T13:29:51.0000000+00:00</time></trkpt><trkpt lat="35.1685736" lon="32.5533419"><ele>106.0</ele><time>2015-04-26T13:29:53.0000000+00:00</time></trkpt><trkpt lat="35.1685168" lon="32.5533254"><ele>105.9</ele><time>2015-04-26T13:29:55.0000000+00:00</time></trkpt><trkpt lat="35.1684592" lon="32.5533109"><ele>106.4</ele><time>2015-04-26T13:29:57.0000000+00:00</time></trkpt><trkpt lat="35.1683991" lon="32.5532992"><ele>106.6</ele><time>2015-04-26T13:29:59.0000000+00:00</time></trkpt><trkpt lat="35.1683402" lon="32.553296"><ele>106.1</ele><time>2015-04-26T13:30:01.0000000+00:00</time></trkpt><trkpt lat="35.1682826" lon="32.5532996"><ele>105.2</ele><time>2015-04-26T13:30:03.0000000+00:00</time></trkpt><trkpt lat="35.1682279" lon="32.5533076"><ele>105.5</ele><time>2015-04-26T13:30:05.0000000+00:00</time></trkpt><trkpt lat="35.168177" lon="32.5533175"><ele>105.8</ele><time>2015-04-26T13:30:07.0000000+00:00</time></trkpt><trkpt lat="35.1681165" lon="32.5533326"><ele>105.9</ele><time>2015-04-26T13:30:10.0000000+00:00</time></trkpt><trkpt lat="35.1680703" lon="32.5533436"><ele>105.9</ele><time>2015-04-26T13:30:12.0000000+00:00</time></trkpt><trkpt lat="35.1680215" lon="32.5533505"><ele>105.9</ele><time>2015-04-26T13:30:14.0000000+00:00</time></trkpt><trkpt lat="35.1679727" lon="32.5533525"><ele>105.2</ele><time>2015-04-26T13:30:16.0000000+00:00</time></trkpt><trkpt lat="35.167922" lon="32.5533616"><ele>105.5</ele><time>2015-04-26T13:30:18.0000000+00:00</time></trkpt><trkpt lat="35.1678695" lon="32.5533749"><ele>105.8</ele><time>2015-04-26T13:30:20.0000000+00:00</time></trkpt><trkpt lat="35.1678192" lon="32.553394"><ele>105.9</ele><time>2015-04-26T13:30:22.0000000+00:00</time></trkpt><trkpt lat="35.1677731" lon="32.5534177"><ele>105.9</ele><time>2015-04-26T13:30:24.0000000+00:00</time></trkpt><trkpt lat="35.1677293" lon="32.553446"><ele>105.9</ele><time>2015-04-26T13:30:26.0000000+00:00</time></trkpt><trkpt lat="35.1676861" lon="32.5534759"><ele>105.9</ele><time>2015-04-26T13:30:28.0000000+00:00</time></trkpt><trkpt lat="35.1676443" lon="32.5535094"><ele>106.4</ele><time>2015-04-26T13:30:30.0000000+00:00</time></trkpt><trkpt lat="35.1676008" lon="32.5535459"><ele>106.8</ele><time>2015-04-26T13:30:32.0000000+00:00</time></trkpt><trkpt lat="35.1675573" lon="32.5535825"><ele>106.9</ele><time>2015-04-26T13:30:34.0000000+00:00</time></trkpt><trkpt lat="35.1675145" lon="32.5536195"><ele>106.9</ele><time>2015-04-26T13:30:36.0000000+00:00</time></trkpt><trkpt lat="35.1674722" lon="32.5536521"><ele>106.2</ele><time>2015-04-26T13:30:38.0000000+00:00</time></trkpt><trkpt lat="35.1674329" lon="32.553685"><ele>106.0</ele><time>2015-04-26T13:30:40.0000000+00:00</time></trkpt><trkpt lat="35.1673844" lon="32.5537389"><ele>105.9</ele><time>2015-04-26T13:30:43.0000000+00:00</time></trkpt><trkpt lat="35.1673548" lon="32.5537845"><ele>105.9</ele><time>2015-04-26T13:30:45.0000000+00:00</time></trkpt><trkpt lat="35.1673298" lon="32.5538329"><ele>106.4</ele><time>2015-04-26T13:30:47.0000000+00:00</time></trkpt><trkpt lat="35.1673065" lon="32.5538854"><ele>106.8</ele><time>2015-04-26T13:30:49.0000000+00:00</time></trkpt><trkpt lat="35.1672917" lon="32.5539458"><ele>107.6</ele><time>2015-04-26T13:30:51.0000000+00:00</time></trkpt><trkpt lat="35.1672897" lon="32.5540148"><ele>107.4</ele><time>2015-04-26T13:30:53.0000000+00:00</time></trkpt><trkpt lat="35.1673002" lon="32.5541016"><ele>107.0</ele><time>2015-04-26T13:30:55.0000000+00:00</time></trkpt><trkpt lat="35.1673017" lon="32.5541824"><ele>107.0</ele><time>2015-04-26T13:30:57.0000000+00:00</time></trkpt><trkpt lat="35.1672635" lon="32.5542414"><ele>107.2</ele><time>2015-04-26T13:30:59.0000000+00:00</time></trkpt><trkpt lat="35.1672011" lon="32.5542535"><ele>107.0</ele><time>2015-04-26T13:31:01.0000000+00:00</time></trkpt><trkpt lat="35.1671352" lon="32.5542325"><ele>106.9</ele><time>2015-04-26T13:31:03.0000000+00:00</time></trkpt><trkpt lat="35.1670736" lon="32.5542021"><ele>107.4</ele><time>2015-04-26T13:31:05.0000000+00:00</time></trkpt><trkpt lat="35.1670134" lon="32.5541805"><ele>107.8</ele><time>2015-04-26T13:31:07.0000000+00:00</time></trkpt><trkpt lat="35.166954" lon="32.554168"><ele>107.9</ele><time>2015-04-26T13:31:09.0000000+00:00</time></trkpt><trkpt lat="35.1669054" lon="32.5541665"><ele>107.9</ele><time>2015-04-26T13:31:11.0000000+00:00</time></trkpt><trkpt lat="35.1668409" lon="32.5541712"><ele>107.9</ele><time>2015-04-26T13:31:14.0000000+00:00</time></trkpt><trkpt lat="35.1667932" lon="32.5541766"><ele>107.9</ele><time>2015-04-26T13:31:16.0000000+00:00</time></trkpt><trkpt lat="35.1667435" lon="32.5541842"><ele>107.9</ele><time>2015-04-26T13:31:18.0000000+00:00</time></trkpt><trkpt lat="35.1666917" lon="32.5541948"><ele>107.2</ele><time>2015-04-26T13:31:20.0000000+00:00</time></trkpt><trkpt lat="35.166639" lon="32.5542032"><ele>107.0</ele><time>2015-04-26T13:31:22.0000000+00:00</time></trkpt><trkpt lat="35.1665881" lon="32.5542111"><ele>106.4</ele><time>2015-04-26T13:31:24.0000000+00:00</time></trkpt><trkpt lat="35.1665381" lon="32.5542218"><ele>106.1</ele><time>2015-04-26T13:31:26.0000000+00:00</time></trkpt><trkpt lat="35.1664894" lon="32.5542437"><ele>106.0</ele><time>2015-04-26T13:31:28.0000000+00:00</time></trkpt><trkpt lat="35.1664453" lon="32.5542643"><ele>106.7</ele><time>2015-04-26T13:31:30.0000000+00:00</time></trkpt><trkpt lat="35.1663907" lon="32.5542958"><ele>106.4</ele><time>2015-04-26T13:31:33.0000000+00:00</time></trkpt><trkpt lat="35.1663411" lon="32.5543258"><ele>106.0</ele><time>2015-04-26T13:31:35.0000000+00:00</time></trkpt><trkpt lat="35.1662916" lon="32.5543582"><ele>106.2</ele><time>2015-04-26T13:31:37.0000000+00:00</time></trkpt><trkpt lat="35.1662435" lon="32.5543897"><ele>106.5</ele><time>2015-04-26T13:31:39.0000000+00:00</time></trkpt><trkpt lat="35.1661999" lon="32.5544286"><ele>107.3</ele><time>2015-04-26T13:31:41.0000000+00:00</time></trkpt><trkpt lat="35.1661652" lon="32.5544865"><ele>107.8</ele><time>2015-04-26T13:31:43.0000000+00:00</time></trkpt><trkpt lat="35.1661366" lon="32.5545573"><ele>108.6</ele><time>2015-04-26T13:31:45.0000000+00:00</time></trkpt><trkpt lat="35.1661169" lon="32.554618"><ele>108.9</ele><time>2015-04-26T13:31:47.0000000+00:00</time></trkpt><trkpt lat="35.166096" lon="32.5546794"><ele>108.9</ele><time>2015-04-26T13:31:49.0000000+00:00</time></trkpt><trkpt lat="35.1660732" lon="32.5547443"><ele>108.7</ele><time>2015-04-26T13:31:51.0000000+00:00</time></trkpt><trkpt lat="35.166048" lon="32.5548098"><ele>108.9</ele><time>2015-04-26T13:31:53.0000000+00:00</time></trkpt><trkpt lat="35.1660187" lon="32.5548698"><ele>108.4</ele><time>2015-04-26T13:31:55.0000000+00:00</time></trkpt><trkpt lat="35.1659755" lon="32.554915"><ele>108.1</ele><time>2015-04-26T13:31:57.0000000+00:00</time></trkpt><trkpt lat="35.1659072" lon="32.5549135"><ele>108.5</ele><time>2015-04-26T13:31:59.0000000+00:00</time></trkpt><trkpt lat="35.1658488" lon="32.5548547"><ele>109.1</ele><time>2015-04-26T13:32:01.0000000+00:00</time></trkpt><trkpt lat="35.1658177" lon="32.5547733"><ele>109.0</ele><time>2015-04-26T13:32:03.0000000+00:00</time></trkpt><trkpt lat="35.1658061" lon="32.5546984"><ele>108.9</ele><time>2015-04-26T13:32:05.0000000+00:00</time></trkpt><trkpt lat="35.1657968" lon="32.5546349"><ele>108.9</ele><time>2015-04-26T13:32:07.0000000+00:00</time></trkpt><trkpt lat="35.1657709" lon="32.5545752"><ele>108.2</ele><time>2015-04-26T13:32:09.0000000+00:00</time></trkpt><trkpt lat="35.165712" lon="32.554522"><ele>108.5</ele><time>2015-04-26T13:32:11.0000000+00:00</time></trkpt><trkpt lat="35.1656473" lon="32.5544975"><ele>109.3</ele><time>2015-04-26T13:32:13.0000000+00:00</time></trkpt><trkpt lat="35.1655954" lon="32.5544988"><ele>110.0</ele><time>2015-04-26T13:32:15.0000000+00:00</time></trkpt><trkpt lat="35.1655346" lon="32.5545071"><ele>109.2</ele><time>2015-04-26T13:32:18.0000000+00:00</time></trkpt><trkpt lat="35.1654808" lon="32.5545436"><ele>109.0</ele><time>2015-04-26T13:32:21.0000000+00:00</time></trkpt><trkpt lat="35.1654241" lon="32.554587"><ele>108.9</ele><time>2015-04-26T13:32:24.0000000+00:00</time></trkpt><trkpt lat="35.16538" lon="32.5546075"><ele>108.9</ele><time>2015-04-26T13:32:25.0000000+00:00</time></trkpt><trkpt lat="35.1653103" lon="32.5546064"><ele>108.9</ele><time>2015-04-26T13:32:27.0000000+00:00</time></trkpt><trkpt lat="35.1652501" lon="32.5545862"><ele>109.4</ele><time>2015-04-26T13:32:29.0000000+00:00</time></trkpt><trkpt lat="35.1651857" lon="32.5545611"><ele>109.1</ele><time>2015-04-26T13:32:32.0000000+00:00</time></trkpt><trkpt lat="35.1651354" lon="32.554552"><ele>109.5</ele><time>2015-04-26T13:32:35.0000000+00:00</time></trkpt><trkpt lat="35.1650808" lon="32.5545537"><ele>109.9</ele><time>2015-04-26T13:32:38.0000000+00:00</time></trkpt><trkpt lat="35.1650299" lon="32.5545581"><ele>109.9</ele><time>2015-04-26T13:32:41.0000000+00:00</time></trkpt><trkpt lat="35.1649782" lon="32.5545599"><ele>109.9</ele><time>2015-04-26T13:32:44.0000000+00:00</time></trkpt><trkpt lat="35.1649176" lon="32.554579"><ele>110.3</ele><time>2015-04-26T13:32:47.0000000+00:00</time></trkpt><trkpt lat="35.1648593" lon="32.5545972"><ele>109.5</ele><time>2015-04-26T13:32:50.0000000+00:00</time></trkpt><trkpt lat="35.1648089" lon="32.5545362"><ele>112.1</ele><time>2015-04-26T13:40:04.0000000+00:00</time></trkpt><trkpt lat="35.1647684" lon="32.5544356"><ele>110.2</ele><time>2015-04-26T13:40:06.0000000+00:00</time></trkpt><trkpt lat="35.1647559" lon="32.5543534"><ele>109.1</ele><time>2015-04-26T13:40:07.0000000+00:00</time></trkpt><trkpt lat="35.1647408" lon="32.5542891"><ele>108.0</ele><time>2015-04-26T13:40:08.0000000+00:00</time></trkpt><trkpt lat="35.1647237" lon="32.5542116"><ele>106.5</ele><time>2015-04-26T13:40:09.0000000+00:00</time></trkpt><trkpt lat="35.1647028" lon="32.5541242"><ele>105.2</ele><time>2015-04-26T13:40:10.0000000+00:00</time></trkpt><trkpt lat="35.1646818" lon="32.5540379"><ele>104.1</ele><time>2015-04-26T13:40:11.0000000+00:00</time></trkpt><trkpt lat="35.1646516" lon="32.5539368"><ele>102.0</ele><time>2015-04-26T13:40:12.0000000+00:00</time></trkpt><trkpt lat="35.1646171" lon="32.5538456"><ele>100.0</ele><time>2015-04-26T13:40:13.0000000+00:00</time></trkpt><trkpt lat="35.1645769" lon="32.5537661"><ele>98.4</ele><time>2015-04-26T13:40:14.0000000+00:00</time></trkpt><trkpt lat="35.1645242" lon="32.55368"><ele>97.2</ele><time>2015-04-26T13:40:15.0000000+00:00</time></trkpt><trkpt lat="35.1644774" lon="32.5535958"><ele>96.1</ele><time>2015-04-26T13:40:16.0000000+00:00</time></trkpt><trkpt lat="35.1644241" lon="32.5535154"><ele>94.5</ele><time>2015-04-26T13:40:17.0000000+00:00</time></trkpt><trkpt lat="35.1643726" lon="32.5534212"><ele>92.7</ele><time>2015-04-26T13:40:18.0000000+00:00</time></trkpt><trkpt lat="35.1643251" lon="32.5533318"><ele>91.3</ele><time>2015-04-26T13:40:19.0000000+00:00</time></trkpt><trkpt lat="35.1642787" lon="32.5532292"><ele>90.1</ele><time>2015-04-26T13:40:20.0000000+00:00</time></trkpt><trkpt lat="35.1642345" lon="32.5531287"><ele>88.5</ele><time>2015-04-26T13:40:21.0000000+00:00</time></trkpt><trkpt lat="35.1641985" lon="32.55304"><ele>87.2</ele><time>2015-04-26T13:40:22.0000000+00:00</time></trkpt><trkpt lat="35.1641592" lon="32.5529724"><ele>86.1</ele><time>2015-04-26T13:40:23.0000000+00:00</time></trkpt><trkpt lat="35.1641195" lon="32.5529297"><ele>85.0</ele><time>2015-04-26T13:40:24.0000000+00:00</time></trkpt><trkpt lat="35.1640756" lon="32.5529024"><ele>84.0</ele><time>2015-04-26T13:40:25.0000000+00:00</time></trkpt><trkpt lat="35.1640256" lon="32.5528979"><ele>82.9</ele><time>2015-04-26T13:40:26.0000000+00:00</time></trkpt><trkpt lat="35.1639713" lon="32.5529024"><ele>82.4</ele><time>2015-04-26T13:40:27.0000000+00:00</time></trkpt><trkpt lat="35.1639233" lon="32.5529086"><ele>81.7</ele><time>2015-04-26T13:40:28.0000000+00:00</time></trkpt><trkpt lat="35.1638711" lon="32.552911"><ele>81.3</ele><time>2015-04-26T13:40:29.0000000+00:00</time></trkpt><trkpt lat="35.1638272" lon="32.5529244"><ele>81.1</ele><time>2015-04-26T13:40:30.0000000+00:00</time></trkpt><trkpt lat="35.1637482" lon="32.5529309"><ele>81.0</ele><time>2015-04-26T13:40:32.0000000+00:00</time></trkpt><trkpt lat="35.163685" lon="32.5529423"><ele>80.9</ele><time>2015-04-26T13:40:34.0000000+00:00</time></trkpt><trkpt lat="35.163635" lon="32.5529506"><ele>79.7</ele><time>2015-04-26T13:40:36.0000000+00:00</time></trkpt><trkpt lat="35.1635654" lon="32.552968"><ele>79.1</ele><time>2015-04-26T13:40:38.0000000+00:00</time></trkpt><trkpt lat="35.1634908" lon="32.5529868"><ele>78.7</ele><time>2015-04-26T13:40:40.0000000+00:00</time></trkpt><trkpt lat="35.1634157" lon="32.5530012"><ele>78.1</ele><time>2015-04-26T13:40:42.0000000+00:00</time></trkpt><trkpt lat="35.1633365" lon="32.5530032"><ele>77.5</ele><time>2015-04-26T13:40:44.0000000+00:00</time></trkpt><trkpt lat="35.1632472" lon="32.5529997"><ele>76.8</ele><time>2015-04-26T13:40:46.0000000+00:00</time></trkpt><trkpt lat="35.1632018" lon="32.5529984"><ele>76.4</ele><time>2015-04-26T13:40:47.0000000+00:00</time></trkpt><trkpt lat="35.1631354" lon="32.5529945"><ele>76.2</ele><time>2015-04-26T13:40:48.0000000+00:00</time></trkpt><trkpt lat="35.1630743" lon="32.552992"><ele>76.0</ele><time>2015-04-26T13:40:49.0000000+00:00</time></trkpt><trkpt lat="35.1630219" lon="32.5529934"><ele>76.0</ele><time>2015-04-26T13:40:50.0000000+00:00</time></trkpt><trkpt lat="35.1629402" lon="32.5529996"><ele>75.9</ele><time>2015-04-26T13:40:52.0000000+00:00</time></trkpt><trkpt lat="35.1628656" lon="32.5529656"><ele>75.4</ele><time>2015-04-26T13:40:54.0000000+00:00</time></trkpt><trkpt lat="35.1628146" lon="32.5528832"><ele>74.6</ele><time>2015-04-26T13:40:56.0000000+00:00</time></trkpt><trkpt lat="35.1628005" lon="32.5528256"><ele>73.7</ele><time>2015-04-26T13:40:57.0000000+00:00</time></trkpt><trkpt lat="35.1627992" lon="32.5527605"><ele>73.3</ele><time>2015-04-26T13:40:58.0000000+00:00</time></trkpt><trkpt lat="35.1627968" lon="32.5526879"><ele>72.6</ele><time>2015-04-26T13:40:59.0000000+00:00</time></trkpt><trkpt lat="35.1627973" lon="32.5526132"><ele>72.3</ele><time>2015-04-26T13:41:00.0000000+00:00</time></trkpt><trkpt lat="35.1627978" lon="32.5525417"><ele>71.6</ele><time>2015-04-26T13:41:01.0000000+00:00</time></trkpt><trkpt lat="35.162797" lon="32.5524618"><ele>71.3</ele><time>2015-04-26T13:41:02.0000000+00:00</time></trkpt><trkpt lat="35.1627906" lon="32.5523917"><ele>70.6</ele><time>2015-04-26T13:41:03.0000000+00:00</time></trkpt><trkpt lat="35.1627799" lon="32.5523227"><ele>69.8</ele><time>2015-04-26T13:41:04.0000000+00:00</time></trkpt><trkpt lat="35.1627769" lon="32.5522541"><ele>68.8</ele><time>2015-04-26T13:41:05.0000000+00:00</time></trkpt><trkpt lat="35.1627888" lon="32.5521928"><ele>68.4</ele><time>2015-04-26T13:41:06.0000000+00:00</time></trkpt><trkpt lat="35.1628163" lon="32.5521362"><ele>68.2</ele><time>2015-04-26T13:41:07.0000000+00:00</time></trkpt><trkpt lat="35.1628582" lon="32.5520974"><ele>68.0</ele><time>2015-04-26T13:41:08.0000000+00:00</time></trkpt><trkpt lat="35.1628976" lon="32.5520552"><ele>68.0</ele><time>2015-04-26T13:41:09.0000000+00:00</time></trkpt><trkpt lat="35.1629456" lon="32.5520305"><ele>68.0</ele><time>2015-04-26T13:41:10.0000000+00:00</time></trkpt><trkpt lat="35.1629793" lon="32.5519907"><ele>67.9</ele><time>2015-04-26T13:41:11.0000000+00:00</time></trkpt><trkpt lat="35.1630055" lon="32.5519331"><ele>67.9</ele><time>2015-04-26T13:41:12.0000000+00:00</time></trkpt><trkpt lat="35.1630269" lon="32.5518704"><ele>67.4</ele><time>2015-04-26T13:41:13.0000000+00:00</time></trkpt><trkpt lat="35.1630303" lon="32.5518001"><ele>66.7</ele><time>2015-04-26T13:41:14.0000000+00:00</time></trkpt><trkpt lat="35.1630378" lon="32.551728"><ele>65.8</ele><time>2015-04-26T13:41:15.0000000+00:00</time></trkpt><trkpt lat="35.1630627" lon="32.5516552"><ele>65.4</ele><time>2015-04-26T13:41:16.0000000+00:00</time></trkpt><trkpt lat="35.1630921" lon="32.5515946"><ele>65.1</ele><time>2015-04-26T13:41:17.0000000+00:00</time></trkpt><trkpt lat="35.1631712" lon="32.551573"><ele>65.0</ele><time>2015-04-26T13:41:19.0000000+00:00</time></trkpt><trkpt lat="35.1632175" lon="32.5515794"><ele>65.0</ele><time>2015-04-26T13:41:20.0000000+00:00</time></trkpt><trkpt lat="35.1632621" lon="32.5515872"><ele>64.9</ele><time>2015-04-26T13:41:21.0000000+00:00</time></trkpt><trkpt lat="35.1633478" lon="32.5515933"><ele>64.9</ele><time>2015-04-26T13:41:23.0000000+00:00</time></trkpt><trkpt lat="35.163423" lon="32.5515766"><ele>64.4</ele><time>2015-04-26T13:41:25.0000000+00:00</time></trkpt><trkpt lat="35.1634596" lon="32.5514802"><ele>63.6</ele><time>2015-04-26T13:41:27.0000000+00:00</time></trkpt><trkpt lat="35.1634762" lon="32.5514195"><ele>63.2</ele><time>2015-04-26T13:41:28.0000000+00:00</time></trkpt><trkpt lat="35.1634917" lon="32.5513445"><ele>62.6</ele><time>2015-04-26T13:41:29.0000000+00:00</time></trkpt><trkpt lat="35.1635056" lon="32.5512542"><ele>61.8</ele><time>2015-04-26T13:41:30.0000000+00:00</time></trkpt><trkpt lat="35.1635133" lon="32.551162"><ele>60.8</ele><time>2015-04-26T13:41:31.0000000+00:00</time></trkpt><trkpt lat="35.163528" lon="32.5510684"><ele>59.9</ele><time>2015-04-26T13:41:32.0000000+00:00</time></trkpt><trkpt lat="35.1635431" lon="32.5509803"><ele>58.9</ele><time>2015-04-26T13:41:33.0000000+00:00</time></trkpt><trkpt lat="35.1635568" lon="32.5508817"><ele>57.4</ele><time>2015-04-26T13:41:34.0000000+00:00</time></trkpt><trkpt lat="35.1635695" lon="32.5507883"><ele>56.2</ele><time>2015-04-26T13:41:35.0000000+00:00</time></trkpt><trkpt lat="35.1635798" lon="32.5507033"><ele>55.1</ele><time>2015-04-26T13:41:36.0000000+00:00</time></trkpt><trkpt lat="35.1635921" lon="32.5506163"><ele>54.0</ele><time>2015-04-26T13:41:37.0000000+00:00</time></trkpt><trkpt lat="35.1636014" lon="32.5505524"><ele>53.0</ele><time>2015-04-26T13:41:38.0000000+00:00</time></trkpt><trkpt lat="35.163611" lon="32.5504938"><ele>52.4</ele><time>2015-04-26T13:41:39.0000000+00:00</time></trkpt><trkpt lat="35.1636204" lon="32.5504304"><ele>51.7</ele><time>2015-04-26T13:41:40.0000000+00:00</time></trkpt><trkpt lat="35.1636301" lon="32.5503613"><ele>51.3</ele><time>2015-04-26T13:41:41.0000000+00:00</time></trkpt><trkpt lat="35.1636356" lon="32.5502706"><ele>50.1</ele><time>2015-04-26T13:41:42.0000000+00:00</time></trkpt><trkpt lat="35.1636417" lon="32.5501924"><ele>49.5</ele><time>2015-04-26T13:41:43.0000000+00:00</time></trkpt><trkpt lat="35.1636316" lon="32.5500965"><ele>49.2</ele><time>2015-04-26T13:41:44.0000000+00:00</time></trkpt><trkpt lat="35.1636259" lon="32.5500053"><ele>48.6</ele><time>2015-04-26T13:41:45.0000000+00:00</time></trkpt><trkpt lat="35.1636027" lon="32.5498757"><ele>46.3</ele><time>2015-04-26T13:41:46.0000000+00:00</time></trkpt><trkpt lat="35.1635761" lon="32.5497559"><ele>44.1</ele><time>2015-04-26T13:41:47.0000000+00:00</time></trkpt><trkpt lat="35.1635453" lon="32.5496267"><ele>42.0</ele><time>2015-04-26T13:41:48.0000000+00:00</time></trkpt><trkpt lat="35.1635066" lon="32.5494918"><ele>40.5</ele><time>2015-04-26T13:41:49.0000000+00:00</time></trkpt><trkpt lat="35.1634709" lon="32.5493606"><ele>38.7</ele><time>2015-04-26T13:41:50.0000000+00:00</time></trkpt><trkpt lat="35.1634375" lon="32.5492307"><ele>36.8</ele><time>2015-04-26T13:41:51.0000000+00:00</time></trkpt><trkpt lat="35.1634179" lon="32.5491427"><ele>35.4</ele><time>2015-04-26T13:41:52.0000000+00:00</time></trkpt><trkpt lat="35.1634046" lon="32.5490548"><ele>34.2</ele><time>2015-04-26T13:41:53.0000000+00:00</time></trkpt><trkpt lat="35.1633998" lon="32.5489787"><ele>33.0</ele><time>2015-04-26T13:41:54.0000000+00:00</time></trkpt><trkpt lat="35.1633871" lon="32.5489035"><ele>32.5</ele><time>2015-04-26T13:41:55.0000000+00:00</time></trkpt><trkpt lat="35.1633663" lon="32.5488279"><ele>31.7</ele><time>2015-04-26T13:41:56.0000000+00:00</time></trkpt><trkpt lat="35.1633347" lon="32.5487461"><ele>31.3</ele><time>2015-04-26T13:41:57.0000000+00:00</time></trkpt><trkpt lat="35.1633072" lon="32.5486645"><ele>30.1</ele><time>2015-04-26T13:41:58.0000000+00:00</time></trkpt><trkpt lat="35.1632828" lon="32.5485827"><ele>30.0</ele><time>2015-04-26T13:41:59.0000000+00:00</time></trkpt><trkpt lat="35.163277" lon="32.5485047"><ele>30.0</ele><time>2015-04-26T13:42:00.0000000+00:00</time></trkpt><trkpt lat="35.16328" lon="32.5484271"><ele>30.0</ele><time>2015-04-26T13:42:01.0000000+00:00</time></trkpt><trkpt lat="35.1632781" lon="32.5483611"><ele>30.9</ele><time>2015-04-26T13:42:02.0000000+00:00</time></trkpt><trkpt lat="35.1632786" lon="32.5483023"><ele>31.4</ele><time>2015-04-26T13:42:03.0000000+00:00</time></trkpt><trkpt lat="35.1632745" lon="32.5482424"><ele>31.2</ele><time>2015-04-26T13:42:04.0000000+00:00</time></trkpt><trkpt lat="35.163269" lon="32.548183"><ele>31.1</ele><time>2015-04-26T13:42:05.0000000+00:00</time></trkpt><trkpt lat="35.1632715" lon="32.5481177"><ele>31.0</ele><time>2015-04-26T13:42:06.0000000+00:00</time></trkpt><trkpt lat="35.1632827" lon="32.5480598"><ele>31.0</ele><time>2015-04-26T13:42:07.0000000+00:00</time></trkpt><trkpt lat="35.1633078" lon="32.54801"><ele>30.9</ele><time>2015-04-26T13:42:08.0000000+00:00</time></trkpt><trkpt lat="35.1633766" lon="32.5479414"><ele>30.4</ele><time>2015-04-26T13:42:10.0000000+00:00</time></trkpt><trkpt lat="35.163415" lon="32.5479116"><ele>30.2</ele><time>2015-04-26T13:42:11.0000000+00:00</time></trkpt><trkpt lat="35.1634817" lon="32.547861"><ele>29.2</ele><time>2015-04-26T13:42:13.0000000+00:00</time></trkpt><trkpt lat="35.1635294" lon="32.5478369"><ele>29.1</ele><time>2015-04-26T13:42:14.0000000+00:00</time></trkpt><trkpt lat="35.1635786" lon="32.5478121"><ele>28.5</ele><time>2015-04-26T13:42:15.0000000+00:00</time></trkpt><trkpt lat="35.1636298" lon="32.5477817"><ele>28.2</ele><time>2015-04-26T13:42:16.0000000+00:00</time></trkpt><trkpt lat="35.1636798" lon="32.5477478"><ele>28.1</ele><time>2015-04-26T13:42:17.0000000+00:00</time></trkpt><trkpt lat="35.1637355" lon="32.5477254"><ele>28.5</ele><time>2015-04-26T13:42:18.0000000+00:00</time></trkpt><trkpt lat="35.163788" lon="32.5476978"><ele>28.7</ele><time>2015-04-26T13:42:19.0000000+00:00</time></trkpt><trkpt lat="35.1638395" lon="32.5476621"><ele>28.8</ele><time>2015-04-26T13:42:20.0000000+00:00</time></trkpt><trkpt lat="35.1638908" lon="32.5476282"><ele>28.9</ele><time>2015-04-26T13:42:21.0000000+00:00</time></trkpt><trkpt lat="35.1639459" lon="32.5475859"><ele>28.4</ele><time>2015-04-26T13:42:22.0000000+00:00</time></trkpt><trkpt lat="35.1639938" lon="32.54756"><ele>28.2</ele><time>2015-04-26T13:42:23.0000000+00:00</time></trkpt><trkpt lat="35.1640399" lon="32.5475267"><ele>28.0</ele><time>2015-04-26T13:42:24.0000000+00:00</time></trkpt><trkpt lat="35.1640888" lon="32.5474884"><ele>27.5</ele><time>2015-04-26T13:42:25.0000000+00:00</time></trkpt><trkpt lat="35.1641452" lon="32.5474437"><ele>26.7</ele><time>2015-04-26T13:42:26.0000000+00:00</time></trkpt><trkpt lat="35.1642072" lon="32.547405"><ele>26.8</ele><time>2015-04-26T13:42:27.0000000+00:00</time></trkpt><trkpt lat="35.1642692" lon="32.5473561"><ele>25.9</ele><time>2015-04-26T13:42:28.0000000+00:00</time></trkpt><trkpt lat="35.1643291" lon="32.5473079"><ele>25.4</ele><time>2015-04-26T13:42:29.0000000+00:00</time></trkpt><trkpt lat="35.1643871" lon="32.5472557"><ele>25.2</ele><time>2015-04-26T13:42:30.0000000+00:00</time></trkpt><trkpt lat="35.1644426" lon="32.5472017"><ele>25.0</ele><time>2015-04-26T13:42:31.0000000+00:00</time></trkpt><trkpt lat="35.1644937" lon="32.547144"><ele>25.5</ele><time>2015-04-26T13:42:32.0000000+00:00</time></trkpt><trkpt lat="35.1645265" lon="32.5470912"><ele>25.7</ele><time>2015-04-26T13:42:33.0000000+00:00</time></trkpt><trkpt lat="35.1645627" lon="32.5470405"><ele>25.3</ele><time>2015-04-26T13:42:34.0000000+00:00</time></trkpt><trkpt lat="35.1645581" lon="32.5469768"><ele>24.5</ele><time>2015-04-26T13:42:36.0000000+00:00</time></trkpt><trkpt lat="35.1645491" lon="32.5469058"><ele>24.1</ele><time>2015-04-26T13:42:38.0000000+00:00</time></trkpt><trkpt lat="35.1644939" lon="32.5468796"><ele>23.9</ele><time>2015-04-26T13:42:41.0000000+00:00</time></trkpt><trkpt lat="35.1644264" lon="32.5468752"><ele>23.1</ele><time>2015-04-26T13:42:44.0000000+00:00</time></trkpt><trkpt lat="35.1643778" lon="32.5468639"><ele>23.5</ele><time>2015-04-26T13:42:46.0000000+00:00</time></trkpt><trkpt lat="35.1643272" lon="32.5468585"><ele>23.1</ele><time>2015-04-26T13:42:48.0000000+00:00</time></trkpt><trkpt lat="35.164261" lon="32.5468708"><ele>23.0</ele><time>2015-04-26T13:42:50.0000000+00:00</time></trkpt><trkpt lat="35.1641919" lon="32.546871"><ele>22.7</ele><time>2015-04-26T13:42:52.0000000+00:00</time></trkpt><trkpt lat="35.1641201" lon="32.5468732"><ele>22.9</ele><time>2015-04-26T13:42:54.0000000+00:00</time></trkpt><trkpt lat="35.1640494" lon="32.5468707"><ele>22.9</ele><time>2015-04-26T13:42:56.0000000+00:00</time></trkpt><trkpt lat="35.1639756" lon="32.5468698"><ele>22.9</ele><time>2015-04-26T13:42:58.0000000+00:00</time></trkpt><trkpt lat="35.1639025" lon="32.5468666"><ele>22.9</ele><time>2015-04-26T13:43:00.0000000+00:00</time></trkpt><trkpt lat="35.1638295" lon="32.5468627"><ele>23.4</ele><time>2015-04-26T13:43:02.0000000+00:00</time></trkpt><trkpt lat="35.1637582" lon="32.546857"><ele>23.8</ele><time>2015-04-26T13:43:04.0000000+00:00</time></trkpt><trkpt lat="35.1636893" lon="32.5468513"><ele>23.9</ele><time>2015-04-26T13:43:06.0000000+00:00</time></trkpt><trkpt lat="35.1636329" lon="32.5468484"><ele>23.9</ele><time>2015-04-26T13:43:08.0000000+00:00</time></trkpt><trkpt lat="35.1635768" lon="32.5468472"><ele>24.7</ele><time>2015-04-26T13:43:10.0000000+00:00</time></trkpt><trkpt lat="35.1635241" lon="32.5468464"><ele>24.9</ele><time>2015-04-26T13:43:12.0000000+00:00</time></trkpt><trkpt lat="35.1634601" lon="32.5468444"><ele>24.9</ele><time>2015-04-26T13:43:15.0000000+00:00</time></trkpt><trkpt lat="35.1633971" lon="32.5468403"><ele>24.9</ele><time>2015-04-26T13:43:18.0000000+00:00</time></trkpt><trkpt lat="35.1633335" lon="32.5468456"><ele>25.7</ele><time>2015-04-26T13:43:21.0000000+00:00</time></trkpt><trkpt lat="35.1632878" lon="32.5468383"><ele>25.9</ele><time>2015-04-26T13:43:23.0000000+00:00</time></trkpt><trkpt lat="35.1632329" lon="32.5468365"><ele>25.2</ele><time>2015-04-26T13:43:25.0000000+00:00</time></trkpt><trkpt lat="35.1631691" lon="32.5468395"><ele>24.2</ele><time>2015-04-26T13:43:27.0000000+00:00</time></trkpt><trkpt lat="35.1631051" lon="32.5468392"><ele>24.0</ele><time>2015-04-26T13:43:29.0000000+00:00</time></trkpt><trkpt lat="35.1630449" lon="32.546837"><ele>24.2</ele><time>2015-04-26T13:43:31.0000000+00:00</time></trkpt><trkpt lat="35.162994" lon="32.5468332"><ele>24.5</ele><time>2015-04-26T13:43:33.0000000+00:00</time></trkpt><trkpt lat="35.1629289" lon="32.5468292"><ele>24.9</ele><time>2015-04-26T13:43:36.0000000+00:00</time></trkpt><trkpt lat="35.1628675" lon="32.5468242"><ele>24.0</ele><time>2015-04-26T13:43:39.0000000+00:00</time></trkpt><trkpt lat="35.1628104" lon="32.5468174"><ele>23.9</ele><time>2015-04-26T13:43:42.0000000+00:00</time></trkpt><trkpt lat="35.1627466" lon="32.546817"><ele>24.8</ele><time>2015-04-26T13:43:45.0000000+00:00</time></trkpt><trkpt lat="35.162689" lon="32.546812"><ele>24.4</ele><time>2015-04-26T13:43:47.0000000+00:00</time></trkpt><trkpt lat="35.1626332" lon="32.5468105"><ele>24.5</ele><time>2015-04-26T13:43:49.0000000+00:00</time></trkpt><trkpt lat="35.1625815" lon="32.5468162"><ele>24.8</ele><time>2015-04-26T13:43:51.0000000+00:00</time></trkpt><trkpt lat="35.1625353" lon="32.5468319"><ele>24.9</ele><time>2015-04-26T13:43:53.0000000+00:00</time></trkpt><trkpt lat="35.1624863" lon="32.5468297"><ele>25.3</ele><time>2015-04-26T13:43:56.0000000+00:00</time></trkpt><trkpt lat="35.162426" lon="32.5468267"><ele>25.6</ele><time>2015-04-26T13:43:59.0000000+00:00</time></trkpt><trkpt lat="35.1623677" lon="32.5468362"><ele>25.8</ele><time>2015-04-26T13:44:01.0000000+00:00</time></trkpt><trkpt lat="35.1623059" lon="32.5468231"><ele>25.9</ele><time>2015-04-26T13:44:03.0000000+00:00</time></trkpt><trkpt lat="35.1622463" lon="32.5468099"><ele>25.9</ele><time>2015-04-26T13:44:05.0000000+00:00</time></trkpt><trkpt lat="35.1621908" lon="32.5468065"><ele>25.9</ele><time>2015-04-26T13:44:07.0000000+00:00</time></trkpt><trkpt lat="35.1621321" lon="32.5467958"><ele>25.9</ele><time>2015-04-26T13:44:10.0000000+00:00</time></trkpt><trkpt lat="35.1620778" lon="32.5467766"><ele>25.4</ele><time>2015-04-26T13:44:13.0000000+00:00</time></trkpt><trkpt lat="35.1620177" lon="32.5467585"><ele>25.7</ele><time>2015-04-26T13:44:16.0000000+00:00</time></trkpt><trkpt lat="35.1619723" lon="32.546738"><ele>25.1</ele><time>2015-04-26T13:44:18.0000000+00:00</time></trkpt><trkpt lat="35.1619275" lon="32.5467223"><ele>25.0</ele><time>2015-04-26T13:44:20.0000000+00:00</time></trkpt><trkpt lat="35.1618635" lon="32.5466926"><ele>24.2</ele><time>2015-04-26T13:44:23.0000000+00:00</time></trkpt><trkpt lat="35.1618132" lon="32.5466638"><ele>24.5</ele><time>2015-04-26T13:44:25.0000000+00:00</time></trkpt><trkpt lat="35.1617596" lon="32.546637"><ele>26.1</ele><time>2015-04-26T13:44:27.0000000+00:00</time></trkpt><trkpt lat="35.1617108" lon="32.5466078"><ele>26.2</ele><time>2015-04-26T13:44:29.0000000+00:00</time></trkpt><trkpt lat="35.161663" lon="32.5465843"><ele>26.8</ele><time>2015-04-26T13:44:31.0000000+00:00</time></trkpt><trkpt lat="35.161623" lon="32.5465528"><ele>26.9</ele><time>2015-04-26T13:44:33.0000000+00:00</time></trkpt><trkpt lat="35.1615869" lon="32.5465178"><ele>27.4</ele><time>2015-04-26T13:44:35.0000000+00:00</time></trkpt><trkpt lat="35.1615465" lon="32.5464832"><ele>27.8</ele><time>2015-04-26T13:44:37.0000000+00:00</time></trkpt><trkpt lat="35.1614959" lon="32.5464377"><ele>28.4</ele><time>2015-04-26T13:44:39.0000000+00:00</time></trkpt><trkpt lat="35.1614431" lon="32.546388"><ele>29.3</ele><time>2015-04-26T13:44:41.0000000+00:00</time></trkpt><trkpt lat="35.1613998" lon="32.5463408"><ele>29.8</ele><time>2015-04-26T13:44:43.0000000+00:00</time></trkpt><trkpt lat="35.1613621" lon="32.546292"><ele>29.9</ele><time>2015-04-26T13:44:45.0000000+00:00</time></trkpt><trkpt lat="35.1613305" lon="32.5462365"><ele>29.9</ele><time>2015-04-26T13:44:47.0000000+00:00</time></trkpt><trkpt lat="35.16131" lon="32.5461776"><ele>29.2</ele><time>2015-04-26T13:44:49.0000000+00:00</time></trkpt><trkpt lat="35.1612788" lon="32.5461264"><ele>28.0</ele><time>2015-04-26T13:44:54.0000000+00:00</time></trkpt><trkpt lat="35.1612367" lon="32.5460869"><ele>27.9</ele><time>2015-04-26T13:44:56.0000000+00:00</time></trkpt><trkpt lat="35.1612046" lon="32.5460252"><ele>28.4</ele><time>2015-04-26T13:44:58.0000000+00:00</time></trkpt><trkpt lat="35.161203" lon="32.5459682"><ele>28.8</ele><time>2015-04-26T13:45:00.0000000+00:00</time></trkpt><trkpt lat="35.1612324" lon="32.5459263"><ele>29.4</ele><time>2015-04-26T13:45:02.0000000+00:00</time></trkpt><trkpt lat="35.1612598" lon="32.5458577"><ele>29.9</ele><time>2015-04-26T13:45:05.0000000+00:00</time></trkpt><trkpt lat="35.1612473" lon="32.5458042"><ele>29.7</ele><time>2015-04-26T13:45:07.0000000+00:00</time></trkpt><trkpt lat="35.161231" lon="32.5457292"><ele>29.6</ele><time>2015-04-26T13:45:10.0000000+00:00</time></trkpt><trkpt lat="35.1612106" lon="32.5456564"><ele>29.4</ele><time>2015-04-26T13:45:13.0000000+00:00</time></trkpt><trkpt lat="35.1611867" lon="32.5455794"><ele>29.4</ele><time>2015-04-26T13:45:16.0000000+00:00</time></trkpt><trkpt lat="35.1611624" lon="32.5455032"><ele>29.9</ele><time>2015-04-26T13:45:19.0000000+00:00</time></trkpt><trkpt lat="35.1611315" lon="32.5454383"><ele>29.8</ele><time>2015-04-26T13:45:22.0000000+00:00</time></trkpt><trkpt lat="35.1611066" lon="32.5453874"><ele>30.7</ele><time>2015-04-26T13:45:25.0000000+00:00</time></trkpt><trkpt lat="35.1610725" lon="32.5453299"><ele>30.9</ele><time>2015-04-26T13:45:28.0000000+00:00</time></trkpt><trkpt lat="35.1610312" lon="32.5452746"><ele>32.6</ele><time>2015-04-26T13:45:31.0000000+00:00</time></trkpt><trkpt lat="35.1609872" lon="32.5452388"><ele>32.4</ele><time>2015-04-26T13:45:35.0000000+00:00</time></trkpt><trkpt lat="35.1609431" lon="32.5452039"><ele>32.5</ele><time>2015-04-26T13:45:38.0000000+00:00</time></trkpt><trkpt lat="35.1608953" lon="32.545167"><ele>32.2</ele><time>2015-04-26T13:45:41.0000000+00:00</time></trkpt><trkpt lat="35.1608377" lon="32.5451385"><ele>32.7</ele><time>2015-04-26T13:45:44.0000000+00:00</time></trkpt><trkpt lat="35.1607948" lon="32.5451219"><ele>32.9</ele><time>2015-04-26T13:45:46.0000000+00:00</time></trkpt><trkpt lat="35.1607324" lon="32.5450996"><ele>32.9</ele><time>2015-04-26T13:45:49.0000000+00:00</time></trkpt><trkpt lat="35.1606892" lon="32.5450801"><ele>33.4</ele><time>2015-04-26T13:45:51.0000000+00:00</time></trkpt><trkpt lat="35.1606448" lon="32.5450627"><ele>33.7</ele><time>2015-04-26T13:45:53.0000000+00:00</time></trkpt><trkpt lat="35.1605832" lon="32.545035"><ele>33.9</ele><time>2015-04-26T13:45:56.0000000+00:00</time></trkpt><trkpt lat="35.1605265" lon="32.5450118"><ele>33.9</ele><time>2015-04-26T13:45:59.0000000+00:00</time></trkpt><trkpt lat="35.1604854" lon="32.544986"><ele>33.7</ele><time>2015-04-26T13:46:01.0000000+00:00</time></trkpt><trkpt lat="35.1604389" lon="32.5449678"><ele>33.4</ele><time>2015-04-26T13:46:03.0000000+00:00</time></trkpt><trkpt lat="35.1603909" lon="32.5449532"><ele>32.5</ele><time>2015-04-26T13:46:05.0000000+00:00</time></trkpt><trkpt lat="35.1603461" lon="32.5449281"><ele>31.6</ele><time>2015-04-26T13:46:07.0000000+00:00</time></trkpt><trkpt lat="35.1603009" lon="32.5449046"><ele>31.1</ele><time>2015-04-26T13:46:09.0000000+00:00</time></trkpt><trkpt lat="35.160253" lon="32.5448855"><ele>31.0</ele><time>2015-04-26T13:46:11.0000000+00:00</time></trkpt><trkpt lat="35.1602067" lon="32.5448657"><ele>30.9</ele><time>2015-04-26T13:46:13.0000000+00:00</time></trkpt><trkpt lat="35.1601655" lon="32.5448406"><ele>31.7</ele><time>2015-04-26T13:46:15.0000000+00:00</time></trkpt><trkpt lat="35.1601509" lon="32.5448933"><ele>29.9</ele><time>2015-04-26T13:46:28.0000000+00:00</time></trkpt><trkpt lat="35.160143" lon="32.5449659"><ele>29.9</ele><time>2015-04-26T13:46:43.0000000+00:00</time></trkpt><trkpt lat="35.1601732" lon="32.5450293"><ele>31.2</ele><time>2015-04-26T13:46:45.0000000+00:00</time></trkpt><trkpt lat="35.160187" lon="32.5450865"><ele>32.0</ele><time>2015-04-26T13:46:47.0000000+00:00</time></trkpt><trkpt lat="35.1602042" lon="32.5451373"><ele>33.0</ele><time>2015-04-26T13:46:49.0000000+00:00</time></trkpt><trkpt lat="35.160226" lon="32.5451879"><ele>33.9</ele><time>2015-04-26T13:46:51.0000000+00:00</time></trkpt><trkpt lat="35.1602441" lon="32.5452478"><ele>34.9</ele><time>2015-04-26T13:46:53.0000000+00:00</time></trkpt><trkpt lat="35.1602641" lon="32.545311"><ele>34.9</ele><time>2015-04-26T13:46:55.0000000+00:00</time></trkpt><trkpt lat="35.1602835" lon="32.5453723"><ele>35.4</ele><time>2015-04-26T13:46:57.0000000+00:00</time></trkpt><trkpt lat="35.1603003" lon="32.5454324"><ele>35.3</ele><time>2015-04-26T13:46:59.0000000+00:00</time></trkpt><trkpt lat="35.1603158" lon="32.5454927"><ele>35.8</ele><time>2015-04-26T13:47:01.0000000+00:00</time></trkpt><trkpt lat="35.1603313" lon="32.5455535"><ele>35.9</ele><time>2015-04-26T13:47:03.0000000+00:00</time></trkpt><trkpt lat="35.1603488" lon="32.5456127"><ele>35.9</ele><time>2015-04-26T13:47:05.0000000+00:00</time></trkpt><trkpt lat="35.1603684" lon="32.5456722"><ele>35.2</ele><time>2015-04-26T13:47:09.0000000+00:00</time></trkpt><trkpt lat="35.1603914" lon="32.545729"><ele>34.9</ele><time>2015-04-26T13:47:15.0000000+00:00</time></trkpt><trkpt lat="35.1604134" lon="32.5457825"><ele>35.8</ele><time>2015-04-26T13:47:20.0000000+00:00</time></trkpt><trkpt lat="35.1604672" lon="32.5457641"><ele>35.4</ele><time>2015-04-26T13:47:23.0000000+00:00</time></trkpt><trkpt lat="35.1605172" lon="32.5457387"><ele>35.6</ele><time>2015-04-26T13:47:25.0000000+00:00</time></trkpt><trkpt lat="35.1605655" lon="32.5457118"><ele>36.8</ele><time>2015-04-26T13:47:27.0000000+00:00</time></trkpt><trkpt lat="35.1606168" lon="32.5456905"><ele>37.4</ele><time>2015-04-26T13:47:30.0000000+00:00</time></trkpt><trkpt lat="35.1606599" lon="32.5457094"><ele>36.7</ele><time>2015-04-26T13:47:33.0000000+00:00</time></trkpt><trkpt lat="35.1606954" lon="32.5456648"><ele>34.4</ele><time>2015-04-26T13:47:37.0000000+00:00</time></trkpt><trkpt lat="35.1606536" lon="32.5456913"><ele>35.4</ele><time>2015-04-26T13:47:46.0000000+00:00</time></trkpt><trkpt lat="35.1605894" lon="32.5457018"><ele>35.8</ele><time>2015-04-26T13:47:50.0000000+00:00</time></trkpt><trkpt lat="35.1605462" lon="32.5457223"><ele>35.1</ele><time>2015-04-26T13:47:52.0000000+00:00</time></trkpt><trkpt lat="35.1604871" lon="32.5457316"><ele>34.1</ele><time>2015-04-26T13:47:55.0000000+00:00</time></trkpt><trkpt lat="35.160425" lon="32.5457376"><ele>32.8</ele><time>2015-04-26T13:47:58.0000000+00:00</time></trkpt><trkpt lat="35.1603779" lon="32.5457247"><ele>32.7</ele><time>2015-04-26T13:48:01.0000000+00:00</time></trkpt><trkpt lat="35.1603567" lon="32.5456499"><ele>33.1</ele><time>2015-04-26T13:48:04.0000000+00:00</time></trkpt><trkpt lat="35.1603475" lon="32.5455784"><ele>31.7</ele><time>2015-04-26T13:48:06.0000000+00:00</time></trkpt><trkpt lat="35.1603341" lon="32.5455031"><ele>29.4</ele><time>2015-04-26T13:48:08.0000000+00:00</time></trkpt><trkpt lat="35.1603161" lon="32.5454246"><ele>27.3</ele><time>2015-04-26T13:48:10.0000000+00:00</time></trkpt><trkpt lat="35.1602967" lon="32.545343"><ele>27.0</ele><time>2015-04-26T13:48:12.0000000+00:00</time></trkpt><trkpt lat="35.1602687" lon="32.5452624"><ele>27.2</ele><time>2015-04-26T13:48:14.0000000+00:00</time></trkpt><trkpt lat="35.1602383" lon="32.5451807"><ele>27.5</ele><time>2015-04-26T13:48:16.0000000+00:00</time></trkpt><trkpt lat="35.1602018" lon="32.5450954"><ele>28.6</ele><time>2015-04-26T13:48:18.0000000+00:00</time></trkpt><trkpt lat="35.1601441" lon="32.5449769"><ele>30.8</ele><time>2015-04-26T13:48:20.0000000+00:00</time></trkpt><trkpt lat="35.1601153" lon="32.5448986"><ele>31.2</ele><time>2015-04-26T13:48:22.0000000+00:00</time></trkpt><trkpt lat="35.1601071" lon="32.5448373"><ele>30.7</ele><time>2015-04-26T13:48:24.0000000+00:00</time></trkpt><trkpt lat="35.1600671" lon="32.544772"><ele>30.1</ele><time>2015-04-26T13:48:26.0000000+00:00</time></trkpt><trkpt lat="35.160024" lon="32.5447302"><ele>28.2</ele><time>2015-04-26T13:48:28.0000000+00:00</time></trkpt><trkpt lat="35.159964" lon="32.544697"><ele>26.5</ele><time>2015-04-26T13:48:30.0000000+00:00</time></trkpt><trkpt lat="35.1599196" lon="32.5446842"><ele>27.2</ele><time>2015-04-26T13:48:31.0000000+00:00</time></trkpt><trkpt lat="35.1598427" lon="32.5446385"><ele>28.5</ele><time>2015-04-26T13:48:33.0000000+00:00</time></trkpt><trkpt lat="35.1597998" lon="32.5446113"><ele>29.2</ele><time>2015-04-26T13:48:34.0000000+00:00</time></trkpt><trkpt lat="35.1597633" lon="32.5445757"><ele>29.6</ele><time>2015-04-26T13:48:35.0000000+00:00</time></trkpt><trkpt lat="35.1596895" lon="32.544517"><ele>30.8</ele><time>2015-04-26T13:48:37.0000000+00:00</time></trkpt><trkpt lat="35.1596268" lon="32.5444666"><ele>31.7</ele><time>2015-04-26T13:48:39.0000000+00:00</time></trkpt><trkpt lat="35.1595572" lon="32.5444174"><ele>31.6</ele><time>2015-04-26T13:48:41.0000000+00:00</time></trkpt><trkpt lat="35.159523" lon="32.544381"><ele>30.8</ele><time>2015-04-26T13:48:42.0000000+00:00</time></trkpt><trkpt lat="35.1594658" lon="32.544324"><ele>30.1</ele><time>2015-04-26T13:48:44.0000000+00:00</time></trkpt><trkpt lat="35.1594187" lon="32.5442724"><ele>30.2</ele><time>2015-04-26T13:48:46.0000000+00:00</time></trkpt><trkpt lat="35.1593786" lon="32.5442282"><ele>29.3</ele><time>2015-04-26T13:48:48.0000000+00:00</time></trkpt><trkpt lat="35.1593361" lon="32.5441935"><ele>29.8</ele><time>2015-04-26T13:48:50.0000000+00:00</time></trkpt><trkpt lat="35.1592906" lon="32.5441614"><ele>29.9</ele><time>2015-04-26T13:48:52.0000000+00:00</time></trkpt><trkpt lat="35.1592413" lon="32.5441253"><ele>29.9</ele><time>2015-04-26T13:48:54.0000000+00:00</time></trkpt><trkpt lat="35.159192" lon="32.5440785"><ele>30.7</ele><time>2015-04-26T13:48:56.0000000+00:00</time></trkpt><trkpt lat="35.1591447" lon="32.5440288"><ele>30.4</ele><time>2015-04-26T13:48:58.0000000+00:00</time></trkpt><trkpt lat="35.1590922" lon="32.5439769"><ele>31.3</ele><time>2015-04-26T13:49:00.0000000+00:00</time></trkpt><trkpt lat="35.1590315" lon="32.5439306"><ele>32.3</ele><time>2015-04-26T13:49:02.0000000+00:00</time></trkpt><trkpt lat="35.1589742" lon="32.5438793"><ele>32.8</ele><time>2015-04-26T13:49:04.0000000+00:00</time></trkpt><trkpt lat="35.1589248" lon="32.5438232"><ele>32.1</ele><time>2015-04-26T13:49:06.0000000+00:00</time></trkpt><trkpt lat="35.1588792" lon="32.5437667"><ele>31.5</ele><time>2015-04-26T13:49:08.0000000+00:00</time></trkpt><trkpt lat="35.1588289" lon="32.5437093"><ele>32.6</ele><time>2015-04-26T13:49:10.0000000+00:00</time></trkpt><trkpt lat="35.1587767" lon="32.5436456"><ele>33.3</ele><time>2015-04-26T13:49:12.0000000+00:00</time></trkpt><trkpt lat="35.1587295" lon="32.543579"><ele>33.8</ele><time>2015-04-26T13:49:14.0000000+00:00</time></trkpt><trkpt lat="35.1586865" lon="32.5435106"><ele>33.4</ele><time>2015-04-26T13:49:16.0000000+00:00</time></trkpt><trkpt lat="35.1586474" lon="32.5434433"><ele>32.3</ele><time>2015-04-26T13:49:18.0000000+00:00</time></trkpt><trkpt lat="35.158605" lon="32.5433769"><ele>30.8</ele><time>2015-04-26T13:49:20.0000000+00:00</time></trkpt><trkpt lat="35.1585632" lon="32.5433145"><ele>30.1</ele><time>2015-04-26T13:49:22.0000000+00:00</time></trkpt><trkpt lat="35.1585225" lon="32.5432577"><ele>29.5</ele><time>2015-04-26T13:49:24.0000000+00:00</time></trkpt><trkpt lat="35.1584841" lon="32.5432037"><ele>30.6</ele><time>2015-04-26T13:49:26.0000000+00:00</time></trkpt><trkpt lat="35.1584501" lon="32.5431557"><ele>30.3</ele><time>2015-04-26T13:49:28.0000000+00:00</time></trkpt><trkpt lat="35.158409" lon="32.5431074"><ele>30.0</ele><time>2015-04-26T13:49:30.0000000+00:00</time></trkpt><trkpt lat="35.1583754" lon="32.5430624"><ele>30.5</ele><time>2015-04-26T13:49:32.0000000+00:00</time></trkpt><trkpt lat="35.1583359" lon="32.5430219"><ele>30.8</ele><time>2015-04-26T13:49:34.0000000+00:00</time></trkpt><trkpt lat="35.1582858" lon="32.5429733"><ele>31.4</ele><time>2015-04-26T13:49:37.0000000+00:00</time></trkpt><trkpt lat="35.1582452" lon="32.5429386"><ele>31.8</ele><time>2015-04-26T13:49:39.0000000+00:00</time></trkpt><trkpt lat="35.1582006" lon="32.5429023"><ele>31.6</ele><time>2015-04-26T13:49:41.0000000+00:00</time></trkpt><trkpt lat="35.1581509" lon="32.5428704"><ele>32.4</ele><time>2015-04-26T13:49:43.0000000+00:00</time></trkpt><trkpt lat="35.1580969" lon="32.5428407"><ele>33.3</ele><time>2015-04-26T13:49:45.0000000+00:00</time></trkpt><trkpt lat="35.1580422" lon="32.5428169"><ele>35.3</ele><time>2015-04-26T13:49:47.0000000+00:00</time></trkpt><trkpt lat="35.1579918" lon="32.5428012"><ele>35.3</ele><time>2015-04-26T13:49:49.0000000+00:00</time></trkpt><trkpt lat="35.1579425" lon="32.5428056"><ele>36.3</ele><time>2015-04-26T13:49:51.0000000+00:00</time></trkpt><trkpt lat="35.1578964" lon="32.5428144"><ele>36.0</ele><time>2015-04-26T13:49:53.0000000+00:00</time></trkpt><trkpt lat="35.1578477" lon="32.5428235"><ele>36.2</ele><time>2015-04-26T13:49:55.0000000+00:00</time></trkpt><trkpt lat="35.1577979" lon="32.5428353"><ele>36.5</ele><time>2015-04-26T13:49:57.0000000+00:00</time></trkpt><trkpt lat="35.157745" lon="32.5428426"><ele>36.3</ele><time>2015-04-26T13:49:59.0000000+00:00</time></trkpt><trkpt lat="35.1576899" lon="32.5428521"><ele>35.3</ele><time>2015-04-26T13:50:01.0000000+00:00</time></trkpt><trkpt lat="35.1576316" lon="32.542864"><ele>35.0</ele><time>2015-04-26T13:50:03.0000000+00:00</time></trkpt><trkpt lat="35.1575703" lon="32.5428788"><ele>34.5</ele><time>2015-04-26T13:50:05.0000000+00:00</time></trkpt><trkpt lat="35.1575051" lon="32.5428967"><ele>34.6</ele><time>2015-04-26T13:50:07.0000000+00:00</time></trkpt><trkpt lat="35.1574368" lon="32.5429133"><ele>35.6</ele><time>2015-04-26T13:50:09.0000000+00:00</time></trkpt><trkpt lat="35.157361" lon="32.5429216"><ele>35.6</ele><time>2015-04-26T13:50:11.0000000+00:00</time></trkpt><trkpt lat="35.1572745" lon="32.5429293"><ele>35.8</ele><time>2015-04-26T13:50:13.0000000+00:00</time></trkpt><trkpt lat="35.1572292" lon="32.5429365"><ele>36.4</ele><time>2015-04-26T13:50:14.0000000+00:00</time></trkpt><trkpt lat="35.157152" lon="32.5429523"><ele>36.7</ele><time>2015-04-26T13:50:15.0000000+00:00</time></trkpt><trkpt lat="35.157097" lon="32.5429545"><ele>37.3</ele><time>2015-04-26T13:50:16.0000000+00:00</time></trkpt><trkpt lat="35.1570459" lon="32.5429582"><ele>37.6</ele><time>2015-04-26T13:50:17.0000000+00:00</time></trkpt><trkpt lat="35.1569909" lon="32.5429598"><ele>37.8</ele><time>2015-04-26T13:50:18.0000000+00:00</time></trkpt><trkpt lat="35.1569323" lon="32.542964"><ele>36.9</ele><time>2015-04-26T13:50:19.0000000+00:00</time></trkpt><trkpt lat="35.1568769" lon="32.5429685"><ele>36.4</ele><time>2015-04-26T13:50:20.0000000+00:00</time></trkpt><trkpt lat="35.1568232" lon="32.5429698"><ele>36.2</ele><time>2015-04-26T13:50:21.0000000+00:00</time></trkpt><trkpt lat="35.1567678" lon="32.5429581"><ele>36.5</ele><time>2015-04-26T13:50:22.0000000+00:00</time></trkpt><trkpt lat="35.1567081" lon="32.5429417"><ele>36.7</ele><time>2015-04-26T13:50:23.0000000+00:00</time></trkpt><trkpt lat="35.15665" lon="32.542917"><ele>36.8</ele><time>2015-04-26T13:50:24.0000000+00:00</time></trkpt><trkpt lat="35.156595" lon="32.5428914"><ele>36.9</ele><time>2015-04-26T13:50:25.0000000+00:00</time></trkpt><trkpt lat="35.1565399" lon="32.5428624"><ele>36.9</ele><time>2015-04-26T13:50:26.0000000+00:00</time></trkpt><trkpt lat="35.1564848" lon="32.5428236"><ele>36.4</ele><time>2015-04-26T13:50:27.0000000+00:00</time></trkpt><trkpt lat="35.1564354" lon="32.5427842"><ele>36.2</ele><time>2015-04-26T13:50:28.0000000+00:00</time></trkpt><trkpt lat="35.1563781" lon="32.5427546"><ele>36.1</ele><time>2015-04-26T13:50:29.0000000+00:00</time></trkpt><trkpt lat="35.1563224" lon="32.5427178"><ele>35.5</ele><time>2015-04-26T13:50:30.0000000+00:00</time></trkpt><trkpt lat="35.1562741" lon="32.5426582"><ele>34.7</ele><time>2015-04-26T13:50:31.0000000+00:00</time></trkpt><trkpt lat="35.1562174" lon="32.5425946"><ele>33.8</ele><time>2015-04-26T13:50:32.0000000+00:00</time></trkpt><trkpt lat="35.1561628" lon="32.5425568"><ele>33.4</ele><time>2015-04-26T13:50:33.0000000+00:00</time></trkpt><trkpt lat="35.1560999" lon="32.5424985"><ele>33.7</ele><time>2015-04-26T13:50:34.0000000+00:00</time></trkpt><trkpt lat="35.1560384" lon="32.542451"><ele>33.8</ele><time>2015-04-26T13:50:35.0000000+00:00</time></trkpt><trkpt lat="35.1559812" lon="32.5423918"><ele>33.9</ele><time>2015-04-26T13:50:36.0000000+00:00</time></trkpt><trkpt lat="35.155916" lon="32.5423399"><ele>34.4</ele><time>2015-04-26T13:50:37.0000000+00:00</time></trkpt><trkpt lat="35.1558518" lon="32.5422869"><ele>34.7</ele><time>2015-04-26T13:50:38.0000000+00:00</time></trkpt><trkpt lat="35.1557831" lon="32.5422421"><ele>34.8</ele><time>2015-04-26T13:50:39.0000000+00:00</time></trkpt><trkpt lat="35.1557217" lon="32.5421822"><ele>34.9</ele><time>2015-04-26T13:50:40.0000000+00:00</time></trkpt><trkpt lat="35.1556606" lon="32.5421262"><ele>34.4</ele><time>2015-04-26T13:50:41.0000000+00:00</time></trkpt><trkpt lat="35.1555956" lon="32.5420752"><ele>33.7</ele><time>2015-04-26T13:50:42.0000000+00:00</time></trkpt><trkpt lat="35.1555295" lon="32.5420247"><ele>33.3</ele><time>2015-04-26T13:50:43.0000000+00:00</time></trkpt><trkpt lat="35.1554619" lon="32.5419727"><ele>32.6</ele><time>2015-04-26T13:50:44.0000000+00:00</time></trkpt><trkpt lat="35.1553919" lon="32.5419143"><ele>32.8</ele><time>2015-04-26T13:50:45.0000000+00:00</time></trkpt><trkpt lat="35.155319" lon="32.5418678"><ele>33.4</ele><time>2015-04-26T13:50:46.0000000+00:00</time></trkpt><trkpt lat="35.1552502" lon="32.5418263"><ele>33.1</ele><time>2015-04-26T13:50:47.0000000+00:00</time></trkpt><trkpt lat="35.1551778" lon="32.5417936"><ele>33.0</ele><time>2015-04-26T13:50:48.0000000+00:00</time></trkpt><trkpt lat="35.1551155" lon="32.5417553"><ele>32.5</ele><time>2015-04-26T13:50:49.0000000+00:00</time></trkpt><trkpt lat="35.1550494" lon="32.5417137"><ele>32.2</ele><time>2015-04-26T13:50:50.0000000+00:00</time></trkpt><trkpt lat="35.1549896" lon="32.5416833"><ele>31.6</ele><time>2015-04-26T13:50:51.0000000+00:00</time></trkpt><trkpt lat="35.1549244" lon="32.5416547"><ele>31.7</ele><time>2015-04-26T13:50:52.0000000+00:00</time></trkpt><trkpt lat="35.1548636" lon="32.5416224"><ele>31.8</ele><time>2015-04-26T13:50:53.0000000+00:00</time></trkpt><trkpt lat="35.1548029" lon="32.5416077"><ele>32.4</ele><time>2015-04-26T13:50:54.0000000+00:00</time></trkpt><trkpt lat="35.1547457" lon="32.5415763"><ele>32.7</ele><time>2015-04-26T13:50:55.0000000+00:00</time></trkpt><trkpt lat="35.1546907" lon="32.541555"><ele>32.3</ele><time>2015-04-26T13:50:56.0000000+00:00</time></trkpt><trkpt lat="35.1546422" lon="32.5415249"><ele>32.1</ele><time>2015-04-26T13:50:57.0000000+00:00</time></trkpt><trkpt lat="35.1545888" lon="32.5414984"><ele>32.5</ele><time>2015-04-26T13:50:58.0000000+00:00</time></trkpt><trkpt lat="35.1545396" lon="32.5414728"><ele>33.2</ele><time>2015-04-26T13:50:59.0000000+00:00</time></trkpt><trkpt lat="35.1544884" lon="32.5414517"><ele>33.6</ele><time>2015-04-26T13:51:00.0000000+00:00</time></trkpt><trkpt lat="35.1544394" lon="32.5414236"><ele>33.8</ele><time>2015-04-26T13:51:01.0000000+00:00</time></trkpt><trkpt lat="35.1543884" lon="32.5414026"><ele>34.3</ele><time>2015-04-26T13:51:02.0000000+00:00</time></trkpt><trkpt lat="35.1543394" lon="32.541375"><ele>35.1</ele><time>2015-04-26T13:51:03.0000000+00:00</time></trkpt><trkpt lat="35.1542562" lon="32.5413374"><ele>35.7</ele><time>2015-04-26T13:51:05.0000000+00:00</time></trkpt><trkpt lat="35.1541938" lon="32.541303"><ele>34.6</ele><time>2015-04-26T13:51:07.0000000+00:00</time></trkpt><trkpt lat="35.1541193" lon="32.5412685"><ele>35.4</ele><time>2015-04-26T13:51:09.0000000+00:00</time></trkpt><trkpt lat="35.1540675" lon="32.5412231"><ele>35.8</ele><time>2015-04-26T13:51:11.0000000+00:00</time></trkpt><trkpt lat="35.1540128" lon="32.5412004"><ele>36.6</ele><time>2015-04-26T13:51:13.0000000+00:00</time></trkpt><trkpt lat="35.1539578" lon="32.5411681"><ele>37.9</ele><time>2015-04-26T13:51:15.0000000+00:00</time></trkpt><trkpt lat="35.1539096" lon="32.5411363"><ele>37.9</ele><time>2015-04-26T13:51:17.0000000+00:00</time></trkpt><trkpt lat="35.1538636" lon="32.5411046"><ele>37.7</ele><time>2015-04-26T13:51:19.0000000+00:00</time></trkpt><trkpt lat="35.1538167" lon="32.5410748"><ele>38.1</ele><time>2015-04-26T13:51:21.0000000+00:00</time></trkpt><trkpt lat="35.1537669" lon="32.5410429"><ele>39.5</ele><time>2015-04-26T13:51:23.0000000+00:00</time></trkpt><trkpt lat="35.153717" lon="32.541015"><ele>41.1</ele><time>2015-04-26T13:51:25.0000000+00:00</time></trkpt><trkpt lat="35.1536672" lon="32.5409867"><ele>42.2</ele><time>2015-04-26T13:51:27.0000000+00:00</time></trkpt><trkpt lat="35.1536149" lon="32.5409596"><ele>43.8</ele><time>2015-04-26T13:51:29.0000000+00:00</time></trkpt><trkpt lat="35.1535616" lon="32.540932"><ele>42.6</ele><time>2015-04-26T13:51:31.0000000+00:00</time></trkpt><trkpt lat="35.1535139" lon="32.5409065"><ele>42.6</ele><time>2015-04-26T13:51:33.0000000+00:00</time></trkpt><trkpt lat="35.1534694" lon="32.5408851"><ele>43.3</ele><time>2015-04-26T13:51:35.0000000+00:00</time></trkpt><trkpt lat="35.1534065" lon="32.5408646"><ele>44.4</ele><time>2015-04-26T13:51:38.0000000+00:00</time></trkpt><trkpt lat="35.1533408" lon="32.5408565"><ele>46.1</ele><time>2015-04-26T13:51:41.0000000+00:00</time></trkpt><trkpt lat="35.153296" lon="32.540851"><ele>47.7</ele><time>2015-04-26T13:51:43.0000000+00:00</time></trkpt><trkpt lat="35.1532289" lon="32.5408517"><ele>51.2</ele><time>2015-04-26T13:51:46.0000000+00:00</time></trkpt><trkpt lat="35.153161" lon="32.5408524"><ele>52.3</ele><time>2015-04-26T13:51:49.0000000+00:00</time></trkpt><trkpt lat="35.1530942" lon="32.5408597"><ele>51.7</ele><time>2015-04-26T13:51:52.0000000+00:00</time></trkpt><trkpt lat="35.1530493" lon="32.5408643"><ele>51.9</ele><time>2015-04-26T13:51:54.0000000+00:00</time></trkpt><trkpt lat="35.152984" lon="32.5408696"><ele>51.9</ele><time>2015-04-26T13:51:57.0000000+00:00</time></trkpt><trkpt lat="35.1529205" lon="32.5408709"><ele>52.2</ele><time>2015-04-26T13:52:00.0000000+00:00</time></trkpt><trkpt lat="35.1528576" lon="32.5408658"><ele>52.0</ele><time>2015-04-26T13:52:03.0000000+00:00</time></trkpt><trkpt lat="35.1527959" lon="32.5408673"><ele>51.9</ele><time>2015-04-26T13:52:06.0000000+00:00</time></trkpt><trkpt lat="35.1527374" lon="32.5408631"><ele>51.9</ele><time>2015-04-26T13:52:09.0000000+00:00</time></trkpt><trkpt lat="35.1526784" lon="32.5408471"><ele>51.4</ele><time>2015-04-26T13:52:12.0000000+00:00</time></trkpt><trkpt lat="35.1526197" lon="32.5408217"><ele>51.7</ele><time>2015-04-26T13:52:15.0000000+00:00</time></trkpt><trkpt lat="35.152559" lon="32.5407924"><ele>52.5</ele><time>2015-04-26T13:52:18.0000000+00:00</time></trkpt><trkpt lat="35.1525029" lon="32.5407622"><ele>54.1</ele><time>2015-04-26T13:52:21.0000000+00:00</time></trkpt><trkpt lat="35.1524522" lon="32.5407189"><ele>54.5</ele><time>2015-04-26T13:52:24.0000000+00:00</time></trkpt><trkpt lat="35.152411" lon="32.5406668"><ele>54.5</ele><time>2015-04-26T13:52:27.0000000+00:00</time></trkpt><trkpt lat="35.1523698" lon="32.5406141"><ele>55.6</ele><time>2015-04-26T13:52:30.0000000+00:00</time></trkpt><trkpt lat="35.1523302" lon="32.5405617"><ele>55.9</ele><time>2015-04-26T13:52:33.0000000+00:00</time></trkpt><trkpt lat="35.1522986" lon="32.5405027"><ele>56.3</ele><time>2015-04-26T13:52:36.0000000+00:00</time></trkpt><trkpt lat="35.1522729" lon="32.5404502"><ele>55.5</ele><time>2015-04-26T13:52:39.0000000+00:00</time></trkpt><trkpt lat="35.1522447" lon="32.540385"><ele>56.1</ele><time>2015-04-26T13:52:42.0000000+00:00</time></trkpt><trkpt lat="35.152223" lon="32.5403349"><ele>56.0</ele><time>2015-04-26T13:52:44.0000000+00:00</time></trkpt><trkpt lat="35.1522044" lon="32.5402801"><ele>55.4</ele><time>2015-04-26T13:52:46.0000000+00:00</time></trkpt><trkpt lat="35.1521838" lon="32.5402228"><ele>54.3</ele><time>2015-04-26T13:52:48.0000000+00:00</time></trkpt><trkpt lat="35.1521625" lon="32.5401674"><ele>54.0</ele><time>2015-04-26T13:52:50.0000000+00:00</time></trkpt><trkpt lat="35.1521385" lon="32.540101"><ele>53.2</ele><time>2015-04-26T13:52:52.0000000+00:00</time></trkpt><trkpt lat="35.1521152" lon="32.5400367"><ele>52.8</ele><time>2015-04-26T13:52:55.0000000+00:00</time></trkpt><trkpt lat="35.1520956" lon="32.5399844"><ele>52.4</ele><time>2015-04-26T13:52:58.0000000+00:00</time></trkpt><trkpt lat="35.1520705" lon="32.5399201"><ele>52.8</ele><time>2015-04-26T13:53:00.0000000+00:00</time></trkpt><trkpt lat="35.1520426" lon="32.53984"><ele>52.9</ele><time>2015-04-26T13:53:02.0000000+00:00</time></trkpt><trkpt lat="35.1520115" lon="32.5397576"><ele>52.4</ele><time>2015-04-26T13:53:04.0000000+00:00</time></trkpt><trkpt lat="35.1519826" lon="32.5396784"><ele>52.8</ele><time>2015-04-26T13:53:06.0000000+00:00</time></trkpt><trkpt lat="35.1519536" lon="32.5396"><ele>53.4</ele><time>2015-04-26T13:53:08.0000000+00:00</time></trkpt><trkpt lat="35.1519164" lon="32.5395099"><ele>53.3</ele><time>2015-04-26T13:53:10.0000000+00:00</time></trkpt><trkpt lat="35.1518755" lon="32.5394205"><ele>52.5</ele><time>2015-04-26T13:53:12.0000000+00:00</time></trkpt><trkpt lat="35.151828" lon="32.5393467"><ele>52.6</ele><time>2015-04-26T13:53:14.0000000+00:00</time></trkpt><trkpt lat="35.1517784" lon="32.5392872"><ele>52.3</ele><time>2015-04-26T13:53:16.0000000+00:00</time></trkpt><trkpt lat="35.1517282" lon="32.5392312"><ele>52.0</ele><time>2015-04-26T13:53:18.0000000+00:00</time></trkpt><trkpt lat="35.1516765" lon="32.5391784"><ele>52.0</ele><time>2015-04-26T13:53:20.0000000+00:00</time></trkpt><trkpt lat="35.1516226" lon="32.539129"><ele>51.9</ele><time>2015-04-26T13:53:22.0000000+00:00</time></trkpt><trkpt lat="35.151564" lon="32.539082"><ele>52.4</ele><time>2015-04-26T13:53:24.0000000+00:00</time></trkpt><trkpt lat="35.1514971" lon="32.5390364"><ele>52.3</ele><time>2015-04-26T13:53:26.0000000+00:00</time></trkpt><trkpt lat="35.1514288" lon="32.5389839"><ele>51.5</ele><time>2015-04-26T13:53:28.0000000+00:00</time></trkpt><trkpt lat="35.1513562" lon="32.5389318"><ele>51.6</ele><time>2015-04-26T13:53:30.0000000+00:00</time></trkpt><trkpt lat="35.1512654" lon="32.5388816"><ele>50.8</ele><time>2015-04-26T13:53:32.0000000+00:00</time></trkpt><trkpt lat="35.151217" lon="32.5388537"><ele>50.4</ele><time>2015-04-26T13:53:33.0000000+00:00</time></trkpt><trkpt lat="35.1511648" lon="32.5388289"><ele>49.7</ele><time>2015-04-26T13:53:34.0000000+00:00</time></trkpt><trkpt lat="35.1511152" lon="32.538794"><ele>48.8</ele><time>2015-04-26T13:53:35.0000000+00:00</time></trkpt><trkpt lat="35.1510604" lon="32.5387699"><ele>48.4</ele><time>2015-04-26T13:53:36.0000000+00:00</time></trkpt><trkpt lat="35.1510041" lon="32.5387448"><ele>48.1</ele><time>2015-04-26T13:53:37.0000000+00:00</time></trkpt><trkpt lat="35.1509461" lon="32.5387107"><ele>48.0</ele><time>2015-04-26T13:53:38.0000000+00:00</time></trkpt><trkpt lat="35.1508897" lon="32.5386785"><ele>48.0</ele><time>2015-04-26T13:53:39.0000000+00:00</time></trkpt><trkpt lat="35.1508309" lon="32.5386406"><ele>48.0</ele><time>2015-04-26T13:53:40.0000000+00:00</time></trkpt><trkpt lat="35.150772" lon="32.538607"><ele>47.4</ele><time>2015-04-26T13:53:41.0000000+00:00</time></trkpt><trkpt lat="35.1507108" lon="32.5385758"><ele>47.2</ele><time>2015-04-26T13:53:42.0000000+00:00</time></trkpt><trkpt lat="35.1506443" lon="32.5385448"><ele>47.1</ele><time>2015-04-26T13:53:43.0000000+00:00</time></trkpt><trkpt lat="35.1505813" lon="32.538508"><ele>47.5</ele><time>2015-04-26T13:53:44.0000000+00:00</time></trkpt><trkpt lat="35.150514" lon="32.5384707"><ele>47.7</ele><time>2015-04-26T13:53:45.0000000+00:00</time></trkpt><trkpt lat="35.1504476" lon="32.5384396"><ele>48.3</ele><time>2015-04-26T13:53:46.0000000+00:00</time></trkpt><trkpt lat="35.1503834" lon="32.5384129"><ele>49.1</ele><time>2015-04-26T13:53:47.0000000+00:00</time></trkpt><trkpt lat="35.15033" lon="32.5383795"><ele>49.0</ele><time>2015-04-26T13:53:48.0000000+00:00</time></trkpt><trkpt lat="35.1502736" lon="32.538348"><ele>49.0</ele><time>2015-04-26T13:53:49.0000000+00:00</time></trkpt><trkpt lat="35.1502172" lon="32.5383073"><ele>49.0</ele><time>2015-04-26T13:53:50.0000000+00:00</time></trkpt><trkpt lat="35.150163" lon="32.538277"><ele>48.9</ele><time>2015-04-26T13:53:51.0000000+00:00</time></trkpt><trkpt lat="35.1501048" lon="32.5382482"><ele>49.4</ele><time>2015-04-26T13:53:52.0000000+00:00</time></trkpt><trkpt lat="35.1500549" lon="32.5382106"><ele>49.2</ele><time>2015-04-26T13:53:53.0000000+00:00</time></trkpt><trkpt lat="35.1500028" lon="32.5381707"><ele>49.1</ele><time>2015-04-26T13:53:54.0000000+00:00</time></trkpt><trkpt lat="35.1499499" lon="32.5381224"><ele>49.0</ele><time>2015-04-26T13:53:55.0000000+00:00</time></trkpt><trkpt lat="35.1498912" lon="32.5380798"><ele>49.5</ele><time>2015-04-26T13:53:56.0000000+00:00</time></trkpt><trkpt lat="35.1498319" lon="32.5380385"><ele>49.7</ele><time>2015-04-26T13:53:57.0000000+00:00</time></trkpt><trkpt lat="35.1497705" lon="32.5379927"><ele>49.8</ele><time>2015-04-26T13:53:58.0000000+00:00</time></trkpt><trkpt lat="35.149707" lon="32.5379452"><ele>49.9</ele><time>2015-04-26T13:53:59.0000000+00:00</time></trkpt><trkpt lat="35.1496467" lon="32.5378987"><ele>50.4</ele><time>2015-04-26T13:54:00.0000000+00:00</time></trkpt><trkpt lat="35.149592" lon="32.5378438"><ele>50.7</ele><time>2015-04-26T13:54:01.0000000+00:00</time></trkpt><trkpt lat="35.1495346" lon="32.537795"><ele>50.8</ele><time>2015-04-26T13:54:02.0000000+00:00</time></trkpt><trkpt lat="35.1494771" lon="32.5377512"><ele>51.4</ele><time>2015-04-26T13:54:03.0000000+00:00</time></trkpt><trkpt lat="35.1494274" lon="32.5377025"><ele>51.6</ele><time>2015-04-26T13:54:04.0000000+00:00</time></trkpt><trkpt lat="35.1493806" lon="32.5376607"><ele>51.8</ele><time>2015-04-26T13:54:05.0000000+00:00</time></trkpt><trkpt lat="35.149339" lon="32.5376185"><ele>51.9</ele><time>2015-04-26T13:54:06.0000000+00:00</time></trkpt><trkpt lat="35.149298" lon="32.5375766"><ele>51.9</ele><time>2015-04-26T13:54:07.0000000+00:00</time></trkpt><trkpt lat="35.149257" lon="32.5375328"><ele>51.9</ele><time>2015-04-26T13:54:08.0000000+00:00</time></trkpt><trkpt lat="35.1492178" lon="32.5374821"><ele>51.4</ele><time>2015-04-26T13:54:09.0000000+00:00</time></trkpt><trkpt lat="35.1491786" lon="32.5374328"><ele>51.2</ele><time>2015-04-26T13:54:10.0000000+00:00</time></trkpt><trkpt lat="35.1491353" lon="32.5373863"><ele>51.1</ele><time>2015-04-26T13:54:11.0000000+00:00</time></trkpt><trkpt lat="35.1490991" lon="32.537333"><ele>51.0</ele><time>2015-04-26T13:54:12.0000000+00:00</time></trkpt><trkpt lat="35.149054" lon="32.5372845"><ele>51.0</ele><time>2015-04-26T13:54:13.0000000+00:00</time></trkpt><trkpt lat="35.1490123" lon="32.5372332"><ele>50.9</ele><time>2015-04-26T13:54:14.0000000+00:00</time></trkpt><trkpt lat="35.1489804" lon="32.5371883"><ele>50.9</ele><time>2015-04-26T13:54:15.0000000+00:00</time></trkpt><trkpt lat="35.1489502" lon="32.537139"><ele>50.9</ele><time>2015-04-26T13:54:16.0000000+00:00</time></trkpt><trkpt lat="35.148894" lon="32.5370594"><ele>50.4</ele><time>2015-04-26T13:54:18.0000000+00:00</time></trkpt><trkpt lat="35.1488652" lon="32.5370115"><ele>50.2</ele><time>2015-04-26T13:54:19.0000000+00:00</time></trkpt><trkpt lat="35.1488388" lon="32.5369544"><ele>50.1</ele><time>2015-04-26T13:54:20.0000000+00:00</time></trkpt><trkpt lat="35.1488098" lon="32.5368994"><ele>50.0</ele><time>2015-04-26T13:54:21.0000000+00:00</time></trkpt><trkpt lat="35.1487819" lon="32.536844"><ele>50.0</ele><time>2015-04-26T13:54:22.0000000+00:00</time></trkpt><trkpt lat="35.1487521" lon="32.5367875"><ele>49.9</ele><time>2015-04-26T13:54:23.0000000+00:00</time></trkpt><trkpt lat="35.1487318" lon="32.536733"><ele>49.9</ele><time>2015-04-26T13:54:24.0000000+00:00</time></trkpt><trkpt lat="35.1487154" lon="32.5366738"><ele>49.9</ele><time>2015-04-26T13:54:25.0000000+00:00</time></trkpt><trkpt lat="35.1487034" lon="32.5366176"><ele>49.9</ele><time>2015-04-26T13:54:26.0000000+00:00</time></trkpt><trkpt lat="35.1486829" lon="32.5365145"><ele>50.7</ele><time>2015-04-26T13:54:28.0000000+00:00</time></trkpt><trkpt lat="35.148673" lon="32.5364111"><ele>50.9</ele><time>2015-04-26T13:54:30.0000000+00:00</time></trkpt><trkpt lat="35.1486748" lon="32.5363006"><ele>50.9</ele><time>2015-04-26T13:54:32.0000000+00:00</time></trkpt><trkpt lat="35.1486742" lon="32.5362451"><ele>51.4</ele><time>2015-04-26T13:54:33.0000000+00:00</time></trkpt><trkpt lat="35.1486815" lon="32.5361885"><ele>52.2</ele><time>2015-04-26T13:54:34.0000000+00:00</time></trkpt><trkpt lat="35.1486948" lon="32.5361318"><ele>52.1</ele><time>2015-04-26T13:54:35.0000000+00:00</time></trkpt><trkpt lat="35.1487177" lon="32.5360333"><ele>52.0</ele><time>2015-04-26T13:54:37.0000000+00:00</time></trkpt><trkpt lat="35.1487272" lon="32.5359755"><ele>51.4</ele><time>2015-04-26T13:54:38.0000000+00:00</time></trkpt><trkpt lat="35.1487355" lon="32.5359197"><ele>51.7</ele><time>2015-04-26T13:54:39.0000000+00:00</time></trkpt><trkpt lat="35.1487446" lon="32.5358615"><ele>51.8</ele><time>2015-04-26T13:54:40.0000000+00:00</time></trkpt><trkpt lat="35.1487608" lon="32.5358025"><ele>51.9</ele><time>2015-04-26T13:54:41.0000000+00:00</time></trkpt><trkpt lat="35.1487735" lon="32.5357438"><ele>51.9</ele><time>2015-04-26T13:54:42.0000000+00:00</time></trkpt><trkpt lat="35.1487875" lon="32.5356805"><ele>52.4</ele><time>2015-04-26T13:54:43.0000000+00:00</time></trkpt><trkpt lat="35.1488047" lon="32.5356153"><ele>52.2</ele><time>2015-04-26T13:54:44.0000000+00:00</time></trkpt><trkpt lat="35.1488131" lon="32.5355471"><ele>52.1</ele><time>2015-04-26T13:54:45.0000000+00:00</time></trkpt><trkpt lat="35.1488219" lon="32.5354817"><ele>52.0</ele><time>2015-04-26T13:54:46.0000000+00:00</time></trkpt><trkpt lat="35.1488376" lon="32.5354199"><ele>52.5</ele><time>2015-04-26T13:54:47.0000000+00:00</time></trkpt><trkpt lat="35.1488509" lon="32.5353518"><ele>52.2</ele><time>2015-04-26T13:54:48.0000000+00:00</time></trkpt><trkpt lat="35.148867" lon="32.5352922"><ele>52.1</ele><time>2015-04-26T13:54:49.0000000+00:00</time></trkpt><trkpt lat="35.1488806" lon="32.5352315"><ele>52.0</ele><time>2015-04-26T13:54:50.0000000+00:00</time></trkpt><trkpt lat="35.1488946" lon="32.5351738"><ele>52.0</ele><time>2015-04-26T13:54:51.0000000+00:00</time></trkpt><trkpt lat="35.1489134" lon="32.5351216"><ele>52.4</ele><time>2015-04-26T13:54:52.0000000+00:00</time></trkpt><trkpt lat="35.1489339" lon="32.5350226"><ele>52.8</ele><time>2015-04-26T13:54:54.0000000+00:00</time></trkpt><trkpt lat="35.1489384" lon="32.5349299"><ele>52.9</ele><time>2015-04-26T13:54:56.0000000+00:00</time></trkpt><trkpt lat="35.148966" lon="32.5348307"><ele>52.9</ele><time>2015-04-26T13:54:58.0000000+00:00</time></trkpt><trkpt lat="35.1489645" lon="32.5347734"><ele>53.4</ele><time>2015-04-26T13:54:59.0000000+00:00</time></trkpt><trkpt lat="35.148964" lon="32.5347111"><ele>53.2</ele><time>2015-04-26T13:55:00.0000000+00:00</time></trkpt><trkpt lat="35.1489567" lon="32.5346512"><ele>53.1</ele><time>2015-04-26T13:55:01.0000000+00:00</time></trkpt><trkpt lat="35.1489467" lon="32.5345874"><ele>53.0</ele><time>2015-04-26T13:55:02.0000000+00:00</time></trkpt><trkpt lat="35.1489247" lon="32.5345218"><ele>53.0</ele><time>2015-04-26T13:55:03.0000000+00:00</time></trkpt><trkpt lat="35.1488919" lon="32.5344626"><ele>52.4</ele><time>2015-04-26T13:55:04.0000000+00:00</time></trkpt><trkpt lat="35.1488567" lon="32.5344037"><ele>52.2</ele><time>2015-04-26T13:55:05.0000000+00:00</time></trkpt><trkpt lat="35.1488238" lon="32.5343466"><ele>51.6</ele><time>2015-04-26T13:55:06.0000000+00:00</time></trkpt><trkpt lat="35.1487783" lon="32.5343134"><ele>52.2</ele><time>2015-04-26T13:55:07.0000000+00:00</time></trkpt><trkpt lat="35.1487347" lon="32.5342838"><ele>52.6</ele><time>2015-04-26T13:55:08.0000000+00:00</time></trkpt><trkpt lat="35.1486867" lon="32.5342702"><ele>53.3</ele><time>2015-04-26T13:55:09.0000000+00:00</time></trkpt><trkpt lat="35.1486356" lon="32.5342613"><ele>53.6</ele><time>2015-04-26T13:55:10.0000000+00:00</time></trkpt><trkpt lat="35.1485811" lon="32.5342584"><ele>53.8</ele><time>2015-04-26T13:55:11.0000000+00:00</time></trkpt><trkpt lat="35.1485207" lon="32.5342504"><ele>53.8</ele><time>2015-04-26T13:55:12.0000000+00:00</time></trkpt><trkpt lat="35.1484593" lon="32.534244"><ele>53.9</ele><time>2015-04-26T13:55:13.0000000+00:00</time></trkpt><trkpt lat="35.1483967" lon="32.5342391"><ele>53.4</ele><time>2015-04-26T13:55:14.0000000+00:00</time></trkpt><trkpt lat="35.1483346" lon="32.5342305"><ele>53.2</ele><time>2015-04-26T13:55:15.0000000+00:00</time></trkpt><trkpt lat="35.1482683" lon="32.5342258"><ele>53.0</ele><time>2015-04-26T13:55:16.0000000+00:00</time></trkpt><trkpt lat="35.1482044" lon="32.5342118"><ele>53.0</ele><time>2015-04-26T13:55:17.0000000+00:00</time></trkpt><trkpt lat="35.1481376" lon="32.5341888"><ele>53.0</ele><time>2015-04-26T13:55:18.0000000+00:00</time></trkpt><trkpt lat="35.1480716" lon="32.5341593"><ele>52.9</ele><time>2015-04-26T13:55:19.0000000+00:00</time></trkpt><trkpt lat="35.1480111" lon="32.5341187"><ele>52.4</ele><time>2015-04-26T13:55:20.0000000+00:00</time></trkpt><trkpt lat="35.1479581" lon="32.5340597"><ele>52.2</ele><time>2015-04-26T13:55:21.0000000+00:00</time></trkpt><trkpt lat="35.1479095" lon="32.5339965"><ele>52.1</ele><time>2015-04-26T13:55:22.0000000+00:00</time></trkpt><trkpt lat="35.1478631" lon="32.5339234"><ele>51.5</ele><time>2015-04-26T13:55:23.0000000+00:00</time></trkpt><trkpt lat="35.1478249" lon="32.5338405"><ele>51.7</ele><time>2015-04-26T13:55:24.0000000+00:00</time></trkpt><trkpt lat="35.1478087" lon="32.5337442"><ele>51.3</ele><time>2015-04-26T13:55:25.0000000+00:00</time></trkpt><trkpt lat="35.1478023" lon="32.5336488"><ele>51.1</ele><time>2015-04-26T13:55:26.0000000+00:00</time></trkpt><trkpt lat="35.1478012" lon="32.5335586"><ele>51.5</ele><time>2015-04-26T13:55:27.0000000+00:00</time></trkpt><trkpt lat="35.1478096" lon="32.533473"><ele>51.2</ele><time>2015-04-26T13:55:28.0000000+00:00</time></trkpt><trkpt lat="35.1478244" lon="32.533387"><ele>51.6</ele><time>2015-04-26T13:55:29.0000000+00:00</time></trkpt><trkpt lat="35.147835" lon="32.5332973"><ele>51.8</ele><time>2015-04-26T13:55:30.0000000+00:00</time></trkpt><trkpt lat="35.1478411" lon="32.5332044"><ele>51.8</ele><time>2015-04-26T13:55:31.0000000+00:00</time></trkpt><trkpt lat="35.1478455" lon="32.5331136"><ele>51.4</ele><time>2015-04-26T13:55:32.0000000+00:00</time></trkpt><trkpt lat="35.1478303" lon="32.533025"><ele>51.2</ele><time>2015-04-26T13:55:33.0000000+00:00</time></trkpt><trkpt lat="35.1478039" lon="32.532951"><ele>51.0</ele><time>2015-04-26T13:55:34.0000000+00:00</time></trkpt><trkpt lat="35.1477635" lon="32.5328869"><ele>51.0</ele><time>2015-04-26T13:55:35.0000000+00:00</time></trkpt><trkpt lat="35.1477152" lon="32.5328248"><ele>51.0</ele><time>2015-04-26T13:55:36.0000000+00:00</time></trkpt><trkpt lat="35.1476596" lon="32.5327723"><ele>50.4</ele><time>2015-04-26T13:55:37.0000000+00:00</time></trkpt><trkpt lat="35.147592" lon="32.5327328"><ele>50.7</ele><time>2015-04-26T13:55:38.0000000+00:00</time></trkpt><trkpt lat="35.1475151" lon="32.5327138"><ele>50.8</ele><time>2015-04-26T13:55:39.0000000+00:00</time></trkpt><trkpt lat="35.1474326" lon="32.5327064"><ele>50.9</ele><time>2015-04-26T13:55:40.0000000+00:00</time></trkpt><trkpt lat="35.1473475" lon="32.532708"><ele>50.9</ele><time>2015-04-26T13:55:41.0000000+00:00</time></trkpt><trkpt lat="35.1472674" lon="32.5327097"><ele>50.9</ele><time>2015-04-26T13:55:42.0000000+00:00</time></trkpt><trkpt lat="35.1471874" lon="32.5327136"><ele>50.4</ele><time>2015-04-26T13:55:43.0000000+00:00</time></trkpt><trkpt lat="35.1471063" lon="32.5327202"><ele>50.7</ele><time>2015-04-26T13:55:44.0000000+00:00</time></trkpt><trkpt lat="35.1470313" lon="32.5327283"><ele>50.8</ele><time>2015-04-26T13:55:45.0000000+00:00</time></trkpt><trkpt lat="35.1469563" lon="32.5327329"><ele>50.4</ele><time>2015-04-26T13:55:46.0000000+00:00</time></trkpt><trkpt lat="35.1468819" lon="32.532739"><ele>50.1</ele><time>2015-04-26T13:55:47.0000000+00:00</time></trkpt><trkpt lat="35.1468117" lon="32.5327427"><ele>50.0</ele><time>2015-04-26T13:55:48.0000000+00:00</time></trkpt><trkpt lat="35.1467427" lon="32.532744"><ele>49.5</ele><time>2015-04-26T13:55:49.0000000+00:00</time></trkpt><trkpt lat="35.1466784" lon="32.5327485"><ele>49.2</ele><time>2015-04-26T13:55:50.0000000+00:00</time></trkpt><trkpt lat="35.1466149" lon="32.5327523"><ele>49.1</ele><time>2015-04-26T13:55:51.0000000+00:00</time></trkpt><trkpt lat="35.1465576" lon="32.5327632"><ele>49.0</ele><time>2015-04-26T13:55:52.0000000+00:00</time></trkpt><trkpt lat="35.1464967" lon="32.5327688"><ele>49.5</ele><time>2015-04-26T13:55:53.0000000+00:00</time></trkpt><trkpt lat="35.1464382" lon="32.5327744"><ele>49.7</ele><time>2015-04-26T13:55:54.0000000+00:00</time></trkpt><trkpt lat="35.1463802" lon="32.5327802"><ele>49.8</ele><time>2015-04-26T13:55:55.0000000+00:00</time></trkpt><trkpt lat="35.146321" lon="32.5327844"><ele>49.9</ele><time>2015-04-26T13:55:56.0000000+00:00</time></trkpt><trkpt lat="35.146265" lon="32.5327883"><ele>49.9</ele><time>2015-04-26T13:55:57.0000000+00:00</time></trkpt><trkpt lat="35.1462127" lon="32.5327883"><ele>49.9</ele><time>2015-04-26T13:55:58.0000000+00:00</time></trkpt><trkpt lat="35.1461582" lon="32.5327846"><ele>49.9</ele><time>2015-04-26T13:55:59.0000000+00:00</time></trkpt><trkpt lat="35.1461067" lon="32.5327901"><ele>49.9</ele><time>2015-04-26T13:56:00.0000000+00:00</time></trkpt><trkpt lat="35.146056" lon="32.5327953"><ele>49.9</ele><time>2015-04-26T13:56:01.0000000+00:00</time></trkpt><trkpt lat="35.1460046" lon="32.532801"><ele>49.9</ele><time>2015-04-26T13:56:02.0000000+00:00</time></trkpt><trkpt lat="35.145959" lon="32.5328099"><ele>49.9</ele><time>2015-04-26T13:56:03.0000000+00:00</time></trkpt><trkpt lat="35.1458709" lon="32.5328157"><ele>49.4</ele><time>2015-04-26T13:56:05.0000000+00:00</time></trkpt><trkpt lat="35.1457869" lon="32.5328169"><ele>49.3</ele><time>2015-04-26T13:56:07.0000000+00:00</time></trkpt><trkpt lat="35.1457088" lon="32.5328064"><ele>49.0</ele><time>2015-04-26T13:56:09.0000000+00:00</time></trkpt><trkpt lat="35.145648" lon="32.5327826"><ele>50.2</ele><time>2015-04-26T13:56:11.0000000+00:00</time></trkpt><trkpt lat="35.1455936" lon="32.532747"><ele>50.7</ele><time>2015-04-26T13:56:13.0000000+00:00</time></trkpt><trkpt lat="35.1455387" lon="32.5327067"><ele>50.9</ele><time>2015-04-26T13:56:15.0000000+00:00</time></trkpt><trkpt lat="35.1454929" lon="32.5326541"><ele>50.9</ele><time>2015-04-26T13:56:17.0000000+00:00</time></trkpt><trkpt lat="35.1454536" lon="32.5325945"><ele>50.9</ele><time>2015-04-26T13:56:19.0000000+00:00</time></trkpt><trkpt lat="35.1454178" lon="32.5325288"><ele>51.2</ele><time>2015-04-26T13:56:21.0000000+00:00</time></trkpt><trkpt lat="35.145393" lon="32.532458"><ele>51.0</ele><time>2015-04-26T13:56:23.0000000+00:00</time></trkpt><trkpt lat="35.1453824" lon="32.532386"><ele>51.4</ele><time>2015-04-26T13:56:25.0000000+00:00</time></trkpt><trkpt lat="35.1453793" lon="32.5323107"><ele>51.8</ele><time>2015-04-26T13:56:27.0000000+00:00</time></trkpt><trkpt lat="35.1453911" lon="32.5322299"><ele>52.6</ele><time>2015-04-26T13:56:29.0000000+00:00</time></trkpt><trkpt lat="35.1454157" lon="32.5321504"><ele>53.6</ele><time>2015-04-26T13:56:31.0000000+00:00</time></trkpt><trkpt lat="35.1454519" lon="32.5320819"><ele>56.3</ele><time>2015-04-26T13:56:33.0000000+00:00</time></trkpt><trkpt lat="35.1454944" lon="32.53202"><ele>56.8</ele><time>2015-04-26T13:56:35.0000000+00:00</time></trkpt><trkpt lat="35.1455428" lon="32.5319646"><ele>57.4</ele><time>2015-04-26T13:56:37.0000000+00:00</time></trkpt><trkpt lat="35.1455949" lon="32.5319193"><ele>57.8</ele><time>2015-04-26T13:56:39.0000000+00:00</time></trkpt><trkpt lat="35.1456384" lon="32.5318879"><ele>57.9</ele><time>2015-04-26T13:56:41.0000000+00:00</time></trkpt><trkpt lat="35.145678" lon="32.5318527"><ele>57.9</ele><time>2015-04-26T13:56:45.0000000+00:00</time></trkpt><trkpt lat="35.1457384" lon="32.5318044"><ele>58.7</ele><time>2015-04-26T13:56:48.0000000+00:00</time></trkpt><trkpt lat="35.1457946" lon="32.5317598"><ele>58.9</ele><time>2015-04-26T13:56:50.0000000+00:00</time></trkpt><trkpt lat="35.1458485" lon="32.531718"><ele>59.7</ele><time>2015-04-26T13:56:52.0000000+00:00</time></trkpt><trkpt lat="35.1458893" lon="32.5316861"><ele>59.9</ele><time>2015-04-26T13:56:54.0000000+00:00</time></trkpt><trkpt lat="35.1459431" lon="32.5316393"><ele>59.8</ele><time>2015-04-26T13:56:57.0000000+00:00</time></trkpt><trkpt lat="35.1459918" lon="32.5315991"><ele>59.9</ele><time>2015-04-26T13:56:59.0000000+00:00</time></trkpt><trkpt lat="35.1460443" lon="32.531559"><ele>59.9</ele><time>2015-04-26T13:57:01.0000000+00:00</time></trkpt><trkpt lat="35.146096" lon="32.5315172"><ele>59.9</ele><time>2015-04-26T13:57:03.0000000+00:00</time></trkpt><trkpt lat="35.1461528" lon="32.531481"><ele>59.9</ele><time>2015-04-26T13:57:05.0000000+00:00</time></trkpt><trkpt lat="35.1462063" lon="32.5314426"><ele>59.9</ele><time>2015-04-26T13:57:07.0000000+00:00</time></trkpt><trkpt lat="35.1462549" lon="32.5314113"><ele>60.4</ele><time>2015-04-26T13:57:09.0000000+00:00</time></trkpt><trkpt lat="35.1463061" lon="32.5313709"><ele>61.6</ele><time>2015-04-26T13:57:13.0000000+00:00</time></trkpt><trkpt lat="35.1463536" lon="32.5313439"><ele>63.4</ele><time>2015-04-26T13:57:15.0000000+00:00</time></trkpt><trkpt lat="35.1464088" lon="32.5313159"><ele>63.8</ele><time>2015-04-26T13:57:17.0000000+00:00</time></trkpt><trkpt lat="35.1464694" lon="32.5312882"><ele>63.1</ele><time>2015-04-26T13:57:19.0000000+00:00</time></trkpt><trkpt lat="35.1465272" lon="32.531257"><ele>63.0</ele><time>2015-04-26T13:57:21.0000000+00:00</time></trkpt><trkpt lat="35.1465826" lon="32.5312242"><ele>62.4</ele><time>2015-04-26T13:57:23.0000000+00:00</time></trkpt><trkpt lat="35.1466342" lon="32.5311847"><ele>63.3</ele><time>2015-04-26T13:57:25.0000000+00:00</time></trkpt><trkpt lat="35.1466775" lon="32.5311307"><ele>63.8</ele><time>2015-04-26T13:57:27.0000000+00:00</time></trkpt><trkpt lat="35.1467132" lon="32.5310645"><ele>63.4</ele><time>2015-04-26T13:57:29.0000000+00:00</time></trkpt><trkpt lat="35.1467387" lon="32.5309974"><ele>63.0</ele><time>2015-04-26T13:57:31.0000000+00:00</time></trkpt><trkpt lat="35.1467476" lon="32.5309206"><ele>62.9</ele><time>2015-04-26T13:57:34.0000000+00:00</time></trkpt><trkpt lat="35.1467436" lon="32.5308574"><ele>63.4</ele><time>2015-04-26T13:57:36.0000000+00:00</time></trkpt><trkpt lat="35.1467302" lon="32.5307858"><ele>63.8</ele><time>2015-04-26T13:57:38.0000000+00:00</time></trkpt><trkpt lat="35.1467049" lon="32.5307147"><ele>63.1</ele><time>2015-04-26T13:57:40.0000000+00:00</time></trkpt><trkpt lat="35.1466684" lon="32.5306394"><ele>63.5</ele><time>2015-04-26T13:57:42.0000000+00:00</time></trkpt><trkpt lat="35.1466306" lon="32.5305715"><ele>63.8</ele><time>2015-04-26T13:57:44.0000000+00:00</time></trkpt><trkpt lat="35.146591" lon="32.5305171"><ele>63.9</ele><time>2015-04-26T13:57:46.0000000+00:00</time></trkpt><trkpt lat="35.1465489" lon="32.5304654"><ele>63.4</ele><time>2015-04-26T13:57:48.0000000+00:00</time></trkpt><trkpt lat="35.146499" lon="32.5304152"><ele>63.8</ele><time>2015-04-26T13:57:50.0000000+00:00</time></trkpt><trkpt lat="35.1464477" lon="32.5303679"><ele>63.4</ele><time>2015-04-26T13:57:52.0000000+00:00</time></trkpt><trkpt lat="35.1464019" lon="32.5303225"><ele>63.0</ele><time>2015-04-26T13:57:54.0000000+00:00</time></trkpt><trkpt lat="35.1463642" lon="32.5302906"><ele>63.0</ele><time>2015-04-26T13:57:56.0000000+00:00</time></trkpt><trkpt lat="35.1463179" lon="32.5302475"><ele>62.9</ele><time>2015-04-26T13:57:58.0000000+00:00</time></trkpt><trkpt lat="35.1462563" lon="32.5301913"><ele>62.9</ele><time>2015-04-26T13:58:00.0000000+00:00</time></trkpt><trkpt lat="35.1461995" lon="32.5301396"><ele>63.7</ele><time>2015-04-26T13:58:02.0000000+00:00</time></trkpt><trkpt lat="35.1461482" lon="32.530091"><ele>63.9</ele><time>2015-04-26T13:58:04.0000000+00:00</time></trkpt><trkpt lat="35.1461097" lon="32.5300515"><ele>64.2</ele><time>2015-04-26T13:58:06.0000000+00:00</time></trkpt><trkpt lat="35.1460711" lon="32.530017"><ele>64.7</ele><time>2015-04-26T13:58:08.0000000+00:00</time></trkpt><trkpt lat="35.1460196" lon="32.5299714"><ele>64.8</ele><time>2015-04-26T13:58:11.0000000+00:00</time></trkpt><trkpt lat="35.1459692" lon="32.5299273"><ele>65.4</ele><time>2015-04-26T13:58:14.0000000+00:00</time></trkpt><trkpt lat="35.1459314" lon="32.5298892"><ele>65.8</ele><time>2015-04-26T13:58:16.0000000+00:00</time></trkpt><trkpt lat="35.1458729" lon="32.5298359"><ele>66.4</ele><time>2015-04-26T13:58:18.0000000+00:00</time></trkpt><trkpt lat="35.1458117" lon="32.5297848"><ele>66.8</ele><time>2015-04-26T13:58:20.0000000+00:00</time></trkpt><trkpt lat="35.1457558" lon="32.5297281"><ele>66.4</ele><time>2015-04-26T13:58:22.0000000+00:00</time></trkpt><trkpt lat="35.145714" lon="32.5296644"><ele>66.3</ele><time>2015-04-26T13:58:24.0000000+00:00</time></trkpt><trkpt lat="35.1456856" lon="32.5295946"><ele>66.5</ele><time>2015-04-26T13:58:26.0000000+00:00</time></trkpt><trkpt lat="35.1456618" lon="32.5295208"><ele>65.6</ele><time>2015-04-26T13:58:28.0000000+00:00</time></trkpt><trkpt lat="35.1456495" lon="32.5294416"><ele>65.1</ele><time>2015-04-26T13:58:30.0000000+00:00</time></trkpt><trkpt lat="35.1456272" lon="32.5293742"><ele>65.0</ele><time>2015-04-26T13:58:32.0000000+00:00</time></trkpt><trkpt lat="35.145648" lon="32.5294286"><ele>65.9</ele><time>2015-04-26T14:02:41.0000000+00:00</time></trkpt><trkpt lat="35.1456775" lon="32.5294781"><ele>65.9</ele><time>2015-04-26T14:02:45.0000000+00:00</time></trkpt><trkpt lat="35.1456813" lon="32.5295364"><ele>65.4</ele><time>2015-04-26T14:02:48.0000000+00:00</time></trkpt><trkpt lat="35.1456445" lon="32.529568"><ele>65.0</ele><time>2015-04-26T14:02:51.0000000+00:00</time></trkpt><trkpt lat="35.1455886" lon="32.5295484"><ele>64.9</ele><time>2015-04-26T14:02:54.0000000+00:00</time></trkpt><trkpt lat="35.1455425" lon="32.5295136"><ele>64.4</ele><time>2015-04-26T14:02:56.0000000+00:00</time></trkpt><trkpt lat="35.1454921" lon="32.5294771"><ele>64.1</ele><time>2015-04-26T14:02:58.0000000+00:00</time></trkpt><trkpt lat="35.1454328" lon="32.5294465"><ele>63.7</ele><time>2015-04-26T14:03:00.0000000+00:00</time></trkpt><trkpt lat="35.1453684" lon="32.5294103"><ele>63.1</ele><time>2015-04-26T14:03:02.0000000+00:00</time></trkpt><trkpt lat="35.1452955" lon="32.5293644"><ele>63.0</ele><time>2015-04-26T14:03:04.0000000+00:00</time></trkpt><trkpt lat="35.1451846" lon="32.5293018"><ele>63.7</ele><time>2015-04-26T14:03:06.0000000+00:00</time></trkpt><trkpt lat="35.1451317" lon="32.5292736"><ele>63.8</ele><time>2015-04-26T14:03:07.0000000+00:00</time></trkpt><trkpt lat="35.1450848" lon="32.5292501"><ele>63.9</ele><time>2015-04-26T14:03:08.0000000+00:00</time></trkpt><trkpt lat="35.1450333" lon="32.5292244"><ele>63.9</ele><time>2015-04-26T14:03:09.0000000+00:00</time></trkpt><trkpt lat="35.1449918" lon="32.5291836"><ele>63.4</ele><time>2015-04-26T14:03:10.0000000+00:00</time></trkpt><trkpt lat="35.14494" lon="32.5291524"><ele>62.7</ele><time>2015-04-26T14:03:11.0000000+00:00</time></trkpt><trkpt lat="35.1448802" lon="32.5291281"><ele>62.3</ele><time>2015-04-26T14:03:12.0000000+00:00</time></trkpt><trkpt lat="35.1448204" lon="32.5290982"><ele>62.1</ele><time>2015-04-26T14:03:13.0000000+00:00</time></trkpt><trkpt lat="35.1447553" lon="32.5290698"><ele>62.0</ele><time>2015-04-26T14:03:14.0000000+00:00</time></trkpt><trkpt lat="35.1446881" lon="32.5290411"><ele>62.0</ele><time>2015-04-26T14:03:15.0000000+00:00</time></trkpt><trkpt lat="35.1446199" lon="32.5290197"><ele>61.5</ele><time>2015-04-26T14:03:16.0000000+00:00</time></trkpt><trkpt lat="35.1445557" lon="32.5289992"><ele>61.2</ele><time>2015-04-26T14:03:17.0000000+00:00</time></trkpt><trkpt lat="35.1444779" lon="32.5289618"><ele>60.6</ele><time>2015-04-26T14:03:18.0000000+00:00</time></trkpt><trkpt lat="35.1444092" lon="32.5289303"><ele>60.2</ele><time>2015-04-26T14:03:19.0000000+00:00</time></trkpt><trkpt lat="35.144332" lon="32.5289038"><ele>60.6</ele><time>2015-04-26T14:03:20.0000000+00:00</time></trkpt><trkpt lat="35.1442516" lon="32.5288825"><ele>60.8</ele><time>2015-04-26T14:03:21.0000000+00:00</time></trkpt><trkpt lat="35.1441718" lon="32.5288503"><ele>60.8</ele><time>2015-04-26T14:03:22.0000000+00:00</time></trkpt><trkpt lat="35.1440899" lon="32.5288139"><ele>61.4</ele><time>2015-04-26T14:03:23.0000000+00:00</time></trkpt><trkpt lat="35.1440151" lon="32.5287577"><ele>61.7</ele><time>2015-04-26T14:03:24.0000000+00:00</time></trkpt><trkpt lat="35.1439347" lon="32.528718"><ele>61.8</ele><time>2015-04-26T14:03:25.0000000+00:00</time></trkpt><trkpt lat="35.143854" lon="32.528663"><ele>61.9</ele><time>2015-04-26T14:03:26.0000000+00:00</time></trkpt><trkpt lat="35.1437794" lon="32.5285984"><ele>61.4</ele><time>2015-04-26T14:03:27.0000000+00:00</time></trkpt><trkpt lat="35.1437045" lon="32.5285322"><ele>61.7</ele><time>2015-04-26T14:03:28.0000000+00:00</time></trkpt><trkpt lat="35.1436381" lon="32.5284565"><ele>61.3</ele><time>2015-04-26T14:03:29.0000000+00:00</time></trkpt><trkpt lat="35.1435819" lon="32.5283702"><ele>61.1</ele><time>2015-04-26T14:03:30.0000000+00:00</time></trkpt><trkpt lat="35.143525" lon="32.5282774"><ele>60.5</ele><time>2015-04-26T14:03:31.0000000+00:00</time></trkpt><trkpt lat="35.1434684" lon="32.5281817"><ele>60.7</ele><time>2015-04-26T14:03:32.0000000+00:00</time></trkpt><trkpt lat="35.1434159" lon="32.5280953"><ele>60.3</ele><time>2015-04-26T14:03:33.0000000+00:00</time></trkpt><trkpt lat="35.1433716" lon="32.5279894"><ele>60.1</ele><time>2015-04-26T14:03:34.0000000+00:00</time></trkpt><trkpt lat="35.1433307" lon="32.5278936"><ele>60.0</ele><time>2015-04-26T14:03:35.0000000+00:00</time></trkpt><trkpt lat="35.1432838" lon="32.5277789"><ele>59.5</ele><time>2015-04-26T14:03:36.0000000+00:00</time></trkpt><trkpt lat="35.1432437" lon="32.5276752"><ele>59.2</ele><time>2015-04-26T14:03:37.0000000+00:00</time></trkpt><trkpt lat="35.143222" lon="32.5275467"><ele>59.1</ele><time>2015-04-26T14:03:38.0000000+00:00</time></trkpt><trkpt lat="35.1431992" lon="32.5274297"><ele>58.5</ele><time>2015-04-26T14:03:39.0000000+00:00</time></trkpt><trkpt lat="35.14317" lon="32.5273094"><ele>57.7</ele><time>2015-04-26T14:03:40.0000000+00:00</time></trkpt><trkpt lat="35.143144" lon="32.5271909"><ele>56.8</ele><time>2015-04-26T14:03:41.0000000+00:00</time></trkpt><trkpt lat="35.1431094" lon="32.5270744"><ele>56.4</ele><time>2015-04-26T14:03:42.0000000+00:00</time></trkpt><trkpt lat="35.1430664" lon="32.5269668"><ele>56.2</ele><time>2015-04-26T14:03:43.0000000+00:00</time></trkpt><trkpt lat="35.1430168" lon="32.5268609"><ele>56.0</ele><time>2015-04-26T14:03:44.0000000+00:00</time></trkpt><trkpt lat="35.1429591" lon="32.5267646"><ele>55.5</ele><time>2015-04-26T14:03:45.0000000+00:00</time></trkpt><trkpt lat="35.142888" lon="32.5266712"><ele>55.2</ele><time>2015-04-26T14:03:46.0000000+00:00</time></trkpt><trkpt lat="35.1428164" lon="32.5265808"><ele>54.6</ele><time>2015-04-26T14:03:47.0000000+00:00</time></trkpt><trkpt lat="35.1427404" lon="32.526498"><ele>53.7</ele><time>2015-04-26T14:03:48.0000000+00:00</time></trkpt><trkpt lat="35.1426671" lon="32.5264013"><ele>53.3</ele><time>2015-04-26T14:03:49.0000000+00:00</time></trkpt><trkpt lat="35.1426017" lon="32.5262954"><ele>53.6</ele><time>2015-04-26T14:03:50.0000000+00:00</time></trkpt><trkpt lat="35.142545" lon="32.5261814"><ele>53.3</ele><time>2015-04-26T14:03:51.0000000+00:00</time></trkpt><trkpt lat="35.1424861" lon="32.5260699"><ele>52.6</ele><time>2015-04-26T14:03:52.0000000+00:00</time></trkpt><trkpt lat="35.14243" lon="32.525951"><ele>51.8</ele><time>2015-04-26T14:03:53.0000000+00:00</time></trkpt><trkpt lat="35.1423832" lon="32.5258337"><ele>50.8</ele><time>2015-04-26T14:03:54.0000000+00:00</time></trkpt><trkpt lat="35.142333" lon="32.5257109"><ele>50.4</ele><time>2015-04-26T14:03:55.0000000+00:00</time></trkpt><trkpt lat="35.1422984" lon="32.5255867"><ele>49.2</ele><time>2015-04-26T14:03:56.0000000+00:00</time></trkpt><trkpt lat="35.1422758" lon="32.5254634"><ele>47.5</ele><time>2015-04-26T14:03:57.0000000+00:00</time></trkpt><trkpt lat="35.1422605" lon="32.5253405"><ele>47.7</ele><time>2015-04-26T14:03:58.0000000+00:00</time></trkpt><trkpt lat="35.1422389" lon="32.5252291"><ele>46.8</ele><time>2015-04-26T14:03:59.0000000+00:00</time></trkpt><trkpt lat="35.1422113" lon="32.5251288"><ele>45.4</ele><time>2015-04-26T14:04:00.0000000+00:00</time></trkpt><trkpt lat="35.1421857" lon="32.5250385"><ele>45.2</ele><time>2015-04-26T14:04:01.0000000+00:00</time></trkpt><trkpt lat="35.1421533" lon="32.5249363"><ele>45.0</ele><time>2015-04-26T14:04:02.0000000+00:00</time></trkpt><trkpt lat="35.1421156" lon="32.5248471"><ele>44.5</ele><time>2015-04-26T14:04:03.0000000+00:00</time></trkpt><trkpt lat="35.1420819" lon="32.5247552"><ele>43.7</ele><time>2015-04-26T14:04:04.0000000+00:00</time></trkpt><trkpt lat="35.1420535" lon="32.5246732"><ele>43.3</ele><time>2015-04-26T14:04:05.0000000+00:00</time></trkpt><trkpt lat="35.1420138" lon="32.5245904"><ele>43.6</ele><time>2015-04-26T14:04:06.0000000+00:00</time></trkpt><trkpt lat="35.1419836" lon="32.5245012"><ele>43.8</ele><time>2015-04-26T14:04:07.0000000+00:00</time></trkpt><trkpt lat="35.141948" lon="32.5244145"><ele>43.9</ele><time>2015-04-26T14:04:08.0000000+00:00</time></trkpt><trkpt lat="35.1419038" lon="32.5243297"><ele>42.9</ele><time>2015-04-26T14:04:09.0000000+00:00</time></trkpt><trkpt lat="35.141864" lon="32.5242413"><ele>41.9</ele><time>2015-04-26T14:04:10.0000000+00:00</time></trkpt><trkpt lat="35.1418138" lon="32.5241554"><ele>40.9</ele><time>2015-04-26T14:04:11.0000000+00:00</time></trkpt><trkpt lat="35.1417618" lon="32.5240713"><ele>40.4</ele><time>2015-04-26T14:04:12.0000000+00:00</time></trkpt><trkpt lat="35.1417015" lon="32.5239904"><ele>41.2</ele><time>2015-04-26T14:04:13.0000000+00:00</time></trkpt><trkpt lat="35.141638" lon="32.5239118"><ele>41.6</ele><time>2015-04-26T14:04:14.0000000+00:00</time></trkpt><trkpt lat="35.1415784" lon="32.5238317"><ele>41.7</ele><time>2015-04-26T14:04:15.0000000+00:00</time></trkpt><trkpt lat="35.1415208" lon="32.523756"><ele>41.8</ele><time>2015-04-26T14:04:16.0000000+00:00</time></trkpt><trkpt lat="35.1414495" lon="32.5236805"><ele>41.9</ele><time>2015-04-26T14:04:17.0000000+00:00</time></trkpt><trkpt lat="35.1413794" lon="32.523614"><ele>41.4</ele><time>2015-04-26T14:04:18.0000000+00:00</time></trkpt><trkpt lat="35.1413079" lon="32.5235543"><ele>42.2</ele><time>2015-04-26T14:04:19.0000000+00:00</time></trkpt><trkpt lat="35.1412307" lon="32.523482"><ele>44.0</ele><time>2015-04-26T14:04:20.0000000+00:00</time></trkpt><trkpt lat="35.1411595" lon="32.5234276"><ele>45.5</ele><time>2015-04-26T14:04:21.0000000+00:00</time></trkpt><trkpt lat="35.1410868" lon="32.5233772"><ele>45.7</ele><time>2015-04-26T14:04:22.0000000+00:00</time></trkpt><trkpt lat="35.1410091" lon="32.5233221"><ele>47.3</ele><time>2015-04-26T14:04:23.0000000+00:00</time></trkpt><trkpt lat="35.1409452" lon="32.5232806"><ele>47.1</ele><time>2015-04-26T14:04:24.0000000+00:00</time></trkpt><trkpt lat="35.140871" lon="32.5232456"><ele>47.5</ele><time>2015-04-26T14:04:25.0000000+00:00</time></trkpt><trkpt lat="35.1408012" lon="32.5232128"><ele>47.2</ele><time>2015-04-26T14:04:26.0000000+00:00</time></trkpt><trkpt lat="35.14074" lon="32.5231821"><ele>46.6</ele><time>2015-04-26T14:04:27.0000000+00:00</time></trkpt><trkpt lat="35.1406807" lon="32.5231573"><ele>45.3</ele><time>2015-04-26T14:04:28.0000000+00:00</time></trkpt><trkpt lat="35.1406187" lon="32.5231389"><ele>44.6</ele><time>2015-04-26T14:04:29.0000000+00:00</time></trkpt><trkpt lat="35.1405538" lon="32.5231206"><ele>43.3</ele><time>2015-04-26T14:04:30.0000000+00:00</time></trkpt><trkpt lat="35.1404892" lon="32.5231055"><ele>42.6</ele><time>2015-04-26T14:04:31.0000000+00:00</time></trkpt><trkpt lat="35.1404326" lon="32.5230924"><ele>42.3</ele><time>2015-04-26T14:04:32.0000000+00:00</time></trkpt><trkpt lat="35.1403696" lon="32.5230719"><ele>39.6</ele><time>2015-04-26T14:04:33.0000000+00:00</time></trkpt><trkpt lat="35.1403126" lon="32.5230583"><ele>36.3</ele><time>2015-04-26T14:04:34.0000000+00:00</time></trkpt><trkpt lat="35.1402507" lon="32.5230422"><ele>34.1</ele><time>2015-04-26T14:04:35.0000000+00:00</time></trkpt><trkpt lat="35.1401906" lon="32.5230288"><ele>33.0</ele><time>2015-04-26T14:04:36.0000000+00:00</time></trkpt><trkpt lat="35.1401281" lon="32.5230187"><ele>32.5</ele><time>2015-04-26T14:04:37.0000000+00:00</time></trkpt><trkpt lat="35.1400717" lon="32.5230155"><ele>32.2</ele><time>2015-04-26T14:04:38.0000000+00:00</time></trkpt><trkpt lat="35.140015" lon="32.5230112"><ele>32.1</ele><time>2015-04-26T14:04:39.0000000+00:00</time></trkpt><trkpt lat="35.1399654" lon="32.523003"><ele>32.5</ele><time>2015-04-26T14:04:40.0000000+00:00</time></trkpt><trkpt lat="35.1399154" lon="32.5229922"><ele>32.7</ele><time>2015-04-26T14:04:41.0000000+00:00</time></trkpt><trkpt lat="35.1398703" lon="32.5229892"><ele>33.3</ele><time>2015-04-26T14:04:42.0000000+00:00</time></trkpt><trkpt lat="35.1398233" lon="32.5229882"><ele>33.6</ele><time>2015-04-26T14:04:43.0000000+00:00</time></trkpt><trkpt lat="35.1397745" lon="32.5229815"><ele>33.8</ele><time>2015-04-26T14:04:44.0000000+00:00</time></trkpt><trkpt lat="35.1397183" lon="32.5229756"><ele>33.9</ele><time>2015-04-26T14:04:45.0000000+00:00</time></trkpt><trkpt lat="35.1396698" lon="32.5229609"><ele>33.9</ele><time>2015-04-26T14:04:46.0000000+00:00</time></trkpt><trkpt lat="35.1396204" lon="32.5229424"><ele>34.4</ele><time>2015-04-26T14:04:47.0000000+00:00</time></trkpt><trkpt lat="35.1395713" lon="32.5229299"><ele>34.7</ele><time>2015-04-26T14:04:48.0000000+00:00</time></trkpt><trkpt lat="35.1395247" lon="32.522908"><ele>34.8</ele><time>2015-04-26T14:04:49.0000000+00:00</time></trkpt><trkpt lat="35.1394524" lon="32.5228678"><ele>34.4</ele><time>2015-04-26T14:04:51.0000000+00:00</time></trkpt><trkpt lat="35.1393837" lon="32.5228149"><ele>34.0</ele><time>2015-04-26T14:04:53.0000000+00:00</time></trkpt><trkpt lat="35.1393046" lon="32.5227666"><ele>34.0</ele><time>2015-04-26T14:04:55.0000000+00:00</time></trkpt><trkpt lat="35.1392554" lon="32.5227439"><ele>33.4</ele><time>2015-04-26T14:04:56.0000000+00:00</time></trkpt><trkpt lat="35.1392138" lon="32.5227115"><ele>33.2</ele><time>2015-04-26T14:04:57.0000000+00:00</time></trkpt><trkpt lat="35.1391354" lon="32.5226482"><ele>31.7</ele><time>2015-04-26T14:04:59.0000000+00:00</time></trkpt><trkpt lat="35.1390946" lon="32.5226211"><ele>31.3</ele><time>2015-04-26T14:05:00.0000000+00:00</time></trkpt><trkpt lat="35.1390231" lon="32.522574"><ele>29.3</ele><time>2015-04-26T14:05:02.0000000+00:00</time></trkpt><trkpt lat="35.1389551" lon="32.5225378"><ele>28.8</ele><time>2015-04-26T14:05:04.0000000+00:00</time></trkpt><trkpt lat="35.1388998" lon="32.5225124"><ele>29.4</ele><time>2015-04-26T14:05:06.0000000+00:00</time></trkpt><trkpt lat="35.1388312" lon="32.5225012"><ele>31.1</ele><time>2015-04-26T14:05:09.0000000+00:00</time></trkpt><trkpt lat="35.1387779" lon="32.5224903"><ele>31.0</ele><time>2015-04-26T14:05:12.0000000+00:00</time></trkpt><trkpt lat="35.1387311" lon="32.5224684"><ele>31.4</ele><time>2015-04-26T14:05:15.0000000+00:00</time></trkpt><trkpt lat="35.1386839" lon="32.522435"><ele>32.4</ele><time>2015-04-26T14:05:19.0000000+00:00</time></trkpt><trkpt lat="35.1386418" lon="32.5224127"><ele>33.6</ele><time>2015-04-26T14:05:24.0000000+00:00</time></trkpt><trkpt lat="35.1385867" lon="32.5224061"><ele>33.8</ele><time>2015-04-26T14:05:29.0000000+00:00</time></trkpt><trkpt lat="35.1385335" lon="32.5223975"><ele>38.4</ele><time>2015-04-26T14:10:50.0000000+00:00</time></trkpt><trkpt lat="35.1384713" lon="32.5223654"><ele>37.7</ele><time>2015-04-26T14:10:53.0000000+00:00</time></trkpt><trkpt lat="35.1384109" lon="32.5223475"><ele>37.1</ele><time>2015-04-26T14:10:55.0000000+00:00</time></trkpt><trkpt lat="35.1383437" lon="32.5223239"><ele>38.2</ele><time>2015-04-26T14:10:57.0000000+00:00</time></trkpt><trkpt lat="35.1382689" lon="32.5222952"><ele>38.0</ele><time>2015-04-26T14:10:59.0000000+00:00</time></trkpt><trkpt lat="35.1381987" lon="32.5222681"><ele>37.2</ele><time>2015-04-26T14:11:01.0000000+00:00</time></trkpt><trkpt lat="35.1381232" lon="32.5222448"><ele>37.0</ele><time>2015-04-26T14:11:03.0000000+00:00</time></trkpt><trkpt lat="35.1380497" lon="32.5222208"><ele>36.9</ele><time>2015-04-26T14:11:05.0000000+00:00</time></trkpt><trkpt lat="35.1379811" lon="32.5221918"><ele>36.9</ele><time>2015-04-26T14:11:07.0000000+00:00</time></trkpt><trkpt lat="35.1379228" lon="32.5221756"><ele>36.9</ele><time>2015-04-26T14:11:09.0000000+00:00</time></trkpt><trkpt lat="35.1378564" lon="32.5221595"><ele>36.7</ele><time>2015-04-26T14:11:12.0000000+00:00</time></trkpt><trkpt lat="35.1378051" lon="32.5221421"><ele>36.9</ele><time>2015-04-26T14:11:14.0000000+00:00</time></trkpt><trkpt lat="35.1377447" lon="32.522117"><ele>36.4</ele><time>2015-04-26T14:11:16.0000000+00:00</time></trkpt><trkpt lat="35.1376799" lon="32.5220874"><ele>36.1</ele><time>2015-04-26T14:11:18.0000000+00:00</time></trkpt><trkpt lat="35.1376135" lon="32.5220436"><ele>36.7</ele><time>2015-04-26T14:11:20.0000000+00:00</time></trkpt><trkpt lat="35.1375387" lon="32.5220017"><ele>36.9</ele><time>2015-04-26T14:11:22.0000000+00:00</time></trkpt><trkpt lat="35.1374723" lon="32.5219577"><ele>37.7</ele><time>2015-04-26T14:11:24.0000000+00:00</time></trkpt><trkpt lat="35.1374079" lon="32.521904"><ele>37.9</ele><time>2015-04-26T14:11:26.0000000+00:00</time></trkpt><trkpt lat="35.1373411" lon="32.521846"><ele>37.9</ele><time>2015-04-26T14:11:28.0000000+00:00</time></trkpt><trkpt lat="35.1372783" lon="32.5217825"><ele>37.9</ele><time>2015-04-26T14:11:30.0000000+00:00</time></trkpt><trkpt lat="35.1372134" lon="32.5217214"><ele>37.7</ele><time>2015-04-26T14:11:32.0000000+00:00</time></trkpt><trkpt lat="35.1371652" lon="32.5216858"><ele>37.8</ele><time>2015-04-26T14:11:33.0000000+00:00</time></trkpt><trkpt lat="35.1370994" lon="32.5216292"><ele>37.9</ele><time>2015-04-26T14:11:35.0000000+00:00</time></trkpt><trkpt lat="35.1370206" lon="32.5215852"><ele>37.9</ele><time>2015-04-26T14:11:37.0000000+00:00</time></trkpt><trkpt lat="35.13698" lon="32.521559"><ele>37.9</ele><time>2015-04-26T14:11:38.0000000+00:00</time></trkpt><trkpt lat="35.1369366" lon="32.5215316"><ele>37.9</ele><time>2015-04-26T14:11:39.0000000+00:00</time></trkpt><trkpt lat="35.1368649" lon="32.5214892"><ele>38.7</ele><time>2015-04-26T14:11:41.0000000+00:00</time></trkpt><trkpt lat="35.1367943" lon="32.5214533"><ele>38.9</ele><time>2015-04-26T14:11:43.0000000+00:00</time></trkpt><trkpt lat="35.1367173" lon="32.5214142"><ele>39.7</ele><time>2015-04-26T14:11:45.0000000+00:00</time></trkpt><trkpt lat="35.1366454" lon="32.52138"><ele>39.9</ele><time>2015-04-26T14:11:47.0000000+00:00</time></trkpt><trkpt lat="35.1365941" lon="32.5213542"><ele>40.7</ele><time>2015-04-26T14:11:49.0000000+00:00</time></trkpt><trkpt lat="35.1365469" lon="32.5213209"><ele>40.9</ele><time>2015-04-26T14:11:51.0000000+00:00</time></trkpt><trkpt lat="35.1364844" lon="32.5212873"><ele>40.9</ele><time>2015-04-26T14:11:53.0000000+00:00</time></trkpt><trkpt lat="35.1364182" lon="32.521254"><ele>40.9</ele><time>2015-04-26T14:11:55.0000000+00:00</time></trkpt><trkpt lat="35.1363541" lon="32.5212138"><ele>41.4</ele><time>2015-04-26T14:11:57.0000000+00:00</time></trkpt><trkpt lat="35.136295" lon="32.5211744"><ele>41.8</ele><time>2015-04-26T14:11:59.0000000+00:00</time></trkpt><trkpt lat="35.1362381" lon="32.5211322"><ele>41.9</ele><time>2015-04-26T14:12:01.0000000+00:00</time></trkpt><trkpt lat="35.1361751" lon="32.5210977"><ele>41.9</ele><time>2015-04-26T14:12:03.0000000+00:00</time></trkpt><trkpt lat="35.1361052" lon="32.5210606"><ele>41.9</ele><time>2015-04-26T14:12:05.0000000+00:00</time></trkpt><trkpt lat="35.1360333" lon="32.5210222"><ele>41.9</ele><time>2015-04-26T14:12:07.0000000+00:00</time></trkpt><trkpt lat="35.1359599" lon="32.5209873"><ele>41.9</ele><time>2015-04-26T14:12:09.0000000+00:00</time></trkpt><trkpt lat="35.1358839" lon="32.5209527"><ele>41.9</ele><time>2015-04-26T14:12:11.0000000+00:00</time></trkpt><trkpt lat="35.135811" lon="32.5209136"><ele>41.9</ele><time>2015-04-26T14:12:13.0000000+00:00</time></trkpt><trkpt lat="35.1357393" lon="32.520875"><ele>41.4</ele><time>2015-04-26T14:12:15.0000000+00:00</time></trkpt><trkpt lat="35.135666" lon="32.5208457"><ele>41.1</ele><time>2015-04-26T14:12:17.0000000+00:00</time></trkpt><trkpt lat="35.1355924" lon="32.5208143"><ele>41.2</ele><time>2015-04-26T14:12:19.0000000+00:00</time></trkpt><trkpt lat="35.1355188" lon="32.5207792"><ele>41.3</ele><time>2015-04-26T14:12:21.0000000+00:00</time></trkpt><trkpt lat="35.1354444" lon="32.5207417"><ele>41.0</ele><time>2015-04-26T14:12:23.0000000+00:00</time></trkpt><trkpt lat="35.1353675" lon="32.5207106"><ele>41.0</ele><time>2015-04-26T14:12:25.0000000+00:00</time></trkpt><trkpt lat="35.1352701" lon="32.5206699"><ele>40.9</ele><time>2015-04-26T14:12:27.0000000+00:00</time></trkpt><trkpt lat="35.1352282" lon="32.5206439"><ele>40.9</ele><time>2015-04-26T14:12:28.0000000+00:00</time></trkpt><trkpt lat="35.1351762" lon="32.5206303"><ele>40.9</ele><time>2015-04-26T14:12:29.0000000+00:00</time></trkpt><trkpt lat="35.1351262" lon="32.520618"><ele>40.9</ele><time>2015-04-26T14:12:30.0000000+00:00</time></trkpt><trkpt lat="35.1350747" lon="32.5205912"><ele>39.9</ele><time>2015-04-26T14:12:31.0000000+00:00</time></trkpt><trkpt lat="35.1350222" lon="32.5205685"><ele>39.4</ele><time>2015-04-26T14:12:32.0000000+00:00</time></trkpt><trkpt lat="35.134967" lon="32.5205392"><ele>38.7</ele><time>2015-04-26T14:12:33.0000000+00:00</time></trkpt><trkpt lat="35.1349079" lon="32.5205172"><ele>37.8</ele><time>2015-04-26T14:12:34.0000000+00:00</time></trkpt><trkpt lat="35.1348513" lon="32.5204916"><ele>37.4</ele><time>2015-04-26T14:12:35.0000000+00:00</time></trkpt><trkpt lat="35.1347844" lon="32.520471"><ele>37.1</ele><time>2015-04-26T14:12:36.0000000+00:00</time></trkpt><trkpt lat="35.1347062" lon="32.5204453"><ele>37.0</ele><time>2015-04-26T14:12:37.0000000+00:00</time></trkpt><trkpt lat="35.1346378" lon="32.5204255"><ele>37.5</ele><time>2015-04-26T14:12:38.0000000+00:00</time></trkpt><trkpt lat="35.1345679" lon="32.5204102"><ele>37.2</ele><time>2015-04-26T14:12:39.0000000+00:00</time></trkpt><trkpt lat="35.1344971" lon="32.5203832"><ele>37.1</ele><time>2015-04-26T14:12:40.0000000+00:00</time></trkpt><trkpt lat="35.1344366" lon="32.5203708"><ele>36.0</ele><time>2015-04-26T14:12:41.0000000+00:00</time></trkpt><trkpt lat="35.1343592" lon="32.5203596"><ele>35.5</ele><time>2015-04-26T14:12:42.0000000+00:00</time></trkpt><trkpt lat="35.1342861" lon="32.5203497"><ele>34.7</ele><time>2015-04-26T14:12:43.0000000+00:00</time></trkpt><trkpt lat="35.1342016" lon="32.5203412"><ele>34.3</ele><time>2015-04-26T14:12:44.0000000+00:00</time></trkpt><trkpt lat="35.1341184" lon="32.5203351"><ele>34.1</ele><time>2015-04-26T14:12:45.0000000+00:00</time></trkpt><trkpt lat="35.1340368" lon="32.5203206"><ele>33.5</ele><time>2015-04-26T14:12:46.0000000+00:00</time></trkpt><trkpt lat="35.1339451" lon="32.520304"><ele>33.2</ele><time>2015-04-26T14:12:47.0000000+00:00</time></trkpt><trkpt lat="35.1338573" lon="32.5202809"><ele>33.1</ele><time>2015-04-26T14:12:48.0000000+00:00</time></trkpt><trkpt lat="35.1337759" lon="32.5202653"><ele>32.5</ele><time>2015-04-26T14:12:49.0000000+00:00</time></trkpt><trkpt lat="35.13368" lon="32.5202427"><ele>31.7</ele><time>2015-04-26T14:12:50.0000000+00:00</time></trkpt><trkpt lat="35.1335837" lon="32.5202133"><ele>31.8</ele><time>2015-04-26T14:12:51.0000000+00:00</time></trkpt><trkpt lat="35.1334878" lon="32.5201829"><ele>31.9</ele><time>2015-04-26T14:12:52.0000000+00:00</time></trkpt><trkpt lat="35.1333932" lon="32.5201452"><ele>31.9</ele><time>2015-04-26T14:12:53.0000000+00:00</time></trkpt><trkpt lat="35.1332968" lon="32.5201011"><ele>31.9</ele><time>2015-04-26T14:12:54.0000000+00:00</time></trkpt><trkpt lat="35.1332003" lon="32.520054"><ele>31.9</ele><time>2015-04-26T14:12:55.0000000+00:00</time></trkpt><trkpt lat="35.1331103" lon="32.5199996"><ele>31.4</ele><time>2015-04-26T14:12:56.0000000+00:00</time></trkpt><trkpt lat="35.1330298" lon="32.51995"><ele>31.2</ele><time>2015-04-26T14:12:57.0000000+00:00</time></trkpt><trkpt lat="35.1329386" lon="32.5198928"><ele>30.6</ele><time>2015-04-26T14:12:58.0000000+00:00</time></trkpt><trkpt lat="35.1328588" lon="32.519825"><ele>30.7</ele><time>2015-04-26T14:12:59.0000000+00:00</time></trkpt><trkpt lat="35.1327763" lon="32.5197512"><ele>30.3</ele><time>2015-04-26T14:13:00.0000000+00:00</time></trkpt><trkpt lat="35.1326989" lon="32.5196799"><ele>30.1</ele><time>2015-04-26T14:13:01.0000000+00:00</time></trkpt><trkpt lat="35.1326297" lon="32.5196008"><ele>29.5</ele><time>2015-04-26T14:13:02.0000000+00:00</time></trkpt><trkpt lat="35.132556" lon="32.5195245"><ele>29.7</ele><time>2015-04-26T14:13:03.0000000+00:00</time></trkpt><trkpt lat="35.1324829" lon="32.5194484"><ele>29.8</ele><time>2015-04-26T14:13:04.0000000+00:00</time></trkpt><trkpt lat="35.1324306" lon="32.5193745"><ele>29.4</ele><time>2015-04-26T14:13:05.0000000+00:00</time></trkpt><trkpt lat="35.1323728" lon="32.5193042"><ele>28.2</ele><time>2015-04-26T14:13:06.0000000+00:00</time></trkpt><trkpt lat="35.1323025" lon="32.5192318"><ele>27.5</ele><time>2015-04-26T14:13:07.0000000+00:00</time></trkpt><trkpt lat="35.1322404" lon="32.5191523"><ele>27.2</ele><time>2015-04-26T14:13:08.0000000+00:00</time></trkpt><trkpt lat="35.1321787" lon="32.519073"><ele>26.6</ele><time>2015-04-26T14:13:09.0000000+00:00</time></trkpt><trkpt lat="35.1321176" lon="32.5190104"><ele>25.8</ele><time>2015-04-26T14:13:10.0000000+00:00</time></trkpt><trkpt lat="35.1320492" lon="32.5189427"><ele>25.3</ele><time>2015-04-26T14:13:11.0000000+00:00</time></trkpt><trkpt lat="35.1319908" lon="32.5188794"><ele>24.6</ele><time>2015-04-26T14:13:12.0000000+00:00</time></trkpt><trkpt lat="35.1319226" lon="32.5188204"><ele>23.8</ele><time>2015-04-26T14:13:13.0000000+00:00</time></trkpt><trkpt lat="35.1318539" lon="32.5187673"><ele>23.4</ele><time>2015-04-26T14:13:14.0000000+00:00</time></trkpt><trkpt lat="35.1317878" lon="32.5187161"><ele>23.1</ele><time>2015-04-26T14:13:15.0000000+00:00</time></trkpt><trkpt lat="35.1317143" lon="32.5186658"><ele>23.0</ele><time>2015-04-26T14:13:16.0000000+00:00</time></trkpt><trkpt lat="35.1316492" lon="32.5186166"><ele>23.0</ele><time>2015-04-26T14:13:17.0000000+00:00</time></trkpt><trkpt lat="35.1315824" lon="32.5185677"><ele>23.5</ele><time>2015-04-26T14:13:18.0000000+00:00</time></trkpt><trkpt lat="35.131516" lon="32.518533"><ele>23.7</ele><time>2015-04-26T14:13:19.0000000+00:00</time></trkpt><trkpt lat="35.1314468" lon="32.5185057"><ele>23.8</ele><time>2015-04-26T14:13:20.0000000+00:00</time></trkpt><trkpt lat="35.1313792" lon="32.5184652"><ele>23.9</ele><time>2015-04-26T14:13:21.0000000+00:00</time></trkpt><trkpt lat="35.1313035" lon="32.5184469"><ele>24.4</ele><time>2015-04-26T14:13:22.0000000+00:00</time></trkpt><trkpt lat="35.1312382" lon="32.5184132"><ele>24.7</ele><time>2015-04-26T14:13:23.0000000+00:00</time></trkpt><trkpt lat="35.1311733" lon="32.5183904"><ele>24.3</ele><time>2015-04-26T14:13:24.0000000+00:00</time></trkpt><trkpt lat="35.1311087" lon="32.5183621"><ele>24.1</ele><time>2015-04-26T14:13:25.0000000+00:00</time></trkpt><trkpt lat="35.1310536" lon="32.518343"><ele>23.0</ele><time>2015-04-26T14:13:26.0000000+00:00</time></trkpt><trkpt lat="35.1309894" lon="32.5183206"><ele>22.0</ele><time>2015-04-26T14:13:27.0000000+00:00</time></trkpt><trkpt lat="35.130928" lon="32.5182912"><ele>21.0</ele><time>2015-04-26T14:13:28.0000000+00:00</time></trkpt><trkpt lat="35.1308846" lon="32.5182561"><ele>19.4</ele><time>2015-04-26T14:13:29.0000000+00:00</time></trkpt><trkpt lat="35.1308164" lon="32.5182377"><ele>19.2</ele><time>2015-04-26T14:13:30.0000000+00:00</time></trkpt><trkpt lat="35.1307548" lon="32.5182157"><ele>20.1</ele><time>2015-04-26T14:13:31.0000000+00:00</time></trkpt><trkpt lat="35.1306895" lon="32.5181918"><ele>20.5</ele><time>2015-04-26T14:13:32.0000000+00:00</time></trkpt><trkpt lat="35.1306277" lon="32.5181713"><ele>21.2</ele><time>2015-04-26T14:13:33.0000000+00:00</time></trkpt><trkpt lat="35.1305665" lon="32.5181332"><ele>22.1</ele><time>2015-04-26T14:13:34.0000000+00:00</time></trkpt><trkpt lat="35.1305112" lon="32.5181109"><ele>22.5</ele><time>2015-04-26T14:13:35.0000000+00:00</time></trkpt><trkpt lat="35.1304584" lon="32.518083"><ele>23.2</ele><time>2015-04-26T14:13:36.0000000+00:00</time></trkpt><trkpt lat="35.1304018" lon="32.5180547"><ele>23.6</ele><time>2015-04-26T14:13:37.0000000+00:00</time></trkpt><trkpt lat="35.130347" lon="32.5180277"><ele>23.8</ele><time>2015-04-26T14:13:38.0000000+00:00</time></trkpt><trkpt lat="35.1302954" lon="32.517998"><ele>23.8</ele><time>2015-04-26T14:13:39.0000000+00:00</time></trkpt><trkpt lat="35.1302123" lon="32.5179439"><ele>22.7</ele><time>2015-04-26T14:13:41.0000000+00:00</time></trkpt><trkpt lat="35.1301617" lon="32.517909"><ele>22.3</ele><time>2015-04-26T14:13:42.0000000+00:00</time></trkpt><trkpt lat="35.1301115" lon="32.5178835"><ele>21.6</ele><time>2015-04-26T14:13:43.0000000+00:00</time></trkpt><trkpt lat="35.1300684" lon="32.5178498"><ele>20.8</ele><time>2015-04-26T14:13:44.0000000+00:00</time></trkpt><trkpt lat="35.1300107" lon="32.5178243"><ele>20.4</ele><time>2015-04-26T14:13:45.0000000+00:00</time></trkpt><trkpt lat="35.1299604" lon="32.5177833"><ele>20.1</ele><time>2015-04-26T14:13:46.0000000+00:00</time></trkpt><trkpt lat="35.129904" lon="32.5177556"><ele>20.5</ele><time>2015-04-26T14:13:47.0000000+00:00</time></trkpt><trkpt lat="35.1298626" lon="32.5177196"><ele>20.7</ele><time>2015-04-26T14:13:48.0000000+00:00</time></trkpt><trkpt lat="35.1298145" lon="32.5176866"><ele>20.8</ele><time>2015-04-26T14:13:49.0000000+00:00</time></trkpt><trkpt lat="35.1297626" lon="32.5176532"><ele>20.9</ele><time>2015-04-26T14:13:50.0000000+00:00</time></trkpt><trkpt lat="35.1297109" lon="32.5176158"><ele>20.9</ele><time>2015-04-26T14:13:51.0000000+00:00</time></trkpt><trkpt lat="35.1296658" lon="32.5175786"><ele>21.4</ele><time>2015-04-26T14:13:52.0000000+00:00</time></trkpt><trkpt lat="35.1296215" lon="32.5175451"><ele>21.2</ele><time>2015-04-26T14:13:53.0000000+00:00</time></trkpt><trkpt lat="35.1295856" lon="32.5175049"><ele>20.6</ele><time>2015-04-26T14:13:54.0000000+00:00</time></trkpt><trkpt lat="35.1295344" lon="32.5174641"><ele>19.7</ele><time>2015-04-26T14:13:55.0000000+00:00</time></trkpt><trkpt lat="35.1294914" lon="32.517424"><ele>19.3</ele><time>2015-04-26T14:13:56.0000000+00:00</time></trkpt><trkpt lat="35.129448" lon="32.5173917"><ele>18.6</ele><time>2015-04-26T14:13:57.0000000+00:00</time></trkpt><trkpt lat="35.1294067" lon="32.5173586"><ele>18.3</ele><time>2015-04-26T14:13:58.0000000+00:00</time></trkpt><trkpt lat="35.1293609" lon="32.5173206"><ele>18.1</ele><time>2015-04-26T14:13:59.0000000+00:00</time></trkpt><trkpt lat="35.1293121" lon="32.5172916"><ele>18.0</ele><time>2015-04-26T14:14:00.0000000+00:00</time></trkpt><trkpt lat="35.1292694" lon="32.5172583"><ele>18.0</ele><time>2015-04-26T14:14:01.0000000+00:00</time></trkpt><trkpt lat="35.1292282" lon="32.5172237"><ele>17.5</ele><time>2015-04-26T14:14:02.0000000+00:00</time></trkpt><trkpt lat="35.1291864" lon="32.5171928"><ele>16.7</ele><time>2015-04-26T14:14:03.0000000+00:00</time></trkpt><trkpt lat="35.1291456" lon="32.5171598"><ele>16.8</ele><time>2015-04-26T14:14:04.0000000+00:00</time></trkpt><trkpt lat="35.1291014" lon="32.5171309"><ele>17.4</ele><time>2015-04-26T14:14:05.0000000+00:00</time></trkpt><trkpt lat="35.1290574" lon="32.5171"><ele>17.7</ele><time>2015-04-26T14:14:06.0000000+00:00</time></trkpt><trkpt lat="35.1290068" lon="32.517064"><ele>17.8</ele><time>2015-04-26T14:14:07.0000000+00:00</time></trkpt><trkpt lat="35.1289564" lon="32.5170286"><ele>17.9</ele><time>2015-04-26T14:14:08.0000000+00:00</time></trkpt><trkpt lat="35.1289103" lon="32.5170021"><ele>17.9</ele><time>2015-04-26T14:14:09.0000000+00:00</time></trkpt><trkpt lat="35.1288617" lon="32.5169799"><ele>17.9</ele><time>2015-04-26T14:14:10.0000000+00:00</time></trkpt><trkpt lat="35.1288061" lon="32.5169548"><ele>17.9</ele><time>2015-04-26T14:14:11.0000000+00:00</time></trkpt><trkpt lat="35.1287586" lon="32.5169299"><ele>18.4</ele><time>2015-04-26T14:14:12.0000000+00:00</time></trkpt><trkpt lat="35.128714" lon="32.5168977"><ele>18.7</ele><time>2015-04-26T14:14:13.0000000+00:00</time></trkpt><trkpt lat="35.1286705" lon="32.5168751"><ele>19.3</ele><time>2015-04-26T14:14:14.0000000+00:00</time></trkpt><trkpt lat="35.128628" lon="32.5168477"><ele>19.1</ele><time>2015-04-26T14:14:15.0000000+00:00</time></trkpt><trkpt lat="35.128583" lon="32.5168238"><ele>19.0</ele><time>2015-04-26T14:14:16.0000000+00:00</time></trkpt><trkpt lat="35.1285378" lon="32.5168135"><ele>19.0</ele><time>2015-04-26T14:14:17.0000000+00:00</time></trkpt><trkpt lat="35.1284963" lon="32.5167915"><ele>20.0</ele><time>2015-04-26T14:14:18.0000000+00:00</time></trkpt><trkpt lat="35.1284335" lon="32.5167506"><ele>19.9</ele><time>2015-04-26T14:14:20.0000000+00:00</time></trkpt><trkpt lat="35.1283884" lon="32.5167417"><ele>19.9</ele><time>2015-04-26T14:14:21.0000000+00:00</time></trkpt><trkpt lat="35.1283413" lon="32.5167195"><ele>19.9</ele><time>2015-04-26T14:14:22.0000000+00:00</time></trkpt><trkpt lat="35.1282578" lon="32.5166858"><ele>19.9</ele><time>2015-04-26T14:14:24.0000000+00:00</time></trkpt><trkpt lat="35.1281711" lon="32.5166544"><ele>20.2</ele><time>2015-04-26T14:14:26.0000000+00:00</time></trkpt><trkpt lat="35.1281285" lon="32.5166266"><ele>20.6</ele><time>2015-04-26T14:14:27.0000000+00:00</time></trkpt><trkpt lat="35.1280804" lon="32.5165939"><ele>20.2</ele><time>2015-04-26T14:14:28.0000000+00:00</time></trkpt><trkpt lat="35.1280299" lon="32.5165751"><ele>20.1</ele><time>2015-04-26T14:14:29.0000000+00:00</time></trkpt><trkpt lat="35.1279719" lon="32.5165543"><ele>20.0</ele><time>2015-04-26T14:14:30.0000000+00:00</time></trkpt><trkpt lat="35.1279245" lon="32.5165371"><ele>20.5</ele><time>2015-04-26T14:14:31.0000000+00:00</time></trkpt><trkpt lat="35.1278555" lon="32.5164785"><ele>20.3</ele><time>2015-04-26T14:14:33.0000000+00:00</time></trkpt><trkpt lat="35.1277932" lon="32.5164331"><ele>20.3</ele><time>2015-04-26T14:14:35.0000000+00:00</time></trkpt><trkpt lat="35.1277146" lon="32.5164036"><ele>19.3</ele><time>2015-04-26T14:14:37.0000000+00:00</time></trkpt><trkpt lat="35.127626" lon="32.5163546"><ele>18.8</ele><time>2015-04-26T14:14:39.0000000+00:00</time></trkpt><trkpt lat="35.1275806" lon="32.5163362"><ele>18.8</ele><time>2015-04-26T14:14:40.0000000+00:00</time></trkpt><trkpt lat="35.1275326" lon="32.5163194"><ele>18.9</ele><time>2015-04-26T14:14:41.0000000+00:00</time></trkpt><trkpt lat="35.1274886" lon="32.516292"><ele>18.9</ele><time>2015-04-26T14:14:42.0000000+00:00</time></trkpt><trkpt lat="35.1274436" lon="32.516277"><ele>19.4</ele><time>2015-04-26T14:14:43.0000000+00:00</time></trkpt><trkpt lat="35.1273611" lon="32.5162261"><ele>19.8</ele><time>2015-04-26T14:14:45.0000000+00:00</time></trkpt><trkpt lat="35.1273174" lon="32.5162092"><ele>20.4</ele><time>2015-04-26T14:14:46.0000000+00:00</time></trkpt><trkpt lat="35.1272639" lon="32.5161882"><ele>20.6</ele><time>2015-04-26T14:14:47.0000000+00:00</time></trkpt><trkpt lat="35.127215" lon="32.516171"><ele>20.8</ele><time>2015-04-26T14:14:48.0000000+00:00</time></trkpt><trkpt lat="35.1271394" lon="32.5161353"><ele>20.9</ele><time>2015-04-26T14:14:50.0000000+00:00</time></trkpt><trkpt lat="35.1270856" lon="32.5160839"><ele>19.2</ele><time>2015-04-26T14:14:52.0000000+00:00</time></trkpt><trkpt lat="35.1270187" lon="32.5160505"><ele>17.2</ele><time>2015-04-26T14:14:55.0000000+00:00</time></trkpt><trkpt lat="35.1269672" lon="32.5160234"><ele>17.0</ele><time>2015-04-26T14:14:57.0000000+00:00</time></trkpt><trkpt lat="35.1269209" lon="32.5159845"><ele>17.2</ele><time>2015-04-26T14:14:59.0000000+00:00</time></trkpt><trkpt lat="35.1268689" lon="32.5159534"><ele>17.0</ele><time>2015-04-26T14:15:01.0000000+00:00</time></trkpt><trkpt lat="35.1268164" lon="32.5159246"><ele>17.4</ele><time>2015-04-26T14:15:03.0000000+00:00</time></trkpt><trkpt lat="35.1267675" lon="32.5159023"><ele>17.8</ele><time>2015-04-26T14:15:05.0000000+00:00</time></trkpt><trkpt lat="35.1267221" lon="32.515874"><ele>17.9</ele><time>2015-04-26T14:15:07.0000000+00:00</time></trkpt><trkpt lat="35.1266749" lon="32.5158427"><ele>19.2</ele><time>2015-04-26T14:15:09.0000000+00:00</time></trkpt><trkpt lat="35.1266159" lon="32.5158158"><ele>20.2</ele><time>2015-04-26T14:15:11.0000000+00:00</time></trkpt><trkpt lat="35.126541" lon="32.5157879"><ele>20.0</ele><time>2015-04-26T14:15:13.0000000+00:00</time></trkpt><trkpt lat="35.1264593" lon="32.5157619"><ele>20.2</ele><time>2015-04-26T14:15:15.0000000+00:00</time></trkpt><trkpt lat="35.1263807" lon="32.5157345"><ele>18.7</ele><time>2015-04-26T14:15:17.0000000+00:00</time></trkpt><trkpt lat="35.1263036" lon="32.5157162"><ele>18.1</ele><time>2015-04-26T14:15:19.0000000+00:00</time></trkpt><trkpt lat="35.1262194" lon="32.5157184"><ele>18.0</ele><time>2015-04-26T14:15:21.0000000+00:00</time></trkpt><trkpt lat="35.126133" lon="32.5157265"><ele>18.7</ele><time>2015-04-26T14:15:23.0000000+00:00</time></trkpt><trkpt lat="35.1260477" lon="32.515746"><ele>19.4</ele><time>2015-04-26T14:15:25.0000000+00:00</time></trkpt><trkpt lat="35.1259642" lon="32.5157711"><ele>19.8</ele><time>2015-04-26T14:15:27.0000000+00:00</time></trkpt><trkpt lat="35.1258866" lon="32.5158003"><ele>19.9</ele><time>2015-04-26T14:15:29.0000000+00:00</time></trkpt><trkpt lat="35.1258124" lon="32.5158284"><ele>20.4</ele><time>2015-04-26T14:15:31.0000000+00:00</time></trkpt><trkpt lat="35.1257353" lon="32.5158551"><ele>20.8</ele><time>2015-04-26T14:15:33.0000000+00:00</time></trkpt><trkpt lat="35.1256595" lon="32.5158774"><ele>22.1</ele><time>2015-04-26T14:15:35.0000000+00:00</time></trkpt><trkpt lat="35.1256152" lon="32.5158908"><ele>22.0</ele><time>2015-04-26T14:15:36.0000000+00:00</time></trkpt><trkpt lat="35.1255341" lon="32.5159205"><ele>21.5</ele><time>2015-04-26T14:15:38.0000000+00:00</time></trkpt><trkpt lat="35.1254675" lon="32.5159471"><ele>21.6</ele><time>2015-04-26T14:15:40.0000000+00:00</time></trkpt><trkpt lat="35.1253913" lon="32.5159829"><ele>21.8</ele><time>2015-04-26T14:15:42.0000000+00:00</time></trkpt><trkpt lat="35.125317" lon="32.516001"><ele>20.9</ele><time>2015-04-26T14:15:44.0000000+00:00</time></trkpt><trkpt lat="35.1252599" lon="32.5160101"><ele>20.9</ele><time>2015-04-26T14:15:46.0000000+00:00</time></trkpt><trkpt lat="35.1252033" lon="32.5160302"><ele>21.7</ele><time>2015-04-26T14:15:48.0000000+00:00</time></trkpt><trkpt lat="35.1251521" lon="32.5160468"><ele>21.9</ele><time>2015-04-26T14:15:50.0000000+00:00</time></trkpt><trkpt lat="35.125106" lon="32.5160564"><ele>21.9</ele><time>2015-04-26T14:15:52.0000000+00:00</time></trkpt><trkpt lat="35.1250557" lon="32.5160698"><ele>23.2</ele><time>2015-04-26T14:15:54.0000000+00:00</time></trkpt><trkpt lat="35.1249975" lon="32.5160934"><ele>23.2</ele><time>2015-04-26T14:15:56.0000000+00:00</time></trkpt><trkpt lat="35.1249308" lon="32.5161197"><ele>23.0</ele><time>2015-04-26T14:15:58.0000000+00:00</time></trkpt><trkpt lat="35.1248582" lon="32.5161451"><ele>22.4</ele><time>2015-04-26T14:16:00.0000000+00:00</time></trkpt><trkpt lat="35.1247856" lon="32.5161646"><ele>22.6</ele><time>2015-04-26T14:16:02.0000000+00:00</time></trkpt><trkpt lat="35.1247119" lon="32.5161832"><ele>23.3</ele><time>2015-04-26T14:16:04.0000000+00:00</time></trkpt><trkpt lat="35.124638" lon="32.5162074"><ele>23.8</ele><time>2015-04-26T14:16:06.0000000+00:00</time></trkpt><trkpt lat="35.1245623" lon="32.5162283"><ele>23.1</ele><time>2015-04-26T14:16:08.0000000+00:00</time></trkpt><trkpt lat="35.124487" lon="32.5162537"><ele>23.0</ele><time>2015-04-26T14:16:10.0000000+00:00</time></trkpt><trkpt lat="35.1244113" lon="32.5162796"><ele>22.2</ele><time>2015-04-26T14:16:12.0000000+00:00</time></trkpt><trkpt lat="35.1243492" lon="32.5162932"><ele>22.1</ele><time>2015-04-26T14:16:13.0000000+00:00</time></trkpt><trkpt lat="35.124271" lon="32.5163063"><ele>21.2</ele><time>2015-04-26T14:16:15.0000000+00:00</time></trkpt><trkpt lat="35.1242258" lon="32.5163168"><ele>21.1</ele><time>2015-04-26T14:16:16.0000000+00:00</time></trkpt><trkpt lat="35.1241439" lon="32.5163163"><ele>21.7</ele><time>2015-04-26T14:16:18.0000000+00:00</time></trkpt><trkpt lat="35.1240701" lon="32.516292"><ele>21.4</ele><time>2015-04-26T14:16:20.0000000+00:00</time></trkpt><trkpt lat="35.1239997" lon="32.5162618"><ele>21.0</ele><time>2015-04-26T14:16:22.0000000+00:00</time></trkpt><trkpt lat="35.1239404" lon="32.5162422"><ele>21.0</ele><time>2015-04-26T14:16:24.0000000+00:00</time></trkpt><trkpt lat="35.1238841" lon="32.5162137"><ele>20.4</ele><time>2015-04-26T14:16:26.0000000+00:00</time></trkpt><trkpt lat="35.12383" lon="32.5161818"><ele>20.8</ele><time>2015-04-26T14:16:28.0000000+00:00</time></trkpt><trkpt lat="35.1237766" lon="32.5161464"><ele>20.9</ele><time>2015-04-26T14:16:30.0000000+00:00</time></trkpt><trkpt lat="35.123725" lon="32.5161005"><ele>20.2</ele><time>2015-04-26T14:16:32.0000000+00:00</time></trkpt><trkpt lat="35.1236698" lon="32.5160498"><ele>20.5</ele><time>2015-04-26T14:16:34.0000000+00:00</time></trkpt><trkpt lat="35.1236084" lon="32.5159973"><ele>20.8</ele><time>2015-04-26T14:16:36.0000000+00:00</time></trkpt><trkpt lat="35.1235469" lon="32.5159402"><ele>21.7</ele><time>2015-04-26T14:16:38.0000000+00:00</time></trkpt><trkpt lat="35.1234815" lon="32.5158806"><ele>21.9</ele><time>2015-04-26T14:16:40.0000000+00:00</time></trkpt><trkpt lat="35.123416" lon="32.5158152"><ele>21.4</ele><time>2015-04-26T14:16:42.0000000+00:00</time></trkpt><trkpt lat="35.1233482" lon="32.51576"><ele>21.2</ele><time>2015-04-26T14:16:43.0000000+00:00</time></trkpt><trkpt lat="35.1233112" lon="32.5157241"><ele>20.6</ele><time>2015-04-26T14:16:44.0000000+00:00</time></trkpt><trkpt lat="35.1232743" lon="32.515685"><ele>20.2</ele><time>2015-04-26T14:16:45.0000000+00:00</time></trkpt><trkpt lat="35.1232445" lon="32.5156342"><ele>20.1</ele><time>2015-04-26T14:16:46.0000000+00:00</time></trkpt><trkpt lat="35.1232035" lon="32.5155964"><ele>20.0</ele><time>2015-04-26T14:16:47.0000000+00:00</time></trkpt><trkpt lat="35.1231572" lon="32.5155481"><ele>19.5</ele><time>2015-04-26T14:16:48.0000000+00:00</time></trkpt><trkpt lat="35.1231239" lon="32.5155052"><ele>19.2</ele><time>2015-04-26T14:16:49.0000000+00:00</time></trkpt><trkpt lat="35.1230884" lon="32.5154618"><ele>19.1</ele><time>2015-04-26T14:16:50.0000000+00:00</time></trkpt><trkpt lat="35.123047" lon="32.5154298"><ele>19.0</ele><time>2015-04-26T14:16:51.0000000+00:00</time></trkpt><trkpt lat="35.123004" lon="32.5153949"><ele>19.0</ele><time>2015-04-26T14:16:52.0000000+00:00</time></trkpt><trkpt lat="35.1229641" lon="32.515355"><ele>18.9</ele><time>2015-04-26T14:16:53.0000000+00:00</time></trkpt><trkpt lat="35.1229232" lon="32.5153147"><ele>18.9</ele><time>2015-04-26T14:16:54.0000000+00:00</time></trkpt><trkpt lat="35.1228872" lon="32.5152763"><ele>18.4</ele><time>2015-04-26T14:16:55.0000000+00:00</time></trkpt><trkpt lat="35.1228303" lon="32.5152329"><ele>18.2</ele><time>2015-04-26T14:16:56.0000000+00:00</time></trkpt><trkpt lat="35.1227876" lon="32.5152066"><ele>18.1</ele><time>2015-04-26T14:16:57.0000000+00:00</time></trkpt><trkpt lat="35.1227458" lon="32.5151786"><ele>18.5</ele><time>2015-04-26T14:16:58.0000000+00:00</time></trkpt><trkpt lat="35.1226797" lon="32.5151249"><ele>18.8</ele><time>2015-04-26T14:17:00.0000000+00:00</time></trkpt><trkpt lat="35.1226307" lon="32.5150858"><ele>18.9</ele><time>2015-04-26T14:17:02.0000000+00:00</time></trkpt><trkpt lat="35.1225818" lon="32.5150458"><ele>18.9</ele><time>2015-04-26T14:17:06.0000000+00:00</time></trkpt><trkpt lat="35.1225489" lon="32.5149942"><ele>19.8</ele><time>2015-04-26T14:17:09.0000000+00:00</time></trkpt><trkpt lat="35.1225386" lon="32.514937"><ele>19.9</ele><time>2015-04-26T14:17:12.0000000+00:00</time></trkpt><trkpt lat="35.1225839" lon="32.514897"><ele>19.2</ele><time>2015-04-26T14:17:15.0000000+00:00</time></trkpt><trkpt lat="35.122543" lon="32.5149221"><ele>22.1</ele><time>2015-04-26T14:19:43.0000000+00:00</time></trkpt><trkpt lat="35.1224878" lon="32.5149336"><ele>24.4</ele><time>2015-04-26T14:20:00.0000000+00:00</time></trkpt><trkpt lat="35.1224198" lon="32.5149212"><ele>22.4</ele><time>2015-04-26T14:20:03.0000000+00:00</time></trkpt><trkpt lat="35.1223682" lon="32.514884"><ele>21.8</ele><time>2015-04-26T14:20:05.0000000+00:00</time></trkpt><trkpt lat="35.1223271" lon="32.5148356"><ele>21.9</ele><time>2015-04-26T14:20:07.0000000+00:00</time></trkpt><trkpt lat="35.1222873" lon="32.5147878"><ele>21.9</ele><time>2015-04-26T14:20:09.0000000+00:00</time></trkpt><trkpt lat="35.1222436" lon="32.5147467"><ele>21.9</ele><time>2015-04-26T14:20:11.0000000+00:00</time></trkpt><trkpt lat="35.1221994" lon="32.5147074"><ele>21.4</ele><time>2015-04-26T14:20:13.0000000+00:00</time></trkpt><trkpt lat="35.1221472" lon="32.5146656"><ele>21.1</ele><time>2015-04-26T14:20:15.0000000+00:00</time></trkpt><trkpt lat="35.1220781" lon="32.5146095"><ele>20.5</ele><time>2015-04-26T14:20:17.0000000+00:00</time></trkpt><trkpt lat="35.1220114" lon="32.5145589"><ele>19.3</ele><time>2015-04-26T14:20:19.0000000+00:00</time></trkpt><trkpt lat="35.121946" lon="32.5145166"><ele>18.3</ele><time>2015-04-26T14:20:21.0000000+00:00</time></trkpt><trkpt lat="35.1218815" lon="32.5144757"><ele>18.8</ele><time>2015-04-26T14:20:23.0000000+00:00</time></trkpt><trkpt lat="35.1218148" lon="32.5144419"><ele>18.1</ele><time>2015-04-26T14:20:25.0000000+00:00</time></trkpt><trkpt lat="35.1217443" lon="32.5144098"><ele>18.5</ele><time>2015-04-26T14:20:27.0000000+00:00</time></trkpt><trkpt lat="35.1216753" lon="32.5143796"><ele>18.8</ele><time>2015-04-26T14:20:29.0000000+00:00</time></trkpt><trkpt lat="35.1216088" lon="32.5143477"><ele>18.9</ele><time>2015-04-26T14:20:31.0000000+00:00</time></trkpt><trkpt lat="35.1215475" lon="32.5143068"><ele>18.9</ele><time>2015-04-26T14:20:33.0000000+00:00</time></trkpt><trkpt lat="35.121491" lon="32.5142786"><ele>19.4</ele><time>2015-04-26T14:20:35.0000000+00:00</time></trkpt><trkpt lat="35.1214402" lon="32.5142548"><ele>19.8</ele><time>2015-04-26T14:20:37.0000000+00:00</time></trkpt><trkpt lat="35.121393" lon="32.5142297"><ele>19.9</ele><time>2015-04-26T14:20:39.0000000+00:00</time></trkpt><trkpt lat="35.1213462" lon="32.5142034"><ele>19.9</ele><time>2015-04-26T14:20:41.0000000+00:00</time></trkpt><trkpt lat="35.1212999" lon="32.5141722"><ele>19.2</ele><time>2015-04-26T14:20:43.0000000+00:00</time></trkpt><trkpt lat="35.1212458" lon="32.5141435"><ele>19.7</ele><time>2015-04-26T14:20:45.0000000+00:00</time></trkpt><trkpt lat="35.1211873" lon="32.5141137"><ele>19.9</ele><time>2015-04-26T14:20:47.0000000+00:00</time></trkpt><trkpt lat="35.1211293" lon="32.5140847"><ele>20.4</ele><time>2015-04-26T14:20:49.0000000+00:00</time></trkpt><trkpt lat="35.1210692" lon="32.5140563"><ele>20.3</ele><time>2015-04-26T14:20:51.0000000+00:00</time></trkpt><trkpt lat="35.1209994" lon="32.5140243"><ele>20.0</ele><time>2015-04-26T14:20:53.0000000+00:00</time></trkpt><trkpt lat="35.1209343" lon="32.5139894"><ele>20.0</ele><time>2015-04-26T14:20:55.0000000+00:00</time></trkpt><trkpt lat="35.120872" lon="32.5139566"><ele>19.9</ele><time>2015-04-26T14:20:57.0000000+00:00</time></trkpt><trkpt lat="35.1208118" lon="32.5139257"><ele>19.9</ele><time>2015-04-26T14:20:59.0000000+00:00</time></trkpt><trkpt lat="35.1207546" lon="32.5138878"><ele>19.9</ele><time>2015-04-26T14:21:01.0000000+00:00</time></trkpt><trkpt lat="35.1206948" lon="32.5138543"><ele>19.9</ele><time>2015-04-26T14:21:03.0000000+00:00</time></trkpt><trkpt lat="35.1206346" lon="32.513824"><ele>19.7</ele><time>2015-04-26T14:21:05.0000000+00:00</time></trkpt><trkpt lat="35.12057" lon="32.5137922"><ele>19.6</ele><time>2015-04-26T14:21:07.0000000+00:00</time></trkpt><trkpt lat="35.120493" lon="32.5137509"><ele>19.9</ele><time>2015-04-26T14:21:09.0000000+00:00</time></trkpt><trkpt lat="35.1204172" lon="32.5137078"><ele>19.9</ele><time>2015-04-26T14:21:11.0000000+00:00</time></trkpt><trkpt lat="35.1203377" lon="32.5136692"><ele>20.2</ele><time>2015-04-26T14:21:13.0000000+00:00</time></trkpt><trkpt lat="35.1202585" lon="32.5136251"><ele>20.0</ele><time>2015-04-26T14:21:15.0000000+00:00</time></trkpt><trkpt lat="35.1201874" lon="32.5135823"><ele>19.2</ele><time>2015-04-26T14:21:17.0000000+00:00</time></trkpt><trkpt lat="35.1201302" lon="32.5135418"><ele>19.0</ele><time>2015-04-26T14:21:20.0000000+00:00</time></trkpt><trkpt lat="35.1200704" lon="32.5135131"><ele>19.7</ele><time>2015-04-26T14:21:23.0000000+00:00</time></trkpt><trkpt lat="35.1200217" lon="32.513489"><ele>20.6</ele><time>2015-04-26T14:21:25.0000000+00:00</time></trkpt><trkpt lat="35.1199635" lon="32.5134552"><ele>20.9</ele><time>2015-04-26T14:21:27.0000000+00:00</time></trkpt><trkpt lat="35.1198956" lon="32.5134174"><ele>20.9</ele><time>2015-04-26T14:21:29.0000000+00:00</time></trkpt><trkpt lat="35.1198279" lon="32.5133748"><ele>20.4</ele><time>2015-04-26T14:21:31.0000000+00:00</time></trkpt><trkpt lat="35.1197632" lon="32.5133296"><ele>20.1</ele><time>2015-04-26T14:21:33.0000000+00:00</time></trkpt><trkpt lat="35.1196985" lon="32.5132869"><ele>20.7</ele><time>2015-04-26T14:21:35.0000000+00:00</time></trkpt><trkpt lat="35.1196358" lon="32.5132468"><ele>21.1</ele><time>2015-04-26T14:21:37.0000000+00:00</time></trkpt><trkpt lat="35.1195764" lon="32.5132021"><ele>21.0</ele><time>2015-04-26T14:21:39.0000000+00:00</time></trkpt><trkpt lat="35.1195208" lon="32.5131519"><ele>20.9</ele><time>2015-04-26T14:21:41.0000000+00:00</time></trkpt><trkpt lat="35.1194608" lon="32.5131118"><ele>20.4</ele><time>2015-04-26T14:21:43.0000000+00:00</time></trkpt><trkpt lat="35.1194035" lon="32.513072"><ele>20.8</ele><time>2015-04-26T14:21:45.0000000+00:00</time></trkpt><trkpt lat="35.1193446" lon="32.5130316"><ele>20.9</ele><time>2015-04-26T14:21:47.0000000+00:00</time></trkpt><trkpt lat="35.119287" lon="32.5129849"><ele>20.9</ele><time>2015-04-26T14:21:49.0000000+00:00</time></trkpt><trkpt lat="35.1192292" lon="32.5129354"><ele>21.4</ele><time>2015-04-26T14:21:51.0000000+00:00</time></trkpt><trkpt lat="35.1191703" lon="32.5128928"><ele>21.3</ele><time>2015-04-26T14:21:53.0000000+00:00</time></trkpt><trkpt lat="35.1191158" lon="32.5128458"><ele>20.5</ele><time>2015-04-26T14:21:55.0000000+00:00</time></trkpt><trkpt lat="35.1190598" lon="32.5128016"><ele>20.3</ele><time>2015-04-26T14:21:57.0000000+00:00</time></trkpt><trkpt lat="35.1190034" lon="32.5127568"><ele>20.3</ele><time>2015-04-26T14:21:59.0000000+00:00</time></trkpt><trkpt lat="35.1189477" lon="32.5127098"><ele>20.0</ele><time>2015-04-26T14:22:01.0000000+00:00</time></trkpt><trkpt lat="35.1188952" lon="32.5126641"><ele>20.0</ele><time>2015-04-26T14:22:03.0000000+00:00</time></trkpt><trkpt lat="35.1188455" lon="32.5126141"><ele>19.9</ele><time>2015-04-26T14:22:05.0000000+00:00</time></trkpt><trkpt lat="35.1187923" lon="32.5125574"><ele>19.9</ele><time>2015-04-26T14:22:07.0000000+00:00</time></trkpt><trkpt lat="35.1187342" lon="32.5125019"><ele>19.9</ele><time>2015-04-26T14:22:09.0000000+00:00</time></trkpt><trkpt lat="35.1186726" lon="32.5124515"><ele>19.9</ele><time>2015-04-26T14:22:11.0000000+00:00</time></trkpt><trkpt lat="35.118616" lon="32.5123992"><ele>19.9</ele><time>2015-04-26T14:22:13.0000000+00:00</time></trkpt><trkpt lat="35.1185586" lon="32.5123492"><ele>20.4</ele><time>2015-04-26T14:22:15.0000000+00:00</time></trkpt><trkpt lat="35.1185008" lon="32.5123052"><ele>20.1</ele><time>2015-04-26T14:22:17.0000000+00:00</time></trkpt><trkpt lat="35.1184434" lon="32.512264"><ele>20.0</ele><time>2015-04-26T14:22:19.0000000+00:00</time></trkpt><trkpt lat="35.1183911" lon="32.5122204"><ele>19.9</ele><time>2015-04-26T14:22:21.0000000+00:00</time></trkpt><trkpt lat="35.1183377" lon="32.5121813"><ele>19.9</ele><time>2015-04-26T14:22:23.0000000+00:00</time></trkpt><trkpt lat="35.1182792" lon="32.5121443"><ele>19.9</ele><time>2015-04-26T14:22:25.0000000+00:00</time></trkpt><trkpt lat="35.1182211" lon="32.5120961"><ele>19.9</ele><time>2015-04-26T14:22:27.0000000+00:00</time></trkpt><trkpt lat="35.1181596" lon="32.5120499"><ele>19.2</ele><time>2015-04-26T14:22:29.0000000+00:00</time></trkpt><trkpt lat="35.1181" lon="32.5120044"><ele>19.0</ele><time>2015-04-26T14:22:31.0000000+00:00</time></trkpt><trkpt lat="35.1180466" lon="32.5119519"><ele>18.9</ele><time>2015-04-26T14:22:33.0000000+00:00</time></trkpt><trkpt lat="35.1179899" lon="32.5119"><ele>18.9</ele><time>2015-04-26T14:22:35.0000000+00:00</time></trkpt><trkpt lat="35.1179296" lon="32.5118548"><ele>18.9</ele><time>2015-04-26T14:22:37.0000000+00:00</time></trkpt><trkpt lat="35.1178735" lon="32.5118076"><ele>18.9</ele><time>2015-04-26T14:22:39.0000000+00:00</time></trkpt><trkpt lat="35.117819" lon="32.5117625"><ele>18.9</ele><time>2015-04-26T14:22:41.0000000+00:00</time></trkpt><trkpt lat="35.1177661" lon="32.5117185"><ele>18.9</ele><time>2015-04-26T14:22:43.0000000+00:00</time></trkpt><trkpt lat="35.1177172" lon="32.5116745"><ele>18.4</ele><time>2015-04-26T14:22:45.0000000+00:00</time></trkpt><trkpt lat="35.1176709" lon="32.5116316"><ele>17.6</ele><time>2015-04-26T14:22:47.0000000+00:00</time></trkpt><trkpt lat="35.117627" lon="32.5115889"><ele>17.8</ele><time>2015-04-26T14:22:49.0000000+00:00</time></trkpt><trkpt lat="35.1175805" lon="32.5115506"><ele>17.4</ele><time>2015-04-26T14:22:51.0000000+00:00</time></trkpt><trkpt lat="35.117532" lon="32.5115175"><ele>17.5</ele><time>2015-04-26T14:22:53.0000000+00:00</time></trkpt><trkpt lat="35.1174805" lon="32.5114741"><ele>17.8</ele><time>2015-04-26T14:22:55.0000000+00:00</time></trkpt><trkpt lat="35.1174239" lon="32.5114293"><ele>17.9</ele><time>2015-04-26T14:22:57.0000000+00:00</time></trkpt><trkpt lat="35.1173657" lon="32.5113833"><ele>18.7</ele><time>2015-04-26T14:22:59.0000000+00:00</time></trkpt><trkpt lat="35.1173098" lon="32.5113349"><ele>18.9</ele><time>2015-04-26T14:23:01.0000000+00:00</time></trkpt><trkpt lat="35.1172533" lon="32.511291"><ele>18.9</ele><time>2015-04-26T14:23:03.0000000+00:00</time></trkpt><trkpt lat="35.117201" lon="32.5112426"><ele>18.9</ele><time>2015-04-26T14:23:05.0000000+00:00</time></trkpt><trkpt lat="35.1171496" lon="32.5111964"><ele>19.4</ele><time>2015-04-26T14:23:07.0000000+00:00</time></trkpt><trkpt lat="35.1171023" lon="32.5111538"><ele>19.1</ele><time>2015-04-26T14:23:09.0000000+00:00</time></trkpt><trkpt lat="35.1170541" lon="32.5111142"><ele>19.0</ele><time>2015-04-26T14:23:11.0000000+00:00</time></trkpt><trkpt lat="35.1170029" lon="32.5110798"><ele>18.9</ele><time>2015-04-26T14:23:13.0000000+00:00</time></trkpt><trkpt lat="35.1169585" lon="32.5110473"><ele>18.9</ele><time>2015-04-26T14:23:15.0000000+00:00</time></trkpt><trkpt lat="35.1169012" lon="32.5110153"><ele>18.9</ele><time>2015-04-26T14:23:18.0000000+00:00</time></trkpt><trkpt lat="35.1168476" lon="32.5109839"><ele>18.4</ele><time>2015-04-26T14:23:21.0000000+00:00</time></trkpt><trkpt lat="35.1168022" lon="32.5109551"><ele>18.5</ele><time>2015-04-26T14:23:24.0000000+00:00</time></trkpt><trkpt lat="35.1167392" lon="32.5109166"><ele>19.8</ele><time>2015-04-26T14:24:21.0000000+00:00</time></trkpt><trkpt lat="35.1166802" lon="32.5108828"><ele>19.9</ele><time>2015-04-26T14:24:23.0000000+00:00</time></trkpt><trkpt lat="35.1166176" lon="32.5108431"><ele>20.4</ele><time>2015-04-26T14:24:25.0000000+00:00</time></trkpt><trkpt lat="35.1165577" lon="32.5107917"><ele>21.3</ele><time>2015-04-26T14:24:27.0000000+00:00</time></trkpt><trkpt lat="35.1165017" lon="32.5107444"><ele>22.5</ele><time>2015-04-26T14:24:29.0000000+00:00</time></trkpt><trkpt lat="35.1164466" lon="32.5107021"><ele>24.1</ele><time>2015-04-26T14:24:31.0000000+00:00</time></trkpt><trkpt lat="35.1163983" lon="32.5106619"><ele>24.2</ele><time>2015-04-26T14:24:33.0000000+00:00</time></trkpt><trkpt lat="35.1163666" lon="32.5106228"><ele>23.3</ele><time>2015-04-26T14:24:35.0000000+00:00</time></trkpt><trkpt lat="35.1163301" lon="32.5105695"><ele>21.7</ele><time>2015-04-26T14:24:38.0000000+00:00</time></trkpt><trkpt lat="35.1162901" lon="32.5105306"><ele>21.0</ele><time>2015-04-26T14:24:41.0000000+00:00</time></trkpt><trkpt lat="35.1162466" lon="32.51049"><ele>21.3</ele><time>2015-04-26T14:24:44.0000000+00:00</time></trkpt><trkpt lat="35.1161898" lon="32.5104523"><ele>20.2</ele><time>2015-04-26T14:24:47.0000000+00:00</time></trkpt><trkpt lat="35.1161284" lon="32.5104173"><ele>19.0</ele><time>2015-04-26T14:24:50.0000000+00:00</time></trkpt><trkpt lat="35.1160809" lon="32.5103909"><ele>18.9</ele><time>2015-04-26T14:24:52.0000000+00:00</time></trkpt><trkpt lat="35.1160374" lon="32.5103653"><ele>17.9</ele><time>2015-04-26T14:24:54.0000000+00:00</time></trkpt><trkpt lat="35.1159967" lon="32.5103396"><ele>17.2</ele><time>2015-04-26T14:24:56.0000000+00:00</time></trkpt><trkpt lat="35.115951" lon="32.5102929"><ele>17.8</ele><time>2015-04-26T14:24:59.0000000+00:00</time></trkpt><trkpt lat="35.1159156" lon="32.5102513"><ele>18.8</ele><time>2015-04-26T14:25:02.0000000+00:00</time></trkpt><trkpt lat="35.1158726" lon="32.5102129"><ele>18.2</ele><time>2015-04-26T14:25:06.0000000+00:00</time></trkpt><trkpt lat="35.1158899" lon="32.5101619"><ele>20.6</ele><time>2015-04-26T14:25:16.0000000+00:00</time></trkpt><trkpt lat="35.1158866" lon="32.5102192"><ele>21.8</ele><time>2015-04-26T14:25:25.0000000+00:00</time></trkpt><trkpt lat="35.11583" lon="32.5102384"><ele>22.3</ele><time>2015-04-26T14:25:28.0000000+00:00</time></trkpt><trkpt lat="35.1157529" lon="32.5102151"><ele>21.0</ele><time>2015-04-26T14:25:30.0000000+00:00</time></trkpt><trkpt lat="35.1156788" lon="32.5101661"><ele>20.2</ele><time>2015-04-26T14:25:32.0000000+00:00</time></trkpt><trkpt lat="35.1156073" lon="32.5101245"><ele>19.2</ele><time>2015-04-26T14:25:34.0000000+00:00</time></trkpt><trkpt lat="35.1155365" lon="32.5100895"><ele>19.0</ele><time>2015-04-26T14:25:36.0000000+00:00</time></trkpt><trkpt lat="35.1154686" lon="32.5100553"><ele>18.4</ele><time>2015-04-26T14:25:38.0000000+00:00</time></trkpt><trkpt lat="35.1154001" lon="32.5100202"><ele>18.1</ele><time>2015-04-26T14:25:40.0000000+00:00</time></trkpt><trkpt lat="35.1153226" lon="32.5099841"><ele>18.0</ele><time>2015-04-26T14:25:42.0000000+00:00</time></trkpt><trkpt lat="35.1152451" lon="32.50995"><ele>17.4</ele><time>2015-04-26T14:25:44.0000000+00:00</time></trkpt><trkpt lat="35.1151698" lon="32.5099238"><ele>17.1</ele><time>2015-04-26T14:25:46.0000000+00:00</time></trkpt><trkpt lat="35.1151061" lon="32.5098932"><ele>17.2</ele><time>2015-04-26T14:25:48.0000000+00:00</time></trkpt><trkpt lat="35.1150474" lon="32.5098723"><ele>17.0</ele><time>2015-04-26T14:25:50.0000000+00:00</time></trkpt><trkpt lat="35.1149887" lon="32.5098538"><ele>17.4</ele><time>2015-04-26T14:25:52.0000000+00:00</time></trkpt><trkpt lat="35.1149309" lon="32.5098308"><ele>17.8</ele><time>2015-04-26T14:25:54.0000000+00:00</time></trkpt><trkpt lat="35.1148705" lon="32.5098058"><ele>18.6</ele><time>2015-04-26T14:25:56.0000000+00:00</time></trkpt><trkpt lat="35.1148089" lon="32.5097812"><ele>18.1</ele><time>2015-04-26T14:25:58.0000000+00:00</time></trkpt><trkpt lat="35.1147511" lon="32.509753"><ele>18.0</ele><time>2015-04-26T14:26:00.0000000+00:00</time></trkpt><trkpt lat="35.114697" lon="32.50972"><ele>18.7</ele><time>2015-04-26T14:26:02.0000000+00:00</time></trkpt><trkpt lat="35.1146381" lon="32.5096888"><ele>18.9</ele><time>2015-04-26T14:26:04.0000000+00:00</time></trkpt><trkpt lat="35.1145723" lon="32.5096646"><ele>18.9</ele><time>2015-04-26T14:26:06.0000000+00:00</time></trkpt><trkpt lat="35.1145068" lon="32.5096403"><ele>19.4</ele><time>2015-04-26T14:26:08.0000000+00:00</time></trkpt><trkpt lat="35.1144431" lon="32.5096166"><ele>19.3</ele><time>2015-04-26T14:26:10.0000000+00:00</time></trkpt><trkpt lat="35.1143799" lon="32.5095932"><ele>19.0</ele><time>2015-04-26T14:26:12.0000000+00:00</time></trkpt><trkpt lat="35.1143164" lon="32.5095686"><ele>19.0</ele><time>2015-04-26T14:26:14.0000000+00:00</time></trkpt><trkpt lat="35.1142525" lon="32.5095443"><ele>19.7</ele><time>2015-04-26T14:26:16.0000000+00:00</time></trkpt><trkpt lat="35.1141916" lon="32.5095213"><ele>19.9</ele><time>2015-04-26T14:26:18.0000000+00:00</time></trkpt><trkpt lat="35.1141321" lon="32.5094991"><ele>20.4</ele><time>2015-04-26T14:26:20.0000000+00:00</time></trkpt><trkpt lat="35.1140727" lon="32.5094784"><ele>20.8</ele><time>2015-04-26T14:26:22.0000000+00:00</time></trkpt><trkpt lat="35.1140144" lon="32.5094554"><ele>21.6</ele><time>2015-04-26T14:26:24.0000000+00:00</time></trkpt><trkpt lat="35.1139558" lon="32.50944"><ele>21.1</ele><time>2015-04-26T14:26:26.0000000+00:00</time></trkpt><trkpt lat="35.1138962" lon="32.5094162"><ele>21.0</ele><time>2015-04-26T14:26:28.0000000+00:00</time></trkpt><trkpt lat="35.1138361" lon="32.5093904"><ele>20.9</ele><time>2015-04-26T14:26:30.0000000+00:00</time></trkpt><trkpt lat="35.1137763" lon="32.5093642"><ele>20.4</ele><time>2015-04-26T14:26:32.0000000+00:00</time></trkpt><trkpt lat="35.1137152" lon="32.5093401"><ele>19.6</ele><time>2015-04-26T14:26:34.0000000+00:00</time></trkpt><trkpt lat="35.1136488" lon="32.5093129"><ele>19.1</ele><time>2015-04-26T14:26:36.0000000+00:00</time></trkpt><trkpt lat="35.1135833" lon="32.5092781"><ele>19.7</ele><time>2015-04-26T14:26:38.0000000+00:00</time></trkpt><trkpt lat="35.1135173" lon="32.5092435"><ele>19.9</ele><time>2015-04-26T14:26:40.0000000+00:00</time></trkpt><trkpt lat="35.1134521" lon="32.5092128"><ele>20.4</ele><time>2015-04-26T14:26:42.0000000+00:00</time></trkpt><trkpt lat="35.1133854" lon="32.5091805"><ele>20.8</ele><time>2015-04-26T14:26:44.0000000+00:00</time></trkpt><trkpt lat="35.1133162" lon="32.5091461"><ele>20.9</ele><time>2015-04-26T14:26:46.0000000+00:00</time></trkpt><trkpt lat="35.113249" lon="32.5091073"><ele>20.4</ele><time>2015-04-26T14:26:48.0000000+00:00</time></trkpt><trkpt lat="35.1131774" lon="32.509066"><ele>20.1</ele><time>2015-04-26T14:26:50.0000000+00:00</time></trkpt><trkpt lat="35.1131049" lon="32.5090241"><ele>20.0</ele><time>2015-04-26T14:26:52.0000000+00:00</time></trkpt><trkpt lat="35.113032" lon="32.5089868"><ele>19.9</ele><time>2015-04-26T14:26:54.0000000+00:00</time></trkpt><trkpt lat="35.1129587" lon="32.5089492"><ele>19.9</ele><time>2015-04-26T14:26:56.0000000+00:00</time></trkpt><trkpt lat="35.1128879" lon="32.508913"><ele>19.9</ele><time>2015-04-26T14:26:58.0000000+00:00</time></trkpt><trkpt lat="35.1128223" lon="32.5088748"><ele>19.9</ele><time>2015-04-26T14:27:00.0000000+00:00</time></trkpt><trkpt lat="35.1127611" lon="32.5088344"><ele>19.9</ele><time>2015-04-26T14:27:02.0000000+00:00</time></trkpt><trkpt lat="35.1127045" lon="32.5087983"><ele>20.7</ele><time>2015-04-26T14:27:04.0000000+00:00</time></trkpt><trkpt lat="35.1126434" lon="32.5087672"><ele>21.4</ele><time>2015-04-26T14:27:06.0000000+00:00</time></trkpt><trkpt lat="35.1125795" lon="32.5087373"><ele>21.8</ele><time>2015-04-26T14:27:08.0000000+00:00</time></trkpt><trkpt lat="35.1125158" lon="32.5087078"><ele>21.9</ele><time>2015-04-26T14:27:10.0000000+00:00</time></trkpt><trkpt lat="35.1124524" lon="32.5086791"><ele>21.2</ele><time>2015-04-26T14:27:12.0000000+00:00</time></trkpt><trkpt lat="35.1123884" lon="32.5086506"><ele>20.5</ele><time>2015-04-26T14:27:14.0000000+00:00</time></trkpt><trkpt lat="35.1123216" lon="32.508616"><ele>20.1</ele><time>2015-04-26T14:27:16.0000000+00:00</time></trkpt><trkpt lat="35.1122524" lon="32.5085745"><ele>20.0</ele><time>2015-04-26T14:27:18.0000000+00:00</time></trkpt><trkpt lat="35.1121837" lon="32.5085338"><ele>19.2</ele><time>2015-04-26T14:27:20.0000000+00:00</time></trkpt><trkpt lat="35.1121134" lon="32.508495"><ele>19.5</ele><time>2015-04-26T14:27:22.0000000+00:00</time></trkpt><trkpt lat="35.1120458" lon="32.5084595"><ele>19.3</ele><time>2015-04-26T14:27:24.0000000+00:00</time></trkpt><trkpt lat="35.1119826" lon="32.5084224"><ele>19.0</ele><time>2015-04-26T14:27:26.0000000+00:00</time></trkpt><trkpt lat="35.1119235" lon="32.5083812"><ele>19.5</ele><time>2015-04-26T14:27:28.0000000+00:00</time></trkpt><trkpt lat="35.1118598" lon="32.5083368"><ele>19.8</ele><time>2015-04-26T14:27:30.0000000+00:00</time></trkpt><trkpt lat="35.1117911" lon="32.5082915"><ele>20.4</ele><time>2015-04-26T14:27:32.0000000+00:00</time></trkpt><trkpt lat="35.1117189" lon="32.5082517"><ele>20.5</ele><time>2015-04-26T14:27:34.0000000+00:00</time></trkpt><trkpt lat="35.1116437" lon="32.5082115"><ele>20.8</ele><time>2015-04-26T14:27:36.0000000+00:00</time></trkpt><trkpt lat="35.111573" lon="32.5081738"><ele>20.9</ele><time>2015-04-26T14:27:38.0000000+00:00</time></trkpt><trkpt lat="35.1115058" lon="32.5081347"><ele>21.7</ele><time>2015-04-26T14:27:40.0000000+00:00</time></trkpt><trkpt lat="35.1114366" lon="32.5080916"><ele>21.6</ele><time>2015-04-26T14:27:42.0000000+00:00</time></trkpt><trkpt lat="35.111366" lon="32.508049"><ele>21.9</ele><time>2015-04-26T14:27:44.0000000+00:00</time></trkpt><trkpt lat="35.1113011" lon="32.5080047"><ele>21.9</ele><time>2015-04-26T14:27:46.0000000+00:00</time></trkpt><trkpt lat="35.111233" lon="32.5079526"><ele>22.7</ele><time>2015-04-26T14:27:48.0000000+00:00</time></trkpt><trkpt lat="35.1111713" lon="32.5079078"><ele>22.4</ele><time>2015-04-26T14:27:50.0000000+00:00</time></trkpt><trkpt lat="35.1111209" lon="32.5078811"><ele>20.3</ele><time>2015-04-26T14:27:52.0000000+00:00</time></trkpt><trkpt lat="35.1110752" lon="32.5078586"><ele>20.0</ele><time>2015-04-26T14:27:54.0000000+00:00</time></trkpt><trkpt lat="35.1110315" lon="32.5078388"><ele>20.0</ele><time>2015-04-26T14:27:56.0000000+00:00</time></trkpt><trkpt lat="35.110988" lon="32.5078188"><ele>20.7</ele><time>2015-04-26T14:27:58.0000000+00:00</time></trkpt><trkpt lat="35.1109347" lon="32.5077788"><ele>20.1</ele><time>2015-04-26T14:28:01.0000000+00:00</time></trkpt><trkpt lat="35.1108908" lon="32.5077422"><ele>20.7</ele><time>2015-04-26T14:28:04.0000000+00:00</time></trkpt><trkpt lat="35.110848" lon="32.5077176"><ele>20.4</ele><time>2015-04-26T14:28:08.0000000+00:00</time></trkpt><trkpt lat="35.1108562" lon="32.5076604"><ele>20.9</ele><time>2015-04-26T14:28:34.0000000+00:00</time></trkpt><trkpt lat="35.1108035" lon="32.5076304"><ele>20.5</ele><time>2015-04-26T14:28:43.0000000+00:00</time></trkpt><trkpt lat="35.1107604" lon="32.5076117"><ele>20.8</ele><time>2015-04-26T14:28:45.0000000+00:00</time></trkpt><trkpt lat="35.110712" lon="32.5075951"><ele>20.2</ele><time>2015-04-26T14:28:47.0000000+00:00</time></trkpt><trkpt lat="35.1106638" lon="32.5075707"><ele>19.2</ele><time>2015-04-26T14:28:49.0000000+00:00</time></trkpt><trkpt lat="35.1106059" lon="32.5075314"><ele>19.0</ele><time>2015-04-26T14:28:51.0000000+00:00</time></trkpt><trkpt lat="35.1105357" lon="32.5074845"><ele>18.9</ele><time>2015-04-26T14:28:53.0000000+00:00</time></trkpt><trkpt lat="35.110466" lon="32.5074463"><ele>18.9</ele><time>2015-04-26T14:28:55.0000000+00:00</time></trkpt><trkpt lat="35.1104016" lon="32.5074064"><ele>17.7</ele><time>2015-04-26T14:28:57.0000000+00:00</time></trkpt><trkpt lat="35.1103403" lon="32.5073576"><ele>17.9</ele><time>2015-04-26T14:28:59.0000000+00:00</time></trkpt><trkpt lat="35.1102767" lon="32.5073119"><ele>17.9</ele><time>2015-04-26T14:29:01.0000000+00:00</time></trkpt><trkpt lat="35.1102085" lon="32.5072672"><ele>17.9</ele><time>2015-04-26T14:29:03.0000000+00:00</time></trkpt><trkpt lat="35.1101379" lon="32.5072185"><ele>17.9</ele><time>2015-04-26T14:29:05.0000000+00:00</time></trkpt><trkpt lat="35.1100658" lon="32.5071686"><ele>17.9</ele><time>2015-04-26T14:29:07.0000000+00:00</time></trkpt><trkpt lat="35.1099926" lon="32.5071221"><ele>17.9</ele><time>2015-04-26T14:29:09.0000000+00:00</time></trkpt><trkpt lat="35.1099154" lon="32.507078"><ele>17.9</ele><time>2015-04-26T14:29:11.0000000+00:00</time></trkpt><trkpt lat="35.1098542" lon="32.5070482"><ele>17.4</ele><time>2015-04-26T14:29:12.0000000+00:00</time></trkpt><trkpt lat="35.1098144" lon="32.5070189"><ele>17.2</ele><time>2015-04-26T14:29:13.0000000+00:00</time></trkpt><trkpt lat="35.1097703" lon="32.5069895"><ele>17.1</ele><time>2015-04-26T14:29:14.0000000+00:00</time></trkpt><trkpt lat="35.1097291" lon="32.5069602"><ele>17.5</ele><time>2015-04-26T14:29:15.0000000+00:00</time></trkpt><trkpt lat="35.1096528" lon="32.506895"><ele>18.6</ele><time>2015-04-26T14:29:17.0000000+00:00</time></trkpt><trkpt lat="35.1095653" lon="32.5068513"><ele>18.8</ele><time>2015-04-26T14:29:19.0000000+00:00</time></trkpt><trkpt lat="35.1095204" lon="32.506824"><ele>18.9</ele><time>2015-04-26T14:29:20.0000000+00:00</time></trkpt><trkpt lat="35.1094459" lon="32.5067631"><ele>18.9</ele><time>2015-04-26T14:29:22.0000000+00:00</time></trkpt><trkpt lat="35.1093694" lon="32.5067119"><ele>18.9</ele><time>2015-04-26T14:29:24.0000000+00:00</time></trkpt><trkpt lat="35.1092886" lon="32.5066621"><ele>18.9</ele><time>2015-04-26T14:29:26.0000000+00:00</time></trkpt><trkpt lat="35.1092434" lon="32.5066383"><ele>19.4</ele><time>2015-04-26T14:29:27.0000000+00:00</time></trkpt><trkpt lat="35.1092009" lon="32.5066114"><ele>19.2</ele><time>2015-04-26T14:29:28.0000000+00:00</time></trkpt><trkpt lat="35.1091542" lon="32.5065799"><ele>19.6</ele><time>2015-04-26T14:29:29.0000000+00:00</time></trkpt><trkpt lat="35.1091161" lon="32.5065474"><ele>19.7</ele><time>2015-04-26T14:29:30.0000000+00:00</time></trkpt><trkpt lat="35.1090696" lon="32.5065195"><ele>19.8</ele><time>2015-04-26T14:29:31.0000000+00:00</time></trkpt><trkpt lat="35.1090272" lon="32.5064734"><ele>19.4</ele><time>2015-04-26T14:29:32.0000000+00:00</time></trkpt><trkpt lat="35.1089865" lon="32.5064342"><ele>19.2</ele><time>2015-04-26T14:29:33.0000000+00:00</time></trkpt><trkpt lat="35.1089055" lon="32.5063761"><ele>18.2</ele><time>2015-04-26T14:29:35.0000000+00:00</time></trkpt><trkpt lat="35.1088656" lon="32.5063376"><ele>17.6</ele><time>2015-04-26T14:29:36.0000000+00:00</time></trkpt><trkpt lat="35.1088218" lon="32.506308"><ele>17.8</ele><time>2015-04-26T14:29:37.0000000+00:00</time></trkpt><trkpt lat="35.1087815" lon="32.5062809"><ele>17.3</ele><time>2015-04-26T14:29:38.0000000+00:00</time></trkpt><trkpt lat="35.1087386" lon="32.506259"><ele>17.1</ele><time>2015-04-26T14:29:39.0000000+00:00</time></trkpt><trkpt lat="35.1086969" lon="32.5062303"><ele>17.0</ele><time>2015-04-26T14:29:40.0000000+00:00</time></trkpt><trkpt lat="35.1086214" lon="32.5061715"><ele>16.5</ele><time>2015-04-26T14:29:42.0000000+00:00</time></trkpt><trkpt lat="35.1085786" lon="32.5061513"><ele>16.2</ele><time>2015-04-26T14:29:43.0000000+00:00</time></trkpt><trkpt lat="35.1085376" lon="32.5061228"><ele>16.6</ele><time>2015-04-26T14:29:44.0000000+00:00</time></trkpt><trkpt lat="35.1084928" lon="32.5060987"><ele>16.7</ele><time>2015-04-26T14:29:45.0000000+00:00</time></trkpt><trkpt lat="35.108404" lon="32.5060526"><ele>16.9</ele><time>2015-04-26T14:29:47.0000000+00:00</time></trkpt><trkpt lat="35.1083572" lon="32.5060251"><ele>16.9</ele><time>2015-04-26T14:29:48.0000000+00:00</time></trkpt><trkpt lat="35.108312" lon="32.5059932"><ele>16.9</ele><time>2015-04-26T14:29:49.0000000+00:00</time></trkpt><trkpt lat="35.1082683" lon="32.5059613"><ele>17.4</ele><time>2015-04-26T14:29:50.0000000+00:00</time></trkpt><trkpt lat="35.1082278" lon="32.5059349"><ele>17.7</ele><time>2015-04-26T14:29:51.0000000+00:00</time></trkpt><trkpt lat="35.1081848" lon="32.5058983"><ele>17.8</ele><time>2015-04-26T14:29:52.0000000+00:00</time></trkpt><trkpt lat="35.1081434" lon="32.5058714"><ele>17.9</ele><time>2015-04-26T14:29:53.0000000+00:00</time></trkpt><trkpt lat="35.1080975" lon="32.5058364"><ele>17.9</ele><time>2015-04-26T14:29:54.0000000+00:00</time></trkpt><trkpt lat="35.1080569" lon="32.5058004"><ele>17.9</ele><time>2015-04-26T14:29:55.0000000+00:00</time></trkpt><trkpt lat="35.1080013" lon="32.5057615"><ele>17.9</ele><time>2015-04-26T14:29:56.0000000+00:00</time></trkpt><trkpt lat="35.1079608" lon="32.5057297"><ele>17.9</ele><time>2015-04-26T14:29:57.0000000+00:00</time></trkpt><trkpt lat="35.1079084" lon="32.505698"><ele>17.9</ele><time>2015-04-26T14:29:58.0000000+00:00</time></trkpt><trkpt lat="35.1078633" lon="32.5056695"><ele>17.9</ele><time>2015-04-26T14:29:59.0000000+00:00</time></trkpt><trkpt lat="35.107819" lon="32.5056456"><ele>17.9</ele><time>2015-04-26T14:30:00.0000000+00:00</time></trkpt><trkpt lat="35.1077779" lon="32.5056207"><ele>18.4</ele><time>2015-04-26T14:30:01.0000000+00:00</time></trkpt><trkpt lat="35.1077029" lon="32.5055737"><ele>19.6</ele><time>2015-04-26T14:30:03.0000000+00:00</time></trkpt><trkpt lat="35.1076259" lon="32.5055236"><ele>20.1</ele><time>2015-04-26T14:30:05.0000000+00:00</time></trkpt><trkpt lat="35.1075802" lon="32.505497"><ele>20.5</ele><time>2015-04-26T14:30:06.0000000+00:00</time></trkpt><trkpt lat="35.1075466" lon="32.5054597"><ele>20.2</ele><time>2015-04-26T14:30:07.0000000+00:00</time></trkpt><trkpt lat="35.1075023" lon="32.5054308"><ele>20.1</ele><time>2015-04-26T14:30:08.0000000+00:00</time></trkpt><trkpt lat="35.1074671" lon="32.5053931"><ele>20.0</ele><time>2015-04-26T14:30:09.0000000+00:00</time></trkpt><trkpt lat="35.1073971" lon="32.5053341"><ele>19.4</ele><time>2015-04-26T14:30:11.0000000+00:00</time></trkpt><trkpt lat="35.1073176" lon="32.5052844"><ele>18.6</ele><time>2015-04-26T14:30:13.0000000+00:00</time></trkpt><trkpt lat="35.1072701" lon="32.5052585"><ele>18.2</ele><time>2015-04-26T14:30:14.0000000+00:00</time></trkpt><trkpt lat="35.1072224" lon="32.5052336"><ele>18.6</ele><time>2015-04-26T14:30:15.0000000+00:00</time></trkpt><trkpt lat="35.1071802" lon="32.5051949"><ele>18.3</ele><time>2015-04-26T14:30:16.0000000+00:00</time></trkpt><trkpt lat="35.1071374" lon="32.5051614"><ele>18.1</ele><time>2015-04-26T14:30:17.0000000+00:00</time></trkpt><trkpt lat="35.1070897" lon="32.5051255"><ele>18.0</ele><time>2015-04-26T14:30:18.0000000+00:00</time></trkpt><trkpt lat="35.1070428" lon="32.505102"><ele>18.0</ele><time>2015-04-26T14:30:19.0000000+00:00</time></trkpt><trkpt lat="35.1069953" lon="32.5050722"><ele>18.0</ele><time>2015-04-26T14:30:20.0000000+00:00</time></trkpt><trkpt lat="35.1069485" lon="32.5050456"><ele>17.9</ele><time>2015-04-26T14:30:21.0000000+00:00</time></trkpt><trkpt lat="35.1068972" lon="32.50502"><ele>17.9</ele><time>2015-04-26T14:30:22.0000000+00:00</time></trkpt><trkpt lat="35.1068476" lon="32.5049871"><ele>18.4</ele><time>2015-04-26T14:30:23.0000000+00:00</time></trkpt><trkpt lat="35.106804" lon="32.504954"><ele>19.2</ele><time>2015-04-26T14:30:24.0000000+00:00</time></trkpt><trkpt lat="35.1067634" lon="32.5049089"><ele>19.6</ele><time>2015-04-26T14:30:25.0000000+00:00</time></trkpt><trkpt lat="35.1067151" lon="32.5048891"><ele>19.7</ele><time>2015-04-26T14:30:26.0000000+00:00</time></trkpt><trkpt lat="35.1066617" lon="32.504863"><ele>19.8</ele><time>2015-04-26T14:30:27.0000000+00:00</time></trkpt><trkpt lat="35.1066069" lon="32.5048307"><ele>20.4</ele><time>2015-04-26T14:30:28.0000000+00:00</time></trkpt><trkpt lat="35.106556" lon="32.5047987"><ele>20.7</ele><time>2015-04-26T14:30:29.0000000+00:00</time></trkpt><trkpt lat="35.1065098" lon="32.5047598"><ele>20.8</ele><time>2015-04-26T14:30:30.0000000+00:00</time></trkpt><trkpt lat="35.1064524" lon="32.5047226"><ele>20.9</ele><time>2015-04-26T14:30:31.0000000+00:00</time></trkpt><trkpt lat="35.1063996" lon="32.5046833"><ele>20.9</ele><time>2015-04-26T14:30:32.0000000+00:00</time></trkpt><trkpt lat="35.106349" lon="32.504641"><ele>20.4</ele><time>2015-04-26T14:30:33.0000000+00:00</time></trkpt><trkpt lat="35.1063013" lon="32.5046075"><ele>20.2</ele><time>2015-04-26T14:30:34.0000000+00:00</time></trkpt><trkpt lat="35.1062532" lon="32.5045718"><ele>20.1</ele><time>2015-04-26T14:30:35.0000000+00:00</time></trkpt><trkpt lat="35.1062073" lon="32.504541"><ele>19.5</ele><time>2015-04-26T14:30:36.0000000+00:00</time></trkpt><trkpt lat="35.1061586" lon="32.5045091"><ele>19.2</ele><time>2015-04-26T14:30:37.0000000+00:00</time></trkpt><trkpt lat="35.1061029" lon="32.5044789"><ele>19.1</ele><time>2015-04-26T14:30:38.0000000+00:00</time></trkpt><trkpt lat="35.1060466" lon="32.5044456"><ele>19.5</ele><time>2015-04-26T14:30:39.0000000+00:00</time></trkpt><trkpt lat="35.1060028" lon="32.5044045"><ele>20.2</ele><time>2015-04-26T14:30:40.0000000+00:00</time></trkpt><trkpt lat="35.1059464" lon="32.504372"><ele>20.1</ele><time>2015-04-26T14:30:41.0000000+00:00</time></trkpt><trkpt lat="35.1058883" lon="32.5043407"><ele>20.5</ele><time>2015-04-26T14:30:42.0000000+00:00</time></trkpt><trkpt lat="35.1058341" lon="32.5043084"><ele>20.7</ele><time>2015-04-26T14:30:43.0000000+00:00</time></trkpt><trkpt lat="35.1057908" lon="32.5042777"><ele>20.8</ele><time>2015-04-26T14:30:44.0000000+00:00</time></trkpt><trkpt lat="35.1057403" lon="32.504251"><ele>20.4</ele><time>2015-04-26T14:30:45.0000000+00:00</time></trkpt><trkpt lat="35.1056957" lon="32.5042301"><ele>20.2</ele><time>2015-04-26T14:30:46.0000000+00:00</time></trkpt><trkpt lat="35.1056384" lon="32.5042189"><ele>20.5</ele><time>2015-04-26T14:30:47.0000000+00:00</time></trkpt><trkpt lat="35.105588" lon="32.5042082"><ele>21.2</ele><time>2015-04-26T14:30:48.0000000+00:00</time></trkpt><trkpt lat="35.1055356" lon="32.5041901"><ele>21.1</ele><time>2015-04-26T14:30:49.0000000+00:00</time></trkpt><trkpt lat="35.1054784" lon="32.5041814"><ele>21.0</ele><time>2015-04-26T14:30:50.0000000+00:00</time></trkpt><trkpt lat="35.1054302" lon="32.5041544"><ele>21.0</ele><time>2015-04-26T14:30:51.0000000+00:00</time></trkpt><trkpt lat="35.1053702" lon="32.504138"><ele>21.4</ele><time>2015-04-26T14:30:52.0000000+00:00</time></trkpt><trkpt lat="35.1053241" lon="32.504122"><ele>21.7</ele><time>2015-04-26T14:30:53.0000000+00:00</time></trkpt><trkpt lat="35.1052685" lon="32.5041026"><ele>21.3</ele><time>2015-04-26T14:30:54.0000000+00:00</time></trkpt><trkpt lat="35.105212" lon="32.5040738"><ele>21.1</ele><time>2015-04-26T14:30:55.0000000+00:00</time></trkpt><trkpt lat="35.1051598" lon="32.5040559"><ele>21.0</ele><time>2015-04-26T14:30:56.0000000+00:00</time></trkpt><trkpt lat="35.1051045" lon="32.5040552"><ele>21.0</ele><time>2015-04-26T14:30:57.0000000+00:00</time></trkpt><trkpt lat="35.1050535" lon="32.5040537"><ele>21.0</ele><time>2015-04-26T14:30:58.0000000+00:00</time></trkpt><trkpt lat="35.1049983" lon="32.5040378"><ele>20.9</ele><time>2015-04-26T14:30:59.0000000+00:00</time></trkpt><trkpt lat="35.1049016" lon="32.5040094"><ele>19.7</ele><time>2015-04-26T14:31:01.0000000+00:00</time></trkpt><trkpt lat="35.1048537" lon="32.5040022"><ele>18.8</ele><time>2015-04-26T14:31:02.0000000+00:00</time></trkpt><trkpt lat="35.1048023" lon="32.5039956"><ele>17.9</ele><time>2015-04-26T14:31:03.0000000+00:00</time></trkpt><trkpt lat="35.104748" lon="32.5039858"><ele>17.4</ele><time>2015-04-26T14:31:04.0000000+00:00</time></trkpt><trkpt lat="35.1046519" lon="32.5039559"><ele>17.0</ele><time>2015-04-26T14:31:06.0000000+00:00</time></trkpt><trkpt lat="35.1046049" lon="32.503938"><ele>17.5</ele><time>2015-04-26T14:31:07.0000000+00:00</time></trkpt><trkpt lat="35.1045575" lon="32.5039246"><ele>17.2</ele><time>2015-04-26T14:31:08.0000000+00:00</time></trkpt><trkpt lat="35.1045033" lon="32.5039129"><ele>17.6</ele><time>2015-04-26T14:31:09.0000000+00:00</time></trkpt><trkpt lat="35.1044572" lon="32.503899"><ele>17.7</ele><time>2015-04-26T14:31:10.0000000+00:00</time></trkpt><trkpt lat="35.1044082" lon="32.5038836"><ele>17.8</ele><time>2015-04-26T14:31:11.0000000+00:00</time></trkpt><trkpt lat="35.1043583" lon="32.5038759"><ele>17.9</ele><time>2015-04-26T14:31:12.0000000+00:00</time></trkpt><trkpt lat="35.1043145" lon="32.5038515"><ele>17.9</ele><time>2015-04-26T14:31:13.0000000+00:00</time></trkpt><trkpt lat="35.104261" lon="32.5038345"><ele>18.4</ele><time>2015-04-26T14:31:14.0000000+00:00</time></trkpt><trkpt lat="35.1042086" lon="32.503815"><ele>18.2</ele><time>2015-04-26T14:31:15.0000000+00:00</time></trkpt><trkpt lat="35.1041541" lon="32.5037908"><ele>18.1</ele><time>2015-04-26T14:31:16.0000000+00:00</time></trkpt><trkpt lat="35.104107" lon="32.5037574"><ele>18.0</ele><time>2015-04-26T14:31:17.0000000+00:00</time></trkpt><trkpt lat="35.1040507" lon="32.5037362"><ele>18.5</ele><time>2015-04-26T14:31:18.0000000+00:00</time></trkpt><trkpt lat="35.1039999" lon="32.5037194"><ele>18.2</ele><time>2015-04-26T14:31:19.0000000+00:00</time></trkpt><trkpt lat="35.1039548" lon="32.5036935"><ele>18.1</ele><time>2015-04-26T14:31:20.0000000+00:00</time></trkpt><trkpt lat="35.1039025" lon="32.5036527"><ele>18.0</ele><time>2015-04-26T14:31:21.0000000+00:00</time></trkpt><trkpt lat="35.1038573" lon="32.5036167"><ele>18.0</ele><time>2015-04-26T14:31:22.0000000+00:00</time></trkpt><trkpt lat="35.1038084" lon="32.503589"><ele>17.4</ele><time>2015-04-26T14:31:23.0000000+00:00</time></trkpt><trkpt lat="35.1037694" lon="32.5035471"><ele>17.7</ele><time>2015-04-26T14:31:24.0000000+00:00</time></trkpt><trkpt lat="35.1036848" lon="32.5034952"><ele>17.9</ele><time>2015-04-26T14:31:26.0000000+00:00</time></trkpt><trkpt lat="35.1036361" lon="32.5034711"><ele>17.9</ele><time>2015-04-26T14:31:27.0000000+00:00</time></trkpt><trkpt lat="35.103587" lon="32.5034411"><ele>17.9</ele><time>2015-04-26T14:31:28.0000000+00:00</time></trkpt><trkpt lat="35.1035411" lon="32.5034043"><ele>17.9</ele><time>2015-04-26T14:31:29.0000000+00:00</time></trkpt><trkpt lat="35.1034898" lon="32.5033609"><ele>17.9</ele><time>2015-04-26T14:31:30.0000000+00:00</time></trkpt><trkpt lat="35.1034449" lon="32.5033249"><ele>18.4</ele><time>2015-04-26T14:31:31.0000000+00:00</time></trkpt><trkpt lat="35.1034" lon="32.5032906"><ele>18.2</ele><time>2015-04-26T14:31:32.0000000+00:00</time></trkpt><trkpt lat="35.1033551" lon="32.5032566"><ele>18.1</ele><time>2015-04-26T14:31:33.0000000+00:00</time></trkpt><trkpt lat="35.1033088" lon="32.5032228"><ele>18.5</ele><time>2015-04-26T14:31:34.0000000+00:00</time></trkpt><trkpt lat="35.1032606" lon="32.503195"><ele>18.7</ele><time>2015-04-26T14:31:35.0000000+00:00</time></trkpt><trkpt lat="35.1032121" lon="32.5031636"><ele>18.8</ele><time>2015-04-26T14:31:36.0000000+00:00</time></trkpt><trkpt lat="35.1031662" lon="32.5031304"><ele>18.9</ele><time>2015-04-26T14:31:37.0000000+00:00</time></trkpt><trkpt lat="35.1031192" lon="32.5030929"><ele>18.9</ele><time>2015-04-26T14:31:38.0000000+00:00</time></trkpt><trkpt lat="35.1030777" lon="32.5030562"><ele>18.9</ele><time>2015-04-26T14:31:39.0000000+00:00</time></trkpt><trkpt lat="35.1030302" lon="32.503017"><ele>18.9</ele><time>2015-04-26T14:31:40.0000000+00:00</time></trkpt><trkpt lat="35.102957" lon="32.5029646"><ele>16.9</ele><time>2015-04-26T14:31:42.0000000+00:00</time></trkpt><trkpt lat="35.1028867" lon="32.5029062"><ele>16.2</ele><time>2015-04-26T14:31:44.0000000+00:00</time></trkpt><trkpt lat="35.1028139" lon="32.5028715"><ele>16.0</ele><time>2015-04-26T14:31:46.0000000+00:00</time></trkpt><trkpt lat="35.102754" lon="32.5028235"><ele>15.2</ele><time>2015-04-26T14:31:48.0000000+00:00</time></trkpt><trkpt lat="35.1026819" lon="32.50279"><ele>14.7</ele><time>2015-04-26T14:31:50.0000000+00:00</time></trkpt><trkpt lat="35.1026295" lon="32.5027572"><ele>15.4</ele><time>2015-04-26T14:31:52.0000000+00:00</time></trkpt><trkpt lat="35.1025734" lon="32.5027232"><ele>15.5</ele><time>2015-04-26T14:31:54.0000000+00:00</time></trkpt><trkpt lat="35.1025159" lon="32.5026885"><ele>15.8</ele><time>2015-04-26T14:31:56.0000000+00:00</time></trkpt><trkpt lat="35.1024568" lon="32.5026577"><ele>15.9</ele><time>2015-04-26T14:31:58.0000000+00:00</time></trkpt><trkpt lat="35.1024045" lon="32.5026281"><ele>16.7</ele><time>2015-04-26T14:32:00.0000000+00:00</time></trkpt><trkpt lat="35.1023564" lon="32.5025949"><ele>17.4</ele><time>2015-04-26T14:32:02.0000000+00:00</time></trkpt><trkpt lat="35.1023067" lon="32.5025667"><ele>17.0</ele><time>2015-04-26T14:32:04.0000000+00:00</time></trkpt><trkpt lat="35.1022522" lon="32.50254"><ele>17.0</ele><time>2015-04-26T14:32:06.0000000+00:00</time></trkpt><trkpt lat="35.102198" lon="32.5025186"><ele>16.9</ele><time>2015-04-26T14:32:08.0000000+00:00</time></trkpt><trkpt lat="35.1021396" lon="32.502491"><ele>17.4</ele><time>2015-04-26T14:32:10.0000000+00:00</time></trkpt><trkpt lat="35.1020531" lon="32.5024363"><ele>17.8</ele><time>2015-04-26T14:32:12.0000000+00:00</time></trkpt><trkpt lat="35.102009" lon="32.5024137"><ele>17.9</ele><time>2015-04-26T14:32:13.0000000+00:00</time></trkpt><trkpt lat="35.101961" lon="32.5023865"><ele>17.9</ele><time>2015-04-26T14:32:14.0000000+00:00</time></trkpt><trkpt lat="35.1019143" lon="32.5023586"><ele>17.9</ele><time>2015-04-26T14:32:15.0000000+00:00</time></trkpt><trkpt lat="35.1018428" lon="32.5023052"><ele>18.7</ele><time>2015-04-26T14:32:17.0000000+00:00</time></trkpt><trkpt lat="35.1017985" lon="32.5022795"><ele>18.8</ele><time>2015-04-26T14:32:18.0000000+00:00</time></trkpt><trkpt lat="35.1017576" lon="32.5022538"><ele>18.9</ele><time>2015-04-26T14:32:19.0000000+00:00</time></trkpt><trkpt lat="35.1017133" lon="32.5022291"><ele>18.9</ele><time>2015-04-26T14:32:20.0000000+00:00</time></trkpt><trkpt lat="35.101674" lon="32.5021995"><ele>18.9</ele><time>2015-04-26T14:32:21.0000000+00:00</time></trkpt><trkpt lat="35.1016301" lon="32.5021739"><ele>18.9</ele><time>2015-04-26T14:32:22.0000000+00:00</time></trkpt><trkpt lat="35.1015557" lon="32.5021262"><ele>18.9</ele><time>2015-04-26T14:32:24.0000000+00:00</time></trkpt><trkpt lat="35.1014883" lon="32.5020671"><ele>17.7</ele><time>2015-04-26T14:32:26.0000000+00:00</time></trkpt><trkpt lat="35.1014444" lon="32.5020399"><ele>17.3</ele><time>2015-04-26T14:32:27.0000000+00:00</time></trkpt><trkpt lat="35.1014037" lon="32.5020153"><ele>17.1</ele><time>2015-04-26T14:32:28.0000000+00:00</time></trkpt><trkpt lat="35.1013256" lon="32.5019672"><ele>16.7</ele><time>2015-04-26T14:32:30.0000000+00:00</time></trkpt><trkpt lat="35.1012856" lon="32.5019364"><ele>16.3</ele><time>2015-04-26T14:32:31.0000000+00:00</time></trkpt><trkpt lat="35.1012339" lon="32.5019109"><ele>15.6</ele><time>2015-04-26T14:32:32.0000000+00:00</time></trkpt><trkpt lat="35.1011906" lon="32.501884"><ele>15.3</ele><time>2015-04-26T14:32:33.0000000+00:00</time></trkpt><trkpt lat="35.1011372" lon="32.5018614"><ele>15.6</ele><time>2015-04-26T14:32:34.0000000+00:00</time></trkpt><trkpt lat="35.1010957" lon="32.5018311"><ele>15.8</ele><time>2015-04-26T14:32:35.0000000+00:00</time></trkpt><trkpt lat="35.1010471" lon="32.5018048"><ele>15.8</ele><time>2015-04-26T14:32:36.0000000+00:00</time></trkpt><trkpt lat="35.1009709" lon="32.5017604"><ele>15.2</ele><time>2015-04-26T14:32:38.0000000+00:00</time></trkpt><trkpt lat="35.1009254" lon="32.5017248"><ele>15.5</ele><time>2015-04-26T14:32:39.0000000+00:00</time></trkpt><trkpt lat="35.1008824" lon="32.5016972"><ele>15.7</ele><time>2015-04-26T14:32:40.0000000+00:00</time></trkpt><trkpt lat="35.1007968" lon="32.5016356"><ele>15.9</ele><time>2015-04-26T14:32:42.0000000+00:00</time></trkpt><trkpt lat="35.1007097" lon="32.5015778"><ele>16.7</ele><time>2015-04-26T14:32:44.0000000+00:00</time></trkpt><trkpt lat="35.1006618" lon="32.5015455"><ele>16.8</ele><time>2015-04-26T14:32:45.0000000+00:00</time></trkpt><trkpt lat="35.1006165" lon="32.501517"><ele>16.9</ele><time>2015-04-26T14:32:46.0000000+00:00</time></trkpt><trkpt lat="35.1005801" lon="32.5014832"><ele>16.9</ele><time>2015-04-26T14:32:47.0000000+00:00</time></trkpt><trkpt lat="35.1005361" lon="32.5014461"><ele>16.9</ele><time>2015-04-26T14:32:48.0000000+00:00</time></trkpt><trkpt lat="35.1004894" lon="32.5014135"><ele>16.9</ele><time>2015-04-26T14:32:49.0000000+00:00</time></trkpt><trkpt lat="35.100445" lon="32.5013823"><ele>16.9</ele><time>2015-04-26T14:32:50.0000000+00:00</time></trkpt><trkpt lat="35.1003885" lon="32.5013516"><ele>16.9</ele><time>2015-04-26T14:32:51.0000000+00:00</time></trkpt><trkpt lat="35.1003396" lon="32.5013158"><ele>16.9</ele><time>2015-04-26T14:32:52.0000000+00:00</time></trkpt><trkpt lat="35.1002875" lon="32.5012698"><ele>16.4</ele><time>2015-04-26T14:32:53.0000000+00:00</time></trkpt><trkpt lat="35.1002426" lon="32.5012455"><ele>16.2</ele><time>2015-04-26T14:32:54.0000000+00:00</time></trkpt><trkpt lat="35.1002089" lon="32.5012063"><ele>16.6</ele><time>2015-04-26T14:32:55.0000000+00:00</time></trkpt><trkpt lat="35.1001402" lon="32.5011538"><ele>16.3</ele><time>2015-04-26T14:32:57.0000000+00:00</time></trkpt><trkpt lat="35.1000952" lon="32.5011216"><ele>16.6</ele><time>2015-04-26T14:32:58.0000000+00:00</time></trkpt><trkpt lat="35.1000521" lon="32.5010965"><ele>16.3</ele><time>2015-04-26T14:32:59.0000000+00:00</time></trkpt><trkpt lat="35.1000058" lon="32.5010643"><ele>16.6</ele><time>2015-04-26T14:33:00.0000000+00:00</time></trkpt><trkpt lat="35.0999617" lon="32.5010396"><ele>17.3</ele><time>2015-04-26T14:33:01.0000000+00:00</time></trkpt><trkpt lat="35.0999265" lon="32.5010012"><ele>17.1</ele><time>2015-04-26T14:33:02.0000000+00:00</time></trkpt><trkpt lat="35.0998746" lon="32.5009704"><ele>17.0</ele><time>2015-04-26T14:33:03.0000000+00:00</time></trkpt><trkpt lat="35.0998327" lon="32.5009372"><ele>17.0</ele><time>2015-04-26T14:33:04.0000000+00:00</time></trkpt><trkpt lat="35.09975" lon="32.5008839"><ele>16.9</ele><time>2015-04-26T14:33:06.0000000+00:00</time></trkpt><trkpt lat="35.0996763" lon="32.5008167"><ele>16.9</ele><time>2015-04-26T14:33:08.0000000+00:00</time></trkpt><trkpt lat="35.0996263" lon="32.500784"><ele>16.9</ele><time>2015-04-26T14:33:09.0000000+00:00</time></trkpt><trkpt lat="35.0995853" lon="32.5007604"><ele>16.9</ele><time>2015-04-26T14:33:10.0000000+00:00</time></trkpt><trkpt lat="35.0995383" lon="32.5007274"><ele>17.4</ele><time>2015-04-26T14:33:11.0000000+00:00</time></trkpt><trkpt lat="35.0994913" lon="32.5006988"><ele>17.7</ele><time>2015-04-26T14:33:12.0000000+00:00</time></trkpt><trkpt lat="35.099443" lon="32.5006733"><ele>17.8</ele><time>2015-04-26T14:33:13.0000000+00:00</time></trkpt><trkpt lat="35.0993654" lon="32.5006114"><ele>18.6</ele><time>2015-04-26T14:33:15.0000000+00:00</time></trkpt><trkpt lat="35.0993272" lon="32.500579"><ele>19.3</ele><time>2015-04-26T14:33:16.0000000+00:00</time></trkpt><trkpt lat="35.0992809" lon="32.5005514"><ele>19.6</ele><time>2015-04-26T14:33:17.0000000+00:00</time></trkpt><trkpt lat="35.0992361" lon="32.500527"><ele>20.3</ele><time>2015-04-26T14:33:18.0000000+00:00</time></trkpt><trkpt lat="35.0991928" lon="32.5004952"><ele>20.6</ele><time>2015-04-26T14:33:19.0000000+00:00</time></trkpt><trkpt lat="35.0991458" lon="32.500452"><ele>20.3</ele><time>2015-04-26T14:33:20.0000000+00:00</time></trkpt><trkpt lat="35.0990966" lon="32.500425"><ele>20.1</ele><time>2015-04-26T14:33:21.0000000+00:00</time></trkpt><trkpt lat="35.0990494" lon="32.5003884"><ele>20.0</ele><time>2015-04-26T14:33:22.0000000+00:00</time></trkpt><trkpt lat="35.0990076" lon="32.5003555"><ele>20.5</ele><time>2015-04-26T14:33:23.0000000+00:00</time></trkpt><trkpt lat="35.098966" lon="32.500318"><ele>20.7</ele><time>2015-04-26T14:33:24.0000000+00:00</time></trkpt><trkpt lat="35.0988811" lon="32.5002701"><ele>20.9</ele><time>2015-04-26T14:33:26.0000000+00:00</time></trkpt><trkpt lat="35.0988033" lon="32.5002004"><ele>20.9</ele><time>2015-04-26T14:33:28.0000000+00:00</time></trkpt><trkpt lat="35.098761" lon="32.5001693"><ele>20.9</ele><time>2015-04-26T14:33:29.0000000+00:00</time></trkpt><trkpt lat="35.0987141" lon="32.5001428"><ele>20.9</ele><time>2015-04-26T14:33:30.0000000+00:00</time></trkpt><trkpt lat="35.0986704" lon="32.5001152"><ele>20.4</ele><time>2015-04-26T14:33:31.0000000+00:00</time></trkpt><trkpt lat="35.0986291" lon="32.500091"><ele>20.2</ele><time>2015-04-26T14:33:32.0000000+00:00</time></trkpt><trkpt lat="35.0985588" lon="32.5000482"><ele>19.2</ele><time>2015-04-26T14:33:34.0000000+00:00</time></trkpt><trkpt lat="35.0985158" lon="32.5000066"><ele>19.6</ele><time>2015-04-26T14:33:35.0000000+00:00</time></trkpt><trkpt lat="35.098467" lon="32.4999829"><ele>19.8</ele><time>2015-04-26T14:33:36.0000000+00:00</time></trkpt><trkpt lat="35.0984189" lon="32.4999561"><ele>19.8</ele><time>2015-04-26T14:33:37.0000000+00:00</time></trkpt><trkpt lat="35.098347" lon="32.49991"><ele>19.9</ele><time>2015-04-26T14:33:39.0000000+00:00</time></trkpt><trkpt lat="35.0982825" lon="32.4998488"><ele>20.7</ele><time>2015-04-26T14:33:41.0000000+00:00</time></trkpt><trkpt lat="35.0982336" lon="32.4998342"><ele>20.8</ele><time>2015-04-26T14:33:42.0000000+00:00</time></trkpt><trkpt lat="35.0981704" lon="32.4997852"><ele>20.6</ele><time>2015-04-26T14:33:44.0000000+00:00</time></trkpt><trkpt lat="35.0981127" lon="32.4997388"><ele>20.1</ele><time>2015-04-26T14:33:46.0000000+00:00</time></trkpt><trkpt lat="35.0980427" lon="32.4996966"><ele>20.7</ele><time>2015-04-26T14:33:48.0000000+00:00</time></trkpt><trkpt lat="35.0979838" lon="32.4996657"><ele>21.6</ele><time>2015-04-26T14:33:50.0000000+00:00</time></trkpt><trkpt lat="35.0979278" lon="32.4996319"><ele>22.6</ele><time>2015-04-26T14:33:52.0000000+00:00</time></trkpt><trkpt lat="35.0978799" lon="32.4995913"><ele>22.8</ele><time>2015-04-26T14:33:54.0000000+00:00</time></trkpt><trkpt lat="35.0978347" lon="32.4995513"><ele>22.2</ele><time>2015-04-26T14:33:56.0000000+00:00</time></trkpt><trkpt lat="35.0977817" lon="32.4995192"><ele>22.0</ele><time>2015-04-26T14:33:58.0000000+00:00</time></trkpt><trkpt lat="35.0977285" lon="32.4994824"><ele>21.9</ele><time>2015-04-26T14:34:00.0000000+00:00</time></trkpt><trkpt lat="35.0976788" lon="32.4994413"><ele>22.2</ele><time>2015-04-26T14:34:02.0000000+00:00</time></trkpt><trkpt lat="35.0976297" lon="32.4994033"><ele>21.5</ele><time>2015-04-26T14:34:04.0000000+00:00</time></trkpt><trkpt lat="35.0975823" lon="32.4993631"><ele>21.8</ele><time>2015-04-26T14:34:06.0000000+00:00</time></trkpt><trkpt lat="35.0975346" lon="32.4993206"><ele>21.4</ele><time>2015-04-26T14:34:08.0000000+00:00</time></trkpt><trkpt lat="35.0974796" lon="32.4992814"><ele>20.5</ele><time>2015-04-26T14:34:10.0000000+00:00</time></trkpt><trkpt lat="35.0974229" lon="32.4992388"><ele>18.8</ele><time>2015-04-26T14:34:12.0000000+00:00</time></trkpt><trkpt lat="35.0973634" lon="32.4991916"><ele>17.9</ele><time>2015-04-26T14:34:14.0000000+00:00</time></trkpt><trkpt lat="35.0972926" lon="32.4991351"><ele>17.7</ele><time>2015-04-26T14:34:16.0000000+00:00</time></trkpt><trkpt lat="35.0972542" lon="32.4991062"><ele>17.8</ele><time>2015-04-26T14:34:17.0000000+00:00</time></trkpt><trkpt lat="35.0972131" lon="32.4990789"><ele>17.9</ele><time>2015-04-26T14:34:18.0000000+00:00</time></trkpt><trkpt lat="35.097149" lon="32.4990462"><ele>18.4</ele><time>2015-04-26T14:34:19.0000000+00:00</time></trkpt><trkpt lat="35.0971088" lon="32.4990205"><ele>18.7</ele><time>2015-04-26T14:34:20.0000000+00:00</time></trkpt><trkpt lat="35.0970314" lon="32.4989768"><ele>18.9</ele><time>2015-04-26T14:34:22.0000000+00:00</time></trkpt><trkpt lat="35.0969616" lon="32.4989214"><ele>19.2</ele><time>2015-04-26T14:34:24.0000000+00:00</time></trkpt><trkpt lat="35.0968978" lon="32.4988764"><ele>19.0</ele><time>2015-04-26T14:34:26.0000000+00:00</time></trkpt><trkpt lat="35.0968341" lon="32.4988244"><ele>18.9</ele><time>2015-04-26T14:34:28.0000000+00:00</time></trkpt><trkpt lat="35.0967601" lon="32.4987748"><ele>18.9</ele><time>2015-04-26T14:34:30.0000000+00:00</time></trkpt><trkpt lat="35.0966838" lon="32.4987274"><ele>18.9</ele><time>2015-04-26T14:34:32.0000000+00:00</time></trkpt><trkpt lat="35.0965983" lon="32.4986678"><ele>18.9</ele><time>2015-04-26T14:34:34.0000000+00:00</time></trkpt><trkpt lat="35.0965579" lon="32.4986301"><ele>18.9</ele><time>2015-04-26T14:34:35.0000000+00:00</time></trkpt><trkpt lat="35.0964904" lon="32.4985707"><ele>18.4</ele><time>2015-04-26T14:34:37.0000000+00:00</time></trkpt><trkpt lat="35.0964127" lon="32.498528"><ele>18.1</ele><time>2015-04-26T14:34:39.0000000+00:00</time></trkpt><trkpt lat="35.0963442" lon="32.4984695"><ele>18.7</ele><time>2015-04-26T14:34:41.0000000+00:00</time></trkpt><trkpt lat="35.0962688" lon="32.4984252"><ele>18.9</ele><time>2015-04-26T14:34:43.0000000+00:00</time></trkpt><trkpt lat="35.0961957" lon="32.4983815"><ele>19.4</ele><time>2015-04-26T14:34:45.0000000+00:00</time></trkpt><trkpt lat="35.0961208" lon="32.4983275"><ele>19.1</ele><time>2015-04-26T14:34:47.0000000+00:00</time></trkpt><trkpt lat="35.0960493" lon="32.4982841"><ele>19.0</ele><time>2015-04-26T14:34:49.0000000+00:00</time></trkpt><trkpt lat="35.095984" lon="32.4982428"><ele>19.4</ele><time>2015-04-26T14:34:51.0000000+00:00</time></trkpt><trkpt lat="35.0959228" lon="32.4982114"><ele>19.8</ele><time>2015-04-26T14:34:53.0000000+00:00</time></trkpt><trkpt lat="35.0958628" lon="32.4981757"><ele>19.1</ele><time>2015-04-26T14:34:55.0000000+00:00</time></trkpt><trkpt lat="35.095798" lon="32.4981412"><ele>18.2</ele><time>2015-04-26T14:34:57.0000000+00:00</time></trkpt><trkpt lat="35.0957262" lon="32.4981045"><ele>18.0</ele><time>2015-04-26T14:34:59.0000000+00:00</time></trkpt><trkpt lat="35.0956528" lon="32.4980652"><ele>17.9</ele><time>2015-04-26T14:35:01.0000000+00:00</time></trkpt><trkpt lat="35.0955796" lon="32.4980269"><ele>18.7</ele><time>2015-04-26T14:35:03.0000000+00:00</time></trkpt><trkpt lat="35.0955069" lon="32.4979839"><ele>18.9</ele><time>2015-04-26T14:35:05.0000000+00:00</time></trkpt><trkpt lat="35.095433" lon="32.4979333"><ele>19.7</ele><time>2015-04-26T14:35:07.0000000+00:00</time></trkpt><trkpt lat="35.0953345" lon="32.4978705"><ele>19.9</ele><time>2015-04-26T14:35:09.0000000+00:00</time></trkpt><trkpt lat="35.0952602" lon="32.4978241"><ele>19.4</ele><time>2015-04-26T14:35:11.0000000+00:00</time></trkpt><trkpt lat="35.095174" lon="32.4977817"><ele>18.6</ele><time>2015-04-26T14:35:13.0000000+00:00</time></trkpt><trkpt lat="35.0950992" lon="32.4977398"><ele>18.1</ele><time>2015-04-26T14:35:15.0000000+00:00</time></trkpt><trkpt lat="35.0950164" lon="32.4976912"><ele>18.5</ele><time>2015-04-26T14:35:17.0000000+00:00</time></trkpt><trkpt lat="35.0949235" lon="32.4976469"><ele>18.1</ele><time>2015-04-26T14:35:19.0000000+00:00</time></trkpt><trkpt lat="35.0948732" lon="32.4976221"><ele>18.0</ele><time>2015-04-26T14:35:20.0000000+00:00</time></trkpt><trkpt lat="35.0948183" lon="32.4975943"><ele>18.0</ele><time>2015-04-26T14:35:21.0000000+00:00</time></trkpt><trkpt lat="35.0947668" lon="32.4975727"><ele>17.9</ele><time>2015-04-26T14:35:22.0000000+00:00</time></trkpt><trkpt lat="35.0947146" lon="32.4975399"><ele>17.4</ele><time>2015-04-26T14:35:23.0000000+00:00</time></trkpt><trkpt lat="35.0946632" lon="32.4975012"><ele>17.2</ele><time>2015-04-26T14:35:24.0000000+00:00</time></trkpt><trkpt lat="35.0946211" lon="32.4974749"><ele>17.1</ele><time>2015-04-26T14:35:25.0000000+00:00</time></trkpt><trkpt lat="35.0945695" lon="32.497453"><ele>17.0</ele><time>2015-04-26T14:35:26.0000000+00:00</time></trkpt><trkpt lat="35.0945187" lon="32.4974211"><ele>17.0</ele><time>2015-04-26T14:35:27.0000000+00:00</time></trkpt><trkpt lat="35.0944716" lon="32.4973966"><ele>16.9</ele><time>2015-04-26T14:35:28.0000000+00:00</time></trkpt><trkpt lat="35.0944219" lon="32.4973714"><ele>16.9</ele><time>2015-04-26T14:35:29.0000000+00:00</time></trkpt><trkpt lat="35.0943758" lon="32.4973413"><ele>16.9</ele><time>2015-04-26T14:35:30.0000000+00:00</time></trkpt><trkpt lat="35.0943318" lon="32.4973185"><ele>16.9</ele><time>2015-04-26T14:35:31.0000000+00:00</time></trkpt><trkpt lat="35.0942793" lon="32.4972912"><ele>16.9</ele><time>2015-04-26T14:35:32.0000000+00:00</time></trkpt><trkpt lat="35.0942266" lon="32.4972625"><ele>16.9</ele><time>2015-04-26T14:35:33.0000000+00:00</time></trkpt><trkpt lat="35.0941838" lon="32.4972354"><ele>17.4</ele><time>2015-04-26T14:35:34.0000000+00:00</time></trkpt><trkpt lat="35.0941365" lon="32.4971905"><ele>17.7</ele><time>2015-04-26T14:35:35.0000000+00:00</time></trkpt><trkpt lat="35.0940745" lon="32.497163"><ele>17.8</ele><time>2015-04-26T14:35:36.0000000+00:00</time></trkpt><trkpt lat="35.0940261" lon="32.4971276"><ele>17.9</ele><time>2015-04-26T14:35:37.0000000+00:00</time></trkpt><trkpt lat="35.093977" lon="32.4970891"><ele>17.4</ele><time>2015-04-26T14:35:38.0000000+00:00</time></trkpt><trkpt lat="35.0939234" lon="32.497056"><ele>17.7</ele><time>2015-04-26T14:35:39.0000000+00:00</time></trkpt><trkpt lat="35.0938691" lon="32.4970243"><ele>17.8</ele><time>2015-04-26T14:35:40.0000000+00:00</time></trkpt><trkpt lat="35.0938154" lon="32.496988"><ele>17.9</ele><time>2015-04-26T14:35:41.0000000+00:00</time></trkpt><trkpt lat="35.0937587" lon="32.4969497"><ele>18.4</ele><time>2015-04-26T14:35:42.0000000+00:00</time></trkpt><trkpt lat="35.0937089" lon="32.4969112"><ele>18.7</ele><time>2015-04-26T14:35:43.0000000+00:00</time></trkpt><trkpt lat="35.0936615" lon="32.496882"><ele>18.8</ele><time>2015-04-26T14:35:44.0000000+00:00</time></trkpt><trkpt lat="35.0936171" lon="32.4968471"><ele>18.9</ele><time>2015-04-26T14:35:45.0000000+00:00</time></trkpt><trkpt lat="35.0935762" lon="32.4968046"><ele>18.9</ele><time>2015-04-26T14:35:46.0000000+00:00</time></trkpt><trkpt lat="35.0935308" lon="32.4967575"><ele>18.4</ele><time>2015-04-26T14:35:47.0000000+00:00</time></trkpt><trkpt lat="35.0934882" lon="32.4967185"><ele>18.7</ele><time>2015-04-26T14:35:48.0000000+00:00</time></trkpt><trkpt lat="35.0934357" lon="32.4966821"><ele>18.8</ele><time>2015-04-26T14:35:49.0000000+00:00</time></trkpt><trkpt lat="35.0933805" lon="32.4966388"><ele>18.9</ele><time>2015-04-26T14:35:50.0000000+00:00</time></trkpt><trkpt lat="35.0933269" lon="32.4965951"><ele>18.9</ele><time>2015-04-26T14:35:51.0000000+00:00</time></trkpt><trkpt lat="35.093274" lon="32.4965448"><ele>18.9</ele><time>2015-04-26T14:35:52.0000000+00:00</time></trkpt><trkpt lat="35.0932247" lon="32.4964996"><ele>18.9</ele><time>2015-04-26T14:35:53.0000000+00:00</time></trkpt><trkpt lat="35.0931727" lon="32.4964527"><ele>19.4</ele><time>2015-04-26T14:35:54.0000000+00:00</time></trkpt><trkpt lat="35.0931154" lon="32.4964137"><ele>19.2</ele><time>2015-04-26T14:35:55.0000000+00:00</time></trkpt><trkpt lat="35.0930677" lon="32.4963829"><ele>19.1</ele><time>2015-04-26T14:35:56.0000000+00:00</time></trkpt><trkpt lat="35.0930121" lon="32.4963321"><ele>19.0</ele><time>2015-04-26T14:35:57.0000000+00:00</time></trkpt><trkpt lat="35.0929629" lon="32.4962921"><ele>19.0</ele><time>2015-04-26T14:35:58.0000000+00:00</time></trkpt><trkpt lat="35.0929302" lon="32.4962425"><ele>17.9</ele><time>2015-04-26T14:35:59.0000000+00:00</time></trkpt><trkpt lat="35.0928833" lon="32.4962029"><ele>17.4</ele><time>2015-04-26T14:36:00.0000000+00:00</time></trkpt><trkpt lat="35.0928374" lon="32.4961653"><ele>17.2</ele><time>2015-04-26T14:36:01.0000000+00:00</time></trkpt><trkpt lat="35.0927948" lon="32.4961244"><ele>17.6</ele><time>2015-04-26T14:36:02.0000000+00:00</time></trkpt><trkpt lat="35.0927434" lon="32.4960882"><ele>17.7</ele><time>2015-04-26T14:36:03.0000000+00:00</time></trkpt><trkpt lat="35.0926968" lon="32.4960548"><ele>17.8</ele><time>2015-04-26T14:36:04.0000000+00:00</time></trkpt><trkpt lat="35.0926538" lon="32.496023"><ele>17.9</ele><time>2015-04-26T14:36:05.0000000+00:00</time></trkpt><trkpt lat="35.0926127" lon="32.4959953"><ele>17.9</ele><time>2015-04-26T14:36:06.0000000+00:00</time></trkpt><trkpt lat="35.0925704" lon="32.4959618"><ele>17.4</ele><time>2015-04-26T14:36:07.0000000+00:00</time></trkpt><trkpt lat="35.0925336" lon="32.4959222"><ele>17.2</ele><time>2015-04-26T14:36:08.0000000+00:00</time></trkpt><trkpt lat="35.0924614" lon="32.4958544"><ele>17.7</ele><time>2015-04-26T14:36:10.0000000+00:00</time></trkpt><trkpt lat="35.0924195" lon="32.4958248"><ele>17.8</ele><time>2015-04-26T14:36:11.0000000+00:00</time></trkpt><trkpt lat="35.0923819" lon="32.4957941"><ele>17.9</ele><time>2015-04-26T14:36:12.0000000+00:00</time></trkpt><trkpt lat="35.0923453" lon="32.4957566"><ele>17.9</ele><time>2015-04-26T14:36:13.0000000+00:00</time></trkpt><trkpt lat="35.0922742" lon="32.4956911"><ele>17.9</ele><time>2015-04-26T14:36:15.0000000+00:00</time></trkpt><trkpt lat="35.0922018" lon="32.4956336"><ele>17.9</ele><time>2015-04-26T14:36:17.0000000+00:00</time></trkpt><trkpt lat="35.0921319" lon="32.4955863"><ele>18.4</ele><time>2015-04-26T14:36:19.0000000+00:00</time></trkpt><trkpt lat="35.0920763" lon="32.4955351"><ele>18.1</ele><time>2015-04-26T14:36:21.0000000+00:00</time></trkpt><trkpt lat="35.0920104" lon="32.4954902"><ele>18.0</ele><time>2015-04-26T14:36:23.0000000+00:00</time></trkpt><trkpt lat="35.0919608" lon="32.4954331"><ele>17.9</ele><time>2015-04-26T14:36:25.0000000+00:00</time></trkpt><trkpt lat="35.0919134" lon="32.4953781"><ele>17.2</ele><time>2015-04-26T14:36:27.0000000+00:00</time></trkpt><trkpt lat="35.0918572" lon="32.4953329"><ele>17.0</ele><time>2015-04-26T14:36:29.0000000+00:00</time></trkpt><trkpt lat="35.0918012" lon="32.4952905"><ele>16.9</ele><time>2015-04-26T14:36:31.0000000+00:00</time></trkpt><trkpt lat="35.0917483" lon="32.4952451"><ele>16.9</ele><time>2015-04-26T14:36:33.0000000+00:00</time></trkpt><trkpt lat="35.0916939" lon="32.495193"><ele>16.9</ele><time>2015-04-26T14:36:35.0000000+00:00</time></trkpt><trkpt lat="35.0916203" lon="32.4951253"><ele>17.4</ele><time>2015-04-26T14:36:37.0000000+00:00</time></trkpt><trkpt lat="35.0915821" lon="32.4950916"><ele>17.7</ele><time>2015-04-26T14:36:38.0000000+00:00</time></trkpt><trkpt lat="35.0915108" lon="32.4950305"><ele>17.9</ele><time>2015-04-26T14:36:40.0000000+00:00</time></trkpt><trkpt lat="35.0914712" lon="32.4949974"><ele>17.9</ele><time>2015-04-26T14:36:41.0000000+00:00</time></trkpt><trkpt lat="35.0914288" lon="32.494972"><ele>18.4</ele><time>2015-04-26T14:36:42.0000000+00:00</time></trkpt><trkpt lat="35.0913923" lon="32.4949354"><ele>18.7</ele><time>2015-04-26T14:36:43.0000000+00:00</time></trkpt><trkpt lat="35.0913243" lon="32.4948705"><ele>18.9</ele><time>2015-04-26T14:36:45.0000000+00:00</time></trkpt><trkpt lat="35.0912887" lon="32.4948355"><ele>18.9</ele><time>2015-04-26T14:36:46.0000000+00:00</time></trkpt><trkpt lat="35.0912106" lon="32.4947835"><ele>18.9</ele><time>2015-04-26T14:36:48.0000000+00:00</time></trkpt><trkpt lat="35.0911752" lon="32.4947473"><ele>19.4</ele><time>2015-04-26T14:36:49.0000000+00:00</time></trkpt><trkpt lat="35.0911026" lon="32.4946802"><ele>19.8</ele><time>2015-04-26T14:36:51.0000000+00:00</time></trkpt><trkpt lat="35.0910321" lon="32.4946168"><ele>19.9</ele><time>2015-04-26T14:36:53.0000000+00:00</time></trkpt><trkpt lat="35.0909934" lon="32.4945814"><ele>19.9</ele><time>2015-04-26T14:36:54.0000000+00:00</time></trkpt><trkpt lat="35.0909673" lon="32.4945313"><ele>19.9</ele><time>2015-04-26T14:36:55.0000000+00:00</time></trkpt><trkpt lat="35.0908992" lon="32.4944714"><ele>19.9</ele><time>2015-04-26T14:36:57.0000000+00:00</time></trkpt><trkpt lat="35.0908356" lon="32.4944156"><ele>19.9</ele><time>2015-04-26T14:36:59.0000000+00:00</time></trkpt><trkpt lat="35.0907829" lon="32.4943559"><ele>19.4</ele><time>2015-04-26T14:37:01.0000000+00:00</time></trkpt><trkpt lat="35.0907358" lon="32.4943054"><ele>19.1</ele><time>2015-04-26T14:37:03.0000000+00:00</time></trkpt><trkpt lat="35.0906924" lon="32.4942727"><ele>18.2</ele><time>2015-04-26T14:37:05.0000000+00:00</time></trkpt><trkpt lat="35.0906452" lon="32.4942382"><ele>18.0</ele><time>2015-04-26T14:37:07.0000000+00:00</time></trkpt><trkpt lat="35.0906025" lon="32.4942107"><ele>18.7</ele><time>2015-04-26T14:37:09.0000000+00:00</time></trkpt><trkpt lat="35.0905604" lon="32.4941798"><ele>18.9</ele><time>2015-04-26T14:37:11.0000000+00:00</time></trkpt><trkpt lat="35.0905162" lon="32.4941333"><ele>19.4</ele><time>2015-04-26T14:37:13.0000000+00:00</time></trkpt><trkpt lat="35.0904679" lon="32.4940791"><ele>18.6</ele><time>2015-04-26T14:37:15.0000000+00:00</time></trkpt><trkpt lat="35.090418" lon="32.4940239"><ele>18.6</ele><time>2015-04-26T14:37:17.0000000+00:00</time></trkpt><trkpt lat="35.0903677" lon="32.4939765"><ele>18.8</ele><time>2015-04-26T14:37:19.0000000+00:00</time></trkpt><trkpt lat="35.0903188" lon="32.4939387"><ele>18.4</ele><time>2015-04-26T14:37:21.0000000+00:00</time></trkpt><trkpt lat="35.090266" lon="32.4938991"><ele>18.8</ele><time>2015-04-26T14:37:23.0000000+00:00</time></trkpt><trkpt lat="35.0902142" lon="32.493848"><ele>18.4</ele><time>2015-04-26T14:37:25.0000000+00:00</time></trkpt><trkpt lat="35.0901592" lon="32.4937937"><ele>18.0</ele><time>2015-04-26T14:37:27.0000000+00:00</time></trkpt><trkpt lat="35.0901006" lon="32.4937375"><ele>18.0</ele><time>2015-04-26T14:37:29.0000000+00:00</time></trkpt><trkpt lat="35.0900395" lon="32.4936802"><ele>18.7</ele><time>2015-04-26T14:37:31.0000000+00:00</time></trkpt><trkpt lat="35.0899822" lon="32.4936219"><ele>18.9</ele><time>2015-04-26T14:37:33.0000000+00:00</time></trkpt><trkpt lat="35.0899251" lon="32.4935636"><ele>18.4</ele><time>2015-04-26T14:37:35.0000000+00:00</time></trkpt><trkpt lat="35.0898694" lon="32.4935066"><ele>18.1</ele><time>2015-04-26T14:37:37.0000000+00:00</time></trkpt><trkpt lat="35.0898168" lon="32.4934539"><ele>18.0</ele><time>2015-04-26T14:37:39.0000000+00:00</time></trkpt><trkpt lat="35.0897645" lon="32.4934057"><ele>17.9</ele><time>2015-04-26T14:37:41.0000000+00:00</time></trkpt><trkpt lat="35.0897094" lon="32.4933623"><ele>17.9</ele><time>2015-04-26T14:37:43.0000000+00:00</time></trkpt><trkpt lat="35.0896538" lon="32.4933143"><ele>17.4</ele><time>2015-04-26T14:37:45.0000000+00:00</time></trkpt><trkpt lat="35.0895994" lon="32.4932608"><ele>17.1</ele><time>2015-04-26T14:37:47.0000000+00:00</time></trkpt><trkpt lat="35.0895412" lon="32.4932015"><ele>17.0</ele><time>2015-04-26T14:37:49.0000000+00:00</time></trkpt><trkpt lat="35.0894898" lon="32.4931459"><ele>16.9</ele><time>2015-04-26T14:37:50.0000000+00:00</time></trkpt><trkpt lat="35.0894524" lon="32.4931094"><ele>17.4</ele><time>2015-04-26T14:37:51.0000000+00:00</time></trkpt><trkpt lat="35.0894026" lon="32.4930725"><ele>17.2</ele><time>2015-04-26T14:37:52.0000000+00:00</time></trkpt><trkpt lat="35.089363" lon="32.493044"><ele>17.1</ele><time>2015-04-26T14:37:53.0000000+00:00</time></trkpt><trkpt lat="35.0893194" lon="32.4930121"><ele>17.5</ele><time>2015-04-26T14:37:54.0000000+00:00</time></trkpt><trkpt lat="35.0892501" lon="32.4929438"><ele>17.1</ele><time>2015-04-26T14:37:56.0000000+00:00</time></trkpt><trkpt lat="35.0892098" lon="32.4928986"><ele>17.0</ele><time>2015-04-26T14:37:57.0000000+00:00</time></trkpt><trkpt lat="35.0891704" lon="32.4928572"><ele>17.0</ele><time>2015-04-26T14:37:58.0000000+00:00</time></trkpt><trkpt lat="35.0891293" lon="32.4928186"><ele>16.9</ele><time>2015-04-26T14:37:59.0000000+00:00</time></trkpt><trkpt lat="35.0890897" lon="32.4927897"><ele>16.9</ele><time>2015-04-26T14:38:00.0000000+00:00</time></trkpt><trkpt lat="35.089047" lon="32.4927536"><ele>16.9</ele><time>2015-04-26T14:38:01.0000000+00:00</time></trkpt><trkpt lat="35.0890082" lon="32.4927201"><ele>16.9</ele><time>2015-04-26T14:38:02.0000000+00:00</time></trkpt><trkpt lat="35.088966" lon="32.4926862"><ele>16.9</ele><time>2015-04-26T14:38:03.0000000+00:00</time></trkpt><trkpt lat="35.0889294" lon="32.4926468"><ele>16.9</ele><time>2015-04-26T14:38:04.0000000+00:00</time></trkpt><trkpt lat="35.0888875" lon="32.4926096"><ele>16.4</ele><time>2015-04-26T14:38:05.0000000+00:00</time></trkpt><trkpt lat="35.0888465" lon="32.4925684"><ele>16.2</ele><time>2015-04-26T14:38:06.0000000+00:00</time></trkpt><trkpt lat="35.0888065" lon="32.4925354"><ele>16.1</ele><time>2015-04-26T14:38:07.0000000+00:00</time></trkpt><trkpt lat="35.0887605" lon="32.4924878"><ele>16.0</ele><time>2015-04-26T14:38:08.0000000+00:00</time></trkpt><trkpt lat="35.0887172" lon="32.4924448"><ele>16.5</ele><time>2015-04-26T14:38:09.0000000+00:00</time></trkpt><trkpt lat="35.0886713" lon="32.4924003"><ele>16.7</ele><time>2015-04-26T14:38:10.0000000+00:00</time></trkpt><trkpt lat="35.0886259" lon="32.4923705"><ele>16.8</ele><time>2015-04-26T14:38:11.0000000+00:00</time></trkpt><trkpt lat="35.0885827" lon="32.4923341"><ele>16.9</ele><time>2015-04-26T14:38:12.0000000+00:00</time></trkpt><trkpt lat="35.0885043" lon="32.492277"><ele>16.9</ele><time>2015-04-26T14:38:14.0000000+00:00</time></trkpt><trkpt lat="35.0884634" lon="32.4922382"><ele>16.9</ele><time>2015-04-26T14:38:15.0000000+00:00</time></trkpt><trkpt lat="35.0884216" lon="32.4922111"><ele>16.4</ele><time>2015-04-26T14:38:16.0000000+00:00</time></trkpt><trkpt lat="35.0883738" lon="32.4921722"><ele>16.2</ele><time>2015-04-26T14:38:17.0000000+00:00</time></trkpt><trkpt lat="35.0883332" lon="32.4921326"><ele>16.1</ele><time>2015-04-26T14:38:18.0000000+00:00</time></trkpt><trkpt lat="35.0882836" lon="32.4920997"><ele>16.0</ele><time>2015-04-26T14:38:19.0000000+00:00</time></trkpt><trkpt lat="35.0882432" lon="32.4920593"><ele>16.0</ele><time>2015-04-26T14:38:20.0000000+00:00</time></trkpt><trkpt lat="35.088195" lon="32.4920286"><ele>15.9</ele><time>2015-04-26T14:38:21.0000000+00:00</time></trkpt><trkpt lat="35.0881452" lon="32.4919931"><ele>15.9</ele><time>2015-04-26T14:38:22.0000000+00:00</time></trkpt><trkpt lat="35.0880938" lon="32.4919612"><ele>15.9</ele><time>2015-04-26T14:38:23.0000000+00:00</time></trkpt><trkpt lat="35.0880372" lon="32.4919293"><ele>15.9</ele><time>2015-04-26T14:38:24.0000000+00:00</time></trkpt><trkpt lat="35.0879779" lon="32.4918868"><ele>16.4</ele><time>2015-04-26T14:38:25.0000000+00:00</time></trkpt><trkpt lat="35.0879272" lon="32.4918553"><ele>16.2</ele><time>2015-04-26T14:38:26.0000000+00:00</time></trkpt><trkpt lat="35.0878771" lon="32.4918155"><ele>16.6</ele><time>2015-04-26T14:38:27.0000000+00:00</time></trkpt><trkpt lat="35.0878228" lon="32.4917785"><ele>16.7</ele><time>2015-04-26T14:38:28.0000000+00:00</time></trkpt><trkpt lat="35.0877698" lon="32.4917395"><ele>16.8</ele><time>2015-04-26T14:38:29.0000000+00:00</time></trkpt><trkpt lat="35.0877195" lon="32.4916958"><ele>17.4</ele><time>2015-04-26T14:38:30.0000000+00:00</time></trkpt><trkpt lat="35.0876632" lon="32.4916607"><ele>17.7</ele><time>2015-04-26T14:38:31.0000000+00:00</time></trkpt><trkpt lat="35.0876102" lon="32.4916236"><ele>18.3</ele><time>2015-04-26T14:38:32.0000000+00:00</time></trkpt><trkpt lat="35.087561" lon="32.491589"><ele>18.1</ele><time>2015-04-26T14:38:33.0000000+00:00</time></trkpt><trkpt lat="35.0875071" lon="32.4915454"><ele>18.0</ele><time>2015-04-26T14:38:34.0000000+00:00</time></trkpt><trkpt lat="35.0874618" lon="32.491512"><ele>18.0</ele><time>2015-04-26T14:38:35.0000000+00:00</time></trkpt><trkpt lat="35.0874146" lon="32.4914722"><ele>18.0</ele><time>2015-04-26T14:38:36.0000000+00:00</time></trkpt><trkpt lat="35.0873581" lon="32.4914329"><ele>17.9</ele><time>2015-04-26T14:38:37.0000000+00:00</time></trkpt><trkpt lat="35.0873125" lon="32.4913956"><ele>17.9</ele><time>2015-04-26T14:38:38.0000000+00:00</time></trkpt><trkpt lat="35.0872661" lon="32.4913593"><ele>18.4</ele><time>2015-04-26T14:38:39.0000000+00:00</time></trkpt><trkpt lat="35.0872224" lon="32.4913295"><ele>18.7</ele><time>2015-04-26T14:38:40.0000000+00:00</time></trkpt><trkpt lat="35.0871763" lon="32.491291"><ele>18.3</ele><time>2015-04-26T14:38:41.0000000+00:00</time></trkpt><trkpt lat="35.0871306" lon="32.4912596"><ele>18.1</ele><time>2015-04-26T14:38:42.0000000+00:00</time></trkpt><trkpt lat="35.0870874" lon="32.4912271"><ele>18.5</ele><time>2015-04-26T14:38:43.0000000+00:00</time></trkpt><trkpt lat="35.0870385" lon="32.4911893"><ele>18.7</ele><time>2015-04-26T14:38:44.0000000+00:00</time></trkpt><trkpt lat="35.0869854" lon="32.4911541"><ele>18.3</ele><time>2015-04-26T14:38:45.0000000+00:00</time></trkpt><trkpt lat="35.0869462" lon="32.4911107"><ele>18.1</ele><time>2015-04-26T14:38:46.0000000+00:00</time></trkpt><trkpt lat="35.0868984" lon="32.491085"><ele>18.5</ele><time>2015-04-26T14:38:47.0000000+00:00</time></trkpt><trkpt lat="35.0868442" lon="32.4910468"><ele>18.7</ele><time>2015-04-26T14:38:48.0000000+00:00</time></trkpt><trkpt lat="35.0867896" lon="32.4910081"><ele>18.8</ele><time>2015-04-26T14:38:49.0000000+00:00</time></trkpt><trkpt lat="35.0867447" lon="32.4909675"><ele>18.4</ele><time>2015-04-26T14:38:50.0000000+00:00</time></trkpt><trkpt lat="35.0866918" lon="32.4909315"><ele>18.7</ele><time>2015-04-26T14:38:51.0000000+00:00</time></trkpt><trkpt lat="35.0866523" lon="32.49089"><ele>18.3</ele><time>2015-04-26T14:38:52.0000000+00:00</time></trkpt><trkpt lat="35.0865992" lon="32.4908592"><ele>18.1</ele><time>2015-04-26T14:38:53.0000000+00:00</time></trkpt><trkpt lat="35.0865547" lon="32.490831"><ele>18.0</ele><time>2015-04-26T14:38:54.0000000+00:00</time></trkpt><trkpt lat="35.0865084" lon="32.4907934"><ele>17.5</ele><time>2015-04-26T14:38:55.0000000+00:00</time></trkpt><trkpt lat="35.0864688" lon="32.4907639"><ele>17.2</ele><time>2015-04-26T14:38:56.0000000+00:00</time></trkpt><trkpt lat="35.0864262" lon="32.4907221"><ele>17.1</ele><time>2015-04-26T14:38:57.0000000+00:00</time></trkpt><trkpt lat="35.0863837" lon="32.4906823"><ele>16.5</ele><time>2015-04-26T14:38:58.0000000+00:00</time></trkpt><trkpt lat="35.0863397" lon="32.4906463"><ele>16.2</ele><time>2015-04-26T14:38:59.0000000+00:00</time></trkpt><trkpt lat="35.0862952" lon="32.4906003"><ele>16.1</ele><time>2015-04-26T14:39:00.0000000+00:00</time></trkpt><trkpt lat="35.0862445" lon="32.4905589"><ele>16.0</ele><time>2015-04-26T14:39:01.0000000+00:00</time></trkpt><trkpt lat="35.0861949" lon="32.4905173"><ele>15.5</ele><time>2015-04-26T14:39:02.0000000+00:00</time></trkpt><trkpt lat="35.0861501" lon="32.4904859"><ele>15.7</ele><time>2015-04-26T14:39:03.0000000+00:00</time></trkpt><trkpt lat="35.086113" lon="32.4904398"><ele>15.8</ele><time>2015-04-26T14:39:04.0000000+00:00</time></trkpt><trkpt lat="35.086068" lon="32.4904011"><ele>15.9</ele><time>2015-04-26T14:39:05.0000000+00:00</time></trkpt><trkpt lat="35.0860256" lon="32.4903507"><ele>15.9</ele><time>2015-04-26T14:39:06.0000000+00:00</time></trkpt><trkpt lat="35.0859851" lon="32.4903132"><ele>15.9</ele><time>2015-04-26T14:39:07.0000000+00:00</time></trkpt><trkpt lat="35.0859432" lon="32.4902779"><ele>15.9</ele><time>2015-04-26T14:39:08.0000000+00:00</time></trkpt><trkpt lat="35.0859022" lon="32.4902404"><ele>16.4</ele><time>2015-04-26T14:39:09.0000000+00:00</time></trkpt><trkpt lat="35.0858672" lon="32.490192"><ele>17.2</ele><time>2015-04-26T14:39:10.0000000+00:00</time></trkpt><trkpt lat="35.0858232" lon="32.4901526"><ele>17.1</ele><time>2015-04-26T14:39:11.0000000+00:00</time></trkpt><trkpt lat="35.0857878" lon="32.4901165"><ele>17.5</ele><time>2015-04-26T14:39:12.0000000+00:00</time></trkpt><trkpt lat="35.0857189" lon="32.4900647"><ele>17.1</ele><time>2015-04-26T14:39:14.0000000+00:00</time></trkpt><trkpt lat="35.0856425" lon="32.49"><ele>17.5</ele><time>2015-04-26T14:39:16.0000000+00:00</time></trkpt><trkpt lat="35.0856033" lon="32.48997"><ele>17.7</ele><time>2015-04-26T14:39:17.0000000+00:00</time></trkpt><trkpt lat="35.0855296" lon="32.4899092"><ele>17.9</ele><time>2015-04-26T14:39:19.0000000+00:00</time></trkpt><trkpt lat="35.085465" lon="32.4898379"><ele>17.9</ele><time>2015-04-26T14:39:21.0000000+00:00</time></trkpt><trkpt lat="35.085428" lon="32.4898014"><ele>17.9</ele><time>2015-04-26T14:39:22.0000000+00:00</time></trkpt><trkpt lat="35.0853858" lon="32.4897687"><ele>18.4</ele><time>2015-04-26T14:39:23.0000000+00:00</time></trkpt><trkpt lat="35.0853164" lon="32.4896977"><ele>18.1</ele><time>2015-04-26T14:39:25.0000000+00:00</time></trkpt><trkpt lat="35.0852745" lon="32.4896535"><ele>18.0</ele><time>2015-04-26T14:39:26.0000000+00:00</time></trkpt><trkpt lat="35.0852309" lon="32.4896213"><ele>18.5</ele><time>2015-04-26T14:39:27.0000000+00:00</time></trkpt><trkpt lat="35.0851582" lon="32.489555"><ele>18.1</ele><time>2015-04-26T14:39:29.0000000+00:00</time></trkpt><trkpt lat="35.0850945" lon="32.4894742"><ele>17.5</ele><time>2015-04-26T14:39:31.0000000+00:00</time></trkpt><trkpt lat="35.0850564" lon="32.4894345"><ele>17.2</ele><time>2015-04-26T14:39:32.0000000+00:00</time></trkpt><trkpt lat="35.0850164" lon="32.4893938"><ele>16.6</ele><time>2015-04-26T14:39:33.0000000+00:00</time></trkpt><trkpt lat="35.0849683" lon="32.4893542"><ele>16.7</ele><time>2015-04-26T14:39:34.0000000+00:00</time></trkpt><trkpt lat="35.0849186" lon="32.4893134"><ele>16.8</ele><time>2015-04-26T14:39:35.0000000+00:00</time></trkpt><trkpt lat="35.084871" lon="32.4892747"><ele>16.9</ele><time>2015-04-26T14:39:36.0000000+00:00</time></trkpt><trkpt lat="35.0848307" lon="32.4892381"><ele>16.9</ele><time>2015-04-26T14:39:37.0000000+00:00</time></trkpt><trkpt lat="35.0847926" lon="32.489206"><ele>16.9</ele><time>2015-04-26T14:39:38.0000000+00:00</time></trkpt><trkpt lat="35.0847451" lon="32.4891779"><ele>16.9</ele><time>2015-04-26T14:39:39.0000000+00:00</time></trkpt><trkpt lat="35.0846707" lon="32.4890984"><ele>16.4</ele><time>2015-04-26T14:39:41.0000000+00:00</time></trkpt><trkpt lat="35.0846269" lon="32.4890635"><ele>16.2</ele><time>2015-04-26T14:39:42.0000000+00:00</time></trkpt><trkpt lat="35.0845837" lon="32.489032"><ele>16.1</ele><time>2015-04-26T14:39:43.0000000+00:00</time></trkpt><trkpt lat="35.084534" lon="32.488994"><ele>16.0</ele><time>2015-04-26T14:39:44.0000000+00:00</time></trkpt><trkpt lat="35.0844949" lon="32.4889521"><ele>16.0</ele><time>2015-04-26T14:39:45.0000000+00:00</time></trkpt><trkpt lat="35.0844529" lon="32.4889145"><ele>16.4</ele><time>2015-04-26T14:39:46.0000000+00:00</time></trkpt><trkpt lat="35.0844065" lon="32.4888816"><ele>17.2</ele><time>2015-04-26T14:39:47.0000000+00:00</time></trkpt><trkpt lat="35.0843647" lon="32.4888468"><ele>17.6</ele><time>2015-04-26T14:39:48.0000000+00:00</time></trkpt><trkpt lat="35.0843239" lon="32.4888199"><ele>17.7</ele><time>2015-04-26T14:39:49.0000000+00:00</time></trkpt><trkpt lat="35.0842815" lon="32.4887879"><ele>17.8</ele><time>2015-04-26T14:39:50.0000000+00:00</time></trkpt><trkpt lat="35.0842389" lon="32.4887439"><ele>17.9</ele><time>2015-04-26T14:39:51.0000000+00:00</time></trkpt><trkpt lat="35.0842011" lon="32.4887052"><ele>18.4</ele><time>2015-04-26T14:39:52.0000000+00:00</time></trkpt><trkpt lat="35.0841546" lon="32.4886711"><ele>18.7</ele><time>2015-04-26T14:39:53.0000000+00:00</time></trkpt><trkpt lat="35.0841113" lon="32.4886383"><ele>18.8</ele><time>2015-04-26T14:39:54.0000000+00:00</time></trkpt><trkpt lat="35.0840653" lon="32.4886052"><ele>18.9</ele><time>2015-04-26T14:39:55.0000000+00:00</time></trkpt><trkpt lat="35.0840285" lon="32.4885676"><ele>18.9</ele><time>2015-04-26T14:39:56.0000000+00:00</time></trkpt><trkpt lat="35.0839816" lon="32.4885401"><ele>18.9</ele><time>2015-04-26T14:39:57.0000000+00:00</time></trkpt><trkpt lat="35.0839008" lon="32.488472"><ele>18.2</ele><time>2015-04-26T14:39:59.0000000+00:00</time></trkpt><trkpt lat="35.0838172" lon="32.4884052"><ele>17.7</ele><time>2015-04-26T14:40:01.0000000+00:00</time></trkpt><trkpt lat="35.083782" lon="32.4883623"><ele>17.3</ele><time>2015-04-26T14:40:02.0000000+00:00</time></trkpt><trkpt lat="35.0837409" lon="32.4883292"><ele>17.1</ele><time>2015-04-26T14:40:03.0000000+00:00</time></trkpt><trkpt lat="35.083662" lon="32.4882718"><ele>17.2</ele><time>2015-04-26T14:40:05.0000000+00:00</time></trkpt><trkpt lat="35.0836161" lon="32.4882383"><ele>17.6</ele><time>2015-04-26T14:40:06.0000000+00:00</time></trkpt><trkpt lat="35.0835688" lon="32.4881989"><ele>18.3</ele><time>2015-04-26T14:40:07.0000000+00:00</time></trkpt><trkpt lat="35.0835284" lon="32.4881584"><ele>18.1</ele><time>2015-04-26T14:40:08.0000000+00:00</time></trkpt><trkpt lat="35.0834814" lon="32.4881281"><ele>18.0</ele><time>2015-04-26T14:40:09.0000000+00:00</time></trkpt><trkpt lat="35.0834335" lon="32.4881044"><ele>18.0</ele><time>2015-04-26T14:40:10.0000000+00:00</time></trkpt><trkpt lat="35.0833908" lon="32.4880709"><ele>18.0</ele><time>2015-04-26T14:40:11.0000000+00:00</time></trkpt><trkpt lat="35.0833509" lon="32.4880357"><ele>17.9</ele><time>2015-04-26T14:40:12.0000000+00:00</time></trkpt><trkpt lat="35.0833069" lon="32.4879926"><ele>17.9</ele><time>2015-04-26T14:40:13.0000000+00:00</time></trkpt><trkpt lat="35.0832635" lon="32.487953"><ele>18.9</ele><time>2015-04-26T14:40:14.0000000+00:00</time></trkpt><trkpt lat="35.0832172" lon="32.4879225"><ele>19.4</ele><time>2015-04-26T14:40:15.0000000+00:00</time></trkpt><trkpt lat="35.0831668" lon="32.4878848"><ele>19.7</ele><time>2015-04-26T14:40:16.0000000+00:00</time></trkpt><trkpt lat="35.0831204" lon="32.4878542"><ele>19.3</ele><time>2015-04-26T14:40:17.0000000+00:00</time></trkpt><trkpt lat="35.0830736" lon="32.4878202"><ele>19.6</ele><time>2015-04-26T14:40:18.0000000+00:00</time></trkpt><trkpt lat="35.0830302" lon="32.4877856"><ele>19.8</ele><time>2015-04-26T14:40:19.0000000+00:00</time></trkpt><trkpt lat="35.0829924" lon="32.4877518"><ele>19.4</ele><time>2015-04-26T14:40:20.0000000+00:00</time></trkpt><trkpt lat="35.0829459" lon="32.4877125"><ele>19.6</ele><time>2015-04-26T14:40:21.0000000+00:00</time></trkpt><trkpt lat="35.0829062" lon="32.4876728"><ele>19.8</ele><time>2015-04-26T14:40:22.0000000+00:00</time></trkpt><trkpt lat="35.0828712" lon="32.4876355"><ele>19.9</ele><time>2015-04-26T14:40:23.0000000+00:00</time></trkpt><trkpt lat="35.0828261" lon="32.4876026"><ele>19.4</ele><time>2015-04-26T14:40:24.0000000+00:00</time></trkpt><trkpt lat="35.0827524" lon="32.4875442"><ele>19.0</ele><time>2015-04-26T14:40:26.0000000+00:00</time></trkpt><trkpt lat="35.0827132" lon="32.4875155"><ele>18.5</ele><time>2015-04-26T14:40:27.0000000+00:00</time></trkpt><trkpt lat="35.082638" lon="32.4874493"><ele>18.1</ele><time>2015-04-26T14:40:29.0000000+00:00</time></trkpt><trkpt lat="35.0826032" lon="32.4874145"><ele>18.0</ele><time>2015-04-26T14:40:30.0000000+00:00</time></trkpt><trkpt lat="35.0825282" lon="32.4873459"><ele>17.9</ele><time>2015-04-26T14:40:32.0000000+00:00</time></trkpt><trkpt lat="35.0824581" lon="32.4872821"><ele>17.9</ele><time>2015-04-26T14:40:34.0000000+00:00</time></trkpt><trkpt lat="35.0824218" lon="32.4872454"><ele>17.9</ele><time>2015-04-26T14:40:35.0000000+00:00</time></trkpt><trkpt lat="35.0823868" lon="32.4871998"><ele>17.9</ele><time>2015-04-26T14:40:36.0000000+00:00</time></trkpt><trkpt lat="35.082313" lon="32.4871318"><ele>17.9</ele><time>2015-04-26T14:40:38.0000000+00:00</time></trkpt><trkpt lat="35.0822489" lon="32.4870755"><ele>17.4</ele><time>2015-04-26T14:40:40.0000000+00:00</time></trkpt><trkpt lat="35.0822109" lon="32.4870457"><ele>17.7</ele><time>2015-04-26T14:40:41.0000000+00:00</time></trkpt><trkpt lat="35.0821756" lon="32.4870023"><ele>17.8</ele><time>2015-04-26T14:40:42.0000000+00:00</time></trkpt><trkpt lat="35.0821308" lon="32.4869716"><ele>17.9</ele><time>2015-04-26T14:40:43.0000000+00:00</time></trkpt><trkpt lat="35.0820909" lon="32.4869424"><ele>17.9</ele><time>2015-04-26T14:40:44.0000000+00:00</time></trkpt><trkpt lat="35.0820448" lon="32.4869082"><ele>17.9</ele><time>2015-04-26T14:40:45.0000000+00:00</time></trkpt><trkpt lat="35.0820038" lon="32.4868701"><ele>17.4</ele><time>2015-04-26T14:40:46.0000000+00:00</time></trkpt><trkpt lat="35.081962" lon="32.4868364"><ele>17.2</ele><time>2015-04-26T14:40:47.0000000+00:00</time></trkpt><trkpt lat="35.0819235" lon="32.4868053"><ele>17.1</ele><time>2015-04-26T14:40:48.0000000+00:00</time></trkpt><trkpt lat="35.08189" lon="32.4867662"><ele>17.0</ele><time>2015-04-26T14:40:49.0000000+00:00</time></trkpt><trkpt lat="35.0818491" lon="32.4867337"><ele>16.5</ele><time>2015-04-26T14:40:50.0000000+00:00</time></trkpt><trkpt lat="35.0818135" lon="32.4866959"><ele>16.7</ele><time>2015-04-26T14:40:51.0000000+00:00</time></trkpt><trkpt lat="35.0817487" lon="32.4866321"><ele>16.9</ele><time>2015-04-26T14:40:53.0000000+00:00</time></trkpt><trkpt lat="35.0816763" lon="32.4865722"><ele>16.9</ele><time>2015-04-26T14:40:55.0000000+00:00</time></trkpt><trkpt lat="35.0816097" lon="32.4865104"><ele>17.4</ele><time>2015-04-26T14:40:57.0000000+00:00</time></trkpt><trkpt lat="35.0815436" lon="32.4864544"><ele>18.6</ele><time>2015-04-26T14:40:59.0000000+00:00</time></trkpt><trkpt lat="35.0814918" lon="32.4864015"><ele>18.1</ele><time>2015-04-26T14:41:01.0000000+00:00</time></trkpt><trkpt lat="35.081432" lon="32.486354"><ele>17.5</ele><time>2015-04-26T14:41:03.0000000+00:00</time></trkpt><trkpt lat="35.0813739" lon="32.4862949"><ele>17.6</ele><time>2015-04-26T14:41:05.0000000+00:00</time></trkpt><trkpt lat="35.0813095" lon="32.4862323"><ele>17.8</ele><time>2015-04-26T14:41:07.0000000+00:00</time></trkpt><trkpt lat="35.0812446" lon="32.4861692"><ele>17.9</ele><time>2015-04-26T14:41:09.0000000+00:00</time></trkpt><trkpt lat="35.0811798" lon="32.486112"><ele>17.9</ele><time>2015-04-26T14:41:11.0000000+00:00</time></trkpt><trkpt lat="35.0811203" lon="32.4860533"><ele>17.9</ele><time>2015-04-26T14:41:13.0000000+00:00</time></trkpt><trkpt lat="35.0810626" lon="32.4859973"><ele>17.9</ele><time>2015-04-26T14:41:15.0000000+00:00</time></trkpt><trkpt lat="35.081" lon="32.4859471"><ele>17.9</ele><time>2015-04-26T14:41:17.0000000+00:00</time></trkpt><trkpt lat="35.0809382" lon="32.4858932"><ele>18.7</ele><time>2015-04-26T14:41:19.0000000+00:00</time></trkpt><trkpt lat="35.0808797" lon="32.4858392"><ele>18.9</ele><time>2015-04-26T14:41:21.0000000+00:00</time></trkpt><trkpt lat="35.0808232" lon="32.4857815"><ele>18.9</ele><time>2015-04-26T14:41:23.0000000+00:00</time></trkpt><trkpt lat="35.0807659" lon="32.4857226"><ele>18.4</ele><time>2015-04-26T14:41:25.0000000+00:00</time></trkpt><trkpt lat="35.0807057" lon="32.4856648"><ele>18.6</ele><time>2015-04-26T14:41:27.0000000+00:00</time></trkpt><trkpt lat="35.0806445" lon="32.485599"><ele>18.3</ele><time>2015-04-26T14:41:29.0000000+00:00</time></trkpt><trkpt lat="35.0805832" lon="32.485533"><ele>19.3</ele><time>2015-04-26T14:41:31.0000000+00:00</time></trkpt><trkpt lat="35.0805207" lon="32.4854725"><ele>19.0</ele><time>2015-04-26T14:41:33.0000000+00:00</time></trkpt><trkpt lat="35.0804564" lon="32.4854118"><ele>19.0</ele><time>2015-04-26T14:41:35.0000000+00:00</time></trkpt><trkpt lat="35.0804092" lon="32.4853748"><ele>18.9</ele><time>2015-04-26T14:41:36.0000000+00:00</time></trkpt><trkpt lat="35.0803421" lon="32.4853235"><ele>18.2</ele><time>2015-04-26T14:41:38.0000000+00:00</time></trkpt><trkpt lat="35.0802778" lon="32.4852653"><ele>18.5</ele><time>2015-04-26T14:41:40.0000000+00:00</time></trkpt><trkpt lat="35.0802193" lon="32.4852185"><ele>17.6</ele><time>2015-04-26T14:41:42.0000000+00:00</time></trkpt><trkpt lat="35.0801688" lon="32.485156"><ele>17.3</ele><time>2015-04-26T14:41:44.0000000+00:00</time></trkpt><trkpt lat="35.0801102" lon="32.4851057"><ele>17.8</ele><time>2015-04-26T14:41:46.0000000+00:00</time></trkpt><trkpt lat="35.0800475" lon="32.4850565"><ele>17.9</ele><time>2015-04-26T14:41:48.0000000+00:00</time></trkpt><trkpt lat="35.0799746" lon="32.4849918"><ele>17.9</ele><time>2015-04-26T14:41:50.0000000+00:00</time></trkpt><trkpt lat="35.07991" lon="32.4849328"><ele>17.9</ele><time>2015-04-26T14:41:52.0000000+00:00</time></trkpt><trkpt lat="35.0798521" lon="32.4848747"><ele>17.9</ele><time>2015-04-26T14:41:54.0000000+00:00</time></trkpt><trkpt lat="35.0797949" lon="32.4848158"><ele>18.7</ele><time>2015-04-26T14:41:56.0000000+00:00</time></trkpt><trkpt lat="35.0797382" lon="32.4847572"><ele>19.6</ele><time>2015-04-26T14:41:58.0000000+00:00</time></trkpt><trkpt lat="35.0796691" lon="32.4846942"><ele>19.1</ele><time>2015-04-26T14:42:00.0000000+00:00</time></trkpt><trkpt lat="35.0795971" lon="32.4846309"><ele>18.5</ele><time>2015-04-26T14:42:02.0000000+00:00</time></trkpt><trkpt lat="35.079557" lon="32.4845889"><ele>18.7</ele><time>2015-04-26T14:42:03.0000000+00:00</time></trkpt><trkpt lat="35.0795192" lon="32.4845528"><ele>18.8</ele><time>2015-04-26T14:42:04.0000000+00:00</time></trkpt><trkpt lat="35.0794794" lon="32.4845105"><ele>18.9</ele><time>2015-04-26T14:42:05.0000000+00:00</time></trkpt><trkpt lat="35.0794084" lon="32.4844418"><ele>18.9</ele><time>2015-04-26T14:42:07.0000000+00:00</time></trkpt><trkpt lat="35.0793497" lon="32.4843694"><ele>18.2</ele><time>2015-04-26T14:42:09.0000000+00:00</time></trkpt><trkpt lat="35.0793141" lon="32.4843337"><ele>18.1</ele><time>2015-04-26T14:42:10.0000000+00:00</time></trkpt><trkpt lat="35.0792527" lon="32.484258"><ele>18.0</ele><time>2015-04-26T14:42:12.0000000+00:00</time></trkpt><trkpt lat="35.0792138" lon="32.4842181"><ele>17.4</ele><time>2015-04-26T14:42:13.0000000+00:00</time></trkpt><trkpt lat="35.0791766" lon="32.4841831"><ele>17.2</ele><time>2015-04-26T14:42:14.0000000+00:00</time></trkpt><trkpt lat="35.0791118" lon="32.4841214"><ele>17.5</ele><time>2015-04-26T14:42:16.0000000+00:00</time></trkpt><trkpt lat="35.0790518" lon="32.4840581"><ele>17.1</ele><time>2015-04-26T14:42:18.0000000+00:00</time></trkpt><trkpt lat="35.0789924" lon="32.4839885"><ele>17.0</ele><time>2015-04-26T14:42:20.0000000+00:00</time></trkpt><trkpt lat="35.0789332" lon="32.4839146"><ele>16.9</ele><time>2015-04-26T14:42:22.0000000+00:00</time></trkpt><trkpt lat="35.078877" lon="32.4838515"><ele>17.7</ele><time>2015-04-26T14:42:24.0000000+00:00</time></trkpt><trkpt lat="35.0788224" lon="32.4837905"><ele>17.9</ele><time>2015-04-26T14:42:26.0000000+00:00</time></trkpt><trkpt lat="35.0787764" lon="32.4837322"><ele>18.2</ele><time>2015-04-26T14:42:28.0000000+00:00</time></trkpt><trkpt lat="35.0787337" lon="32.4836782"><ele>18.7</ele><time>2015-04-26T14:42:30.0000000+00:00</time></trkpt><trkpt lat="35.0786864" lon="32.4836222"><ele>19.4</ele><time>2015-04-26T14:42:32.0000000+00:00</time></trkpt><trkpt lat="35.0786332" lon="32.4835597"><ele>18.5</ele><time>2015-04-26T14:42:34.0000000+00:00</time></trkpt><trkpt lat="35.0785768" lon="32.4834972"><ele>17.6</ele><time>2015-04-26T14:42:36.0000000+00:00</time></trkpt><trkpt lat="35.0785185" lon="32.4834251"><ele>17.1</ele><time>2015-04-26T14:42:38.0000000+00:00</time></trkpt><trkpt lat="35.0784582" lon="32.4833483"><ele>17.0</ele><time>2015-04-26T14:42:40.0000000+00:00</time></trkpt><trkpt lat="35.0783806" lon="32.4832444"><ele>16.9</ele><time>2015-04-26T14:42:42.0000000+00:00</time></trkpt><trkpt lat="35.0783526" lon="32.4832011"><ele>16.9</ele><time>2015-04-26T14:42:43.0000000+00:00</time></trkpt><trkpt lat="35.0782886" lon="32.4831346"><ele>16.4</ele><time>2015-04-26T14:42:45.0000000+00:00</time></trkpt><trkpt lat="35.0782556" lon="32.483095"><ele>16.2</ele><time>2015-04-26T14:42:46.0000000+00:00</time></trkpt><trkpt lat="35.0782209" lon="32.4830526"><ele>15.6</ele><time>2015-04-26T14:42:47.0000000+00:00</time></trkpt><trkpt lat="35.078189" lon="32.4830093"><ele>15.2</ele><time>2015-04-26T14:42:48.0000000+00:00</time></trkpt><trkpt lat="35.0781183" lon="32.4829343"><ele>15.0</ele><time>2015-04-26T14:42:50.0000000+00:00</time></trkpt><trkpt lat="35.0780888" lon="32.4828895"><ele>15.5</ele><time>2015-04-26T14:42:51.0000000+00:00</time></trkpt><trkpt lat="35.0780523" lon="32.4828458"><ele>16.2</ele><time>2015-04-26T14:42:52.0000000+00:00</time></trkpt><trkpt lat="35.0780176" lon="32.4828033"><ele>16.6</ele><time>2015-04-26T14:42:53.0000000+00:00</time></trkpt><trkpt lat="35.0779856" lon="32.4827594"><ele>16.7</ele><time>2015-04-26T14:42:54.0000000+00:00</time></trkpt><trkpt lat="35.077929" lon="32.4826889"><ele>16.4</ele><time>2015-04-26T14:42:56.0000000+00:00</time></trkpt><trkpt lat="35.0778673" lon="32.4826233"><ele>16.0</ele><time>2015-04-26T14:42:58.0000000+00:00</time></trkpt><trkpt lat="35.0778308" lon="32.4825885"><ele>16.5</ele><time>2015-04-26T14:42:59.0000000+00:00</time></trkpt><trkpt lat="35.0777703" lon="32.4825273"><ele>16.8</ele><time>2015-04-26T14:43:01.0000000+00:00</time></trkpt><trkpt lat="35.0777206" lon="32.4824496"><ele>16.7</ele><time>2015-04-26T14:43:03.0000000+00:00</time></trkpt><trkpt lat="35.0776625" lon="32.4823926"><ele>16.9</ele><time>2015-04-26T14:43:05.0000000+00:00</time></trkpt><trkpt lat="35.0776185" lon="32.4823443"><ele>16.2</ele><time>2015-04-26T14:43:07.0000000+00:00</time></trkpt><trkpt lat="35.077578" lon="32.4822952"><ele>16.7</ele><time>2015-04-26T14:43:09.0000000+00:00</time></trkpt><trkpt lat="35.0775396" lon="32.4822475"><ele>16.9</ele><time>2015-04-26T14:43:11.0000000+00:00</time></trkpt><trkpt lat="35.0774985" lon="32.4822061"><ele>16.9</ele><time>2015-04-26T14:43:13.0000000+00:00</time></trkpt><trkpt lat="35.07745" lon="32.4821696"><ele>17.7</ele><time>2015-04-26T14:43:15.0000000+00:00</time></trkpt><trkpt lat="35.0773948" lon="32.4821314"><ele>17.9</ele><time>2015-04-26T14:43:17.0000000+00:00</time></trkpt><trkpt lat="35.0773374" lon="32.4820867"><ele>17.9</ele><time>2015-04-26T14:43:19.0000000+00:00</time></trkpt><trkpt lat="35.0772689" lon="32.4820507"><ele>17.9</ele><time>2015-04-26T14:43:21.0000000+00:00</time></trkpt><trkpt lat="35.0771939" lon="32.4820242"><ele>17.9</ele><time>2015-04-26T14:43:23.0000000+00:00</time></trkpt><trkpt lat="35.0771167" lon="32.4820014"><ele>18.7</ele><time>2015-04-26T14:43:25.0000000+00:00</time></trkpt><trkpt lat="35.0770475" lon="32.4819745"><ele>18.4</ele><time>2015-04-26T14:43:27.0000000+00:00</time></trkpt><trkpt lat="35.0769851" lon="32.4819432"><ele>18.0</ele><time>2015-04-26T14:43:29.0000000+00:00</time></trkpt><trkpt lat="35.0769239" lon="32.4819149"><ele>18.5</ele><time>2015-04-26T14:43:31.0000000+00:00</time></trkpt><trkpt lat="35.0768657" lon="32.4818852"><ele>18.3</ele><time>2015-04-26T14:43:33.0000000+00:00</time></trkpt><trkpt lat="35.0768099" lon="32.4818479"><ele>18.0</ele><time>2015-04-26T14:43:35.0000000+00:00</time></trkpt><trkpt lat="35.0767523" lon="32.4818158"><ele>17.7</ele><time>2015-04-26T14:43:37.0000000+00:00</time></trkpt><trkpt lat="35.076699" lon="32.4817814"><ele>18.1</ele><time>2015-04-26T14:43:39.0000000+00:00</time></trkpt><trkpt lat="35.0766568" lon="32.4817346"><ele>18.7</ele><time>2015-04-26T14:43:41.0000000+00:00</time></trkpt><trkpt lat="35.0766166" lon="32.4816912"><ele>18.9</ele><time>2015-04-26T14:43:43.0000000+00:00</time></trkpt><trkpt lat="35.076578" lon="32.4816515"><ele>18.4</ele><time>2015-04-26T14:43:45.0000000+00:00</time></trkpt><trkpt lat="35.0765429" lon="32.4816118"><ele>18.1</ele><time>2015-04-26T14:43:47.0000000+00:00</time></trkpt><trkpt lat="35.0765132" lon="32.4815701"><ele>17.2</ele><time>2015-04-26T14:43:49.0000000+00:00</time></trkpt><trkpt lat="35.0764781" lon="32.481519"><ele>17.0</ele><time>2015-04-26T14:43:51.0000000+00:00</time></trkpt><trkpt lat="35.0764349" lon="32.4814576"><ele>17.2</ele><time>2015-04-26T14:43:53.0000000+00:00</time></trkpt><trkpt lat="35.0763822" lon="32.4813849"><ele>17.0</ele><time>2015-04-26T14:43:55.0000000+00:00</time></trkpt><trkpt lat="35.0763257" lon="32.4813078"><ele>17.7</ele><time>2015-04-26T14:43:57.0000000+00:00</time></trkpt><trkpt lat="35.0762702" lon="32.481234"><ele>17.9</ele><time>2015-04-26T14:43:59.0000000+00:00</time></trkpt><trkpt lat="35.0762062" lon="32.4811808"><ele>17.9</ele><time>2015-04-26T14:44:01.0000000+00:00</time></trkpt><trkpt lat="35.076133" lon="32.4811617"><ele>17.4</ele><time>2015-04-26T14:44:03.0000000+00:00</time></trkpt><trkpt lat="35.0760639" lon="32.4811477"><ele>17.8</ele><time>2015-04-26T14:44:05.0000000+00:00</time></trkpt><trkpt lat="35.0759913" lon="32.4811355"><ele>17.9</ele><time>2015-04-26T14:44:07.0000000+00:00</time></trkpt><trkpt lat="35.0759109" lon="32.4811338"><ele>17.9</ele><time>2015-04-26T14:44:09.0000000+00:00</time></trkpt><trkpt lat="35.0758281" lon="32.4811333"><ele>18.2</ele><time>2015-04-26T14:44:11.0000000+00:00</time></trkpt><trkpt lat="35.0757499" lon="32.4811284"><ele>18.5</ele><time>2015-04-26T14:44:13.0000000+00:00</time></trkpt><trkpt lat="35.075679" lon="32.4811326"><ele>18.8</ele><time>2015-04-26T14:44:15.0000000+00:00</time></trkpt><trkpt lat="35.0756196" lon="32.481143"><ele>18.4</ele><time>2015-04-26T14:44:17.0000000+00:00</time></trkpt><trkpt lat="35.0755704" lon="32.4811733"><ele>18.2</ele><time>2015-04-26T14:44:20.0000000+00:00</time></trkpt><trkpt lat="35.0755049" lon="32.4811807"><ele>18.1</ele><time>2015-04-26T14:44:23.0000000+00:00</time></trkpt><trkpt lat="35.075456" lon="32.4811866"><ele>18.0</ele><time>2015-04-26T14:44:25.0000000+00:00</time></trkpt><trkpt lat="35.0754083" lon="32.4811951"><ele>17.9</ele><time>2015-04-26T14:44:27.0000000+00:00</time></trkpt><trkpt lat="35.0753618" lon="32.4812048"><ele>17.9</ele><time>2015-04-26T14:44:29.0000000+00:00</time></trkpt><trkpt lat="35.075312" lon="32.4812143"><ele>17.9</ele><time>2015-04-26T14:44:31.0000000+00:00</time></trkpt><trkpt lat="35.0752613" lon="32.4812418"><ele>17.7</ele><time>2015-04-26T14:44:33.0000000+00:00</time></trkpt><trkpt lat="35.0752052" lon="32.4812662"><ele>17.9</ele><time>2015-04-26T14:44:35.0000000+00:00</time></trkpt><trkpt lat="35.07514" lon="32.4812793"><ele>17.9</ele><time>2015-04-26T14:44:37.0000000+00:00</time></trkpt><trkpt lat="35.0750763" lon="32.4813013"><ele>17.9</ele><time>2015-04-26T14:44:39.0000000+00:00</time></trkpt><trkpt lat="35.0750119" lon="32.4813256"><ele>18.4</ele><time>2015-04-26T14:44:41.0000000+00:00</time></trkpt><trkpt lat="35.0749467" lon="32.4813444"><ele>18.8</ele><time>2015-04-26T14:44:43.0000000+00:00</time></trkpt><trkpt lat="35.0748816" lon="32.4813649"><ele>18.9</ele><time>2015-04-26T14:44:45.0000000+00:00</time></trkpt><trkpt lat="35.0748129" lon="32.4813853"><ele>18.9</ele><time>2015-04-26T14:44:47.0000000+00:00</time></trkpt><trkpt lat="35.0747431" lon="32.4814034"><ele>19.2</ele><time>2015-04-26T14:44:49.0000000+00:00</time></trkpt><trkpt lat="35.074674" lon="32.4814161"><ele>19.0</ele><time>2015-04-26T14:44:51.0000000+00:00</time></trkpt><trkpt lat="35.0746007" lon="32.4814253"><ele>19.4</ele><time>2015-04-26T14:44:53.0000000+00:00</time></trkpt><trkpt lat="35.074526" lon="32.4814347"><ele>19.8</ele><time>2015-04-26T14:44:55.0000000+00:00</time></trkpt><trkpt lat="35.0744532" lon="32.4814423"><ele>19.1</ele><time>2015-04-26T14:44:57.0000000+00:00</time></trkpt><trkpt lat="35.074386" lon="32.4814569"><ele>19.5</ele><time>2015-04-26T14:44:59.0000000+00:00</time></trkpt><trkpt lat="35.074314" lon="32.481464"><ele>19.6</ele><time>2015-04-26T14:45:01.0000000+00:00</time></trkpt><trkpt lat="35.0742396" lon="32.4814633"><ele>19.1</ele><time>2015-04-26T14:45:03.0000000+00:00</time></trkpt><trkpt lat="35.0741693" lon="32.481465"><ele>20.2</ele><time>2015-04-26T14:45:05.0000000+00:00</time></trkpt><trkpt lat="35.074104" lon="32.481454"><ele>21.5</ele><time>2015-04-26T14:45:07.0000000+00:00</time></trkpt><trkpt lat="35.0740393" lon="32.4814353"><ele>21.8</ele><time>2015-04-26T14:45:09.0000000+00:00</time></trkpt><trkpt lat="35.0739776" lon="32.4814004"><ele>21.9</ele><time>2015-04-26T14:45:11.0000000+00:00</time></trkpt><trkpt lat="35.0739159" lon="32.4813708"><ele>21.2</ele><time>2015-04-26T14:45:13.0000000+00:00</time></trkpt><trkpt lat="35.0738522" lon="32.4813404"><ele>21.7</ele><time>2015-04-26T14:45:15.0000000+00:00</time></trkpt><trkpt lat="35.073786" lon="32.4813166"><ele>21.1</ele><time>2015-04-26T14:45:17.0000000+00:00</time></trkpt><trkpt lat="35.0737211" lon="32.4812982"><ele>20.2</ele><time>2015-04-26T14:45:19.0000000+00:00</time></trkpt><trkpt lat="35.0736614" lon="32.4812819"><ele>20.0</ele><time>2015-04-26T14:45:21.0000000+00:00</time></trkpt><trkpt lat="35.0736068" lon="32.4812689"><ele>20.7</ele><time>2015-04-26T14:45:23.0000000+00:00</time></trkpt><trkpt lat="35.0735559" lon="32.4812596"><ele>20.9</ele><time>2015-04-26T14:45:25.0000000+00:00</time></trkpt><trkpt lat="35.0735054" lon="32.4812518"><ele>20.4</ele><time>2015-04-26T14:45:27.0000000+00:00</time></trkpt><trkpt lat="35.0734569" lon="32.4812337"><ele>19.6</ele><time>2015-04-26T14:45:29.0000000+00:00</time></trkpt><trkpt lat="35.0734038" lon="32.4812355"><ele>18.3</ele><time>2015-04-26T14:45:31.0000000+00:00</time></trkpt><trkpt lat="35.0733443" lon="32.4812431"><ele>19.3</ele><time>2015-04-26T14:45:33.0000000+00:00</time></trkpt><trkpt lat="35.0732834" lon="32.4812556"><ele>20.3</ele><time>2015-04-26T14:45:35.0000000+00:00</time></trkpt><trkpt lat="35.0732145" lon="32.4812561"><ele>22.0</ele><time>2015-04-26T14:45:37.0000000+00:00</time></trkpt><trkpt lat="35.0731403" lon="32.4812484"><ele>23.5</ele><time>2015-04-26T14:45:39.0000000+00:00</time></trkpt><trkpt lat="35.0730694" lon="32.4812485"><ele>24.3</ele><time>2015-04-26T14:45:41.0000000+00:00</time></trkpt><trkpt lat="35.0730035" lon="32.4812502"><ele>24.3</ele><time>2015-04-26T14:45:43.0000000+00:00</time></trkpt><trkpt lat="35.0729395" lon="32.4812528"><ele>24.3</ele><time>2015-04-26T14:45:45.0000000+00:00</time></trkpt><trkpt lat="35.0728769" lon="32.481266"><ele>24.0</ele><time>2015-04-26T14:45:47.0000000+00:00</time></trkpt><trkpt lat="35.0728211" lon="32.4812816"><ele>24.0</ele><time>2015-04-26T14:45:49.0000000+00:00</time></trkpt><trkpt lat="35.0728592" lon="32.48124"><ele>22.6</ele><time>2015-04-26T14:46:32.0000000+00:00</time></trkpt><trkpt lat="35.0729245" lon="32.4812314"><ele>22.3</ele><time>2015-04-26T14:46:35.0000000+00:00</time></trkpt><trkpt lat="35.0729791" lon="32.4812286"><ele>22.0</ele><time>2015-04-26T14:46:37.0000000+00:00</time></trkpt><trkpt lat="35.0730414" lon="32.4812266"><ele>22.0</ele><time>2015-04-26T14:46:39.0000000+00:00</time></trkpt><trkpt lat="35.0731097" lon="32.4812255"><ele>20.7</ele><time>2015-04-26T14:46:41.0000000+00:00</time></trkpt><trkpt lat="35.0731817" lon="32.4812284"><ele>20.1</ele><time>2015-04-26T14:46:43.0000000+00:00</time></trkpt><trkpt lat="35.0732572" lon="32.4812293"><ele>20.2</ele><time>2015-04-26T14:46:45.0000000+00:00</time></trkpt><trkpt lat="35.0733247" lon="32.4812322"><ele>20.5</ele><time>2015-04-26T14:46:47.0000000+00:00</time></trkpt><trkpt lat="35.0733888" lon="32.4812392"><ele>20.1</ele><time>2015-04-26T14:46:49.0000000+00:00</time></trkpt><trkpt lat="35.0734527" lon="32.4812521"><ele>20.0</ele><time>2015-04-26T14:46:51.0000000+00:00</time></trkpt><trkpt lat="35.0735164" lon="32.4812707"><ele>20.4</ele><time>2015-04-26T14:46:53.0000000+00:00</time></trkpt><trkpt lat="35.0735808" lon="32.4812901"><ele>20.8</ele><time>2015-04-26T14:46:55.0000000+00:00</time></trkpt><trkpt lat="35.073645" lon="32.4813143"><ele>20.9</ele><time>2015-04-26T14:46:57.0000000+00:00</time></trkpt><trkpt lat="35.0737102" lon="32.4813423"><ele>20.2</ele><time>2015-04-26T14:46:59.0000000+00:00</time></trkpt><trkpt lat="35.073776" lon="32.4813621"><ele>20.0</ele><time>2015-04-26T14:47:01.0000000+00:00</time></trkpt><trkpt lat="35.0738422" lon="32.4813854"><ele>20.7</ele><time>2015-04-26T14:47:03.0000000+00:00</time></trkpt><trkpt lat="35.0739092" lon="32.4814071"><ele>20.9</ele><time>2015-04-26T14:47:05.0000000+00:00</time></trkpt><trkpt lat="35.0739815" lon="32.4814199"><ele>21.4</ele><time>2015-04-26T14:47:07.0000000+00:00</time></trkpt><trkpt lat="35.0740576" lon="32.4814355"><ele>21.1</ele><time>2015-04-26T14:47:09.0000000+00:00</time></trkpt><trkpt lat="35.0741356" lon="32.4814431"><ele>21.0</ele><time>2015-04-26T14:47:11.0000000+00:00</time></trkpt><trkpt lat="35.074216" lon="32.4814374"><ele>20.4</ele><time>2015-04-26T14:47:13.0000000+00:00</time></trkpt><trkpt lat="35.0742991" lon="32.4814256"><ele>18.8</ele><time>2015-04-26T14:47:15.0000000+00:00</time></trkpt><trkpt lat="35.0743856" lon="32.4814157"><ele>18.1</ele><time>2015-04-26T14:47:17.0000000+00:00</time></trkpt><trkpt lat="35.0744309" lon="32.4814106"><ele>18.0</ele><time>2015-04-26T14:47:18.0000000+00:00</time></trkpt><trkpt lat="35.0744787" lon="32.4814055"><ele>18.0</ele><time>2015-04-26T14:47:19.0000000+00:00</time></trkpt><trkpt lat="35.0745552" lon="32.4813864"><ele>18.0</ele><time>2015-04-26T14:47:20.0000000+00:00</time></trkpt><trkpt lat="35.074647" lon="32.4813655"><ele>17.9</ele><time>2015-04-26T14:47:22.0000000+00:00</time></trkpt><trkpt lat="35.0746972" lon="32.4813526"><ele>17.9</ele><time>2015-04-26T14:47:23.0000000+00:00</time></trkpt><trkpt lat="35.074744" lon="32.4813405"><ele>17.9</ele><time>2015-04-26T14:47:24.0000000+00:00</time></trkpt><trkpt lat="35.0748282" lon="32.4813164"><ele>17.9</ele><time>2015-04-26T14:47:26.0000000+00:00</time></trkpt><trkpt lat="35.0748754" lon="32.4813071"><ele>18.4</ele><time>2015-04-26T14:47:27.0000000+00:00</time></trkpt><trkpt lat="35.0749253" lon="32.4812902"><ele>18.7</ele><time>2015-04-26T14:47:28.0000000+00:00</time></trkpt><trkpt lat="35.0750198" lon="32.4812709"><ele>18.9</ele><time>2015-04-26T14:47:30.0000000+00:00</time></trkpt><trkpt lat="35.0750725" lon="32.4812564"><ele>18.9</ele><time>2015-04-26T14:47:31.0000000+00:00</time></trkpt><trkpt lat="35.0751208" lon="32.4812464"><ele>18.9</ele><time>2015-04-26T14:47:32.0000000+00:00</time></trkpt><trkpt lat="35.0751735" lon="32.4812436"><ele>18.9</ele><time>2015-04-26T14:47:33.0000000+00:00</time></trkpt><trkpt lat="35.0752194" lon="32.4812322"><ele>19.4</ele><time>2015-04-26T14:47:34.0000000+00:00</time></trkpt><trkpt lat="35.0752668" lon="32.4812159"><ele>19.7</ele><time>2015-04-26T14:47:35.0000000+00:00</time></trkpt><trkpt lat="35.0753098" lon="32.4811973"><ele>19.8</ele><time>2015-04-26T14:47:36.0000000+00:00</time></trkpt><trkpt lat="35.075361" lon="32.481185"><ele>19.4</ele><time>2015-04-26T14:47:37.0000000+00:00</time></trkpt><trkpt lat="35.075412" lon="32.4811766"><ele>19.1</ele><time>2015-04-26T14:47:38.0000000+00:00</time></trkpt><trkpt lat="35.0754635" lon="32.4811732"><ele>19.0</ele><time>2015-04-26T14:47:39.0000000+00:00</time></trkpt><trkpt lat="35.075516" lon="32.4811714"><ele>19.0</ele><time>2015-04-26T14:47:40.0000000+00:00</time></trkpt><trkpt lat="35.0755645" lon="32.4811571"><ele>19.5</ele><time>2015-04-26T14:47:41.0000000+00:00</time></trkpt><trkpt lat="35.0756174" lon="32.4811468"><ele>19.7</ele><time>2015-04-26T14:47:42.0000000+00:00</time></trkpt><trkpt lat="35.0756671" lon="32.4811382"><ele>19.3</ele><time>2015-04-26T14:47:43.0000000+00:00</time></trkpt><trkpt lat="35.0757195" lon="32.4811381"><ele>19.1</ele><time>2015-04-26T14:47:44.0000000+00:00</time></trkpt><trkpt lat="35.0757646" lon="32.4811253"><ele>18.5</ele><time>2015-04-26T14:47:45.0000000+00:00</time></trkpt><trkpt lat="35.0758158" lon="32.4811254"><ele>18.2</ele><time>2015-04-26T14:47:46.0000000+00:00</time></trkpt><trkpt lat="35.0759123" lon="32.4811261"><ele>17.5</ele><time>2015-04-26T14:47:48.0000000+00:00</time></trkpt><trkpt lat="35.0760022" lon="32.4811358"><ele>17.1</ele><time>2015-04-26T14:47:50.0000000+00:00</time></trkpt><trkpt lat="35.0760796" lon="32.481134"><ele>17.0</ele><time>2015-04-26T14:47:52.0000000+00:00</time></trkpt><trkpt lat="35.0761118" lon="32.4810795"><ele>17.8</ele><time>2015-04-26T14:47:55.0000000+00:00</time></trkpt><trkpt lat="35.0760839" lon="32.4810152"><ele>17.9</ele><time>2015-04-26T14:47:57.0000000+00:00</time></trkpt><trkpt lat="35.0760285" lon="32.4809551"><ele>17.9</ele><time>2015-04-26T14:47:59.0000000+00:00</time></trkpt><trkpt lat="35.0759724" lon="32.4808856"><ele>17.9</ele><time>2015-04-26T14:48:01.0000000+00:00</time></trkpt><trkpt lat="35.0759148" lon="32.4808213"><ele>17.4</ele><time>2015-04-26T14:48:03.0000000+00:00</time></trkpt><trkpt lat="35.0758582" lon="32.4807582"><ele>17.8</ele><time>2015-04-26T14:48:05.0000000+00:00</time></trkpt><trkpt lat="35.0757974" lon="32.4806949"><ele>17.1</ele><time>2015-04-26T14:48:07.0000000+00:00</time></trkpt><trkpt lat="35.0757336" lon="32.4806291"><ele>17.7</ele><time>2015-04-26T14:48:09.0000000+00:00</time></trkpt><trkpt lat="35.075662" lon="32.4805421"><ele>18.1</ele><time>2015-04-26T14:48:11.0000000+00:00</time></trkpt><trkpt lat="35.0755963" lon="32.4804698"><ele>18.0</ele><time>2015-04-26T14:48:13.0000000+00:00</time></trkpt><trkpt lat="35.0755584" lon="32.4804343"><ele>18.0</ele><time>2015-04-26T14:48:14.0000000+00:00</time></trkpt><trkpt lat="35.075523" lon="32.4803984"><ele>17.9</ele><time>2015-04-26T14:48:15.0000000+00:00</time></trkpt><trkpt lat="35.075456" lon="32.4803194"><ele>17.9</ele><time>2015-04-26T14:48:17.0000000+00:00</time></trkpt><trkpt lat="35.0754214" lon="32.480275"><ele>17.9</ele><time>2015-04-26T14:48:18.0000000+00:00</time></trkpt><trkpt lat="35.0753808" lon="32.4802354"><ele>17.9</ele><time>2015-04-26T14:48:19.0000000+00:00</time></trkpt><trkpt lat="35.0753134" lon="32.4801578"><ele>17.2</ele><time>2015-04-26T14:48:21.0000000+00:00</time></trkpt><trkpt lat="35.0752458" lon="32.4800816"><ele>16.2</ele><time>2015-04-26T14:48:23.0000000+00:00</time></trkpt><trkpt lat="35.075212" lon="32.4800343"><ele>16.6</ele><time>2015-04-26T14:48:24.0000000+00:00</time></trkpt><trkpt lat="35.0751747" lon="32.4799754"><ele>16.8</ele><time>2015-04-26T14:48:25.0000000+00:00</time></trkpt><trkpt lat="35.075138" lon="32.4799376"><ele>16.8</ele><time>2015-04-26T14:48:26.0000000+00:00</time></trkpt><trkpt lat="35.0751053" lon="32.4798918"><ele>16.9</ele><time>2015-04-26T14:48:27.0000000+00:00</time></trkpt><trkpt lat="35.075069" lon="32.4798526"><ele>17.4</ele><time>2015-04-26T14:48:28.0000000+00:00</time></trkpt><trkpt lat="35.0750324" lon="32.4798103"><ele>17.7</ele><time>2015-04-26T14:48:29.0000000+00:00</time></trkpt><trkpt lat="35.0749964" lon="32.4797624"><ele>17.8</ele><time>2015-04-26T14:48:30.0000000+00:00</time></trkpt><trkpt lat="35.0749558" lon="32.4797133"><ele>17.9</ele><time>2015-04-26T14:48:31.0000000+00:00</time></trkpt><trkpt lat="35.0748813" lon="32.4796396"><ele>17.9</ele><time>2015-04-26T14:48:33.0000000+00:00</time></trkpt><trkpt lat="35.0748394" lon="32.4795897"><ele>17.9</ele><time>2015-04-26T14:48:34.0000000+00:00</time></trkpt><trkpt lat="35.0747985" lon="32.4795441"><ele>17.9</ele><time>2015-04-26T14:48:35.0000000+00:00</time></trkpt><trkpt lat="35.074758" lon="32.4794957"><ele>17.9</ele><time>2015-04-26T14:48:36.0000000+00:00</time></trkpt><trkpt lat="35.0747117" lon="32.4794522"><ele>17.9</ele><time>2015-04-26T14:48:37.0000000+00:00</time></trkpt><trkpt lat="35.0746688" lon="32.4794108"><ele>17.9</ele><time>2015-04-26T14:48:38.0000000+00:00</time></trkpt><trkpt lat="35.0746287" lon="32.4793666"><ele>18.4</ele><time>2015-04-26T14:48:39.0000000+00:00</time></trkpt><trkpt lat="35.0745886" lon="32.4793168"><ele>18.7</ele><time>2015-04-26T14:48:40.0000000+00:00</time></trkpt><trkpt lat="35.0745465" lon="32.4792767"><ele>18.8</ele><time>2015-04-26T14:48:41.0000000+00:00</time></trkpt><trkpt lat="35.0744992" lon="32.4792282"><ele>18.9</ele><time>2015-04-26T14:48:42.0000000+00:00</time></trkpt><trkpt lat="35.0744575" lon="32.479185"><ele>18.9</ele><time>2015-04-26T14:48:43.0000000+00:00</time></trkpt><trkpt lat="35.0744121" lon="32.4791447"><ele>18.9</ele><time>2015-04-26T14:48:44.0000000+00:00</time></trkpt><trkpt lat="35.0743622" lon="32.4790927"><ele>18.9</ele><time>2015-04-26T14:48:45.0000000+00:00</time></trkpt><trkpt lat="35.0743215" lon="32.4790437"><ele>18.9</ele><time>2015-04-26T14:48:46.0000000+00:00</time></trkpt><trkpt lat="35.074277" lon="32.4790034"><ele>19.4</ele><time>2015-04-26T14:48:47.0000000+00:00</time></trkpt><trkpt lat="35.0742321" lon="32.4789571"><ele>19.7</ele><time>2015-04-26T14:48:48.0000000+00:00</time></trkpt><trkpt lat="35.0741918" lon="32.4789181"><ele>19.8</ele><time>2015-04-26T14:48:49.0000000+00:00</time></trkpt><trkpt lat="35.0741482" lon="32.4788796"><ele>19.9</ele><time>2015-04-26T14:48:50.0000000+00:00</time></trkpt><trkpt lat="35.0741092" lon="32.4788207"><ele>19.9</ele><time>2015-04-26T14:48:51.0000000+00:00</time></trkpt><trkpt lat="35.0740601" lon="32.4787686"><ele>19.4</ele><time>2015-04-26T14:48:52.0000000+00:00</time></trkpt><trkpt lat="35.0740158" lon="32.4787242"><ele>19.2</ele><time>2015-04-26T14:48:53.0000000+00:00</time></trkpt><trkpt lat="35.073973" lon="32.4786702"><ele>19.6</ele><time>2015-04-26T14:48:54.0000000+00:00</time></trkpt><trkpt lat="35.0739309" lon="32.4786201"><ele>19.7</ele><time>2015-04-26T14:48:55.0000000+00:00</time></trkpt><trkpt lat="35.0738851" lon="32.4785774"><ele>19.8</ele><time>2015-04-26T14:48:56.0000000+00:00</time></trkpt><trkpt lat="35.0738448" lon="32.4785344"><ele>19.9</ele><time>2015-04-26T14:48:57.0000000+00:00</time></trkpt><trkpt lat="35.0738067" lon="32.4784947"><ele>19.9</ele><time>2015-04-26T14:48:58.0000000+00:00</time></trkpt><trkpt lat="35.0737717" lon="32.4784459"><ele>19.9</ele><time>2015-04-26T14:48:59.0000000+00:00</time></trkpt><trkpt lat="35.0737348" lon="32.4783958"><ele>19.9</ele><time>2015-04-26T14:49:00.0000000+00:00</time></trkpt><trkpt lat="35.0736882" lon="32.478357"><ele>20.4</ele><time>2015-04-26T14:49:01.0000000+00:00</time></trkpt><trkpt lat="35.0736471" lon="32.4783056"><ele>20.2</ele><time>2015-04-26T14:49:02.0000000+00:00</time></trkpt><trkpt lat="35.0736036" lon="32.4782496"><ele>20.1</ele><time>2015-04-26T14:49:03.0000000+00:00</time></trkpt><trkpt lat="35.0735478" lon="32.4781962"><ele>20.0</ele><time>2015-04-26T14:49:04.0000000+00:00</time></trkpt><trkpt lat="35.0735105" lon="32.4781463"><ele>19.5</ele><time>2015-04-26T14:49:05.0000000+00:00</time></trkpt><trkpt lat="35.0734682" lon="32.4781026"><ele>19.2</ele><time>2015-04-26T14:49:06.0000000+00:00</time></trkpt><trkpt lat="35.0734176" lon="32.4780544"><ele>19.1</ele><time>2015-04-26T14:49:07.0000000+00:00</time></trkpt><trkpt lat="35.0733823" lon="32.477998"><ele>19.0</ele><time>2015-04-26T14:49:08.0000000+00:00</time></trkpt><trkpt lat="35.0733399" lon="32.477953"><ele>19.0</ele><time>2015-04-26T14:49:09.0000000+00:00</time></trkpt><trkpt lat="35.0732875" lon="32.4778965"><ele>18.4</ele><time>2015-04-26T14:49:10.0000000+00:00</time></trkpt><trkpt lat="35.0732469" lon="32.47785"><ele>18.2</ele><time>2015-04-26T14:49:11.0000000+00:00</time></trkpt><trkpt lat="35.073208" lon="32.4777937"><ele>17.6</ele><time>2015-04-26T14:49:12.0000000+00:00</time></trkpt><trkpt lat="35.0731679" lon="32.4777406"><ele>17.2</ele><time>2015-04-26T14:49:13.0000000+00:00</time></trkpt><trkpt lat="35.0731369" lon="32.4776999"><ele>17.1</ele><time>2015-04-26T14:49:14.0000000+00:00</time></trkpt><trkpt lat="35.0731044" lon="32.4776512"><ele>17.5</ele><time>2015-04-26T14:49:15.0000000+00:00</time></trkpt><trkpt lat="35.0730698" lon="32.4776095"><ele>17.2</ele><time>2015-04-26T14:49:16.0000000+00:00</time></trkpt><trkpt lat="35.0730382" lon="32.4775661"><ele>17.1</ele><time>2015-04-26T14:49:17.0000000+00:00</time></trkpt><trkpt lat="35.073002" lon="32.477526"><ele>17.5</ele><time>2015-04-26T14:49:18.0000000+00:00</time></trkpt><trkpt lat="35.0729703" lon="32.4774769"><ele>17.7</ele><time>2015-04-26T14:49:19.0000000+00:00</time></trkpt><trkpt lat="35.0729181" lon="32.4774102"><ele>17.1</ele><time>2015-04-26T14:49:21.0000000+00:00</time></trkpt><trkpt lat="35.0728593" lon="32.4773438"><ele>16.7</ele><time>2015-04-26T14:49:23.0000000+00:00</time></trkpt><trkpt lat="35.0727904" lon="32.477262"><ele>16.9</ele><time>2015-04-26T14:49:25.0000000+00:00</time></trkpt><trkpt lat="35.0727522" lon="32.4772117"><ele>16.9</ele><time>2015-04-26T14:49:26.0000000+00:00</time></trkpt><trkpt lat="35.0727165" lon="32.4771729"><ele>17.4</ele><time>2015-04-26T14:49:27.0000000+00:00</time></trkpt><trkpt lat="35.07268" lon="32.4771338"><ele>17.7</ele><time>2015-04-26T14:49:28.0000000+00:00</time></trkpt><trkpt lat="35.072642" lon="32.4770902"><ele>17.8</ele><time>2015-04-26T14:49:29.0000000+00:00</time></trkpt><trkpt lat="35.0726039" lon="32.4770451"><ele>17.9</ele><time>2015-04-26T14:49:30.0000000+00:00</time></trkpt><trkpt lat="35.0725738" lon="32.4769998"><ele>17.9</ele><time>2015-04-26T14:49:31.0000000+00:00</time></trkpt><trkpt lat="35.0725384" lon="32.4769613"><ele>17.9</ele><time>2015-04-26T14:49:32.0000000+00:00</time></trkpt><trkpt lat="35.0725097" lon="32.4769167"><ele>17.9</ele><time>2015-04-26T14:49:33.0000000+00:00</time></trkpt><trkpt lat="35.0724726" lon="32.4768795"><ele>17.9</ele><time>2015-04-26T14:49:34.0000000+00:00</time></trkpt><trkpt lat="35.0724188" lon="32.4768028"><ele>17.9</ele><time>2015-04-26T14:49:36.0000000+00:00</time></trkpt><trkpt lat="35.0723684" lon="32.4767295"><ele>18.4</ele><time>2015-04-26T14:49:38.0000000+00:00</time></trkpt><trkpt lat="35.0723278" lon="32.4766679"><ele>18.1</ele><time>2015-04-26T14:49:40.0000000+00:00</time></trkpt><trkpt lat="35.0722777" lon="32.4766036"><ele>17.5</ele><time>2015-04-26T14:49:42.0000000+00:00</time></trkpt><trkpt lat="35.0722388" lon="32.4765324"><ele>17.3</ele><time>2015-04-26T14:49:44.0000000+00:00</time></trkpt><trkpt lat="35.0721934" lon="32.4764756"><ele>17.8</ele><time>2015-04-26T14:49:46.0000000+00:00</time></trkpt><trkpt lat="35.0721488" lon="32.4764207"><ele>17.9</ele><time>2015-04-26T14:49:48.0000000+00:00</time></trkpt><trkpt lat="35.0720993" lon="32.4763626"><ele>18.2</ele><time>2015-04-26T14:49:50.0000000+00:00</time></trkpt><trkpt lat="35.0720451" lon="32.4763024"><ele>18.0</ele><time>2015-04-26T14:49:52.0000000+00:00</time></trkpt><trkpt lat="35.0719893" lon="32.476238"><ele>17.9</ele><time>2015-04-26T14:49:54.0000000+00:00</time></trkpt><trkpt lat="35.0719294" lon="32.4761684"><ele>17.2</ele><time>2015-04-26T14:49:56.0000000+00:00</time></trkpt><trkpt lat="35.0718779" lon="32.4761204"><ele>17.6</ele><time>2015-04-26T14:49:57.0000000+00:00</time></trkpt><trkpt lat="35.0718255" lon="32.4760513"><ele>17.8</ele><time>2015-04-26T14:49:59.0000000+00:00</time></trkpt><trkpt lat="35.0717696" lon="32.475983"><ele>18.4</ele><time>2015-04-26T14:50:01.0000000+00:00</time></trkpt><trkpt lat="35.0717344" lon="32.4759454"><ele>18.2</ele><time>2015-04-26T14:50:02.0000000+00:00</time></trkpt><trkpt lat="35.0716643" lon="32.4758726"><ele>18.0</ele><time>2015-04-26T14:50:04.0000000+00:00</time></trkpt><trkpt lat="35.0716327" lon="32.475829"><ele>18.5</ele><time>2015-04-26T14:50:05.0000000+00:00</time></trkpt><trkpt lat="35.0715966" lon="32.4757764"><ele>18.2</ele><time>2015-04-26T14:50:06.0000000+00:00</time></trkpt><trkpt lat="35.0715593" lon="32.4757358"><ele>18.1</ele><time>2015-04-26T14:50:07.0000000+00:00</time></trkpt><trkpt lat="35.0715191" lon="32.4756952"><ele>18.5</ele><time>2015-04-26T14:50:08.0000000+00:00</time></trkpt><trkpt lat="35.071483" lon="32.4756563"><ele>18.7</ele><time>2015-04-26T14:50:09.0000000+00:00</time></trkpt><trkpt lat="35.0714192" lon="32.4755811"><ele>18.4</ele><time>2015-04-26T14:50:11.0000000+00:00</time></trkpt><trkpt lat="35.0713535" lon="32.4754992"><ele>18.8</ele><time>2015-04-26T14:50:13.0000000+00:00</time></trkpt><trkpt lat="35.0712956" lon="32.4754293"><ele>19.6</ele><time>2015-04-26T14:50:15.0000000+00:00</time></trkpt><trkpt lat="35.0712419" lon="32.4753542"><ele>19.6</ele><time>2015-04-26T14:50:17.0000000+00:00</time></trkpt><trkpt lat="35.0711845" lon="32.4752806"><ele>19.8</ele><time>2015-04-26T14:50:19.0000000+00:00</time></trkpt><trkpt lat="35.0711517" lon="32.4752363"><ele>19.9</ele><time>2015-04-26T14:50:20.0000000+00:00</time></trkpt><trkpt lat="35.0711186" lon="32.4751975"><ele>19.9</ele><time>2015-04-26T14:50:21.0000000+00:00</time></trkpt><trkpt lat="35.071081" lon="32.4751539"><ele>19.9</ele><time>2015-04-26T14:50:22.0000000+00:00</time></trkpt><trkpt lat="35.0710422" lon="32.4751116"><ele>19.9</ele><time>2015-04-26T14:50:23.0000000+00:00</time></trkpt><trkpt lat="35.0710084" lon="32.4750733"><ele>19.4</ele><time>2015-04-26T14:50:24.0000000+00:00</time></trkpt><trkpt lat="35.0709762" lon="32.4750306"><ele>19.2</ele><time>2015-04-26T14:50:25.0000000+00:00</time></trkpt><trkpt lat="35.0709352" lon="32.4749871"><ele>19.1</ele><time>2015-04-26T14:50:26.0000000+00:00</time></trkpt><trkpt lat="35.0708958" lon="32.4749529"><ele>19.0</ele><time>2015-04-26T14:50:27.0000000+00:00</time></trkpt><trkpt lat="35.0708561" lon="32.4749102"><ele>19.0</ele><time>2015-04-26T14:50:28.0000000+00:00</time></trkpt><trkpt lat="35.070792" lon="32.4748448"><ele>18.9</ele><time>2015-04-26T14:50:30.0000000+00:00</time></trkpt><trkpt lat="35.0707586" lon="32.4748051"><ele>18.9</ele><time>2015-04-26T14:50:31.0000000+00:00</time></trkpt><trkpt lat="35.0706962" lon="32.4747346"><ele>19.7</ele><time>2015-04-26T14:50:33.0000000+00:00</time></trkpt><trkpt lat="35.0706411" lon="32.4746552"><ele>19.9</ele><time>2015-04-26T14:50:35.0000000+00:00</time></trkpt><trkpt lat="35.0706003" lon="32.4746108"><ele>19.9</ele><time>2015-04-26T14:50:36.0000000+00:00</time></trkpt><trkpt lat="35.0705638" lon="32.4745684"><ele>20.4</ele><time>2015-04-26T14:50:37.0000000+00:00</time></trkpt><trkpt lat="35.0704989" lon="32.4745015"><ele>20.8</ele><time>2015-04-26T14:50:39.0000000+00:00</time></trkpt><trkpt lat="35.070441" lon="32.4744306"><ele>20.9</ele><time>2015-04-26T14:50:41.0000000+00:00</time></trkpt><trkpt lat="35.0703744" lon="32.4743684"><ele>21.4</ele><time>2015-04-26T14:50:43.0000000+00:00</time></trkpt><trkpt lat="35.0703208" lon="32.4742932"><ele>21.8</ele><time>2015-04-26T14:50:45.0000000+00:00</time></trkpt><trkpt lat="35.0702682" lon="32.4742362"><ele>21.4</ele><time>2015-04-26T14:50:47.0000000+00:00</time></trkpt><trkpt lat="35.070218" lon="32.474177"><ele>21.0</ele><time>2015-04-26T14:50:49.0000000+00:00</time></trkpt><trkpt lat="35.0701727" lon="32.4741158"><ele>21.0</ele><time>2015-04-26T14:50:51.0000000+00:00</time></trkpt><trkpt lat="35.0701222" lon="32.4740568"><ele>20.9</ele><time>2015-04-26T14:50:53.0000000+00:00</time></trkpt><trkpt lat="35.0700634" lon="32.4739947"><ele>20.9</ele><time>2015-04-26T14:50:55.0000000+00:00</time></trkpt><trkpt lat="35.0700168" lon="32.4739456"><ele>20.9</ele><time>2015-04-26T14:50:56.0000000+00:00</time></trkpt><trkpt lat="35.0699583" lon="32.4738632"><ele>20.4</ele><time>2015-04-26T14:50:58.0000000+00:00</time></trkpt><trkpt lat="35.0698967" lon="32.4737903"><ele>20.1</ele><time>2015-04-26T14:51:00.0000000+00:00</time></trkpt><trkpt lat="35.0698655" lon="32.4737476"><ele>20.5</ele><time>2015-04-26T14:51:01.0000000+00:00</time></trkpt><trkpt lat="35.0698349" lon="32.4737005"><ele>20.7</ele><time>2015-04-26T14:51:02.0000000+00:00</time></trkpt><trkpt lat="35.0697977" lon="32.4736567"><ele>20.8</ele><time>2015-04-26T14:51:03.0000000+00:00</time></trkpt><trkpt lat="35.0697679" lon="32.4736105"><ele>20.4</ele><time>2015-04-26T14:51:04.0000000+00:00</time></trkpt><trkpt lat="35.0697108" lon="32.4735375"><ele>20.8</ele><time>2015-04-26T14:51:06.0000000+00:00</time></trkpt><trkpt lat="35.0696551" lon="32.4734559"><ele>20.9</ele><time>2015-04-26T14:51:08.0000000+00:00</time></trkpt><trkpt lat="35.0695983" lon="32.4733837"><ele>20.9</ele><time>2015-04-26T14:51:10.0000000+00:00</time></trkpt><trkpt lat="35.0695632" lon="32.4733471"><ele>20.9</ele><time>2015-04-26T14:51:11.0000000+00:00</time></trkpt><trkpt lat="35.0695282" lon="32.4733087"><ele>21.4</ele><time>2015-04-26T14:51:12.0000000+00:00</time></trkpt><trkpt lat="35.0694946" lon="32.473264"><ele>22.2</ele><time>2015-04-26T14:51:13.0000000+00:00</time></trkpt><trkpt lat="35.0694514" lon="32.473216"><ele>22.1</ele><time>2015-04-26T14:51:14.0000000+00:00</time></trkpt><trkpt lat="35.0694166" lon="32.473171"><ele>22.0</ele><time>2015-04-26T14:51:15.0000000+00:00</time></trkpt><trkpt lat="35.0693828" lon="32.4731219"><ele>21.5</ele><time>2015-04-26T14:51:16.0000000+00:00</time></trkpt><trkpt lat="35.0693483" lon="32.4730766"><ele>21.2</ele><time>2015-04-26T14:51:17.0000000+00:00</time></trkpt><trkpt lat="35.0693172" lon="32.4730345"><ele>21.1</ele><time>2015-04-26T14:51:18.0000000+00:00</time></trkpt><trkpt lat="35.0692848" lon="32.4729957"><ele>21.0</ele><time>2015-04-26T14:51:19.0000000+00:00</time></trkpt><trkpt lat="35.0692534" lon="32.4729552"><ele>20.5</ele><time>2015-04-26T14:51:20.0000000+00:00</time></trkpt><trkpt lat="35.0692276" lon="32.4729078"><ele>20.2</ele><time>2015-04-26T14:51:21.0000000+00:00</time></trkpt><trkpt lat="35.0691624" lon="32.4728193"><ele>19.5</ele><time>2015-04-26T14:51:23.0000000+00:00</time></trkpt><trkpt lat="35.069126" lon="32.47278"><ele>19.2</ele><time>2015-04-26T14:51:24.0000000+00:00</time></trkpt><trkpt lat="35.0690883" lon="32.4727347"><ele>19.6</ele><time>2015-04-26T14:51:25.0000000+00:00</time></trkpt><trkpt lat="35.0690232" lon="32.4726599"><ele>19.8</ele><time>2015-04-26T14:51:27.0000000+00:00</time></trkpt><trkpt lat="35.0689951" lon="32.4726125"><ele>19.9</ele><time>2015-04-26T14:51:28.0000000+00:00</time></trkpt><trkpt lat="35.0689366" lon="32.4725232"><ele>20.2</ele><time>2015-04-26T14:51:30.0000000+00:00</time></trkpt><trkpt lat="35.0689093" lon="32.4724676"><ele>19.5</ele><time>2015-04-26T14:51:31.0000000+00:00</time></trkpt><trkpt lat="35.068873" lon="32.4724181"><ele>19.2</ele><time>2015-04-26T14:51:32.0000000+00:00</time></trkpt><trkpt lat="35.0688359" lon="32.4723748"><ele>19.1</ele><time>2015-04-26T14:51:33.0000000+00:00</time></trkpt><trkpt lat="35.0688062" lon="32.4723284"><ele>19.0</ele><time>2015-04-26T14:51:34.0000000+00:00</time></trkpt><trkpt lat="35.0687415" lon="32.4722489"><ele>19.7</ele><time>2015-04-26T14:51:36.0000000+00:00</time></trkpt><trkpt lat="35.0687152" lon="32.4722"><ele>19.8</ele><time>2015-04-26T14:51:37.0000000+00:00</time></trkpt><trkpt lat="35.0686548" lon="32.4721174"><ele>20.4</ele><time>2015-04-26T14:51:39.0000000+00:00</time></trkpt><trkpt lat="35.0686224" lon="32.4720752"><ele>20.7</ele><time>2015-04-26T14:51:40.0000000+00:00</time></trkpt><trkpt lat="35.0685916" lon="32.4720338"><ele>20.3</ele><time>2015-04-26T14:51:41.0000000+00:00</time></trkpt><trkpt lat="35.0685574" lon="32.471993"><ele>20.6</ele><time>2015-04-26T14:51:42.0000000+00:00</time></trkpt><trkpt lat="35.0685274" lon="32.471936"><ele>20.8</ele><time>2015-04-26T14:51:43.0000000+00:00</time></trkpt><trkpt lat="35.0684862" lon="32.4718907"><ele>20.4</ele><time>2015-04-26T14:51:44.0000000+00:00</time></trkpt><trkpt lat="35.068448" lon="32.4718467"><ele>20.1</ele><time>2015-04-26T14:51:45.0000000+00:00</time></trkpt><trkpt lat="35.0684184" lon="32.4717984"><ele>20.0</ele><time>2015-04-26T14:51:46.0000000+00:00</time></trkpt><trkpt lat="35.0683906" lon="32.4717326"><ele>19.0</ele><time>2015-04-26T14:51:47.0000000+00:00</time></trkpt><trkpt lat="35.0683545" lon="32.4716949"><ele>18.5</ele><time>2015-04-26T14:51:48.0000000+00:00</time></trkpt><trkpt lat="35.068315" lon="32.4716554"><ele>18.2</ele><time>2015-04-26T14:51:49.0000000+00:00</time></trkpt><trkpt lat="35.0682876" lon="32.4716012"><ele>18.6</ele><time>2015-04-26T14:51:50.0000000+00:00</time></trkpt><trkpt lat="35.0682499" lon="32.4715589"><ele>18.7</ele><time>2015-04-26T14:51:51.0000000+00:00</time></trkpt><trkpt lat="35.0682185" lon="32.4715121"><ele>18.3</ele><time>2015-04-26T14:51:52.0000000+00:00</time></trkpt><trkpt lat="35.0681864" lon="32.4714663"><ele>18.6</ele><time>2015-04-26T14:51:53.0000000+00:00</time></trkpt><trkpt lat="35.0681556" lon="32.4714182"><ele>19.3</ele><time>2015-04-26T14:51:54.0000000+00:00</time></trkpt><trkpt lat="35.0681221" lon="32.4713536"><ele>18.6</ele><time>2015-04-26T14:51:55.0000000+00:00</time></trkpt><trkpt lat="35.0680837" lon="32.471309"><ele>18.3</ele><time>2015-04-26T14:51:56.0000000+00:00</time></trkpt><trkpt lat="35.0680521" lon="32.4712669"><ele>18.1</ele><time>2015-04-26T14:51:57.0000000+00:00</time></trkpt><trkpt lat="35.0680144" lon="32.4712345"><ele>18.0</ele><time>2015-04-26T14:51:58.0000000+00:00</time></trkpt><trkpt lat="35.0679848" lon="32.4711893"><ele>18.5</ele><time>2015-04-26T14:51:59.0000000+00:00</time></trkpt><trkpt lat="35.0679269" lon="32.4711071"><ele>18.8</ele><time>2015-04-26T14:52:01.0000000+00:00</time></trkpt><trkpt lat="35.0678644" lon="32.4710358"><ele>18.9</ele><time>2015-04-26T14:52:03.0000000+00:00</time></trkpt><trkpt lat="35.0678166" lon="32.4709681"><ele>18.9</ele><time>2015-04-26T14:52:05.0000000+00:00</time></trkpt><trkpt lat="35.0677588" lon="32.4708926"><ele>18.9</ele><time>2015-04-26T14:52:07.0000000+00:00</time></trkpt><trkpt lat="35.0677199" lon="32.4708537"><ele>18.9</ele><time>2015-04-26T14:52:08.0000000+00:00</time></trkpt><trkpt lat="35.0676577" lon="32.4707775"><ele>18.9</ele><time>2015-04-26T14:52:10.0000000+00:00</time></trkpt><trkpt lat="35.0676141" lon="32.4707102"><ele>19.7</ele><time>2015-04-26T14:52:12.0000000+00:00</time></trkpt><trkpt lat="35.0675718" lon="32.4706474"><ele>19.9</ele><time>2015-04-26T14:52:14.0000000+00:00</time></trkpt><trkpt lat="35.0675225" lon="32.4705856"><ele>19.9</ele><time>2015-04-26T14:52:16.0000000+00:00</time></trkpt><trkpt lat="35.067476" lon="32.4705214"><ele>19.9</ele><time>2015-04-26T14:52:18.0000000+00:00</time></trkpt><trkpt lat="35.0674224" lon="32.4704537"><ele>19.9</ele><time>2015-04-26T14:52:20.0000000+00:00</time></trkpt><trkpt lat="35.0673493" lon="32.4703749"><ele>19.4</ele><time>2015-04-26T14:52:22.0000000+00:00</time></trkpt><trkpt lat="35.067287" lon="32.4703034"><ele>18.6</ele><time>2015-04-26T14:52:24.0000000+00:00</time></trkpt><trkpt lat="35.0672212" lon="32.4702303"><ele>17.6</ele><time>2015-04-26T14:52:26.0000000+00:00</time></trkpt><trkpt lat="35.0671637" lon="32.4701615"><ele>17.6</ele><time>2015-04-26T14:52:28.0000000+00:00</time></trkpt><trkpt lat="35.0671065" lon="32.4700918"><ele>18.6</ele><time>2015-04-26T14:52:30.0000000+00:00</time></trkpt><trkpt lat="35.0670453" lon="32.4700156"><ele>18.8</ele><time>2015-04-26T14:52:32.0000000+00:00</time></trkpt><trkpt lat="35.0669815" lon="32.4699498"><ele>18.9</ele><time>2015-04-26T14:52:34.0000000+00:00</time></trkpt><trkpt lat="35.06692" lon="32.4698834"><ele>18.2</ele><time>2015-04-26T14:52:36.0000000+00:00</time></trkpt><trkpt lat="35.0668639" lon="32.4698218"><ele>18.0</ele><time>2015-04-26T14:52:38.0000000+00:00</time></trkpt><trkpt lat="35.0668112" lon="32.469764"><ele>17.9</ele><time>2015-04-26T14:52:40.0000000+00:00</time></trkpt><trkpt lat="35.0667623" lon="32.4697058"><ele>17.9</ele><time>2015-04-26T14:52:42.0000000+00:00</time></trkpt><trkpt lat="35.0667162" lon="32.4696502"><ele>17.9</ele><time>2015-04-26T14:52:44.0000000+00:00</time></trkpt><trkpt lat="35.0666666" lon="32.4696"><ele>17.2</ele><time>2015-04-26T14:52:46.0000000+00:00</time></trkpt><trkpt lat="35.0666185" lon="32.469549"><ele>16.7</ele><time>2015-04-26T14:52:48.0000000+00:00</time></trkpt><trkpt lat="35.0665701" lon="32.4695018"><ele>18.1</ele><time>2015-04-26T14:52:50.0000000+00:00</time></trkpt><trkpt lat="35.0665296" lon="32.4694691"><ele>19.0</ele><time>2015-04-26T14:52:52.0000000+00:00</time></trkpt><trkpt lat="35.066489" lon="32.4694437"><ele>21.8</ele><time>2015-04-26T14:53:05.0000000+00:00</time></trkpt><trkpt lat="35.0664393" lon="32.4694044"><ele>18.8</ele><time>2015-04-26T15:01:29.0000000+00:00</time></trkpt><trkpt lat="35.0664119" lon="32.4693572"><ele>18.1</ele><time>2015-04-26T15:01:31.0000000+00:00</time></trkpt><trkpt lat="35.066387" lon="32.469281"><ele>18.0</ele><time>2015-04-26T15:01:34.0000000+00:00</time></trkpt><trkpt lat="35.0663457" lon="32.4692277"><ele>17.9</ele><time>2015-04-26T15:01:36.0000000+00:00</time></trkpt><trkpt lat="35.0662927" lon="32.4691588"><ele>20.4</ele><time>2015-04-26T15:01:38.0000000+00:00</time></trkpt><trkpt lat="35.0662461" lon="32.4690906"><ele>21.6</ele><time>2015-04-26T15:01:40.0000000+00:00</time></trkpt><trkpt lat="35.066206" lon="32.469019"><ele>21.8</ele><time>2015-04-26T15:01:42.0000000+00:00</time></trkpt><trkpt lat="35.0661636" lon="32.468944"><ele>21.9</ele><time>2015-04-26T15:01:44.0000000+00:00</time></trkpt><trkpt lat="35.0661188" lon="32.4688704"><ele>21.9</ele><time>2015-04-26T15:01:46.0000000+00:00</time></trkpt><trkpt lat="35.0660756" lon="32.4688012"><ele>21.9</ele><time>2015-04-26T15:01:48.0000000+00:00</time></trkpt><trkpt lat="35.0660347" lon="32.4687356"><ele>21.9</ele><time>2015-04-26T15:01:50.0000000+00:00</time></trkpt><trkpt lat="35.0659964" lon="32.4686638"><ele>21.9</ele><time>2015-04-26T15:01:52.0000000+00:00</time></trkpt><trkpt lat="35.0659508" lon="32.468577"><ele>21.9</ele><time>2015-04-26T15:01:54.0000000+00:00</time></trkpt><trkpt lat="35.0659234" lon="32.4685311"><ele>21.9</ele><time>2015-04-26T15:01:55.0000000+00:00</time></trkpt><trkpt lat="35.0658973" lon="32.4684854"><ele>21.9</ele><time>2015-04-26T15:01:56.0000000+00:00</time></trkpt><trkpt lat="35.0658525" lon="32.4683912"><ele>21.9</ele><time>2015-04-26T15:01:58.0000000+00:00</time></trkpt><trkpt lat="35.0658081" lon="32.4682993"><ele>21.9</ele><time>2015-04-26T15:02:00.0000000+00:00</time></trkpt><trkpt lat="35.0657628" lon="32.4682097"><ele>21.9</ele><time>2015-04-26T15:02:02.0000000+00:00</time></trkpt><trkpt lat="35.0657159" lon="32.4681228"><ele>21.9</ele><time>2015-04-26T15:02:04.0000000+00:00</time></trkpt><trkpt lat="35.0656721" lon="32.4680358"><ele>21.2</ele><time>2015-04-26T15:02:06.0000000+00:00</time></trkpt><trkpt lat="35.0656292" lon="32.4679535"><ele>21.0</ele><time>2015-04-26T15:02:08.0000000+00:00</time></trkpt><trkpt lat="35.065594" lon="32.467886"><ele>20.9</ele><time>2015-04-26T15:02:10.0000000+00:00</time></trkpt><trkpt lat="35.065557" lon="32.4678169"><ele>20.9</ele><time>2015-04-26T15:02:12.0000000+00:00</time></trkpt><trkpt lat="35.0655272" lon="32.4677427"><ele>20.9</ele><time>2015-04-26T15:02:14.0000000+00:00</time></trkpt><trkpt lat="35.0655214" lon="32.4676603"><ele>20.9</ele><time>2015-04-26T15:02:16.0000000+00:00</time></trkpt><trkpt lat="35.0655412" lon="32.4675776"><ele>20.9</ele><time>2015-04-26T15:02:18.0000000+00:00</time></trkpt><trkpt lat="35.0655492" lon="32.4674947"><ele>20.9</ele><time>2015-04-26T15:02:20.0000000+00:00</time></trkpt><trkpt lat="35.0655442" lon="32.4674144"><ele>20.9</ele><time>2015-04-26T15:02:22.0000000+00:00</time></trkpt><trkpt lat="35.0655228" lon="32.4673546"><ele>20.9</ele><time>2015-04-26T15:02:24.0000000+00:00</time></trkpt><trkpt lat="35.0654836" lon="32.4673078"><ele>20.9</ele><time>2015-04-26T15:02:27.0000000+00:00</time></trkpt><trkpt lat="35.0654373" lon="32.4673379"><ele>19.3</ele><time>2015-04-26T15:12:34.0000000+00:00</time></trkpt><trkpt lat="35.0653738" lon="32.4673493"><ele>19.0</ele><time>2015-04-26T15:12:37.0000000+00:00</time></trkpt><trkpt lat="35.0653232" lon="32.4673365"><ele>18.9</ele><time>2015-04-26T15:12:39.0000000+00:00</time></trkpt><trkpt lat="35.0652746" lon="32.4672951"><ele>18.7</ele><time>2015-04-26T15:12:41.0000000+00:00</time></trkpt><trkpt lat="35.0652359" lon="32.4672247"><ele>18.9</ele><time>2015-04-26T15:12:43.0000000+00:00</time></trkpt><trkpt lat="35.0652129" lon="32.4671746"><ele>18.4</ele><time>2015-04-26T15:12:44.0000000+00:00</time></trkpt><trkpt lat="35.0651686" lon="32.4670854"><ele>17.3</ele><time>2015-04-26T15:12:46.0000000+00:00</time></trkpt><trkpt lat="35.0651246" lon="32.4669954"><ele>17.0</ele><time>2015-04-26T15:12:48.0000000+00:00</time></trkpt><trkpt lat="35.06508" lon="32.4669136"><ele>16.5</ele><time>2015-04-26T15:12:50.0000000+00:00</time></trkpt><trkpt lat="35.0650431" lon="32.4668493"><ele>16.1</ele><time>2015-04-26T15:12:52.0000000+00:00</time></trkpt><trkpt lat="35.0650022" lon="32.4667775"><ele>16.0</ele><time>2015-04-26T15:12:54.0000000+00:00</time></trkpt><trkpt lat="35.06496" lon="32.4667082"><ele>15.9</ele><time>2015-04-26T15:12:56.0000000+00:00</time></trkpt><trkpt lat="35.0649217" lon="32.4666403"><ele>15.9</ele><time>2015-04-26T15:12:58.0000000+00:00</time></trkpt><trkpt lat="35.0648817" lon="32.4665722"><ele>15.4</ele><time>2015-04-26T15:13:00.0000000+00:00</time></trkpt><trkpt lat="35.0648346" lon="32.466502"><ele>15.1</ele><time>2015-04-26T15:13:02.0000000+00:00</time></trkpt><trkpt lat="35.0647884" lon="32.4664269"><ele>14.5</ele><time>2015-04-26T15:13:04.0000000+00:00</time></trkpt><trkpt lat="35.0647403" lon="32.4663516"><ele>13.6</ele><time>2015-04-26T15:13:06.0000000+00:00</time></trkpt><trkpt lat="35.0647113" lon="32.466308"><ele>13.2</ele><time>2015-04-26T15:13:07.0000000+00:00</time></trkpt><trkpt lat="35.064682" lon="32.4662648"><ele>13.1</ele><time>2015-04-26T15:13:08.0000000+00:00</time></trkpt><trkpt lat="35.064645" lon="32.4662201"><ele>12.5</ele><time>2015-04-26T15:13:09.0000000+00:00</time></trkpt><trkpt lat="35.064614" lon="32.4661799"><ele>12.2</ele><time>2015-04-26T15:13:10.0000000+00:00</time></trkpt><trkpt lat="35.0645806" lon="32.4661394"><ele>12.1</ele><time>2015-04-26T15:13:11.0000000+00:00</time></trkpt><trkpt lat="35.0645425" lon="32.466106"><ele>12.0</ele><time>2015-04-26T15:13:12.0000000+00:00</time></trkpt><trkpt lat="35.0644857" lon="32.4660329"><ele>11.2</ele><time>2015-04-26T15:13:14.0000000+00:00</time></trkpt><trkpt lat="35.064425" lon="32.4659697"><ele>11.0</ele><time>2015-04-26T15:13:16.0000000+00:00</time></trkpt><trkpt lat="35.0643747" lon="32.4659104"><ele>11.7</ele><time>2015-04-26T15:13:18.0000000+00:00</time></trkpt><trkpt lat="35.0643231" lon="32.4658576"><ele>11.9</ele><time>2015-04-26T15:13:20.0000000+00:00</time></trkpt><trkpt lat="35.0642764" lon="32.4658017"><ele>11.9</ele><time>2015-04-26T15:13:22.0000000+00:00</time></trkpt><trkpt lat="35.0642299" lon="32.4657521"><ele>12.4</ele><time>2015-04-26T15:13:24.0000000+00:00</time></trkpt><trkpt lat="35.0641858" lon="32.4657035"><ele>12.8</ele><time>2015-04-26T15:13:26.0000000+00:00</time></trkpt><trkpt lat="35.0641443" lon="32.4656555"><ele>12.1</ele><time>2015-04-26T15:13:28.0000000+00:00</time></trkpt><trkpt lat="35.0641025" lon="32.4656112"><ele>12.0</ele><time>2015-04-26T15:13:30.0000000+00:00</time></trkpt><trkpt lat="35.0640709" lon="32.4655716"><ele>12.2</ele><time>2015-04-26T15:13:32.0000000+00:00</time></trkpt><trkpt lat="35.0640378" lon="32.4655287"><ele>12.5</ele><time>2015-04-26T15:13:34.0000000+00:00</time></trkpt><trkpt lat="35.0640004" lon="32.4654887"><ele>12.6</ele><time>2015-04-26T15:13:36.0000000+00:00</time></trkpt><trkpt lat="35.063961" lon="32.4654448"><ele>12.8</ele><time>2015-04-26T15:13:38.0000000+00:00</time></trkpt><trkpt lat="35.0639104" lon="32.4653818"><ele>12.9</ele><time>2015-04-26T15:13:40.0000000+00:00</time></trkpt><trkpt lat="35.0638499" lon="32.4653115"><ele>12.9</ele><time>2015-04-26T15:13:42.0000000+00:00</time></trkpt><trkpt lat="35.0637918" lon="32.4652442"><ele>13.4</ele><time>2015-04-26T15:13:44.0000000+00:00</time></trkpt><trkpt lat="35.0637417" lon="32.4651746"><ele>13.8</ele><time>2015-04-26T15:13:46.0000000+00:00</time></trkpt><trkpt lat="35.0636997" lon="32.4651167"><ele>13.9</ele><time>2015-04-26T15:13:48.0000000+00:00</time></trkpt><trkpt lat="35.0636654" lon="32.4650769"><ele>13.2</ele><time>2015-04-26T15:13:50.0000000+00:00</time></trkpt><trkpt lat="35.0636152" lon="32.4650256"><ele>12.7</ele><time>2015-04-26T15:13:53.0000000+00:00</time></trkpt><trkpt lat="35.063574" lon="32.4649987"><ele>12.4</ele><time>2015-04-26T15:13:55.0000000+00:00</time></trkpt><trkpt lat="35.0635362" lon="32.4649585"><ele>12.0</ele><time>2015-04-26T15:13:57.0000000+00:00</time></trkpt><trkpt lat="35.0634834" lon="32.4648909"><ele>12.0</ele><time>2015-04-26T15:13:59.0000000+00:00</time></trkpt><trkpt lat="35.0634486" lon="32.4648527"><ele>11.9</ele><time>2015-04-26T15:14:00.0000000+00:00</time></trkpt><trkpt lat="35.0634104" lon="32.4648104"><ele>11.4</ele><time>2015-04-26T15:14:01.0000000+00:00</time></trkpt><trkpt lat="35.0633756" lon="32.4647661"><ele>11.2</ele><time>2015-04-26T15:14:02.0000000+00:00</time></trkpt><trkpt lat="35.0633372" lon="32.4647277"><ele>11.1</ele><time>2015-04-26T15:14:03.0000000+00:00</time></trkpt><trkpt lat="35.0633061" lon="32.4646859"><ele>11.0</ele><time>2015-04-26T15:14:04.0000000+00:00</time></trkpt><trkpt lat="35.063249" lon="32.4646077"><ele>10.9</ele><time>2015-04-26T15:14:06.0000000+00:00</time></trkpt><trkpt lat="35.0632185" lon="32.4645667"><ele>10.9</ele><time>2015-04-26T15:14:07.0000000+00:00</time></trkpt><trkpt lat="35.0631726" lon="32.4644952"><ele>10.9</ele><time>2015-04-26T15:14:09.0000000+00:00</time></trkpt><trkpt lat="35.0631251" lon="32.4644313"><ele>10.9</ele><time>2015-04-26T15:14:11.0000000+00:00</time></trkpt><trkpt lat="35.0630772" lon="32.4643692"><ele>10.9</ele><time>2015-04-26T15:14:13.0000000+00:00</time></trkpt><trkpt lat="35.0630271" lon="32.4643112"><ele>10.9</ele><time>2015-04-26T15:14:15.0000000+00:00</time></trkpt><trkpt lat="35.06298" lon="32.4642466"><ele>10.2</ele><time>2015-04-26T15:14:17.0000000+00:00</time></trkpt><trkpt lat="35.0629315" lon="32.4641797"><ele>10.0</ele><time>2015-04-26T15:14:19.0000000+00:00</time></trkpt><trkpt lat="35.0628861" lon="32.4641135"><ele>9.9</ele><time>2015-04-26T15:14:21.0000000+00:00</time></trkpt><trkpt lat="35.0628401" lon="32.4640497"><ele>9.9</ele><time>2015-04-26T15:14:23.0000000+00:00</time></trkpt><trkpt lat="35.0627881" lon="32.4639814"><ele>9.2</ele><time>2015-04-26T15:14:25.0000000+00:00</time></trkpt><trkpt lat="35.0627509" lon="32.4639231"><ele>9.1</ele><time>2015-04-26T15:14:26.0000000+00:00</time></trkpt><trkpt lat="35.0626934" lon="32.4638396"><ele>9.0</ele><time>2015-04-26T15:14:28.0000000+00:00</time></trkpt><trkpt lat="35.0626324" lon="32.4637675"><ele>9.7</ele><time>2015-04-26T15:14:30.0000000+00:00</time></trkpt><trkpt lat="35.0625792" lon="32.4637056"><ele>9.9</ele><time>2015-04-26T15:14:32.0000000+00:00</time></trkpt><trkpt lat="35.0625403" lon="32.4636394"><ele>9.9</ele><time>2015-04-26T15:14:34.0000000+00:00</time></trkpt><trkpt lat="35.0624986" lon="32.4635752"><ele>9.9</ele><time>2015-04-26T15:14:36.0000000+00:00</time></trkpt><trkpt lat="35.0624601" lon="32.4635148"><ele>10.7</ele><time>2015-04-26T15:14:38.0000000+00:00</time></trkpt><trkpt lat="35.0624197" lon="32.4634558"><ele>10.9</ele><time>2015-04-26T15:14:40.0000000+00:00</time></trkpt><trkpt lat="35.062377" lon="32.4633987"><ele>11.7</ele><time>2015-04-26T15:14:42.0000000+00:00</time></trkpt><trkpt lat="35.0623343" lon="32.4633355"><ele>11.9</ele><time>2015-04-26T15:14:44.0000000+00:00</time></trkpt><trkpt lat="35.0622899" lon="32.4632709"><ele>11.9</ele><time>2015-04-26T15:14:46.0000000+00:00</time></trkpt><trkpt lat="35.0622454" lon="32.4632072"><ele>11.9</ele><time>2015-04-26T15:14:48.0000000+00:00</time></trkpt><trkpt lat="35.0621997" lon="32.4631425"><ele>11.9</ele><time>2015-04-26T15:14:50.0000000+00:00</time></trkpt><trkpt lat="35.0621546" lon="32.4630765"><ele>11.9</ele><time>2015-04-26T15:14:52.0000000+00:00</time></trkpt><trkpt lat="35.0621048" lon="32.463006"><ele>11.2</ele><time>2015-04-26T15:14:54.0000000+00:00</time></trkpt><trkpt lat="35.0620544" lon="32.4629358"><ele>10.5</ele><time>2015-04-26T15:14:56.0000000+00:00</time></trkpt><trkpt lat="35.0620063" lon="32.4628697"><ele>10.1</ele><time>2015-04-26T15:14:58.0000000+00:00</time></trkpt><trkpt lat="35.0619616" lon="32.4628117"><ele>10.0</ele><time>2015-04-26T15:15:00.0000000+00:00</time></trkpt><trkpt lat="35.0619186" lon="32.4627533"><ele>10.7</ele><time>2015-04-26T15:15:02.0000000+00:00</time></trkpt><trkpt lat="35.0618814" lon="32.4626946"><ele>10.6</ele><time>2015-04-26T15:15:04.0000000+00:00</time></trkpt><trkpt lat="35.0618407" lon="32.4626452"><ele>10.4</ele><time>2015-04-26T15:15:06.0000000+00:00</time></trkpt><trkpt lat="35.0618082" lon="32.4626015"><ele>10.0</ele><time>2015-04-26T15:15:08.0000000+00:00</time></trkpt><trkpt lat="35.0617745" lon="32.4625417"><ele>9.7</ele><time>2015-04-26T15:15:11.0000000+00:00</time></trkpt><trkpt lat="35.0617448" lon="32.4624967"><ele>9.9</ele><time>2015-04-26T15:15:13.0000000+00:00</time></trkpt><trkpt lat="35.0616909" lon="32.4624068"><ele>10.7</ele><time>2015-04-26T15:15:15.0000000+00:00</time></trkpt><trkpt lat="35.0616582" lon="32.462363"><ele>10.8</ele><time>2015-04-26T15:15:16.0000000+00:00</time></trkpt><trkpt lat="35.0616103" lon="32.4623096"><ele>10.9</ele><time>2015-04-26T15:15:17.0000000+00:00</time></trkpt><trkpt lat="35.0615782" lon="32.4622676"><ele>11.4</ele><time>2015-04-26T15:15:18.0000000+00:00</time></trkpt><trkpt lat="35.0615519" lon="32.4622204"><ele>11.2</ele><time>2015-04-26T15:15:19.0000000+00:00</time></trkpt><trkpt lat="35.0615207" lon="32.4621799"><ele>11.0</ele><time>2015-04-26T15:15:20.0000000+00:00</time></trkpt><trkpt lat="35.061464" lon="32.462105"><ele>11.7</ele><time>2015-04-26T15:15:22.0000000+00:00</time></trkpt><trkpt lat="35.0614049" lon="32.4620404"><ele>11.4</ele><time>2015-04-26T15:15:24.0000000+00:00</time></trkpt><trkpt lat="35.0613496" lon="32.4619628"><ele>11.3</ele><time>2015-04-26T15:15:26.0000000+00:00</time></trkpt><trkpt lat="35.0612926" lon="32.46188"><ele>10.5</ele><time>2015-04-26T15:15:28.0000000+00:00</time></trkpt><trkpt lat="35.0612621" lon="32.4618361"><ele>10.7</ele><time>2015-04-26T15:15:29.0000000+00:00</time></trkpt><trkpt lat="35.0612076" lon="32.4617646"><ele>10.1</ele><time>2015-04-26T15:15:31.0000000+00:00</time></trkpt><trkpt lat="35.0611602" lon="32.4616962"><ele>10.0</ele><time>2015-04-26T15:15:33.0000000+00:00</time></trkpt><trkpt lat="35.0611153" lon="32.4616283"><ele>9.2</ele><time>2015-04-26T15:15:35.0000000+00:00</time></trkpt><trkpt lat="35.0610752" lon="32.461568"><ele>9.7</ele><time>2015-04-26T15:15:37.0000000+00:00</time></trkpt><trkpt lat="35.061035" lon="32.4615127"><ele>9.9</ele><time>2015-04-26T15:15:39.0000000+00:00</time></trkpt><trkpt lat="35.0609894" lon="32.461452"><ele>9.9</ele><time>2015-04-26T15:15:41.0000000+00:00</time></trkpt><trkpt lat="35.0609318" lon="32.4613766"><ele>10.2</ele><time>2015-04-26T15:15:43.0000000+00:00</time></trkpt><trkpt lat="35.0608765" lon="32.4612978"><ele>10.7</ele><time>2015-04-26T15:15:45.0000000+00:00</time></trkpt><trkpt lat="35.0608215" lon="32.4612202"><ele>10.9</ele><time>2015-04-26T15:15:47.0000000+00:00</time></trkpt><trkpt lat="35.0607705" lon="32.4611417"><ele>10.9</ele><time>2015-04-26T15:15:49.0000000+00:00</time></trkpt><trkpt lat="35.0607162" lon="32.4610626"><ele>10.4</ele><time>2015-04-26T15:15:51.0000000+00:00</time></trkpt><trkpt lat="35.0606588" lon="32.460969"><ele>10.1</ele><time>2015-04-26T15:15:53.0000000+00:00</time></trkpt><trkpt lat="35.0606289" lon="32.4609184"><ele>10.5</ele><time>2015-04-26T15:15:54.0000000+00:00</time></trkpt><trkpt lat="35.0606015" lon="32.4608727"><ele>10.7</ele><time>2015-04-26T15:15:55.0000000+00:00</time></trkpt><trkpt lat="35.0605512" lon="32.4607839"><ele>10.9</ele><time>2015-04-26T15:15:57.0000000+00:00</time></trkpt><trkpt lat="35.0605211" lon="32.4607348"><ele>10.9</ele><time>2015-04-26T15:15:58.0000000+00:00</time></trkpt><trkpt lat="35.0604726" lon="32.4606417"><ele>10.9</ele><time>2015-04-26T15:16:00.0000000+00:00</time></trkpt><trkpt lat="35.0604504" lon="32.4605932"><ele>10.9</ele><time>2015-04-26T15:16:01.0000000+00:00</time></trkpt><trkpt lat="35.0604279" lon="32.4605439"><ele>10.9</ele><time>2015-04-26T15:16:02.0000000+00:00</time></trkpt><trkpt lat="35.0604058" lon="32.4604942"><ele>10.4</ele><time>2015-04-26T15:16:03.0000000+00:00</time></trkpt><trkpt lat="35.0603822" lon="32.460441"><ele>10.2</ele><time>2015-04-26T15:16:04.0000000+00:00</time></trkpt><trkpt lat="35.0603549" lon="32.4603851"><ele>10.1</ele><time>2015-04-26T15:16:05.0000000+00:00</time></trkpt><trkpt lat="35.0603333" lon="32.4603316"><ele>10.0</ele><time>2015-04-26T15:16:06.0000000+00:00</time></trkpt><trkpt lat="35.0603146" lon="32.4602755"><ele>10.0</ele><time>2015-04-26T15:16:07.0000000+00:00</time></trkpt><trkpt lat="35.0602962" lon="32.4602219"><ele>9.9</ele><time>2015-04-26T15:16:08.0000000+00:00</time></trkpt><trkpt lat="35.0602734" lon="32.4601647"><ele>9.9</ele><time>2015-04-26T15:16:09.0000000+00:00</time></trkpt><trkpt lat="35.0602501" lon="32.460107"><ele>10.4</ele><time>2015-04-26T15:16:10.0000000+00:00</time></trkpt><trkpt lat="35.0602298" lon="32.4600515"><ele>10.7</ele><time>2015-04-26T15:16:11.0000000+00:00</time></trkpt><trkpt lat="35.0602046" lon="32.4599864"><ele>11.3</ele><time>2015-04-26T15:16:12.0000000+00:00</time></trkpt><trkpt lat="35.0601889" lon="32.4599292"><ele>11.1</ele><time>2015-04-26T15:16:13.0000000+00:00</time></trkpt><trkpt lat="35.0601736" lon="32.4598727"><ele>11.0</ele><time>2015-04-26T15:16:14.0000000+00:00</time></trkpt><trkpt lat="35.0601619" lon="32.4598169"><ele>11.5</ele><time>2015-04-26T15:16:15.0000000+00:00</time></trkpt><trkpt lat="35.0601174" lon="32.4597214"><ele>11.3</ele><time>2015-04-26T15:16:17.0000000+00:00</time></trkpt><trkpt lat="35.0600944" lon="32.4596727"><ele>11.1</ele><time>2015-04-26T15:16:18.0000000+00:00</time></trkpt><trkpt lat="35.0600854" lon="32.4596138"><ele>11.0</ele><time>2015-04-26T15:16:19.0000000+00:00</time></trkpt><trkpt lat="35.0600513" lon="32.4595102"><ele>10.5</ele><time>2015-04-26T15:16:21.0000000+00:00</time></trkpt><trkpt lat="35.0600292" lon="32.4594576"><ele>10.7</ele><time>2015-04-26T15:16:22.0000000+00:00</time></trkpt><trkpt lat="35.0600032" lon="32.459403"><ele>10.8</ele><time>2015-04-26T15:16:23.0000000+00:00</time></trkpt><trkpt lat="35.0599777" lon="32.4593427"><ele>11.9</ele><time>2015-04-26T15:16:24.0000000+00:00</time></trkpt><trkpt lat="35.0599604" lon="32.4592831"><ele>11.9</ele><time>2015-04-26T15:16:25.0000000+00:00</time></trkpt><trkpt lat="35.0599353" lon="32.4592258"><ele>11.9</ele><time>2015-04-26T15:16:26.0000000+00:00</time></trkpt><trkpt lat="35.059904" lon="32.4591717"><ele>11.9</ele><time>2015-04-26T15:16:27.0000000+00:00</time></trkpt><trkpt lat="35.0598718" lon="32.4591161"><ele>11.9</ele><time>2015-04-26T15:16:28.0000000+00:00</time></trkpt><trkpt lat="35.0598474" lon="32.4590535"><ele>11.9</ele><time>2015-04-26T15:16:29.0000000+00:00</time></trkpt><trkpt lat="35.0598198" lon="32.459005"><ele>11.9</ele><time>2015-04-26T15:16:30.0000000+00:00</time></trkpt><trkpt lat="35.0597894" lon="32.4589527"><ele>11.9</ele><time>2015-04-26T15:16:31.0000000+00:00</time></trkpt><trkpt lat="35.0597528" lon="32.4589086"><ele>11.9</ele><time>2015-04-26T15:16:32.0000000+00:00</time></trkpt><trkpt lat="35.059719" lon="32.4588626"><ele>11.9</ele><time>2015-04-26T15:16:33.0000000+00:00</time></trkpt><trkpt lat="35.0596848" lon="32.4588218"><ele>11.9</ele><time>2015-04-26T15:16:34.0000000+00:00</time></trkpt><trkpt lat="35.0596274" lon="32.4587277"><ele>12.7</ele><time>2015-04-26T15:16:36.0000000+00:00</time></trkpt><trkpt lat="35.0595866" lon="32.4586822"><ele>12.8</ele><time>2015-04-26T15:16:37.0000000+00:00</time></trkpt><trkpt lat="35.0595488" lon="32.4586406"><ele>12.9</ele><time>2015-04-26T15:16:38.0000000+00:00</time></trkpt><trkpt lat="35.0595171" lon="32.4585967"><ele>13.4</ele><time>2015-04-26T15:16:39.0000000+00:00</time></trkpt><trkpt lat="35.0594858" lon="32.4585564"><ele>13.7</ele><time>2015-04-26T15:16:40.0000000+00:00</time></trkpt><trkpt lat="35.0594519" lon="32.4585195"><ele>13.8</ele><time>2015-04-26T15:16:41.0000000+00:00</time></trkpt><trkpt lat="35.0593864" lon="32.458444"><ele>13.9</ele><time>2015-04-26T15:16:43.0000000+00:00</time></trkpt><trkpt lat="35.0593167" lon="32.458362"><ele>13.2</ele><time>2015-04-26T15:16:45.0000000+00:00</time></trkpt><trkpt lat="35.0592786" lon="32.4583205"><ele>13.1</ele><time>2015-04-26T15:16:46.0000000+00:00</time></trkpt><trkpt lat="35.0592374" lon="32.4582804"><ele>13.0</ele><time>2015-04-26T15:16:47.0000000+00:00</time></trkpt><trkpt lat="35.0591982" lon="32.458233"><ele>13.0</ele><time>2015-04-26T15:16:48.0000000+00:00</time></trkpt><trkpt lat="35.0591569" lon="32.4581847"><ele>12.9</ele><time>2015-04-26T15:16:49.0000000+00:00</time></trkpt><trkpt lat="35.0591134" lon="32.458136"><ele>12.9</ele><time>2015-04-26T15:16:50.0000000+00:00</time></trkpt><trkpt lat="35.0590696" lon="32.4580867"><ele>12.9</ele><time>2015-04-26T15:16:51.0000000+00:00</time></trkpt><trkpt lat="35.0590275" lon="32.4580284"><ele>12.9</ele><time>2015-04-26T15:16:52.0000000+00:00</time></trkpt><trkpt lat="35.0589811" lon="32.457969"><ele>12.9</ele><time>2015-04-26T15:16:53.0000000+00:00</time></trkpt><trkpt lat="35.0589371" lon="32.4579121"><ele>12.9</ele><time>2015-04-26T15:16:54.0000000+00:00</time></trkpt><trkpt lat="35.0588931" lon="32.4578559"><ele>13.4</ele><time>2015-04-26T15:16:55.0000000+00:00</time></trkpt><trkpt lat="35.0588488" lon="32.4577951"><ele>13.7</ele><time>2015-04-26T15:16:56.0000000+00:00</time></trkpt><trkpt lat="35.0588071" lon="32.457727"><ele>13.8</ele><time>2015-04-26T15:16:57.0000000+00:00</time></trkpt><trkpt lat="35.0587649" lon="32.4576608"><ele>13.9</ele><time>2015-04-26T15:16:58.0000000+00:00</time></trkpt><trkpt lat="35.0587215" lon="32.4575972"><ele>13.9</ele><time>2015-04-26T15:16:59.0000000+00:00</time></trkpt><trkpt lat="35.0586788" lon="32.4575316"><ele>13.9</ele><time>2015-04-26T15:17:00.0000000+00:00</time></trkpt><trkpt lat="35.0586433" lon="32.4574642"><ele>13.4</ele><time>2015-04-26T15:17:01.0000000+00:00</time></trkpt><trkpt lat="35.0586106" lon="32.4573898"><ele>13.2</ele><time>2015-04-26T15:17:02.0000000+00:00</time></trkpt><trkpt lat="35.0585733" lon="32.4573248"><ele>12.6</ele><time>2015-04-26T15:17:03.0000000+00:00</time></trkpt><trkpt lat="35.0585348" lon="32.457257"><ele>12.2</ele><time>2015-04-26T15:17:04.0000000+00:00</time></trkpt><trkpt lat="35.0584971" lon="32.4571838"><ele>12.1</ele><time>2015-04-26T15:17:05.0000000+00:00</time></trkpt><trkpt lat="35.0584579" lon="32.4571177"><ele>12.0</ele><time>2015-04-26T15:17:06.0000000+00:00</time></trkpt><trkpt lat="35.058418" lon="32.4570573"><ele>12.5</ele><time>2015-04-26T15:17:07.0000000+00:00</time></trkpt><trkpt lat="35.0583859" lon="32.4569874"><ele>12.2</ele><time>2015-04-26T15:17:08.0000000+00:00</time></trkpt><trkpt lat="35.0583535" lon="32.4569224"><ele>12.1</ele><time>2015-04-26T15:17:09.0000000+00:00</time></trkpt><trkpt lat="35.0583189" lon="32.4568595"><ele>12.5</ele><time>2015-04-26T15:17:10.0000000+00:00</time></trkpt><trkpt lat="35.0582848" lon="32.4567993"><ele>12.2</ele><time>2015-04-26T15:17:11.0000000+00:00</time></trkpt><trkpt lat="35.0582487" lon="32.4567327"><ele>12.1</ele><time>2015-04-26T15:17:12.0000000+00:00</time></trkpt><trkpt lat="35.0582171" lon="32.4566681"><ele>11.5</ele><time>2015-04-26T15:17:13.0000000+00:00</time></trkpt><trkpt lat="35.0581838" lon="32.4566014"><ele>11.2</ele><time>2015-04-26T15:17:14.0000000+00:00</time></trkpt><trkpt lat="35.0581508" lon="32.4565378"><ele>11.1</ele><time>2015-04-26T15:17:15.0000000+00:00</time></trkpt><trkpt lat="35.0581209" lon="32.456484"><ele>11.0</ele><time>2015-04-26T15:17:16.0000000+00:00</time></trkpt><trkpt lat="35.0580862" lon="32.4564242"><ele>11.0</ele><time>2015-04-26T15:17:17.0000000+00:00</time></trkpt><trkpt lat="35.0580505" lon="32.4563601"><ele>10.9</ele><time>2015-04-26T15:17:18.0000000+00:00</time></trkpt><trkpt lat="35.0580204" lon="32.4562984"><ele>10.9</ele><time>2015-04-26T15:17:19.0000000+00:00</time></trkpt><trkpt lat="35.0579961" lon="32.4562386"><ele>10.9</ele><time>2015-04-26T15:17:20.0000000+00:00</time></trkpt><trkpt lat="35.0579605" lon="32.4561826"><ele>10.9</ele><time>2015-04-26T15:17:21.0000000+00:00</time></trkpt><trkpt lat="35.0579289" lon="32.4561253"><ele>11.4</ele><time>2015-04-26T15:17:22.0000000+00:00</time></trkpt><trkpt lat="35.0578901" lon="32.4560629"><ele>11.2</ele><time>2015-04-26T15:17:23.0000000+00:00</time></trkpt><trkpt lat="35.0578568" lon="32.4560008"><ele>11.1</ele><time>2015-04-26T15:17:24.0000000+00:00</time></trkpt><trkpt lat="35.057822" lon="32.4559403"><ele>11.0</ele><time>2015-04-26T15:17:25.0000000+00:00</time></trkpt><trkpt lat="35.0577908" lon="32.455883"><ele>10.5</ele><time>2015-04-26T15:17:26.0000000+00:00</time></trkpt><trkpt lat="35.0577556" lon="32.4558266"><ele>10.2</ele><time>2015-04-26T15:17:27.0000000+00:00</time></trkpt><trkpt lat="35.057723" lon="32.4557712"><ele>10.6</ele><time>2015-04-26T15:17:28.0000000+00:00</time></trkpt><trkpt lat="35.0576867" lon="32.4557142"><ele>10.2</ele><time>2015-04-26T15:17:29.0000000+00:00</time></trkpt><trkpt lat="35.0576537" lon="32.4556543"><ele>10.6</ele><time>2015-04-26T15:17:30.0000000+00:00</time></trkpt><trkpt lat="35.0576214" lon="32.455597"><ele>10.3</ele><time>2015-04-26T15:17:31.0000000+00:00</time></trkpt><trkpt lat="35.0575864" lon="32.4555349"><ele>10.1</ele><time>2015-04-26T15:17:32.0000000+00:00</time></trkpt><trkpt lat="35.0575552" lon="32.4554818"><ele>10.0</ele><time>2015-04-26T15:17:33.0000000+00:00</time></trkpt><trkpt lat="35.0575217" lon="32.4554218"><ele>10.5</ele><time>2015-04-26T15:17:34.0000000+00:00</time></trkpt><trkpt lat="35.0574859" lon="32.4553699"><ele>10.7</ele><time>2015-04-26T15:17:35.0000000+00:00</time></trkpt><trkpt lat="35.0574476" lon="32.4553205"><ele>10.8</ele><time>2015-04-26T15:17:36.0000000+00:00</time></trkpt><trkpt lat="35.0574083" lon="32.4552766"><ele>10.9</ele><time>2015-04-26T15:17:37.0000000+00:00</time></trkpt><trkpt lat="35.0573749" lon="32.4552338"><ele>10.4</ele><time>2015-04-26T15:17:38.0000000+00:00</time></trkpt><trkpt lat="35.0573348" lon="32.4551864"><ele>10.2</ele><time>2015-04-26T15:17:39.0000000+00:00</time></trkpt><trkpt lat="35.0572945" lon="32.4551387"><ele>10.0</ele><time>2015-04-26T15:17:40.0000000+00:00</time></trkpt><trkpt lat="35.0572434" lon="32.4551058"><ele>10.0</ele><time>2015-04-26T15:17:41.0000000+00:00</time></trkpt><trkpt lat="35.0571945" lon="32.455071"><ele>10.0</ele><time>2015-04-26T15:17:42.0000000+00:00</time></trkpt><trkpt lat="35.0571401" lon="32.455043"><ele>9.9</ele><time>2015-04-26T15:17:43.0000000+00:00</time></trkpt><trkpt lat="35.0570838" lon="32.4550162"><ele>9.9</ele><time>2015-04-26T15:17:44.0000000+00:00</time></trkpt><trkpt lat="35.057023" lon="32.4549936"><ele>9.9</ele><time>2015-04-26T15:17:45.0000000+00:00</time></trkpt><trkpt lat="35.0569638" lon="32.454974"><ele>9.9</ele><time>2015-04-26T15:17:46.0000000+00:00</time></trkpt><trkpt lat="35.0569036" lon="32.4549591"><ele>9.9</ele><time>2015-04-26T15:17:47.0000000+00:00</time></trkpt><trkpt lat="35.0568419" lon="32.4549503"><ele>9.9</ele><time>2015-04-26T15:17:48.0000000+00:00</time></trkpt><trkpt lat="35.0567829" lon="32.4549422"><ele>9.9</ele><time>2015-04-26T15:17:49.0000000+00:00</time></trkpt><trkpt lat="35.0567249" lon="32.454938"><ele>9.4</ele><time>2015-04-26T15:17:50.0000000+00:00</time></trkpt><trkpt lat="35.0566687" lon="32.4549291"><ele>9.2</ele><time>2015-04-26T15:17:51.0000000+00:00</time></trkpt><trkpt lat="35.0566137" lon="32.4549222"><ele>9.6</ele><time>2015-04-26T15:17:52.0000000+00:00</time></trkpt><trkpt lat="35.0565595" lon="32.4549149"><ele>9.7</ele><time>2015-04-26T15:17:53.0000000+00:00</time></trkpt><trkpt lat="35.0565034" lon="32.4549085"><ele>9.8</ele><time>2015-04-26T15:17:54.0000000+00:00</time></trkpt><trkpt lat="35.056447" lon="32.4549018"><ele>10.4</ele><time>2015-04-26T15:17:55.0000000+00:00</time></trkpt><trkpt lat="35.0563907" lon="32.4548916"><ele>10.7</ele><time>2015-04-26T15:17:56.0000000+00:00</time></trkpt><trkpt lat="35.0563322" lon="32.4548881"><ele>11.3</ele><time>2015-04-26T15:17:57.0000000+00:00</time></trkpt><trkpt lat="35.0562755" lon="32.4548776"><ele>11.6</ele><time>2015-04-26T15:17:58.0000000+00:00</time></trkpt><trkpt lat="35.0562167" lon="32.4548695"><ele>11.8</ele><time>2015-04-26T15:17:59.0000000+00:00</time></trkpt><trkpt lat="35.0561574" lon="32.4548662"><ele>11.9</ele><time>2015-04-26T15:18:00.0000000+00:00</time></trkpt><trkpt lat="35.0560992" lon="32.4548608"><ele>11.9</ele><time>2015-04-26T15:18:01.0000000+00:00</time></trkpt><trkpt lat="35.0560478" lon="32.4548604"><ele>11.9</ele><time>2015-04-26T15:18:02.0000000+00:00</time></trkpt><trkpt lat="35.0559962" lon="32.4548561"><ele>11.9</ele><time>2015-04-26T15:18:03.0000000+00:00</time></trkpt><trkpt lat="35.0559469" lon="32.454851"><ele>11.9</ele><time>2015-04-26T15:18:04.0000000+00:00</time></trkpt><trkpt lat="35.0558575" lon="32.4548414"><ele>11.9</ele><time>2015-04-26T15:18:06.0000000+00:00</time></trkpt><trkpt lat="35.0558127" lon="32.4548324"><ele>11.9</ele><time>2015-04-26T15:18:07.0000000+00:00</time></trkpt><trkpt lat="35.0557676" lon="32.4548272"><ele>11.9</ele><time>2015-04-26T15:18:08.0000000+00:00</time></trkpt><trkpt lat="35.0557214" lon="32.4548287"><ele>11.9</ele><time>2015-04-26T15:18:09.0000000+00:00</time></trkpt><trkpt lat="35.05564" lon="32.4548074"><ele>12.7</ele><time>2015-04-26T15:18:11.0000000+00:00</time></trkpt><trkpt lat="35.0555934" lon="32.4547987"><ele>13.3</ele><time>2015-04-26T15:18:12.0000000+00:00</time></trkpt><trkpt lat="35.0555422" lon="32.4547875"><ele>13.6</ele><time>2015-04-26T15:18:13.0000000+00:00</time></trkpt><trkpt lat="35.0554884" lon="32.4547774"><ele>14.3</ele><time>2015-04-26T15:18:14.0000000+00:00</time></trkpt><trkpt lat="35.055434" lon="32.4547766"><ele>15.1</ele><time>2015-04-26T15:18:15.0000000+00:00</time></trkpt><trkpt lat="35.0553846" lon="32.4547713"><ele>15.5</ele><time>2015-04-26T15:18:16.0000000+00:00</time></trkpt><trkpt lat="35.0553289" lon="32.4547624"><ele>16.2</ele><time>2015-04-26T15:18:17.0000000+00:00</time></trkpt><trkpt lat="35.0552765" lon="32.4547541"><ele>17.1</ele><time>2015-04-26T15:18:18.0000000+00:00</time></trkpt><trkpt lat="35.0552262" lon="32.4547587"><ele>17.0</ele><time>2015-04-26T15:18:19.0000000+00:00</time></trkpt><trkpt lat="35.0551728" lon="32.4547433"><ele>17.5</ele><time>2015-04-26T15:18:20.0000000+00:00</time></trkpt><trkpt lat="35.0551108" lon="32.4547308"><ele>17.7</ele><time>2015-04-26T15:18:21.0000000+00:00</time></trkpt><trkpt lat="35.0550586" lon="32.4547246"><ele>17.8</ele><time>2015-04-26T15:18:22.0000000+00:00</time></trkpt><trkpt lat="35.0550109" lon="32.4547202"><ele>17.9</ele><time>2015-04-26T15:18:23.0000000+00:00</time></trkpt><trkpt lat="35.0549363" lon="32.4547061"><ele>17.4</ele><time>2015-04-26T15:18:25.0000000+00:00</time></trkpt><trkpt lat="35.0548713" lon="32.4546817"><ele>17.1</ele><time>2015-04-26T15:18:27.0000000+00:00</time></trkpt><trkpt lat="35.0548019" lon="32.4546579"><ele>17.0</ele><time>2015-04-26T15:18:29.0000000+00:00</time></trkpt><trkpt lat="35.0547274" lon="32.4546221"><ele>17.4</ele><time>2015-04-26T15:18:31.0000000+00:00</time></trkpt><trkpt lat="35.0546549" lon="32.454582"><ele>17.6</ele><time>2015-04-26T15:18:33.0000000+00:00</time></trkpt><trkpt lat="35.054588" lon="32.454523"><ele>18.3</ele><time>2015-04-26T15:18:35.0000000+00:00</time></trkpt><trkpt lat="35.0545214" lon="32.4544709"><ele>18.0</ele><time>2015-04-26T15:18:37.0000000+00:00</time></trkpt><trkpt lat="35.0544505" lon="32.4544147"><ele>18.0</ele><time>2015-04-26T15:18:39.0000000+00:00</time></trkpt><trkpt lat="35.0543823" lon="32.4543535"><ele>17.4</ele><time>2015-04-26T15:18:41.0000000+00:00</time></trkpt><trkpt lat="35.0543193" lon="32.4542856"><ele>16.6</ele><time>2015-04-26T15:18:43.0000000+00:00</time></trkpt><trkpt lat="35.0542588" lon="32.4542133"><ele>16.6</ele><time>2015-04-26T15:18:45.0000000+00:00</time></trkpt><trkpt lat="35.054205" lon="32.4541329"><ele>16.1</ele><time>2015-04-26T15:18:47.0000000+00:00</time></trkpt><trkpt lat="35.0541447" lon="32.4540315"><ele>15.5</ele><time>2015-04-26T15:18:49.0000000+00:00</time></trkpt><trkpt lat="35.0541169" lon="32.4539883"><ele>15.2</ele><time>2015-04-26T15:18:50.0000000+00:00</time></trkpt><trkpt lat="35.0540917" lon="32.4539343"><ele>15.6</ele><time>2015-04-26T15:18:51.0000000+00:00</time></trkpt><trkpt lat="35.0540654" lon="32.453883"><ele>15.7</ele><time>2015-04-26T15:18:52.0000000+00:00</time></trkpt><trkpt lat="35.0540378" lon="32.453833"><ele>15.3</ele><time>2015-04-26T15:18:53.0000000+00:00</time></trkpt><trkpt lat="35.0540055" lon="32.4537812"><ele>15.6</ele><time>2015-04-26T15:18:54.0000000+00:00</time></trkpt><trkpt lat="35.0539774" lon="32.4537222"><ele>15.8</ele><time>2015-04-26T15:18:55.0000000+00:00</time></trkpt><trkpt lat="35.0539429" lon="32.4536674"><ele>16.4</ele><time>2015-04-26T15:18:56.0000000+00:00</time></trkpt><trkpt lat="35.0539116" lon="32.4536086"><ele>16.6</ele><time>2015-04-26T15:18:57.0000000+00:00</time></trkpt><trkpt lat="35.053877" lon="32.4535524"><ele>16.8</ele><time>2015-04-26T15:18:58.0000000+00:00</time></trkpt><trkpt lat="35.0538458" lon="32.4535004"><ele>17.4</ele><time>2015-04-26T15:18:59.0000000+00:00</time></trkpt><trkpt lat="35.053814" lon="32.4534395"><ele>17.6</ele><time>2015-04-26T15:19:00.0000000+00:00</time></trkpt><trkpt lat="35.0537812" lon="32.4533823"><ele>17.3</ele><time>2015-04-26T15:19:01.0000000+00:00</time></trkpt><trkpt lat="35.053756" lon="32.453323"><ele>16.6</ele><time>2015-04-26T15:19:02.0000000+00:00</time></trkpt><trkpt lat="35.0537262" lon="32.453271"><ele>16.3</ele><time>2015-04-26T15:19:03.0000000+00:00</time></trkpt><trkpt lat="35.0536985" lon="32.4532155"><ele>15.6</ele><time>2015-04-26T15:19:04.0000000+00:00</time></trkpt><trkpt lat="35.0536755" lon="32.4531612"><ele>15.3</ele><time>2015-04-26T15:19:05.0000000+00:00</time></trkpt><trkpt lat="35.0536472" lon="32.4531063"><ele>15.1</ele><time>2015-04-26T15:19:06.0000000+00:00</time></trkpt><trkpt lat="35.0536149" lon="32.4530548"><ele>15.0</ele><time>2015-04-26T15:19:07.0000000+00:00</time></trkpt><trkpt lat="35.0535824" lon="32.4529899"><ele>15.0</ele><time>2015-04-26T15:19:08.0000000+00:00</time></trkpt><trkpt lat="35.0535534" lon="32.4529375"><ele>14.0</ele><time>2015-04-26T15:19:09.0000000+00:00</time></trkpt><trkpt lat="35.0535171" lon="32.4528778"><ele>13.4</ele><time>2015-04-26T15:19:10.0000000+00:00</time></trkpt><trkpt lat="35.053487" lon="32.4528206"><ele>13.2</ele><time>2015-04-26T15:19:11.0000000+00:00</time></trkpt><trkpt lat="35.0534592" lon="32.4527535"><ele>12.6</ele><time>2015-04-26T15:19:12.0000000+00:00</time></trkpt><trkpt lat="35.0534236" lon="32.4526913"><ele>12.2</ele><time>2015-04-26T15:19:13.0000000+00:00</time></trkpt><trkpt lat="35.0533947" lon="32.4526337"><ele>11.6</ele><time>2015-04-26T15:19:14.0000000+00:00</time></trkpt><trkpt lat="35.0533647" lon="32.4525719"><ele>11.8</ele><time>2015-04-26T15:19:15.0000000+00:00</time></trkpt><trkpt lat="35.0533307" lon="32.4525114"><ele>11.3</ele><time>2015-04-26T15:19:16.0000000+00:00</time></trkpt><trkpt lat="35.0532804" lon="32.452412"><ele>10.3</ele><time>2015-04-26T15:19:18.0000000+00:00</time></trkpt><trkpt lat="35.0532512" lon="32.4523513"><ele>11.1</ele><time>2015-04-26T15:19:19.0000000+00:00</time></trkpt><trkpt lat="35.0532268" lon="32.4522988"><ele>11.0</ele><time>2015-04-26T15:19:20.0000000+00:00</time></trkpt><trkpt lat="35.0531998" lon="32.4522449"><ele>10.5</ele><time>2015-04-26T15:19:21.0000000+00:00</time></trkpt><trkpt lat="35.0531815" lon="32.4521919"><ele>10.2</ele><time>2015-04-26T15:19:22.0000000+00:00</time></trkpt><trkpt lat="35.0531464" lon="32.452156"><ele>10.1</ele><time>2015-04-26T15:19:23.0000000+00:00</time></trkpt><trkpt lat="35.0530974" lon="32.4520648"><ele>10.7</ele><time>2015-04-26T15:19:25.0000000+00:00</time></trkpt><trkpt lat="35.0530527" lon="32.4519756"><ele>11.4</ele><time>2015-04-26T15:19:27.0000000+00:00</time></trkpt><trkpt lat="35.0530138" lon="32.4519093"><ele>11.8</ele><time>2015-04-26T15:19:29.0000000+00:00</time></trkpt><trkpt lat="35.0529754" lon="32.4518242"><ele>12.6</ele><time>2015-04-26T15:19:31.0000000+00:00</time></trkpt><trkpt lat="35.0529426" lon="32.4517806"><ele>12.8</ele><time>2015-04-26T15:19:32.0000000+00:00</time></trkpt><trkpt lat="35.0529018" lon="32.4516898"><ele>12.1</ele><time>2015-04-26T15:19:34.0000000+00:00</time></trkpt><trkpt lat="35.0528407" lon="32.4516131"><ele>12.5</ele><time>2015-04-26T15:19:36.0000000+00:00</time></trkpt><trkpt lat="35.0528026" lon="32.4515318"><ele>13.3</ele><time>2015-04-26T15:19:38.0000000+00:00</time></trkpt><trkpt lat="35.0527696" lon="32.4514469"><ele>13.0</ele><time>2015-04-26T15:19:40.0000000+00:00</time></trkpt><trkpt lat="35.0527309" lon="32.4513573"><ele>13.0</ele><time>2015-04-26T15:19:42.0000000+00:00</time></trkpt><trkpt lat="35.0526894" lon="32.4512609"><ele>12.9</ele><time>2015-04-26T15:19:44.0000000+00:00</time></trkpt><trkpt lat="35.0526436" lon="32.4511679"><ele>12.2</ele><time>2015-04-26T15:19:46.0000000+00:00</time></trkpt><trkpt lat="35.0526179" lon="32.4511149"><ele>12.6</ele><time>2015-04-26T15:19:47.0000000+00:00</time></trkpt><trkpt lat="35.0525944" lon="32.4510618"><ele>13.2</ele><time>2015-04-26T15:19:48.0000000+00:00</time></trkpt><trkpt lat="35.0525736" lon="32.4510012"><ele>13.6</ele><time>2015-04-26T15:19:49.0000000+00:00</time></trkpt><trkpt lat="35.0525576" lon="32.4509402"><ele>13.8</ele><time>2015-04-26T15:19:50.0000000+00:00</time></trkpt><trkpt lat="35.0525337" lon="32.4508923"><ele>13.8</ele><time>2015-04-26T15:19:51.0000000+00:00</time></trkpt><trkpt lat="35.0525056" lon="32.4508411"><ele>14.4</ele><time>2015-04-26T15:19:52.0000000+00:00</time></trkpt><trkpt lat="35.0524823" lon="32.4507821"><ele>14.7</ele><time>2015-04-26T15:19:53.0000000+00:00</time></trkpt><trkpt lat="35.0524595" lon="32.4507327"><ele>14.3</ele><time>2015-04-26T15:19:54.0000000+00:00</time></trkpt><trkpt lat="35.0524392" lon="32.4506758"><ele>14.1</ele><time>2015-04-26T15:19:55.0000000+00:00</time></trkpt><trkpt lat="35.0523872" lon="32.4505808"><ele>13.5</ele><time>2015-04-26T15:19:57.0000000+00:00</time></trkpt><trkpt lat="35.0523585" lon="32.4505271"><ele>13.7</ele><time>2015-04-26T15:19:58.0000000+00:00</time></trkpt><trkpt lat="35.0523302" lon="32.450476"><ele>13.3</ele><time>2015-04-26T15:19:59.0000000+00:00</time></trkpt><trkpt lat="35.0522804" lon="32.4503948"><ele>11.8</ele><time>2015-04-26T15:20:01.0000000+00:00</time></trkpt><trkpt lat="35.0522595" lon="32.4503336"><ele>11.9</ele><time>2015-04-26T15:20:02.0000000+00:00</time></trkpt><trkpt lat="35.0522326" lon="32.4502873"><ele>11.9</ele><time>2015-04-26T15:20:03.0000000+00:00</time></trkpt><trkpt lat="35.0522024" lon="32.4502354"><ele>11.9</ele><time>2015-04-26T15:20:04.0000000+00:00</time></trkpt><trkpt lat="35.0521829" lon="32.4501818"><ele>12.4</ele><time>2015-04-26T15:20:05.0000000+00:00</time></trkpt><trkpt lat="35.0521562" lon="32.4501349"><ele>13.2</ele><time>2015-04-26T15:20:06.0000000+00:00</time></trkpt><trkpt lat="35.0521268" lon="32.4500836"><ele>13.6</ele><time>2015-04-26T15:20:07.0000000+00:00</time></trkpt><trkpt lat="35.052097" lon="32.4500345"><ele>13.7</ele><time>2015-04-26T15:20:08.0000000+00:00</time></trkpt><trkpt lat="35.0520716" lon="32.4499847"><ele>13.3</ele><time>2015-04-26T15:20:09.0000000+00:00</time></trkpt><trkpt lat="35.0520277" lon="32.4498891"><ele>13.8</ele><time>2015-04-26T15:20:11.0000000+00:00</time></trkpt><trkpt lat="35.0519919" lon="32.4498297"><ele>13.9</ele><time>2015-04-26T15:20:12.0000000+00:00</time></trkpt><trkpt lat="35.0519673" lon="32.4497792"><ele>14.4</ele><time>2015-04-26T15:20:13.0000000+00:00</time></trkpt><trkpt lat="35.0519418" lon="32.449723"><ele>15.2</ele><time>2015-04-26T15:20:14.0000000+00:00</time></trkpt><trkpt lat="35.0519108" lon="32.4496575"><ele>16.0</ele><time>2015-04-26T15:20:15.0000000+00:00</time></trkpt><trkpt lat="35.0518814" lon="32.4496016"><ele>17.0</ele><time>2015-04-26T15:20:16.0000000+00:00</time></trkpt><trkpt lat="35.0518415" lon="32.4495049"><ele>16.9</ele><time>2015-04-26T15:20:18.0000000+00:00</time></trkpt><trkpt lat="35.0518079" lon="32.4494259"><ele>16.4</ele><time>2015-04-26T15:20:20.0000000+00:00</time></trkpt><trkpt lat="35.0517813" lon="32.4493801"><ele>16.2</ele><time>2015-04-26T15:20:21.0000000+00:00</time></trkpt><trkpt lat="35.051758" lon="32.4493231"><ele>16.1</ele><time>2015-04-26T15:20:22.0000000+00:00</time></trkpt><trkpt lat="35.0517353" lon="32.449268"><ele>15.5</ele><time>2015-04-26T15:20:23.0000000+00:00</time></trkpt><trkpt lat="35.0516949" lon="32.4491949"><ele>16.2</ele><time>2015-04-26T15:20:24.0000000+00:00</time></trkpt><trkpt lat="35.0516701" lon="32.4491346"><ele>16.6</ele><time>2015-04-26T15:20:25.0000000+00:00</time></trkpt><trkpt lat="35.0516378" lon="32.4490587"><ele>16.8</ele><time>2015-04-26T15:20:26.0000000+00:00</time></trkpt><trkpt lat="35.0516035" lon="32.4489885"><ele>17.8</ele><time>2015-04-26T15:20:27.0000000+00:00</time></trkpt><trkpt lat="35.0515771" lon="32.4489356"><ele>17.9</ele><time>2015-04-26T15:20:28.0000000+00:00</time></trkpt><trkpt lat="35.0515468" lon="32.4488735"><ele>17.9</ele><time>2015-04-26T15:20:29.0000000+00:00</time></trkpt><trkpt lat="35.0515193" lon="32.4488265"><ele>17.9</ele><time>2015-04-26T15:20:30.0000000+00:00</time></trkpt><trkpt lat="35.0514892" lon="32.4487642"><ele>17.9</ele><time>2015-04-26T15:20:31.0000000+00:00</time></trkpt><trkpt lat="35.05146" lon="32.4487076"><ele>18.4</ele><time>2015-04-26T15:20:32.0000000+00:00</time></trkpt><trkpt lat="35.0514266" lon="32.4486527"><ele>19.2</ele><time>2015-04-26T15:20:33.0000000+00:00</time></trkpt><trkpt lat="35.0513922" lon="32.4485992"><ele>20.1</ele><time>2015-04-26T15:20:34.0000000+00:00</time></trkpt><trkpt lat="35.0513645" lon="32.448534"><ele>20.0</ele><time>2015-04-26T15:20:35.0000000+00:00</time></trkpt><trkpt lat="35.0513423" lon="32.4484669"><ele>19.5</ele><time>2015-04-26T15:20:36.0000000+00:00</time></trkpt><trkpt lat="35.0513094" lon="32.4484051"><ele>19.7</ele><time>2015-04-26T15:20:37.0000000+00:00</time></trkpt><trkpt lat="35.0512753" lon="32.4483298"><ele>20.3</ele><time>2015-04-26T15:20:38.0000000+00:00</time></trkpt><trkpt lat="35.0512481" lon="32.4482685"><ele>20.1</ele><time>2015-04-26T15:20:39.0000000+00:00</time></trkpt><trkpt lat="35.051217" lon="32.4482081"><ele>20.0</ele><time>2015-04-26T15:20:40.0000000+00:00</time></trkpt><trkpt lat="35.0511876" lon="32.4481493"><ele>20.0</ele><time>2015-04-26T15:20:41.0000000+00:00</time></trkpt><trkpt lat="35.0511554" lon="32.4480914"><ele>20.0</ele><time>2015-04-26T15:20:42.0000000+00:00</time></trkpt><trkpt lat="35.0511233" lon="32.4480261"><ele>20.9</ele><time>2015-04-26T15:20:43.0000000+00:00</time></trkpt><trkpt lat="35.051096" lon="32.4479637"><ele>21.4</ele><time>2015-04-26T15:20:44.0000000+00:00</time></trkpt><trkpt lat="35.051069" lon="32.4479048"><ele>21.7</ele><time>2015-04-26T15:20:45.0000000+00:00</time></trkpt><trkpt lat="35.0510328" lon="32.4478503"><ele>22.3</ele><time>2015-04-26T15:20:46.0000000+00:00</time></trkpt><trkpt lat="35.051007" lon="32.4477889"><ele>22.6</ele><time>2015-04-26T15:20:47.0000000+00:00</time></trkpt><trkpt lat="35.0509875" lon="32.4477214"><ele>23.8</ele><time>2015-04-26T15:20:48.0000000+00:00</time></trkpt><trkpt lat="35.0509567" lon="32.4476706"><ele>24.4</ele><time>2015-04-26T15:20:49.0000000+00:00</time></trkpt><trkpt lat="35.0509432" lon="32.4476058"><ele>24.6</ele><time>2015-04-26T15:20:50.0000000+00:00</time></trkpt><trkpt lat="35.0509207" lon="32.447536"><ele>25.3</ele><time>2015-04-26T15:20:51.0000000+00:00</time></trkpt><trkpt lat="35.0508914" lon="32.4474762"><ele>25.6</ele><time>2015-04-26T15:20:52.0000000+00:00</time></trkpt><trkpt lat="35.0508391" lon="32.4473908"><ele>23.3</ele><time>2015-04-26T15:20:54.0000000+00:00</time></trkpt><trkpt lat="35.0508034" lon="32.4473318"><ele>22.6</ele><time>2015-04-26T15:20:55.0000000+00:00</time></trkpt><trkpt lat="35.0507722" lon="32.4472658"><ele>22.3</ele><time>2015-04-26T15:20:56.0000000+00:00</time></trkpt><trkpt lat="35.0507312" lon="32.4472071"><ele>22.1</ele><time>2015-04-26T15:20:57.0000000+00:00</time></trkpt><trkpt lat="35.0507047" lon="32.4471331"><ele>21.5</ele><time>2015-04-26T15:20:58.0000000+00:00</time></trkpt><trkpt lat="35.0506686" lon="32.4470706"><ele>21.2</ele><time>2015-04-26T15:20:59.0000000+00:00</time></trkpt><trkpt lat="35.0506349" lon="32.447012"><ele>21.1</ele><time>2015-04-26T15:21:00.0000000+00:00</time></trkpt><trkpt lat="35.0506026" lon="32.4469468"><ele>21.0</ele><time>2015-04-26T15:21:01.0000000+00:00</time></trkpt><trkpt lat="35.0505654" lon="32.4468874"><ele>21.0</ele><time>2015-04-26T15:21:02.0000000+00:00</time></trkpt><trkpt lat="35.0505317" lon="32.4468105"><ele>21.4</ele><time>2015-04-26T15:21:03.0000000+00:00</time></trkpt><trkpt lat="35.050494" lon="32.4467449"><ele>21.2</ele><time>2015-04-26T15:21:04.0000000+00:00</time></trkpt><trkpt lat="35.0504526" lon="32.4466914"><ele>20.6</ele><time>2015-04-26T15:21:05.0000000+00:00</time></trkpt><trkpt lat="35.0504124" lon="32.4466318"><ele>20.2</ele><time>2015-04-26T15:21:06.0000000+00:00</time></trkpt><trkpt lat="35.0503713" lon="32.4465712"><ele>20.6</ele><time>2015-04-26T15:21:07.0000000+00:00</time></trkpt><trkpt lat="35.0503294" lon="32.4465081"><ele>20.8</ele><time>2015-04-26T15:21:08.0000000+00:00</time></trkpt><trkpt lat="35.0502895" lon="32.4464362"><ele>20.8</ele><time>2015-04-26T15:21:09.0000000+00:00</time></trkpt><trkpt lat="35.0502514" lon="32.4463817"><ele>20.4</ele><time>2015-04-26T15:21:10.0000000+00:00</time></trkpt><trkpt lat="35.0502099" lon="32.4463242"><ele>19.2</ele><time>2015-04-26T15:21:11.0000000+00:00</time></trkpt><trkpt lat="35.0501726" lon="32.4462535"><ele>18.5</ele><time>2015-04-26T15:21:12.0000000+00:00</time></trkpt><trkpt lat="35.0501269" lon="32.4461872"><ele>18.2</ele><time>2015-04-26T15:21:13.0000000+00:00</time></trkpt><trkpt lat="35.0500853" lon="32.4461246"><ele>18.1</ele><time>2015-04-26T15:21:14.0000000+00:00</time></trkpt><trkpt lat="35.0500443" lon="32.4460596"><ele>18.0</ele><time>2015-04-26T15:21:15.0000000+00:00</time></trkpt><trkpt lat="35.0500087" lon="32.4459997"><ele>18.0</ele><time>2015-04-26T15:21:16.0000000+00:00</time></trkpt><trkpt lat="35.0499716" lon="32.4459343"><ele>17.9</ele><time>2015-04-26T15:21:17.0000000+00:00</time></trkpt><trkpt lat="35.0499311" lon="32.4458638"><ele>18.4</ele><time>2015-04-26T15:21:18.0000000+00:00</time></trkpt><trkpt lat="35.0498953" lon="32.4457933"><ele>18.7</ele><time>2015-04-26T15:21:19.0000000+00:00</time></trkpt><trkpt lat="35.0498514" lon="32.4457259"><ele>18.8</ele><time>2015-04-26T15:21:20.0000000+00:00</time></trkpt><trkpt lat="35.0498192" lon="32.4456701"><ele>18.4</ele><time>2015-04-26T15:21:21.0000000+00:00</time></trkpt><trkpt lat="35.0497842" lon="32.4456191"><ele>17.6</ele><time>2015-04-26T15:21:22.0000000+00:00</time></trkpt><trkpt lat="35.0497445" lon="32.4455572"><ele>16.8</ele><time>2015-04-26T15:21:23.0000000+00:00</time></trkpt><trkpt lat="35.0497115" lon="32.4454941"><ele>16.9</ele><time>2015-04-26T15:21:24.0000000+00:00</time></trkpt><trkpt lat="35.0496753" lon="32.4454357"><ele>17.4</ele><time>2015-04-26T15:21:25.0000000+00:00</time></trkpt><trkpt lat="35.0496414" lon="32.4453742"><ele>17.2</ele><time>2015-04-26T15:21:26.0000000+00:00</time></trkpt><trkpt lat="35.0496011" lon="32.4453088"><ele>17.5</ele><time>2015-04-26T15:21:27.0000000+00:00</time></trkpt><trkpt lat="35.0495675" lon="32.4452442"><ele>17.2</ele><time>2015-04-26T15:21:28.0000000+00:00</time></trkpt><trkpt lat="35.0495252" lon="32.4451874"><ele>17.1</ele><time>2015-04-26T15:21:29.0000000+00:00</time></trkpt><trkpt lat="35.0494962" lon="32.4451427"><ele>16.0</ele><time>2015-04-26T15:21:30.0000000+00:00</time></trkpt><trkpt lat="35.0494617" lon="32.4450845"><ele>15.5</ele><time>2015-04-26T15:21:31.0000000+00:00</time></trkpt><trkpt lat="35.0494162" lon="32.4450256"><ele>16.2</ele><time>2015-04-26T15:21:32.0000000+00:00</time></trkpt><trkpt lat="35.0493755" lon="32.4449654"><ele>16.6</ele><time>2015-04-26T15:21:33.0000000+00:00</time></trkpt><trkpt lat="35.0493394" lon="32.4449067"><ele>16.7</ele><time>2015-04-26T15:21:34.0000000+00:00</time></trkpt><trkpt lat="35.0493078" lon="32.4448415"><ele>16.3</ele><time>2015-04-26T15:21:35.0000000+00:00</time></trkpt><trkpt lat="35.0492735" lon="32.4447752"><ele>16.1</ele><time>2015-04-26T15:21:36.0000000+00:00</time></trkpt><trkpt lat="35.0492388" lon="32.4447058"><ele>16.0</ele><time>2015-04-26T15:21:37.0000000+00:00</time></trkpt><trkpt lat="35.0492015" lon="32.444644"><ele>15.5</ele><time>2015-04-26T15:21:38.0000000+00:00</time></trkpt><trkpt lat="35.0491618" lon="32.4445882"><ele>15.2</ele><time>2015-04-26T15:21:39.0000000+00:00</time></trkpt><trkpt lat="35.0491268" lon="32.4445365"><ele>14.6</ele><time>2015-04-26T15:21:40.0000000+00:00</time></trkpt><trkpt lat="35.0490867" lon="32.4444745"><ele>15.2</ele><time>2015-04-26T15:21:41.0000000+00:00</time></trkpt><trkpt lat="35.0490546" lon="32.4444198"><ele>15.6</ele><time>2015-04-26T15:21:42.0000000+00:00</time></trkpt><trkpt lat="35.0490192" lon="32.4443647"><ele>15.8</ele><time>2015-04-26T15:21:43.0000000+00:00</time></trkpt><trkpt lat="35.0489874" lon="32.4443128"><ele>15.3</ele><time>2015-04-26T15:21:44.0000000+00:00</time></trkpt><trkpt lat="35.0489526" lon="32.4442634"><ele>14.6</ele><time>2015-04-26T15:21:45.0000000+00:00</time></trkpt><trkpt lat="35.0488967" lon="32.4441673"><ele>13.6</ele><time>2015-04-26T15:21:47.0000000+00:00</time></trkpt><trkpt lat="35.0488598" lon="32.4441085"><ele>14.3</ele><time>2015-04-26T15:21:48.0000000+00:00</time></trkpt><trkpt lat="35.0488237" lon="32.4440503"><ele>15.1</ele><time>2015-04-26T15:21:49.0000000+00:00</time></trkpt><trkpt lat="35.0487835" lon="32.443999"><ele>15.5</ele><time>2015-04-26T15:21:50.0000000+00:00</time></trkpt><trkpt lat="35.0487399" lon="32.4439403"><ele>15.2</ele><time>2015-04-26T15:21:51.0000000+00:00</time></trkpt><trkpt lat="35.0486981" lon="32.4438963"><ele>15.1</ele><time>2015-04-26T15:21:52.0000000+00:00</time></trkpt><trkpt lat="35.0486609" lon="32.4438445"><ele>14.5</ele><time>2015-04-26T15:21:53.0000000+00:00</time></trkpt><trkpt lat="35.0486298" lon="32.4437908"><ele>13.7</ele><time>2015-04-26T15:21:54.0000000+00:00</time></trkpt><trkpt lat="35.0485948" lon="32.4437328"><ele>13.3</ele><time>2015-04-26T15:21:55.0000000+00:00</time></trkpt><trkpt lat="35.0485632" lon="32.4436764"><ele>13.6</ele><time>2015-04-26T15:21:56.0000000+00:00</time></trkpt><trkpt lat="35.0485308" lon="32.4436289"><ele>13.8</ele><time>2015-04-26T15:21:57.0000000+00:00</time></trkpt><trkpt lat="35.0484904" lon="32.4435765"><ele>14.4</ele><time>2015-04-26T15:21:58.0000000+00:00</time></trkpt><trkpt lat="35.0484555" lon="32.4435227"><ele>14.6</ele><time>2015-04-26T15:21:59.0000000+00:00</time></trkpt><trkpt lat="35.0484233" lon="32.443463"><ele>15.3</ele><time>2015-04-26T15:22:00.0000000+00:00</time></trkpt><trkpt lat="35.0483912" lon="32.443407"><ele>15.6</ele><time>2015-04-26T15:22:01.0000000+00:00</time></trkpt><trkpt lat="35.0483543" lon="32.44335"><ele>16.8</ele><time>2015-04-26T15:22:02.0000000+00:00</time></trkpt><trkpt lat="35.0483122" lon="32.4433"><ele>17.3</ele><time>2015-04-26T15:22:03.0000000+00:00</time></trkpt><trkpt lat="35.048281" lon="32.4432409"><ele>17.6</ele><time>2015-04-26T15:22:04.0000000+00:00</time></trkpt><trkpt lat="35.0482512" lon="32.4431966"><ele>17.3</ele><time>2015-04-26T15:22:05.0000000+00:00</time></trkpt><trkpt lat="35.0482151" lon="32.4431448"><ele>17.6</ele><time>2015-04-26T15:22:06.0000000+00:00</time></trkpt><trkpt lat="35.0481823" lon="32.4430935"><ele>17.3</ele><time>2015-04-26T15:22:07.0000000+00:00</time></trkpt><trkpt lat="35.0481515" lon="32.443043"><ele>17.1</ele><time>2015-04-26T15:22:08.0000000+00:00</time></trkpt><trkpt lat="35.0481284" lon="32.4429949"><ele>17.0</ele><time>2015-04-26T15:22:09.0000000+00:00</time></trkpt><trkpt lat="35.0480939" lon="32.4429514"><ele>17.0</ele><time>2015-04-26T15:22:10.0000000+00:00</time></trkpt><trkpt lat="35.0480653" lon="32.4429051"><ele>17.5</ele><time>2015-04-26T15:22:11.0000000+00:00</time></trkpt><trkpt lat="35.0480364" lon="32.4428561"><ele>18.2</ele><time>2015-04-26T15:22:12.0000000+00:00</time></trkpt><trkpt lat="35.048002" lon="32.4428075"><ele>18.6</ele><time>2015-04-26T15:22:13.0000000+00:00</time></trkpt><trkpt lat="35.0479671" lon="32.4427566"><ele>18.7</ele><time>2015-04-26T15:22:14.0000000+00:00</time></trkpt><trkpt lat="35.0479351" lon="32.442702"><ele>18.8</ele><time>2015-04-26T15:22:15.0000000+00:00</time></trkpt><trkpt lat="35.0478983" lon="32.4426493"><ele>19.9</ele><time>2015-04-26T15:22:16.0000000+00:00</time></trkpt><trkpt lat="35.0478639" lon="32.4425907"><ele>20.9</ele><time>2015-04-26T15:22:17.0000000+00:00</time></trkpt><trkpt lat="35.0478218" lon="32.442536"><ele>21.4</ele><time>2015-04-26T15:22:18.0000000+00:00</time></trkpt><trkpt lat="35.0477913" lon="32.4424802"><ele>21.7</ele><time>2015-04-26T15:22:19.0000000+00:00</time></trkpt><trkpt lat="35.0477557" lon="32.442429"><ele>21.8</ele><time>2015-04-26T15:22:20.0000000+00:00</time></trkpt><trkpt lat="35.0476982" lon="32.4423418"><ele>20.6</ele><time>2015-04-26T15:22:22.0000000+00:00</time></trkpt><trkpt lat="35.0476642" lon="32.4422971"><ele>20.8</ele><time>2015-04-26T15:22:23.0000000+00:00</time></trkpt><trkpt lat="35.0476334" lon="32.4422543"><ele>21.4</ele><time>2015-04-26T15:22:24.0000000+00:00</time></trkpt><trkpt lat="35.047594" lon="32.442206"><ele>21.6</ele><time>2015-04-26T15:22:25.0000000+00:00</time></trkpt><trkpt lat="35.0475637" lon="32.4421535"><ele>21.3</ele><time>2015-04-26T15:22:26.0000000+00:00</time></trkpt><trkpt lat="35.0475248" lon="32.4421065"><ele>21.6</ele><time>2015-04-26T15:22:27.0000000+00:00</time></trkpt><trkpt lat="35.0474859" lon="32.4420504"><ele>21.8</ele><time>2015-04-26T15:22:28.0000000+00:00</time></trkpt><trkpt lat="35.047445" lon="32.4419966"><ele>21.8</ele><time>2015-04-26T15:22:29.0000000+00:00</time></trkpt><trkpt lat="35.0474065" lon="32.4419613"><ele>21.4</ele><time>2015-04-26T15:22:30.0000000+00:00</time></trkpt><trkpt lat="35.0473695" lon="32.4419169"><ele>21.2</ele><time>2015-04-26T15:22:31.0000000+00:00</time></trkpt><trkpt lat="35.047336" lon="32.4418726"><ele>21.0</ele><time>2015-04-26T15:22:32.0000000+00:00</time></trkpt><trkpt lat="35.047299" lon="32.4418272"><ele>21.5</ele><time>2015-04-26T15:22:33.0000000+00:00</time></trkpt><trkpt lat="35.0472578" lon="32.4417789"><ele>21.7</ele><time>2015-04-26T15:22:34.0000000+00:00</time></trkpt><trkpt lat="35.0472077" lon="32.4417302"><ele>22.3</ele><time>2015-04-26T15:22:35.0000000+00:00</time></trkpt><trkpt lat="35.0471667" lon="32.4416792"><ele>22.1</ele><time>2015-04-26T15:22:36.0000000+00:00</time></trkpt><trkpt lat="35.047121" lon="32.4416352"><ele>22.5</ele><time>2015-04-26T15:22:37.0000000+00:00</time></trkpt><trkpt lat="35.0470754" lon="32.4416022"><ele>22.7</ele><time>2015-04-26T15:22:38.0000000+00:00</time></trkpt><trkpt lat="35.0470261" lon="32.4415552"><ele>22.8</ele><time>2015-04-26T15:22:39.0000000+00:00</time></trkpt><trkpt lat="35.0469796" lon="32.4415186"><ele>22.9</ele><time>2015-04-26T15:22:40.0000000+00:00</time></trkpt><trkpt lat="35.0469328" lon="32.4414783"><ele>22.9</ele><time>2015-04-26T15:22:41.0000000+00:00</time></trkpt><trkpt lat="35.0468827" lon="32.4414401"><ele>22.9</ele><time>2015-04-26T15:22:42.0000000+00:00</time></trkpt><trkpt lat="35.046837" lon="32.4414033"><ele>22.4</ele><time>2015-04-26T15:22:43.0000000+00:00</time></trkpt><trkpt lat="35.0467909" lon="32.4413725"><ele>22.2</ele><time>2015-04-26T15:22:44.0000000+00:00</time></trkpt><trkpt lat="35.0467437" lon="32.4413416"><ele>22.1</ele><time>2015-04-26T15:22:45.0000000+00:00</time></trkpt><trkpt lat="35.0466686" lon="32.4412919"><ele>22.7</ele><time>2015-04-26T15:22:47.0000000+00:00</time></trkpt><trkpt lat="35.0466196" lon="32.441263"><ele>22.3</ele><time>2015-04-26T15:22:48.0000000+00:00</time></trkpt><trkpt lat="35.0465376" lon="32.4412169"><ele>22.8</ele><time>2015-04-26T15:22:50.0000000+00:00</time></trkpt><trkpt lat="35.0464934" lon="32.441191"><ele>22.9</ele><time>2015-04-26T15:22:51.0000000+00:00</time></trkpt><trkpt lat="35.0464463" lon="32.4411592"><ele>22.4</ele><time>2015-04-26T15:22:52.0000000+00:00</time></trkpt><trkpt lat="35.0463938" lon="32.4411395"><ele>22.2</ele><time>2015-04-26T15:22:53.0000000+00:00</time></trkpt><trkpt lat="35.0463438" lon="32.4411134"><ele>22.5</ele><time>2015-04-26T15:22:54.0000000+00:00</time></trkpt><trkpt lat="35.0462845" lon="32.4410931"><ele>22.7</ele><time>2015-04-26T15:22:55.0000000+00:00</time></trkpt><trkpt lat="35.0462272" lon="32.4410732"><ele>22.8</ele><time>2015-04-26T15:22:56.0000000+00:00</time></trkpt><trkpt lat="35.046174" lon="32.4410639"><ele>22.4</ele><time>2015-04-26T15:22:57.0000000+00:00</time></trkpt><trkpt lat="35.0461258" lon="32.4410468"><ele>22.2</ele><time>2015-04-26T15:22:58.0000000+00:00</time></trkpt><trkpt lat="35.046067" lon="32.441037"><ele>22.0</ele><time>2015-04-26T15:22:59.0000000+00:00</time></trkpt><trkpt lat="35.0460025" lon="32.4410228"><ele>22.0</ele><time>2015-04-26T15:23:00.0000000+00:00</time></trkpt><trkpt lat="35.0459402" lon="32.4410122"><ele>22.5</ele><time>2015-04-26T15:23:01.0000000+00:00</time></trkpt><trkpt lat="35.0458761" lon="32.4410022"><ele>22.7</ele><time>2015-04-26T15:23:02.0000000+00:00</time></trkpt><trkpt lat="35.0458029" lon="32.4409907"><ele>22.8</ele><time>2015-04-26T15:23:03.0000000+00:00</time></trkpt><trkpt lat="35.0457423" lon="32.4409845"><ele>22.9</ele><time>2015-04-26T15:23:04.0000000+00:00</time></trkpt><trkpt lat="35.0456782" lon="32.440979"><ele>22.9</ele><time>2015-04-26T15:23:05.0000000+00:00</time></trkpt><trkpt lat="35.0456227" lon="32.4409704"><ele>23.4</ele><time>2015-04-26T15:23:06.0000000+00:00</time></trkpt><trkpt lat="35.0455624" lon="32.4409611"><ele>24.2</ele><time>2015-04-26T15:23:07.0000000+00:00</time></trkpt><trkpt lat="35.0455082" lon="32.4409503"><ele>24.6</ele><time>2015-04-26T15:23:08.0000000+00:00</time></trkpt><trkpt lat="35.0454522" lon="32.4409452"><ele>24.7</ele><time>2015-04-26T15:23:09.0000000+00:00</time></trkpt><trkpt lat="35.0454043" lon="32.4409441"><ele>25.3</ele><time>2015-04-26T15:23:10.0000000+00:00</time></trkpt><trkpt lat="35.0453593" lon="32.4409386"><ele>25.6</ele><time>2015-04-26T15:23:11.0000000+00:00</time></trkpt><trkpt lat="35.0453072" lon="32.4409426"><ele>25.8</ele><time>2015-04-26T15:23:12.0000000+00:00</time></trkpt><trkpt lat="35.04526" lon="32.4409412"><ele>25.9</ele><time>2015-04-26T15:23:13.0000000+00:00</time></trkpt><trkpt lat="35.045204" lon="32.4409432"><ele>25.9</ele><time>2015-04-26T15:23:14.0000000+00:00</time></trkpt><trkpt lat="35.0451432" lon="32.4409342"><ele>25.9</ele><time>2015-04-26T15:23:15.0000000+00:00</time></trkpt><trkpt lat="35.0450847" lon="32.4409282"><ele>25.4</ele><time>2015-04-26T15:23:16.0000000+00:00</time></trkpt><trkpt lat="35.0450372" lon="32.4408952"><ele>25.7</ele><time>2015-04-26T15:23:17.0000000+00:00</time></trkpt><trkpt lat="35.0449819" lon="32.4408916"><ele>26.3</ele><time>2015-04-26T15:23:18.0000000+00:00</time></trkpt><trkpt lat="35.0449327" lon="32.4408875"><ele>26.1</ele><time>2015-04-26T15:23:19.0000000+00:00</time></trkpt><trkpt lat="35.0448757" lon="32.4408906"><ele>25.5</ele><time>2015-04-26T15:23:20.0000000+00:00</time></trkpt><trkpt lat="35.0448212" lon="32.4408926"><ele>25.2</ele><time>2015-04-26T15:23:21.0000000+00:00</time></trkpt><trkpt lat="35.044764" lon="32.4408887"><ele>25.1</ele><time>2015-04-26T15:23:22.0000000+00:00</time></trkpt><trkpt lat="35.0447135" lon="32.440885"><ele>25.5</ele><time>2015-04-26T15:23:23.0000000+00:00</time></trkpt><trkpt lat="35.0446262" lon="32.4408764"><ele>24.8</ele><time>2015-04-26T15:23:25.0000000+00:00</time></trkpt><trkpt lat="35.0445234" lon="32.4408751"><ele>23.7</ele><time>2015-04-26T15:23:27.0000000+00:00</time></trkpt><trkpt lat="35.0444453" lon="32.4408696"><ele>23.9</ele><time>2015-04-26T15:23:29.0000000+00:00</time></trkpt><trkpt lat="35.0443975" lon="32.4408706"><ele>24.4</ele><time>2015-04-26T15:23:30.0000000+00:00</time></trkpt><trkpt lat="35.0443494" lon="32.4408633"><ele>24.2</ele><time>2015-04-26T15:23:31.0000000+00:00</time></trkpt><trkpt lat="35.044301" lon="32.440855"><ele>24.5</ele><time>2015-04-26T15:23:32.0000000+00:00</time></trkpt><trkpt lat="35.0442078" lon="32.4408566"><ele>25.1</ele><time>2015-04-26T15:23:34.0000000+00:00</time></trkpt><trkpt lat="35.0441581" lon="32.4408578"><ele>25.5</ele><time>2015-04-26T15:23:35.0000000+00:00</time></trkpt><trkpt lat="35.0441122" lon="32.4408582"><ele>25.7</ele><time>2015-04-26T15:23:36.0000000+00:00</time></trkpt><trkpt lat="35.0440211" lon="32.4408445"><ele>25.9</ele><time>2015-04-26T15:23:38.0000000+00:00</time></trkpt><trkpt lat="35.0439363" lon="32.4408328"><ele>27.2</ele><time>2015-04-26T15:23:40.0000000+00:00</time></trkpt><trkpt lat="35.0438406" lon="32.4408237"><ele>27.2</ele><time>2015-04-26T15:23:42.0000000+00:00</time></trkpt><trkpt lat="35.0437908" lon="32.4408191"><ele>27.6</ele><time>2015-04-26T15:23:43.0000000+00:00</time></trkpt><trkpt lat="35.0437406" lon="32.4408074"><ele>28.3</ele><time>2015-04-26T15:23:44.0000000+00:00</time></trkpt><trkpt lat="35.0436836" lon="32.440805"><ele>29.1</ele><time>2015-04-26T15:23:45.0000000+00:00</time></trkpt><trkpt lat="35.0436261" lon="32.4408099"><ele>29.5</ele><time>2015-04-26T15:23:46.0000000+00:00</time></trkpt><trkpt lat="35.0435441" lon="32.4408198"><ele>30.6</ele><time>2015-04-26T15:23:48.0000000+00:00</time></trkpt><trkpt lat="35.0434935" lon="32.4408095"><ele>30.3</ele><time>2015-04-26T15:23:49.0000000+00:00</time></trkpt><trkpt lat="35.0434276" lon="32.4408106"><ele>30.5</ele><time>2015-04-26T15:23:51.0000000+00:00</time></trkpt><trkpt lat="35.0433493" lon="32.440799"><ele>30.3</ele><time>2015-04-26T15:23:53.0000000+00:00</time></trkpt><trkpt lat="35.043273" lon="32.4407784"><ele>29.8</ele><time>2015-04-26T15:23:55.0000000+00:00</time></trkpt><trkpt lat="35.0432235" lon="32.4407743"><ele>29.9</ele><time>2015-04-26T15:23:56.0000000+00:00</time></trkpt><trkpt lat="35.0431368" lon="32.4407719"><ele>29.9</ele><time>2015-04-26T15:23:58.0000000+00:00</time></trkpt><trkpt lat="35.0430647" lon="32.4407539"><ele>29.4</ele><time>2015-04-26T15:24:00.0000000+00:00</time></trkpt><trkpt lat="35.0429888" lon="32.4407511"><ele>29.1</ele><time>2015-04-26T15:24:02.0000000+00:00</time></trkpt><trkpt lat="35.042902" lon="32.4407329"><ele>28.0</ele><time>2015-04-26T15:24:04.0000000+00:00</time></trkpt><trkpt lat="35.042825" lon="32.4407181"><ele>28.4</ele><time>2015-04-26T15:24:06.0000000+00:00</time></trkpt><trkpt lat="35.0427364" lon="32.4407017"><ele>28.3</ele><time>2015-04-26T15:24:08.0000000+00:00</time></trkpt><trkpt lat="35.0426907" lon="32.4406926"><ele>28.1</ele><time>2015-04-26T15:24:09.0000000+00:00</time></trkpt><trkpt lat="35.0426343" lon="32.4406727"><ele>28.5</ele><time>2015-04-26T15:24:10.0000000+00:00</time></trkpt><trkpt lat="35.0425793" lon="32.4406446"><ele>28.7</ele><time>2015-04-26T15:24:11.0000000+00:00</time></trkpt><trkpt lat="35.0425054" lon="32.4406045"><ele>28.9</ele><time>2015-04-26T15:24:13.0000000+00:00</time></trkpt><trkpt lat="35.0424239" lon="32.4405831"><ele>28.9</ele><time>2015-04-26T15:24:15.0000000+00:00</time></trkpt><trkpt lat="35.04238" lon="32.4405656"><ele>29.4</ele><time>2015-04-26T15:24:16.0000000+00:00</time></trkpt><trkpt lat="35.0423334" lon="32.4405498"><ele>29.7</ele><time>2015-04-26T15:24:17.0000000+00:00</time></trkpt><trkpt lat="35.0422654" lon="32.44053"><ele>29.4</ele><time>2015-04-26T15:24:19.0000000+00:00</time></trkpt><trkpt lat="35.0421857" lon="32.4404889"><ele>29.8</ele><time>2015-04-26T15:24:21.0000000+00:00</time></trkpt><trkpt lat="35.0421425" lon="32.4404653"><ele>29.9</ele><time>2015-04-26T15:24:22.0000000+00:00</time></trkpt><trkpt lat="35.042096" lon="32.4404312"><ele>29.9</ele><time>2015-04-26T15:24:23.0000000+00:00</time></trkpt><trkpt lat="35.0420191" lon="32.440375"><ele>29.4</ele><time>2015-04-26T15:24:25.0000000+00:00</time></trkpt><trkpt lat="35.0419518" lon="32.4403214"><ele>29.6</ele><time>2015-04-26T15:24:27.0000000+00:00</time></trkpt><trkpt lat="35.0418824" lon="32.4402787"><ele>29.3</ele><time>2015-04-26T15:24:29.0000000+00:00</time></trkpt><trkpt lat="35.0418254" lon="32.4402099"><ele>29.5</ele><time>2015-04-26T15:24:31.0000000+00:00</time></trkpt><trkpt lat="35.0417885" lon="32.4401765"><ele>30.2</ele><time>2015-04-26T15:24:32.0000000+00:00</time></trkpt><trkpt lat="35.0417179" lon="32.4401126"><ele>32.0</ele><time>2015-04-26T15:24:34.0000000+00:00</time></trkpt><trkpt lat="35.041653" lon="32.440054"><ele>32.2</ele><time>2015-04-26T15:24:36.0000000+00:00</time></trkpt><trkpt lat="35.0415971" lon="32.4400179"><ele>32.0</ele><time>2015-04-26T15:24:38.0000000+00:00</time></trkpt><trkpt lat="35.0415542" lon="32.4399748"><ele>32.7</ele><time>2015-04-26T15:24:40.0000000+00:00</time></trkpt><trkpt lat="35.0414866" lon="32.4399234"><ele>31.7</ele><time>2015-04-26T15:24:43.0000000+00:00</time></trkpt><trkpt lat="35.0414265" lon="32.4398656"><ele>31.6</ele><time>2015-04-26T15:24:45.0000000+00:00</time></trkpt><trkpt lat="35.0413547" lon="32.4397569"><ele>30.4</ele><time>2015-04-26T15:24:47.0000000+00:00</time></trkpt><trkpt lat="35.0413223" lon="32.4397138"><ele>30.1</ele><time>2015-04-26T15:24:48.0000000+00:00</time></trkpt><trkpt lat="35.0412753" lon="32.4396239"><ele>31.0</ele><time>2015-04-26T15:24:50.0000000+00:00</time></trkpt><trkpt lat="35.0412191" lon="32.4395605"><ele>31.9</ele><time>2015-04-26T15:24:52.0000000+00:00</time></trkpt><trkpt lat="35.0411604" lon="32.4394907"><ele>31.9</ele><time>2015-04-26T15:24:54.0000000+00:00</time></trkpt><trkpt lat="35.0411212" lon="32.439417"><ele>32.7</ele><time>2015-04-26T15:24:56.0000000+00:00</time></trkpt><trkpt lat="35.0410822" lon="32.4393447"><ele>31.9</ele><time>2015-04-26T15:24:58.0000000+00:00</time></trkpt><trkpt lat="35.0410343" lon="32.4392658"><ele>32.7</ele><time>2015-04-26T15:25:00.0000000+00:00</time></trkpt><trkpt lat="35.0409863" lon="32.4391857"><ele>32.9</ele><time>2015-04-26T15:25:02.0000000+00:00</time></trkpt><trkpt lat="35.0409432" lon="32.4391049"><ele>32.9</ele><time>2015-04-26T15:25:04.0000000+00:00</time></trkpt><trkpt lat="35.0409011" lon="32.439028"><ele>33.2</ele><time>2015-04-26T15:25:06.0000000+00:00</time></trkpt><trkpt lat="35.0408534" lon="32.4389511"><ele>33.0</ele><time>2015-04-26T15:25:08.0000000+00:00</time></trkpt><trkpt lat="35.0407994" lon="32.4388579"><ele>32.2</ele><time>2015-04-26T15:25:10.0000000+00:00</time></trkpt><trkpt lat="35.0407525" lon="32.4387778"><ele>31.2</ele><time>2015-04-26T15:25:12.0000000+00:00</time></trkpt><trkpt lat="35.0407036" lon="32.438711"><ele>31.0</ele><time>2015-04-26T15:25:14.0000000+00:00</time></trkpt><trkpt lat="35.0406539" lon="32.4386094"><ele>30.4</ele><time>2015-04-26T15:25:16.0000000+00:00</time></trkpt><trkpt lat="35.0406316" lon="32.4385599"><ele>30.7</ele><time>2015-04-26T15:25:17.0000000+00:00</time></trkpt><trkpt lat="35.0406171" lon="32.4385042"><ele>30.8</ele><time>2015-04-26T15:25:18.0000000+00:00</time></trkpt><trkpt lat="35.0405945" lon="32.4384552"><ele>31.4</ele><time>2015-04-26T15:25:19.0000000+00:00</time></trkpt><trkpt lat="35.0405536" lon="32.4383643"><ele>31.0</ele><time>2015-04-26T15:25:21.0000000+00:00</time></trkpt><trkpt lat="35.0405298" lon="32.4383144"><ele>31.0</ele><time>2015-04-26T15:25:22.0000000+00:00</time></trkpt><trkpt lat="35.0404802" lon="32.4382261"><ele>32.4</ele><time>2015-04-26T15:25:24.0000000+00:00</time></trkpt><trkpt lat="35.0404321" lon="32.4381449"><ele>33.6</ele><time>2015-04-26T15:25:26.0000000+00:00</time></trkpt><trkpt lat="35.0404044" lon="32.4381"><ele>34.2</ele><time>2015-04-26T15:25:27.0000000+00:00</time></trkpt><trkpt lat="35.0403827" lon="32.4380472"><ele>34.1</ele><time>2015-04-26T15:25:28.0000000+00:00</time></trkpt><trkpt lat="35.0403586" lon="32.4379978"><ele>34.0</ele><time>2015-04-26T15:25:29.0000000+00:00</time></trkpt><trkpt lat="35.0403345" lon="32.4379389"><ele>34.5</ele><time>2015-04-26T15:25:30.0000000+00:00</time></trkpt><trkpt lat="35.0403071" lon="32.4378804"><ele>35.2</ele><time>2015-04-26T15:25:31.0000000+00:00</time></trkpt><trkpt lat="35.040286" lon="32.4378271"><ele>35.6</ele><time>2015-04-26T15:25:32.0000000+00:00</time></trkpt><trkpt lat="35.0402657" lon="32.4377774"><ele>35.2</ele><time>2015-04-26T15:25:33.0000000+00:00</time></trkpt><trkpt lat="35.040215" lon="32.437686"><ele>35.0</ele><time>2015-04-26T15:25:35.0000000+00:00</time></trkpt><trkpt lat="35.040197" lon="32.4376243"><ele>35.0</ele><time>2015-04-26T15:25:36.0000000+00:00</time></trkpt><trkpt lat="35.04015" lon="32.4375362"><ele>34.9</ele><time>2015-04-26T15:25:38.0000000+00:00</time></trkpt><trkpt lat="35.0401004" lon="32.4374453"><ele>34.9</ele><time>2015-04-26T15:25:40.0000000+00:00</time></trkpt><trkpt lat="35.0400454" lon="32.4373798"><ele>34.9</ele><time>2015-04-26T15:25:42.0000000+00:00</time></trkpt><trkpt lat="35.039986" lon="32.4373121"><ele>35.4</ele><time>2015-04-26T15:25:44.0000000+00:00</time></trkpt><trkpt lat="35.0399303" lon="32.437228"><ele>35.8</ele><time>2015-04-26T15:25:46.0000000+00:00</time></trkpt><trkpt lat="35.039909" lon="32.4371581"><ele>36.9</ele><time>2015-04-26T15:25:47.0000000+00:00</time></trkpt><trkpt lat="35.0398839" lon="32.4371114"><ele>37.4</ele><time>2015-04-26T15:25:48.0000000+00:00</time></trkpt><trkpt lat="35.0398516" lon="32.4370505"><ele>37.7</ele><time>2015-04-26T15:25:49.0000000+00:00</time></trkpt><trkpt lat="35.0398037" lon="32.4369609"><ele>38.4</ele><time>2015-04-26T15:25:51.0000000+00:00</time></trkpt><trkpt lat="35.0397717" lon="32.4368676"><ele>38.0</ele><time>2015-04-26T15:25:53.0000000+00:00</time></trkpt><trkpt lat="35.0397375" lon="32.4367786"><ele>38.0</ele><time>2015-04-26T15:25:55.0000000+00:00</time></trkpt><trkpt lat="35.0396918" lon="32.4366873"><ele>37.2</ele><time>2015-04-26T15:25:57.0000000+00:00</time></trkpt><trkpt lat="35.0396329" lon="32.4366001"><ele>38.0</ele><time>2015-04-26T15:25:59.0000000+00:00</time></trkpt><trkpt lat="35.0395752" lon="32.4365228"><ele>37.9</ele><time>2015-04-26T15:26:01.0000000+00:00</time></trkpt><trkpt lat="35.0395443" lon="32.4364797"><ele>38.4</ele><time>2015-04-26T15:26:02.0000000+00:00</time></trkpt><trkpt lat="35.0394701" lon="32.4363925"><ele>39.6</ele><time>2015-04-26T15:26:04.0000000+00:00</time></trkpt><trkpt lat="35.0394346" lon="32.4363563"><ele>40.2</ele><time>2015-04-26T15:26:05.0000000+00:00</time></trkpt><trkpt lat="35.0393964" lon="32.4363249"><ele>40.1</ele><time>2015-04-26T15:26:06.0000000+00:00</time></trkpt><trkpt lat="35.0393198" lon="32.4362535"><ele>39.5</ele><time>2015-04-26T15:26:08.0000000+00:00</time></trkpt><trkpt lat="35.0392867" lon="32.4362095"><ele>39.7</ele><time>2015-04-26T15:26:09.0000000+00:00</time></trkpt><trkpt lat="35.0392504" lon="32.4361689"><ele>40.3</ele><time>2015-04-26T15:26:10.0000000+00:00</time></trkpt><trkpt lat="35.039216" lon="32.4361232"><ele>41.1</ele><time>2015-04-26T15:26:11.0000000+00:00</time></trkpt><trkpt lat="35.0391845" lon="32.4360814"><ele>41.0</ele><time>2015-04-26T15:26:12.0000000+00:00</time></trkpt><trkpt lat="35.0391494" lon="32.436044"><ele>40.5</ele><time>2015-04-26T15:26:13.0000000+00:00</time></trkpt><trkpt lat="35.0391252" lon="32.4359907"><ele>40.2</ele><time>2015-04-26T15:26:14.0000000+00:00</time></trkpt><trkpt lat="35.0390628" lon="32.4359191"><ele>39.2</ele><time>2015-04-26T15:26:16.0000000+00:00</time></trkpt><trkpt lat="35.0390263" lon="32.4358718"><ele>39.1</ele><time>2015-04-26T15:26:17.0000000+00:00</time></trkpt><trkpt lat="35.0389976" lon="32.4358281"><ele>39.0</ele><time>2015-04-26T15:26:18.0000000+00:00</time></trkpt><trkpt lat="35.0389749" lon="32.4357799"><ele>38.5</ele><time>2015-04-26T15:26:19.0000000+00:00</time></trkpt><trkpt lat="35.0389431" lon="32.4357289"><ele>37.7</ele><time>2015-04-26T15:26:20.0000000+00:00</time></trkpt><trkpt lat="35.0389182" lon="32.4356689"><ele>37.3</ele><time>2015-04-26T15:26:21.0000000+00:00</time></trkpt><trkpt lat="35.0388874" lon="32.435553"><ele>37.0</ele><time>2015-04-26T15:26:23.0000000+00:00</time></trkpt><trkpt lat="35.0388744" lon="32.435497"><ele>36.0</ele><time>2015-04-26T15:26:24.0000000+00:00</time></trkpt><trkpt lat="35.0388547" lon="32.4354218"><ele>35.5</ele><time>2015-04-26T15:26:25.0000000+00:00</time></trkpt><trkpt lat="35.0388345" lon="32.4353546"><ele>35.2</ele><time>2015-04-26T15:26:26.0000000+00:00</time></trkpt><trkpt lat="35.0388126" lon="32.435299"><ele>35.1</ele><time>2015-04-26T15:26:27.0000000+00:00</time></trkpt><trkpt lat="35.0387935" lon="32.435237"><ele>34.5</ele><time>2015-04-26T15:26:28.0000000+00:00</time></trkpt><trkpt lat="35.0387769" lon="32.4351832"><ele>34.2</ele><time>2015-04-26T15:26:29.0000000+00:00</time></trkpt><trkpt lat="35.0387605" lon="32.4351164"><ele>34.1</ele><time>2015-04-26T15:26:30.0000000+00:00</time></trkpt><trkpt lat="35.0387443" lon="32.4350561"><ele>33.5</ele><time>2015-04-26T15:26:31.0000000+00:00</time></trkpt><trkpt lat="35.0387313" lon="32.4350027"><ele>33.2</ele><time>2015-04-26T15:26:32.0000000+00:00</time></trkpt><trkpt lat="35.0387162" lon="32.4349375"><ele>33.6</ele><time>2015-04-26T15:26:33.0000000+00:00</time></trkpt><trkpt lat="35.0386977" lon="32.4348861"><ele>33.3</ele><time>2015-04-26T15:26:34.0000000+00:00</time></trkpt><trkpt lat="35.0386833" lon="32.4348305"><ele>33.1</ele><time>2015-04-26T15:26:35.0000000+00:00</time></trkpt><trkpt lat="35.0386504" lon="32.4347493"><ele>31.7</ele><time>2015-04-26T15:26:37.0000000+00:00</time></trkpt><trkpt lat="35.0386102" lon="32.434676"><ele>31.1</ele><time>2015-04-26T15:26:39.0000000+00:00</time></trkpt><trkpt lat="35.0385815" lon="32.4345898"><ele>31.5</ele><time>2015-04-26T15:26:41.0000000+00:00</time></trkpt><trkpt lat="35.0385368" lon="32.4345095"><ele>32.6</ele><time>2015-04-26T15:26:43.0000000+00:00</time></trkpt><trkpt lat="35.038481" lon="32.43443"><ele>32.8</ele><time>2015-04-26T15:26:45.0000000+00:00</time></trkpt><trkpt lat="35.0384288" lon="32.4343512"><ele>31.2</ele><time>2015-04-26T15:26:47.0000000+00:00</time></trkpt><trkpt lat="35.0383747" lon="32.4342764"><ele>30.5</ele><time>2015-04-26T15:26:49.0000000+00:00</time></trkpt><trkpt lat="35.0383228" lon="32.4342059"><ele>30.3</ele><time>2015-04-26T15:26:51.0000000+00:00</time></trkpt><trkpt lat="35.0382704" lon="32.4341412"><ele>30.0</ele><time>2015-04-26T15:26:53.0000000+00:00</time></trkpt><trkpt lat="35.03822" lon="32.4340743"><ele>29.0</ele><time>2015-04-26T15:26:55.0000000+00:00</time></trkpt><trkpt lat="35.0381662" lon="32.434005"><ele>28.2</ele><time>2015-04-26T15:26:57.0000000+00:00</time></trkpt><trkpt lat="35.0381231" lon="32.433951"><ele>28.6</ele><time>2015-04-26T15:26:58.0000000+00:00</time></trkpt><trkpt lat="35.0380633" lon="32.4338746"><ele>28.3</ele><time>2015-04-26T15:27:00.0000000+00:00</time></trkpt><trkpt lat="35.0380312" lon="32.4338301"><ele>28.6</ele><time>2015-04-26T15:27:01.0000000+00:00</time></trkpt><trkpt lat="35.0380064" lon="32.43378"><ele>29.3</ele><time>2015-04-26T15:27:02.0000000+00:00</time></trkpt><trkpt lat="35.0379776" lon="32.4337363"><ele>30.1</ele><time>2015-04-26T15:27:03.0000000+00:00</time></trkpt><trkpt lat="35.0379207" lon="32.433659"><ele>29.7</ele><time>2015-04-26T15:27:05.0000000+00:00</time></trkpt><trkpt lat="35.0378658" lon="32.4335819"><ele>29.4</ele><time>2015-04-26T15:27:07.0000000+00:00</time></trkpt><trkpt lat="35.0378202" lon="32.4335091"><ele>28.5</ele><time>2015-04-26T15:27:09.0000000+00:00</time></trkpt><trkpt lat="35.0377696" lon="32.4334386"><ele>28.1</ele><time>2015-04-26T15:27:11.0000000+00:00</time></trkpt><trkpt lat="35.0377202" lon="32.4333665"><ele>27.5</ele><time>2015-04-26T15:27:13.0000000+00:00</time></trkpt><trkpt lat="35.0376764" lon="32.4332886"><ele>27.6</ele><time>2015-04-26T15:27:15.0000000+00:00</time></trkpt><trkpt lat="35.0376359" lon="32.4332069"><ele>28.3</ele><time>2015-04-26T15:27:17.0000000+00:00</time></trkpt><trkpt lat="35.0375949" lon="32.4331281"><ele>28.0</ele><time>2015-04-26T15:27:19.0000000+00:00</time></trkpt><trkpt lat="35.0375484" lon="32.433056"><ele>27.5</ele><time>2015-04-26T15:27:21.0000000+00:00</time></trkpt><trkpt lat="35.0374936" lon="32.4329803"><ele>27.6</ele><time>2015-04-26T15:27:23.0000000+00:00</time></trkpt><trkpt lat="35.0374412" lon="32.4328997"><ele>27.8</ele><time>2015-04-26T15:27:25.0000000+00:00</time></trkpt><trkpt lat="35.0373696" lon="32.4327891"><ele>27.2</ele><time>2015-04-26T15:27:27.0000000+00:00</time></trkpt><trkpt lat="35.0373474" lon="32.4327345"><ele>27.0</ele><time>2015-04-26T15:27:28.0000000+00:00</time></trkpt><trkpt lat="35.037301" lon="32.4326555"><ele>28.0</ele><time>2015-04-26T15:27:30.0000000+00:00</time></trkpt><trkpt lat="35.0372721" lon="32.4325802"><ele>30.2</ele><time>2015-04-26T15:27:32.0000000+00:00</time></trkpt><trkpt lat="35.0372545" lon="32.4325272"><ele>30.5</ele><time>2015-04-26T15:27:34.0000000+00:00</time></trkpt><trkpt lat="35.0372094" lon="32.432508"><ele>28.4</ele><time>2015-04-26T15:27:39.0000000+00:00</time></trkpt><trkpt lat="35.0372097" lon="32.4324417"><ele>32.4</ele><time>2015-04-26T15:29:44.0000000+00:00</time></trkpt><trkpt lat="35.0371856" lon="32.4323736"><ele>31.2</ele><time>2015-04-26T15:29:48.0000000+00:00</time></trkpt><trkpt lat="35.0371675" lon="32.4323134"><ele>30.3</ele><time>2015-04-26T15:29:50.0000000+00:00</time></trkpt><trkpt lat="35.0371536" lon="32.4322387"><ele>30.8</ele><time>2015-04-26T15:29:52.0000000+00:00</time></trkpt><trkpt lat="35.0371386" lon="32.4321579"><ele>30.1</ele><time>2015-04-26T15:29:54.0000000+00:00</time></trkpt><trkpt lat="35.0371191" lon="32.4320802"><ele>31.2</ele><time>2015-04-26T15:29:56.0000000+00:00</time></trkpt><trkpt lat="35.0371007" lon="32.4320114"><ele>32.0</ele><time>2015-04-26T15:29:58.0000000+00:00</time></trkpt><trkpt lat="35.0370868" lon="32.431957"><ele>30.9</ele><time>2015-04-26T15:30:00.0000000+00:00</time></trkpt><trkpt lat="35.0370664" lon="32.4318893"><ele>26.6</ele><time>2015-04-26T15:30:28.0000000+00:00</time></trkpt><trkpt lat="35.0370449" lon="32.431808"><ele>27.9</ele><time>2015-04-26T15:30:31.0000000+00:00</time></trkpt><trkpt lat="35.0370275" lon="32.4317294"><ele>27.4</ele><time>2015-04-26T15:30:33.0000000+00:00</time></trkpt><trkpt lat="35.0370033" lon="32.4316526"><ele>27.3</ele><time>2015-04-26T15:30:35.0000000+00:00</time></trkpt><trkpt lat="35.0369801" lon="32.4315824"><ele>26.5</ele><time>2015-04-26T15:30:37.0000000+00:00</time></trkpt><trkpt lat="35.0369476" lon="32.4314975"><ele>26.8</ele><time>2015-04-26T15:30:39.0000000+00:00</time></trkpt><trkpt lat="35.0369143" lon="32.4314236"><ele>26.2</ele><time>2015-04-26T15:30:41.0000000+00:00</time></trkpt><trkpt lat="35.03688" lon="32.4313547"><ele>26.2</ele><time>2015-04-26T15:30:43.0000000+00:00</time></trkpt><trkpt lat="35.0368463" lon="32.4312861"><ele>25.8</ele><time>2015-04-26T15:30:45.0000000+00:00</time></trkpt><trkpt lat="35.0368155" lon="32.431221"><ele>25.6</ele><time>2015-04-26T15:30:47.0000000+00:00</time></trkpt><trkpt lat="35.0367842" lon="32.4311596"><ele>26.6</ele><time>2015-04-26T15:30:49.0000000+00:00</time></trkpt><trkpt lat="35.0367508" lon="32.4311087"><ele>26.1</ele><time>2015-04-26T15:30:51.0000000+00:00</time></trkpt><trkpt lat="35.036729" lon="32.4310551"><ele>28.2</ele><time>2015-04-26T15:30:53.0000000+00:00</time></trkpt><trkpt lat="35.0367046" lon="32.4310026"><ele>30.0</ele><time>2015-04-26T15:30:55.0000000+00:00</time></trkpt><trkpt lat="35.0366742" lon="32.4309404"><ele>30.4</ele><time>2015-04-26T15:30:57.0000000+00:00</time></trkpt><trkpt lat="35.0366486" lon="32.4308771"><ele>31.2</ele><time>2015-04-26T15:30:58.0000000+00:00</time></trkpt><trkpt lat="35.0366078" lon="32.4307865"><ele>31.7</ele><time>2015-04-26T15:31:00.0000000+00:00</time></trkpt><trkpt lat="35.0365673" lon="32.4307022"><ele>31.9</ele><time>2015-04-26T15:31:02.0000000+00:00</time></trkpt><trkpt lat="35.0365247" lon="32.4306229"><ele>31.9</ele><time>2015-04-26T15:31:04.0000000+00:00</time></trkpt><trkpt lat="35.0364836" lon="32.4305214"><ele>31.4</ele><time>2015-04-26T15:31:06.0000000+00:00</time></trkpt><trkpt lat="35.03647" lon="32.4304645"><ele>31.7</ele><time>2015-04-26T15:31:07.0000000+00:00</time></trkpt><trkpt lat="35.0364502" lon="32.4304083"><ele>32.3</ele><time>2015-04-26T15:31:08.0000000+00:00</time></trkpt><trkpt lat="35.0364254" lon="32.4303468"><ele>33.1</ele><time>2015-04-26T15:31:09.0000000+00:00</time></trkpt><trkpt lat="35.0364079" lon="32.4302936"><ele>33.5</ele><time>2015-04-26T15:31:10.0000000+00:00</time></trkpt><trkpt lat="35.0363693" lon="32.4302174"><ele>32.3</ele><time>2015-04-26T15:31:12.0000000+00:00</time></trkpt><trkpt lat="35.0363408" lon="32.430126"><ele>32.8</ele><time>2015-04-26T15:31:14.0000000+00:00</time></trkpt><trkpt lat="35.0362933" lon="32.430061"><ele>32.9</ele><time>2015-04-26T15:31:16.0000000+00:00</time></trkpt><trkpt lat="35.0362609" lon="32.4299729"><ele>33.4</ele><time>2015-04-26T15:31:18.0000000+00:00</time></trkpt><trkpt lat="35.0362234" lon="32.4298968"><ele>31.8</ele><time>2015-04-26T15:31:20.0000000+00:00</time></trkpt><trkpt lat="35.0361908" lon="32.429831"><ele>32.4</ele><time>2015-04-26T15:31:22.0000000+00:00</time></trkpt><trkpt lat="35.0361673" lon="32.4297673"><ele>36.0</ele><time>2015-04-26T15:31:24.0000000+00:00</time></trkpt><trkpt lat="35.0361454" lon="32.4297081"><ele>36.5</ele><time>2015-04-26T15:31:26.0000000+00:00</time></trkpt><trkpt lat="35.0361144" lon="32.4296518"><ele>34.8</ele><time>2015-04-26T15:31:28.0000000+00:00</time></trkpt><trkpt lat="35.0360814" lon="32.429596"><ele>34.4</ele><time>2015-04-26T15:31:30.0000000+00:00</time></trkpt><trkpt lat="35.0360479" lon="32.4295427"><ele>35.5</ele><time>2015-04-26T15:31:32.0000000+00:00</time></trkpt><trkpt lat="35.0359894" lon="32.4295695"><ele>34.8</ele><time>2015-04-26T15:31:34.0000000+00:00</time></trkpt><trkpt lat="35.0359342" lon="32.4296148"><ele>34.9</ele><time>2015-04-26T15:31:36.0000000+00:00</time></trkpt><trkpt lat="35.0358763" lon="32.4296569"><ele>35.2</ele><time>2015-04-26T15:31:38.0000000+00:00</time></trkpt><trkpt lat="35.035818" lon="32.4296927"><ele>35.2</ele><time>2015-04-26T15:31:40.0000000+00:00</time></trkpt><trkpt lat="35.0357649" lon="32.429727"><ele>34.3</ele><time>2015-04-26T15:31:42.0000000+00:00</time></trkpt><trkpt lat="35.0357067" lon="32.4297727"><ele>29.0</ele><time>2015-04-26T15:31:44.0000000+00:00</time></trkpt><trkpt lat="35.0356485" lon="32.4298092"><ele>24.5</ele><time>2015-04-26T15:31:46.0000000+00:00</time></trkpt><trkpt lat="35.0355915" lon="32.4298373"><ele>21.3</ele><time>2015-04-26T15:31:48.0000000+00:00</time></trkpt><trkpt lat="35.0355379" lon="32.4298535"><ele>19.5</ele><time>2015-04-26T15:31:50.0000000+00:00</time></trkpt><trkpt lat="35.0354885" lon="32.4298581"><ele>16.0</ele><time>2015-04-26T15:31:57.0000000+00:00</time></trkpt><trkpt lat="35.0354433" lon="32.4298685"><ele>14.8</ele><time>2015-04-26T15:32:30.0000000+00:00</time></trkpt><trkpt lat="35.035462" lon="32.4299202"><ele>17.8</ele><time>2015-04-26T15:32:46.0000000+00:00</time></trkpt><trkpt lat="35.0354857" lon="32.4299692"><ele>19.6</ele><time>2015-04-26T15:32:51.0000000+00:00</time></trkpt><trkpt lat="35.0355094" lon="32.4300164"><ele>21.3</ele><time>2015-04-26T15:32:56.0000000+00:00</time></trkpt><trkpt lat="35.0355172" lon="32.4300735"><ele>21.8</ele><time>2015-04-26T15:33:04.0000000+00:00</time></trkpt><trkpt lat="35.0355314" lon="32.4301334"><ele>22.9</ele><time>2015-04-26T15:33:09.0000000+00:00</time></trkpt><trkpt lat="35.0355501" lon="32.4301861"><ele>22.9</ele><time>2015-04-26T15:33:21.0000000+00:00</time></trkpt><trkpt lat="35.035562" lon="32.4302412"><ele>26.2</ele><time>2015-04-26T15:33:28.0000000+00:00</time></trkpt><trkpt lat="35.0355508" lon="32.430297"><ele>27.7</ele><time>2015-04-26T15:33:35.0000000+00:00</time></trkpt><trkpt lat="35.0355719" lon="32.430347"><ele>29.0</ele><time>2015-04-26T15:33:43.0000000+00:00</time></trkpt><trkpt lat="35.0356139" lon="32.4303674"><ele>28.2</ele><time>2015-04-26T15:33:48.0000000+00:00</time></trkpt><trkpt lat="35.0356659" lon="32.430358"><ele>28.8</ele><time>2015-04-26T15:33:54.0000000+00:00</time></trkpt><trkpt lat="35.0357105" lon="32.4303687"><ele>30.9</ele><time>2015-04-26T15:49:40.0000000+00:00</time></trkpt><trkpt lat="35.0357015" lon="32.4304259"><ele>26.9</ele><time>2015-04-26T16:09:03.0000000+00:00</time></trkpt><trkpt lat="35.0357149" lon="32.4304867"><ele>26.9</ele><time>2015-04-26T16:09:07.0000000+00:00</time></trkpt><trkpt lat="35.0357122" lon="32.430558"><ele>26.9</ele><time>2015-04-26T16:09:10.0000000+00:00</time></trkpt><trkpt lat="35.0357334" lon="32.4306224"><ele>27.1</ele><time>2015-04-26T16:09:13.0000000+00:00</time></trkpt><trkpt lat="35.0357897" lon="32.4306463"><ele>27.4</ele><time>2015-04-26T16:09:16.0000000+00:00</time></trkpt><trkpt lat="35.0358243" lon="32.4305889"><ele>27.9</ele><time>2015-04-26T16:09:19.0000000+00:00</time></trkpt><trkpt lat="35.035825" lon="32.4305337"><ele>28.4</ele><time>2015-04-26T16:09:21.0000000+00:00</time></trkpt><trkpt lat="35.0358142" lon="32.4304697"><ele>28.1</ele><time>2015-04-26T16:09:23.0000000+00:00</time></trkpt><trkpt lat="35.0357906" lon="32.4304053"><ele>28.2</ele><time>2015-04-26T16:09:25.0000000+00:00</time></trkpt><trkpt lat="35.0357819" lon="32.4303504"><ele>28.0</ele><time>2015-04-26T16:09:27.0000000+00:00</time></trkpt><trkpt lat="35.0357619" lon="32.430292"><ele>28.7</ele><time>2015-04-26T16:09:30.0000000+00:00</time></trkpt><trkpt lat="35.0357425" lon="32.4302277"><ele>29.8</ele><time>2015-04-26T16:09:33.0000000+00:00</time></trkpt><trkpt lat="35.0357365" lon="32.430164"><ele>30.4</ele><time>2015-04-26T16:09:35.0000000+00:00</time></trkpt><trkpt lat="35.0357266" lon="32.4301002"><ele>30.8</ele><time>2015-04-26T16:09:37.0000000+00:00</time></trkpt><trkpt lat="35.0357039" lon="32.4300139"><ele>30.9</ele><time>2015-04-26T16:09:39.0000000+00:00</time></trkpt><trkpt lat="35.0356826" lon="32.4299358"><ele>30.9</ele><time>2015-04-26T16:09:41.0000000+00:00</time></trkpt><trkpt lat="35.0356694" lon="32.4298645"><ele>30.4</ele><time>2015-04-26T16:09:43.0000000+00:00</time></trkpt><trkpt lat="35.0356821" lon="32.4298098"><ele>30.1</ele><time>2015-04-26T16:09:45.0000000+00:00</time></trkpt><trkpt lat="35.0357292" lon="32.4297771"><ele>30.5</ele><time>2015-04-26T16:09:47.0000000+00:00</time></trkpt><trkpt lat="35.0357828" lon="32.429744"><ele>30.3</ele><time>2015-04-26T16:09:49.0000000+00:00</time></trkpt><trkpt lat="35.0358378" lon="32.4297097"><ele>30.0</ele><time>2015-04-26T16:09:51.0000000+00:00</time></trkpt><trkpt lat="35.0358949" lon="32.4296799"><ele>30.0</ele><time>2015-04-26T16:09:53.0000000+00:00</time></trkpt><trkpt lat="35.03595" lon="32.4296548"><ele>29.9</ele><time>2015-04-26T16:09:55.0000000+00:00</time></trkpt><trkpt lat="35.0360049" lon="32.4296298"><ele>30.7</ele><time>2015-04-26T16:09:57.0000000+00:00</time></trkpt><trkpt lat="35.0360536" lon="32.4296253"><ele>32.1</ele><time>2015-04-26T16:10:00.0000000+00:00</time></trkpt><trkpt lat="35.0360926" lon="32.4295941"><ele>33.8</ele><time>2015-04-26T16:10:05.0000000+00:00</time></trkpt><trkpt lat="35.0360749" lon="32.4295183"><ele>33.9</ele><time>2015-04-26T16:10:08.0000000+00:00</time></trkpt><trkpt lat="35.0360529" lon="32.4294607"><ele>34.4</ele><time>2015-04-26T16:10:10.0000000+00:00</time></trkpt><trkpt lat="35.0360223" lon="32.4293963"><ele>34.8</ele><time>2015-04-26T16:10:12.0000000+00:00</time></trkpt><trkpt lat="35.0359951" lon="32.4293329"><ele>34.9</ele><time>2015-04-26T16:10:14.0000000+00:00</time></trkpt><trkpt lat="35.0359708" lon="32.429273"><ele>34.9</ele><time>2015-04-26T16:10:16.0000000+00:00</time></trkpt><trkpt lat="35.0359471" lon="32.4292173"><ele>34.9</ele><time>2015-04-26T16:10:18.0000000+00:00</time></trkpt><trkpt lat="35.0359299" lon="32.4291629"><ele>34.9</ele><time>2015-04-26T16:10:20.0000000+00:00</time></trkpt><trkpt lat="35.0359127" lon="32.4290933"><ele>34.1</ele><time>2015-04-26T16:10:23.0000000+00:00</time></trkpt><trkpt lat="35.0358982" lon="32.4290355"><ele>33.9</ele><time>2015-04-26T16:10:26.0000000+00:00</time></trkpt><trkpt lat="35.03588" lon="32.4289699"><ele>33.1</ele><time>2015-04-26T16:10:30.0000000+00:00</time></trkpt><trkpt lat="35.0358661" lon="32.4288995"><ele>32.9</ele><time>2015-04-26T16:10:34.0000000+00:00</time></trkpt><trkpt lat="35.0358512" lon="32.4288462"><ele>32.4</ele><time>2015-04-26T16:10:37.0000000+00:00</time></trkpt><trkpt lat="35.0358356" lon="32.4287946"><ele>32.0</ele><time>2015-04-26T16:10:40.0000000+00:00</time></trkpt><trkpt lat="35.0358081" lon="32.4287338"><ele>33.3</ele><time>2015-04-26T16:10:44.0000000+00:00</time></trkpt><trkpt lat="35.0357826" lon="32.4286748"><ele>35.5</ele><time>2015-04-26T16:10:48.0000000+00:00</time></trkpt><trkpt lat="35.0357596" lon="32.4286104"><ele>36.8</ele><time>2015-04-26T16:10:52.0000000+00:00</time></trkpt><trkpt lat="35.035733" lon="32.4285496"><ele>38.4</ele><time>2015-04-26T16:10:56.0000000+00:00</time></trkpt><trkpt lat="35.035707" lon="32.4284883"><ele>39.8</ele><time>2015-04-26T16:11:00.0000000+00:00</time></trkpt><trkpt lat="35.0356926" lon="32.4284167"><ele>39.9</ele><time>2015-04-26T16:11:04.0000000+00:00</time></trkpt><trkpt lat="35.0357036" lon="32.4283573"><ele>39.9</ele><time>2015-04-26T16:11:07.0000000+00:00</time></trkpt><trkpt lat="35.0357298" lon="32.4282974"><ele>40.8</ele><time>2015-04-26T16:11:10.0000000+00:00</time></trkpt><trkpt lat="35.0357506" lon="32.4282353"><ele>40.9</ele><time>2015-04-26T16:11:12.0000000+00:00</time></trkpt><trkpt lat="35.0357737" lon="32.4281788"><ele>40.4</ele><time>2015-04-26T16:11:14.0000000+00:00</time></trkpt><trkpt lat="35.0357831" lon="32.4281139"><ele>40.1</ele><time>2015-04-26T16:11:16.0000000+00:00</time></trkpt><trkpt lat="35.0357818" lon="32.4280325"><ele>40.0</ele><time>2015-04-26T16:11:18.0000000+00:00</time></trkpt><trkpt lat="35.0357758" lon="32.4279494"><ele>39.9</ele><time>2015-04-26T16:11:20.0000000+00:00</time></trkpt><trkpt lat="35.0357742" lon="32.4278686"><ele>39.4</ele><time>2015-04-26T16:11:22.0000000+00:00</time></trkpt><trkpt lat="35.0357791" lon="32.427789"><ele>39.6</ele><time>2015-04-26T16:11:24.0000000+00:00</time></trkpt><trkpt lat="35.035791" lon="32.4277108"><ele>39.1</ele><time>2015-04-26T16:11:26.0000000+00:00</time></trkpt><trkpt lat="35.0358004" lon="32.4276353"><ele>39.0</ele><time>2015-04-26T16:11:28.0000000+00:00</time></trkpt><trkpt lat="35.035795" lon="32.4275703"><ele>38.9</ele><time>2015-04-26T16:11:30.0000000+00:00</time></trkpt><trkpt lat="35.0357868" lon="32.4275142"><ele>38.2</ele><time>2015-04-26T16:11:32.0000000+00:00</time></trkpt><trkpt lat="35.0357894" lon="32.4274544"><ele>38.0</ele><time>2015-04-26T16:11:34.0000000+00:00</time></trkpt><trkpt lat="35.0357938" lon="32.4273868"><ele>37.9</ele><time>2015-04-26T16:11:36.0000000+00:00</time></trkpt><trkpt lat="35.0357988" lon="32.4273003"><ele>37.9</ele><time>2015-04-26T16:11:38.0000000+00:00</time></trkpt><trkpt lat="35.0358047" lon="32.4272192"><ele>37.9</ele><time>2015-04-26T16:11:40.0000000+00:00</time></trkpt><trkpt lat="35.0358047" lon="32.4271421"><ele>38.7</ele><time>2015-04-26T16:11:42.0000000+00:00</time></trkpt><trkpt lat="35.0357892" lon="32.4270671"><ele>38.9</ele><time>2015-04-26T16:11:44.0000000+00:00</time></trkpt><trkpt lat="35.0357693" lon="32.426996"><ele>38.9</ele><time>2015-04-26T16:11:46.0000000+00:00</time></trkpt><trkpt lat="35.0357497" lon="32.4269358"><ele>38.2</ele><time>2015-04-26T16:11:48.0000000+00:00</time></trkpt><trkpt lat="35.0357354" lon="32.4268781"><ele>38.0</ele><time>2015-04-26T16:11:50.0000000+00:00</time></trkpt><trkpt lat="35.0357227" lon="32.4268226"><ele>36.7</ele><time>2015-04-26T16:11:52.0000000+00:00</time></trkpt><trkpt lat="35.0357151" lon="32.4267676"><ele>36.9</ele><time>2015-04-26T16:11:54.0000000+00:00</time></trkpt><trkpt lat="35.0357633" lon="32.4267298"><ele>38.2</ele><time>2015-04-26T16:11:56.0000000+00:00</time></trkpt><trkpt lat="35.0358319" lon="32.4266894"><ele>38.2</ele><time>2015-04-26T16:11:58.0000000+00:00</time></trkpt><trkpt lat="35.0359052" lon="32.4266396"><ele>38.0</ele><time>2015-04-26T16:12:00.0000000+00:00</time></trkpt><trkpt lat="35.0359733" lon="32.4265901"><ele>37.9</ele><time>2015-04-26T16:12:02.0000000+00:00</time></trkpt><trkpt lat="35.0360463" lon="32.426553"><ele>36.9</ele><time>2015-04-26T16:12:04.0000000+00:00</time></trkpt><trkpt lat="35.0361162" lon="32.4265154"><ele>36.2</ele><time>2015-04-26T16:12:06.0000000+00:00</time></trkpt><trkpt lat="35.036181" lon="32.4264679"><ele>36.7</ele><time>2015-04-26T16:12:08.0000000+00:00</time></trkpt><trkpt lat="35.0362411" lon="32.4264209"><ele>37.6</ele><time>2015-04-26T16:12:10.0000000+00:00</time></trkpt><trkpt lat="35.0363106" lon="32.4263862"><ele>38.1</ele><time>2015-04-26T16:12:12.0000000+00:00</time></trkpt><trkpt lat="35.036372" lon="32.4263439"><ele>37.2</ele><time>2015-04-26T16:12:14.0000000+00:00</time></trkpt><trkpt lat="35.0364326" lon="32.426302"><ele>37.0</ele><time>2015-04-26T16:12:16.0000000+00:00</time></trkpt><trkpt lat="35.0364953" lon="32.4262631"><ele>35.7</ele><time>2015-04-26T16:12:18.0000000+00:00</time></trkpt><trkpt lat="35.0365586" lon="32.4262246"><ele>35.6</ele><time>2015-04-26T16:12:20.0000000+00:00</time></trkpt><trkpt lat="35.0366217" lon="32.4261816"><ele>35.9</ele><time>2015-04-26T16:12:22.0000000+00:00</time></trkpt><trkpt lat="35.0366809" lon="32.4261447"><ele>35.9</ele><time>2015-04-26T16:12:24.0000000+00:00</time></trkpt><trkpt lat="35.0367297" lon="32.4261156"><ele>35.9</ele><time>2015-04-26T16:12:26.0000000+00:00</time></trkpt><trkpt lat="35.0367707" lon="32.4260658"><ele>35.9</ele><time>2015-04-26T16:12:28.0000000+00:00</time></trkpt><trkpt lat="35.0367957" lon="32.4259939"><ele>35.2</ele><time>2015-04-26T16:12:30.0000000+00:00</time></trkpt><trkpt lat="35.0367846" lon="32.4259114"><ele>35.0</ele><time>2015-04-26T16:12:32.0000000+00:00</time></trkpt><trkpt lat="35.036745" lon="32.4258344"><ele>34.9</ele><time>2015-04-26T16:12:34.0000000+00:00</time></trkpt><trkpt lat="35.0367033" lon="32.4257598"><ele>34.2</ele><time>2015-04-26T16:12:36.0000000+00:00</time></trkpt><trkpt lat="35.0366723" lon="32.4256808"><ele>34.5</ele><time>2015-04-26T16:12:38.0000000+00:00</time></trkpt><trkpt lat="35.0366464" lon="32.4256042"><ele>34.8</ele><time>2015-04-26T16:12:40.0000000+00:00</time></trkpt><trkpt lat="35.0366204" lon="32.425532"><ele>34.9</ele><time>2015-04-26T16:12:42.0000000+00:00</time></trkpt><trkpt lat="35.0365992" lon="32.4254706"><ele>34.9</ele><time>2015-04-26T16:12:44.0000000+00:00</time></trkpt><trkpt lat="35.0365899" lon="32.4254062"><ele>34.4</ele><time>2015-04-26T16:12:46.0000000+00:00</time></trkpt><trkpt lat="35.0365772" lon="32.425343"><ele>34.1</ele><time>2015-04-26T16:12:48.0000000+00:00</time></trkpt><trkpt lat="35.0365608" lon="32.4252844"><ele>34.0</ele><time>2015-04-26T16:12:50.0000000+00:00</time></trkpt><trkpt lat="35.0365483" lon="32.4252272"><ele>33.9</ele><time>2015-04-26T16:12:52.0000000+00:00</time></trkpt><trkpt lat="35.036533" lon="32.4251606"><ele>33.9</ele><time>2015-04-26T16:12:55.0000000+00:00</time></trkpt><trkpt lat="35.0365121" lon="32.4250968"><ele>34.4</ele><time>2015-04-26T16:12:58.0000000+00:00</time></trkpt><trkpt lat="35.0364988" lon="32.4250388"><ele>34.1</ele><time>2015-04-26T16:13:00.0000000+00:00</time></trkpt><trkpt lat="35.0364872" lon="32.4249715"><ele>34.7</ele><time>2015-04-26T16:13:02.0000000+00:00</time></trkpt><trkpt lat="35.0364752" lon="32.4249052"><ele>34.1</ele><time>2015-04-26T16:13:04.0000000+00:00</time></trkpt><trkpt lat="35.0364622" lon="32.4248478"><ele>34.0</ele><time>2015-04-26T16:13:06.0000000+00:00</time></trkpt><trkpt lat="35.0364592" lon="32.4247904"><ele>33.9</ele><time>2015-04-26T16:13:09.0000000+00:00</time></trkpt><trkpt lat="35.03644" lon="32.4247392"><ele>33.9</ele><time>2015-04-26T16:13:12.0000000+00:00</time></trkpt><trkpt lat="35.0363964" lon="32.424705"><ele>33.9</ele><time>2015-04-26T16:13:14.0000000+00:00</time></trkpt><trkpt lat="35.0363288" lon="32.4246874"><ele>34.2</ele><time>2015-04-26T16:13:16.0000000+00:00</time></trkpt><trkpt lat="35.0362655" lon="32.4246848"><ele>34.0</ele><time>2015-04-26T16:13:18.0000000+00:00</time></trkpt><trkpt lat="35.0362012" lon="32.4246936"><ele>33.4</ele><time>2015-04-26T16:13:20.0000000+00:00</time></trkpt><trkpt lat="35.036141" lon="32.4246993"><ele>33.8</ele><time>2015-04-26T16:13:22.0000000+00:00</time></trkpt><trkpt lat="35.0360833" lon="32.4247008"><ele>33.9</ele><time>2015-04-26T16:13:24.0000000+00:00</time></trkpt><trkpt lat="35.0360279" lon="32.4247011"><ele>32.7</ele><time>2015-04-26T16:13:26.0000000+00:00</time></trkpt><trkpt lat="35.0359771" lon="32.424701"><ele>33.6</ele><time>2015-04-26T16:13:28.0000000+00:00</time></trkpt><trkpt lat="35.0359237" lon="32.4247098"><ele>33.9</ele><time>2015-04-26T16:13:30.0000000+00:00</time></trkpt><trkpt lat="35.0358701" lon="32.4247165"><ele>33.9</ele><time>2015-04-26T16:13:32.0000000+00:00</time></trkpt><trkpt lat="35.0358178" lon="32.4247251"><ele>33.9</ele><time>2015-04-26T16:13:34.0000000+00:00</time></trkpt><trkpt lat="35.0357675" lon="32.4247322"><ele>33.9</ele><time>2015-04-26T16:13:36.0000000+00:00</time></trkpt><trkpt lat="35.0357196" lon="32.424744"><ele>34.4</ele><time>2015-04-26T16:13:38.0000000+00:00</time></trkpt><trkpt lat="35.0356703" lon="32.4247587"><ele>34.8</ele><time>2015-04-26T16:13:40.0000000+00:00</time></trkpt><trkpt lat="35.035627" lon="32.4247798"><ele>34.9</ele><time>2015-04-26T16:13:42.0000000+00:00</time></trkpt><trkpt lat="35.0355837" lon="32.4248034"><ele>34.9</ele><time>2015-04-26T16:13:44.0000000+00:00</time></trkpt><trkpt lat="35.0355406" lon="32.4248221"><ele>35.4</ele><time>2015-04-26T16:13:46.0000000+00:00</time></trkpt><trkpt lat="35.0354985" lon="32.4248422"><ele>35.8</ele><time>2015-04-26T16:13:48.0000000+00:00</time></trkpt><trkpt lat="35.0354368" lon="32.4248619"><ele>36.4</ele><time>2015-04-26T16:13:51.0000000+00:00</time></trkpt><trkpt lat="35.035393" lon="32.4248798"><ele>36.0</ele><time>2015-04-26T16:13:54.0000000+00:00</time></trkpt><trkpt lat="35.0353467" lon="32.4249022"><ele>37.2</ele><time>2015-04-26T16:13:57.0000000+00:00</time></trkpt><trkpt lat="35.0353119" lon="32.4249448"><ele>39.1</ele><time>2015-04-26T16:14:01.0000000+00:00</time></trkpt><trkpt lat="35.0353264" lon="32.4250018"><ele>39.8</ele><time>2015-04-26T16:14:04.0000000+00:00</time></trkpt><trkpt lat="35.0353452" lon="32.4250657"><ele>39.9</ele><time>2015-04-26T16:14:07.0000000+00:00</time></trkpt><trkpt lat="35.0353594" lon="32.4251334"><ele>40.7</ele><time>2015-04-26T16:14:09.0000000+00:00</time></trkpt><trkpt lat="35.0353876" lon="32.4252148"><ele>40.1</ele><time>2015-04-26T16:14:11.0000000+00:00</time></trkpt><trkpt lat="35.0354152" lon="32.4252669"><ele>40.0</ele><time>2015-04-26T16:14:13.0000000+00:00</time></trkpt><trkpt lat="35.0354336" lon="32.4253179"><ele>40.4</ele><time>2015-04-26T16:14:15.0000000+00:00</time></trkpt><trkpt lat="35.0354538" lon="32.4254016"><ele>40.8</ele><time>2015-04-26T16:14:18.0000000+00:00</time></trkpt><trkpt lat="35.0354674" lon="32.4254545"><ele>40.9</ele><time>2015-04-26T16:14:20.0000000+00:00</time></trkpt><trkpt lat="35.035492" lon="32.4255303"><ele>40.1</ele><time>2015-04-26T16:14:23.0000000+00:00</time></trkpt><trkpt lat="35.0355098" lon="32.4255857"><ele>39.7</ele><time>2015-04-26T16:14:25.0000000+00:00</time></trkpt><trkpt lat="35.0355305" lon="32.4256508"><ele>39.9</ele><time>2015-04-26T16:14:27.0000000+00:00</time></trkpt><trkpt lat="35.0355463" lon="32.4257222"><ele>39.2</ele><time>2015-04-26T16:14:29.0000000+00:00</time></trkpt><trkpt lat="35.0355602" lon="32.4257915"><ele>39.0</ele><time>2015-04-26T16:14:31.0000000+00:00</time></trkpt><trkpt lat="35.0355743" lon="32.4258613"><ele>38.4</ele><time>2015-04-26T16:14:33.0000000+00:00</time></trkpt><trkpt lat="35.0355926" lon="32.425931"><ele>38.1</ele><time>2015-04-26T16:14:35.0000000+00:00</time></trkpt><trkpt lat="35.0356131" lon="32.4260001"><ele>38.0</ele><time>2015-04-26T16:14:37.0000000+00:00</time></trkpt><trkpt lat="35.0356376" lon="32.4260671"><ele>37.9</ele><time>2015-04-26T16:14:39.0000000+00:00</time></trkpt><trkpt lat="35.0356599" lon="32.426136"><ele>37.9</ele><time>2015-04-26T16:14:41.0000000+00:00</time></trkpt><trkpt lat="35.0356725" lon="32.4262081"><ele>38.7</ele><time>2015-04-26T16:14:43.0000000+00:00</time></trkpt><trkpt lat="35.0356836" lon="32.4263073"><ele>38.1</ele><time>2015-04-26T16:14:45.0000000+00:00</time></trkpt><trkpt lat="35.0357066" lon="32.4263943"><ele>38.0</ele><time>2015-04-26T16:14:47.0000000+00:00</time></trkpt><trkpt lat="35.0357296" lon="32.4264753"><ele>37.9</ele><time>2015-04-26T16:14:49.0000000+00:00</time></trkpt><trkpt lat="35.0357508" lon="32.4265474"><ele>37.7</ele><time>2015-04-26T16:14:51.0000000+00:00</time></trkpt><trkpt lat="35.0357694" lon="32.4266195"><ele>37.4</ele><time>2015-04-26T16:14:53.0000000+00:00</time></trkpt><trkpt lat="35.0357837" lon="32.4266954"><ele>36.5</ele><time>2015-04-26T16:14:55.0000000+00:00</time></trkpt><trkpt lat="35.0357977" lon="32.426776"><ele>36.1</ele><time>2015-04-26T16:14:57.0000000+00:00</time></trkpt><trkpt lat="35.0358169" lon="32.4268721"><ele>36.0</ele><time>2015-04-26T16:14:59.0000000+00:00</time></trkpt><trkpt lat="35.0358219" lon="32.4269465"><ele>34.7</ele><time>2015-04-26T16:15:01.0000000+00:00</time></trkpt><trkpt lat="35.0358205" lon="32.4270017"><ele>34.1</ele><time>2015-04-26T16:15:03.0000000+00:00</time></trkpt><trkpt lat="35.0358349" lon="32.4270649"><ele>34.5</ele><time>2015-04-26T16:15:05.0000000+00:00</time></trkpt><trkpt lat="35.0358584" lon="32.4271293"><ele>35.3</ele><time>2015-04-26T16:15:07.0000000+00:00</time></trkpt><trkpt lat="35.035879" lon="32.4271953"><ele>35.8</ele><time>2015-04-26T16:15:09.0000000+00:00</time></trkpt><trkpt lat="35.0358975" lon="32.4272583"><ele>35.4</ele><time>2015-04-26T16:15:11.0000000+00:00</time></trkpt><trkpt lat="35.0359214" lon="32.427313"><ele>34.5</ele><time>2015-04-26T16:15:13.0000000+00:00</time></trkpt><trkpt lat="35.0359779" lon="32.4273477"><ele>35.3</ele><time>2015-04-26T16:15:15.0000000+00:00</time></trkpt><trkpt lat="35.0360181" lon="32.4274216"><ele>36.5</ele><time>2015-04-26T16:15:17.0000000+00:00</time></trkpt><trkpt lat="35.0360131" lon="32.4275052"><ele>37.6</ele><time>2015-04-26T16:15:19.0000000+00:00</time></trkpt><trkpt lat="35.0359686" lon="32.4275834"><ele>37.1</ele><time>2015-04-26T16:15:21.0000000+00:00</time></trkpt><trkpt lat="35.0359056" lon="32.4276555"><ele>37.0</ele><time>2015-04-26T16:15:23.0000000+00:00</time></trkpt><trkpt lat="35.0358586" lon="32.4277227"><ele>36.9</ele><time>2015-04-26T16:15:25.0000000+00:00</time></trkpt><trkpt lat="35.035838" lon="32.4277878"><ele>36.2</ele><time>2015-04-26T16:15:27.0000000+00:00</time></trkpt><trkpt lat="35.0358288" lon="32.4278521"><ele>36.0</ele><time>2015-04-26T16:15:29.0000000+00:00</time></trkpt><trkpt lat="35.035822" lon="32.4279133"><ele>35.9</ele><time>2015-04-26T16:15:31.0000000+00:00</time></trkpt><trkpt lat="35.0358139" lon="32.4279677"><ele>35.9</ele><time>2015-04-26T16:15:33.0000000+00:00</time></trkpt><trkpt lat="35.0358099" lon="32.4280278"><ele>35.9</ele><time>2015-04-26T16:15:37.0000000+00:00</time></trkpt><trkpt lat="35.0357851" lon="32.4280896"><ele>38.8</ele><time>2015-04-26T16:17:19.0000000+00:00</time></trkpt><trkpt lat="35.0357722" lon="32.4281511"><ele>42.2</ele><time>2015-04-26T16:17:22.0000000+00:00</time></trkpt><trkpt lat="35.0357689" lon="32.4282614"><ele>42.1</ele><time>2015-04-26T16:17:25.0000000+00:00</time></trkpt><trkpt lat="35.0357957" lon="32.4283444"><ele>41.0</ele><time>2015-04-26T16:17:27.0000000+00:00</time></trkpt><trkpt lat="35.0358259" lon="32.4284251"><ele>40.4</ele><time>2015-04-26T16:17:29.0000000+00:00</time></trkpt><trkpt lat="35.0358556" lon="32.4285093"><ele>39.6</ele><time>2015-04-26T16:17:31.0000000+00:00</time></trkpt><trkpt lat="35.0359005" lon="32.4286776"><ele>37.8</ele><time>2015-04-26T16:17:33.0000000+00:00</time></trkpt><trkpt lat="35.0359213" lon="32.4287518"><ele>36.9</ele><time>2015-04-26T16:17:34.0000000+00:00</time></trkpt><trkpt lat="35.0359508" lon="32.4288252"><ele>35.9</ele><time>2015-04-26T16:17:35.0000000+00:00</time></trkpt><trkpt lat="35.0359697" lon="32.4288954"><ele>35.4</ele><time>2015-04-26T16:17:36.0000000+00:00</time></trkpt><trkpt lat="35.0360082" lon="32.428966"><ele>35.2</ele><time>2015-04-26T16:17:37.0000000+00:00</time></trkpt><trkpt lat="35.0360303" lon="32.4290436"><ele>35.6</ele><time>2015-04-26T16:17:38.0000000+00:00</time></trkpt><trkpt lat="35.0360443" lon="32.429118"><ele>34.7</ele><time>2015-04-26T16:17:39.0000000+00:00</time></trkpt><trkpt lat="35.0360682" lon="32.4291933"><ele>34.3</ele><time>2015-04-26T16:17:40.0000000+00:00</time></trkpt><trkpt lat="35.036084" lon="32.4292675"><ele>33.6</ele><time>2015-04-26T16:17:41.0000000+00:00</time></trkpt><trkpt lat="35.0361065" lon="32.4293436"><ele>33.3</ele><time>2015-04-26T16:17:42.0000000+00:00</time></trkpt><trkpt lat="35.03613" lon="32.429437"><ele>32.6</ele><time>2015-04-26T16:17:43.0000000+00:00</time></trkpt><trkpt lat="35.0361622" lon="32.4295048"><ele>32.3</ele><time>2015-04-26T16:17:44.0000000+00:00</time></trkpt><trkpt lat="35.0361888" lon="32.429573"><ele>31.6</ele><time>2015-04-26T16:17:45.0000000+00:00</time></trkpt><trkpt lat="35.0362042" lon="32.4296417"><ele>31.8</ele><time>2015-04-26T16:17:46.0000000+00:00</time></trkpt><trkpt lat="35.036219" lon="32.4297024"><ele>32.3</ele><time>2015-04-26T16:17:47.0000000+00:00</time></trkpt><trkpt lat="35.0362505" lon="32.4297492"><ele>32.6</ele><time>2015-04-26T16:17:48.0000000+00:00</time></trkpt><trkpt lat="35.0362722" lon="32.4298226"><ele>32.4</ele><time>2015-04-26T16:17:50.0000000+00:00</time></trkpt><trkpt lat="35.0362986" lon="32.429875"><ele>31.0</ele><time>2015-04-26T16:17:54.0000000+00:00</time></trkpt><trkpt lat="35.036292" lon="32.4299308"><ele>31.5</ele><time>2015-04-26T16:19:39.0000000+00:00</time></trkpt><trkpt lat="35.0362576" lon="32.4299738"><ele>31.3</ele><time>2015-04-26T16:19:43.0000000+00:00</time></trkpt><trkpt lat="35.036259" lon="32.4300368"><ele>30.5</ele><time>2015-04-26T16:19:45.0000000+00:00</time></trkpt><trkpt lat="35.0362469" lon="32.4301009"><ele>30.1</ele><time>2015-04-26T16:19:47.0000000+00:00</time></trkpt><trkpt lat="35.0362045" lon="32.4301565"><ele>30.5</ele><time>2015-04-26T16:19:49.0000000+00:00</time></trkpt><trkpt lat="35.0361774" lon="32.4302043"><ele>31.3</ele><time>2015-04-26T16:19:51.0000000+00:00</time></trkpt><trkpt lat="35.0362299" lon="32.4302241"><ele>31.9</ele><time>2015-04-26T16:19:54.0000000+00:00</time></trkpt><trkpt lat="35.036263" lon="32.4301675"><ele>30.7</ele><time>2015-04-26T16:19:56.0000000+00:00</time></trkpt><trkpt lat="35.0362763" lon="32.4300955"><ele>30.1</ele><time>2015-04-26T16:19:58.0000000+00:00</time></trkpt><trkpt lat="35.0362653" lon="32.4300262"><ele>30.0</ele><time>2015-04-26T16:20:00.0000000+00:00</time></trkpt><trkpt lat="35.036246" lon="32.4299645"><ele>29.9</ele><time>2015-04-26T16:20:02.0000000+00:00</time></trkpt><trkpt lat="35.0362269" lon="32.4299053"><ele>29.4</ele><time>2015-04-26T16:20:04.0000000+00:00</time></trkpt><trkpt lat="35.0362065" lon="32.4298511"><ele>29.3</ele><time>2015-04-26T16:20:06.0000000+00:00</time></trkpt><trkpt lat="35.0361801" lon="32.4297729"><ele>30.5</ele><time>2015-04-26T16:20:08.0000000+00:00</time></trkpt><trkpt lat="35.0361527" lon="32.4296914"><ele>31.3</ele><time>2015-04-26T16:20:10.0000000+00:00</time></trkpt><trkpt lat="35.0361289" lon="32.4296191"><ele>31.5</ele><time>2015-04-26T16:20:12.0000000+00:00</time></trkpt><trkpt lat="35.0360847" lon="32.4295822"><ele>30.6</ele><time>2015-04-26T16:20:14.0000000+00:00</time></trkpt><trkpt lat="35.0360261" lon="32.4295998"><ele>29.6</ele><time>2015-04-26T16:20:16.0000000+00:00</time></trkpt><trkpt lat="35.0359648" lon="32.4296265"><ele>29.1</ele><time>2015-04-26T16:20:18.0000000+00:00</time></trkpt><trkpt lat="35.0359078" lon="32.4296533"><ele>28.5</ele><time>2015-04-26T16:20:20.0000000+00:00</time></trkpt><trkpt lat="35.0358514" lon="32.4296866"><ele>28.1</ele><time>2015-04-26T16:20:22.0000000+00:00</time></trkpt><trkpt lat="35.0357989" lon="32.429725"><ele>27.7</ele><time>2015-04-26T16:20:24.0000000+00:00</time></trkpt><trkpt lat="35.0357485" lon="32.4297646"><ele>27.9</ele><time>2015-04-26T16:20:26.0000000+00:00</time></trkpt><trkpt lat="35.0356992" lon="32.4298086"><ele>28.7</ele><time>2015-04-26T16:20:28.0000000+00:00</time></trkpt><trkpt lat="35.0356467" lon="32.4298432"><ele>29.4</ele><time>2015-04-26T16:20:30.0000000+00:00</time></trkpt><trkpt lat="35.0355943" lon="32.4298704"><ele>29.8</ele><time>2015-04-26T16:20:32.0000000+00:00</time></trkpt><trkpt lat="35.0355454" lon="32.4298835"><ele>29.4</ele><time>2015-04-26T16:20:34.0000000+00:00</time></trkpt><trkpt lat="35.0354924" lon="32.4298985"><ele>29.9</ele><time>2015-04-26T16:20:37.0000000+00:00</time></trkpt><trkpt lat="35.0355117" lon="32.4298473"><ele>28.4</ele><time>2015-04-26T16:20:40.0000000+00:00</time></trkpt><trkpt lat="35.0355373" lon="32.429898"><ele>24.7</ele><time>2015-04-26T16:27:31.0000000+00:00</time></trkpt><trkpt lat="35.0355486" lon="32.4299618"><ele>27.2</ele><time>2015-04-26T16:27:35.0000000+00:00</time></trkpt><trkpt lat="35.0355934" lon="32.4298957"><ele>28.9</ele><time>2015-04-26T16:27:48.0000000+00:00</time></trkpt><trkpt lat="35.0356556" lon="32.4298561"><ele>28.9</ele><time>2015-04-26T16:27:50.0000000+00:00</time></trkpt><trkpt lat="35.0357165" lon="32.4298135"><ele>28.9</ele><time>2015-04-26T16:27:52.0000000+00:00</time></trkpt><trkpt lat="35.0357776" lon="32.4297685"><ele>28.9</ele><time>2015-04-26T16:27:54.0000000+00:00</time></trkpt><trkpt lat="35.0358357" lon="32.4297291"><ele>28.9</ele><time>2015-04-26T16:27:56.0000000+00:00</time></trkpt><trkpt lat="35.0358879" lon="32.4296891"><ele>28.9</ele><time>2015-04-26T16:27:58.0000000+00:00</time></trkpt><trkpt lat="35.0359406" lon="32.4296563"><ele>28.4</ele><time>2015-04-26T16:28:00.0000000+00:00</time></trkpt><trkpt lat="35.0359931" lon="32.4296295"><ele>28.8</ele><time>2015-04-26T16:28:02.0000000+00:00</time></trkpt><trkpt lat="35.0360352" lon="32.4296061"><ele>28.9</ele><time>2015-04-26T16:28:04.0000000+00:00</time></trkpt><trkpt lat="35.036097" lon="32.4295939"><ele>30.4</ele><time>2015-04-26T16:28:07.0000000+00:00</time></trkpt><trkpt lat="35.0361365" lon="32.4296351"><ele>30.8</ele><time>2015-04-26T16:28:09.0000000+00:00</time></trkpt><trkpt lat="35.0361389" lon="32.4297032"><ele>30.6</ele><time>2015-04-26T16:28:11.0000000+00:00</time></trkpt><trkpt lat="35.0361131" lon="32.4297486"><ele>32.9</ele><time>2015-04-26T16:28:13.0000000+00:00</time></trkpt><trkpt lat="35.0361033" lon="32.4296946"><ele>32.9</ele><time>2015-04-26T16:28:21.0000000+00:00</time></trkpt><trkpt lat="35.0361665" lon="32.429725"><ele>34.1</ele><time>2015-04-26T16:28:43.0000000+00:00</time></trkpt><trkpt lat="35.0362153" lon="32.4297943"><ele>34.0</ele><time>2015-04-26T16:28:45.0000000+00:00</time></trkpt><trkpt lat="35.0362568" lon="32.4298681"><ele>33.4</ele><time>2015-04-26T16:28:47.0000000+00:00</time></trkpt><trkpt lat="35.0362912" lon="32.4299475"><ele>33.1</ele><time>2015-04-26T16:28:49.0000000+00:00</time></trkpt><trkpt lat="35.0363209" lon="32.4300269"><ele>33.0</ele><time>2015-04-26T16:28:51.0000000+00:00</time></trkpt><trkpt lat="35.0363471" lon="32.4301062"><ele>32.2</ele><time>2015-04-26T16:28:53.0000000+00:00</time></trkpt><trkpt lat="35.0363772" lon="32.4301826"><ele>32.0</ele><time>2015-04-26T16:28:55.0000000+00:00</time></trkpt><trkpt lat="35.0364096" lon="32.4302611"><ele>31.9</ele><time>2015-04-26T16:28:57.0000000+00:00</time></trkpt><trkpt lat="35.0364484" lon="32.4303477"><ele>31.9</ele><time>2015-04-26T16:28:59.0000000+00:00</time></trkpt><trkpt lat="35.0364722" lon="32.4303953"><ele>31.9</ele><time>2015-04-26T16:29:00.0000000+00:00</time></trkpt><trkpt lat="35.0365207" lon="32.430486"><ele>31.4</ele><time>2015-04-26T16:29:02.0000000+00:00</time></trkpt><trkpt lat="35.0365697" lon="32.4305747"><ele>31.1</ele><time>2015-04-26T16:29:04.0000000+00:00</time></trkpt><trkpt lat="35.0366193" lon="32.4306592"><ele>31.0</ele><time>2015-04-26T16:29:06.0000000+00:00</time></trkpt><trkpt lat="35.0366687" lon="32.4307474"><ele>30.9</ele><time>2015-04-26T16:29:08.0000000+00:00</time></trkpt><trkpt lat="35.036699" lon="32.430806"><ele>30.9</ele><time>2015-04-26T16:29:09.0000000+00:00</time></trkpt><trkpt lat="35.0367217" lon="32.4308623"><ele>30.4</ele><time>2015-04-26T16:29:10.0000000+00:00</time></trkpt><trkpt lat="35.0367449" lon="32.430916"><ele>30.2</ele><time>2015-04-26T16:29:11.0000000+00:00</time></trkpt><trkpt lat="35.0367697" lon="32.43097"><ele>30.6</ele><time>2015-04-26T16:29:12.0000000+00:00</time></trkpt><trkpt lat="35.0367961" lon="32.4310249"><ele>30.2</ele><time>2015-04-26T16:29:13.0000000+00:00</time></trkpt><trkpt lat="35.0368229" lon="32.4310806"><ele>30.1</ele><time>2015-04-26T16:29:14.0000000+00:00</time></trkpt><trkpt lat="35.0368479" lon="32.4311347"><ele>30.0</ele><time>2015-04-26T16:29:15.0000000+00:00</time></trkpt><trkpt lat="35.036876" lon="32.4311886"><ele>30.0</ele><time>2015-04-26T16:29:16.0000000+00:00</time></trkpt><trkpt lat="35.0369003" lon="32.4312398"><ele>29.9</ele><time>2015-04-26T16:29:17.0000000+00:00</time></trkpt><trkpt lat="35.036923" lon="32.4312883"><ele>29.9</ele><time>2015-04-26T16:29:18.0000000+00:00</time></trkpt><trkpt lat="35.036968" lon="32.4313762"><ele>29.9</ele><time>2015-04-26T16:29:20.0000000+00:00</time></trkpt><trkpt lat="35.0370111" lon="32.4314643"><ele>29.9</ele><time>2015-04-26T16:29:22.0000000+00:00</time></trkpt><trkpt lat="35.0370315" lon="32.4315184"><ele>29.9</ele><time>2015-04-26T16:29:23.0000000+00:00</time></trkpt><trkpt lat="35.0370474" lon="32.4315786"><ele>29.9</ele><time>2015-04-26T16:29:24.0000000+00:00</time></trkpt><trkpt lat="35.0370612" lon="32.4316392"><ele>29.9</ele><time>2015-04-26T16:29:25.0000000+00:00</time></trkpt><trkpt lat="35.0370831" lon="32.431696"><ele>29.9</ele><time>2015-04-26T16:29:26.0000000+00:00</time></trkpt><trkpt lat="35.0371017" lon="32.4317548"><ele>29.9</ele><time>2015-04-26T16:29:27.0000000+00:00</time></trkpt><trkpt lat="35.0371191" lon="32.4318141"><ele>29.9</ele><time>2015-04-26T16:29:28.0000000+00:00</time></trkpt><trkpt lat="35.0371501" lon="32.4319163"><ele>29.9</ele><time>2015-04-26T16:29:30.0000000+00:00</time></trkpt><trkpt lat="35.0371669" lon="32.4319719"><ele>29.9</ele><time>2015-04-26T16:29:31.0000000+00:00</time></trkpt><trkpt lat="35.0371878" lon="32.4320266"><ele>30.4</ele><time>2015-04-26T16:29:32.0000000+00:00</time></trkpt><trkpt lat="35.0372096" lon="32.43209"><ele>30.7</ele><time>2015-04-26T16:29:33.0000000+00:00</time></trkpt><trkpt lat="35.037229" lon="32.4321544"><ele>30.8</ele><time>2015-04-26T16:29:34.0000000+00:00</time></trkpt><trkpt lat="35.0372592" lon="32.4321964"><ele>30.9</ele><time>2015-04-26T16:29:35.0000000+00:00</time></trkpt><trkpt lat="35.0372761" lon="32.4322584"><ele>30.9</ele><time>2015-04-26T16:29:36.0000000+00:00</time></trkpt><trkpt lat="35.0372905" lon="32.4323122"><ele>30.4</ele><time>2015-04-26T16:29:37.0000000+00:00</time></trkpt><trkpt lat="35.0373129" lon="32.4323717"><ele>30.2</ele><time>2015-04-26T16:29:38.0000000+00:00</time></trkpt><trkpt lat="35.0373342" lon="32.4324266"><ele>30.1</ele><time>2015-04-26T16:29:39.0000000+00:00</time></trkpt><trkpt lat="35.03737" lon="32.4325301"><ele>30.0</ele><time>2015-04-26T16:29:41.0000000+00:00</time></trkpt><trkpt lat="35.0373942" lon="32.4325786"><ele>29.9</ele><time>2015-04-26T16:29:42.0000000+00:00</time></trkpt><trkpt lat="35.0374139" lon="32.4326328"><ele>30.4</ele><time>2015-04-26T16:29:43.0000000+00:00</time></trkpt><trkpt lat="35.0374364" lon="32.4326814"><ele>30.7</ele><time>2015-04-26T16:29:44.0000000+00:00</time></trkpt><trkpt lat="35.0374807" lon="32.432772"><ele>31.3</ele><time>2015-04-26T16:29:46.0000000+00:00</time></trkpt><trkpt lat="35.0375024" lon="32.4328231"><ele>31.6</ele><time>2015-04-26T16:29:47.0000000+00:00</time></trkpt><trkpt lat="35.0375289" lon="32.4328677"><ele>31.8</ele><time>2015-04-26T16:29:48.0000000+00:00</time></trkpt><trkpt lat="35.0375708" lon="32.4329505"><ele>31.9</ele><time>2015-04-26T16:29:50.0000000+00:00</time></trkpt><trkpt lat="35.0376119" lon="32.4330053"><ele>31.4</ele><time>2015-04-26T16:29:52.0000000+00:00</time></trkpt><trkpt lat="35.0376495" lon="32.4330783"><ele>31.8</ele><time>2015-04-26T16:29:54.0000000+00:00</time></trkpt><trkpt lat="35.0376896" lon="32.4331484"><ele>31.6</ele><time>2015-04-26T16:29:56.0000000+00:00</time></trkpt><trkpt lat="35.0377271" lon="32.4332198"><ele>31.9</ele><time>2015-04-26T16:29:58.0000000+00:00</time></trkpt><trkpt lat="35.0377661" lon="32.433287"><ele>32.7</ele><time>2015-04-26T16:30:00.0000000+00:00</time></trkpt><trkpt lat="35.0378045" lon="32.4333569"><ele>32.9</ele><time>2015-04-26T16:30:02.0000000+00:00</time></trkpt><trkpt lat="35.0378358" lon="32.4334257"><ele>32.4</ele><time>2015-04-26T16:30:04.0000000+00:00</time></trkpt><trkpt lat="35.0378604" lon="32.4334753"><ele>32.8</ele><time>2015-04-26T16:30:06.0000000+00:00</time></trkpt><trkpt lat="35.0378953" lon="32.4335189"><ele>32.9</ele><time>2015-04-26T16:30:08.0000000+00:00</time></trkpt><trkpt lat="35.0379418" lon="32.4335691"><ele>32.9</ele><time>2015-04-26T16:30:10.0000000+00:00</time></trkpt><trkpt lat="35.0379967" lon="32.4336154"><ele>32.9</ele><time>2015-04-26T16:30:12.0000000+00:00</time></trkpt><trkpt lat="35.0380439" lon="32.4336633"><ele>32.9</ele><time>2015-04-26T16:30:14.0000000+00:00</time></trkpt><trkpt lat="35.0380893" lon="32.4337132"><ele>32.9</ele><time>2015-04-26T16:30:16.0000000+00:00</time></trkpt><trkpt lat="35.038138" lon="32.4337615"><ele>32.9</ele><time>2015-04-26T16:30:18.0000000+00:00</time></trkpt><trkpt lat="35.0381896" lon="32.4338102"><ele>33.4</ele><time>2015-04-26T16:30:20.0000000+00:00</time></trkpt><trkpt lat="35.038234" lon="32.4338715"><ele>33.8</ele><time>2015-04-26T16:30:22.0000000+00:00</time></trkpt><trkpt lat="35.0382852" lon="32.4339365"><ele>33.1</ele><time>2015-04-26T16:30:24.0000000+00:00</time></trkpt><trkpt lat="35.0383452" lon="32.4339995"><ele>32.7</ele><time>2015-04-26T16:30:26.0000000+00:00</time></trkpt><trkpt lat="35.0383986" lon="32.4340701"><ele>32.1</ele><time>2015-04-26T16:30:28.0000000+00:00</time></trkpt><trkpt lat="35.0384515" lon="32.4341436"><ele>32.5</ele><time>2015-04-26T16:30:30.0000000+00:00</time></trkpt><trkpt lat="35.0385078" lon="32.4342158"><ele>32.8</ele><time>2015-04-26T16:30:32.0000000+00:00</time></trkpt><trkpt lat="35.0385604" lon="32.4342857"><ele>32.9</ele><time>2015-04-26T16:30:34.0000000+00:00</time></trkpt><trkpt lat="35.038603" lon="32.4343515"><ele>32.9</ele><time>2015-04-26T16:30:36.0000000+00:00</time></trkpt><trkpt lat="35.0386436" lon="32.4344114"><ele>32.9</ele><time>2015-04-26T16:30:38.0000000+00:00</time></trkpt><trkpt lat="35.0386781" lon="32.4344765"><ele>32.7</ele><time>2015-04-26T16:30:40.0000000+00:00</time></trkpt><trkpt lat="35.0386973" lon="32.4345517"><ele>32.9</ele><time>2015-04-26T16:30:42.0000000+00:00</time></trkpt><trkpt lat="35.0387059" lon="32.434625"><ele>32.9</ele><time>2015-04-26T16:30:44.0000000+00:00</time></trkpt><trkpt lat="35.0387156" lon="32.4346821"><ele>32.2</ele><time>2015-04-26T16:30:47.0000000+00:00</time></trkpt><trkpt lat="35.0387405" lon="32.4347722"><ele>32.7</ele><time>2015-04-26T16:30:50.0000000+00:00</time></trkpt><trkpt lat="35.038765" lon="32.4348587"><ele>32.9</ele><time>2015-04-26T16:30:52.0000000+00:00</time></trkpt><trkpt lat="35.0387896" lon="32.4349463"><ele>32.7</ele><time>2015-04-26T16:30:54.0000000+00:00</time></trkpt><trkpt lat="35.0388194" lon="32.4350486"><ele>32.9</ele><time>2015-04-26T16:30:56.0000000+00:00</time></trkpt><trkpt lat="35.0388342" lon="32.4351208"><ele>32.9</ele><time>2015-04-26T16:30:57.0000000+00:00</time></trkpt><trkpt lat="35.0388479" lon="32.435179"><ele>32.9</ele><time>2015-04-26T16:30:58.0000000+00:00</time></trkpt><trkpt lat="35.0388615" lon="32.435235"><ele>32.9</ele><time>2015-04-26T16:30:59.0000000+00:00</time></trkpt><trkpt lat="35.0388791" lon="32.4352929"><ele>32.9</ele><time>2015-04-26T16:31:00.0000000+00:00</time></trkpt><trkpt lat="35.0388961" lon="32.4353492"><ele>32.9</ele><time>2015-04-26T16:31:01.0000000+00:00</time></trkpt><trkpt lat="35.038912" lon="32.4354078"><ele>32.9</ele><time>2015-04-26T16:31:02.0000000+00:00</time></trkpt><trkpt lat="35.0389324" lon="32.4354685"><ele>32.9</ele><time>2015-04-26T16:31:03.0000000+00:00</time></trkpt><trkpt lat="35.0389529" lon="32.4355339"><ele>32.9</ele><time>2015-04-26T16:31:04.0000000+00:00</time></trkpt><trkpt lat="35.0389739" lon="32.4355907"><ele>32.9</ele><time>2015-04-26T16:31:05.0000000+00:00</time></trkpt><trkpt lat="35.0389954" lon="32.4356507"><ele>32.9</ele><time>2015-04-26T16:31:06.0000000+00:00</time></trkpt><trkpt lat="35.0390214" lon="32.4357079"><ele>33.4</ele><time>2015-04-26T16:31:07.0000000+00:00</time></trkpt><trkpt lat="35.0390455" lon="32.4357641"><ele>33.7</ele><time>2015-04-26T16:31:08.0000000+00:00</time></trkpt><trkpt lat="35.0390714" lon="32.4358154"><ele>33.8</ele><time>2015-04-26T16:31:09.0000000+00:00</time></trkpt><trkpt lat="35.0390977" lon="32.4358678"><ele>33.9</ele><time>2015-04-26T16:31:10.0000000+00:00</time></trkpt><trkpt lat="35.0391266" lon="32.4359113"><ele>34.4</ele><time>2015-04-26T16:31:11.0000000+00:00</time></trkpt><trkpt lat="35.0391575" lon="32.4359524"><ele>34.7</ele><time>2015-04-26T16:31:12.0000000+00:00</time></trkpt><trkpt lat="35.0392123" lon="32.4360204"><ele>34.9</ele><time>2015-04-26T16:31:14.0000000+00:00</time></trkpt><trkpt lat="35.039266" lon="32.4360877"><ele>34.9</ele><time>2015-04-26T16:31:16.0000000+00:00</time></trkpt><trkpt lat="35.0393168" lon="32.4361449"><ele>34.9</ele><time>2015-04-26T16:31:18.0000000+00:00</time></trkpt><trkpt lat="35.0393801" lon="32.4362103"><ele>34.9</ele><time>2015-04-26T16:31:20.0000000+00:00</time></trkpt><trkpt lat="35.039436" lon="32.4362871"><ele>35.7</ele><time>2015-04-26T16:31:22.0000000+00:00</time></trkpt><trkpt lat="35.0394938" lon="32.4363562"><ele>35.9</ele><time>2015-04-26T16:31:24.0000000+00:00</time></trkpt><trkpt lat="35.0395502" lon="32.4364185"><ele>35.2</ele><time>2015-04-26T16:31:26.0000000+00:00</time></trkpt><trkpt lat="35.0395977" lon="32.4364784"><ele>35.0</ele><time>2015-04-26T16:31:28.0000000+00:00</time></trkpt><trkpt lat="35.0396387" lon="32.4365353"><ele>35.2</ele><time>2015-04-26T16:31:30.0000000+00:00</time></trkpt><trkpt lat="35.039681" lon="32.4365871"><ele>35.5</ele><time>2015-04-26T16:31:32.0000000+00:00</time></trkpt><trkpt lat="35.0397237" lon="32.4366446"><ele>35.6</ele><time>2015-04-26T16:31:34.0000000+00:00</time></trkpt><trkpt lat="35.0397648" lon="32.4367112"><ele>35.8</ele><time>2015-04-26T16:31:36.0000000+00:00</time></trkpt><trkpt lat="35.0398038" lon="32.436785"><ele>35.9</ele><time>2015-04-26T16:31:38.0000000+00:00</time></trkpt><trkpt lat="35.0398492" lon="32.4368678"><ele>36.2</ele><time>2015-04-26T16:31:40.0000000+00:00</time></trkpt><trkpt lat="35.0398998" lon="32.4369595"><ele>36.7</ele><time>2015-04-26T16:31:42.0000000+00:00</time></trkpt><trkpt lat="35.0399282" lon="32.4370252"><ele>36.8</ele><time>2015-04-26T16:31:43.0000000+00:00</time></trkpt><trkpt lat="35.0399527" lon="32.4370724"><ele>36.9</ele><time>2015-04-26T16:31:44.0000000+00:00</time></trkpt><trkpt lat="35.0399838" lon="32.4371224"><ele>36.9</ele><time>2015-04-26T16:31:45.0000000+00:00</time></trkpt><trkpt lat="35.0400109" lon="32.4371693"><ele>36.9</ele><time>2015-04-26T16:31:46.0000000+00:00</time></trkpt><trkpt lat="35.04004" lon="32.4372163"><ele>37.4</ele><time>2015-04-26T16:31:47.0000000+00:00</time></trkpt><trkpt lat="35.0400694" lon="32.4372687"><ele>37.7</ele><time>2015-04-26T16:31:48.0000000+00:00</time></trkpt><trkpt lat="35.0401006" lon="32.4373154"><ele>37.8</ele><time>2015-04-26T16:31:49.0000000+00:00</time></trkpt><trkpt lat="35.0401317" lon="32.4373649"><ele>37.9</ele><time>2015-04-26T16:31:50.0000000+00:00</time></trkpt><trkpt lat="35.0401802" lon="32.4374648"><ele>37.9</ele><time>2015-04-26T16:31:52.0000000+00:00</time></trkpt><trkpt lat="35.0402093" lon="32.4375131"><ele>38.4</ele><time>2015-04-26T16:31:53.0000000+00:00</time></trkpt><trkpt lat="35.0402661" lon="32.4375952"><ele>38.8</ele><time>2015-04-26T16:31:55.0000000+00:00</time></trkpt><trkpt lat="35.0402953" lon="32.4376438"><ele>38.9</ele><time>2015-04-26T16:31:56.0000000+00:00</time></trkpt><trkpt lat="35.0403197" lon="32.4376924"><ele>38.9</ele><time>2015-04-26T16:31:57.0000000+00:00</time></trkpt><trkpt lat="35.040347" lon="32.4377388"><ele>38.9</ele><time>2015-04-26T16:31:58.0000000+00:00</time></trkpt><trkpt lat="35.0403765" lon="32.4377891"><ele>38.4</ele><time>2015-04-26T16:31:59.0000000+00:00</time></trkpt><trkpt lat="35.0404029" lon="32.4378393"><ele>38.2</ele><time>2015-04-26T16:32:00.0000000+00:00</time></trkpt><trkpt lat="35.0404285" lon="32.4378925"><ele>38.1</ele><time>2015-04-26T16:32:01.0000000+00:00</time></trkpt><trkpt lat="35.0404519" lon="32.4379484"><ele>38.5</ele><time>2015-04-26T16:32:02.0000000+00:00</time></trkpt><trkpt lat="35.0404759" lon="32.4379964"><ele>38.7</ele><time>2015-04-26T16:32:03.0000000+00:00</time></trkpt><trkpt lat="35.0405248" lon="32.4380905"><ele>38.1</ele><time>2015-04-26T16:32:05.0000000+00:00</time></trkpt><trkpt lat="35.0405465" lon="32.4381392"><ele>37.5</ele><time>2015-04-26T16:32:06.0000000+00:00</time></trkpt><trkpt lat="35.0405887" lon="32.4382366"><ele>37.6</ele><time>2015-04-26T16:32:08.0000000+00:00</time></trkpt><trkpt lat="35.0406364" lon="32.4383335"><ele>37.1</ele><time>2015-04-26T16:32:10.0000000+00:00</time></trkpt><trkpt lat="35.0406643" lon="32.438384"><ele>37.5</ele><time>2015-04-26T16:32:11.0000000+00:00</time></trkpt><trkpt lat="35.0406928" lon="32.4384383"><ele>37.7</ele><time>2015-04-26T16:32:12.0000000+00:00</time></trkpt><trkpt lat="35.0407219" lon="32.4384923"><ele>37.8</ele><time>2015-04-26T16:32:13.0000000+00:00</time></trkpt><trkpt lat="35.0407539" lon="32.43855"><ele>37.4</ele><time>2015-04-26T16:32:14.0000000+00:00</time></trkpt><trkpt lat="35.0407836" lon="32.4386036"><ele>37.2</ele><time>2015-04-26T16:32:15.0000000+00:00</time></trkpt><trkpt lat="35.0408135" lon="32.4386635"><ele>37.0</ele><time>2015-04-26T16:32:16.0000000+00:00</time></trkpt><trkpt lat="35.0408427" lon="32.4387259"><ele>37.0</ele><time>2015-04-26T16:32:17.0000000+00:00</time></trkpt><trkpt lat="35.040871" lon="32.4387797"><ele>37.0</ele><time>2015-04-26T16:32:18.0000000+00:00</time></trkpt><trkpt lat="35.040899" lon="32.4388401"><ele>36.9</ele><time>2015-04-26T16:32:19.0000000+00:00</time></trkpt><trkpt lat="35.0409259" lon="32.4388997"><ele>36.9</ele><time>2015-04-26T16:32:20.0000000+00:00</time></trkpt><trkpt lat="35.0409555" lon="32.4389578"><ele>36.9</ele><time>2015-04-26T16:32:21.0000000+00:00</time></trkpt><trkpt lat="35.0409921" lon="32.4390078"><ele>36.9</ele><time>2015-04-26T16:32:22.0000000+00:00</time></trkpt><trkpt lat="35.041024" lon="32.4390623"><ele>36.9</ele><time>2015-04-26T16:32:23.0000000+00:00</time></trkpt><trkpt lat="35.0410659" lon="32.4391207"><ele>36.9</ele><time>2015-04-26T16:32:24.0000000+00:00</time></trkpt><trkpt lat="35.0410999" lon="32.4391834"><ele>36.9</ele><time>2015-04-26T16:32:25.0000000+00:00</time></trkpt><trkpt lat="35.0411365" lon="32.4392478"><ele>36.9</ele><time>2015-04-26T16:32:26.0000000+00:00</time></trkpt><trkpt lat="35.0411713" lon="32.4393081"><ele>36.4</ele><time>2015-04-26T16:32:27.0000000+00:00</time></trkpt><trkpt lat="35.0412063" lon="32.4393555"><ele>36.2</ele><time>2015-04-26T16:32:28.0000000+00:00</time></trkpt><trkpt lat="35.0412428" lon="32.4394108"><ele>36.1</ele><time>2015-04-26T16:32:29.0000000+00:00</time></trkpt><trkpt lat="35.0412727" lon="32.4394615"><ele>36.0</ele><time>2015-04-26T16:32:30.0000000+00:00</time></trkpt><trkpt lat="35.0413084" lon="32.4395157"><ele>36.0</ele><time>2015-04-26T16:32:31.0000000+00:00</time></trkpt><trkpt lat="35.0413523" lon="32.4395655"><ele>35.9</ele><time>2015-04-26T16:32:32.0000000+00:00</time></trkpt><trkpt lat="35.0413897" lon="32.439614"><ele>36.4</ele><time>2015-04-26T16:32:33.0000000+00:00</time></trkpt><trkpt lat="35.0414285" lon="32.4396695"><ele>36.7</ele><time>2015-04-26T16:32:34.0000000+00:00</time></trkpt><trkpt lat="35.0414674" lon="32.439724"><ele>36.8</ele><time>2015-04-26T16:32:35.0000000+00:00</time></trkpt><trkpt lat="35.041507" lon="32.4397758"><ele>36.4</ele><time>2015-04-26T16:32:36.0000000+00:00</time></trkpt><trkpt lat="35.0415528" lon="32.4398285"><ele>36.1</ele><time>2015-04-26T16:32:37.0000000+00:00</time></trkpt><trkpt lat="35.0416007" lon="32.4398799"><ele>35.5</ele><time>2015-04-26T16:32:38.0000000+00:00</time></trkpt><trkpt lat="35.0416468" lon="32.4399331"><ele>35.2</ele><time>2015-04-26T16:32:39.0000000+00:00</time></trkpt><trkpt lat="35.0416966" lon="32.4399814"><ele>35.1</ele><time>2015-04-26T16:32:40.0000000+00:00</time></trkpt><trkpt lat="35.0417451" lon="32.4400324"><ele>35.0</ele><time>2015-04-26T16:32:41.0000000+00:00</time></trkpt><trkpt lat="35.0417999" lon="32.4400785"><ele>35.0</ele><time>2015-04-26T16:32:42.0000000+00:00</time></trkpt><trkpt lat="35.0418525" lon="32.4401297"><ele>34.4</ele><time>2015-04-26T16:32:43.0000000+00:00</time></trkpt><trkpt lat="35.0419103" lon="32.4401764"><ele>34.2</ele><time>2015-04-26T16:32:44.0000000+00:00</time></trkpt><trkpt lat="35.0419693" lon="32.4402218"><ele>34.1</ele><time>2015-04-26T16:32:45.0000000+00:00</time></trkpt><trkpt lat="35.0420268" lon="32.4402611"><ele>33.5</ele><time>2015-04-26T16:32:46.0000000+00:00</time></trkpt><trkpt lat="35.0420848" lon="32.4403028"><ele>33.2</ele><time>2015-04-26T16:32:47.0000000+00:00</time></trkpt><trkpt lat="35.0421488" lon="32.4403455"><ele>33.1</ele><time>2015-04-26T16:32:48.0000000+00:00</time></trkpt><trkpt lat="35.0422096" lon="32.4403879"><ele>33.0</ele><time>2015-04-26T16:32:49.0000000+00:00</time></trkpt><trkpt lat="35.0422772" lon="32.4404214"><ele>33.0</ele><time>2015-04-26T16:32:50.0000000+00:00</time></trkpt><trkpt lat="35.0423482" lon="32.4404512"><ele>32.4</ele><time>2015-04-26T16:32:51.0000000+00:00</time></trkpt><trkpt lat="35.0424177" lon="32.4404853"><ele>32.2</ele><time>2015-04-26T16:32:52.0000000+00:00</time></trkpt><trkpt lat="35.0424897" lon="32.4405159"><ele>32.1</ele><time>2015-04-26T16:32:53.0000000+00:00</time></trkpt><trkpt lat="35.0425601" lon="32.4405486"><ele>32.0</ele><time>2015-04-26T16:32:54.0000000+00:00</time></trkpt><trkpt lat="35.0426348" lon="32.4405821"><ele>32.0</ele><time>2015-04-26T16:32:55.0000000+00:00</time></trkpt><trkpt lat="35.0427076" lon="32.4406086"><ele>31.9</ele><time>2015-04-26T16:32:56.0000000+00:00</time></trkpt><trkpt lat="35.0427824" lon="32.4406315"><ele>31.9</ele><time>2015-04-26T16:32:57.0000000+00:00</time></trkpt><trkpt lat="35.0428585" lon="32.4406483"><ele>31.9</ele><time>2015-04-26T16:32:58.0000000+00:00</time></trkpt><trkpt lat="35.042935" lon="32.4406701"><ele>31.9</ele><time>2015-04-26T16:32:59.0000000+00:00</time></trkpt><trkpt lat="35.0430133" lon="32.4406792"><ele>31.4</ele><time>2015-04-26T16:33:00.0000000+00:00</time></trkpt><trkpt lat="35.0430849" lon="32.4406986"><ele>31.2</ele><time>2015-04-26T16:33:01.0000000+00:00</time></trkpt><trkpt lat="35.0431636" lon="32.4407115"><ele>31.1</ele><time>2015-04-26T16:33:02.0000000+00:00</time></trkpt><trkpt lat="35.0432303" lon="32.4407227"><ele>31.0</ele><time>2015-04-26T16:33:03.0000000+00:00</time></trkpt><trkpt lat="35.0433112" lon="32.4407317"><ele>30.0</ele><time>2015-04-26T16:33:04.0000000+00:00</time></trkpt><trkpt lat="35.0433926" lon="32.4407396"><ele>29.4</ele><time>2015-04-26T16:33:05.0000000+00:00</time></trkpt><trkpt lat="35.0435534" lon="32.4407587"><ele>28.7</ele><time>2015-04-26T16:33:07.0000000+00:00</time></trkpt><trkpt lat="35.0436401" lon="32.4407672"><ele>27.8</ele><time>2015-04-26T16:33:08.0000000+00:00</time></trkpt><trkpt lat="35.0437235" lon="32.440775"><ele>27.4</ele><time>2015-04-26T16:33:09.0000000+00:00</time></trkpt><trkpt lat="35.0438156" lon="32.4407739"><ele>27.1</ele><time>2015-04-26T16:33:10.0000000+00:00</time></trkpt><trkpt lat="35.0439026" lon="32.4407801"><ele>26.5</ele><time>2015-04-26T16:33:11.0000000+00:00</time></trkpt><trkpt lat="35.0439882" lon="32.4407825"><ele>26.2</ele><time>2015-04-26T16:33:12.0000000+00:00</time></trkpt><trkpt lat="35.0440744" lon="32.4407873"><ele>25.6</ele><time>2015-04-26T16:33:13.0000000+00:00</time></trkpt><trkpt lat="35.0441623" lon="32.4407949"><ele>25.3</ele><time>2015-04-26T16:33:14.0000000+00:00</time></trkpt><trkpt lat="35.0442476" lon="32.4407963"><ele>25.1</ele><time>2015-04-26T16:33:15.0000000+00:00</time></trkpt><trkpt lat="35.044338" lon="32.4407989"><ele>25.0</ele><time>2015-04-26T16:33:16.0000000+00:00</time></trkpt><trkpt lat="35.0444235" lon="32.4408022"><ele>25.0</ele><time>2015-04-26T16:33:17.0000000+00:00</time></trkpt><trkpt lat="35.0445107" lon="32.4408042"><ele>25.0</ele><time>2015-04-26T16:33:18.0000000+00:00</time></trkpt><trkpt lat="35.0445934" lon="32.4408081"><ele>24.9</ele><time>2015-04-26T16:33:19.0000000+00:00</time></trkpt><trkpt lat="35.0446842" lon="32.4408142"><ele>25.4</ele><time>2015-04-26T16:33:20.0000000+00:00</time></trkpt><trkpt lat="35.0447731" lon="32.4408188"><ele>25.7</ele><time>2015-04-26T16:33:21.0000000+00:00</time></trkpt><trkpt lat="35.0448596" lon="32.4408227"><ele>25.8</ele><time>2015-04-26T16:33:22.0000000+00:00</time></trkpt><trkpt lat="35.0449491" lon="32.4408261"><ele>25.4</ele><time>2015-04-26T16:33:23.0000000+00:00</time></trkpt><trkpt lat="35.0450359" lon="32.4408317"><ele>25.1</ele><time>2015-04-26T16:33:24.0000000+00:00</time></trkpt><trkpt lat="35.0451242" lon="32.4408372"><ele>25.0</ele><time>2015-04-26T16:33:25.0000000+00:00</time></trkpt><trkpt lat="35.0452158" lon="32.4408434"><ele>25.0</ele><time>2015-04-26T16:33:26.0000000+00:00</time></trkpt><trkpt lat="35.045303" lon="32.4408509"><ele>25.5</ele><time>2015-04-26T16:33:27.0000000+00:00</time></trkpt><trkpt lat="35.0453945" lon="32.4408635"><ele>25.2</ele><time>2015-04-26T16:33:28.0000000+00:00</time></trkpt><trkpt lat="35.045483" lon="32.440874"><ele>25.1</ele><time>2015-04-26T16:33:29.0000000+00:00</time></trkpt><trkpt lat="35.0455722" lon="32.4408828"><ele>25.0</ele><time>2015-04-26T16:33:30.0000000+00:00</time></trkpt><trkpt lat="35.0456586" lon="32.440896"><ele>25.0</ele><time>2015-04-26T16:33:31.0000000+00:00</time></trkpt><trkpt lat="35.0457482" lon="32.4409078"><ele>24.4</ele><time>2015-04-26T16:33:32.0000000+00:00</time></trkpt><trkpt lat="35.0458331" lon="32.4409204"><ele>24.2</ele><time>2015-04-26T16:33:33.0000000+00:00</time></trkpt><trkpt lat="35.0459181" lon="32.4409399"><ele>24.6</ele><time>2015-04-26T16:33:34.0000000+00:00</time></trkpt><trkpt lat="35.0460061" lon="32.4409581"><ele>24.2</ele><time>2015-04-26T16:33:35.0000000+00:00</time></trkpt><trkpt lat="35.0460938" lon="32.4409786"><ele>24.6</ele><time>2015-04-26T16:33:36.0000000+00:00</time></trkpt><trkpt lat="35.0461816" lon="32.4410009"><ele>24.8</ele><time>2015-04-26T16:33:37.0000000+00:00</time></trkpt><trkpt lat="35.0462626" lon="32.4410311"><ele>23.8</ele><time>2015-04-26T16:33:38.0000000+00:00</time></trkpt><trkpt lat="35.0463541" lon="32.441065"><ele>23.4</ele><time>2015-04-26T16:33:39.0000000+00:00</time></trkpt><trkpt lat="35.0464361" lon="32.4411028"><ele>23.2</ele><time>2015-04-26T16:33:40.0000000+00:00</time></trkpt><trkpt lat="35.0465209" lon="32.4411426"><ele>23.0</ele><time>2015-04-26T16:33:41.0000000+00:00</time></trkpt><trkpt lat="35.0466073" lon="32.4411872"><ele>22.5</ele><time>2015-04-26T16:33:42.0000000+00:00</time></trkpt><trkpt lat="35.0466893" lon="32.4412331"><ele>22.2</ele><time>2015-04-26T16:33:43.0000000+00:00</time></trkpt><trkpt lat="35.0467729" lon="32.4412774"><ele>22.1</ele><time>2015-04-26T16:33:44.0000000+00:00</time></trkpt><trkpt lat="35.046853" lon="32.4413307"><ele>22.0</ele><time>2015-04-26T16:33:45.0000000+00:00</time></trkpt><trkpt lat="35.046932" lon="32.4413838"><ele>21.5</ele><time>2015-04-26T16:33:46.0000000+00:00</time></trkpt><trkpt lat="35.0470089" lon="32.4414415"><ele>21.2</ele><time>2015-04-26T16:33:47.0000000+00:00</time></trkpt><trkpt lat="35.0470846" lon="32.4414983"><ele>21.1</ele><time>2015-04-26T16:33:48.0000000+00:00</time></trkpt><trkpt lat="35.0471545" lon="32.4415621"><ele>21.0</ele><time>2015-04-26T16:33:49.0000000+00:00</time></trkpt><trkpt lat="35.0472216" lon="32.441629"><ele>20.5</ele><time>2015-04-26T16:33:50.0000000+00:00</time></trkpt><trkpt lat="35.0472862" lon="32.4416979"><ele>20.2</ele><time>2015-04-26T16:33:51.0000000+00:00</time></trkpt><trkpt lat="35.0473506" lon="32.4417665"><ele>20.6</ele><time>2015-04-26T16:33:52.0000000+00:00</time></trkpt><trkpt lat="35.047414" lon="32.4418344"><ele>20.2</ele><time>2015-04-26T16:33:53.0000000+00:00</time></trkpt><trkpt lat="35.0474757" lon="32.4419089"><ele>20.1</ele><time>2015-04-26T16:33:54.0000000+00:00</time></trkpt><trkpt lat="35.0475361" lon="32.4419829"><ele>20.0</ele><time>2015-04-26T16:33:55.0000000+00:00</time></trkpt><trkpt lat="35.047594" lon="32.4420581"><ele>20.5</ele><time>2015-04-26T16:33:56.0000000+00:00</time></trkpt><trkpt lat="35.0476518" lon="32.4421322"><ele>20.2</ele><time>2015-04-26T16:33:57.0000000+00:00</time></trkpt><trkpt lat="35.0477068" lon="32.4422126"><ele>20.1</ele><time>2015-04-26T16:33:58.0000000+00:00</time></trkpt><trkpt lat="35.0477634" lon="32.4422928"><ele>19.5</ele><time>2015-04-26T16:33:59.0000000+00:00</time></trkpt><trkpt lat="35.0478197" lon="32.4423654"><ele>19.2</ele><time>2015-04-26T16:34:00.0000000+00:00</time></trkpt><trkpt lat="35.0478754" lon="32.4424448"><ele>19.1</ele><time>2015-04-26T16:34:01.0000000+00:00</time></trkpt><trkpt lat="35.0479288" lon="32.4425315"><ele>18.5</ele><time>2015-04-26T16:34:02.0000000+00:00</time></trkpt><trkpt lat="35.0479822" lon="32.4426131"><ele>18.2</ele><time>2015-04-26T16:34:03.0000000+00:00</time></trkpt><trkpt lat="35.0480374" lon="32.4426981"><ele>18.1</ele><time>2015-04-26T16:34:04.0000000+00:00</time></trkpt><trkpt lat="35.0480918" lon="32.4427831"><ele>18.0</ele><time>2015-04-26T16:34:05.0000000+00:00</time></trkpt><trkpt lat="35.0481469" lon="32.4428698"><ele>18.0</ele><time>2015-04-26T16:34:06.0000000+00:00</time></trkpt><trkpt lat="35.0481991" lon="32.4429519"><ele>17.9</ele><time>2015-04-26T16:34:07.0000000+00:00</time></trkpt><trkpt lat="35.0482533" lon="32.4430322"><ele>17.9</ele><time>2015-04-26T16:34:08.0000000+00:00</time></trkpt><trkpt lat="35.0483076" lon="32.4431181"><ele>17.9</ele><time>2015-04-26T16:34:09.0000000+00:00</time></trkpt><trkpt lat="35.0483624" lon="32.4431986"><ele>17.9</ele><time>2015-04-26T16:34:10.0000000+00:00</time></trkpt><trkpt lat="35.0484092" lon="32.4432873"><ele>17.9</ele><time>2015-04-26T16:34:11.0000000+00:00</time></trkpt><trkpt lat="35.0484594" lon="32.4433623"><ele>18.4</ele><time>2015-04-26T16:34:12.0000000+00:00</time></trkpt><trkpt lat="35.0485069" lon="32.443442"><ele>18.7</ele><time>2015-04-26T16:34:13.0000000+00:00</time></trkpt><trkpt lat="35.0485522" lon="32.4435186"><ele>18.3</ele><time>2015-04-26T16:34:14.0000000+00:00</time></trkpt><trkpt lat="35.0486015" lon="32.4435912"><ele>18.1</ele><time>2015-04-26T16:34:15.0000000+00:00</time></trkpt><trkpt lat="35.0486492" lon="32.4436701"><ele>18.0</ele><time>2015-04-26T16:34:16.0000000+00:00</time></trkpt><trkpt lat="35.0487019" lon="32.4437457"><ele>18.0</ele><time>2015-04-26T16:34:17.0000000+00:00</time></trkpt><trkpt lat="35.0487508" lon="32.4438263"><ele>18.0</ele><time>2015-04-26T16:34:18.0000000+00:00</time></trkpt><trkpt lat="35.0487976" lon="32.4439081"><ele>17.9</ele><time>2015-04-26T16:34:19.0000000+00:00</time></trkpt><trkpt lat="35.04885" lon="32.4439937"><ele>17.9</ele><time>2015-04-26T16:34:20.0000000+00:00</time></trkpt><trkpt lat="35.0488993" lon="32.4440709"><ele>17.9</ele><time>2015-04-26T16:34:21.0000000+00:00</time></trkpt><trkpt lat="35.0489432" lon="32.4441507"><ele>17.9</ele><time>2015-04-26T16:34:22.0000000+00:00</time></trkpt><trkpt lat="35.0489884" lon="32.444226"><ele>17.9</ele><time>2015-04-26T16:34:23.0000000+00:00</time></trkpt><trkpt lat="35.0490374" lon="32.4442986"><ele>17.9</ele><time>2015-04-26T16:34:24.0000000+00:00</time></trkpt><trkpt lat="35.0490855" lon="32.4443725"><ele>18.4</ele><time>2015-04-26T16:34:25.0000000+00:00</time></trkpt><trkpt lat="35.0491327" lon="32.444452"><ele>18.7</ele><time>2015-04-26T16:34:26.0000000+00:00</time></trkpt><trkpt lat="35.0491762" lon="32.4445242"><ele>18.8</ele><time>2015-04-26T16:34:27.0000000+00:00</time></trkpt><trkpt lat="35.0492245" lon="32.4446008"><ele>18.9</ele><time>2015-04-26T16:34:28.0000000+00:00</time></trkpt><trkpt lat="35.0492711" lon="32.4446722"><ele>18.9</ele><time>2015-04-26T16:34:29.0000000+00:00</time></trkpt><trkpt lat="35.0493112" lon="32.4447458"><ele>18.4</ele><time>2015-04-26T16:34:30.0000000+00:00</time></trkpt><trkpt lat="35.0493571" lon="32.444822"><ele>18.2</ele><time>2015-04-26T16:34:31.0000000+00:00</time></trkpt><trkpt lat="35.0494035" lon="32.4448929"><ele>18.1</ele><time>2015-04-26T16:34:32.0000000+00:00</time></trkpt><trkpt lat="35.04945" lon="32.4449661"><ele>18.0</ele><time>2015-04-26T16:34:33.0000000+00:00</time></trkpt><trkpt lat="35.0494944" lon="32.4450406"><ele>18.0</ele><time>2015-04-26T16:34:34.0000000+00:00</time></trkpt><trkpt lat="35.0495441" lon="32.4451119"><ele>18.4</ele><time>2015-04-26T16:34:35.0000000+00:00</time></trkpt><trkpt lat="35.0495872" lon="32.4451853"><ele>18.7</ele><time>2015-04-26T16:34:36.0000000+00:00</time></trkpt><trkpt lat="35.0496276" lon="32.4452481"><ele>18.8</ele><time>2015-04-26T16:34:37.0000000+00:00</time></trkpt><trkpt lat="35.0496667" lon="32.4453135"><ele>18.9</ele><time>2015-04-26T16:34:38.0000000+00:00</time></trkpt><trkpt lat="35.0497081" lon="32.4453784"><ele>18.9</ele><time>2015-04-26T16:34:39.0000000+00:00</time></trkpt><trkpt lat="35.0497514" lon="32.4454364"><ele>18.9</ele><time>2015-04-26T16:34:40.0000000+00:00</time></trkpt><trkpt lat="35.0497887" lon="32.4454964"><ele>18.9</ele><time>2015-04-26T16:34:41.0000000+00:00</time></trkpt><trkpt lat="35.0498247" lon="32.4455551"><ele>18.9</ele><time>2015-04-26T16:34:42.0000000+00:00</time></trkpt><trkpt lat="35.0498625" lon="32.4456142"><ele>19.4</ele><time>2015-04-26T16:34:43.0000000+00:00</time></trkpt><trkpt lat="35.0498995" lon="32.4456728"><ele>19.2</ele><time>2015-04-26T16:34:44.0000000+00:00</time></trkpt><trkpt lat="35.0499302" lon="32.4457383"><ele>19.6</ele><time>2015-04-26T16:34:45.0000000+00:00</time></trkpt><trkpt lat="35.0499646" lon="32.4458004"><ele>19.7</ele><time>2015-04-26T16:34:46.0000000+00:00</time></trkpt><trkpt lat="35.0500016" lon="32.4458592"><ele>19.8</ele><time>2015-04-26T16:34:47.0000000+00:00</time></trkpt><trkpt lat="35.0500375" lon="32.4459153"><ele>19.4</ele><time>2015-04-26T16:34:48.0000000+00:00</time></trkpt><trkpt lat="35.050076" lon="32.445977"><ele>19.7</ele><time>2015-04-26T16:34:49.0000000+00:00</time></trkpt><trkpt lat="35.0501137" lon="32.4460366"><ele>19.8</ele><time>2015-04-26T16:34:50.0000000+00:00</time></trkpt><trkpt lat="35.0501482" lon="32.4460862"><ele>19.9</ele><time>2015-04-26T16:34:51.0000000+00:00</time></trkpt><trkpt lat="35.0501876" lon="32.446148"><ele>19.4</ele><time>2015-04-26T16:34:52.0000000+00:00</time></trkpt><trkpt lat="35.0502234" lon="32.4462087"><ele>19.2</ele><time>2015-04-26T16:34:53.0000000+00:00</time></trkpt><trkpt lat="35.0502581" lon="32.4462654"><ele>19.0</ele><time>2015-04-26T16:34:54.0000000+00:00</time></trkpt><trkpt lat="35.0502971" lon="32.4463238"><ele>19.5</ele><time>2015-04-26T16:34:55.0000000+00:00</time></trkpt><trkpt lat="35.0503356" lon="32.4463782"><ele>19.2</ele><time>2015-04-26T16:34:56.0000000+00:00</time></trkpt><trkpt lat="35.0503721" lon="32.446436"><ele>19.1</ele><time>2015-04-26T16:34:57.0000000+00:00</time></trkpt><trkpt lat="35.0504005" lon="32.4465009"><ele>19.0</ele><time>2015-04-26T16:34:58.0000000+00:00</time></trkpt><trkpt lat="35.0504311" lon="32.4465618"><ele>19.0</ele><time>2015-04-26T16:34:59.0000000+00:00</time></trkpt><trkpt lat="35.0504754" lon="32.4466134"><ele>18.9</ele><time>2015-04-26T16:35:00.0000000+00:00</time></trkpt><trkpt lat="35.0505139" lon="32.4466756"><ele>18.9</ele><time>2015-04-26T16:35:01.0000000+00:00</time></trkpt><trkpt lat="35.0505487" lon="32.4467366"><ele>18.9</ele><time>2015-04-26T16:35:02.0000000+00:00</time></trkpt><trkpt lat="35.050586" lon="32.4467969"><ele>18.9</ele><time>2015-04-26T16:35:03.0000000+00:00</time></trkpt><trkpt lat="35.0506173" lon="32.4468525"><ele>18.9</ele><time>2015-04-26T16:35:04.0000000+00:00</time></trkpt><trkpt lat="35.0506517" lon="32.4469058"><ele>18.9</ele><time>2015-04-26T16:35:05.0000000+00:00</time></trkpt><trkpt lat="35.0506832" lon="32.4469592"><ele>18.9</ele><time>2015-04-26T16:35:06.0000000+00:00</time></trkpt><trkpt lat="35.0507153" lon="32.4470153"><ele>18.9</ele><time>2015-04-26T16:35:07.0000000+00:00</time></trkpt><trkpt lat="35.0507461" lon="32.4470731"><ele>18.9</ele><time>2015-04-26T16:35:08.0000000+00:00</time></trkpt><trkpt lat="35.0507805" lon="32.4471348"><ele>19.4</ele><time>2015-04-26T16:35:09.0000000+00:00</time></trkpt><trkpt lat="35.0508133" lon="32.447196"><ele>19.7</ele><time>2015-04-26T16:35:10.0000000+00:00</time></trkpt><trkpt lat="35.0508454" lon="32.447258"><ele>19.8</ele><time>2015-04-26T16:35:11.0000000+00:00</time></trkpt><trkpt lat="35.0508781" lon="32.447326"><ele>19.9</ele><time>2015-04-26T16:35:12.0000000+00:00</time></trkpt><trkpt lat="35.0509128" lon="32.4473895"><ele>19.9</ele><time>2015-04-26T16:35:13.0000000+00:00</time></trkpt><trkpt lat="35.0509456" lon="32.4474518"><ele>19.9</ele><time>2015-04-26T16:35:14.0000000+00:00</time></trkpt><trkpt lat="35.0509749" lon="32.4475166"><ele>19.9</ele><time>2015-04-26T16:35:15.0000000+00:00</time></trkpt><trkpt lat="35.0510048" lon="32.4475768"><ele>19.9</ele><time>2015-04-26T16:35:16.0000000+00:00</time></trkpt><trkpt lat="35.0510407" lon="32.4476384"><ele>19.9</ele><time>2015-04-26T16:35:17.0000000+00:00</time></trkpt><trkpt lat="35.0510698" lon="32.4476985"><ele>19.9</ele><time>2015-04-26T16:35:18.0000000+00:00</time></trkpt><trkpt lat="35.0511024" lon="32.4477575"><ele>19.9</ele><time>2015-04-26T16:35:19.0000000+00:00</time></trkpt><trkpt lat="35.051136" lon="32.4478145"><ele>19.9</ele><time>2015-04-26T16:35:20.0000000+00:00</time></trkpt><trkpt lat="35.0511658" lon="32.4478728"><ele>19.9</ele><time>2015-04-26T16:35:21.0000000+00:00</time></trkpt><trkpt lat="35.0511896" lon="32.4479289"><ele>19.9</ele><time>2015-04-26T16:35:22.0000000+00:00</time></trkpt><trkpt lat="35.0512199" lon="32.4479853"><ele>19.9</ele><time>2015-04-26T16:35:23.0000000+00:00</time></trkpt><trkpt lat="35.051247" lon="32.4480492"><ele>19.9</ele><time>2015-04-26T16:35:24.0000000+00:00</time></trkpt><trkpt lat="35.0512735" lon="32.4481106"><ele>19.9</ele><time>2015-04-26T16:35:25.0000000+00:00</time></trkpt><trkpt lat="35.0512996" lon="32.4481756"><ele>20.4</ele><time>2015-04-26T16:35:26.0000000+00:00</time></trkpt><trkpt lat="35.0513328" lon="32.4482377"><ele>20.7</ele><time>2015-04-26T16:35:27.0000000+00:00</time></trkpt><trkpt lat="35.051366" lon="32.4483037"><ele>20.8</ele><time>2015-04-26T16:35:28.0000000+00:00</time></trkpt><trkpt lat="35.0513981" lon="32.4483656"><ele>20.9</ele><time>2015-04-26T16:35:29.0000000+00:00</time></trkpt><trkpt lat="35.0514268" lon="32.4484243"><ele>20.9</ele><time>2015-04-26T16:35:30.0000000+00:00</time></trkpt><trkpt lat="35.0514604" lon="32.4484809"><ele>20.9</ele><time>2015-04-26T16:35:31.0000000+00:00</time></trkpt><trkpt lat="35.051488" lon="32.4485412"><ele>20.9</ele><time>2015-04-26T16:35:32.0000000+00:00</time></trkpt><trkpt lat="35.0515138" lon="32.4486037"><ele>20.9</ele><time>2015-04-26T16:35:33.0000000+00:00</time></trkpt><trkpt lat="35.0515481" lon="32.4486676"><ele>20.9</ele><time>2015-04-26T16:35:34.0000000+00:00</time></trkpt><trkpt lat="35.0515807" lon="32.4487299"><ele>20.9</ele><time>2015-04-26T16:35:35.0000000+00:00</time></trkpt><trkpt lat="35.0516137" lon="32.4487982"><ele>20.9</ele><time>2015-04-26T16:35:36.0000000+00:00</time></trkpt><trkpt lat="35.0516405" lon="32.448871"><ele>20.9</ele><time>2015-04-26T16:35:37.0000000+00:00</time></trkpt><trkpt lat="35.0516708" lon="32.4489309"><ele>20.9</ele><time>2015-04-26T16:35:38.0000000+00:00</time></trkpt><trkpt lat="35.0517023" lon="32.4489953"><ele>20.9</ele><time>2015-04-26T16:35:39.0000000+00:00</time></trkpt><trkpt lat="35.0517333" lon="32.4490587"><ele>20.4</ele><time>2015-04-26T16:35:40.0000000+00:00</time></trkpt><trkpt lat="35.051762" lon="32.4491168"><ele>20.2</ele><time>2015-04-26T16:35:41.0000000+00:00</time></trkpt><trkpt lat="35.0517924" lon="32.4491775"><ele>20.1</ele><time>2015-04-26T16:35:42.0000000+00:00</time></trkpt><trkpt lat="35.0518219" lon="32.4492362"><ele>20.0</ele><time>2015-04-26T16:35:43.0000000+00:00</time></trkpt><trkpt lat="35.0518495" lon="32.4492994"><ele>20.0</ele><time>2015-04-26T16:35:44.0000000+00:00</time></trkpt><trkpt lat="35.0518795" lon="32.4493583"><ele>19.9</ele><time>2015-04-26T16:35:45.0000000+00:00</time></trkpt><trkpt lat="35.0519153" lon="32.4494248"><ele>20.4</ele><time>2015-04-26T16:35:46.0000000+00:00</time></trkpt><trkpt lat="35.051948" lon="32.4494948"><ele>20.7</ele><time>2015-04-26T16:35:47.0000000+00:00</time></trkpt><trkpt lat="35.0519795" lon="32.4495636"><ele>20.8</ele><time>2015-04-26T16:35:48.0000000+00:00</time></trkpt><trkpt lat="35.0520115" lon="32.4496298"><ele>20.9</ele><time>2015-04-26T16:35:49.0000000+00:00</time></trkpt><trkpt lat="35.052044" lon="32.449695"><ele>20.9</ele><time>2015-04-26T16:35:50.0000000+00:00</time></trkpt><trkpt lat="35.0520755" lon="32.4497632"><ele>20.4</ele><time>2015-04-26T16:35:51.0000000+00:00</time></trkpt><trkpt lat="35.0521058" lon="32.4498299"><ele>20.7</ele><time>2015-04-26T16:35:52.0000000+00:00</time></trkpt><trkpt lat="35.0521357" lon="32.4498943"><ele>20.8</ele><time>2015-04-26T16:35:53.0000000+00:00</time></trkpt><trkpt lat="35.052167" lon="32.4499595"><ele>20.9</ele><time>2015-04-26T16:35:54.0000000+00:00</time></trkpt><trkpt lat="35.0521991" lon="32.450026"><ele>20.9</ele><time>2015-04-26T16:35:55.0000000+00:00</time></trkpt><trkpt lat="35.0522307" lon="32.4500951"><ele>20.9</ele><time>2015-04-26T16:35:56.0000000+00:00</time></trkpt><trkpt lat="35.052266" lon="32.450163"><ele>20.9</ele><time>2015-04-26T16:35:57.0000000+00:00</time></trkpt><trkpt lat="35.0522979" lon="32.4502363"><ele>20.9</ele><time>2015-04-26T16:35:58.0000000+00:00</time></trkpt><trkpt lat="35.0523339" lon="32.4503073"><ele>20.9</ele><time>2015-04-26T16:35:59.0000000+00:00</time></trkpt><trkpt lat="35.0523702" lon="32.4503792"><ele>20.9</ele><time>2015-04-26T16:36:00.0000000+00:00</time></trkpt><trkpt lat="35.0524037" lon="32.4504497"><ele>20.9</ele><time>2015-04-26T16:36:01.0000000+00:00</time></trkpt><trkpt lat="35.0524369" lon="32.4505229"><ele>20.9</ele><time>2015-04-26T16:36:02.0000000+00:00</time></trkpt><trkpt lat="35.0524705" lon="32.4505937"><ele>20.9</ele><time>2015-04-26T16:36:03.0000000+00:00</time></trkpt><trkpt lat="35.0525028" lon="32.4506535"><ele>20.4</ele><time>2015-04-26T16:36:04.0000000+00:00</time></trkpt><trkpt lat="35.0525327" lon="32.4507154"><ele>20.7</ele><time>2015-04-26T16:36:05.0000000+00:00</time></trkpt><trkpt lat="35.052564" lon="32.4507828"><ele>20.3</ele><time>2015-04-26T16:36:06.0000000+00:00</time></trkpt><trkpt lat="35.0525964" lon="32.4508467"><ele>20.1</ele><time>2015-04-26T16:36:07.0000000+00:00</time></trkpt><trkpt lat="35.0526292" lon="32.4509155"><ele>20.5</ele><time>2015-04-26T16:36:08.0000000+00:00</time></trkpt><trkpt lat="35.0526598" lon="32.4509824"><ele>20.7</ele><time>2015-04-26T16:36:09.0000000+00:00</time></trkpt><trkpt lat="35.0526954" lon="32.4510544"><ele>20.3</ele><time>2015-04-26T16:36:10.0000000+00:00</time></trkpt><trkpt lat="35.0527317" lon="32.4511281"><ele>20.6</ele><time>2015-04-26T16:36:11.0000000+00:00</time></trkpt><trkpt lat="35.0527665" lon="32.4512022"><ele>21.3</ele><time>2015-04-26T16:36:12.0000000+00:00</time></trkpt><trkpt lat="35.0528028" lon="32.4512729"><ele>21.6</ele><time>2015-04-26T16:36:13.0000000+00:00</time></trkpt><trkpt lat="35.0528361" lon="32.4513347"><ele>21.3</ele><time>2015-04-26T16:36:14.0000000+00:00</time></trkpt><trkpt lat="35.0528715" lon="32.4514104"><ele>21.1</ele><time>2015-04-26T16:36:15.0000000+00:00</time></trkpt><trkpt lat="35.0529052" lon="32.4514852"><ele>21.5</ele><time>2015-04-26T16:36:16.0000000+00:00</time></trkpt><trkpt lat="35.0529434" lon="32.4515546"><ele>21.2</ele><time>2015-04-26T16:36:17.0000000+00:00</time></trkpt><trkpt lat="35.0529811" lon="32.451629"><ele>21.1</ele><time>2015-04-26T16:36:18.0000000+00:00</time></trkpt><trkpt lat="35.0530179" lon="32.4517042"><ele>21.0</ele><time>2015-04-26T16:36:19.0000000+00:00</time></trkpt><trkpt lat="35.0530525" lon="32.4517728"><ele>21.0</ele><time>2015-04-26T16:36:20.0000000+00:00</time></trkpt><trkpt lat="35.0530902" lon="32.4518462"><ele>20.4</ele><time>2015-04-26T16:36:21.0000000+00:00</time></trkpt><trkpt lat="35.0531255" lon="32.4519254"><ele>20.2</ele><time>2015-04-26T16:36:22.0000000+00:00</time></trkpt><trkpt lat="35.0531645" lon="32.4519973"><ele>20.1</ele><time>2015-04-26T16:36:23.0000000+00:00</time></trkpt><trkpt lat="35.0532045" lon="32.4520726"><ele>20.0</ele><time>2015-04-26T16:36:24.0000000+00:00</time></trkpt><trkpt lat="35.0532423" lon="32.4521456"><ele>20.0</ele><time>2015-04-26T16:36:25.0000000+00:00</time></trkpt><trkpt lat="35.0532752" lon="32.4522077"><ele>19.9</ele><time>2015-04-26T16:36:26.0000000+00:00</time></trkpt><trkpt lat="35.0533128" lon="32.4522736"><ele>19.9</ele><time>2015-04-26T16:36:27.0000000+00:00</time></trkpt><trkpt lat="35.0533459" lon="32.4523452"><ele>20.4</ele><time>2015-04-26T16:36:28.0000000+00:00</time></trkpt><trkpt lat="35.053383" lon="32.4524151"><ele>20.7</ele><time>2015-04-26T16:36:29.0000000+00:00</time></trkpt><trkpt lat="35.0534195" lon="32.452481"><ele>20.8</ele><time>2015-04-26T16:36:30.0000000+00:00</time></trkpt><trkpt lat="35.0534564" lon="32.4525524"><ele>20.9</ele><time>2015-04-26T16:36:31.0000000+00:00</time></trkpt><trkpt lat="35.0534927" lon="32.4526288"><ele>20.9</ele><time>2015-04-26T16:36:32.0000000+00:00</time></trkpt><trkpt lat="35.0535248" lon="32.4526984"><ele>20.9</ele><time>2015-04-26T16:36:33.0000000+00:00</time></trkpt><trkpt lat="35.0535609" lon="32.4527665"><ele>20.9</ele><time>2015-04-26T16:36:34.0000000+00:00</time></trkpt><trkpt lat="35.053597" lon="32.4528326"><ele>20.9</ele><time>2015-04-26T16:36:35.0000000+00:00</time></trkpt><trkpt lat="35.0536366" lon="32.4529106"><ele>20.9</ele><time>2015-04-26T16:36:36.0000000+00:00</time></trkpt><trkpt lat="35.0536722" lon="32.4529762"><ele>20.9</ele><time>2015-04-26T16:36:37.0000000+00:00</time></trkpt><trkpt lat="35.0537093" lon="32.4530416"><ele>20.4</ele><time>2015-04-26T16:36:38.0000000+00:00</time></trkpt><trkpt lat="35.0537446" lon="32.453104"><ele>20.2</ele><time>2015-04-26T16:36:39.0000000+00:00</time></trkpt><trkpt lat="35.053777" lon="32.4531711"><ele>20.1</ele><time>2015-04-26T16:36:40.0000000+00:00</time></trkpt><trkpt lat="35.0538078" lon="32.4532448"><ele>20.0</ele><time>2015-04-26T16:36:41.0000000+00:00</time></trkpt><trkpt lat="35.0538409" lon="32.4533028"><ele>20.0</ele><time>2015-04-26T16:36:42.0000000+00:00</time></trkpt><trkpt lat="35.053877" lon="32.4533686"><ele>19.9</ele><time>2015-04-26T16:36:43.0000000+00:00</time></trkpt><trkpt lat="35.0539074" lon="32.4534285"><ele>19.9</ele><time>2015-04-26T16:36:44.0000000+00:00</time></trkpt><trkpt lat="35.0539421" lon="32.4534893"><ele>19.4</ele><time>2015-04-26T16:36:45.0000000+00:00</time></trkpt><trkpt lat="35.0539783" lon="32.4535573"><ele>19.2</ele><time>2015-04-26T16:36:46.0000000+00:00</time></trkpt><trkpt lat="35.0540141" lon="32.4536247"><ele>19.1</ele><time>2015-04-26T16:36:47.0000000+00:00</time></trkpt><trkpt lat="35.0540556" lon="32.453692"><ele>19.0</ele><time>2015-04-26T16:36:48.0000000+00:00</time></trkpt><trkpt lat="35.0540942" lon="32.4537601"><ele>19.0</ele><time>2015-04-26T16:36:49.0000000+00:00</time></trkpt><trkpt lat="35.0541208" lon="32.4538288"><ele>18.9</ele><time>2015-04-26T16:36:50.0000000+00:00</time></trkpt><trkpt lat="35.0541611" lon="32.453904"><ele>18.9</ele><time>2015-04-26T16:36:51.0000000+00:00</time></trkpt><trkpt lat="35.0542054" lon="32.4539732"><ele>18.9</ele><time>2015-04-26T16:36:52.0000000+00:00</time></trkpt><trkpt lat="35.0542463" lon="32.454041"><ele>19.4</ele><time>2015-04-26T16:36:53.0000000+00:00</time></trkpt><trkpt lat="35.0542899" lon="32.4541108"><ele>19.7</ele><time>2015-04-26T16:36:54.0000000+00:00</time></trkpt><trkpt lat="35.0543331" lon="32.4541734"><ele>19.3</ele><time>2015-04-26T16:36:55.0000000+00:00</time></trkpt><trkpt lat="35.0543846" lon="32.4542328"><ele>19.1</ele><time>2015-04-26T16:36:56.0000000+00:00</time></trkpt><trkpt lat="35.05444" lon="32.4542894"><ele>19.0</ele><time>2015-04-26T16:36:57.0000000+00:00</time></trkpt><trkpt lat="35.0545" lon="32.4543458"><ele>19.0</ele><time>2015-04-26T16:36:58.0000000+00:00</time></trkpt><trkpt lat="35.054558" lon="32.454396"><ele>19.0</ele><time>2015-04-26T16:36:59.0000000+00:00</time></trkpt><trkpt lat="35.0546205" lon="32.4544438"><ele>19.4</ele><time>2015-04-26T16:37:00.0000000+00:00</time></trkpt><trkpt lat="35.0546872" lon="32.454483"><ele>19.7</ele><time>2015-04-26T16:37:01.0000000+00:00</time></trkpt><trkpt lat="35.0547544" lon="32.4545272"><ele>19.8</ele><time>2015-04-26T16:37:02.0000000+00:00</time></trkpt><trkpt lat="35.0548198" lon="32.4545607"><ele>20.4</ele><time>2015-04-26T16:37:03.0000000+00:00</time></trkpt><trkpt lat="35.0548924" lon="32.4545865"><ele>20.1</ele><time>2015-04-26T16:37:04.0000000+00:00</time></trkpt><trkpt lat="35.0549682" lon="32.4546029"><ele>20.5</ele><time>2015-04-26T16:37:05.0000000+00:00</time></trkpt><trkpt lat="35.0550432" lon="32.4546226"><ele>20.2</ele><time>2015-04-26T16:37:06.0000000+00:00</time></trkpt><trkpt lat="35.0551183" lon="32.4546373"><ele>20.1</ele><time>2015-04-26T16:37:07.0000000+00:00</time></trkpt><trkpt lat="35.0551906" lon="32.4546541"><ele>20.5</ele><time>2015-04-26T16:37:08.0000000+00:00</time></trkpt><trkpt lat="35.0552632" lon="32.454665"><ele>20.7</ele><time>2015-04-26T16:37:09.0000000+00:00</time></trkpt><trkpt lat="35.0553454" lon="32.4546747"><ele>20.3</ele><time>2015-04-26T16:37:10.0000000+00:00</time></trkpt><trkpt lat="35.0554285" lon="32.4546863"><ele>20.1</ele><time>2015-04-26T16:37:11.0000000+00:00</time></trkpt><trkpt lat="35.0555172" lon="32.4546985"><ele>20.0</ele><time>2015-04-26T16:37:12.0000000+00:00</time></trkpt><trkpt lat="35.0556082" lon="32.4547108"><ele>20.0</ele><time>2015-04-26T16:37:13.0000000+00:00</time></trkpt><trkpt lat="35.0556977" lon="32.4547168"><ele>19.0</ele><time>2015-04-26T16:37:14.0000000+00:00</time></trkpt><trkpt lat="35.0557806" lon="32.4547246"><ele>18.4</ele><time>2015-04-26T16:37:15.0000000+00:00</time></trkpt><trkpt lat="35.0558583" lon="32.4547301"><ele>18.2</ele><time>2015-04-26T16:37:16.0000000+00:00</time></trkpt><trkpt lat="35.0559415" lon="32.4547438"><ele>17.6</ele><time>2015-04-26T16:37:17.0000000+00:00</time></trkpt><trkpt lat="35.0560264" lon="32.4547541"><ele>17.2</ele><time>2015-04-26T16:37:18.0000000+00:00</time></trkpt><trkpt lat="35.0561116" lon="32.4547674"><ele>17.1</ele><time>2015-04-26T16:37:19.0000000+00:00</time></trkpt><trkpt lat="35.0561992" lon="32.4547754"><ele>17.0</ele><time>2015-04-26T16:37:20.0000000+00:00</time></trkpt><trkpt lat="35.0562813" lon="32.4547873"><ele>17.0</ele><time>2015-04-26T16:37:21.0000000+00:00</time></trkpt><trkpt lat="35.0563711" lon="32.4547971"><ele>17.4</ele><time>2015-04-26T16:37:22.0000000+00:00</time></trkpt><trkpt lat="35.0564589" lon="32.454808"><ele>17.7</ele><time>2015-04-26T16:37:23.0000000+00:00</time></trkpt><trkpt lat="35.0565562" lon="32.45482"><ele>17.3</ele><time>2015-04-26T16:37:24.0000000+00:00</time></trkpt><trkpt lat="35.0566468" lon="32.4548283"><ele>17.1</ele><time>2015-04-26T16:37:25.0000000+00:00</time></trkpt><trkpt lat="35.0567315" lon="32.4548356"><ele>17.0</ele><time>2015-04-26T16:37:26.0000000+00:00</time></trkpt><trkpt lat="35.0568251" lon="32.4548486"><ele>17.0</ele><time>2015-04-26T16:37:27.0000000+00:00</time></trkpt><trkpt lat="35.0569176" lon="32.4548637"><ele>17.0</ele><time>2015-04-26T16:37:28.0000000+00:00</time></trkpt><trkpt lat="35.0570068" lon="32.4548853"><ele>16.9</ele><time>2015-04-26T16:37:29.0000000+00:00</time></trkpt><trkpt lat="35.0570986" lon="32.4549117"><ele>16.9</ele><time>2015-04-26T16:37:30.0000000+00:00</time></trkpt><trkpt lat="35.0571832" lon="32.4549389"><ele>16.9</ele><time>2015-04-26T16:37:31.0000000+00:00</time></trkpt><trkpt lat="35.057262" lon="32.454983"><ele>16.9</ele><time>2015-04-26T16:37:32.0000000+00:00</time></trkpt><trkpt lat="35.057339" lon="32.4550367"><ele>16.9</ele><time>2015-04-26T16:37:33.0000000+00:00</time></trkpt><trkpt lat="35.0574075" lon="32.4551027"><ele>17.4</ele><time>2015-04-26T16:37:34.0000000+00:00</time></trkpt><trkpt lat="35.05747" lon="32.4551765"><ele>18.2</ele><time>2015-04-26T16:37:35.0000000+00:00</time></trkpt><trkpt lat="35.0575262" lon="32.4552554"><ele>18.6</ele><time>2015-04-26T16:37:36.0000000+00:00</time></trkpt><trkpt lat="35.0575819" lon="32.4553385"><ele>18.7</ele><time>2015-04-26T16:37:37.0000000+00:00</time></trkpt><trkpt lat="35.0576334" lon="32.4554262"><ele>18.8</ele><time>2015-04-26T16:37:38.0000000+00:00</time></trkpt><trkpt lat="35.057685" lon="32.4555118"><ele>18.9</ele><time>2015-04-26T16:37:39.0000000+00:00</time></trkpt><trkpt lat="35.0577295" lon="32.4555963"><ele>18.9</ele><time>2015-04-26T16:37:40.0000000+00:00</time></trkpt><trkpt lat="35.0577736" lon="32.4556831"><ele>18.9</ele><time>2015-04-26T16:37:41.0000000+00:00</time></trkpt><trkpt lat="35.0578206" lon="32.4557688"><ele>18.9</ele><time>2015-04-26T16:37:42.0000000+00:00</time></trkpt><trkpt lat="35.0578658" lon="32.455846"><ele>18.4</ele><time>2015-04-26T16:37:43.0000000+00:00</time></trkpt><trkpt lat="35.0579038" lon="32.455922"><ele>18.2</ele><time>2015-04-26T16:37:44.0000000+00:00</time></trkpt><trkpt lat="35.0579471" lon="32.4560034"><ele>18.1</ele><time>2015-04-26T16:37:45.0000000+00:00</time></trkpt><trkpt lat="35.0579937" lon="32.4560846"><ele>18.0</ele><time>2015-04-26T16:37:46.0000000+00:00</time></trkpt><trkpt lat="35.058038" lon="32.4561684"><ele>18.0</ele><time>2015-04-26T16:37:47.0000000+00:00</time></trkpt><trkpt lat="35.0580796" lon="32.4562485"><ele>17.9</ele><time>2015-04-26T16:37:48.0000000+00:00</time></trkpt><trkpt lat="35.0581218" lon="32.4563345"><ele>18.4</ele><time>2015-04-26T16:37:49.0000000+00:00</time></trkpt><trkpt lat="35.0581687" lon="32.4564207"><ele>18.7</ele><time>2015-04-26T16:37:50.0000000+00:00</time></trkpt><trkpt lat="35.0582129" lon="32.4565038"><ele>18.8</ele><time>2015-04-26T16:37:51.0000000+00:00</time></trkpt><trkpt lat="35.0582586" lon="32.4565836"><ele>18.9</ele><time>2015-04-26T16:37:52.0000000+00:00</time></trkpt><trkpt lat="35.0583021" lon="32.4566642"><ele>18.9</ele><time>2015-04-26T16:37:53.0000000+00:00</time></trkpt><trkpt lat="35.0583499" lon="32.4567432"><ele>18.9</ele><time>2015-04-26T16:37:54.0000000+00:00</time></trkpt><trkpt lat="35.0583976" lon="32.4568292"><ele>18.9</ele><time>2015-04-26T16:37:55.0000000+00:00</time></trkpt><trkpt lat="35.0584446" lon="32.4568965"><ele>18.9</ele><time>2015-04-26T16:37:56.0000000+00:00</time></trkpt><trkpt lat="35.0584909" lon="32.4569826"><ele>18.9</ele><time>2015-04-26T16:37:57.0000000+00:00</time></trkpt><trkpt lat="35.0585348" lon="32.4570621"><ele>18.9</ele><time>2015-04-26T16:37:58.0000000+00:00</time></trkpt><trkpt lat="35.0585747" lon="32.4571436"><ele>19.4</ele><time>2015-04-26T16:37:59.0000000+00:00</time></trkpt><trkpt lat="35.0586082" lon="32.4572091"><ele>19.2</ele><time>2015-04-26T16:38:00.0000000+00:00</time></trkpt><trkpt lat="35.0586513" lon="32.4572835"><ele>19.6</ele><time>2015-04-26T16:38:01.0000000+00:00</time></trkpt><trkpt lat="35.0586911" lon="32.4573476"><ele>19.7</ele><time>2015-04-26T16:38:02.0000000+00:00</time></trkpt><trkpt lat="35.0587368" lon="32.4574238"><ele>19.8</ele><time>2015-04-26T16:38:03.0000000+00:00</time></trkpt><trkpt lat="35.0587853" lon="32.4575067"><ele>19.9</ele><time>2015-04-26T16:38:04.0000000+00:00</time></trkpt><trkpt lat="35.0588251" lon="32.4575814"><ele>19.9</ele><time>2015-04-26T16:38:05.0000000+00:00</time></trkpt><trkpt lat="35.0588645" lon="32.4576531"><ele>19.9</ele><time>2015-04-26T16:38:06.0000000+00:00</time></trkpt><trkpt lat="35.0589101" lon="32.4577253"><ele>19.9</ele><time>2015-04-26T16:38:07.0000000+00:00</time></trkpt><trkpt lat="35.0589574" lon="32.4577912"><ele>20.4</ele><time>2015-04-26T16:38:08.0000000+00:00</time></trkpt><trkpt lat="35.0589992" lon="32.4578604"><ele>20.7</ele><time>2015-04-26T16:38:09.0000000+00:00</time></trkpt><trkpt lat="35.0590467" lon="32.4579243"><ele>20.8</ele><time>2015-04-26T16:38:10.0000000+00:00</time></trkpt><trkpt lat="35.0591021" lon="32.4579884"><ele>20.4</ele><time>2015-04-26T16:38:11.0000000+00:00</time></trkpt><trkpt lat="35.0591531" lon="32.458049"><ele>20.1</ele><time>2015-04-26T16:38:12.0000000+00:00</time></trkpt><trkpt lat="35.059201" lon="32.4581066"><ele>20.5</ele><time>2015-04-26T16:38:13.0000000+00:00</time></trkpt><trkpt lat="35.0592542" lon="32.4581665"><ele>20.7</ele><time>2015-04-26T16:38:14.0000000+00:00</time></trkpt><trkpt lat="35.0593027" lon="32.4582225"><ele>20.8</ele><time>2015-04-26T16:38:15.0000000+00:00</time></trkpt><trkpt lat="35.0593515" lon="32.4582752"><ele>20.9</ele><time>2015-04-26T16:38:16.0000000+00:00</time></trkpt><trkpt lat="35.0594034" lon="32.4583049"><ele>21.4</ele><time>2015-04-26T16:38:17.0000000+00:00</time></trkpt><trkpt lat="35.0594511" lon="32.4583599"><ele>21.7</ele><time>2015-04-26T16:38:18.0000000+00:00</time></trkpt><trkpt lat="35.0594912" lon="32.4584152"><ele>21.8</ele><time>2015-04-26T16:38:19.0000000+00:00</time></trkpt><trkpt lat="35.059533" lon="32.458463"><ele>21.9</ele><time>2015-04-26T16:38:20.0000000+00:00</time></trkpt><trkpt lat="35.0595777" lon="32.4585246"><ele>21.9</ele><time>2015-04-26T16:38:21.0000000+00:00</time></trkpt><trkpt lat="35.05963" lon="32.4585837"><ele>21.4</ele><time>2015-04-26T16:38:22.0000000+00:00</time></trkpt><trkpt lat="35.0596802" lon="32.4586363"><ele>21.2</ele><time>2015-04-26T16:38:23.0000000+00:00</time></trkpt><trkpt lat="35.0597195" lon="32.4586996"><ele>20.6</ele><time>2015-04-26T16:38:24.0000000+00:00</time></trkpt><trkpt lat="35.0597592" lon="32.4587608"><ele>20.2</ele><time>2015-04-26T16:38:25.0000000+00:00</time></trkpt><trkpt lat="35.0597989" lon="32.4588231"><ele>20.1</ele><time>2015-04-26T16:38:26.0000000+00:00</time></trkpt><trkpt lat="35.0598386" lon="32.458874"><ele>20.5</ele><time>2015-04-26T16:38:27.0000000+00:00</time></trkpt><trkpt lat="35.0598761" lon="32.4589404"><ele>20.2</ele><time>2015-04-26T16:38:28.0000000+00:00</time></trkpt><trkpt lat="35.0599152" lon="32.4590049"><ele>20.1</ele><time>2015-04-26T16:38:29.0000000+00:00</time></trkpt><trkpt lat="35.0599498" lon="32.459073"><ele>20.5</ele><time>2015-04-26T16:38:30.0000000+00:00</time></trkpt><trkpt lat="35.0599794" lon="32.4591349"><ele>20.2</ele><time>2015-04-26T16:38:31.0000000+00:00</time></trkpt><trkpt lat="35.060014" lon="32.4591904"><ele>20.1</ele><time>2015-04-26T16:38:32.0000000+00:00</time></trkpt><trkpt lat="35.0600418" lon="32.4592626"><ele>20.0</ele><time>2015-04-26T16:38:33.0000000+00:00</time></trkpt><trkpt lat="35.0600786" lon="32.4593332"><ele>20.0</ele><time>2015-04-26T16:38:34.0000000+00:00</time></trkpt><trkpt lat="35.0601013" lon="32.4594052"><ele>19.9</ele><time>2015-04-26T16:38:35.0000000+00:00</time></trkpt><trkpt lat="35.0601366" lon="32.4594783"><ele>19.9</ele><time>2015-04-26T16:38:36.0000000+00:00</time></trkpt><trkpt lat="35.0601608" lon="32.4595525"><ele>19.9</ele><time>2015-04-26T16:38:37.0000000+00:00</time></trkpt><trkpt lat="35.0601808" lon="32.4596233"><ele>19.4</ele><time>2015-04-26T16:38:38.0000000+00:00</time></trkpt><trkpt lat="35.0602114" lon="32.4597023"><ele>19.7</ele><time>2015-04-26T16:38:39.0000000+00:00</time></trkpt><trkpt lat="35.060236" lon="32.4597838"><ele>19.8</ele><time>2015-04-26T16:38:40.0000000+00:00</time></trkpt><trkpt lat="35.0602641" lon="32.4598602"><ele>19.9</ele><time>2015-04-26T16:38:41.0000000+00:00</time></trkpt><trkpt lat="35.0602764" lon="32.459939"><ele>19.9</ele><time>2015-04-26T16:38:42.0000000+00:00</time></trkpt><trkpt lat="35.0603005" lon="32.4600143"><ele>19.9</ele><time>2015-04-26T16:38:43.0000000+00:00</time></trkpt><trkpt lat="35.0603196" lon="32.4600825"><ele>19.9</ele><time>2015-04-26T16:38:44.0000000+00:00</time></trkpt><trkpt lat="35.0603549" lon="32.4601496"><ele>19.9</ele><time>2015-04-26T16:38:45.0000000+00:00</time></trkpt><trkpt lat="35.0603818" lon="32.4602158"><ele>19.9</ele><time>2015-04-26T16:38:46.0000000+00:00</time></trkpt><trkpt lat="35.0604068" lon="32.4603014"><ele>19.9</ele><time>2015-04-26T16:38:47.0000000+00:00</time></trkpt><trkpt lat="35.0604393" lon="32.460376"><ele>19.9</ele><time>2015-04-26T16:38:48.0000000+00:00</time></trkpt><trkpt lat="35.060478" lon="32.4604521"><ele>19.4</ele><time>2015-04-26T16:38:49.0000000+00:00</time></trkpt><trkpt lat="35.0605123" lon="32.4605231"><ele>19.2</ele><time>2015-04-26T16:38:50.0000000+00:00</time></trkpt><trkpt lat="35.0605493" lon="32.4605798"><ele>19.1</ele><time>2015-04-26T16:38:51.0000000+00:00</time></trkpt><trkpt lat="35.0605798" lon="32.4606471"><ele>19.0</ele><time>2015-04-26T16:38:52.0000000+00:00</time></trkpt><trkpt lat="35.0606144" lon="32.4607145"><ele>19.0</ele><time>2015-04-26T16:38:53.0000000+00:00</time></trkpt><trkpt lat="35.060645" lon="32.4607812"><ele>18.9</ele><time>2015-04-26T16:38:54.0000000+00:00</time></trkpt><trkpt lat="35.0606828" lon="32.4608386"><ele>18.9</ele><time>2015-04-26T16:38:55.0000000+00:00</time></trkpt><trkpt lat="35.0607181" lon="32.4609001"><ele>18.9</ele><time>2015-04-26T16:38:56.0000000+00:00</time></trkpt><trkpt lat="35.0607586" lon="32.4609601"><ele>19.4</ele><time>2015-04-26T16:38:57.0000000+00:00</time></trkpt><trkpt lat="35.0607981" lon="32.4610107"><ele>20.2</ele><time>2015-04-26T16:38:58.0000000+00:00</time></trkpt><trkpt lat="35.0608336" lon="32.4610708"><ele>20.6</ele><time>2015-04-26T16:38:59.0000000+00:00</time></trkpt><trkpt lat="35.0608724" lon="32.4611339"><ele>20.7</ele><time>2015-04-26T16:39:00.0000000+00:00</time></trkpt><trkpt lat="35.0609154" lon="32.4611938"><ele>20.3</ele><time>2015-04-26T16:39:01.0000000+00:00</time></trkpt><trkpt lat="35.0609563" lon="32.4612569"><ele>20.1</ele><time>2015-04-26T16:39:02.0000000+00:00</time></trkpt><trkpt lat="35.0609964" lon="32.4613137"><ele>20.0</ele><time>2015-04-26T16:39:03.0000000+00:00</time></trkpt><trkpt lat="35.0610382" lon="32.4613755"><ele>20.0</ele><time>2015-04-26T16:39:04.0000000+00:00</time></trkpt><trkpt lat="35.061077" lon="32.461428"><ele>20.0</ele><time>2015-04-26T16:39:05.0000000+00:00</time></trkpt><trkpt lat="35.0611187" lon="32.4614803"><ele>20.4</ele><time>2015-04-26T16:39:06.0000000+00:00</time></trkpt><trkpt lat="35.061155" lon="32.4615254"><ele>21.2</ele><time>2015-04-26T16:39:07.0000000+00:00</time></trkpt><trkpt lat="35.0611942" lon="32.4615825"><ele>21.6</ele><time>2015-04-26T16:39:08.0000000+00:00</time></trkpt><trkpt lat="35.0612359" lon="32.4616301"><ele>21.7</ele><time>2015-04-26T16:39:09.0000000+00:00</time></trkpt><trkpt lat="35.0612778" lon="32.4616899"><ele>22.3</ele><time>2015-04-26T16:39:10.0000000+00:00</time></trkpt><trkpt lat="35.0613217" lon="32.4617602"><ele>22.1</ele><time>2015-04-26T16:39:11.0000000+00:00</time></trkpt><trkpt lat="35.061363" lon="32.4618271"><ele>22.0</ele><time>2015-04-26T16:39:12.0000000+00:00</time></trkpt><trkpt lat="35.0614142" lon="32.4618864"><ele>22.0</ele><time>2015-04-26T16:39:13.0000000+00:00</time></trkpt><trkpt lat="35.0614552" lon="32.4619502"><ele>22.0</ele><time>2015-04-26T16:39:14.0000000+00:00</time></trkpt><trkpt lat="35.0614995" lon="32.4620154"><ele>21.9</ele><time>2015-04-26T16:39:15.0000000+00:00</time></trkpt><trkpt lat="35.0615474" lon="32.4620737"><ele>21.9</ele><time>2015-04-26T16:39:16.0000000+00:00</time></trkpt><trkpt lat="35.0615984" lon="32.4621355"><ele>21.9</ele><time>2015-04-26T16:39:17.0000000+00:00</time></trkpt><trkpt lat="35.0616443" lon="32.4621943"><ele>21.9</ele><time>2015-04-26T16:39:18.0000000+00:00</time></trkpt><trkpt lat="35.0616837" lon="32.4622671"><ele>21.4</ele><time>2015-04-26T16:39:19.0000000+00:00</time></trkpt><trkpt lat="35.0617266" lon="32.4623331"><ele>21.2</ele><time>2015-04-26T16:39:20.0000000+00:00</time></trkpt><trkpt lat="35.0617706" lon="32.462401"><ele>20.6</ele><time>2015-04-26T16:39:21.0000000+00:00</time></trkpt><trkpt lat="35.0618172" lon="32.462468"><ele>21.2</ele><time>2015-04-26T16:39:22.0000000+00:00</time></trkpt><trkpt lat="35.0618652" lon="32.4625379"><ele>22.1</ele><time>2015-04-26T16:39:23.0000000+00:00</time></trkpt><trkpt lat="35.061913" lon="32.4625848"><ele>22.0</ele><time>2015-04-26T16:39:24.0000000+00:00</time></trkpt><trkpt lat="35.0619507" lon="32.4626486"><ele>22.0</ele><time>2015-04-26T16:39:25.0000000+00:00</time></trkpt><trkpt lat="35.0619944" lon="32.4627139"><ele>21.4</ele><time>2015-04-26T16:39:26.0000000+00:00</time></trkpt><trkpt lat="35.0620404" lon="32.4627798"><ele>21.7</ele><time>2015-04-26T16:39:27.0000000+00:00</time></trkpt><trkpt lat="35.0620829" lon="32.4628486"><ele>21.8</ele><time>2015-04-26T16:39:28.0000000+00:00</time></trkpt><trkpt lat="35.0621324" lon="32.462915"><ele>21.9</ele><time>2015-04-26T16:39:29.0000000+00:00</time></trkpt><trkpt lat="35.0621769" lon="32.4629869"><ele>22.4</ele><time>2015-04-26T16:39:30.0000000+00:00</time></trkpt><trkpt lat="35.0622216" lon="32.4630469"><ele>22.7</ele><time>2015-04-26T16:39:31.0000000+00:00</time></trkpt><trkpt lat="35.0622658" lon="32.4631012"><ele>22.3</ele><time>2015-04-26T16:39:32.0000000+00:00</time></trkpt><trkpt lat="35.0623112" lon="32.463167"><ele>22.1</ele><time>2015-04-26T16:39:33.0000000+00:00</time></trkpt><trkpt lat="35.0623481" lon="32.4632382"><ele>21.5</ele><time>2015-04-26T16:39:34.0000000+00:00</time></trkpt><trkpt lat="35.0623933" lon="32.4632984"><ele>20.7</ele><time>2015-04-26T16:39:35.0000000+00:00</time></trkpt><trkpt lat="35.0624397" lon="32.4633651"><ele>20.3</ele><time>2015-04-26T16:39:36.0000000+00:00</time></trkpt><trkpt lat="35.0624868" lon="32.4634351"><ele>19.6</ele><time>2015-04-26T16:39:37.0000000+00:00</time></trkpt><trkpt lat="35.0625383" lon="32.4634883"><ele>18.8</ele><time>2015-04-26T16:39:38.0000000+00:00</time></trkpt><trkpt lat="35.0625848" lon="32.4635628"><ele>19.4</ele><time>2015-04-26T16:39:39.0000000+00:00</time></trkpt><trkpt lat="35.0626328" lon="32.4636308"><ele>19.6</ele><time>2015-04-26T16:39:40.0000000+00:00</time></trkpt><trkpt lat="35.0626856" lon="32.4637033"><ele>19.8</ele><time>2015-04-26T16:39:41.0000000+00:00</time></trkpt><trkpt lat="35.0627317" lon="32.4637747"><ele>19.9</ele><time>2015-04-26T16:39:42.0000000+00:00</time></trkpt><trkpt lat="35.0627834" lon="32.4638421"><ele>19.4</ele><time>2015-04-26T16:39:43.0000000+00:00</time></trkpt><trkpt lat="35.0628324" lon="32.4639006"><ele>19.2</ele><time>2015-04-26T16:39:44.0000000+00:00</time></trkpt><trkpt lat="35.0628752" lon="32.4639618"><ele>18.5</ele><time>2015-04-26T16:39:45.0000000+00:00</time></trkpt><trkpt lat="35.0629163" lon="32.4640198"><ele>18.2</ele><time>2015-04-26T16:39:46.0000000+00:00</time></trkpt><trkpt lat="35.0629585" lon="32.4640867"><ele>17.6</ele><time>2015-04-26T16:39:47.0000000+00:00</time></trkpt><trkpt lat="35.0630037" lon="32.464147"><ele>17.8</ele><time>2015-04-26T16:39:48.0000000+00:00</time></trkpt><trkpt lat="35.0630446" lon="32.4642075"><ele>17.8</ele><time>2015-04-26T16:39:49.0000000+00:00</time></trkpt><trkpt lat="35.0630835" lon="32.4642671"><ele>17.9</ele><time>2015-04-26T16:39:50.0000000+00:00</time></trkpt><trkpt lat="35.0631241" lon="32.4643109"><ele>17.9</ele><time>2015-04-26T16:39:51.0000000+00:00</time></trkpt><trkpt lat="35.063161" lon="32.4643647"><ele>17.9</ele><time>2015-04-26T16:39:52.0000000+00:00</time></trkpt><trkpt lat="35.0631948" lon="32.464421"><ele>17.4</ele><time>2015-04-26T16:39:53.0000000+00:00</time></trkpt><trkpt lat="35.0632278" lon="32.4644698"><ele>17.7</ele><time>2015-04-26T16:39:54.0000000+00:00</time></trkpt><trkpt lat="35.0632668" lon="32.4645238"><ele>17.3</ele><time>2015-04-26T16:39:55.0000000+00:00</time></trkpt><trkpt lat="35.0633118" lon="32.4645918"><ele>17.1</ele><time>2015-04-26T16:39:56.0000000+00:00</time></trkpt><trkpt lat="35.0633572" lon="32.4646517"><ele>17.0</ele><time>2015-04-26T16:39:57.0000000+00:00</time></trkpt><trkpt lat="35.0634053" lon="32.4647173"><ele>17.0</ele><time>2015-04-26T16:39:58.0000000+00:00</time></trkpt><trkpt lat="35.0634601" lon="32.4647838"><ele>17.0</ele><time>2015-04-26T16:39:59.0000000+00:00</time></trkpt><trkpt lat="35.0635107" lon="32.4648397"><ele>16.9</ele><time>2015-04-26T16:40:00.0000000+00:00</time></trkpt><trkpt lat="35.0635608" lon="32.4648957"><ele>16.9</ele><time>2015-04-26T16:40:01.0000000+00:00</time></trkpt><trkpt lat="35.0636046" lon="32.4649428"><ele>17.4</ele><time>2015-04-26T16:40:02.0000000+00:00</time></trkpt><trkpt lat="35.0636568" lon="32.4649952"><ele>18.2</ele><time>2015-04-26T16:40:03.0000000+00:00</time></trkpt><trkpt lat="35.0637052" lon="32.4650422"><ele>18.6</ele><time>2015-04-26T16:40:04.0000000+00:00</time></trkpt><trkpt lat="35.063748" lon="32.4650938"><ele>18.7</ele><time>2015-04-26T16:40:05.0000000+00:00</time></trkpt><trkpt lat="35.0637884" lon="32.4651372"><ele>18.8</ele><time>2015-04-26T16:40:06.0000000+00:00</time></trkpt><trkpt lat="35.0638302" lon="32.4651877"><ele>18.4</ele><time>2015-04-26T16:40:07.0000000+00:00</time></trkpt><trkpt lat="35.063878" lon="32.4652372"><ele>18.2</ele><time>2015-04-26T16:40:08.0000000+00:00</time></trkpt><trkpt lat="35.063926" lon="32.4652902"><ele>18.0</ele><time>2015-04-26T16:40:09.0000000+00:00</time></trkpt><trkpt lat="35.0639674" lon="32.4653432"><ele>18.0</ele><time>2015-04-26T16:40:10.0000000+00:00</time></trkpt><trkpt lat="35.0640141" lon="32.4653905"><ele>18.0</ele><time>2015-04-26T16:40:11.0000000+00:00</time></trkpt><trkpt lat="35.064057" lon="32.4654548"><ele>17.9</ele><time>2015-04-26T16:40:12.0000000+00:00</time></trkpt><trkpt lat="35.0641042" lon="32.4655055"><ele>17.9</ele><time>2015-04-26T16:40:13.0000000+00:00</time></trkpt><trkpt lat="35.0641569" lon="32.4655636"><ele>17.9</ele><time>2015-04-26T16:40:14.0000000+00:00</time></trkpt><trkpt lat="35.0642078" lon="32.4656212"><ele>17.9</ele><time>2015-04-26T16:40:15.0000000+00:00</time></trkpt><trkpt lat="35.0642564" lon="32.4656721"><ele>18.4</ele><time>2015-04-26T16:40:16.0000000+00:00</time></trkpt><trkpt lat="35.0643045" lon="32.4657214"><ele>18.2</ele><time>2015-04-26T16:40:17.0000000+00:00</time></trkpt><trkpt lat="35.0643581" lon="32.4657742"><ele>18.6</ele><time>2015-04-26T16:40:18.0000000+00:00</time></trkpt><trkpt lat="35.0644085" lon="32.4658316"><ele>18.7</ele><time>2015-04-26T16:40:19.0000000+00:00</time></trkpt><trkpt lat="35.0644646" lon="32.4658935"><ele>18.8</ele><time>2015-04-26T16:40:20.0000000+00:00</time></trkpt><trkpt lat="35.0645206" lon="32.4659455"><ele>18.4</ele><time>2015-04-26T16:40:21.0000000+00:00</time></trkpt><trkpt lat="35.0645654" lon="32.4659979"><ele>18.2</ele><time>2015-04-26T16:40:22.0000000+00:00</time></trkpt><trkpt lat="35.0646105" lon="32.4660598"><ele>18.0</ele><time>2015-04-26T16:40:23.0000000+00:00</time></trkpt><trkpt lat="35.0646608" lon="32.4661211"><ele>18.5</ele><time>2015-04-26T16:40:24.0000000+00:00</time></trkpt><trkpt lat="35.0647091" lon="32.4661835"><ele>18.2</ele><time>2015-04-26T16:40:25.0000000+00:00</time></trkpt><trkpt lat="35.064754" lon="32.4662469"><ele>18.1</ele><time>2015-04-26T16:40:26.0000000+00:00</time></trkpt><trkpt lat="35.0647871" lon="32.4663028"><ele>17.5</ele><time>2015-04-26T16:40:27.0000000+00:00</time></trkpt><trkpt lat="35.0648244" lon="32.4663591"><ele>17.2</ele><time>2015-04-26T16:40:28.0000000+00:00</time></trkpt><trkpt lat="35.0648731" lon="32.4664139"><ele>16.6</ele><time>2015-04-26T16:40:29.0000000+00:00</time></trkpt><trkpt lat="35.0649059" lon="32.4664743"><ele>16.8</ele><time>2015-04-26T16:40:30.0000000+00:00</time></trkpt><trkpt lat="35.0649442" lon="32.4665357"><ele>16.8</ele><time>2015-04-26T16:40:31.0000000+00:00</time></trkpt><trkpt lat="35.0649863" lon="32.4665948"><ele>16.9</ele><time>2015-04-26T16:40:32.0000000+00:00</time></trkpt><trkpt lat="35.0650238" lon="32.466666"><ele>16.9</ele><time>2015-04-26T16:40:33.0000000+00:00</time></trkpt><trkpt lat="35.0650595" lon="32.4667462"><ele>16.9</ele><time>2015-04-26T16:40:34.0000000+00:00</time></trkpt><trkpt lat="35.0651024" lon="32.4668179"><ele>16.9</ele><time>2015-04-26T16:40:35.0000000+00:00</time></trkpt><trkpt lat="35.0651478" lon="32.4668883"><ele>16.9</ele><time>2015-04-26T16:40:36.0000000+00:00</time></trkpt><trkpt lat="35.0651846" lon="32.4669583"><ele>17.4</ele><time>2015-04-26T16:40:37.0000000+00:00</time></trkpt><trkpt lat="35.065214" lon="32.4670262"><ele>18.2</ele><time>2015-04-26T16:40:38.0000000+00:00</time></trkpt><trkpt lat="35.0652473" lon="32.4670889"><ele>18.1</ele><time>2015-04-26T16:40:39.0000000+00:00</time></trkpt><trkpt lat="35.065277" lon="32.4671533"><ele>18.5</ele><time>2015-04-26T16:40:40.0000000+00:00</time></trkpt><trkpt lat="35.0653085" lon="32.4672104"><ele>18.7</ele><time>2015-04-26T16:40:41.0000000+00:00</time></trkpt><trkpt lat="35.0653341" lon="32.4672601"><ele>19.3</ele><time>2015-04-26T16:40:42.0000000+00:00</time></trkpt><trkpt lat="35.0653664" lon="32.4673122"><ele>19.1</ele><time>2015-04-26T16:40:43.0000000+00:00</time></trkpt><trkpt lat="35.0653948" lon="32.4673738"><ele>19.5</ele><time>2015-04-26T16:40:44.0000000+00:00</time></trkpt><trkpt lat="35.0654247" lon="32.4674283"><ele>19.2</ele><time>2015-04-26T16:40:45.0000000+00:00</time></trkpt><trkpt lat="35.0654646" lon="32.4674794"><ele>19.1</ele><time>2015-04-26T16:40:46.0000000+00:00</time></trkpt><trkpt lat="35.06549" lon="32.4675419"><ele>19.5</ele><time>2015-04-26T16:40:47.0000000+00:00</time></trkpt><trkpt lat="35.0655168" lon="32.4676072"><ele>19.7</ele><time>2015-04-26T16:40:48.0000000+00:00</time></trkpt><trkpt lat="35.0655456" lon="32.4676698"><ele>20.3</ele><time>2015-04-26T16:40:49.0000000+00:00</time></trkpt><trkpt lat="35.0655775" lon="32.4677269"><ele>20.1</ele><time>2015-04-26T16:40:50.0000000+00:00</time></trkpt><trkpt lat="35.0656074" lon="32.46779"><ele>20.5</ele><time>2015-04-26T16:40:51.0000000+00:00</time></trkpt><trkpt lat="35.0656314" lon="32.4678567"><ele>20.2</ele><time>2015-04-26T16:40:52.0000000+00:00</time></trkpt><trkpt lat="35.0656563" lon="32.4679264"><ele>20.1</ele><time>2015-04-26T16:40:53.0000000+00:00</time></trkpt><trkpt lat="35.0656913" lon="32.4679893"><ele>20.5</ele><time>2015-04-26T16:40:54.0000000+00:00</time></trkpt><trkpt lat="35.0657238" lon="32.4680511"><ele>20.7</ele><time>2015-04-26T16:40:55.0000000+00:00</time></trkpt><trkpt lat="35.0657513" lon="32.4681203"><ele>20.8</ele><time>2015-04-26T16:40:56.0000000+00:00</time></trkpt><trkpt lat="35.065787" lon="32.4681756"><ele>20.9</ele><time>2015-04-26T16:40:57.0000000+00:00</time></trkpt><trkpt lat="35.0658186" lon="32.4682334"><ele>21.4</ele><time>2015-04-26T16:40:58.0000000+00:00</time></trkpt><trkpt lat="35.0658591" lon="32.4683049"><ele>21.7</ele><time>2015-04-26T16:40:59.0000000+00:00</time></trkpt><trkpt lat="35.0658878" lon="32.468376"><ele>21.3</ele><time>2015-04-26T16:41:00.0000000+00:00</time></trkpt><trkpt lat="35.0659238" lon="32.4684399"><ele>21.1</ele><time>2015-04-26T16:41:01.0000000+00:00</time></trkpt><trkpt lat="35.0659533" lon="32.4684986"><ele>21.0</ele><time>2015-04-26T16:41:02.0000000+00:00</time></trkpt><trkpt lat="35.0659876" lon="32.4685589"><ele>21.0</ele><time>2015-04-26T16:41:03.0000000+00:00</time></trkpt><trkpt lat="35.0660283" lon="32.4686092"><ele>20.5</ele><time>2015-04-26T16:41:04.0000000+00:00</time></trkpt><trkpt lat="35.0660614" lon="32.4686705"><ele>20.2</ele><time>2015-04-26T16:41:05.0000000+00:00</time></trkpt><trkpt lat="35.0661015" lon="32.4687319"><ele>20.6</ele><time>2015-04-26T16:41:06.0000000+00:00</time></trkpt><trkpt lat="35.0661406" lon="32.4687824"><ele>20.7</ele><time>2015-04-26T16:41:07.0000000+00:00</time></trkpt><trkpt lat="35.0661728" lon="32.4688434"><ele>20.8</ele><time>2015-04-26T16:41:08.0000000+00:00</time></trkpt><trkpt lat="35.066203" lon="32.4688927"><ele>20.4</ele><time>2015-04-26T16:41:09.0000000+00:00</time></trkpt><trkpt lat="35.0662366" lon="32.4689545"><ele>20.7</ele><time>2015-04-26T16:41:10.0000000+00:00</time></trkpt><trkpt lat="35.066277" lon="32.469006"><ele>20.8</ele><time>2015-04-26T16:41:11.0000000+00:00</time></trkpt><trkpt lat="35.0663096" lon="32.4690638"><ele>20.9</ele><time>2015-04-26T16:41:12.0000000+00:00</time></trkpt><trkpt lat="35.0663442" lon="32.4691179"><ele>20.9</ele><time>2015-04-26T16:41:13.0000000+00:00</time></trkpt><trkpt lat="35.0663739" lon="32.4691669"><ele>20.9</ele><time>2015-04-26T16:41:14.0000000+00:00</time></trkpt><trkpt lat="35.0664116" lon="32.4692182"><ele>20.9</ele><time>2015-04-26T16:41:15.0000000+00:00</time></trkpt><trkpt lat="35.0664498" lon="32.469262"><ele>21.4</ele><time>2015-04-26T16:41:16.0000000+00:00</time></trkpt><trkpt lat="35.0665005" lon="32.4693258"><ele>21.6</ele><time>2015-04-26T16:41:18.0000000+00:00</time></trkpt><trkpt lat="35.0665376" lon="32.4693692"><ele>21.6</ele><time>2015-04-26T16:41:20.0000000+00:00</time></trkpt><trkpt lat="35.0665785" lon="32.46941"><ele>21.8</ele><time>2015-04-26T16:41:23.0000000+00:00</time></trkpt><trkpt lat="35.0665571" lon="32.4694708"><ele>21.9</ele><time>2015-04-26T16:41:27.0000000+00:00</time></trkpt><trkpt lat="35.0665024" lon="32.4694659"><ele>20.3</ele><time>2015-04-26T16:41:31.0000000+00:00</time></trkpt><trkpt lat="35.0664701" lon="32.4694272"><ele>19.4</ele><time>2015-04-26T16:51:29.0000000+00:00</time></trkpt><trkpt lat="35.0665134" lon="32.4694466"><ele>18.6</ele><time>2015-04-26T16:53:23.0000000+00:00</time></trkpt><trkpt lat="35.0665508" lon="32.4694778"><ele>19.3</ele><time>2015-04-26T16:53:25.0000000+00:00</time></trkpt><trkpt lat="35.0665856" lon="32.4695166"><ele>19.8</ele><time>2015-04-26T16:53:27.0000000+00:00</time></trkpt><trkpt lat="35.0666245" lon="32.4695595"><ele>18.6</ele><time>2015-04-26T16:53:29.0000000+00:00</time></trkpt><trkpt lat="35.0666588" lon="32.4696069"><ele>18.9</ele><time>2015-04-26T16:53:31.0000000+00:00</time></trkpt><trkpt lat="35.0666917" lon="32.4696492"><ele>17.7</ele><time>2015-04-26T16:53:33.0000000+00:00</time></trkpt><trkpt lat="35.0667331" lon="32.4696742"><ele>17.1</ele><time>2015-04-26T16:53:35.0000000+00:00</time></trkpt><trkpt lat="35.0667844" lon="32.4696912"><ele>17.5</ele><time>2015-04-26T16:53:37.0000000+00:00</time></trkpt><trkpt lat="35.0668378" lon="32.4697206"><ele>17.8</ele><time>2015-04-26T16:53:39.0000000+00:00</time></trkpt><trkpt lat="35.0668939" lon="32.469773"><ele>17.9</ele><time>2015-04-26T16:53:41.0000000+00:00</time></trkpt><trkpt lat="35.0669541" lon="32.4698351"><ele>18.7</ele><time>2015-04-26T16:53:43.0000000+00:00</time></trkpt><trkpt lat="35.0669885" lon="32.4698727"><ele>18.8</ele><time>2015-04-26T16:53:44.0000000+00:00</time></trkpt><trkpt lat="35.0670472" lon="32.4699439"><ele>18.4</ele><time>2015-04-26T16:53:45.0000000+00:00</time></trkpt><trkpt lat="35.0671061" lon="32.4700122"><ele>18.5</ele><time>2015-04-26T16:53:47.0000000+00:00</time></trkpt><trkpt lat="35.0671434" lon="32.4700573"><ele>18.7</ele><time>2015-04-26T16:53:48.0000000+00:00</time></trkpt><trkpt lat="35.0672072" lon="32.4701314"><ele>19.6</ele><time>2015-04-26T16:53:50.0000000+00:00</time></trkpt><trkpt lat="35.0672494" lon="32.4701707"><ele>19.8</ele><time>2015-04-26T16:53:51.0000000+00:00</time></trkpt><trkpt lat="35.0672856" lon="32.4702135"><ele>19.9</ele><time>2015-04-26T16:53:52.0000000+00:00</time></trkpt><trkpt lat="35.0673167" lon="32.4702603"><ele>19.4</ele><time>2015-04-26T16:53:53.0000000+00:00</time></trkpt><trkpt lat="35.0673615" lon="32.4703088"><ele>19.2</ele><time>2015-04-26T16:53:54.0000000+00:00</time></trkpt><trkpt lat="35.0673933" lon="32.4703516"><ele>19.0</ele><time>2015-04-26T16:53:55.0000000+00:00</time></trkpt><trkpt lat="35.0674354" lon="32.4704115"><ele>19.0</ele><time>2015-04-26T16:53:56.0000000+00:00</time></trkpt><trkpt lat="35.0674712" lon="32.4704514"><ele>18.5</ele><time>2015-04-26T16:53:57.0000000+00:00</time></trkpt><trkpt lat="35.0675057" lon="32.470551"><ele>17.1</ele><time>2015-04-26T16:53:59.0000000+00:00</time></trkpt><trkpt lat="35.0675459" lon="32.4706049"><ele>15.5</ele><time>2015-04-26T16:54:00.0000000+00:00</time></trkpt><trkpt lat="35.0675849" lon="32.4706592"><ele>15.2</ele><time>2015-04-26T16:54:01.0000000+00:00</time></trkpt><trkpt lat="35.067619" lon="32.4707159"><ele>15.1</ele><time>2015-04-26T16:54:02.0000000+00:00</time></trkpt><trkpt lat="35.0676593" lon="32.4707632"><ele>14.5</ele><time>2015-04-26T16:54:03.0000000+00:00</time></trkpt><trkpt lat="35.0677105" lon="32.470799"><ele>13.7</ele><time>2015-04-26T16:54:04.0000000+00:00</time></trkpt><trkpt lat="35.067754" lon="32.4708458"><ele>12.8</ele><time>2015-04-26T16:54:05.0000000+00:00</time></trkpt><trkpt lat="35.067796" lon="32.4708916"><ele>12.9</ele><time>2015-04-26T16:54:06.0000000+00:00</time></trkpt><trkpt lat="35.067841" lon="32.470947"><ele>13.4</ele><time>2015-04-26T16:54:07.0000000+00:00</time></trkpt><trkpt lat="35.0678693" lon="32.4709902"><ele>13.7</ele><time>2015-04-26T16:54:08.0000000+00:00</time></trkpt><trkpt lat="35.0679404" lon="32.4710958"><ele>13.4</ele><time>2015-04-26T16:54:10.0000000+00:00</time></trkpt><trkpt lat="35.0679811" lon="32.471148"><ele>13.1</ele><time>2015-04-26T16:54:11.0000000+00:00</time></trkpt><trkpt lat="35.0680184" lon="32.4712029"><ele>13.5</ele><time>2015-04-26T16:54:12.0000000+00:00</time></trkpt><trkpt lat="35.0680601" lon="32.4712564"><ele>14.2</ele><time>2015-04-26T16:54:13.0000000+00:00</time></trkpt><trkpt lat="35.0681044" lon="32.4713065"><ele>14.6</ele><time>2015-04-26T16:54:14.0000000+00:00</time></trkpt><trkpt lat="35.0681595" lon="32.471354"><ele>14.8</ele><time>2015-04-26T16:54:15.0000000+00:00</time></trkpt><trkpt lat="35.0682029" lon="32.4714137"><ele>14.3</ele><time>2015-04-26T16:54:16.0000000+00:00</time></trkpt><trkpt lat="35.0682462" lon="32.4714723"><ele>14.1</ele><time>2015-04-26T16:54:17.0000000+00:00</time></trkpt><trkpt lat="35.0682903" lon="32.4715256"><ele>13.5</ele><time>2015-04-26T16:54:18.0000000+00:00</time></trkpt><trkpt lat="35.0683348" lon="32.4715867"><ele>13.2</ele><time>2015-04-26T16:54:19.0000000+00:00</time></trkpt><trkpt lat="35.068386" lon="32.4716533"><ele>13.6</ele><time>2015-04-26T16:54:20.0000000+00:00</time></trkpt><trkpt lat="35.0684289" lon="32.4717119"><ele>14.3</ele><time>2015-04-26T16:54:21.0000000+00:00</time></trkpt><trkpt lat="35.0684726" lon="32.4717807"><ele>14.6</ele><time>2015-04-26T16:54:22.0000000+00:00</time></trkpt><trkpt lat="35.0685206" lon="32.4718394"><ele>14.8</ele><time>2015-04-26T16:54:23.0000000+00:00</time></trkpt><trkpt lat="35.0685644" lon="32.471913"><ele>14.8</ele><time>2015-04-26T16:54:24.0000000+00:00</time></trkpt><trkpt lat="35.068607" lon="32.4719833"><ele>15.4</ele><time>2015-04-26T16:54:25.0000000+00:00</time></trkpt><trkpt lat="35.0686557" lon="32.4720408"><ele>16.2</ele><time>2015-04-26T16:54:26.0000000+00:00</time></trkpt><trkpt lat="35.0687006" lon="32.472109"><ele>16.5</ele><time>2015-04-26T16:54:27.0000000+00:00</time></trkpt><trkpt lat="35.0687487" lon="32.472172"><ele>16.2</ele><time>2015-04-26T16:54:28.0000000+00:00</time></trkpt><trkpt lat="35.0687925" lon="32.4722362"><ele>16.6</ele><time>2015-04-26T16:54:29.0000000+00:00</time></trkpt><trkpt lat="35.0688358" lon="32.4723027"><ele>17.3</ele><time>2015-04-26T16:54:30.0000000+00:00</time></trkpt><trkpt lat="35.0688758" lon="32.4723698"><ele>17.1</ele><time>2015-04-26T16:54:31.0000000+00:00</time></trkpt><trkpt lat="35.068925" lon="32.4724332"><ele>16.5</ele><time>2015-04-26T16:54:32.0000000+00:00</time></trkpt><trkpt lat="35.0689725" lon="32.472499"><ele>16.2</ele><time>2015-04-26T16:54:33.0000000+00:00</time></trkpt><trkpt lat="35.0690234" lon="32.4725686"><ele>16.6</ele><time>2015-04-26T16:54:34.0000000+00:00</time></trkpt><trkpt lat="35.0690665" lon="32.4726309"><ele>17.3</ele><time>2015-04-26T16:54:35.0000000+00:00</time></trkpt><trkpt lat="35.0691142" lon="32.4726866"><ele>17.6</ele><time>2015-04-26T16:54:36.0000000+00:00</time></trkpt><trkpt lat="35.0691614" lon="32.4727522"><ele>17.8</ele><time>2015-04-26T16:54:37.0000000+00:00</time></trkpt><trkpt lat="35.0692076" lon="32.4728117"><ele>17.3</ele><time>2015-04-26T16:54:38.0000000+00:00</time></trkpt><trkpt lat="35.0692578" lon="32.472872"><ele>17.1</ele><time>2015-04-26T16:54:39.0000000+00:00</time></trkpt><trkpt lat="35.0693112" lon="32.4729384"><ele>17.0</ele><time>2015-04-26T16:54:40.0000000+00:00</time></trkpt><trkpt lat="35.0693629" lon="32.472998"><ele>17.0</ele><time>2015-04-26T16:54:41.0000000+00:00</time></trkpt><trkpt lat="35.069415" lon="32.4730622"><ele>17.0</ele><time>2015-04-26T16:54:42.0000000+00:00</time></trkpt><trkpt lat="35.0694546" lon="32.4731175"><ele>17.4</ele><time>2015-04-26T16:54:43.0000000+00:00</time></trkpt><trkpt lat="35.0695013" lon="32.4731826"><ele>17.7</ele><time>2015-04-26T16:54:44.0000000+00:00</time></trkpt><trkpt lat="35.0695526" lon="32.4732297"><ele>17.3</ele><time>2015-04-26T16:54:45.0000000+00:00</time></trkpt><trkpt lat="35.0695945" lon="32.4732888"><ele>17.6</ele><time>2015-04-26T16:54:46.0000000+00:00</time></trkpt><trkpt lat="35.0696507" lon="32.4733466"><ele>17.3</ele><time>2015-04-26T16:54:47.0000000+00:00</time></trkpt><trkpt lat="35.0697048" lon="32.4734052"><ele>17.1</ele><time>2015-04-26T16:54:48.0000000+00:00</time></trkpt><trkpt lat="35.0697537" lon="32.4734705"><ele>17.0</ele><time>2015-04-26T16:54:49.0000000+00:00</time></trkpt><trkpt lat="35.0698019" lon="32.4735319"><ele>17.5</ele><time>2015-04-26T16:54:50.0000000+00:00</time></trkpt><trkpt lat="35.0698484" lon="32.4735921"><ele>17.7</ele><time>2015-04-26T16:54:51.0000000+00:00</time></trkpt><trkpt lat="35.0698895" lon="32.4736546"><ele>17.3</ele><time>2015-04-26T16:54:52.0000000+00:00</time></trkpt><trkpt lat="35.0699343" lon="32.4737177"><ele>16.6</ele><time>2015-04-26T16:54:53.0000000+00:00</time></trkpt><trkpt lat="35.0699774" lon="32.4737782"><ele>15.8</ele><time>2015-04-26T16:54:54.0000000+00:00</time></trkpt><trkpt lat="35.0700214" lon="32.4738427"><ele>15.4</ele><time>2015-04-26T16:54:55.0000000+00:00</time></trkpt><trkpt lat="35.0700742" lon="32.4739006"><ele>15.1</ele><time>2015-04-26T16:54:56.0000000+00:00</time></trkpt><trkpt lat="35.070122" lon="32.4739525"><ele>15.0</ele><time>2015-04-26T16:54:57.0000000+00:00</time></trkpt><trkpt lat="35.07016" lon="32.4740067"><ele>15.0</ele><time>2015-04-26T16:54:58.0000000+00:00</time></trkpt><trkpt lat="35.0702071" lon="32.4740619"><ele>15.5</ele><time>2015-04-26T16:54:59.0000000+00:00</time></trkpt><trkpt lat="35.0702478" lon="32.4741137"><ele>15.7</ele><time>2015-04-26T16:55:00.0000000+00:00</time></trkpt><trkpt lat="35.0702915" lon="32.4741768"><ele>15.3</ele><time>2015-04-26T16:55:01.0000000+00:00</time></trkpt><trkpt lat="35.0703382" lon="32.4742327"><ele>15.6</ele><time>2015-04-26T16:55:02.0000000+00:00</time></trkpt><trkpt lat="35.0703896" lon="32.4742848"><ele>15.3</ele><time>2015-04-26T16:55:03.0000000+00:00</time></trkpt><trkpt lat="35.0704415" lon="32.4743378"><ele>15.1</ele><time>2015-04-26T16:55:04.0000000+00:00</time></trkpt><trkpt lat="35.0704888" lon="32.4743938"><ele>15.0</ele><time>2015-04-26T16:55:05.0000000+00:00</time></trkpt><trkpt lat="35.0705363" lon="32.4744406"><ele>15.5</ele><time>2015-04-26T16:55:06.0000000+00:00</time></trkpt><trkpt lat="35.0705804" lon="32.4744984"><ele>16.2</ele><time>2015-04-26T16:55:07.0000000+00:00</time></trkpt><trkpt lat="35.0706337" lon="32.4745513"><ele>16.6</ele><time>2015-04-26T16:55:08.0000000+00:00</time></trkpt><trkpt lat="35.0706788" lon="32.4746157"><ele>17.2</ele><time>2015-04-26T16:55:09.0000000+00:00</time></trkpt><trkpt lat="35.0707332" lon="32.4746664"><ele>17.6</ele><time>2015-04-26T16:55:10.0000000+00:00</time></trkpt><trkpt lat="35.0707856" lon="32.4747304"><ele>18.3</ele><time>2015-04-26T16:55:11.0000000+00:00</time></trkpt><trkpt lat="35.0708374" lon="32.4747866"><ele>18.6</ele><time>2015-04-26T16:55:12.0000000+00:00</time></trkpt><trkpt lat="35.0708908" lon="32.4748426"><ele>18.3</ele><time>2015-04-26T16:55:13.0000000+00:00</time></trkpt><trkpt lat="35.0709521" lon="32.4749098"><ele>17.6</ele><time>2015-04-26T16:55:14.0000000+00:00</time></trkpt><trkpt lat="35.0710054" lon="32.4749784"><ele>17.3</ele><time>2015-04-26T16:55:15.0000000+00:00</time></trkpt><trkpt lat="35.0710519" lon="32.4750324"><ele>17.1</ele><time>2015-04-26T16:55:16.0000000+00:00</time></trkpt><trkpt lat="35.0711052" lon="32.4750992"><ele>17.5</ele><time>2015-04-26T16:55:17.0000000+00:00</time></trkpt><trkpt lat="35.0711585" lon="32.4751612"><ele>18.2</ele><time>2015-04-26T16:55:18.0000000+00:00</time></trkpt><trkpt lat="35.0712062" lon="32.4752209"><ele>18.6</ele><time>2015-04-26T16:55:19.0000000+00:00</time></trkpt><trkpt lat="35.0712578" lon="32.4752821"><ele>18.8</ele><time>2015-04-26T16:55:20.0000000+00:00</time></trkpt><trkpt lat="35.071304" lon="32.4753375"><ele>18.8</ele><time>2015-04-26T16:55:21.0000000+00:00</time></trkpt><trkpt lat="35.0713543" lon="32.4753991"><ele>18.9</ele><time>2015-04-26T16:55:22.0000000+00:00</time></trkpt><trkpt lat="35.0714005" lon="32.4754565"><ele>18.9</ele><time>2015-04-26T16:55:23.0000000+00:00</time></trkpt><trkpt lat="35.0714493" lon="32.4755103"><ele>18.4</ele><time>2015-04-26T16:55:24.0000000+00:00</time></trkpt><trkpt lat="35.0714951" lon="32.4755649"><ele>18.7</ele><time>2015-04-26T16:55:25.0000000+00:00</time></trkpt><trkpt lat="35.0715347" lon="32.4756177"><ele>18.3</ele><time>2015-04-26T16:55:26.0000000+00:00</time></trkpt><trkpt lat="35.0715753" lon="32.475685"><ele>18.1</ele><time>2015-04-26T16:55:27.0000000+00:00</time></trkpt><trkpt lat="35.0716221" lon="32.4757401"><ele>18.0</ele><time>2015-04-26T16:55:28.0000000+00:00</time></trkpt><trkpt lat="35.0716638" lon="32.4757879"><ele>18.5</ele><time>2015-04-26T16:55:29.0000000+00:00</time></trkpt><trkpt lat="35.0717108" lon="32.4758423"><ele>19.2</ele><time>2015-04-26T16:55:30.0000000+00:00</time></trkpt><trkpt lat="35.0717594" lon="32.4758986"><ele>19.1</ele><time>2015-04-26T16:55:31.0000000+00:00</time></trkpt><trkpt lat="35.0717968" lon="32.4759524"><ele>19.0</ele><time>2015-04-26T16:55:32.0000000+00:00</time></trkpt><trkpt lat="35.0718392" lon="32.4760094"><ele>19.0</ele><time>2015-04-26T16:55:33.0000000+00:00</time></trkpt><trkpt lat="35.071884" lon="32.476056"><ele>18.4</ele><time>2015-04-26T16:55:34.0000000+00:00</time></trkpt><trkpt lat="35.0719312" lon="32.4761078"><ele>18.2</ele><time>2015-04-26T16:55:35.0000000+00:00</time></trkpt><trkpt lat="35.0719733" lon="32.4761719"><ele>18.6</ele><time>2015-04-26T16:55:36.0000000+00:00</time></trkpt><trkpt lat="35.0720271" lon="32.476231"><ele>18.2</ele><time>2015-04-26T16:55:37.0000000+00:00</time></trkpt><trkpt lat="35.0720631" lon="32.4762799"><ele>17.6</ele><time>2015-04-26T16:55:38.0000000+00:00</time></trkpt><trkpt lat="35.0721059" lon="32.4763392"><ele>17.3</ele><time>2015-04-26T16:55:39.0000000+00:00</time></trkpt><trkpt lat="35.0721603" lon="32.4763992"><ele>17.1</ele><time>2015-04-26T16:55:40.0000000+00:00</time></trkpt><trkpt lat="35.0722138" lon="32.4764635"><ele>17.0</ele><time>2015-04-26T16:55:41.0000000+00:00</time></trkpt><trkpt lat="35.0722645" lon="32.4765148"><ele>17.0</ele><time>2015-04-26T16:55:42.0000000+00:00</time></trkpt><trkpt lat="35.0723075" lon="32.4765703"><ele>17.0</ele><time>2015-04-26T16:55:43.0000000+00:00</time></trkpt><trkpt lat="35.0723544" lon="32.4766256"><ele>16.9</ele><time>2015-04-26T16:55:44.0000000+00:00</time></trkpt><trkpt lat="35.0724006" lon="32.4766884"><ele>16.4</ele><time>2015-04-26T16:55:45.0000000+00:00</time></trkpt><trkpt lat="35.0724554" lon="32.4767525"><ele>16.2</ele><time>2015-04-26T16:55:46.0000000+00:00</time></trkpt><trkpt lat="35.0725052" lon="32.4768216"><ele>16.6</ele><time>2015-04-26T16:55:47.0000000+00:00</time></trkpt><trkpt lat="35.0725521" lon="32.4768909"><ele>16.7</ele><time>2015-04-26T16:55:48.0000000+00:00</time></trkpt><trkpt lat="35.0726063" lon="32.4769618"><ele>17.3</ele><time>2015-04-26T16:55:49.0000000+00:00</time></trkpt><trkpt lat="35.0726588" lon="32.4770277"><ele>17.1</ele><time>2015-04-26T16:55:50.0000000+00:00</time></trkpt><trkpt lat="35.0727112" lon="32.4770907"><ele>17.0</ele><time>2015-04-26T16:55:51.0000000+00:00</time></trkpt><trkpt lat="35.0727627" lon="32.4771475"><ele>17.5</ele><time>2015-04-26T16:55:52.0000000+00:00</time></trkpt><trkpt lat="35.0728131" lon="32.4772113"><ele>17.7</ele><time>2015-04-26T16:55:53.0000000+00:00</time></trkpt><trkpt lat="35.0728621" lon="32.4772755"><ele>18.3</ele><time>2015-04-26T16:55:54.0000000+00:00</time></trkpt><trkpt lat="35.0729123" lon="32.4773472"><ele>18.6</ele><time>2015-04-26T16:55:55.0000000+00:00</time></trkpt><trkpt lat="35.0729694" lon="32.4773954"><ele>19.3</ele><time>2015-04-26T16:55:56.0000000+00:00</time></trkpt><trkpt lat="35.0730246" lon="32.4774691"><ele>19.1</ele><time>2015-04-26T16:55:57.0000000+00:00</time></trkpt><trkpt lat="35.0730763" lon="32.4775239"><ele>19.5</ele><time>2015-04-26T16:55:58.0000000+00:00</time></trkpt><trkpt lat="35.0731216" lon="32.4775781"><ele>19.2</ele><time>2015-04-26T16:55:59.0000000+00:00</time></trkpt><trkpt lat="35.0731721" lon="32.477641"><ele>19.1</ele><time>2015-04-26T16:56:00.0000000+00:00</time></trkpt><trkpt lat="35.0732228" lon="32.4777121"><ele>19.0</ele><time>2015-04-26T16:56:01.0000000+00:00</time></trkpt><trkpt lat="35.0732665" lon="32.4777739"><ele>19.0</ele><time>2015-04-26T16:56:02.0000000+00:00</time></trkpt><trkpt lat="35.073314" lon="32.4778423"><ele>18.9</ele><time>2015-04-26T16:56:03.0000000+00:00</time></trkpt><trkpt lat="35.0733695" lon="32.4779038"><ele>18.9</ele><time>2015-04-26T16:56:04.0000000+00:00</time></trkpt><trkpt lat="35.0734171" lon="32.4779753"><ele>18.9</ele><time>2015-04-26T16:56:05.0000000+00:00</time></trkpt><trkpt lat="35.073472" lon="32.4780364"><ele>18.9</ele><time>2015-04-26T16:56:06.0000000+00:00</time></trkpt><trkpt lat="35.0735236" lon="32.4780937"><ele>18.9</ele><time>2015-04-26T16:56:07.0000000+00:00</time></trkpt><trkpt lat="35.0735782" lon="32.4781485"><ele>19.4</ele><time>2015-04-26T16:56:08.0000000+00:00</time></trkpt><trkpt lat="35.0736286" lon="32.4782058"><ele>19.7</ele><time>2015-04-26T16:56:09.0000000+00:00</time></trkpt><trkpt lat="35.0736815" lon="32.4782643"><ele>21.3</ele><time>2015-04-26T16:56:10.0000000+00:00</time></trkpt><trkpt lat="35.073731" lon="32.4783274"><ele>21.6</ele><time>2015-04-26T16:56:11.0000000+00:00</time></trkpt><trkpt lat="35.0737842" lon="32.4783856"><ele>22.3</ele><time>2015-04-26T16:56:12.0000000+00:00</time></trkpt><trkpt lat="35.0738385" lon="32.478453"><ele>22.1</ele><time>2015-04-26T16:56:13.0000000+00:00</time></trkpt><trkpt lat="35.073897" lon="32.4785156"><ele>22.5</ele><time>2015-04-26T16:56:14.0000000+00:00</time></trkpt><trkpt lat="35.0739537" lon="32.4785771"><ele>22.7</ele><time>2015-04-26T16:56:15.0000000+00:00</time></trkpt><trkpt lat="35.0740125" lon="32.478641"><ele>22.8</ele><time>2015-04-26T16:56:16.0000000+00:00</time></trkpt><trkpt lat="35.0740686" lon="32.4787056"><ele>23.4</ele><time>2015-04-26T16:56:17.0000000+00:00</time></trkpt><trkpt lat="35.0741236" lon="32.4787671"><ele>23.7</ele><time>2015-04-26T16:56:18.0000000+00:00</time></trkpt><trkpt lat="35.0741748" lon="32.4788318"><ele>23.8</ele><time>2015-04-26T16:56:19.0000000+00:00</time></trkpt><trkpt lat="35.0742302" lon="32.4788863"><ele>23.9</ele><time>2015-04-26T16:56:20.0000000+00:00</time></trkpt><trkpt lat="35.0742897" lon="32.4789449"><ele>23.9</ele><time>2015-04-26T16:56:21.0000000+00:00</time></trkpt><trkpt lat="35.0743438" lon="32.4789979"><ele>23.9</ele><time>2015-04-26T16:56:22.0000000+00:00</time></trkpt><trkpt lat="35.0744026" lon="32.4790515"><ele>23.4</ele><time>2015-04-26T16:56:23.0000000+00:00</time></trkpt><trkpt lat="35.0744545" lon="32.4791193"><ele>23.2</ele><time>2015-04-26T16:56:24.0000000+00:00</time></trkpt><trkpt lat="35.0745152" lon="32.4791796"><ele>23.1</ele><time>2015-04-26T16:56:25.0000000+00:00</time></trkpt><trkpt lat="35.0745749" lon="32.4792333"><ele>23.0</ele><time>2015-04-26T16:56:26.0000000+00:00</time></trkpt><trkpt lat="35.074632" lon="32.4792915"><ele>22.5</ele><time>2015-04-26T16:56:27.0000000+00:00</time></trkpt><trkpt lat="35.0746863" lon="32.4793563"><ele>22.2</ele><time>2015-04-26T16:56:28.0000000+00:00</time></trkpt><trkpt lat="35.074741" lon="32.4794066"><ele>22.1</ele><time>2015-04-26T16:56:29.0000000+00:00</time></trkpt><trkpt lat="35.0747967" lon="32.4794624"><ele>21.5</ele><time>2015-04-26T16:56:30.0000000+00:00</time></trkpt><trkpt lat="35.0748436" lon="32.4795223"><ele>21.2</ele><time>2015-04-26T16:56:31.0000000+00:00</time></trkpt><trkpt lat="35.0748948" lon="32.4795732"><ele>20.6</ele><time>2015-04-26T16:56:32.0000000+00:00</time></trkpt><trkpt lat="35.0749459" lon="32.4796325"><ele>20.3</ele><time>2015-04-26T16:56:33.0000000+00:00</time></trkpt><trkpt lat="35.0749961" lon="32.4797037"><ele>20.6</ele><time>2015-04-26T16:56:34.0000000+00:00</time></trkpt><trkpt lat="35.0750507" lon="32.4797731"><ele>20.3</ele><time>2015-04-26T16:56:35.0000000+00:00</time></trkpt><trkpt lat="35.0751076" lon="32.4798363"><ele>20.6</ele><time>2015-04-26T16:56:36.0000000+00:00</time></trkpt><trkpt lat="35.075162" lon="32.4798949"><ele>20.8</ele><time>2015-04-26T16:56:37.0000000+00:00</time></trkpt><trkpt lat="35.0752203" lon="32.4799508"><ele>21.3</ele><time>2015-04-26T16:56:38.0000000+00:00</time></trkpt><trkpt lat="35.0752722" lon="32.4800001"><ele>21.6</ele><time>2015-04-26T16:56:39.0000000+00:00</time></trkpt><trkpt lat="35.0753338" lon="32.4800519"><ele>21.3</ele><time>2015-04-26T16:56:40.0000000+00:00</time></trkpt><trkpt lat="35.0753799" lon="32.4801111"><ele>20.6</ele><time>2015-04-26T16:56:41.0000000+00:00</time></trkpt><trkpt lat="35.0754261" lon="32.4801732"><ele>20.8</ele><time>2015-04-26T16:56:42.0000000+00:00</time></trkpt><trkpt lat="35.0754812" lon="32.4802326"><ele>20.8</ele><time>2015-04-26T16:56:43.0000000+00:00</time></trkpt><trkpt lat="35.0755336" lon="32.4803016"><ele>20.9</ele><time>2015-04-26T16:56:44.0000000+00:00</time></trkpt><trkpt lat="35.0755867" lon="32.4803601"><ele>20.9</ele><time>2015-04-26T16:56:45.0000000+00:00</time></trkpt><trkpt lat="35.0756498" lon="32.4804139"><ele>20.9</ele><time>2015-04-26T16:56:46.0000000+00:00</time></trkpt><trkpt lat="35.075708" lon="32.480482"><ele>20.9</ele><time>2015-04-26T16:56:47.0000000+00:00</time></trkpt><trkpt lat="35.0757597" lon="32.4805312"><ele>20.9</ele><time>2015-04-26T16:56:48.0000000+00:00</time></trkpt><trkpt lat="35.0758078" lon="32.4805964"><ele>20.9</ele><time>2015-04-26T16:56:49.0000000+00:00</time></trkpt><trkpt lat="35.0758588" lon="32.4806603"><ele>20.9</ele><time>2015-04-26T16:56:50.0000000+00:00</time></trkpt><trkpt lat="35.0759018" lon="32.4807035"><ele>20.9</ele><time>2015-04-26T16:56:51.0000000+00:00</time></trkpt><trkpt lat="35.0759485" lon="32.4807639"><ele>20.9</ele><time>2015-04-26T16:56:52.0000000+00:00</time></trkpt><trkpt lat="35.0760046" lon="32.4808263"><ele>20.9</ele><time>2015-04-26T16:56:53.0000000+00:00</time></trkpt><trkpt lat="35.0760516" lon="32.480883"><ele>20.9</ele><time>2015-04-26T16:56:54.0000000+00:00</time></trkpt><trkpt lat="35.0761082" lon="32.4809419"><ele>20.4</ele><time>2015-04-26T16:56:55.0000000+00:00</time></trkpt><trkpt lat="35.0761485" lon="32.481001"><ele>20.7</ele><time>2015-04-26T16:56:56.0000000+00:00</time></trkpt><trkpt lat="35.0761995" lon="32.4810596"><ele>20.3</ele><time>2015-04-26T16:56:57.0000000+00:00</time></trkpt><trkpt lat="35.0762457" lon="32.481121"><ele>20.1</ele><time>2015-04-26T16:56:58.0000000+00:00</time></trkpt><trkpt lat="35.0762961" lon="32.481179"><ele>20.0</ele><time>2015-04-26T16:56:59.0000000+00:00</time></trkpt><trkpt lat="35.0763368" lon="32.4812567"><ele>19.5</ele><time>2015-04-26T16:57:00.0000000+00:00</time></trkpt><trkpt lat="35.076386" lon="32.4813231"><ele>19.2</ele><time>2015-04-26T16:57:01.0000000+00:00</time></trkpt><trkpt lat="35.0764336" lon="32.4813937"><ele>19.1</ele><time>2015-04-26T16:57:02.0000000+00:00</time></trkpt><trkpt lat="35.0764853" lon="32.4814608"><ele>18.5</ele><time>2015-04-26T16:57:03.0000000+00:00</time></trkpt><trkpt lat="35.0765405" lon="32.4815304"><ele>18.7</ele><time>2015-04-26T16:57:04.0000000+00:00</time></trkpt><trkpt lat="35.0766054" lon="32.4815975"><ele>19.3</ele><time>2015-04-26T16:57:05.0000000+00:00</time></trkpt><trkpt lat="35.0766669" lon="32.4816644"><ele>19.6</ele><time>2015-04-26T16:57:06.0000000+00:00</time></trkpt><trkpt lat="35.076721" lon="32.4817091"><ele>19.8</ele><time>2015-04-26T16:57:07.0000000+00:00</time></trkpt><trkpt lat="35.0767892" lon="32.4817682"><ele>18.9</ele><time>2015-04-26T16:57:08.0000000+00:00</time></trkpt><trkpt lat="35.076852" lon="32.4818153"><ele>18.9</ele><time>2015-04-26T16:57:09.0000000+00:00</time></trkpt><trkpt lat="35.0769195" lon="32.4818566"><ele>19.4</ele><time>2015-04-26T16:57:10.0000000+00:00</time></trkpt><trkpt lat="35.076983" lon="32.4818904"><ele>19.2</ele><time>2015-04-26T16:57:11.0000000+00:00</time></trkpt><trkpt lat="35.0770553" lon="32.4819254"><ele>18.6</ele><time>2015-04-26T16:57:12.0000000+00:00</time></trkpt><trkpt lat="35.077134" lon="32.481961"><ele>18.2</ele><time>2015-04-26T16:57:13.0000000+00:00</time></trkpt><trkpt lat="35.0772106" lon="32.4820018"><ele>18.1</ele><time>2015-04-26T16:57:14.0000000+00:00</time></trkpt><trkpt lat="35.0772894" lon="32.4820454"><ele>17.5</ele><time>2015-04-26T16:57:15.0000000+00:00</time></trkpt><trkpt lat="35.0773664" lon="32.4820922"><ele>17.2</ele><time>2015-04-26T16:57:16.0000000+00:00</time></trkpt><trkpt lat="35.07743" lon="32.4821393"><ele>16.6</ele><time>2015-04-26T16:57:17.0000000+00:00</time></trkpt><trkpt lat="35.0774904" lon="32.4821896"><ele>16.8</ele><time>2015-04-26T16:57:18.0000000+00:00</time></trkpt><trkpt lat="35.0775489" lon="32.4822474"><ele>16.8</ele><time>2015-04-26T16:57:19.0000000+00:00</time></trkpt><trkpt lat="35.0776048" lon="32.4823062"><ele>17.4</ele><time>2015-04-26T16:57:20.0000000+00:00</time></trkpt><trkpt lat="35.0776698" lon="32.4823659"><ele>17.7</ele><time>2015-04-26T16:57:21.0000000+00:00</time></trkpt><trkpt lat="35.0777287" lon="32.4824333"><ele>17.8</ele><time>2015-04-26T16:57:22.0000000+00:00</time></trkpt><trkpt lat="35.077783" lon="32.482507"><ele>17.9</ele><time>2015-04-26T16:57:23.0000000+00:00</time></trkpt><trkpt lat="35.0778385" lon="32.4825725"><ele>17.9</ele><time>2015-04-26T16:57:24.0000000+00:00</time></trkpt><trkpt lat="35.0778996" lon="32.4826349"><ele>18.4</ele><time>2015-04-26T16:57:25.0000000+00:00</time></trkpt><trkpt lat="35.0779605" lon="32.4826925"><ele>18.7</ele><time>2015-04-26T16:57:26.0000000+00:00</time></trkpt><trkpt lat="35.0780161" lon="32.4827497"><ele>19.3</ele><time>2015-04-26T16:57:27.0000000+00:00</time></trkpt><trkpt lat="35.078076" lon="32.4828127"><ele>19.1</ele><time>2015-04-26T16:57:28.0000000+00:00</time></trkpt><trkpt lat="35.0781342" lon="32.4828861"><ele>19.0</ele><time>2015-04-26T16:57:29.0000000+00:00</time></trkpt><trkpt lat="35.0781845" lon="32.4829456"><ele>19.0</ele><time>2015-04-26T16:57:30.0000000+00:00</time></trkpt><trkpt lat="35.0782404" lon="32.4829926"><ele>19.0</ele><time>2015-04-26T16:57:31.0000000+00:00</time></trkpt><trkpt lat="35.0782891" lon="32.4830516"><ele>18.9</ele><time>2015-04-26T16:57:32.0000000+00:00</time></trkpt><trkpt lat="35.0783388" lon="32.4831199"><ele>18.9</ele><time>2015-04-26T16:57:33.0000000+00:00</time></trkpt><trkpt lat="35.0783891" lon="32.4831803"><ele>18.9</ele><time>2015-04-26T16:57:34.0000000+00:00</time></trkpt><trkpt lat="35.0784443" lon="32.4832438"><ele>18.9</ele><time>2015-04-26T16:57:35.0000000+00:00</time></trkpt><trkpt lat="35.0784993" lon="32.4833029"><ele>18.9</ele><time>2015-04-26T16:57:36.0000000+00:00</time></trkpt><trkpt lat="35.0785504" lon="32.483355"><ele>19.4</ele><time>2015-04-26T16:57:37.0000000+00:00</time></trkpt><trkpt lat="35.0786043" lon="32.4834107"><ele>19.7</ele><time>2015-04-26T16:57:38.0000000+00:00</time></trkpt><trkpt lat="35.0786548" lon="32.4834671"><ele>20.3</ele><time>2015-04-26T16:57:39.0000000+00:00</time></trkpt><trkpt lat="35.0786987" lon="32.4835332"><ele>20.1</ele><time>2015-04-26T16:57:40.0000000+00:00</time></trkpt><trkpt lat="35.0787447" lon="32.483593"><ele>20.0</ele><time>2015-04-26T16:57:41.0000000+00:00</time></trkpt><trkpt lat="35.0787874" lon="32.4836604"><ele>20.0</ele><time>2015-04-26T16:57:42.0000000+00:00</time></trkpt><trkpt lat="35.0788372" lon="32.4837236"><ele>20.5</ele><time>2015-04-26T16:57:43.0000000+00:00</time></trkpt><trkpt lat="35.0788826" lon="32.4837812"><ele>20.7</ele><time>2015-04-26T16:57:44.0000000+00:00</time></trkpt><trkpt lat="35.0789312" lon="32.4838411"><ele>21.3</ele><time>2015-04-26T16:57:45.0000000+00:00</time></trkpt><trkpt lat="35.0789861" lon="32.4839056"><ele>21.6</ele><time>2015-04-26T16:57:46.0000000+00:00</time></trkpt><trkpt lat="35.0790411" lon="32.4839633"><ele>21.8</ele><time>2015-04-26T16:57:47.0000000+00:00</time></trkpt><trkpt lat="35.079091" lon="32.4840136"><ele>21.9</ele><time>2015-04-26T16:57:48.0000000+00:00</time></trkpt><trkpt lat="35.0791473" lon="32.4840777"><ele>21.9</ele><time>2015-04-26T16:57:49.0000000+00:00</time></trkpt><trkpt lat="35.079202" lon="32.4841341"><ele>21.4</ele><time>2015-04-26T16:57:50.0000000+00:00</time></trkpt><trkpt lat="35.0792529" lon="32.4841887"><ele>21.7</ele><time>2015-04-26T16:57:51.0000000+00:00</time></trkpt><trkpt lat="35.0793035" lon="32.4842511"><ele>21.8</ele><time>2015-04-26T16:57:52.0000000+00:00</time></trkpt><trkpt lat="35.079362" lon="32.484314"><ele>21.4</ele><time>2015-04-26T16:57:53.0000000+00:00</time></trkpt><trkpt lat="35.0794184" lon="32.4843662"><ele>21.6</ele><time>2015-04-26T16:57:54.0000000+00:00</time></trkpt><trkpt lat="35.0794659" lon="32.4844324"><ele>21.8</ele><time>2015-04-26T16:57:55.0000000+00:00</time></trkpt><trkpt lat="35.0795188" lon="32.4844768"><ele>22.4</ele><time>2015-04-26T16:57:56.0000000+00:00</time></trkpt><trkpt lat="35.0795657" lon="32.4845262"><ele>22.6</ele><time>2015-04-26T16:57:57.0000000+00:00</time></trkpt><trkpt lat="35.079611" lon="32.4845807"><ele>21.8</ele><time>2015-04-26T16:57:58.0000000+00:00</time></trkpt><trkpt lat="35.0796694" lon="32.4846373"><ele>21.9</ele><time>2015-04-26T16:57:59.0000000+00:00</time></trkpt><trkpt lat="35.0797255" lon="32.4846811"><ele>21.4</ele><time>2015-04-26T16:58:00.0000000+00:00</time></trkpt><trkpt lat="35.0797811" lon="32.4847368"><ele>21.7</ele><time>2015-04-26T16:58:01.0000000+00:00</time></trkpt><trkpt lat="35.0798434" lon="32.4847798"><ele>21.3</ele><time>2015-04-26T16:58:02.0000000+00:00</time></trkpt><trkpt lat="35.0798987" lon="32.4848426"><ele>21.1</ele><time>2015-04-26T16:58:03.0000000+00:00</time></trkpt><trkpt lat="35.0799543" lon="32.4849047"><ele>21.0</ele><time>2015-04-26T16:58:04.0000000+00:00</time></trkpt><trkpt lat="35.0800218" lon="32.4849625"><ele>21.0</ele><time>2015-04-26T16:58:05.0000000+00:00</time></trkpt><trkpt lat="35.0800923" lon="32.4850248"><ele>21.5</ele><time>2015-04-26T16:58:06.0000000+00:00</time></trkpt><trkpt lat="35.0801604" lon="32.4850884"><ele>21.7</ele><time>2015-04-26T16:58:07.0000000+00:00</time></trkpt><trkpt lat="35.0802146" lon="32.4851504"><ele>21.8</ele><time>2015-04-26T16:58:08.0000000+00:00</time></trkpt><trkpt lat="35.0802853" lon="32.4852071"><ele>21.9</ele><time>2015-04-26T16:58:09.0000000+00:00</time></trkpt><trkpt lat="35.0803445" lon="32.4852653"><ele>21.4</ele><time>2015-04-26T16:58:10.0000000+00:00</time></trkpt><trkpt lat="35.0804088" lon="32.4853234"><ele>21.2</ele><time>2015-04-26T16:58:11.0000000+00:00</time></trkpt><trkpt lat="35.0804767" lon="32.48538"><ele>21.0</ele><time>2015-04-26T16:58:12.0000000+00:00</time></trkpt><trkpt lat="35.0805439" lon="32.4854408"><ele>21.0</ele><time>2015-04-26T16:58:13.0000000+00:00</time></trkpt><trkpt lat="35.0806064" lon="32.4855004"><ele>21.5</ele><time>2015-04-26T16:58:14.0000000+00:00</time></trkpt><trkpt lat="35.0806715" lon="32.4855654"><ele>21.7</ele><time>2015-04-26T16:58:15.0000000+00:00</time></trkpt><trkpt lat="35.0807392" lon="32.4856256"><ele>21.3</ele><time>2015-04-26T16:58:16.0000000+00:00</time></trkpt><trkpt lat="35.0808085" lon="32.4856846"><ele>21.6</ele><time>2015-04-26T16:58:17.0000000+00:00</time></trkpt><trkpt lat="35.0808718" lon="32.4857541"><ele>22.3</ele><time>2015-04-26T16:58:18.0000000+00:00</time></trkpt><trkpt lat="35.0809312" lon="32.4858175"><ele>22.1</ele><time>2015-04-26T16:58:19.0000000+00:00</time></trkpt><trkpt lat="35.0810022" lon="32.4858689"><ele>22.0</ele><time>2015-04-26T16:58:20.0000000+00:00</time></trkpt><trkpt lat="35.081061" lon="32.4859268"><ele>22.0</ele><time>2015-04-26T16:58:21.0000000+00:00</time></trkpt><trkpt lat="35.0811222" lon="32.4859879"><ele>22.0</ele><time>2015-04-26T16:58:22.0000000+00:00</time></trkpt><trkpt lat="35.0811892" lon="32.4860496"><ele>22.4</ele><time>2015-04-26T16:58:23.0000000+00:00</time></trkpt><trkpt lat="35.0812513" lon="32.486108"><ele>22.7</ele><time>2015-04-26T16:58:24.0000000+00:00</time></trkpt><trkpt lat="35.0813141" lon="32.486167"><ele>22.3</ele><time>2015-04-26T16:58:25.0000000+00:00</time></trkpt><trkpt lat="35.0813769" lon="32.4862265"><ele>22.1</ele><time>2015-04-26T16:58:26.0000000+00:00</time></trkpt><trkpt lat="35.0814405" lon="32.4862903"><ele>22.0</ele><time>2015-04-26T16:58:27.0000000+00:00</time></trkpt><trkpt lat="35.0815019" lon="32.4863403"><ele>21.5</ele><time>2015-04-26T16:58:28.0000000+00:00</time></trkpt><trkpt lat="35.081563" lon="32.4863966"><ele>21.7</ele><time>2015-04-26T16:58:29.0000000+00:00</time></trkpt><trkpt lat="35.081623" lon="32.4864514"><ele>21.8</ele><time>2015-04-26T16:58:30.0000000+00:00</time></trkpt><trkpt lat="35.0816804" lon="32.4865014"><ele>21.9</ele><time>2015-04-26T16:58:31.0000000+00:00</time></trkpt><trkpt lat="35.081732" lon="32.4865488"><ele>21.9</ele><time>2015-04-26T16:58:32.0000000+00:00</time></trkpt><trkpt lat="35.081777" lon="32.4865933"><ele>21.4</ele><time>2015-04-26T16:58:33.0000000+00:00</time></trkpt><trkpt lat="35.0818225" lon="32.4866285"><ele>20.7</ele><time>2015-04-26T16:58:34.0000000+00:00</time></trkpt><trkpt lat="35.081866" lon="32.4866605"><ele>20.3</ele><time>2015-04-26T16:58:35.0000000+00:00</time></trkpt><trkpt lat="35.0819106" lon="32.4867074"><ele>20.1</ele><time>2015-04-26T16:58:36.0000000+00:00</time></trkpt><trkpt lat="35.0819595" lon="32.4867574"><ele>20.0</ele><time>2015-04-26T16:58:37.0000000+00:00</time></trkpt><trkpt lat="35.0820094" lon="32.486805"><ele>20.0</ele><time>2015-04-26T16:58:38.0000000+00:00</time></trkpt><trkpt lat="35.0820546" lon="32.4868521"><ele>21.0</ele><time>2015-04-26T16:58:39.0000000+00:00</time></trkpt><trkpt lat="35.0821041" lon="32.4869002"><ele>21.4</ele><time>2015-04-26T16:58:40.0000000+00:00</time></trkpt><trkpt lat="35.0821515" lon="32.486945"><ele>21.7</ele><time>2015-04-26T16:58:41.0000000+00:00</time></trkpt><trkpt lat="35.0822103" lon="32.4869794"><ele>21.3</ele><time>2015-04-26T16:58:42.0000000+00:00</time></trkpt><trkpt lat="35.0822571" lon="32.4870288"><ele>21.1</ele><time>2015-04-26T16:58:43.0000000+00:00</time></trkpt><trkpt lat="35.0823146" lon="32.4870655"><ele>20.5</ele><time>2015-04-26T16:58:44.0000000+00:00</time></trkpt><trkpt lat="35.0823622" lon="32.4871272"><ele>20.7</ele><time>2015-04-26T16:58:45.0000000+00:00</time></trkpt><trkpt lat="35.0824193" lon="32.4871728"><ele>20.8</ele><time>2015-04-26T16:58:46.0000000+00:00</time></trkpt><trkpt lat="35.0824734" lon="32.4872102"><ele>19.9</ele><time>2015-04-26T16:58:47.0000000+00:00</time></trkpt><trkpt lat="35.082535" lon="32.4872608"><ele>19.9</ele><time>2015-04-26T16:58:48.0000000+00:00</time></trkpt><trkpt lat="35.0825868" lon="32.4873131"><ele>19.9</ele><time>2015-04-26T16:58:49.0000000+00:00</time></trkpt><trkpt lat="35.082638" lon="32.4873637"><ele>19.4</ele><time>2015-04-26T16:58:50.0000000+00:00</time></trkpt><trkpt lat="35.0826938" lon="32.4874094"><ele>19.7</ele><time>2015-04-26T16:58:51.0000000+00:00</time></trkpt><trkpt lat="35.0827485" lon="32.4874609"><ele>19.8</ele><time>2015-04-26T16:58:52.0000000+00:00</time></trkpt><trkpt lat="35.0828017" lon="32.4875019"><ele>19.9</ele><time>2015-04-26T16:58:53.0000000+00:00</time></trkpt><trkpt lat="35.0828511" lon="32.4875505"><ele>20.4</ele><time>2015-04-26T16:58:54.0000000+00:00</time></trkpt><trkpt lat="35.0829009" lon="32.4875972"><ele>20.2</ele><time>2015-04-26T16:58:55.0000000+00:00</time></trkpt><trkpt lat="35.0829547" lon="32.4876404"><ele>20.5</ele><time>2015-04-26T16:58:56.0000000+00:00</time></trkpt><trkpt lat="35.0830097" lon="32.4876866"><ele>20.7</ele><time>2015-04-26T16:58:57.0000000+00:00</time></trkpt><trkpt lat="35.0830621" lon="32.4877356"><ele>20.8</ele><time>2015-04-26T16:58:58.0000000+00:00</time></trkpt><trkpt lat="35.0831136" lon="32.487785"><ele>20.9</ele><time>2015-04-26T16:58:59.0000000+00:00</time></trkpt><trkpt lat="35.0831776" lon="32.4878276"><ele>20.9</ele><time>2015-04-26T16:59:00.0000000+00:00</time></trkpt><trkpt lat="35.0832432" lon="32.4878664"><ele>20.9</ele><time>2015-04-26T16:59:01.0000000+00:00</time></trkpt><trkpt lat="35.0832952" lon="32.487912"><ele>21.4</ele><time>2015-04-26T16:59:02.0000000+00:00</time></trkpt><trkpt lat="35.083357" lon="32.4879595"><ele>21.2</ele><time>2015-04-26T16:59:03.0000000+00:00</time></trkpt><trkpt lat="35.083421" lon="32.4880014"><ele>21.6</ele><time>2015-04-26T16:59:04.0000000+00:00</time></trkpt><trkpt lat="35.0834807" lon="32.488055"><ele>21.7</ele><time>2015-04-26T16:59:05.0000000+00:00</time></trkpt><trkpt lat="35.0835362" lon="32.4881092"><ele>21.3</ele><time>2015-04-26T16:59:06.0000000+00:00</time></trkpt><trkpt lat="35.0835886" lon="32.4881533"><ele>20.6</ele><time>2015-04-26T16:59:07.0000000+00:00</time></trkpt><trkpt lat="35.0836493" lon="32.4882001"><ele>20.3</ele><time>2015-04-26T16:59:08.0000000+00:00</time></trkpt><trkpt lat="35.0837106" lon="32.4882439"><ele>20.1</ele><time>2015-04-26T16:59:09.0000000+00:00</time></trkpt><trkpt lat="35.083763" lon="32.4882946"><ele>20.0</ele><time>2015-04-26T16:59:10.0000000+00:00</time></trkpt><trkpt lat="35.0838189" lon="32.4883415"><ele>20.0</ele><time>2015-04-26T16:59:11.0000000+00:00</time></trkpt><trkpt lat="35.0838774" lon="32.4883862"><ele>20.5</ele><time>2015-04-26T16:59:12.0000000+00:00</time></trkpt><trkpt lat="35.0839372" lon="32.4884228"><ele>20.7</ele><time>2015-04-26T16:59:13.0000000+00:00</time></trkpt><trkpt lat="35.0839926" lon="32.4884665"><ele>20.8</ele><time>2015-04-26T16:59:14.0000000+00:00</time></trkpt><trkpt lat="35.0840506" lon="32.4885163"><ele>21.4</ele><time>2015-04-26T16:59:15.0000000+00:00</time></trkpt><trkpt lat="35.0840944" lon="32.4885725"><ele>21.7</ele><time>2015-04-26T16:59:16.0000000+00:00</time></trkpt><trkpt lat="35.0841595" lon="32.4886258"><ele>21.3</ele><time>2015-04-26T16:59:17.0000000+00:00</time></trkpt><trkpt lat="35.0842236" lon="32.4886825"><ele>21.1</ele><time>2015-04-26T16:59:18.0000000+00:00</time></trkpt><trkpt lat="35.0842856" lon="32.48873"><ele>21.0</ele><time>2015-04-26T16:59:19.0000000+00:00</time></trkpt><trkpt lat="35.0843486" lon="32.4887691"><ele>21.0</ele><time>2015-04-26T16:59:20.0000000+00:00</time></trkpt><trkpt lat="35.084409" lon="32.4888186"><ele>20.5</ele><time>2015-04-26T16:59:21.0000000+00:00</time></trkpt><trkpt lat="35.0844644" lon="32.488869"><ele>20.7</ele><time>2015-04-26T16:59:22.0000000+00:00</time></trkpt><trkpt lat="35.0845242" lon="32.4889207"><ele>20.3</ele><time>2015-04-26T16:59:23.0000000+00:00</time></trkpt><trkpt lat="35.0845793" lon="32.4889653"><ele>20.6</ele><time>2015-04-26T16:59:24.0000000+00:00</time></trkpt><trkpt lat="35.084631" lon="32.4890061"><ele>20.8</ele><time>2015-04-26T16:59:25.0000000+00:00</time></trkpt><trkpt lat="35.0846812" lon="32.4890559"><ele>20.9</ele><time>2015-04-26T16:59:26.0000000+00:00</time></trkpt><trkpt lat="35.0847312" lon="32.4890871"><ele>20.9</ele><time>2015-04-26T16:59:27.0000000+00:00</time></trkpt><trkpt lat="35.0847937" lon="32.4891345"><ele>20.9</ele><time>2015-04-26T16:59:28.0000000+00:00</time></trkpt><trkpt lat="35.0848499" lon="32.4891963"><ele>20.9</ele><time>2015-04-26T16:59:29.0000000+00:00</time></trkpt><trkpt lat="35.0849074" lon="32.4892498"><ele>20.4</ele><time>2015-04-26T16:59:30.0000000+00:00</time></trkpt><trkpt lat="35.0849635" lon="32.4893001"><ele>20.2</ele><time>2015-04-26T16:59:31.0000000+00:00</time></trkpt><trkpt lat="35.0850189" lon="32.4893463"><ele>20.1</ele><time>2015-04-26T16:59:32.0000000+00:00</time></trkpt><trkpt lat="35.0850773" lon="32.4894023"><ele>20.0</ele><time>2015-04-26T16:59:33.0000000+00:00</time></trkpt><trkpt lat="35.0851346" lon="32.4894497"><ele>20.0</ele><time>2015-04-26T16:59:34.0000000+00:00</time></trkpt><trkpt lat="35.085187" lon="32.4894928"><ele>19.9</ele><time>2015-04-26T16:59:35.0000000+00:00</time></trkpt><trkpt lat="35.0852423" lon="32.4895454"><ele>19.9</ele><time>2015-04-26T16:59:36.0000000+00:00</time></trkpt><trkpt lat="35.0852898" lon="32.4895856"><ele>19.9</ele><time>2015-04-26T16:59:37.0000000+00:00</time></trkpt><trkpt lat="35.0853429" lon="32.4896461"><ele>19.9</ele><time>2015-04-26T16:59:38.0000000+00:00</time></trkpt><trkpt lat="35.0853987" lon="32.4897056"><ele>19.9</ele><time>2015-04-26T16:59:39.0000000+00:00</time></trkpt><trkpt lat="35.085456" lon="32.4897616"><ele>19.9</ele><time>2015-04-26T16:59:40.0000000+00:00</time></trkpt><trkpt lat="35.0855127" lon="32.4898086"><ele>19.4</ele><time>2015-04-26T16:59:41.0000000+00:00</time></trkpt><trkpt lat="35.0855722" lon="32.4898623"><ele>19.2</ele><time>2015-04-26T16:59:42.0000000+00:00</time></trkpt><trkpt lat="35.0856272" lon="32.4899088"><ele>19.1</ele><time>2015-04-26T16:59:43.0000000+00:00</time></trkpt><trkpt lat="35.0856772" lon="32.4899625"><ele>19.0</ele><time>2015-04-26T16:59:44.0000000+00:00</time></trkpt><trkpt lat="35.0857277" lon="32.4900209"><ele>19.0</ele><time>2015-04-26T16:59:45.0000000+00:00</time></trkpt><trkpt lat="35.0857759" lon="32.4900726"><ele>18.9</ele><time>2015-04-26T16:59:46.0000000+00:00</time></trkpt><trkpt lat="35.0858296" lon="32.4901182"><ele>18.4</ele><time>2015-04-26T16:59:47.0000000+00:00</time></trkpt><trkpt lat="35.0858819" lon="32.490168"><ele>18.2</ele><time>2015-04-26T16:59:48.0000000+00:00</time></trkpt><trkpt lat="35.0859407" lon="32.4902238"><ele>18.1</ele><time>2015-04-26T16:59:49.0000000+00:00</time></trkpt><trkpt lat="35.086002" lon="32.4902547"><ele>18.0</ele><time>2015-04-26T16:59:50.0000000+00:00</time></trkpt><trkpt lat="35.0860606" lon="32.4903132"><ele>18.0</ele><time>2015-04-26T16:59:51.0000000+00:00</time></trkpt><trkpt lat="35.0861146" lon="32.4903624"><ele>17.9</ele><time>2015-04-26T16:59:52.0000000+00:00</time></trkpt><trkpt lat="35.0861778" lon="32.4904119"><ele>17.9</ele><time>2015-04-26T16:59:53.0000000+00:00</time></trkpt><trkpt lat="35.0862336" lon="32.4904588"><ele>18.4</ele><time>2015-04-26T16:59:54.0000000+00:00</time></trkpt><trkpt lat="35.0862845" lon="32.4904983"><ele>18.2</ele><time>2015-04-26T16:59:55.0000000+00:00</time></trkpt><trkpt lat="35.0863326" lon="32.490546"><ele>18.1</ele><time>2015-04-26T16:59:56.0000000+00:00</time></trkpt><trkpt lat="35.0863852" lon="32.4905926"><ele>18.0</ele><time>2015-04-26T16:59:57.0000000+00:00</time></trkpt><trkpt lat="35.0864347" lon="32.4906332"><ele>18.0</ele><time>2015-04-26T16:59:58.0000000+00:00</time></trkpt><trkpt lat="35.0864864" lon="32.4906734"><ele>17.9</ele><time>2015-04-26T16:59:59.0000000+00:00</time></trkpt><trkpt lat="35.086533" lon="32.4907114"><ele>17.4</ele><time>2015-04-26T17:00:00.0000000+00:00</time></trkpt><trkpt lat="35.0865829" lon="32.4907524"><ele>17.2</ele><time>2015-04-26T17:00:01.0000000+00:00</time></trkpt><trkpt lat="35.0866335" lon="32.4907943"><ele>17.6</ele><time>2015-04-26T17:00:02.0000000+00:00</time></trkpt><trkpt lat="35.0866895" lon="32.4908355"><ele>17.2</ele><time>2015-04-26T17:00:03.0000000+00:00</time></trkpt><trkpt lat="35.0867555" lon="32.4908788"><ele>17.6</ele><time>2015-04-26T17:00:04.0000000+00:00</time></trkpt><trkpt lat="35.0868138" lon="32.4909177"><ele>18.8</ele><time>2015-04-26T17:00:05.0000000+00:00</time></trkpt><trkpt lat="35.0868666" lon="32.4909638"><ele>19.3</ele><time>2015-04-26T17:00:06.0000000+00:00</time></trkpt><trkpt lat="35.0869175" lon="32.4910107"><ele>19.6</ele><time>2015-04-26T17:00:07.0000000+00:00</time></trkpt><trkpt lat="35.0869634" lon="32.4910517"><ele>20.3</ele><time>2015-04-26T17:00:08.0000000+00:00</time></trkpt><trkpt lat="35.0870204" lon="32.491083"><ele>20.1</ele><time>2015-04-26T17:00:09.0000000+00:00</time></trkpt><trkpt lat="35.087079" lon="32.4911317"><ele>20.5</ele><time>2015-04-26T17:00:10.0000000+00:00</time></trkpt><trkpt lat="35.0871434" lon="32.4911778"><ele>20.7</ele><time>2015-04-26T17:00:11.0000000+00:00</time></trkpt><trkpt lat="35.0871971" lon="32.4912233"><ele>21.3</ele><time>2015-04-26T17:00:12.0000000+00:00</time></trkpt><trkpt lat="35.0872762" lon="32.4912552"><ele>21.1</ele><time>2015-04-26T17:00:13.0000000+00:00</time></trkpt><trkpt lat="35.0873357" lon="32.4913148"><ele>20.5</ele><time>2015-04-26T17:00:14.0000000+00:00</time></trkpt><trkpt lat="35.0874004" lon="32.4913759"><ele>20.2</ele><time>2015-04-26T17:00:15.0000000+00:00</time></trkpt><trkpt lat="35.0874623" lon="32.4914205"><ele>20.6</ele><time>2015-04-26T17:00:16.0000000+00:00</time></trkpt><trkpt lat="35.0875215" lon="32.4914634"><ele>20.8</ele><time>2015-04-26T17:00:17.0000000+00:00</time></trkpt><trkpt lat="35.0875817" lon="32.491505"><ele>20.3</ele><time>2015-04-26T17:00:18.0000000+00:00</time></trkpt><trkpt lat="35.0876412" lon="32.4915597"><ele>20.1</ele><time>2015-04-26T17:00:19.0000000+00:00</time></trkpt><trkpt lat="35.0876993" lon="32.4916044"><ele>20.5</ele><time>2015-04-26T17:00:20.0000000+00:00</time></trkpt><trkpt lat="35.087762" lon="32.4916359"><ele>20.2</ele><time>2015-04-26T17:00:21.0000000+00:00</time></trkpt><trkpt lat="35.0878221" lon="32.4916792"><ele>20.6</ele><time>2015-04-26T17:00:22.0000000+00:00</time></trkpt><trkpt lat="35.0878827" lon="32.4917202"><ele>20.8</ele><time>2015-04-26T17:00:23.0000000+00:00</time></trkpt><trkpt lat="35.0879434" lon="32.4917691"><ele>20.8</ele><time>2015-04-26T17:00:24.0000000+00:00</time></trkpt><trkpt lat="35.0880049" lon="32.4918136"><ele>20.9</ele><time>2015-04-26T17:00:25.0000000+00:00</time></trkpt><trkpt lat="35.0880646" lon="32.4918538"><ele>20.4</ele><time>2015-04-26T17:00:26.0000000+00:00</time></trkpt><trkpt lat="35.0881179" lon="32.4918778"><ele>19.7</ele><time>2015-04-26T17:00:27.0000000+00:00</time></trkpt><trkpt lat="35.0881704" lon="32.4919192"><ele>19.3</ele><time>2015-04-26T17:00:28.0000000+00:00</time></trkpt><trkpt lat="35.0882106" lon="32.491948"><ele>19.1</ele><time>2015-04-26T17:00:29.0000000+00:00</time></trkpt><trkpt lat="35.0882581" lon="32.4919907"><ele>19.0</ele><time>2015-04-26T17:00:30.0000000+00:00</time></trkpt><trkpt lat="35.0883071" lon="32.492033"><ele>19.0</ele><time>2015-04-26T17:00:31.0000000+00:00</time></trkpt><trkpt lat="35.0883614" lon="32.4920704"><ele>19.5</ele><time>2015-04-26T17:00:32.0000000+00:00</time></trkpt><trkpt lat="35.0884169" lon="32.4921108"><ele>19.7</ele><time>2015-04-26T17:00:33.0000000+00:00</time></trkpt><trkpt lat="35.0884695" lon="32.4921608"><ele>19.8</ele><time>2015-04-26T17:00:34.0000000+00:00</time></trkpt><trkpt lat="35.088521" lon="32.4922175"><ele>19.9</ele><time>2015-04-26T17:00:35.0000000+00:00</time></trkpt><trkpt lat="35.088577" lon="32.4922682"><ele>20.4</ele><time>2015-04-26T17:00:36.0000000+00:00</time></trkpt><trkpt lat="35.0886313" lon="32.4923116"><ele>20.2</ele><time>2015-04-26T17:00:37.0000000+00:00</time></trkpt><trkpt lat="35.0886843" lon="32.4923633"><ele>20.0</ele><time>2015-04-26T17:00:38.0000000+00:00</time></trkpt><trkpt lat="35.0887388" lon="32.4924098"><ele>20.0</ele><time>2015-04-26T17:00:39.0000000+00:00</time></trkpt><trkpt lat="35.08879" lon="32.4924538"><ele>19.5</ele><time>2015-04-26T17:00:40.0000000+00:00</time></trkpt><trkpt lat="35.0888372" lon="32.4925075"><ele>19.2</ele><time>2015-04-26T17:00:41.0000000+00:00</time></trkpt><trkpt lat="35.0888904" lon="32.4925558"><ele>19.1</ele><time>2015-04-26T17:00:42.0000000+00:00</time></trkpt><trkpt lat="35.0889458" lon="32.4926017"><ele>19.0</ele><time>2015-04-26T17:00:43.0000000+00:00</time></trkpt><trkpt lat="35.0889943" lon="32.4926524"><ele>19.0</ele><time>2015-04-26T17:00:44.0000000+00:00</time></trkpt><trkpt lat="35.0890494" lon="32.4926988"><ele>18.9</ele><time>2015-04-26T17:00:45.0000000+00:00</time></trkpt><trkpt lat="35.0891009" lon="32.4927419"><ele>18.9</ele><time>2015-04-26T17:00:46.0000000+00:00</time></trkpt><trkpt lat="35.0891555" lon="32.4927903"><ele>18.9</ele><time>2015-04-26T17:00:47.0000000+00:00</time></trkpt><trkpt lat="35.0892071" lon="32.4928328"><ele>18.9</ele><time>2015-04-26T17:00:48.0000000+00:00</time></trkpt><trkpt lat="35.0892668" lon="32.4928787"><ele>18.9</ele><time>2015-04-26T17:00:49.0000000+00:00</time></trkpt><trkpt lat="35.0893264" lon="32.4929227"><ele>18.9</ele><time>2015-04-26T17:00:50.0000000+00:00</time></trkpt><trkpt lat="35.0893817" lon="32.4929779"><ele>18.9</ele><time>2015-04-26T17:00:51.0000000+00:00</time></trkpt><trkpt lat="35.0894375" lon="32.4930329"><ele>18.9</ele><time>2015-04-26T17:00:52.0000000+00:00</time></trkpt><trkpt lat="35.0894934" lon="32.4930765"><ele>18.9</ele><time>2015-04-26T17:00:53.0000000+00:00</time></trkpt><trkpt lat="35.0895431" lon="32.4931254"><ele>19.4</ele><time>2015-04-26T17:00:54.0000000+00:00</time></trkpt><trkpt lat="35.0895981" lon="32.4931688"><ele>19.7</ele><time>2015-04-26T17:00:55.0000000+00:00</time></trkpt><trkpt lat="35.0896456" lon="32.4932192"><ele>19.8</ele><time>2015-04-26T17:00:56.0000000+00:00</time></trkpt><trkpt lat="35.0896972" lon="32.4932628"><ele>19.9</ele><time>2015-04-26T17:00:57.0000000+00:00</time></trkpt><trkpt lat="35.0897489" lon="32.493309"><ele>19.9</ele><time>2015-04-26T17:00:58.0000000+00:00</time></trkpt><trkpt lat="35.0898008" lon="32.4933618"><ele>20.4</ele><time>2015-04-26T17:00:59.0000000+00:00</time></trkpt><trkpt lat="35.0898552" lon="32.493411"><ele>21.2</ele><time>2015-04-26T17:01:00.0000000+00:00</time></trkpt><trkpt lat="35.0899178" lon="32.4934671"><ele>21.1</ele><time>2015-04-26T17:01:01.0000000+00:00</time></trkpt><trkpt lat="35.0899802" lon="32.4935189"><ele>21.0</ele><time>2015-04-26T17:01:02.0000000+00:00</time></trkpt><trkpt lat="35.0900432" lon="32.493571"><ele>21.0</ele><time>2015-04-26T17:01:03.0000000+00:00</time></trkpt><trkpt lat="35.0901014" lon="32.4936304"><ele>20.9</ele><time>2015-04-26T17:01:04.0000000+00:00</time></trkpt><trkpt lat="35.0901569" lon="32.4936848"><ele>20.4</ele><time>2015-04-26T17:01:05.0000000+00:00</time></trkpt><trkpt lat="35.0902075" lon="32.4937457"><ele>19.7</ele><time>2015-04-26T17:01:06.0000000+00:00</time></trkpt><trkpt lat="35.0902765" lon="32.4937978"><ele>18.8</ele><time>2015-04-26T17:01:07.0000000+00:00</time></trkpt><trkpt lat="35.0903374" lon="32.493853"><ele>18.4</ele><time>2015-04-26T17:01:08.0000000+00:00</time></trkpt><trkpt lat="35.0904041" lon="32.493911"><ele>18.1</ele><time>2015-04-26T17:01:09.0000000+00:00</time></trkpt><trkpt lat="35.0904638" lon="32.4939745"><ele>18.0</ele><time>2015-04-26T17:01:10.0000000+00:00</time></trkpt><trkpt lat="35.0905265" lon="32.4940288"><ele>18.0</ele><time>2015-04-26T17:01:11.0000000+00:00</time></trkpt><trkpt lat="35.090578" lon="32.4940808"><ele>18.0</ele><time>2015-04-26T17:01:12.0000000+00:00</time></trkpt><trkpt lat="35.0906298" lon="32.494129"><ele>18.4</ele><time>2015-04-26T17:01:13.0000000+00:00</time></trkpt><trkpt lat="35.0906782" lon="32.4941829"><ele>18.7</ele><time>2015-04-26T17:01:14.0000000+00:00</time></trkpt><trkpt lat="35.0907308" lon="32.494232"><ele>18.8</ele><time>2015-04-26T17:01:15.0000000+00:00</time></trkpt><trkpt lat="35.0907762" lon="32.4942849"><ele>18.9</ele><time>2015-04-26T17:01:16.0000000+00:00</time></trkpt><trkpt lat="35.0908305" lon="32.4943399"><ele>18.9</ele><time>2015-04-26T17:01:17.0000000+00:00</time></trkpt><trkpt lat="35.0908884" lon="32.4943794"><ele>18.4</ele><time>2015-04-26T17:01:18.0000000+00:00</time></trkpt><trkpt lat="35.0909455" lon="32.494426"><ele>18.2</ele><time>2015-04-26T17:01:19.0000000+00:00</time></trkpt><trkpt lat="35.0910051" lon="32.4944717"><ele>18.1</ele><time>2015-04-26T17:01:20.0000000+00:00</time></trkpt><trkpt lat="35.0910604" lon="32.4945237"><ele>17.5</ele><time>2015-04-26T17:01:21.0000000+00:00</time></trkpt><trkpt lat="35.0911132" lon="32.4945748"><ele>17.2</ele><time>2015-04-26T17:01:22.0000000+00:00</time></trkpt><trkpt lat="35.0911637" lon="32.4946231"><ele>17.1</ele><time>2015-04-26T17:01:23.0000000+00:00</time></trkpt><trkpt lat="35.0912153" lon="32.4946724"><ele>17.0</ele><time>2015-04-26T17:01:24.0000000+00:00</time></trkpt><trkpt lat="35.0912531" lon="32.494725"><ele>17.0</ele><time>2015-04-26T17:01:25.0000000+00:00</time></trkpt><trkpt lat="35.0913044" lon="32.4947768"><ele>17.4</ele><time>2015-04-26T17:01:26.0000000+00:00</time></trkpt><trkpt lat="35.0913625" lon="32.4948273"><ele>17.7</ele><time>2015-04-26T17:01:27.0000000+00:00</time></trkpt><trkpt lat="35.0914111" lon="32.4948787"><ele>18.3</ele><time>2015-04-26T17:01:28.0000000+00:00</time></trkpt><trkpt lat="35.0914622" lon="32.4949289"><ele>19.1</ele><time>2015-04-26T17:01:29.0000000+00:00</time></trkpt><trkpt lat="35.0915148" lon="32.4949742"><ele>19.0</ele><time>2015-04-26T17:01:30.0000000+00:00</time></trkpt><trkpt lat="35.0915724" lon="32.4950149"><ele>19.5</ele><time>2015-04-26T17:01:31.0000000+00:00</time></trkpt><trkpt lat="35.0916302" lon="32.4950605"><ele>19.2</ele><time>2015-04-26T17:01:32.0000000+00:00</time></trkpt><trkpt lat="35.0916749" lon="32.4951098"><ele>19.1</ele><time>2015-04-26T17:01:33.0000000+00:00</time></trkpt><trkpt lat="35.0917235" lon="32.4951527"><ele>19.0</ele><time>2015-04-26T17:01:34.0000000+00:00</time></trkpt><trkpt lat="35.0917759" lon="32.4951916"><ele>19.5</ele><time>2015-04-26T17:01:35.0000000+00:00</time></trkpt><trkpt lat="35.0918346" lon="32.4952347"><ele>19.7</ele><time>2015-04-26T17:01:36.0000000+00:00</time></trkpt><trkpt lat="35.0918903" lon="32.4952908"><ele>19.8</ele><time>2015-04-26T17:01:37.0000000+00:00</time></trkpt><trkpt lat="35.0919495" lon="32.4953385"><ele>19.9</ele><time>2015-04-26T17:01:38.0000000+00:00</time></trkpt><trkpt lat="35.0920119" lon="32.4953894"><ele>19.9</ele><time>2015-04-26T17:01:39.0000000+00:00</time></trkpt><trkpt lat="35.0920776" lon="32.4954401"><ele>19.9</ele><time>2015-04-26T17:01:40.0000000+00:00</time></trkpt><trkpt lat="35.0921371" lon="32.4954911"><ele>20.4</ele><time>2015-04-26T17:01:41.0000000+00:00</time></trkpt><trkpt lat="35.0921947" lon="32.4955383"><ele>20.7</ele><time>2015-04-26T17:01:42.0000000+00:00</time></trkpt><trkpt lat="35.0922511" lon="32.4955817"><ele>20.8</ele><time>2015-04-26T17:01:43.0000000+00:00</time></trkpt><trkpt lat="35.0922997" lon="32.4956292"><ele>20.9</ele><time>2015-04-26T17:01:44.0000000+00:00</time></trkpt><trkpt lat="35.092344" lon="32.4956727"><ele>20.9</ele><time>2015-04-26T17:01:45.0000000+00:00</time></trkpt><trkpt lat="35.0923913" lon="32.4957116"><ele>20.4</ele><time>2015-04-26T17:01:46.0000000+00:00</time></trkpt><trkpt lat="35.0924353" lon="32.4957483"><ele>20.2</ele><time>2015-04-26T17:01:47.0000000+00:00</time></trkpt><trkpt lat="35.0924892" lon="32.4957815"><ele>20.1</ele><time>2015-04-26T17:01:48.0000000+00:00</time></trkpt><trkpt lat="35.0925362" lon="32.4958176"><ele>20.0</ele><time>2015-04-26T17:01:49.0000000+00:00</time></trkpt><trkpt lat="35.0925794" lon="32.4958638"><ele>20.0</ele><time>2015-04-26T17:01:50.0000000+00:00</time></trkpt><trkpt lat="35.0926289" lon="32.49591"><ele>20.4</ele><time>2015-04-26T17:01:51.0000000+00:00</time></trkpt><trkpt lat="35.0926791" lon="32.4959594"><ele>21.2</ele><time>2015-04-26T17:01:52.0000000+00:00</time></trkpt><trkpt lat="35.0927332" lon="32.4960061"><ele>21.6</ele><time>2015-04-26T17:01:53.0000000+00:00</time></trkpt><trkpt lat="35.0927835" lon="32.4960544"><ele>21.7</ele><time>2015-04-26T17:01:54.0000000+00:00</time></trkpt><trkpt lat="35.0928372" lon="32.4960993"><ele>21.8</ele><time>2015-04-26T17:01:55.0000000+00:00</time></trkpt><trkpt lat="35.0928955" lon="32.4961464"><ele>21.4</ele><time>2015-04-26T17:01:56.0000000+00:00</time></trkpt><trkpt lat="35.0929524" lon="32.4961918"><ele>21.7</ele><time>2015-04-26T17:01:57.0000000+00:00</time></trkpt><trkpt lat="35.0930009" lon="32.4962314"><ele>21.8</ele><time>2015-04-26T17:01:58.0000000+00:00</time></trkpt><trkpt lat="35.0930465" lon="32.4962769"><ele>21.9</ele><time>2015-04-26T17:01:59.0000000+00:00</time></trkpt><trkpt lat="35.0930988" lon="32.4963097"><ele>21.4</ele><time>2015-04-26T17:02:00.0000000+00:00</time></trkpt><trkpt lat="35.0931484" lon="32.4963524"><ele>21.2</ele><time>2015-04-26T17:02:01.0000000+00:00</time></trkpt><trkpt lat="35.0931962" lon="32.4963956"><ele>21.0</ele><time>2015-04-26T17:02:02.0000000+00:00</time></trkpt><trkpt lat="35.0932473" lon="32.4964331"><ele>21.0</ele><time>2015-04-26T17:02:03.0000000+00:00</time></trkpt><trkpt lat="35.0932946" lon="32.4964742"><ele>21.0</ele><time>2015-04-26T17:02:04.0000000+00:00</time></trkpt><trkpt lat="35.0933448" lon="32.4965164"><ele>20.4</ele><time>2015-04-26T17:02:05.0000000+00:00</time></trkpt><trkpt lat="35.0933998" lon="32.496554"><ele>20.2</ele><time>2015-04-26T17:02:06.0000000+00:00</time></trkpt><trkpt lat="35.0934551" lon="32.4965912"><ele>20.6</ele><time>2015-04-26T17:02:07.0000000+00:00</time></trkpt><trkpt lat="35.093509" lon="32.4966385"><ele>20.7</ele><time>2015-04-26T17:02:08.0000000+00:00</time></trkpt><trkpt lat="35.0935521" lon="32.4966726"><ele>20.3</ele><time>2015-04-26T17:02:09.0000000+00:00</time></trkpt><trkpt lat="35.0936042" lon="32.496714"><ele>20.6</ele><time>2015-04-26T17:02:10.0000000+00:00</time></trkpt><trkpt lat="35.0936542" lon="32.4967452"><ele>20.3</ele><time>2015-04-26T17:02:11.0000000+00:00</time></trkpt><trkpt lat="35.093699" lon="32.4967863"><ele>20.6</ele><time>2015-04-26T17:02:12.0000000+00:00</time></trkpt><trkpt lat="35.0937492" lon="32.496811"><ele>20.3</ele><time>2015-04-26T17:02:13.0000000+00:00</time></trkpt><trkpt lat="35.0938012" lon="32.4968576"><ele>20.6</ele><time>2015-04-26T17:02:14.0000000+00:00</time></trkpt><trkpt lat="35.0938586" lon="32.4968992"><ele>20.8</ele><time>2015-04-26T17:02:15.0000000+00:00</time></trkpt><trkpt lat="35.0939208" lon="32.4969398"><ele>20.8</ele><time>2015-04-26T17:02:16.0000000+00:00</time></trkpt><trkpt lat="35.0939794" lon="32.4969811"><ele>20.9</ele><time>2015-04-26T17:02:17.0000000+00:00</time></trkpt><trkpt lat="35.0940368" lon="32.4970265"><ele>20.9</ele><time>2015-04-26T17:02:18.0000000+00:00</time></trkpt><trkpt lat="35.0941013" lon="32.4970629"><ele>21.4</ele><time>2015-04-26T17:02:19.0000000+00:00</time></trkpt><trkpt lat="35.0941683" lon="32.4971012"><ele>21.7</ele><time>2015-04-26T17:02:20.0000000+00:00</time></trkpt><trkpt lat="35.0942274" lon="32.4971369"><ele>22.3</ele><time>2015-04-26T17:02:21.0000000+00:00</time></trkpt><trkpt lat="35.0942872" lon="32.4971775"><ele>22.6</ele><time>2015-04-26T17:02:22.0000000+00:00</time></trkpt><trkpt lat="35.0943498" lon="32.4972098"><ele>22.8</ele><time>2015-04-26T17:02:23.0000000+00:00</time></trkpt><trkpt lat="35.0944151" lon="32.4972463"><ele>22.9</ele><time>2015-04-26T17:02:24.0000000+00:00</time></trkpt><trkpt lat="35.0944781" lon="32.4972813"><ele>22.9</ele><time>2015-04-26T17:02:25.0000000+00:00</time></trkpt><trkpt lat="35.094538" lon="32.4973186"><ele>22.4</ele><time>2015-04-26T17:02:26.0000000+00:00</time></trkpt><trkpt lat="35.0946" lon="32.4973619"><ele>22.2</ele><time>2015-04-26T17:02:27.0000000+00:00</time></trkpt><trkpt lat="35.0946679" lon="32.4973965"><ele>22.1</ele><time>2015-04-26T17:02:28.0000000+00:00</time></trkpt><trkpt lat="35.0947185" lon="32.4974339"><ele>22.0</ele><time>2015-04-26T17:02:29.0000000+00:00</time></trkpt><trkpt lat="35.0947807" lon="32.4974702"><ele>22.0</ele><time>2015-04-26T17:02:30.0000000+00:00</time></trkpt><trkpt lat="35.0948374" lon="32.4975076"><ele>21.9</ele><time>2015-04-26T17:02:31.0000000+00:00</time></trkpt><trkpt lat="35.0949052" lon="32.497545"><ele>21.9</ele><time>2015-04-26T17:02:32.0000000+00:00</time></trkpt><trkpt lat="35.0949709" lon="32.4975838"><ele>21.9</ele><time>2015-04-26T17:02:33.0000000+00:00</time></trkpt><trkpt lat="35.095038" lon="32.497616"><ele>21.4</ele><time>2015-04-26T17:02:34.0000000+00:00</time></trkpt><trkpt lat="35.095094" lon="32.4976482"><ele>21.7</ele><time>2015-04-26T17:02:35.0000000+00:00</time></trkpt><trkpt lat="35.0951568" lon="32.4976809"><ele>21.8</ele><time>2015-04-26T17:02:36.0000000+00:00</time></trkpt><trkpt lat="35.095222" lon="32.4977141"><ele>21.9</ele><time>2015-04-26T17:02:37.0000000+00:00</time></trkpt><trkpt lat="35.0952818" lon="32.4977449"><ele>22.4</ele><time>2015-04-26T17:02:38.0000000+00:00</time></trkpt><trkpt lat="35.0953378" lon="32.4977698"><ele>22.2</ele><time>2015-04-26T17:02:39.0000000+00:00</time></trkpt><trkpt lat="35.0953894" lon="32.4978021"><ele>22.0</ele><time>2015-04-26T17:02:40.0000000+00:00</time></trkpt><trkpt lat="35.095445" lon="32.4978366"><ele>22.5</ele><time>2015-04-26T17:02:41.0000000+00:00</time></trkpt><trkpt lat="35.0955028" lon="32.4978703"><ele>22.2</ele><time>2015-04-26T17:02:42.0000000+00:00</time></trkpt><trkpt lat="35.0955608" lon="32.4979034"><ele>21.6</ele><time>2015-04-26T17:02:43.0000000+00:00</time></trkpt><trkpt lat="35.0956109" lon="32.4979458"><ele>21.2</ele><time>2015-04-26T17:02:44.0000000+00:00</time></trkpt><trkpt lat="35.0956716" lon="32.4979749"><ele>21.1</ele><time>2015-04-26T17:02:45.0000000+00:00</time></trkpt><trkpt lat="35.0957337" lon="32.4980068"><ele>20.5</ele><time>2015-04-26T17:02:46.0000000+00:00</time></trkpt><trkpt lat="35.0957962" lon="32.4980346"><ele>20.2</ele><time>2015-04-26T17:02:47.0000000+00:00</time></trkpt><trkpt lat="35.09585" lon="32.4980694"><ele>20.1</ele><time>2015-04-26T17:02:48.0000000+00:00</time></trkpt><trkpt lat="35.0959055" lon="32.4981122"><ele>20.0</ele><time>2015-04-26T17:02:49.0000000+00:00</time></trkpt><trkpt lat="35.0959648" lon="32.4981531"><ele>20.0</ele><time>2015-04-26T17:02:50.0000000+00:00</time></trkpt><trkpt lat="35.096024" lon="32.4981954"><ele>20.4</ele><time>2015-04-26T17:02:51.0000000+00:00</time></trkpt><trkpt lat="35.0960858" lon="32.498233"><ele>20.7</ele><time>2015-04-26T17:02:52.0000000+00:00</time></trkpt><trkpt lat="35.0961454" lon="32.4982652"><ele>20.8</ele><time>2015-04-26T17:02:53.0000000+00:00</time></trkpt><trkpt lat="35.0962106" lon="32.4982947"><ele>19.9</ele><time>2015-04-26T17:02:54.0000000+00:00</time></trkpt><trkpt lat="35.096273" lon="32.4983367"><ele>19.9</ele><time>2015-04-26T17:02:55.0000000+00:00</time></trkpt><trkpt lat="35.0963328" lon="32.4983735"><ele>19.9</ele><time>2015-04-26T17:02:56.0000000+00:00</time></trkpt><trkpt lat="35.0963927" lon="32.4984146"><ele>19.4</ele><time>2015-04-26T17:02:57.0000000+00:00</time></trkpt><trkpt lat="35.0964481" lon="32.4984544"><ele>19.7</ele><time>2015-04-26T17:02:58.0000000+00:00</time></trkpt><trkpt lat="35.0965044" lon="32.4984837"><ele>19.3</ele><time>2015-04-26T17:02:59.0000000+00:00</time></trkpt><trkpt lat="35.0965616" lon="32.4985224"><ele>19.1</ele><time>2015-04-26T17:03:00.0000000+00:00</time></trkpt><trkpt lat="35.0966126" lon="32.4985678"><ele>19.0</ele><time>2015-04-26T17:03:01.0000000+00:00</time></trkpt><trkpt lat="35.0966701" lon="32.4986053"><ele>19.0</ele><time>2015-04-26T17:03:02.0000000+00:00</time></trkpt><trkpt lat="35.0967296" lon="32.4986455"><ele>19.0</ele><time>2015-04-26T17:03:03.0000000+00:00</time></trkpt><trkpt lat="35.0967875" lon="32.4986797"><ele>18.9</ele><time>2015-04-26T17:03:04.0000000+00:00</time></trkpt><trkpt lat="35.0968469" lon="32.498723"><ele>18.4</ele><time>2015-04-26T17:03:05.0000000+00:00</time></trkpt><trkpt lat="35.0969058" lon="32.4987665"><ele>18.7</ele><time>2015-04-26T17:03:06.0000000+00:00</time></trkpt><trkpt lat="35.0969755" lon="32.4988003"><ele>19.3</ele><time>2015-04-26T17:03:07.0000000+00:00</time></trkpt><trkpt lat="35.0970419" lon="32.49885"><ele>20.1</ele><time>2015-04-26T17:03:08.0000000+00:00</time></trkpt><trkpt lat="35.0971022" lon="32.4988989"><ele>20.0</ele><time>2015-04-26T17:03:09.0000000+00:00</time></trkpt><trkpt lat="35.0971434" lon="32.4989361"><ele>20.0</ele><time>2015-04-26T17:03:10.0000000+00:00</time></trkpt><trkpt lat="35.0972031" lon="32.4989876"><ele>20.0</ele><time>2015-04-26T17:03:11.0000000+00:00</time></trkpt><trkpt lat="35.0972539" lon="32.4990351"><ele>20.4</ele><time>2015-04-26T17:03:12.0000000+00:00</time></trkpt><trkpt lat="35.0973149" lon="32.4990752"><ele>20.7</ele><time>2015-04-26T17:03:13.0000000+00:00</time></trkpt><trkpt lat="35.0973761" lon="32.4991135"><ele>20.3</ele><time>2015-04-26T17:03:14.0000000+00:00</time></trkpt><trkpt lat="35.097446" lon="32.4991642"><ele>20.1</ele><time>2015-04-26T17:03:15.0000000+00:00</time></trkpt><trkpt lat="35.0975096" lon="32.4992108"><ele>20.0</ele><time>2015-04-26T17:03:16.0000000+00:00</time></trkpt><trkpt lat="35.097573" lon="32.4992542"><ele>20.0</ele><time>2015-04-26T17:03:17.0000000+00:00</time></trkpt><trkpt lat="35.0976236" lon="32.4993006"><ele>20.0</ele><time>2015-04-26T17:03:18.0000000+00:00</time></trkpt><trkpt lat="35.0976659" lon="32.4993415"><ele>19.9</ele><time>2015-04-26T17:03:19.0000000+00:00</time></trkpt><trkpt lat="35.0977275" lon="32.4993867"><ele>19.9</ele><time>2015-04-26T17:03:20.0000000+00:00</time></trkpt><trkpt lat="35.0977834" lon="32.4994195"><ele>19.4</ele><time>2015-04-26T17:03:21.0000000+00:00</time></trkpt><trkpt lat="35.0978433" lon="32.4994565"><ele>18.7</ele><time>2015-04-26T17:03:22.0000000+00:00</time></trkpt><trkpt lat="35.0979081" lon="32.4994969"><ele>18.8</ele><time>2015-04-26T17:03:23.0000000+00:00</time></trkpt><trkpt lat="35.0979635" lon="32.4995429"><ele>17.9</ele><time>2015-04-26T17:03:24.0000000+00:00</time></trkpt><trkpt lat="35.098018" lon="32.4995751"><ele>17.4</ele><time>2015-04-26T17:03:25.0000000+00:00</time></trkpt><trkpt lat="35.0980805" lon="32.4996204"><ele>17.2</ele><time>2015-04-26T17:03:26.0000000+00:00</time></trkpt><trkpt lat="35.0981435" lon="32.4996587"><ele>16.5</ele><time>2015-04-26T17:03:27.0000000+00:00</time></trkpt><trkpt lat="35.0982014" lon="32.4997044"><ele>16.2</ele><time>2015-04-26T17:03:28.0000000+00:00</time></trkpt><trkpt lat="35.0982584" lon="32.4997494"><ele>16.6</ele><time>2015-04-26T17:03:29.0000000+00:00</time></trkpt><trkpt lat="35.09832" lon="32.4997919"><ele>16.3</ele><time>2015-04-26T17:03:30.0000000+00:00</time></trkpt><trkpt lat="35.0983729" lon="32.4998346"><ele>16.1</ele><time>2015-04-26T17:03:31.0000000+00:00</time></trkpt><trkpt lat="35.0984274" lon="32.4998695"><ele>16.5</ele><time>2015-04-26T17:03:32.0000000+00:00</time></trkpt><trkpt lat="35.0984818" lon="32.4999"><ele>16.7</ele><time>2015-04-26T17:03:33.0000000+00:00</time></trkpt><trkpt lat="35.0985306" lon="32.4999328"><ele>16.8</ele><time>2015-04-26T17:03:34.0000000+00:00</time></trkpt><trkpt lat="35.0985801" lon="32.499971"><ele>16.9</ele><time>2015-04-26T17:03:35.0000000+00:00</time></trkpt><trkpt lat="35.0986266" lon="32.5000057"><ele>17.4</ele><time>2015-04-26T17:03:36.0000000+00:00</time></trkpt><trkpt lat="35.0986743" lon="32.5000466"><ele>17.7</ele><time>2015-04-26T17:03:37.0000000+00:00</time></trkpt><trkpt lat="35.0987157" lon="32.5000799"><ele>17.8</ele><time>2015-04-26T17:03:38.0000000+00:00</time></trkpt><trkpt lat="35.0987609" lon="32.50011"><ele>17.9</ele><time>2015-04-26T17:03:39.0000000+00:00</time></trkpt><trkpt lat="35.0988026" lon="32.5001387"><ele>17.9</ele><time>2015-04-26T17:03:40.0000000+00:00</time></trkpt><trkpt lat="35.0988473" lon="32.5001732"><ele>18.4</ele><time>2015-04-26T17:03:41.0000000+00:00</time></trkpt><trkpt lat="35.0988934" lon="32.5001996"><ele>18.7</ele><time>2015-04-26T17:03:42.0000000+00:00</time></trkpt><trkpt lat="35.0989369" lon="32.5002433"><ele>19.3</ele><time>2015-04-26T17:03:43.0000000+00:00</time></trkpt><trkpt lat="35.0989893" lon="32.5002823"><ele>19.6</ele><time>2015-04-26T17:03:44.0000000+00:00</time></trkpt><trkpt lat="35.0990403" lon="32.500322"><ele>19.3</ele><time>2015-04-26T17:03:45.0000000+00:00</time></trkpt><trkpt lat="35.0990982" lon="32.500343"><ele>18.6</ele><time>2015-04-26T17:03:46.0000000+00:00</time></trkpt><trkpt lat="35.099146" lon="32.5003668"><ele>17.8</ele><time>2015-04-26T17:03:47.0000000+00:00</time></trkpt><trkpt lat="35.099188" lon="32.5004021"><ele>16.8</ele><time>2015-04-26T17:03:48.0000000+00:00</time></trkpt><trkpt lat="35.0992352" lon="32.5004418"><ele>16.4</ele><time>2015-04-26T17:03:49.0000000+00:00</time></trkpt><trkpt lat="35.0992868" lon="32.5004802"><ele>16.7</ele><time>2015-04-26T17:03:50.0000000+00:00</time></trkpt><trkpt lat="35.099342" lon="32.5005147"><ele>16.8</ele><time>2015-04-26T17:03:51.0000000+00:00</time></trkpt><trkpt lat="35.0994037" lon="32.5005559"><ele>16.9</ele><time>2015-04-26T17:03:52.0000000+00:00</time></trkpt><trkpt lat="35.0994505" lon="32.5005925"><ele>16.9</ele><time>2015-04-26T17:03:53.0000000+00:00</time></trkpt><trkpt lat="35.0994954" lon="32.5006235"><ele>16.9</ele><time>2015-04-26T17:03:54.0000000+00:00</time></trkpt><trkpt lat="35.0995535" lon="32.5006653"><ele>16.9</ele><time>2015-04-26T17:03:55.0000000+00:00</time></trkpt><trkpt lat="35.0996117" lon="32.5007076"><ele>16.9</ele><time>2015-04-26T17:03:56.0000000+00:00</time></trkpt><trkpt lat="35.0996726" lon="32.5007492"><ele>17.4</ele><time>2015-04-26T17:03:57.0000000+00:00</time></trkpt><trkpt lat="35.0997292" lon="32.5007858"><ele>18.2</ele><time>2015-04-26T17:03:58.0000000+00:00</time></trkpt><trkpt lat="35.0997847" lon="32.5008328"><ele>18.6</ele><time>2015-04-26T17:03:59.0000000+00:00</time></trkpt><trkpt lat="35.0998403" lon="32.5008721"><ele>19.2</ele><time>2015-04-26T17:04:00.0000000+00:00</time></trkpt><trkpt lat="35.0998979" lon="32.5009063"><ele>19.1</ele><time>2015-04-26T17:04:01.0000000+00:00</time></trkpt><trkpt lat="35.0999416" lon="32.5009419"><ele>18.5</ele><time>2015-04-26T17:04:02.0000000+00:00</time></trkpt><trkpt lat="35.0999913" lon="32.5009779"><ele>18.2</ele><time>2015-04-26T17:04:03.0000000+00:00</time></trkpt><trkpt lat="35.1000405" lon="32.5010083"><ele>18.1</ele><time>2015-04-26T17:04:04.0000000+00:00</time></trkpt><trkpt lat="35.1000879" lon="32.5010501"><ele>17.5</ele><time>2015-04-26T17:04:05.0000000+00:00</time></trkpt><trkpt lat="35.1001417" lon="32.5010861"><ele>17.2</ele><time>2015-04-26T17:04:06.0000000+00:00</time></trkpt><trkpt lat="35.1001968" lon="32.5011234"><ele>17.1</ele><time>2015-04-26T17:04:07.0000000+00:00</time></trkpt><trkpt lat="35.1002482" lon="32.5011646"><ele>17.0</ele><time>2015-04-26T17:04:08.0000000+00:00</time></trkpt><trkpt lat="35.100304" lon="32.5011972"><ele>16.5</ele><time>2015-04-26T17:04:09.0000000+00:00</time></trkpt><trkpt lat="35.1003686" lon="32.5012373"><ele>16.2</ele><time>2015-04-26T17:04:10.0000000+00:00</time></trkpt><trkpt lat="35.1004162" lon="32.5012731"><ele>15.6</ele><time>2015-04-26T17:04:11.0000000+00:00</time></trkpt><trkpt lat="35.1004792" lon="32.5013202"><ele>15.2</ele><time>2015-04-26T17:04:12.0000000+00:00</time></trkpt><trkpt lat="35.100527" lon="32.5013587"><ele>14.6</ele><time>2015-04-26T17:04:13.0000000+00:00</time></trkpt><trkpt lat="35.1005824" lon="32.5014009"><ele>14.3</ele><time>2015-04-26T17:04:14.0000000+00:00</time></trkpt><trkpt lat="35.1006354" lon="32.5014326"><ele>14.6</ele><time>2015-04-26T17:04:15.0000000+00:00</time></trkpt><trkpt lat="35.1006866" lon="32.5014694"><ele>14.8</ele><time>2015-04-26T17:04:16.0000000+00:00</time></trkpt><trkpt lat="35.1007308" lon="32.5015038"><ele>14.8</ele><time>2015-04-26T17:04:17.0000000+00:00</time></trkpt><trkpt lat="35.1007808" lon="32.5015444"><ele>14.4</ele><time>2015-04-26T17:04:18.0000000+00:00</time></trkpt><trkpt lat="35.1008339" lon="32.5015747"><ele>14.2</ele><time>2015-04-26T17:04:19.0000000+00:00</time></trkpt><trkpt lat="35.10088" lon="32.5016185"><ele>14.0</ele><time>2015-04-26T17:04:20.0000000+00:00</time></trkpt><trkpt lat="35.1009383" lon="32.5016521"><ele>14.5</ele><time>2015-04-26T17:04:21.0000000+00:00</time></trkpt><trkpt lat="35.1009954" lon="32.5016893"><ele>14.2</ele><time>2015-04-26T17:04:22.0000000+00:00</time></trkpt><trkpt lat="35.1010534" lon="32.5017256"><ele>14.6</ele><time>2015-04-26T17:04:23.0000000+00:00</time></trkpt><trkpt lat="35.1011126" lon="32.5017641"><ele>14.7</ele><time>2015-04-26T17:04:24.0000000+00:00</time></trkpt><trkpt lat="35.1011581" lon="32.5017872"><ele>14.3</ele><time>2015-04-26T17:04:25.0000000+00:00</time></trkpt><trkpt lat="35.1012129" lon="32.5018233"><ele>14.6</ele><time>2015-04-26T17:04:26.0000000+00:00</time></trkpt><trkpt lat="35.1012734" lon="32.5018611"><ele>14.3</ele><time>2015-04-26T17:04:27.0000000+00:00</time></trkpt><trkpt lat="35.1013274" lon="32.5018919"><ele>14.6</ele><time>2015-04-26T17:04:28.0000000+00:00</time></trkpt><trkpt lat="35.1013726" lon="32.5019196"><ele>14.8</ele><time>2015-04-26T17:04:29.0000000+00:00</time></trkpt><trkpt lat="35.1014231" lon="32.5019541"><ele>14.8</ele><time>2015-04-26T17:04:30.0000000+00:00</time></trkpt><trkpt lat="35.1014771" lon="32.5019817"><ele>14.9</ele><time>2015-04-26T17:04:31.0000000+00:00</time></trkpt><trkpt lat="35.1015212" lon="32.5020218"><ele>14.9</ele><time>2015-04-26T17:04:32.0000000+00:00</time></trkpt><trkpt lat="35.1015854" lon="32.5020566"><ele>14.4</ele><time>2015-04-26T17:04:33.0000000+00:00</time></trkpt><trkpt lat="35.1016348" lon="32.5020817"><ele>13.7</ele><time>2015-04-26T17:04:34.0000000+00:00</time></trkpt><trkpt lat="35.1016924" lon="32.5021084"><ele>13.8</ele><time>2015-04-26T17:04:35.0000000+00:00</time></trkpt><trkpt lat="35.1017464" lon="32.5021451"><ele>13.9</ele><time>2015-04-26T17:04:36.0000000+00:00</time></trkpt><trkpt lat="35.1018065" lon="32.5021773"><ele>14.4</ele><time>2015-04-26T17:04:37.0000000+00:00</time></trkpt><trkpt lat="35.1018603" lon="32.5022059"><ele>14.7</ele><time>2015-04-26T17:04:38.0000000+00:00</time></trkpt><trkpt lat="35.1019101" lon="32.5022421"><ele>14.3</ele><time>2015-04-26T17:04:39.0000000+00:00</time></trkpt><trkpt lat="35.1019716" lon="32.5022782"><ele>14.6</ele><time>2015-04-26T17:04:40.0000000+00:00</time></trkpt><trkpt lat="35.1020269" lon="32.5023146"><ele>14.8</ele><time>2015-04-26T17:04:41.0000000+00:00</time></trkpt><trkpt lat="35.1020864" lon="32.502355"><ele>14.9</ele><time>2015-04-26T17:04:42.0000000+00:00</time></trkpt><trkpt lat="35.102135" lon="32.5023876"><ele>14.9</ele><time>2015-04-26T17:04:43.0000000+00:00</time></trkpt><trkpt lat="35.102193" lon="32.5024227"><ele>14.9</ele><time>2015-04-26T17:04:44.0000000+00:00</time></trkpt><trkpt lat="35.1022603" lon="32.5024486"><ele>14.9</ele><time>2015-04-26T17:04:45.0000000+00:00</time></trkpt><trkpt lat="35.1023256" lon="32.5024788"><ele>14.9</ele><time>2015-04-26T17:04:46.0000000+00:00</time></trkpt><trkpt lat="35.1023894" lon="32.5025143"><ele>15.4</ele><time>2015-04-26T17:04:47.0000000+00:00</time></trkpt><trkpt lat="35.1024553" lon="32.502555"><ele>16.2</ele><time>2015-04-26T17:04:48.0000000+00:00</time></trkpt><trkpt lat="35.1025111" lon="32.5025903"><ele>16.6</ele><time>2015-04-26T17:04:49.0000000+00:00</time></trkpt><trkpt lat="35.1025737" lon="32.5026147"><ele>16.7</ele><time>2015-04-26T17:04:50.0000000+00:00</time></trkpt><trkpt lat="35.1026341" lon="32.5026474"><ele>16.8</ele><time>2015-04-26T17:04:51.0000000+00:00</time></trkpt><trkpt lat="35.1026906" lon="32.5026795"><ele>17.4</ele><time>2015-04-26T17:04:52.0000000+00:00</time></trkpt><trkpt lat="35.1027458" lon="32.5027126"><ele>17.7</ele><time>2015-04-26T17:04:53.0000000+00:00</time></trkpt><trkpt lat="35.1028043" lon="32.5027489"><ele>17.8</ele><time>2015-04-26T17:04:54.0000000+00:00</time></trkpt><trkpt lat="35.1028535" lon="32.5027734"><ele>16.9</ele><time>2015-04-26T17:04:55.0000000+00:00</time></trkpt><trkpt lat="35.102908" lon="32.5028188"><ele>16.4</ele><time>2015-04-26T17:04:56.0000000+00:00</time></trkpt><trkpt lat="35.1029969" lon="32.5028952"><ele>15.3</ele><time>2015-04-26T17:04:58.0000000+00:00</time></trkpt><trkpt lat="35.1030501" lon="32.5029337"><ele>16.1</ele><time>2015-04-26T17:04:59.0000000+00:00</time></trkpt><trkpt lat="35.1030975" lon="32.5029782"><ele>16.5</ele><time>2015-04-26T17:05:00.0000000+00:00</time></trkpt><trkpt lat="35.1031486" lon="32.5030208"><ele>17.2</ele><time>2015-04-26T17:05:01.0000000+00:00</time></trkpt><trkpt lat="35.1031944" lon="32.5030602"><ele>18.1</ele><time>2015-04-26T17:05:02.0000000+00:00</time></trkpt><trkpt lat="35.1032472" lon="32.5031038"><ele>18.0</ele><time>2015-04-26T17:05:03.0000000+00:00</time></trkpt><trkpt lat="35.1032989" lon="32.5031407"><ele>18.0</ele><time>2015-04-26T17:05:04.0000000+00:00</time></trkpt><trkpt lat="35.1033409" lon="32.5031747"><ele>17.4</ele><time>2015-04-26T17:05:05.0000000+00:00</time></trkpt><trkpt lat="35.1033831" lon="32.5032052"><ele>17.7</ele><time>2015-04-26T17:05:06.0000000+00:00</time></trkpt><trkpt lat="35.1034334" lon="32.5032451"><ele>17.8</ele><time>2015-04-26T17:05:07.0000000+00:00</time></trkpt><trkpt lat="35.1034725" lon="32.5032747"><ele>17.9</ele><time>2015-04-26T17:05:08.0000000+00:00</time></trkpt><trkpt lat="35.1035159" lon="32.5033125"><ele>17.9</ele><time>2015-04-26T17:05:09.0000000+00:00</time></trkpt><trkpt lat="35.1035926" lon="32.5033698"><ele>17.2</ele><time>2015-04-26T17:05:11.0000000+00:00</time></trkpt><trkpt lat="35.1036377" lon="32.503402"><ele>17.1</ele><time>2015-04-26T17:05:12.0000000+00:00</time></trkpt><trkpt lat="35.1036796" lon="32.5034326"><ele>17.0</ele><time>2015-04-26T17:05:13.0000000+00:00</time></trkpt><trkpt lat="35.103758" lon="32.5034802"><ele>16.9</ele><time>2015-04-26T17:05:15.0000000+00:00</time></trkpt><trkpt lat="35.1038033" lon="32.5035184"><ele>16.9</ele><time>2015-04-26T17:05:16.0000000+00:00</time></trkpt><trkpt lat="35.1038425" lon="32.5035486"><ele>16.9</ele><time>2015-04-26T17:05:17.0000000+00:00</time></trkpt><trkpt lat="35.1038946" lon="32.5035773"><ele>16.4</ele><time>2015-04-26T17:05:18.0000000+00:00</time></trkpt><trkpt lat="35.1039506" lon="32.5035982"><ele>16.2</ele><time>2015-04-26T17:05:19.0000000+00:00</time></trkpt><trkpt lat="35.1040102" lon="32.5036265"><ele>16.1</ele><time>2015-04-26T17:05:20.0000000+00:00</time></trkpt><trkpt lat="35.1040576" lon="32.5036453"><ele>16.0</ele><time>2015-04-26T17:05:21.0000000+00:00</time></trkpt><trkpt lat="35.1041052" lon="32.5036688"><ele>16.0</ele><time>2015-04-26T17:05:22.0000000+00:00</time></trkpt><trkpt lat="35.1041567" lon="32.5036886"><ele>15.9</ele><time>2015-04-26T17:05:23.0000000+00:00</time></trkpt><trkpt lat="35.1042144" lon="32.5037132"><ele>15.9</ele><time>2015-04-26T17:05:24.0000000+00:00</time></trkpt><trkpt lat="35.1042729" lon="32.503732"><ele>16.4</ele><time>2015-04-26T17:05:25.0000000+00:00</time></trkpt><trkpt lat="35.1043274" lon="32.5037609"><ele>16.2</ele><time>2015-04-26T17:05:26.0000000+00:00</time></trkpt><trkpt lat="35.1043876" lon="32.5037911"><ele>16.1</ele><time>2015-04-26T17:05:27.0000000+00:00</time></trkpt><trkpt lat="35.1044504" lon="32.5038167"><ele>16.5</ele><time>2015-04-26T17:05:28.0000000+00:00</time></trkpt><trkpt lat="35.10451" lon="32.5038304"><ele>16.7</ele><time>2015-04-26T17:05:29.0000000+00:00</time></trkpt><trkpt lat="35.1045582" lon="32.5038443"><ele>16.8</ele><time>2015-04-26T17:05:30.0000000+00:00</time></trkpt><trkpt lat="35.1046184" lon="32.5038607"><ele>16.9</ele><time>2015-04-26T17:05:31.0000000+00:00</time></trkpt><trkpt lat="35.1046842" lon="32.5038753"><ele>16.4</ele><time>2015-04-26T17:05:32.0000000+00:00</time></trkpt><trkpt lat="35.1047395" lon="32.5038874"><ele>15.7</ele><time>2015-04-26T17:05:33.0000000+00:00</time></trkpt><trkpt lat="35.1047898" lon="32.5038985"><ele>15.3</ele><time>2015-04-26T17:05:34.0000000+00:00</time></trkpt><trkpt lat="35.1048572" lon="32.5038958"><ele>14.1</ele><time>2015-04-26T17:05:35.0000000+00:00</time></trkpt><trkpt lat="35.1049052" lon="32.5039178"><ele>13.5</ele><time>2015-04-26T17:05:36.0000000+00:00</time></trkpt><trkpt lat="35.1049512" lon="32.5039286"><ele>13.7</ele><time>2015-04-26T17:05:37.0000000+00:00</time></trkpt><trkpt lat="35.1050023" lon="32.5039371"><ele>14.3</ele><time>2015-04-26T17:05:38.0000000+00:00</time></trkpt><trkpt lat="35.1050542" lon="32.5039419"><ele>14.6</ele><time>2015-04-26T17:05:39.0000000+00:00</time></trkpt><trkpt lat="35.1051077" lon="32.5039498"><ele>14.8</ele><time>2015-04-26T17:05:40.0000000+00:00</time></trkpt><trkpt lat="35.1051917" lon="32.5039625"><ele>15.6</ele><time>2015-04-26T17:05:42.0000000+00:00</time></trkpt><trkpt lat="35.1052395" lon="32.5039764"><ele>15.8</ele><time>2015-04-26T17:05:43.0000000+00:00</time></trkpt><trkpt lat="35.1052844" lon="32.5039814"><ele>15.9</ele><time>2015-04-26T17:05:44.0000000+00:00</time></trkpt><trkpt lat="35.1053735" lon="32.5039977"><ele>16.4</ele><time>2015-04-26T17:05:46.0000000+00:00</time></trkpt><trkpt lat="35.1054179" lon="32.5040123"><ele>16.7</ele><time>2015-04-26T17:05:47.0000000+00:00</time></trkpt><trkpt lat="35.1055044" lon="32.5040466"><ele>18.4</ele><time>2015-04-26T17:05:49.0000000+00:00</time></trkpt><trkpt lat="35.1055454" lon="32.5040742"><ele>18.6</ele><time>2015-04-26T17:05:50.0000000+00:00</time></trkpt><trkpt lat="35.1056382" lon="32.5041074"><ele>18.9</ele><time>2015-04-26T17:05:52.0000000+00:00</time></trkpt><trkpt lat="35.1056882" lon="32.5041374"><ele>18.9</ele><time>2015-04-26T17:05:53.0000000+00:00</time></trkpt><trkpt lat="35.1057376" lon="32.5041698"><ele>18.9</ele><time>2015-04-26T17:05:54.0000000+00:00</time></trkpt><trkpt lat="35.1057966" lon="32.504199"><ele>18.9</ele><time>2015-04-26T17:05:55.0000000+00:00</time></trkpt><trkpt lat="35.105854" lon="32.5042258"><ele>18.4</ele><time>2015-04-26T17:05:56.0000000+00:00</time></trkpt><trkpt lat="35.1059019" lon="32.5042615"><ele>17.7</ele><time>2015-04-26T17:05:57.0000000+00:00</time></trkpt><trkpt lat="35.1059607" lon="32.5043006"><ele>17.8</ele><time>2015-04-26T17:05:58.0000000+00:00</time></trkpt><trkpt lat="35.1060206" lon="32.5043287"><ele>18.4</ele><time>2015-04-26T17:05:59.0000000+00:00</time></trkpt><trkpt lat="35.1060758" lon="32.5043702"><ele>18.6</ele><time>2015-04-26T17:06:00.0000000+00:00</time></trkpt><trkpt lat="35.1061278" lon="32.5044132"><ele>18.8</ele><time>2015-04-26T17:06:01.0000000+00:00</time></trkpt><trkpt lat="35.1061734" lon="32.5044472"><ele>18.9</ele><time>2015-04-26T17:06:02.0000000+00:00</time></trkpt><trkpt lat="35.1062147" lon="32.5044706"><ele>18.4</ele><time>2015-04-26T17:06:03.0000000+00:00</time></trkpt><trkpt lat="35.1062719" lon="32.5044955"><ele>18.2</ele><time>2015-04-26T17:06:04.0000000+00:00</time></trkpt><trkpt lat="35.1063229" lon="32.5045294"><ele>18.5</ele><time>2015-04-26T17:06:05.0000000+00:00</time></trkpt><trkpt lat="35.1063767" lon="32.5045665"><ele>18.7</ele><time>2015-04-26T17:06:06.0000000+00:00</time></trkpt><trkpt lat="35.106415" lon="32.504609"><ele>18.8</ele><time>2015-04-26T17:06:07.0000000+00:00</time></trkpt><trkpt lat="35.1064668" lon="32.5046518"><ele>18.9</ele><time>2015-04-26T17:06:08.0000000+00:00</time></trkpt><trkpt lat="35.106518" lon="32.504675"><ele>18.9</ele><time>2015-04-26T17:06:09.0000000+00:00</time></trkpt><trkpt lat="35.1065662" lon="32.5047141"><ele>18.4</ele><time>2015-04-26T17:06:10.0000000+00:00</time></trkpt><trkpt lat="35.1066173" lon="32.504743"><ele>18.2</ele><time>2015-04-26T17:06:11.0000000+00:00</time></trkpt><trkpt lat="35.1066722" lon="32.504772"><ele>18.1</ele><time>2015-04-26T17:06:12.0000000+00:00</time></trkpt><trkpt lat="35.1067225" lon="32.5048074"><ele>18.0</ele><time>2015-04-26T17:06:13.0000000+00:00</time></trkpt><trkpt lat="35.1067683" lon="32.5048486"><ele>18.0</ele><time>2015-04-26T17:06:14.0000000+00:00</time></trkpt><trkpt lat="35.1068115" lon="32.5048815"><ele>17.9</ele><time>2015-04-26T17:06:15.0000000+00:00</time></trkpt><trkpt lat="35.1068943" lon="32.5049438"><ele>17.9</ele><time>2015-04-26T17:06:17.0000000+00:00</time></trkpt><trkpt lat="35.1069405" lon="32.5049714"><ele>17.9</ele><time>2015-04-26T17:06:18.0000000+00:00</time></trkpt><trkpt lat="35.1069918" lon="32.5049986"><ele>17.9</ele><time>2015-04-26T17:06:19.0000000+00:00</time></trkpt><trkpt lat="35.107065" lon="32.5050349"><ele>15.9</ele><time>2015-04-26T17:06:21.0000000+00:00</time></trkpt><trkpt lat="35.1071124" lon="32.5050676"><ele>15.4</ele><time>2015-04-26T17:06:22.0000000+00:00</time></trkpt><trkpt lat="35.1071553" lon="32.5050965"><ele>15.2</ele><time>2015-04-26T17:06:23.0000000+00:00</time></trkpt><trkpt lat="35.1072054" lon="32.50513"><ele>15.1</ele><time>2015-04-26T17:06:24.0000000+00:00</time></trkpt><trkpt lat="35.1072541" lon="32.5051584"><ele>14.5</ele><time>2015-04-26T17:06:25.0000000+00:00</time></trkpt><trkpt lat="35.1073" lon="32.5051925"><ele>14.7</ele><time>2015-04-26T17:06:26.0000000+00:00</time></trkpt><trkpt lat="35.107346" lon="32.5052235"><ele>14.8</ele><time>2015-04-26T17:06:27.0000000+00:00</time></trkpt><trkpt lat="35.1073961" lon="32.5052532"><ele>14.9</ele><time>2015-04-26T17:06:28.0000000+00:00</time></trkpt><trkpt lat="35.1074422" lon="32.5052899"><ele>14.9</ele><time>2015-04-26T17:06:29.0000000+00:00</time></trkpt><trkpt lat="35.1075236" lon="32.5053531"><ele>14.9</ele><time>2015-04-26T17:06:31.0000000+00:00</time></trkpt><trkpt lat="35.107576" lon="32.5053865"><ele>15.4</ele><time>2015-04-26T17:06:32.0000000+00:00</time></trkpt><trkpt lat="35.1076573" lon="32.505451"><ele>15.6</ele><time>2015-04-26T17:06:34.0000000+00:00</time></trkpt><trkpt lat="35.1077027" lon="32.5054889"><ele>15.7</ele><time>2015-04-26T17:06:35.0000000+00:00</time></trkpt><trkpt lat="35.1077563" lon="32.5055283"><ele>16.3</ele><time>2015-04-26T17:06:36.0000000+00:00</time></trkpt><trkpt lat="35.1078081" lon="32.505558"><ele>16.6</ele><time>2015-04-26T17:06:37.0000000+00:00</time></trkpt><trkpt lat="35.1078642" lon="32.5055961"><ele>17.3</ele><time>2015-04-26T17:06:38.0000000+00:00</time></trkpt><trkpt lat="35.1079146" lon="32.5056346"><ele>17.6</ele><time>2015-04-26T17:06:39.0000000+00:00</time></trkpt><trkpt lat="35.1079673" lon="32.5056772"><ele>17.8</ele><time>2015-04-26T17:06:40.0000000+00:00</time></trkpt><trkpt lat="35.1080222" lon="32.5057188"><ele>17.3</ele><time>2015-04-26T17:06:41.0000000+00:00</time></trkpt><trkpt lat="35.1080827" lon="32.5057565"><ele>17.1</ele><time>2015-04-26T17:06:42.0000000+00:00</time></trkpt><trkpt lat="35.1081341" lon="32.505792"><ele>17.0</ele><time>2015-04-26T17:06:43.0000000+00:00</time></trkpt><trkpt lat="35.1081888" lon="32.5058289"><ele>17.0</ele><time>2015-04-26T17:06:44.0000000+00:00</time></trkpt><trkpt lat="35.1082508" lon="32.505868"><ele>17.0</ele><time>2015-04-26T17:06:45.0000000+00:00</time></trkpt><trkpt lat="35.1083042" lon="32.5059054"><ele>17.4</ele><time>2015-04-26T17:06:46.0000000+00:00</time></trkpt><trkpt lat="35.1083473" lon="32.5059378"><ele>17.7</ele><time>2015-04-26T17:06:47.0000000+00:00</time></trkpt><trkpt lat="35.1083892" lon="32.505972"><ele>17.8</ele><time>2015-04-26T17:06:48.0000000+00:00</time></trkpt><trkpt lat="35.1084342" lon="32.5060099"><ele>17.4</ele><time>2015-04-26T17:06:49.0000000+00:00</time></trkpt><trkpt lat="35.1084825" lon="32.506044"><ele>17.6</ele><time>2015-04-26T17:06:50.0000000+00:00</time></trkpt><trkpt lat="35.10853" lon="32.5060793"><ele>17.8</ele><time>2015-04-26T17:06:51.0000000+00:00</time></trkpt><trkpt lat="35.1085873" lon="32.506103"><ele>17.4</ele><time>2015-04-26T17:06:52.0000000+00:00</time></trkpt><trkpt lat="35.1086374" lon="32.5061366"><ele>17.6</ele><time>2015-04-26T17:06:53.0000000+00:00</time></trkpt><trkpt lat="35.1086849" lon="32.5061796"><ele>17.8</ele><time>2015-04-26T17:06:54.0000000+00:00</time></trkpt><trkpt lat="35.1087388" lon="32.5062152"><ele>17.9</ele><time>2015-04-26T17:06:55.0000000+00:00</time></trkpt><trkpt lat="35.1087942" lon="32.5062586"><ele>18.4</ele><time>2015-04-26T17:06:56.0000000+00:00</time></trkpt><trkpt lat="35.1088482" lon="32.506299"><ele>18.7</ele><time>2015-04-26T17:06:57.0000000+00:00</time></trkpt><trkpt lat="35.1088956" lon="32.5063343"><ele>18.8</ele><time>2015-04-26T17:06:58.0000000+00:00</time></trkpt><trkpt lat="35.1089402" lon="32.5063722"><ele>19.4</ele><time>2015-04-26T17:06:59.0000000+00:00</time></trkpt><trkpt lat="35.1089904" lon="32.5063989"><ele>19.1</ele><time>2015-04-26T17:07:00.0000000+00:00</time></trkpt><trkpt lat="35.1090328" lon="32.5064272"><ele>18.5</ele><time>2015-04-26T17:07:01.0000000+00:00</time></trkpt><trkpt lat="35.1090808" lon="32.5064585"><ele>18.7</ele><time>2015-04-26T17:07:02.0000000+00:00</time></trkpt><trkpt lat="35.1091291" lon="32.5064922"><ele>19.3</ele><time>2015-04-26T17:07:03.0000000+00:00</time></trkpt><trkpt lat="35.1091787" lon="32.5065171"><ele>19.6</ele><time>2015-04-26T17:07:04.0000000+00:00</time></trkpt><trkpt lat="35.1092189" lon="32.5065426"><ele>19.8</ele><time>2015-04-26T17:07:05.0000000+00:00</time></trkpt><trkpt lat="35.1092617" lon="32.5065717"><ele>19.9</ele><time>2015-04-26T17:07:06.0000000+00:00</time></trkpt><trkpt lat="35.1093132" lon="32.5065932"><ele>18.9</ele><time>2015-04-26T17:07:07.0000000+00:00</time></trkpt><trkpt lat="35.1093912" lon="32.5066435"><ele>18.2</ele><time>2015-04-26T17:07:09.0000000+00:00</time></trkpt><trkpt lat="35.1094601" lon="32.5067073"><ele>18.0</ele><time>2015-04-26T17:07:11.0000000+00:00</time></trkpt><trkpt lat="35.1094994" lon="32.5067374"><ele>18.0</ele><time>2015-04-26T17:07:12.0000000+00:00</time></trkpt><trkpt lat="35.1095433" lon="32.5067632"><ele>17.9</ele><time>2015-04-26T17:07:13.0000000+00:00</time></trkpt><trkpt lat="35.1096126" lon="32.5068189"><ele>17.9</ele><time>2015-04-26T17:07:15.0000000+00:00</time></trkpt><trkpt lat="35.1096559" lon="32.5068501"><ele>17.9</ele><time>2015-04-26T17:07:16.0000000+00:00</time></trkpt><trkpt lat="35.1097328" lon="32.5069085"><ele>18.4</ele><time>2015-04-26T17:07:18.0000000+00:00</time></trkpt><trkpt lat="35.109778" lon="32.5069184"><ele>18.7</ele><time>2015-04-26T17:07:19.0000000+00:00</time></trkpt><trkpt lat="35.1098241" lon="32.5069444"><ele>18.8</ele><time>2015-04-26T17:07:20.0000000+00:00</time></trkpt><trkpt lat="35.109865" lon="32.506976"><ele>18.9</ele><time>2015-04-26T17:07:21.0000000+00:00</time></trkpt><trkpt lat="35.1099069" lon="32.5070127"><ele>18.4</ele><time>2015-04-26T17:07:22.0000000+00:00</time></trkpt><trkpt lat="35.1099506" lon="32.5070475"><ele>18.2</ele><time>2015-04-26T17:07:23.0000000+00:00</time></trkpt><trkpt lat="35.1099937" lon="32.5070837"><ele>18.5</ele><time>2015-04-26T17:07:24.0000000+00:00</time></trkpt><trkpt lat="35.1100327" lon="32.5071182"><ele>18.7</ele><time>2015-04-26T17:07:25.0000000+00:00</time></trkpt><trkpt lat="35.1100803" lon="32.5071377"><ele>18.3</ele><time>2015-04-26T17:07:26.0000000+00:00</time></trkpt><trkpt lat="35.1101253" lon="32.5071637"><ele>18.1</ele><time>2015-04-26T17:07:27.0000000+00:00</time></trkpt><trkpt lat="35.1101772" lon="32.5071952"><ele>18.0</ele><time>2015-04-26T17:07:28.0000000+00:00</time></trkpt><trkpt lat="35.1102232" lon="32.5072241"><ele>18.0</ele><time>2015-04-26T17:07:29.0000000+00:00</time></trkpt><trkpt lat="35.1102737" lon="32.5072621"><ele>18.0</ele><time>2015-04-26T17:07:30.0000000+00:00</time></trkpt><trkpt lat="35.1103277" lon="32.5072936"><ele>18.4</ele><time>2015-04-26T17:07:31.0000000+00:00</time></trkpt><trkpt lat="35.1103761" lon="32.5073244"><ele>18.7</ele><time>2015-04-26T17:07:32.0000000+00:00</time></trkpt><trkpt lat="35.110427" lon="32.5073435"><ele>19.3</ele><time>2015-04-26T17:07:33.0000000+00:00</time></trkpt><trkpt lat="35.1105074" lon="32.5074031"><ele>19.3</ele><time>2015-04-26T17:07:35.0000000+00:00</time></trkpt><trkpt lat="35.1105523" lon="32.5074337"><ele>19.6</ele><time>2015-04-26T17:07:36.0000000+00:00</time></trkpt><trkpt lat="35.1106046" lon="32.5074632"><ele>20.3</ele><time>2015-04-26T17:07:37.0000000+00:00</time></trkpt><trkpt lat="35.1106453" lon="32.5074898"><ele>20.1</ele><time>2015-04-26T17:07:38.0000000+00:00</time></trkpt><trkpt lat="35.1106928" lon="32.5075186"><ele>19.5</ele><time>2015-04-26T17:07:39.0000000+00:00</time></trkpt><trkpt lat="35.1107269" lon="32.5075564"><ele>19.2</ele><time>2015-04-26T17:07:40.0000000+00:00</time></trkpt><trkpt lat="35.1107731" lon="32.5075823"><ele>18.6</ele><time>2015-04-26T17:07:41.0000000+00:00</time></trkpt><trkpt lat="35.1108171" lon="32.5076065"><ele>18.8</ele><time>2015-04-26T17:07:42.0000000+00:00</time></trkpt><trkpt lat="35.1108747" lon="32.5076581"><ele>18.9</ele><time>2015-04-26T17:07:44.0000000+00:00</time></trkpt><trkpt lat="35.1108983" lon="32.5077162"><ele>18.2</ele><time>2015-04-26T17:07:47.0000000+00:00</time></trkpt><trkpt lat="35.1108572" lon="32.5077422"><ele>18.1</ele><time>2015-04-26T17:07:50.0000000+00:00</time></trkpt><trkpt lat="35.1108268" lon="32.5078031"><ele>17.9</ele><time>2015-04-26T17:07:53.0000000+00:00</time></trkpt><trkpt lat="35.1107954" lon="32.5078645"><ele>18.8</ele><time>2015-04-26T17:07:56.0000000+00:00</time></trkpt><trkpt lat="35.1107722" lon="32.5079227"><ele>19.4</ele><time>2015-04-26T17:07:59.0000000+00:00</time></trkpt><trkpt lat="35.1107313" lon="32.5079506"><ele>19.1</ele><time>2015-04-26T17:08:37.0000000+00:00</time></trkpt><trkpt lat="35.110749" lon="32.5078968"><ele>19.9</ele><time>2015-04-26T17:11:31.0000000+00:00</time></trkpt></trkseg><trkseg><trkpt lat="35.1112206" lon="32.507937"><ele>3.9</ele><time>2015-04-27T06:03:11.0000000+00:00</time></trkpt><trkpt lat="35.1112668" lon="32.5079548"><ele>4.9</ele><time>2015-04-27T06:03:12.0000000+00:00</time></trkpt><trkpt lat="35.1113325" lon="32.5080112"><ele>5.2</ele><time>2015-04-27T06:03:14.0000000+00:00</time></trkpt><trkpt lat="35.1114507" lon="32.5080302"><ele>5.5</ele><time>2015-04-27T06:03:16.0000000+00:00</time></trkpt><trkpt lat="35.1115076" lon="32.5080482"><ele>5.2</ele><time>2015-04-27T06:03:17.0000000+00:00</time></trkpt><trkpt lat="35.1115257" lon="32.5081207"><ele>5.5</ele><time>2015-04-27T06:03:19.0000000+00:00</time></trkpt><trkpt lat="35.1115584" lon="32.5081802"><ele>4.7</ele><time>2015-04-27T06:03:20.0000000+00:00</time></trkpt><trkpt lat="35.1116378" lon="32.5081948"><ele>3.3</ele><time>2015-04-27T06:03:21.0000000+00:00</time></trkpt><trkpt lat="35.1117376" lon="32.5081944"><ele>2.5</ele><time>2015-04-27T06:03:23.0000000+00:00</time></trkpt><trkpt lat="35.1117751" lon="32.5082443"><ele>1.2</ele><time>2015-04-27T06:03:24.0000000+00:00</time></trkpt><trkpt lat="35.1118205" lon="32.5082706"><ele>1.1</ele><time>2015-04-27T06:03:25.0000000+00:00</time></trkpt><trkpt lat="35.1119425" lon="32.5082806"><ele>1.0</ele><time>2015-04-27T06:03:26.0000000+00:00</time></trkpt><trkpt lat="35.1118762" lon="32.5083922"><ele>0.5</ele><time>2015-04-27T06:03:27.0000000+00:00</time></trkpt><trkpt lat="35.1119766" lon="32.5084297"><ele>-0.8</ele><time>2015-04-27T06:03:28.0000000+00:00</time></trkpt><trkpt lat="35.112001" lon="32.5084882"><ele>-0.9</ele><time>2015-04-27T06:03:29.0000000+00:00</time></trkpt><trkpt lat="35.112042" lon="32.5085118"><ele>-1.5</ele><time>2015-04-27T06:03:30.0000000+00:00</time></trkpt><trkpt lat="35.1122206" lon="32.5084857"><ele>-2.1</ele><time>2015-04-27T06:03:32.0000000+00:00</time></trkpt><trkpt lat="35.1122674" lon="32.5085145"><ele>7.9</ele><time>2015-04-27T06:03:35.0000000+00:00</time></trkpt><trkpt lat="35.1123161" lon="32.5085233"><ele>10.4</ele><time>2015-04-27T06:03:36.0000000+00:00</time></trkpt><trkpt lat="35.1123716" lon="32.5085532"><ele>11.7</ele><time>2015-04-27T06:03:37.0000000+00:00</time></trkpt><trkpt lat="35.1124309" lon="32.5085808"><ele>14.3</ele><time>2015-04-27T06:03:38.0000000+00:00</time></trkpt><trkpt lat="35.1124771" lon="32.50861"><ele>16.1</ele><time>2015-04-27T06:03:39.0000000+00:00</time></trkpt><trkpt lat="35.112528" lon="32.5086375"><ele>17.5</ele><time>2015-04-27T06:03:40.0000000+00:00</time></trkpt><trkpt lat="35.1125761" lon="32.5086682"><ele>18.2</ele><time>2015-04-27T06:03:41.0000000+00:00</time></trkpt><trkpt lat="35.1126116" lon="32.5087022"><ele>18.6</ele><time>2015-04-27T06:03:42.0000000+00:00</time></trkpt><trkpt lat="35.1126615" lon="32.5087316"><ele>18.8</ele><time>2015-04-27T06:03:43.0000000+00:00</time></trkpt><trkpt lat="35.1127148" lon="32.5087656"><ele>19.3</ele><time>2015-04-27T06:03:44.0000000+00:00</time></trkpt><trkpt lat="35.1127667" lon="32.5087953"><ele>19.6</ele><time>2015-04-27T06:03:45.0000000+00:00</time></trkpt><trkpt lat="35.1128208" lon="32.5088248"><ele>19.8</ele><time>2015-04-27T06:03:46.0000000+00:00</time></trkpt><trkpt lat="35.1128764" lon="32.5088506"><ele>19.9</ele><time>2015-04-27T06:03:47.0000000+00:00</time></trkpt><trkpt lat="35.1129307" lon="32.5088803"><ele>19.9</ele><time>2015-04-27T06:03:48.0000000+00:00</time></trkpt><trkpt lat="35.112984" lon="32.5089091"><ele>19.9</ele><time>2015-04-27T06:03:49.0000000+00:00</time></trkpt><trkpt lat="35.1130374" lon="32.5089323"><ele>19.9</ele><time>2015-04-27T06:03:50.0000000+00:00</time></trkpt><trkpt lat="35.113091" lon="32.5089629"><ele>19.9</ele><time>2015-04-27T06:03:51.0000000+00:00</time></trkpt><trkpt lat="35.1131479" lon="32.5089899"><ele>19.9</ele><time>2015-04-27T06:03:52.0000000+00:00</time></trkpt><trkpt lat="35.1132022" lon="32.5090141"><ele>19.9</ele><time>2015-04-27T06:03:53.0000000+00:00</time></trkpt><trkpt lat="35.1132541" lon="32.5090462"><ele>19.9</ele><time>2015-04-27T06:03:54.0000000+00:00</time></trkpt><trkpt lat="35.1133087" lon="32.5090768"><ele>19.9</ele><time>2015-04-27T06:03:55.0000000+00:00</time></trkpt><trkpt lat="35.1133643" lon="32.5091075"><ele>19.9</ele><time>2015-04-27T06:03:56.0000000+00:00</time></trkpt><trkpt lat="35.1134182" lon="32.5091378"><ele>19.9</ele><time>2015-04-27T06:03:57.0000000+00:00</time></trkpt><trkpt lat="35.1134754" lon="32.5091614"><ele>19.9</ele><time>2015-04-27T06:03:58.0000000+00:00</time></trkpt><trkpt lat="35.11353" lon="32.5091862"><ele>19.9</ele><time>2015-04-27T06:03:59.0000000+00:00</time></trkpt><trkpt lat="35.113591" lon="32.5092141"><ele>19.9</ele><time>2015-04-27T06:04:00.0000000+00:00</time></trkpt><trkpt lat="35.1136472" lon="32.5092434"><ele>19.9</ele><time>2015-04-27T06:04:01.0000000+00:00</time></trkpt><trkpt lat="35.1137035" lon="32.5092684"><ele>20.4</ele><time>2015-04-27T06:04:02.0000000+00:00</time></trkpt><trkpt lat="35.1137583" lon="32.5092919"><ele>20.7</ele><time>2015-04-27T06:04:03.0000000+00:00</time></trkpt><trkpt lat="35.1138134" lon="32.5093086"><ele>20.3</ele><time>2015-04-27T06:04:04.0000000+00:00</time></trkpt><trkpt lat="35.1138676" lon="32.5093317"><ele>20.1</ele><time>2015-04-27T06:04:05.0000000+00:00</time></trkpt><trkpt lat="35.113922" lon="32.5093523"><ele>20.0</ele><time>2015-04-27T06:04:06.0000000+00:00</time></trkpt><trkpt lat="35.1139814" lon="32.5093717"><ele>20.0</ele><time>2015-04-27T06:04:07.0000000+00:00</time></trkpt><trkpt lat="35.1140356" lon="32.509393"><ele>20.0</ele><time>2015-04-27T06:04:08.0000000+00:00</time></trkpt><trkpt lat="35.1140903" lon="32.5094155"><ele>19.9</ele><time>2015-04-27T06:04:09.0000000+00:00</time></trkpt><trkpt lat="35.1141484" lon="32.5094271"><ele>19.9</ele><time>2015-04-27T06:04:10.0000000+00:00</time></trkpt><trkpt lat="35.1141993" lon="32.5094464"><ele>19.9</ele><time>2015-04-27T06:04:11.0000000+00:00</time></trkpt><trkpt lat="35.1142856" lon="32.5094776"><ele>19.9</ele><time>2015-04-27T06:04:13.0000000+00:00</time></trkpt><trkpt lat="35.1143349" lon="32.509503"><ele>19.9</ele><time>2015-04-27T06:04:14.0000000+00:00</time></trkpt><trkpt lat="35.1143822" lon="32.5095243"><ele>19.9</ele><time>2015-04-27T06:04:15.0000000+00:00</time></trkpt><trkpt lat="35.1144412" lon="32.5095489"><ele>19.9</ele><time>2015-04-27T06:04:16.0000000+00:00</time></trkpt><trkpt lat="35.1144911" lon="32.5095675"><ele>19.9</ele><time>2015-04-27T06:04:17.0000000+00:00</time></trkpt><trkpt lat="35.1145393" lon="32.5095847"><ele>19.9</ele><time>2015-04-27T06:04:18.0000000+00:00</time></trkpt><trkpt lat="35.1145925" lon="32.5096069"><ele>19.4</ele><time>2015-04-27T06:04:19.0000000+00:00</time></trkpt><trkpt lat="35.1146431" lon="32.5096266"><ele>19.7</ele><time>2015-04-27T06:04:20.0000000+00:00</time></trkpt><trkpt lat="35.1146948" lon="32.5096465"><ele>19.8</ele><time>2015-04-27T06:04:21.0000000+00:00</time></trkpt><trkpt lat="35.1147476" lon="32.5096727"><ele>19.4</ele><time>2015-04-27T06:04:22.0000000+00:00</time></trkpt><trkpt lat="35.1147989" lon="32.509692"><ele>19.6</ele><time>2015-04-27T06:04:23.0000000+00:00</time></trkpt><trkpt lat="35.1148454" lon="32.5097096"><ele>19.3</ele><time>2015-04-27T06:04:24.0000000+00:00</time></trkpt><trkpt lat="35.1148936" lon="32.5097266"><ele>19.1</ele><time>2015-04-27T06:04:25.0000000+00:00</time></trkpt><trkpt lat="35.1149369" lon="32.5097502"><ele>19.0</ele><time>2015-04-27T06:04:26.0000000+00:00</time></trkpt><trkpt lat="35.114985" lon="32.5097681"><ele>19.0</ele><time>2015-04-27T06:04:27.0000000+00:00</time></trkpt><trkpt lat="35.1150339" lon="32.5097859"><ele>19.0</ele><time>2015-04-27T06:04:28.0000000+00:00</time></trkpt><trkpt lat="35.115081" lon="32.5098047"><ele>18.9</ele><time>2015-04-27T06:04:29.0000000+00:00</time></trkpt><trkpt lat="35.1151316" lon="32.5098257"><ele>18.4</ele><time>2015-04-27T06:04:30.0000000+00:00</time></trkpt><trkpt lat="35.1151781" lon="32.5098464"><ele>18.2</ele><time>2015-04-27T06:04:31.0000000+00:00</time></trkpt><trkpt lat="35.1152235" lon="32.5098606"><ele>18.1</ele><time>2015-04-27T06:04:32.0000000+00:00</time></trkpt><trkpt lat="35.115271" lon="32.5098731"><ele>18.5</ele><time>2015-04-27T06:04:33.0000000+00:00</time></trkpt><trkpt lat="35.1153532" lon="32.5099065"><ele>18.1</ele><time>2015-04-27T06:04:35.0000000+00:00</time></trkpt><trkpt lat="35.1154007" lon="32.5099188"><ele>18.0</ele><time>2015-04-27T06:04:36.0000000+00:00</time></trkpt><trkpt lat="35.1154445" lon="32.5099368"><ele>18.0</ele><time>2015-04-27T06:04:37.0000000+00:00</time></trkpt><trkpt lat="35.1155193" lon="32.5099852"><ele>17.9</ele><time>2015-04-27T06:04:39.0000000+00:00</time></trkpt><trkpt lat="35.1155623" lon="32.5100057"><ele>17.9</ele><time>2015-04-27T06:04:40.0000000+00:00</time></trkpt><trkpt lat="35.1156335" lon="32.5100488"><ele>17.9</ele><time>2015-04-27T06:04:42.0000000+00:00</time></trkpt><trkpt lat="35.1157061" lon="32.5100835"><ele>18.7</ele><time>2015-04-27T06:04:44.0000000+00:00</time></trkpt><trkpt lat="35.1157725" lon="32.5101157"><ele>18.4</ele><time>2015-04-27T06:04:46.0000000+00:00</time></trkpt><trkpt lat="35.1158281" lon="32.510145"><ele>18.0</ele><time>2015-04-27T06:04:48.0000000+00:00</time></trkpt><trkpt lat="35.1158842" lon="32.5101737"><ele>18.0</ele><time>2015-04-27T06:04:50.0000000+00:00</time></trkpt><trkpt lat="35.1159427" lon="32.5101994"><ele>17.9</ele><time>2015-04-27T06:04:53.0000000+00:00</time></trkpt><trkpt lat="35.1159086" lon="32.5101495"><ele>16.6</ele><time>2015-04-27T06:05:04.0000000+00:00</time></trkpt><trkpt lat="35.1159241" lon="32.5102062"><ele>21.4</ele><time>2015-04-27T06:09:42.0000000+00:00</time></trkpt><trkpt lat="35.1158833" lon="32.5102389"><ele>22.1</ele><time>2015-04-27T06:09:47.0000000+00:00</time></trkpt><trkpt lat="35.1158335" lon="32.5102355"><ele>22.2</ele><time>2015-04-27T06:09:51.0000000+00:00</time></trkpt><trkpt lat="35.1157975" lon="32.5102019"><ele>21.5</ele><time>2015-04-27T06:09:59.0000000+00:00</time></trkpt><trkpt lat="35.115749" lon="32.5101806"><ele>22.4</ele><time>2015-04-27T06:10:02.0000000+00:00</time></trkpt><trkpt lat="35.1156914" lon="32.5101503"><ele>23.3</ele><time>2015-04-27T06:10:04.0000000+00:00</time></trkpt><trkpt lat="35.1156268" lon="32.5101137"><ele>24.5</ele><time>2015-04-27T06:10:06.0000000+00:00</time></trkpt><trkpt lat="35.1155572" lon="32.5100761"><ele>24.1</ele><time>2015-04-27T06:10:08.0000000+00:00</time></trkpt><trkpt lat="35.1154759" lon="32.5100341"><ele>24.5</ele><time>2015-04-27T06:10:10.0000000+00:00</time></trkpt><trkpt lat="35.1154336" lon="32.5100114"><ele>24.7</ele><time>2015-04-27T06:10:11.0000000+00:00</time></trkpt><trkpt lat="35.1153917" lon="32.5099888"><ele>23.8</ele><time>2015-04-27T06:10:12.0000000+00:00</time></trkpt><trkpt lat="35.1153116" lon="32.5099442"><ele>23.7</ele><time>2015-04-27T06:10:14.0000000+00:00</time></trkpt><trkpt lat="35.1152328" lon="32.509909"><ele>25.1</ele><time>2015-04-27T06:10:16.0000000+00:00</time></trkpt><trkpt lat="35.1151528" lon="32.509878"><ele>25.7</ele><time>2015-04-27T06:10:18.0000000+00:00</time></trkpt><trkpt lat="35.1150742" lon="32.5098411"><ele>25.9</ele><time>2015-04-27T06:10:20.0000000+00:00</time></trkpt><trkpt lat="35.1149955" lon="32.5098021"><ele>26.7</ele><time>2015-04-27T06:10:22.0000000+00:00</time></trkpt><trkpt lat="35.1149182" lon="32.5097701"><ele>26.6</ele><time>2015-04-27T06:10:24.0000000+00:00</time></trkpt><trkpt lat="35.1148432" lon="32.5097486"><ele>25.9</ele><time>2015-04-27T06:10:26.0000000+00:00</time></trkpt><trkpt lat="35.1147706" lon="32.509721"><ele>25.4</ele><time>2015-04-27T06:10:28.0000000+00:00</time></trkpt><trkpt lat="35.1146941" lon="32.5096913"><ele>25.1</ele><time>2015-04-27T06:10:30.0000000+00:00</time></trkpt><trkpt lat="35.114615" lon="32.5096593"><ele>24.2</ele><time>2015-04-27T06:10:32.0000000+00:00</time></trkpt><trkpt lat="35.1145621" lon="32.5096352"><ele>23.6</ele><time>2015-04-27T06:10:33.0000000+00:00</time></trkpt><trkpt lat="35.1145173" lon="32.5096162"><ele>22.8</ele><time>2015-04-27T06:10:34.0000000+00:00</time></trkpt><trkpt lat="35.1144647" lon="32.5095992"><ele>22.3</ele><time>2015-04-27T06:10:35.0000000+00:00</time></trkpt><trkpt lat="35.1144145" lon="32.5095798"><ele>22.6</ele><time>2015-04-27T06:10:36.0000000+00:00</time></trkpt><trkpt lat="35.1143618" lon="32.5095632"><ele>22.8</ele><time>2015-04-27T06:10:37.0000000+00:00</time></trkpt><trkpt lat="35.1143152" lon="32.5095435"><ele>22.4</ele><time>2015-04-27T06:10:38.0000000+00:00</time></trkpt><trkpt lat="35.1142651" lon="32.5095314"><ele>22.1</ele><time>2015-04-27T06:10:39.0000000+00:00</time></trkpt><trkpt lat="35.1142127" lon="32.5095078"><ele>22.0</ele><time>2015-04-27T06:10:40.0000000+00:00</time></trkpt><trkpt lat="35.1141635" lon="32.5094856"><ele>21.5</ele><time>2015-04-27T06:10:41.0000000+00:00</time></trkpt><trkpt lat="35.1141119" lon="32.5094683"><ele>21.2</ele><time>2015-04-27T06:10:42.0000000+00:00</time></trkpt><trkpt lat="35.1140534" lon="32.5094531"><ele>21.6</ele><time>2015-04-27T06:10:43.0000000+00:00</time></trkpt><trkpt lat="35.1140026" lon="32.5094296"><ele>22.2</ele><time>2015-04-27T06:10:44.0000000+00:00</time></trkpt><trkpt lat="35.1139526" lon="32.5094113"><ele>22.1</ele><time>2015-04-27T06:10:45.0000000+00:00</time></trkpt><trkpt lat="35.1139136" lon="32.5093829"><ele>22.5</ele><time>2015-04-27T06:10:46.0000000+00:00</time></trkpt><trkpt lat="35.1138593" lon="32.5093653"><ele>22.2</ele><time>2015-04-27T06:10:47.0000000+00:00</time></trkpt><trkpt lat="35.1138102" lon="32.5093508"><ele>22.1</ele><time>2015-04-27T06:10:48.0000000+00:00</time></trkpt><trkpt lat="35.113759" lon="32.5093315"><ele>22.0</ele><time>2015-04-27T06:10:49.0000000+00:00</time></trkpt><trkpt lat="35.1137" lon="32.5093032"><ele>22.0</ele><time>2015-04-27T06:10:50.0000000+00:00</time></trkpt><trkpt lat="35.1136498" lon="32.5092797"><ele>21.9</ele><time>2015-04-27T06:10:51.0000000+00:00</time></trkpt><trkpt lat="35.113592" lon="32.5092545"><ele>21.4</ele><time>2015-04-27T06:10:52.0000000+00:00</time></trkpt><trkpt lat="35.1135368" lon="32.5092316"><ele>21.2</ele><time>2015-04-27T06:10:53.0000000+00:00</time></trkpt><trkpt lat="35.1134864" lon="32.509209"><ele>21.1</ele><time>2015-04-27T06:10:54.0000000+00:00</time></trkpt><trkpt lat="35.113436" lon="32.509195"><ele>21.0</ele><time>2015-04-27T06:10:55.0000000+00:00</time></trkpt><trkpt lat="35.1133737" lon="32.5091721"><ele>21.5</ele><time>2015-04-27T06:10:56.0000000+00:00</time></trkpt><trkpt lat="35.1133213" lon="32.5091432"><ele>21.7</ele><time>2015-04-27T06:10:57.0000000+00:00</time></trkpt><trkpt lat="35.1132698" lon="32.5091176"><ele>21.8</ele><time>2015-04-27T06:10:58.0000000+00:00</time></trkpt><trkpt lat="35.1132196" lon="32.509084"><ele>21.4</ele><time>2015-04-27T06:10:59.0000000+00:00</time></trkpt><trkpt lat="35.1131655" lon="32.5090472"><ele>20.7</ele><time>2015-04-27T06:11:00.0000000+00:00</time></trkpt><trkpt lat="35.1131198" lon="32.5090252"><ele>20.3</ele><time>2015-04-27T06:11:01.0000000+00:00</time></trkpt><trkpt lat="35.1130668" lon="32.509"><ele>20.6</ele><time>2015-04-27T06:11:02.0000000+00:00</time></trkpt><trkpt lat="35.1130158" lon="32.5089752"><ele>20.3</ele><time>2015-04-27T06:11:03.0000000+00:00</time></trkpt><trkpt lat="35.1129508" lon="32.5089503"><ele>21.6</ele><time>2015-04-27T06:11:04.0000000+00:00</time></trkpt><trkpt lat="35.1128997" lon="32.5089143"><ele>22.3</ele><time>2015-04-27T06:11:05.0000000+00:00</time></trkpt><trkpt lat="35.1128487" lon="32.5088868"><ele>22.6</ele><time>2015-04-27T06:11:06.0000000+00:00</time></trkpt><trkpt lat="35.1127985" lon="32.5088591"><ele>22.3</ele><time>2015-04-27T06:11:07.0000000+00:00</time></trkpt><trkpt lat="35.1127434" lon="32.5088303"><ele>22.6</ele><time>2015-04-27T06:11:08.0000000+00:00</time></trkpt><trkpt lat="35.1126875" lon="32.5087944"><ele>22.3</ele><time>2015-04-27T06:11:09.0000000+00:00</time></trkpt><trkpt lat="35.1126338" lon="32.5087648"><ele>22.1</ele><time>2015-04-27T06:11:10.0000000+00:00</time></trkpt><trkpt lat="35.1125804" lon="32.5087329"><ele>22.0</ele><time>2015-04-27T06:11:11.0000000+00:00</time></trkpt><trkpt lat="35.112536" lon="32.5087124"><ele>21.5</ele><time>2015-04-27T06:11:12.0000000+00:00</time></trkpt><trkpt lat="35.1124834" lon="32.5086823"><ele>21.2</ele><time>2015-04-27T06:11:13.0000000+00:00</time></trkpt><trkpt lat="35.1124325" lon="32.5086527"><ele>21.6</ele><time>2015-04-27T06:11:14.0000000+00:00</time></trkpt><trkpt lat="35.1123757" lon="32.508617"><ele>21.7</ele><time>2015-04-27T06:11:15.0000000+00:00</time></trkpt><trkpt lat="35.1123245" lon="32.5085824"><ele>21.3</ele><time>2015-04-27T06:11:16.0000000+00:00</time></trkpt><trkpt lat="35.1122718" lon="32.5085538"><ele>21.6</ele><time>2015-04-27T06:11:17.0000000+00:00</time></trkpt><trkpt lat="35.1122148" lon="32.5085317"><ele>21.8</ele><time>2015-04-27T06:11:18.0000000+00:00</time></trkpt><trkpt lat="35.1121585" lon="32.5084996"><ele>22.4</ele><time>2015-04-27T06:11:19.0000000+00:00</time></trkpt><trkpt lat="35.1120998" lon="32.5084618"><ele>22.6</ele><time>2015-04-27T06:11:20.0000000+00:00</time></trkpt><trkpt lat="35.1120424" lon="32.5084211"><ele>22.8</ele><time>2015-04-27T06:11:21.0000000+00:00</time></trkpt><trkpt lat="35.1119865" lon="32.508384"><ele>22.9</ele><time>2015-04-27T06:11:22.0000000+00:00</time></trkpt><trkpt lat="35.1119319" lon="32.5083486"><ele>22.9</ele><time>2015-04-27T06:11:23.0000000+00:00</time></trkpt><trkpt lat="35.1118767" lon="32.5083201"><ele>23.4</ele><time>2015-04-27T06:11:24.0000000+00:00</time></trkpt><trkpt lat="35.1118136" lon="32.5082949"><ele>23.2</ele><time>2015-04-27T06:11:25.0000000+00:00</time></trkpt><trkpt lat="35.1117596" lon="32.5082684"><ele>23.1</ele><time>2015-04-27T06:11:26.0000000+00:00</time></trkpt><trkpt lat="35.1117136" lon="32.5082394"><ele>22.5</ele><time>2015-04-27T06:11:27.0000000+00:00</time></trkpt><trkpt lat="35.1116659" lon="32.5082077"><ele>22.2</ele><time>2015-04-27T06:11:28.0000000+00:00</time></trkpt><trkpt lat="35.1116095" lon="32.5081712"><ele>22.6</ele><time>2015-04-27T06:11:29.0000000+00:00</time></trkpt><trkpt lat="35.1115644" lon="32.5081379"><ele>22.3</ele><time>2015-04-27T06:11:30.0000000+00:00</time></trkpt><trkpt lat="35.1115099" lon="32.5081084"><ele>22.1</ele><time>2015-04-27T06:11:31.0000000+00:00</time></trkpt><trkpt lat="35.1114684" lon="32.5080727"><ele>22.0</ele><time>2015-04-27T06:11:32.0000000+00:00</time></trkpt><trkpt lat="35.111414" lon="32.5080552"><ele>22.0</ele><time>2015-04-27T06:11:33.0000000+00:00</time></trkpt><trkpt lat="35.1113657" lon="32.5080339"><ele>22.5</ele><time>2015-04-27T06:11:34.0000000+00:00</time></trkpt><trkpt lat="35.1113172" lon="32.5080033"><ele>22.2</ele><time>2015-04-27T06:11:35.0000000+00:00</time></trkpt><trkpt lat="35.1112697" lon="32.5079689"><ele>22.1</ele><time>2015-04-27T06:11:36.0000000+00:00</time></trkpt><trkpt lat="35.1112131" lon="32.5079325"><ele>22.5</ele><time>2015-04-27T06:11:37.0000000+00:00</time></trkpt><trkpt lat="35.1111679" lon="32.507897"><ele>22.7</ele><time>2015-04-27T06:11:38.0000000+00:00</time></trkpt><trkpt lat="35.111117" lon="32.5078686"><ele>22.8</ele><time>2015-04-27T06:11:39.0000000+00:00</time></trkpt><trkpt lat="35.1110651" lon="32.5078416"><ele>22.9</ele><time>2015-04-27T06:11:40.0000000+00:00</time></trkpt><trkpt lat="35.1110181" lon="32.5078166"><ele>22.4</ele><time>2015-04-27T06:11:41.0000000+00:00</time></trkpt><trkpt lat="35.1109717" lon="32.5077818"><ele>21.7</ele><time>2015-04-27T06:11:42.0000000+00:00</time></trkpt><trkpt lat="35.1109211" lon="32.5077342"><ele>21.3</ele><time>2015-04-27T06:11:43.0000000+00:00</time></trkpt><trkpt lat="35.1108766" lon="32.5077062"><ele>20.6</ele><time>2015-04-27T06:11:44.0000000+00:00</time></trkpt><trkpt lat="35.1108289" lon="32.5076852"><ele>20.3</ele><time>2015-04-27T06:11:45.0000000+00:00</time></trkpt><trkpt lat="35.1107746" lon="32.5076562"><ele>20.1</ele><time>2015-04-27T06:11:46.0000000+00:00</time></trkpt><trkpt lat="35.1107255" lon="32.5076243"><ele>20.0</ele><time>2015-04-27T06:11:47.0000000+00:00</time></trkpt><trkpt lat="35.1106842" lon="32.5075936"><ele>20.0</ele><time>2015-04-27T06:11:48.0000000+00:00</time></trkpt><trkpt lat="35.1106366" lon="32.5075793"><ele>20.5</ele><time>2015-04-27T06:11:49.0000000+00:00</time></trkpt><trkpt lat="35.1105894" lon="32.5075456"><ele>20.2</ele><time>2015-04-27T06:11:50.0000000+00:00</time></trkpt><trkpt lat="35.110537" lon="32.5075078"><ele>20.1</ele><time>2015-04-27T06:11:51.0000000+00:00</time></trkpt><trkpt lat="35.1104821" lon="32.5074752"><ele>20.0</ele><time>2015-04-27T06:11:52.0000000+00:00</time></trkpt><trkpt lat="35.1104336" lon="32.5074434"><ele>20.0</ele><time>2015-04-27T06:11:53.0000000+00:00</time></trkpt><trkpt lat="35.11038" lon="32.5074092"><ele>19.9</ele><time>2015-04-27T06:11:54.0000000+00:00</time></trkpt><trkpt lat="35.1103301" lon="32.5073631"><ele>19.9</ele><time>2015-04-27T06:11:55.0000000+00:00</time></trkpt><trkpt lat="35.1102798" lon="32.5073297"><ele>19.9</ele><time>2015-04-27T06:11:56.0000000+00:00</time></trkpt><trkpt lat="35.1102307" lon="32.5072954"><ele>19.9</ele><time>2015-04-27T06:11:57.0000000+00:00</time></trkpt><trkpt lat="35.1101757" lon="32.5072513"><ele>19.9</ele><time>2015-04-27T06:11:58.0000000+00:00</time></trkpt><trkpt lat="35.1101212" lon="32.5072179"><ele>19.9</ele><time>2015-04-27T06:11:59.0000000+00:00</time></trkpt><trkpt lat="35.1100645" lon="32.5071908"><ele>19.9</ele><time>2015-04-27T06:12:00.0000000+00:00</time></trkpt><trkpt lat="35.1100135" lon="32.5071555"><ele>19.9</ele><time>2015-04-27T06:12:01.0000000+00:00</time></trkpt><trkpt lat="35.1099688" lon="32.5071243"><ele>19.4</ele><time>2015-04-27T06:12:02.0000000+00:00</time></trkpt><trkpt lat="35.1099199" lon="32.5070904"><ele>18.7</ele><time>2015-04-27T06:12:03.0000000+00:00</time></trkpt><trkpt lat="35.1098709" lon="32.5070599"><ele>18.3</ele><time>2015-04-27T06:12:04.0000000+00:00</time></trkpt><trkpt lat="35.1098185" lon="32.5070261"><ele>18.1</ele><time>2015-04-27T06:12:05.0000000+00:00</time></trkpt><trkpt lat="35.109766" lon="32.5069945"><ele>18.0</ele><time>2015-04-27T06:12:06.0000000+00:00</time></trkpt><trkpt lat="35.1097117" lon="32.5069567"><ele>17.5</ele><time>2015-04-27T06:12:07.0000000+00:00</time></trkpt><trkpt lat="35.1096646" lon="32.5069166"><ele>17.2</ele><time>2015-04-27T06:12:08.0000000+00:00</time></trkpt><trkpt lat="35.1096129" lon="32.5068801"><ele>17.1</ele><time>2015-04-27T06:12:09.0000000+00:00</time></trkpt><trkpt lat="35.1095631" lon="32.5068514"><ele>17.0</ele><time>2015-04-27T06:12:10.0000000+00:00</time></trkpt><trkpt lat="35.1095163" lon="32.5068174"><ele>16.5</ele><time>2015-04-27T06:12:11.0000000+00:00</time></trkpt><trkpt lat="35.109465" lon="32.5067816"><ele>15.7</ele><time>2015-04-27T06:12:12.0000000+00:00</time></trkpt><trkpt lat="35.1094167" lon="32.5067546"><ele>15.3</ele><time>2015-04-27T06:12:13.0000000+00:00</time></trkpt><trkpt lat="35.1093696" lon="32.5067205"><ele>15.6</ele><time>2015-04-27T06:12:14.0000000+00:00</time></trkpt><trkpt lat="35.1093201" lon="32.5066865"><ele>15.8</ele><time>2015-04-27T06:12:15.0000000+00:00</time></trkpt><trkpt lat="35.1092731" lon="32.5066498"><ele>15.4</ele><time>2015-04-27T06:12:16.0000000+00:00</time></trkpt><trkpt lat="35.1092241" lon="32.506615"><ele>15.1</ele><time>2015-04-27T06:12:17.0000000+00:00</time></trkpt><trkpt lat="35.1091739" lon="32.5065812"><ele>15.0</ele><time>2015-04-27T06:12:18.0000000+00:00</time></trkpt><trkpt lat="35.1091263" lon="32.5065481"><ele>15.0</ele><time>2015-04-27T06:12:19.0000000+00:00</time></trkpt><trkpt lat="35.1090752" lon="32.5065114"><ele>15.0</ele><time>2015-04-27T06:12:20.0000000+00:00</time></trkpt><trkpt lat="35.1090264" lon="32.5064753"><ele>14.9</ele><time>2015-04-27T06:12:21.0000000+00:00</time></trkpt><trkpt lat="35.108979" lon="32.5064427"><ele>14.9</ele><time>2015-04-27T06:12:22.0000000+00:00</time></trkpt><trkpt lat="35.1089304" lon="32.506408"><ele>14.9</ele><time>2015-04-27T06:12:23.0000000+00:00</time></trkpt><trkpt lat="35.1088882" lon="32.5063756"><ele>14.4</ele><time>2015-04-27T06:12:24.0000000+00:00</time></trkpt><trkpt lat="35.1088438" lon="32.5063419"><ele>14.7</ele><time>2015-04-27T06:12:25.0000000+00:00</time></trkpt><trkpt lat="35.1088006" lon="32.5063106"><ele>14.8</ele><time>2015-04-27T06:12:26.0000000+00:00</time></trkpt><trkpt lat="35.1087603" lon="32.5062784"><ele>14.9</ele><time>2015-04-27T06:12:27.0000000+00:00</time></trkpt><trkpt lat="35.10872" lon="32.506248"><ele>14.9</ele><time>2015-04-27T06:12:28.0000000+00:00</time></trkpt><trkpt lat="35.1086796" lon="32.5062182"><ele>14.9</ele><time>2015-04-27T06:12:29.0000000+00:00</time></trkpt><trkpt lat="35.1086372" lon="32.5061978"><ele>14.9</ele><time>2015-04-27T06:12:30.0000000+00:00</time></trkpt><trkpt lat="35.1085923" lon="32.5061703"><ele>14.9</ele><time>2015-04-27T06:12:31.0000000+00:00</time></trkpt><trkpt lat="35.1085516" lon="32.5061397"><ele>14.9</ele><time>2015-04-27T06:12:32.0000000+00:00</time></trkpt><trkpt lat="35.1085066" lon="32.5061148"><ele>14.9</ele><time>2015-04-27T06:12:33.0000000+00:00</time></trkpt><trkpt lat="35.1084638" lon="32.5060785"><ele>14.9</ele><time>2015-04-27T06:12:34.0000000+00:00</time></trkpt><trkpt lat="35.1084197" lon="32.5060503"><ele>14.4</ele><time>2015-04-27T06:12:35.0000000+00:00</time></trkpt><trkpt lat="35.1083778" lon="32.5060112"><ele>14.2</ele><time>2015-04-27T06:12:36.0000000+00:00</time></trkpt><trkpt lat="35.1083304" lon="32.5059802"><ele>14.6</ele><time>2015-04-27T06:12:37.0000000+00:00</time></trkpt><trkpt lat="35.1082794" lon="32.5059502"><ele>15.2</ele><time>2015-04-27T06:12:38.0000000+00:00</time></trkpt><trkpt lat="35.1082325" lon="32.5059156"><ele>16.1</ele><time>2015-04-27T06:12:39.0000000+00:00</time></trkpt><trkpt lat="35.1081827" lon="32.5058888"><ele>16.5</ele><time>2015-04-27T06:12:40.0000000+00:00</time></trkpt><trkpt lat="35.108139" lon="32.5058563"><ele>16.7</ele><time>2015-04-27T06:12:41.0000000+00:00</time></trkpt><trkpt lat="35.108091" lon="32.5058183"><ele>17.3</ele><time>2015-04-27T06:12:42.0000000+00:00</time></trkpt><trkpt lat="35.1080398" lon="32.5057879"><ele>18.1</ele><time>2015-04-27T06:12:43.0000000+00:00</time></trkpt><trkpt lat="35.1079877" lon="32.5057488"><ele>18.5</ele><time>2015-04-27T06:12:44.0000000+00:00</time></trkpt><trkpt lat="35.1079386" lon="32.5057232"><ele>17.7</ele><time>2015-04-27T06:12:45.0000000+00:00</time></trkpt><trkpt lat="35.1078906" lon="32.5056831"><ele>17.3</ele><time>2015-04-27T06:12:46.0000000+00:00</time></trkpt><trkpt lat="35.1078389" lon="32.5056467"><ele>17.1</ele><time>2015-04-27T06:12:47.0000000+00:00</time></trkpt><trkpt lat="35.1077894" lon="32.5056146"><ele>17.0</ele><time>2015-04-27T06:12:48.0000000+00:00</time></trkpt><trkpt lat="35.1077336" lon="32.5055792"><ele>17.0</ele><time>2015-04-27T06:12:49.0000000+00:00</time></trkpt><trkpt lat="35.1076867" lon="32.5055406"><ele>17.0</ele><time>2015-04-27T06:12:50.0000000+00:00</time></trkpt><trkpt lat="35.1076391" lon="32.5054991"><ele>16.9</ele><time>2015-04-27T06:12:51.0000000+00:00</time></trkpt><trkpt lat="35.1075906" lon="32.5054626"><ele>16.9</ele><time>2015-04-27T06:12:52.0000000+00:00</time></trkpt><trkpt lat="35.1075358" lon="32.505423"><ele>17.4</ele><time>2015-04-27T06:12:53.0000000+00:00</time></trkpt><trkpt lat="35.1074834" lon="32.5053938"><ele>17.7</ele><time>2015-04-27T06:12:54.0000000+00:00</time></trkpt><trkpt lat="35.1074299" lon="32.5053715"><ele>17.8</ele><time>2015-04-27T06:12:55.0000000+00:00</time></trkpt><trkpt lat="35.1073789" lon="32.5053483"><ele>18.4</ele><time>2015-04-27T06:12:56.0000000+00:00</time></trkpt><trkpt lat="35.1073363" lon="32.5053127"><ele>18.6</ele><time>2015-04-27T06:12:57.0000000+00:00</time></trkpt><trkpt lat="35.1072946" lon="32.5052802"><ele>18.8</ele><time>2015-04-27T06:12:58.0000000+00:00</time></trkpt><trkpt lat="35.1072463" lon="32.5052336"><ele>18.9</ele><time>2015-04-27T06:12:59.0000000+00:00</time></trkpt><trkpt lat="35.1071938" lon="32.505202"><ele>19.4</ele><time>2015-04-27T06:13:00.0000000+00:00</time></trkpt><trkpt lat="35.1071464" lon="32.505163"><ele>19.7</ele><time>2015-04-27T06:13:01.0000000+00:00</time></trkpt><trkpt lat="35.1071015" lon="32.5051368"><ele>19.8</ele><time>2015-04-27T06:13:02.0000000+00:00</time></trkpt><trkpt lat="35.1070487" lon="32.505104"><ele>19.4</ele><time>2015-04-27T06:13:03.0000000+00:00</time></trkpt><trkpt lat="35.1069898" lon="32.5050747"><ele>20.1</ele><time>2015-04-27T06:13:04.0000000+00:00</time></trkpt><trkpt lat="35.1069416" lon="32.5050464"><ele>20.0</ele><time>2015-04-27T06:13:05.0000000+00:00</time></trkpt><trkpt lat="35.1068913" lon="32.5050114"><ele>20.5</ele><time>2015-04-27T06:13:06.0000000+00:00</time></trkpt><trkpt lat="35.106849" lon="32.5049858"><ele>20.2</ele><time>2015-04-27T06:13:07.0000000+00:00</time></trkpt><trkpt lat="35.1067993" lon="32.5049504"><ele>20.6</ele><time>2015-04-27T06:13:08.0000000+00:00</time></trkpt><trkpt lat="35.1067452" lon="32.5049126"><ele>20.2</ele><time>2015-04-27T06:13:09.0000000+00:00</time></trkpt><trkpt lat="35.1066959" lon="32.5048773"><ele>20.1</ele><time>2015-04-27T06:13:10.0000000+00:00</time></trkpt><trkpt lat="35.1066404" lon="32.5048327"><ele>20.0</ele><time>2015-04-27T06:13:11.0000000+00:00</time></trkpt><trkpt lat="35.1065889" lon="32.5047966"><ele>20.0</ele><time>2015-04-27T06:13:12.0000000+00:00</time></trkpt><trkpt lat="35.1065329" lon="32.5047555"><ele>19.4</ele><time>2015-04-27T06:13:13.0000000+00:00</time></trkpt><trkpt lat="35.1064835" lon="32.5047331"><ele>18.7</ele><time>2015-04-27T06:13:14.0000000+00:00</time></trkpt><trkpt lat="35.1064317" lon="32.5046985"><ele>18.8</ele><time>2015-04-27T06:13:15.0000000+00:00</time></trkpt><trkpt lat="35.1063752" lon="32.5046664"><ele>18.9</ele><time>2015-04-27T06:13:16.0000000+00:00</time></trkpt><trkpt lat="35.1063258" lon="32.5046372"><ele>18.9</ele><time>2015-04-27T06:13:17.0000000+00:00</time></trkpt><trkpt lat="35.106275" lon="32.5046009"><ele>18.9</ele><time>2015-04-27T06:13:18.0000000+00:00</time></trkpt><trkpt lat="35.106225" lon="32.5045667"><ele>18.9</ele><time>2015-04-27T06:13:19.0000000+00:00</time></trkpt><trkpt lat="35.1061749" lon="32.5045383"><ele>18.4</ele><time>2015-04-27T06:13:20.0000000+00:00</time></trkpt><trkpt lat="35.1061224" lon="32.5045067"><ele>18.7</ele><time>2015-04-27T06:13:21.0000000+00:00</time></trkpt><trkpt lat="35.1060793" lon="32.5044713"><ele>18.8</ele><time>2015-04-27T06:13:22.0000000+00:00</time></trkpt><trkpt lat="35.106029" lon="32.5044511"><ele>19.4</ele><time>2015-04-27T06:13:23.0000000+00:00</time></trkpt><trkpt lat="35.10598" lon="32.504417"><ele>19.6</ele><time>2015-04-27T06:13:24.0000000+00:00</time></trkpt><trkpt lat="35.1059373" lon="32.5043832"><ele>19.3</ele><time>2015-04-27T06:13:25.0000000+00:00</time></trkpt><trkpt lat="35.1058959" lon="32.5043489"><ele>18.1</ele><time>2015-04-27T06:13:26.0000000+00:00</time></trkpt><trkpt lat="35.1058517" lon="32.5043181"><ele>18.0</ele><time>2015-04-27T06:13:27.0000000+00:00</time></trkpt><trkpt lat="35.1058015" lon="32.5042921"><ele>18.0</ele><time>2015-04-27T06:13:28.0000000+00:00</time></trkpt><trkpt lat="35.1057592" lon="32.5042598"><ele>18.5</ele><time>2015-04-27T06:13:29.0000000+00:00</time></trkpt><trkpt lat="35.1056789" lon="32.5042242"><ele>18.8</ele><time>2015-04-27T06:13:31.0000000+00:00</time></trkpt><trkpt lat="35.105589" lon="32.5042055"><ele>18.4</ele><time>2015-04-27T06:13:33.0000000+00:00</time></trkpt><trkpt lat="35.1055164" lon="32.5041757"><ele>18.5</ele><time>2015-04-27T06:13:35.0000000+00:00</time></trkpt><trkpt lat="35.1054468" lon="32.5041492"><ele>18.8</ele><time>2015-04-27T06:13:37.0000000+00:00</time></trkpt><trkpt lat="35.1053887" lon="32.5041248"><ele>17.4</ele><time>2015-04-27T06:13:39.0000000+00:00</time></trkpt><trkpt lat="35.1053437" lon="32.5041208"><ele>17.5</ele><time>2015-04-27T06:13:41.0000000+00:00</time></trkpt><trkpt lat="35.1052932" lon="32.5041292"><ele>17.1</ele><time>2015-04-27T06:13:44.0000000+00:00</time></trkpt><trkpt lat="35.1052478" lon="32.5041275"><ele>17.7</ele><time>2015-04-27T06:13:47.0000000+00:00</time></trkpt><trkpt lat="35.105215" lon="32.5040798"><ele>18.9</ele><time>2015-04-27T06:13:51.0000000+00:00</time></trkpt><trkpt lat="35.1051742" lon="32.5040511"><ele>20.3</ele><time>2015-04-27T06:13:54.0000000+00:00</time></trkpt><trkpt lat="35.1051227" lon="32.504037"><ele>20.3</ele><time>2015-04-27T06:13:56.0000000+00:00</time></trkpt><trkpt lat="35.1050616" lon="32.5040252"><ele>20.0</ele><time>2015-04-27T06:13:58.0000000+00:00</time></trkpt><trkpt lat="35.1050033" lon="32.5040219"><ele>20.0</ele><time>2015-04-27T06:14:00.0000000+00:00</time></trkpt><trkpt lat="35.1049483" lon="32.5040129"><ele>19.4</ele><time>2015-04-27T06:14:02.0000000+00:00</time></trkpt><trkpt lat="35.1048928" lon="32.5039989"><ele>20.3</ele><time>2015-04-27T06:14:04.0000000+00:00</time></trkpt><trkpt lat="35.1048325" lon="32.5039796"><ele>20.8</ele><time>2015-04-27T06:14:06.0000000+00:00</time></trkpt><trkpt lat="35.1047686" lon="32.5039577"><ele>21.4</ele><time>2015-04-27T06:14:08.0000000+00:00</time></trkpt><trkpt lat="35.1047049" lon="32.5039355"><ele>21.8</ele><time>2015-04-27T06:14:10.0000000+00:00</time></trkpt><trkpt lat="35.104644" lon="32.5039204"><ele>21.4</ele><time>2015-04-27T06:14:12.0000000+00:00</time></trkpt><trkpt lat="35.1045872" lon="32.503906"><ele>21.0</ele><time>2015-04-27T06:14:14.0000000+00:00</time></trkpt><trkpt lat="35.1045354" lon="32.5038928"><ele>21.5</ele><time>2015-04-27T06:14:16.0000000+00:00</time></trkpt><trkpt lat="35.1044838" lon="32.5038855"><ele>21.8</ele><time>2015-04-27T06:14:18.0000000+00:00</time></trkpt><trkpt lat="35.1044307" lon="32.5038782"><ele>21.9</ele><time>2015-04-27T06:14:20.0000000+00:00</time></trkpt><trkpt lat="35.1043728" lon="32.5038666"><ele>21.9</ele><time>2015-04-27T06:14:22.0000000+00:00</time></trkpt><trkpt lat="35.104311" lon="32.5038528"><ele>21.9</ele><time>2015-04-27T06:14:24.0000000+00:00</time></trkpt><trkpt lat="35.1042488" lon="32.5038322"><ele>22.2</ele><time>2015-04-27T06:14:26.0000000+00:00</time></trkpt><trkpt lat="35.1041848" lon="32.503805"><ele>21.2</ele><time>2015-04-27T06:14:28.0000000+00:00</time></trkpt><trkpt lat="35.1041176" lon="32.5037753"><ele>21.0</ele><time>2015-04-27T06:14:30.0000000+00:00</time></trkpt><trkpt lat="35.1040396" lon="32.5037359"><ele>20.2</ele><time>2015-04-27T06:14:32.0000000+00:00</time></trkpt><trkpt lat="35.1039577" lon="32.5036892"><ele>20.5</ele><time>2015-04-27T06:14:34.0000000+00:00</time></trkpt><trkpt lat="35.1038791" lon="32.5036385"><ele>20.8</ele><time>2015-04-27T06:14:36.0000000+00:00</time></trkpt><trkpt lat="35.1038001" lon="32.5035915"><ele>20.9</ele><time>2015-04-27T06:14:38.0000000+00:00</time></trkpt><trkpt lat="35.1037266" lon="32.5035494"><ele>20.2</ele><time>2015-04-27T06:14:40.0000000+00:00</time></trkpt><trkpt lat="35.1036598" lon="32.5035042"><ele>20.0</ele><time>2015-04-27T06:14:42.0000000+00:00</time></trkpt><trkpt lat="35.1036002" lon="32.5034572"><ele>19.2</ele><time>2015-04-27T06:14:44.0000000+00:00</time></trkpt><trkpt lat="35.1035466" lon="32.5034198"><ele>18.7</ele><time>2015-04-27T06:14:46.0000000+00:00</time></trkpt><trkpt lat="35.1035033" lon="32.5033856"><ele>18.9</ele><time>2015-04-27T06:14:48.0000000+00:00</time></trkpt><trkpt lat="35.1034628" lon="32.5033455"><ele>18.7</ele><time>2015-04-27T06:14:50.0000000+00:00</time></trkpt><trkpt lat="35.103417" lon="32.50331"><ele>18.4</ele><time>2015-04-27T06:14:52.0000000+00:00</time></trkpt><trkpt lat="35.1033714" lon="32.5032732"><ele>18.0</ele><time>2015-04-27T06:14:54.0000000+00:00</time></trkpt><trkpt lat="35.1033265" lon="32.5032409"><ele>18.0</ele><time>2015-04-27T06:14:56.0000000+00:00</time></trkpt><trkpt lat="35.1032776" lon="32.5032464"><ele>17.2</ele><time>2015-04-27T06:14:58.0000000+00:00</time></trkpt><trkpt lat="35.1032496" lon="32.5033028"><ele>17.0</ele><time>2015-04-27T06:15:00.0000000+00:00</time></trkpt><trkpt lat="35.1032686" lon="32.5033789"><ele>16.2</ele><time>2015-04-27T06:15:02.0000000+00:00</time></trkpt><trkpt lat="35.1033141" lon="32.5034486"><ele>16.5</ele><time>2015-04-27T06:15:04.0000000+00:00</time></trkpt><trkpt lat="35.1033604" lon="32.5035191"><ele>16.6</ele><time>2015-04-27T06:15:06.0000000+00:00</time></trkpt><trkpt lat="35.103405" lon="32.5035983"><ele>17.3</ele><time>2015-04-27T06:15:08.0000000+00:00</time></trkpt><trkpt lat="35.1034428" lon="32.5036827"><ele>18.3</ele><time>2015-04-27T06:15:10.0000000+00:00</time></trkpt><trkpt lat="35.1034736" lon="32.5037694"><ele>18.8</ele><time>2015-04-27T06:15:12.0000000+00:00</time></trkpt><trkpt lat="35.1035007" lon="32.503854"><ele>18.9</ele><time>2015-04-27T06:15:14.0000000+00:00</time></trkpt><trkpt lat="35.1035238" lon="32.5039392"><ele>19.2</ele><time>2015-04-27T06:15:16.0000000+00:00</time></trkpt><trkpt lat="35.1035405" lon="32.5040226"><ele>19.0</ele><time>2015-04-27T06:15:18.0000000+00:00</time></trkpt><trkpt lat="35.1035487" lon="32.5041025"><ele>20.4</ele><time>2015-04-27T06:15:20.0000000+00:00</time></trkpt><trkpt lat="35.1035459" lon="32.5041796"><ele>20.8</ele><time>2015-04-27T06:15:22.0000000+00:00</time></trkpt><trkpt lat="35.1035295" lon="32.5042569"><ele>22.1</ele><time>2015-04-27T06:15:24.0000000+00:00</time></trkpt><trkpt lat="35.1035033" lon="32.5043302"><ele>22.7</ele><time>2015-04-27T06:15:26.0000000+00:00</time></trkpt><trkpt lat="35.1034701" lon="32.5043975"><ele>23.4</ele><time>2015-04-27T06:15:28.0000000+00:00</time></trkpt><trkpt lat="35.1034352" lon="32.5044573"><ele>24.3</ele><time>2015-04-27T06:15:30.0000000+00:00</time></trkpt><trkpt lat="35.1033953" lon="32.5045089"><ele>24.8</ele><time>2015-04-27T06:15:32.0000000+00:00</time></trkpt><trkpt lat="35.10335" lon="32.5045508"><ele>24.6</ele><time>2015-04-27T06:15:34.0000000+00:00</time></trkpt><trkpt lat="35.1033038" lon="32.5045836"><ele>24.9</ele><time>2015-04-27T06:15:36.0000000+00:00</time></trkpt><trkpt lat="35.103259" lon="32.5046143"><ele>24.2</ele><time>2015-04-27T06:15:38.0000000+00:00</time></trkpt><trkpt lat="35.103213" lon="32.5046443"><ele>24.0</ele><time>2015-04-27T06:15:40.0000000+00:00</time></trkpt><trkpt lat="35.1031686" lon="32.5046753"><ele>24.7</ele><time>2015-04-27T06:15:42.0000000+00:00</time></trkpt><trkpt lat="35.1031196" lon="32.504697"><ele>25.4</ele><time>2015-04-27T06:15:44.0000000+00:00</time></trkpt><trkpt lat="35.10307" lon="32.5047121"><ele>25.8</ele><time>2015-04-27T06:15:46.0000000+00:00</time></trkpt><trkpt lat="35.103022" lon="32.5047291"><ele>26.1</ele><time>2015-04-27T06:15:48.0000000+00:00</time></trkpt><trkpt lat="35.1029744" lon="32.5047505"><ele>26.0</ele><time>2015-04-27T06:15:50.0000000+00:00</time></trkpt><trkpt lat="35.1029261" lon="32.504775"><ele>25.9</ele><time>2015-04-27T06:15:52.0000000+00:00</time></trkpt><trkpt lat="35.1028791" lon="32.5047964"><ele>26.4</ele><time>2015-04-27T06:15:54.0000000+00:00</time></trkpt><trkpt lat="35.1028347" lon="32.5048092"><ele>27.6</ele><time>2015-04-27T06:15:56.0000000+00:00</time></trkpt><trkpt lat="35.1027812" lon="32.5048427"><ele>27.0</ele><time>2015-04-27T06:15:59.0000000+00:00</time></trkpt><trkpt lat="35.1027274" lon="32.5048769"><ele>28.6</ele><time>2015-04-27T06:16:02.0000000+00:00</time></trkpt><trkpt lat="35.1026818" lon="32.5049227"><ele>28.4</ele><time>2015-04-27T06:16:05.0000000+00:00</time></trkpt><trkpt lat="35.10264" lon="32.5049746"><ele>28.7</ele><time>2015-04-27T06:16:08.0000000+00:00</time></trkpt><trkpt lat="35.1025937" lon="32.5050273"><ele>28.9</ele><time>2015-04-27T06:16:11.0000000+00:00</time></trkpt><trkpt lat="35.1025498" lon="32.5050752"><ele>28.9</ele><time>2015-04-27T06:16:14.0000000+00:00</time></trkpt><trkpt lat="35.1025093" lon="32.5051283"><ele>27.7</ele><time>2015-04-27T06:16:17.0000000+00:00</time></trkpt><trkpt lat="35.1024656" lon="32.5051802"><ele>27.9</ele><time>2015-04-27T06:16:20.0000000+00:00</time></trkpt><trkpt lat="35.102424" lon="32.5052329"><ele>27.9</ele><time>2015-04-27T06:16:23.0000000+00:00</time></trkpt><trkpt lat="35.1023843" lon="32.5052874"><ele>27.8</ele><time>2015-04-27T06:16:26.0000000+00:00</time></trkpt><trkpt lat="35.1023456" lon="32.5053364"><ele>27.0</ele><time>2015-04-27T06:16:29.0000000+00:00</time></trkpt><trkpt lat="35.102312" lon="32.5053953"><ele>26.9</ele><time>2015-04-27T06:16:32.0000000+00:00</time></trkpt><trkpt lat="35.102275" lon="32.5054454"><ele>26.9</ele><time>2015-04-27T06:16:35.0000000+00:00</time></trkpt><trkpt lat="35.1022309" lon="32.5054947"><ele>28.6</ele><time>2015-04-27T06:16:38.0000000+00:00</time></trkpt><trkpt lat="35.1021909" lon="32.505545"><ele>29.6</ele><time>2015-04-27T06:16:41.0000000+00:00</time></trkpt><trkpt lat="35.1021574" lon="32.505603"><ele>29.9</ele><time>2015-04-27T06:16:44.0000000+00:00</time></trkpt><trkpt lat="35.1021272" lon="32.5056689"><ele>29.9</ele><time>2015-04-27T06:16:47.0000000+00:00</time></trkpt><trkpt lat="35.102099" lon="32.5057399"><ele>30.3</ele><time>2015-04-27T06:16:50.0000000+00:00</time></trkpt><trkpt lat="35.1020751" lon="32.5058034"><ele>30.0</ele><time>2015-04-27T06:16:53.0000000+00:00</time></trkpt><trkpt lat="35.1020583" lon="32.5058751"><ele>31.2</ele><time>2015-04-27T06:16:56.0000000+00:00</time></trkpt><trkpt lat="35.1020364" lon="32.5059499"><ele>32.5</ele><time>2015-04-27T06:16:59.0000000+00:00</time></trkpt><trkpt lat="35.1020141" lon="32.5060216"><ele>34.1</ele><time>2015-04-27T06:17:02.0000000+00:00</time></trkpt><trkpt lat="35.1019895" lon="32.5060944"><ele>34.0</ele><time>2015-04-27T06:17:05.0000000+00:00</time></trkpt><trkpt lat="35.1019616" lon="32.5061657"><ele>33.9</ele><time>2015-04-27T06:17:08.0000000+00:00</time></trkpt><trkpt lat="35.1019349" lon="32.5062375"><ele>33.7</ele><time>2015-04-27T06:17:11.0000000+00:00</time></trkpt><trkpt lat="35.1019083" lon="32.5063079"><ele>33.0</ele><time>2015-04-27T06:17:14.0000000+00:00</time></trkpt><trkpt lat="35.1018814" lon="32.5063832"><ele>34.1</ele><time>2015-04-27T06:17:17.0000000+00:00</time></trkpt><trkpt lat="35.1018642" lon="32.5064375"><ele>35.2</ele><time>2015-04-27T06:17:19.0000000+00:00</time></trkpt><trkpt lat="35.1018444" lon="32.5064925"><ele>36.0</ele><time>2015-04-27T06:17:21.0000000+00:00</time></trkpt><trkpt lat="35.1018241" lon="32.5065488"><ele>36.4</ele><time>2015-04-27T06:17:23.0000000+00:00</time></trkpt><trkpt lat="35.1018098" lon="32.506604"><ele>36.8</ele><time>2015-04-27T06:17:25.0000000+00:00</time></trkpt><trkpt lat="35.1017963" lon="32.5066602"><ele>36.9</ele><time>2015-04-27T06:17:27.0000000+00:00</time></trkpt><trkpt lat="35.10178" lon="32.5067155"><ele>37.2</ele><time>2015-04-27T06:17:29.0000000+00:00</time></trkpt><trkpt lat="35.1017639" lon="32.5067733"><ele>36.5</ele><time>2015-04-27T06:17:31.0000000+00:00</time></trkpt><trkpt lat="35.1017488" lon="32.5068295"><ele>36.8</ele><time>2015-04-27T06:17:33.0000000+00:00</time></trkpt><trkpt lat="35.1017321" lon="32.5068818"><ele>37.2</ele><time>2015-04-27T06:17:35.0000000+00:00</time></trkpt><trkpt lat="35.1017095" lon="32.5069566"><ele>34.5</ele><time>2015-04-27T06:17:38.0000000+00:00</time></trkpt><trkpt lat="35.1016884" lon="32.5070062"><ele>34.8</ele><time>2015-04-27T06:17:40.0000000+00:00</time></trkpt><trkpt lat="35.1016668" lon="32.50706"><ele>34.9</ele><time>2015-04-27T06:17:42.0000000+00:00</time></trkpt><trkpt lat="35.1016485" lon="32.5071167"><ele>35.7</ele><time>2015-04-27T06:17:44.0000000+00:00</time></trkpt><trkpt lat="35.1016302" lon="32.5071706"><ele>36.6</ele><time>2015-04-27T06:17:46.0000000+00:00</time></trkpt><trkpt lat="35.1016103" lon="32.5072218"><ele>36.9</ele><time>2015-04-27T06:17:48.0000000+00:00</time></trkpt><trkpt lat="35.101578" lon="32.5072947"><ele>37.4</ele><time>2015-04-27T06:17:51.0000000+00:00</time></trkpt><trkpt lat="35.1015484" lon="32.5073676"><ele>37.9</ele><time>2015-04-27T06:17:54.0000000+00:00</time></trkpt><trkpt lat="35.101519" lon="32.5074369"><ele>39.5</ele><time>2015-04-27T06:17:57.0000000+00:00</time></trkpt><trkpt lat="35.1014936" lon="32.5074929"><ele>39.9</ele><time>2015-04-27T06:18:00.0000000+00:00</time></trkpt><trkpt lat="35.1014604" lon="32.5075377"><ele>40.7</ele><time>2015-04-27T06:18:03.0000000+00:00</time></trkpt><trkpt lat="35.1014272" lon="32.5075829"><ele>40.5</ele><time>2015-04-27T06:18:06.0000000+00:00</time></trkpt><trkpt lat="35.1013929" lon="32.5076365"><ele>40.9</ele><time>2015-04-27T06:18:10.0000000+00:00</time></trkpt><trkpt lat="35.1013563" lon="32.5076887"><ele>40.0</ele><time>2015-04-27T06:18:14.0000000+00:00</time></trkpt><trkpt lat="35.1013161" lon="32.5077403"><ele>40.8</ele><time>2015-04-27T06:18:18.0000000+00:00</time></trkpt><trkpt lat="35.1012787" lon="32.5077776"><ele>43.0</ele><time>2015-04-27T06:18:21.0000000+00:00</time></trkpt><trkpt lat="35.1012454" lon="32.5078173"><ele>43.8</ele><time>2015-04-27T06:18:24.0000000+00:00</time></trkpt><trkpt lat="35.1012108" lon="32.5078526"><ele>43.9</ele><time>2015-04-27T06:18:27.0000000+00:00</time></trkpt><trkpt lat="35.1011594" lon="32.5078844"><ele>43.4</ele><time>2015-04-27T06:18:31.0000000+00:00</time></trkpt><trkpt lat="35.1011197" lon="32.5079197"><ele>43.4</ele><time>2015-04-27T06:18:34.0000000+00:00</time></trkpt><trkpt lat="35.1010896" lon="32.5079653"><ele>43.9</ele><time>2015-04-27T06:18:37.0000000+00:00</time></trkpt><trkpt lat="35.101053" lon="32.5080193"><ele>44.1</ele><time>2015-04-27T06:18:41.0000000+00:00</time></trkpt><trkpt lat="35.1010271" lon="32.5080816"><ele>44.9</ele><time>2015-04-27T06:18:45.0000000+00:00</time></trkpt><trkpt lat="35.1009955" lon="32.5081325"><ele>45.2</ele><time>2015-04-27T06:18:49.0000000+00:00</time></trkpt><trkpt lat="35.1009624" lon="32.5081925"><ele>45.8</ele><time>2015-04-27T06:18:53.0000000+00:00</time></trkpt><trkpt lat="35.1009302" lon="32.5082512"><ele>47.7</ele><time>2015-04-27T06:18:57.0000000+00:00</time></trkpt><trkpt lat="35.1009055" lon="32.508313"><ele>50.2</ele><time>2015-04-27T06:19:01.0000000+00:00</time></trkpt><trkpt lat="35.1008813" lon="32.508377"><ele>50.3</ele><time>2015-04-27T06:19:05.0000000+00:00</time></trkpt><trkpt lat="35.1008787" lon="32.5084331"><ele>50.0</ele><time>2015-04-27T06:19:08.0000000+00:00</time></trkpt><trkpt lat="35.100885" lon="32.5084886"><ele>51.3</ele><time>2015-04-27T06:19:11.0000000+00:00</time></trkpt><trkpt lat="35.100885" lon="32.5085454"><ele>52.4</ele><time>2015-04-27T06:19:14.0000000+00:00</time></trkpt><trkpt lat="35.1008884" lon="32.5086017"><ele>53.7</ele><time>2015-04-27T06:19:17.0000000+00:00</time></trkpt><trkpt lat="35.1008861" lon="32.5086573"><ele>53.7</ele><time>2015-04-27T06:19:20.0000000+00:00</time></trkpt><trkpt lat="35.1008994" lon="32.5087278"><ele>53.2</ele><time>2015-04-27T06:19:24.0000000+00:00</time></trkpt><trkpt lat="35.1009106" lon="32.5087981"><ele>53.4</ele><time>2015-04-27T06:19:28.0000000+00:00</time></trkpt><trkpt lat="35.1009185" lon="32.5088671"><ele>55.1</ele><time>2015-04-27T06:19:32.0000000+00:00</time></trkpt><trkpt lat="35.1009304" lon="32.508936"><ele>56.6</ele><time>2015-04-27T06:19:36.0000000+00:00</time></trkpt><trkpt lat="35.1009355" lon="32.508991"><ele>56.9</ele><time>2015-04-27T06:19:39.0000000+00:00</time></trkpt><trkpt lat="35.1009498" lon="32.5090446"><ele>56.4</ele><time>2015-04-27T06:19:42.0000000+00:00</time></trkpt><trkpt lat="35.1009634" lon="32.509099"><ele>56.7</ele><time>2015-04-27T06:19:45.0000000+00:00</time></trkpt><trkpt lat="35.1009763" lon="32.5091696"><ele>55.5</ele><time>2015-04-27T06:19:49.0000000+00:00</time></trkpt><trkpt lat="35.1009899" lon="32.5092404"><ele>56.4</ele><time>2015-04-27T06:19:53.0000000+00:00</time></trkpt><trkpt lat="35.1009944" lon="32.5093028"><ele>56.1</ele><time>2015-04-27T06:19:56.0000000+00:00</time></trkpt><trkpt lat="35.1009945" lon="32.5093649"><ele>56.8</ele><time>2015-04-27T06:19:59.0000000+00:00</time></trkpt><trkpt lat="35.1009992" lon="32.5094274"><ele>56.2</ele><time>2015-04-27T06:20:02.0000000+00:00</time></trkpt><trkpt lat="35.1010033" lon="32.5094907"><ele>57.1</ele><time>2015-04-27T06:20:05.0000000+00:00</time></trkpt><trkpt lat="35.1010055" lon="32.509556"><ele>57.4</ele><time>2015-04-27T06:20:08.0000000+00:00</time></trkpt><trkpt lat="35.1010034" lon="32.5096264"><ele>57.1</ele><time>2015-04-27T06:20:11.0000000+00:00</time></trkpt><trkpt lat="35.1009973" lon="32.5097016"><ele>57.5</ele><time>2015-04-27T06:20:14.0000000+00:00</time></trkpt><trkpt lat="35.1009964" lon="32.5097753"><ele>57.7</ele><time>2015-04-27T06:20:17.0000000+00:00</time></trkpt><trkpt lat="35.101002" lon="32.5098454"><ele>57.5</ele><time>2015-04-27T06:20:20.0000000+00:00</time></trkpt><trkpt lat="35.1010075" lon="32.5099128"><ele>57.9</ele><time>2015-04-27T06:20:23.0000000+00:00</time></trkpt><trkpt lat="35.1010162" lon="32.5099847"><ele>57.0</ele><time>2015-04-27T06:20:26.0000000+00:00</time></trkpt><trkpt lat="35.1010263" lon="32.5100626"><ele>57.7</ele><time>2015-04-27T06:20:29.0000000+00:00</time></trkpt><trkpt lat="35.1010346" lon="32.5101425"><ele>57.4</ele><time>2015-04-27T06:20:32.0000000+00:00</time></trkpt><trkpt lat="35.1010458" lon="32.5102194"><ele>57.0</ele><time>2015-04-27T06:20:35.0000000+00:00</time></trkpt><trkpt lat="35.101048" lon="32.5102781"><ele>58.2</ele><time>2015-04-27T06:20:37.0000000+00:00</time></trkpt><trkpt lat="35.1010481" lon="32.5103383"><ele>58.0</ele><time>2015-04-27T06:20:39.0000000+00:00</time></trkpt><trkpt lat="35.1010446" lon="32.5103988"><ele>58.7</ele><time>2015-04-27T06:20:41.0000000+00:00</time></trkpt><trkpt lat="35.1010439" lon="32.5104546"><ele>58.4</ele><time>2015-04-27T06:20:43.0000000+00:00</time></trkpt><trkpt lat="35.101046" lon="32.5105307"><ele>57.9</ele><time>2015-04-27T06:20:46.0000000+00:00</time></trkpt><trkpt lat="35.1010494" lon="32.5106082"><ele>57.0</ele><time>2015-04-27T06:20:49.0000000+00:00</time></trkpt><trkpt lat="35.1010604" lon="32.5106884"><ele>56.9</ele><time>2015-04-27T06:20:52.0000000+00:00</time></trkpt><trkpt lat="35.1010711" lon="32.5107481"><ele>56.4</ele><time>2015-04-27T06:20:54.0000000+00:00</time></trkpt><trkpt lat="35.1010775" lon="32.5108122"><ele>56.8</ele><time>2015-04-27T06:20:56.0000000+00:00</time></trkpt><trkpt lat="35.1010817" lon="32.5108753"><ele>56.9</ele><time>2015-04-27T06:20:58.0000000+00:00</time></trkpt><trkpt lat="35.1010862" lon="32.5109361"><ele>56.9</ele><time>2015-04-27T06:21:00.0000000+00:00</time></trkpt><trkpt lat="35.1010901" lon="32.5109966"><ele>56.9</ele><time>2015-04-27T06:21:02.0000000+00:00</time></trkpt><trkpt lat="35.1010908" lon="32.5110623"><ele>56.2</ele><time>2015-04-27T06:21:04.0000000+00:00</time></trkpt><trkpt lat="35.1010948" lon="32.5111589"><ele>56.5</ele><time>2015-04-27T06:21:06.0000000+00:00</time></trkpt><trkpt lat="35.1010982" lon="32.5112618"><ele>56.7</ele><time>2015-04-27T06:21:07.0000000+00:00</time></trkpt><trkpt lat="35.1010991" lon="32.5113293"><ele>56.3</ele><time>2015-04-27T06:21:08.0000000+00:00</time></trkpt><trkpt lat="35.1011082" lon="32.5114026"><ele>56.1</ele><time>2015-04-27T06:21:09.0000000+00:00</time></trkpt><trkpt lat="35.1011273" lon="32.5114872"><ele>55.0</ele><time>2015-04-27T06:21:10.0000000+00:00</time></trkpt><trkpt lat="35.1011501" lon="32.5115785"><ele>54.5</ele><time>2015-04-27T06:21:11.0000000+00:00</time></trkpt><trkpt lat="35.101174" lon="32.5116705"><ele>53.7</ele><time>2015-04-27T06:21:12.0000000+00:00</time></trkpt><trkpt lat="35.1011894" lon="32.5117488"><ele>53.3</ele><time>2015-04-27T06:21:13.0000000+00:00</time></trkpt><trkpt lat="35.1012085" lon="32.5118347"><ele>52.6</ele><time>2015-04-27T06:21:14.0000000+00:00</time></trkpt><trkpt lat="35.1012242" lon="32.5119288"><ele>51.8</ele><time>2015-04-27T06:21:15.0000000+00:00</time></trkpt><trkpt lat="35.1012318" lon="32.512017"><ele>51.4</ele><time>2015-04-27T06:21:16.0000000+00:00</time></trkpt><trkpt lat="35.101254" lon="32.5121032"><ele>50.6</ele><time>2015-04-27T06:21:17.0000000+00:00</time></trkpt><trkpt lat="35.1012784" lon="32.5121934"><ele>50.3</ele><time>2015-04-27T06:21:18.0000000+00:00</time></trkpt><trkpt lat="35.1012967" lon="32.5122731"><ele>50.1</ele><time>2015-04-27T06:21:19.0000000+00:00</time></trkpt><trkpt lat="35.1013074" lon="32.5123614"><ele>50.0</ele><time>2015-04-27T06:21:20.0000000+00:00</time></trkpt><trkpt lat="35.1013115" lon="32.512448"><ele>50.0</ele><time>2015-04-27T06:21:21.0000000+00:00</time></trkpt><trkpt lat="35.1013057" lon="32.5125217"><ele>50.0</ele><time>2015-04-27T06:21:22.0000000+00:00</time></trkpt><trkpt lat="35.1012928" lon="32.5126034"><ele>49.9</ele><time>2015-04-27T06:21:23.0000000+00:00</time></trkpt><trkpt lat="35.1012743" lon="32.5126814"><ele>49.9</ele><time>2015-04-27T06:21:24.0000000+00:00</time></trkpt><trkpt lat="35.1012583" lon="32.51275"><ele>49.9</ele><time>2015-04-27T06:21:25.0000000+00:00</time></trkpt><trkpt lat="35.1012513" lon="32.5128149"><ele>49.4</ele><time>2015-04-27T06:21:26.0000000+00:00</time></trkpt><trkpt lat="35.1012374" lon="32.5128798"><ele>49.2</ele><time>2015-04-27T06:21:27.0000000+00:00</time></trkpt><trkpt lat="35.1012136" lon="32.5129494"><ele>48.6</ele><time>2015-04-27T06:21:28.0000000+00:00</time></trkpt><trkpt lat="35.1011994" lon="32.5130138"><ele>48.2</ele><time>2015-04-27T06:21:29.0000000+00:00</time></trkpt><trkpt lat="35.1011844" lon="32.5130857"><ele>48.6</ele><time>2015-04-27T06:21:30.0000000+00:00</time></trkpt><trkpt lat="35.101164" lon="32.5131526"><ele>48.8</ele><time>2015-04-27T06:21:31.0000000+00:00</time></trkpt><trkpt lat="35.1011404" lon="32.5132137"><ele>48.8</ele><time>2015-04-27T06:21:32.0000000+00:00</time></trkpt><trkpt lat="35.1011141" lon="32.513269"><ele>48.9</ele><time>2015-04-27T06:21:33.0000000+00:00</time></trkpt><trkpt lat="35.1010804" lon="32.513324"><ele>49.4</ele><time>2015-04-27T06:21:34.0000000+00:00</time></trkpt><trkpt lat="35.1010458" lon="32.5133702"><ele>49.2</ele><time>2015-04-27T06:21:35.0000000+00:00</time></trkpt><trkpt lat="35.1010051" lon="32.513416"><ele>49.5</ele><time>2015-04-27T06:21:36.0000000+00:00</time></trkpt><trkpt lat="35.1009334" lon="32.5134956"><ele>50.3</ele><time>2015-04-27T06:21:38.0000000+00:00</time></trkpt><trkpt lat="35.100896" lon="32.5135432"><ele>50.6</ele><time>2015-04-27T06:21:39.0000000+00:00</time></trkpt><trkpt lat="35.1008555" lon="32.513585"><ele>50.8</ele><time>2015-04-27T06:21:40.0000000+00:00</time></trkpt><trkpt lat="35.1008117" lon="32.513629"><ele>50.9</ele><time>2015-04-27T06:21:41.0000000+00:00</time></trkpt><trkpt lat="35.10075" lon="32.5137092"><ele>53.2</ele><time>2015-04-27T06:21:43.0000000+00:00</time></trkpt><trkpt lat="35.1006852" lon="32.5137758"><ele>53.0</ele><time>2015-04-27T06:21:45.0000000+00:00</time></trkpt><trkpt lat="35.1006417" lon="32.5138436"><ele>53.4</ele><time>2015-04-27T06:21:47.0000000+00:00</time></trkpt><trkpt lat="35.1006168" lon="32.5139026"><ele>54.3</ele><time>2015-04-27T06:21:49.0000000+00:00</time></trkpt><trkpt lat="35.1005986" lon="32.5139674"><ele>54.0</ele><time>2015-04-27T06:21:51.0000000+00:00</time></trkpt><trkpt lat="35.1005839" lon="32.5140417"><ele>53.5</ele><time>2015-04-27T06:21:53.0000000+00:00</time></trkpt><trkpt lat="35.1005687" lon="32.5141149"><ele>53.8</ele><time>2015-04-27T06:21:55.0000000+00:00</time></trkpt><trkpt lat="35.1005481" lon="32.5141895"><ele>53.7</ele><time>2015-04-27T06:21:57.0000000+00:00</time></trkpt><trkpt lat="35.1005274" lon="32.5142668"><ele>54.4</ele><time>2015-04-27T06:21:59.0000000+00:00</time></trkpt><trkpt lat="35.1005058" lon="32.5143445"><ele>54.8</ele><time>2015-04-27T06:22:01.0000000+00:00</time></trkpt><trkpt lat="35.1004792" lon="32.5144191"><ele>54.4</ele><time>2015-04-27T06:22:03.0000000+00:00</time></trkpt><trkpt lat="35.1004547" lon="32.5144857"><ele>54.8</ele><time>2015-04-27T06:22:05.0000000+00:00</time></trkpt><trkpt lat="35.1004305" lon="32.5145551"><ele>56.5</ele><time>2015-04-27T06:22:08.0000000+00:00</time></trkpt><trkpt lat="35.100411" lon="32.5146085"><ele>57.1</ele><time>2015-04-27T06:22:11.0000000+00:00</time></trkpt><trkpt lat="35.1004152" lon="32.5146767"><ele>59.6</ele><time>2015-04-27T06:22:15.0000000+00:00</time></trkpt><trkpt lat="35.1004288" lon="32.514732"><ele>61.5</ele><time>2015-04-27T06:22:20.0000000+00:00</time></trkpt><trkpt lat="35.1004759" lon="32.5147513"><ele>60.5</ele><time>2015-04-27T06:22:25.0000000+00:00</time></trkpt><trkpt lat="35.1005124" lon="32.5147931"><ele>61.7</ele><time>2015-04-27T06:22:29.0000000+00:00</time></trkpt><trkpt lat="35.1005492" lon="32.5148423"><ele>61.5</ele><time>2015-04-27T06:22:33.0000000+00:00</time></trkpt><trkpt lat="35.1005895" lon="32.5148903"><ele>61.2</ele><time>2015-04-27T06:22:37.0000000+00:00</time></trkpt><trkpt lat="35.1006244" lon="32.5149378"><ele>61.3</ele><time>2015-04-27T06:22:41.0000000+00:00</time></trkpt><trkpt lat="35.1006355" lon="32.5149957"><ele>60.1</ele><time>2015-04-27T06:22:45.0000000+00:00</time></trkpt><trkpt lat="35.1006576" lon="32.5150586"><ele>59.8</ele><time>2015-04-27T06:22:49.0000000+00:00</time></trkpt><trkpt lat="35.1006968" lon="32.5151142"><ele>60.9</ele><time>2015-04-27T06:22:53.0000000+00:00</time></trkpt><trkpt lat="35.1007186" lon="32.515164"><ele>61.4</ele><time>2015-04-27T06:22:56.0000000+00:00</time></trkpt><trkpt lat="35.1007373" lon="32.5152162"><ele>61.5</ele><time>2015-04-27T06:22:59.0000000+00:00</time></trkpt><trkpt lat="35.1007564" lon="32.5152811"><ele>62.7</ele><time>2015-04-27T06:23:03.0000000+00:00</time></trkpt><trkpt lat="35.1007739" lon="32.5153418"><ele>62.0</ele><time>2015-04-27T06:23:07.0000000+00:00</time></trkpt><trkpt lat="35.1007816" lon="32.5154104"><ele>61.9</ele><time>2015-04-27T06:23:11.0000000+00:00</time></trkpt><trkpt lat="35.100796" lon="32.5154774"><ele>62.3</ele><time>2015-04-27T06:23:15.0000000+00:00</time></trkpt><trkpt lat="35.1008178" lon="32.5155383"><ele>61.1</ele><time>2015-04-27T06:23:19.0000000+00:00</time></trkpt><trkpt lat="35.1008351" lon="32.5155996"><ele>60.9</ele><time>2015-04-27T06:23:23.0000000+00:00</time></trkpt><trkpt lat="35.1008461" lon="32.5156628"><ele>60.1</ele><time>2015-04-27T06:23:27.0000000+00:00</time></trkpt><trkpt lat="35.1008441" lon="32.5157327"><ele>59.8</ele><time>2015-04-27T06:23:31.0000000+00:00</time></trkpt><trkpt lat="35.1008837" lon="32.515775"><ele>59.2</ele><time>2015-04-27T06:23:35.0000000+00:00</time></trkpt><trkpt lat="35.1009265" lon="32.5158132"><ele>60.1</ele><time>2015-04-27T06:23:39.0000000+00:00</time></trkpt><trkpt lat="35.1009397" lon="32.5158732"><ele>63.1</ele><time>2015-04-27T06:23:43.0000000+00:00</time></trkpt><trkpt lat="35.1009513" lon="32.5159358"><ele>62.6</ele><time>2015-04-27T06:23:47.0000000+00:00</time></trkpt><trkpt lat="35.1009928" lon="32.5159643"><ele>62.1</ele><time>2015-04-27T06:23:50.0000000+00:00</time></trkpt><trkpt lat="35.1010346" lon="32.5160118"><ele>61.4</ele><time>2015-04-27T06:23:54.0000000+00:00</time></trkpt><trkpt lat="35.1010578" lon="32.5160702"><ele>61.6</ele><time>2015-04-27T06:23:58.0000000+00:00</time></trkpt><trkpt lat="35.1010825" lon="32.5161238"><ele>63.2</ele><time>2015-04-27T06:24:02.0000000+00:00</time></trkpt><trkpt lat="35.1011032" lon="32.5161831"><ele>66.2</ele><time>2015-04-27T06:24:06.0000000+00:00</time></trkpt><trkpt lat="35.1011161" lon="32.5162475"><ele>68.6</ele><time>2015-04-27T06:24:10.0000000+00:00</time></trkpt><trkpt lat="35.1011308" lon="32.5163083"><ele>69.7</ele><time>2015-04-27T06:24:14.0000000+00:00</time></trkpt><trkpt lat="35.1011534" lon="32.5163701"><ele>70.9</ele><time>2015-04-27T06:24:18.0000000+00:00</time></trkpt><trkpt lat="35.1011745" lon="32.5164295"><ele>71.4</ele><time>2015-04-27T06:24:22.0000000+00:00</time></trkpt><trkpt lat="35.1011885" lon="32.5164954"><ele>73.3</ele><time>2015-04-27T06:24:26.0000000+00:00</time></trkpt><trkpt lat="35.1011908" lon="32.5165642"><ele>72.5</ele><time>2015-04-27T06:24:30.0000000+00:00</time></trkpt><trkpt lat="35.1011799" lon="32.516635"><ele>72.8</ele><time>2015-04-27T06:24:34.0000000+00:00</time></trkpt><trkpt lat="35.1011673" lon="32.5166965"><ele>73.0</ele><time>2015-04-27T06:24:38.0000000+00:00</time></trkpt><trkpt lat="35.1011693" lon="32.5167531"><ele>71.1</ele><time>2015-04-27T06:24:42.0000000+00:00</time></trkpt><trkpt lat="35.101159" lon="32.5168157"><ele>70.2</ele><time>2015-04-27T06:24:46.0000000+00:00</time></trkpt><trkpt lat="35.101131" lon="32.5168735"><ele>70.8</ele><time>2015-04-27T06:24:50.0000000+00:00</time></trkpt><trkpt lat="35.1011141" lon="32.5169431"><ele>73.5</ele><time>2015-04-27T06:24:54.0000000+00:00</time></trkpt><trkpt lat="35.1011108" lon="32.5169991"><ele>76.2</ele><time>2015-04-27T06:24:57.0000000+00:00</time></trkpt><trkpt lat="35.1011012" lon="32.5170721"><ele>77.4</ele><time>2015-04-27T06:25:01.0000000+00:00</time></trkpt><trkpt lat="35.1010903" lon="32.5171314"><ele>76.5</ele><time>2015-04-27T06:25:04.0000000+00:00</time></trkpt><trkpt lat="35.1010622" lon="32.5171903"><ele>78.0</ele><time>2015-04-27T06:25:08.0000000+00:00</time></trkpt><trkpt lat="35.1010388" lon="32.5172389"><ele>78.7</ele><time>2015-04-27T06:25:11.0000000+00:00</time></trkpt><trkpt lat="35.1010058" lon="32.517284"><ele>79.0</ele><time>2015-04-27T06:25:15.0000000+00:00</time></trkpt><trkpt lat="35.1009922" lon="32.5173548"><ele>79.7</ele><time>2015-04-27T06:25:19.0000000+00:00</time></trkpt><trkpt lat="35.1009721" lon="32.51741"><ele>79.4</ele><time>2015-04-27T06:25:22.0000000+00:00</time></trkpt><trkpt lat="35.100941" lon="32.5174689"><ele>78.5</ele><time>2015-04-27T06:25:25.0000000+00:00</time></trkpt><trkpt lat="35.1009158" lon="32.5175229"><ele>78.0</ele><time>2015-04-27T06:25:28.0000000+00:00</time></trkpt><trkpt lat="35.1008989" lon="32.5175927"><ele>77.2</ele><time>2015-04-27T06:25:31.0000000+00:00</time></trkpt><trkpt lat="35.100882" lon="32.5176607"><ele>77.0</ele><time>2015-04-27T06:25:34.0000000+00:00</time></trkpt><trkpt lat="35.1008691" lon="32.5177277"><ele>76.9</ele><time>2015-04-27T06:25:37.0000000+00:00</time></trkpt><trkpt lat="35.1008681" lon="32.5177995"><ele>76.4</ele><time>2015-04-27T06:25:40.0000000+00:00</time></trkpt><trkpt lat="35.1008665" lon="32.5178731"><ele>75.1</ele><time>2015-04-27T06:25:43.0000000+00:00</time></trkpt><trkpt lat="35.1008657" lon="32.5179417"><ele>75.5</ele><time>2015-04-27T06:25:46.0000000+00:00</time></trkpt><trkpt lat="35.1008671" lon="32.5180104"><ele>75.2</ele><time>2015-04-27T06:25:49.0000000+00:00</time></trkpt><trkpt lat="35.1008647" lon="32.5180759"><ele>76.2</ele><time>2015-04-27T06:25:52.0000000+00:00</time></trkpt><trkpt lat="35.100865" lon="32.5181357"><ele>75.6</ele><time>2015-04-27T06:25:55.0000000+00:00</time></trkpt><trkpt lat="35.1008616" lon="32.5181999"><ele>75.0</ele><time>2015-04-27T06:25:58.0000000+00:00</time></trkpt><trkpt lat="35.1008356" lon="32.5182675"><ele>78.8</ele><time>2015-04-27T06:26:01.0000000+00:00</time></trkpt><trkpt lat="35.1007993" lon="32.5183281"><ele>79.5</ele><time>2015-04-27T06:26:04.0000000+00:00</time></trkpt><trkpt lat="35.1007805" lon="32.518395"><ele>80.4</ele><time>2015-04-27T06:26:07.0000000+00:00</time></trkpt><trkpt lat="35.1007654" lon="32.5184617"><ele>81.0</ele><time>2015-04-27T06:26:10.0000000+00:00</time></trkpt><trkpt lat="35.1007452" lon="32.5185262"><ele>80.9</ele><time>2015-04-27T06:26:13.0000000+00:00</time></trkpt><trkpt lat="35.1007326" lon="32.5186"><ele>82.7</ele><time>2015-04-27T06:26:16.0000000+00:00</time></trkpt><trkpt lat="35.1007273" lon="32.5186556"><ele>83.6</ele><time>2015-04-27T06:26:18.0000000+00:00</time></trkpt><trkpt lat="35.1007297" lon="32.518724"><ele>82.6</ele><time>2015-04-27T06:26:20.0000000+00:00</time></trkpt><trkpt lat="35.1007464" lon="32.5187987"><ele>81.6</ele><time>2015-04-27T06:26:22.0000000+00:00</time></trkpt><trkpt lat="35.1007684" lon="32.5188704"><ele>81.1</ele><time>2015-04-27T06:26:24.0000000+00:00</time></trkpt><trkpt lat="35.1007854" lon="32.518931"><ele>81.0</ele><time>2015-04-27T06:26:26.0000000+00:00</time></trkpt><trkpt lat="35.1007972" lon="32.5189909"><ele>80.1</ele><time>2015-04-27T06:26:29.0000000+00:00</time></trkpt><trkpt lat="35.100818" lon="32.5190643"><ele>77.0</ele><time>2015-04-27T06:29:00.0000000+00:00</time></trkpt><trkpt lat="35.1008502" lon="32.5191219"><ele>76.2</ele><time>2015-04-27T06:29:02.0000000+00:00</time></trkpt><trkpt lat="35.1008888" lon="32.5191846"><ele>75.5</ele><time>2015-04-27T06:29:04.0000000+00:00</time></trkpt><trkpt lat="35.1009327" lon="32.5192456"><ele>74.1</ele><time>2015-04-27T06:29:06.0000000+00:00</time></trkpt><trkpt lat="35.1009735" lon="32.5193205"><ele>72.2</ele><time>2015-04-27T06:29:08.0000000+00:00</time></trkpt><trkpt lat="35.1009927" lon="32.5194148"><ele>72.8</ele><time>2015-04-27T06:29:10.0000000+00:00</time></trkpt><trkpt lat="35.1009656" lon="32.5195078"><ele>72.4</ele><time>2015-04-27T06:29:12.0000000+00:00</time></trkpt><trkpt lat="35.100901" lon="32.5195601"><ele>71.5</ele><time>2015-04-27T06:29:14.0000000+00:00</time></trkpt><trkpt lat="35.1008251" lon="32.5195775"><ele>71.8</ele><time>2015-04-27T06:29:16.0000000+00:00</time></trkpt><trkpt lat="35.1007563" lon="32.5195795"><ele>70.2</ele><time>2015-04-27T06:29:18.0000000+00:00</time></trkpt><trkpt lat="35.1006916" lon="32.5195953"><ele>65.5</ele><time>2015-04-27T06:29:20.0000000+00:00</time></trkpt><trkpt lat="35.1006277" lon="32.5196311"><ele>64.6</ele><time>2015-04-27T06:29:22.0000000+00:00</time></trkpt><trkpt lat="35.1005628" lon="32.5196392"><ele>66.6</ele><time>2015-04-27T06:29:24.0000000+00:00</time></trkpt><trkpt lat="35.1005071" lon="32.5196322"><ele>71.3</ele><time>2015-04-27T06:29:26.0000000+00:00</time></trkpt><trkpt lat="35.100465" lon="32.5196545"><ele>74.0</ele><time>2015-04-27T06:29:28.0000000+00:00</time></trkpt><trkpt lat="35.1004386" lon="32.5197026"><ele>75.5</ele><time>2015-04-27T06:29:30.0000000+00:00</time></trkpt><trkpt lat="35.1004293" lon="32.5197596"><ele>77.1</ele><time>2015-04-27T06:29:32.0000000+00:00</time></trkpt><trkpt lat="35.1004286" lon="32.5198193"><ele>77.7</ele><time>2015-04-27T06:29:34.0000000+00:00</time></trkpt><trkpt lat="35.1004187" lon="32.5198735"><ele>77.9</ele><time>2015-04-27T06:29:36.0000000+00:00</time></trkpt><trkpt lat="35.1003972" lon="32.5199483"><ele>77.8</ele><time>2015-04-27T06:29:39.0000000+00:00</time></trkpt><trkpt lat="35.1003805" lon="32.5200048"><ele>78.4</ele><time>2015-04-27T06:29:42.0000000+00:00</time></trkpt><trkpt lat="35.1003666" lon="32.5200763"><ele>79.0</ele><time>2015-04-27T06:29:46.0000000+00:00</time></trkpt><trkpt lat="35.1003395" lon="32.5201406"><ele>78.9</ele><time>2015-04-27T06:29:49.0000000+00:00</time></trkpt><trkpt lat="35.1003015" lon="32.5202029"><ele>79.8</ele><time>2015-04-27T06:29:52.0000000+00:00</time></trkpt><trkpt lat="35.1002708" lon="32.5202446"><ele>79.6</ele><time>2015-04-27T06:29:54.0000000+00:00</time></trkpt><trkpt lat="35.1002353" lon="32.5202832"><ele>80.9</ele><time>2015-04-27T06:29:56.0000000+00:00</time></trkpt><trkpt lat="35.1001942" lon="32.5203149"><ele>82.4</ele><time>2015-04-27T06:29:58.0000000+00:00</time></trkpt><trkpt lat="35.1001562" lon="32.520345"><ele>82.6</ele><time>2015-04-27T06:30:00.0000000+00:00</time></trkpt><trkpt lat="35.1000989" lon="32.5203857"><ele>84.5</ele><time>2015-04-27T06:30:03.0000000+00:00</time></trkpt><trkpt lat="35.100046" lon="32.5204295"><ele>85.1</ele><time>2015-04-27T06:30:06.0000000+00:00</time></trkpt><trkpt lat="35.0999944" lon="32.5204752"><ele>85.0</ele><time>2015-04-27T06:30:09.0000000+00:00</time></trkpt><trkpt lat="35.099941" lon="32.5205156"><ele>86.4</ele><time>2015-04-27T06:30:12.0000000+00:00</time></trkpt><trkpt lat="35.099888" lon="32.5205568"><ele>87.1</ele><time>2015-04-27T06:30:15.0000000+00:00</time></trkpt><trkpt lat="35.0998374" lon="32.5206072"><ele>87.8</ele><time>2015-04-27T06:30:18.0000000+00:00</time></trkpt><trkpt lat="35.0997937" lon="32.5206508"><ele>89.2</ele><time>2015-04-27T06:30:21.0000000+00:00</time></trkpt><trkpt lat="35.09976" lon="32.5206892"><ele>93.5</ele><time>2015-04-27T06:30:32.0000000+00:00</time></trkpt><trkpt lat="35.0997476" lon="32.5207606"><ele>95.3</ele><time>2015-04-27T06:30:36.0000000+00:00</time></trkpt><trkpt lat="35.0997396" lon="32.5208255"><ele>94.2</ele><time>2015-04-27T06:30:39.0000000+00:00</time></trkpt><trkpt lat="35.0997382" lon="32.5208852"><ele>94.7</ele><time>2015-04-27T06:30:42.0000000+00:00</time></trkpt><trkpt lat="35.09974" lon="32.5209422"><ele>96.0</ele><time>2015-04-27T06:30:45.0000000+00:00</time></trkpt><trkpt lat="35.0997344" lon="32.5210143"><ele>94.7</ele><time>2015-04-27T06:30:49.0000000+00:00</time></trkpt><trkpt lat="35.0997304" lon="32.5210886"><ele>93.2</ele><time>2015-04-27T06:30:53.0000000+00:00</time></trkpt><trkpt lat="35.0997244" lon="32.5211443"><ele>93.8</ele><time>2015-04-27T06:30:56.0000000+00:00</time></trkpt><trkpt lat="35.0997144" lon="32.5212022"><ele>94.7</ele><time>2015-04-27T06:30:59.0000000+00:00</time></trkpt><trkpt lat="35.0996993" lon="32.5212591"><ele>94.3</ele><time>2015-04-27T06:31:02.0000000+00:00</time></trkpt><trkpt lat="35.0996794" lon="32.5213196"><ele>94.0</ele><time>2015-04-27T06:31:06.0000000+00:00</time></trkpt><trkpt lat="35.099666" lon="32.5213807"><ele>92.7</ele><time>2015-04-27T06:31:10.0000000+00:00</time></trkpt><trkpt lat="35.0996453" lon="32.5214475"><ele>92.2</ele><time>2015-04-27T06:31:14.0000000+00:00</time></trkpt><trkpt lat="35.0996318" lon="32.5215066"><ele>93.6</ele><time>2015-04-27T06:31:17.0000000+00:00</time></trkpt><trkpt lat="35.0996309" lon="32.5215629"><ele>93.4</ele><time>2015-04-27T06:31:20.0000000+00:00</time></trkpt><trkpt lat="35.0996156" lon="32.5216168"><ele>92.1</ele><time>2015-04-27T06:31:23.0000000+00:00</time></trkpt><trkpt lat="35.0996019" lon="32.5216778"><ele>94.2</ele><time>2015-04-27T06:31:26.0000000+00:00</time></trkpt><trkpt lat="35.099596" lon="32.5217375"><ele>94.6</ele><time>2015-04-27T06:31:29.0000000+00:00</time></trkpt><trkpt lat="35.0995869" lon="32.5217956"><ele>95.9</ele><time>2015-04-27T06:31:32.0000000+00:00</time></trkpt><trkpt lat="35.0995797" lon="32.5218527"><ele>95.2</ele><time>2015-04-27T06:31:35.0000000+00:00</time></trkpt><trkpt lat="35.0995763" lon="32.5219116"><ele>93.7</ele><time>2015-04-27T06:31:38.0000000+00:00</time></trkpt><trkpt lat="35.0995681" lon="32.5219699"><ele>93.8</ele><time>2015-04-27T06:31:41.0000000+00:00</time></trkpt><trkpt lat="35.0995678" lon="32.5220303"><ele>93.0</ele><time>2015-04-27T06:31:44.0000000+00:00</time></trkpt><trkpt lat="35.0995645" lon="32.5220948"><ele>92.3</ele><time>2015-04-27T06:31:47.0000000+00:00</time></trkpt><trkpt lat="35.0995692" lon="32.5221588"><ele>93.0</ele><time>2015-04-27T06:31:50.0000000+00:00</time></trkpt><trkpt lat="35.0995734" lon="32.5222212"><ele>93.3</ele><time>2015-04-27T06:31:53.0000000+00:00</time></trkpt><trkpt lat="35.0995867" lon="32.5222788"><ele>94.1</ele><time>2015-04-27T06:31:56.0000000+00:00</time></trkpt><trkpt lat="35.0996065" lon="32.5223345"><ele>95.0</ele><time>2015-04-27T06:31:59.0000000+00:00</time></trkpt><trkpt lat="35.0996301" lon="32.5223902"><ele>96.3</ele><time>2015-04-27T06:32:02.0000000+00:00</time></trkpt><trkpt lat="35.0996564" lon="32.5224359"><ele>97.7</ele><time>2015-04-27T06:32:05.0000000+00:00</time></trkpt><trkpt lat="35.0996892" lon="32.5224964"><ele>98.4</ele><time>2015-04-27T06:32:09.0000000+00:00</time></trkpt><trkpt lat="35.0997077" lon="32.5225536"><ele>97.7</ele><time>2015-04-27T06:32:12.0000000+00:00</time></trkpt><trkpt lat="35.0997091" lon="32.5226285"><ele>99.4</ele><time>2015-04-27T06:32:15.0000000+00:00</time></trkpt><trkpt lat="35.0996854" lon="32.5227045"><ele>99.9</ele><time>2015-04-27T06:32:18.0000000+00:00</time></trkpt><trkpt lat="35.0996596" lon="32.5227496"><ele>100.2</ele><time>2015-04-27T06:32:20.0000000+00:00</time></trkpt><trkpt lat="35.0996177" lon="32.5228099"><ele>100.8</ele><time>2015-04-27T06:32:23.0000000+00:00</time></trkpt><trkpt lat="35.0995694" lon="32.5228602"><ele>103.0</ele><time>2015-04-27T06:32:26.0000000+00:00</time></trkpt><trkpt lat="35.0995214" lon="32.5229001"><ele>102.6</ele><time>2015-04-27T06:32:29.0000000+00:00</time></trkpt><trkpt lat="35.0994665" lon="32.5229327"><ele>103.0</ele><time>2015-04-27T06:32:32.0000000+00:00</time></trkpt><trkpt lat="35.0994106" lon="32.5229734"><ele>103.3</ele><time>2015-04-27T06:32:35.0000000+00:00</time></trkpt><trkpt lat="35.0993529" lon="32.5230001"><ele>104.6</ele><time>2015-04-27T06:32:38.0000000+00:00</time></trkpt><trkpt lat="35.0992946" lon="32.5230112"><ele>106.1</ele><time>2015-04-27T06:32:41.0000000+00:00</time></trkpt><trkpt lat="35.0992322" lon="32.5230152"><ele>107.1</ele><time>2015-04-27T06:32:44.0000000+00:00</time></trkpt><trkpt lat="35.0991705" lon="32.5230181"><ele>107.3</ele><time>2015-04-27T06:32:47.0000000+00:00</time></trkpt><trkpt lat="35.0991115" lon="32.523026"><ele>107.6</ele><time>2015-04-27T06:32:50.0000000+00:00</time></trkpt><trkpt lat="35.0990551" lon="32.5230472"><ele>107.6</ele><time>2015-04-27T06:32:53.0000000+00:00</time></trkpt><trkpt lat="35.099001" lon="32.523073"><ele>107.9</ele><time>2015-04-27T06:32:56.0000000+00:00</time></trkpt><trkpt lat="35.0989487" lon="32.5230966"><ele>107.9</ele><time>2015-04-27T06:32:59.0000000+00:00</time></trkpt><trkpt lat="35.0988979" lon="32.5231169"><ele>106.8</ele><time>2015-04-27T06:33:02.0000000+00:00</time></trkpt><trkpt lat="35.0988522" lon="32.5231538"><ele>107.4</ele><time>2015-04-27T06:33:05.0000000+00:00</time></trkpt><trkpt lat="35.0988036" lon="32.5231969"><ele>107.9</ele><time>2015-04-27T06:33:08.0000000+00:00</time></trkpt><trkpt lat="35.0987483" lon="32.5232292"><ele>109.5</ele><time>2015-04-27T06:33:11.0000000+00:00</time></trkpt><trkpt lat="35.0986865" lon="32.5232626"><ele>109.4</ele><time>2015-04-27T06:33:14.0000000+00:00</time></trkpt><trkpt lat="35.0986425" lon="32.5232877"><ele>108.5</ele><time>2015-04-27T06:33:16.0000000+00:00</time></trkpt><trkpt lat="35.0986004" lon="32.5233201"><ele>108.6</ele><time>2015-04-27T06:33:18.0000000+00:00</time></trkpt><trkpt lat="35.0985563" lon="32.5233589"><ele>108.1</ele><time>2015-04-27T06:33:20.0000000+00:00</time></trkpt><trkpt lat="35.0985072" lon="32.523402"><ele>108.7</ele><time>2015-04-27T06:33:22.0000000+00:00</time></trkpt><trkpt lat="35.0984598" lon="32.5234577"><ele>109.6</ele><time>2015-04-27T06:33:24.0000000+00:00</time></trkpt><trkpt lat="35.0984237" lon="32.5235233"><ele>110.6</ele><time>2015-04-27T06:33:26.0000000+00:00</time></trkpt><trkpt lat="35.098401" lon="32.5236012"><ele>110.1</ele><time>2015-04-27T06:33:28.0000000+00:00</time></trkpt><trkpt lat="35.0983876" lon="32.5236862"><ele>110.0</ele><time>2015-04-27T06:33:30.0000000+00:00</time></trkpt><trkpt lat="35.098382" lon="32.5237842"><ele>108.7</ele><time>2015-04-27T06:33:32.0000000+00:00</time></trkpt><trkpt lat="35.0983826" lon="32.5238401"><ele>107.8</ele><time>2015-04-27T06:33:33.0000000+00:00</time></trkpt><trkpt lat="35.098387" lon="32.5238988"><ele>106.4</ele><time>2015-04-27T06:33:34.0000000+00:00</time></trkpt><trkpt lat="35.0983994" lon="32.524007"><ele>105.2</ele><time>2015-04-27T06:33:35.0000000+00:00</time></trkpt><trkpt lat="35.0984025" lon="32.5240691"><ele>104.5</ele><time>2015-04-27T06:33:36.0000000+00:00</time></trkpt><trkpt lat="35.0984126" lon="32.5241327"><ele>104.2</ele><time>2015-04-27T06:33:37.0000000+00:00</time></trkpt><trkpt lat="35.0984115" lon="32.5242056"><ele>103.6</ele><time>2015-04-27T06:33:38.0000000+00:00</time></trkpt><trkpt lat="35.0983935" lon="32.5242753"><ele>103.3</ele><time>2015-04-27T06:33:39.0000000+00:00</time></trkpt><trkpt lat="35.0983729" lon="32.5243295"><ele>103.1</ele><time>2015-04-27T06:33:40.0000000+00:00</time></trkpt><trkpt lat="35.0983294" lon="32.524402"><ele>103.0</ele><time>2015-04-27T06:33:42.0000000+00:00</time></trkpt><trkpt lat="35.0982847" lon="32.5244221"><ele>103.0</ele><time>2015-04-27T06:33:43.0000000+00:00</time></trkpt><trkpt lat="35.098225" lon="32.5244415"><ele>104.4</ele><time>2015-04-27T06:33:45.0000000+00:00</time></trkpt><trkpt lat="35.0981701" lon="32.524449"><ele>105.1</ele><time>2015-04-27T06:33:47.0000000+00:00</time></trkpt><trkpt lat="35.0981201" lon="32.5244516"><ele>105.2</ele><time>2015-04-27T06:33:49.0000000+00:00</time></trkpt><trkpt lat="35.0980528" lon="32.5244513"><ele>107.5</ele><time>2015-04-27T06:33:52.0000000+00:00</time></trkpt><trkpt lat="35.0980078" lon="32.5244594"><ele>108.6</ele><time>2015-04-27T06:33:54.0000000+00:00</time></trkpt><trkpt lat="35.0979531" lon="32.5244934"><ele>109.6</ele><time>2015-04-27T06:33:57.0000000+00:00</time></trkpt><trkpt lat="35.097914" lon="32.5245445"><ele>111.8</ele><time>2015-04-27T06:34:00.0000000+00:00</time></trkpt><trkpt lat="35.0978764" lon="32.5245909"><ele>113.2</ele><time>2015-04-27T06:34:03.0000000+00:00</time></trkpt><trkpt lat="35.0978487" lon="32.5246446"><ele>113.0</ele><time>2015-04-27T06:34:06.0000000+00:00</time></trkpt><trkpt lat="35.0978206" lon="32.5246973"><ele>113.3</ele><time>2015-04-27T06:34:09.0000000+00:00</time></trkpt><trkpt lat="35.0977938" lon="32.5247511"><ele>112.2</ele><time>2015-04-27T06:34:12.0000000+00:00</time></trkpt><trkpt lat="35.0977659" lon="32.5248017"><ele>112.0</ele><time>2015-04-27T06:34:15.0000000+00:00</time></trkpt><trkpt lat="35.0977308" lon="32.5248498"><ele>114.9</ele><time>2015-04-27T06:34:18.0000000+00:00</time></trkpt><trkpt lat="35.097699" lon="32.5248967"><ele>115.7</ele><time>2015-04-27T06:34:21.0000000+00:00</time></trkpt><trkpt lat="35.0976666" lon="32.52494"><ele>116.4</ele><time>2015-04-27T06:34:24.0000000+00:00</time></trkpt><trkpt lat="35.0976296" lon="32.5249776"><ele>116.9</ele><time>2015-04-27T06:34:27.0000000+00:00</time></trkpt><trkpt lat="35.0975916" lon="32.5250144"><ele>116.2</ele><time>2015-04-27T06:34:30.0000000+00:00</time></trkpt><trkpt lat="35.0975505" lon="32.5250528"><ele>116.7</ele><time>2015-04-27T06:34:33.0000000+00:00</time></trkpt><trkpt lat="35.0975032" lon="32.5250863"><ele>117.2</ele><time>2015-04-27T06:34:36.0000000+00:00</time></trkpt><trkpt lat="35.0974558" lon="32.5251206"><ele>117.0</ele><time>2015-04-27T06:34:39.0000000+00:00</time></trkpt><trkpt lat="35.0974043" lon="32.5251429"><ele>119.4</ele><time>2015-04-27T06:34:52.0000000+00:00</time></trkpt><trkpt lat="35.0973618" lon="32.5251762"><ele>120.4</ele><time>2015-04-27T06:35:07.0000000+00:00</time></trkpt><trkpt lat="35.0973252" lon="32.5252174"><ele>120.9</ele><time>2015-04-27T06:35:11.0000000+00:00</time></trkpt><trkpt lat="35.0972781" lon="32.5252582"><ele>121.9</ele><time>2015-04-27T06:35:14.0000000+00:00</time></trkpt><trkpt lat="35.097228" lon="32.5253031"><ele>121.2</ele><time>2015-04-27T06:35:17.0000000+00:00</time></trkpt><trkpt lat="35.0971886" lon="32.5253372"><ele>120.5</ele><time>2015-04-27T06:35:19.0000000+00:00</time></trkpt><trkpt lat="35.0971471" lon="32.5253814"><ele>120.1</ele><time>2015-04-27T06:35:21.0000000+00:00</time></trkpt><trkpt lat="35.0970926" lon="32.5254316"><ele>119.2</ele><time>2015-04-27T06:35:23.0000000+00:00</time></trkpt><trkpt lat="35.0970482" lon="32.5254775"><ele>119.0</ele><time>2015-04-27T06:35:25.0000000+00:00</time></trkpt><trkpt lat="35.0970077" lon="32.5255346"><ele>118.9</ele><time>2015-04-27T06:35:27.0000000+00:00</time></trkpt><trkpt lat="35.096974" lon="32.5255894"><ele>118.9</ele><time>2015-04-27T06:35:29.0000000+00:00</time></trkpt><trkpt lat="35.0969479" lon="32.5256515"><ele>118.9</ele><time>2015-04-27T06:35:31.0000000+00:00</time></trkpt><trkpt lat="35.0969285" lon="32.5257137"><ele>119.7</ele><time>2015-04-27T06:35:33.0000000+00:00</time></trkpt><trkpt lat="35.0969158" lon="32.5257739"><ele>120.6</ele><time>2015-04-27T06:35:35.0000000+00:00</time></trkpt><trkpt lat="35.0969066" lon="32.5258371"><ele>120.9</ele><time>2015-04-27T06:35:37.0000000+00:00</time></trkpt><trkpt lat="35.0969008" lon="32.5259005"><ele>120.9</ele><time>2015-04-27T06:35:39.0000000+00:00</time></trkpt><trkpt lat="35.0968953" lon="32.5259662"><ele>121.7</ele><time>2015-04-27T06:35:41.0000000+00:00</time></trkpt><trkpt lat="35.09688" lon="32.5260271"><ele>121.6</ele><time>2015-04-27T06:35:43.0000000+00:00</time></trkpt><trkpt lat="35.096856" lon="32.5260846"><ele>121.1</ele><time>2015-04-27T06:35:45.0000000+00:00</time></trkpt><trkpt lat="35.0968293" lon="32.5261366"><ele>120.5</ele><time>2015-04-27T06:35:47.0000000+00:00</time></trkpt><trkpt lat="35.096806" lon="32.526185"><ele>120.8</ele><time>2015-04-27T06:35:49.0000000+00:00</time></trkpt><trkpt lat="35.09676" lon="32.5262319"><ele>120.2</ele><time>2015-04-27T06:35:52.0000000+00:00</time></trkpt><trkpt lat="35.0966963" lon="32.5262376"><ele>119.3</ele><time>2015-04-27T06:35:55.0000000+00:00</time></trkpt><trkpt lat="35.0966439" lon="32.5262316"><ele>119.8</ele><time>2015-04-27T06:35:57.0000000+00:00</time></trkpt><trkpt lat="35.0965887" lon="32.526238"><ele>120.6</ele><time>2015-04-27T06:35:59.0000000+00:00</time></trkpt><trkpt lat="35.096535" lon="32.526258"><ele>120.9</ele><time>2015-04-27T06:36:01.0000000+00:00</time></trkpt><trkpt lat="35.0964858" lon="32.5262872"><ele>121.2</ele><time>2015-04-27T06:36:03.0000000+00:00</time></trkpt><trkpt lat="35.0964456" lon="32.5263282"><ele>122.0</ele><time>2015-04-27T06:36:05.0000000+00:00</time></trkpt><trkpt lat="35.0964093" lon="32.5263651"><ele>123.4</ele><time>2015-04-27T06:36:07.0000000+00:00</time></trkpt><trkpt lat="35.0963764" lon="32.5264289"><ele>124.5</ele><time>2015-04-27T06:36:10.0000000+00:00</time></trkpt><trkpt lat="35.096381" lon="32.5263662"><ele>124.1</ele><time>2015-04-27T06:36:16.0000000+00:00</time></trkpt><trkpt lat="35.096419" lon="32.5263361"><ele>121.4</ele><time>2015-04-27T06:36:27.0000000+00:00</time></trkpt><trkpt lat="35.096431" lon="32.5263967"><ele>118.5</ele><time>2015-04-27T06:36:45.0000000+00:00</time></trkpt><trkpt lat="35.0963923" lon="32.5264501"><ele>120.5</ele><time>2015-04-27T06:36:48.0000000+00:00</time></trkpt><trkpt lat="35.0963703" lon="32.5264981"><ele>120.8</ele><time>2015-04-27T06:36:50.0000000+00:00</time></trkpt><trkpt lat="35.0963364" lon="32.5265702"><ele>120.9</ele><time>2015-04-27T06:36:53.0000000+00:00</time></trkpt><trkpt lat="35.0963055" lon="32.52664"><ele>122.3</ele><time>2015-04-27T06:36:56.0000000+00:00</time></trkpt><trkpt lat="35.0962698" lon="32.5266971"><ele>122.9</ele><time>2015-04-27T06:36:59.0000000+00:00</time></trkpt><trkpt lat="35.0962402" lon="32.526742"><ele>122.2</ele><time>2015-04-27T06:37:02.0000000+00:00</time></trkpt><trkpt lat="35.0962099" lon="32.5267911"><ele>123.3</ele><time>2015-04-27T06:37:06.0000000+00:00</time></trkpt><trkpt lat="35.0961584" lon="32.5268118"><ele>126.4</ele><time>2015-04-27T06:37:10.0000000+00:00</time></trkpt><trkpt lat="35.0961075" lon="32.5268236"><ele>127.6</ele><time>2015-04-27T06:37:14.0000000+00:00</time></trkpt><trkpt lat="35.0960634" lon="32.526845"><ele>128.4</ele><time>2015-04-27T06:37:18.0000000+00:00</time></trkpt><trkpt lat="35.0960266" lon="32.5268938"><ele>129.8</ele><time>2015-04-27T06:37:22.0000000+00:00</time></trkpt><trkpt lat="35.0959882" lon="32.5269421"><ele>131.2</ele><time>2015-04-27T06:37:26.0000000+00:00</time></trkpt><trkpt lat="35.0959566" lon="32.5269823"><ele>131.0</ele><time>2015-04-27T06:37:30.0000000+00:00</time></trkpt><trkpt lat="35.095923" lon="32.5270259"><ele>130.6</ele><time>2015-04-27T06:37:34.0000000+00:00</time></trkpt><trkpt lat="35.0958744" lon="32.5270558"><ele>129.5</ele><time>2015-04-27T06:37:38.0000000+00:00</time></trkpt><trkpt lat="35.0958214" lon="32.527082"><ele>129.5</ele><time>2015-04-27T06:37:42.0000000+00:00</time></trkpt><trkpt lat="35.0957726" lon="32.5270879"><ele>129.9</ele><time>2015-04-27T06:37:45.0000000+00:00</time></trkpt><trkpt lat="35.0957202" lon="32.5270834"><ele>129.0</ele><time>2015-04-27T06:37:48.0000000+00:00</time></trkpt><trkpt lat="35.0956748" lon="32.5270873"><ele>129.8</ele><time>2015-04-27T06:37:52.0000000+00:00</time></trkpt><trkpt lat="35.0956156" lon="32.5270759"><ele>129.9</ele><time>2015-04-27T06:37:56.0000000+00:00</time></trkpt><trkpt lat="35.095554" lon="32.5270657"><ele>129.4</ele><time>2015-04-27T06:37:59.0000000+00:00</time></trkpt><trkpt lat="35.0954839" lon="32.527057"><ele>129.0</ele><time>2015-04-27T06:38:02.0000000+00:00</time></trkpt><trkpt lat="35.0954216" lon="32.5270533"><ele>128.9</ele><time>2015-04-27T06:38:04.0000000+00:00</time></trkpt><trkpt lat="35.095355" lon="32.5270474"><ele>128.2</ele><time>2015-04-27T06:38:06.0000000+00:00</time></trkpt><trkpt lat="35.0952931" lon="32.5270384"><ele>128.0</ele><time>2015-04-27T06:38:08.0000000+00:00</time></trkpt><trkpt lat="35.0952295" lon="32.5270306"><ele>127.9</ele><time>2015-04-27T06:38:10.0000000+00:00</time></trkpt><trkpt lat="35.0951546" lon="32.5270241"><ele>127.2</ele><time>2015-04-27T06:38:12.0000000+00:00</time></trkpt><trkpt lat="35.0950689" lon="32.5270189"><ele>127.0</ele><time>2015-04-27T06:38:14.0000000+00:00</time></trkpt><trkpt lat="35.0950236" lon="32.5270217"><ele>126.5</ele><time>2015-04-27T06:38:15.0000000+00:00</time></trkpt><trkpt lat="35.0949788" lon="32.5270313"><ele>126.2</ele><time>2015-04-27T06:38:16.0000000+00:00</time></trkpt><trkpt lat="35.0949355" lon="32.5270471"><ele>126.1</ele><time>2015-04-27T06:38:17.0000000+00:00</time></trkpt><trkpt lat="35.0948584" lon="32.5270976"><ele>126.0</ele><time>2015-04-27T06:38:19.0000000+00:00</time></trkpt><trkpt lat="35.0948044" lon="32.5271646"><ele>125.9</ele><time>2015-04-27T06:38:21.0000000+00:00</time></trkpt><trkpt lat="35.0947747" lon="32.5272246"><ele>125.9</ele><time>2015-04-27T06:38:23.0000000+00:00</time></trkpt><trkpt lat="35.0947484" lon="32.5272988"><ele>125.9</ele><time>2015-04-27T06:38:26.0000000+00:00</time></trkpt><trkpt lat="35.0947301" lon="32.5273725"><ele>126.8</ele><time>2015-04-27T06:38:29.0000000+00:00</time></trkpt><trkpt lat="35.0947236" lon="32.5274459"><ele>126.9</ele><time>2015-04-27T06:38:32.0000000+00:00</time></trkpt><trkpt lat="35.0947217" lon="32.5275199"><ele>127.8</ele><time>2015-04-27T06:38:35.0000000+00:00</time></trkpt><trkpt lat="35.0947225" lon="32.5275948"><ele>127.9</ele><time>2015-04-27T06:38:38.0000000+00:00</time></trkpt><trkpt lat="35.0947242" lon="32.527675"><ele>127.9</ele><time>2015-04-27T06:38:41.0000000+00:00</time></trkpt><trkpt lat="35.0947414" lon="32.5277533"><ele>127.6</ele><time>2015-04-27T06:38:44.0000000+00:00</time></trkpt><trkpt lat="35.0947519" lon="32.5278105"><ele>128.3</ele><time>2015-04-27T06:38:46.0000000+00:00</time></trkpt><trkpt lat="35.0947612" lon="32.5278681"><ele>128.8</ele><time>2015-04-27T06:38:48.0000000+00:00</time></trkpt><trkpt lat="35.0947759" lon="32.5279248"><ele>128.4</ele><time>2015-04-27T06:38:50.0000000+00:00</time></trkpt><trkpt lat="35.0947938" lon="32.5279803"><ele>128.8</ele><time>2015-04-27T06:38:52.0000000+00:00</time></trkpt><trkpt lat="35.0948119" lon="32.5280355"><ele>129.6</ele><time>2015-04-27T06:38:54.0000000+00:00</time></trkpt><trkpt lat="35.0948295" lon="32.5280914"><ele>129.9</ele><time>2015-04-27T06:38:56.0000000+00:00</time></trkpt><trkpt lat="35.0948429" lon="32.5281499"><ele>129.9</ele><time>2015-04-27T06:38:58.0000000+00:00</time></trkpt><trkpt lat="35.0948514" lon="32.5282094"><ele>130.4</ele><time>2015-04-27T06:39:00.0000000+00:00</time></trkpt><trkpt lat="35.0948544" lon="32.5282694"><ele>130.8</ele><time>2015-04-27T06:39:02.0000000+00:00</time></trkpt><trkpt lat="35.0948632" lon="32.5283489"><ele>131.5</ele><time>2015-04-27T06:39:05.0000000+00:00</time></trkpt><trkpt lat="35.0948739" lon="32.528424"><ele>131.9</ele><time>2015-04-27T06:39:08.0000000+00:00</time></trkpt><trkpt lat="35.0948875" lon="32.5284999"><ele>132.2</ele><time>2015-04-27T06:39:11.0000000+00:00</time></trkpt><trkpt lat="35.0949097" lon="32.5285645"><ele>131.1</ele><time>2015-04-27T06:39:14.0000000+00:00</time></trkpt><trkpt lat="35.0949283" lon="32.5286308"><ele>129.9</ele><time>2015-04-27T06:39:17.0000000+00:00</time></trkpt><trkpt lat="35.0949411" lon="32.5286988"><ele>130.2</ele><time>2015-04-27T06:39:20.0000000+00:00</time></trkpt><trkpt lat="35.0949572" lon="32.5287643"><ele>128.8</ele><time>2015-04-27T06:39:23.0000000+00:00</time></trkpt><trkpt lat="35.0949742" lon="32.5288302"><ele>127.5</ele><time>2015-04-27T06:39:26.0000000+00:00</time></trkpt><trkpt lat="35.0949946" lon="32.5288922"><ele>126.8</ele><time>2015-04-27T06:39:29.0000000+00:00</time></trkpt><trkpt lat="35.095017" lon="32.5289588"><ele>126.3</ele><time>2015-04-27T06:39:32.0000000+00:00</time></trkpt><trkpt lat="35.0950468" lon="32.5290281"><ele>124.5</ele><time>2015-04-27T06:39:35.0000000+00:00</time></trkpt><trkpt lat="35.0950688" lon="32.529079"><ele>123.3</ele><time>2015-04-27T06:39:37.0000000+00:00</time></trkpt><trkpt lat="35.0950894" lon="32.5291356"><ele>123.3</ele><time>2015-04-27T06:39:39.0000000+00:00</time></trkpt><trkpt lat="35.0951056" lon="32.5291957"><ele>123.0</ele><time>2015-04-27T06:39:41.0000000+00:00</time></trkpt><trkpt lat="35.0951186" lon="32.5292572"><ele>125.5</ele><time>2015-04-27T06:39:43.0000000+00:00</time></trkpt><trkpt lat="35.0951278" lon="32.5293196"><ele>126.6</ele><time>2015-04-27T06:39:45.0000000+00:00</time></trkpt><trkpt lat="35.0951344" lon="32.5293842"><ele>127.3</ele><time>2015-04-27T06:39:47.0000000+00:00</time></trkpt><trkpt lat="35.0951483" lon="32.529445"><ele>128.3</ele><time>2015-04-27T06:39:49.0000000+00:00</time></trkpt><trkpt lat="35.0951636" lon="32.5295058"><ele>128.3</ele><time>2015-04-27T06:39:51.0000000+00:00</time></trkpt><trkpt lat="35.095174" lon="32.5295685"><ele>128.8</ele><time>2015-04-27T06:39:53.0000000+00:00</time></trkpt><trkpt lat="35.0951864" lon="32.5296285"><ele>129.4</ele><time>2015-04-27T06:39:55.0000000+00:00</time></trkpt><trkpt lat="35.0952037" lon="32.5296877"><ele>131.0</ele><time>2015-04-27T06:39:57.0000000+00:00</time></trkpt><trkpt lat="35.0952171" lon="32.5297474"><ele>131.2</ele><time>2015-04-27T06:39:59.0000000+00:00</time></trkpt><trkpt lat="35.0952254" lon="32.5298073"><ele>129.7</ele><time>2015-04-27T06:40:01.0000000+00:00</time></trkpt><trkpt lat="35.0952332" lon="32.5298644"><ele>129.6</ele><time>2015-04-27T06:40:03.0000000+00:00</time></trkpt><trkpt lat="35.0952497" lon="32.5299156"><ele>129.4</ele><time>2015-04-27T06:40:05.0000000+00:00</time></trkpt><trkpt lat="35.0952677" lon="32.5299912"><ele>128.4</ele><time>2015-04-27T06:40:08.0000000+00:00</time></trkpt><trkpt lat="35.0952749" lon="32.5300464"><ele>128.8</ele><time>2015-04-27T06:40:10.0000000+00:00</time></trkpt><trkpt lat="35.0952815" lon="32.5301033"><ele>129.6</ele><time>2015-04-27T06:40:12.0000000+00:00</time></trkpt><trkpt lat="35.0952919" lon="32.5301808"><ele>131.4</ele><time>2015-04-27T06:40:15.0000000+00:00</time></trkpt><trkpt lat="35.0953122" lon="32.5302444"><ele>131.6</ele><time>2015-04-27T06:40:18.0000000+00:00</time></trkpt><trkpt lat="35.0953208" lon="32.5303198"><ele>131.0</ele><time>2015-04-27T06:40:21.0000000+00:00</time></trkpt><trkpt lat="35.0953317" lon="32.5303839"><ele>130.7</ele><time>2015-04-27T06:40:23.0000000+00:00</time></trkpt><trkpt lat="35.095343" lon="32.5304618"><ele>131.9</ele><time>2015-04-27T06:40:25.0000000+00:00</time></trkpt><trkpt lat="35.0953615" lon="32.5305361"><ele>131.9</ele><time>2015-04-27T06:40:27.0000000+00:00</time></trkpt><trkpt lat="35.0953931" lon="32.5305943"><ele>132.7</ele><time>2015-04-27T06:40:29.0000000+00:00</time></trkpt><trkpt lat="35.095429" lon="32.530645"><ele>132.9</ele><time>2015-04-27T06:40:31.0000000+00:00</time></trkpt><trkpt lat="35.0954713" lon="32.530684"><ele>133.4</ele><time>2015-04-27T06:40:33.0000000+00:00</time></trkpt><trkpt lat="35.0955198" lon="32.5307107"><ele>135.1</ele><time>2015-04-27T06:40:35.0000000+00:00</time></trkpt><trkpt lat="35.0955639" lon="32.5307387"><ele>135.7</ele><time>2015-04-27T06:40:37.0000000+00:00</time></trkpt><trkpt lat="35.0955999" lon="32.5307795"><ele>136.6</ele><time>2015-04-27T06:40:39.0000000+00:00</time></trkpt><trkpt lat="35.0956236" lon="32.5308423"><ele>136.1</ele><time>2015-04-27T06:40:41.0000000+00:00</time></trkpt><trkpt lat="35.0956224" lon="32.5309138"><ele>138.0</ele><time>2015-04-27T06:40:43.0000000+00:00</time></trkpt><trkpt lat="35.095608" lon="32.530982"><ele>137.4</ele><time>2015-04-27T06:40:45.0000000+00:00</time></trkpt><trkpt lat="35.0955806" lon="32.5310452"><ele>137.6</ele><time>2015-04-27T06:40:47.0000000+00:00</time></trkpt><trkpt lat="35.0955533" lon="32.5311071"><ele>138.6</ele><time>2015-04-27T06:40:49.0000000+00:00</time></trkpt><trkpt lat="35.0955309" lon="32.5311688"><ele>140.1</ele><time>2015-04-27T06:40:51.0000000+00:00</time></trkpt><trkpt lat="35.0955125" lon="32.5312338"><ele>139.5</ele><time>2015-04-27T06:40:53.0000000+00:00</time></trkpt><trkpt lat="35.0955073" lon="32.5313023"><ele>139.3</ele><time>2015-04-27T06:40:55.0000000+00:00</time></trkpt><trkpt lat="35.0955155" lon="32.5313657"><ele>137.5</ele><time>2015-04-27T06:40:57.0000000+00:00</time></trkpt><trkpt lat="35.0955246" lon="32.5314296"><ele>137.1</ele><time>2015-04-27T06:40:59.0000000+00:00</time></trkpt><trkpt lat="35.095544" lon="32.5314879"><ele>136.2</ele><time>2015-04-27T06:41:01.0000000+00:00</time></trkpt><trkpt lat="35.0955718" lon="32.5315428"><ele>135.5</ele><time>2015-04-27T06:41:03.0000000+00:00</time></trkpt><trkpt lat="35.0955981" lon="32.5316029"><ele>134.6</ele><time>2015-04-27T06:41:05.0000000+00:00</time></trkpt><trkpt lat="35.0956208" lon="32.5316676"><ele>134.1</ele><time>2015-04-27T06:41:07.0000000+00:00</time></trkpt><trkpt lat="35.0956468" lon="32.5317319"><ele>134.0</ele><time>2015-04-27T06:41:09.0000000+00:00</time></trkpt><trkpt lat="35.0956766" lon="32.5317953"><ele>133.9</ele><time>2015-04-27T06:41:11.0000000+00:00</time></trkpt><trkpt lat="35.0957008" lon="32.5318615"><ele>133.9</ele><time>2015-04-27T06:41:13.0000000+00:00</time></trkpt><trkpt lat="35.0957068" lon="32.5319321"><ele>133.9</ele><time>2015-04-27T06:41:15.0000000+00:00</time></trkpt><trkpt lat="35.0956931" lon="32.5319972"><ele>134.2</ele><time>2015-04-27T06:41:17.0000000+00:00</time></trkpt><trkpt lat="35.0956737" lon="32.5320494"><ele>134.5</ele><time>2015-04-27T06:41:19.0000000+00:00</time></trkpt><trkpt lat="35.0956373" lon="32.5320971"><ele>135.6</ele><time>2015-04-27T06:41:22.0000000+00:00</time></trkpt><trkpt lat="35.095618" lon="32.5321599"><ele>135.8</ele><time>2015-04-27T06:41:26.0000000+00:00</time></trkpt><trkpt lat="35.095639" lon="32.5322229"><ele>136.7</ele><time>2015-04-27T06:41:30.0000000+00:00</time></trkpt><trkpt lat="35.0956506" lon="32.5322939"><ele>139.6</ele><time>2015-04-27T06:41:34.0000000+00:00</time></trkpt><trkpt lat="35.095671" lon="32.5323448"><ele>139.6</ele><time>2015-04-27T06:41:37.0000000+00:00</time></trkpt><trkpt lat="35.0956998" lon="32.5324063"><ele>140.8</ele><time>2015-04-27T06:41:41.0000000+00:00</time></trkpt><trkpt lat="35.0957347" lon="32.5324603"><ele>142.6</ele><time>2015-04-27T06:41:45.0000000+00:00</time></trkpt><trkpt lat="35.0957814" lon="32.5324965"><ele>144.0</ele><time>2015-04-27T06:41:49.0000000+00:00</time></trkpt><trkpt lat="35.0958228" lon="32.5325208"><ele>143.3</ele><time>2015-04-27T06:41:52.0000000+00:00</time></trkpt><trkpt lat="35.0958642" lon="32.5325502"><ele>143.0</ele><time>2015-04-27T06:41:55.0000000+00:00</time></trkpt><trkpt lat="35.0959031" lon="32.5325816"><ele>144.8</ele><time>2015-04-27T06:41:58.0000000+00:00</time></trkpt><trkpt lat="35.0959354" lon="32.5326223"><ele>146.3</ele><time>2015-04-27T06:42:01.0000000+00:00</time></trkpt><trkpt lat="35.0959692" lon="32.5326744"><ele>146.0</ele><time>2015-04-27T06:42:05.0000000+00:00</time></trkpt><trkpt lat="35.0959942" lon="32.5327326"><ele>147.3</ele><time>2015-04-27T06:42:09.0000000+00:00</time></trkpt><trkpt lat="35.0959852" lon="32.5327901"><ele>149.6</ele><time>2015-04-27T06:42:12.0000000+00:00</time></trkpt><trkpt lat="35.0959765" lon="32.5328599"><ele>150.4</ele><time>2015-04-27T06:42:16.0000000+00:00</time></trkpt><trkpt lat="35.0959574" lon="32.5329111"><ele>151.2</ele><time>2015-04-27T06:42:19.0000000+00:00</time></trkpt><trkpt lat="35.0959329" lon="32.5329755"><ele>152.7</ele><time>2015-04-27T06:42:23.0000000+00:00</time></trkpt><trkpt lat="35.0959017" lon="32.5330372"><ele>152.9</ele><time>2015-04-27T06:42:27.0000000+00:00</time></trkpt><trkpt lat="35.0958655" lon="32.5330913"><ele>153.4</ele><time>2015-04-27T06:42:31.0000000+00:00</time></trkpt><trkpt lat="35.0958429" lon="32.5331536"><ele>153.3</ele><time>2015-04-27T06:42:35.0000000+00:00</time></trkpt><trkpt lat="35.0958189" lon="32.5332124"><ele>155.6</ele><time>2015-04-27T06:42:39.0000000+00:00</time></trkpt><trkpt lat="35.0957995" lon="32.5332632"><ele>157.6</ele><time>2015-04-27T06:42:42.0000000+00:00</time></trkpt><trkpt lat="35.09576" lon="32.5333134"><ele>160.7</ele><time>2015-04-27T06:42:46.0000000+00:00</time></trkpt><trkpt lat="35.0957151" lon="32.5333554"><ele>159.5</ele><time>2015-04-27T06:42:50.0000000+00:00</time></trkpt><trkpt lat="35.0956871" lon="32.5333994"><ele>159.0</ele><time>2015-04-27T06:42:53.0000000+00:00</time></trkpt><trkpt lat="35.0956594" lon="32.5334461"><ele>157.9</ele><time>2015-04-27T06:42:56.0000000+00:00</time></trkpt><trkpt lat="35.095633" lon="32.5334925"><ele>158.8</ele><time>2015-04-27T06:42:59.0000000+00:00</time></trkpt><trkpt lat="35.0956074" lon="32.5335413"><ele>163.9</ele><time>2015-04-27T06:43:03.0000000+00:00</time></trkpt><trkpt lat="35.0955781" lon="32.533601"><ele>164.9</ele><time>2015-04-27T06:43:07.0000000+00:00</time></trkpt><trkpt lat="35.0955448" lon="32.5336484"><ele>164.7</ele><time>2015-04-27T06:43:10.0000000+00:00</time></trkpt><trkpt lat="35.0955076" lon="32.5336926"><ele>163.9</ele><time>2015-04-27T06:43:13.0000000+00:00</time></trkpt><trkpt lat="35.0954731" lon="32.5337342"><ele>163.9</ele><time>2015-04-27T06:43:16.0000000+00:00</time></trkpt><trkpt lat="35.0954302" lon="32.5337833"><ele>164.6</ele><time>2015-04-27T06:43:19.0000000+00:00</time></trkpt><trkpt lat="35.0953799" lon="32.5338276"><ele>165.5</ele><time>2015-04-27T06:43:22.0000000+00:00</time></trkpt><trkpt lat="35.0953294" lon="32.5338672"><ele>165.4</ele><time>2015-04-27T06:43:25.0000000+00:00</time></trkpt><trkpt lat="35.0952931" lon="32.5339004"><ele>165.0</ele><time>2015-04-27T06:43:27.0000000+00:00</time></trkpt><trkpt lat="35.0952529" lon="32.5339392"><ele>164.2</ele><time>2015-04-27T06:43:29.0000000+00:00</time></trkpt><trkpt lat="35.0951935" lon="32.5340016"><ele>164.0</ele><time>2015-04-27T06:43:31.0000000+00:00</time></trkpt><trkpt lat="35.0951577" lon="32.5340446"><ele>163.5</ele><time>2015-04-27T06:43:32.0000000+00:00</time></trkpt><trkpt lat="35.0950941" lon="32.5341185"><ele>163.2</ele><time>2015-04-27T06:43:33.0000000+00:00</time></trkpt><trkpt lat="35.0950655" lon="32.5341762"><ele>163.6</ele><time>2015-04-27T06:43:34.0000000+00:00</time></trkpt><trkpt lat="35.0950515" lon="32.5342447"><ele>163.2</ele><time>2015-04-27T06:43:35.0000000+00:00</time></trkpt><trkpt lat="35.0950359" lon="32.5343043"><ele>163.1</ele><time>2015-04-27T06:43:36.0000000+00:00</time></trkpt><trkpt lat="35.0950201" lon="32.5343663"><ele>163.5</ele><time>2015-04-27T06:43:37.0000000+00:00</time></trkpt><trkpt lat="35.0950114" lon="32.5344677"><ele>163.6</ele><time>2015-04-27T06:43:39.0000000+00:00</time></trkpt><trkpt lat="35.0949987" lon="32.5345629"><ele>163.6</ele><time>2015-04-27T06:43:41.0000000+00:00</time></trkpt><trkpt lat="35.0949898" lon="32.5346388"><ele>163.6</ele><time>2015-04-27T06:43:43.0000000+00:00</time></trkpt><trkpt lat="35.0949662" lon="32.5347111"><ele>163.1</ele><time>2015-04-27T06:43:45.0000000+00:00</time></trkpt><trkpt lat="35.0949533" lon="32.5347682"><ele>163.0</ele><time>2015-04-27T06:43:47.0000000+00:00</time></trkpt><trkpt lat="35.094947" lon="32.5348435"><ele>162.2</ele><time>2015-04-27T06:43:49.0000000+00:00</time></trkpt><trkpt lat="35.0949534" lon="32.5349286"><ele>160.2</ele><time>2015-04-27T06:43:51.0000000+00:00</time></trkpt><trkpt lat="35.0949836" lon="32.5350466"><ele>158.0</ele><time>2015-04-27T06:43:53.0000000+00:00</time></trkpt><trkpt lat="35.0949807" lon="32.535133"><ele>157.5</ele><time>2015-04-27T06:43:54.0000000+00:00</time></trkpt><trkpt lat="35.0949751" lon="32.5352204"><ele>156.7</ele><time>2015-04-27T06:43:55.0000000+00:00</time></trkpt><trkpt lat="35.0949604" lon="32.5353053"><ele>156.8</ele><time>2015-04-27T06:43:56.0000000+00:00</time></trkpt><trkpt lat="35.0949427" lon="32.5353848"><ele>157.4</ele><time>2015-04-27T06:43:57.0000000+00:00</time></trkpt><trkpt lat="35.0949386" lon="32.5354478"><ele>158.2</ele><time>2015-04-27T06:43:58.0000000+00:00</time></trkpt><trkpt lat="35.0949345" lon="32.5355043"><ele>159.0</ele><time>2015-04-27T06:43:59.0000000+00:00</time></trkpt><trkpt lat="35.0949331" lon="32.5355865"><ele>159.5</ele><time>2015-04-27T06:44:01.0000000+00:00</time></trkpt><trkpt lat="35.0949398" lon="32.5356468"><ele>161.1</ele><time>2015-04-27T06:44:03.0000000+00:00</time></trkpt><trkpt lat="35.0949343" lon="32.5357308"><ele>161.8</ele><time>2015-04-27T06:44:06.0000000+00:00</time></trkpt><trkpt lat="35.0949415" lon="32.5358004"><ele>162.2</ele><time>2015-04-27T06:44:08.0000000+00:00</time></trkpt><trkpt lat="35.094944" lon="32.5358732"><ele>163.0</ele><time>2015-04-27T06:44:10.0000000+00:00</time></trkpt><trkpt lat="35.094951" lon="32.5359507"><ele>163.7</ele><time>2015-04-27T06:44:12.0000000+00:00</time></trkpt><trkpt lat="35.0949648" lon="32.5360282"><ele>163.1</ele><time>2015-04-27T06:44:14.0000000+00:00</time></trkpt><trkpt lat="35.0949901" lon="32.5361001"><ele>164.0</ele><time>2015-04-27T06:44:16.0000000+00:00</time></trkpt><trkpt lat="35.0950292" lon="32.536165"><ele>164.2</ele><time>2015-04-27T06:44:18.0000000+00:00</time></trkpt><trkpt lat="35.0950879" lon="32.5362122"><ele>164.0</ele><time>2015-04-27T06:44:20.0000000+00:00</time></trkpt><trkpt lat="35.0951482" lon="32.536245"><ele>163.9</ele><time>2015-04-27T06:44:22.0000000+00:00</time></trkpt><trkpt lat="35.0951812" lon="32.536296"><ele>164.4</ele><time>2015-04-27T06:44:24.0000000+00:00</time></trkpt><trkpt lat="35.0951876" lon="32.5363594"><ele>164.8</ele><time>2015-04-27T06:44:26.0000000+00:00</time></trkpt><trkpt lat="35.095176" lon="32.5364223"><ele>165.4</ele><time>2015-04-27T06:44:28.0000000+00:00</time></trkpt><trkpt lat="35.0951329" lon="32.5364733"><ele>165.3</ele><time>2015-04-27T06:44:30.0000000+00:00</time></trkpt><trkpt lat="35.0950811" lon="32.5365168"><ele>165.0</ele><time>2015-04-27T06:44:32.0000000+00:00</time></trkpt><trkpt lat="35.0950343" lon="32.5365661"><ele>164.5</ele><time>2015-04-27T06:44:34.0000000+00:00</time></trkpt><trkpt lat="35.0949971" lon="32.536627"><ele>164.1</ele><time>2015-04-27T06:44:36.0000000+00:00</time></trkpt><trkpt lat="35.0949761" lon="32.5366993"><ele>162.0</ele><time>2015-04-27T06:44:38.0000000+00:00</time></trkpt><trkpt lat="35.0949611" lon="32.5367828"><ele>161.9</ele><time>2015-04-27T06:44:40.0000000+00:00</time></trkpt><trkpt lat="35.0949529" lon="32.5368672"><ele>161.9</ele><time>2015-04-27T06:44:42.0000000+00:00</time></trkpt><trkpt lat="35.0949472" lon="32.5369393"><ele>162.4</ele><time>2015-04-27T06:44:44.0000000+00:00</time></trkpt><trkpt lat="35.0949359" lon="32.5370113"><ele>163.7</ele><time>2015-04-27T06:44:47.0000000+00:00</time></trkpt><trkpt lat="35.09493" lon="32.5370802"><ele>163.3</ele><time>2015-04-27T06:44:51.0000000+00:00</time></trkpt><trkpt lat="35.0949314" lon="32.5371407"><ele>163.2</ele><time>2015-04-27T06:44:55.0000000+00:00</time></trkpt><trkpt lat="35.0949089" lon="32.5372024"><ele>162.1</ele><time>2015-04-27T06:44:59.0000000+00:00</time></trkpt><trkpt lat="35.0949031" lon="32.537266"><ele>161.1</ele><time>2015-04-27T06:45:03.0000000+00:00</time></trkpt><trkpt lat="35.0948885" lon="32.537318"><ele>163.1</ele><time>2015-04-27T06:45:06.0000000+00:00</time></trkpt><trkpt lat="35.0948842" lon="32.5373883"><ele>165.2</ele><time>2015-04-27T06:45:10.0000000+00:00</time></trkpt><trkpt lat="35.0948852" lon="32.5374474"><ele>165.3</ele><time>2015-04-27T06:45:13.0000000+00:00</time></trkpt><trkpt lat="35.094885" lon="32.5375068"><ele>165.7</ele><time>2015-04-27T06:45:16.0000000+00:00</time></trkpt><trkpt lat="35.0948834" lon="32.5375702"><ele>165.9</ele><time>2015-04-27T06:45:19.0000000+00:00</time></trkpt><trkpt lat="35.0948748" lon="32.5376366"><ele>165.9</ele><time>2015-04-27T06:45:22.0000000+00:00</time></trkpt><trkpt lat="35.0948564" lon="32.5377069"><ele>165.9</ele><time>2015-04-27T06:45:25.0000000+00:00</time></trkpt><trkpt lat="35.0948339" lon="32.5377842"><ele>166.8</ele><time>2015-04-27T06:45:28.0000000+00:00</time></trkpt><trkpt lat="35.094807" lon="32.5378493"><ele>168.2</ele><time>2015-04-27T06:45:31.0000000+00:00</time></trkpt><trkpt lat="35.0947808" lon="32.5379035"><ele>168.8</ele><time>2015-04-27T06:45:34.0000000+00:00</time></trkpt><trkpt lat="35.0947539" lon="32.5379573"><ele>169.8</ele><time>2015-04-27T06:45:37.0000000+00:00</time></trkpt><trkpt lat="35.0947376" lon="32.5380215"><ele>169.3</ele><time>2015-04-27T06:45:40.0000000+00:00</time></trkpt><trkpt lat="35.0947307" lon="32.5380878"><ele>170.7</ele><time>2015-04-27T06:45:43.0000000+00:00</time></trkpt><trkpt lat="35.094737" lon="32.5381609"><ele>170.2</ele><time>2015-04-27T06:45:46.0000000+00:00</time></trkpt><trkpt lat="35.0947412" lon="32.538229"><ele>170.7</ele><time>2015-04-27T06:45:49.0000000+00:00</time></trkpt><trkpt lat="35.0947579" lon="32.5383028"><ele>171.9</ele><time>2015-04-27T06:45:52.0000000+00:00</time></trkpt><trkpt lat="35.0947771" lon="32.5383699"><ele>172.8</ele><time>2015-04-27T06:45:55.0000000+00:00</time></trkpt><trkpt lat="35.0947986" lon="32.538444"><ele>172.3</ele><time>2015-04-27T06:45:58.0000000+00:00</time></trkpt><trkpt lat="35.0948033" lon="32.538517"><ele>171.5</ele><time>2015-04-27T06:46:01.0000000+00:00</time></trkpt><trkpt lat="35.0947631" lon="32.5385689"><ele>170.6</ele><time>2015-04-27T06:46:04.0000000+00:00</time></trkpt><trkpt lat="35.0947087" lon="32.5385953"><ele>170.8</ele><time>2015-04-27T06:46:07.0000000+00:00</time></trkpt><trkpt lat="35.0946471" lon="32.5386212"><ele>170.2</ele><time>2015-04-27T06:46:10.0000000+00:00</time></trkpt><trkpt lat="35.0945849" lon="32.5386444"><ele>170.2</ele><time>2015-04-27T06:46:13.0000000+00:00</time></trkpt><trkpt lat="35.0945228" lon="32.5386702"><ele>173.3</ele><time>2015-04-27T06:46:16.0000000+00:00</time></trkpt><trkpt lat="35.094472" lon="32.5387099"><ele>174.7</ele><time>2015-04-27T06:46:19.0000000+00:00</time></trkpt><trkpt lat="35.094436" lon="32.5387518"><ele>175.4</ele><time>2015-04-27T06:46:22.0000000+00:00</time></trkpt><trkpt lat="35.094405" lon="32.5388022"><ele>175.0</ele><time>2015-04-27T06:46:25.0000000+00:00</time></trkpt><trkpt lat="35.094375" lon="32.5388654"><ele>173.2</ele><time>2015-04-27T06:46:29.0000000+00:00</time></trkpt><trkpt lat="35.0943523" lon="32.5389181"><ele>173.5</ele><time>2015-04-27T06:46:32.0000000+00:00</time></trkpt><trkpt lat="35.0943271" lon="32.5389741"><ele>175.2</ele><time>2015-04-27T06:46:35.0000000+00:00</time></trkpt><trkpt lat="35.0943043" lon="32.539025"><ele>176.7</ele><time>2015-04-27T06:46:38.0000000+00:00</time></trkpt><trkpt lat="35.0942995" lon="32.5390879"><ele>177.2</ele><time>2015-04-27T06:46:41.0000000+00:00</time></trkpt><trkpt lat="35.094292" lon="32.539152"><ele>177.8</ele><time>2015-04-27T06:46:44.0000000+00:00</time></trkpt><trkpt lat="35.0942773" lon="32.5392111"><ele>177.8</ele><time>2015-04-27T06:46:47.0000000+00:00</time></trkpt><trkpt lat="35.094262" lon="32.5392657"><ele>177.9</ele><time>2015-04-27T06:46:50.0000000+00:00</time></trkpt><trkpt lat="35.0942614" lon="32.539335"><ele>178.2</ele><time>2015-04-27T06:46:54.0000000+00:00</time></trkpt><trkpt lat="35.0942476" lon="32.5394008"><ele>182.4</ele><time>2015-04-27T06:46:58.0000000+00:00</time></trkpt><trkpt lat="35.0942289" lon="32.5394683"><ele>185.9</ele><time>2015-04-27T06:47:02.0000000+00:00</time></trkpt><trkpt lat="35.0942263" lon="32.5395348"><ele>185.9</ele><time>2015-04-27T06:47:06.0000000+00:00</time></trkpt><trkpt lat="35.0942302" lon="32.5395936"><ele>185.7</ele><time>2015-04-27T06:47:10.0000000+00:00</time></trkpt><trkpt lat="35.0942397" lon="32.539654"><ele>184.2</ele><time>2015-04-27T06:47:14.0000000+00:00</time></trkpt><trkpt lat="35.0942443" lon="32.5397158"><ele>184.7</ele><time>2015-04-27T06:47:19.0000000+00:00</time></trkpt><trkpt lat="35.0942366" lon="32.5397815"><ele>184.0</ele><time>2015-04-27T06:47:24.0000000+00:00</time></trkpt><trkpt lat="35.094213" lon="32.5398409"><ele>185.1</ele><time>2015-04-27T06:47:29.0000000+00:00</time></trkpt><trkpt lat="35.0941709" lon="32.5398775"><ele>186.6</ele><time>2015-04-27T06:47:34.0000000+00:00</time></trkpt><trkpt lat="35.0941323" lon="32.5399236"><ele>188.5</ele><time>2015-04-27T06:47:39.0000000+00:00</time></trkpt><trkpt lat="35.0940861" lon="32.5399496"><ele>190.9</ele><time>2015-04-27T06:53:11.0000000+00:00</time></trkpt><trkpt lat="35.094061" lon="32.5400008"><ele>190.0</ele><time>2015-04-27T06:53:18.0000000+00:00</time></trkpt><trkpt lat="35.0940438" lon="32.5400762"><ele>190.2</ele><time>2015-04-27T06:53:22.0000000+00:00</time></trkpt><trkpt lat="35.0940556" lon="32.5401422"><ele>189.5</ele><time>2015-04-27T06:53:24.0000000+00:00</time></trkpt><trkpt lat="35.0940883" lon="32.5402137"><ele>190.1</ele><time>2015-04-27T06:53:26.0000000+00:00</time></trkpt><trkpt lat="35.0941254" lon="32.5402883"><ele>190.0</ele><time>2015-04-27T06:53:28.0000000+00:00</time></trkpt><trkpt lat="35.0941601" lon="32.5403636"><ele>189.4</ele><time>2015-04-27T06:53:30.0000000+00:00</time></trkpt><trkpt lat="35.0941868" lon="32.5404492"><ele>189.1</ele><time>2015-04-27T06:53:32.0000000+00:00</time></trkpt><trkpt lat="35.0942066" lon="32.5405307"><ele>189.5</ele><time>2015-04-27T06:53:34.0000000+00:00</time></trkpt><trkpt lat="35.0942241" lon="32.540608"><ele>190.6</ele><time>2015-04-27T06:53:36.0000000+00:00</time></trkpt><trkpt lat="35.0942297" lon="32.5406785"><ele>190.1</ele><time>2015-04-27T06:53:38.0000000+00:00</time></trkpt><trkpt lat="35.0942302" lon="32.5407429"><ele>189.2</ele><time>2015-04-27T06:53:40.0000000+00:00</time></trkpt><trkpt lat="35.0942092" lon="32.5408058"><ele>186.5</ele><time>2015-04-27T06:53:43.0000000+00:00</time></trkpt><trkpt lat="35.0941521" lon="32.5408047"><ele>184.3</ele><time>2015-04-27T06:53:47.0000000+00:00</time></trkpt><trkpt lat="35.0941075" lon="32.5407592"><ele>185.2</ele><time>2015-04-27T06:53:50.0000000+00:00</time></trkpt><trkpt lat="35.0940649" lon="32.5407127"><ele>184.3</ele><time>2015-04-27T06:53:53.0000000+00:00</time></trkpt><trkpt lat="35.0940129" lon="32.5406737"><ele>182.7</ele><time>2015-04-27T06:53:56.0000000+00:00</time></trkpt><trkpt lat="35.0939634" lon="32.5406636"><ele>181.4</ele><time>2015-04-27T06:53:58.0000000+00:00</time></trkpt><trkpt lat="35.0939076" lon="32.5406658"><ele>181.5</ele><time>2015-04-27T06:54:00.0000000+00:00</time></trkpt><trkpt lat="35.093848" lon="32.5406788"><ele>181.6</ele><time>2015-04-27T06:54:02.0000000+00:00</time></trkpt><trkpt lat="35.0937926" lon="32.5407006"><ele>180.8</ele><time>2015-04-27T06:54:04.0000000+00:00</time></trkpt><trkpt lat="35.0937445" lon="32.5407272"><ele>178.9</ele><time>2015-04-27T06:54:06.0000000+00:00</time></trkpt><trkpt lat="35.0936962" lon="32.5407599"><ele>180.4</ele><time>2015-04-27T06:54:08.0000000+00:00</time></trkpt><trkpt lat="35.0936544" lon="32.5407972"><ele>180.8</ele><time>2015-04-27T06:54:10.0000000+00:00</time></trkpt><trkpt lat="35.0936302" lon="32.5408476"><ele>181.4</ele><time>2015-04-27T06:54:12.0000000+00:00</time></trkpt><trkpt lat="35.0936068" lon="32.5408954"><ele>181.3</ele><time>2015-04-27T06:54:14.0000000+00:00</time></trkpt><trkpt lat="35.0935838" lon="32.5409448"><ele>181.0</ele><time>2015-04-27T06:54:16.0000000+00:00</time></trkpt><trkpt lat="35.0935626" lon="32.5410054"><ele>181.2</ele><time>2015-04-27T06:54:18.0000000+00:00</time></trkpt><trkpt lat="35.0935425" lon="32.5410837"><ele>180.5</ele><time>2015-04-27T06:54:20.0000000+00:00</time></trkpt><trkpt lat="35.0935379" lon="32.5411663"><ele>180.1</ele><time>2015-04-27T06:54:22.0000000+00:00</time></trkpt><trkpt lat="35.0935434" lon="32.5412464"><ele>180.2</ele><time>2015-04-27T06:54:24.0000000+00:00</time></trkpt><trkpt lat="35.0935434" lon="32.5413223"><ele>180.0</ele><time>2015-04-27T06:54:26.0000000+00:00</time></trkpt><trkpt lat="35.0935266" lon="32.5413935"><ele>180.2</ele><time>2015-04-27T06:54:28.0000000+00:00</time></trkpt><trkpt lat="35.0934993" lon="32.5414508"><ele>180.5</ele><time>2015-04-27T06:54:30.0000000+00:00</time></trkpt><trkpt lat="35.0934596" lon="32.5414945"><ele>180.8</ele><time>2015-04-27T06:54:32.0000000+00:00</time></trkpt><trkpt lat="35.093411" lon="32.5415368"><ele>181.7</ele><time>2015-04-27T06:54:34.0000000+00:00</time></trkpt><trkpt lat="35.0933566" lon="32.5415746"><ele>181.9</ele><time>2015-04-27T06:54:36.0000000+00:00</time></trkpt><trkpt lat="35.0933031" lon="32.541613"><ele>182.4</ele><time>2015-04-27T06:54:38.0000000+00:00</time></trkpt><trkpt lat="35.0932486" lon="32.5416542"><ele>183.8</ele><time>2015-04-27T06:54:40.0000000+00:00</time></trkpt><trkpt lat="35.0931956" lon="32.5417016"><ele>185.9</ele><time>2015-04-27T06:54:42.0000000+00:00</time></trkpt><trkpt lat="35.0931443" lon="32.5417471"><ele>186.2</ele><time>2015-04-27T06:54:44.0000000+00:00</time></trkpt><trkpt lat="35.0930992" lon="32.5417924"><ele>186.2</ele><time>2015-04-27T06:54:46.0000000+00:00</time></trkpt><trkpt lat="35.0930591" lon="32.5418368"><ele>186.5</ele><time>2015-04-27T06:54:48.0000000+00:00</time></trkpt><trkpt lat="35.0930152" lon="32.5418736"><ele>186.8</ele><time>2015-04-27T06:54:50.0000000+00:00</time></trkpt><trkpt lat="35.0929966" lon="32.5419313"><ele>186.5</ele><time>2015-04-27T06:54:53.0000000+00:00</time></trkpt><trkpt lat="35.0929714" lon="32.5419775"><ele>186.9</ele><time>2015-04-27T06:54:56.0000000+00:00</time></trkpt><trkpt lat="35.0929362" lon="32.542041"><ele>185.2</ele><time>2015-04-27T06:55:00.0000000+00:00</time></trkpt><trkpt lat="35.0928934" lon="32.5421006"><ele>184.1</ele><time>2015-04-27T06:55:03.0000000+00:00</time></trkpt><trkpt lat="35.0928495" lon="32.542159"><ele>183.5</ele><time>2015-04-27T06:55:05.0000000+00:00</time></trkpt><trkpt lat="35.092811" lon="32.542227"><ele>181.8</ele><time>2015-04-27T06:55:07.0000000+00:00</time></trkpt><trkpt lat="35.0927933" lon="32.542296"><ele>181.4</ele><time>2015-04-27T06:55:09.0000000+00:00</time></trkpt><trkpt lat="35.0927957" lon="32.5423596"><ele>181.3</ele><time>2015-04-27T06:55:11.0000000+00:00</time></trkpt><trkpt lat="35.0928228" lon="32.5424269"><ele>181.4</ele><time>2015-04-27T06:55:14.0000000+00:00</time></trkpt><trkpt lat="35.0928659" lon="32.5424572"><ele>181.5</ele><time>2015-04-27T06:55:17.0000000+00:00</time></trkpt><trkpt lat="35.092902" lon="32.5425089"><ele>179.7</ele><time>2015-04-27T06:55:20.0000000+00:00</time></trkpt><trkpt lat="35.0929262" lon="32.5425747"><ele>177.9</ele><time>2015-04-27T06:55:23.0000000+00:00</time></trkpt><trkpt lat="35.092912" lon="32.5426304"><ele>177.2</ele><time>2015-04-27T06:55:26.0000000+00:00</time></trkpt><trkpt lat="35.0928657" lon="32.5426281"><ele>174.7</ele><time>2015-04-27T06:55:29.0000000+00:00</time></trkpt><trkpt lat="35.092813" lon="32.5426066"><ele>173.6</ele><time>2015-04-27T06:56:13.0000000+00:00</time></trkpt><trkpt lat="35.0927596" lon="32.5425894"><ele>173.8</ele><time>2015-04-27T06:56:16.0000000+00:00</time></trkpt><trkpt lat="35.0927065" lon="32.5425576"><ele>171.4</ele><time>2015-04-27T06:56:19.0000000+00:00</time></trkpt><trkpt lat="35.0926611" lon="32.542539"><ele>170.9</ele><time>2015-04-27T06:56:22.0000000+00:00</time></trkpt><trkpt lat="35.0926111" lon="32.5425613"><ele>174.1</ele><time>2015-04-27T06:56:56.0000000+00:00</time></trkpt><trkpt lat="35.0925765" lon="32.5426195"><ele>172.9</ele><time>2015-04-27T06:56:59.0000000+00:00</time></trkpt><trkpt lat="35.0925478" lon="32.5426807"><ele>171.4</ele><time>2015-04-27T06:57:02.0000000+00:00</time></trkpt><trkpt lat="35.0925148" lon="32.5427196"><ele>170.8</ele><time>2015-04-27T06:57:04.0000000+00:00</time></trkpt><trkpt lat="35.0924727" lon="32.5427502"><ele>170.0</ele><time>2015-04-27T06:57:07.0000000+00:00</time></trkpt><trkpt lat="35.0924345" lon="32.5427942"><ele>168.8</ele><time>2015-04-27T06:57:12.0000000+00:00</time></trkpt><trkpt lat="35.0923781" lon="32.5428102"><ele>171.6</ele><time>2015-04-27T06:57:19.0000000+00:00</time></trkpt><trkpt lat="35.0923365" lon="32.5427821"><ele>173.6</ele><time>2015-04-27T06:57:23.0000000+00:00</time></trkpt><trkpt lat="35.0923052" lon="32.5427398"><ele>174.6</ele><time>2015-04-27T06:57:26.0000000+00:00</time></trkpt><trkpt lat="35.092294" lon="32.5426728"><ele>173.8</ele><time>2015-04-27T06:58:20.0000000+00:00</time></trkpt><trkpt lat="35.0923176" lon="32.5426151"><ele>176.2</ele><time>2015-04-27T06:58:24.0000000+00:00</time></trkpt><trkpt lat="35.092337" lon="32.5425562"><ele>177.8</ele><time>2015-04-27T06:58:29.0000000+00:00</time></trkpt><trkpt lat="35.0923589" lon="32.5424959"><ele>178.4</ele><time>2015-04-27T06:58:34.0000000+00:00</time></trkpt><trkpt lat="35.0923713" lon="32.5424368"><ele>178.0</ele><time>2015-04-27T06:58:38.0000000+00:00</time></trkpt><trkpt lat="35.0923902" lon="32.5423783"><ele>177.4</ele><time>2015-04-27T06:58:42.0000000+00:00</time></trkpt><trkpt lat="35.0923958" lon="32.5423183"><ele>176.0</ele><time>2015-04-27T06:58:47.0000000+00:00</time></trkpt><trkpt lat="35.0923825" lon="32.5422609"><ele>175.0</ele><time>2015-04-27T06:58:52.0000000+00:00</time></trkpt><trkpt lat="35.0923662" lon="32.5422039"><ele>176.0</ele><time>2015-04-27T06:59:02.0000000+00:00</time></trkpt><trkpt lat="35.0923259" lon="32.5421631"><ele>176.8</ele><time>2015-04-27T06:59:07.0000000+00:00</time></trkpt><trkpt lat="35.0922701" lon="32.5421454"><ele>176.7</ele><time>2015-04-27T06:59:11.0000000+00:00</time></trkpt><trkpt lat="35.0922096" lon="32.5421542"><ele>176.1</ele><time>2015-04-27T06:59:14.0000000+00:00</time></trkpt><trkpt lat="35.0921663" lon="32.5421788"><ele>176.5</ele><time>2015-04-27T06:59:16.0000000+00:00</time></trkpt><trkpt lat="35.0921232" lon="32.5422144"><ele>176.4</ele><time>2015-04-27T06:59:19.0000000+00:00</time></trkpt><trkpt lat="35.0920706" lon="32.5422431"><ele>177.6</ele><time>2015-04-27T06:59:23.0000000+00:00</time></trkpt><trkpt lat="35.0920166" lon="32.5422304"><ele>181.6</ele><time>2015-04-27T06:59:27.0000000+00:00</time></trkpt><trkpt lat="35.0919943" lon="32.5421775"><ele>180.4</ele><time>2015-04-27T06:59:30.0000000+00:00</time></trkpt><trkpt lat="35.0920108" lon="32.5421143"><ele>181.7</ele><time>2015-04-27T06:59:33.0000000+00:00</time></trkpt><trkpt lat="35.0920273" lon="32.5420531"><ele>182.8</ele><time>2015-04-27T06:59:36.0000000+00:00</time></trkpt><trkpt lat="35.0920438" lon="32.5420012"><ele>182.4</ele><time>2015-04-27T06:59:39.0000000+00:00</time></trkpt><trkpt lat="35.0920643" lon="32.5419488"><ele>182.0</ele><time>2015-04-27T06:59:42.0000000+00:00</time></trkpt><trkpt lat="35.092092" lon="32.5418964"><ele>180.3</ele><time>2015-04-27T06:59:45.0000000+00:00</time></trkpt><trkpt lat="35.0921228" lon="32.5418367"><ele>180.5</ele><time>2015-04-27T06:59:48.0000000+00:00</time></trkpt><trkpt lat="35.0921422" lon="32.5417838"><ele>180.8</ele><time>2015-04-27T06:59:50.0000000+00:00</time></trkpt><trkpt lat="35.0921472" lon="32.5417245"><ele>180.9</ele><time>2015-04-27T06:59:52.0000000+00:00</time></trkpt><trkpt lat="35.092147" lon="32.5416661"><ele>180.2</ele><time>2015-04-27T06:59:54.0000000+00:00</time></trkpt><trkpt lat="35.092141" lon="32.541605"><ele>180.7</ele><time>2015-04-27T06:59:56.0000000+00:00</time></trkpt><trkpt lat="35.0921332" lon="32.5415421"><ele>180.9</ele><time>2015-04-27T06:59:58.0000000+00:00</time></trkpt><trkpt lat="35.0921271" lon="32.5414689"><ele>180.9</ele><time>2015-04-27T07:00:00.0000000+00:00</time></trkpt><trkpt lat="35.0921284" lon="32.5413968"><ele>181.4</ele><time>2015-04-27T07:00:02.0000000+00:00</time></trkpt><trkpt lat="35.0921337" lon="32.541335"><ele>181.8</ele><time>2015-04-27T07:00:04.0000000+00:00</time></trkpt><trkpt lat="35.09214" lon="32.5412729"><ele>182.4</ele><time>2015-04-27T07:00:06.0000000+00:00</time></trkpt><trkpt lat="35.0921439" lon="32.5412118"><ele>182.8</ele><time>2015-04-27T07:00:08.0000000+00:00</time></trkpt><trkpt lat="35.0921477" lon="32.5411529"><ele>182.9</ele><time>2015-04-27T07:00:10.0000000+00:00</time></trkpt><trkpt lat="35.092161" lon="32.5410965"><ele>183.7</ele><time>2015-04-27T07:00:12.0000000+00:00</time></trkpt><trkpt lat="35.0921636" lon="32.5410333"><ele>184.8</ele><time>2015-04-27T07:00:16.0000000+00:00</time></trkpt><trkpt lat="35.0921224" lon="32.5410007"><ele>184.4</ele><time>2015-04-27T07:00:20.0000000+00:00</time></trkpt><trkpt lat="35.092084" lon="32.5409431"><ele>184.0</ele><time>2015-04-27T07:00:23.0000000+00:00</time></trkpt><trkpt lat="35.0920404" lon="32.5408882"><ele>183.9</ele><time>2015-04-27T07:00:25.0000000+00:00</time></trkpt><trkpt lat="35.0919883" lon="32.5408481"><ele>184.4</ele><time>2015-04-27T07:00:27.0000000+00:00</time></trkpt><trkpt lat="35.0919351" lon="32.5408165"><ele>184.3</ele><time>2015-04-27T07:00:29.0000000+00:00</time></trkpt><trkpt lat="35.091874" lon="32.5408016"><ele>184.0</ele><time>2015-04-27T07:00:32.0000000+00:00</time></trkpt><trkpt lat="35.0918218" lon="32.5408051"><ele>185.6</ele><time>2015-04-27T07:00:35.0000000+00:00</time></trkpt><trkpt lat="35.0917821" lon="32.5408401"><ele>185.9</ele><time>2015-04-27T07:00:38.0000000+00:00</time></trkpt><trkpt lat="35.0917889" lon="32.5409091"><ele>185.4</ele><time>2015-04-27T07:00:42.0000000+00:00</time></trkpt><trkpt lat="35.0918206" lon="32.5409491"><ele>185.9</ele><time>2015-04-27T07:00:45.0000000+00:00</time></trkpt><trkpt lat="35.0918556" lon="32.5410042"><ele>187.3</ele><time>2015-04-27T07:00:49.0000000+00:00</time></trkpt><trkpt lat="35.0918785" lon="32.5410706"><ele>188.4</ele><time>2015-04-27T07:00:53.0000000+00:00</time></trkpt><trkpt lat="35.0919015" lon="32.5411179"><ele>190.5</ele><time>2015-04-27T07:00:56.0000000+00:00</time></trkpt><trkpt lat="35.0919209" lon="32.5411688"><ele>190.7</ele><time>2015-04-27T07:00:59.0000000+00:00</time></trkpt><trkpt lat="35.0919382" lon="32.5412252"><ele>190.9</ele><time>2015-04-27T07:01:02.0000000+00:00</time></trkpt><trkpt lat="35.0919506" lon="32.5412817"><ele>191.7</ele><time>2015-04-27T07:01:05.0000000+00:00</time></trkpt><trkpt lat="35.0919603" lon="32.5413418"><ele>191.1</ele><time>2015-04-27T07:01:08.0000000+00:00</time></trkpt><trkpt lat="35.0919662" lon="32.5414005"><ele>190.5</ele><time>2015-04-27T07:01:11.0000000+00:00</time></trkpt><trkpt lat="35.0919717" lon="32.5414584"><ele>190.9</ele><time>2015-04-27T07:01:14.0000000+00:00</time></trkpt><trkpt lat="35.0919658" lon="32.541515"><ele>190.9</ele><time>2015-04-27T07:01:17.0000000+00:00</time></trkpt><trkpt lat="35.0919528" lon="32.5415697"><ele>190.1</ele><time>2015-04-27T07:01:20.0000000+00:00</time></trkpt><trkpt lat="35.0919407" lon="32.5416243"><ele>190.8</ele><time>2015-04-27T07:01:23.0000000+00:00</time></trkpt><trkpt lat="35.0919311" lon="32.5416791"><ele>190.8</ele><time>2015-04-27T07:01:26.0000000+00:00</time></trkpt><trkpt lat="35.091913" lon="32.5417362"><ele>190.9</ele><time>2015-04-27T07:01:29.0000000+00:00</time></trkpt><trkpt lat="35.0918895" lon="32.5417896"><ele>190.9</ele><time>2015-04-27T07:01:32.0000000+00:00</time></trkpt><trkpt lat="35.091867" lon="32.5418409"><ele>191.8</ele><time>2015-04-27T07:01:35.0000000+00:00</time></trkpt><trkpt lat="35.091853" lon="32.5418936"><ele>192.4</ele><time>2015-04-27T07:01:38.0000000+00:00</time></trkpt><trkpt lat="35.0918269" lon="32.5419564"><ele>192.1</ele><time>2015-04-27T07:01:42.0000000+00:00</time></trkpt><trkpt lat="35.091803" lon="32.5420172"><ele>192.7</ele><time>2015-04-27T07:01:46.0000000+00:00</time></trkpt><trkpt lat="35.0917711" lon="32.5420747"><ele>193.4</ele><time>2015-04-27T07:01:50.0000000+00:00</time></trkpt><trkpt lat="35.0917347" lon="32.5421385"><ele>193.9</ele><time>2015-04-27T07:01:54.0000000+00:00</time></trkpt><trkpt lat="35.0917067" lon="32.5422012"><ele>193.9</ele><time>2015-04-27T07:01:57.0000000+00:00</time></trkpt><trkpt lat="35.0916884" lon="32.5422575"><ele>194.1</ele><time>2015-04-27T07:02:00.0000000+00:00</time></trkpt><trkpt lat="35.0916721" lon="32.5423135"><ele>194.8</ele><time>2015-04-27T07:02:03.0000000+00:00</time></trkpt><trkpt lat="35.0916834" lon="32.5423765"><ele>194.9</ele><time>2015-04-27T07:02:06.0000000+00:00</time></trkpt><trkpt lat="35.0917144" lon="32.5424317"><ele>195.8</ele><time>2015-04-27T07:02:09.0000000+00:00</time></trkpt><trkpt lat="35.091742" lon="32.5424773"><ele>195.0</ele><time>2015-04-27T07:02:12.0000000+00:00</time></trkpt><trkpt lat="35.091771" lon="32.5425239"><ele>194.4</ele><time>2015-04-27T07:02:16.0000000+00:00</time></trkpt><trkpt lat="35.0917992" lon="32.5425748"><ele>194.4</ele><time>2015-04-27T07:02:19.0000000+00:00</time></trkpt><trkpt lat="35.0918321" lon="32.5426479"><ele>194.5</ele><time>2015-04-27T07:02:22.0000000+00:00</time></trkpt><trkpt lat="35.091853" lon="32.542697"><ele>194.8</ele><time>2015-04-27T07:02:24.0000000+00:00</time></trkpt><trkpt lat="35.0918769" lon="32.5427439"><ele>195.7</ele><time>2015-04-27T07:02:26.0000000+00:00</time></trkpt><trkpt lat="35.0919051" lon="32.542791"><ele>195.9</ele><time>2015-04-27T07:02:28.0000000+00:00</time></trkpt><trkpt lat="35.0919226" lon="32.5428445"><ele>195.9</ele><time>2015-04-27T07:02:30.0000000+00:00</time></trkpt><trkpt lat="35.091937" lon="32.5428999"><ele>195.9</ele><time>2015-04-27T07:02:32.0000000+00:00</time></trkpt><trkpt lat="35.0919582" lon="32.5429548"><ele>197.2</ele><time>2015-04-27T07:02:34.0000000+00:00</time></trkpt><trkpt lat="35.0919727" lon="32.543018"><ele>197.7</ele><time>2015-04-27T07:02:36.0000000+00:00</time></trkpt><trkpt lat="35.0919814" lon="32.5430879"><ele>197.9</ele><time>2015-04-27T07:02:38.0000000+00:00</time></trkpt><trkpt lat="35.0919897" lon="32.543143"><ele>198.4</ele><time>2015-04-27T07:02:40.0000000+00:00</time></trkpt><trkpt lat="35.0920042" lon="32.5432116"><ele>198.0</ele><time>2015-04-27T07:02:43.0000000+00:00</time></trkpt><trkpt lat="35.0920079" lon="32.5432695"><ele>197.9</ele><time>2015-04-27T07:02:45.0000000+00:00</time></trkpt><trkpt lat="35.0920102" lon="32.543334"><ele>197.9</ele><time>2015-04-27T07:02:47.0000000+00:00</time></trkpt><trkpt lat="35.0920065" lon="32.5433978"><ele>197.9</ele><time>2015-04-27T07:02:49.0000000+00:00</time></trkpt><trkpt lat="35.0920012" lon="32.5434648"><ele>198.7</ele><time>2015-04-27T07:02:51.0000000+00:00</time></trkpt><trkpt lat="35.0920066" lon="32.54353"><ele>199.6</ele><time>2015-04-27T07:02:53.0000000+00:00</time></trkpt><trkpt lat="35.0920242" lon="32.5435927"><ele>199.1</ele><time>2015-04-27T07:02:55.0000000+00:00</time></trkpt><trkpt lat="35.0920416" lon="32.543652"><ele>199.7</ele><time>2015-04-27T07:02:57.0000000+00:00</time></trkpt><trkpt lat="35.092065" lon="32.5437274"><ele>200.8</ele><time>2015-04-27T07:03:00.0000000+00:00</time></trkpt><trkpt lat="35.0920775" lon="32.5437811"><ele>201.6</ele><time>2015-04-27T07:03:02.0000000+00:00</time></trkpt><trkpt lat="35.0920836" lon="32.5438386"><ele>201.1</ele><time>2015-04-27T07:03:04.0000000+00:00</time></trkpt><trkpt lat="35.0920852" lon="32.5439015"><ele>200.7</ele><time>2015-04-27T07:03:06.0000000+00:00</time></trkpt><trkpt lat="35.0920834" lon="32.5439675"><ele>200.9</ele><time>2015-04-27T07:03:08.0000000+00:00</time></trkpt><trkpt lat="35.0920758" lon="32.5440265"><ele>200.9</ele><time>2015-04-27T07:03:10.0000000+00:00</time></trkpt><trkpt lat="35.0920699" lon="32.5440832"><ele>200.1</ele><time>2015-04-27T07:03:13.0000000+00:00</time></trkpt><trkpt lat="35.0920759" lon="32.5441567"><ele>200.3</ele><time>2015-04-27T07:03:16.0000000+00:00</time></trkpt><trkpt lat="35.0920874" lon="32.5442129"><ele>200.0</ele><time>2015-04-27T07:03:18.0000000+00:00</time></trkpt><trkpt lat="35.092102" lon="32.5442709"><ele>200.0</ele><time>2015-04-27T07:03:20.0000000+00:00</time></trkpt><trkpt lat="35.0921226" lon="32.5443266"><ele>201.2</ele><time>2015-04-27T07:03:22.0000000+00:00</time></trkpt><trkpt lat="35.0921296" lon="32.5443895"><ele>201.2</ele><time>2015-04-27T07:03:24.0000000+00:00</time></trkpt><trkpt lat="35.0921271" lon="32.5444524"><ele>201.0</ele><time>2015-04-27T07:03:26.0000000+00:00</time></trkpt><trkpt lat="35.0921263" lon="32.5445159"><ele>200.4</ele><time>2015-04-27T07:03:28.0000000+00:00</time></trkpt><trkpt lat="35.0921233" lon="32.5445761"><ele>200.1</ele><time>2015-04-27T07:03:30.0000000+00:00</time></trkpt><trkpt lat="35.0921176" lon="32.5446406"><ele>200.0</ele><time>2015-04-27T07:03:32.0000000+00:00</time></trkpt><trkpt lat="35.0921096" lon="32.5447029"><ele>200.2</ele><time>2015-04-27T07:03:34.0000000+00:00</time></trkpt><trkpt lat="35.0921022" lon="32.5447718"><ele>200.0</ele><time>2015-04-27T07:03:36.0000000+00:00</time></trkpt><trkpt lat="35.0920895" lon="32.5448473"><ele>199.9</ele><time>2015-04-27T07:03:38.0000000+00:00</time></trkpt><trkpt lat="35.0920751" lon="32.5449139"><ele>199.9</ele><time>2015-04-27T07:03:40.0000000+00:00</time></trkpt><trkpt lat="35.0920612" lon="32.5449935"><ele>199.9</ele><time>2015-04-27T07:03:43.0000000+00:00</time></trkpt><trkpt lat="35.0920548" lon="32.5450742"><ele>199.7</ele><time>2015-04-27T07:03:46.0000000+00:00</time></trkpt><trkpt lat="35.0920481" lon="32.5451322"><ele>199.6</ele><time>2015-04-27T07:03:48.0000000+00:00</time></trkpt><trkpt lat="35.0920411" lon="32.5451992"><ele>199.9</ele><time>2015-04-27T07:03:50.0000000+00:00</time></trkpt><trkpt lat="35.0920355" lon="32.5452625"><ele>199.9</ele><time>2015-04-27T07:03:52.0000000+00:00</time></trkpt><trkpt lat="35.0920252" lon="32.5453229"><ele>200.7</ele><time>2015-04-27T07:03:54.0000000+00:00</time></trkpt><trkpt lat="35.0920092" lon="32.5453824"><ele>201.6</ele><time>2015-04-27T07:03:56.0000000+00:00</time></trkpt><trkpt lat="35.0919907" lon="32.5454392"><ele>201.9</ele><time>2015-04-27T07:03:58.0000000+00:00</time></trkpt><trkpt lat="35.0919675" lon="32.5454922"><ele>201.9</ele><time>2015-04-27T07:04:00.0000000+00:00</time></trkpt><trkpt lat="35.091939" lon="32.5455413"><ele>202.7</ele><time>2015-04-27T07:04:02.0000000+00:00</time></trkpt><trkpt lat="35.0919039" lon="32.5455866"><ele>203.6</ele><time>2015-04-27T07:04:04.0000000+00:00</time></trkpt><trkpt lat="35.0918633" lon="32.5456284"><ele>204.4</ele><time>2015-04-27T07:04:06.0000000+00:00</time></trkpt><trkpt lat="35.0918213" lon="32.5456676"><ele>204.8</ele><time>2015-04-27T07:04:08.0000000+00:00</time></trkpt><trkpt lat="35.0917819" lon="32.5457067"><ele>204.9</ele><time>2015-04-27T07:04:10.0000000+00:00</time></trkpt><trkpt lat="35.0917408" lon="32.5457433"><ele>205.4</ele><time>2015-04-27T07:04:12.0000000+00:00</time></trkpt><trkpt lat="35.0916987" lon="32.5457825"><ele>205.3</ele><time>2015-04-27T07:04:14.0000000+00:00</time></trkpt><trkpt lat="35.0916628" lon="32.5458312"><ele>205.8</ele><time>2015-04-27T07:04:16.0000000+00:00</time></trkpt><trkpt lat="35.0916288" lon="32.5458817"><ele>205.9</ele><time>2015-04-27T07:04:18.0000000+00:00</time></trkpt><trkpt lat="35.0915887" lon="32.5459271"><ele>205.9</ele><time>2015-04-27T07:04:20.0000000+00:00</time></trkpt><trkpt lat="35.0915477" lon="32.5459688"><ele>205.9</ele><time>2015-04-27T07:04:22.0000000+00:00</time></trkpt><trkpt lat="35.0914984" lon="32.5460109"><ele>206.7</ele><time>2015-04-27T07:04:25.0000000+00:00</time></trkpt><trkpt lat="35.0914418" lon="32.5460418"><ele>206.9</ele><time>2015-04-27T07:04:28.0000000+00:00</time></trkpt><trkpt lat="35.0913899" lon="32.546068"><ele>206.9</ele><time>2015-04-27T07:04:30.0000000+00:00</time></trkpt><trkpt lat="35.0913382" lon="32.5460886"><ele>206.9</ele><time>2015-04-27T07:04:32.0000000+00:00</time></trkpt><trkpt lat="35.0912842" lon="32.5461056"><ele>206.9</ele><time>2015-04-27T07:04:34.0000000+00:00</time></trkpt><trkpt lat="35.091228" lon="32.5461154"><ele>206.9</ele><time>2015-04-27T07:04:36.0000000+00:00</time></trkpt><trkpt lat="35.0911763" lon="32.5461173"><ele>206.9</ele><time>2015-04-27T07:04:38.0000000+00:00</time></trkpt><trkpt lat="35.0911273" lon="32.5461215"><ele>207.4</ele><time>2015-04-27T07:04:40.0000000+00:00</time></trkpt><trkpt lat="35.0910776" lon="32.5461353"><ele>207.8</ele><time>2015-04-27T07:04:42.0000000+00:00</time></trkpt><trkpt lat="35.0910258" lon="32.5461504"><ele>207.9</ele><time>2015-04-27T07:04:44.0000000+00:00</time></trkpt><trkpt lat="35.0909793" lon="32.5461759"><ele>207.9</ele><time>2015-04-27T07:04:46.0000000+00:00</time></trkpt><trkpt lat="35.0909425" lon="32.5462225"><ele>207.4</ele><time>2015-04-27T07:04:49.0000000+00:00</time></trkpt><trkpt lat="35.0909085" lon="32.5462996"><ele>207.5</ele><time>2015-04-27T07:04:52.0000000+00:00</time></trkpt><trkpt lat="35.0908847" lon="32.546355"><ele>207.8</ele><time>2015-04-27T07:04:54.0000000+00:00</time></trkpt><trkpt lat="35.0908657" lon="32.546411"><ele>207.9</ele><time>2015-04-27T07:04:56.0000000+00:00</time></trkpt><trkpt lat="35.090843" lon="32.5464651"><ele>207.9</ele><time>2015-04-27T07:04:58.0000000+00:00</time></trkpt><trkpt lat="35.0908158" lon="32.5465157"><ele>207.9</ele><time>2015-04-27T07:05:00.0000000+00:00</time></trkpt><trkpt lat="35.0907864" lon="32.5465598"><ele>208.7</ele><time>2015-04-27T07:05:02.0000000+00:00</time></trkpt><trkpt lat="35.0907423" lon="32.5466093"><ele>208.9</ele><time>2015-04-27T07:05:05.0000000+00:00</time></trkpt><trkpt lat="35.0907085" lon="32.5466466"><ele>208.9</ele><time>2015-04-27T07:05:07.0000000+00:00</time></trkpt><trkpt lat="35.0906704" lon="32.5466812"><ele>209.4</ele><time>2015-04-27T07:05:09.0000000+00:00</time></trkpt><trkpt lat="35.09063" lon="32.5467146"><ele>209.8</ele><time>2015-04-27T07:05:11.0000000+00:00</time></trkpt><trkpt lat="35.0905879" lon="32.5467473"><ele>209.9</ele><time>2015-04-27T07:05:13.0000000+00:00</time></trkpt><trkpt lat="35.090545" lon="32.5467772"><ele>209.9</ele><time>2015-04-27T07:05:15.0000000+00:00</time></trkpt><trkpt lat="35.0905015" lon="32.5468056"><ele>209.9</ele><time>2015-04-27T07:05:17.0000000+00:00</time></trkpt><trkpt lat="35.0904556" lon="32.5468274"><ele>209.9</ele><time>2015-04-27T07:05:19.0000000+00:00</time></trkpt><trkpt lat="35.090411" lon="32.5468482"><ele>209.9</ele><time>2015-04-27T07:05:21.0000000+00:00</time></trkpt><trkpt lat="35.0903654" lon="32.5468685"><ele>210.7</ele><time>2015-04-27T07:05:23.0000000+00:00</time></trkpt><trkpt lat="35.0903197" lon="32.5468826"><ele>210.9</ele><time>2015-04-27T07:05:25.0000000+00:00</time></trkpt><trkpt lat="35.0902744" lon="32.546896"><ele>211.4</ele><time>2015-04-27T07:05:27.0000000+00:00</time></trkpt><trkpt lat="35.0902286" lon="32.5469074"><ele>211.8</ele><time>2015-04-27T07:05:29.0000000+00:00</time></trkpt><trkpt lat="35.0901815" lon="32.5469139"><ele>211.9</ele><time>2015-04-27T07:05:31.0000000+00:00</time></trkpt><trkpt lat="35.0901364" lon="32.5469209"><ele>212.4</ele><time>2015-04-27T07:05:33.0000000+00:00</time></trkpt><trkpt lat="35.090092" lon="32.5469318"><ele>212.8</ele><time>2015-04-27T07:05:35.0000000+00:00</time></trkpt><trkpt lat="35.0900489" lon="32.5469504"><ele>213.1</ele><time>2015-04-27T07:05:37.0000000+00:00</time></trkpt><trkpt lat="35.0900087" lon="32.5469806"><ele>213.0</ele><time>2015-04-27T07:05:39.0000000+00:00</time></trkpt><trkpt lat="35.0899708" lon="32.5470122"><ele>212.9</ele><time>2015-04-27T07:05:41.0000000+00:00</time></trkpt><trkpt lat="35.0899225" lon="32.5470652"><ele>213.8</ele><time>2015-04-27T07:05:44.0000000+00:00</time></trkpt><trkpt lat="35.0898898" lon="32.5471035"><ele>214.7</ele><time>2015-04-27T07:05:48.0000000+00:00</time></trkpt><trkpt lat="35.0898573" lon="32.5471491"><ele>214.9</ele><time>2015-04-27T07:05:52.0000000+00:00</time></trkpt><trkpt lat="35.089829" lon="32.5472107"><ele>215.8</ele><time>2015-04-27T07:05:56.0000000+00:00</time></trkpt><trkpt lat="35.0898017" lon="32.5472736"><ele>216.4</ele><time>2015-04-27T07:06:00.0000000+00:00</time></trkpt><trkpt lat="35.089787" lon="32.5473274"><ele>216.9</ele><time>2015-04-27T07:06:03.0000000+00:00</time></trkpt><trkpt lat="35.0897676" lon="32.5473957"><ele>217.8</ele><time>2015-04-27T07:06:07.0000000+00:00</time></trkpt><trkpt lat="35.0897496" lon="32.5474646"><ele>217.9</ele><time>2015-04-27T07:06:11.0000000+00:00</time></trkpt><trkpt lat="35.0897351" lon="32.5475182"><ele>218.4</ele><time>2015-04-27T07:06:14.0000000+00:00</time></trkpt><trkpt lat="35.0897193" lon="32.5475869"><ele>218.6</ele><time>2015-04-27T07:06:18.0000000+00:00</time></trkpt><trkpt lat="35.0897011" lon="32.5476545"><ele>218.9</ele><time>2015-04-27T07:06:22.0000000+00:00</time></trkpt><trkpt lat="35.0896886" lon="32.5477088"><ele>218.9</ele><time>2015-04-27T07:06:25.0000000+00:00</time></trkpt><trkpt lat="35.0896755" lon="32.5477771"><ele>218.7</ele><time>2015-04-27T07:06:28.0000000+00:00</time></trkpt><trkpt lat="35.0896661" lon="32.547845"><ele>218.9</ele><time>2015-04-27T07:06:31.0000000+00:00</time></trkpt><trkpt lat="35.0896608" lon="32.5479115"><ele>218.9</ele><time>2015-04-27T07:06:34.0000000+00:00</time></trkpt><trkpt lat="35.0896644" lon="32.5479743"><ele>220.6</ele><time>2015-04-27T07:06:37.0000000+00:00</time></trkpt><trkpt lat="35.0896723" lon="32.5480358"><ele>220.4</ele><time>2015-04-27T07:06:40.0000000+00:00</time></trkpt><trkpt lat="35.0896865" lon="32.5480964"><ele>220.9</ele><time>2015-04-27T07:06:43.0000000+00:00</time></trkpt><trkpt lat="35.0896948" lon="32.5481569"><ele>220.9</ele><time>2015-04-27T07:06:46.0000000+00:00</time></trkpt><trkpt lat="35.0897031" lon="32.548217"><ele>221.8</ele><time>2015-04-27T07:06:49.0000000+00:00</time></trkpt><trkpt lat="35.0897207" lon="32.5482758"><ele>221.9</ele><time>2015-04-27T07:06:52.0000000+00:00</time></trkpt><trkpt lat="35.0897366" lon="32.5483374"><ele>222.4</ele><time>2015-04-27T07:06:55.0000000+00:00</time></trkpt><trkpt lat="35.089755" lon="32.5483986"><ele>222.7</ele><time>2015-04-27T07:06:58.0000000+00:00</time></trkpt><trkpt lat="35.0897733" lon="32.5484588"><ele>222.9</ele><time>2015-04-27T07:07:01.0000000+00:00</time></trkpt><trkpt lat="35.0897974" lon="32.5485204"><ele>223.8</ele><time>2015-04-27T07:07:04.0000000+00:00</time></trkpt><trkpt lat="35.0898175" lon="32.5485834"><ele>223.9</ele><time>2015-04-27T07:07:07.0000000+00:00</time></trkpt><trkpt lat="35.0898363" lon="32.5486435"><ele>223.9</ele><time>2015-04-27T07:07:10.0000000+00:00</time></trkpt><trkpt lat="35.089864" lon="32.5486971"><ele>224.7</ele><time>2015-04-27T07:07:14.0000000+00:00</time></trkpt><trkpt lat="35.0898856" lon="32.5487544"><ele>224.9</ele><time>2015-04-27T07:07:18.0000000+00:00</time></trkpt><trkpt lat="35.0898877" lon="32.5488207"><ele>225.4</ele><time>2015-04-27T07:07:22.0000000+00:00</time></trkpt><trkpt lat="35.0898896" lon="32.5488885"><ele>225.9</ele><time>2015-04-27T07:07:26.0000000+00:00</time></trkpt><trkpt lat="35.0898767" lon="32.5489558"><ele>225.9</ele><time>2015-04-27T07:07:30.0000000+00:00</time></trkpt><trkpt lat="35.0898507" lon="32.5490203"><ele>226.8</ele><time>2015-04-27T07:07:34.0000000+00:00</time></trkpt><trkpt lat="35.0898152" lon="32.5490781"><ele>227.9</ele><time>2015-04-27T07:07:38.0000000+00:00</time></trkpt><trkpt lat="35.0897745" lon="32.5491122"><ele>227.9</ele><time>2015-04-27T07:07:41.0000000+00:00</time></trkpt><trkpt lat="35.0897333" lon="32.5491422"><ele>227.9</ele><time>2015-04-27T07:07:44.0000000+00:00</time></trkpt><trkpt lat="35.0896917" lon="32.5491692"><ele>228.8</ele><time>2015-04-27T07:07:47.0000000+00:00</time></trkpt><trkpt lat="35.089649" lon="32.5491982"><ele>228.9</ele><time>2015-04-27T07:07:50.0000000+00:00</time></trkpt><trkpt lat="35.0896078" lon="32.5492221"><ele>229.2</ele><time>2015-04-27T07:07:53.0000000+00:00</time></trkpt><trkpt lat="35.089557" lon="32.5492285"><ele>229.9</ele><time>2015-04-27T07:07:59.0000000+00:00</time></trkpt><trkpt lat="35.0895064" lon="32.5492162"><ele>230.1</ele><time>2015-04-27T07:08:04.0000000+00:00</time></trkpt><trkpt lat="35.0894605" lon="32.5492034"><ele>229.9</ele><time>2015-04-27T07:08:08.0000000+00:00</time></trkpt><trkpt lat="35.0894108" lon="32.5491859"><ele>230.7</ele><time>2015-04-27T07:08:12.0000000+00:00</time></trkpt><trkpt lat="35.0893564" lon="32.5491828"><ele>232.2</ele><time>2015-04-27T07:08:16.0000000+00:00</time></trkpt><trkpt lat="35.0893101" lon="32.5491789"><ele>233.6</ele><time>2015-04-27T07:08:20.0000000+00:00</time></trkpt><trkpt lat="35.0892592" lon="32.5491785"><ele>234.1</ele><time>2015-04-27T07:08:25.0000000+00:00</time></trkpt><trkpt lat="35.0892095" lon="32.5491784"><ele>234.9</ele><time>2015-04-27T07:08:31.0000000+00:00</time></trkpt><trkpt lat="35.0891612" lon="32.5491904"><ele>236.3</ele><time>2015-04-27T07:08:36.0000000+00:00</time></trkpt><trkpt lat="35.0891117" lon="32.5492034"><ele>236.9</ele><time>2015-04-27T07:08:40.0000000+00:00</time></trkpt><trkpt lat="35.0890611" lon="32.5492222"><ele>236.9</ele><time>2015-04-27T07:08:44.0000000+00:00</time></trkpt><trkpt lat="35.0890155" lon="32.5492538"><ele>239.1</ele><time>2015-04-27T07:08:48.0000000+00:00</time></trkpt><trkpt lat="35.0889668" lon="32.5492832"><ele>239.9</ele><time>2015-04-27T07:08:52.0000000+00:00</time></trkpt><trkpt lat="35.0889071" lon="32.5492782"><ele>239.0</ele><time>2015-04-27T07:08:56.0000000+00:00</time></trkpt><trkpt lat="35.0888543" lon="32.5492829"><ele>239.4</ele><time>2015-04-27T07:09:00.0000000+00:00</time></trkpt><trkpt lat="35.0887965" lon="32.549291"><ele>239.6</ele><time>2015-04-27T07:09:04.0000000+00:00</time></trkpt><trkpt lat="35.0887363" lon="32.5492874"><ele>239.7</ele><time>2015-04-27T07:09:08.0000000+00:00</time></trkpt><trkpt lat="35.0886861" lon="32.549286"><ele>239.4</ele><time>2015-04-27T07:09:11.0000000+00:00</time></trkpt><trkpt lat="35.0886311" lon="32.549276"><ele>239.0</ele><time>2015-04-27T07:09:15.0000000+00:00</time></trkpt><trkpt lat="35.0885988" lon="32.5493324"><ele>239.1</ele><time>2015-04-27T07:09:19.0000000+00:00</time></trkpt><trkpt lat="35.0885777" lon="32.5493841"><ele>239.2</ele><time>2015-04-27T07:09:22.0000000+00:00</time></trkpt><trkpt lat="35.0885636" lon="32.5494434"><ele>239.5</ele><time>2015-04-27T07:09:25.0000000+00:00</time></trkpt><trkpt lat="35.0885698" lon="32.5494981"><ele>240.6</ele><time>2015-04-27T07:09:28.0000000+00:00</time></trkpt><trkpt lat="35.0885914" lon="32.5495652"><ele>241.0</ele><time>2015-04-27T07:09:32.0000000+00:00</time></trkpt><trkpt lat="35.0886295" lon="32.5496188"><ele>242.0</ele><time>2015-04-27T07:09:36.0000000+00:00</time></trkpt><trkpt lat="35.088659" lon="32.5496666"><ele>244.1</ele><time>2015-04-27T07:09:39.0000000+00:00</time></trkpt><trkpt lat="35.0886842" lon="32.5497259"><ele>244.4</ele><time>2015-04-27T07:09:43.0000000+00:00</time></trkpt><trkpt lat="35.088707" lon="32.5497796"><ele>243.8</ele><time>2015-04-27T07:09:47.0000000+00:00</time></trkpt><trkpt lat="35.0887401" lon="32.5498339"><ele>243.4</ele><time>2015-04-27T07:09:51.0000000+00:00</time></trkpt><trkpt lat="35.0887812" lon="32.5498859"><ele>242.3</ele><time>2015-04-27T07:09:55.0000000+00:00</time></trkpt><trkpt lat="35.0888249" lon="32.5499214"><ele>242.7</ele><time>2015-04-27T07:09:59.0000000+00:00</time></trkpt><trkpt lat="35.0888576" lon="32.5499738"><ele>243.4</ele><time>2015-04-27T07:10:03.0000000+00:00</time></trkpt><trkpt lat="35.0888747" lon="32.5500406"><ele>244.5</ele><time>2015-04-27T07:10:07.0000000+00:00</time></trkpt><trkpt lat="35.0888663" lon="32.5501016"><ele>244.9</ele><time>2015-04-27T07:10:10.0000000+00:00</time></trkpt><trkpt lat="35.0888728" lon="32.5501586"><ele>245.7</ele><time>2015-04-27T07:10:13.0000000+00:00</time></trkpt><trkpt lat="35.0888733" lon="32.55023"><ele>246.0</ele><time>2015-04-27T07:10:17.0000000+00:00</time></trkpt><trkpt lat="35.0888665" lon="32.5502861"><ele>247.3</ele><time>2015-04-27T07:10:20.0000000+00:00</time></trkpt><trkpt lat="35.0888582" lon="32.5503439"><ele>247.4</ele><time>2015-04-27T07:10:23.0000000+00:00</time></trkpt><trkpt lat="35.0888404" lon="32.5503958"><ele>247.2</ele><time>2015-04-27T07:10:26.0000000+00:00</time></trkpt><trkpt lat="35.0888082" lon="32.5504522"><ele>247.0</ele><time>2015-04-27T07:10:30.0000000+00:00</time></trkpt><trkpt lat="35.0887784" lon="32.5504965"><ele>247.1</ele><time>2015-04-27T07:10:33.0000000+00:00</time></trkpt><trkpt lat="35.0887444" lon="32.5505466"><ele>247.8</ele><time>2015-04-27T07:10:36.0000000+00:00</time></trkpt><trkpt lat="35.0887066" lon="32.5505923"><ele>248.3</ele><time>2015-04-27T07:10:39.0000000+00:00</time></trkpt><trkpt lat="35.0886748" lon="32.5506377"><ele>248.0</ele><time>2015-04-27T07:10:43.0000000+00:00</time></trkpt><trkpt lat="35.088643" lon="32.5506779"><ele>248.1</ele><time>2015-04-27T07:10:48.0000000+00:00</time></trkpt><trkpt lat="35.088607" lon="32.550711"><ele>248.1</ele><time>2015-04-27T07:10:51.0000000+00:00</time></trkpt><trkpt lat="35.0885588" lon="32.5507498"><ele>247.4</ele><time>2015-04-27T07:10:55.0000000+00:00</time></trkpt><trkpt lat="35.0885063" lon="32.5507742"><ele>247.0</ele><time>2015-04-27T07:10:59.0000000+00:00</time></trkpt><trkpt lat="35.0884524" lon="32.5507912"><ele>247.8</ele><time>2015-04-27T07:11:03.0000000+00:00</time></trkpt><trkpt lat="35.0883992" lon="32.5508025"><ele>248.7</ele><time>2015-04-27T07:11:07.0000000+00:00</time></trkpt><trkpt lat="35.0883434" lon="32.5508063"><ele>249.7</ele><time>2015-04-27T07:11:11.0000000+00:00</time></trkpt><trkpt lat="35.0882842" lon="32.5508062"><ele>250.4</ele><time>2015-04-27T07:11:15.0000000+00:00</time></trkpt><trkpt lat="35.0882341" lon="32.5507889"><ele>250.0</ele><time>2015-04-27T07:11:19.0000000+00:00</time></trkpt><trkpt lat="35.0881849" lon="32.5507858"><ele>252.3</ele><time>2015-04-27T07:11:23.0000000+00:00</time></trkpt><trkpt lat="35.0881343" lon="32.5507847"><ele>252.9</ele><time>2015-04-27T07:11:27.0000000+00:00</time></trkpt><trkpt lat="35.0880757" lon="32.5507858"><ele>255.1</ele><time>2015-04-27T07:11:31.0000000+00:00</time></trkpt><trkpt lat="35.0880277" lon="32.5507808"><ele>254.9</ele><time>2015-04-27T07:11:34.0000000+00:00</time></trkpt><trkpt lat="35.0879782" lon="32.5507865"><ele>254.9</ele><time>2015-04-27T07:11:37.0000000+00:00</time></trkpt><trkpt lat="35.0879316" lon="32.5508124"><ele>254.1</ele><time>2015-04-27T07:11:40.0000000+00:00</time></trkpt><trkpt lat="35.0878939" lon="32.5508591"><ele>253.2</ele><time>2015-04-27T07:11:43.0000000+00:00</time></trkpt><trkpt lat="35.0878588" lon="32.5509083"><ele>253.6</ele><time>2015-04-27T07:11:46.0000000+00:00</time></trkpt><trkpt lat="35.0878392" lon="32.550967"><ele>255.5</ele><time>2015-04-27T07:11:49.0000000+00:00</time></trkpt><trkpt lat="35.0878276" lon="32.5510247"><ele>255.3</ele><time>2015-04-27T07:11:52.0000000+00:00</time></trkpt><trkpt lat="35.0878356" lon="32.5510906"><ele>255.5</ele><time>2015-04-27T07:11:56.0000000+00:00</time></trkpt><trkpt lat="35.0878484" lon="32.5511435"><ele>255.7</ele><time>2015-04-27T07:11:59.0000000+00:00</time></trkpt><trkpt lat="35.0878654" lon="32.5511947"><ele>255.8</ele><time>2015-04-27T07:12:02.0000000+00:00</time></trkpt><trkpt lat="35.0878652" lon="32.5512653"><ele>255.9</ele><time>2015-04-27T07:12:06.0000000+00:00</time></trkpt><trkpt lat="35.0878536" lon="32.5513341"><ele>255.9</ele><time>2015-04-27T07:12:10.0000000+00:00</time></trkpt><trkpt lat="35.0878265" lon="32.5513789"><ele>256.6</ele><time>2015-04-27T07:12:13.0000000+00:00</time></trkpt><trkpt lat="35.087796" lon="32.5514242"><ele>255.3</ele><time>2015-04-27T07:12:16.0000000+00:00</time></trkpt><trkpt lat="35.0877561" lon="32.5514645"><ele>254.5</ele><time>2015-04-27T07:12:19.0000000+00:00</time></trkpt><trkpt lat="35.0877166" lon="32.5515032"><ele>254.5</ele><time>2015-04-27T07:12:22.0000000+00:00</time></trkpt><trkpt lat="35.0876823" lon="32.5515474"><ele>255.6</ele><time>2015-04-27T07:12:25.0000000+00:00</time></trkpt><trkpt lat="35.0876586" lon="32.5516"><ele>255.9</ele><time>2015-04-27T07:12:28.0000000+00:00</time></trkpt><trkpt lat="35.0876229" lon="32.5516562"><ele>257.2</ele><time>2015-04-27T07:12:32.0000000+00:00</time></trkpt><trkpt lat="35.0876174" lon="32.5517127"><ele>258.3</ele><time>2015-04-27T07:12:35.0000000+00:00</time></trkpt><trkpt lat="35.0876124" lon="32.5517808"><ele>258.9</ele><time>2015-04-27T07:12:38.0000000+00:00</time></trkpt><trkpt lat="35.0876361" lon="32.551839"><ele>260.4</ele><time>2015-04-27T07:12:41.0000000+00:00</time></trkpt><trkpt lat="35.0876562" lon="32.551894"><ele>260.9</ele><time>2015-04-27T07:12:44.0000000+00:00</time></trkpt><trkpt lat="35.087674" lon="32.5519594"><ele>262.3</ele><time>2015-04-27T07:12:47.0000000+00:00</time></trkpt><trkpt lat="35.0876852" lon="32.5520203"><ele>261.6</ele><time>2015-04-27T07:12:50.0000000+00:00</time></trkpt><trkpt lat="35.0876741" lon="32.5520895"><ele>261.0</ele><time>2015-04-27T07:12:54.0000000+00:00</time></trkpt><trkpt lat="35.0876753" lon="32.5521496"><ele>261.4</ele><time>2015-04-27T07:12:58.0000000+00:00</time></trkpt><trkpt lat="35.0876808" lon="32.5522171"><ele>261.9</ele><time>2015-04-27T07:13:02.0000000+00:00</time></trkpt><trkpt lat="35.0876581" lon="32.5522668"><ele>260.4</ele><time>2015-04-27T07:13:18.0000000+00:00</time></trkpt><trkpt lat="35.0876195" lon="32.5522961"><ele>255.2</ele><time>2015-04-27T07:18:33.0000000+00:00</time></trkpt><trkpt lat="35.0875993" lon="32.5523466"><ele>256.7</ele><time>2015-04-27T07:21:49.0000000+00:00</time></trkpt><trkpt lat="35.0876087" lon="32.552401"><ele>256.0</ele><time>2015-04-27T07:21:53.0000000+00:00</time></trkpt><trkpt lat="35.0876161" lon="32.5524566"><ele>257.4</ele><time>2015-04-27T07:21:56.0000000+00:00</time></trkpt><trkpt lat="35.0876338" lon="32.5525143"><ele>257.9</ele><time>2015-04-27T07:21:59.0000000+00:00</time></trkpt><trkpt lat="35.0876384" lon="32.5525768"><ele>256.7</ele><time>2015-04-27T07:22:02.0000000+00:00</time></trkpt><trkpt lat="35.0876199" lon="32.552627"><ele>255.6</ele><time>2015-04-27T07:22:04.0000000+00:00</time></trkpt><trkpt lat="35.0875753" lon="32.5526936"><ele>254.6</ele><time>2015-04-27T07:22:06.0000000+00:00</time></trkpt><trkpt lat="35.0875369" lon="32.5527705"><ele>253.3</ele><time>2015-04-27T07:22:08.0000000+00:00</time></trkpt><trkpt lat="35.0875213" lon="32.5528489"><ele>254.3</ele><time>2015-04-27T07:22:10.0000000+00:00</time></trkpt><trkpt lat="35.0875188" lon="32.5529157"><ele>254.8</ele><time>2015-04-27T07:22:12.0000000+00:00</time></trkpt><trkpt lat="35.0875259" lon="32.552979"><ele>254.9</ele><time>2015-04-27T07:22:14.0000000+00:00</time></trkpt><trkpt lat="35.0875618" lon="32.5530324"><ele>255.2</ele><time>2015-04-27T07:22:16.0000000+00:00</time></trkpt><trkpt lat="35.0876198" lon="32.5530633"><ele>254.5</ele><time>2015-04-27T07:22:18.0000000+00:00</time></trkpt><trkpt lat="35.0876864" lon="32.5530793"><ele>253.3</ele><time>2015-04-27T07:22:20.0000000+00:00</time></trkpt><trkpt lat="35.0877607" lon="32.5530879"><ele>252.3</ele><time>2015-04-27T07:22:22.0000000+00:00</time></trkpt><trkpt lat="35.0878298" lon="32.5531054"><ele>252.8</ele><time>2015-04-27T07:22:24.0000000+00:00</time></trkpt><trkpt lat="35.0878838" lon="32.553144"><ele>251.4</ele><time>2015-04-27T07:22:26.0000000+00:00</time></trkpt><trkpt lat="35.0879121" lon="32.5532018"><ele>251.0</ele><time>2015-04-27T07:22:28.0000000+00:00</time></trkpt><trkpt lat="35.087926" lon="32.5532604"><ele>251.7</ele><time>2015-04-27T07:22:30.0000000+00:00</time></trkpt><trkpt lat="35.0879331" lon="32.5533173"><ele>251.4</ele><time>2015-04-27T07:22:32.0000000+00:00</time></trkpt><trkpt lat="35.0879358" lon="32.5533782"><ele>250.8</ele><time>2015-04-27T07:22:34.0000000+00:00</time></trkpt><trkpt lat="35.0879415" lon="32.5534415"><ele>250.1</ele><time>2015-04-27T07:22:36.0000000+00:00</time></trkpt><trkpt lat="35.0879617" lon="32.5534978"><ele>250.7</ele><time>2015-04-27T07:22:38.0000000+00:00</time></trkpt><trkpt lat="35.0879897" lon="32.5535494"><ele>249.9</ele><time>2015-04-27T07:22:40.0000000+00:00</time></trkpt><trkpt lat="35.088012" lon="32.5536278"><ele>249.8</ele><time>2015-04-27T07:22:43.0000000+00:00</time></trkpt><trkpt lat="35.0880376" lon="32.5536824"><ele>248.6</ele><time>2015-04-27T07:22:45.0000000+00:00</time></trkpt><trkpt lat="35.0880651" lon="32.5537326"><ele>248.1</ele><time>2015-04-27T07:22:47.0000000+00:00</time></trkpt><trkpt lat="35.0880662" lon="32.5537916"><ele>248.5</ele><time>2015-04-27T07:22:49.0000000+00:00</time></trkpt><trkpt lat="35.088043" lon="32.553852"><ele>247.3</ele><time>2015-04-27T07:22:51.0000000+00:00</time></trkpt><trkpt lat="35.08802" lon="32.5539148"><ele>246.5</ele><time>2015-04-27T07:22:53.0000000+00:00</time></trkpt><trkpt lat="35.0880015" lon="32.5539754"><ele>245.6</ele><time>2015-04-27T07:22:55.0000000+00:00</time></trkpt><trkpt lat="35.0879784" lon="32.5540345"><ele>244.6</ele><time>2015-04-27T07:22:57.0000000+00:00</time></trkpt><trkpt lat="35.0879444" lon="32.5540912"><ele>243.3</ele><time>2015-04-27T07:22:59.0000000+00:00</time></trkpt><trkpt lat="35.0878985" lon="32.5541425"><ele>242.5</ele><time>2015-04-27T07:23:01.0000000+00:00</time></trkpt><trkpt lat="35.0878472" lon="32.5541868"><ele>241.3</ele><time>2015-04-27T07:23:03.0000000+00:00</time></trkpt><trkpt lat="35.0878023" lon="32.5542258"><ele>241.0</ele><time>2015-04-27T07:23:05.0000000+00:00</time></trkpt><trkpt lat="35.0877592" lon="32.5542832"><ele>239.0</ele><time>2015-04-27T07:23:07.0000000+00:00</time></trkpt><trkpt lat="35.0877316" lon="32.5543676"><ele>238.4</ele><time>2015-04-27T07:23:09.0000000+00:00</time></trkpt><trkpt lat="35.0877243" lon="32.5544478"><ele>238.1</ele><time>2015-04-27T07:23:11.0000000+00:00</time></trkpt><trkpt lat="35.0877515" lon="32.5545045"><ele>238.2</ele><time>2015-04-27T07:23:13.0000000+00:00</time></trkpt><trkpt lat="35.0877994" lon="32.5545139"><ele>239.5</ele><time>2015-04-27T07:23:15.0000000+00:00</time></trkpt><trkpt lat="35.0878679" lon="32.5545061"><ele>238.9</ele><time>2015-04-27T07:23:18.0000000+00:00</time></trkpt><trkpt lat="35.0879209" lon="32.5544955"><ele>237.2</ele><time>2015-04-27T07:23:20.0000000+00:00</time></trkpt><trkpt lat="35.0879675" lon="32.5544832"><ele>237.0</ele><time>2015-04-27T07:23:22.0000000+00:00</time></trkpt><trkpt lat="35.0880284" lon="32.5544692"><ele>237.1</ele><time>2015-04-27T07:23:25.0000000+00:00</time></trkpt><trkpt lat="35.0880782" lon="32.5544618"><ele>237.1</ele><time>2015-04-27T07:23:28.0000000+00:00</time></trkpt><trkpt lat="35.0881226" lon="32.5544461"><ele>237.2</ele><time>2015-04-27T07:23:31.0000000+00:00</time></trkpt><trkpt lat="35.0881689" lon="32.5544428"><ele>238.1</ele><time>2015-04-27T07:23:35.0000000+00:00</time></trkpt><trkpt lat="35.0882144" lon="32.5544672"><ele>244.5</ele><time>2015-04-27T07:23:40.0000000+00:00</time></trkpt><trkpt lat="35.0882684" lon="32.5544909"><ele>248.7</ele><time>2015-04-27T07:23:46.0000000+00:00</time></trkpt><trkpt lat="35.0883171" lon="32.5544876"><ele>249.2</ele><time>2015-04-27T07:23:50.0000000+00:00</time></trkpt><trkpt lat="35.0883736" lon="32.5544802"><ele>246.4</ele><time>2015-04-27T07:23:55.0000000+00:00</time></trkpt><trkpt lat="35.0884174" lon="32.5544654"><ele>246.4</ele><time>2015-04-27T07:23:58.0000000+00:00</time></trkpt><trkpt lat="35.0884693" lon="32.5544675"><ele>249.3</ele><time>2015-04-27T07:24:02.0000000+00:00</time></trkpt><trkpt lat="35.0884976" lon="32.5545185"><ele>253.1</ele><time>2015-04-27T07:24:12.0000000+00:00</time></trkpt><trkpt lat="35.0885436" lon="32.5545269"><ele>254.2</ele><time>2015-04-27T07:24:15.0000000+00:00</time></trkpt><trkpt lat="35.0885932" lon="32.5545456"><ele>256.5</ele><time>2015-04-27T07:24:18.0000000+00:00</time></trkpt><trkpt lat="35.0886556" lon="32.5545638"><ele>256.7</ele><time>2015-04-27T07:24:21.0000000+00:00</time></trkpt><trkpt lat="35.0887107" lon="32.5545753"><ele>253.3</ele><time>2015-04-27T07:24:24.0000000+00:00</time></trkpt><trkpt lat="35.0887576" lon="32.5546064"><ele>251.8</ele><time>2015-04-27T07:24:28.0000000+00:00</time></trkpt><trkpt lat="35.0888023" lon="32.5546174"><ele>251.9</ele><time>2015-04-27T07:24:30.0000000+00:00</time></trkpt><trkpt lat="35.0888481" lon="32.5546285"><ele>250.7</ele><time>2015-04-27T07:24:32.0000000+00:00</time></trkpt><trkpt lat="35.0888953" lon="32.5546463"><ele>249.9</ele><time>2015-04-27T07:24:34.0000000+00:00</time></trkpt><trkpt lat="35.0889368" lon="32.5546832"><ele>250.8</ele><time>2015-04-27T07:24:37.0000000+00:00</time></trkpt><trkpt lat="35.0889865" lon="32.5547239"><ele>251.0</ele><time>2015-04-27T07:24:41.0000000+00:00</time></trkpt><trkpt lat="35.0890191" lon="32.5547625"><ele>250.9</ele><time>2015-04-27T07:24:44.0000000+00:00</time></trkpt><trkpt lat="35.0890472" lon="32.5548118"><ele>251.9</ele><time>2015-04-27T07:24:48.0000000+00:00</time></trkpt><trkpt lat="35.0890942" lon="32.5548093"><ele>253.2</ele><time>2015-04-27T07:24:52.0000000+00:00</time></trkpt><trkpt lat="35.089141" lon="32.5547804"><ele>252.2</ele><time>2015-04-27T07:24:57.0000000+00:00</time></trkpt><trkpt lat="35.0891797" lon="32.5547327"><ele>255.0</ele><time>2015-04-27T07:25:02.0000000+00:00</time></trkpt><trkpt lat="35.0892004" lon="32.5546738"><ele>255.3</ele><time>2015-04-27T07:25:06.0000000+00:00</time></trkpt><trkpt lat="35.089227" lon="32.554615"><ele>256.8</ele><time>2015-04-27T07:25:10.0000000+00:00</time></trkpt><trkpt lat="35.0892641" lon="32.5545777"><ele>258.2</ele><time>2015-04-27T07:25:13.0000000+00:00</time></trkpt><trkpt lat="35.0893052" lon="32.5545391"><ele>259.0</ele><time>2015-04-27T07:25:16.0000000+00:00</time></trkpt><trkpt lat="35.0893576" lon="32.5545091"><ele>259.9</ele><time>2015-04-27T07:25:20.0000000+00:00</time></trkpt><trkpt lat="35.0894039" lon="32.5545102"><ele>260.0</ele><time>2015-04-27T07:25:24.0000000+00:00</time></trkpt><trkpt lat="35.0894583" lon="32.5545201"><ele>261.5</ele><time>2015-04-27T07:25:29.0000000+00:00</time></trkpt><trkpt lat="35.0895033" lon="32.5545277"><ele>262.8</ele><time>2015-04-27T07:25:33.0000000+00:00</time></trkpt><trkpt lat="35.089536" lon="32.5545853"><ele>261.7</ele><time>2015-04-27T07:25:40.0000000+00:00</time></trkpt><trkpt lat="35.0895527" lon="32.5546369"><ele>261.4</ele><time>2015-04-27T07:25:43.0000000+00:00</time></trkpt><trkpt lat="35.0895667" lon="32.5546917"><ele>260.2</ele><time>2015-04-27T07:25:46.0000000+00:00</time></trkpt><trkpt lat="35.0895879" lon="32.5547523"><ele>257.8</ele><time>2015-04-27T07:25:50.0000000+00:00</time></trkpt><trkpt lat="35.0896146" lon="32.554806"><ele>259.4</ele><time>2015-04-27T07:25:59.0000000+00:00</time></trkpt><trkpt lat="35.0896618" lon="32.5548339"><ele>265.9</ele><time>2015-04-27T07:35:09.0000000+00:00</time></trkpt><trkpt lat="35.0897076" lon="32.5548491"><ele>266.3</ele><time>2015-04-27T07:35:15.0000000+00:00</time></trkpt><trkpt lat="35.0896944" lon="32.5549153"><ele>267.1</ele><time>2015-04-27T07:35:35.0000000+00:00</time></trkpt><trkpt lat="35.0896901" lon="32.5549737"><ele>266.8</ele><time>2015-04-27T07:35:39.0000000+00:00</time></trkpt><trkpt lat="35.0896724" lon="32.5550324"><ele>266.4</ele><time>2015-04-27T07:35:43.0000000+00:00</time></trkpt><trkpt lat="35.08966" lon="32.5550946"><ele>264.3</ele><time>2015-04-27T07:35:47.0000000+00:00</time></trkpt><trkpt lat="35.0896415" lon="32.5551503"><ele>264.9</ele><time>2015-04-27T07:35:51.0000000+00:00</time></trkpt><trkpt lat="35.0896203" lon="32.5552081"><ele>265.3</ele><time>2015-04-27T07:35:57.0000000+00:00</time></trkpt><trkpt lat="35.0896" lon="32.5552625"><ele>268.8</ele><time>2015-04-27T07:36:02.0000000+00:00</time></trkpt><trkpt lat="35.0895838" lon="32.555314"><ele>271.8</ele><time>2015-04-27T07:36:07.0000000+00:00</time></trkpt><trkpt lat="35.0895522" lon="32.5553622"><ele>272.8</ele><time>2015-04-27T07:36:12.0000000+00:00</time></trkpt><trkpt lat="35.0895119" lon="32.5554103"><ele>275.6</ele><time>2015-04-27T07:36:17.0000000+00:00</time></trkpt><trkpt lat="35.0894811" lon="32.5554602"><ele>273.6</ele><time>2015-04-27T07:36:21.0000000+00:00</time></trkpt><trkpt lat="35.0894426" lon="32.5555025"><ele>274.8</ele><time>2015-04-27T07:36:25.0000000+00:00</time></trkpt><trkpt lat="35.0894244" lon="32.5555532"><ele>276.9</ele><time>2015-04-27T07:36:29.0000000+00:00</time></trkpt><trkpt lat="35.0893768" lon="32.555593"><ele>277.4</ele><time>2015-04-27T07:36:32.0000000+00:00</time></trkpt><trkpt lat="35.0893404" lon="32.5556289"><ele>277.5</ele><time>2015-04-27T07:36:35.0000000+00:00</time></trkpt><trkpt lat="35.0893048" lon="32.5556664"><ele>276.3</ele><time>2015-04-27T07:36:38.0000000+00:00</time></trkpt><trkpt lat="35.0892922" lon="32.5557236"><ele>277.8</ele><time>2015-04-27T07:36:42.0000000+00:00</time></trkpt><trkpt lat="35.089268" lon="32.5557853"><ele>276.7</ele><time>2015-04-27T07:36:47.0000000+00:00</time></trkpt><trkpt lat="35.0892313" lon="32.5558367"><ele>275.5</ele><time>2015-04-27T07:36:51.0000000+00:00</time></trkpt><trkpt lat="35.0892036" lon="32.555899"><ele>276.7</ele><time>2015-04-27T07:36:55.0000000+00:00</time></trkpt><trkpt lat="35.0891668" lon="32.5559512"><ele>274.7</ele><time>2015-04-27T07:36:59.0000000+00:00</time></trkpt><trkpt lat="35.089133" lon="32.5560026"><ele>274.7</ele><time>2015-04-27T07:37:05.0000000+00:00</time></trkpt><trkpt lat="35.0890818" lon="32.5560198"><ele>275.8</ele><time>2015-04-27T07:37:09.0000000+00:00</time></trkpt><trkpt lat="35.0890366" lon="32.5560291"><ele>275.5</ele><time>2015-04-27T07:37:12.0000000+00:00</time></trkpt><trkpt lat="35.0889807" lon="32.5560171"><ele>275.9</ele><time>2015-04-27T07:37:16.0000000+00:00</time></trkpt><trkpt lat="35.0889392" lon="32.5559885"><ele>277.2</ele><time>2015-04-27T07:37:19.0000000+00:00</time></trkpt><trkpt lat="35.0888923" lon="32.5559628"><ele>279.3</ele><time>2015-04-27T07:37:22.0000000+00:00</time></trkpt><trkpt lat="35.088854" lon="32.5559171"><ele>279.8</ele><time>2015-04-27T07:37:26.0000000+00:00</time></trkpt><trkpt lat="35.0888081" lon="32.5559083"><ele>281.6</ele><time>2015-04-27T07:37:33.0000000+00:00</time></trkpt><trkpt lat="35.0887886" lon="32.5559615"><ele>283.5</ele><time>2015-04-27T07:37:39.0000000+00:00</time></trkpt><trkpt lat="35.0887682" lon="32.5560238"><ele>285.4</ele><time>2015-04-27T07:37:44.0000000+00:00</time></trkpt><trkpt lat="35.0887727" lon="32.556081"><ele>286.5</ele><time>2015-04-27T07:37:49.0000000+00:00</time></trkpt><trkpt lat="35.0887504" lon="32.5561333"><ele>283.1</ele><time>2015-04-27T07:37:57.0000000+00:00</time></trkpt><trkpt lat="35.0887698" lon="32.5560688"><ele>280.0</ele><time>2015-04-27T07:38:17.0000000+00:00</time></trkpt><trkpt lat="35.0887952" lon="32.5560158"><ele>278.1</ele><time>2015-04-27T07:38:20.0000000+00:00</time></trkpt><trkpt lat="35.0888382" lon="32.5559503"><ele>276.2</ele><time>2015-04-27T07:38:23.0000000+00:00</time></trkpt><trkpt lat="35.0888771" lon="32.5558904"><ele>274.7</ele><time>2015-04-27T07:38:25.0000000+00:00</time></trkpt><trkpt lat="35.0889018" lon="32.5558231"><ele>272.9</ele><time>2015-04-27T07:38:27.0000000+00:00</time></trkpt><trkpt lat="35.0889023" lon="32.5557569"><ele>272.4</ele><time>2015-04-27T07:38:29.0000000+00:00</time></trkpt><trkpt lat="35.0888975" lon="32.5556919"><ele>272.3</ele><time>2015-04-27T07:38:31.0000000+00:00</time></trkpt><trkpt lat="35.0888961" lon="32.5556317"><ele>273.3</ele><time>2015-04-27T07:38:33.0000000+00:00</time></trkpt><trkpt lat="35.0888802" lon="32.5555559"><ele>273.5</ele><time>2015-04-27T07:38:36.0000000+00:00</time></trkpt><trkpt lat="35.0888473" lon="32.5554967"><ele>274.0</ele><time>2015-04-27T07:38:39.0000000+00:00</time></trkpt><trkpt lat="35.0887914" lon="32.5554423"><ele>273.1</ele><time>2015-04-27T07:38:42.0000000+00:00</time></trkpt><trkpt lat="35.0887682" lon="32.5553884"><ele>272.0</ele><time>2015-04-27T07:38:44.0000000+00:00</time></trkpt><trkpt lat="35.0887418" lon="32.5553353"><ele>272.4</ele><time>2015-04-27T07:38:46.0000000+00:00</time></trkpt><trkpt lat="35.0887051" lon="32.5552935"><ele>274.1</ele><time>2015-04-27T07:38:48.0000000+00:00</time></trkpt><trkpt lat="35.0886685" lon="32.5552548"><ele>274.7</ele><time>2015-04-27T07:38:50.0000000+00:00</time></trkpt><trkpt lat="35.0886282" lon="32.5552234"><ele>274.9</ele><time>2015-04-27T07:38:52.0000000+00:00</time></trkpt><trkpt lat="35.0885828" lon="32.5552074"><ele>275.7</ele><time>2015-04-27T07:38:54.0000000+00:00</time></trkpt><trkpt lat="35.0885283" lon="32.5552071"><ele>275.9</ele><time>2015-04-27T07:38:56.0000000+00:00</time></trkpt><trkpt lat="35.0884833" lon="32.5552174"><ele>275.7</ele><time>2015-04-27T07:38:58.0000000+00:00</time></trkpt><trkpt lat="35.0884216" lon="32.5552218"><ele>275.1</ele><time>2015-04-27T07:39:01.0000000+00:00</time></trkpt><trkpt lat="35.0883622" lon="32.5552197"><ele>274.1</ele><time>2015-04-27T07:39:04.0000000+00:00</time></trkpt><trkpt lat="35.0883058" lon="32.5552186"><ele>273.2</ele><time>2015-04-27T07:39:07.0000000+00:00</time></trkpt><trkpt lat="35.0882519" lon="32.5552081"><ele>273.7</ele><time>2015-04-27T07:39:10.0000000+00:00</time></trkpt><trkpt lat="35.0882026" lon="32.5551894"><ele>273.9</ele><time>2015-04-27T07:39:13.0000000+00:00</time></trkpt><trkpt lat="35.0881508" lon="32.5551886"><ele>273.9</ele><time>2015-04-27T07:39:16.0000000+00:00</time></trkpt><trkpt lat="35.0881062" lon="32.5552161"><ele>273.9</ele><time>2015-04-27T07:39:18.0000000+00:00</time></trkpt><trkpt lat="35.0880609" lon="32.5552569"><ele>274.7</ele><time>2015-04-27T07:39:20.0000000+00:00</time></trkpt><trkpt lat="35.0880194" lon="32.5552926"><ele>274.4</ele><time>2015-04-27T07:39:22.0000000+00:00</time></trkpt><trkpt lat="35.0879774" lon="32.5553262"><ele>274.0</ele><time>2015-04-27T07:39:24.0000000+00:00</time></trkpt><trkpt lat="35.0879371" lon="32.5553606"><ele>274.0</ele><time>2015-04-27T07:39:26.0000000+00:00</time></trkpt><trkpt lat="35.087898" lon="32.5553922"><ele>273.9</ele><time>2015-04-27T07:39:28.0000000+00:00</time></trkpt><trkpt lat="35.0878388" lon="32.5554284"><ele>274.8</ele><time>2015-04-27T07:39:31.0000000+00:00</time></trkpt><trkpt lat="35.0877788" lon="32.55547"><ele>274.0</ele><time>2015-04-27T07:39:34.0000000+00:00</time></trkpt><trkpt lat="35.0877374" lon="32.5555008"><ele>274.2</ele><time>2015-04-27T07:39:36.0000000+00:00</time></trkpt><trkpt lat="35.0877021" lon="32.5555362"><ele>274.5</ele><time>2015-04-27T07:39:38.0000000+00:00</time></trkpt><trkpt lat="35.0876473" lon="32.5555834"><ele>274.9</ele><time>2015-04-27T07:39:41.0000000+00:00</time></trkpt><trkpt lat="35.0876058" lon="32.5556135"><ele>274.9</ele><time>2015-04-27T07:39:43.0000000+00:00</time></trkpt><trkpt lat="35.0875612" lon="32.5556403"><ele>274.4</ele><time>2015-04-27T07:39:45.0000000+00:00</time></trkpt><trkpt lat="35.0875119" lon="32.5556544"><ele>274.1</ele><time>2015-04-27T07:39:47.0000000+00:00</time></trkpt><trkpt lat="35.0874599" lon="32.5556599"><ele>274.0</ele><time>2015-04-27T07:39:49.0000000+00:00</time></trkpt><trkpt lat="35.0874075" lon="32.555662"><ele>273.9</ele><time>2015-04-27T07:39:51.0000000+00:00</time></trkpt><trkpt lat="35.0873562" lon="32.5556729"><ele>273.9</ele><time>2015-04-27T07:39:53.0000000+00:00</time></trkpt><trkpt lat="35.0873074" lon="32.5556918"><ele>274.4</ele><time>2015-04-27T07:39:55.0000000+00:00</time></trkpt><trkpt lat="35.0872605" lon="32.5557142"><ele>274.8</ele><time>2015-04-27T07:39:57.0000000+00:00</time></trkpt><trkpt lat="35.0872127" lon="32.555737"><ele>274.9</ele><time>2015-04-27T07:39:59.0000000+00:00</time></trkpt><trkpt lat="35.0871644" lon="32.5557452"><ele>274.9</ele><time>2015-04-27T07:40:01.0000000+00:00</time></trkpt><trkpt lat="35.087118" lon="32.5557301"><ele>274.2</ele><time>2015-04-27T07:40:03.0000000+00:00</time></trkpt><trkpt lat="35.0870768" lon="32.5556955"><ele>274.0</ele><time>2015-04-27T07:40:05.0000000+00:00</time></trkpt><trkpt lat="35.0870381" lon="32.5556547"><ele>273.9</ele><time>2015-04-27T07:40:07.0000000+00:00</time></trkpt><trkpt lat="35.0869985" lon="32.5556151"><ele>273.9</ele><time>2015-04-27T07:40:09.0000000+00:00</time></trkpt><trkpt lat="35.0869583" lon="32.5555888"><ele>274.4</ele><time>2015-04-27T07:40:11.0000000+00:00</time></trkpt><trkpt lat="35.0869079" lon="32.5555741"><ele>275.4</ele><time>2015-04-27T07:40:14.0000000+00:00</time></trkpt><trkpt lat="35.0868514" lon="32.5555835"><ele>275.9</ele><time>2015-04-27T07:40:17.0000000+00:00</time></trkpt><trkpt lat="35.0867965" lon="32.5556325"><ele>275.2</ele><time>2015-04-27T07:40:20.0000000+00:00</time></trkpt><trkpt lat="35.0867648" lon="32.5556788"><ele>275.5</ele><time>2015-04-27T07:40:22.0000000+00:00</time></trkpt><trkpt lat="35.0867359" lon="32.5557301"><ele>275.8</ele><time>2015-04-27T07:40:24.0000000+00:00</time></trkpt><trkpt lat="35.0867027" lon="32.5557816"><ele>275.9</ele><time>2015-04-27T07:40:26.0000000+00:00</time></trkpt><trkpt lat="35.0866612" lon="32.5558269"><ele>275.9</ele><time>2015-04-27T07:40:28.0000000+00:00</time></trkpt><trkpt lat="35.0866151" lon="32.5558616"><ele>275.9</ele><time>2015-04-27T07:40:30.0000000+00:00</time></trkpt><trkpt lat="35.0865722" lon="32.5558961"><ele>275.4</ele><time>2015-04-27T07:40:32.0000000+00:00</time></trkpt><trkpt lat="35.0865344" lon="32.5559401"><ele>275.8</ele><time>2015-04-27T07:40:34.0000000+00:00</time></trkpt><trkpt lat="35.0864979" lon="32.5559804"><ele>275.9</ele><time>2015-04-27T07:40:36.0000000+00:00</time></trkpt><trkpt lat="35.0864443" lon="32.5560298"><ele>276.8</ele><time>2015-04-27T07:40:39.0000000+00:00</time></trkpt><trkpt lat="35.0864098" lon="32.5560707"><ele>276.9</ele><time>2015-04-27T07:40:41.0000000+00:00</time></trkpt><trkpt lat="35.0863782" lon="32.5561117"><ele>277.7</ele><time>2015-04-27T07:40:43.0000000+00:00</time></trkpt><trkpt lat="35.0863455" lon="32.5561528"><ele>277.9</ele><time>2015-04-27T07:40:45.0000000+00:00</time></trkpt><trkpt lat="35.0863118" lon="32.5561943"><ele>277.9</ele><time>2015-04-27T07:40:47.0000000+00:00</time></trkpt><trkpt lat="35.0862837" lon="32.5562396"><ele>277.9</ele><time>2015-04-27T07:40:49.0000000+00:00</time></trkpt><trkpt lat="35.0862532" lon="32.5562824"><ele>278.4</ele><time>2015-04-27T07:40:51.0000000+00:00</time></trkpt><trkpt lat="35.0861987" lon="32.5563283"><ele>279.6</ele><time>2015-04-27T07:40:54.0000000+00:00</time></trkpt><trkpt lat="35.0861535" lon="32.5563412"><ele>279.1</ele><time>2015-04-27T07:40:56.0000000+00:00</time></trkpt><trkpt lat="35.0860934" lon="32.556324"><ele>279.0</ele><time>2015-04-27T07:40:59.0000000+00:00</time></trkpt><trkpt lat="35.0860311" lon="32.5563226"><ele>278.9</ele><time>2015-04-27T07:41:02.0000000+00:00</time></trkpt><trkpt lat="35.0859651" lon="32.5563475"><ele>278.4</ele><time>2015-04-27T07:41:05.0000000+00:00</time></trkpt><trkpt lat="35.085914" lon="32.5563645"><ele>277.8</ele><time>2015-04-27T07:41:07.0000000+00:00</time></trkpt><trkpt lat="35.0858647" lon="32.556379"><ele>278.4</ele><time>2015-04-27T07:41:09.0000000+00:00</time></trkpt><trkpt lat="35.0858162" lon="32.5563837"><ele>278.8</ele><time>2015-04-27T07:41:11.0000000+00:00</time></trkpt><trkpt lat="35.0857678" lon="32.5563784"><ele>279.4</ele><time>2015-04-27T07:41:13.0000000+00:00</time></trkpt><trkpt lat="35.0857214" lon="32.5563689"><ele>279.8</ele><time>2015-04-27T07:41:15.0000000+00:00</time></trkpt><trkpt lat="35.0856737" lon="32.5563618"><ele>279.9</ele><time>2015-04-27T07:41:17.0000000+00:00</time></trkpt><trkpt lat="35.0856262" lon="32.556364"><ele>279.9</ele><time>2015-04-27T07:41:19.0000000+00:00</time></trkpt><trkpt lat="35.0855758" lon="32.5563703"><ele>279.7</ele><time>2015-04-27T07:41:21.0000000+00:00</time></trkpt><trkpt lat="35.0855268" lon="32.5563821"><ele>279.9</ele><time>2015-04-27T07:41:23.0000000+00:00</time></trkpt><trkpt lat="35.0854799" lon="32.5563924"><ele>279.9</ele><time>2015-04-27T07:41:25.0000000+00:00</time></trkpt><trkpt lat="35.0854342" lon="32.5564054"><ele>278.7</ele><time>2015-04-27T07:41:27.0000000+00:00</time></trkpt><trkpt lat="35.0853888" lon="32.5564188"><ele>278.1</ele><time>2015-04-27T07:41:29.0000000+00:00</time></trkpt><trkpt lat="35.0853249" lon="32.5564421"><ele>278.0</ele><time>2015-04-27T07:41:32.0000000+00:00</time></trkpt><trkpt lat="35.0852661" lon="32.5564722"><ele>278.4</ele><time>2015-04-27T07:41:35.0000000+00:00</time></trkpt><trkpt lat="35.0852104" lon="32.556517"><ele>278.9</ele><time>2015-04-27T07:41:38.0000000+00:00</time></trkpt><trkpt lat="35.0851638" lon="32.556571"><ele>278.4</ele><time>2015-04-27T07:41:41.0000000+00:00</time></trkpt><trkpt lat="35.0851283" lon="32.5566289"><ele>277.2</ele><time>2015-04-27T07:41:44.0000000+00:00</time></trkpt><trkpt lat="35.0851061" lon="32.5566965"><ele>277.0</ele><time>2015-04-27T07:41:47.0000000+00:00</time></trkpt><trkpt lat="35.0850908" lon="32.5567677"><ele>277.8</ele><time>2015-04-27T07:41:50.0000000+00:00</time></trkpt><trkpt lat="35.0850973" lon="32.5568486"><ele>276.7</ele><time>2015-04-27T07:41:53.0000000+00:00</time></trkpt><trkpt lat="35.0851059" lon="32.5569219"><ele>276.0</ele><time>2015-04-27T07:41:56.0000000+00:00</time></trkpt><trkpt lat="35.0850992" lon="32.556996"><ele>276.1</ele><time>2015-04-27T07:41:59.0000000+00:00</time></trkpt><trkpt lat="35.0850799" lon="32.5570527"><ele>281.7</ele><time>2015-04-27T07:42:01.0000000+00:00</time></trkpt><trkpt lat="35.0850563" lon="32.5571256"><ele>283.7</ele><time>2015-04-27T07:42:04.0000000+00:00</time></trkpt><trkpt lat="35.0850261" lon="32.5571873"><ele>284.4</ele><time>2015-04-27T07:42:07.0000000+00:00</time></trkpt><trkpt lat="35.0849858" lon="32.5572472"><ele>286.9</ele><time>2015-04-27T07:42:10.0000000+00:00</time></trkpt><trkpt lat="35.084958" lon="32.5572963"><ele>291.8</ele><time>2015-04-27T07:42:13.0000000+00:00</time></trkpt><trkpt lat="35.0849103" lon="32.5572718"><ele>291.2</ele><time>2015-04-27T07:42:16.0000000+00:00</time></trkpt><trkpt lat="35.0848599" lon="32.5572235"><ele>290.3</ele><time>2015-04-27T07:42:19.0000000+00:00</time></trkpt><trkpt lat="35.0848162" lon="32.5571695"><ele>290.9</ele><time>2015-04-27T07:42:22.0000000+00:00</time></trkpt><trkpt lat="35.0847714" lon="32.5571282"><ele>291.2</ele><time>2015-04-27T07:42:25.0000000+00:00</time></trkpt><trkpt lat="35.0847147" lon="32.5571131"><ele>292.6</ele><time>2015-04-27T07:42:28.0000000+00:00</time></trkpt><trkpt lat="35.0846594" lon="32.5571115"><ele>292.4</ele><time>2015-04-27T07:42:31.0000000+00:00</time></trkpt><trkpt lat="35.0846096" lon="32.5571272"><ele>293.7</ele><time>2015-04-27T07:42:34.0000000+00:00</time></trkpt><trkpt lat="35.0845626" lon="32.5571386"><ele>294.0</ele><time>2015-04-27T07:42:37.0000000+00:00</time></trkpt><trkpt lat="35.0845131" lon="32.5571672"><ele>295.6</ele><time>2015-04-27T07:42:41.0000000+00:00</time></trkpt><trkpt lat="35.0844609" lon="32.5572018"><ele>295.6</ele><time>2015-04-27T07:42:45.0000000+00:00</time></trkpt><trkpt lat="35.0844162" lon="32.557241"><ele>294.8</ele><time>2015-04-27T07:42:48.0000000+00:00</time></trkpt><trkpt lat="35.084362" lon="32.5572719"><ele>292.9</ele><time>2015-04-27T07:42:51.0000000+00:00</time></trkpt><trkpt lat="35.0843175" lon="32.5573116"><ele>291.7</ele><time>2015-04-27T07:42:54.0000000+00:00</time></trkpt><trkpt lat="35.0842674" lon="32.5573487"><ele>291.1</ele><time>2015-04-27T07:42:57.0000000+00:00</time></trkpt><trkpt lat="35.0842236" lon="32.5573736"><ele>293.1</ele><time>2015-04-27T07:43:00.0000000+00:00</time></trkpt><trkpt lat="35.0841766" lon="32.5574015"><ele>295.3</ele><time>2015-04-27T07:43:03.0000000+00:00</time></trkpt><trkpt lat="35.0841279" lon="32.5574234"><ele>296.4</ele><time>2015-04-27T07:43:06.0000000+00:00</time></trkpt><trkpt lat="35.0840742" lon="32.557433"><ele>298.9</ele><time>2015-04-27T07:43:10.0000000+00:00</time></trkpt><trkpt lat="35.0840248" lon="32.5574438"><ele>302.6</ele><time>2015-04-27T07:43:14.0000000+00:00</time></trkpt><trkpt lat="35.0839766" lon="32.5574558"><ele>299.9</ele><time>2015-04-27T07:43:17.0000000+00:00</time></trkpt><trkpt lat="35.083927" lon="32.557483"><ele>298.3</ele><time>2015-04-27T07:43:20.0000000+00:00</time></trkpt><trkpt lat="35.0838652" lon="32.5575145"><ele>296.4</ele><time>2015-04-27T07:43:23.0000000+00:00</time></trkpt><trkpt lat="35.083814" lon="32.5575347"><ele>295.3</ele><time>2015-04-27T07:43:25.0000000+00:00</time></trkpt><trkpt lat="35.0837662" lon="32.557552"><ele>294.3</ele><time>2015-04-27T07:43:27.0000000+00:00</time></trkpt><trkpt lat="35.0837027" lon="32.5575628"><ele>294.0</ele><time>2015-04-27T07:43:30.0000000+00:00</time></trkpt><trkpt lat="35.0836474" lon="32.557563"><ele>294.4</ele><time>2015-04-27T07:43:33.0000000+00:00</time></trkpt><trkpt lat="35.0835883" lon="32.5575686"><ele>293.2</ele><time>2015-04-27T07:43:36.0000000+00:00</time></trkpt><trkpt lat="35.0835338" lon="32.5575905"><ele>291.5</ele><time>2015-04-27T07:43:39.0000000+00:00</time></trkpt><trkpt lat="35.0834846" lon="32.557613"><ele>291.4</ele><time>2015-04-27T07:43:42.0000000+00:00</time></trkpt><trkpt lat="35.0834383" lon="32.5576548"><ele>290.9</ele><time>2015-04-27T07:43:45.0000000+00:00</time></trkpt><trkpt lat="35.0834013" lon="32.557696"><ele>290.0</ele><time>2015-04-27T07:43:48.0000000+00:00</time></trkpt><trkpt lat="35.0833609" lon="32.5577417"><ele>290.3</ele><time>2015-04-27T07:43:51.0000000+00:00</time></trkpt><trkpt lat="35.0833224" lon="32.5577953"><ele>289.5</ele><time>2015-04-27T07:43:54.0000000+00:00</time></trkpt><trkpt lat="35.0833121" lon="32.5578574"><ele>287.5</ele><time>2015-04-27T07:43:57.0000000+00:00</time></trkpt><trkpt lat="35.0832689" lon="32.5579059"><ele>286.9</ele><time>2015-04-27T07:44:00.0000000+00:00</time></trkpt><trkpt lat="35.0832086" lon="32.5579437"><ele>283.7</ele><time>2015-04-27T07:44:02.0000000+00:00</time></trkpt><trkpt lat="35.0831705" lon="32.5579793"><ele>284.6</ele><time>2015-04-27T07:44:04.0000000+00:00</time></trkpt><trkpt lat="35.0831277" lon="32.5580157"><ele>284.4</ele><time>2015-04-27T07:44:06.0000000+00:00</time></trkpt><trkpt lat="35.0830905" lon="32.5580571"><ele>284.5</ele><time>2015-04-27T07:44:08.0000000+00:00</time></trkpt><trkpt lat="35.0830557" lon="32.5580965"><ele>284.1</ele><time>2015-04-27T07:44:10.0000000+00:00</time></trkpt><trkpt lat="35.0830188" lon="32.5581373"><ele>286.0</ele><time>2015-04-27T07:44:12.0000000+00:00</time></trkpt><trkpt lat="35.0829857" lon="32.5581777"><ele>287.9</ele><time>2015-04-27T07:44:14.0000000+00:00</time></trkpt><trkpt lat="35.0829514" lon="32.5582145"><ele>288.9</ele><time>2015-04-27T07:44:16.0000000+00:00</time></trkpt><trkpt lat="35.0829104" lon="32.5582508"><ele>288.4</ele><time>2015-04-27T07:44:18.0000000+00:00</time></trkpt><trkpt lat="35.0828593" lon="32.5582843"><ele>288.6</ele><time>2015-04-27T07:44:20.0000000+00:00</time></trkpt><trkpt lat="35.0828089" lon="32.5583078"><ele>288.3</ele><time>2015-04-27T07:44:22.0000000+00:00</time></trkpt><trkpt lat="35.0827602" lon="32.558321"><ele>288.8</ele><time>2015-04-27T07:44:24.0000000+00:00</time></trkpt><trkpt lat="35.0827139" lon="32.5583352"><ele>290.9</ele><time>2015-04-27T07:44:26.0000000+00:00</time></trkpt><trkpt lat="35.0826672" lon="32.5583536"><ele>291.8</ele><time>2015-04-27T07:44:29.0000000+00:00</time></trkpt><trkpt lat="35.082611" lon="32.5583835"><ele>293.8</ele><time>2015-04-27T07:44:35.0000000+00:00</time></trkpt><trkpt lat="35.0825613" lon="32.5584208"><ele>295.7</ele><time>2015-04-27T07:44:38.0000000+00:00</time></trkpt><trkpt lat="35.082516" lon="32.5584766"><ele>298.8</ele><time>2015-04-27T07:44:41.0000000+00:00</time></trkpt><trkpt lat="35.0824862" lon="32.5585194"><ele>299.9</ele><time>2015-04-27T07:44:43.0000000+00:00</time></trkpt><trkpt lat="35.082459" lon="32.558567"><ele>300.7</ele><time>2015-04-27T07:44:45.0000000+00:00</time></trkpt><trkpt lat="35.0824361" lon="32.5586146"><ele>298.4</ele><time>2015-04-27T07:44:47.0000000+00:00</time></trkpt><trkpt lat="35.0824029" lon="32.5586869"><ele>297.9</ele><time>2015-04-27T07:44:50.0000000+00:00</time></trkpt><trkpt lat="35.0823708" lon="32.5587501"><ele>296.0</ele><time>2015-04-27T07:44:53.0000000+00:00</time></trkpt><trkpt lat="35.0823522" lon="32.5588109"><ele>296.4</ele><time>2015-04-27T07:44:56.0000000+00:00</time></trkpt><trkpt lat="35.0823215" lon="32.5588663"><ele>296.2</ele><time>2015-04-27T07:44:59.0000000+00:00</time></trkpt><trkpt lat="35.0822902" lon="32.558922"><ele>298.1</ele><time>2015-04-27T07:45:02.0000000+00:00</time></trkpt><trkpt lat="35.0822474" lon="32.5589803"><ele>300.2</ele><time>2015-04-27T07:45:05.0000000+00:00</time></trkpt><trkpt lat="35.0822286" lon="32.5590441"><ele>301.6</ele><time>2015-04-27T07:45:08.0000000+00:00</time></trkpt><trkpt lat="35.0822516" lon="32.5591109"><ele>303.5</ele><time>2015-04-27T07:45:11.0000000+00:00</time></trkpt><trkpt lat="35.0822595" lon="32.5591652"><ele>305.6</ele><time>2015-04-27T07:45:13.0000000+00:00</time></trkpt><trkpt lat="35.0822637" lon="32.5592387"><ele>306.9</ele><time>2015-04-27T07:45:16.0000000+00:00</time></trkpt><trkpt lat="35.0822259" lon="32.5593121"><ele>304.5</ele><time>2015-04-27T07:45:19.0000000+00:00</time></trkpt><trkpt lat="35.0822068" lon="32.5593845"><ele>300.9</ele><time>2015-04-27T07:45:22.0000000+00:00</time></trkpt><trkpt lat="35.0821883" lon="32.5594369"><ele>300.9</ele><time>2015-04-27T07:45:24.0000000+00:00</time></trkpt><trkpt lat="35.082185" lon="32.5595166"><ele>299.2</ele><time>2015-04-27T07:45:27.0000000+00:00</time></trkpt><trkpt lat="35.0821775" lon="32.559589"><ele>297.2</ele><time>2015-04-27T07:45:30.0000000+00:00</time></trkpt><trkpt lat="35.0821725" lon="32.5596656"><ele>299.7</ele><time>2015-04-27T07:45:33.0000000+00:00</time></trkpt><trkpt lat="35.082137" lon="32.5597318"><ele>303.0</ele><time>2015-04-27T07:45:36.0000000+00:00</time></trkpt><trkpt lat="35.0821063" lon="32.5597786"><ele>303.5</ele><time>2015-04-27T07:45:38.0000000+00:00</time></trkpt><trkpt lat="35.0820856" lon="32.5598293"><ele>302.3</ele><time>2015-04-27T07:45:40.0000000+00:00</time></trkpt><trkpt lat="35.0820443" lon="32.5598989"><ele>301.6</ele><time>2015-04-27T07:45:43.0000000+00:00</time></trkpt><trkpt lat="35.0819898" lon="32.559965"><ele>301.1</ele><time>2015-04-27T07:45:46.0000000+00:00</time></trkpt><trkpt lat="35.0819553" lon="32.5600138"><ele>303.0</ele><time>2015-04-27T07:45:48.0000000+00:00</time></trkpt><trkpt lat="35.0819389" lon="32.5600845"><ele>301.6</ele><time>2015-04-27T07:45:51.0000000+00:00</time></trkpt><trkpt lat="35.0819389" lon="32.560154"><ele>301.9</ele><time>2015-04-27T07:45:54.0000000+00:00</time></trkpt><trkpt lat="35.0819498" lon="32.5602234"><ele>304.0</ele><time>2015-04-27T07:45:57.0000000+00:00</time></trkpt><trkpt lat="35.0819838" lon="32.5602836"><ele>305.6</ele><time>2015-04-27T07:46:00.0000000+00:00</time></trkpt><trkpt lat="35.0819946" lon="32.5603434"><ele>306.4</ele><time>2015-04-27T07:46:03.0000000+00:00</time></trkpt><trkpt lat="35.0820047" lon="32.5603972"><ele>309.0</ele><time>2015-04-27T07:46:06.0000000+00:00</time></trkpt><trkpt lat="35.082024" lon="32.5604654"><ele>310.7</ele><time>2015-04-27T07:46:10.0000000+00:00</time></trkpt><trkpt lat="35.082052" lon="32.5605099"><ele>310.9</ele><time>2015-04-27T07:46:13.0000000+00:00</time></trkpt><trkpt lat="35.0820702" lon="32.5605647"><ele>313.2</ele><time>2015-04-27T07:46:16.0000000+00:00</time></trkpt><trkpt lat="35.0820907" lon="32.5606174"><ele>315.3</ele><time>2015-04-27T07:46:19.0000000+00:00</time></trkpt><trkpt lat="35.0821128" lon="32.5606678"><ele>316.4</ele><time>2015-04-27T07:46:22.0000000+00:00</time></trkpt><trkpt lat="35.0821317" lon="32.5607182"><ele>317.9</ele><time>2015-04-27T07:46:25.0000000+00:00</time></trkpt><trkpt lat="35.0821382" lon="32.5607794"><ele>321.5</ele><time>2015-04-27T07:46:28.0000000+00:00</time></trkpt><trkpt lat="35.0821439" lon="32.5608467"><ele>324.3</ele><time>2015-04-27T07:46:31.0000000+00:00</time></trkpt><trkpt lat="35.0821488" lon="32.5609076"><ele>326.0</ele><time>2015-04-27T07:46:33.0000000+00:00</time></trkpt><trkpt lat="35.0821839" lon="32.5609774"><ele>325.4</ele><time>2015-04-27T07:46:36.0000000+00:00</time></trkpt><trkpt lat="35.0822266" lon="32.5610162"><ele>325.1</ele><time>2015-04-27T07:46:38.0000000+00:00</time></trkpt><trkpt lat="35.082262" lon="32.5610595"><ele>325.0</ele><time>2015-04-27T07:46:40.0000000+00:00</time></trkpt><trkpt lat="35.0823153" lon="32.5610938"><ele>324.6</ele><time>2015-04-27T07:46:43.0000000+00:00</time></trkpt><trkpt lat="35.0823611" lon="32.5611462"><ele>325.0</ele><time>2015-04-27T07:46:46.0000000+00:00</time></trkpt><trkpt lat="35.0824075" lon="32.5612027"><ele>325.2</ele><time>2015-04-27T07:46:49.0000000+00:00</time></trkpt><trkpt lat="35.0824179" lon="32.5612682"><ele>327.8</ele><time>2015-04-27T07:46:52.0000000+00:00</time></trkpt><trkpt lat="35.0824356" lon="32.5613251"><ele>328.7</ele><time>2015-04-27T07:46:55.0000000+00:00</time></trkpt><trkpt lat="35.0824588" lon="32.5613881"><ele>330.3</ele><time>2015-04-27T07:46:58.0000000+00:00</time></trkpt><trkpt lat="35.0824267" lon="32.5614511"><ele>330.1</ele><time>2015-04-27T07:47:01.0000000+00:00</time></trkpt><trkpt lat="35.0823802" lon="32.5614644"><ele>330.0</ele><time>2015-04-27T07:47:03.0000000+00:00</time></trkpt><trkpt lat="35.0823333" lon="32.5614608"><ele>330.4</ele><time>2015-04-27T07:47:05.0000000+00:00</time></trkpt><trkpt lat="35.082289" lon="32.5614456"><ele>330.3</ele><time>2015-04-27T07:47:07.0000000+00:00</time></trkpt><trkpt lat="35.0822248" lon="32.5614234"><ele>330.7</ele><time>2015-04-27T07:47:10.0000000+00:00</time></trkpt><trkpt lat="35.0821778" lon="32.5614025"><ele>330.1</ele><time>2015-04-27T07:47:12.0000000+00:00</time></trkpt><trkpt lat="35.082119" lon="32.5613766"><ele>331.7</ele><time>2015-04-27T07:47:15.0000000+00:00</time></trkpt><trkpt lat="35.0820719" lon="32.5613675"><ele>332.4</ele><time>2015-04-27T07:47:18.0000000+00:00</time></trkpt><trkpt lat="35.0820229" lon="32.5613637"><ele>334.1</ele><time>2015-04-27T07:47:23.0000000+00:00</time></trkpt><trkpt lat="35.0819724" lon="32.5613706"><ele>333.4</ele><time>2015-04-27T07:47:26.0000000+00:00</time></trkpt><trkpt lat="35.0819261" lon="32.5613879"><ele>328.1</ele><time>2015-04-27T07:47:29.0000000+00:00</time></trkpt><trkpt lat="35.0818778" lon="32.5614209"><ele>325.3</ele><time>2015-04-27T07:47:32.0000000+00:00</time></trkpt><trkpt lat="35.0818354" lon="32.5614613"><ele>323.3</ele><time>2015-04-27T07:47:38.0000000+00:00</time></trkpt><trkpt lat="35.081793" lon="32.5614952"><ele>319.6</ele><time>2015-04-27T07:47:41.0000000+00:00</time></trkpt><trkpt lat="35.0817478" lon="32.5615347"><ele>318.9</ele><time>2015-04-27T07:47:44.0000000+00:00</time></trkpt><trkpt lat="35.0817108" lon="32.5615722"><ele>319.0</ele><time>2015-04-27T07:47:47.0000000+00:00</time></trkpt><trkpt lat="35.0816686" lon="32.5615945"><ele>318.4</ele><time>2015-04-27T07:47:50.0000000+00:00</time></trkpt><trkpt lat="35.0816159" lon="32.5616189"><ele>318.9</ele><time>2015-04-27T07:47:53.0000000+00:00</time></trkpt><trkpt lat="35.0815596" lon="32.561646"><ele>318.2</ele><time>2015-04-27T07:47:56.0000000+00:00</time></trkpt><trkpt lat="35.0815081" lon="32.5616657"><ele>318.6</ele><time>2015-04-27T07:47:59.0000000+00:00</time></trkpt><trkpt lat="35.0814601" lon="32.5616877"><ele>318.4</ele><time>2015-04-27T07:48:02.0000000+00:00</time></trkpt><trkpt lat="35.0814153" lon="32.5617084"><ele>318.0</ele><time>2015-04-27T07:48:05.0000000+00:00</time></trkpt><trkpt lat="35.081361" lon="32.5617297"><ele>317.9</ele><time>2015-04-27T07:48:08.0000000+00:00</time></trkpt><trkpt lat="35.0813124" lon="32.5617448"><ele>317.2</ele><time>2015-04-27T07:48:10.0000000+00:00</time></trkpt><trkpt lat="35.0812498" lon="32.5617634"><ele>317.0</ele><time>2015-04-27T07:48:13.0000000+00:00</time></trkpt><trkpt lat="35.0811905" lon="32.5617892"><ele>316.9</ele><time>2015-04-27T07:48:16.0000000+00:00</time></trkpt><trkpt lat="35.0811268" lon="32.5618097"><ele>317.7</ele><time>2015-04-27T07:48:19.0000000+00:00</time></trkpt><trkpt lat="35.0810801" lon="32.5618343"><ele>317.6</ele><time>2015-04-27T07:48:22.0000000+00:00</time></trkpt><trkpt lat="35.0810523" lon="32.5618961"><ele>317.2</ele><time>2015-04-27T07:48:27.0000000+00:00</time></trkpt><trkpt lat="35.0810367" lon="32.5619489"><ele>317.7</ele><time>2015-04-27T07:48:30.0000000+00:00</time></trkpt><trkpt lat="35.0810195" lon="32.5620119"><ele>317.2</ele><time>2015-04-27T07:48:33.0000000+00:00</time></trkpt><trkpt lat="35.0810318" lon="32.5620866"><ele>317.3</ele><time>2015-04-27T07:48:36.0000000+00:00</time></trkpt><trkpt lat="35.0810598" lon="32.5621486"><ele>318.7</ele><time>2015-04-27T07:48:39.0000000+00:00</time></trkpt><trkpt lat="35.0810976" lon="32.5622005"><ele>319.4</ele><time>2015-04-27T07:48:41.0000000+00:00</time></trkpt><trkpt lat="35.0811332" lon="32.5622438"><ele>319.8</ele><time>2015-04-27T07:48:43.0000000+00:00</time></trkpt><trkpt lat="35.0811708" lon="32.5622872"><ele>321.1</ele><time>2015-04-27T07:48:45.0000000+00:00</time></trkpt><trkpt lat="35.0812" lon="32.5623345"><ele>321.7</ele><time>2015-04-27T07:48:47.0000000+00:00</time></trkpt><trkpt lat="35.0812179" lon="32.5623873"><ele>322.1</ele><time>2015-04-27T07:48:49.0000000+00:00</time></trkpt><trkpt lat="35.0812471" lon="32.5624324"><ele>322.5</ele><time>2015-04-27T07:48:51.0000000+00:00</time></trkpt><trkpt lat="35.081288" lon="32.5624678"><ele>322.8</ele><time>2015-04-27T07:48:53.0000000+00:00</time></trkpt><trkpt lat="35.0813248" lon="32.5625042"><ele>324.7</ele><time>2015-04-27T07:48:55.0000000+00:00</time></trkpt><trkpt lat="35.0813737" lon="32.5625561"><ele>324.0</ele><time>2015-04-27T07:48:58.0000000+00:00</time></trkpt><trkpt lat="35.0814013" lon="32.5626193"><ele>324.3</ele><time>2015-04-27T07:49:01.0000000+00:00</time></trkpt><trkpt lat="35.0813802" lon="32.5626908"><ele>324.0</ele><time>2015-04-27T07:49:04.0000000+00:00</time></trkpt><trkpt lat="35.0813497" lon="32.5627411"><ele>325.6</ele><time>2015-04-27T07:49:07.0000000+00:00</time></trkpt><trkpt lat="35.0813297" lon="32.5628033"><ele>326.8</ele><time>2015-04-27T07:49:10.0000000+00:00</time></trkpt><trkpt lat="35.0813129" lon="32.5628682"><ele>328.7</ele><time>2015-04-27T07:49:13.0000000+00:00</time></trkpt><trkpt lat="35.081293" lon="32.5629384"><ele>329.0</ele><time>2015-04-27T07:49:16.0000000+00:00</time></trkpt><trkpt lat="35.0812722" lon="32.563015"><ele>331.1</ele><time>2015-04-27T07:49:19.0000000+00:00</time></trkpt><trkpt lat="35.0812418" lon="32.5630798"><ele>332.6</ele><time>2015-04-27T07:49:22.0000000+00:00</time></trkpt><trkpt lat="35.0812016" lon="32.5631419"><ele>332.8</ele><time>2015-04-27T07:49:25.0000000+00:00</time></trkpt><trkpt lat="35.0811662" lon="32.5632058"><ele>333.4</ele><time>2015-04-27T07:49:28.0000000+00:00</time></trkpt><trkpt lat="35.0811326" lon="32.5632564"><ele>333.0</ele><time>2015-04-27T07:49:31.0000000+00:00</time></trkpt><trkpt lat="35.0810951" lon="32.5632906"><ele>331.9</ele><time>2015-04-27T07:49:34.0000000+00:00</time></trkpt><trkpt lat="35.0810614" lon="32.5633358"><ele>331.8</ele><time>2015-04-27T07:49:37.0000000+00:00</time></trkpt><trkpt lat="35.0810422" lon="32.5633979"><ele>331.0</ele><time>2015-04-27T07:49:40.0000000+00:00</time></trkpt><trkpt lat="35.0810332" lon="32.5634646"><ele>330.9</ele><time>2015-04-27T07:49:43.0000000+00:00</time></trkpt><trkpt lat="35.0810241" lon="32.5635321"><ele>331.7</ele><time>2015-04-27T07:49:47.0000000+00:00</time></trkpt><trkpt lat="35.0809952" lon="32.5635838"><ele>332.8</ele><time>2015-04-27T07:49:50.0000000+00:00</time></trkpt><trkpt lat="35.0809732" lon="32.563635"><ele>331.8</ele><time>2015-04-27T07:49:53.0000000+00:00</time></trkpt><trkpt lat="35.0809343" lon="32.5636716"><ele>328.0</ele><time>2015-04-27T07:49:56.0000000+00:00</time></trkpt><trkpt lat="35.0808987" lon="32.56373"><ele>325.1</ele><time>2015-04-27T07:49:59.0000000+00:00</time></trkpt><trkpt lat="35.0808662" lon="32.5637895"><ele>325.3</ele><time>2015-04-27T07:50:02.0000000+00:00</time></trkpt><trkpt lat="35.0808513" lon="32.5638554"><ele>324.1</ele><time>2015-04-27T07:50:05.0000000+00:00</time></trkpt><trkpt lat="35.0808645" lon="32.5639194"><ele>323.0</ele><time>2015-04-27T07:50:08.0000000+00:00</time></trkpt><trkpt lat="35.0808885" lon="32.5639826"><ele>323.3</ele><time>2015-04-27T07:50:11.0000000+00:00</time></trkpt><trkpt lat="35.0808908" lon="32.564046"><ele>321.2</ele><time>2015-04-27T07:50:14.0000000+00:00</time></trkpt><trkpt lat="35.0808594" lon="32.5641178"><ele>322.3</ele><time>2015-04-27T07:50:17.0000000+00:00</time></trkpt><trkpt lat="35.0808233" lon="32.5641869"><ele>322.6</ele><time>2015-04-27T07:50:20.0000000+00:00</time></trkpt><trkpt lat="35.080796" lon="32.5642586"><ele>323.4</ele><time>2015-04-27T07:50:23.0000000+00:00</time></trkpt><trkpt lat="35.0807831" lon="32.5643261"><ele>324.1</ele><time>2015-04-27T07:50:26.0000000+00:00</time></trkpt><trkpt lat="35.080784" lon="32.5643906"><ele>321.8</ele><time>2015-04-27T07:50:29.0000000+00:00</time></trkpt><trkpt lat="35.0807923" lon="32.5644595"><ele>320.7</ele><time>2015-04-27T07:50:32.0000000+00:00</time></trkpt><trkpt lat="35.0807768" lon="32.5645179"><ele>320.6</ele><time>2015-04-27T07:50:35.0000000+00:00</time></trkpt><trkpt lat="35.0807265" lon="32.5645535"><ele>321.5</ele><time>2015-04-27T07:50:39.0000000+00:00</time></trkpt><trkpt lat="35.0806878" lon="32.5645112"><ele>324.0</ele><time>2015-04-27T07:50:47.0000000+00:00</time></trkpt><trkpt lat="35.0806726" lon="32.5644582"><ele>329.0</ele><time>2015-04-27T07:50:51.0000000+00:00</time></trkpt><trkpt lat="35.0806511" lon="32.5643958"><ele>328.9</ele><time>2015-04-27T07:50:55.0000000+00:00</time></trkpt><trkpt lat="35.0806476" lon="32.5643372"><ele>329.4</ele><time>2015-04-27T07:50:59.0000000+00:00</time></trkpt><trkpt lat="35.0806275" lon="32.5642859"><ele>330.8</ele><time>2015-04-27T07:51:03.0000000+00:00</time></trkpt><trkpt lat="35.0806181" lon="32.5642313"><ele>330.1</ele><time>2015-04-27T07:51:07.0000000+00:00</time></trkpt><trkpt lat="35.0806114" lon="32.5641752"><ele>329.4</ele><time>2015-04-27T07:51:11.0000000+00:00</time></trkpt><trkpt lat="35.0806112" lon="32.5641134"><ele>328.1</ele><time>2015-04-27T07:51:15.0000000+00:00</time></trkpt><trkpt lat="35.0806313" lon="32.5640627"><ele>327.9</ele><time>2015-04-27T07:51:19.0000000+00:00</time></trkpt><trkpt lat="35.0806208" lon="32.5640047"><ele>328.3</ele><time>2015-04-27T07:51:24.0000000+00:00</time></trkpt><trkpt lat="35.080629" lon="32.5639492"><ele>330.8</ele><time>2015-04-27T07:51:28.0000000+00:00</time></trkpt><trkpt lat="35.0806549" lon="32.5638986"><ele>331.9</ele><time>2015-04-27T07:51:32.0000000+00:00</time></trkpt><trkpt lat="35.0806667" lon="32.563836"><ele>331.9</ele><time>2015-04-27T07:51:36.0000000+00:00</time></trkpt><trkpt lat="35.0806754" lon="32.5637774"><ele>332.4</ele><time>2015-04-27T07:51:40.0000000+00:00</time></trkpt><trkpt lat="35.08068" lon="32.5637222"><ele>333.0</ele><time>2015-04-27T07:51:44.0000000+00:00</time></trkpt><trkpt lat="35.0806854" lon="32.5636603"><ele>335.1</ele><time>2015-04-27T07:51:48.0000000+00:00</time></trkpt><trkpt lat="35.0806859" lon="32.5635934"><ele>336.4</ele><time>2015-04-27T07:51:52.0000000+00:00</time></trkpt><trkpt lat="35.0806658" lon="32.5635277"><ele>336.0</ele><time>2015-04-27T07:51:56.0000000+00:00</time></trkpt><trkpt lat="35.0806584" lon="32.5634658"><ele>337.6</ele><time>2015-04-27T07:52:00.0000000+00:00</time></trkpt><trkpt lat="35.0806681" lon="32.5634109"><ele>337.9</ele><time>2015-04-27T07:52:04.0000000+00:00</time></trkpt><trkpt lat="35.0806811" lon="32.5633471"><ele>339.1</ele><time>2015-04-27T07:52:08.0000000+00:00</time></trkpt><trkpt lat="35.0806773" lon="32.5632785"><ele>339.8</ele><time>2015-04-27T07:52:12.0000000+00:00</time></trkpt><trkpt lat="35.0806676" lon="32.5632098"><ele>338.2</ele><time>2015-04-27T07:52:16.0000000+00:00</time></trkpt><trkpt lat="35.0806637" lon="32.5631522"><ele>336.6</ele><time>2015-04-27T07:52:20.0000000+00:00</time></trkpt><trkpt lat="35.0806769" lon="32.5630985"><ele>338.8</ele><time>2015-04-27T07:52:24.0000000+00:00</time></trkpt><trkpt lat="35.0806792" lon="32.5630434"><ele>338.5</ele><time>2015-04-27T07:52:28.0000000+00:00</time></trkpt><trkpt lat="35.0806911" lon="32.5629782"><ele>340.9</ele><time>2015-04-27T07:52:33.0000000+00:00</time></trkpt><trkpt lat="35.0807127" lon="32.5629232"><ele>341.2</ele><time>2015-04-27T07:52:37.0000000+00:00</time></trkpt><trkpt lat="35.0806969" lon="32.5628573"><ele>340.9</ele><time>2015-04-27T07:52:41.0000000+00:00</time></trkpt><trkpt lat="35.0806857" lon="32.562798"><ele>341.8</ele><time>2015-04-27T07:52:45.0000000+00:00</time></trkpt><trkpt lat="35.0806488" lon="32.5627478"><ele>341.2</ele><time>2015-04-27T07:52:50.0000000+00:00</time></trkpt><trkpt lat="35.0806189" lon="32.5627029"><ele>341.4</ele><time>2015-04-27T07:52:55.0000000+00:00</time></trkpt><trkpt lat="35.0805833" lon="32.5626554"><ele>344.3</ele><time>2015-04-27T07:53:01.0000000+00:00</time></trkpt><trkpt lat="35.0805432" lon="32.5626293"><ele>344.8</ele><time>2015-04-27T07:53:05.0000000+00:00</time></trkpt><trkpt lat="35.0804939" lon="32.5625994"><ele>344.5</ele><time>2015-04-27T07:53:10.0000000+00:00</time></trkpt><trkpt lat="35.0804585" lon="32.5625653"><ele>344.9</ele><time>2015-04-27T07:53:14.0000000+00:00</time></trkpt><trkpt lat="35.0804373" lon="32.5625147"><ele>349.1</ele><time>2015-04-27T07:53:18.0000000+00:00</time></trkpt><trkpt lat="35.0804161" lon="32.5624585"><ele>352.5</ele><time>2015-04-27T07:53:23.0000000+00:00</time></trkpt><trkpt lat="35.0803922" lon="32.5624029"><ele>353.3</ele><time>2015-04-27T07:53:27.0000000+00:00</time></trkpt><trkpt lat="35.0803663" lon="32.5623414"><ele>352.5</ele><time>2015-04-27T07:53:31.0000000+00:00</time></trkpt><trkpt lat="35.0803422" lon="32.5622796"><ele>352.5</ele><time>2015-04-27T07:53:36.0000000+00:00</time></trkpt><trkpt lat="35.0803218" lon="32.5622172"><ele>353.1</ele><time>2015-04-27T07:53:41.0000000+00:00</time></trkpt><trkpt lat="35.0802789" lon="32.5621861"><ele>352.9</ele><time>2015-04-27T07:53:45.0000000+00:00</time></trkpt><trkpt lat="35.0802258" lon="32.5621655"><ele>354.4</ele><time>2015-04-27T07:53:50.0000000+00:00</time></trkpt><trkpt lat="35.080176" lon="32.5621614"><ele>355.4</ele><time>2015-04-27T07:53:54.0000000+00:00</time></trkpt><trkpt lat="35.0801184" lon="32.5621586"><ele>355.3</ele><time>2015-04-27T07:53:58.0000000+00:00</time></trkpt><trkpt lat="35.0800693" lon="32.5621566"><ele>355.9</ele><time>2015-04-27T07:54:02.0000000+00:00</time></trkpt><trkpt lat="35.0800179" lon="32.5621628"><ele>355.1</ele><time>2015-04-27T07:54:06.0000000+00:00</time></trkpt><trkpt lat="35.0799672" lon="32.5621834"><ele>354.9</ele><time>2015-04-27T07:54:10.0000000+00:00</time></trkpt><trkpt lat="35.0799199" lon="32.5622048"><ele>355.8</ele><time>2015-04-27T07:54:14.0000000+00:00</time></trkpt><trkpt lat="35.0798672" lon="32.5622267"><ele>353.2</ele><time>2015-04-27T07:54:18.0000000+00:00</time></trkpt><trkpt lat="35.0798206" lon="32.5622605"><ele>354.3</ele><time>2015-04-27T07:54:22.0000000+00:00</time></trkpt><trkpt lat="35.0797737" lon="32.5623004"><ele>352.3</ele><time>2015-04-27T07:54:26.0000000+00:00</time></trkpt><trkpt lat="35.0797218" lon="32.562322"><ele>352.0</ele><time>2015-04-27T07:54:30.0000000+00:00</time></trkpt><trkpt lat="35.0796691" lon="32.5623312"><ele>351.0</ele><time>2015-04-27T07:54:34.0000000+00:00</time></trkpt><trkpt lat="35.0796202" lon="32.5623255"><ele>351.1</ele><time>2015-04-27T07:54:38.0000000+00:00</time></trkpt><trkpt lat="35.0795688" lon="32.562309"><ele>351.7</ele><time>2015-04-27T07:54:43.0000000+00:00</time></trkpt><trkpt lat="35.0795241" lon="32.5622962"><ele>352.4</ele><time>2015-04-27T07:54:47.0000000+00:00</time></trkpt><trkpt lat="35.0794832" lon="32.5622705"><ele>352.8</ele><time>2015-04-27T07:54:51.0000000+00:00</time></trkpt><trkpt lat="35.0794323" lon="32.5622465"><ele>353.5</ele><time>2015-04-27T07:54:56.0000000+00:00</time></trkpt><trkpt lat="35.0793859" lon="32.5622233"><ele>353.9</ele><time>2015-04-27T07:55:00.0000000+00:00</time></trkpt><trkpt lat="35.07934" lon="32.5622072"><ele>353.9</ele><time>2015-04-27T07:55:04.0000000+00:00</time></trkpt><trkpt lat="35.0792915" lon="32.5621932"><ele>353.4</ele><time>2015-04-27T07:55:08.0000000+00:00</time></trkpt><trkpt lat="35.079247" lon="32.5621695"><ele>353.9</ele><time>2015-04-27T07:55:12.0000000+00:00</time></trkpt><trkpt lat="35.0792051" lon="32.5621446"><ele>354.9</ele><time>2015-04-27T07:55:16.0000000+00:00</time></trkpt><trkpt lat="35.0791624" lon="32.5621274"><ele>355.9</ele><time>2015-04-27T07:55:20.0000000+00:00</time></trkpt><trkpt lat="35.0791144" lon="32.562124"><ele>355.9</ele><time>2015-04-27T07:55:24.0000000+00:00</time></trkpt><trkpt lat="35.0790618" lon="32.5621397"><ele>358.3</ele><time>2015-04-27T07:55:29.0000000+00:00</time></trkpt><trkpt lat="35.0790181" lon="32.562157"><ele>359.4</ele><time>2015-04-27T07:55:33.0000000+00:00</time></trkpt><trkpt lat="35.0789711" lon="32.562179"><ele>359.8</ele><time>2015-04-27T07:55:37.0000000+00:00</time></trkpt><trkpt lat="35.0789361" lon="32.5622193"><ele>359.8</ele><time>2015-04-27T07:55:41.0000000+00:00</time></trkpt><trkpt lat="35.0789016" lon="32.5622629"><ele>359.9</ele><time>2015-04-27T07:55:48.0000000+00:00</time></trkpt><trkpt lat="35.0788598" lon="32.5622875"><ele>360.9</ele><time>2015-04-27T07:55:53.0000000+00:00</time></trkpt><trkpt lat="35.0788153" lon="32.5623099"><ele>361.2</ele><time>2015-04-27T07:55:57.0000000+00:00</time></trkpt><trkpt lat="35.0787694" lon="32.5623424"><ele>361.0</ele><time>2015-04-27T07:56:01.0000000+00:00</time></trkpt><trkpt lat="35.07873" lon="32.562382"><ele>360.7</ele><time>2015-04-27T07:56:05.0000000+00:00</time></trkpt><trkpt lat="35.0786934" lon="32.5624269"><ele>362.2</ele><time>2015-04-27T07:56:09.0000000+00:00</time></trkpt><trkpt lat="35.0786659" lon="32.5624767"><ele>364.1</ele><time>2015-04-27T07:56:13.0000000+00:00</time></trkpt><trkpt lat="35.0786472" lon="32.5625304"><ele>367.9</ele><time>2015-04-27T07:56:17.0000000+00:00</time></trkpt><trkpt lat="35.078627" lon="32.5625885"><ele>368.0</ele><time>2015-04-27T07:56:21.0000000+00:00</time></trkpt><trkpt lat="35.0786072" lon="32.5626497"><ele>366.5</ele><time>2015-04-27T07:56:25.0000000+00:00</time></trkpt><trkpt lat="35.0785944" lon="32.5627105"><ele>366.3</ele><time>2015-04-27T07:56:29.0000000+00:00</time></trkpt><trkpt lat="35.0785871" lon="32.562778"><ele>365.9</ele><time>2015-04-27T07:56:34.0000000+00:00</time></trkpt><trkpt lat="35.0785804" lon="32.562834"><ele>367.3</ele><time>2015-04-27T07:56:38.0000000+00:00</time></trkpt><trkpt lat="35.0785494" lon="32.5628794"><ele>366.0</ele><time>2015-04-27T07:56:42.0000000+00:00</time></trkpt><trkpt lat="35.0784977" lon="32.5629109"><ele>367.2</ele><time>2015-04-27T07:56:46.0000000+00:00</time></trkpt><trkpt lat="35.0784539" lon="32.5629343"><ele>369.2</ele><time>2015-04-27T07:56:49.0000000+00:00</time></trkpt><trkpt lat="35.0784035" lon="32.5629633"><ele>371.5</ele><time>2015-04-27T07:56:53.0000000+00:00</time></trkpt><trkpt lat="35.0783664" lon="32.5630113"><ele>371.0</ele><time>2015-04-27T07:56:57.0000000+00:00</time></trkpt><trkpt lat="35.0783417" lon="32.5630687"><ele>370.9</ele><time>2015-04-27T07:57:01.0000000+00:00</time></trkpt><trkpt lat="35.0783281" lon="32.5631294"><ele>372.6</ele><time>2015-04-27T07:57:05.0000000+00:00</time></trkpt><trkpt lat="35.0783151" lon="32.5631919"><ele>375.2</ele><time>2015-04-27T07:57:09.0000000+00:00</time></trkpt><trkpt lat="35.0783144" lon="32.5632574"><ele>376.8</ele><time>2015-04-27T07:57:13.0000000+00:00</time></trkpt><trkpt lat="35.0783052" lon="32.5633183"><ele>376.0</ele><time>2015-04-27T07:57:17.0000000+00:00</time></trkpt><trkpt lat="35.0783034" lon="32.5633804"><ele>377.3</ele><time>2015-04-27T07:57:21.0000000+00:00</time></trkpt><trkpt lat="35.0783073" lon="32.5634449"><ele>378.8</ele><time>2015-04-27T07:57:25.0000000+00:00</time></trkpt><trkpt lat="35.0783074" lon="32.5635126"><ele>379.7</ele><time>2015-04-27T07:57:29.0000000+00:00</time></trkpt><trkpt lat="35.0782882" lon="32.5635725"><ele>379.4</ele><time>2015-04-27T07:57:33.0000000+00:00</time></trkpt><trkpt lat="35.0782618" lon="32.5636289"><ele>381.3</ele><time>2015-04-27T07:57:37.0000000+00:00</time></trkpt><trkpt lat="35.0782376" lon="32.5636889"><ele>380.1</ele><time>2015-04-27T07:57:42.0000000+00:00</time></trkpt><trkpt lat="35.0782099" lon="32.5637394"><ele>383.0</ele><time>2015-04-27T07:57:46.0000000+00:00</time></trkpt><trkpt lat="35.0781772" lon="32.5637896"><ele>384.7</ele><time>2015-04-27T07:57:50.0000000+00:00</time></trkpt><trkpt lat="35.0781508" lon="32.5638411"><ele>385.8</ele><time>2015-04-27T07:57:54.0000000+00:00</time></trkpt><trkpt lat="35.0781234" lon="32.5638969"><ele>385.1</ele><time>2015-04-27T07:57:59.0000000+00:00</time></trkpt><trkpt lat="35.0780978" lon="32.5639444"><ele>384.9</ele><time>2015-04-27T07:58:03.0000000+00:00</time></trkpt><trkpt lat="35.078072" lon="32.5639996"><ele>384.7</ele><time>2015-04-27T07:58:07.0000000+00:00</time></trkpt><trkpt lat="35.0780446" lon="32.5640568"><ele>385.4</ele><time>2015-04-27T07:58:11.0000000+00:00</time></trkpt><trkpt lat="35.078004" lon="32.5641042"><ele>386.2</ele><time>2015-04-27T07:58:15.0000000+00:00</time></trkpt><trkpt lat="35.0779704" lon="32.5641533"><ele>386.8</ele><time>2015-04-27T07:58:19.0000000+00:00</time></trkpt><trkpt lat="35.0779349" lon="32.5641967"><ele>387.2</ele><time>2015-04-27T07:58:23.0000000+00:00</time></trkpt><trkpt lat="35.0779206" lon="32.5642505"><ele>385.9</ele><time>2015-04-27T07:58:35.0000000+00:00</time></trkpt><trkpt lat="35.0779518" lon="32.5642103"><ele>386.4</ele><time>2015-04-27T08:14:48.0000000+00:00</time></trkpt><trkpt lat="35.0779068" lon="32.5641953"><ele>385.2</ele><time>2015-04-27T08:15:07.0000000+00:00</time></trkpt><trkpt lat="35.0778667" lon="32.5642251"><ele>386.4</ele><time>2015-04-27T08:15:12.0000000+00:00</time></trkpt><trkpt lat="35.077831" lon="32.5642699"><ele>387.3</ele><time>2015-04-27T08:15:16.0000000+00:00</time></trkpt><trkpt lat="35.0778046" lon="32.5643273"><ele>386.7</ele><time>2015-04-27T08:15:20.0000000+00:00</time></trkpt><trkpt lat="35.0777756" lon="32.5643794"><ele>387.7</ele><time>2015-04-27T08:15:23.0000000+00:00</time></trkpt><trkpt lat="35.077745" lon="32.5644283"><ele>390.8</ele><time>2015-04-27T08:15:26.0000000+00:00</time></trkpt><trkpt lat="35.0777082" lon="32.5644787"><ele>388.5</ele><time>2015-04-27T08:15:30.0000000+00:00</time></trkpt><trkpt lat="35.0776786" lon="32.5645278"><ele>386.1</ele><time>2015-04-27T08:15:33.0000000+00:00</time></trkpt><trkpt lat="35.0776593" lon="32.564596"><ele>384.3</ele><time>2015-04-27T08:15:36.0000000+00:00</time></trkpt><trkpt lat="35.0776693" lon="32.5646682"><ele>382.7</ele><time>2015-04-27T08:15:39.0000000+00:00</time></trkpt><trkpt lat="35.0777006" lon="32.564708"><ele>381.4</ele><time>2015-04-27T08:15:41.0000000+00:00</time></trkpt><trkpt lat="35.0777558" lon="32.5647361"><ele>380.0</ele><time>2015-04-27T08:15:43.0000000+00:00</time></trkpt><trkpt lat="35.0778122" lon="32.5647422"><ele>379.2</ele><time>2015-04-27T08:15:45.0000000+00:00</time></trkpt><trkpt lat="35.0778693" lon="32.5647466"><ele>379.7</ele><time>2015-04-27T08:15:47.0000000+00:00</time></trkpt><trkpt lat="35.0779232" lon="32.564758"><ele>381.1</ele><time>2015-04-27T08:15:49.0000000+00:00</time></trkpt><trkpt lat="35.0779703" lon="32.5647728"><ele>381.2</ele><time>2015-04-27T08:15:51.0000000+00:00</time></trkpt><trkpt lat="35.078025" lon="32.5648061"><ele>383.6</ele><time>2015-04-27T08:15:54.0000000+00:00</time></trkpt><trkpt lat="35.0780795" lon="32.5648273"><ele>383.0</ele><time>2015-04-27T08:15:57.0000000+00:00</time></trkpt><trkpt lat="35.0781344" lon="32.5648552"><ele>382.7</ele><time>2015-04-27T08:16:00.0000000+00:00</time></trkpt><trkpt lat="35.0781868" lon="32.5648867"><ele>382.5</ele><time>2015-04-27T08:16:03.0000000+00:00</time></trkpt><trkpt lat="35.0782362" lon="32.5649249"><ele>382.2</ele><time>2015-04-27T08:16:07.0000000+00:00</time></trkpt><trkpt lat="35.0782787" lon="32.5649588"><ele>379.8</ele><time>2015-04-27T08:16:10.0000000+00:00</time></trkpt><trkpt lat="35.0783354" lon="32.565002"><ele>379.0</ele><time>2015-04-27T08:16:13.0000000+00:00</time></trkpt><trkpt lat="35.0783732" lon="32.5650388"><ele>379.5</ele><time>2015-04-27T08:16:15.0000000+00:00</time></trkpt><trkpt lat="35.0784048" lon="32.5650995"><ele>379.8</ele><time>2015-04-27T08:16:17.0000000+00:00</time></trkpt><trkpt lat="35.0784339" lon="32.5651752"><ele>381.7</ele><time>2015-04-27T08:16:19.0000000+00:00</time></trkpt><trkpt lat="35.0784663" lon="32.5652464"><ele>382.4</ele><time>2015-04-27T08:16:21.0000000+00:00</time></trkpt><trkpt lat="35.0785046" lon="32.5653132"><ele>385.3</ele><time>2015-04-27T08:16:23.0000000+00:00</time></trkpt><trkpt lat="35.0785419" lon="32.5653793"><ele>387.8</ele><time>2015-04-27T08:16:25.0000000+00:00</time></trkpt><trkpt lat="35.0785879" lon="32.5654423"><ele>387.1</ele><time>2015-04-27T08:16:27.0000000+00:00</time></trkpt><trkpt lat="35.0786302" lon="32.5655099"><ele>387.0</ele><time>2015-04-27T08:16:29.0000000+00:00</time></trkpt><trkpt lat="35.0786494" lon="32.5655811"><ele>386.9</ele><time>2015-04-27T08:16:31.0000000+00:00</time></trkpt><trkpt lat="35.0786408" lon="32.5656551"><ele>386.9</ele><time>2015-04-27T08:16:33.0000000+00:00</time></trkpt><trkpt lat="35.0786336" lon="32.5657278"><ele>385.7</ele><time>2015-04-27T08:16:35.0000000+00:00</time></trkpt><trkpt lat="35.0786167" lon="32.5658013"><ele>385.9</ele><time>2015-04-27T08:16:37.0000000+00:00</time></trkpt><trkpt lat="35.0785697" lon="32.5658765"><ele>388.2</ele><time>2015-04-27T08:16:39.0000000+00:00</time></trkpt><trkpt lat="35.0785378" lon="32.5659227"><ele>389.0</ele><time>2015-04-27T08:16:40.0000000+00:00</time></trkpt><trkpt lat="35.078509" lon="32.5659691"><ele>388.5</ele><time>2015-04-27T08:16:41.0000000+00:00</time></trkpt><trkpt lat="35.0784785" lon="32.5660174"><ele>387.2</ele><time>2015-04-27T08:16:42.0000000+00:00</time></trkpt><trkpt lat="35.078448" lon="32.5660771"><ele>385.6</ele><time>2015-04-27T08:16:43.0000000+00:00</time></trkpt><trkpt lat="35.07841" lon="32.5661765"><ele>383.1</ele><time>2015-04-27T08:16:45.0000000+00:00</time></trkpt><trkpt lat="35.078381" lon="32.5662285"><ele>382.5</ele><time>2015-04-27T08:16:46.0000000+00:00</time></trkpt><trkpt lat="35.0783295" lon="32.5662773"><ele>382.2</ele><time>2015-04-27T08:16:47.0000000+00:00</time></trkpt><trkpt lat="35.0782544" lon="32.5663238"><ele>382.5</ele><time>2015-04-27T08:16:49.0000000+00:00</time></trkpt><trkpt lat="35.0782069" lon="32.56638"><ele>382.8</ele><time>2015-04-27T08:16:51.0000000+00:00</time></trkpt><trkpt lat="35.0781867" lon="32.5664337"><ele>384.4</ele><time>2015-04-27T08:16:53.0000000+00:00</time></trkpt><trkpt lat="35.078149" lon="32.5664865"><ele>384.8</ele><time>2015-04-27T08:16:55.0000000+00:00</time></trkpt><trkpt lat="35.0781119" lon="32.5665421"><ele>383.9</ele><time>2015-04-27T08:16:57.0000000+00:00</time></trkpt><trkpt lat="35.0780716" lon="32.5666"><ele>381.9</ele><time>2015-04-27T08:16:59.0000000+00:00</time></trkpt><trkpt lat="35.0780386" lon="32.5666478"><ele>381.2</ele><time>2015-04-27T08:17:01.0000000+00:00</time></trkpt><trkpt lat="35.0780075" lon="32.5666939"><ele>382.7</ele><time>2015-04-27T08:17:03.0000000+00:00</time></trkpt><trkpt lat="35.0779668" lon="32.5667256"><ele>383.4</ele><time>2015-04-27T08:17:05.0000000+00:00</time></trkpt><trkpt lat="35.0779223" lon="32.5667499"><ele>385.3</ele><time>2015-04-27T08:17:07.0000000+00:00</time></trkpt><trkpt lat="35.0778745" lon="32.5667746"><ele>385.5</ele><time>2015-04-27T08:17:09.0000000+00:00</time></trkpt><trkpt lat="35.0778264" lon="32.5667999"><ele>386.8</ele><time>2015-04-27T08:17:11.0000000+00:00</time></trkpt><trkpt lat="35.0777859" lon="32.5668304"><ele>386.7</ele><time>2015-04-27T08:17:13.0000000+00:00</time></trkpt><trkpt lat="35.0777427" lon="32.5668611"><ele>386.1</ele><time>2015-04-27T08:17:16.0000000+00:00</time></trkpt><trkpt lat="35.0776942" lon="32.5668746"><ele>387.5</ele><time>2015-04-27T08:17:20.0000000+00:00</time></trkpt><trkpt lat="35.0776527" lon="32.5668958"><ele>391.2</ele><time>2015-04-27T08:17:24.0000000+00:00</time></trkpt><trkpt lat="35.0776119" lon="32.5669315"><ele>393.6</ele><time>2015-04-27T08:17:29.0000000+00:00</time></trkpt><trkpt lat="35.0775709" lon="32.5669594"><ele>394.2</ele><time>2015-04-27T08:17:33.0000000+00:00</time></trkpt><trkpt lat="35.0775376" lon="32.567014"><ele>395.8</ele><time>2015-04-27T08:17:37.0000000+00:00</time></trkpt><trkpt lat="35.0775173" lon="32.567073"><ele>399.4</ele><time>2015-04-27T08:17:41.0000000+00:00</time></trkpt><trkpt lat="35.0775222" lon="32.5671393"><ele>396.0</ele><time>2015-04-27T08:17:45.0000000+00:00</time></trkpt><trkpt lat="35.0775197" lon="32.5671952"><ele>396.9</ele><time>2015-04-27T08:17:48.0000000+00:00</time></trkpt><trkpt lat="35.0775086" lon="32.5672505"><ele>398.2</ele><time>2015-04-27T08:17:51.0000000+00:00</time></trkpt><trkpt lat="35.0775145" lon="32.5673184"><ele>398.8</ele><time>2015-04-27T08:17:55.0000000+00:00</time></trkpt><trkpt lat="35.0775435" lon="32.5673719"><ele>396.7</ele><time>2015-04-27T08:17:59.0000000+00:00</time></trkpt><trkpt lat="35.07758" lon="32.5674305"><ele>396.4</ele><time>2015-04-27T08:18:03.0000000+00:00</time></trkpt><trkpt lat="35.0776085" lon="32.5674868"><ele>395.3</ele><time>2015-04-27T08:18:07.0000000+00:00</time></trkpt><trkpt lat="35.0776366" lon="32.5675378"><ele>393.6</ele><time>2015-04-27T08:18:11.0000000+00:00</time></trkpt><trkpt lat="35.0776714" lon="32.5675874"><ele>391.0</ele><time>2015-04-27T08:18:15.0000000+00:00</time></trkpt><trkpt lat="35.0776994" lon="32.5676559"><ele>392.3</ele><time>2015-04-27T08:18:18.0000000+00:00</time></trkpt><trkpt lat="35.0777248" lon="32.5677057"><ele>392.3</ele><time>2015-04-27T08:18:20.0000000+00:00</time></trkpt><trkpt lat="35.077747" lon="32.5677552"><ele>391.5</ele><time>2015-04-27T08:18:22.0000000+00:00</time></trkpt><trkpt lat="35.077766" lon="32.5678065"><ele>391.8</ele><time>2015-04-27T08:18:24.0000000+00:00</time></trkpt><trkpt lat="35.0777869" lon="32.5678622"><ele>391.4</ele><time>2015-04-27T08:18:26.0000000+00:00</time></trkpt><trkpt lat="35.0778075" lon="32.5679222"><ele>389.5</ele><time>2015-04-27T08:18:28.0000000+00:00</time></trkpt><trkpt lat="35.0778223" lon="32.56798"><ele>389.3</ele><time>2015-04-27T08:18:30.0000000+00:00</time></trkpt><trkpt lat="35.0778193" lon="32.5680599"><ele>388.2</ele><time>2015-04-27T08:18:33.0000000+00:00</time></trkpt><trkpt lat="35.0778289" lon="32.5681382"><ele>387.8</ele><time>2015-04-27T08:18:36.0000000+00:00</time></trkpt><trkpt lat="35.0778395" lon="32.5682024"><ele>389.7</ele><time>2015-04-27T08:18:38.0000000+00:00</time></trkpt><trkpt lat="35.0778585" lon="32.5682678"><ele>389.9</ele><time>2015-04-27T08:18:40.0000000+00:00</time></trkpt><trkpt lat="35.0778728" lon="32.5683318"><ele>387.2</ele><time>2015-04-27T08:18:42.0000000+00:00</time></trkpt><trkpt lat="35.0778778" lon="32.5683952"><ele>386.7</ele><time>2015-04-27T08:18:44.0000000+00:00</time></trkpt><trkpt lat="35.0778823" lon="32.568466"><ele>385.6</ele><time>2015-04-27T08:18:46.0000000+00:00</time></trkpt><trkpt lat="35.0778896" lon="32.5685434"><ele>385.1</ele><time>2015-04-27T08:18:48.0000000+00:00</time></trkpt><trkpt lat="35.0778934" lon="32.5686183"><ele>385.5</ele><time>2015-04-27T08:18:50.0000000+00:00</time></trkpt><trkpt lat="35.0778824" lon="32.568698"><ele>387.3</ele><time>2015-04-27T08:18:52.0000000+00:00</time></trkpt><trkpt lat="35.0778616" lon="32.5687801"><ele>387.8</ele><time>2015-04-27T08:18:54.0000000+00:00</time></trkpt><trkpt lat="35.0778337" lon="32.5688614"><ele>389.1</ele><time>2015-04-27T08:18:56.0000000+00:00</time></trkpt><trkpt lat="35.0777961" lon="32.5689357"><ele>391.0</ele><time>2015-04-27T08:18:58.0000000+00:00</time></trkpt><trkpt lat="35.0777604" lon="32.5689987"><ele>391.9</ele><time>2015-04-27T08:19:00.0000000+00:00</time></trkpt><trkpt lat="35.0777299" lon="32.5690418"><ele>392.4</ele><time>2015-04-27T08:19:01.0000000+00:00</time></trkpt><trkpt lat="35.0776767" lon="32.5691052"><ele>392.3</ele><time>2015-04-27T08:19:03.0000000+00:00</time></trkpt><trkpt lat="35.0776274" lon="32.5691582"><ele>389.3</ele><time>2015-04-27T08:19:05.0000000+00:00</time></trkpt><trkpt lat="35.0775841" lon="32.5692054"><ele>391.0</ele><time>2015-04-27T08:19:07.0000000+00:00</time></trkpt><trkpt lat="35.0775266" lon="32.569251"><ele>392.9</ele><time>2015-04-27T08:19:10.0000000+00:00</time></trkpt><trkpt lat="35.0774892" lon="32.5692924"><ele>393.4</ele><time>2015-04-27T08:19:12.0000000+00:00</time></trkpt><trkpt lat="35.0774422" lon="32.5693484"><ele>392.9</ele><time>2015-04-27T08:19:15.0000000+00:00</time></trkpt><trkpt lat="35.0774036" lon="32.5693776"><ele>392.9</ele><time>2015-04-27T08:19:17.0000000+00:00</time></trkpt><trkpt lat="35.0773507" lon="32.56942"><ele>393.2</ele><time>2015-04-27T08:19:20.0000000+00:00</time></trkpt><trkpt lat="35.0772988" lon="32.5694559"><ele>392.2</ele><time>2015-04-27T08:19:23.0000000+00:00</time></trkpt><trkpt lat="35.0772696" lon="32.5694053"><ele>392.7</ele><time>2015-04-27T08:19:30.0000000+00:00</time></trkpt><trkpt lat="35.077263" lon="32.5693346"><ele>393.6</ele><time>2015-04-27T08:19:34.0000000+00:00</time></trkpt><trkpt lat="35.0772759" lon="32.5692742"><ele>393.0</ele><time>2015-04-27T08:19:38.0000000+00:00</time></trkpt><trkpt lat="35.0772877" lon="32.5692138"><ele>391.7</ele><time>2015-04-27T08:19:42.0000000+00:00</time></trkpt><trkpt lat="35.0773074" lon="32.5691562"><ele>391.9</ele><time>2015-04-27T08:19:46.0000000+00:00</time></trkpt><trkpt lat="35.0773286" lon="32.5690908"><ele>393.6</ele><time>2015-04-27T08:19:50.0000000+00:00</time></trkpt><trkpt lat="35.0773485" lon="32.5690389"><ele>392.3</ele><time>2015-04-27T08:19:54.0000000+00:00</time></trkpt><trkpt lat="35.0773644" lon="32.5689816"><ele>392.1</ele><time>2015-04-27T08:19:58.0000000+00:00</time></trkpt><trkpt lat="35.0773751" lon="32.5689275"><ele>392.6</ele><time>2015-04-27T08:20:02.0000000+00:00</time></trkpt><trkpt lat="35.0773732" lon="32.5688656"><ele>391.4</ele><time>2015-04-27T08:20:06.0000000+00:00</time></trkpt><trkpt lat="35.0773802" lon="32.5688035"><ele>390.7</ele><time>2015-04-27T08:20:10.0000000+00:00</time></trkpt><trkpt lat="35.0773694" lon="32.5687431"><ele>392.5</ele><time>2015-04-27T08:20:14.0000000+00:00</time></trkpt><trkpt lat="35.0773582" lon="32.5686882"><ele>395.7</ele><time>2015-04-27T08:20:18.0000000+00:00</time></trkpt><trkpt lat="35.0773441" lon="32.5686353"><ele>393.8</ele><time>2015-04-27T08:20:23.0000000+00:00</time></trkpt><trkpt lat="35.077331" lon="32.5685707"><ele>393.6</ele><time>2015-04-27T08:20:29.0000000+00:00</time></trkpt><trkpt lat="35.0773376" lon="32.568508"><ele>397.0</ele><time>2015-04-27T08:20:34.0000000+00:00</time></trkpt><trkpt lat="35.0773247" lon="32.5684493"><ele>398.1</ele><time>2015-04-27T08:20:40.0000000+00:00</time></trkpt><trkpt lat="35.077288" lon="32.5684055"><ele>394.8</ele><time>2015-04-27T08:20:46.0000000+00:00</time></trkpt><trkpt lat="35.0772619" lon="32.568343"><ele>395.6</ele><time>2015-04-27T08:20:50.0000000+00:00</time></trkpt><trkpt lat="35.0772387" lon="32.5682894"><ele>395.2</ele><time>2015-04-27T08:20:54.0000000+00:00</time></trkpt><trkpt lat="35.0772054" lon="32.5682432"><ele>397.5</ele><time>2015-04-27T08:20:59.0000000+00:00</time></trkpt><trkpt lat="35.0771799" lon="32.5681896"><ele>400.0</ele><time>2015-04-27T08:21:03.0000000+00:00</time></trkpt><trkpt lat="35.0771526" lon="32.5681397"><ele>401.2</ele><time>2015-04-27T08:21:07.0000000+00:00</time></trkpt><trkpt lat="35.0771085" lon="32.5680969"><ele>401.1</ele><time>2015-04-27T08:21:10.0000000+00:00</time></trkpt><trkpt lat="35.0770892" lon="32.5680395"><ele>399.4</ele><time>2015-04-27T08:21:13.0000000+00:00</time></trkpt><trkpt lat="35.0770771" lon="32.5679855"><ele>400.5</ele><time>2015-04-27T08:21:16.0000000+00:00</time></trkpt><trkpt lat="35.0770537" lon="32.5679236"><ele>401.2</ele><time>2015-04-27T08:21:20.0000000+00:00</time></trkpt><trkpt lat="35.0770268" lon="32.5678768"><ele>399.6</ele><time>2015-04-27T08:21:23.0000000+00:00</time></trkpt><trkpt lat="35.0769833" lon="32.5678451"><ele>400.7</ele><time>2015-04-27T08:21:27.0000000+00:00</time></trkpt><trkpt lat="35.0769363" lon="32.5678104"><ele>402.3</ele><time>2015-04-27T08:21:32.0000000+00:00</time></trkpt><trkpt lat="35.0768897" lon="32.5677986"><ele>403.8</ele><time>2015-04-27T08:21:36.0000000+00:00</time></trkpt><trkpt lat="35.076839" lon="32.5677846"><ele>406.3</ele><time>2015-04-27T08:21:40.0000000+00:00</time></trkpt><trkpt lat="35.0767922" lon="32.5677795"><ele>407.1</ele><time>2015-04-27T08:21:44.0000000+00:00</time></trkpt><trkpt lat="35.0767486" lon="32.5677531"><ele>407.8</ele><time>2015-04-27T08:21:48.0000000+00:00</time></trkpt><trkpt lat="35.0767152" lon="32.5677079"><ele>406.5</ele><time>2015-04-27T08:21:52.0000000+00:00</time></trkpt><trkpt lat="35.0766903" lon="32.5676519"><ele>407.8</ele><time>2015-04-27T08:21:56.0000000+00:00</time></trkpt><trkpt lat="35.0766887" lon="32.5675889"><ele>408.9</ele><time>2015-04-27T08:22:00.0000000+00:00</time></trkpt><trkpt lat="35.0767098" lon="32.5675208"><ele>410.4</ele><time>2015-04-27T08:22:04.0000000+00:00</time></trkpt><trkpt lat="35.0767306" lon="32.5674676"><ele>410.9</ele><time>2015-04-27T08:22:07.0000000+00:00</time></trkpt><trkpt lat="35.0767451" lon="32.5674112"><ele>410.9</ele><time>2015-04-27T08:22:10.0000000+00:00</time></trkpt><trkpt lat="35.0767607" lon="32.5673595"><ele>410.4</ele><time>2015-04-27T08:22:13.0000000+00:00</time></trkpt><trkpt lat="35.076768" lon="32.56729"><ele>410.0</ele><time>2015-04-27T08:22:17.0000000+00:00</time></trkpt><trkpt lat="35.0767602" lon="32.5672242"><ele>409.9</ele><time>2015-04-27T08:22:21.0000000+00:00</time></trkpt><trkpt lat="35.0767338" lon="32.5671667"><ele>411.6</ele><time>2015-04-27T08:22:25.0000000+00:00</time></trkpt><trkpt lat="35.0767102" lon="32.56711"><ele>412.5</ele><time>2015-04-27T08:22:29.0000000+00:00</time></trkpt><trkpt lat="35.0766945" lon="32.5670581"><ele>411.7</ele><time>2015-04-27T08:22:33.0000000+00:00</time></trkpt><trkpt lat="35.0766788" lon="32.5670006"><ele>411.9</ele><time>2015-04-27T08:22:37.0000000+00:00</time></trkpt><trkpt lat="35.0766914" lon="32.5669335"><ele>413.6</ele><time>2015-04-27T08:22:41.0000000+00:00</time></trkpt><trkpt lat="35.0767182" lon="32.5668698"><ele>413.9</ele><time>2015-04-27T08:22:45.0000000+00:00</time></trkpt><trkpt lat="35.0767439" lon="32.5668244"><ele>413.8</ele><time>2015-04-27T08:22:48.0000000+00:00</time></trkpt><trkpt lat="35.0767684" lon="32.5667584"><ele>413.9</ele><time>2015-04-27T08:22:52.0000000+00:00</time></trkpt><trkpt lat="35.0767788" lon="32.5666912"><ele>415.1</ele><time>2015-04-27T08:22:56.0000000+00:00</time></trkpt><trkpt lat="35.0767796" lon="32.5666243"><ele>414.9</ele><time>2015-04-27T08:23:00.0000000+00:00</time></trkpt><trkpt lat="35.0767807" lon="32.5665632"><ele>416.4</ele><time>2015-04-27T08:23:04.0000000+00:00</time></trkpt><trkpt lat="35.0767377" lon="32.5665351"><ele>418.5</ele><time>2015-04-27T08:23:08.0000000+00:00</time></trkpt><trkpt lat="35.0766877" lon="32.5665276"><ele>420.8</ele><time>2015-04-27T08:23:12.0000000+00:00</time></trkpt><trkpt lat="35.076638" lon="32.5665154"><ele>421.5</ele><time>2015-04-27T08:23:16.0000000+00:00</time></trkpt><trkpt lat="35.07659" lon="32.5664913"><ele>421.9</ele><time>2015-04-27T08:23:20.0000000+00:00</time></trkpt><trkpt lat="35.0765428" lon="32.566468"><ele>421.9</ele><time>2015-04-27T08:23:24.0000000+00:00</time></trkpt><trkpt lat="35.0764979" lon="32.56644"><ele>422.9</ele><time>2015-04-27T08:23:28.0000000+00:00</time></trkpt><trkpt lat="35.0764584" lon="32.566409"><ele>423.7</ele><time>2015-04-27T08:23:32.0000000+00:00</time></trkpt><trkpt lat="35.0764342" lon="32.5663514"><ele>425.3</ele><time>2015-04-27T08:23:37.0000000+00:00</time></trkpt><trkpt lat="35.0763999" lon="32.5663074"><ele>424.9</ele><time>2015-04-27T08:23:42.0000000+00:00</time></trkpt><trkpt lat="35.0763712" lon="32.5662598"><ele>425.7</ele><time>2015-04-27T08:23:47.0000000+00:00</time></trkpt><trkpt lat="35.076333" lon="32.5662289"><ele>426.1</ele><time>2015-04-27T08:23:56.0000000+00:00</time></trkpt><trkpt lat="35.0762998" lon="32.5661849"><ele>428.6</ele><time>2015-04-27T08:24:06.0000000+00:00</time></trkpt><trkpt lat="35.07626" lon="32.5661469"><ele>428.0</ele><time>2015-04-27T08:24:17.0000000+00:00</time></trkpt><trkpt lat="35.0762157" lon="32.5661351"><ele>427.9</ele><time>2015-04-27T08:24:24.0000000+00:00</time></trkpt><trkpt lat="35.0761711" lon="32.5661423"><ele>426.9</ele><time>2015-04-27T08:24:32.0000000+00:00</time></trkpt><trkpt lat="35.0761488" lon="32.5661942"><ele>427.9</ele><time>2015-04-27T08:24:41.0000000+00:00</time></trkpt><trkpt lat="35.07618" lon="32.5662362"><ele>427.2</ele><time>2015-04-27T08:25:35.0000000+00:00</time></trkpt><trkpt lat="35.0762312" lon="32.5662519"><ele>427.9</ele><time>2015-04-27T08:25:47.0000000+00:00</time></trkpt><trkpt lat="35.0762548" lon="32.5663064"><ele>427.9</ele><time>2015-04-27T08:26:05.0000000+00:00</time></trkpt><trkpt lat="35.0762863" lon="32.5663581"><ele>428.4</ele><time>2015-04-27T08:26:08.0000000+00:00</time></trkpt><trkpt lat="35.0763092" lon="32.5664124"><ele>428.5</ele><time>2015-04-27T08:26:11.0000000+00:00</time></trkpt><trkpt lat="35.0763284" lon="32.566473"><ele>428.6</ele><time>2015-04-27T08:26:15.0000000+00:00</time></trkpt><trkpt lat="35.0763508" lon="32.5665218"><ele>428.0</ele><time>2015-04-27T08:26:19.0000000+00:00</time></trkpt><trkpt lat="35.0763863" lon="32.5665599"><ele>428.8</ele><time>2015-04-27T08:26:23.0000000+00:00</time></trkpt><trkpt lat="35.0764159" lon="32.5666146"><ele>429.8</ele><time>2015-04-27T08:26:27.0000000+00:00</time></trkpt><trkpt lat="35.0764307" lon="32.5666788"><ele>429.8</ele><time>2015-04-27T08:26:31.0000000+00:00</time></trkpt><trkpt lat="35.0764417" lon="32.5667408"><ele>429.4</ele><time>2015-04-27T08:26:36.0000000+00:00</time></trkpt><trkpt lat="35.0764356" lon="32.5667963"><ele>429.0</ele><time>2015-04-27T08:26:40.0000000+00:00</time></trkpt><trkpt lat="35.0764181" lon="32.5668664"><ele>430.7</ele><time>2015-04-27T08:26:44.0000000+00:00</time></trkpt><trkpt lat="35.0764173" lon="32.5669302"><ele>430.7</ele><time>2015-04-27T08:26:48.0000000+00:00</time></trkpt><trkpt lat="35.0764062" lon="32.5669855"><ele>430.9</ele><time>2015-04-27T08:26:52.0000000+00:00</time></trkpt><trkpt lat="35.07639" lon="32.5670522"><ele>432.4</ele><time>2015-04-27T08:26:56.0000000+00:00</time></trkpt><trkpt lat="35.0763732" lon="32.5671084"><ele>432.3</ele><time>2015-04-27T08:27:00.0000000+00:00</time></trkpt><trkpt lat="35.0763668" lon="32.5671648"><ele>436.1</ele><time>2015-04-27T08:27:04.0000000+00:00</time></trkpt><trkpt lat="35.0763601" lon="32.5672224"><ele>439.6</ele><time>2015-04-27T08:27:08.0000000+00:00</time></trkpt><trkpt lat="35.0763367" lon="32.5672779"><ele>439.7</ele><time>2015-04-27T08:27:12.0000000+00:00</time></trkpt><trkpt lat="35.0763211" lon="32.567334"><ele>440.1</ele><time>2015-04-27T08:27:16.0000000+00:00</time></trkpt><trkpt lat="35.0763087" lon="32.5673895"><ele>440.9</ele><time>2015-04-27T08:27:20.0000000+00:00</time></trkpt><trkpt lat="35.0762852" lon="32.5674479"><ele>442.1</ele><time>2015-04-27T08:27:25.0000000+00:00</time></trkpt><trkpt lat="35.0762849" lon="32.5675105"><ele>444.6</ele><time>2015-04-27T08:27:29.0000000+00:00</time></trkpt><trkpt lat="35.0762666" lon="32.5675643"><ele>443.2</ele><time>2015-04-27T08:27:33.0000000+00:00</time></trkpt><trkpt lat="35.0762708" lon="32.5676251"><ele>444.3</ele><time>2015-04-27T08:27:37.0000000+00:00</time></trkpt><trkpt lat="35.0762739" lon="32.5676846"><ele>446.3</ele><time>2015-04-27T08:27:41.0000000+00:00</time></trkpt><trkpt lat="35.0762662" lon="32.5677468"><ele>445.0</ele><time>2015-04-27T08:27:45.0000000+00:00</time></trkpt><trkpt lat="35.0762418" lon="32.5677962"><ele>441.9</ele><time>2015-04-27T08:27:49.0000000+00:00</time></trkpt><trkpt lat="35.0762072" lon="32.567832"><ele>441.6</ele><time>2015-04-27T08:27:52.0000000+00:00</time></trkpt><trkpt lat="35.0761702" lon="32.5678849"><ele>437.6</ele><time>2015-04-27T08:27:56.0000000+00:00</time></trkpt><trkpt lat="35.0761342" lon="32.5679385"><ele>434.6</ele><time>2015-04-27T08:28:00.0000000+00:00</time></trkpt><trkpt lat="35.0761312" lon="32.5680019"><ele>435.7</ele><time>2015-04-27T08:28:04.0000000+00:00</time></trkpt><trkpt lat="35.0761431" lon="32.5680646"><ele>436.9</ele><time>2015-04-27T08:28:08.0000000+00:00</time></trkpt><trkpt lat="35.0761796" lon="32.5681137"><ele>444.4</ele><time>2015-04-27T08:28:12.0000000+00:00</time></trkpt><trkpt lat="35.0762321" lon="32.568152"><ele>446.6</ele><time>2015-04-27T08:28:16.0000000+00:00</time></trkpt><trkpt lat="35.0762742" lon="32.5681805"><ele>447.6</ele><time>2015-04-27T08:28:19.0000000+00:00</time></trkpt><trkpt lat="35.0763122" lon="32.5682127"><ele>445.9</ele><time>2015-04-27T08:28:22.0000000+00:00</time></trkpt><trkpt lat="35.0763461" lon="32.5682501"><ele>446.7</ele><time>2015-04-27T08:28:25.0000000+00:00</time></trkpt><trkpt lat="35.0763888" lon="32.5682682"><ele>447.3</ele><time>2015-04-27T08:28:28.0000000+00:00</time></trkpt><trkpt lat="35.076434" lon="32.5682925"><ele>446.1</ele><time>2015-04-27T08:28:31.0000000+00:00</time></trkpt><trkpt lat="35.0764809" lon="32.5683188"><ele>443.8</ele><time>2015-04-27T08:28:34.0000000+00:00</time></trkpt><trkpt lat="35.0765175" lon="32.5683511"><ele>443.0</ele><time>2015-04-27T08:28:37.0000000+00:00</time></trkpt><trkpt lat="35.0765677" lon="32.5683859"><ele>445.4</ele><time>2015-04-27T08:28:41.0000000+00:00</time></trkpt><trkpt lat="35.0766006" lon="32.5684241"><ele>446.0</ele><time>2015-04-27T08:28:44.0000000+00:00</time></trkpt><trkpt lat="35.0766294" lon="32.568473"><ele>445.8</ele><time>2015-04-27T08:28:47.0000000+00:00</time></trkpt><trkpt lat="35.0766536" lon="32.5685244"><ele>446.4</ele><time>2015-04-27T08:28:50.0000000+00:00</time></trkpt><trkpt lat="35.0766691" lon="32.5685806"><ele>445.2</ele><time>2015-04-27T08:28:53.0000000+00:00</time></trkpt><trkpt lat="35.0766814" lon="32.5686352"><ele>444.2</ele><time>2015-04-27T08:28:56.0000000+00:00</time></trkpt><trkpt lat="35.0766854" lon="32.568692"><ele>444.7</ele><time>2015-04-27T08:28:59.0000000+00:00</time></trkpt><trkpt lat="35.0766769" lon="32.5687611"><ele>444.9</ele><time>2015-04-27T08:29:03.0000000+00:00</time></trkpt><trkpt lat="35.0766752" lon="32.5688252"><ele>443.6</ele><time>2015-04-27T08:29:07.0000000+00:00</time></trkpt><trkpt lat="35.076661" lon="32.5688882"><ele>443.9</ele><time>2015-04-27T08:29:11.0000000+00:00</time></trkpt><trkpt lat="35.0766516" lon="32.5689459"><ele>445.6</ele><time>2015-04-27T08:29:14.0000000+00:00</time></trkpt><trkpt lat="35.0766365" lon="32.5690008"><ele>444.9</ele><time>2015-04-27T08:29:17.0000000+00:00</time></trkpt><trkpt lat="35.0766114" lon="32.5690696"><ele>444.7</ele><time>2015-04-27T08:29:21.0000000+00:00</time></trkpt><trkpt lat="35.0766012" lon="32.5691299"><ele>446.3</ele><time>2015-04-27T08:29:24.0000000+00:00</time></trkpt><trkpt lat="35.0765702" lon="32.5691917"><ele>448.6</ele><time>2015-04-27T08:29:27.0000000+00:00</time></trkpt><trkpt lat="35.076545" lon="32.5692482"><ele>449.0</ele><time>2015-04-27T08:29:30.0000000+00:00</time></trkpt><trkpt lat="35.0765266" lon="32.5693039"><ele>450.1</ele><time>2015-04-27T08:29:33.0000000+00:00</time></trkpt><trkpt lat="35.0765035" lon="32.5693529"><ele>450.7</ele><time>2015-04-27T08:29:36.0000000+00:00</time></trkpt><trkpt lat="35.076474" lon="32.5694153"><ele>450.0</ele><time>2015-04-27T08:29:40.0000000+00:00</time></trkpt><trkpt lat="35.0764507" lon="32.5694658"><ele>449.9</ele><time>2015-04-27T08:29:43.0000000+00:00</time></trkpt><trkpt lat="35.0764352" lon="32.5695233"><ele>449.9</ele><time>2015-04-27T08:29:46.0000000+00:00</time></trkpt><trkpt lat="35.0764184" lon="32.5695784"><ele>450.1</ele><time>2015-04-27T08:29:49.0000000+00:00</time></trkpt><trkpt lat="35.0764078" lon="32.5696334"><ele>450.1</ele><time>2015-04-27T08:29:52.0000000+00:00</time></trkpt><trkpt lat="35.0763971" lon="32.5697032"><ele>449.9</ele><time>2015-04-27T08:29:56.0000000+00:00</time></trkpt><trkpt lat="35.0763822" lon="32.5697633"><ele>451.2</ele><time>2015-04-27T08:30:00.0000000+00:00</time></trkpt><trkpt lat="35.0763844" lon="32.5698284"><ele>452.1</ele><time>2015-04-27T08:30:04.0000000+00:00</time></trkpt><trkpt lat="35.0763696" lon="32.5698886"><ele>452.4</ele><time>2015-04-27T08:30:08.0000000+00:00</time></trkpt><trkpt lat="35.0763451" lon="32.5699449"><ele>452.9</ele><time>2015-04-27T08:30:12.0000000+00:00</time></trkpt><trkpt lat="35.0763125" lon="32.5699887"><ele>452.9</ele><time>2015-04-27T08:30:16.0000000+00:00</time></trkpt><trkpt lat="35.0762656" lon="32.5700229"><ele>452.4</ele><time>2015-04-27T08:30:21.0000000+00:00</time></trkpt><trkpt lat="35.0762143" lon="32.570047"><ele>452.9</ele><time>2015-04-27T08:30:26.0000000+00:00</time></trkpt><trkpt lat="35.0761689" lon="32.5700563"><ele>452.9</ele><time>2015-04-27T08:30:30.0000000+00:00</time></trkpt><trkpt lat="35.0761238" lon="32.570061"><ele>454.4</ele><time>2015-04-27T08:30:34.0000000+00:00</time></trkpt><trkpt lat="35.0760756" lon="32.5700774"><ele>454.7</ele><time>2015-04-27T08:30:38.0000000+00:00</time></trkpt><trkpt lat="35.076025" lon="32.5700994"><ele>456.0</ele><time>2015-04-27T08:30:42.0000000+00:00</time></trkpt><trkpt lat="35.0759782" lon="32.5701145"><ele>457.4</ele><time>2015-04-27T08:30:46.0000000+00:00</time></trkpt><trkpt lat="35.0759286" lon="32.5701337"><ele>459.5</ele><time>2015-04-27T08:30:50.0000000+00:00</time></trkpt><trkpt lat="35.0758752" lon="32.5701585"><ele>459.9</ele><time>2015-04-27T08:30:54.0000000+00:00</time></trkpt><trkpt lat="35.075828" lon="32.5701767"><ele>459.3</ele><time>2015-04-27T08:30:57.0000000+00:00</time></trkpt><trkpt lat="35.0757765" lon="32.5702149"><ele>457.1</ele><time>2015-04-27T08:31:01.0000000+00:00</time></trkpt><trkpt lat="35.0757432" lon="32.5702529"><ele>457.5</ele><time>2015-04-27T08:31:04.0000000+00:00</time></trkpt><trkpt lat="35.0757103" lon="32.5702929"><ele>459.0</ele><time>2015-04-27T08:31:07.0000000+00:00</time></trkpt><trkpt lat="35.0756876" lon="32.5703592"><ele>457.6</ele><time>2015-04-27T08:31:11.0000000+00:00</time></trkpt><trkpt lat="35.0756782" lon="32.570426"><ele>457.7</ele><time>2015-04-27T08:31:15.0000000+00:00</time></trkpt><trkpt lat="35.0756916" lon="32.5704886"><ele>459.6</ele><time>2015-04-27T08:31:19.0000000+00:00</time></trkpt><trkpt lat="35.0756912" lon="32.5705469"><ele>460.5</ele><time>2015-04-27T08:31:23.0000000+00:00</time></trkpt><trkpt lat="35.0757057" lon="32.57061"><ele>460.0</ele><time>2015-04-27T08:31:27.0000000+00:00</time></trkpt><trkpt lat="35.0757342" lon="32.5706668"><ele>463.4</ele><time>2015-04-27T08:31:31.0000000+00:00</time></trkpt><trkpt lat="35.0757573" lon="32.5707261"><ele>463.1</ele><time>2015-04-27T08:31:35.0000000+00:00</time></trkpt><trkpt lat="35.0757822" lon="32.5707767"><ele>461.3</ele><time>2015-04-27T08:31:38.0000000+00:00</time></trkpt><trkpt lat="35.0758106" lon="32.5708234"><ele>461.1</ele><time>2015-04-27T08:31:42.0000000+00:00</time></trkpt><trkpt lat="35.0758352" lon="32.5708727"><ele>461.6</ele><time>2015-04-27T08:31:46.0000000+00:00</time></trkpt><trkpt lat="35.0758688" lon="32.5709215"><ele>462.8</ele><time>2015-04-27T08:31:50.0000000+00:00</time></trkpt><trkpt lat="35.0758904" lon="32.5709802"><ele>464.2</ele><time>2015-04-27T08:31:54.0000000+00:00</time></trkpt><trkpt lat="35.0759027" lon="32.571043"><ele>463.9</ele><time>2015-04-27T08:31:58.0000000+00:00</time></trkpt><trkpt lat="35.0759164" lon="32.571109"><ele>463.7</ele><time>2015-04-27T08:32:02.0000000+00:00</time></trkpt><trkpt lat="35.0759236" lon="32.5711646"><ele>464.6</ele><time>2015-04-27T08:32:05.0000000+00:00</time></trkpt><trkpt lat="35.0759124" lon="32.5712288"><ele>464.5</ele><time>2015-04-27T08:32:09.0000000+00:00</time></trkpt><trkpt lat="35.0758932" lon="32.5712898"><ele>463.7</ele><time>2015-04-27T08:32:13.0000000+00:00</time></trkpt><trkpt lat="35.075875" lon="32.5713514"><ele>464.7</ele><time>2015-04-27T08:32:17.0000000+00:00</time></trkpt><trkpt lat="35.0758523" lon="32.5714078"><ele>464.9</ele><time>2015-04-27T08:32:21.0000000+00:00</time></trkpt><trkpt lat="35.0758109" lon="32.5714343"><ele>463.2</ele><time>2015-04-27T08:32:24.0000000+00:00</time></trkpt><trkpt lat="35.0757628" lon="32.5714482"><ele>464.3</ele><time>2015-04-27T08:32:28.0000000+00:00</time></trkpt><trkpt lat="35.0757144" lon="32.5714509"><ele>463.2</ele><time>2015-04-27T08:32:32.0000000+00:00</time></trkpt><trkpt lat="35.0756659" lon="32.571456"><ele>465.5</ele><time>2015-04-27T08:32:36.0000000+00:00</time></trkpt><trkpt lat="35.0756127" lon="32.571464"><ele>467.7</ele><time>2015-04-27T08:32:40.0000000+00:00</time></trkpt><trkpt lat="35.0755587" lon="32.5714696"><ele>469.5</ele><time>2015-04-27T08:32:44.0000000+00:00</time></trkpt><trkpt lat="35.0755098" lon="32.5714955"><ele>471.5</ele><time>2015-04-27T08:32:48.0000000+00:00</time></trkpt><trkpt lat="35.0754699" lon="32.57153"><ele>472.3</ele><time>2015-04-27T08:32:52.0000000+00:00</time></trkpt><trkpt lat="35.0754181" lon="32.5715418"><ele>476.1</ele><time>2015-04-27T08:32:56.0000000+00:00</time></trkpt><trkpt lat="35.075376" lon="32.571586"><ele>478.0</ele><time>2015-04-27T08:33:00.0000000+00:00</time></trkpt><trkpt lat="35.075329" lon="32.5716235"><ele>477.2</ele><time>2015-04-27T08:33:04.0000000+00:00</time></trkpt><trkpt lat="35.0752829" lon="32.5716399"><ele>478.5</ele><time>2015-04-27T08:33:07.0000000+00:00</time></trkpt><trkpt lat="35.0752426" lon="32.5716658"><ele>480.6</ele><time>2015-04-27T08:33:10.0000000+00:00</time></trkpt><trkpt lat="35.0751824" lon="32.5716887"><ele>478.3</ele><time>2015-04-27T08:33:14.0000000+00:00</time></trkpt><trkpt lat="35.0751339" lon="32.5716941"><ele>478.4</ele><time>2015-04-27T08:33:17.0000000+00:00</time></trkpt><trkpt lat="35.0750777" lon="32.57169"><ele>479.8</ele><time>2015-04-27T08:33:21.0000000+00:00</time></trkpt><trkpt lat="35.0750299" lon="32.5716989"><ele>480.4</ele><time>2015-04-27T08:33:24.0000000+00:00</time></trkpt><trkpt lat="35.0749818" lon="32.5717038"><ele>480.6</ele><time>2015-04-27T08:33:27.0000000+00:00</time></trkpt><trkpt lat="35.0749264" lon="32.571691"><ele>478.6</ele><time>2015-04-27T08:33:31.0000000+00:00</time></trkpt><trkpt lat="35.0748689" lon="32.5716704"><ele>482.3</ele><time>2015-04-27T08:33:35.0000000+00:00</time></trkpt><trkpt lat="35.0748238" lon="32.5716571"><ele>483.7</ele><time>2015-04-27T08:33:38.0000000+00:00</time></trkpt><trkpt lat="35.0747785" lon="32.571652"><ele>487.5</ele><time>2015-04-27T08:33:41.0000000+00:00</time></trkpt><trkpt lat="35.074735" lon="32.5716354"><ele>487.9</ele><time>2015-04-27T08:33:44.0000000+00:00</time></trkpt><trkpt lat="35.0746894" lon="32.5716211"><ele>486.8</ele><time>2015-04-27T08:33:47.0000000+00:00</time></trkpt><trkpt lat="35.0746407" lon="32.5716187"><ele>484.5</ele><time>2015-04-27T08:33:50.0000000+00:00</time></trkpt><trkpt lat="35.0745935" lon="32.5716042"><ele>484.6</ele><time>2015-04-27T08:33:53.0000000+00:00</time></trkpt><trkpt lat="35.074543" lon="32.5716019"><ele>486.3</ele><time>2015-04-27T08:33:56.0000000+00:00</time></trkpt><trkpt lat="35.0744966" lon="32.5716308"><ele>487.4</ele><time>2015-04-27T08:34:00.0000000+00:00</time></trkpt><trkpt lat="35.0744717" lon="32.5716861"><ele>485.5</ele><time>2015-04-27T08:34:04.0000000+00:00</time></trkpt><trkpt lat="35.0744635" lon="32.5717414"><ele>486.1</ele><time>2015-04-27T08:34:08.0000000+00:00</time></trkpt><trkpt lat="35.0744674" lon="32.5718094"><ele>488.2</ele><time>2015-04-27T08:34:12.0000000+00:00</time></trkpt><trkpt lat="35.0744776" lon="32.5718645"><ele>487.6</ele><time>2015-04-27T08:34:15.0000000+00:00</time></trkpt><trkpt lat="35.0745002" lon="32.5719328"><ele>481.8</ele><time>2015-04-27T08:34:19.0000000+00:00</time></trkpt><trkpt lat="35.0745064" lon="32.5719944"><ele>477.4</ele><time>2015-04-27T08:34:23.0000000+00:00</time></trkpt><trkpt lat="35.0745096" lon="32.5720615"><ele>475.6</ele><time>2015-04-27T08:34:27.0000000+00:00</time></trkpt><trkpt lat="35.0745067" lon="32.5721339"><ele>476.3</ele><time>2015-04-27T08:34:31.0000000+00:00</time></trkpt><trkpt lat="35.0744908" lon="32.572193"><ele>478.0</ele><time>2015-04-27T08:34:34.0000000+00:00</time></trkpt><trkpt lat="35.0744688" lon="32.5722587"><ele>484.1</ele><time>2015-04-27T08:34:38.0000000+00:00</time></trkpt><trkpt lat="35.0744459" lon="32.5723068"><ele>487.3</ele><time>2015-04-27T08:34:41.0000000+00:00</time></trkpt><trkpt lat="35.0744211" lon="32.5723548"><ele>487.0</ele><time>2015-04-27T08:34:44.0000000+00:00</time></trkpt><trkpt lat="35.074394" lon="32.5723993"><ele>486.2</ele><time>2015-04-27T08:34:47.0000000+00:00</time></trkpt><trkpt lat="35.074361" lon="32.5724557"><ele>483.6</ele><time>2015-04-27T08:34:51.0000000+00:00</time></trkpt><trkpt lat="35.0743132" lon="32.5724971"><ele>483.9</ele><time>2015-04-27T08:34:55.0000000+00:00</time></trkpt><trkpt lat="35.0742665" lon="32.5725373"><ele>486.3</ele><time>2015-04-27T08:34:59.0000000+00:00</time></trkpt><trkpt lat="35.0742218" lon="32.572578"><ele>490.9</ele><time>2015-04-27T08:35:03.0000000+00:00</time></trkpt><trkpt lat="35.0741758" lon="32.5725991"><ele>490.4</ele><time>2015-04-27T08:35:06.0000000+00:00</time></trkpt><trkpt lat="35.0741237" lon="32.5726268"><ele>488.5</ele><time>2015-04-27T08:35:10.0000000+00:00</time></trkpt><trkpt lat="35.0740814" lon="32.5726617"><ele>489.6</ele><time>2015-04-27T08:35:14.0000000+00:00</time></trkpt><trkpt lat="35.0740351" lon="32.5726872"><ele>491.3</ele><time>2015-04-27T08:35:18.0000000+00:00</time></trkpt><trkpt lat="35.0739837" lon="32.5727086"><ele>494.3</ele><time>2015-04-27T08:35:22.0000000+00:00</time></trkpt><trkpt lat="35.0739422" lon="32.5727474"><ele>495.2</ele><time>2015-04-27T08:35:26.0000000+00:00</time></trkpt><trkpt lat="35.0738989" lon="32.5727732"><ele>491.9</ele><time>2015-04-27T08:35:30.0000000+00:00</time></trkpt><trkpt lat="35.073854" lon="32.572807"><ele>489.5</ele><time>2015-04-27T08:35:35.0000000+00:00</time></trkpt><trkpt lat="35.07382" lon="32.5728452"><ele>489.2</ele><time>2015-04-27T08:35:39.0000000+00:00</time></trkpt><trkpt lat="35.073783" lon="32.5728988"><ele>489.5</ele><time>2015-04-27T08:35:43.0000000+00:00</time></trkpt><trkpt lat="35.0737531" lon="32.5729568"><ele>494.1</ele><time>2015-04-27T08:35:46.0000000+00:00</time></trkpt><trkpt lat="35.073717" lon="32.5730008"><ele>494.0</ele><time>2015-04-27T08:35:49.0000000+00:00</time></trkpt><trkpt lat="35.0736728" lon="32.5730459"><ele>493.1</ele><time>2015-04-27T08:35:53.0000000+00:00</time></trkpt><trkpt lat="35.073647" lon="32.5731033"><ele>492.6</ele><time>2015-04-27T08:35:57.0000000+00:00</time></trkpt><trkpt lat="35.0736196" lon="32.5731561"><ele>491.4</ele><time>2015-04-27T08:36:01.0000000+00:00</time></trkpt><trkpt lat="35.0735838" lon="32.5732018"><ele>490.1</ele><time>2015-04-27T08:36:05.0000000+00:00</time></trkpt><trkpt lat="35.0735472" lon="32.5732345"><ele>490.4</ele><time>2015-04-27T08:36:09.0000000+00:00</time></trkpt><trkpt lat="35.0735071" lon="32.5732819"><ele>490.1</ele><time>2015-04-27T08:36:13.0000000+00:00</time></trkpt><trkpt lat="35.0734674" lon="32.5733212"><ele>490.8</ele><time>2015-04-27T08:36:16.0000000+00:00</time></trkpt><trkpt lat="35.0734263" lon="32.5733632"><ele>492.2</ele><time>2015-04-27T08:36:19.0000000+00:00</time></trkpt><trkpt lat="35.0733847" lon="32.5733963"><ele>493.7</ele><time>2015-04-27T08:36:22.0000000+00:00</time></trkpt><trkpt lat="35.073343" lon="32.5734411"><ele>492.9</ele><time>2015-04-27T08:36:26.0000000+00:00</time></trkpt><trkpt lat="35.0733053" lon="32.5734897"><ele>496.0</ele><time>2015-04-27T08:36:30.0000000+00:00</time></trkpt><trkpt lat="35.0732802" lon="32.5735477"><ele>496.2</ele><time>2015-04-27T08:36:34.0000000+00:00</time></trkpt><trkpt lat="35.0732648" lon="32.5736105"><ele>490.3</ele><time>2015-04-27T08:36:38.0000000+00:00</time></trkpt><trkpt lat="35.0732851" lon="32.5736622"><ele>492.5</ele><time>2015-04-27T08:36:42.0000000+00:00</time></trkpt><trkpt lat="35.0733235" lon="32.5736933"><ele>496.5</ele><time>2015-04-27T08:36:46.0000000+00:00</time></trkpt><trkpt lat="35.0733664" lon="32.5737219"><ele>500.0</ele><time>2015-04-27T08:36:50.0000000+00:00</time></trkpt><trkpt lat="35.073419" lon="32.5737409"><ele>503.4</ele><time>2015-04-27T08:36:55.0000000+00:00</time></trkpt><trkpt lat="35.0734647" lon="32.5737378"><ele>503.9</ele><time>2015-04-27T08:36:59.0000000+00:00</time></trkpt><trkpt lat="35.0735105" lon="32.5737194"><ele>502.6</ele><time>2015-04-27T08:37:03.0000000+00:00</time></trkpt><trkpt lat="35.0735607" lon="32.5737002"><ele>501.7</ele><time>2015-04-27T08:37:07.0000000+00:00</time></trkpt><trkpt lat="35.0736146" lon="32.5736738"><ele>503.5</ele><time>2015-04-27T08:37:11.0000000+00:00</time></trkpt><trkpt lat="35.0736576" lon="32.5736525"><ele>505.6</ele><time>2015-04-27T08:37:14.0000000+00:00</time></trkpt><trkpt lat="35.0737123" lon="32.5736301"><ele>503.3</ele><time>2015-04-27T08:37:18.0000000+00:00</time></trkpt><trkpt lat="35.0737557" lon="32.5736153"><ele>504.9</ele><time>2015-04-27T08:37:21.0000000+00:00</time></trkpt><trkpt lat="35.0738124" lon="32.5735991"><ele>501.8</ele><time>2015-04-27T08:37:25.0000000+00:00</time></trkpt><trkpt lat="35.0738618" lon="32.5735773"><ele>503.3</ele><time>2015-04-27T08:37:29.0000000+00:00</time></trkpt><trkpt lat="35.0739039" lon="32.5735495"><ele>501.8</ele><time>2015-04-27T08:37:33.0000000+00:00</time></trkpt><trkpt lat="35.0739531" lon="32.5735588"><ele>499.4</ele><time>2015-04-27T08:37:37.0000000+00:00</time></trkpt><trkpt lat="35.0740027" lon="32.573569"><ele>497.8</ele><time>2015-04-27T08:37:41.0000000+00:00</time></trkpt><trkpt lat="35.0740596" lon="32.57357"><ele>500.5</ele><time>2015-04-27T08:37:45.0000000+00:00</time></trkpt><trkpt lat="35.0741072" lon="32.5735665"><ele>503.3</ele><time>2015-04-27T08:37:49.0000000+00:00</time></trkpt><trkpt lat="35.0741548" lon="32.5735614"><ele>504.4</ele><time>2015-04-27T08:37:53.0000000+00:00</time></trkpt><trkpt lat="35.0742049" lon="32.5735676"><ele>505.3</ele><time>2015-04-27T08:37:57.0000000+00:00</time></trkpt><trkpt lat="35.0742525" lon="32.5735407"><ele>508.1</ele><time>2015-04-27T08:38:01.0000000+00:00</time></trkpt><trkpt lat="35.0743013" lon="32.5735208"><ele>505.9</ele><time>2015-04-27T08:38:05.0000000+00:00</time></trkpt><trkpt lat="35.0743586" lon="32.5735073"><ele>505.4</ele><time>2015-04-27T08:38:09.0000000+00:00</time></trkpt><trkpt lat="35.0744135" lon="32.5734892"><ele>504.6</ele><time>2015-04-27T08:38:13.0000000+00:00</time></trkpt><trkpt lat="35.0744596" lon="32.5734764"><ele>502.8</ele><time>2015-04-27T08:38:17.0000000+00:00</time></trkpt><trkpt lat="35.0745112" lon="32.5734559"><ele>501.9</ele><time>2015-04-27T08:38:21.0000000+00:00</time></trkpt><trkpt lat="35.0745617" lon="32.5734279"><ele>503.3</ele><time>2015-04-27T08:38:25.0000000+00:00</time></trkpt><trkpt lat="35.0746117" lon="32.5734066"><ele>505.5</ele><time>2015-04-27T08:38:29.0000000+00:00</time></trkpt><trkpt lat="35.0746605" lon="32.5733897"><ele>504.2</ele><time>2015-04-27T08:38:33.0000000+00:00</time></trkpt><trkpt lat="35.0747182" lon="32.5733891"><ele>503.4</ele><time>2015-04-27T08:38:37.0000000+00:00</time></trkpt><trkpt lat="35.0747687" lon="32.5733688"><ele>502.6</ele><time>2015-04-27T08:38:41.0000000+00:00</time></trkpt><trkpt lat="35.0748222" lon="32.5733425"><ele>504.2</ele><time>2015-04-27T08:38:45.0000000+00:00</time></trkpt><trkpt lat="35.0748774" lon="32.5733329"><ele>505.4</ele><time>2015-04-27T08:38:49.0000000+00:00</time></trkpt><trkpt lat="35.0749271" lon="32.5733108"><ele>506.3</ele><time>2015-04-27T08:38:53.0000000+00:00</time></trkpt><trkpt lat="35.0749837" lon="32.5732995"><ele>507.5</ele><time>2015-04-27T08:38:57.0000000+00:00</time></trkpt><trkpt lat="35.0750381" lon="32.5733165"><ele>506.9</ele><time>2015-04-27T08:39:01.0000000+00:00</time></trkpt><trkpt lat="35.0750936" lon="32.5733314"><ele>507.6</ele><time>2015-04-27T08:39:05.0000000+00:00</time></trkpt><trkpt lat="35.0751449" lon="32.5733426"><ele>509.1</ele><time>2015-04-27T08:39:09.0000000+00:00</time></trkpt><trkpt lat="35.0751955" lon="32.5733416"><ele>509.4</ele><time>2015-04-27T08:39:13.0000000+00:00</time></trkpt><trkpt lat="35.075248" lon="32.5733513"><ele>512.8</ele><time>2015-04-27T08:39:17.0000000+00:00</time></trkpt><trkpt lat="35.0753008" lon="32.5733707"><ele>510.2</ele><time>2015-04-27T08:39:22.0000000+00:00</time></trkpt><trkpt lat="35.0753468" lon="32.5734085"><ele>510.9</ele><time>2015-04-27T08:39:26.0000000+00:00</time></trkpt><trkpt lat="35.0753941" lon="32.5734419"><ele>513.6</ele><time>2015-04-27T08:39:31.0000000+00:00</time></trkpt><trkpt lat="35.0754388" lon="32.573463"><ele>511.2</ele><time>2015-04-27T08:39:35.0000000+00:00</time></trkpt><trkpt lat="35.0754892" lon="32.5734919"><ele>509.5</ele><time>2015-04-27T08:39:39.0000000+00:00</time></trkpt><trkpt lat="35.0755284" lon="32.5735223"><ele>509.8</ele><time>2015-04-27T08:39:42.0000000+00:00</time></trkpt><trkpt lat="35.0755807" lon="32.5735517"><ele>508.4</ele><time>2015-04-27T08:39:46.0000000+00:00</time></trkpt><trkpt lat="35.0756218" lon="32.5735947"><ele>508.0</ele><time>2015-04-27T08:39:50.0000000+00:00</time></trkpt><trkpt lat="35.0756601" lon="32.5736388"><ele>509.2</ele><time>2015-04-27T08:39:54.0000000+00:00</time></trkpt><trkpt lat="35.0756976" lon="32.5736755"><ele>510.0</ele><time>2015-04-27T08:39:58.0000000+00:00</time></trkpt><trkpt lat="35.0757212" lon="32.5737279"><ele>511.1</ele><time>2015-04-27T08:40:02.0000000+00:00</time></trkpt><trkpt lat="35.0757364" lon="32.5737891"><ele>510.9</ele><time>2015-04-27T08:40:06.0000000+00:00</time></trkpt><trkpt lat="35.0757478" lon="32.5738499"><ele>511.9</ele><time>2015-04-27T08:40:10.0000000+00:00</time></trkpt><trkpt lat="35.0757417" lon="32.5739096"><ele>511.9</ele><time>2015-04-27T08:40:16.0000000+00:00</time></trkpt><trkpt lat="35.0757348" lon="32.5739674"><ele>513.9</ele><time>2015-04-27T08:40:20.0000000+00:00</time></trkpt><trkpt lat="35.0757164" lon="32.5740281"><ele>515.3</ele><time>2015-04-27T08:40:23.0000000+00:00</time></trkpt><trkpt lat="35.0757106" lon="32.5741028"><ele>518.0</ele><time>2015-04-27T08:40:26.0000000+00:00</time></trkpt><trkpt lat="35.0757098" lon="32.57417"><ele>517.2</ele><time>2015-04-27T08:40:29.0000000+00:00</time></trkpt><trkpt lat="35.0757006" lon="32.5742256"><ele>514.8</ele><time>2015-04-27T08:40:32.0000000+00:00</time></trkpt><trkpt lat="35.0756736" lon="32.5742882"><ele>514.7</ele><time>2015-04-27T08:40:36.0000000+00:00</time></trkpt><trkpt lat="35.0756704" lon="32.5743494"><ele>512.0</ele><time>2015-04-27T08:40:40.0000000+00:00</time></trkpt><trkpt lat="35.0756596" lon="32.5744088"><ele>511.9</ele><time>2015-04-27T08:40:44.0000000+00:00</time></trkpt><trkpt lat="35.0756622" lon="32.5744715"><ele>511.5</ele><time>2015-04-27T08:40:48.0000000+00:00</time></trkpt><trkpt lat="35.075665" lon="32.5745339"><ele>514.6</ele><time>2015-04-27T08:40:52.0000000+00:00</time></trkpt><trkpt lat="35.0756775" lon="32.5745944"><ele>519.8</ele><time>2015-04-27T08:40:55.0000000+00:00</time></trkpt><trkpt lat="35.0756763" lon="32.5746526"><ele>520.2</ele><time>2015-04-27T08:40:58.0000000+00:00</time></trkpt><trkpt lat="35.0756842" lon="32.5747099"><ele>519.5</ele><time>2015-04-27T08:41:01.0000000+00:00</time></trkpt><trkpt lat="35.0756859" lon="32.5747748"><ele>519.8</ele><time>2015-04-27T08:41:05.0000000+00:00</time></trkpt><trkpt lat="35.0756868" lon="32.574833"><ele>519.0</ele><time>2015-04-27T08:41:09.0000000+00:00</time></trkpt><trkpt lat="35.0756874" lon="32.5749013"><ele>519.1</ele><time>2015-04-27T08:41:13.0000000+00:00</time></trkpt><trkpt lat="35.0756975" lon="32.5749671"><ele>522.4</ele><time>2015-04-27T08:41:17.0000000+00:00</time></trkpt><trkpt lat="35.0756896" lon="32.5750333"><ele>521.7</ele><time>2015-04-27T08:41:21.0000000+00:00</time></trkpt><trkpt lat="35.0756876" lon="32.5750998"><ele>524.2</ele><time>2015-04-27T08:41:25.0000000+00:00</time></trkpt><trkpt lat="35.0756844" lon="32.5751708"><ele>523.8</ele><time>2015-04-27T08:41:29.0000000+00:00</time></trkpt><trkpt lat="35.0756811" lon="32.5752448"><ele>521.9</ele><time>2015-04-27T08:41:33.0000000+00:00</time></trkpt><trkpt lat="35.0756718" lon="32.5753124"><ele>521.6</ele><time>2015-04-27T08:41:37.0000000+00:00</time></trkpt><trkpt lat="35.0756654" lon="32.5753825"><ele>522.1</ele><time>2015-04-27T08:41:41.0000000+00:00</time></trkpt><trkpt lat="35.0756482" lon="32.5754525"><ele>522.6</ele><time>2015-04-27T08:41:45.0000000+00:00</time></trkpt><trkpt lat="35.0756315" lon="32.5755222"><ele>521.3</ele><time>2015-04-27T08:41:49.0000000+00:00</time></trkpt><trkpt lat="35.0756118" lon="32.5755733"><ele>521.6</ele><time>2015-04-27T08:41:52.0000000+00:00</time></trkpt><trkpt lat="35.0756023" lon="32.5756374"><ele>521.8</ele><time>2015-04-27T08:41:56.0000000+00:00</time></trkpt><trkpt lat="35.0756007" lon="32.5756966"><ele>520.7</ele><time>2015-04-27T08:42:00.0000000+00:00</time></trkpt><trkpt lat="35.0756132" lon="32.5757528"><ele>521.4</ele><time>2015-04-27T08:42:04.0000000+00:00</time></trkpt><trkpt lat="35.0756433" lon="32.5758036"><ele>524.9</ele><time>2015-04-27T08:42:09.0000000+00:00</time></trkpt><trkpt lat="35.0756674" lon="32.5758581"><ele>524.7</ele><time>2015-04-27T08:42:13.0000000+00:00</time></trkpt><trkpt lat="35.0756969" lon="32.5759151"><ele>523.1</ele><time>2015-04-27T08:42:17.0000000+00:00</time></trkpt><trkpt lat="35.0757292" lon="32.5759712"><ele>524.4</ele><time>2015-04-27T08:42:22.0000000+00:00</time></trkpt><trkpt lat="35.0757424" lon="32.5760318"><ele>523.2</ele><time>2015-04-27T08:42:26.0000000+00:00</time></trkpt><trkpt lat="35.075738" lon="32.5760915"><ele>523.0</ele><time>2015-04-27T08:42:30.0000000+00:00</time></trkpt><trkpt lat="35.0757149" lon="32.5761489"><ele>522.4</ele><time>2015-04-27T08:42:34.0000000+00:00</time></trkpt><trkpt lat="35.0756789" lon="32.5762"><ele>522.6</ele><time>2015-04-27T08:42:38.0000000+00:00</time></trkpt><trkpt lat="35.0756273" lon="32.576236"><ele>523.6</ele><time>2015-04-27T08:42:42.0000000+00:00</time></trkpt><trkpt lat="35.0756092" lon="32.5762872"><ele>524.1</ele><time>2015-04-27T08:42:45.0000000+00:00</time></trkpt><trkpt lat="35.0755909" lon="32.5763394"><ele>524.0</ele><time>2015-04-27T08:42:48.0000000+00:00</time></trkpt><trkpt lat="35.0755792" lon="32.5764074"><ele>525.8</ele><time>2015-04-27T08:42:52.0000000+00:00</time></trkpt><trkpt lat="35.075548" lon="32.5764594"><ele>528.7</ele><time>2015-04-27T08:42:56.0000000+00:00</time></trkpt><trkpt lat="35.0755159" lon="32.5765119"><ele>528.1</ele><time>2015-04-27T08:43:00.0000000+00:00</time></trkpt><trkpt lat="35.0754951" lon="32.5765762"><ele>526.7</ele><time>2015-04-27T08:43:04.0000000+00:00</time></trkpt><trkpt lat="35.0754786" lon="32.5766367"><ele>529.1</ele><time>2015-04-27T08:43:08.0000000+00:00</time></trkpt><trkpt lat="35.0754529" lon="32.576688"><ele>531.4</ele><time>2015-04-27T08:43:12.0000000+00:00</time></trkpt><trkpt lat="35.0754655" lon="32.5767532"><ele>529.6</ele><time>2015-04-27T08:43:16.0000000+00:00</time></trkpt><trkpt lat="35.0754798" lon="32.5768057"><ele>528.8</ele><time>2015-04-27T08:43:19.0000000+00:00</time></trkpt><trkpt lat="35.075509" lon="32.5768529"><ele>530.3</ele><time>2015-04-27T08:43:22.0000000+00:00</time></trkpt><trkpt lat="35.0755525" lon="32.5768828"><ele>531.7</ele><time>2015-04-27T08:43:25.0000000+00:00</time></trkpt><trkpt lat="35.0755906" lon="32.5769159"><ele>532.8</ele><time>2015-04-27T08:43:28.0000000+00:00</time></trkpt><trkpt lat="35.075628" lon="32.5769531"><ele>532.0</ele><time>2015-04-27T08:43:31.0000000+00:00</time></trkpt><trkpt lat="35.0756843" lon="32.5769663"><ele>536.3</ele><time>2015-04-27T08:43:35.0000000+00:00</time></trkpt><trkpt lat="35.07573" lon="32.5769842"><ele>536.8</ele><time>2015-04-27T08:43:39.0000000+00:00</time></trkpt><trkpt lat="35.0757678" lon="32.5770324"><ele>540.0</ele><time>2015-04-27T08:43:43.0000000+00:00</time></trkpt><trkpt lat="35.0758003" lon="32.5770714"><ele>538.3</ele><time>2015-04-27T08:43:46.0000000+00:00</time></trkpt><trkpt lat="35.075822" lon="32.5771257"><ele>534.5</ele><time>2015-04-27T08:43:50.0000000+00:00</time></trkpt><trkpt lat="35.0758372" lon="32.5771781"><ele>532.3</ele><time>2015-04-27T08:43:54.0000000+00:00</time></trkpt><trkpt lat="35.0758648" lon="32.5772456"><ele>531.6</ele><time>2015-04-27T08:43:58.0000000+00:00</time></trkpt><trkpt lat="35.0758746" lon="32.5773034"><ele>532.0</ele><time>2015-04-27T08:44:01.0000000+00:00</time></trkpt><trkpt lat="35.0758698" lon="32.5773742"><ele>531.5</ele><time>2015-04-27T08:44:05.0000000+00:00</time></trkpt><trkpt lat="35.0758742" lon="32.5774358"><ele>532.4</ele><time>2015-04-27T08:44:08.0000000+00:00</time></trkpt><trkpt lat="35.0758678" lon="32.5774906"><ele>534.7</ele><time>2015-04-27T08:44:11.0000000+00:00</time></trkpt><trkpt lat="35.0758472" lon="32.5775397"><ele>534.3</ele><time>2015-04-27T08:44:14.0000000+00:00</time></trkpt><trkpt lat="35.0758186" lon="32.5775921"><ele>535.5</ele><time>2015-04-27T08:44:18.0000000+00:00</time></trkpt><trkpt lat="35.0757819" lon="32.5776348"><ele>537.0</ele><time>2015-04-27T08:44:22.0000000+00:00</time></trkpt><trkpt lat="35.0757418" lon="32.5776759"><ele>536.0</ele><time>2015-04-27T08:44:26.0000000+00:00</time></trkpt><trkpt lat="35.0756975" lon="32.5776894"><ele>538.4</ele><time>2015-04-27T08:44:29.0000000+00:00</time></trkpt><trkpt lat="35.0756392" lon="32.577684"><ele>538.9</ele><time>2015-04-27T08:44:33.0000000+00:00</time></trkpt><trkpt lat="35.0755838" lon="32.5776862"><ele>538.1</ele><time>2015-04-27T08:44:37.0000000+00:00</time></trkpt><trkpt lat="35.0755325" lon="32.5776913"><ele>540.8</ele><time>2015-04-27T08:44:41.0000000+00:00</time></trkpt><trkpt lat="35.075477" lon="32.5776923"><ele>542.7</ele><time>2015-04-27T08:44:45.0000000+00:00</time></trkpt><trkpt lat="35.075431" lon="32.5776886"><ele>542.1</ele><time>2015-04-27T08:44:48.0000000+00:00</time></trkpt><trkpt lat="35.0753751" lon="32.577682"><ele>542.8</ele><time>2015-04-27T08:44:52.0000000+00:00</time></trkpt><trkpt lat="35.0753218" lon="32.577697"><ele>545.9</ele><time>2015-04-27T08:44:56.0000000+00:00</time></trkpt><trkpt lat="35.0752648" lon="32.5777084"><ele>548.6</ele><time>2015-04-27T08:45:00.0000000+00:00</time></trkpt><trkpt lat="35.0752153" lon="32.5777162"><ele>550.5</ele><time>2015-04-27T08:45:04.0000000+00:00</time></trkpt><trkpt lat="35.075163" lon="32.5777227"><ele>552.8</ele><time>2015-04-27T08:45:08.0000000+00:00</time></trkpt><trkpt lat="35.0751147" lon="32.5777264"><ele>555.8</ele><time>2015-04-27T08:45:11.0000000+00:00</time></trkpt><trkpt lat="35.0750656" lon="32.5777372"><ele>555.8</ele><time>2015-04-27T08:45:14.0000000+00:00</time></trkpt><trkpt lat="35.0750162" lon="32.5777679"><ele>554.3</ele><time>2015-04-27T08:45:17.0000000+00:00</time></trkpt><trkpt lat="35.0749715" lon="32.5778091"><ele>555.5</ele><time>2015-04-27T08:45:21.0000000+00:00</time></trkpt><trkpt lat="35.0749533" lon="32.5778774"><ele>553.7</ele><time>2015-04-27T08:45:25.0000000+00:00</time></trkpt><trkpt lat="35.0749765" lon="32.5779332"><ele>552.3</ele><time>2015-04-27T08:45:28.0000000+00:00</time></trkpt><trkpt lat="35.0750042" lon="32.5779825"><ele>553.0</ele><time>2015-04-27T08:45:31.0000000+00:00</time></trkpt><trkpt lat="35.0750428" lon="32.5780251"><ele>551.9</ele><time>2015-04-27T08:45:34.0000000+00:00</time></trkpt><trkpt lat="35.0750823" lon="32.5780655"><ele>552.1</ele><time>2015-04-27T08:45:37.0000000+00:00</time></trkpt><trkpt lat="35.0751155" lon="32.57811"><ele>552.1</ele><time>2015-04-27T08:45:40.0000000+00:00</time></trkpt><trkpt lat="35.0751526" lon="32.5781484"><ele>551.7</ele><time>2015-04-27T08:45:43.0000000+00:00</time></trkpt><trkpt lat="35.0751917" lon="32.5781776"><ele>552.8</ele><time>2015-04-27T08:45:46.0000000+00:00</time></trkpt><trkpt lat="35.0752393" lon="32.578215"><ele>555.4</ele><time>2015-04-27T08:45:50.0000000+00:00</time></trkpt><trkpt lat="35.0752737" lon="32.5782519"><ele>553.6</ele><time>2015-04-27T08:45:53.0000000+00:00</time></trkpt><trkpt lat="35.0753132" lon="32.5782796"><ele>552.8</ele><time>2015-04-27T08:45:56.0000000+00:00</time></trkpt><trkpt lat="35.0753609" lon="32.5783229"><ele>550.3</ele><time>2015-04-27T08:46:00.0000000+00:00</time></trkpt><trkpt lat="35.0753932" lon="32.5783732"><ele>551.0</ele><time>2015-04-27T08:46:04.0000000+00:00</time></trkpt><trkpt lat="35.0754252" lon="32.5784249"><ele>550.1</ele><time>2015-04-27T08:46:08.0000000+00:00</time></trkpt><trkpt lat="35.0754639" lon="32.5784737"><ele>550.7</ele><time>2015-04-27T08:46:12.0000000+00:00</time></trkpt><trkpt lat="35.0755005" lon="32.5785252"><ele>550.8</ele><time>2015-04-27T08:46:16.0000000+00:00</time></trkpt><trkpt lat="35.0755165" lon="32.5785793"><ele>549.0</ele><time>2015-04-27T08:46:19.0000000+00:00</time></trkpt><trkpt lat="35.0755382" lon="32.578629"><ele>549.7</ele><time>2015-04-27T08:46:22.0000000+00:00</time></trkpt><trkpt lat="35.0755558" lon="32.5786902"><ele>550.0</ele><time>2015-04-27T08:46:25.0000000+00:00</time></trkpt><trkpt lat="35.0755616" lon="32.578747"><ele>549.9</ele><time>2015-04-27T08:46:28.0000000+00:00</time></trkpt><trkpt lat="35.0755711" lon="32.5788015"><ele>548.6</ele><time>2015-04-27T08:46:31.0000000+00:00</time></trkpt><trkpt lat="35.0755961" lon="32.5788639"><ele>548.7</ele><time>2015-04-27T08:46:35.0000000+00:00</time></trkpt><trkpt lat="35.0756336" lon="32.5789192"><ele>549.1</ele><time>2015-04-27T08:46:39.0000000+00:00</time></trkpt><trkpt lat="35.075671" lon="32.5789709"><ele>548.3</ele><time>2015-04-27T08:46:43.0000000+00:00</time></trkpt><trkpt lat="35.0756995" lon="32.5790143"><ele>548.6</ele><time>2015-04-27T08:46:46.0000000+00:00</time></trkpt><trkpt lat="35.0757254" lon="32.57906"><ele>550.1</ele><time>2015-04-27T08:46:49.0000000+00:00</time></trkpt><trkpt lat="35.075754" lon="32.5791162"><ele>551.3</ele><time>2015-04-27T08:46:53.0000000+00:00</time></trkpt><trkpt lat="35.0757912" lon="32.5791682"><ele>551.2</ele><time>2015-04-27T08:46:57.0000000+00:00</time></trkpt><trkpt lat="35.0758097" lon="32.5792304"><ele>548.6</ele><time>2015-04-27T08:47:01.0000000+00:00</time></trkpt><trkpt lat="35.0758205" lon="32.5792894"><ele>551.0</ele><time>2015-04-27T08:47:05.0000000+00:00</time></trkpt><trkpt lat="35.0758358" lon="32.5793484"><ele>549.3</ele><time>2015-04-27T08:47:09.0000000+00:00</time></trkpt><trkpt lat="35.0758391" lon="32.5794104"><ele>550.6</ele><time>2015-04-27T08:47:13.0000000+00:00</time></trkpt><trkpt lat="35.0758348" lon="32.5794698"><ele>551.4</ele><time>2015-04-27T08:47:17.0000000+00:00</time></trkpt><trkpt lat="35.0757982" lon="32.5795182"><ele>552.8</ele><time>2015-04-27T08:47:21.0000000+00:00</time></trkpt><trkpt lat="35.0757744" lon="32.5795756"><ele>553.9</ele><time>2015-04-27T08:47:25.0000000+00:00</time></trkpt><trkpt lat="35.0757355" lon="32.579618"><ele>554.4</ele><time>2015-04-27T08:47:29.0000000+00:00</time></trkpt><trkpt lat="35.0756849" lon="32.5796425"><ele>554.5</ele><time>2015-04-27T08:47:33.0000000+00:00</time></trkpt><trkpt lat="35.0756399" lon="32.5796393"><ele>554.4</ele><time>2015-04-27T08:47:36.0000000+00:00</time></trkpt><trkpt lat="35.0755961" lon="32.5796237"><ele>555.6</ele><time>2015-04-27T08:47:39.0000000+00:00</time></trkpt><trkpt lat="35.0755414" lon="32.5796047"><ele>555.8</ele><time>2015-04-27T08:47:43.0000000+00:00</time></trkpt><trkpt lat="35.0754889" lon="32.5795992"><ele>555.2</ele><time>2015-04-27T08:47:47.0000000+00:00</time></trkpt><trkpt lat="35.0754303" lon="32.5796007"><ele>559.3</ele><time>2015-04-27T08:47:51.0000000+00:00</time></trkpt><trkpt lat="35.0753843" lon="32.5795908"><ele>562.5</ele><time>2015-04-27T08:47:54.0000000+00:00</time></trkpt><trkpt lat="35.0753389" lon="32.5795854"><ele>563.2</ele><time>2015-04-27T08:47:57.0000000+00:00</time></trkpt><trkpt lat="35.0752814" lon="32.5795808"><ele>565.9</ele><time>2015-04-27T08:48:01.0000000+00:00</time></trkpt><trkpt lat="35.0752306" lon="32.5795994"><ele>564.7</ele><time>2015-04-27T08:48:05.0000000+00:00</time></trkpt><trkpt lat="35.0751882" lon="32.5796365"><ele>562.2</ele><time>2015-04-27T08:48:09.0000000+00:00</time></trkpt><trkpt lat="35.0751487" lon="32.5796798"><ele>560.3</ele><time>2015-04-27T08:48:13.0000000+00:00</time></trkpt><trkpt lat="35.0751166" lon="32.5797379"><ele>558.3</ele><time>2015-04-27T08:48:17.0000000+00:00</time></trkpt><trkpt lat="35.0751179" lon="32.5798075"><ele>554.8</ele><time>2015-04-27T08:48:21.0000000+00:00</time></trkpt><trkpt lat="35.0751061" lon="32.5798699"><ele>553.4</ele><time>2015-04-27T08:48:25.0000000+00:00</time></trkpt><trkpt lat="35.0750904" lon="32.5799294"><ele>555.4</ele><time>2015-04-27T08:48:29.0000000+00:00</time></trkpt><trkpt lat="35.0750824" lon="32.5799919"><ele>557.5</ele><time>2015-04-27T08:48:33.0000000+00:00</time></trkpt><trkpt lat="35.075042" lon="32.5800411"><ele>559.4</ele><time>2015-04-27T08:48:37.0000000+00:00</time></trkpt><trkpt lat="35.0750114" lon="32.5800835"><ele>558.1</ele><time>2015-04-27T08:48:40.0000000+00:00</time></trkpt><trkpt lat="35.074978" lon="32.5801281"><ele>558.3</ele><time>2015-04-27T08:48:43.0000000+00:00</time></trkpt><trkpt lat="35.0749481" lon="32.5801728"><ele>556.7</ele><time>2015-04-27T08:48:46.0000000+00:00</time></trkpt><trkpt lat="35.0749073" lon="32.5802253"><ele>558.3</ele><time>2015-04-27T08:48:50.0000000+00:00</time></trkpt><trkpt lat="35.074886" lon="32.5802744"><ele>560.4</ele><time>2015-04-27T08:48:53.0000000+00:00</time></trkpt><trkpt lat="35.0748715" lon="32.5803393"><ele>561.2</ele><time>2015-04-27T08:48:57.0000000+00:00</time></trkpt><trkpt lat="35.0748492" lon="32.580399"><ele>560.9</ele><time>2015-04-27T08:49:01.0000000+00:00</time></trkpt><trkpt lat="35.0748428" lon="32.5804582"><ele>561.8</ele><time>2015-04-27T08:49:05.0000000+00:00</time></trkpt><trkpt lat="35.0748473" lon="32.5805243"><ele>562.9</ele><time>2015-04-27T08:49:09.0000000+00:00</time></trkpt><trkpt lat="35.0748499" lon="32.5805942"><ele>563.7</ele><time>2015-04-27T08:49:13.0000000+00:00</time></trkpt><trkpt lat="35.0748469" lon="32.5806624"><ele>562.0</ele><time>2015-04-27T08:49:17.0000000+00:00</time></trkpt><trkpt lat="35.0748225" lon="32.5807214"><ele>564.5</ele><time>2015-04-27T08:49:21.0000000+00:00</time></trkpt><trkpt lat="35.0747761" lon="32.5807267"><ele>569.9</ele><time>2015-04-27T09:05:04.0000000+00:00</time></trkpt><trkpt lat="35.0747218" lon="32.5807574"><ele>570.1</ele><time>2015-04-27T09:05:08.0000000+00:00</time></trkpt><trkpt lat="35.0746755" lon="32.5807788"><ele>569.9</ele><time>2015-04-27T09:05:11.0000000+00:00</time></trkpt><trkpt lat="35.0746284" lon="32.5808009"><ele>569.7</ele><time>2015-04-27T09:05:14.0000000+00:00</time></trkpt><trkpt lat="35.0745826" lon="32.5808259"><ele>569.1</ele><time>2015-04-27T09:05:17.0000000+00:00</time></trkpt><trkpt lat="35.0745401" lon="32.5808567"><ele>568.7</ele><time>2015-04-27T09:05:20.0000000+00:00</time></trkpt><trkpt lat="35.0744918" lon="32.5808962"><ele>567.1</ele><time>2015-04-27T09:05:24.0000000+00:00</time></trkpt><trkpt lat="35.074456" lon="32.5809535"><ele>566.9</ele><time>2015-04-27T09:05:28.0000000+00:00</time></trkpt><trkpt lat="35.0744278" lon="32.5809993"><ele>569.4</ele><time>2015-04-27T09:05:31.0000000+00:00</time></trkpt><trkpt lat="35.0744015" lon="32.5810484"><ele>568.7</ele><time>2015-04-27T09:05:34.0000000+00:00</time></trkpt><trkpt lat="35.074375" lon="32.581105"><ele>568.5</ele><time>2015-04-27T09:05:38.0000000+00:00</time></trkpt><trkpt lat="35.0743555" lon="32.5811579"><ele>569.7</ele><time>2015-04-27T09:05:42.0000000+00:00</time></trkpt><trkpt lat="35.0743142" lon="32.5812017"><ele>570.0</ele><time>2015-04-27T09:05:47.0000000+00:00</time></trkpt><trkpt lat="35.0742598" lon="32.5812132"><ele>569.9</ele><time>2015-04-27T09:05:51.0000000+00:00</time></trkpt><trkpt lat="35.0742084" lon="32.581208"><ele>569.8</ele><time>2015-04-27T09:05:54.0000000+00:00</time></trkpt><trkpt lat="35.0741639" lon="32.5812001"><ele>569.0</ele><time>2015-04-27T09:05:57.0000000+00:00</time></trkpt><trkpt lat="35.0741194" lon="32.5811821"><ele>569.1</ele><time>2015-04-27T09:06:00.0000000+00:00</time></trkpt><trkpt lat="35.0740749" lon="32.5811625"><ele>568.4</ele><time>2015-04-27T09:06:03.0000000+00:00</time></trkpt><trkpt lat="35.0740245" lon="32.5811472"><ele>568.6</ele><time>2015-04-27T09:06:06.0000000+00:00</time></trkpt><trkpt lat="35.073974" lon="32.5811343"><ele>569.6</ele><time>2015-04-27T09:06:09.0000000+00:00</time></trkpt><trkpt lat="35.0739281" lon="32.5811105"><ele>571.5</ele><time>2015-04-27T09:06:12.0000000+00:00</time></trkpt><trkpt lat="35.0738871" lon="32.5810795"><ele>573.1</ele><time>2015-04-27T09:06:15.0000000+00:00</time></trkpt><trkpt lat="35.073835" lon="32.5810504"><ele>574.4</ele><time>2015-04-27T09:06:19.0000000+00:00</time></trkpt><trkpt lat="35.0737895" lon="32.5810229"><ele>573.1</ele><time>2015-04-27T09:06:22.0000000+00:00</time></trkpt><trkpt lat="35.0737492" lon="32.5809915"><ele>572.1</ele><time>2015-04-27T09:06:25.0000000+00:00</time></trkpt><trkpt lat="35.0736946" lon="32.5809763"><ele>571.4</ele><time>2015-04-27T09:06:28.0000000+00:00</time></trkpt><trkpt lat="35.0736512" lon="32.5809452"><ele>571.4</ele><time>2015-04-27T09:06:31.0000000+00:00</time></trkpt><trkpt lat="35.0736103" lon="32.5809126"><ele>571.9</ele><time>2015-04-27T09:06:34.0000000+00:00</time></trkpt><trkpt lat="35.0735679" lon="32.5808922"><ele>571.0</ele><time>2015-04-27T09:06:37.0000000+00:00</time></trkpt><trkpt lat="35.0735183" lon="32.580873"><ele>569.8</ele><time>2015-04-27T09:06:41.0000000+00:00</time></trkpt><trkpt lat="35.0734691" lon="32.580846"><ele>569.4</ele><time>2015-04-27T09:06:45.0000000+00:00</time></trkpt><trkpt lat="35.0734118" lon="32.5808408"><ele>570.6</ele><time>2015-04-27T09:06:49.0000000+00:00</time></trkpt><trkpt lat="35.0733572" lon="32.5808436"><ele>570.2</ele><time>2015-04-27T09:06:53.0000000+00:00</time></trkpt><trkpt lat="35.0733063" lon="32.5808803"><ele>574.3</ele><time>2015-04-27T09:06:57.0000000+00:00</time></trkpt><trkpt lat="35.073283" lon="32.5809289"><ele>576.8</ele><time>2015-04-27T09:07:00.0000000+00:00</time></trkpt><trkpt lat="35.0732803" lon="32.5809864"><ele>578.0</ele><time>2015-04-27T09:07:04.0000000+00:00</time></trkpt><trkpt lat="35.0732742" lon="32.5810509"><ele>580.2</ele><time>2015-04-27T09:07:08.0000000+00:00</time></trkpt><trkpt lat="35.073293" lon="32.5811144"><ele>582.9</ele><time>2015-04-27T09:07:13.0000000+00:00</time></trkpt><trkpt lat="35.0732973" lon="32.5811717"><ele>584.1</ele><time>2015-04-27T09:07:18.0000000+00:00</time></trkpt><trkpt lat="35.0733089" lon="32.581225"><ele>583.9</ele><time>2015-04-27T09:07:23.0000000+00:00</time></trkpt><trkpt lat="35.0733137" lon="32.5812852"><ele>579.9</ele><time>2015-04-27T09:07:28.0000000+00:00</time></trkpt><trkpt lat="35.0733233" lon="32.5813463"><ele>577.6</ele><time>2015-04-27T09:07:33.0000000+00:00</time></trkpt><trkpt lat="35.0733289" lon="32.5814021"><ele>578.8</ele><time>2015-04-27T09:07:37.0000000+00:00</time></trkpt><trkpt lat="35.0733462" lon="32.5814582"><ele>581.7</ele><time>2015-04-27T09:07:41.0000000+00:00</time></trkpt><trkpt lat="35.0733517" lon="32.581514"><ele>582.4</ele><time>2015-04-27T09:07:45.0000000+00:00</time></trkpt><trkpt lat="35.073366" lon="32.5815662"><ele>583.8</ele><time>2015-04-27T09:07:49.0000000+00:00</time></trkpt><trkpt lat="35.0733716" lon="32.5816342"><ele>585.5</ele><time>2015-04-27T09:07:54.0000000+00:00</time></trkpt><trkpt lat="35.0733769" lon="32.5816932"><ele>584.4</ele><time>2015-04-27T09:07:58.0000000+00:00</time></trkpt><trkpt lat="35.0733776" lon="32.5817578"><ele>584.9</ele><time>2015-04-27T09:08:03.0000000+00:00</time></trkpt><trkpt lat="35.0733865" lon="32.5818149"><ele>585.8</ele><time>2015-04-27T09:08:07.0000000+00:00</time></trkpt><trkpt lat="35.0734132" lon="32.5818662"><ele>585.5</ele><time>2015-04-27T09:08:11.0000000+00:00</time></trkpt><trkpt lat="35.0734087" lon="32.581932"><ele>585.7</ele><time>2015-04-27T09:08:15.0000000+00:00</time></trkpt><trkpt lat="35.0733979" lon="32.5819998"><ele>585.2</ele><time>2015-04-27T09:08:19.0000000+00:00</time></trkpt><trkpt lat="35.0733705" lon="32.5820558"><ele>584.3</ele><time>2015-04-27T09:08:23.0000000+00:00</time></trkpt><trkpt lat="35.0733408" lon="32.582109"><ele>584.9</ele><time>2015-04-27T09:08:27.0000000+00:00</time></trkpt><trkpt lat="35.0733023" lon="32.5821496"><ele>586.4</ele><time>2015-04-27T09:08:31.0000000+00:00</time></trkpt><trkpt lat="35.0732595" lon="32.5821818"><ele>586.9</ele><time>2015-04-27T09:08:35.0000000+00:00</time></trkpt><trkpt lat="35.0732124" lon="32.5822151"><ele>586.9</ele><time>2015-04-27T09:08:39.0000000+00:00</time></trkpt><trkpt lat="35.0731556" lon="32.5822332"><ele>586.9</ele><time>2015-04-27T09:08:43.0000000+00:00</time></trkpt><trkpt lat="35.0731126" lon="32.5822513"><ele>586.2</ele><time>2015-04-27T09:08:46.0000000+00:00</time></trkpt><trkpt lat="35.0730584" lon="32.5822774"><ele>586.2</ele><time>2015-04-27T09:08:50.0000000+00:00</time></trkpt><trkpt lat="35.0730189" lon="32.5823054"><ele>585.7</ele><time>2015-04-27T09:08:53.0000000+00:00</time></trkpt><trkpt lat="35.0729671" lon="32.5823273"><ele>584.4</ele><time>2015-04-27T09:08:57.0000000+00:00</time></trkpt><trkpt lat="35.0729168" lon="32.5823447"><ele>581.8</ele><time>2015-04-27T09:09:01.0000000+00:00</time></trkpt><trkpt lat="35.0728713" lon="32.5823723"><ele>580.8</ele><time>2015-04-27T09:09:05.0000000+00:00</time></trkpt><trkpt lat="35.0728203" lon="32.5823889"><ele>581.4</ele><time>2015-04-27T09:09:09.0000000+00:00</time></trkpt><trkpt lat="35.0727723" lon="32.5824068"><ele>580.2</ele><time>2015-04-27T09:09:13.0000000+00:00</time></trkpt><trkpt lat="35.0727256" lon="32.5824167"><ele>579.3</ele><time>2015-04-27T09:09:17.0000000+00:00</time></trkpt><trkpt lat="35.0726839" lon="32.5824394"><ele>579.1</ele><time>2015-04-27T09:09:21.0000000+00:00</time></trkpt><trkpt lat="35.0726336" lon="32.5824699"><ele>578.2</ele><time>2015-04-27T09:09:26.0000000+00:00</time></trkpt><trkpt lat="35.0726011" lon="32.5825108"><ele>577.6</ele><time>2015-04-27T09:09:30.0000000+00:00</time></trkpt><trkpt lat="35.0725604" lon="32.5825411"><ele>575.3</ele><time>2015-04-27T09:09:34.0000000+00:00</time></trkpt><trkpt lat="35.072519" lon="32.5825882"><ele>574.2</ele><time>2015-04-27T09:09:38.0000000+00:00</time></trkpt><trkpt lat="35.0724791" lon="32.5826312"><ele>573.5</ele><time>2015-04-27T09:09:42.0000000+00:00</time></trkpt><trkpt lat="35.0724494" lon="32.5826811"><ele>572.7</ele><time>2015-04-27T09:09:46.0000000+00:00</time></trkpt><trkpt lat="35.0724023" lon="32.5827112"><ele>571.3</ele><time>2015-04-27T09:09:50.0000000+00:00</time></trkpt><trkpt lat="35.07236" lon="32.5827388"><ele>569.6</ele><time>2015-04-27T09:09:54.0000000+00:00</time></trkpt><trkpt lat="35.0723182" lon="32.582771"><ele>571.3</ele><time>2015-04-27T09:09:58.0000000+00:00</time></trkpt><trkpt lat="35.07227" lon="32.5828093"><ele>572.1</ele><time>2015-04-27T09:10:02.0000000+00:00</time></trkpt><trkpt lat="35.0722146" lon="32.5828292"><ele>570.5</ele><time>2015-04-27T09:10:06.0000000+00:00</time></trkpt><trkpt lat="35.0721591" lon="32.5828325"><ele>569.2</ele><time>2015-04-27T09:10:10.0000000+00:00</time></trkpt><trkpt lat="35.0720974" lon="32.5828336"><ele>569.7</ele><time>2015-04-27T09:10:14.0000000+00:00</time></trkpt><trkpt lat="35.0720377" lon="32.5828255"><ele>567.8</ele><time>2015-04-27T09:10:17.0000000+00:00</time></trkpt><trkpt lat="35.0719864" lon="32.5828223"><ele>568.3</ele><time>2015-04-27T09:10:20.0000000+00:00</time></trkpt><trkpt lat="35.0719352" lon="32.5828278"><ele>570.1</ele><time>2015-04-27T09:10:23.0000000+00:00</time></trkpt><trkpt lat="35.0718843" lon="32.5828369"><ele>571.6</ele><time>2015-04-27T09:10:26.0000000+00:00</time></trkpt><trkpt lat="35.0718361" lon="32.582837"><ele>571.4</ele><time>2015-04-27T09:10:29.0000000+00:00</time></trkpt><trkpt lat="35.0717882" lon="32.5828512"><ele>573.1</ele><time>2015-04-27T09:10:32.0000000+00:00</time></trkpt><trkpt lat="35.0717379" lon="32.5828651"><ele>573.8</ele><time>2015-04-27T09:10:35.0000000+00:00</time></trkpt><trkpt lat="35.0716854" lon="32.5828618"><ele>573.9</ele><time>2015-04-27T09:10:38.0000000+00:00</time></trkpt><trkpt lat="35.0716342" lon="32.5828658"><ele>574.7</ele><time>2015-04-27T09:10:41.0000000+00:00</time></trkpt><trkpt lat="35.0715849" lon="32.582875"><ele>573.1</ele><time>2015-04-27T09:10:44.0000000+00:00</time></trkpt><trkpt lat="35.0715377" lon="32.5828983"><ele>574.8</ele><time>2015-04-27T09:10:47.0000000+00:00</time></trkpt><trkpt lat="35.0714936" lon="32.5829192"><ele>575.5</ele><time>2015-04-27T09:10:50.0000000+00:00</time></trkpt><trkpt lat="35.0714499" lon="32.5829368"><ele>577.1</ele><time>2015-04-27T09:10:53.0000000+00:00</time></trkpt><trkpt lat="35.0714056" lon="32.5829553"><ele>579.2</ele><time>2015-04-27T09:10:56.0000000+00:00</time></trkpt><trkpt lat="35.0713608" lon="32.5829696"><ele>581.7</ele><time>2015-04-27T09:10:59.0000000+00:00</time></trkpt><trkpt lat="35.0713054" lon="32.5829684"><ele>583.0</ele><time>2015-04-27T09:11:03.0000000+00:00</time></trkpt><trkpt lat="35.071256" lon="32.5829788"><ele>584.2</ele><time>2015-04-27T09:11:07.0000000+00:00</time></trkpt><trkpt lat="35.071204" lon="32.582988"><ele>585.8</ele><time>2015-04-27T09:11:11.0000000+00:00</time></trkpt><trkpt lat="35.0711574" lon="32.5829989"><ele>586.5</ele><time>2015-04-27T09:11:15.0000000+00:00</time></trkpt><trkpt lat="35.07111" lon="32.5830114"><ele>587.4</ele><time>2015-04-27T09:11:19.0000000+00:00</time></trkpt><trkpt lat="35.071062" lon="32.5830426"><ele>589.3</ele><time>2015-04-27T09:11:23.0000000+00:00</time></trkpt><trkpt lat="35.0710198" lon="32.5830958"><ele>590.8</ele><time>2015-04-27T09:11:27.0000000+00:00</time></trkpt><trkpt lat="35.0709888" lon="32.5831366"><ele>590.9</ele><time>2015-04-27T09:11:30.0000000+00:00</time></trkpt><trkpt lat="35.0709453" lon="32.5831829"><ele>590.6</ele><time>2015-04-27T09:11:34.0000000+00:00</time></trkpt><trkpt lat="35.0708976" lon="32.5832236"><ele>591.3</ele><time>2015-04-27T09:11:38.0000000+00:00</time></trkpt><trkpt lat="35.0708499" lon="32.5832488"><ele>591.4</ele><time>2015-04-27T09:11:42.0000000+00:00</time></trkpt><trkpt lat="35.0708004" lon="32.5832841"><ele>592.9</ele><time>2015-04-27T09:11:47.0000000+00:00</time></trkpt><trkpt lat="35.0707476" lon="32.5833008"><ele>593.9</ele><time>2015-04-27T09:11:51.0000000+00:00</time></trkpt><trkpt lat="35.0707007" lon="32.5833078"><ele>595.4</ele><time>2015-04-27T09:11:55.0000000+00:00</time></trkpt><trkpt lat="35.0706456" lon="32.5833111"><ele>596.4</ele><time>2015-04-27T09:11:59.0000000+00:00</time></trkpt><trkpt lat="35.0705875" lon="32.583307"><ele>596.0</ele><time>2015-04-27T09:12:03.0000000+00:00</time></trkpt><trkpt lat="35.0705302" lon="32.583308"><ele>596.9</ele><time>2015-04-27T09:12:07.0000000+00:00</time></trkpt><trkpt lat="35.0704779" lon="32.583295"><ele>596.9</ele><time>2015-04-27T09:12:11.0000000+00:00</time></trkpt><trkpt lat="35.0704235" lon="32.5832996"><ele>597.7</ele><time>2015-04-27T09:12:15.0000000+00:00</time></trkpt><trkpt lat="35.0703681" lon="32.5833037"><ele>600.2</ele><time>2015-04-27T09:12:19.0000000+00:00</time></trkpt><trkpt lat="35.0703145" lon="32.5833024"><ele>600.4</ele><time>2015-04-27T09:12:23.0000000+00:00</time></trkpt><trkpt lat="35.0702617" lon="32.583297"><ele>599.5</ele><time>2015-04-27T09:12:27.0000000+00:00</time></trkpt><trkpt lat="35.0702096" lon="32.5832917"><ele>600.2</ele><time>2015-04-27T09:12:31.0000000+00:00</time></trkpt><trkpt lat="35.0701586" lon="32.5833025"><ele>601.3</ele><time>2015-04-27T09:12:35.0000000+00:00</time></trkpt><trkpt lat="35.0701248" lon="32.5833476"><ele>601.4</ele><time>2015-04-27T09:12:40.0000000+00:00</time></trkpt><trkpt lat="35.0701119" lon="32.5834141"><ele>604.3</ele><time>2015-04-27T09:12:45.0000000+00:00</time></trkpt><trkpt lat="35.0701096" lon="32.5834821"><ele>610.1</ele><time>2015-04-27T09:12:49.0000000+00:00</time></trkpt><trkpt lat="35.0701331" lon="32.5835386"><ele>612.3</ele><time>2015-04-27T09:12:53.0000000+00:00</time></trkpt><trkpt lat="35.0701539" lon="32.5835907"><ele>613.5</ele><time>2015-04-27T09:12:57.0000000+00:00</time></trkpt><trkpt lat="35.0701764" lon="32.5836459"><ele>614.5</ele><time>2015-04-27T09:13:02.0000000+00:00</time></trkpt><trkpt lat="35.0702007" lon="32.5837055"><ele>613.3</ele><time>2015-04-27T09:13:07.0000000+00:00</time></trkpt><trkpt lat="35.070224" lon="32.583758"><ele>612.5</ele><time>2015-04-27T09:13:11.0000000+00:00</time></trkpt><trkpt lat="35.0702467" lon="32.5838112"><ele>611.8</ele><time>2015-04-27T09:13:15.0000000+00:00</time></trkpt><trkpt lat="35.0702778" lon="32.5838693"><ele>612.4</ele><time>2015-04-27T09:13:19.0000000+00:00</time></trkpt><trkpt lat="35.0702821" lon="32.5839242"><ele>612.0</ele><time>2015-04-27T09:13:23.0000000+00:00</time></trkpt><trkpt lat="35.0702692" lon="32.5839875"><ele>609.2</ele><time>2015-04-27T09:13:28.0000000+00:00</time></trkpt><trkpt lat="35.0702578" lon="32.5840414"><ele>608.9</ele><time>2015-04-27T09:13:32.0000000+00:00</time></trkpt><trkpt lat="35.0702493" lon="32.584102"><ele>609.7</ele><time>2015-04-27T09:13:36.0000000+00:00</time></trkpt><trkpt lat="35.0702292" lon="32.5841611"><ele>612.9</ele><time>2015-04-27T09:13:40.0000000+00:00</time></trkpt><trkpt lat="35.0702139" lon="32.5842192"><ele>615.2</ele><time>2015-04-27T09:13:44.0000000+00:00</time></trkpt><trkpt lat="35.0701883" lon="32.5842703"><ele>617.0</ele><time>2015-04-27T09:13:48.0000000+00:00</time></trkpt><trkpt lat="35.0701717" lon="32.5843257"><ele>619.2</ele><time>2015-04-27T09:13:52.0000000+00:00</time></trkpt><trkpt lat="35.0701649" lon="32.5843826"><ele>620.6</ele><time>2015-04-27T09:13:56.0000000+00:00</time></trkpt><trkpt lat="35.0701677" lon="32.5844419"><ele>622.3</ele><time>2015-04-27T09:14:00.0000000+00:00</time></trkpt><trkpt lat="35.0701832" lon="32.5845055"><ele>623.1</ele><time>2015-04-27T09:14:04.0000000+00:00</time></trkpt><trkpt lat="35.0702034" lon="32.5845647"><ele>624.3</ele><time>2015-04-27T09:14:08.0000000+00:00</time></trkpt><trkpt lat="35.0702478" lon="32.5846035"><ele>629.2</ele><time>2015-04-27T09:14:13.0000000+00:00</time></trkpt><trkpt lat="35.0702964" lon="32.5845997"><ele>629.5</ele><time>2015-04-27T09:14:18.0000000+00:00</time></trkpt><trkpt lat="35.0703434" lon="32.5845781"><ele>626.8</ele><time>2015-04-27T09:14:23.0000000+00:00</time></trkpt><trkpt lat="35.0703833" lon="32.5845418"><ele>624.5</ele><time>2015-04-27T09:14:28.0000000+00:00</time></trkpt><trkpt lat="35.0704262" lon="32.5844979"><ele>623.9</ele><time>2015-04-27T09:14:33.0000000+00:00</time></trkpt><trkpt lat="35.0704698" lon="32.5844673"><ele>623.2</ele><time>2015-04-27T09:14:37.0000000+00:00</time></trkpt><trkpt lat="35.0705124" lon="32.5844352"><ele>621.3</ele><time>2015-04-27T09:14:41.0000000+00:00</time></trkpt><trkpt lat="35.0705558" lon="32.5844004"><ele>620.2</ele><time>2015-04-27T09:14:45.0000000+00:00</time></trkpt><trkpt lat="35.0706009" lon="32.584362"><ele>620.8</ele><time>2015-04-27T09:14:50.0000000+00:00</time></trkpt><trkpt lat="35.0706514" lon="32.5843335"><ele>619.7</ele><time>2015-04-27T09:14:55.0000000+00:00</time></trkpt><trkpt lat="35.0707012" lon="32.5843113"><ele>621.2</ele><time>2015-04-27T09:14:59.0000000+00:00</time></trkpt><trkpt lat="35.0707523" lon="32.5842971"><ele>621.9</ele><time>2015-04-27T09:15:03.0000000+00:00</time></trkpt><trkpt lat="35.0707978" lon="32.5843072"><ele>624.0</ele><time>2015-04-27T09:15:07.0000000+00:00</time></trkpt><trkpt lat="35.0708543" lon="32.584307"><ele>626.3</ele><time>2015-04-27T09:15:12.0000000+00:00</time></trkpt><trkpt lat="35.0709038" lon="32.5843102"><ele>625.5</ele><time>2015-04-27T09:15:16.0000000+00:00</time></trkpt><trkpt lat="35.070956" lon="32.5843143"><ele>625.3</ele><time>2015-04-27T09:15:20.0000000+00:00</time></trkpt><trkpt lat="35.0710105" lon="32.5843167"><ele>627.8</ele><time>2015-04-27T09:15:26.0000000+00:00</time></trkpt><trkpt lat="35.0710694" lon="32.5843202"><ele>629.5</ele><time>2015-04-27T09:15:30.0000000+00:00</time></trkpt><trkpt lat="35.0711238" lon="32.5843392"><ele>633.3</ele><time>2015-04-27T09:15:34.0000000+00:00</time></trkpt><trkpt lat="35.0711758" lon="32.5843632"><ele>635.4</ele><time>2015-04-27T09:15:38.0000000+00:00</time></trkpt><trkpt lat="35.0712226" lon="32.5844005"><ele>636.0</ele><time>2015-04-27T09:15:42.0000000+00:00</time></trkpt><trkpt lat="35.0712745" lon="32.5844232"><ele>635.7</ele><time>2015-04-27T09:15:46.0000000+00:00</time></trkpt><trkpt lat="35.0713264" lon="32.5844412"><ele>635.5</ele><time>2015-04-27T09:15:50.0000000+00:00</time></trkpt><trkpt lat="35.071368" lon="32.5844788"><ele>634.8</ele><time>2015-04-27T09:15:54.0000000+00:00</time></trkpt><trkpt lat="35.0714124" lon="32.5845195"><ele>635.9</ele><time>2015-04-27T09:15:58.0000000+00:00</time></trkpt><trkpt lat="35.0714524" lon="32.5845667"><ele>635.3</ele><time>2015-04-27T09:16:02.0000000+00:00</time></trkpt><trkpt lat="35.0714987" lon="32.5846029"><ele>635.7</ele><time>2015-04-27T09:16:06.0000000+00:00</time></trkpt><trkpt lat="35.0715374" lon="32.5846496"><ele>635.2</ele><time>2015-04-27T09:16:10.0000000+00:00</time></trkpt><trkpt lat="35.0715792" lon="32.5846984"><ele>636.4</ele><time>2015-04-27T09:16:14.0000000+00:00</time></trkpt><trkpt lat="35.0716144" lon="32.5847493"><ele>636.4</ele><time>2015-04-27T09:16:18.0000000+00:00</time></trkpt><trkpt lat="35.0716524" lon="32.5847863"><ele>635.8</ele><time>2015-04-27T09:16:22.0000000+00:00</time></trkpt><trkpt lat="35.0716926" lon="32.5848199"><ele>635.5</ele><time>2015-04-27T09:16:26.0000000+00:00</time></trkpt><trkpt lat="35.0717132" lon="32.5848719"><ele>634.2</ele><time>2015-04-27T09:16:30.0000000+00:00</time></trkpt><trkpt lat="35.0717351" lon="32.5849249"><ele>634.6</ele><time>2015-04-27T09:16:34.0000000+00:00</time></trkpt><trkpt lat="35.0717506" lon="32.5849793"><ele>637.0</ele><time>2015-04-27T09:16:37.0000000+00:00</time></trkpt><trkpt lat="35.0717574" lon="32.5850339"><ele>638.2</ele><time>2015-04-27T09:16:40.0000000+00:00</time></trkpt><trkpt lat="35.071738" lon="32.5850965"><ele>640.2</ele><time>2015-04-27T09:16:44.0000000+00:00</time></trkpt><trkpt lat="35.0717309" lon="32.5851578"><ele>641.9</ele><time>2015-04-27T09:16:48.0000000+00:00</time></trkpt><trkpt lat="35.0717185" lon="32.5852188"><ele>643.0</ele><time>2015-04-27T09:16:52.0000000+00:00</time></trkpt><trkpt lat="35.0717185" lon="32.5852771"><ele>643.1</ele><time>2015-04-27T09:16:55.0000000+00:00</time></trkpt><trkpt lat="35.0717216" lon="32.5853393"><ele>640.8</ele><time>2015-04-27T09:16:58.0000000+00:00</time></trkpt><trkpt lat="35.0717258" lon="32.5853949"><ele>639.2</ele><time>2015-04-27T09:17:01.0000000+00:00</time></trkpt><trkpt lat="35.0717558" lon="32.5854534"><ele>641.1</ele><time>2015-04-27T09:17:05.0000000+00:00</time></trkpt><trkpt lat="35.0717893" lon="32.585492"><ele>641.0</ele><time>2015-04-27T09:17:09.0000000+00:00</time></trkpt><trkpt lat="35.0718311" lon="32.5855168"><ele>640.8</ele><time>2015-04-27T09:17:13.0000000+00:00</time></trkpt><trkpt lat="35.071886" lon="32.5855042"><ele>643.7</ele><time>2015-04-27T09:17:17.0000000+00:00</time></trkpt><trkpt lat="35.0719392" lon="32.5855282"><ele>640.8</ele><time>2015-04-27T09:17:21.0000000+00:00</time></trkpt><trkpt lat="35.071981" lon="32.5855497"><ele>642.3</ele><time>2015-04-27T09:17:24.0000000+00:00</time></trkpt><trkpt lat="35.0720299" lon="32.5855849"><ele>642.9</ele><time>2015-04-27T09:17:28.0000000+00:00</time></trkpt><trkpt lat="35.0720672" lon="32.585627"><ele>640.4</ele><time>2015-04-27T09:17:32.0000000+00:00</time></trkpt><trkpt lat="35.0721079" lon="32.5856641"><ele>641.3</ele><time>2015-04-27T09:17:36.0000000+00:00</time></trkpt><trkpt lat="35.0721445" lon="32.5857065"><ele>641.8</ele><time>2015-04-27T09:17:40.0000000+00:00</time></trkpt><trkpt lat="35.0721836" lon="32.5857367"><ele>642.1</ele><time>2015-04-27T09:17:44.0000000+00:00</time></trkpt><trkpt lat="35.0722313" lon="32.5857466"><ele>641.9</ele><time>2015-04-27T09:17:48.0000000+00:00</time></trkpt><trkpt lat="35.0722763" lon="32.5857543"><ele>642.4</ele><time>2015-04-27T09:17:51.0000000+00:00</time></trkpt><trkpt lat="35.0723196" lon="32.5857707"><ele>641.2</ele><time>2015-04-27T09:17:54.0000000+00:00</time></trkpt><trkpt lat="35.0723666" lon="32.5858007"><ele>640.4</ele><time>2015-04-27T09:17:58.0000000+00:00</time></trkpt><trkpt lat="35.0724142" lon="32.5858339"><ele>641.0</ele><time>2015-04-27T09:18:02.0000000+00:00</time></trkpt><trkpt lat="35.0724562" lon="32.5858609"><ele>642.3</ele><time>2015-04-27T09:18:05.0000000+00:00</time></trkpt><trkpt lat="35.072497" lon="32.5859011"><ele>645.8</ele><time>2015-04-27T09:18:09.0000000+00:00</time></trkpt><trkpt lat="35.072526" lon="32.5859637"><ele>645.5</ele><time>2015-04-27T09:18:13.0000000+00:00</time></trkpt><trkpt lat="35.0725338" lon="32.5860215"><ele>646.6</ele><time>2015-04-27T09:18:16.0000000+00:00</time></trkpt><trkpt lat="35.0725241" lon="32.5860914"><ele>647.7</ele><time>2015-04-27T09:18:20.0000000+00:00</time></trkpt><trkpt lat="35.0725026" lon="32.5861529"><ele>648.4</ele><time>2015-04-27T09:18:24.0000000+00:00</time></trkpt><trkpt lat="35.0724948" lon="32.5862112"><ele>649.5</ele><time>2015-04-27T09:18:27.0000000+00:00</time></trkpt><trkpt lat="35.0724763" lon="32.5862645"><ele>650.4</ele><time>2015-04-27T09:18:30.0000000+00:00</time></trkpt><trkpt lat="35.0724494" lon="32.586328"><ele>651.5</ele><time>2015-04-27T09:18:34.0000000+00:00</time></trkpt><trkpt lat="35.0724181" lon="32.5863844"><ele>651.2</ele><time>2015-04-27T09:18:38.0000000+00:00</time></trkpt><trkpt lat="35.072404" lon="32.5864505"><ele>650.8</ele><time>2015-04-27T09:18:42.0000000+00:00</time></trkpt><trkpt lat="35.0723805" lon="32.5865106"><ele>651.4</ele><time>2015-04-27T09:18:46.0000000+00:00</time></trkpt><trkpt lat="35.0723597" lon="32.5865678"><ele>652.0</ele><time>2015-04-27T09:18:50.0000000+00:00</time></trkpt><trkpt lat="35.0723348" lon="32.5866312"><ele>651.2</ele><time>2015-04-27T09:18:54.0000000+00:00</time></trkpt><trkpt lat="35.0723006" lon="32.5866858"><ele>651.8</ele><time>2015-04-27T09:18:58.0000000+00:00</time></trkpt><trkpt lat="35.0722888" lon="32.5867518"><ele>653.4</ele><time>2015-04-27T09:19:02.0000000+00:00</time></trkpt><trkpt lat="35.0722748" lon="32.5868134"><ele>655.1</ele><time>2015-04-27T09:19:06.0000000+00:00</time></trkpt><trkpt lat="35.0722587" lon="32.5868762"><ele>656.0</ele><time>2015-04-27T09:19:10.0000000+00:00</time></trkpt><trkpt lat="35.0722378" lon="32.5869402"><ele>656.9</ele><time>2015-04-27T09:19:14.0000000+00:00</time></trkpt><trkpt lat="35.072217" lon="32.5870015"><ele>657.9</ele><time>2015-04-27T09:19:18.0000000+00:00</time></trkpt><trkpt lat="35.072202" lon="32.5870579"><ele>657.9</ele><time>2015-04-27T09:19:22.0000000+00:00</time></trkpt><trkpt lat="35.0721807" lon="32.5871068"><ele>660.9</ele><time>2015-04-27T09:19:27.0000000+00:00</time></trkpt><trkpt lat="35.0721622" lon="32.5871604"><ele>661.1</ele><time>2015-04-27T09:19:32.0000000+00:00</time></trkpt><trkpt lat="35.0721482" lon="32.5872257"><ele>660.9</ele><time>2015-04-27T09:19:37.0000000+00:00</time></trkpt><trkpt lat="35.0721264" lon="32.5872784"><ele>661.4</ele><time>2015-04-27T09:19:41.0000000+00:00</time></trkpt><trkpt lat="35.0721101" lon="32.5873306"><ele>661.6</ele><time>2015-04-27T09:19:45.0000000+00:00</time></trkpt><trkpt lat="35.0720989" lon="32.5873904"><ele>662.9</ele><time>2015-04-27T09:19:51.0000000+00:00</time></trkpt><trkpt lat="35.0720976" lon="32.5874525"><ele>663.4</ele><time>2015-04-27T09:19:56.0000000+00:00</time></trkpt><trkpt lat="35.0721154" lon="32.5875059"><ele>662.1</ele><time>2015-04-27T09:20:00.0000000+00:00</time></trkpt><trkpt lat="35.0721535" lon="32.5875536"><ele>660.3</ele><time>2015-04-27T09:20:04.0000000+00:00</time></trkpt><trkpt lat="35.0721883" lon="32.5875993"><ele>659.3</ele><time>2015-04-27T09:20:08.0000000+00:00</time></trkpt><trkpt lat="35.072238" lon="32.5876104"><ele>659.0</ele><time>2015-04-27T09:20:12.0000000+00:00</time></trkpt><trkpt lat="35.0722826" lon="32.5876202"><ele>660.7</ele><time>2015-04-27T09:20:16.0000000+00:00</time></trkpt><trkpt lat="35.0723361" lon="32.5876308"><ele>662.8</ele><time>2015-04-27T09:20:21.0000000+00:00</time></trkpt><trkpt lat="35.0723833" lon="32.5876361"><ele>662.9</ele><time>2015-04-27T09:20:25.0000000+00:00</time></trkpt><trkpt lat="35.0724409" lon="32.5876345"><ele>662.9</ele><time>2015-04-27T09:20:30.0000000+00:00</time></trkpt><trkpt lat="35.0724941" lon="32.5876324"><ele>661.6</ele><time>2015-04-27T09:20:34.0000000+00:00</time></trkpt><trkpt lat="35.072548" lon="32.5876218"><ele>659.7</ele><time>2015-04-27T09:20:38.0000000+00:00</time></trkpt><trkpt lat="35.0725991" lon="32.5875996"><ele>659.1</ele><time>2015-04-27T09:20:42.0000000+00:00</time></trkpt><trkpt lat="35.072645" lon="32.5875755"><ele>658.4</ele><time>2015-04-27T09:20:46.0000000+00:00</time></trkpt><trkpt lat="35.0726901" lon="32.5875463"><ele>658.8</ele><time>2015-04-27T09:20:50.0000000+00:00</time></trkpt><trkpt lat="35.0727396" lon="32.5875259"><ele>658.4</ele><time>2015-04-27T09:20:54.0000000+00:00</time></trkpt><trkpt lat="35.0727933" lon="32.5875144"><ele>658.7</ele><time>2015-04-27T09:20:58.0000000+00:00</time></trkpt><trkpt lat="35.0728437" lon="32.5874957"><ele>658.4</ele><time>2015-04-27T09:21:02.0000000+00:00</time></trkpt><trkpt lat="35.0728934" lon="32.5874828"><ele>658.8</ele><time>2015-04-27T09:21:06.0000000+00:00</time></trkpt><trkpt lat="35.0729416" lon="32.5874547"><ele>660.3</ele><time>2015-04-27T09:21:10.0000000+00:00</time></trkpt><trkpt lat="35.0729908" lon="32.5874591"><ele>664.0</ele><time>2015-04-27T09:21:14.0000000+00:00</time></trkpt><trkpt lat="35.0730385" lon="32.5874675"><ele>667.1</ele><time>2015-04-27T09:21:18.0000000+00:00</time></trkpt><trkpt lat="35.0730892" lon="32.5874954"><ele>666.9</ele><time>2015-04-27T09:21:22.0000000+00:00</time></trkpt><trkpt lat="35.0731354" lon="32.5875258"><ele>666.8</ele><time>2015-04-27T09:21:26.0000000+00:00</time></trkpt><trkpt lat="35.0731808" lon="32.5875509"><ele>666.2</ele><time>2015-04-27T09:21:30.0000000+00:00</time></trkpt><trkpt lat="35.0732263" lon="32.5875902"><ele>666.1</ele><time>2015-04-27T09:21:34.0000000+00:00</time></trkpt><trkpt lat="35.073262" lon="32.5876368"><ele>668.3</ele><time>2015-04-27T09:21:38.0000000+00:00</time></trkpt><trkpt lat="35.0732744" lon="32.5877006"><ele>671.6</ele><time>2015-04-27T09:21:43.0000000+00:00</time></trkpt><trkpt lat="35.0732926" lon="32.587756"><ele>675.5</ele><time>2015-04-27T09:30:56.0000000+00:00</time></trkpt><trkpt lat="35.0733113" lon="32.5878113"><ele>679.8</ele><time>2015-04-27T09:31:09.0000000+00:00</time></trkpt><trkpt lat="35.0732851" lon="32.5878608"><ele>677.6</ele><time>2015-04-27T09:31:13.0000000+00:00</time></trkpt><trkpt lat="35.0732528" lon="32.587908"><ele>676.9</ele><time>2015-04-27T09:31:17.0000000+00:00</time></trkpt><trkpt lat="35.0732297" lon="32.5879597"><ele>676.1</ele><time>2015-04-27T09:31:22.0000000+00:00</time></trkpt><trkpt lat="35.0732131" lon="32.5880169"><ele>673.3</ele><time>2015-04-27T09:31:27.0000000+00:00</time></trkpt><trkpt lat="35.0731897" lon="32.5880806"><ele>674.9</ele><time>2015-04-27T09:31:32.0000000+00:00</time></trkpt><trkpt lat="35.0731852" lon="32.588144"><ele>676.8</ele><time>2015-04-27T09:31:36.0000000+00:00</time></trkpt><trkpt lat="35.0731676" lon="32.5881966"><ele>676.9</ele><time>2015-04-27T09:31:40.0000000+00:00</time></trkpt><trkpt lat="35.073145" lon="32.5882562"><ele>676.9</ele><time>2015-04-27T09:31:44.0000000+00:00</time></trkpt><trkpt lat="35.0731156" lon="32.5883169"><ele>677.7</ele><time>2015-04-27T09:31:48.0000000+00:00</time></trkpt><trkpt lat="35.0730857" lon="32.5883684"><ele>678.5</ele><time>2015-04-27T09:31:52.0000000+00:00</time></trkpt><trkpt lat="35.073049" lon="32.5884118"><ele>678.5</ele><time>2015-04-27T09:31:56.0000000+00:00</time></trkpt><trkpt lat="35.073014" lon="32.5884582"><ele>680.2</ele><time>2015-04-27T09:32:00.0000000+00:00</time></trkpt><trkpt lat="35.0729695" lon="32.5884859"><ele>679.6</ele><time>2015-04-27T09:32:04.0000000+00:00</time></trkpt><trkpt lat="35.0729327" lon="32.5885192"><ele>678.0</ele><time>2015-04-27T09:32:08.0000000+00:00</time></trkpt><trkpt lat="35.0728941" lon="32.5885495"><ele>677.9</ele><time>2015-04-27T09:32:12.0000000+00:00</time></trkpt><trkpt lat="35.072854" lon="32.5885785"><ele>678.2</ele><time>2015-04-27T09:32:16.0000000+00:00</time></trkpt><trkpt lat="35.0728035" lon="32.588599"><ele>677.9</ele><time>2015-04-27T09:32:21.0000000+00:00</time></trkpt><trkpt lat="35.0727568" lon="32.588633"><ele>677.9</ele><time>2015-04-27T09:32:26.0000000+00:00</time></trkpt><trkpt lat="35.0727098" lon="32.5886676"><ele>677.9</ele><time>2015-04-27T09:32:31.0000000+00:00</time></trkpt><trkpt lat="35.0726707" lon="32.5887093"><ele>677.9</ele><time>2015-04-27T09:32:36.0000000+00:00</time></trkpt><trkpt lat="35.0726313" lon="32.5887567"><ele>677.0</ele><time>2015-04-27T09:32:41.0000000+00:00</time></trkpt><trkpt lat="35.0725968" lon="32.5887971"><ele>676.9</ele><time>2015-04-27T09:32:45.0000000+00:00</time></trkpt><trkpt lat="35.0725629" lon="32.5888414"><ele>676.4</ele><time>2015-04-27T09:32:49.0000000+00:00</time></trkpt><trkpt lat="35.0725373" lon="32.5888939"><ele>676.8</ele><time>2015-04-27T09:32:53.0000000+00:00</time></trkpt><trkpt lat="35.0725078" lon="32.5889386"><ele>679.1</ele><time>2015-04-27T09:32:57.0000000+00:00</time></trkpt><trkpt lat="35.0724772" lon="32.5889812"><ele>680.6</ele><time>2015-04-27T09:33:01.0000000+00:00</time></trkpt><trkpt lat="35.072441" lon="32.5890219"><ele>681.3</ele><time>2015-04-27T09:33:05.0000000+00:00</time></trkpt><trkpt lat="35.0723989" lon="32.5890509"><ele>680.8</ele><time>2015-04-27T09:33:09.0000000+00:00</time></trkpt><trkpt lat="35.0723456" lon="32.5890589"><ele>681.1</ele><time>2015-04-27T09:33:13.0000000+00:00</time></trkpt><trkpt lat="35.0722943" lon="32.5890706"><ele>679.3</ele><time>2015-04-27T09:33:17.0000000+00:00</time></trkpt><trkpt lat="35.0722415" lon="32.5890783"><ele>680.2</ele><time>2015-04-27T09:33:21.0000000+00:00</time></trkpt><trkpt lat="35.0721937" lon="32.5890905"><ele>680.4</ele><time>2015-04-27T09:33:25.0000000+00:00</time></trkpt><trkpt lat="35.0721426" lon="32.58911"><ele>681.3</ele><time>2015-04-27T09:33:29.0000000+00:00</time></trkpt><trkpt lat="35.0720867" lon="32.5891248"><ele>682.0</ele><time>2015-04-27T09:33:33.0000000+00:00</time></trkpt><trkpt lat="35.0720351" lon="32.5891288"><ele>681.6</ele><time>2015-04-27T09:33:37.0000000+00:00</time></trkpt><trkpt lat="35.0719899" lon="32.5891295"><ele>679.7</ele><time>2015-04-27T09:33:41.0000000+00:00</time></trkpt><trkpt lat="35.071944" lon="32.5891496"><ele>679.4</ele><time>2015-04-27T09:33:44.0000000+00:00</time></trkpt><trkpt lat="35.0718981" lon="32.5891715"><ele>680.2</ele><time>2015-04-27T09:33:47.0000000+00:00</time></trkpt><trkpt lat="35.0718484" lon="32.5892024"><ele>683.3</ele><time>2015-04-27T09:33:51.0000000+00:00</time></trkpt><trkpt lat="35.0718159" lon="32.5892609"><ele>685.4</ele><time>2015-04-27T09:33:56.0000000+00:00</time></trkpt><trkpt lat="35.0717922" lon="32.5893139"><ele>687.3</ele><time>2015-04-27T09:34:00.0000000+00:00</time></trkpt><trkpt lat="35.0717722" lon="32.5893639"><ele>688.8</ele><time>2015-04-27T09:34:04.0000000+00:00</time></trkpt><trkpt lat="35.0717518" lon="32.5894158"><ele>688.9</ele><time>2015-04-27T09:34:07.0000000+00:00</time></trkpt><trkpt lat="35.0717487" lon="32.5894799"><ele>687.5</ele><time>2015-04-27T09:34:11.0000000+00:00</time></trkpt><trkpt lat="35.0717661" lon="32.5895309"><ele>688.7</ele><time>2015-04-27T09:34:15.0000000+00:00</time></trkpt><trkpt lat="35.0718109" lon="32.5895681"><ele>690.3</ele><time>2015-04-27T09:34:19.0000000+00:00</time></trkpt><trkpt lat="35.0718294" lon="32.589623"><ele>688.6</ele><time>2015-04-27T09:34:23.0000000+00:00</time></trkpt><trkpt lat="35.0718471" lon="32.5896819"><ele>688.0</ele><time>2015-04-27T09:34:27.0000000+00:00</time></trkpt><trkpt lat="35.0718533" lon="32.5897473"><ele>687.7</ele><time>2015-04-27T09:34:31.0000000+00:00</time></trkpt><trkpt lat="35.0718601" lon="32.5898162"><ele>688.8</ele><time>2015-04-27T09:34:35.0000000+00:00</time></trkpt><trkpt lat="35.0718592" lon="32.5898805"><ele>691.3</ele><time>2015-04-27T09:34:39.0000000+00:00</time></trkpt><trkpt lat="35.0718501" lon="32.5899405"><ele>695.0</ele><time>2015-04-27T09:34:43.0000000+00:00</time></trkpt><trkpt lat="35.0718331" lon="32.5899999"><ele>696.7</ele><time>2015-04-27T09:34:47.0000000+00:00</time></trkpt><trkpt lat="35.0718077" lon="32.5900624"><ele>697.8</ele><time>2015-04-27T09:34:51.0000000+00:00</time></trkpt><trkpt lat="35.0717803" lon="32.5901209"><ele>698.7</ele><time>2015-04-27T09:34:54.0000000+00:00</time></trkpt><trkpt lat="35.0717588" lon="32.5901766"><ele>697.5</ele><time>2015-04-27T09:34:57.0000000+00:00</time></trkpt><trkpt lat="35.071738" lon="32.5902376"><ele>697.5</ele><time>2015-04-27T09:35:00.0000000+00:00</time></trkpt><trkpt lat="35.0717302" lon="32.5903086"><ele>698.3</ele><time>2015-04-27T09:35:03.0000000+00:00</time></trkpt><trkpt lat="35.0717246" lon="32.5903756"><ele>698.7</ele><time>2015-04-27T09:35:06.0000000+00:00</time></trkpt><trkpt lat="35.0717219" lon="32.59044"><ele>699.0</ele><time>2015-04-27T09:35:09.0000000+00:00</time></trkpt><trkpt lat="35.0717197" lon="32.5905083"><ele>698.9</ele><time>2015-04-27T09:35:12.0000000+00:00</time></trkpt><trkpt lat="35.0717196" lon="32.5905736"><ele>698.9</ele><time>2015-04-27T09:35:15.0000000+00:00</time></trkpt><trkpt lat="35.0717202" lon="32.5906379"><ele>699.3</ele><time>2015-04-27T09:35:18.0000000+00:00</time></trkpt><trkpt lat="35.071735" lon="32.5906999"><ele>699.0</ele><time>2015-04-27T09:35:21.0000000+00:00</time></trkpt><trkpt lat="35.0717662" lon="32.5907516"><ele>700.2</ele><time>2015-04-27T09:35:24.0000000+00:00</time></trkpt><trkpt lat="35.0718021" lon="32.5908009"><ele>700.8</ele><time>2015-04-27T09:35:27.0000000+00:00</time></trkpt><trkpt lat="35.0718291" lon="32.5908547"><ele>700.2</ele><time>2015-04-27T09:35:30.0000000+00:00</time></trkpt><trkpt lat="35.0718433" lon="32.5909114"><ele>699.7</ele><time>2015-04-27T09:35:33.0000000+00:00</time></trkpt><trkpt lat="35.0718585" lon="32.5909686"><ele>699.2</ele><time>2015-04-27T09:35:36.0000000+00:00</time></trkpt><trkpt lat="35.0718647" lon="32.591026"><ele>699.7</ele><time>2015-04-27T09:35:39.0000000+00:00</time></trkpt><trkpt lat="35.07187" lon="32.5910811"><ele>699.4</ele><time>2015-04-27T09:35:42.0000000+00:00</time></trkpt><trkpt lat="35.0718778" lon="32.5911516"><ele>700.6</ele><time>2015-04-27T09:35:46.0000000+00:00</time></trkpt><trkpt lat="35.0718608" lon="32.5912183"><ele>700.2</ele><time>2015-04-27T09:35:51.0000000+00:00</time></trkpt><trkpt lat="35.071835" lon="32.5912815"><ele>701.8</ele><time>2015-04-27T09:35:55.0000000+00:00</time></trkpt><trkpt lat="35.0718081" lon="32.5913364"><ele>701.9</ele><time>2015-04-27T09:35:59.0000000+00:00</time></trkpt><trkpt lat="35.0717732" lon="32.591394"><ele>701.9</ele><time>2015-04-27T09:36:03.0000000+00:00</time></trkpt><trkpt lat="35.0717419" lon="32.5914388"><ele>701.9</ele><time>2015-04-27T09:36:06.0000000+00:00</time></trkpt><trkpt lat="35.0717113" lon="32.5914835"><ele>701.9</ele><time>2015-04-27T09:36:09.0000000+00:00</time></trkpt><trkpt lat="35.071672" lon="32.5915354"><ele>703.3</ele><time>2015-04-27T09:36:13.0000000+00:00</time></trkpt><trkpt lat="35.071644" lon="32.5915816"><ele>703.9</ele><time>2015-04-27T09:36:16.0000000+00:00</time></trkpt><trkpt lat="35.0716061" lon="32.5916195"><ele>704.0</ele><time>2015-04-27T09:36:19.0000000+00:00</time></trkpt><trkpt lat="35.0715614" lon="32.5916669"><ele>704.2</ele><time>2015-04-27T09:36:23.0000000+00:00</time></trkpt><trkpt lat="35.0715196" lon="32.5916889"><ele>704.6</ele><time>2015-04-27T09:36:26.0000000+00:00</time></trkpt><trkpt lat="35.0714725" lon="32.5917082"><ele>704.0</ele><time>2015-04-27T09:36:29.0000000+00:00</time></trkpt><trkpt lat="35.0714242" lon="32.5917058"><ele>704.7</ele><time>2015-04-27T09:36:32.0000000+00:00</time></trkpt><trkpt lat="35.0713734" lon="32.5916835"><ele>704.8</ele><time>2015-04-27T09:36:35.0000000+00:00</time></trkpt><trkpt lat="35.0713202" lon="32.5916395"><ele>704.9</ele><time>2015-04-27T09:36:38.0000000+00:00</time></trkpt><trkpt lat="35.0712824" lon="32.5915809"><ele>704.1</ele><time>2015-04-27T09:36:41.0000000+00:00</time></trkpt><trkpt lat="35.0712566" lon="32.5915348"><ele>703.9</ele><time>2015-04-27T09:36:44.0000000+00:00</time></trkpt><trkpt lat="35.0712382" lon="32.5914762"><ele>704.6</ele><time>2015-04-27T09:36:48.0000000+00:00</time></trkpt><trkpt lat="35.071224" lon="32.5914238"><ele>704.9</ele><time>2015-04-27T09:36:51.0000000+00:00</time></trkpt><trkpt lat="35.0712005" lon="32.5913741"><ele>706.3</ele><time>2015-04-27T09:36:54.0000000+00:00</time></trkpt><trkpt lat="35.0711617" lon="32.5913189"><ele>708.2</ele><time>2015-04-27T09:36:58.0000000+00:00</time></trkpt><trkpt lat="35.0711221" lon="32.5912664"><ele>707.2</ele><time>2015-04-27T09:37:02.0000000+00:00</time></trkpt><trkpt lat="35.0710864" lon="32.5912319"><ele>707.0</ele><time>2015-04-27T09:37:05.0000000+00:00</time></trkpt><trkpt lat="35.0710423" lon="32.5911858"><ele>709.7</ele><time>2015-04-27T09:37:09.0000000+00:00</time></trkpt><trkpt lat="35.0710006" lon="32.5911376"><ele>711.2</ele><time>2015-04-27T09:37:13.0000000+00:00</time></trkpt><trkpt lat="35.0709465" lon="32.5911116"><ele>712.7</ele><time>2015-04-27T09:37:17.0000000+00:00</time></trkpt><trkpt lat="35.0708959" lon="32.5910851"><ele>712.9</ele><time>2015-04-27T09:37:21.0000000+00:00</time></trkpt><trkpt lat="35.0708409" lon="32.5910823"><ele>712.9</ele><time>2015-04-27T09:37:25.0000000+00:00</time></trkpt><trkpt lat="35.0707959" lon="32.5910719"><ele>713.4</ele><time>2015-04-27T09:37:29.0000000+00:00</time></trkpt><trkpt lat="35.0707442" lon="32.591067"><ele>714.3</ele><time>2015-04-27T09:37:33.0000000+00:00</time></trkpt><trkpt lat="35.0706934" lon="32.5910537"><ele>714.3</ele><time>2015-04-27T09:37:37.0000000+00:00</time></trkpt><trkpt lat="35.0706388" lon="32.5910444"><ele>714.8</ele><time>2015-04-27T09:37:41.0000000+00:00</time></trkpt><trkpt lat="35.0705952" lon="32.5910277"><ele>714.9</ele><time>2015-04-27T09:37:44.0000000+00:00</time></trkpt><trkpt lat="35.070541" lon="32.591011"><ele>713.9</ele><time>2015-04-27T09:37:48.0000000+00:00</time></trkpt><trkpt lat="35.0704924" lon="32.5910058"><ele>713.7</ele><time>2015-04-27T09:37:52.0000000+00:00</time></trkpt><trkpt lat="35.0704442" lon="32.5909764"><ele>714.5</ele><time>2015-04-27T09:37:57.0000000+00:00</time></trkpt><trkpt lat="35.0703976" lon="32.59096"><ele>715.7</ele><time>2015-04-27T09:38:01.0000000+00:00</time></trkpt><trkpt lat="35.0703507" lon="32.5909392"><ele>717.0</ele><time>2015-04-27T09:38:05.0000000+00:00</time></trkpt><trkpt lat="35.0702996" lon="32.5909266"><ele>717.2</ele><time>2015-04-27T09:38:10.0000000+00:00</time></trkpt><trkpt lat="35.0702545" lon="32.5908996"><ele>718.6</ele><time>2015-04-27T09:38:14.0000000+00:00</time></trkpt><trkpt lat="35.0702182" lon="32.5908544"><ele>720.7</ele><time>2015-04-27T09:38:18.0000000+00:00</time></trkpt><trkpt lat="35.0701671" lon="32.5908176"><ele>720.9</ele><time>2015-04-27T09:38:22.0000000+00:00</time></trkpt><trkpt lat="35.0701144" lon="32.5907916"><ele>721.9</ele><time>2015-04-27T09:38:26.0000000+00:00</time></trkpt><trkpt lat="35.0700584" lon="32.5907833"><ele>722.9</ele><time>2015-04-27T09:38:30.0000000+00:00</time></trkpt><trkpt lat="35.070009" lon="32.5907628"><ele>724.3</ele><time>2015-04-27T09:38:34.0000000+00:00</time></trkpt><trkpt lat="35.0699594" lon="32.5907825"><ele>725.6</ele><time>2015-04-27T09:38:38.0000000+00:00</time></trkpt><trkpt lat="35.0699093" lon="32.5907924"><ele>726.5</ele><time>2015-04-27T09:38:43.0000000+00:00</time></trkpt><trkpt lat="35.0698632" lon="32.5908103"><ele>727.4</ele><time>2015-04-27T09:38:49.0000000+00:00</time></trkpt><trkpt lat="35.0698219" lon="32.5908343"><ele>729.8</ele><time>2015-04-27T09:38:54.0000000+00:00</time></trkpt><trkpt lat="35.069794" lon="32.5908925"><ele>732.1</ele><time>2015-04-27T09:38:59.0000000+00:00</time></trkpt><trkpt lat="35.0697833" lon="32.5909571"><ele>731.5</ele><time>2015-04-27T09:39:04.0000000+00:00</time></trkpt><trkpt lat="35.0697958" lon="32.5910242"><ele>731.2</ele><time>2015-04-27T09:39:08.0000000+00:00</time></trkpt><trkpt lat="35.0698126" lon="32.5910893"><ele>730.2</ele><time>2015-04-27T09:39:12.0000000+00:00</time></trkpt><trkpt lat="35.069861" lon="32.5911198"><ele>729.9</ele><time>2015-04-27T09:39:16.0000000+00:00</time></trkpt><trkpt lat="35.0699099" lon="32.5911612"><ele>727.8</ele><time>2015-04-27T09:39:20.0000000+00:00</time></trkpt><trkpt lat="35.0699463" lon="32.591199"><ele>728.7</ele><time>2015-04-27T09:39:23.0000000+00:00</time></trkpt><trkpt lat="35.0699768" lon="32.5912508"><ele>727.1</ele><time>2015-04-27T09:39:27.0000000+00:00</time></trkpt><trkpt lat="35.070008" lon="32.5913011"><ele>729.1</ele><time>2015-04-27T09:39:31.0000000+00:00</time></trkpt><trkpt lat="35.0700509" lon="32.5913421"><ele>728.6</ele><time>2015-04-27T09:39:35.0000000+00:00</time></trkpt><trkpt lat="35.0700756" lon="32.5914002"><ele>729.3</ele><time>2015-04-27T09:39:39.0000000+00:00</time></trkpt><trkpt lat="35.0701057" lon="32.5914501"><ele>730.2</ele><time>2015-04-27T09:39:43.0000000+00:00</time></trkpt><trkpt lat="35.0701422" lon="32.5914987"><ele>730.9</ele><time>2015-04-27T09:39:47.0000000+00:00</time></trkpt><trkpt lat="35.070165" lon="32.591562"><ele>728.9</ele><time>2015-04-27T09:39:51.0000000+00:00</time></trkpt><trkpt lat="35.0701764" lon="32.5916152"><ele>730.4</ele><time>2015-04-27T09:39:54.0000000+00:00</time></trkpt><trkpt lat="35.0701628" lon="32.5916775"><ele>730.4</ele><time>2015-04-27T09:39:58.0000000+00:00</time></trkpt><trkpt lat="35.0701271" lon="32.5917288"><ele>732.5</ele><time>2015-04-27T09:40:02.0000000+00:00</time></trkpt><trkpt lat="35.0700878" lon="32.5917788"><ele>733.5</ele><time>2015-04-27T09:40:06.0000000+00:00</time></trkpt><trkpt lat="35.0700448" lon="32.5918084"><ele>733.3</ele><time>2015-04-27T09:40:10.0000000+00:00</time></trkpt><trkpt lat="35.070005" lon="32.5918395"><ele>734.4</ele><time>2015-04-27T09:40:15.0000000+00:00</time></trkpt><trkpt lat="35.0699616" lon="32.5918686"><ele>735.0</ele><time>2015-04-27T09:40:20.0000000+00:00</time></trkpt><trkpt lat="35.0699156" lon="32.5919054"><ele>735.7</ele><time>2015-04-27T09:40:24.0000000+00:00</time></trkpt><trkpt lat="35.0698677" lon="32.5919395"><ele>735.0</ele><time>2015-04-27T09:40:28.0000000+00:00</time></trkpt><trkpt lat="35.0698215" lon="32.5919658"><ele>734.4</ele><time>2015-04-27T09:40:32.0000000+00:00</time></trkpt><trkpt lat="35.0697789" lon="32.5919919"><ele>734.1</ele><time>2015-04-27T09:40:36.0000000+00:00</time></trkpt><trkpt lat="35.0697294" lon="32.5920109"><ele>732.0</ele><time>2015-04-27T09:40:40.0000000+00:00</time></trkpt><trkpt lat="35.0696846" lon="32.5920164"><ele>731.4</ele><time>2015-04-27T09:40:44.0000000+00:00</time></trkpt><trkpt lat="35.0696344" lon="32.5920252"><ele>731.8</ele><time>2015-04-27T09:40:48.0000000+00:00</time></trkpt><trkpt lat="35.0695816" lon="32.5920292"><ele>733.4</ele><time>2015-04-27T09:40:53.0000000+00:00</time></trkpt><trkpt lat="35.0695304" lon="32.5920448"><ele>734.4</ele><time>2015-04-27T09:40:57.0000000+00:00</time></trkpt><trkpt lat="35.0694862" lon="32.5920637"><ele>734.7</ele><time>2015-04-27T09:41:00.0000000+00:00</time></trkpt><trkpt lat="35.0694392" lon="32.5920765"><ele>733.4</ele><time>2015-04-27T09:41:03.0000000+00:00</time></trkpt><trkpt lat="35.0693912" lon="32.592097"><ele>732.9</ele><time>2015-04-27T09:41:07.0000000+00:00</time></trkpt><trkpt lat="35.0693442" lon="32.5921327"><ele>734.3</ele><time>2015-04-27T09:41:12.0000000+00:00</time></trkpt><trkpt lat="35.0693184" lon="32.5921944"><ele>733.6</ele><time>2015-04-27T09:41:16.0000000+00:00</time></trkpt><trkpt lat="35.0693109" lon="32.5922545"><ele>735.3</ele><time>2015-04-27T09:41:19.0000000+00:00</time></trkpt><trkpt lat="35.0693045" lon="32.5923198"><ele>736.3</ele><time>2015-04-27T09:41:22.0000000+00:00</time></trkpt><trkpt lat="35.0692984" lon="32.5923809"><ele>738.5</ele><time>2015-04-27T09:41:25.0000000+00:00</time></trkpt><trkpt lat="35.0693089" lon="32.5924373"><ele>739.1</ele><time>2015-04-27T09:41:28.0000000+00:00</time></trkpt><trkpt lat="35.069309" lon="32.5925106"><ele>738.4</ele><time>2015-04-27T09:41:32.0000000+00:00</time></trkpt><trkpt lat="35.0692895" lon="32.5925698"><ele>738.5</ele><time>2015-04-27T09:41:35.0000000+00:00</time></trkpt><trkpt lat="35.0692614" lon="32.5926229"><ele>740.3</ele><time>2015-04-27T09:41:38.0000000+00:00</time></trkpt><trkpt lat="35.0692383" lon="32.5926725"><ele>741.6</ele><time>2015-04-27T09:41:41.0000000+00:00</time></trkpt><trkpt lat="35.069206" lon="32.5927241"><ele>741.0</ele><time>2015-04-27T09:41:44.0000000+00:00</time></trkpt><trkpt lat="35.0691746" lon="32.5927712"><ele>739.7</ele><time>2015-04-27T09:41:47.0000000+00:00</time></trkpt><trkpt lat="35.06915" lon="32.5928262"><ele>740.2</ele><time>2015-04-27T09:41:51.0000000+00:00</time></trkpt><trkpt lat="35.0691279" lon="32.5928774"><ele>740.1</ele><time>2015-04-27T09:41:55.0000000+00:00</time></trkpt><trkpt lat="35.069099" lon="32.592926"><ele>740.0</ele><time>2015-04-27T09:41:59.0000000+00:00</time></trkpt><trkpt lat="35.069071" lon="32.592975"><ele>742.6</ele><time>2015-04-27T09:42:03.0000000+00:00</time></trkpt><trkpt lat="35.0690475" lon="32.5930313"><ele>743.2</ele><time>2015-04-27T09:42:07.0000000+00:00</time></trkpt><trkpt lat="35.0690652" lon="32.5930856"><ele>745.1</ele><time>2015-04-27T09:42:11.0000000+00:00</time></trkpt><trkpt lat="35.0690922" lon="32.5931402"><ele>745.9</ele><time>2015-04-27T09:42:15.0000000+00:00</time></trkpt><trkpt lat="35.0691311" lon="32.593172"><ele>745.9</ele><time>2015-04-27T09:42:18.0000000+00:00</time></trkpt><trkpt lat="35.0691819" lon="32.5932024"><ele>745.2</ele><time>2015-04-27T09:42:22.0000000+00:00</time></trkpt><trkpt lat="35.0692392" lon="32.5932158"><ele>746.1</ele><time>2015-04-27T09:42:26.0000000+00:00</time></trkpt><trkpt lat="35.0692948" lon="32.5932183"><ele>746.0</ele><time>2015-04-27T09:42:29.0000000+00:00</time></trkpt><trkpt lat="35.0693433" lon="32.5932192"><ele>745.8</ele><time>2015-04-27T09:42:32.0000000+00:00</time></trkpt><trkpt lat="35.0693909" lon="32.5932257"><ele>747.6</ele><time>2015-04-27T09:42:37.0000000+00:00</time></trkpt><trkpt lat="35.0694443" lon="32.5932395"><ele>750.0</ele><time>2015-04-27T09:42:41.0000000+00:00</time></trkpt><trkpt lat="35.0695001" lon="32.5932579"><ele>750.8</ele><time>2015-04-27T09:42:44.0000000+00:00</time></trkpt><trkpt lat="35.0695466" lon="32.5932927"><ele>748.3</ele><time>2015-04-27T09:42:48.0000000+00:00</time></trkpt><trkpt lat="35.0695786" lon="32.5933327"><ele>747.1</ele><time>2015-04-27T09:42:52.0000000+00:00</time></trkpt><trkpt lat="35.0696177" lon="32.5933706"><ele>747.8</ele><time>2015-04-27T09:42:56.0000000+00:00</time></trkpt><trkpt lat="35.0696561" lon="32.5934146"><ele>747.0</ele><time>2015-04-27T09:43:00.0000000+00:00</time></trkpt><trkpt lat="35.0696899" lon="32.5934611"><ele>746.4</ele><time>2015-04-27T09:43:04.0000000+00:00</time></trkpt><trkpt lat="35.0697169" lon="32.593513"><ele>745.7</ele><time>2015-04-27T09:43:08.0000000+00:00</time></trkpt><trkpt lat="35.0697338" lon="32.5935749"><ele>746.7</ele><time>2015-04-27T09:43:12.0000000+00:00</time></trkpt><trkpt lat="35.0697386" lon="32.5936303"><ele>746.4</ele><time>2015-04-27T09:43:15.0000000+00:00</time></trkpt><trkpt lat="35.069734" lon="32.5936988"><ele>745.2</ele><time>2015-04-27T09:43:18.0000000+00:00</time></trkpt><trkpt lat="35.0697221" lon="32.5937764"><ele>745.7</ele><time>2015-04-27T09:43:21.0000000+00:00</time></trkpt><trkpt lat="35.0696912" lon="32.593835"><ele>746.9</ele><time>2015-04-27T09:43:24.0000000+00:00</time></trkpt><trkpt lat="35.0696434" lon="32.5938556"><ele>747.8</ele><time>2015-04-27T09:43:27.0000000+00:00</time></trkpt><trkpt lat="35.0695968" lon="32.5938664"><ele>748.7</ele><time>2015-04-27T09:43:30.0000000+00:00</time></trkpt><trkpt lat="35.0695475" lon="32.5938859"><ele>750.6</ele><time>2015-04-27T09:43:35.0000000+00:00</time></trkpt><trkpt lat="35.0695002" lon="32.5938976"><ele>750.4</ele><time>2015-04-27T09:43:39.0000000+00:00</time></trkpt><trkpt lat="35.0694497" lon="32.5938976"><ele>752.5</ele><time>2015-04-27T09:43:43.0000000+00:00</time></trkpt><trkpt lat="35.0693908" lon="32.593903"><ele>752.5</ele><time>2015-04-27T09:43:47.0000000+00:00</time></trkpt><trkpt lat="35.0693426" lon="32.5939156"><ele>751.3</ele><time>2015-04-27T09:43:50.0000000+00:00</time></trkpt><trkpt lat="35.0692875" lon="32.5939381"><ele>751.1</ele><time>2015-04-27T09:43:54.0000000+00:00</time></trkpt><trkpt lat="35.0692456" lon="32.5939624"><ele>751.0</ele><time>2015-04-27T09:43:57.0000000+00:00</time></trkpt><trkpt lat="35.0692084" lon="32.5939947"><ele>751.7</ele><time>2015-04-27T09:44:00.0000000+00:00</time></trkpt><trkpt lat="35.0691673" lon="32.5940405"><ele>753.5</ele><time>2015-04-27T09:44:04.0000000+00:00</time></trkpt><trkpt lat="35.0691342" lon="32.594084"><ele>755.6</ele><time>2015-04-27T09:44:08.0000000+00:00</time></trkpt><trkpt lat="35.0691123" lon="32.5941422"><ele>755.1</ele><time>2015-04-27T09:44:12.0000000+00:00</time></trkpt><trkpt lat="35.0690938" lon="32.5942052"><ele>754.9</ele><time>2015-04-27T09:44:16.0000000+00:00</time></trkpt><trkpt lat="35.0690997" lon="32.5942689"><ele>755.4</ele><time>2015-04-27T09:44:20.0000000+00:00</time></trkpt><trkpt lat="35.0691344" lon="32.5943102"><ele>756.5</ele><time>2015-04-27T09:44:26.0000000+00:00</time></trkpt><trkpt lat="35.0691722" lon="32.5943451"><ele>758.6</ele><time>2015-04-27T09:44:31.0000000+00:00</time></trkpt><trkpt lat="35.0692198" lon="32.5943735"><ele>758.9</ele><time>2015-04-27T09:44:36.0000000+00:00</time></trkpt><trkpt lat="35.0692683" lon="32.5943962"><ele>759.4</ele><time>2015-04-27T09:44:41.0000000+00:00</time></trkpt><trkpt lat="35.0693047" lon="32.5944335"><ele>758.9</ele><time>2015-04-27T09:44:46.0000000+00:00</time></trkpt><trkpt lat="35.0693422" lon="32.5944746"><ele>758.9</ele><time>2015-04-27T09:44:49.0000000+00:00</time></trkpt><trkpt lat="35.0693694" lon="32.5945309"><ele>758.2</ele><time>2015-04-27T09:44:52.0000000+00:00</time></trkpt><trkpt lat="35.0693789" lon="32.5945864"><ele>758.0</ele><time>2015-04-27T09:44:55.0000000+00:00</time></trkpt><trkpt lat="35.0693682" lon="32.5946439"><ele>757.9</ele><time>2015-04-27T09:44:59.0000000+00:00</time></trkpt><trkpt lat="35.0693742" lon="32.5947041"><ele>757.5</ele><time>2015-04-27T09:45:03.0000000+00:00</time></trkpt><trkpt lat="35.0693785" lon="32.5947703"><ele>757.9</ele><time>2015-04-27T09:45:07.0000000+00:00</time></trkpt><trkpt lat="35.0693742" lon="32.5948275"><ele>757.9</ele><time>2015-04-27T09:45:10.0000000+00:00</time></trkpt><trkpt lat="35.0693714" lon="32.5948869"><ele>758.8</ele><time>2015-04-27T09:45:13.0000000+00:00</time></trkpt><trkpt lat="35.0693645" lon="32.5949432"><ele>759.5</ele><time>2015-04-27T09:45:16.0000000+00:00</time></trkpt><trkpt lat="35.0693623" lon="32.5950038"><ele>761.6</ele><time>2015-04-27T09:45:21.0000000+00:00</time></trkpt><trkpt lat="35.0693606" lon="32.5950628"><ele>763.6</ele><time>2015-04-27T09:45:25.0000000+00:00</time></trkpt><trkpt lat="35.0693572" lon="32.5951324"><ele>763.2</ele><time>2015-04-27T09:45:29.0000000+00:00</time></trkpt><trkpt lat="35.0693678" lon="32.5952034"><ele>765.4</ele><time>2015-04-27T09:45:33.0000000+00:00</time></trkpt><trkpt lat="35.0693751" lon="32.5952708"><ele>765.9</ele><time>2015-04-27T09:45:37.0000000+00:00</time></trkpt><trkpt lat="35.0693801" lon="32.5953347"><ele>765.9</ele><time>2015-04-27T09:45:41.0000000+00:00</time></trkpt><trkpt lat="35.0693858" lon="32.5953984"><ele>766.7</ele><time>2015-04-27T09:45:45.0000000+00:00</time></trkpt><trkpt lat="35.0694009" lon="32.5954517"><ele>766.9</ele><time>2015-04-27T09:45:48.0000000+00:00</time></trkpt><trkpt lat="35.069417" lon="32.5955202"><ele>766.9</ele><time>2015-04-27T09:45:52.0000000+00:00</time></trkpt><trkpt lat="35.0694098" lon="32.5955763"><ele>769.1</ele><time>2015-04-27T09:45:56.0000000+00:00</time></trkpt><trkpt lat="35.0694054" lon="32.5956354"><ele>769.3</ele><time>2015-04-27T09:46:02.0000000+00:00</time></trkpt><trkpt lat="35.0693732" lon="32.5956835"><ele>768.7</ele><time>2015-04-27T09:46:06.0000000+00:00</time></trkpt><trkpt lat="35.0693327" lon="32.5957347"><ele>768.4</ele><time>2015-04-27T09:46:10.0000000+00:00</time></trkpt><trkpt lat="35.0692891" lon="32.5957725"><ele>768.7</ele><time>2015-04-27T09:46:14.0000000+00:00</time></trkpt><trkpt lat="35.0692433" lon="32.5957996"><ele>772.5</ele><time>2015-04-27T09:46:18.0000000+00:00</time></trkpt><trkpt lat="35.069197" lon="32.5958281"><ele>772.8</ele><time>2015-04-27T09:46:20.0000000+00:00</time></trkpt><trkpt lat="35.0691566" lon="32.5958576"><ele>772.2</ele><time>2015-04-27T09:46:23.0000000+00:00</time></trkpt><trkpt lat="35.0691238" lon="32.5959011"><ele>773.6</ele><time>2015-04-27T09:46:27.0000000+00:00</time></trkpt><trkpt lat="35.0690998" lon="32.5959621"><ele>773.1</ele><time>2015-04-27T09:46:31.0000000+00:00</time></trkpt><trkpt lat="35.0690927" lon="32.5960172"><ele>773.0</ele><time>2015-04-27T09:46:35.0000000+00:00</time></trkpt><trkpt lat="35.0690992" lon="32.5960727"><ele>774.3</ele><time>2015-04-27T09:46:40.0000000+00:00</time></trkpt><trkpt lat="35.0691004" lon="32.5961289"><ele>772.1</ele><time>2015-04-27T09:46:44.0000000+00:00</time></trkpt><trkpt lat="35.0691069" lon="32.5961924"><ele>769.4</ele><time>2015-04-27T09:46:48.0000000+00:00</time></trkpt><trkpt lat="35.0691114" lon="32.5962587"><ele>768.5</ele><time>2015-04-27T09:46:52.0000000+00:00</time></trkpt><trkpt lat="35.0691062" lon="32.5963239"><ele>769.8</ele><time>2015-04-27T09:46:56.0000000+00:00</time></trkpt><trkpt lat="35.0690978" lon="32.596391"><ele>769.9</ele><time>2015-04-27T09:47:00.0000000+00:00</time></trkpt><trkpt lat="35.0690874" lon="32.5964539"><ele>769.9</ele><time>2015-04-27T09:47:04.0000000+00:00</time></trkpt><trkpt lat="35.0690888" lon="32.5965173"><ele>771.6</ele><time>2015-04-27T09:47:08.0000000+00:00</time></trkpt><trkpt lat="35.0690925" lon="32.5965838"><ele>772.7</ele><time>2015-04-27T09:47:12.0000000+00:00</time></trkpt><trkpt lat="35.0690995" lon="32.5966516"><ele>773.0</ele><time>2015-04-27T09:47:15.0000000+00:00</time></trkpt><trkpt lat="35.0690977" lon="32.5967136"><ele>773.1</ele><time>2015-04-27T09:47:18.0000000+00:00</time></trkpt><trkpt lat="35.0690916" lon="32.5967751"><ele>772.9</ele><time>2015-04-27T09:47:23.0000000+00:00</time></trkpt><trkpt lat="35.0690699" lon="32.5968329"><ele>772.9</ele><time>2015-04-27T09:47:26.0000000+00:00</time></trkpt><trkpt lat="35.069039" lon="32.596892"><ele>774.3</ele><time>2015-04-27T09:47:30.0000000+00:00</time></trkpt><trkpt lat="35.0690082" lon="32.5969344"><ele>775.6</ele><time>2015-04-27T09:47:34.0000000+00:00</time></trkpt><trkpt lat="35.0689596" lon="32.5969644"><ele>776.8</ele><time>2015-04-27T09:47:39.0000000+00:00</time></trkpt><trkpt lat="35.0689094" lon="32.596972"><ele>777.5</ele><time>2015-04-27T09:47:43.0000000+00:00</time></trkpt><trkpt lat="35.0688479" lon="32.5969843"><ele>777.0</ele><time>2015-04-27T09:47:47.0000000+00:00</time></trkpt><trkpt lat="35.0688019" lon="32.5970085"><ele>777.8</ele><time>2015-04-27T09:47:50.0000000+00:00</time></trkpt><trkpt lat="35.0687587" lon="32.5970387"><ele>777.9</ele><time>2015-04-27T09:47:53.0000000+00:00</time></trkpt><trkpt lat="35.0687209" lon="32.5970727"><ele>777.9</ele><time>2015-04-27T09:47:56.0000000+00:00</time></trkpt><trkpt lat="35.0686754" lon="32.597118"><ele>780.1</ele><time>2015-04-27T09:48:00.0000000+00:00</time></trkpt><trkpt lat="35.0686362" lon="32.5971644"><ele>780.3</ele><time>2015-04-27T09:48:04.0000000+00:00</time></trkpt><trkpt lat="35.0686084" lon="32.5972177"><ele>781.4</ele><time>2015-04-27T09:48:08.0000000+00:00</time></trkpt><trkpt lat="35.0685938" lon="32.5972743"><ele>782.6</ele><time>2015-04-27T09:48:12.0000000+00:00</time></trkpt><trkpt lat="35.0685835" lon="32.597334"><ele>782.5</ele><time>2015-04-27T09:48:16.0000000+00:00</time></trkpt><trkpt lat="35.0686097" lon="32.5973946"><ele>779.5</ele><time>2015-04-27T09:48:20.0000000+00:00</time></trkpt><trkpt lat="35.06865" lon="32.5974408"><ele>778.5</ele><time>2015-04-27T09:48:25.0000000+00:00</time></trkpt><trkpt lat="35.0686982" lon="32.5974469"><ele>778.9</ele><time>2015-04-27T09:48:29.0000000+00:00</time></trkpt><trkpt lat="35.0687531" lon="32.5974328"><ele>778.9</ele><time>2015-04-27T09:48:33.0000000+00:00</time></trkpt><trkpt lat="35.0688092" lon="32.5974122"><ele>779.9</ele><time>2015-04-27T09:48:37.0000000+00:00</time></trkpt><trkpt lat="35.0688652" lon="32.5973933"><ele>779.9</ele><time>2015-04-27T09:48:41.0000000+00:00</time></trkpt><trkpt lat="35.068922" lon="32.5973816"><ele>780.4</ele><time>2015-04-27T09:48:45.0000000+00:00</time></trkpt><trkpt lat="35.068968" lon="32.5973822"><ele>780.5</ele><time>2015-04-27T09:48:48.0000000+00:00</time></trkpt><trkpt lat="35.0690156" lon="32.5973816"><ele>780.9</ele><time>2015-04-27T09:48:51.0000000+00:00</time></trkpt><trkpt lat="35.0690634" lon="32.5973941"><ele>782.3</ele><time>2015-04-27T09:48:54.0000000+00:00</time></trkpt><trkpt lat="35.0691107" lon="32.5973971"><ele>782.1</ele><time>2015-04-27T09:48:57.0000000+00:00</time></trkpt><trkpt lat="35.0691539" lon="32.5974147"><ele>781.9</ele><time>2015-04-27T09:49:01.0000000+00:00</time></trkpt><trkpt lat="35.0691572" lon="32.5974716"><ele>778.8</ele><time>2015-04-27T09:49:52.0000000+00:00</time></trkpt><trkpt lat="35.0691349" lon="32.5975286"><ele>778.9</ele><time>2015-04-27T09:49:55.0000000+00:00</time></trkpt><trkpt lat="35.0691076" lon="32.5976007"><ele>779.8</ele><time>2015-04-27T09:49:58.0000000+00:00</time></trkpt><trkpt lat="35.0690825" lon="32.5976529"><ele>779.9</ele><time>2015-04-27T09:50:00.0000000+00:00</time></trkpt><trkpt lat="35.0690558" lon="32.5977038"><ele>779.7</ele><time>2015-04-27T09:50:02.0000000+00:00</time></trkpt><trkpt lat="35.0690338" lon="32.5977546"><ele>780.4</ele><time>2015-04-27T09:50:04.0000000+00:00</time></trkpt><trkpt lat="35.0690073" lon="32.5978031"><ele>781.3</ele><time>2015-04-27T09:50:06.0000000+00:00</time></trkpt><trkpt lat="35.0689788" lon="32.5978459"><ele>781.8</ele><time>2015-04-27T09:50:08.0000000+00:00</time></trkpt><trkpt lat="35.068944" lon="32.5979016"><ele>783.0</ele><time>2015-04-27T09:52:38.0000000+00:00</time></trkpt><trkpt lat="35.068921" lon="32.5979578"><ele>782.9</ele><time>2015-04-27T09:52:41.0000000+00:00</time></trkpt><trkpt lat="35.0689166" lon="32.5980144"><ele>781.7</ele><time>2015-04-27T09:52:43.0000000+00:00</time></trkpt><trkpt lat="35.0689033" lon="32.5980976"><ele>781.9</ele><time>2015-04-27T09:52:45.0000000+00:00</time></trkpt><trkpt lat="35.068889" lon="32.5981736"><ele>781.9</ele><time>2015-04-27T09:52:47.0000000+00:00</time></trkpt><trkpt lat="35.0688782" lon="32.5982552"><ele>781.2</ele><time>2015-04-27T09:52:49.0000000+00:00</time></trkpt><trkpt lat="35.068868" lon="32.5983328"><ele>781.0</ele><time>2015-04-27T09:52:51.0000000+00:00</time></trkpt><trkpt lat="35.068844" lon="32.5984056"><ele>780.9</ele><time>2015-04-27T09:52:53.0000000+00:00</time></trkpt><trkpt lat="35.0687981" lon="32.5984586"><ele>780.7</ele><time>2015-04-27T09:52:55.0000000+00:00</time></trkpt><trkpt lat="35.0687403" lon="32.5984786"><ele>780.9</ele><time>2015-04-27T09:52:57.0000000+00:00</time></trkpt><trkpt lat="35.0686782" lon="32.59849"><ele>780.9</ele><time>2015-04-27T09:52:59.0000000+00:00</time></trkpt><trkpt lat="35.0686036" lon="32.5985152"><ele>780.9</ele><time>2015-04-27T09:53:01.0000000+00:00</time></trkpt><trkpt lat="35.0685337" lon="32.5985674"><ele>782.2</ele><time>2015-04-27T09:53:03.0000000+00:00</time></trkpt><trkpt lat="35.068484" lon="32.598645"><ele>782.0</ele><time>2015-04-27T09:53:05.0000000+00:00</time></trkpt><trkpt lat="35.0684481" lon="32.5987378"><ele>781.9</ele><time>2015-04-27T09:53:07.0000000+00:00</time></trkpt><trkpt lat="35.0684283" lon="32.5988407"><ele>781.9</ele><time>2015-04-27T09:53:09.0000000+00:00</time></trkpt><trkpt lat="35.0684156" lon="32.5989461"><ele>781.9</ele><time>2015-04-27T09:53:11.0000000+00:00</time></trkpt><trkpt lat="35.0684042" lon="32.5990496"><ele>781.9</ele><time>2015-04-27T09:53:13.0000000+00:00</time></trkpt><trkpt lat="35.0683963" lon="32.5991528"><ele>781.2</ele><time>2015-04-27T09:53:15.0000000+00:00</time></trkpt><trkpt lat="35.0683901" lon="32.5992564"><ele>781.0</ele><time>2015-04-27T09:53:17.0000000+00:00</time></trkpt><trkpt lat="35.068397" lon="32.5993765"><ele>780.9</ele><time>2015-04-27T09:53:19.0000000+00:00</time></trkpt><trkpt lat="35.0683969" lon="32.5994336"><ele>780.9</ele><time>2015-04-27T09:53:20.0000000+00:00</time></trkpt><trkpt lat="35.0683973" lon="32.5995389"><ele>780.4</ele><time>2015-04-27T09:53:22.0000000+00:00</time></trkpt><trkpt lat="35.0683918" lon="32.5996443"><ele>780.1</ele><time>2015-04-27T09:53:24.0000000+00:00</time></trkpt><trkpt lat="35.0684197" lon="32.5997504"><ele>780.0</ele><time>2015-04-27T09:53:26.0000000+00:00</time></trkpt><trkpt lat="35.0684427" lon="32.5997988"><ele>780.4</ele><time>2015-04-27T09:53:27.0000000+00:00</time></trkpt><trkpt lat="35.0684686" lon="32.5998468"><ele>780.7</ele><time>2015-04-27T09:53:28.0000000+00:00</time></trkpt><trkpt lat="35.0684985" lon="32.5998929"><ele>781.3</ele><time>2015-04-27T09:53:29.0000000+00:00</time></trkpt><trkpt lat="35.0685503" lon="32.5999836"><ele>781.5</ele><time>2015-04-27T09:53:31.0000000+00:00</time></trkpt><trkpt lat="35.0685788" lon="32.6000317"><ele>781.7</ele><time>2015-04-27T09:53:32.0000000+00:00</time></trkpt><trkpt lat="35.0686034" lon="32.6000783"><ele>781.8</ele><time>2015-04-27T09:53:33.0000000+00:00</time></trkpt><trkpt lat="35.0686277" lon="32.6001273"><ele>781.9</ele><time>2015-04-27T09:53:34.0000000+00:00</time></trkpt><trkpt lat="35.0686507" lon="32.6001778"><ele>781.9</ele><time>2015-04-27T09:53:35.0000000+00:00</time></trkpt><trkpt lat="35.0686578" lon="32.6002344"><ele>781.9</ele><time>2015-04-27T09:53:36.0000000+00:00</time></trkpt><trkpt lat="35.0686723" lon="32.6003154"><ele>781.9</ele><time>2015-04-27T09:53:38.0000000+00:00</time></trkpt><trkpt lat="35.068691" lon="32.600382"><ele>781.9</ele><time>2015-04-27T09:53:40.0000000+00:00</time></trkpt><trkpt lat="35.0687102" lon="32.6004495"><ele>782.7</ele><time>2015-04-27T09:53:43.0000000+00:00</time></trkpt><trkpt lat="35.0687324" lon="32.6005162"><ele>783.8</ele><time>2015-04-27T09:53:46.0000000+00:00</time></trkpt><trkpt lat="35.0687465" lon="32.6005712"><ele>783.9</ele><time>2015-04-27T09:53:48.0000000+00:00</time></trkpt><trkpt lat="35.0687629" lon="32.6006342"><ele>783.7</ele><time>2015-04-27T09:53:50.0000000+00:00</time></trkpt><trkpt lat="35.06879" lon="32.6007079"><ele>783.9</ele><time>2015-04-27T09:53:52.0000000+00:00</time></trkpt><trkpt lat="35.068821" lon="32.6007869"><ele>784.7</ele><time>2015-04-27T09:53:54.0000000+00:00</time></trkpt><trkpt lat="35.0688422" lon="32.6008673"><ele>784.9</ele><time>2015-04-27T09:53:56.0000000+00:00</time></trkpt><trkpt lat="35.0688481" lon="32.6009445"><ele>784.9</ele><time>2015-04-27T09:53:58.0000000+00:00</time></trkpt><trkpt lat="35.0688317" lon="32.6010057"><ele>784.9</ele><time>2015-04-27T09:54:00.0000000+00:00</time></trkpt><trkpt lat="35.068787" lon="32.6010504"><ele>784.9</ele><time>2015-04-27T09:54:02.0000000+00:00</time></trkpt><trkpt lat="35.0687217" lon="32.6010576"><ele>784.9</ele><time>2015-04-27T09:54:04.0000000+00:00</time></trkpt><trkpt lat="35.0686469" lon="32.6010267"><ele>784.9</ele><time>2015-04-27T09:54:06.0000000+00:00</time></trkpt><trkpt lat="35.0685748" lon="32.600983"><ele>785.4</ele><time>2015-04-27T09:54:08.0000000+00:00</time></trkpt><trkpt lat="35.0685044" lon="32.6009391"><ele>785.8</ele><time>2015-04-27T09:54:10.0000000+00:00</time></trkpt><trkpt lat="35.0684411" lon="32.6008943"><ele>785.1</ele><time>2015-04-27T09:54:12.0000000+00:00</time></trkpt><trkpt lat="35.0683854" lon="32.600849"><ele>784.2</ele><time>2015-04-27T09:54:14.0000000+00:00</time></trkpt><trkpt lat="35.0683325" lon="32.600803"><ele>783.3</ele><time>2015-04-27T09:54:16.0000000+00:00</time></trkpt><trkpt lat="35.0682641" lon="32.6007765"><ele>783.5</ele><time>2015-04-27T09:54:18.0000000+00:00</time></trkpt><trkpt lat="35.0681931" lon="32.600747"><ele>783.1</ele><time>2015-04-27T09:54:20.0000000+00:00</time></trkpt><trkpt lat="35.0681302" lon="32.6007046"><ele>783.0</ele><time>2015-04-27T09:54:22.0000000+00:00</time></trkpt><trkpt lat="35.0680734" lon="32.6006605"><ele>783.4</ele><time>2015-04-27T09:54:24.0000000+00:00</time></trkpt><trkpt lat="35.0680173" lon="32.6006192"><ele>784.3</ele><time>2015-04-27T09:54:26.0000000+00:00</time></trkpt><trkpt lat="35.0679884" lon="32.6005594"><ele>783.5</ele><time>2015-04-27T09:54:28.0000000+00:00</time></trkpt><trkpt lat="35.0679676" lon="32.6004906"><ele>783.1</ele><time>2015-04-27T09:54:30.0000000+00:00</time></trkpt><trkpt lat="35.067944" lon="32.6004189"><ele>783.0</ele><time>2015-04-27T09:54:32.0000000+00:00</time></trkpt><trkpt lat="35.0679214" lon="32.6003409"><ele>782.4</ele><time>2015-04-27T09:54:34.0000000+00:00</time></trkpt><trkpt lat="35.067889" lon="32.600267"><ele>782.1</ele><time>2015-04-27T09:54:36.0000000+00:00</time></trkpt><trkpt lat="35.0678436" lon="32.6002003"><ele>782.0</ele><time>2015-04-27T09:54:38.0000000+00:00</time></trkpt><trkpt lat="35.0677836" lon="32.6001474"><ele>782.7</ele><time>2015-04-27T09:54:40.0000000+00:00</time></trkpt><trkpt lat="35.0677215" lon="32.6000958"><ele>783.1</ele><time>2015-04-27T09:54:42.0000000+00:00</time></trkpt><trkpt lat="35.0676626" lon="32.600036"><ele>783.7</ele><time>2015-04-27T09:54:44.0000000+00:00</time></trkpt><trkpt lat="35.0676034" lon="32.5999736"><ele>783.9</ele><time>2015-04-27T09:54:46.0000000+00:00</time></trkpt><trkpt lat="35.0675372" lon="32.5999248"><ele>784.4</ele><time>2015-04-27T09:54:48.0000000+00:00</time></trkpt><trkpt lat="35.0674635" lon="32.5999253"><ele>784.1</ele><time>2015-04-27T09:54:50.0000000+00:00</time></trkpt><trkpt lat="35.0674051" lon="32.5999892"><ele>784.7</ele><time>2015-04-27T09:54:52.0000000+00:00</time></trkpt><trkpt lat="35.0673807" lon="32.6000804"><ele>784.6</ele><time>2015-04-27T09:54:54.0000000+00:00</time></trkpt><trkpt lat="35.067368" lon="32.6001762"><ele>784.9</ele><time>2015-04-27T09:54:56.0000000+00:00</time></trkpt><trkpt lat="35.0673654" lon="32.6002691"><ele>784.9</ele><time>2015-04-27T09:54:58.0000000+00:00</time></trkpt><trkpt lat="35.0673685" lon="32.6003611"><ele>784.2</ele><time>2015-04-27T09:55:00.0000000+00:00</time></trkpt><trkpt lat="35.0673652" lon="32.6004576"><ele>783.7</ele><time>2015-04-27T09:55:02.0000000+00:00</time></trkpt><trkpt lat="35.0673566" lon="32.6005548"><ele>784.1</ele><time>2015-04-27T09:55:04.0000000+00:00</time></trkpt><trkpt lat="35.0673417" lon="32.6006306"><ele>784.0</ele><time>2015-04-27T09:55:05.0000000+00:00</time></trkpt><trkpt lat="35.0673359" lon="32.6007221"><ele>784.0</ele><time>2015-04-27T09:55:07.0000000+00:00</time></trkpt><trkpt lat="35.0673378" lon="32.6008181"><ele>784.7</ele><time>2015-04-27T09:55:09.0000000+00:00</time></trkpt><trkpt lat="35.0673349" lon="32.6009048"><ele>785.6</ele><time>2015-04-27T09:55:11.0000000+00:00</time></trkpt><trkpt lat="35.0673191" lon="32.6009628"><ele>786.3</ele><time>2015-04-27T09:55:12.0000000+00:00</time></trkpt><trkpt lat="35.0673097" lon="32.6010582"><ele>786.0</ele><time>2015-04-27T09:55:14.0000000+00:00</time></trkpt><trkpt lat="35.0672879" lon="32.6011418"><ele>785.2</ele><time>2015-04-27T09:55:16.0000000+00:00</time></trkpt><trkpt lat="35.0672625" lon="32.6012347"><ele>785.2</ele><time>2015-04-27T09:55:18.0000000+00:00</time></trkpt><trkpt lat="35.0672385" lon="32.6013256"><ele>786.3</ele><time>2015-04-27T09:55:20.0000000+00:00</time></trkpt><trkpt lat="35.0672215" lon="32.6014187"><ele>788.0</ele><time>2015-04-27T09:55:22.0000000+00:00</time></trkpt><trkpt lat="35.0672007" lon="32.6015089"><ele>789.2</ele><time>2015-04-27T09:55:24.0000000+00:00</time></trkpt><trkpt lat="35.0671851" lon="32.601606"><ele>789.7</ele><time>2015-04-27T09:55:26.0000000+00:00</time></trkpt><trkpt lat="35.0671764" lon="32.6017067"><ele>789.4</ele><time>2015-04-27T09:55:28.0000000+00:00</time></trkpt><trkpt lat="35.0671709" lon="32.6018085"><ele>788.0</ele><time>2015-04-27T09:55:30.0000000+00:00</time></trkpt><trkpt lat="35.0671783" lon="32.6019445"><ele>788.0</ele><time>2015-04-27T09:55:32.0000000+00:00</time></trkpt><trkpt lat="35.067175" lon="32.6019994"><ele>788.4</ele><time>2015-04-27T09:55:33.0000000+00:00</time></trkpt><trkpt lat="35.0671766" lon="32.602056"><ele>789.2</ele><time>2015-04-27T09:55:34.0000000+00:00</time></trkpt><trkpt lat="35.0671753" lon="32.6021189"><ele>789.1</ele><time>2015-04-27T09:55:35.0000000+00:00</time></trkpt><trkpt lat="35.0671754" lon="32.6021937"><ele>789.5</ele><time>2015-04-27T09:55:36.0000000+00:00</time></trkpt><trkpt lat="35.0671835" lon="32.6022564"><ele>790.2</ele><time>2015-04-27T09:55:37.0000000+00:00</time></trkpt><trkpt lat="35.0671999" lon="32.6023221"><ele>790.6</ele><time>2015-04-27T09:55:38.0000000+00:00</time></trkpt><trkpt lat="35.0672196" lon="32.6023718"><ele>789.8</ele><time>2015-04-27T09:55:39.0000000+00:00</time></trkpt><trkpt lat="35.0672356" lon="32.6024274"><ele>788.8</ele><time>2015-04-27T09:55:40.0000000+00:00</time></trkpt><trkpt lat="35.0672544" lon="32.6024808"><ele>789.4</ele><time>2015-04-27T09:55:41.0000000+00:00</time></trkpt><trkpt lat="35.0672743" lon="32.6025395"><ele>789.7</ele><time>2015-04-27T09:55:42.0000000+00:00</time></trkpt><trkpt lat="35.0673153" lon="32.6026349"><ele>790.1</ele><time>2015-04-27T09:55:44.0000000+00:00</time></trkpt><trkpt lat="35.0673538" lon="32.6027085"><ele>791.5</ele><time>2015-04-27T09:55:46.0000000+00:00</time></trkpt><trkpt lat="35.0673858" lon="32.6027485"><ele>791.2</ele><time>2015-04-27T09:55:47.0000000+00:00</time></trkpt><trkpt lat="35.0674062" lon="32.6028485"><ele>791.0</ele><time>2015-04-27T09:55:49.0000000+00:00</time></trkpt><trkpt lat="35.0674362" lon="32.602947"><ele>790.9</ele><time>2015-04-27T09:55:51.0000000+00:00</time></trkpt><trkpt lat="35.0674554" lon="32.6030484"><ele>790.9</ele><time>2015-04-27T09:55:53.0000000+00:00</time></trkpt><trkpt lat="35.0674629" lon="32.6031031"><ele>790.9</ele><time>2015-04-27T09:55:54.0000000+00:00</time></trkpt><trkpt lat="35.0674601" lon="32.6031923"><ele>790.4</ele><time>2015-04-27T09:55:56.0000000+00:00</time></trkpt><trkpt lat="35.0674517" lon="32.6032869"><ele>789.8</ele><time>2015-04-27T09:55:58.0000000+00:00</time></trkpt><trkpt lat="35.0674452" lon="32.6033859"><ele>789.1</ele><time>2015-04-27T09:56:00.0000000+00:00</time></trkpt><trkpt lat="35.0674336" lon="32.6034802"><ele>789.5</ele><time>2015-04-27T09:56:02.0000000+00:00</time></trkpt><trkpt lat="35.0674081" lon="32.6035481"><ele>790.3</ele><time>2015-04-27T09:56:04.0000000+00:00</time></trkpt><trkpt lat="35.0673831" lon="32.6036076"><ele>790.8</ele><time>2015-04-27T09:56:06.0000000+00:00</time></trkpt><trkpt lat="35.0673546" lon="32.6036589"><ele>790.9</ele><time>2015-04-27T09:56:08.0000000+00:00</time></trkpt><trkpt lat="35.0673205" lon="32.6037017"><ele>790.7</ele><time>2015-04-27T09:56:10.0000000+00:00</time></trkpt><trkpt lat="35.0672836" lon="32.60374"><ele>791.4</ele><time>2015-04-27T09:56:12.0000000+00:00</time></trkpt><trkpt lat="35.0672574" lon="32.6037855"><ele>792.0</ele><time>2015-04-27T09:56:14.0000000+00:00</time></trkpt><trkpt lat="35.0672294" lon="32.6038316"><ele>790.7</ele><time>2015-04-27T09:56:16.0000000+00:00</time></trkpt><trkpt lat="35.0671911" lon="32.6038672"><ele>789.4</ele><time>2015-04-27T09:56:18.0000000+00:00</time></trkpt><trkpt lat="35.0671552" lon="32.6039045"><ele>788.5</ele><time>2015-04-27T09:56:20.0000000+00:00</time></trkpt><trkpt lat="35.0671074" lon="32.60396"><ele>788.8</ele><time>2015-04-27T09:56:23.0000000+00:00</time></trkpt><trkpt lat="35.0670563" lon="32.6039987"><ele>790.2</ele><time>2015-04-27T09:56:26.0000000+00:00</time></trkpt><trkpt lat="35.0670226" lon="32.6040492"><ele>796.4</ele><time>2015-04-27T09:57:06.0000000+00:00</time></trkpt><trkpt lat="35.066975" lon="32.6040813"><ele>796.2</ele><time>2015-04-27T09:57:09.0000000+00:00</time></trkpt><trkpt lat="35.0669292" lon="32.6041047"><ele>795.5</ele><time>2015-04-27T09:57:11.0000000+00:00</time></trkpt><trkpt lat="35.0668733" lon="32.6041289"><ele>795.5</ele><time>2015-04-27T09:57:14.0000000+00:00</time></trkpt><trkpt lat="35.0668303" lon="32.6041747"><ele>795.1</ele><time>2015-04-27T09:57:17.0000000+00:00</time></trkpt><trkpt lat="35.0667947" lon="32.6042114"><ele>795.0</ele><time>2015-04-27T09:57:19.0000000+00:00</time></trkpt><trkpt lat="35.0667563" lon="32.6042589"><ele>795.7</ele><time>2015-04-27T09:57:21.0000000+00:00</time></trkpt><trkpt lat="35.066708" lon="32.6043468"><ele>795.6</ele><time>2015-04-27T09:57:23.0000000+00:00</time></trkpt><trkpt lat="35.0666882" lon="32.6043976"><ele>795.8</ele><time>2015-04-27T09:57:24.0000000+00:00</time></trkpt><trkpt lat="35.0666642" lon="32.6044963"><ele>795.4</ele><time>2015-04-27T09:57:26.0000000+00:00</time></trkpt><trkpt lat="35.0666515" lon="32.6045858"><ele>795.0</ele><time>2015-04-27T09:57:28.0000000+00:00</time></trkpt><trkpt lat="35.0666412" lon="32.6046489"><ele>798.9</ele><time>2015-04-27T09:58:16.0000000+00:00</time></trkpt><trkpt lat="35.0666253" lon="32.604702"><ele>798.9</ele><time>2015-04-27T09:58:19.0000000+00:00</time></trkpt><trkpt lat="35.0666173" lon="32.6047586"><ele>799.7</ele><time>2015-04-27T09:58:21.0000000+00:00</time></trkpt><trkpt lat="35.0666074" lon="32.6048213"><ele>799.1</ele><time>2015-04-27T09:58:23.0000000+00:00</time></trkpt><trkpt lat="35.0665997" lon="32.6048837"><ele>799.0</ele><time>2015-04-27T09:58:25.0000000+00:00</time></trkpt><trkpt lat="35.0665997" lon="32.604945"><ele>798.4</ele><time>2015-04-27T09:58:27.0000000+00:00</time></trkpt><trkpt lat="35.0666064" lon="32.6050052"><ele>798.1</ele><time>2015-04-27T09:58:29.0000000+00:00</time></trkpt><trkpt lat="35.066618" lon="32.60506"><ele>798.0</ele><time>2015-04-27T09:58:31.0000000+00:00</time></trkpt><trkpt lat="35.0666331" lon="32.6051118"><ele>797.9</ele><time>2015-04-27T09:58:34.0000000+00:00</time></trkpt><trkpt lat="35.0666341" lon="32.605167"><ele>797.9</ele><time>2015-04-27T09:58:38.0000000+00:00</time></trkpt><trkpt lat="35.0666176" lon="32.6052269"><ele>797.9</ele><time>2015-04-27T09:58:42.0000000+00:00</time></trkpt><trkpt lat="35.0665684" lon="32.6052851"><ele>797.9</ele><time>2015-04-27T09:58:46.0000000+00:00</time></trkpt><trkpt lat="35.0665132" lon="32.6053102"><ele>798.4</ele><time>2015-04-27T09:58:48.0000000+00:00</time></trkpt><trkpt lat="35.0664541" lon="32.6053207"><ele>798.1</ele><time>2015-04-27T09:58:50.0000000+00:00</time></trkpt><trkpt lat="35.0663984" lon="32.6053203"><ele>798.0</ele><time>2015-04-27T09:58:52.0000000+00:00</time></trkpt><trkpt lat="35.0663482" lon="32.6053306"><ele>797.9</ele><time>2015-04-27T09:58:54.0000000+00:00</time></trkpt><trkpt lat="35.0663012" lon="32.6053552"><ele>798.4</ele><time>2015-04-27T09:58:56.0000000+00:00</time></trkpt><trkpt lat="35.0662476" lon="32.6053831"><ele>798.3</ele><time>2015-04-27T09:58:58.0000000+00:00</time></trkpt><trkpt lat="35.0661904" lon="32.6054122"><ele>798.5</ele><time>2015-04-27T09:59:00.0000000+00:00</time></trkpt><trkpt lat="35.0661428" lon="32.6054388"><ele>798.8</ele><time>2015-04-27T09:59:02.0000000+00:00</time></trkpt><trkpt lat="35.0661008" lon="32.6054604"><ele>797.7</ele><time>2015-04-27T09:59:04.0000000+00:00</time></trkpt><trkpt lat="35.0660376" lon="32.6054964"><ele>797.8</ele><time>2015-04-27T09:59:07.0000000+00:00</time></trkpt><trkpt lat="35.0659932" lon="32.6055235"><ele>797.9</ele><time>2015-04-27T09:59:09.0000000+00:00</time></trkpt><trkpt lat="35.0659482" lon="32.6055522"><ele>797.9</ele><time>2015-04-27T09:59:11.0000000+00:00</time></trkpt><trkpt lat="35.0659041" lon="32.605595"><ele>797.9</ele><time>2015-04-27T09:59:13.0000000+00:00</time></trkpt><trkpt lat="35.0658659" lon="32.6056722"><ele>797.9</ele><time>2015-04-27T09:59:15.0000000+00:00</time></trkpt><trkpt lat="35.0658631" lon="32.6057559"><ele>797.9</ele><time>2015-04-27T09:59:17.0000000+00:00</time></trkpt><trkpt lat="35.0658854" lon="32.605819"><ele>797.4</ele><time>2015-04-27T09:59:19.0000000+00:00</time></trkpt><trkpt lat="35.0659178" lon="32.605862"><ele>797.1</ele><time>2015-04-27T09:59:21.0000000+00:00</time></trkpt><trkpt lat="35.0659622" lon="32.6059057"><ele>797.7</ele><time>2015-04-27T09:59:23.0000000+00:00</time></trkpt><trkpt lat="35.0660175" lon="32.6059556"><ele>797.9</ele><time>2015-04-27T09:59:25.0000000+00:00</time></trkpt><trkpt lat="35.0660736" lon="32.6060035"><ele>798.4</ele><time>2015-04-27T09:59:27.0000000+00:00</time></trkpt><trkpt lat="35.0661336" lon="32.6060398"><ele>799.3</ele><time>2015-04-27T09:59:29.0000000+00:00</time></trkpt><trkpt lat="35.0661943" lon="32.6060788"><ele>800.3</ele><time>2015-04-27T09:59:31.0000000+00:00</time></trkpt><trkpt lat="35.0662628" lon="32.60612"><ele>800.8</ele><time>2015-04-27T09:59:33.0000000+00:00</time></trkpt><trkpt lat="35.0663331" lon="32.6061558"><ele>800.9</ele><time>2015-04-27T09:59:35.0000000+00:00</time></trkpt><trkpt lat="35.0663954" lon="32.6061938"><ele>800.9</ele><time>2015-04-27T09:59:37.0000000+00:00</time></trkpt><trkpt lat="35.0664521" lon="32.6062378"><ele>800.9</ele><time>2015-04-27T09:59:39.0000000+00:00</time></trkpt><trkpt lat="35.0665061" lon="32.6062851"><ele>800.9</ele><time>2015-04-27T09:59:41.0000000+00:00</time></trkpt><trkpt lat="35.0665513" lon="32.6063385"><ele>800.9</ele><time>2015-04-27T09:59:43.0000000+00:00</time></trkpt><trkpt lat="35.0665916" lon="32.6063777"><ele>800.9</ele><time>2015-04-27T09:59:45.0000000+00:00</time></trkpt><trkpt lat="35.0666433" lon="32.6064004"><ele>799.9</ele><time>2015-04-27T09:59:47.0000000+00:00</time></trkpt><trkpt lat="35.0666959" lon="32.6064139"><ele>801.2</ele><time>2015-04-27T09:59:49.0000000+00:00</time></trkpt><trkpt lat="35.0667456" lon="32.6064279"><ele>802.2</ele><time>2015-04-27T09:59:51.0000000+00:00</time></trkpt><trkpt lat="35.0667961" lon="32.6064455"><ele>802.8</ele><time>2015-04-27T09:59:53.0000000+00:00</time></trkpt><trkpt lat="35.0668489" lon="32.6064672"><ele>802.4</ele><time>2015-04-27T09:59:55.0000000+00:00</time></trkpt><trkpt lat="35.0669065" lon="32.606496"><ele>802.8</ele><time>2015-04-27T09:59:57.0000000+00:00</time></trkpt><trkpt lat="35.0669622" lon="32.6065225"><ele>803.4</ele><time>2015-04-27T09:59:59.0000000+00:00</time></trkpt><trkpt lat="35.0670042" lon="32.6065438"><ele>803.8</ele><time>2015-04-27T10:00:01.0000000+00:00</time></trkpt><trkpt lat="35.067054" lon="32.6065635"><ele>804.8</ele><time>2015-04-27T10:00:04.0000000+00:00</time></trkpt><trkpt lat="35.0671106" lon="32.6065743"><ele>804.9</ele><time>2015-04-27T10:00:07.0000000+00:00</time></trkpt><trkpt lat="35.0671739" lon="32.6065823"><ele>804.9</ele><time>2015-04-27T10:00:10.0000000+00:00</time></trkpt><trkpt lat="35.067237" lon="32.6066039"><ele>803.3</ele><time>2015-04-27T10:00:13.0000000+00:00</time></trkpt><trkpt lat="35.0672772" lon="32.6066459"><ele>802.5</ele><time>2015-04-27T10:00:16.0000000+00:00</time></trkpt><trkpt lat="35.0672958" lon="32.6067098"><ele>802.9</ele><time>2015-04-27T10:00:20.0000000+00:00</time></trkpt><trkpt lat="35.0672993" lon="32.6067728"><ele>802.2</ele><time>2015-04-27T10:00:24.0000000+00:00</time></trkpt><trkpt lat="35.0673053" lon="32.6068427"><ele>801.9</ele><time>2015-04-27T10:00:28.0000000+00:00</time></trkpt><trkpt lat="35.0673052" lon="32.6069192"><ele>801.9</ele><time>2015-04-27T10:00:31.0000000+00:00</time></trkpt><trkpt lat="35.0673093" lon="32.6069768"><ele>801.9</ele><time>2015-04-27T10:00:33.0000000+00:00</time></trkpt><trkpt lat="35.0673194" lon="32.6070355"><ele>801.9</ele><time>2015-04-27T10:00:35.0000000+00:00</time></trkpt><trkpt lat="35.0673242" lon="32.6070941"><ele>801.9</ele><time>2015-04-27T10:00:37.0000000+00:00</time></trkpt><trkpt lat="35.0673276" lon="32.60715"><ele>801.4</ele><time>2015-04-27T10:00:39.0000000+00:00</time></trkpt><trkpt lat="35.06731" lon="32.6072224"><ele>801.0</ele><time>2015-04-27T10:00:42.0000000+00:00</time></trkpt><trkpt lat="35.0672737" lon="32.607255"><ele>800.9</ele><time>2015-04-27T10:00:44.0000000+00:00</time></trkpt><trkpt lat="35.0672244" lon="32.607283"><ele>800.9</ele><time>2015-04-27T10:00:46.0000000+00:00</time></trkpt><trkpt lat="35.0671693" lon="32.6073085"><ele>801.4</ele><time>2015-04-27T10:00:48.0000000+00:00</time></trkpt><trkpt lat="35.0671168" lon="32.6073196"><ele>801.8</ele><time>2015-04-27T10:00:50.0000000+00:00</time></trkpt><trkpt lat="35.0670649" lon="32.607316"><ele>801.1</ele><time>2015-04-27T10:00:52.0000000+00:00</time></trkpt><trkpt lat="35.0670141" lon="32.6073238"><ele>801.0</ele><time>2015-04-27T10:00:54.0000000+00:00</time></trkpt><trkpt lat="35.066968" lon="32.6073452"><ele>801.7</ele><time>2015-04-27T10:00:56.0000000+00:00</time></trkpt><trkpt lat="35.0669237" lon="32.6073682"><ele>802.6</ele><time>2015-04-27T10:00:58.0000000+00:00</time></trkpt><trkpt lat="35.0668736" lon="32.6073912"><ele>802.6</ele><time>2015-04-27T10:01:00.0000000+00:00</time></trkpt><trkpt lat="35.066824" lon="32.6074107"><ele>802.8</ele><time>2015-04-27T10:01:02.0000000+00:00</time></trkpt><trkpt lat="35.0667744" lon="32.6074365"><ele>802.7</ele><time>2015-04-27T10:01:04.0000000+00:00</time></trkpt><trkpt lat="35.0667262" lon="32.6074707"><ele>802.9</ele><time>2015-04-27T10:01:06.0000000+00:00</time></trkpt><trkpt lat="35.0666767" lon="32.6075089"><ele>802.9</ele><time>2015-04-27T10:01:08.0000000+00:00</time></trkpt><trkpt lat="35.0666286" lon="32.6075623"><ele>803.7</ele><time>2015-04-27T10:01:10.0000000+00:00</time></trkpt><trkpt lat="35.0665884" lon="32.6076166"><ele>803.9</ele><time>2015-04-27T10:01:12.0000000+00:00</time></trkpt><trkpt lat="35.0665535" lon="32.6076726"><ele>803.2</ele><time>2015-04-27T10:01:14.0000000+00:00</time></trkpt><trkpt lat="35.0665222" lon="32.6077278"><ele>803.0</ele><time>2015-04-27T10:01:16.0000000+00:00</time></trkpt><trkpt lat="35.0664943" lon="32.6077852"><ele>802.4</ele><time>2015-04-27T10:01:18.0000000+00:00</time></trkpt><trkpt lat="35.0664749" lon="32.6078469"><ele>802.1</ele><time>2015-04-27T10:01:20.0000000+00:00</time></trkpt><trkpt lat="35.0664528" lon="32.6079108"><ele>802.0</ele><time>2015-04-27T10:01:22.0000000+00:00</time></trkpt><trkpt lat="35.0664161" lon="32.6079784"><ele>801.9</ele><time>2015-04-27T10:01:24.0000000+00:00</time></trkpt><trkpt lat="35.0663687" lon="32.608038"><ele>801.9</ele><time>2015-04-27T10:01:26.0000000+00:00</time></trkpt><trkpt lat="35.0663168" lon="32.608082"><ele>802.4</ele><time>2015-04-27T10:01:28.0000000+00:00</time></trkpt><trkpt lat="35.0662639" lon="32.6081193"><ele>803.3</ele><time>2015-04-27T10:01:30.0000000+00:00</time></trkpt><trkpt lat="35.0662119" lon="32.6081557"><ele>803.8</ele><time>2015-04-27T10:01:32.0000000+00:00</time></trkpt><trkpt lat="35.0661609" lon="32.6081888"><ele>803.9</ele><time>2015-04-27T10:01:34.0000000+00:00</time></trkpt><trkpt lat="35.0661083" lon="32.6082219"><ele>803.9</ele><time>2015-04-27T10:01:36.0000000+00:00</time></trkpt><trkpt lat="35.0660559" lon="32.608253"><ele>804.7</ele><time>2015-04-27T10:01:38.0000000+00:00</time></trkpt><trkpt lat="35.0660065" lon="32.6082826"><ele>804.9</ele><time>2015-04-27T10:01:40.0000000+00:00</time></trkpt><trkpt lat="35.065959" lon="32.6083136"><ele>805.4</ele><time>2015-04-27T10:01:42.0000000+00:00</time></trkpt><trkpt lat="35.0659129" lon="32.6083432"><ele>805.8</ele><time>2015-04-27T10:01:44.0000000+00:00</time></trkpt><trkpt lat="35.065868" lon="32.6083715"><ele>805.9</ele><time>2015-04-27T10:01:46.0000000+00:00</time></trkpt><trkpt lat="35.0658214" lon="32.608389"><ele>806.4</ele><time>2015-04-27T10:01:48.0000000+00:00</time></trkpt><trkpt lat="35.06577" lon="32.6083869"><ele>806.1</ele><time>2015-04-27T10:01:50.0000000+00:00</time></trkpt><trkpt lat="35.0657182" lon="32.6083858"><ele>805.7</ele><time>2015-04-27T10:01:52.0000000+00:00</time></trkpt><trkpt lat="35.0656668" lon="32.6083906"><ele>805.9</ele><time>2015-04-27T10:01:54.0000000+00:00</time></trkpt><trkpt lat="35.0656179" lon="32.60839"><ele>805.4</ele><time>2015-04-27T10:01:56.0000000+00:00</time></trkpt><trkpt lat="35.0655672" lon="32.6083981"><ele>805.1</ele><time>2015-04-27T10:01:58.0000000+00:00</time></trkpt><trkpt lat="35.0655153" lon="32.6084235"><ele>805.0</ele><time>2015-04-27T10:02:00.0000000+00:00</time></trkpt><trkpt lat="35.0654634" lon="32.6084523"><ele>805.4</ele><time>2015-04-27T10:02:02.0000000+00:00</time></trkpt><trkpt lat="35.0654166" lon="32.6084857"><ele>806.3</ele><time>2015-04-27T10:02:04.0000000+00:00</time></trkpt><trkpt lat="35.0653667" lon="32.6085224"><ele>806.8</ele><time>2015-04-27T10:02:06.0000000+00:00</time></trkpt><trkpt lat="35.0652997" lon="32.6085607"><ele>806.9</ele><time>2015-04-27T10:02:08.0000000+00:00</time></trkpt><trkpt lat="35.0652379" lon="32.6085963"><ele>806.9</ele><time>2015-04-27T10:02:10.0000000+00:00</time></trkpt><trkpt lat="35.0651823" lon="32.6086386"><ele>806.9</ele><time>2015-04-27T10:02:12.0000000+00:00</time></trkpt><trkpt lat="35.0651355" lon="32.6086762"><ele>806.4</ele><time>2015-04-27T10:02:14.0000000+00:00</time></trkpt><trkpt lat="35.0650958" lon="32.6087427"><ele>806.0</ele><time>2015-04-27T10:02:17.0000000+00:00</time></trkpt><trkpt lat="35.0650897" lon="32.6088102"><ele>805.9</ele><time>2015-04-27T10:02:19.0000000+00:00</time></trkpt><trkpt lat="35.0651193" lon="32.6088951"><ele>805.2</ele><time>2015-04-27T10:02:21.0000000+00:00</time></trkpt><trkpt lat="35.0651647" lon="32.6089748"><ele>805.0</ele><time>2015-04-27T10:02:23.0000000+00:00</time></trkpt><trkpt lat="35.0651974" lon="32.6090544"><ele>804.9</ele><time>2015-04-27T10:02:25.0000000+00:00</time></trkpt><trkpt lat="35.0652148" lon="32.6091284"><ele>804.9</ele><time>2015-04-27T10:02:27.0000000+00:00</time></trkpt><trkpt lat="35.0652321" lon="32.6091932"><ele>804.9</ele><time>2015-04-27T10:02:29.0000000+00:00</time></trkpt><trkpt lat="35.065257" lon="32.6092522"><ele>804.4</ele><time>2015-04-27T10:02:31.0000000+00:00</time></trkpt><trkpt lat="35.0653068" lon="32.6092989"><ele>805.1</ele><time>2015-04-27T10:02:33.0000000+00:00</time></trkpt><trkpt lat="35.0653674" lon="32.6093245"><ele>804.5</ele><time>2015-04-27T10:02:35.0000000+00:00</time></trkpt><trkpt lat="35.0654258" lon="32.6093358"><ele>803.3</ele><time>2015-04-27T10:02:37.0000000+00:00</time></trkpt><trkpt lat="35.0654827" lon="32.6093376"><ele>802.5</ele><time>2015-04-27T10:02:39.0000000+00:00</time></trkpt><trkpt lat="35.0655392" lon="32.6093366"><ele>803.3</ele><time>2015-04-27T10:02:41.0000000+00:00</time></trkpt><trkpt lat="35.0655954" lon="32.6093448"><ele>803.8</ele><time>2015-04-27T10:02:43.0000000+00:00</time></trkpt><trkpt lat="35.0656495" lon="32.6093637"><ele>804.4</ele><time>2015-04-27T10:02:45.0000000+00:00</time></trkpt><trkpt lat="35.0656996" lon="32.609399"><ele>804.5</ele><time>2015-04-27T10:02:47.0000000+00:00</time></trkpt><trkpt lat="35.0657476" lon="32.6094416"><ele>805.1</ele><time>2015-04-27T10:02:49.0000000+00:00</time></trkpt><trkpt lat="35.0657975" lon="32.6094852"><ele>805.7</ele><time>2015-04-27T10:02:51.0000000+00:00</time></trkpt><trkpt lat="35.0658488" lon="32.6095301"><ele>805.9</ele><time>2015-04-27T10:02:53.0000000+00:00</time></trkpt><trkpt lat="35.065903" lon="32.6095699"><ele>806.4</ele><time>2015-04-27T10:02:55.0000000+00:00</time></trkpt><trkpt lat="35.0659604" lon="32.6096034"><ele>806.1</ele><time>2015-04-27T10:02:57.0000000+00:00</time></trkpt><trkpt lat="35.0660198" lon="32.6096311"><ele>806.2</ele><time>2015-04-27T10:02:59.0000000+00:00</time></trkpt><trkpt lat="35.0660772" lon="32.6096617"><ele>806.0</ele><time>2015-04-27T10:03:01.0000000+00:00</time></trkpt><trkpt lat="35.0661322" lon="32.6096994"><ele>805.9</ele><time>2015-04-27T10:03:03.0000000+00:00</time></trkpt><trkpt lat="35.06618" lon="32.6097505"><ele>805.9</ele><time>2015-04-27T10:03:05.0000000+00:00</time></trkpt><trkpt lat="35.0662229" lon="32.6098087"><ele>806.2</ele><time>2015-04-27T10:03:07.0000000+00:00</time></trkpt><trkpt lat="35.0662608" lon="32.6098705"><ele>806.7</ele><time>2015-04-27T10:03:09.0000000+00:00</time></trkpt><trkpt lat="35.0662958" lon="32.6099302"><ele>807.6</ele><time>2015-04-27T10:03:11.0000000+00:00</time></trkpt><trkpt lat="35.06632" lon="32.6099778"><ele>807.9</ele><time>2015-04-27T10:03:13.0000000+00:00</time></trkpt><trkpt lat="35.066351" lon="32.6100429"><ele>807.2</ele><time>2015-04-27T10:03:16.0000000+00:00</time></trkpt><trkpt lat="35.0663792" lon="32.610105"><ele>807.2</ele><time>2015-04-27T10:03:19.0000000+00:00</time></trkpt><trkpt lat="35.0664065" lon="32.6101612"><ele>806.9</ele><time>2015-04-27T10:03:23.0000000+00:00</time></trkpt><trkpt lat="35.0664165" lon="32.6102358"><ele>806.9</ele><time>2015-04-27T10:03:25.0000000+00:00</time></trkpt><trkpt lat="35.0664091" lon="32.6103153"><ele>806.7</ele><time>2015-04-27T10:03:27.0000000+00:00</time></trkpt><trkpt lat="35.0663954" lon="32.6103881"><ele>805.4</ele><time>2015-04-27T10:03:29.0000000+00:00</time></trkpt><trkpt lat="35.0663731" lon="32.6104567"><ele>805.5</ele><time>2015-04-27T10:03:31.0000000+00:00</time></trkpt><trkpt lat="35.066346" lon="32.6105234"><ele>806.3</ele><time>2015-04-27T10:03:33.0000000+00:00</time></trkpt><trkpt lat="35.0663176" lon="32.6105884"><ele>806.0</ele><time>2015-04-27T10:03:35.0000000+00:00</time></trkpt><trkpt lat="35.0662898" lon="32.6106501"><ele>806.7</ele><time>2015-04-27T10:03:37.0000000+00:00</time></trkpt><trkpt lat="35.0662651" lon="32.6107122"><ele>806.9</ele><time>2015-04-27T10:03:39.0000000+00:00</time></trkpt><trkpt lat="35.066246" lon="32.6107761"><ele>807.4</ele><time>2015-04-27T10:03:41.0000000+00:00</time></trkpt><trkpt lat="35.0662178" lon="32.6108351"><ele>807.1</ele><time>2015-04-27T10:03:43.0000000+00:00</time></trkpt><trkpt lat="35.0661893" lon="32.6108991"><ele>807.0</ele><time>2015-04-27T10:03:45.0000000+00:00</time></trkpt><trkpt lat="35.0661655" lon="32.6109846"><ele>806.9</ele><time>2015-04-27T10:03:47.0000000+00:00</time></trkpt><trkpt lat="35.0661722" lon="32.6110693"><ele>806.4</ele><time>2015-04-27T10:03:49.0000000+00:00</time></trkpt><trkpt lat="35.0662105" lon="32.6111394"><ele>806.1</ele><time>2015-04-27T10:03:51.0000000+00:00</time></trkpt><trkpt lat="35.0662567" lon="32.6111763"><ele>806.7</ele><time>2015-04-27T10:03:53.0000000+00:00</time></trkpt><trkpt lat="35.0663032" lon="32.6111858"><ele>806.9</ele><time>2015-04-27T10:03:55.0000000+00:00</time></trkpt><trkpt lat="35.0663668" lon="32.6111926"><ele>806.8</ele><time>2015-04-27T10:03:58.0000000+00:00</time></trkpt><trkpt lat="35.0664124" lon="32.611199"><ele>806.9</ele><time>2015-04-27T10:04:00.0000000+00:00</time></trkpt><trkpt lat="35.0664582" lon="32.6112386"><ele>806.9</ele><time>2015-04-27T10:04:02.0000000+00:00</time></trkpt><trkpt lat="35.0664972" lon="32.6112964"><ele>806.9</ele><time>2015-04-27T10:04:04.0000000+00:00</time></trkpt><trkpt lat="35.0665397" lon="32.6113552"><ele>806.9</ele><time>2015-04-27T10:04:06.0000000+00:00</time></trkpt><trkpt lat="35.066576" lon="32.6114238"><ele>806.9</ele><time>2015-04-27T10:04:08.0000000+00:00</time></trkpt><trkpt lat="35.06659" lon="32.6115071"><ele>806.2</ele><time>2015-04-27T10:04:10.0000000+00:00</time></trkpt><trkpt lat="35.0666" lon="32.6115841"><ele>806.5</ele><time>2015-04-27T10:04:12.0000000+00:00</time></trkpt><trkpt lat="35.0666213" lon="32.6116469"><ele>806.8</ele><time>2015-04-27T10:04:14.0000000+00:00</time></trkpt><trkpt lat="35.0666468" lon="32.6117114"><ele>807.4</ele><time>2015-04-27T10:04:16.0000000+00:00</time></trkpt><trkpt lat="35.0666853" lon="32.6117659"><ele>807.8</ele><time>2015-04-27T10:04:18.0000000+00:00</time></trkpt><trkpt lat="35.0667252" lon="32.6117987"><ele>808.6</ele><time>2015-04-27T10:04:20.0000000+00:00</time></trkpt><trkpt lat="35.066785" lon="32.6118204"><ele>808.9</ele><time>2015-04-27T10:04:23.0000000+00:00</time></trkpt><trkpt lat="35.0668399" lon="32.6118177"><ele>810.3</ele><time>2015-04-27T10:04:26.0000000+00:00</time></trkpt><trkpt lat="35.0668889" lon="32.6118046"><ele>811.4</ele><time>2015-04-27T10:04:29.0000000+00:00</time></trkpt><trkpt lat="35.0669366" lon="32.6117896"><ele>812.6</ele><time>2015-04-27T10:04:32.0000000+00:00</time></trkpt><trkpt lat="35.0669832" lon="32.6117731"><ele>813.8</ele><time>2015-04-27T10:04:35.0000000+00:00</time></trkpt><trkpt lat="35.0670277" lon="32.61176"><ele>814.8</ele><time>2015-04-27T10:04:38.0000000+00:00</time></trkpt><trkpt lat="35.0670727" lon="32.6117582"><ele>814.9</ele><time>2015-04-27T10:04:41.0000000+00:00</time></trkpt><trkpt lat="35.0671323" lon="32.6117675"><ele>815.8</ele><time>2015-04-27T10:04:45.0000000+00:00</time></trkpt><trkpt lat="35.0671842" lon="32.6117906"><ele>815.9</ele><time>2015-04-27T10:04:49.0000000+00:00</time></trkpt><trkpt lat="35.0672361" lon="32.6118255"><ele>815.9</ele><time>2015-04-27T10:04:53.0000000+00:00</time></trkpt><trkpt lat="35.0672733" lon="32.6118652"><ele>815.9</ele><time>2015-04-27T10:04:56.0000000+00:00</time></trkpt><trkpt lat="35.0672996" lon="32.6119277"><ele>815.2</ele><time>2015-04-27T10:04:59.0000000+00:00</time></trkpt><trkpt lat="35.0673071" lon="32.6119983"><ele>815.0</ele><time>2015-04-27T10:05:02.0000000+00:00</time></trkpt><trkpt lat="35.0672886" lon="32.6120693"><ele>814.1</ele><time>2015-04-27T10:05:05.0000000+00:00</time></trkpt><trkpt lat="35.0672521" lon="32.6121466"><ele>813.2</ele><time>2015-04-27T10:05:07.0000000+00:00</time></trkpt><trkpt lat="35.0672333" lon="32.612199"><ele>813.1</ele><time>2015-04-27T10:05:08.0000000+00:00</time></trkpt><trkpt lat="35.0672158" lon="32.6122562"><ele>812.5</ele><time>2015-04-27T10:05:09.0000000+00:00</time></trkpt><trkpt lat="35.067195" lon="32.6123354"><ele>811.7</ele><time>2015-04-27T10:05:10.0000000+00:00</time></trkpt><trkpt lat="35.0671653" lon="32.6124044"><ele>810.8</ele><time>2015-04-27T10:05:11.0000000+00:00</time></trkpt><trkpt lat="35.0671374" lon="32.6124609"><ele>810.9</ele><time>2015-04-27T10:05:12.0000000+00:00</time></trkpt><trkpt lat="35.0671064" lon="32.6125116"><ele>810.9</ele><time>2015-04-27T10:05:13.0000000+00:00</time></trkpt><trkpt lat="35.067062" lon="32.6125677"><ele>810.4</ele><time>2015-04-27T10:05:14.0000000+00:00</time></trkpt><trkpt lat="35.0670265" lon="32.6126285"><ele>809.7</ele><time>2015-04-27T10:05:15.0000000+00:00</time></trkpt><trkpt lat="35.0670117" lon="32.612695"><ele>809.3</ele><time>2015-04-27T10:05:16.0000000+00:00</time></trkpt><trkpt lat="35.0669877" lon="32.6127585"><ele>808.6</ele><time>2015-04-27T10:05:17.0000000+00:00</time></trkpt><trkpt lat="35.0669816" lon="32.6128231"><ele>808.3</ele><time>2015-04-27T10:05:18.0000000+00:00</time></trkpt><trkpt lat="35.0669681" lon="32.6128851"><ele>808.1</ele><time>2015-04-27T10:05:19.0000000+00:00</time></trkpt><trkpt lat="35.0669544" lon="32.61294"><ele>808.5</ele><time>2015-04-27T10:05:20.0000000+00:00</time></trkpt><trkpt lat="35.0669433" lon="32.6130438"><ele>810.6</ele><time>2015-04-27T10:05:22.0000000+00:00</time></trkpt><trkpt lat="35.0669256" lon="32.6131426"><ele>811.6</ele><time>2015-04-27T10:05:24.0000000+00:00</time></trkpt><trkpt lat="35.0669264" lon="32.6132461"><ele>811.8</ele><time>2015-04-27T10:05:26.0000000+00:00</time></trkpt><trkpt lat="35.0669468" lon="32.6133328"><ele>811.9</ele><time>2015-04-27T10:05:28.0000000+00:00</time></trkpt><trkpt lat="35.0669897" lon="32.6134177"><ele>812.7</ele><time>2015-04-27T10:05:30.0000000+00:00</time></trkpt><trkpt lat="35.0670403" lon="32.613502"><ele>813.4</ele><time>2015-04-27T10:05:32.0000000+00:00</time></trkpt><trkpt lat="35.0670952" lon="32.6135807"><ele>813.8</ele><time>2015-04-27T10:05:34.0000000+00:00</time></trkpt><trkpt lat="35.0671692" lon="32.6136412"><ele>813.1</ele><time>2015-04-27T10:05:36.0000000+00:00</time></trkpt><trkpt lat="35.067238" lon="32.6136293"><ele>813.0</ele><time>2015-04-27T10:05:37.0000000+00:00</time></trkpt><trkpt lat="35.0672881" lon="32.6136254"><ele>813.5</ele><time>2015-04-27T10:05:38.0000000+00:00</time></trkpt><trkpt lat="35.0673403" lon="32.6136168"><ele>813.7</ele><time>2015-04-27T10:05:39.0000000+00:00</time></trkpt><trkpt lat="35.0673873" lon="32.6136244"><ele>813.8</ele><time>2015-04-27T10:05:40.0000000+00:00</time></trkpt><trkpt lat="35.0674666" lon="32.6136513"><ele>813.7</ele><time>2015-04-27T10:05:42.0000000+00:00</time></trkpt><trkpt lat="35.0675258" lon="32.6137159"><ele>813.6</ele><time>2015-04-27T10:05:44.0000000+00:00</time></trkpt><trkpt lat="35.0675613" lon="32.613793"><ele>814.6</ele><time>2015-04-27T10:05:46.0000000+00:00</time></trkpt><trkpt lat="35.067604" lon="32.6138784"><ele>814.8</ele><time>2015-04-27T10:05:48.0000000+00:00</time></trkpt><trkpt lat="35.0676802" lon="32.6139384"><ele>814.7</ele><time>2015-04-27T10:05:50.0000000+00:00</time></trkpt><trkpt lat="35.0677266" lon="32.6139644"><ele>814.8</ele><time>2015-04-27T10:05:51.0000000+00:00</time></trkpt><trkpt lat="35.067789" lon="32.6139493"><ele>814.9</ele><time>2015-04-27T10:05:53.0000000+00:00</time></trkpt><trkpt lat="35.0678557" lon="32.6139263"><ele>814.9</ele><time>2015-04-27T10:05:55.0000000+00:00</time></trkpt><trkpt lat="35.0679211" lon="32.6138944"><ele>814.9</ele><time>2015-04-27T10:05:57.0000000+00:00</time></trkpt><trkpt lat="35.067965" lon="32.6138789"><ele>815.4</ele><time>2015-04-27T10:05:58.0000000+00:00</time></trkpt><trkpt lat="35.0680388" lon="32.6138658"><ele>815.1</ele><time>2015-04-27T10:06:00.0000000+00:00</time></trkpt><trkpt lat="35.0681156" lon="32.6138948"><ele>815.0</ele><time>2015-04-27T10:06:02.0000000+00:00</time></trkpt><trkpt lat="35.0681747" lon="32.6139562"><ele>814.9</ele><time>2015-04-27T10:06:04.0000000+00:00</time></trkpt><trkpt lat="35.0682028" lon="32.6140296"><ele>814.9</ele><time>2015-04-27T10:06:06.0000000+00:00</time></trkpt><trkpt lat="35.0681892" lon="32.614103"><ele>814.9</ele><time>2015-04-27T10:06:08.0000000+00:00</time></trkpt><trkpt lat="35.068158" lon="32.6141704"><ele>816.4</ele><time>2015-04-27T10:06:10.0000000+00:00</time></trkpt><trkpt lat="35.0681218" lon="32.6142344"><ele>816.8</ele><time>2015-04-27T10:06:12.0000000+00:00</time></trkpt><trkpt lat="35.0680798" lon="32.6142978"><ele>816.9</ele><time>2015-04-27T10:06:14.0000000+00:00</time></trkpt><trkpt lat="35.0680376" lon="32.6143647"><ele>816.7</ele><time>2015-04-27T10:06:16.0000000+00:00</time></trkpt><trkpt lat="35.0679971" lon="32.6144302"><ele>816.1</ele><time>2015-04-27T10:06:18.0000000+00:00</time></trkpt><trkpt lat="35.067956" lon="32.614495"><ele>816.0</ele><time>2015-04-27T10:06:20.0000000+00:00</time></trkpt><trkpt lat="35.0679126" lon="32.6145598"><ele>816.2</ele><time>2015-04-27T10:06:22.0000000+00:00</time></trkpt><trkpt lat="35.067871" lon="32.6146234"><ele>816.0</ele><time>2015-04-27T10:06:24.0000000+00:00</time></trkpt><trkpt lat="35.067838" lon="32.6146828"><ele>815.7</ele><time>2015-04-27T10:06:26.0000000+00:00</time></trkpt><trkpt lat="35.067821" lon="32.6147452"><ele>815.9</ele><time>2015-04-27T10:06:29.0000000+00:00</time></trkpt><trkpt lat="35.0678168" lon="32.614838"><ele>815.6</ele><time>2015-04-27T10:06:32.0000000+00:00</time></trkpt><trkpt lat="35.0678232" lon="32.614917"><ele>815.6</ele><time>2015-04-27T10:06:34.0000000+00:00</time></trkpt><trkpt lat="35.0678351" lon="32.6149878"><ele>816.3</ele><time>2015-04-27T10:06:36.0000000+00:00</time></trkpt><trkpt lat="35.0678462" lon="32.6150531"><ele>816.8</ele><time>2015-04-27T10:06:38.0000000+00:00</time></trkpt><trkpt lat="35.0678491" lon="32.6151151"><ele>816.3</ele><time>2015-04-27T10:06:41.0000000+00:00</time></trkpt><trkpt lat="35.0678547" lon="32.6151717"><ele>816.7</ele><time>2015-04-27T10:06:44.0000000+00:00</time></trkpt><trkpt lat="35.0678628" lon="32.6152287"><ele>816.9</ele><time>2015-04-27T10:06:47.0000000+00:00</time></trkpt><trkpt lat="35.067836" lon="32.615286"><ele>815.6</ele><time>2015-04-27T10:06:51.0000000+00:00</time></trkpt><trkpt lat="35.0677857" lon="32.6152857"><ele>815.6</ele><time>2015-04-27T10:06:54.0000000+00:00</time></trkpt><trkpt lat="35.0677334" lon="32.6152555"><ele>815.3</ele><time>2015-04-27T10:06:57.0000000+00:00</time></trkpt><trkpt lat="35.0676924" lon="32.6152315"><ele>818.4</ele><time>2015-04-27T10:07:15.0000000+00:00</time></trkpt><trkpt lat="35.0676505" lon="32.6152055"><ele>819.8</ele><time>2015-04-27T10:19:16.0000000+00:00</time></trkpt><trkpt lat="35.0676018" lon="32.6152016"><ele>819.4</ele><time>2015-04-27T10:22:11.0000000+00:00</time></trkpt><trkpt lat="35.0675568" lon="32.6152115"><ele>819.3</ele><time>2015-04-27T10:22:15.0000000+00:00</time></trkpt><trkpt lat="35.0675014" lon="32.6152051"><ele>819.0</ele><time>2015-04-27T10:22:19.0000000+00:00</time></trkpt><trkpt lat="35.067447" lon="32.615211"><ele>818.5</ele><time>2015-04-27T10:22:23.0000000+00:00</time></trkpt><trkpt lat="35.067396" lon="32.6152144"><ele>820.2</ele><time>2015-04-27T10:22:27.0000000+00:00</time></trkpt><trkpt lat="35.0673517" lon="32.615247"><ele>821.0</ele><time>2015-04-27T10:22:32.0000000+00:00</time></trkpt><trkpt lat="35.0673112" lon="32.6152759"><ele>820.7</ele><time>2015-04-27T10:22:37.0000000+00:00</time></trkpt><trkpt lat="35.0672566" lon="32.6152765"><ele>821.4</ele><time>2015-04-27T10:22:42.0000000+00:00</time></trkpt><trkpt lat="35.0672065" lon="32.615263"><ele>822.8</ele><time>2015-04-27T10:22:46.0000000+00:00</time></trkpt><trkpt lat="35.0671543" lon="32.6152679"><ele>823.0</ele><time>2015-04-27T10:22:50.0000000+00:00</time></trkpt><trkpt lat="35.0671026" lon="32.6152519"><ele>823.7</ele><time>2015-04-27T10:22:54.0000000+00:00</time></trkpt><trkpt lat="35.0670591" lon="32.6152133"><ele>824.9</ele><time>2015-04-27T10:22:58.0000000+00:00</time></trkpt><trkpt lat="35.0670285" lon="32.6151712"><ele>824.9</ele><time>2015-04-27T10:23:02.0000000+00:00</time></trkpt><trkpt lat="35.0670114" lon="32.6151081"><ele>824.5</ele><time>2015-04-27T10:23:07.0000000+00:00</time></trkpt><trkpt lat="35.0669942" lon="32.6150453"><ele>824.0</ele><time>2015-04-27T10:23:12.0000000+00:00</time></trkpt><trkpt lat="35.0669936" lon="32.6149757"><ele>824.2</ele><time>2015-04-27T10:23:17.0000000+00:00</time></trkpt><trkpt lat="35.0669917" lon="32.6149064"><ele>824.4</ele><time>2015-04-27T10:23:21.0000000+00:00</time></trkpt><trkpt lat="35.0669916" lon="32.6148468"><ele>824.2</ele><time>2015-04-27T10:23:24.0000000+00:00</time></trkpt><trkpt lat="35.0669745" lon="32.614791"><ele>823.8</ele><time>2015-04-27T10:23:27.0000000+00:00</time></trkpt><trkpt lat="35.0669619" lon="32.6147309"><ele>823.9</ele><time>2015-04-27T10:23:30.0000000+00:00</time></trkpt><trkpt lat="35.0669512" lon="32.6146706"><ele>823.8</ele><time>2015-04-27T10:23:33.0000000+00:00</time></trkpt><trkpt lat="35.0669382" lon="32.6146114"><ele>823.3</ele><time>2015-04-27T10:23:36.0000000+00:00</time></trkpt><trkpt lat="35.0669058" lon="32.6145503"><ele>823.5</ele><time>2015-04-27T10:23:39.0000000+00:00</time></trkpt><trkpt lat="35.0668728" lon="32.6145097"><ele>824.6</ele><time>2015-04-27T10:23:41.0000000+00:00</time></trkpt><trkpt lat="35.0668336" lon="32.6144656"><ele>824.8</ele><time>2015-04-27T10:23:43.0000000+00:00</time></trkpt><trkpt lat="35.0667918" lon="32.6144263"><ele>825.2</ele><time>2015-04-27T10:23:45.0000000+00:00</time></trkpt><trkpt lat="35.0667527" lon="32.6143864"><ele>825.5</ele><time>2015-04-27T10:23:47.0000000+00:00</time></trkpt><trkpt lat="35.0667172" lon="32.6143487"><ele>825.1</ele><time>2015-04-27T10:23:49.0000000+00:00</time></trkpt><trkpt lat="35.0666818" lon="32.6143106"><ele>825.5</ele><time>2015-04-27T10:23:51.0000000+00:00</time></trkpt><trkpt lat="35.0666393" lon="32.6142794"><ele>825.1</ele><time>2015-04-27T10:23:53.0000000+00:00</time></trkpt><trkpt lat="35.0665968" lon="32.614247"><ele>825.7</ele><time>2015-04-27T10:23:55.0000000+00:00</time></trkpt><trkpt lat="35.0665559" lon="32.614212"><ele>825.9</ele><time>2015-04-27T10:23:57.0000000+00:00</time></trkpt><trkpt lat="35.0665168" lon="32.6141794"><ele>825.9</ele><time>2015-04-27T10:23:59.0000000+00:00</time></trkpt><trkpt lat="35.0664736" lon="32.6141536"><ele>827.2</ele><time>2015-04-27T10:24:01.0000000+00:00</time></trkpt><trkpt lat="35.0664305" lon="32.6141315"><ele>828.2</ele><time>2015-04-27T10:24:03.0000000+00:00</time></trkpt><trkpt lat="35.066386" lon="32.6141078"><ele>828.5</ele><time>2015-04-27T10:24:05.0000000+00:00</time></trkpt><trkpt lat="35.0663461" lon="32.6140802"><ele>828.6</ele><time>2015-04-27T10:24:07.0000000+00:00</time></trkpt><trkpt lat="35.0663" lon="32.6140325"><ele>829.4</ele><time>2015-04-27T10:24:10.0000000+00:00</time></trkpt><trkpt lat="35.0662567" lon="32.6139983"><ele>828.6</ele><time>2015-04-27T10:24:13.0000000+00:00</time></trkpt><trkpt lat="35.0662237" lon="32.6139383"><ele>826.3</ele><time>2015-04-27T10:24:17.0000000+00:00</time></trkpt><trkpt lat="35.0662049" lon="32.6138703"><ele>830.1</ele><time>2015-04-27T10:24:20.0000000+00:00</time></trkpt><trkpt lat="35.0661849" lon="32.61381"><ele>832.5</ele><time>2015-04-27T10:24:23.0000000+00:00</time></trkpt><trkpt lat="35.0661826" lon="32.6137425"><ele>831.6</ele><time>2015-04-27T10:24:26.0000000+00:00</time></trkpt><trkpt lat="35.0661906" lon="32.6136696"><ele>830.6</ele><time>2015-04-27T10:24:29.0000000+00:00</time></trkpt><trkpt lat="35.0661869" lon="32.6135901"><ele>830.1</ele><time>2015-04-27T10:24:32.0000000+00:00</time></trkpt><trkpt lat="35.0661789" lon="32.6135105"><ele>830.5</ele><time>2015-04-27T10:24:35.0000000+00:00</time></trkpt><trkpt lat="35.0661642" lon="32.6134353"><ele>830.9</ele><time>2015-04-27T10:24:38.0000000+00:00</time></trkpt><trkpt lat="35.0661592" lon="32.6133644"><ele>830.4</ele><time>2015-04-27T10:24:41.0000000+00:00</time></trkpt><trkpt lat="35.0661351" lon="32.6133072"><ele>832.2</ele><time>2015-04-27T10:24:44.0000000+00:00</time></trkpt><trkpt lat="35.0660883" lon="32.6132798"><ele>832.5</ele><time>2015-04-27T10:24:47.0000000+00:00</time></trkpt><trkpt lat="35.0660317" lon="32.6133076"><ele>833.9</ele><time>2015-04-27T10:24:50.0000000+00:00</time></trkpt><trkpt lat="35.0659819" lon="32.6133547"><ele>834.5</ele><time>2015-04-27T10:24:53.0000000+00:00</time></trkpt><trkpt lat="35.0659346" lon="32.6133957"><ele>837.0</ele><time>2015-04-27T10:24:56.0000000+00:00</time></trkpt><trkpt lat="35.0658966" lon="32.6134422"><ele>838.7</ele><time>2015-04-27T10:24:59.0000000+00:00</time></trkpt><trkpt lat="35.065857" lon="32.6134863"><ele>839.0</ele><time>2015-04-27T10:25:02.0000000+00:00</time></trkpt><trkpt lat="35.0658115" lon="32.6135148"><ele>839.7</ele><time>2015-04-27T10:25:05.0000000+00:00</time></trkpt><trkpt lat="35.0657664" lon="32.6135261"><ele>839.4</ele><time>2015-04-27T10:25:08.0000000+00:00</time></trkpt><trkpt lat="35.0657164" lon="32.6135443"><ele>838.7</ele><time>2015-04-27T10:25:13.0000000+00:00</time></trkpt><trkpt lat="35.0656692" lon="32.6135586"><ele>839.1</ele><time>2015-04-27T10:25:17.0000000+00:00</time></trkpt><trkpt lat="35.0656228" lon="32.6135684"><ele>839.2</ele><time>2015-04-27T10:25:20.0000000+00:00</time></trkpt><trkpt lat="35.0655742" lon="32.6135873"><ele>839.7</ele><time>2015-04-27T10:25:23.0000000+00:00</time></trkpt><trkpt lat="35.0655258" lon="32.6136022"><ele>838.7</ele><time>2015-04-27T10:25:26.0000000+00:00</time></trkpt><trkpt lat="35.0654733" lon="32.6136119"><ele>839.3</ele><time>2015-04-27T10:25:29.0000000+00:00</time></trkpt><trkpt lat="35.0654213" lon="32.6136184"><ele>839.3</ele><time>2015-04-27T10:25:32.0000000+00:00</time></trkpt><trkpt lat="35.0653706" lon="32.6136221"><ele>839.0</ele><time>2015-04-27T10:25:35.0000000+00:00</time></trkpt><trkpt lat="35.0653208" lon="32.6136202"><ele>837.7</ele><time>2015-04-27T10:25:38.0000000+00:00</time></trkpt><trkpt lat="35.0652778" lon="32.6136412"><ele>837.0</ele><time>2015-04-27T10:25:41.0000000+00:00</time></trkpt><trkpt lat="35.0652374" lon="32.6136704"><ele>838.2</ele><time>2015-04-27T10:25:44.0000000+00:00</time></trkpt><trkpt lat="35.0651967" lon="32.6137238"><ele>839.9</ele><time>2015-04-27T10:25:48.0000000+00:00</time></trkpt><trkpt lat="35.0651813" lon="32.6137884"><ele>841.5</ele><time>2015-04-27T10:25:51.0000000+00:00</time></trkpt><trkpt lat="35.0651521" lon="32.6138388"><ele>842.8</ele><time>2015-04-27T10:25:54.0000000+00:00</time></trkpt><trkpt lat="35.0651123" lon="32.6138645"><ele>844.8</ele><time>2015-04-27T10:25:57.0000000+00:00</time></trkpt><trkpt lat="35.0650686" lon="32.6138895"><ele>846.7</ele><time>2015-04-27T10:26:00.0000000+00:00</time></trkpt><trkpt lat="35.065025" lon="32.6139119"><ele>847.6</ele><time>2015-04-27T10:26:03.0000000+00:00</time></trkpt><trkpt lat="35.064982" lon="32.6139317"><ele>848.8</ele><time>2015-04-27T10:26:06.0000000+00:00</time></trkpt><trkpt lat="35.0649377" lon="32.6139576"><ele>847.5</ele><time>2015-04-27T10:26:09.0000000+00:00</time></trkpt><trkpt lat="35.0648922" lon="32.6139937"><ele>847.5</ele><time>2015-04-27T10:26:12.0000000+00:00</time></trkpt><trkpt lat="35.0648646" lon="32.6140428"><ele>849.6</ele><time>2015-04-27T10:26:15.0000000+00:00</time></trkpt><trkpt lat="35.0648607" lon="32.6141182"><ele>849.1</ele><time>2015-04-27T10:26:18.0000000+00:00</time></trkpt><trkpt lat="35.0648447" lon="32.6141883"><ele>848.5</ele><time>2015-04-27T10:26:21.0000000+00:00</time></trkpt><trkpt lat="35.0648099" lon="32.6142308"><ele>846.8</ele><time>2015-04-27T10:26:23.0000000+00:00</time></trkpt><trkpt lat="35.0647805" lon="32.6142758"><ele>845.4</ele><time>2015-04-27T10:26:25.0000000+00:00</time></trkpt><trkpt lat="35.0647522" lon="32.6143212"><ele>845.0</ele><time>2015-04-27T10:26:27.0000000+00:00</time></trkpt><trkpt lat="35.0647182" lon="32.6143689"><ele>844.2</ele><time>2015-04-27T10:26:29.0000000+00:00</time></trkpt><trkpt lat="35.0646829" lon="32.6144115"><ele>844.7</ele><time>2015-04-27T10:26:31.0000000+00:00</time></trkpt><trkpt lat="35.0646431" lon="32.6144729"><ele>846.5</ele><time>2015-04-27T10:26:34.0000000+00:00</time></trkpt><trkpt lat="35.0646064" lon="32.6145362"><ele>847.1</ele><time>2015-04-27T10:26:37.0000000+00:00</time></trkpt><trkpt lat="35.0645738" lon="32.6145994"><ele>848.3</ele><time>2015-04-27T10:26:40.0000000+00:00</time></trkpt><trkpt lat="35.0645498" lon="32.6146574"><ele>848.7</ele><time>2015-04-27T10:26:43.0000000+00:00</time></trkpt><trkpt lat="35.0645322" lon="32.6147137"><ele>848.9</ele><time>2015-04-27T10:26:46.0000000+00:00</time></trkpt><trkpt lat="35.0645066" lon="32.6147736"><ele>851.2</ele><time>2015-04-27T10:26:50.0000000+00:00</time></trkpt><trkpt lat="35.0644612" lon="32.6148211"><ele>851.8</ele><time>2015-04-27T10:26:54.0000000+00:00</time></trkpt><trkpt lat="35.0644174" lon="32.6148546"><ele>852.9</ele><time>2015-04-27T10:26:57.0000000+00:00</time></trkpt><trkpt lat="35.0643791" lon="32.614885"><ele>852.1</ele><time>2015-04-27T10:27:00.0000000+00:00</time></trkpt><trkpt lat="35.0643332" lon="32.6149088"><ele>851.8</ele><time>2015-04-27T10:27:03.0000000+00:00</time></trkpt><trkpt lat="35.0642776" lon="32.6149129"><ele>850.3</ele><time>2015-04-27T10:27:06.0000000+00:00</time></trkpt><trkpt lat="35.0642248" lon="32.614916"><ele>849.6</ele><time>2015-04-27T10:27:09.0000000+00:00</time></trkpt><trkpt lat="35.0641778" lon="32.614928"><ele>849.0</ele><time>2015-04-27T10:27:12.0000000+00:00</time></trkpt><trkpt lat="35.0641306" lon="32.6149378"><ele>849.7</ele><time>2015-04-27T10:27:15.0000000+00:00</time></trkpt><trkpt lat="35.0640803" lon="32.6149298"><ele>849.7</ele><time>2015-04-27T10:27:18.0000000+00:00</time></trkpt><trkpt lat="35.0640329" lon="32.6149127"><ele>850.1</ele><time>2015-04-27T10:27:21.0000000+00:00</time></trkpt><trkpt lat="35.0639806" lon="32.6149101"><ele>850.7</ele><time>2015-04-27T10:27:24.0000000+00:00</time></trkpt><trkpt lat="35.0639251" lon="32.6149024"><ele>850.4</ele><time>2015-04-27T10:27:27.0000000+00:00</time></trkpt><trkpt lat="35.0638722" lon="32.6148874"><ele>850.6</ele><time>2015-04-27T10:27:30.0000000+00:00</time></trkpt><trkpt lat="35.0638193" lon="32.6148777"><ele>850.9</ele><time>2015-04-27T10:27:33.0000000+00:00</time></trkpt><trkpt lat="35.0637638" lon="32.614891"><ele>851.7</ele><time>2015-04-27T10:27:36.0000000+00:00</time></trkpt><trkpt lat="35.0637087" lon="32.6149117"><ele>851.5</ele><time>2015-04-27T10:27:39.0000000+00:00</time></trkpt><trkpt lat="35.0636582" lon="32.6149345"><ele>852.9</ele><time>2015-04-27T10:27:42.0000000+00:00</time></trkpt><trkpt lat="35.06361" lon="32.614945"><ele>850.5</ele><time>2015-04-27T10:27:45.0000000+00:00</time></trkpt><trkpt lat="35.0635585" lon="32.6149543"><ele>850.4</ele><time>2015-04-27T10:27:48.0000000+00:00</time></trkpt><trkpt lat="35.0635022" lon="32.6149605"><ele>853.0</ele><time>2015-04-27T10:27:51.0000000+00:00</time></trkpt><trkpt lat="35.0634454" lon="32.6149513"><ele>855.6</ele><time>2015-04-27T10:27:54.0000000+00:00</time></trkpt><trkpt lat="35.0633888" lon="32.6149289"><ele>856.6</ele><time>2015-04-27T10:27:57.0000000+00:00</time></trkpt><trkpt lat="35.0633346" lon="32.6148902"><ele>856.6</ele><time>2015-04-27T10:28:00.0000000+00:00</time></trkpt><trkpt lat="35.0632871" lon="32.614835"><ele>856.1</ele><time>2015-04-27T10:28:03.0000000+00:00</time></trkpt><trkpt lat="35.0632475" lon="32.6147808"><ele>855.1</ele><time>2015-04-27T10:28:06.0000000+00:00</time></trkpt><trkpt lat="35.0632006" lon="32.6147321"><ele>855.8</ele><time>2015-04-27T10:28:09.0000000+00:00</time></trkpt><trkpt lat="35.0631552" lon="32.6146874"><ele>855.0</ele><time>2015-04-27T10:28:12.0000000+00:00</time></trkpt><trkpt lat="35.0631004" lon="32.614655"><ele>856.4</ele><time>2015-04-27T10:28:15.0000000+00:00</time></trkpt><trkpt lat="35.0630498" lon="32.6146496"><ele>857.3</ele><time>2015-04-27T10:28:17.0000000+00:00</time></trkpt><trkpt lat="35.0630057" lon="32.6146341"><ele>858.0</ele><time>2015-04-27T10:28:19.0000000+00:00</time></trkpt><trkpt lat="35.0629433" lon="32.614614"><ele>859.4</ele><time>2015-04-27T10:28:22.0000000+00:00</time></trkpt><trkpt lat="35.062885" lon="32.614594"><ele>859.9</ele><time>2015-04-27T10:28:25.0000000+00:00</time></trkpt><trkpt lat="35.0628285" lon="32.6146034"><ele>861.9</ele><time>2015-04-27T10:28:28.0000000+00:00</time></trkpt><trkpt lat="35.0627811" lon="32.614654"><ele>864.4</ele><time>2015-04-27T10:28:31.0000000+00:00</time></trkpt><trkpt lat="35.0627574" lon="32.614716"><ele>865.6</ele><time>2015-04-27T10:28:34.0000000+00:00</time></trkpt><trkpt lat="35.0627553" lon="32.6147787"><ele>866.8</ele><time>2015-04-27T10:28:37.0000000+00:00</time></trkpt><trkpt lat="35.062793" lon="32.6148226"><ele>868.0</ele><time>2015-04-27T10:28:40.0000000+00:00</time></trkpt><trkpt lat="35.06282" lon="32.6148677"><ele>868.7</ele><time>2015-04-27T10:28:43.0000000+00:00</time></trkpt><trkpt lat="35.0628549" lon="32.6149156"><ele>868.5</ele><time>2015-04-27T10:28:46.0000000+00:00</time></trkpt><trkpt lat="35.0628725" lon="32.61497"><ele>868.0</ele><time>2015-04-27T10:28:49.0000000+00:00</time></trkpt><trkpt lat="35.0628987" lon="32.6150208"><ele>867.9</ele><time>2015-04-27T10:28:52.0000000+00:00</time></trkpt><trkpt lat="35.0629345" lon="32.615069"><ele>867.9</ele><time>2015-04-27T10:28:55.0000000+00:00</time></trkpt><trkpt lat="35.0629512" lon="32.6151244"><ele>867.2</ele><time>2015-04-27T10:28:58.0000000+00:00</time></trkpt><trkpt lat="35.0629572" lon="32.6151846"><ele>867.0</ele><time>2015-04-27T10:29:01.0000000+00:00</time></trkpt><trkpt lat="35.0629501" lon="32.6152495"><ele>867.3</ele><time>2015-04-27T10:29:04.0000000+00:00</time></trkpt><trkpt lat="35.0629344" lon="32.6153095"><ele>867.7</ele><time>2015-04-27T10:29:07.0000000+00:00</time></trkpt><trkpt lat="35.062907" lon="32.6153717"><ele>867.4</ele><time>2015-04-27T10:29:11.0000000+00:00</time></trkpt><trkpt lat="35.0629043" lon="32.6154278"><ele>867.0</ele><time>2015-04-27T10:29:14.0000000+00:00</time></trkpt><trkpt lat="35.062907" lon="32.6154908"><ele>865.7</ele><time>2015-04-27T10:29:17.0000000+00:00</time></trkpt><trkpt lat="35.0629016" lon="32.6155525"><ele>865.1</ele><time>2015-04-27T10:29:20.0000000+00:00</time></trkpt><trkpt lat="35.0629099" lon="32.6156109"><ele>864.5</ele><time>2015-04-27T10:29:23.0000000+00:00</time></trkpt><trkpt lat="35.0629214" lon="32.6156686"><ele>863.7</ele><time>2015-04-27T10:29:26.0000000+00:00</time></trkpt><trkpt lat="35.0629589" lon="32.6157016"><ele>864.9</ele><time>2015-04-27T10:29:29.0000000+00:00</time></trkpt><trkpt lat="35.0630141" lon="32.6157078"><ele>864.9</ele><time>2015-04-27T10:29:32.0000000+00:00</time></trkpt><trkpt lat="35.0630619" lon="32.6157028"><ele>864.8</ele><time>2015-04-27T10:29:35.0000000+00:00</time></trkpt><trkpt lat="35.0631214" lon="32.6157034"><ele>865.0</ele><time>2015-04-27T10:29:39.0000000+00:00</time></trkpt><trkpt lat="35.0631668" lon="32.6157164"><ele>864.8</ele><time>2015-04-27T10:29:42.0000000+00:00</time></trkpt><trkpt lat="35.0632205" lon="32.6157284"><ele>864.9</ele><time>2015-04-27T10:29:46.0000000+00:00</time></trkpt><trkpt lat="35.0632761" lon="32.6157408"><ele>863.8</ele><time>2015-04-27T10:29:49.0000000+00:00</time></trkpt><trkpt lat="35.0633279" lon="32.6157656"><ele>863.4</ele><time>2015-04-27T10:29:52.0000000+00:00</time></trkpt><trkpt lat="35.0633805" lon="32.6157823"><ele>865.2</ele><time>2015-04-27T10:29:55.0000000+00:00</time></trkpt><trkpt lat="35.063432" lon="32.6158109"><ele>863.7</ele><time>2015-04-27T10:29:58.0000000+00:00</time></trkpt><trkpt lat="35.0634888" lon="32.6158539"><ele>862.8</ele><time>2015-04-27T10:30:01.0000000+00:00</time></trkpt><trkpt lat="35.0635357" lon="32.6159019"><ele>865.0</ele><time>2015-04-27T10:30:04.0000000+00:00</time></trkpt><trkpt lat="35.0635834" lon="32.615957"><ele>866.4</ele><time>2015-04-27T10:30:07.0000000+00:00</time></trkpt><trkpt lat="35.0636138" lon="32.6159983"><ele>867.6</ele><time>2015-04-27T10:30:09.0000000+00:00</time></trkpt><trkpt lat="35.0636421" lon="32.6160663"><ele>867.9</ele><time>2015-04-27T10:30:12.0000000+00:00</time></trkpt><trkpt lat="35.0636548" lon="32.6161454"><ele>867.8</ele><time>2015-04-27T10:30:15.0000000+00:00</time></trkpt><trkpt lat="35.0636462" lon="32.6162194"><ele>867.5</ele><time>2015-04-27T10:30:18.0000000+00:00</time></trkpt><trkpt lat="35.0636307" lon="32.6162917"><ele>869.3</ele><time>2015-04-27T10:30:21.0000000+00:00</time></trkpt><trkpt lat="35.0636348" lon="32.6163702"><ele>870.7</ele><time>2015-04-27T10:30:24.0000000+00:00</time></trkpt><trkpt lat="35.063647" lon="32.616447"><ele>870.9</ele><time>2015-04-27T10:30:27.0000000+00:00</time></trkpt><trkpt lat="35.0636888" lon="32.6165016"><ele>871.8</ele><time>2015-04-27T10:30:30.0000000+00:00</time></trkpt><trkpt lat="35.0637454" lon="32.6165405"><ele>872.4</ele><time>2015-04-27T10:30:33.0000000+00:00</time></trkpt><trkpt lat="35.0637952" lon="32.6165758"><ele>871.4</ele><time>2015-04-27T10:30:36.0000000+00:00</time></trkpt><trkpt lat="35.0638368" lon="32.6165982"><ele>871.7</ele><time>2015-04-27T10:30:39.0000000+00:00</time></trkpt><trkpt lat="35.0638837" lon="32.6166126"><ele>871.9</ele><time>2015-04-27T10:30:42.0000000+00:00</time></trkpt><trkpt lat="35.0639362" lon="32.6166093"><ele>871.9</ele><time>2015-04-27T10:30:45.0000000+00:00</time></trkpt><trkpt lat="35.0639886" lon="32.6165949"><ele>872.8</ele><time>2015-04-27T10:30:48.0000000+00:00</time></trkpt><trkpt lat="35.06404" lon="32.6165722"><ele>875.0</ele><time>2015-04-27T10:30:51.0000000+00:00</time></trkpt><trkpt lat="35.0640892" lon="32.6165494"><ele>874.9</ele><time>2015-04-27T10:30:54.0000000+00:00</time></trkpt><trkpt lat="35.0641352" lon="32.6165331"><ele>873.2</ele><time>2015-04-27T10:30:57.0000000+00:00</time></trkpt><trkpt lat="35.0641821" lon="32.6164952"><ele>873.6</ele><time>2015-04-27T10:31:01.0000000+00:00</time></trkpt><trkpt lat="35.0642281" lon="32.6164776"><ele>873.8</ele><time>2015-04-27T10:31:05.0000000+00:00</time></trkpt><trkpt lat="35.0642829" lon="32.6164803"><ele>875.4</ele><time>2015-04-27T10:31:09.0000000+00:00</time></trkpt><trkpt lat="35.0643414" lon="32.6164787"><ele>878.6</ele><time>2015-04-27T10:31:13.0000000+00:00</time></trkpt><trkpt lat="35.0643882" lon="32.6164943"><ele>880.3</ele><time>2015-04-27T10:31:16.0000000+00:00</time></trkpt><trkpt lat="35.0644327" lon="32.616524"><ele>882.2</ele><time>2015-04-27T10:31:19.0000000+00:00</time></trkpt><trkpt lat="35.0644624" lon="32.6165706"><ele>883.0</ele><time>2015-04-27T10:31:22.0000000+00:00</time></trkpt><trkpt lat="35.0644735" lon="32.6166383"><ele>882.5</ele><time>2015-04-27T10:31:26.0000000+00:00</time></trkpt><trkpt lat="35.064474" lon="32.6167087"><ele>882.0</ele><time>2015-04-27T10:31:30.0000000+00:00</time></trkpt><trkpt lat="35.0644647" lon="32.6167724"><ele>882.0</ele><time>2015-04-27T10:31:34.0000000+00:00</time></trkpt><trkpt lat="35.0644329" lon="32.6168249"><ele>881.4</ele><time>2015-04-27T10:31:38.0000000+00:00</time></trkpt><trkpt lat="35.064397" lon="32.6168757"><ele>883.5</ele><time>2015-04-27T10:31:42.0000000+00:00</time></trkpt><trkpt lat="35.0643621" lon="32.616926"><ele>883.8</ele><time>2015-04-27T10:31:46.0000000+00:00</time></trkpt><trkpt lat="35.064318" lon="32.6169738"><ele>884.8</ele><time>2015-04-27T10:31:50.0000000+00:00</time></trkpt><trkpt lat="35.0642713" lon="32.6170218"><ele>884.7</ele><time>2015-04-27T10:31:54.0000000+00:00</time></trkpt><trkpt lat="35.0642296" lon="32.6170635"><ele>882.6</ele><time>2015-04-27T10:31:58.0000000+00:00</time></trkpt><trkpt lat="35.0641828" lon="32.6171052"><ele>884.9</ele><time>2015-04-27T10:32:02.0000000+00:00</time></trkpt><trkpt lat="35.0641393" lon="32.6171531"><ele>884.5</ele><time>2015-04-27T10:32:06.0000000+00:00</time></trkpt><trkpt lat="35.0640905" lon="32.6171916"><ele>884.4</ele><time>2015-04-27T10:32:10.0000000+00:00</time></trkpt><trkpt lat="35.0640359" lon="32.6172134"><ele>882.8</ele><time>2015-04-27T10:32:14.0000000+00:00</time></trkpt><trkpt lat="35.0639854" lon="32.6172207"><ele>883.8</ele><time>2015-04-27T10:32:17.0000000+00:00</time></trkpt><trkpt lat="35.0639408" lon="32.6172379"><ele>885.9</ele><time>2015-04-27T10:32:20.0000000+00:00</time></trkpt><trkpt lat="35.0638985" lon="32.6172575"><ele>888.9</ele><time>2015-04-27T10:32:23.0000000+00:00</time></trkpt><trkpt lat="35.0638428" lon="32.6172787"><ele>888.9</ele><time>2015-04-27T10:32:27.0000000+00:00</time></trkpt><trkpt lat="35.0637995" lon="32.6172944"><ele>890.6</ele><time>2015-04-27T10:32:30.0000000+00:00</time></trkpt><trkpt lat="35.0637585" lon="32.6173201"><ele>890.3</ele><time>2015-04-27T10:32:33.0000000+00:00</time></trkpt><trkpt lat="35.0637141" lon="32.6173332"><ele>890.1</ele><time>2015-04-27T10:32:36.0000000+00:00</time></trkpt><trkpt lat="35.0636607" lon="32.617349"><ele>888.6</ele><time>2015-04-27T10:32:40.0000000+00:00</time></trkpt><trkpt lat="35.0636019" lon="32.6173598"><ele>888.3</ele><time>2015-04-27T10:32:44.0000000+00:00</time></trkpt><trkpt lat="35.0635461" lon="32.6173627"><ele>890.0</ele><time>2015-04-27T10:32:48.0000000+00:00</time></trkpt><trkpt lat="35.0634937" lon="32.6173886"><ele>890.4</ele><time>2015-04-27T10:32:52.0000000+00:00</time></trkpt><trkpt lat="35.0634506" lon="32.6174107"><ele>891.6</ele><time>2015-04-27T10:32:55.0000000+00:00</time></trkpt><trkpt lat="35.0634004" lon="32.6174269"><ele>889.2</ele><time>2015-04-27T10:32:59.0000000+00:00</time></trkpt><trkpt lat="35.0633513" lon="32.617453"><ele>888.2</ele><time>2015-04-27T10:33:03.0000000+00:00</time></trkpt><trkpt lat="35.0633088" lon="32.6174838"><ele>888.0</ele><time>2015-04-27T10:33:06.0000000+00:00</time></trkpt><trkpt lat="35.0632679" lon="32.6175174"><ele>889.3</ele><time>2015-04-27T10:33:09.0000000+00:00</time></trkpt><trkpt lat="35.0632309" lon="32.6175562"><ele>889.2</ele><time>2015-04-27T10:33:12.0000000+00:00</time></trkpt><trkpt lat="35.0631848" lon="32.6175994"><ele>889.8</ele><time>2015-04-27T10:33:15.0000000+00:00</time></trkpt><trkpt lat="35.0631409" lon="32.6176479"><ele>888.7</ele><time>2015-04-27T10:33:18.0000000+00:00</time></trkpt><trkpt lat="35.063097" lon="32.6176967"><ele>888.0</ele><time>2015-04-27T10:33:21.0000000+00:00</time></trkpt><trkpt lat="35.0630495" lon="32.6177363"><ele>888.8</ele><time>2015-04-27T10:33:24.0000000+00:00</time></trkpt><trkpt lat="35.0629996" lon="32.6177873"><ele>889.7</ele><time>2015-04-27T10:33:27.0000000+00:00</time></trkpt><trkpt lat="35.0629533" lon="32.6178304"><ele>889.4</ele><time>2015-04-27T10:33:30.0000000+00:00</time></trkpt><trkpt lat="35.0629093" lon="32.6178735"><ele>889.5</ele><time>2015-04-27T10:33:33.0000000+00:00</time></trkpt><trkpt lat="35.0628752" lon="32.6179243"><ele>889.9</ele><time>2015-04-27T10:33:36.0000000+00:00</time></trkpt><trkpt lat="35.0628762" lon="32.6179974"><ele>890.2</ele><time>2015-04-27T10:33:39.0000000+00:00</time></trkpt><trkpt lat="35.0628941" lon="32.6180676"><ele>890.0</ele><time>2015-04-27T10:33:42.0000000+00:00</time></trkpt><trkpt lat="35.0629336" lon="32.6181409"><ele>889.9</ele><time>2015-04-27T10:33:45.0000000+00:00</time></trkpt><trkpt lat="35.0629774" lon="32.6181868"><ele>889.7</ele><time>2015-04-27T10:33:48.0000000+00:00</time></trkpt><trkpt lat="35.0630282" lon="32.6182148"><ele>891.3</ele><time>2015-04-27T10:33:51.0000000+00:00</time></trkpt><trkpt lat="35.0630842" lon="32.6182364"><ele>894.3</ele><time>2015-04-27T10:33:55.0000000+00:00</time></trkpt><trkpt lat="35.0631362" lon="32.6182705"><ele>894.0</ele><time>2015-04-27T10:33:59.0000000+00:00</time></trkpt><trkpt lat="35.0631841" lon="32.6182907"><ele>893.9</ele><time>2015-04-27T10:34:02.0000000+00:00</time></trkpt><trkpt lat="35.063236" lon="32.6182966"><ele>893.9</ele><time>2015-04-27T10:34:05.0000000+00:00</time></trkpt><trkpt lat="35.0632776" lon="32.6183209"><ele>892.0</ele><time>2015-04-27T10:34:16.0000000+00:00</time></trkpt><trkpt lat="35.063321" lon="32.6183637"><ele>892.7</ele><time>2015-04-27T10:34:38.0000000+00:00</time></trkpt><trkpt lat="35.0633706" lon="32.6184029"><ele>892.2</ele><time>2015-04-27T10:34:42.0000000+00:00</time></trkpt><trkpt lat="35.0634072" lon="32.6184402"><ele>893.6</ele><time>2015-04-27T10:34:45.0000000+00:00</time></trkpt><trkpt lat="35.0634338" lon="32.6185059"><ele>894.6</ele><time>2015-04-27T10:34:48.0000000+00:00</time></trkpt><trkpt lat="35.0634412" lon="32.6185633"><ele>894.9</ele><time>2015-04-27T10:34:50.0000000+00:00</time></trkpt><trkpt lat="35.0634288" lon="32.6186208"><ele>895.7</ele><time>2015-04-27T10:34:52.0000000+00:00</time></trkpt><trkpt lat="35.0634003" lon="32.6186638"><ele>895.9</ele><time>2015-04-27T10:34:54.0000000+00:00</time></trkpt><trkpt lat="35.0633633" lon="32.6186966"><ele>894.2</ele><time>2015-04-27T10:34:56.0000000+00:00</time></trkpt><trkpt lat="35.0633045" lon="32.6187318"><ele>894.2</ele><time>2015-04-27T10:34:59.0000000+00:00</time></trkpt><trkpt lat="35.0632611" lon="32.6187522"><ele>893.2</ele><time>2015-04-27T10:35:01.0000000+00:00</time></trkpt><trkpt lat="35.0632182" lon="32.6187744"><ele>893.8</ele><time>2015-04-27T10:35:03.0000000+00:00</time></trkpt><trkpt lat="35.0631761" lon="32.6188004"><ele>893.9</ele><time>2015-04-27T10:35:05.0000000+00:00</time></trkpt><trkpt lat="35.0631185" lon="32.61884"><ele>893.2</ele><time>2015-04-27T10:35:08.0000000+00:00</time></trkpt><trkpt lat="35.0630658" lon="32.6188832"><ele>891.7</ele><time>2015-04-27T10:35:11.0000000+00:00</time></trkpt><trkpt lat="35.063029" lon="32.6189153"><ele>892.4</ele><time>2015-04-27T10:35:13.0000000+00:00</time></trkpt><trkpt lat="35.0629842" lon="32.6189545"><ele>892.9</ele><time>2015-04-27T10:35:16.0000000+00:00</time></trkpt><trkpt lat="35.0629457" lon="32.6190042"><ele>899.2</ele><time>2015-04-27T10:35:21.0000000+00:00</time></trkpt><trkpt lat="35.0629456" lon="32.6190631"><ele>899.1</ele><time>2015-04-27T10:35:24.0000000+00:00</time></trkpt><trkpt lat="35.062956" lon="32.6191218"><ele>897.6</ele><time>2015-04-27T10:35:27.0000000+00:00</time></trkpt><trkpt lat="35.0629148" lon="32.6191554"><ele>897.5</ele><time>2015-04-27T10:35:30.0000000+00:00</time></trkpt><trkpt lat="35.0628781" lon="32.6191882"><ele>897.9</ele><time>2015-04-27T10:35:33.0000000+00:00</time></trkpt><trkpt lat="35.0628446" lon="32.6192467"><ele>899.8</ele><time>2015-04-27T10:35:37.0000000+00:00</time></trkpt><trkpt lat="35.0628094" lon="32.6192949"><ele>901.3</ele><time>2015-04-27T10:35:40.0000000+00:00</time></trkpt><trkpt lat="35.0627813" lon="32.6193397"><ele>903.5</ele><time>2015-04-27T10:35:43.0000000+00:00</time></trkpt><trkpt lat="35.062767" lon="32.6194072"><ele>903.9</ele><time>2015-04-27T10:35:46.0000000+00:00</time></trkpt><trkpt lat="35.0627457" lon="32.6194632"><ele>903.9</ele><time>2015-04-27T10:35:49.0000000+00:00</time></trkpt><trkpt lat="35.062749" lon="32.6195193"><ele>902.9</ele><time>2015-04-27T10:35:53.0000000+00:00</time></trkpt><trkpt lat="35.0627436" lon="32.6195786"><ele>902.9</ele><time>2015-04-27T10:35:57.0000000+00:00</time></trkpt><trkpt lat="35.0627096" lon="32.6196372"><ele>902.1</ele><time>2015-04-27T10:36:01.0000000+00:00</time></trkpt><trkpt lat="35.0626942" lon="32.6196928"><ele>901.7</ele><time>2015-04-27T10:36:03.0000000+00:00</time></trkpt><trkpt lat="35.0626711" lon="32.6197589"><ele>900.5</ele><time>2015-04-27T10:36:06.0000000+00:00</time></trkpt><trkpt lat="35.0626267" lon="32.6198109"><ele>899.8</ele><time>2015-04-27T10:36:09.0000000+00:00</time></trkpt><trkpt lat="35.0625893" lon="32.6198608"><ele>899.4</ele><time>2015-04-27T10:36:12.0000000+00:00</time></trkpt><trkpt lat="35.0625489" lon="32.6199099"><ele>899.0</ele><time>2015-04-27T10:36:15.0000000+00:00</time></trkpt><trkpt lat="35.0625092" lon="32.6199606"><ele>898.9</ele><time>2015-04-27T10:36:18.0000000+00:00</time></trkpt><trkpt lat="35.0624748" lon="32.6200213"><ele>899.9</ele><time>2015-04-27T10:36:22.0000000+00:00</time></trkpt><trkpt lat="35.0624511" lon="32.6200777"><ele>899.5</ele><time>2015-04-27T10:36:25.0000000+00:00</time></trkpt><trkpt lat="35.0624199" lon="32.6201324"><ele>899.6</ele><time>2015-04-27T10:36:28.0000000+00:00</time></trkpt><trkpt lat="35.0623924" lon="32.6201943"><ele>900.9</ele><time>2015-04-27T10:36:31.0000000+00:00</time></trkpt><trkpt lat="35.062373" lon="32.6202524"><ele>900.7</ele><time>2015-04-27T10:36:34.0000000+00:00</time></trkpt><trkpt lat="35.0623609" lon="32.6203127"><ele>902.3</ele><time>2015-04-27T10:36:37.0000000+00:00</time></trkpt><trkpt lat="35.0623747" lon="32.6203775"><ele>902.0</ele><time>2015-04-27T10:36:40.0000000+00:00</time></trkpt><trkpt lat="35.0623975" lon="32.6204287"><ele>901.2</ele><time>2015-04-27T10:36:44.0000000+00:00</time></trkpt><trkpt lat="35.0624521" lon="32.620443"><ele>902.8</ele><time>2015-04-27T10:36:51.0000000+00:00</time></trkpt><trkpt lat="35.0625077" lon="32.6204401"><ele>904.2</ele><time>2015-04-27T10:36:54.0000000+00:00</time></trkpt><trkpt lat="35.0625738" lon="32.620436"><ele>906.2</ele><time>2015-04-27T10:36:57.0000000+00:00</time></trkpt><trkpt lat="35.0626354" lon="32.6204152"><ele>907.7</ele><time>2015-04-27T10:37:00.0000000+00:00</time></trkpt><trkpt lat="35.0626827" lon="32.6203982"><ele>908.4</ele><time>2015-04-27T10:37:03.0000000+00:00</time></trkpt><trkpt lat="35.062738" lon="32.6203867"><ele>908.8</ele><time>2015-04-27T10:37:07.0000000+00:00</time></trkpt><trkpt lat="35.0627932" lon="32.6203732"><ele>909.7</ele><time>2015-04-27T10:37:11.0000000+00:00</time></trkpt><trkpt lat="35.0628468" lon="32.6203606"><ele>910.8</ele><time>2015-04-27T10:37:15.0000000+00:00</time></trkpt><trkpt lat="35.0629022" lon="32.6203501"><ele>911.4</ele><time>2015-04-27T10:37:19.0000000+00:00</time></trkpt><trkpt lat="35.0629573" lon="32.6203402"><ele>912.8</ele><time>2015-04-27T10:37:23.0000000+00:00</time></trkpt><trkpt lat="35.0630146" lon="32.6203298"><ele>913.9</ele><time>2015-04-27T10:37:27.0000000+00:00</time></trkpt><trkpt lat="35.0630724" lon="32.620344"><ele>914.7</ele><time>2015-04-27T10:37:31.0000000+00:00</time></trkpt><trkpt lat="35.0631193" lon="32.6203522"><ele>914.0</ele><time>2015-04-27T10:37:34.0000000+00:00</time></trkpt><trkpt lat="35.0631631" lon="32.6203658"><ele>914.8</ele><time>2015-04-27T10:37:38.0000000+00:00</time></trkpt><trkpt lat="35.0632042" lon="32.6203944"><ele>914.9</ele><time>2015-04-27T10:37:41.0000000+00:00</time></trkpt><trkpt lat="35.0632479" lon="32.6204299"><ele>915.2</ele><time>2015-04-27T10:37:45.0000000+00:00</time></trkpt><trkpt lat="35.0633055" lon="32.6204745"><ele>915.9</ele><time>2015-04-27T10:37:49.0000000+00:00</time></trkpt><trkpt lat="35.0633508" lon="32.6205069"><ele>916.4</ele><time>2015-04-27T10:37:51.0000000+00:00</time></trkpt><trkpt lat="35.0633948" lon="32.620533"><ele>917.3</ele><time>2015-04-27T10:37:53.0000000+00:00</time></trkpt><trkpt lat="35.0634479" lon="32.6205702"><ele>917.1</ele><time>2015-04-27T10:37:56.0000000+00:00</time></trkpt><trkpt lat="35.063486" lon="32.6206067"><ele>915.7</ele><time>2015-04-27T10:37:59.0000000+00:00</time></trkpt><trkpt lat="35.0635275" lon="32.6206458"><ele>914.3</ele><time>2015-04-27T10:38:02.0000000+00:00</time></trkpt><trkpt lat="35.0635863" lon="32.6206819"><ele>914.0</ele><time>2015-04-27T10:38:05.0000000+00:00</time></trkpt><trkpt lat="35.0636465" lon="32.6207097"><ele>913.4</ele><time>2015-04-27T10:38:07.0000000+00:00</time></trkpt><trkpt lat="35.0637143" lon="32.620732"><ele>914.6</ele><time>2015-04-27T10:38:09.0000000+00:00</time></trkpt><trkpt lat="35.0637791" lon="32.6207545"><ele>915.3</ele><time>2015-04-27T10:38:11.0000000+00:00</time></trkpt><trkpt lat="35.063842" lon="32.6207758"><ele>916.5</ele><time>2015-04-27T10:38:13.0000000+00:00</time></trkpt><trkpt lat="35.0639107" lon="32.6207919"><ele>916.8</ele><time>2015-04-27T10:38:15.0000000+00:00</time></trkpt><trkpt lat="35.0639805" lon="32.6208149"><ele>916.4</ele><time>2015-04-27T10:38:17.0000000+00:00</time></trkpt><trkpt lat="35.0640465" lon="32.6208381"><ele>917.3</ele><time>2015-04-27T10:38:19.0000000+00:00</time></trkpt><trkpt lat="35.0641112" lon="32.6208557"><ele>917.8</ele><time>2015-04-27T10:38:21.0000000+00:00</time></trkpt><trkpt lat="35.064182" lon="32.6208732"><ele>918.6</ele><time>2015-04-27T10:38:23.0000000+00:00</time></trkpt><trkpt lat="35.0642552" lon="32.6208859"><ele>918.1</ele><time>2015-04-27T10:38:25.0000000+00:00</time></trkpt><trkpt lat="35.0643238" lon="32.6208838"><ele>920.0</ele><time>2015-04-27T10:38:27.0000000+00:00</time></trkpt><trkpt lat="35.0643925" lon="32.6208672"><ele>919.2</ele><time>2015-04-27T10:38:29.0000000+00:00</time></trkpt><trkpt lat="35.0644539" lon="32.6208471"><ele>919.7</ele><time>2015-04-27T10:38:31.0000000+00:00</time></trkpt><trkpt lat="35.0645138" lon="32.6208293"><ele>919.6</ele><time>2015-04-27T10:38:33.0000000+00:00</time></trkpt><trkpt lat="35.0645734" lon="32.6208291"><ele>921.9</ele><time>2015-04-27T10:38:35.0000000+00:00</time></trkpt><trkpt lat="35.0646284" lon="32.6208474"><ele>922.7</ele><time>2015-04-27T10:38:37.0000000+00:00</time></trkpt><trkpt lat="35.0646723" lon="32.6208845"><ele>924.4</ele><time>2015-04-27T10:38:39.0000000+00:00</time></trkpt><trkpt lat="35.0647036" lon="32.6209389"><ele>926.5</ele><time>2015-04-27T10:38:41.0000000+00:00</time></trkpt><trkpt lat="35.0647336" lon="32.6209953"><ele>927.6</ele><time>2015-04-27T10:38:43.0000000+00:00</time></trkpt><trkpt lat="35.0647733" lon="32.6210402"><ele>927.8</ele><time>2015-04-27T10:38:45.0000000+00:00</time></trkpt><trkpt lat="35.0648221" lon="32.6210689"><ele>927.7</ele><time>2015-04-27T10:38:47.0000000+00:00</time></trkpt><trkpt lat="35.0648738" lon="32.6210873"><ele>927.1</ele><time>2015-04-27T10:38:49.0000000+00:00</time></trkpt><trkpt lat="35.0649217" lon="32.6210992"><ele>927.2</ele><time>2015-04-27T10:38:51.0000000+00:00</time></trkpt><trkpt lat="35.0649679" lon="32.6210945"><ele>926.5</ele><time>2015-04-27T10:38:54.0000000+00:00</time></trkpt><trkpt lat="35.065012" lon="32.6210776"><ele>926.9</ele><time>2015-04-27T10:38:57.0000000+00:00</time></trkpt><trkpt lat="35.0650683" lon="32.6210575"><ele>927.7</ele><time>2015-04-27T10:39:00.0000000+00:00</time></trkpt><trkpt lat="35.0651226" lon="32.6210338"><ele>927.9</ele><time>2015-04-27T10:39:03.0000000+00:00</time></trkpt><trkpt lat="35.0651819" lon="32.6210149"><ele>927.4</ele><time>2015-04-27T10:39:06.0000000+00:00</time></trkpt><trkpt lat="35.0652465" lon="32.621012"><ele>927.9</ele><time>2015-04-27T10:39:09.0000000+00:00</time></trkpt><trkpt lat="35.0652933" lon="32.6210251"><ele>927.4</ele><time>2015-04-27T10:39:11.0000000+00:00</time></trkpt><trkpt lat="35.06534" lon="32.6210559"><ele>927.8</ele><time>2015-04-27T10:39:13.0000000+00:00</time></trkpt><trkpt lat="35.0653818" lon="32.6210978"><ele>927.9</ele><time>2015-04-27T10:39:15.0000000+00:00</time></trkpt><trkpt lat="35.0654205" lon="32.6211456"><ele>928.4</ele><time>2015-04-27T10:39:17.0000000+00:00</time></trkpt><trkpt lat="35.0654639" lon="32.6211888"><ele>927.8</ele><time>2015-04-27T10:39:19.0000000+00:00</time></trkpt><trkpt lat="35.0654981" lon="32.6212308"><ele>928.4</ele><time>2015-04-27T10:39:21.0000000+00:00</time></trkpt><trkpt lat="35.0655301" lon="32.6212724"><ele>928.3</ele><time>2015-04-27T10:39:23.0000000+00:00</time></trkpt><trkpt lat="35.0655808" lon="32.6213233"><ele>928.0</ele><time>2015-04-27T10:39:26.0000000+00:00</time></trkpt><trkpt lat="35.0656239" lon="32.6213816"><ele>929.4</ele><time>2015-04-27T10:39:29.0000000+00:00</time></trkpt><trkpt lat="35.0656673" lon="32.6214315"><ele>930.6</ele><time>2015-04-27T10:39:32.0000000+00:00</time></trkpt><trkpt lat="35.0656994" lon="32.6214736"><ele>931.8</ele><time>2015-04-27T10:39:36.0000000+00:00</time></trkpt><trkpt lat="35.0657377" lon="32.6215245"><ele>932.7</ele><time>2015-04-27T10:39:39.0000000+00:00</time></trkpt><trkpt lat="35.0657743" lon="32.6215893"><ele>933.4</ele><time>2015-04-27T10:39:42.0000000+00:00</time></trkpt><trkpt lat="35.0657923" lon="32.6216405"><ele>933.8</ele><time>2015-04-27T10:39:44.0000000+00:00</time></trkpt><trkpt lat="35.0657942" lon="32.6216974"><ele>933.9</ele><time>2015-04-27T10:39:46.0000000+00:00</time></trkpt><trkpt lat="35.0657725" lon="32.6217532"><ele>934.2</ele><time>2015-04-27T10:39:48.0000000+00:00</time></trkpt><trkpt lat="35.0657295" lon="32.6218087"><ele>934.0</ele><time>2015-04-27T10:39:50.0000000+00:00</time></trkpt><trkpt lat="35.0656835" lon="32.6218515"><ele>933.9</ele><time>2015-04-27T10:39:52.0000000+00:00</time></trkpt><trkpt lat="35.0656301" lon="32.6218788"><ele>934.4</ele><time>2015-04-27T10:39:54.0000000+00:00</time></trkpt><trkpt lat="35.0655823" lon="32.6219103"><ele>934.8</ele><time>2015-04-27T10:39:56.0000000+00:00</time></trkpt><trkpt lat="35.0655503" lon="32.6219558"><ele>934.9</ele><time>2015-04-27T10:39:58.0000000+00:00</time></trkpt><trkpt lat="35.065527" lon="32.6220112"><ele>934.9</ele><time>2015-04-27T10:40:00.0000000+00:00</time></trkpt><trkpt lat="35.0655077" lon="32.6220688"><ele>933.4</ele><time>2015-04-27T10:40:02.0000000+00:00</time></trkpt><trkpt lat="35.065499" lon="32.6221324"><ele>933.1</ele><time>2015-04-27T10:40:04.0000000+00:00</time></trkpt><trkpt lat="35.065502" lon="32.6221983"><ele>933.0</ele><time>2015-04-27T10:40:06.0000000+00:00</time></trkpt><trkpt lat="35.0655068" lon="32.6222646"><ele>933.7</ele><time>2015-04-27T10:40:08.0000000+00:00</time></trkpt><trkpt lat="35.0655045" lon="32.6223299"><ele>933.9</ele><time>2015-04-27T10:40:10.0000000+00:00</time></trkpt><trkpt lat="35.0654991" lon="32.6223951"><ele>933.9</ele><time>2015-04-27T10:40:12.0000000+00:00</time></trkpt><trkpt lat="35.0654877" lon="32.6224624"><ele>933.9</ele><time>2015-04-27T10:40:14.0000000+00:00</time></trkpt><trkpt lat="35.0654474" lon="32.6225154"><ele>934.4</ele><time>2015-04-27T10:40:16.0000000+00:00</time></trkpt><trkpt lat="35.0653873" lon="32.6225426"><ele>934.8</ele><time>2015-04-27T10:40:18.0000000+00:00</time></trkpt><trkpt lat="35.06533" lon="32.6225509"><ele>934.9</ele><time>2015-04-27T10:40:20.0000000+00:00</time></trkpt><trkpt lat="35.0652707" lon="32.622546"><ele>935.7</ele><time>2015-04-27T10:40:22.0000000+00:00</time></trkpt><trkpt lat="35.0652045" lon="32.6225328"><ele>936.6</ele><time>2015-04-27T10:40:24.0000000+00:00</time></trkpt><trkpt lat="35.0651298" lon="32.6225177"><ele>936.9</ele><time>2015-04-27T10:40:26.0000000+00:00</time></trkpt><trkpt lat="35.0650542" lon="32.6225009"><ele>937.7</ele><time>2015-04-27T10:40:28.0000000+00:00</time></trkpt><trkpt lat="35.0649758" lon="32.6224963"><ele>937.9</ele><time>2015-04-27T10:40:30.0000000+00:00</time></trkpt><trkpt lat="35.064896" lon="32.6225104"><ele>938.4</ele><time>2015-04-27T10:40:32.0000000+00:00</time></trkpt><trkpt lat="35.0648193" lon="32.6225307"><ele>938.8</ele><time>2015-04-27T10:40:34.0000000+00:00</time></trkpt><trkpt lat="35.0647559" lon="32.6225379"><ele>939.1</ele><time>2015-04-27T10:40:36.0000000+00:00</time></trkpt><trkpt lat="35.0646988" lon="32.6225306"><ele>939.7</ele><time>2015-04-27T10:40:38.0000000+00:00</time></trkpt><trkpt lat="35.064641" lon="32.6225282"><ele>939.9</ele><time>2015-04-27T10:40:40.0000000+00:00</time></trkpt><trkpt lat="35.0645806" lon="32.6225313"><ele>940.4</ele><time>2015-04-27T10:40:42.0000000+00:00</time></trkpt><trkpt lat="35.0645189" lon="32.6225395"><ele>940.8</ele><time>2015-04-27T10:40:44.0000000+00:00</time></trkpt><trkpt lat="35.0644606" lon="32.6225552"><ele>940.4</ele><time>2015-04-27T10:40:46.0000000+00:00</time></trkpt><trkpt lat="35.0644039" lon="32.6225724"><ele>940.8</ele><time>2015-04-27T10:40:48.0000000+00:00</time></trkpt><trkpt lat="35.0643479" lon="32.6225808"><ele>942.2</ele><time>2015-04-27T10:40:51.0000000+00:00</time></trkpt><trkpt lat="35.0643068" lon="32.6226104"><ele>943.3</ele><time>2015-04-27T10:40:54.0000000+00:00</time></trkpt><trkpt lat="35.0642678" lon="32.6226611"><ele>944.6</ele><time>2015-04-27T10:40:57.0000000+00:00</time></trkpt><trkpt lat="35.0642476" lon="32.6227261"><ele>944.4</ele><time>2015-04-27T10:41:00.0000000+00:00</time></trkpt><trkpt lat="35.0642406" lon="32.6227948"><ele>944.5</ele><time>2015-04-27T10:41:03.0000000+00:00</time></trkpt><trkpt lat="35.064228" lon="32.622866"><ele>944.9</ele><time>2015-04-27T10:41:06.0000000+00:00</time></trkpt><trkpt lat="35.0642207" lon="32.6229383"><ele>944.9</ele><time>2015-04-27T10:41:09.0000000+00:00</time></trkpt><trkpt lat="35.0642267" lon="32.6230101"><ele>945.4</ele><time>2015-04-27T10:41:12.0000000+00:00</time></trkpt><trkpt lat="35.06423" lon="32.623077"><ele>945.9</ele><time>2015-04-27T10:41:15.0000000+00:00</time></trkpt><trkpt lat="35.0642222" lon="32.6231482"><ele>945.9</ele><time>2015-04-27T10:41:19.0000000+00:00</time></trkpt><trkpt lat="35.0642204" lon="32.623225"><ele>946.8</ele><time>2015-04-27T10:41:22.0000000+00:00</time></trkpt><trkpt lat="35.0641965" lon="32.6232918"><ele>946.9</ele><time>2015-04-27T10:41:25.0000000+00:00</time></trkpt><trkpt lat="35.0641469" lon="32.6233386"><ele>948.6</ele><time>2015-04-27T10:41:28.0000000+00:00</time></trkpt><trkpt lat="35.0640899" lon="32.6233643"><ele>948.9</ele><time>2015-04-27T10:41:31.0000000+00:00</time></trkpt><trkpt lat="35.0640268" lon="32.6233589"><ele>949.8</ele><time>2015-04-27T10:41:34.0000000+00:00</time></trkpt><trkpt lat="35.0639704" lon="32.6233512"><ele>949.9</ele><time>2015-04-27T10:41:37.0000000+00:00</time></trkpt><trkpt lat="35.0639181" lon="32.6233299"><ele>949.9</ele><time>2015-04-27T10:41:40.0000000+00:00</time></trkpt><trkpt lat="35.0638652" lon="32.6233085"><ele>949.9</ele><time>2015-04-27T10:41:43.0000000+00:00</time></trkpt><trkpt lat="35.0638121" lon="32.6232921"><ele>950.4</ele><time>2015-04-27T10:41:46.0000000+00:00</time></trkpt><trkpt lat="35.063761" lon="32.6232728"><ele>950.9</ele><time>2015-04-27T10:41:49.0000000+00:00</time></trkpt><trkpt lat="35.0637102" lon="32.6232538"><ele>950.9</ele><time>2015-04-27T10:41:52.0000000+00:00</time></trkpt><trkpt lat="35.0636532" lon="32.6232601"><ele>951.7</ele><time>2015-04-27T10:41:55.0000000+00:00</time></trkpt><trkpt lat="35.0635942" lon="32.6232606"><ele>953.1</ele><time>2015-04-27T10:41:58.0000000+00:00</time></trkpt><trkpt lat="35.0635325" lon="32.623264"><ele>952.2</ele><time>2015-04-27T10:42:01.0000000+00:00</time></trkpt><trkpt lat="35.0634726" lon="32.6232892"><ele>952.7</ele><time>2015-04-27T10:42:04.0000000+00:00</time></trkpt><trkpt lat="35.0634155" lon="32.6233281"><ele>953.8</ele><time>2015-04-27T10:42:07.0000000+00:00</time></trkpt><trkpt lat="35.0633788" lon="32.6233621"><ele>954.6</ele><time>2015-04-27T10:42:09.0000000+00:00</time></trkpt><trkpt lat="35.0633438" lon="32.6234"><ele>955.6</ele><time>2015-04-27T10:42:11.0000000+00:00</time></trkpt><trkpt lat="35.0633095" lon="32.6234387"><ele>956.6</ele><time>2015-04-27T10:42:13.0000000+00:00</time></trkpt><trkpt lat="35.0632851" lon="32.6234872"><ele>956.8</ele><time>2015-04-27T10:42:15.0000000+00:00</time></trkpt><trkpt lat="35.0632598" lon="32.6235349"><ele>956.7</ele><time>2015-04-27T10:42:17.0000000+00:00</time></trkpt><trkpt lat="35.0632413" lon="32.6235887"><ele>956.9</ele><time>2015-04-27T10:42:19.0000000+00:00</time></trkpt><trkpt lat="35.0632209" lon="32.6236497"><ele>956.2</ele><time>2015-04-27T10:42:21.0000000+00:00</time></trkpt><trkpt lat="35.0632042" lon="32.6237102"><ele>955.5</ele><time>2015-04-27T10:42:23.0000000+00:00</time></trkpt><trkpt lat="35.06319" lon="32.6237708"><ele>955.1</ele><time>2015-04-27T10:42:25.0000000+00:00</time></trkpt><trkpt lat="35.0631697" lon="32.6238278"><ele>955.0</ele><time>2015-04-27T10:42:27.0000000+00:00</time></trkpt><trkpt lat="35.0631446" lon="32.6238802"><ele>954.9</ele><time>2015-04-27T10:42:29.0000000+00:00</time></trkpt><trkpt lat="35.063112" lon="32.623926"><ele>954.9</ele><time>2015-04-27T10:42:31.0000000+00:00</time></trkpt><trkpt lat="35.0630741" lon="32.6239608"><ele>954.9</ele><time>2015-04-27T10:42:33.0000000+00:00</time></trkpt><trkpt lat="35.0630166" lon="32.6239857"><ele>955.7</ele><time>2015-04-27T10:42:36.0000000+00:00</time></trkpt><trkpt lat="35.0629701" lon="32.6239843"><ele>955.9</ele><time>2015-04-27T10:42:38.0000000+00:00</time></trkpt><trkpt lat="35.0629233" lon="32.6239674"><ele>955.9</ele><time>2015-04-27T10:42:40.0000000+00:00</time></trkpt><trkpt lat="35.0628763" lon="32.6239556"><ele>955.9</ele><time>2015-04-27T10:42:42.0000000+00:00</time></trkpt><trkpt lat="35.0628259" lon="32.6239521"><ele>955.9</ele><time>2015-04-27T10:42:44.0000000+00:00</time></trkpt><trkpt lat="35.062775" lon="32.6239579"><ele>956.7</ele><time>2015-04-27T10:42:46.0000000+00:00</time></trkpt><trkpt lat="35.0627252" lon="32.6239607"><ele>956.9</ele><time>2015-04-27T10:42:48.0000000+00:00</time></trkpt><trkpt lat="35.0626785" lon="32.623958"><ele>956.9</ele><time>2015-04-27T10:42:50.0000000+00:00</time></trkpt><trkpt lat="35.062615" lon="32.62396"><ele>957.4</ele><time>2015-04-27T10:42:53.0000000+00:00</time></trkpt><trkpt lat="35.0625546" lon="32.6239565"><ele>957.7</ele><time>2015-04-27T10:42:56.0000000+00:00</time></trkpt><trkpt lat="35.0625046" lon="32.6239541"><ele>957.9</ele><time>2015-04-27T10:42:59.0000000+00:00</time></trkpt><trkpt lat="35.062456" lon="32.6239376"><ele>957.9</ele><time>2015-04-27T10:43:02.0000000+00:00</time></trkpt><trkpt lat="35.062405" lon="32.6239174"><ele>958.1</ele><time>2015-04-27T10:43:05.0000000+00:00</time></trkpt><trkpt lat="35.0623535" lon="32.6238904"><ele>958.4</ele><time>2015-04-27T10:43:08.0000000+00:00</time></trkpt><trkpt lat="35.0623018" lon="32.6238638"><ele>958.2</ele><time>2015-04-27T10:43:11.0000000+00:00</time></trkpt><trkpt lat="35.0622474" lon="32.6238444"><ele>958.8</ele><time>2015-04-27T10:43:14.0000000+00:00</time></trkpt><trkpt lat="35.0621962" lon="32.6238176"><ele>959.4</ele><time>2015-04-27T10:43:17.0000000+00:00</time></trkpt><trkpt lat="35.0621466" lon="32.6237886"><ele>959.9</ele><time>2015-04-27T10:43:20.0000000+00:00</time></trkpt><trkpt lat="35.0620974" lon="32.6237598"><ele>959.9</ele><time>2015-04-27T10:43:23.0000000+00:00</time></trkpt><trkpt lat="35.0620497" lon="32.6237352"><ele>959.9</ele><time>2015-04-27T10:43:26.0000000+00:00</time></trkpt><trkpt lat="35.0620012" lon="32.6237096"><ele>959.9</ele><time>2015-04-27T10:43:30.0000000+00:00</time></trkpt><trkpt lat="35.0619543" lon="32.6236762"><ele>960.4</ele><time>2015-04-27T10:43:36.0000000+00:00</time></trkpt><trkpt lat="35.0619021" lon="32.6236751"><ele>961.6</ele><time>2015-04-27T10:43:40.0000000+00:00</time></trkpt><trkpt lat="35.0618498" lon="32.6236549"><ele>961.9</ele><time>2015-04-27T10:43:44.0000000+00:00</time></trkpt><trkpt lat="35.0617893" lon="32.6236482"><ele>961.9</ele><time>2015-04-27T10:43:48.0000000+00:00</time></trkpt><trkpt lat="35.061742" lon="32.6236337"><ele>961.9</ele><time>2015-04-27T10:43:51.0000000+00:00</time></trkpt><trkpt lat="35.061694" lon="32.6236266"><ele>962.8</ele><time>2015-04-27T10:43:54.0000000+00:00</time></trkpt><trkpt lat="35.0616501" lon="32.6236133"><ele>963.7</ele><time>2015-04-27T10:43:57.0000000+00:00</time></trkpt><trkpt lat="35.0615922" lon="32.6235964"><ele>963.9</ele><time>2015-04-27T10:44:01.0000000+00:00</time></trkpt><trkpt lat="35.0615402" lon="32.6235667"><ele>963.4</ele><time>2015-04-27T10:44:05.0000000+00:00</time></trkpt><trkpt lat="35.0614942" lon="32.6235309"><ele>963.8</ele><time>2015-04-27T10:44:09.0000000+00:00</time></trkpt><trkpt lat="35.0614556" lon="32.6235025"><ele>963.8</ele><time>2015-04-27T10:44:12.0000000+00:00</time></trkpt><trkpt lat="35.0614117" lon="32.6234813"><ele>964.4</ele><time>2015-04-27T10:44:15.0000000+00:00</time></trkpt><trkpt lat="35.0613663" lon="32.623458"><ele>964.9</ele><time>2015-04-27T10:44:18.0000000+00:00</time></trkpt><trkpt lat="35.0613288" lon="32.6234216"><ele>964.9</ele><time>2015-04-27T10:44:21.0000000+00:00</time></trkpt><trkpt lat="35.0612913" lon="32.6233838"><ele>964.9</ele><time>2015-04-27T10:44:24.0000000+00:00</time></trkpt><trkpt lat="35.0612575" lon="32.6233385"><ele>964.8</ele><time>2015-04-27T10:44:27.0000000+00:00</time></trkpt><trkpt lat="35.0612282" lon="32.6232892"><ele>964.0</ele><time>2015-04-27T10:44:30.0000000+00:00</time></trkpt><trkpt lat="35.061206" lon="32.6232397"><ele>962.4</ele><time>2015-04-27T10:44:33.0000000+00:00</time></trkpt><trkpt lat="35.0611765" lon="32.6231838"><ele>962.0</ele><time>2015-04-27T10:44:37.0000000+00:00</time></trkpt><trkpt lat="35.0611388" lon="32.6231338"><ele>962.7</ele><time>2015-04-27T10:44:41.0000000+00:00</time></trkpt><trkpt lat="35.0611017" lon="32.6230982"><ele>963.8</ele><time>2015-04-27T10:44:44.0000000+00:00</time></trkpt><trkpt lat="35.0610644" lon="32.6230566"><ele>964.7</ele><time>2015-04-27T10:44:47.0000000+00:00</time></trkpt><trkpt lat="35.0610265" lon="32.6230155"><ele>965.4</ele><time>2015-04-27T10:44:50.0000000+00:00</time></trkpt><trkpt lat="35.0609875" lon="32.6229774"><ele>966.4</ele><time>2015-04-27T10:44:53.0000000+00:00</time></trkpt><trkpt lat="35.0609438" lon="32.6229385"><ele>967.6</ele><time>2015-04-27T10:44:56.0000000+00:00</time></trkpt><trkpt lat="35.060903" lon="32.6229028"><ele>967.9</ele><time>2015-04-27T10:44:59.0000000+00:00</time></trkpt><trkpt lat="35.0608648" lon="32.6228648"><ele>967.3</ele><time>2015-04-27T10:45:03.0000000+00:00</time></trkpt><trkpt lat="35.0608116" lon="32.6228344"><ele>967.0</ele><time>2015-04-27T10:45:07.0000000+00:00</time></trkpt><trkpt lat="35.0607602" lon="32.6228208"><ele>967.9</ele><time>2015-04-27T10:45:11.0000000+00:00</time></trkpt><trkpt lat="35.0607063" lon="32.6228208"><ele>968.8</ele><time>2015-04-27T10:45:15.0000000+00:00</time></trkpt><trkpt lat="35.0606561" lon="32.6228371"><ele>968.9</ele><time>2015-04-27T10:45:19.0000000+00:00</time></trkpt><trkpt lat="35.0605992" lon="32.6228682"><ele>970.2</ele><time>2015-04-27T10:45:22.0000000+00:00</time></trkpt><trkpt lat="35.0605431" lon="32.6229117"><ele>971.3</ele><time>2015-04-27T10:45:25.0000000+00:00</time></trkpt><trkpt lat="35.0605033" lon="32.6229389"><ele>971.8</ele><time>2015-04-27T10:45:27.0000000+00:00</time></trkpt><trkpt lat="35.0604604" lon="32.622963"><ele>971.9</ele><time>2015-04-27T10:45:29.0000000+00:00</time></trkpt><trkpt lat="35.0604227" lon="32.6229938"><ele>971.2</ele><time>2015-04-27T10:45:31.0000000+00:00</time></trkpt><trkpt lat="35.0603778" lon="32.6230503"><ele>971.6</ele><time>2015-04-27T10:45:34.0000000+00:00</time></trkpt><trkpt lat="35.060336" lon="32.6230869"><ele>971.1</ele><time>2015-04-27T10:45:37.0000000+00:00</time></trkpt><trkpt lat="35.0602938" lon="32.6231099"><ele>971.0</ele><time>2015-04-27T10:45:40.0000000+00:00</time></trkpt><trkpt lat="35.0602478" lon="32.6231177"><ele>970.9</ele><time>2015-04-27T10:45:43.0000000+00:00</time></trkpt><trkpt lat="35.060201" lon="32.6231193"><ele>971.7</ele><time>2015-04-27T10:45:45.0000000+00:00</time></trkpt><trkpt lat="35.0601502" lon="32.6231061"><ele>972.4</ele><time>2015-04-27T10:45:47.0000000+00:00</time></trkpt><trkpt lat="35.0601016" lon="32.6230894"><ele>972.8</ele><time>2015-04-27T10:45:49.0000000+00:00</time></trkpt><trkpt lat="35.0600583" lon="32.6230707"><ele>972.9</ele><time>2015-04-27T10:45:52.0000000+00:00</time></trkpt><trkpt lat="35.0600083" lon="32.623047"><ele>974.4</ele><time>2015-04-27T10:46:19.0000000+00:00</time></trkpt><trkpt lat="35.0599803" lon="32.6230021"><ele>974.4</ele><time>2015-04-27T10:46:24.0000000+00:00</time></trkpt><trkpt lat="35.0599678" lon="32.622948"><ele>973.9</ele><time>2015-04-27T10:46:31.0000000+00:00</time></trkpt><trkpt lat="35.0599222" lon="32.6229522"><ele>977.9</ele><time>2015-04-27T10:48:06.0000000+00:00</time></trkpt><trkpt lat="35.0598816" lon="32.6230145"><ele>977.6</ele><time>2015-04-27T10:48:10.0000000+00:00</time></trkpt><trkpt lat="35.0598289" lon="32.6230643"><ele>977.9</ele><time>2015-04-27T10:48:13.0000000+00:00</time></trkpt><trkpt lat="35.0597865" lon="32.6230936"><ele>978.7</ele><time>2015-04-27T10:48:15.0000000+00:00</time></trkpt><trkpt lat="35.0597443" lon="32.6231242"><ele>979.6</ele><time>2015-04-27T10:48:17.0000000+00:00</time></trkpt><trkpt lat="35.0597017" lon="32.6231555"><ele>979.9</ele><time>2015-04-27T10:48:19.0000000+00:00</time></trkpt><trkpt lat="35.0596583" lon="32.6231892"><ele>979.9</ele><time>2015-04-27T10:48:21.0000000+00:00</time></trkpt><trkpt lat="35.0596148" lon="32.6232224"><ele>978.4</ele><time>2015-04-27T10:48:23.0000000+00:00</time></trkpt><trkpt lat="35.0595719" lon="32.6232543"><ele>978.8</ele><time>2015-04-27T10:48:25.0000000+00:00</time></trkpt><trkpt lat="35.0595286" lon="32.6232787"><ele>979.6</ele><time>2015-04-27T10:48:27.0000000+00:00</time></trkpt><trkpt lat="35.0594865" lon="32.6233059"><ele>979.4</ele><time>2015-04-27T10:48:29.0000000+00:00</time></trkpt><trkpt lat="35.059425" lon="32.6233358"><ele>978.7</ele><time>2015-04-27T10:48:32.0000000+00:00</time></trkpt><trkpt lat="35.0593795" lon="32.6233554"><ele>978.9</ele><time>2015-04-27T10:48:34.0000000+00:00</time></trkpt><trkpt lat="35.0593201" lon="32.6233805"><ele>979.7</ele><time>2015-04-27T10:48:37.0000000+00:00</time></trkpt><trkpt lat="35.0592721" lon="32.6233936"><ele>980.4</ele><time>2015-04-27T10:48:42.0000000+00:00</time></trkpt><trkpt lat="35.0592196" lon="32.6234137"><ele>980.9</ele><time>2015-04-27T10:48:45.0000000+00:00</time></trkpt><trkpt lat="35.0591697" lon="32.6234322"><ele>981.4</ele><time>2015-04-27T10:48:47.0000000+00:00</time></trkpt><trkpt lat="35.0591175" lon="32.623449"><ele>981.8</ele><time>2015-04-27T10:48:49.0000000+00:00</time></trkpt><trkpt lat="35.0590639" lon="32.6234671"><ele>982.6</ele><time>2015-04-27T10:48:51.0000000+00:00</time></trkpt><trkpt lat="35.0590132" lon="32.6234741"><ele>982.9</ele><time>2015-04-27T10:48:53.0000000+00:00</time></trkpt><trkpt lat="35.0589639" lon="32.6234602"><ele>982.9</ele><time>2015-04-27T10:48:55.0000000+00:00</time></trkpt><trkpt lat="35.0589179" lon="32.6234275"><ele>982.4</ele><time>2015-04-27T10:48:57.0000000+00:00</time></trkpt><trkpt lat="35.0588792" lon="32.6233609"><ele>981.6</ele><time>2015-04-27T10:48:59.0000000+00:00</time></trkpt><trkpt lat="35.0588565" lon="32.6232632"><ele>981.1</ele><time>2015-04-27T10:49:01.0000000+00:00</time></trkpt><trkpt lat="35.0588576" lon="32.6231674"><ele>981.2</ele><time>2015-04-27T10:49:03.0000000+00:00</time></trkpt><trkpt lat="35.0588681" lon="32.6230814"><ele>981.5</ele><time>2015-04-27T10:49:05.0000000+00:00</time></trkpt><trkpt lat="35.0588772" lon="32.6230203"><ele>982.3</ele><time>2015-04-27T10:49:07.0000000+00:00</time></trkpt><trkpt lat="35.0588865" lon="32.6229513"><ele>982.0</ele><time>2015-04-27T10:49:09.0000000+00:00</time></trkpt><trkpt lat="35.0588947" lon="32.6228647"><ele>982.0</ele><time>2015-04-27T10:49:11.0000000+00:00</time></trkpt><trkpt lat="35.0588953" lon="32.6227707"><ele>981.9</ele><time>2015-04-27T10:49:13.0000000+00:00</time></trkpt><trkpt lat="35.0588704" lon="32.6226859"><ele>980.9</ele><time>2015-04-27T10:49:15.0000000+00:00</time></trkpt><trkpt lat="35.058816" lon="32.6226168"><ele>980.9</ele><time>2015-04-27T10:49:17.0000000+00:00</time></trkpt><trkpt lat="35.0587547" lon="32.6225524"><ele>980.9</ele><time>2015-04-27T10:49:19.0000000+00:00</time></trkpt><trkpt lat="35.058697" lon="32.6224868"><ele>980.9</ele><time>2015-04-27T10:49:21.0000000+00:00</time></trkpt><trkpt lat="35.0586453" lon="32.622414"><ele>981.7</ele><time>2015-04-27T10:49:23.0000000+00:00</time></trkpt><trkpt lat="35.0585964" lon="32.6223395"><ele>981.4</ele><time>2015-04-27T10:49:25.0000000+00:00</time></trkpt><trkpt lat="35.0585442" lon="32.6222681"><ele>981.0</ele><time>2015-04-27T10:49:27.0000000+00:00</time></trkpt><trkpt lat="35.0584942" lon="32.6221931"><ele>981.0</ele><time>2015-04-27T10:49:29.0000000+00:00</time></trkpt><trkpt lat="35.058448" lon="32.6221288"><ele>981.9</ele><time>2015-04-27T10:49:31.0000000+00:00</time></trkpt><trkpt lat="35.058413" lon="32.6220742"><ele>983.6</ele><time>2015-04-27T10:49:57.0000000+00:00</time></trkpt><trkpt lat="35.0583751" lon="32.6220045"><ele>983.9</ele><time>2015-04-27T10:50:00.0000000+00:00</time></trkpt><trkpt lat="35.0583337" lon="32.6219364"><ele>984.4</ele><time>2015-04-27T10:50:02.0000000+00:00</time></trkpt><trkpt lat="35.0583028" lon="32.6218624"><ele>983.6</ele><time>2015-04-27T10:50:04.0000000+00:00</time></trkpt><trkpt lat="35.0582862" lon="32.6217875"><ele>982.1</ele><time>2015-04-27T10:50:06.0000000+00:00</time></trkpt><trkpt lat="35.0582764" lon="32.6217076"><ele>981.2</ele><time>2015-04-27T10:50:08.0000000+00:00</time></trkpt><trkpt lat="35.0582686" lon="32.6216267"><ele>980.8</ele><time>2015-04-27T10:50:10.0000000+00:00</time></trkpt><trkpt lat="35.058266" lon="32.621542"><ele>980.4</ele><time>2015-04-27T10:50:12.0000000+00:00</time></trkpt><trkpt lat="35.058264" lon="32.621459"><ele>980.8</ele><time>2015-04-27T10:50:14.0000000+00:00</time></trkpt><trkpt lat="35.0582476" lon="32.6213797"><ele>981.4</ele><time>2015-04-27T10:50:16.0000000+00:00</time></trkpt><trkpt lat="35.0582236" lon="32.6213085"><ele>981.8</ele><time>2015-04-27T10:50:18.0000000+00:00</time></trkpt><trkpt lat="35.0581802" lon="32.6212472"><ele>981.9</ele><time>2015-04-27T10:50:20.0000000+00:00</time></trkpt><trkpt lat="35.0581173" lon="32.6211831"><ele>982.9</ele><time>2015-04-27T10:50:22.0000000+00:00</time></trkpt><trkpt lat="35.0580476" lon="32.6211393"><ele>983.9</ele><time>2015-04-27T10:50:23.0000000+00:00</time></trkpt><trkpt lat="35.0580099" lon="32.6211087"><ele>984.4</ele><time>2015-04-27T10:50:24.0000000+00:00</time></trkpt><trkpt lat="35.0579616" lon="32.6210898"><ele>984.2</ele><time>2015-04-27T10:50:25.0000000+00:00</time></trkpt><trkpt lat="35.057917" lon="32.6210726"><ele>984.1</ele><time>2015-04-27T10:50:26.0000000+00:00</time></trkpt><trkpt lat="35.0578725" lon="32.6210619"><ele>984.5</ele><time>2015-04-27T10:50:27.0000000+00:00</time></trkpt><trkpt lat="35.0578111" lon="32.6210503"><ele>985.2</ele><time>2015-04-27T10:50:28.0000000+00:00</time></trkpt><trkpt lat="35.0577637" lon="32.6210405"><ele>985.6</ele><time>2015-04-27T10:50:29.0000000+00:00</time></trkpt><trkpt lat="35.0577011" lon="32.6210336"><ele>985.8</ele><time>2015-04-27T10:50:30.0000000+00:00</time></trkpt><trkpt lat="35.0576466" lon="32.6210223"><ele>984.8</ele><time>2015-04-27T10:50:31.0000000+00:00</time></trkpt><trkpt lat="35.0575763" lon="32.6210252"><ele>984.9</ele><time>2015-04-27T10:50:32.0000000+00:00</time></trkpt><trkpt lat="35.057518" lon="32.6210327"><ele>985.4</ele><time>2015-04-27T10:50:33.0000000+00:00</time></trkpt><trkpt lat="35.0574702" lon="32.62103"><ele>985.7</ele><time>2015-04-27T10:50:34.0000000+00:00</time></trkpt><trkpt lat="35.0574191" lon="32.6210101"><ele>986.3</ele><time>2015-04-27T10:50:35.0000000+00:00</time></trkpt><trkpt lat="35.0573727" lon="32.6209758"><ele>986.6</ele><time>2015-04-27T10:50:36.0000000+00:00</time></trkpt><trkpt lat="35.0573392" lon="32.6209347"><ele>986.3</ele><time>2015-04-27T10:50:37.0000000+00:00</time></trkpt><trkpt lat="35.0573107" lon="32.6208844"><ele>986.1</ele><time>2015-04-27T10:50:38.0000000+00:00</time></trkpt><trkpt lat="35.0572782" lon="32.6208294"><ele>986.5</ele><time>2015-04-27T10:50:39.0000000+00:00</time></trkpt><trkpt lat="35.0572556" lon="32.6207802"><ele>986.2</ele><time>2015-04-27T10:50:40.0000000+00:00</time></trkpt><trkpt lat="35.0572294" lon="32.6207259"><ele>985.6</ele><time>2015-04-27T10:50:41.0000000+00:00</time></trkpt><trkpt lat="35.0571935" lon="32.6206746"><ele>985.8</ele><time>2015-04-27T10:50:42.0000000+00:00</time></trkpt><trkpt lat="35.0571639" lon="32.620618"><ele>985.3</ele><time>2015-04-27T10:50:43.0000000+00:00</time></trkpt><trkpt lat="35.0571396" lon="32.6205656"><ele>985.1</ele><time>2015-04-27T10:50:44.0000000+00:00</time></trkpt><trkpt lat="35.0570844" lon="32.6204805"><ele>986.5</ele><time>2015-04-27T10:50:46.0000000+00:00</time></trkpt><trkpt lat="35.057046" lon="32.6204373"><ele>986.2</ele><time>2015-04-27T10:50:47.0000000+00:00</time></trkpt><trkpt lat="35.0569789" lon="32.6203651"><ele>985.5</ele><time>2015-04-27T10:50:49.0000000+00:00</time></trkpt><trkpt lat="35.0569336" lon="32.6203137"><ele>986.7</ele><time>2015-04-27T10:50:50.0000000+00:00</time></trkpt><trkpt lat="35.0568899" lon="32.620282"><ele>987.8</ele><time>2015-04-27T10:50:51.0000000+00:00</time></trkpt><trkpt lat="35.0568315" lon="32.6202559"><ele>989.4</ele><time>2015-04-27T10:50:52.0000000+00:00</time></trkpt><trkpt lat="35.0567788" lon="32.6202389"><ele>990.2</ele><time>2015-04-27T10:50:53.0000000+00:00</time></trkpt><trkpt lat="35.0567283" lon="32.620229"><ele>990.5</ele><time>2015-04-27T10:50:54.0000000+00:00</time></trkpt><trkpt lat="35.0566784" lon="32.6202029"><ele>990.7</ele><time>2015-04-27T10:50:55.0000000+00:00</time></trkpt><trkpt lat="35.0566225" lon="32.6202006"><ele>991.3</ele><time>2015-04-27T10:50:56.0000000+00:00</time></trkpt><trkpt lat="35.0565707" lon="32.6202069"><ele>991.1</ele><time>2015-04-27T10:50:57.0000000+00:00</time></trkpt><trkpt lat="35.0565183" lon="32.6202328"><ele>991.5</ele><time>2015-04-27T10:50:58.0000000+00:00</time></trkpt><trkpt lat="35.0564696" lon="32.6202494"><ele>992.7</ele><time>2015-04-27T10:50:59.0000000+00:00</time></trkpt><trkpt lat="35.056423" lon="32.6202728"><ele>993.3</ele><time>2015-04-27T10:51:00.0000000+00:00</time></trkpt><trkpt lat="35.056371" lon="32.6203027"><ele>994.1</ele><time>2015-04-27T10:51:01.0000000+00:00</time></trkpt><trkpt lat="35.0563348" lon="32.6203708"><ele>994.5</ele><time>2015-04-27T10:51:02.0000000+00:00</time></trkpt><trkpt lat="35.0562827" lon="32.6203964"><ele>994.2</ele><time>2015-04-27T10:51:03.0000000+00:00</time></trkpt><trkpt lat="35.056245" lon="32.6204278"><ele>993.1</ele><time>2015-04-27T10:51:04.0000000+00:00</time></trkpt><trkpt lat="35.0561988" lon="32.6204538"><ele>992.5</ele><time>2015-04-27T10:51:05.0000000+00:00</time></trkpt><trkpt lat="35.0561619" lon="32.6204855"><ele>991.2</ele><time>2015-04-27T10:51:06.0000000+00:00</time></trkpt><trkpt lat="35.0560923" lon="32.6205292"><ele>988.0</ele><time>2015-04-27T10:51:08.0000000+00:00</time></trkpt><trkpt lat="35.0560553" lon="32.6205649"><ele>987.5</ele><time>2015-04-27T10:51:09.0000000+00:00</time></trkpt><trkpt lat="35.0559826" lon="32.6206484"><ele>987.8</ele><time>2015-04-27T10:51:11.0000000+00:00</time></trkpt><trkpt lat="35.0559476" lon="32.6206987"><ele>988.4</ele><time>2015-04-27T10:51:12.0000000+00:00</time></trkpt><trkpt lat="35.0559203" lon="32.6207464"><ele>988.7</ele><time>2015-04-27T10:51:13.0000000+00:00</time></trkpt><trkpt lat="35.0558915" lon="32.6207929"><ele>988.3</ele><time>2015-04-27T10:51:14.0000000+00:00</time></trkpt><trkpt lat="35.0558569" lon="32.620847"><ele>987.8</ele><time>2015-04-27T10:51:16.0000000+00:00</time></trkpt><trkpt lat="35.0558103" lon="32.6209098"><ele>985.9</ele><time>2015-04-27T10:51:18.0000000+00:00</time></trkpt><trkpt lat="35.0557763" lon="32.6209768"><ele>985.7</ele><time>2015-04-27T10:51:20.0000000+00:00</time></trkpt><trkpt lat="35.055731" lon="32.621064"><ele>986.6</ele><time>2015-04-27T10:51:22.0000000+00:00</time></trkpt><trkpt lat="35.0556857" lon="32.6211506"><ele>988.1</ele><time>2015-04-27T10:51:24.0000000+00:00</time></trkpt><trkpt lat="35.0556404" lon="32.6212391"><ele>991.0</ele><time>2015-04-27T10:51:26.0000000+00:00</time></trkpt><trkpt lat="35.0555942" lon="32.6213242"><ele>992.4</ele><time>2015-04-27T10:51:28.0000000+00:00</time></trkpt><trkpt lat="35.0555441" lon="32.6213982"><ele>991.8</ele><time>2015-04-27T10:51:30.0000000+00:00</time></trkpt><trkpt lat="35.0554923" lon="32.6214682"><ele>991.1</ele><time>2015-04-27T10:51:32.0000000+00:00</time></trkpt><trkpt lat="35.0554368" lon="32.621532"><ele>992.7</ele><time>2015-04-27T10:51:34.0000000+00:00</time></trkpt><trkpt lat="35.0553867" lon="32.6215927"><ele>993.1</ele><time>2015-04-27T10:51:36.0000000+00:00</time></trkpt><trkpt lat="35.0553552" lon="32.6216436"><ele>993.0</ele><time>2015-04-27T10:51:38.0000000+00:00</time></trkpt><trkpt lat="35.0553308" lon="32.6216909"><ele>991.7</ele><time>2015-04-27T10:51:40.0000000+00:00</time></trkpt><trkpt lat="35.0553041" lon="32.6217482"><ele>989.6</ele><time>2015-04-27T10:51:42.0000000+00:00</time></trkpt><trkpt lat="35.055275" lon="32.6218137"><ele>989.1</ele><time>2015-04-27T10:51:44.0000000+00:00</time></trkpt><trkpt lat="35.0552445" lon="32.6218894"><ele>989.5</ele><time>2015-04-27T10:51:46.0000000+00:00</time></trkpt><trkpt lat="35.0552153" lon="32.6219622"><ele>989.1</ele><time>2015-04-27T10:51:48.0000000+00:00</time></trkpt><trkpt lat="35.0551886" lon="32.6220222"><ele>988.5</ele><time>2015-04-27T10:51:50.0000000+00:00</time></trkpt><trkpt lat="35.055158" lon="32.6220874"><ele>988.9</ele><time>2015-04-27T10:51:53.0000000+00:00</time></trkpt><trkpt lat="35.055135" lon="32.6221636"><ele>987.5</ele><time>2015-04-27T10:51:56.0000000+00:00</time></trkpt><trkpt lat="35.0551202" lon="32.6222254"><ele>986.6</ele><time>2015-04-27T10:51:58.0000000+00:00</time></trkpt><trkpt lat="35.0550979" lon="32.6222895"><ele>986.1</ele><time>2015-04-27T10:52:00.0000000+00:00</time></trkpt><trkpt lat="35.0550732" lon="32.622364"><ele>986.5</ele><time>2015-04-27T10:52:02.0000000+00:00</time></trkpt><trkpt lat="35.0550454" lon="32.6224386"><ele>986.8</ele><time>2015-04-27T10:52:04.0000000+00:00</time></trkpt><trkpt lat="35.0550134" lon="32.6225084"><ele>987.7</ele><time>2015-04-27T10:52:06.0000000+00:00</time></trkpt><trkpt lat="35.0549806" lon="32.6225758"><ele>987.9</ele><time>2015-04-27T10:52:08.0000000+00:00</time></trkpt><trkpt lat="35.0549418" lon="32.6226428"><ele>988.4</ele><time>2015-04-27T10:52:10.0000000+00:00</time></trkpt><trkpt lat="35.0548934" lon="32.6227047"><ele>988.6</ele><time>2015-04-27T10:52:12.0000000+00:00</time></trkpt><trkpt lat="35.0548428" lon="32.6227651"><ele>989.3</ele><time>2015-04-27T10:52:14.0000000+00:00</time></trkpt><trkpt lat="35.0547887" lon="32.6228304"><ele>990.5</ele><time>2015-04-27T10:52:16.0000000+00:00</time></trkpt><trkpt lat="35.0547361" lon="32.6228962"><ele>989.6</ele><time>2015-04-27T10:52:18.0000000+00:00</time></trkpt><trkpt lat="35.0546847" lon="32.6229685"><ele>989.1</ele><time>2015-04-27T10:52:20.0000000+00:00</time></trkpt><trkpt lat="35.0546378" lon="32.6230473"><ele>989.0</ele><time>2015-04-27T10:52:22.0000000+00:00</time></trkpt><trkpt lat="35.0545966" lon="32.6231346"><ele>989.7</ele><time>2015-04-27T10:52:24.0000000+00:00</time></trkpt><trkpt lat="35.054558" lon="32.6232237"><ele>991.1</ele><time>2015-04-27T10:52:26.0000000+00:00</time></trkpt><trkpt lat="35.0545187" lon="32.623307"><ele>990.5</ele><time>2015-04-27T10:52:28.0000000+00:00</time></trkpt><trkpt lat="35.0544797" lon="32.6233905"><ele>990.1</ele><time>2015-04-27T10:52:30.0000000+00:00</time></trkpt><trkpt lat="35.0544356" lon="32.6234658"><ele>989.5</ele><time>2015-04-27T10:52:32.0000000+00:00</time></trkpt><trkpt lat="35.0543924" lon="32.6235421"><ele>989.6</ele><time>2015-04-27T10:52:34.0000000+00:00</time></trkpt><trkpt lat="35.0543583" lon="32.6236232"><ele>990.1</ele><time>2015-04-27T10:52:36.0000000+00:00</time></trkpt><trkpt lat="35.0543226" lon="32.623685"><ele>990.7</ele><time>2015-04-27T10:52:38.0000000+00:00</time></trkpt><trkpt lat="35.0542951" lon="32.6237356"><ele>990.9</ele><time>2015-04-27T10:52:40.0000000+00:00</time></trkpt><trkpt lat="35.0542748" lon="32.6237942"><ele>991.2</ele><time>2015-04-27T10:52:42.0000000+00:00</time></trkpt><trkpt lat="35.0542524" lon="32.6238504"><ele>990.2</ele><time>2015-04-27T10:52:44.0000000+00:00</time></trkpt><trkpt lat="35.0542242" lon="32.6239088"><ele>989.8</ele><time>2015-04-27T10:52:46.0000000+00:00</time></trkpt><trkpt lat="35.0541785" lon="32.6239562"><ele>988.4</ele><time>2015-04-27T10:52:48.0000000+00:00</time></trkpt><trkpt lat="35.0541207" lon="32.6239843"><ele>989.3</ele><time>2015-04-27T10:52:50.0000000+00:00</time></trkpt><trkpt lat="35.0540598" lon="32.6240066"><ele>991.0</ele><time>2015-04-27T10:52:52.0000000+00:00</time></trkpt><trkpt lat="35.0539924" lon="32.6240224"><ele>992.5</ele><time>2015-04-27T10:52:54.0000000+00:00</time></trkpt><trkpt lat="35.0539223" lon="32.6240254"><ele>992.3</ele><time>2015-04-27T10:52:56.0000000+00:00</time></trkpt><trkpt lat="35.0538522" lon="32.6240112"><ele>992.3</ele><time>2015-04-27T10:52:58.0000000+00:00</time></trkpt><trkpt lat="35.0537819" lon="32.623996"><ele>992.0</ele><time>2015-04-27T10:53:00.0000000+00:00</time></trkpt><trkpt lat="35.0537078" lon="32.6239805"><ele>992.2</ele><time>2015-04-27T10:53:02.0000000+00:00</time></trkpt><trkpt lat="35.0536364" lon="32.6239557"><ele>991.0</ele><time>2015-04-27T10:53:04.0000000+00:00</time></trkpt><trkpt lat="35.0535649" lon="32.6239336"><ele>990.4</ele><time>2015-04-27T10:53:06.0000000+00:00</time></trkpt><trkpt lat="35.053494" lon="32.6239211"><ele>991.3</ele><time>2015-04-27T10:53:08.0000000+00:00</time></trkpt><trkpt lat="35.0533981" lon="32.623898"><ele>992.3</ele><time>2015-04-27T10:53:10.0000000+00:00</time></trkpt><trkpt lat="35.0533268" lon="32.6238625"><ele>992.5</ele><time>2015-04-27T10:53:12.0000000+00:00</time></trkpt><trkpt lat="35.0532553" lon="32.6238237"><ele>992.3</ele><time>2015-04-27T10:53:14.0000000+00:00</time></trkpt><trkpt lat="35.0531977" lon="32.623777"><ele>991.5</ele><time>2015-04-27T10:53:16.0000000+00:00</time></trkpt><trkpt lat="35.0531408" lon="32.6237226"><ele>990.6</ele><time>2015-04-27T10:53:18.0000000+00:00</time></trkpt><trkpt lat="35.053086" lon="32.6236883"><ele>991.3</ele><time>2015-04-27T10:53:20.0000000+00:00</time></trkpt><trkpt lat="35.0530322" lon="32.6236575"><ele>990.5</ele><time>2015-04-27T10:53:22.0000000+00:00</time></trkpt><trkpt lat="35.0529762" lon="32.6236244"><ele>989.8</ele><time>2015-04-27T10:53:24.0000000+00:00</time></trkpt><trkpt lat="35.0529202" lon="32.6235853"><ele>987.9</ele><time>2015-04-27T10:53:26.0000000+00:00</time></trkpt><trkpt lat="35.0528489" lon="32.6235715"><ele>987.4</ele><time>2015-04-27T10:53:28.0000000+00:00</time></trkpt><trkpt lat="35.0527726" lon="32.6235845"><ele>988.8</ele><time>2015-04-27T10:53:30.0000000+00:00</time></trkpt><trkpt lat="35.0526982" lon="32.6236302"><ele>990.4</ele><time>2015-04-27T10:53:32.0000000+00:00</time></trkpt><trkpt lat="35.0526278" lon="32.6236908"><ele>991.8</ele><time>2015-04-27T10:53:34.0000000+00:00</time></trkpt><trkpt lat="35.0525601" lon="32.6237448"><ele>992.4</ele><time>2015-04-27T10:53:36.0000000+00:00</time></trkpt><trkpt lat="35.0524925" lon="32.6237945"><ele>993.5</ele><time>2015-04-27T10:53:38.0000000+00:00</time></trkpt><trkpt lat="35.0524266" lon="32.6238204"><ele>990.1</ele><time>2015-04-27T10:53:40.0000000+00:00</time></trkpt><trkpt lat="35.0523564" lon="32.6238183"><ele>989.7</ele><time>2015-04-27T10:53:42.0000000+00:00</time></trkpt><trkpt lat="35.0522924" lon="32.6237931"><ele>990.1</ele><time>2015-04-27T10:53:44.0000000+00:00</time></trkpt><trkpt lat="35.0522264" lon="32.6237605"><ele>990.0</ele><time>2015-04-27T10:53:46.0000000+00:00</time></trkpt><trkpt lat="35.0521594" lon="32.6237288"><ele>990.4</ele><time>2015-04-27T10:53:48.0000000+00:00</time></trkpt><trkpt lat="35.0520876" lon="32.6237038"><ele>991.8</ele><time>2015-04-27T10:53:50.0000000+00:00</time></trkpt><trkpt lat="35.0520171" lon="32.6236831"><ele>993.1</ele><time>2015-04-27T10:53:52.0000000+00:00</time></trkpt><trkpt lat="35.0519446" lon="32.6236705"><ele>993.7</ele><time>2015-04-27T10:53:54.0000000+00:00</time></trkpt><trkpt lat="35.0518702" lon="32.6236624"><ele>993.9</ele><time>2015-04-27T10:53:56.0000000+00:00</time></trkpt><trkpt lat="35.0517965" lon="32.6236602"><ele>993.2</ele><time>2015-04-27T10:53:58.0000000+00:00</time></trkpt><trkpt lat="35.0517254" lon="32.6236473"><ele>992.2</ele><time>2015-04-27T10:54:00.0000000+00:00</time></trkpt><trkpt lat="35.0516582" lon="32.6236271"><ele>992.0</ele><time>2015-04-27T10:54:02.0000000+00:00</time></trkpt><trkpt lat="35.0515954" lon="32.6236027"><ele>992.4</ele><time>2015-04-27T10:54:04.0000000+00:00</time></trkpt><trkpt lat="35.0515402" lon="32.6235739"><ele>992.1</ele><time>2015-04-27T10:54:06.0000000+00:00</time></trkpt><trkpt lat="35.0514833" lon="32.6235313"><ele>989.8</ele><time>2015-04-27T10:54:09.0000000+00:00</time></trkpt><trkpt lat="35.0514436" lon="32.6235043"><ele>988.4</ele><time>2015-04-27T10:54:11.0000000+00:00</time></trkpt><trkpt lat="35.0513967" lon="32.6235006"><ele>989.0</ele><time>2015-04-27T10:54:13.0000000+00:00</time></trkpt><trkpt lat="35.0513527" lon="32.6235147"><ele>988.2</ele><time>2015-04-27T10:54:15.0000000+00:00</time></trkpt><trkpt lat="35.0513139" lon="32.6235574"><ele>988.0</ele><time>2015-04-27T10:54:17.0000000+00:00</time></trkpt><trkpt lat="35.051279" lon="32.6236105"><ele>988.7</ele><time>2015-04-27T10:54:19.0000000+00:00</time></trkpt><trkpt lat="35.0512455" lon="32.6236634"><ele>989.4</ele><time>2015-04-27T10:54:21.0000000+00:00</time></trkpt><trkpt lat="35.0512129" lon="32.6237033"><ele>989.8</ele><time>2015-04-27T10:54:23.0000000+00:00</time></trkpt><trkpt lat="35.0511664" lon="32.6237323"><ele>991.3</ele><time>2015-04-27T10:54:27.0000000+00:00</time></trkpt><trkpt lat="35.0511094" lon="32.6237632"><ele>993.2</ele><time>2015-04-27T10:54:54.0000000+00:00</time></trkpt><trkpt lat="35.0510585" lon="32.6237766"><ele>993.0</ele><time>2015-04-27T10:54:56.0000000+00:00</time></trkpt><trkpt lat="35.0510068" lon="32.6237816"><ele>992.9</ele><time>2015-04-27T10:54:58.0000000+00:00</time></trkpt><trkpt lat="35.0509534" lon="32.6237795"><ele>992.9</ele><time>2015-04-27T10:55:00.0000000+00:00</time></trkpt><trkpt lat="35.0508778" lon="32.6237874"><ele>992.9</ele><time>2015-04-27T10:55:02.0000000+00:00</time></trkpt><trkpt lat="35.050789" lon="32.623787"><ele>992.9</ele><time>2015-04-27T10:55:04.0000000+00:00</time></trkpt><trkpt lat="35.0507439" lon="32.6237886"><ele>992.4</ele><time>2015-04-27T10:55:05.0000000+00:00</time></trkpt><trkpt lat="35.0506984" lon="32.623795"><ele>992.2</ele><time>2015-04-27T10:55:06.0000000+00:00</time></trkpt><trkpt lat="35.0506363" lon="32.6238204"><ele>992.1</ele><time>2015-04-27T10:55:07.0000000+00:00</time></trkpt><trkpt lat="35.0505883" lon="32.6238621"><ele>992.0</ele><time>2015-04-27T10:55:08.0000000+00:00</time></trkpt><trkpt lat="35.0505555" lon="32.6239114"><ele>991.5</ele><time>2015-04-27T10:55:09.0000000+00:00</time></trkpt><trkpt lat="35.050523" lon="32.6239647"><ele>991.2</ele><time>2015-04-27T10:55:10.0000000+00:00</time></trkpt><trkpt lat="35.0505174" lon="32.6240436"><ele>991.1</ele><time>2015-04-27T10:55:11.0000000+00:00</time></trkpt><trkpt lat="35.0505226" lon="32.6241227"><ele>991.0</ele><time>2015-04-27T10:55:12.0000000+00:00</time></trkpt><trkpt lat="35.0505408" lon="32.6241901"><ele>990.5</ele><time>2015-04-27T10:55:13.0000000+00:00</time></trkpt><trkpt lat="35.0505621" lon="32.6242616"><ele>990.2</ele><time>2015-04-27T10:55:14.0000000+00:00</time></trkpt><trkpt lat="35.0505927" lon="32.624333"><ele>990.6</ele><time>2015-04-27T10:55:15.0000000+00:00</time></trkpt><trkpt lat="35.0506166" lon="32.6243998"><ele>990.7</ele><time>2015-04-27T10:55:16.0000000+00:00</time></trkpt><trkpt lat="35.0506396" lon="32.6244682"><ele>990.8</ele><time>2015-04-27T10:55:17.0000000+00:00</time></trkpt><trkpt lat="35.0506614" lon="32.6245335"><ele>990.9</ele><time>2015-04-27T10:55:18.0000000+00:00</time></trkpt><trkpt lat="35.0506797" lon="32.6246038"><ele>990.9</ele><time>2015-04-27T10:55:19.0000000+00:00</time></trkpt><trkpt lat="35.0506997" lon="32.6246732"><ele>990.9</ele><time>2015-04-27T10:55:20.0000000+00:00</time></trkpt><trkpt lat="35.0507173" lon="32.6247362"><ele>991.4</ele><time>2015-04-27T10:55:21.0000000+00:00</time></trkpt><trkpt lat="35.0507374" lon="32.6248039"><ele>991.7</ele><time>2015-04-27T10:55:22.0000000+00:00</time></trkpt><trkpt lat="35.0507469" lon="32.6248651"><ele>991.8</ele><time>2015-04-27T10:55:23.0000000+00:00</time></trkpt><trkpt lat="35.0507603" lon="32.6249218"><ele>991.9</ele><time>2015-04-27T10:55:24.0000000+00:00</time></trkpt><trkpt lat="35.0507653" lon="32.6249769"><ele>992.4</ele><time>2015-04-27T10:55:25.0000000+00:00</time></trkpt><trkpt lat="35.0507686" lon="32.6250325"><ele>992.2</ele><time>2015-04-27T10:55:26.0000000+00:00</time></trkpt><trkpt lat="35.0507558" lon="32.6251336"><ele>992.0</ele><time>2015-04-27T10:55:28.0000000+00:00</time></trkpt><trkpt lat="35.0507304" lon="32.625232"><ele>991.4</ele><time>2015-04-27T10:55:30.0000000+00:00</time></trkpt><trkpt lat="35.0507033" lon="32.6252792"><ele>991.2</ele><time>2015-04-27T10:55:31.0000000+00:00</time></trkpt><trkpt lat="35.0506763" lon="32.6253272"><ele>990.6</ele><time>2015-04-27T10:55:32.0000000+00:00</time></trkpt><trkpt lat="35.0506409" lon="32.6253776"><ele>990.2</ele><time>2015-04-27T10:55:33.0000000+00:00</time></trkpt><trkpt lat="35.0506075" lon="32.6254288"><ele>990.1</ele><time>2015-04-27T10:55:34.0000000+00:00</time></trkpt><trkpt lat="35.0505748" lon="32.625478"><ele>990.0</ele><time>2015-04-27T10:55:35.0000000+00:00</time></trkpt><trkpt lat="35.050539" lon="32.6255261"><ele>990.0</ele><time>2015-04-27T10:55:36.0000000+00:00</time></trkpt><trkpt lat="35.0505049" lon="32.6255698"><ele>990.4</ele><time>2015-04-27T10:55:37.0000000+00:00</time></trkpt><trkpt lat="35.0504669" lon="32.6256036"><ele>989.7</ele><time>2015-04-27T10:55:38.0000000+00:00</time></trkpt><trkpt lat="35.0504009" lon="32.6256724"><ele>988.4</ele><time>2015-04-27T10:55:40.0000000+00:00</time></trkpt><trkpt lat="35.0503539" lon="32.6257441"><ele>989.3</ele><time>2015-04-27T10:55:42.0000000+00:00</time></trkpt><trkpt lat="35.0503123" lon="32.6258142"><ele>989.8</ele><time>2015-04-27T10:55:44.0000000+00:00</time></trkpt><trkpt lat="35.050267" lon="32.6258836"><ele>989.4</ele><time>2015-04-27T10:55:46.0000000+00:00</time></trkpt><trkpt lat="35.0502105" lon="32.6259504"><ele>989.5</ele><time>2015-04-27T10:55:48.0000000+00:00</time></trkpt><trkpt lat="35.0501487" lon="32.6260095"><ele>989.8</ele><time>2015-04-27T10:55:50.0000000+00:00</time></trkpt><trkpt lat="35.0500811" lon="32.6260653"><ele>989.9</ele><time>2015-04-27T10:55:52.0000000+00:00</time></trkpt><trkpt lat="35.0500021" lon="32.6261043"><ele>989.7</ele><time>2015-04-27T10:55:54.0000000+00:00</time></trkpt><trkpt lat="35.0499257" lon="32.6261393"><ele>990.6</ele><time>2015-04-27T10:55:56.0000000+00:00</time></trkpt><trkpt lat="35.0498594" lon="32.6261871"><ele>991.6</ele><time>2015-04-27T10:55:58.0000000+00:00</time></trkpt><trkpt lat="35.0498155" lon="32.6262592"><ele>991.8</ele><time>2015-04-27T10:56:00.0000000+00:00</time></trkpt><trkpt lat="35.0497998" lon="32.6263254"><ele>992.4</ele><time>2015-04-27T10:56:02.0000000+00:00</time></trkpt><trkpt lat="35.049793" lon="32.626381"><ele>992.8</ele><time>2015-04-27T10:56:04.0000000+00:00</time></trkpt><trkpt lat="35.0497964" lon="32.62644"><ele>993.4</ele><time>2015-04-27T10:56:06.0000000+00:00</time></trkpt><trkpt lat="35.0497984" lon="32.6264976"><ele>994.5</ele><time>2015-04-27T10:56:08.0000000+00:00</time></trkpt><trkpt lat="35.0498021" lon="32.6265744"><ele>996.3</ele><time>2015-04-27T10:56:11.0000000+00:00</time></trkpt><trkpt lat="35.0498002" lon="32.6266477"><ele>996.8</ele><time>2015-04-27T10:56:14.0000000+00:00</time></trkpt><trkpt lat="35.0497865" lon="32.626723"><ele>997.8</ele><time>2015-04-27T10:56:17.0000000+00:00</time></trkpt><trkpt lat="35.0497696" lon="32.6267755"><ele>997.9</ele><time>2015-04-27T10:56:19.0000000+00:00</time></trkpt><trkpt lat="35.0497354" lon="32.6268324"><ele>997.9</ele><time>2015-04-27T10:56:22.0000000+00:00</time></trkpt><trkpt lat="35.0496956" lon="32.626886"><ele>999.3</ele><time>2015-04-27T10:56:25.0000000+00:00</time></trkpt><trkpt lat="35.0496521" lon="32.6269406"><ele>999.9</ele><time>2015-04-27T10:56:28.0000000+00:00</time></trkpt><trkpt lat="35.0496064" lon="32.6269939"><ele>999.9</ele><time>2015-04-27T10:56:31.0000000+00:00</time></trkpt><trkpt lat="35.0495529" lon="32.6270446"><ele>1000.8</ele><time>2015-04-27T10:56:34.0000000+00:00</time></trkpt><trkpt lat="35.0495174" lon="32.6270804"><ele>1001.4</ele><time>2015-04-27T10:56:36.0000000+00:00</time></trkpt><trkpt lat="35.0494838" lon="32.6271176"><ele>1001.8</ele><time>2015-04-27T10:56:38.0000000+00:00</time></trkpt><trkpt lat="35.0494334" lon="32.6271688"><ele>1002.4</ele><time>2015-04-27T10:56:41.0000000+00:00</time></trkpt><trkpt lat="35.0493813" lon="32.6272188"><ele>1002.9</ele><time>2015-04-27T10:56:44.0000000+00:00</time></trkpt><trkpt lat="35.049331" lon="32.6272733"><ele>1002.9</ele><time>2015-04-27T10:56:47.0000000+00:00</time></trkpt><trkpt lat="35.0492972" lon="32.6273105"><ele>1002.9</ele><time>2015-04-27T10:56:49.0000000+00:00</time></trkpt><trkpt lat="35.0492642" lon="32.627348"><ele>1003.7</ele><time>2015-04-27T10:56:51.0000000+00:00</time></trkpt><trkpt lat="35.0492298" lon="32.6273844"><ele>1003.9</ele><time>2015-04-27T10:56:53.0000000+00:00</time></trkpt><trkpt lat="35.0491904" lon="32.6274124"><ele>1003.9</ele><time>2015-04-27T10:56:55.0000000+00:00</time></trkpt><trkpt lat="35.0491514" lon="32.6274438"><ele>1003.7</ele><time>2015-04-27T10:56:57.0000000+00:00</time></trkpt><trkpt lat="35.0491041" lon="32.6274874"><ele>1003.1</ele><time>2015-04-27T10:57:00.0000000+00:00</time></trkpt><trkpt lat="35.0490646" lon="32.6275388"><ele>1002.3</ele><time>2015-04-27T10:57:03.0000000+00:00</time></trkpt><trkpt lat="35.049026" lon="32.6276012"><ele>1004.9</ele><time>2015-04-27T10:57:06.0000000+00:00</time></trkpt><trkpt lat="35.048981" lon="32.6276598"><ele>1005.5</ele><time>2015-04-27T10:57:09.0000000+00:00</time></trkpt><trkpt lat="35.0489512" lon="32.6277018"><ele>1006.3</ele><time>2015-04-27T10:57:11.0000000+00:00</time></trkpt><trkpt lat="35.0489205" lon="32.6277426"><ele>1007.3</ele><time>2015-04-27T10:57:13.0000000+00:00</time></trkpt><trkpt lat="35.0488861" lon="32.627782"><ele>1009.0</ele><time>2015-04-27T10:57:15.0000000+00:00</time></trkpt><trkpt lat="35.0488547" lon="32.6278213"><ele>1010.5</ele><time>2015-04-27T10:57:17.0000000+00:00</time></trkpt><trkpt lat="35.0488244" lon="32.6278628"><ele>1009.3</ele><time>2015-04-27T10:57:19.0000000+00:00</time></trkpt><trkpt lat="35.0487857" lon="32.6279296"><ele>1007.7</ele><time>2015-04-27T10:57:22.0000000+00:00</time></trkpt><trkpt lat="35.0487416" lon="32.6279875"><ele>1009.0</ele><time>2015-04-27T10:57:25.0000000+00:00</time></trkpt><trkpt lat="35.0487178" lon="32.6280583"><ele>1009.4</ele><time>2015-04-27T10:57:28.0000000+00:00</time></trkpt><trkpt lat="35.0486966" lon="32.6281242"><ele>1009.1</ele><time>2015-04-27T10:57:31.0000000+00:00</time></trkpt><trkpt lat="35.0486763" lon="32.6281883"><ele>1008.8</ele><time>2015-04-27T10:57:34.0000000+00:00</time></trkpt><trkpt lat="35.0486496" lon="32.6282553"><ele>1009.7</ele><time>2015-04-27T10:57:37.0000000+00:00</time></trkpt><trkpt lat="35.0486169" lon="32.628317"><ele>1009.1</ele><time>2015-04-27T10:57:40.0000000+00:00</time></trkpt><trkpt lat="35.0485846" lon="32.6283708"><ele>1008.3</ele><time>2015-04-27T10:57:43.0000000+00:00</time></trkpt><trkpt lat="35.0485308" lon="32.6284074"><ele>1008.2</ele><time>2015-04-27T10:57:46.0000000+00:00</time></trkpt><trkpt lat="35.0484879" lon="32.6284385"><ele>1009.5</ele><time>2015-04-27T10:57:50.0000000+00:00</time></trkpt><trkpt lat="35.0484295" lon="32.6284485"><ele>1009.5</ele><time>2015-04-27T10:57:55.0000000+00:00</time></trkpt><trkpt lat="35.0483831" lon="32.6284881"><ele>1009.8</ele><time>2015-04-27T10:57:58.0000000+00:00</time></trkpt><trkpt lat="35.0483304" lon="32.628519"><ele>1011.3</ele><time>2015-04-27T10:58:01.0000000+00:00</time></trkpt><trkpt lat="35.0482811" lon="32.6285266"><ele>1013.5</ele><time>2015-04-27T10:58:04.0000000+00:00</time></trkpt><trkpt lat="35.0482343" lon="32.6285158"><ele>1013.9</ele><time>2015-04-27T10:58:07.0000000+00:00</time></trkpt><trkpt lat="35.0481898" lon="32.6284893"><ele>1014.4</ele><time>2015-04-27T10:58:10.0000000+00:00</time></trkpt><trkpt lat="35.0481506" lon="32.6284488"><ele>1014.9</ele><time>2015-04-27T10:58:13.0000000+00:00</time></trkpt><trkpt lat="35.0481013" lon="32.6284177"><ele>1015.7</ele><time>2015-04-27T10:58:16.0000000+00:00</time></trkpt><trkpt lat="35.0480579" lon="32.6283723"><ele>1015.9</ele><time>2015-04-27T10:58:19.0000000+00:00</time></trkpt><trkpt lat="35.0480154" lon="32.6283284"><ele>1016.7</ele><time>2015-04-27T10:58:22.0000000+00:00</time></trkpt><trkpt lat="35.0479814" lon="32.6282762"><ele>1017.4</ele><time>2015-04-27T10:58:25.0000000+00:00</time></trkpt><trkpt lat="35.0479481" lon="32.6282224"><ele>1017.1</ele><time>2015-04-27T10:58:28.0000000+00:00</time></trkpt><trkpt lat="35.0478991" lon="32.6281799"><ele>1017.0</ele><time>2015-04-27T10:58:31.0000000+00:00</time></trkpt><trkpt lat="35.047855" lon="32.6281296"><ele>1016.6</ele><time>2015-04-27T10:58:34.0000000+00:00</time></trkpt><trkpt lat="35.0478129" lon="32.628081"><ele>1017.8</ele><time>2015-04-27T10:58:37.0000000+00:00</time></trkpt><trkpt lat="35.0477702" lon="32.6280328"><ele>1018.7</ele><time>2015-04-27T10:58:40.0000000+00:00</time></trkpt><trkpt lat="35.0477255" lon="32.6279875"><ele>1020.1</ele><time>2015-04-27T10:58:43.0000000+00:00</time></trkpt><trkpt lat="35.0476836" lon="32.6279389"><ele>1021.6</ele><time>2015-04-27T10:58:46.0000000+00:00</time></trkpt><trkpt lat="35.0476437" lon="32.6278792"><ele>1021.1</ele><time>2015-04-27T10:58:49.0000000+00:00</time></trkpt><trkpt lat="35.0475883" lon="32.6278379"><ele>1021.7</ele><time>2015-04-27T10:58:52.0000000+00:00</time></trkpt><trkpt lat="35.0475362" lon="32.6277935"><ele>1021.2</ele><time>2015-04-27T10:58:55.0000000+00:00</time></trkpt><trkpt lat="35.0474805" lon="32.6277542"><ele>1020.7</ele><time>2015-04-27T10:58:58.0000000+00:00</time></trkpt><trkpt lat="35.0474214" lon="32.6277371"><ele>1022.5</ele><time>2015-04-27T10:59:01.0000000+00:00</time></trkpt><trkpt lat="35.0473705" lon="32.62771"><ele>1024.0</ele><time>2015-04-27T10:59:04.0000000+00:00</time></trkpt><trkpt lat="35.0473323" lon="32.6276778"><ele>1025.1</ele><time>2015-04-27T10:59:07.0000000+00:00</time></trkpt><trkpt lat="35.0472885" lon="32.6276607"><ele>1025.7</ele><time>2015-04-27T10:59:10.0000000+00:00</time></trkpt><trkpt lat="35.0472409" lon="32.6276402"><ele>1024.3</ele><time>2015-04-27T10:59:13.0000000+00:00</time></trkpt><trkpt lat="35.0471927" lon="32.627602"><ele>1023.5</ele><time>2015-04-27T10:59:16.0000000+00:00</time></trkpt><trkpt lat="35.0471389" lon="32.6275672"><ele>1023.0</ele><time>2015-04-27T10:59:19.0000000+00:00</time></trkpt><trkpt lat="35.0470833" lon="32.6275321"><ele>1022.9</ele><time>2015-04-27T10:59:22.0000000+00:00</time></trkpt><trkpt lat="35.0470228" lon="32.6275113"><ele>1022.9</ele><time>2015-04-27T10:59:25.0000000+00:00</time></trkpt><trkpt lat="35.0469666" lon="32.6274869"><ele>1022.8</ele><time>2015-04-27T10:59:28.0000000+00:00</time></trkpt><trkpt lat="35.04691" lon="32.6274823"><ele>1022.9</ele><time>2015-04-27T10:59:31.0000000+00:00</time></trkpt><trkpt lat="35.0468522" lon="32.6274819"><ele>1023.7</ele><time>2015-04-27T10:59:34.0000000+00:00</time></trkpt><trkpt lat="35.0467957" lon="32.6275096"><ele>1023.9</ele><time>2015-04-27T10:59:37.0000000+00:00</time></trkpt><trkpt lat="35.0467356" lon="32.6275396"><ele>1024.4</ele><time>2015-04-27T10:59:40.0000000+00:00</time></trkpt><trkpt lat="35.0466983" lon="32.6275707"><ele>1024.8</ele><time>2015-04-27T10:59:42.0000000+00:00</time></trkpt><trkpt lat="35.0466618" lon="32.6276033"><ele>1024.9</ele><time>2015-04-27T10:59:44.0000000+00:00</time></trkpt><trkpt lat="35.0466121" lon="32.6276548"><ele>1024.9</ele><time>2015-04-27T10:59:47.0000000+00:00</time></trkpt><trkpt lat="35.0465643" lon="32.6277089"><ele>1025.6</ele><time>2015-04-27T10:59:50.0000000+00:00</time></trkpt><trkpt lat="35.046516" lon="32.627765"><ele>1025.9</ele><time>2015-04-27T10:59:53.0000000+00:00</time></trkpt><trkpt lat="35.0464859" lon="32.6278059"><ele>1025.9</ele><time>2015-04-27T10:59:55.0000000+00:00</time></trkpt><trkpt lat="35.0464504" lon="32.6278757"><ele>1025.2</ele><time>2015-04-27T10:59:58.0000000+00:00</time></trkpt><trkpt lat="35.0464078" lon="32.6279394"><ele>1025.8</ele><time>2015-04-27T11:00:01.0000000+00:00</time></trkpt><trkpt lat="35.0463806" lon="32.6279838"><ele>1025.2</ele><time>2015-04-27T11:00:03.0000000+00:00</time></trkpt><trkpt lat="35.0463498" lon="32.6280251"><ele>1025.5</ele><time>2015-04-27T11:00:05.0000000+00:00</time></trkpt><trkpt lat="35.0463157" lon="32.6280631"><ele>1026.6</ele><time>2015-04-27T11:00:07.0000000+00:00</time></trkpt><trkpt lat="35.0462859" lon="32.6281044"><ele>1027.6</ele><time>2015-04-27T11:00:09.0000000+00:00</time></trkpt><trkpt lat="35.0462485" lon="32.6281381"><ele>1027.6</ele><time>2015-04-27T11:00:11.0000000+00:00</time></trkpt><trkpt lat="35.0462069" lon="32.6281661"><ele>1027.8</ele><time>2015-04-27T11:00:13.0000000+00:00</time></trkpt><trkpt lat="35.0461607" lon="32.628193"><ele>1027.9</ele><time>2015-04-27T11:00:15.0000000+00:00</time></trkpt><trkpt lat="35.0461084" lon="32.628207"><ele>1027.4</ele><time>2015-04-27T11:00:17.0000000+00:00</time></trkpt><trkpt lat="35.0460519" lon="32.6282008"><ele>1027.1</ele><time>2015-04-27T11:00:19.0000000+00:00</time></trkpt><trkpt lat="35.0459962" lon="32.6281814"><ele>1027.5</ele><time>2015-04-27T11:00:21.0000000+00:00</time></trkpt><trkpt lat="35.0459461" lon="32.6281554"><ele>1027.1</ele><time>2015-04-27T11:00:23.0000000+00:00</time></trkpt><trkpt lat="35.0458993" lon="32.6281197"><ele>1026.9</ele><time>2015-04-27T11:00:26.0000000+00:00</time></trkpt><trkpt lat="35.0458569" lon="32.6281009"><ele>1026.9</ele><time>2015-04-27T11:00:29.0000000+00:00</time></trkpt><trkpt lat="35.0458107" lon="32.6280758"><ele>1026.2</ele><time>2015-04-27T11:00:32.0000000+00:00</time></trkpt><trkpt lat="35.0457437" lon="32.6280558"><ele>1026.0</ele><time>2015-04-27T11:00:35.0000000+00:00</time></trkpt><trkpt lat="35.0456916" lon="32.6280384"><ele>1025.9</ele><time>2015-04-27T11:00:37.0000000+00:00</time></trkpt><trkpt lat="35.045635" lon="32.628032"><ele>1025.9</ele><time>2015-04-27T11:00:39.0000000+00:00</time></trkpt><trkpt lat="35.0455778" lon="32.6280322"><ele>1026.4</ele><time>2015-04-27T11:00:41.0000000+00:00</time></trkpt><trkpt lat="35.0455117" lon="32.6280349"><ele>1026.6</ele><time>2015-04-27T11:00:43.0000000+00:00</time></trkpt><trkpt lat="35.0454407" lon="32.6280412"><ele>1027.6</ele><time>2015-04-27T11:00:45.0000000+00:00</time></trkpt><trkpt lat="35.0453696" lon="32.628052"><ele>1027.8</ele><time>2015-04-27T11:00:47.0000000+00:00</time></trkpt><trkpt lat="35.0452995" lon="32.6280704"><ele>1028.7</ele><time>2015-04-27T11:00:49.0000000+00:00</time></trkpt><trkpt lat="35.0452306" lon="32.6280935"><ele>1027.4</ele><time>2015-04-27T11:00:51.0000000+00:00</time></trkpt><trkpt lat="35.0451609" lon="32.6281185"><ele>1026.5</ele><time>2015-04-27T11:00:53.0000000+00:00</time></trkpt><trkpt lat="35.0450942" lon="32.6281624"><ele>1025.1</ele><time>2015-04-27T11:00:55.0000000+00:00</time></trkpt><trkpt lat="35.0450307" lon="32.6282175"><ele>1025.0</ele><time>2015-04-27T11:00:57.0000000+00:00</time></trkpt><trkpt lat="35.0449667" lon="32.6282757"><ele>1024.9</ele><time>2015-04-27T11:00:59.0000000+00:00</time></trkpt><trkpt lat="35.044901" lon="32.6283382"><ele>1024.4</ele><time>2015-04-27T11:01:01.0000000+00:00</time></trkpt><trkpt lat="35.0448312" lon="32.6283821"><ele>1025.6</ele><time>2015-04-27T11:01:03.0000000+00:00</time></trkpt><trkpt lat="35.0447512" lon="32.6284007"><ele>1026.6</ele><time>2015-04-27T11:01:05.0000000+00:00</time></trkpt><trkpt lat="35.044683" lon="32.6283947"><ele>1026.3</ele><time>2015-04-27T11:01:06.0000000+00:00</time></trkpt><trkpt lat="35.0445925" lon="32.6284088"><ele>1027.3</ele><time>2015-04-27T11:01:08.0000000+00:00</time></trkpt><trkpt lat="35.0445209" lon="32.6284154"><ele>1027.0</ele><time>2015-04-27T11:01:10.0000000+00:00</time></trkpt><trkpt lat="35.0444579" lon="32.6284114"><ele>1027.2</ele><time>2015-04-27T11:01:12.0000000+00:00</time></trkpt><trkpt lat="35.0444066" lon="32.6284143"><ele>1027.7</ele><time>2015-04-27T11:01:14.0000000+00:00</time></trkpt><trkpt lat="35.044341" lon="32.628426"><ele>1030.8</ele><time>2015-04-27T11:01:17.0000000+00:00</time></trkpt><trkpt lat="35.0442909" lon="32.6284297"><ele>1032.1</ele><time>2015-04-27T11:01:19.0000000+00:00</time></trkpt><trkpt lat="35.0442355" lon="32.6284276"><ele>1031.5</ele><time>2015-04-27T11:01:21.0000000+00:00</time></trkpt><trkpt lat="35.0441771" lon="32.6284215"><ele>1029.1</ele><time>2015-04-27T11:01:23.0000000+00:00</time></trkpt><trkpt lat="35.0441119" lon="32.6284139"><ele>1029.2</ele><time>2015-04-27T11:01:25.0000000+00:00</time></trkpt><trkpt lat="35.0440352" lon="32.6284084"><ele>1028.3</ele><time>2015-04-27T11:01:27.0000000+00:00</time></trkpt><trkpt lat="35.0439601" lon="32.6284032"><ele>1028.8</ele><time>2015-04-27T11:01:29.0000000+00:00</time></trkpt><trkpt lat="35.0438925" lon="32.6283742"><ele>1026.1</ele><time>2015-04-27T11:01:31.0000000+00:00</time></trkpt><trkpt lat="35.0438302" lon="32.6283618"><ele>1026.5</ele><time>2015-04-27T11:01:33.0000000+00:00</time></trkpt><trkpt lat="35.0437689" lon="32.6283602"><ele>1026.1</ele><time>2015-04-27T11:01:35.0000000+00:00</time></trkpt><trkpt lat="35.0437031" lon="32.6283627"><ele>1028.5</ele><time>2015-04-27T11:01:37.0000000+00:00</time></trkpt><trkpt lat="35.0436369" lon="32.6283608"><ele>1030.3</ele><time>2015-04-27T11:01:39.0000000+00:00</time></trkpt><trkpt lat="35.0435683" lon="32.6283645"><ele>1030.8</ele><time>2015-04-27T11:01:41.0000000+00:00</time></trkpt><trkpt lat="35.0434938" lon="32.6283872"><ele>1030.1</ele><time>2015-04-27T11:01:43.0000000+00:00</time></trkpt><trkpt lat="35.0434199" lon="32.6284235"><ele>1030.0</ele><time>2015-04-27T11:01:45.0000000+00:00</time></trkpt><trkpt lat="35.0433525" lon="32.628479"><ele>1029.7</ele><time>2015-04-27T11:01:47.0000000+00:00</time></trkpt><trkpt lat="35.0432908" lon="32.6285448"><ele>1031.6</ele><time>2015-04-27T11:01:49.0000000+00:00</time></trkpt><trkpt lat="35.0432345" lon="32.6286104"><ele>1033.1</ele><time>2015-04-27T11:01:51.0000000+00:00</time></trkpt><trkpt lat="35.0431799" lon="32.6286751"><ele>1035.0</ele><time>2015-04-27T11:01:53.0000000+00:00</time></trkpt><trkpt lat="35.0431209" lon="32.6287294"><ele>1035.7</ele><time>2015-04-27T11:01:55.0000000+00:00</time></trkpt><trkpt lat="35.043063" lon="32.6287702"><ele>1035.4</ele><time>2015-04-27T11:01:57.0000000+00:00</time></trkpt><trkpt lat="35.0430118" lon="32.6288137"><ele>1035.0</ele><time>2015-04-27T11:01:59.0000000+00:00</time></trkpt><trkpt lat="35.0429607" lon="32.6288523"><ele>1034.2</ele><time>2015-04-27T11:02:01.0000000+00:00</time></trkpt><trkpt lat="35.0429071" lon="32.6288808"><ele>1033.5</ele><time>2015-04-27T11:02:03.0000000+00:00</time></trkpt><trkpt lat="35.0428546" lon="32.6289032"><ele>1033.1</ele><time>2015-04-27T11:02:05.0000000+00:00</time></trkpt><trkpt lat="35.0428008" lon="32.6289321"><ele>1033.7</ele><time>2015-04-27T11:02:07.0000000+00:00</time></trkpt><trkpt lat="35.0427482" lon="32.6289574"><ele>1034.4</ele><time>2015-04-27T11:02:09.0000000+00:00</time></trkpt><trkpt lat="35.042696" lon="32.6289889"><ele>1035.3</ele><time>2015-04-27T11:02:11.0000000+00:00</time></trkpt><trkpt lat="35.042644" lon="32.6290221"><ele>1035.0</ele><time>2015-04-27T11:02:13.0000000+00:00</time></trkpt><trkpt lat="35.0425906" lon="32.6290411"><ele>1034.2</ele><time>2015-04-27T11:02:15.0000000+00:00</time></trkpt><trkpt lat="35.0425382" lon="32.6290641"><ele>1035.5</ele><time>2015-04-27T11:02:17.0000000+00:00</time></trkpt><trkpt lat="35.0424914" lon="32.6291015"><ele>1036.6</ele><time>2015-04-27T11:02:19.0000000+00:00</time></trkpt><trkpt lat="35.0424404" lon="32.6291456"><ele>1036.8</ele><time>2015-04-27T11:02:21.0000000+00:00</time></trkpt><trkpt lat="35.0423875" lon="32.6291948"><ele>1035.7</ele><time>2015-04-27T11:02:23.0000000+00:00</time></trkpt><trkpt lat="35.0423347" lon="32.629254"><ele>1035.9</ele><time>2015-04-27T11:02:25.0000000+00:00</time></trkpt><trkpt lat="35.0422855" lon="32.6293078"><ele>1037.4</ele><time>2015-04-27T11:02:27.0000000+00:00</time></trkpt><trkpt lat="35.0422427" lon="32.6293586"><ele>1037.1</ele><time>2015-04-27T11:02:29.0000000+00:00</time></trkpt><trkpt lat="35.0421943" lon="32.6294029"><ele>1036.2</ele><time>2015-04-27T11:02:31.0000000+00:00</time></trkpt><trkpt lat="35.042145" lon="32.6294477"><ele>1036.0</ele><time>2015-04-27T11:02:33.0000000+00:00</time></trkpt><trkpt lat="35.0420899" lon="32.6294864"><ele>1036.4</ele><time>2015-04-27T11:02:35.0000000+00:00</time></trkpt><trkpt lat="35.0420252" lon="32.6295022"><ele>1037.3</ele><time>2015-04-27T11:02:37.0000000+00:00</time></trkpt><trkpt lat="35.041966" lon="32.629474"><ele>1038.3</ele><time>2015-04-27T11:02:39.0000000+00:00</time></trkpt><trkpt lat="35.041917" lon="32.6294184"><ele>1038.3</ele><time>2015-04-27T11:02:41.0000000+00:00</time></trkpt><trkpt lat="35.0418782" lon="32.629355"><ele>1038.5</ele><time>2015-04-27T11:02:43.0000000+00:00</time></trkpt><trkpt lat="35.0418579" lon="32.6292994"><ele>1039.6</ele><time>2015-04-27T11:02:45.0000000+00:00</time></trkpt><trkpt lat="35.0418381" lon="32.6292481"><ele>1039.8</ele><time>2015-04-27T11:02:47.0000000+00:00</time></trkpt><trkpt lat="35.0418111" lon="32.6291771"><ele>1039.9</ele><time>2015-04-27T11:02:50.0000000+00:00</time></trkpt><trkpt lat="35.0417914" lon="32.6291248"><ele>1040.7</ele><time>2015-04-27T11:02:54.0000000+00:00</time></trkpt><trkpt lat="35.0417559" lon="32.629082"><ele>1041.7</ele><time>2015-04-27T11:02:58.0000000+00:00</time></trkpt><trkpt lat="35.0417227" lon="32.6290188"><ele>1043.6</ele><time>2015-04-27T11:03:02.0000000+00:00</time></trkpt><trkpt lat="35.0416834" lon="32.6289828"><ele>1043.8</ele><time>2015-04-27T11:03:04.0000000+00:00</time></trkpt><trkpt lat="35.0416285" lon="32.6289443"><ele>1043.9</ele><time>2015-04-27T11:03:06.0000000+00:00</time></trkpt><trkpt lat="35.0415553" lon="32.6289098"><ele>1043.4</ele><time>2015-04-27T11:03:08.0000000+00:00</time></trkpt><trkpt lat="35.0414806" lon="32.6288991"><ele>1043.8</ele><time>2015-04-27T11:03:10.0000000+00:00</time></trkpt><trkpt lat="35.0414087" lon="32.628925"><ele>1045.1</ele><time>2015-04-27T11:03:12.0000000+00:00</time></trkpt><trkpt lat="35.0413461" lon="32.6289722"><ele>1045.7</ele><time>2015-04-27T11:03:14.0000000+00:00</time></trkpt><trkpt lat="35.0412885" lon="32.6290157"><ele>1046.6</ele><time>2015-04-27T11:03:16.0000000+00:00</time></trkpt><trkpt lat="35.041248" lon="32.629046"><ele>1044.9</ele><time>2015-04-27T11:04:06.0000000+00:00</time></trkpt><trkpt lat="35.0411952" lon="32.6290764"><ele>1044.9</ele><time>2015-04-27T11:04:08.0000000+00:00</time></trkpt><trkpt lat="35.0411279" lon="32.6291068"><ele>1044.9</ele><time>2015-04-27T11:04:10.0000000+00:00</time></trkpt><trkpt lat="35.0410542" lon="32.6291364"><ele>1044.9</ele><time>2015-04-27T11:04:12.0000000+00:00</time></trkpt><trkpt lat="35.0409685" lon="32.6291702"><ele>1044.9</ele><time>2015-04-27T11:04:14.0000000+00:00</time></trkpt><trkpt lat="35.0408845" lon="32.6292003"><ele>1044.4</ele><time>2015-04-27T11:04:16.0000000+00:00</time></trkpt><trkpt lat="35.0407985" lon="32.6292291"><ele>1044.1</ele><time>2015-04-27T11:04:18.0000000+00:00</time></trkpt><trkpt lat="35.0407374" lon="32.6292357"><ele>1044.0</ele><time>2015-04-27T11:04:19.0000000+00:00</time></trkpt><trkpt lat="35.0406874" lon="32.6292536"><ele>1044.0</ele><time>2015-04-27T11:04:20.0000000+00:00</time></trkpt><trkpt lat="35.0406415" lon="32.629269"><ele>1043.4</ele><time>2015-04-27T11:04:21.0000000+00:00</time></trkpt><trkpt lat="35.0405963" lon="32.6292835"><ele>1043.2</ele><time>2015-04-27T11:04:22.0000000+00:00</time></trkpt><trkpt lat="35.0405508" lon="32.6292963"><ele>1043.1</ele><time>2015-04-27T11:04:23.0000000+00:00</time></trkpt><trkpt lat="35.0404991" lon="32.6293073"><ele>1043.0</ele><time>2015-04-27T11:04:24.0000000+00:00</time></trkpt><trkpt lat="35.0404497" lon="32.6293171"><ele>1043.0</ele><time>2015-04-27T11:04:25.0000000+00:00</time></trkpt><trkpt lat="35.0403928" lon="32.6293319"><ele>1043.4</ele><time>2015-04-27T11:04:26.0000000+00:00</time></trkpt><trkpt lat="35.0403395" lon="32.629355"><ele>1043.7</ele><time>2015-04-27T11:04:27.0000000+00:00</time></trkpt><trkpt lat="35.0402883" lon="32.6293768"><ele>1043.8</ele><time>2015-04-27T11:04:28.0000000+00:00</time></trkpt><trkpt lat="35.0402406" lon="32.6294009"><ele>1043.9</ele><time>2015-04-27T11:04:29.0000000+00:00</time></trkpt><trkpt lat="35.0401982" lon="32.6294294"><ele>1043.4</ele><time>2015-04-27T11:04:30.0000000+00:00</time></trkpt><trkpt lat="35.0401525" lon="32.6294536"><ele>1043.2</ele><time>2015-04-27T11:04:31.0000000+00:00</time></trkpt><trkpt lat="35.0400706" lon="32.6295039"><ele>1043.0</ele><time>2015-04-27T11:04:33.0000000+00:00</time></trkpt><trkpt lat="35.0400277" lon="32.6295294"><ele>1043.0</ele><time>2015-04-27T11:04:34.0000000+00:00</time></trkpt><trkpt lat="35.0399812" lon="32.6295476"><ele>1043.4</ele><time>2015-04-27T11:04:35.0000000+00:00</time></trkpt><trkpt lat="35.0399364" lon="32.6295691"><ele>1043.7</ele><time>2015-04-27T11:04:36.0000000+00:00</time></trkpt><trkpt lat="35.0398933" lon="32.6295902"><ele>1043.8</ele><time>2015-04-27T11:04:37.0000000+00:00</time></trkpt><trkpt lat="35.0398126" lon="32.6296277"><ele>1043.9</ele><time>2015-04-27T11:04:39.0000000+00:00</time></trkpt><trkpt lat="35.0397328" lon="32.6296675"><ele>1044.7</ele><time>2015-04-27T11:04:41.0000000+00:00</time></trkpt><trkpt lat="35.0396492" lon="32.629695"><ele>1044.9</ele><time>2015-04-27T11:04:43.0000000+00:00</time></trkpt><trkpt lat="35.039602" lon="32.6297054"><ele>1044.9</ele><time>2015-04-27T11:04:44.0000000+00:00</time></trkpt><trkpt lat="35.0395544" lon="32.629718"><ele>1044.4</ele><time>2015-04-27T11:04:45.0000000+00:00</time></trkpt><trkpt lat="35.0395088" lon="32.6297415"><ele>1044.7</ele><time>2015-04-27T11:04:46.0000000+00:00</time></trkpt><trkpt lat="35.0394175" lon="32.6297745"><ele>1044.4</ele><time>2015-04-27T11:04:48.0000000+00:00</time></trkpt><trkpt lat="35.0393755" lon="32.6298032"><ele>1044.6</ele><time>2015-04-27T11:04:49.0000000+00:00</time></trkpt><trkpt lat="35.0393103" lon="32.6298695"><ele>1044.6</ele><time>2015-04-27T11:04:51.0000000+00:00</time></trkpt><trkpt lat="35.0392604" lon="32.6299412"><ele>1044.8</ele><time>2015-04-27T11:04:53.0000000+00:00</time></trkpt><trkpt lat="35.039233" lon="32.6299867"><ele>1045.4</ele><time>2015-04-27T11:04:54.0000000+00:00</time></trkpt><trkpt lat="35.0391846" lon="32.6300807"><ele>1045.8</ele><time>2015-04-27T11:04:56.0000000+00:00</time></trkpt><trkpt lat="35.0391576" lon="32.6301268"><ele>1045.9</ele><time>2015-04-27T11:04:57.0000000+00:00</time></trkpt><trkpt lat="35.0391087" lon="32.6302043"><ele>1046.7</ele><time>2015-04-27T11:04:59.0000000+00:00</time></trkpt><trkpt lat="35.0390686" lon="32.630275"><ele>1046.6</ele><time>2015-04-27T11:05:01.0000000+00:00</time></trkpt><trkpt lat="35.0390414" lon="32.6303519"><ele>1047.4</ele><time>2015-04-27T11:05:03.0000000+00:00</time></trkpt><trkpt lat="35.038999" lon="32.6304288"><ele>1047.8</ele><time>2015-04-27T11:05:05.0000000+00:00</time></trkpt><trkpt lat="35.0389566" lon="32.6305105"><ele>1047.4</ele><time>2015-04-27T11:05:07.0000000+00:00</time></trkpt><trkpt lat="35.0388969" lon="32.6305824"><ele>1047.5</ele><time>2015-04-27T11:05:09.0000000+00:00</time></trkpt><trkpt lat="35.0388328" lon="32.6306393"><ele>1047.8</ele><time>2015-04-27T11:05:11.0000000+00:00</time></trkpt><trkpt lat="35.0387569" lon="32.630672"><ele>1047.9</ele><time>2015-04-27T11:05:13.0000000+00:00</time></trkpt><trkpt lat="35.0386711" lon="32.6306981"><ele>1047.9</ele><time>2015-04-27T11:05:15.0000000+00:00</time></trkpt><trkpt lat="35.0386155" lon="32.6307003"><ele>1047.4</ele><time>2015-04-27T11:05:16.0000000+00:00</time></trkpt><trkpt lat="35.038566" lon="32.6307191"><ele>1047.2</ele><time>2015-04-27T11:05:17.0000000+00:00</time></trkpt><trkpt lat="35.0385199" lon="32.6307352"><ele>1047.1</ele><time>2015-04-27T11:05:18.0000000+00:00</time></trkpt><trkpt lat="35.0384723" lon="32.6307512"><ele>1047.5</ele><time>2015-04-27T11:05:19.0000000+00:00</time></trkpt><trkpt lat="35.0384296" lon="32.6307715"><ele>1047.7</ele><time>2015-04-27T11:05:20.0000000+00:00</time></trkpt><trkpt lat="35.0383838" lon="32.6307864"><ele>1047.8</ele><time>2015-04-27T11:05:21.0000000+00:00</time></trkpt><trkpt lat="35.0383013" lon="32.6308198"><ele>1047.4</ele><time>2015-04-27T11:05:23.0000000+00:00</time></trkpt><trkpt lat="35.0382201" lon="32.6308384"><ele>1047.8</ele><time>2015-04-27T11:05:25.0000000+00:00</time></trkpt><trkpt lat="35.0381393" lon="32.6308362"><ele>1048.4</ele><time>2015-04-27T11:05:27.0000000+00:00</time></trkpt><trkpt lat="35.0380565" lon="32.6308056"><ele>1049.3</ele><time>2015-04-27T11:05:29.0000000+00:00</time></trkpt><trkpt lat="35.0379774" lon="32.6307613"><ele>1050.3</ele><time>2015-04-27T11:05:31.0000000+00:00</time></trkpt><trkpt lat="35.0379004" lon="32.6307094"><ele>1050.8</ele><time>2015-04-27T11:05:33.0000000+00:00</time></trkpt><trkpt lat="35.0378291" lon="32.630657"><ele>1050.9</ele><time>2015-04-27T11:05:35.0000000+00:00</time></trkpt><trkpt lat="35.0377641" lon="32.6306273"><ele>1050.9</ele><time>2015-04-27T11:05:37.0000000+00:00</time></trkpt><trkpt lat="35.0376943" lon="32.6306216"><ele>1051.4</ele><time>2015-04-27T11:05:39.0000000+00:00</time></trkpt><trkpt lat="35.0376171" lon="32.6306322"><ele>1051.8</ele><time>2015-04-27T11:05:41.0000000+00:00</time></trkpt><trkpt lat="35.0375382" lon="32.6306546"><ele>1052.1</ele><time>2015-04-27T11:05:43.0000000+00:00</time></trkpt><trkpt lat="35.0374413" lon="32.6307178"><ele>1052.0</ele><time>2015-04-27T11:05:45.0000000+00:00</time></trkpt><trkpt lat="35.0373993" lon="32.6307446"><ele>1051.5</ele><time>2015-04-27T11:05:46.0000000+00:00</time></trkpt><trkpt lat="35.037361" lon="32.6307782"><ele>1051.2</ele><time>2015-04-27T11:05:47.0000000+00:00</time></trkpt><trkpt lat="35.037329" lon="32.6308206"><ele>1051.1</ele><time>2015-04-27T11:05:48.0000000+00:00</time></trkpt><trkpt lat="35.0372937" lon="32.6308554"><ele>1050.5</ele><time>2015-04-27T11:05:49.0000000+00:00</time></trkpt><trkpt lat="35.0372594" lon="32.6309046"><ele>1050.7</ele><time>2015-04-27T11:05:50.0000000+00:00</time></trkpt><trkpt lat="35.0372298" lon="32.6309495"><ele>1050.3</ele><time>2015-04-27T11:05:51.0000000+00:00</time></trkpt><trkpt lat="35.0371976" lon="32.6309937"><ele>1050.1</ele><time>2015-04-27T11:05:52.0000000+00:00</time></trkpt><trkpt lat="35.0371678" lon="32.6310434"><ele>1050.0</ele><time>2015-04-27T11:05:53.0000000+00:00</time></trkpt><trkpt lat="35.0371404" lon="32.6310919"><ele>1050.0</ele><time>2015-04-27T11:05:54.0000000+00:00</time></trkpt><trkpt lat="35.0371117" lon="32.6311465"><ele>1050.0</ele><time>2015-04-27T11:05:55.0000000+00:00</time></trkpt><trkpt lat="35.0370847" lon="32.6312077"><ele>1049.9</ele><time>2015-04-27T11:05:56.0000000+00:00</time></trkpt><trkpt lat="35.037053" lon="32.6312677"><ele>1049.9</ele><time>2015-04-27T11:05:57.0000000+00:00</time></trkpt><trkpt lat="35.0370262" lon="32.6313428"><ele>1050.4</ele><time>2015-04-27T11:05:58.0000000+00:00</time></trkpt><trkpt lat="35.036998" lon="32.6314123"><ele>1050.7</ele><time>2015-04-27T11:05:59.0000000+00:00</time></trkpt><trkpt lat="35.0369675" lon="32.6314829"><ele>1050.8</ele><time>2015-04-27T11:06:00.0000000+00:00</time></trkpt><trkpt lat="35.0369282" lon="32.6315397"><ele>1050.9</ele><time>2015-04-27T11:06:01.0000000+00:00</time></trkpt><trkpt lat="35.0368738" lon="32.63158"><ele>1050.4</ele><time>2015-04-27T11:06:02.0000000+00:00</time></trkpt><trkpt lat="35.0368108" lon="32.6316086"><ele>1050.2</ele><time>2015-04-27T11:06:03.0000000+00:00</time></trkpt><trkpt lat="35.0367457" lon="32.6316184"><ele>1050.0</ele><time>2015-04-27T11:06:04.0000000+00:00</time></trkpt><trkpt lat="35.0366778" lon="32.6316316"><ele>1049.5</ele><time>2015-04-27T11:06:05.0000000+00:00</time></trkpt><trkpt lat="35.0366067" lon="32.6316518"><ele>1048.7</ele><time>2015-04-27T11:06:06.0000000+00:00</time></trkpt><trkpt lat="35.0365537" lon="32.631697"><ele>1048.8</ele><time>2015-04-27T11:06:07.0000000+00:00</time></trkpt><trkpt lat="35.0365102" lon="32.6317634"><ele>1048.9</ele><time>2015-04-27T11:06:08.0000000+00:00</time></trkpt><trkpt lat="35.0364821" lon="32.631842"><ele>1048.9</ele><time>2015-04-27T11:06:09.0000000+00:00</time></trkpt><trkpt lat="35.0364652" lon="32.6319262"><ele>1048.9</ele><time>2015-04-27T11:06:10.0000000+00:00</time></trkpt><trkpt lat="35.0364583" lon="32.632017"><ele>1048.9</ele><time>2015-04-27T11:06:11.0000000+00:00</time></trkpt><trkpt lat="35.0364557" lon="32.6321112"><ele>1048.4</ele><time>2015-04-27T11:06:12.0000000+00:00</time></trkpt><trkpt lat="35.0364566" lon="32.6322114"><ele>1048.2</ele><time>2015-04-27T11:06:13.0000000+00:00</time></trkpt><trkpt lat="35.0364558" lon="32.632312"><ele>1048.1</ele><time>2015-04-27T11:06:14.0000000+00:00</time></trkpt><trkpt lat="35.0364488" lon="32.6324072"><ele>1047.5</ele><time>2015-04-27T11:06:15.0000000+00:00</time></trkpt><trkpt lat="35.0364291" lon="32.6324794"><ele>1047.2</ele><time>2015-04-27T11:06:16.0000000+00:00</time></trkpt><trkpt lat="35.0363959" lon="32.6325342"><ele>1047.1</ele><time>2015-04-27T11:06:17.0000000+00:00</time></trkpt><trkpt lat="35.0363493" lon="32.6325617"><ele>1047.0</ele><time>2015-04-27T11:06:18.0000000+00:00</time></trkpt><trkpt lat="35.0362942" lon="32.6325652"><ele>1047.0</ele><time>2015-04-27T11:06:19.0000000+00:00</time></trkpt><trkpt lat="35.036241" lon="32.6325534"><ele>1046.9</ele><time>2015-04-27T11:06:20.0000000+00:00</time></trkpt><trkpt lat="35.0361859" lon="32.632542"><ele>1046.9</ele><time>2015-04-27T11:06:21.0000000+00:00</time></trkpt><trkpt lat="35.0361287" lon="32.6325183"><ele>1047.4</ele><time>2015-04-27T11:06:22.0000000+00:00</time></trkpt><trkpt lat="35.0360711" lon="32.6324968"><ele>1047.7</ele><time>2015-04-27T11:06:23.0000000+00:00</time></trkpt><trkpt lat="35.0360054" lon="32.6324728"><ele>1047.8</ele><time>2015-04-27T11:06:24.0000000+00:00</time></trkpt><trkpt lat="35.0359422" lon="32.6324503"><ele>1047.4</ele><time>2015-04-27T11:06:25.0000000+00:00</time></trkpt><trkpt lat="35.0358693" lon="32.6324379"><ele>1047.1</ele><time>2015-04-27T11:06:26.0000000+00:00</time></trkpt><trkpt lat="35.0357952" lon="32.6324401"><ele>1047.0</ele><time>2015-04-27T11:06:27.0000000+00:00</time></trkpt><trkpt lat="35.035718" lon="32.6324415"><ele>1046.0</ele><time>2015-04-27T11:06:28.0000000+00:00</time></trkpt><trkpt lat="35.0356383" lon="32.6324623"><ele>1045.0</ele><time>2015-04-27T11:06:29.0000000+00:00</time></trkpt><trkpt lat="35.0355556" lon="32.6324731"><ele>1044.4</ele><time>2015-04-27T11:06:30.0000000+00:00</time></trkpt><trkpt lat="35.0354756" lon="32.6324983"><ele>1043.7</ele><time>2015-04-27T11:06:31.0000000+00:00</time></trkpt><trkpt lat="35.0354036" lon="32.6325262"><ele>1043.8</ele><time>2015-04-27T11:06:32.0000000+00:00</time></trkpt><trkpt lat="35.035331" lon="32.6325666"><ele>1043.4</ele><time>2015-04-27T11:06:33.0000000+00:00</time></trkpt><trkpt lat="35.0352764" lon="32.6326398"><ele>1043.1</ele><time>2015-04-27T11:06:34.0000000+00:00</time></trkpt><trkpt lat="35.0352369" lon="32.6327229"><ele>1042.5</ele><time>2015-04-27T11:06:35.0000000+00:00</time></trkpt><trkpt lat="35.0352264" lon="32.6328219"><ele>1041.7</ele><time>2015-04-27T11:06:36.0000000+00:00</time></trkpt><trkpt lat="35.035248" lon="32.632916"><ele>1041.3</ele><time>2015-04-27T11:06:37.0000000+00:00</time></trkpt><trkpt lat="35.0352554" lon="32.6330075"><ele>1040.6</ele><time>2015-04-27T11:06:38.0000000+00:00</time></trkpt><trkpt lat="35.0352429" lon="32.6330978"><ele>1039.8</ele><time>2015-04-27T11:06:39.0000000+00:00</time></trkpt><trkpt lat="35.035208" lon="32.6331771"><ele>1038.9</ele><time>2015-04-27T11:06:40.0000000+00:00</time></trkpt><trkpt lat="35.0351557" lon="32.6332314"><ele>1038.4</ele><time>2015-04-27T11:06:41.0000000+00:00</time></trkpt><trkpt lat="35.0350959" lon="32.633277"><ele>1037.7</ele><time>2015-04-27T11:06:42.0000000+00:00</time></trkpt><trkpt lat="35.0350231" lon="32.6333038"><ele>1037.3</ele><time>2015-04-27T11:06:43.0000000+00:00</time></trkpt><trkpt lat="35.034946" lon="32.6333141"><ele>1037.1</ele><time>2015-04-27T11:06:44.0000000+00:00</time></trkpt><trkpt lat="35.0348687" lon="32.6333212"><ele>1036.5</ele><time>2015-04-27T11:06:45.0000000+00:00</time></trkpt><trkpt lat="35.0347866" lon="32.6333326"><ele>1035.7</ele><time>2015-04-27T11:06:46.0000000+00:00</time></trkpt><trkpt lat="35.034699" lon="32.6333489"><ele>1035.3</ele><time>2015-04-27T11:06:47.0000000+00:00</time></trkpt><trkpt lat="35.0346063" lon="32.6333753"><ele>1035.1</ele><time>2015-04-27T11:06:48.0000000+00:00</time></trkpt><trkpt lat="35.0345273" lon="32.6334114"><ele>1035.0</ele><time>2015-04-27T11:06:49.0000000+00:00</time></trkpt><trkpt lat="35.0344512" lon="32.633449"><ele>1035.0</ele><time>2015-04-27T11:06:50.0000000+00:00</time></trkpt><trkpt lat="35.034379" lon="32.6334867"><ele>1035.0</ele><time>2015-04-27T11:06:51.0000000+00:00</time></trkpt><trkpt lat="35.0343047" lon="32.6335215"><ele>1034.9</ele><time>2015-04-27T11:06:52.0000000+00:00</time></trkpt><trkpt lat="35.0342283" lon="32.6335513"><ele>1034.4</ele><time>2015-04-27T11:06:53.0000000+00:00</time></trkpt><trkpt lat="35.0341582" lon="32.6335921"><ele>1034.2</ele><time>2015-04-27T11:06:54.0000000+00:00</time></trkpt><trkpt lat="35.0340932" lon="32.6336244"><ele>1034.1</ele><time>2015-04-27T11:06:55.0000000+00:00</time></trkpt><trkpt lat="35.0340358" lon="32.6336696"><ele>1034.0</ele><time>2015-04-27T11:06:56.0000000+00:00</time></trkpt><trkpt lat="35.0339917" lon="32.6337216"><ele>1033.5</ele><time>2015-04-27T11:06:57.0000000+00:00</time></trkpt><trkpt lat="35.0339721" lon="32.6337938"><ele>1033.2</ele><time>2015-04-27T11:06:58.0000000+00:00</time></trkpt><trkpt lat="35.0339586" lon="32.6338722"><ele>1033.1</ele><time>2015-04-27T11:06:59.0000000+00:00</time></trkpt><trkpt lat="35.0339512" lon="32.6339555"><ele>1033.0</ele><time>2015-04-27T11:07:00.0000000+00:00</time></trkpt><trkpt lat="35.033938" lon="32.6340371"><ele>1032.5</ele><time>2015-04-27T11:07:01.0000000+00:00</time></trkpt><trkpt lat="35.0339363" lon="32.6341215"><ele>1032.2</ele><time>2015-04-27T11:07:02.0000000+00:00</time></trkpt><trkpt lat="35.0339332" lon="32.6342022"><ele>1032.1</ele><time>2015-04-27T11:07:03.0000000+00:00</time></trkpt><trkpt lat="35.033934" lon="32.6342832"><ele>1032.0</ele><time>2015-04-27T11:07:04.0000000+00:00</time></trkpt><trkpt lat="35.0339384" lon="32.6343651"><ele>1032.0</ele><time>2015-04-27T11:07:05.0000000+00:00</time></trkpt><trkpt lat="35.0339417" lon="32.6344431"><ele>1031.9</ele><time>2015-04-27T11:07:06.0000000+00:00</time></trkpt><trkpt lat="35.033938" lon="32.6345269"><ele>1031.9</ele><time>2015-04-27T11:07:07.0000000+00:00</time></trkpt><trkpt lat="35.0339364" lon="32.6346065"><ele>1032.4</ele><time>2015-04-27T11:07:08.0000000+00:00</time></trkpt><trkpt lat="35.0339391" lon="32.6346801"><ele>1032.7</ele><time>2015-04-27T11:07:09.0000000+00:00</time></trkpt><trkpt lat="35.0339296" lon="32.6347606"><ele>1032.8</ele><time>2015-04-27T11:07:10.0000000+00:00</time></trkpt><trkpt lat="35.0339193" lon="32.6348338"><ele>1032.4</ele><time>2015-04-27T11:07:11.0000000+00:00</time></trkpt><trkpt lat="35.0338982" lon="32.6348979"><ele>1032.1</ele><time>2015-04-27T11:07:12.0000000+00:00</time></trkpt><trkpt lat="35.0338684" lon="32.6349521"><ele>1031.5</ele><time>2015-04-27T11:07:13.0000000+00:00</time></trkpt><trkpt lat="35.0338278" lon="32.6349908"><ele>1030.7</ele><time>2015-04-27T11:07:14.0000000+00:00</time></trkpt><trkpt lat="35.0337872" lon="32.635015"><ele>1029.8</ele><time>2015-04-27T11:07:15.0000000+00:00</time></trkpt><trkpt lat="35.033742" lon="32.6350354"><ele>1029.4</ele><time>2015-04-27T11:07:16.0000000+00:00</time></trkpt><trkpt lat="35.0336633" lon="32.6350449"><ele>1029.0</ele><time>2015-04-27T11:07:18.0000000+00:00</time></trkpt><trkpt lat="35.033591" lon="32.6350315"><ele>1029.0</ele><time>2015-04-27T11:07:20.0000000+00:00</time></trkpt><trkpt lat="35.0335305" lon="32.6350278"><ele>1030.2</ele><time>2015-04-27T11:07:22.0000000+00:00</time></trkpt><trkpt lat="35.0334726" lon="32.635034"><ele>1030.7</ele><time>2015-04-27T11:07:24.0000000+00:00</time></trkpt><trkpt lat="35.0334251" lon="32.6350462"><ele>1031.1</ele><time>2015-04-27T11:07:26.0000000+00:00</time></trkpt><trkpt lat="35.033367" lon="32.6350526"><ele>1032.2</ele><time>2015-04-27T11:07:28.0000000+00:00</time></trkpt><trkpt lat="35.033313" lon="32.6350549"><ele>1035.0</ele><time>2015-04-27T11:07:30.0000000+00:00</time></trkpt><trkpt lat="35.0332578" lon="32.6350604"><ele>1037.2</ele><time>2015-04-27T11:07:32.0000000+00:00</time></trkpt><trkpt lat="35.033202" lon="32.6350722"><ele>1038.2</ele><time>2015-04-27T11:07:34.0000000+00:00</time></trkpt><trkpt lat="35.0331493" lon="32.6350799"><ele>1039.1</ele><time>2015-04-27T11:07:37.0000000+00:00</time></trkpt><trkpt lat="35.033094" lon="32.6350682"><ele>1039.3</ele><time>2015-04-27T11:07:42.0000000+00:00</time></trkpt><trkpt lat="35.0330483" lon="32.6350808"><ele>1046.3</ele><time>2015-04-27T11:09:53.0000000+00:00</time></trkpt><trkpt lat="35.0330946" lon="32.6350851"><ele>1038.9</ele><time>2015-04-27T11:16:34.0000000+00:00</time></trkpt><trkpt lat="35.0331016" lon="32.6351399"><ele>1042.2</ele><time>2015-04-27T11:20:17.0000000+00:00</time></trkpt><trkpt lat="35.0330853" lon="32.6352101"><ele>1042.8</ele><time>2015-04-27T11:20:21.0000000+00:00</time></trkpt><trkpt lat="35.0330818" lon="32.6352755"><ele>1042.9</ele><time>2015-04-27T11:20:24.0000000+00:00</time></trkpt><trkpt lat="35.0330937" lon="32.6353379"><ele>1043.7</ele><time>2015-04-27T11:20:27.0000000+00:00</time></trkpt><trkpt lat="35.0330952" lon="32.6354012"><ele>1043.8</ele><time>2015-04-27T11:20:30.0000000+00:00</time></trkpt><trkpt lat="35.0330983" lon="32.6354622"><ele>1043.9</ele><time>2015-04-27T11:20:33.0000000+00:00</time></trkpt><trkpt lat="35.0330966" lon="32.6355217"><ele>1044.4</ele><time>2015-04-27T11:20:36.0000000+00:00</time></trkpt><trkpt lat="35.0330761" lon="32.6355788"><ele>1045.4</ele><time>2015-04-27T11:20:39.0000000+00:00</time></trkpt><trkpt lat="35.0330721" lon="32.635637"><ele>1045.9</ele><time>2015-04-27T11:20:42.0000000+00:00</time></trkpt><trkpt lat="35.0330731" lon="32.6357071"><ele>1045.9</ele><time>2015-04-27T11:20:46.0000000+00:00</time></trkpt><trkpt lat="35.0330614" lon="32.6357784"><ele>1046.4</ele><time>2015-04-27T11:20:50.0000000+00:00</time></trkpt><trkpt lat="35.0330539" lon="32.6358423"><ele>1046.0</ele><time>2015-04-27T11:20:54.0000000+00:00</time></trkpt><trkpt lat="35.0330451" lon="32.635903"><ele>1045.9</ele><time>2015-04-27T11:20:58.0000000+00:00</time></trkpt><trkpt lat="35.0330517" lon="32.6359664"><ele>1046.7</ele><time>2015-04-27T11:21:02.0000000+00:00</time></trkpt><trkpt lat="35.0330547" lon="32.6360283"><ele>1046.0</ele><time>2015-04-27T11:21:06.0000000+00:00</time></trkpt><trkpt lat="35.0330708" lon="32.6360902"><ele>1046.8</ele><time>2015-04-27T11:21:10.0000000+00:00</time></trkpt><trkpt lat="35.0330844" lon="32.6361541"><ele>1046.9</ele><time>2015-04-27T11:21:14.0000000+00:00</time></trkpt><trkpt lat="35.0331025" lon="32.6362188"><ele>1046.9</ele><time>2015-04-27T11:21:18.0000000+00:00</time></trkpt><trkpt lat="35.0331234" lon="32.6362787"><ele>1047.8</ele><time>2015-04-27T11:21:22.0000000+00:00</time></trkpt><trkpt lat="35.0331486" lon="32.6363371"><ele>1047.9</ele><time>2015-04-27T11:21:26.0000000+00:00</time></trkpt><trkpt lat="35.0331601" lon="32.6363953"><ele>1047.9</ele><time>2015-04-27T11:21:30.0000000+00:00</time></trkpt><trkpt lat="35.0331638" lon="32.6364544"><ele>1047.9</ele><time>2015-04-27T11:21:34.0000000+00:00</time></trkpt><trkpt lat="35.033169" lon="32.6365134"><ele>1047.9</ele><time>2015-04-27T11:21:38.0000000+00:00</time></trkpt><trkpt lat="35.0331682" lon="32.6365763"><ele>1047.9</ele><time>2015-04-27T11:21:42.0000000+00:00</time></trkpt><trkpt lat="35.033171" lon="32.6366375"><ele>1048.8</ele><time>2015-04-27T11:21:46.0000000+00:00</time></trkpt><trkpt lat="35.0331532" lon="32.6366943"><ele>1048.9</ele><time>2015-04-27T11:21:50.0000000+00:00</time></trkpt><trkpt lat="35.033147" lon="32.6367566"><ele>1049.2</ele><time>2015-04-27T11:21:54.0000000+00:00</time></trkpt><trkpt lat="35.0331282" lon="32.6368161"><ele>1048.9</ele><time>2015-04-27T11:21:58.0000000+00:00</time></trkpt><trkpt lat="35.0331019" lon="32.6368754"><ele>1048.9</ele><time>2015-04-27T11:22:02.0000000+00:00</time></trkpt><trkpt lat="35.0330744" lon="32.6369356"><ele>1049.9</ele><time>2015-04-27T11:22:06.0000000+00:00</time></trkpt><trkpt lat="35.0330477" lon="32.6369959"><ele>1049.9</ele><time>2015-04-27T11:22:10.0000000+00:00</time></trkpt><trkpt lat="35.0330265" lon="32.637057"><ele>1050.9</ele><time>2015-04-27T11:22:14.0000000+00:00</time></trkpt><trkpt lat="35.0329987" lon="32.6371117"><ele>1051.7</ele><time>2015-04-27T11:22:17.0000000+00:00</time></trkpt><trkpt lat="35.0329655" lon="32.6371637"><ele>1052.4</ele><time>2015-04-27T11:22:22.0000000+00:00</time></trkpt><trkpt lat="35.0329465" lon="32.637217"><ele>1052.9</ele><time>2015-04-27T11:22:26.0000000+00:00</time></trkpt><trkpt lat="35.0329313" lon="32.6372711"><ele>1053.3</ele><time>2015-04-27T11:22:29.0000000+00:00</time></trkpt><trkpt lat="35.0329122" lon="32.6373289"><ele>1053.9</ele><time>2015-04-27T11:22:32.0000000+00:00</time></trkpt><trkpt lat="35.0328985" lon="32.6373887"><ele>1055.2</ele><time>2015-04-27T11:22:35.0000000+00:00</time></trkpt><trkpt lat="35.0328961" lon="32.6374492"><ele>1055.8</ele><time>2015-04-27T11:22:38.0000000+00:00</time></trkpt><trkpt lat="35.0328958" lon="32.63751"><ele>1056.4</ele><time>2015-04-27T11:22:41.0000000+00:00</time></trkpt><trkpt lat="35.032896" lon="32.6375676"><ele>1057.4</ele><time>2015-04-27T11:22:44.0000000+00:00</time></trkpt><trkpt lat="35.0328975" lon="32.6376302"><ele>1057.9</ele><time>2015-04-27T11:22:49.0000000+00:00</time></trkpt><trkpt lat="35.0328971" lon="32.6376933"><ele>1057.9</ele><time>2015-04-27T11:22:55.0000000+00:00</time></trkpt><trkpt lat="35.0329119" lon="32.6377562"><ele>1059.4</ele><time>2015-04-27T11:23:00.0000000+00:00</time></trkpt><trkpt lat="35.0329369" lon="32.6378132"><ele>1060.8</ele><time>2015-04-27T11:23:05.0000000+00:00</time></trkpt><trkpt lat="35.0329626" lon="32.637859"><ele>1060.9</ele><time>2015-04-27T11:23:09.0000000+00:00</time></trkpt><trkpt lat="35.0329949" lon="32.6379138"><ele>1061.7</ele><time>2015-04-27T11:23:14.0000000+00:00</time></trkpt><trkpt lat="35.0330144" lon="32.6379647"><ele>1062.9</ele><time>2015-04-27T11:23:18.0000000+00:00</time></trkpt><trkpt lat="35.0330392" lon="32.6380131"><ele>1062.9</ele><time>2015-04-27T11:23:22.0000000+00:00</time></trkpt><trkpt lat="35.033064" lon="32.6380633"><ele>1063.8</ele><time>2015-04-27T11:23:26.0000000+00:00</time></trkpt><trkpt lat="35.0330974" lon="32.6381183"><ele>1063.9</ele><time>2015-04-27T11:23:31.0000000+00:00</time></trkpt><trkpt lat="35.0331316" lon="32.6381685"><ele>1063.7</ele><time>2015-04-27T11:23:35.0000000+00:00</time></trkpt><trkpt lat="35.0331622" lon="32.6382092"><ele>1065.0</ele><time>2015-04-27T11:23:39.0000000+00:00</time></trkpt><trkpt lat="35.0332027" lon="32.638251"><ele>1065.0</ele><time>2015-04-27T11:23:44.0000000+00:00</time></trkpt><trkpt lat="35.0332452" lon="32.6382741"><ele>1064.7</ele><time>2015-04-27T11:23:48.0000000+00:00</time></trkpt><trkpt lat="35.0332934" lon="32.6382943"><ele>1064.9</ele><time>2015-04-27T11:23:52.0000000+00:00</time></trkpt><trkpt lat="35.0333381" lon="32.638316"><ele>1065.9</ele><time>2015-04-27T11:23:56.0000000+00:00</time></trkpt><trkpt lat="35.0333869" lon="32.6383114"><ele>1066.0</ele><time>2015-04-27T11:24:00.0000000+00:00</time></trkpt><trkpt lat="35.0334405" lon="32.6382985"><ele>1066.9</ele><time>2015-04-27T11:24:05.0000000+00:00</time></trkpt><trkpt lat="35.0334869" lon="32.6382795"><ele>1067.4</ele><time>2015-04-27T11:24:10.0000000+00:00</time></trkpt><trkpt lat="35.0335377" lon="32.6382967"><ele>1067.4</ele><time>2015-04-27T11:24:15.0000000+00:00</time></trkpt><trkpt lat="35.0335894" lon="32.6382848"><ele>1067.9</ele><time>2015-04-27T11:24:19.0000000+00:00</time></trkpt><trkpt lat="35.0336317" lon="32.6382658"><ele>1068.7</ele><time>2015-04-27T11:24:22.0000000+00:00</time></trkpt><trkpt lat="35.0336884" lon="32.6382554"><ele>1069.9</ele><time>2015-04-27T11:24:26.0000000+00:00</time></trkpt><trkpt lat="35.0337517" lon="32.6382563"><ele>1069.9</ele><time>2015-04-27T11:24:30.0000000+00:00</time></trkpt><trkpt lat="35.0338066" lon="32.6382735"><ele>1070.2</ele><time>2015-04-27T11:24:33.0000000+00:00</time></trkpt><trkpt lat="35.0338569" lon="32.6382955"><ele>1070.0</ele><time>2015-04-27T11:24:36.0000000+00:00</time></trkpt><trkpt lat="35.0339036" lon="32.6383208"><ele>1070.6</ele><time>2015-04-27T11:24:39.0000000+00:00</time></trkpt><trkpt lat="35.0339453" lon="32.6383546"><ele>1070.0</ele><time>2015-04-27T11:24:44.0000000+00:00</time></trkpt><trkpt lat="35.033986" lon="32.6383905"><ele>1069.0</ele><time>2015-04-27T11:24:49.0000000+00:00</time></trkpt><trkpt lat="35.0340235" lon="32.6384307"><ele>1068.1</ele><time>2015-04-27T11:24:53.0000000+00:00</time></trkpt><trkpt lat="35.0340598" lon="32.6384731"><ele>1068.8</ele><time>2015-04-27T11:24:56.0000000+00:00</time></trkpt><trkpt lat="35.0341056" lon="32.6385103"><ele>1069.8</ele><time>2015-04-27T11:24:59.0000000+00:00</time></trkpt><trkpt lat="35.0341476" lon="32.6385512"><ele>1070.0</ele><time>2015-04-27T11:25:02.0000000+00:00</time></trkpt><trkpt lat="35.0341906" lon="32.6385936"><ele>1070.1</ele><time>2015-04-27T11:25:05.0000000+00:00</time></trkpt><trkpt lat="35.0342268" lon="32.6386351"><ele>1069.9</ele><time>2015-04-27T11:25:08.0000000+00:00</time></trkpt><trkpt lat="35.0342634" lon="32.638682"><ele>1069.3</ele><time>2015-04-27T11:25:12.0000000+00:00</time></trkpt><trkpt lat="35.0342994" lon="32.6387217"><ele>1069.4</ele><time>2015-04-27T11:25:16.0000000+00:00</time></trkpt><trkpt lat="35.0343363" lon="32.6387648"><ele>1068.5</ele><time>2015-04-27T11:25:20.0000000+00:00</time></trkpt><trkpt lat="35.0343776" lon="32.6388022"><ele>1068.0</ele><time>2015-04-27T11:25:24.0000000+00:00</time></trkpt><trkpt lat="35.0344196" lon="32.6388334"><ele>1067.9</ele><time>2015-04-27T11:25:29.0000000+00:00</time></trkpt><trkpt lat="35.0344646" lon="32.638854"><ele>1068.9</ele><time>2015-04-27T11:25:33.0000000+00:00</time></trkpt><trkpt lat="35.0345195" lon="32.6388567"><ele>1070.6</ele><time>2015-04-27T11:25:37.0000000+00:00</time></trkpt><trkpt lat="35.0345694" lon="32.6388485"><ele>1072.7</ele><time>2015-04-27T11:25:41.0000000+00:00</time></trkpt><trkpt lat="35.03462" lon="32.6388534"><ele>1074.5</ele><time>2015-04-27T11:25:47.0000000+00:00</time></trkpt><trkpt lat="35.0346686" lon="32.6388466"><ele>1074.4</ele><time>2015-04-27T11:25:52.0000000+00:00</time></trkpt><trkpt lat="35.0347135" lon="32.6388563"><ele>1075.6</ele><time>2015-04-27T11:25:55.0000000+00:00</time></trkpt><trkpt lat="35.0347583" lon="32.6388654"><ele>1077.1</ele><time>2015-04-27T11:25:58.0000000+00:00</time></trkpt><trkpt lat="35.0348057" lon="32.6388764"><ele>1076.8</ele><time>2015-04-27T11:26:01.0000000+00:00</time></trkpt><trkpt lat="35.0348525" lon="32.6388827"><ele>1077.0</ele><time>2015-04-27T11:26:04.0000000+00:00</time></trkpt><trkpt lat="35.0348975" lon="32.6388903"><ele>1076.4</ele><time>2015-04-27T11:26:07.0000000+00:00</time></trkpt><trkpt lat="35.0349501" lon="32.6389104"><ele>1076.4</ele><time>2015-04-27T11:26:11.0000000+00:00</time></trkpt><trkpt lat="35.034993" lon="32.6389341"><ele>1078.1</ele><time>2015-04-27T11:26:15.0000000+00:00</time></trkpt><trkpt lat="35.0350332" lon="32.6389602"><ele>1080.6</ele><time>2015-04-27T11:26:19.0000000+00:00</time></trkpt><trkpt lat="35.0350803" lon="32.6389736"><ele>1080.8</ele><time>2015-04-27T11:26:23.0000000+00:00</time></trkpt><trkpt lat="35.0351305" lon="32.6389957"><ele>1082.8</ele><time>2015-04-27T11:26:27.0000000+00:00</time></trkpt><trkpt lat="35.0351756" lon="32.6390408"><ele>1082.3</ele><time>2015-04-27T11:26:31.0000000+00:00</time></trkpt><trkpt lat="35.035217" lon="32.6390916"><ele>1081.0</ele><time>2015-04-27T11:26:35.0000000+00:00</time></trkpt><trkpt lat="35.0352437" lon="32.6391389"><ele>1081.8</ele><time>2015-04-27T11:26:38.0000000+00:00</time></trkpt><trkpt lat="35.0352682" lon="32.6391895"><ele>1081.9</ele><time>2015-04-27T11:26:41.0000000+00:00</time></trkpt><trkpt lat="35.0352936" lon="32.6392393"><ele>1082.7</ele><time>2015-04-27T11:26:44.0000000+00:00</time></trkpt><trkpt lat="35.0353063" lon="32.6392947"><ele>1083.1</ele><time>2015-04-27T11:26:47.0000000+00:00</time></trkpt><trkpt lat="35.0353234" lon="32.6393608"><ele>1083.9</ele><time>2015-04-27T11:26:51.0000000+00:00</time></trkpt><trkpt lat="35.0353501" lon="32.6394153"><ele>1083.9</ele><time>2015-04-27T11:26:55.0000000+00:00</time></trkpt><trkpt lat="35.0353674" lon="32.6394762"><ele>1084.8</ele><time>2015-04-27T11:26:59.0000000+00:00</time></trkpt><trkpt lat="35.0353917" lon="32.6395351"><ele>1084.9</ele><time>2015-04-27T11:27:03.0000000+00:00</time></trkpt><trkpt lat="35.035418" lon="32.6395946"><ele>1085.8</ele><time>2015-04-27T11:27:07.0000000+00:00</time></trkpt><trkpt lat="35.0354339" lon="32.6396543"><ele>1086.8</ele><time>2015-04-27T11:27:11.0000000+00:00</time></trkpt><trkpt lat="35.0354471" lon="32.6397196"><ele>1087.9</ele><time>2015-04-27T11:27:15.0000000+00:00</time></trkpt><trkpt lat="35.0354383" lon="32.639791"><ele>1087.9</ele><time>2015-04-27T11:27:19.0000000+00:00</time></trkpt><trkpt lat="35.0354144" lon="32.639844"><ele>1088.4</ele><time>2015-04-27T11:27:22.0000000+00:00</time></trkpt><trkpt lat="35.0353683" lon="32.6398926"><ele>1088.0</ele><time>2015-04-27T11:27:25.0000000+00:00</time></trkpt><trkpt lat="35.0353177" lon="32.639934"><ele>1088.1</ele><time>2015-04-27T11:27:28.0000000+00:00</time></trkpt><trkpt lat="35.0352773" lon="32.6399709"><ele>1088.7</ele><time>2015-04-27T11:27:32.0000000+00:00</time></trkpt><trkpt lat="35.0352308" lon="32.6399993"><ele>1088.0</ele><time>2015-04-27T11:27:37.0000000+00:00</time></trkpt><trkpt lat="35.0351888" lon="32.6400226"><ele>1087.2</ele><time>2015-04-27T11:27:41.0000000+00:00</time></trkpt><trkpt lat="35.0351426" lon="32.6400474"><ele>1086.0</ele><time>2015-04-27T11:27:45.0000000+00:00</time></trkpt><trkpt lat="35.0351017" lon="32.6400846"><ele>1085.9</ele><time>2015-04-27T11:27:49.0000000+00:00</time></trkpt><trkpt lat="35.0350622" lon="32.640124"><ele>1085.5</ele><time>2015-04-27T11:27:53.0000000+00:00</time></trkpt><trkpt lat="35.0350312" lon="32.6401696"><ele>1085.9</ele><time>2015-04-27T11:27:57.0000000+00:00</time></trkpt><trkpt lat="35.0349965" lon="32.6402135"><ele>1088.7</ele><time>2015-04-27T11:28:01.0000000+00:00</time></trkpt><trkpt lat="35.0349512" lon="32.6402514"><ele>1089.7</ele><time>2015-04-27T11:28:05.0000000+00:00</time></trkpt><trkpt lat="35.0348994" lon="32.6402821"><ele>1090.3</ele><time>2015-04-27T11:28:08.0000000+00:00</time></trkpt><trkpt lat="35.0348608" lon="32.6403168"><ele>1090.8</ele><time>2015-04-27T11:28:11.0000000+00:00</time></trkpt><trkpt lat="35.0348198" lon="32.6403602"><ele>1091.6</ele><time>2015-04-27T11:28:15.0000000+00:00</time></trkpt><trkpt lat="35.0347688" lon="32.6403838"><ele>1091.9</ele><time>2015-04-27T11:28:18.0000000+00:00</time></trkpt><trkpt lat="35.0347231" lon="32.6404055"><ele>1091.9</ele><time>2015-04-27T11:28:21.0000000+00:00</time></trkpt><trkpt lat="35.0346765" lon="32.6404296"><ele>1092.1</ele><time>2015-04-27T11:28:24.0000000+00:00</time></trkpt><trkpt lat="35.0346251" lon="32.6404665"><ele>1092.9</ele><time>2015-04-27T11:28:28.0000000+00:00</time></trkpt><trkpt lat="35.0345908" lon="32.6405079"><ele>1093.4</ele><time>2015-04-27T11:28:31.0000000+00:00</time></trkpt><trkpt lat="35.034568" lon="32.6405645"><ele>1093.9</ele><time>2015-04-27T11:28:34.0000000+00:00</time></trkpt><trkpt lat="35.0345442" lon="32.6406271"><ele>1095.0</ele><time>2015-04-27T11:28:37.0000000+00:00</time></trkpt><trkpt lat="35.0345328" lon="32.6406962"><ele>1094.6</ele><time>2015-04-27T11:28:40.0000000+00:00</time></trkpt><trkpt lat="35.0345302" lon="32.6407713"><ele>1096.3</ele><time>2015-04-27T11:28:43.0000000+00:00</time></trkpt><trkpt lat="35.0345208" lon="32.6408384"><ele>1096.1</ele><time>2015-04-27T11:28:46.0000000+00:00</time></trkpt><trkpt lat="35.034514" lon="32.6409008"><ele>1096.3</ele><time>2015-04-27T11:28:49.0000000+00:00</time></trkpt><trkpt lat="35.0345083" lon="32.6409557"><ele>1097.1</ele><time>2015-04-27T11:28:52.0000000+00:00</time></trkpt><trkpt lat="35.0344908" lon="32.6410188"><ele>1096.8</ele><time>2015-04-27T11:28:56.0000000+00:00</time></trkpt><trkpt lat="35.0344812" lon="32.6410854"><ele>1097.4</ele><time>2015-04-27T11:29:00.0000000+00:00</time></trkpt><trkpt lat="35.0344819" lon="32.6411554"><ele>1097.6</ele><time>2015-04-27T11:29:04.0000000+00:00</time></trkpt><trkpt lat="35.0344845" lon="32.6412262"><ele>1097.2</ele><time>2015-04-27T11:29:08.0000000+00:00</time></trkpt><trkpt lat="35.0344707" lon="32.6412893"><ele>1098.2</ele><time>2015-04-27T11:29:12.0000000+00:00</time></trkpt><trkpt lat="35.0344546" lon="32.6413472"><ele>1098.8</ele><time>2015-04-27T11:29:16.0000000+00:00</time></trkpt><trkpt lat="35.0344361" lon="32.6414079"><ele>1099.9</ele><time>2015-04-27T11:29:20.0000000+00:00</time></trkpt><trkpt lat="35.0344133" lon="32.6414752"><ele>1101.4</ele><time>2015-04-27T11:29:24.0000000+00:00</time></trkpt><trkpt lat="35.0343917" lon="32.6415241"><ele>1102.4</ele><time>2015-04-27T11:29:27.0000000+00:00</time></trkpt><trkpt lat="35.0343686" lon="32.6415725"><ele>1102.0</ele><time>2015-04-27T11:29:30.0000000+00:00</time></trkpt><trkpt lat="35.0343372" lon="32.6416179"><ele>1102.1</ele><time>2015-04-27T11:29:33.0000000+00:00</time></trkpt><trkpt lat="35.0343099" lon="32.6416652"><ele>1101.9</ele><time>2015-04-27T11:29:36.0000000+00:00</time></trkpt><trkpt lat="35.0342961" lon="32.6417179"><ele>1102.4</ele><time>2015-04-27T11:29:39.0000000+00:00</time></trkpt><trkpt lat="35.0342758" lon="32.6417678"><ele>1102.9</ele><time>2015-04-27T11:29:42.0000000+00:00</time></trkpt><trkpt lat="35.0342402" lon="32.6418232"><ele>1104.3</ele><time>2015-04-27T11:29:46.0000000+00:00</time></trkpt><trkpt lat="35.0342125" lon="32.6418846"><ele>1105.4</ele><time>2015-04-27T11:29:50.0000000+00:00</time></trkpt><trkpt lat="35.0341878" lon="32.641931"><ele>1105.5</ele><time>2015-04-27T11:29:53.0000000+00:00</time></trkpt><trkpt lat="35.0341638" lon="32.6419962"><ele>1105.8</ele><time>2015-04-27T11:29:57.0000000+00:00</time></trkpt><trkpt lat="35.03414" lon="32.6420595"><ele>1105.9</ele><time>2015-04-27T11:30:01.0000000+00:00</time></trkpt><trkpt lat="35.0341127" lon="32.6421192"><ele>1105.4</ele><time>2015-04-27T11:30:05.0000000+00:00</time></trkpt><trkpt lat="35.0340962" lon="32.6421792"><ele>1105.9</ele><time>2015-04-27T11:30:09.0000000+00:00</time></trkpt><trkpt lat="35.0340815" lon="32.6422442"><ele>1106.2</ele><time>2015-04-27T11:30:13.0000000+00:00</time></trkpt><trkpt lat="35.0340676" lon="32.6423111"><ele>1106.8</ele><time>2015-04-27T11:30:17.0000000+00:00</time></trkpt><trkpt lat="35.034047" lon="32.642376"><ele>1107.7</ele><time>2015-04-27T11:30:21.0000000+00:00</time></trkpt><trkpt lat="35.0340125" lon="32.6424287"><ele>1108.4</ele><time>2015-04-27T11:30:25.0000000+00:00</time></trkpt><trkpt lat="35.0339691" lon="32.6424697"><ele>1108.4</ele><time>2015-04-27T11:30:29.0000000+00:00</time></trkpt><trkpt lat="35.0339202" lon="32.6425006"><ele>1109.3</ele><time>2015-04-27T11:30:33.0000000+00:00</time></trkpt><trkpt lat="35.0338667" lon="32.6425203"><ele>1109.8</ele><time>2015-04-27T11:30:37.0000000+00:00</time></trkpt><trkpt lat="35.0338142" lon="32.6425311"><ele>1111.3</ele><time>2015-04-27T11:30:41.0000000+00:00</time></trkpt><trkpt lat="35.0337625" lon="32.6425478"><ele>1111.6</ele><time>2015-04-27T11:30:45.0000000+00:00</time></trkpt><trkpt lat="35.0337069" lon="32.6425343"><ele>1111.0</ele><time>2015-04-27T11:30:49.0000000+00:00</time></trkpt><trkpt lat="35.0336484" lon="32.6425249"><ele>1111.1</ele><time>2015-04-27T11:30:53.0000000+00:00</time></trkpt><trkpt lat="35.0336007" lon="32.6425122"><ele>1110.6</ele><time>2015-04-27T11:30:56.0000000+00:00</time></trkpt><trkpt lat="35.0335538" lon="32.6425102"><ele>1110.9</ele><time>2015-04-27T11:30:59.0000000+00:00</time></trkpt><trkpt lat="35.0334984" lon="32.6425044"><ele>1110.9</ele><time>2015-04-27T11:31:03.0000000+00:00</time></trkpt><trkpt lat="35.0334422" lon="32.6425168"><ele>1111.6</ele><time>2015-04-27T11:31:07.0000000+00:00</time></trkpt><trkpt lat="35.0333889" lon="32.6425191"><ele>1111.9</ele><time>2015-04-27T11:31:11.0000000+00:00</time></trkpt><trkpt lat="35.0333356" lon="32.6425339"><ele>1112.7</ele><time>2015-04-27T11:31:15.0000000+00:00</time></trkpt><trkpt lat="35.0332844" lon="32.6425318"><ele>1111.5</ele><time>2015-04-27T11:31:19.0000000+00:00</time></trkpt><trkpt lat="35.0332381" lon="32.6425516"><ele>1111.9</ele><time>2015-04-27T11:31:23.0000000+00:00</time></trkpt><trkpt lat="35.033191" lon="32.6425791"><ele>1111.7</ele><time>2015-04-27T11:31:27.0000000+00:00</time></trkpt><trkpt lat="35.0331597" lon="32.6426367"><ele>1111.4</ele><time>2015-04-27T11:31:31.0000000+00:00</time></trkpt><trkpt lat="35.0331432" lon="32.642703"><ele>1111.8</ele><time>2015-04-27T11:31:35.0000000+00:00</time></trkpt><trkpt lat="35.0331469" lon="32.6427665"><ele>1111.9</ele><time>2015-04-27T11:31:39.0000000+00:00</time></trkpt><trkpt lat="35.0331435" lon="32.6428295"><ele>1112.8</ele><time>2015-04-27T11:31:43.0000000+00:00</time></trkpt><trkpt lat="35.0331491" lon="32.6428932"><ele>1113.8</ele><time>2015-04-27T11:31:47.0000000+00:00</time></trkpt><trkpt lat="35.0331595" lon="32.6429554"><ele>1114.8</ele><time>2015-04-27T11:31:51.0000000+00:00</time></trkpt><trkpt lat="35.0331604" lon="32.6430204"><ele>1115.7</ele><time>2015-04-27T11:31:55.0000000+00:00</time></trkpt><trkpt lat="35.0331553" lon="32.6430884"><ele>1115.9</ele><time>2015-04-27T11:31:59.0000000+00:00</time></trkpt><trkpt lat="35.0331595" lon="32.6431476"><ele>1115.9</ele><time>2015-04-27T11:32:03.0000000+00:00</time></trkpt><trkpt lat="35.03316" lon="32.6432035"><ele>1115.9</ele><time>2015-04-27T11:32:07.0000000+00:00</time></trkpt><trkpt lat="35.0331589" lon="32.6432603"><ele>1116.8</ele><time>2015-04-27T11:32:11.0000000+00:00</time></trkpt><trkpt lat="35.0331545" lon="32.6433215"><ele>1117.2</ele><time>2015-04-27T11:32:15.0000000+00:00</time></trkpt><trkpt lat="35.0331523" lon="32.6433816"><ele>1117.4</ele><time>2015-04-27T11:32:19.0000000+00:00</time></trkpt><trkpt lat="35.0331454" lon="32.6434482"><ele>1119.3</ele><time>2015-04-27T11:32:23.0000000+00:00</time></trkpt><trkpt lat="35.0331253" lon="32.6435148"><ele>1119.0</ele><time>2015-04-27T11:32:27.0000000+00:00</time></trkpt><trkpt lat="35.0331086" lon="32.6435845"><ele>1118.9</ele><time>2015-04-27T11:32:31.0000000+00:00</time></trkpt><trkpt lat="35.0330948" lon="32.6436464"><ele>1119.8</ele><time>2015-04-27T11:32:35.0000000+00:00</time></trkpt><trkpt lat="35.0330687" lon="32.6437076"><ele>1119.0</ele><time>2015-04-27T11:32:39.0000000+00:00</time></trkpt><trkpt lat="35.0330528" lon="32.6437597"><ele>1118.9</ele><time>2015-04-27T11:32:42.0000000+00:00</time></trkpt><trkpt lat="35.0330403" lon="32.6438244"><ele>1120.4</ele><time>2015-04-27T11:32:46.0000000+00:00</time></trkpt><trkpt lat="35.0330265" lon="32.6438828"><ele>1121.8</ele><time>2015-04-27T11:32:50.0000000+00:00</time></trkpt><trkpt lat="35.0330001" lon="32.6439346"><ele>1121.5</ele><time>2015-04-27T11:32:54.0000000+00:00</time></trkpt><trkpt lat="35.0329761" lon="32.6439864"><ele>1122.4</ele><time>2015-04-27T11:32:58.0000000+00:00</time></trkpt><trkpt lat="35.0329443" lon="32.6440385"><ele>1122.4</ele><time>2015-04-27T11:33:02.0000000+00:00</time></trkpt><trkpt lat="35.0329154" lon="32.6440978"><ele>1123.4</ele><time>2015-04-27T11:33:06.0000000+00:00</time></trkpt><trkpt lat="35.0328918" lon="32.6441595"><ele>1123.1</ele><time>2015-04-27T11:33:10.0000000+00:00</time></trkpt><trkpt lat="35.0328585" lon="32.6442133"><ele>1123.3</ele><time>2015-04-27T11:33:14.0000000+00:00</time></trkpt><trkpt lat="35.0328385" lon="32.64427"><ele>1124.6</ele><time>2015-04-27T11:33:18.0000000+00:00</time></trkpt><trkpt lat="35.0328073" lon="32.6443127"><ele>1124.4</ele><time>2015-04-27T11:33:23.0000000+00:00</time></trkpt><trkpt lat="35.0327766" lon="32.6443654"><ele>1124.9</ele><time>2015-04-27T11:33:28.0000000+00:00</time></trkpt><trkpt lat="35.0327486" lon="32.6444108"><ele>1124.4</ele><time>2015-04-27T11:33:33.0000000+00:00</time></trkpt><trkpt lat="35.0327314" lon="32.6444654"><ele>1124.7</ele><time>2015-04-27T11:33:37.0000000+00:00</time></trkpt><trkpt lat="35.0327169" lon="32.6445293"><ele>1125.7</ele><time>2015-04-27T11:33:41.0000000+00:00</time></trkpt><trkpt lat="35.0327072" lon="32.6445944"><ele>1126.8</ele><time>2015-04-27T11:33:45.0000000+00:00</time></trkpt><trkpt lat="35.0327043" lon="32.6446647"><ele>1127.7</ele><time>2015-04-27T11:33:49.0000000+00:00</time></trkpt><trkpt lat="35.0326996" lon="32.6447312"><ele>1128.8</ele><time>2015-04-27T11:33:53.0000000+00:00</time></trkpt><trkpt lat="35.0327001" lon="32.6447992"><ele>1129.0</ele><time>2015-04-27T11:33:58.0000000+00:00</time></trkpt><trkpt lat="35.0327051" lon="32.6448632"><ele>1129.9</ele><time>2015-04-27T11:34:03.0000000+00:00</time></trkpt><trkpt lat="35.0327191" lon="32.6449167"><ele>1129.6</ele><time>2015-04-27T11:34:07.0000000+00:00</time></trkpt><trkpt lat="35.0327507" lon="32.6449616"><ele>1130.7</ele><time>2015-04-27T11:34:11.0000000+00:00</time></trkpt><trkpt lat="35.0327831" lon="32.645008"><ele>1131.7</ele><time>2015-04-27T11:34:15.0000000+00:00</time></trkpt><trkpt lat="35.0328235" lon="32.6450505"><ele>1133.2</ele><time>2015-04-27T11:34:19.0000000+00:00</time></trkpt><trkpt lat="35.03286" lon="32.6450898"><ele>1133.9</ele><time>2015-04-27T11:34:24.0000000+00:00</time></trkpt><trkpt lat="35.0329005" lon="32.6451186"><ele>1135.8</ele><time>2015-04-27T11:34:31.0000000+00:00</time></trkpt><trkpt lat="35.0329387" lon="32.6451478"><ele>1136.7</ele><time>2015-04-27T11:34:36.0000000+00:00</time></trkpt><trkpt lat="35.0329834" lon="32.6451806"><ele>1136.0</ele><time>2015-04-27T11:34:41.0000000+00:00</time></trkpt><trkpt lat="35.0330261" lon="32.6452094"><ele>1135.9</ele><time>2015-04-27T11:34:45.0000000+00:00</time></trkpt><trkpt lat="35.0330631" lon="32.6452468"><ele>1137.6</ele><time>2015-04-27T11:34:49.0000000+00:00</time></trkpt><trkpt lat="35.0331052" lon="32.6452897"><ele>1138.4</ele><time>2015-04-27T11:34:54.0000000+00:00</time></trkpt><trkpt lat="35.0331451" lon="32.6453211"><ele>1138.9</ele><time>2015-04-27T11:34:58.0000000+00:00</time></trkpt><trkpt lat="35.0331827" lon="32.6453613"><ele>1139.9</ele><time>2015-04-27T11:35:02.0000000+00:00</time></trkpt><trkpt lat="35.0332274" lon="32.6453983"><ele>1139.9</ele><time>2015-04-27T11:35:06.0000000+00:00</time></trkpt><trkpt lat="35.0332725" lon="32.6454361"><ele>1139.9</ele><time>2015-04-27T11:35:10.0000000+00:00</time></trkpt><trkpt lat="35.0333185" lon="32.6454728"><ele>1140.9</ele><time>2015-04-27T11:35:14.0000000+00:00</time></trkpt><trkpt lat="35.0333698" lon="32.6455031"><ele>1141.9</ele><time>2015-04-27T11:35:18.0000000+00:00</time></trkpt><trkpt lat="35.0334218" lon="32.6455317"><ele>1141.9</ele><time>2015-04-27T11:35:22.0000000+00:00</time></trkpt><trkpt lat="35.033461" lon="32.6455597"><ele>1141.6</ele><time>2015-04-27T11:35:25.0000000+00:00</time></trkpt><trkpt lat="35.0335066" lon="32.6455986"><ele>1141.9</ele><time>2015-04-27T11:35:29.0000000+00:00</time></trkpt><trkpt lat="35.0335561" lon="32.6456374"><ele>1142.9</ele><time>2015-04-27T11:35:33.0000000+00:00</time></trkpt><trkpt lat="35.0336005" lon="32.6456782"><ele>1143.1</ele><time>2015-04-27T11:35:37.0000000+00:00</time></trkpt><trkpt lat="35.0336364" lon="32.6457255"><ele>1142.9</ele><time>2015-04-27T11:35:41.0000000+00:00</time></trkpt><trkpt lat="35.0336629" lon="32.645786"><ele>1142.9</ele><time>2015-04-27T11:35:45.0000000+00:00</time></trkpt><trkpt lat="35.0336844" lon="32.6458484"><ele>1142.9</ele><time>2015-04-27T11:35:49.0000000+00:00</time></trkpt><trkpt lat="35.0337023" lon="32.6459149"><ele>1142.9</ele><time>2015-04-27T11:35:53.0000000+00:00</time></trkpt><trkpt lat="35.0337025" lon="32.6459867"><ele>1142.9</ele><time>2015-04-27T11:35:57.0000000+00:00</time></trkpt><trkpt lat="35.0336848" lon="32.6460546"><ele>1142.9</ele><time>2015-04-27T11:36:01.0000000+00:00</time></trkpt><trkpt lat="35.0336589" lon="32.6461203"><ele>1142.9</ele><time>2015-04-27T11:36:05.0000000+00:00</time></trkpt><trkpt lat="35.0336312" lon="32.6461638"><ele>1143.4</ele><time>2015-04-27T11:36:08.0000000+00:00</time></trkpt><trkpt lat="35.0335906" lon="32.6462168"><ele>1144.8</ele><time>2015-04-27T11:36:12.0000000+00:00</time></trkpt><trkpt lat="35.0335508" lon="32.6462638"><ele>1144.9</ele><time>2015-04-27T11:36:16.0000000+00:00</time></trkpt><trkpt lat="35.033536" lon="32.6463224"><ele>1144.4</ele><time>2015-04-27T11:36:20.0000000+00:00</time></trkpt><trkpt lat="35.033508" lon="32.64637"><ele>1144.0</ele><time>2015-04-27T11:36:24.0000000+00:00</time></trkpt><trkpt lat="35.0334836" lon="32.6464188"><ele>1145.1</ele><time>2015-04-27T11:36:28.0000000+00:00</time></trkpt><trkpt lat="35.0334517" lon="32.6464582"><ele>1145.8</ele><time>2015-04-27T11:36:32.0000000+00:00</time></trkpt><trkpt lat="35.0334128" lon="32.6464943"><ele>1146.2</ele><time>2015-04-27T11:36:36.0000000+00:00</time></trkpt><trkpt lat="35.0333696" lon="32.6465302"><ele>1145.9</ele><time>2015-04-27T11:36:40.0000000+00:00</time></trkpt><trkpt lat="35.0333305" lon="32.64658"><ele>1146.7</ele><time>2015-04-27T11:36:44.0000000+00:00</time></trkpt><trkpt lat="35.0332873" lon="32.6466042"><ele>1146.9</ele><time>2015-04-27T11:36:47.0000000+00:00</time></trkpt><trkpt lat="35.033243" lon="32.6466302"><ele>1147.4</ele><time>2015-04-27T11:36:50.0000000+00:00</time></trkpt><trkpt lat="35.0332011" lon="32.6466546"><ele>1144.0</ele><time>2015-04-27T11:37:14.0000000+00:00</time></trkpt><trkpt lat="35.0331698" lon="32.6466967"><ele>1145.4</ele><time>2015-04-27T11:41:51.0000000+00:00</time></trkpt><trkpt lat="35.0331408" lon="32.6467569"><ele>1145.9</ele><time>2015-04-27T11:41:57.0000000+00:00</time></trkpt><trkpt lat="35.0331174" lon="32.6468103"><ele>1146.8</ele><time>2015-04-27T11:42:00.0000000+00:00</time></trkpt><trkpt lat="35.0331016" lon="32.6468634"><ele>1148.3</ele><time>2015-04-27T11:42:03.0000000+00:00</time></trkpt><trkpt lat="35.0330851" lon="32.6469181"><ele>1149.3</ele><time>2015-04-27T11:42:06.0000000+00:00</time></trkpt><trkpt lat="35.0330781" lon="32.6469753"><ele>1151.2</ele><time>2015-04-27T11:42:09.0000000+00:00</time></trkpt><trkpt lat="35.0330772" lon="32.6470381"><ele>1151.1</ele><time>2015-04-27T11:42:12.0000000+00:00</time></trkpt><trkpt lat="35.0330655" lon="32.6470998"><ele>1151.0</ele><time>2015-04-27T11:42:15.0000000+00:00</time></trkpt><trkpt lat="35.0330587" lon="32.647163"><ele>1151.4</ele><time>2015-04-27T11:42:18.0000000+00:00</time></trkpt><trkpt lat="35.0330521" lon="32.647225"><ele>1151.7</ele><time>2015-04-27T11:42:21.0000000+00:00</time></trkpt><trkpt lat="35.0330484" lon="32.6472816"><ele>1151.7</ele><time>2015-04-27T11:42:24.0000000+00:00</time></trkpt><trkpt lat="35.0330436" lon="32.6473378"><ele>1151.5</ele><time>2015-04-27T11:42:27.0000000+00:00</time></trkpt><trkpt lat="35.0330391" lon="32.6474024"><ele>1151.9</ele><time>2015-04-27T11:42:31.0000000+00:00</time></trkpt><trkpt lat="35.0330472" lon="32.6474598"><ele>1152.4</ele><time>2015-04-27T11:42:35.0000000+00:00</time></trkpt><trkpt lat="35.033056" lon="32.6475201"><ele>1152.1</ele><time>2015-04-27T11:42:39.0000000+00:00</time></trkpt><trkpt lat="35.0330521" lon="32.6475755"><ele>1152.9</ele><time>2015-04-27T11:42:43.0000000+00:00</time></trkpt><trkpt lat="35.0330323" lon="32.6476314"><ele>1153.3</ele><time>2015-04-27T11:42:50.0000000+00:00</time></trkpt><trkpt lat="35.0330229" lon="32.6477019"><ele>1153.8</ele><time>2015-04-27T11:42:55.0000000+00:00</time></trkpt><trkpt lat="35.0330025" lon="32.6477658"><ele>1153.9</ele><time>2015-04-27T11:42:58.0000000+00:00</time></trkpt><trkpt lat="35.032979" lon="32.6478215"><ele>1153.7</ele><time>2015-04-27T11:43:01.0000000+00:00</time></trkpt><trkpt lat="35.0329603" lon="32.647896"><ele>1153.9</ele><time>2015-04-27T11:43:04.0000000+00:00</time></trkpt><trkpt lat="35.0329494" lon="32.6479684"><ele>1153.2</ele><time>2015-04-27T11:43:07.0000000+00:00</time></trkpt><trkpt lat="35.0329246" lon="32.6480188"><ele>1151.9</ele><time>2015-04-27T11:43:13.0000000+00:00</time></trkpt><trkpt lat="35.0329205" lon="32.6480837"><ele>1154.2</ele><time>2015-04-27T11:43:18.0000000+00:00</time></trkpt><trkpt lat="35.0329183" lon="32.6481442"><ele>1154.9</ele><time>2015-04-27T11:43:22.0000000+00:00</time></trkpt><trkpt lat="35.0329154" lon="32.648208"><ele>1155.8</ele><time>2015-04-27T11:43:26.0000000+00:00</time></trkpt><trkpt lat="35.0329038" lon="32.6482614"><ele>1156.9</ele><time>2015-04-27T11:43:31.0000000+00:00</time></trkpt><trkpt lat="35.032918" lon="32.648318"><ele>1158.2</ele><time>2015-04-27T11:43:36.0000000+00:00</time></trkpt><trkpt lat="35.0329343" lon="32.6483801"><ele>1158.9</ele><time>2015-04-27T11:43:41.0000000+00:00</time></trkpt><trkpt lat="35.0329616" lon="32.6484389"><ele>1159.9</ele><time>2015-04-27T11:43:46.0000000+00:00</time></trkpt><trkpt lat="35.0329932" lon="32.6484806"><ele>1161.6</ele><time>2015-04-27T11:43:50.0000000+00:00</time></trkpt><trkpt lat="35.0330342" lon="32.6485126"><ele>1162.8</ele><time>2015-04-27T11:43:54.0000000+00:00</time></trkpt><trkpt lat="35.0330739" lon="32.6485466"><ele>1162.9</ele><time>2015-04-27T11:43:58.0000000+00:00</time></trkpt><trkpt lat="35.0331084" lon="32.6485929"><ele>1163.8</ele><time>2015-04-27T11:44:04.0000000+00:00</time></trkpt><trkpt lat="35.0331532" lon="32.6486016"><ele>1164.9</ele><time>2015-04-27T11:44:08.0000000+00:00</time></trkpt><trkpt lat="35.033199" lon="32.6486245"><ele>1165.7</ele><time>2015-04-27T11:44:12.0000000+00:00</time></trkpt><trkpt lat="35.0332448" lon="32.6486584"><ele>1165.9</ele><time>2015-04-27T11:44:16.0000000+00:00</time></trkpt><trkpt lat="35.0332941" lon="32.6486877"><ele>1166.2</ele><time>2015-04-27T11:44:19.0000000+00:00</time></trkpt><trkpt lat="35.0333446" lon="32.6487259"><ele>1167.6</ele><time>2015-04-27T11:44:23.0000000+00:00</time></trkpt><trkpt lat="35.0333845" lon="32.6487534"><ele>1167.9</ele><time>2015-04-27T11:44:26.0000000+00:00</time></trkpt><trkpt lat="35.0334261" lon="32.6487756"><ele>1167.9</ele><time>2015-04-27T11:44:29.0000000+00:00</time></trkpt><trkpt lat="35.0334768" lon="32.6488066"><ele>1168.8</ele><time>2015-04-27T11:44:33.0000000+00:00</time></trkpt><trkpt lat="35.0335268" lon="32.6488335"><ele>1168.9</ele><time>2015-04-27T11:44:37.0000000+00:00</time></trkpt><trkpt lat="35.0335778" lon="32.6488663"><ele>1170.4</ele><time>2015-04-27T11:44:41.0000000+00:00</time></trkpt><trkpt lat="35.0336145" lon="32.6488984"><ele>1170.1</ele><time>2015-04-27T11:44:44.0000000+00:00</time></trkpt><trkpt lat="35.0336474" lon="32.6489502"><ele>1169.0</ele><time>2015-04-27T11:44:49.0000000+00:00</time></trkpt><trkpt lat="35.0336805" lon="32.6490094"><ele>1168.4</ele><time>2015-04-27T11:44:52.0000000+00:00</time></trkpt><trkpt lat="35.0336962" lon="32.6490611"><ele>1168.1</ele><time>2015-04-27T11:44:54.0000000+00:00</time></trkpt><trkpt lat="35.0337035" lon="32.649121"><ele>1168.0</ele><time>2015-04-27T11:44:56.0000000+00:00</time></trkpt><trkpt lat="35.0337091" lon="32.649192"><ele>1167.4</ele><time>2015-04-27T11:44:58.0000000+00:00</time></trkpt><trkpt lat="35.0337069" lon="32.6492469"><ele>1167.1</ele><time>2015-04-27T11:45:00.0000000+00:00</time></trkpt><trkpt lat="35.0337002" lon="32.6493047"><ele>1167.7</ele><time>2015-04-27T11:45:03.0000000+00:00</time></trkpt><trkpt lat="35.0336991" lon="32.649385"><ele>1167.9</ele><time>2015-04-27T11:45:06.0000000+00:00</time></trkpt><trkpt lat="35.0336878" lon="32.6494625"><ele>1167.9</ele><time>2015-04-27T11:45:09.0000000+00:00</time></trkpt><trkpt lat="35.0336736" lon="32.6495315"><ele>1167.1</ele><time>2015-04-27T11:45:12.0000000+00:00</time></trkpt><trkpt lat="35.0336625" lon="32.6496058"><ele>1167.8</ele><time>2015-04-27T11:45:15.0000000+00:00</time></trkpt><trkpt lat="35.0336561" lon="32.6496794"><ele>1167.9</ele><time>2015-04-27T11:45:18.0000000+00:00</time></trkpt><trkpt lat="35.0336516" lon="32.6497537"><ele>1169.1</ele><time>2015-04-27T11:45:21.0000000+00:00</time></trkpt><trkpt lat="35.0336434" lon="32.6498321"><ele>1168.9</ele><time>2015-04-27T11:45:24.0000000+00:00</time></trkpt><trkpt lat="35.03364" lon="32.649888"><ele>1169.2</ele><time>2015-04-27T11:45:26.0000000+00:00</time></trkpt><trkpt lat="35.0336276" lon="32.6499418"><ele>1169.5</ele><time>2015-04-27T11:45:28.0000000+00:00</time></trkpt><trkpt lat="35.0336085" lon="32.6499931"><ele>1169.8</ele><time>2015-04-27T11:45:30.0000000+00:00</time></trkpt><trkpt lat="35.0335848" lon="32.6500412"><ele>1169.9</ele><time>2015-04-27T11:45:32.0000000+00:00</time></trkpt><trkpt lat="35.0335489" lon="32.6500891"><ele>1169.9</ele><time>2015-04-27T11:45:34.0000000+00:00</time></trkpt><trkpt lat="35.0335128" lon="32.6501269"><ele>1170.7</ele><time>2015-04-27T11:45:36.0000000+00:00</time></trkpt><trkpt lat="35.0334778" lon="32.6501664"><ele>1172.2</ele><time>2015-04-27T11:45:40.0000000+00:00</time></trkpt><trkpt lat="35.0334439" lon="32.6502133"><ele>1172.9</ele><time>2015-04-27T11:45:44.0000000+00:00</time></trkpt><trkpt lat="35.0334015" lon="32.6502578"><ele>1172.9</ele><time>2015-04-27T11:45:47.0000000+00:00</time></trkpt><trkpt lat="35.0333581" lon="32.6503044"><ele>1172.9</ele><time>2015-04-27T11:45:50.0000000+00:00</time></trkpt><trkpt lat="35.0333232" lon="32.6503568"><ele>1172.9</ele><time>2015-04-27T11:45:53.0000000+00:00</time></trkpt><trkpt lat="35.0333063" lon="32.6504211"><ele>1173.8</ele><time>2015-04-27T11:45:56.0000000+00:00</time></trkpt><trkpt lat="35.0333065" lon="32.6504853"><ele>1174.0</ele><time>2015-04-27T11:45:59.0000000+00:00</time></trkpt><trkpt lat="35.0333211" lon="32.6505522"><ele>1174.4</ele><time>2015-04-27T11:46:02.0000000+00:00</time></trkpt><trkpt lat="35.0333441" lon="32.6506203"><ele>1176.2</ele><time>2015-04-27T11:46:05.0000000+00:00</time></trkpt><trkpt lat="35.0333624" lon="32.6506859"><ele>1177.3</ele><time>2015-04-27T11:46:08.0000000+00:00</time></trkpt><trkpt lat="35.0333845" lon="32.650746"><ele>1177.0</ele><time>2015-04-27T11:46:11.0000000+00:00</time></trkpt><trkpt lat="35.0334106" lon="32.6508011"><ele>1177.8</ele><time>2015-04-27T11:46:14.0000000+00:00</time></trkpt><trkpt lat="35.0334305" lon="32.6508614"><ele>1177.9</ele><time>2015-04-27T11:46:17.0000000+00:00</time></trkpt><trkpt lat="35.0334374" lon="32.6509298"><ele>1178.9</ele><time>2015-04-27T11:46:21.0000000+00:00</time></trkpt><trkpt lat="35.0334553" lon="32.650982"><ele>1179.9</ele><time>2015-04-27T11:46:25.0000000+00:00</time></trkpt><trkpt lat="35.0334714" lon="32.6510335"><ele>1179.6</ele><time>2015-04-27T11:46:30.0000000+00:00</time></trkpt><trkpt lat="35.0334942" lon="32.6510825"><ele>1180.6</ele><time>2015-04-27T11:46:33.0000000+00:00</time></trkpt><trkpt lat="35.0335206" lon="32.6511289"><ele>1181.6</ele><time>2015-04-27T11:46:36.0000000+00:00</time></trkpt><trkpt lat="35.0335538" lon="32.6511703"><ele>1182.6</ele><time>2015-04-27T11:46:39.0000000+00:00</time></trkpt><trkpt lat="35.0335942" lon="32.6512199"><ele>1183.7</ele><time>2015-04-27T11:46:43.0000000+00:00</time></trkpt><trkpt lat="35.0336324" lon="32.6512627"><ele>1183.9</ele><time>2015-04-27T11:46:47.0000000+00:00</time></trkpt><trkpt lat="35.0336758" lon="32.6512945"><ele>1184.4</ele><time>2015-04-27T11:46:51.0000000+00:00</time></trkpt><trkpt lat="35.033715" lon="32.651331"><ele>1184.0</ele><time>2015-04-27T11:46:55.0000000+00:00</time></trkpt><trkpt lat="35.0337579" lon="32.6513662"><ele>1184.9</ele><time>2015-04-27T11:46:59.0000000+00:00</time></trkpt><trkpt lat="35.0338006" lon="32.6513984"><ele>1185.7</ele><time>2015-04-27T11:47:03.0000000+00:00</time></trkpt><trkpt lat="35.0338471" lon="32.6514334"><ele>1186.7</ele><time>2015-04-27T11:47:07.0000000+00:00</time></trkpt><trkpt lat="35.033886" lon="32.6514748"><ele>1186.9</ele><time>2015-04-27T11:47:11.0000000+00:00</time></trkpt><trkpt lat="35.0339216" lon="32.651518"><ele>1186.9</ele><time>2015-04-27T11:47:15.0000000+00:00</time></trkpt><trkpt lat="35.0339594" lon="32.6515641"><ele>1187.4</ele><time>2015-04-27T11:47:19.0000000+00:00</time></trkpt><trkpt lat="35.034005" lon="32.651612"><ele>1187.9</ele><time>2015-04-27T11:47:23.0000000+00:00</time></trkpt><trkpt lat="35.0340419" lon="32.6516544"><ele>1188.4</ele><time>2015-04-27T11:47:26.0000000+00:00</time></trkpt><trkpt lat="35.0340802" lon="32.6516863"><ele>1188.0</ele><time>2015-04-27T11:47:29.0000000+00:00</time></trkpt><trkpt lat="35.0341189" lon="32.6517296"><ele>1187.9</ele><time>2015-04-27T11:47:32.0000000+00:00</time></trkpt><trkpt lat="35.0341587" lon="32.6517728"><ele>1187.9</ele><time>2015-04-27T11:47:35.0000000+00:00</time></trkpt><trkpt lat="35.0341966" lon="32.6518058"><ele>1188.7</ele><time>2015-04-27T11:47:38.0000000+00:00</time></trkpt><trkpt lat="35.0342303" lon="32.6518442"><ele>1188.9</ele><time>2015-04-27T11:47:41.0000000+00:00</time></trkpt><trkpt lat="35.03426" lon="32.6518911"><ele>1188.9</ele><time>2015-04-27T11:47:44.0000000+00:00</time></trkpt><trkpt lat="35.0342891" lon="32.6519405"><ele>1188.9</ele><time>2015-04-27T11:47:47.0000000+00:00</time></trkpt><trkpt lat="35.0343117" lon="32.6519957"><ele>1188.3</ele><time>2015-04-27T11:47:50.0000000+00:00</time></trkpt><trkpt lat="35.0343361" lon="32.652046"><ele>1188.0</ele><time>2015-04-27T11:47:53.0000000+00:00</time></trkpt><trkpt lat="35.0343514" lon="32.6521133"><ele>1187.7</ele><time>2015-04-27T11:47:57.0000000+00:00</time></trkpt><trkpt lat="35.0344026" lon="32.6520959"><ele>1187.9</ele><time>2015-04-27T11:48:01.0000000+00:00</time></trkpt><trkpt lat="35.0343842" lon="32.6520438"><ele>1187.3</ele><time>2015-04-27T11:48:21.0000000+00:00</time></trkpt><trkpt lat="35.0343565" lon="32.6520873"><ele>1188.2</ele><time>2015-04-27T11:49:47.0000000+00:00</time></trkpt><trkpt lat="35.0343238" lon="32.6521333"><ele>1187.2</ele><time>2015-04-27T11:49:53.0000000+00:00</time></trkpt><trkpt lat="35.0343182" lon="32.6521886"><ele>1187.0</ele><time>2015-04-27T11:49:56.0000000+00:00</time></trkpt><trkpt lat="35.0343043" lon="32.6522462"><ele>1186.9</ele><time>2015-04-27T11:49:58.0000000+00:00</time></trkpt><trkpt lat="35.034282" lon="32.6522956"><ele>1187.7</ele><time>2015-04-27T11:50:00.0000000+00:00</time></trkpt><trkpt lat="35.0342603" lon="32.652345"><ele>1187.9</ele><time>2015-04-27T11:50:02.0000000+00:00</time></trkpt><trkpt lat="35.0342051" lon="32.6523664"><ele>1187.8</ele><time>2015-04-27T11:50:05.0000000+00:00</time></trkpt><trkpt lat="35.0341527" lon="32.6523674"><ele>1187.2</ele><time>2015-04-27T11:50:08.0000000+00:00</time></trkpt><trkpt lat="35.0340883" lon="32.652361"><ele>1187.7</ele><time>2015-04-27T11:50:11.0000000+00:00</time></trkpt><trkpt lat="35.0340425" lon="32.6523475"><ele>1187.9</ele><time>2015-04-27T11:50:13.0000000+00:00</time></trkpt><trkpt lat="35.0339833" lon="32.6523413"><ele>1187.9</ele><time>2015-04-27T11:50:16.0000000+00:00</time></trkpt><trkpt lat="35.0339312" lon="32.6523422"><ele>1188.4</ele><time>2015-04-27T11:50:20.0000000+00:00</time></trkpt><trkpt lat="35.033885" lon="32.6523446"><ele>1188.9</ele><time>2015-04-27T11:50:23.0000000+00:00</time></trkpt><trkpt lat="35.0338391" lon="32.6523519"><ele>1188.9</ele><time>2015-04-27T11:50:26.0000000+00:00</time></trkpt><trkpt lat="35.033794" lon="32.6523594"><ele>1188.9</ele><time>2015-04-27T11:50:29.0000000+00:00</time></trkpt><trkpt lat="35.0337489" lon="32.6523784"><ele>1190.6</ele><time>2015-04-27T11:50:32.0000000+00:00</time></trkpt><trkpt lat="35.0336993" lon="32.6523922"><ele>1191.1</ele><time>2015-04-27T11:50:35.0000000+00:00</time></trkpt><trkpt lat="35.0336508" lon="32.6524069"><ele>1191.8</ele><time>2015-04-27T11:50:38.0000000+00:00</time></trkpt><trkpt lat="35.0336" lon="32.6524127"><ele>1192.8</ele><time>2015-04-27T11:50:42.0000000+00:00</time></trkpt><trkpt lat="35.0335529" lon="32.6524315"><ele>1194.3</ele><time>2015-04-27T11:50:47.0000000+00:00</time></trkpt><trkpt lat="35.0335074" lon="32.6524471"><ele>1194.7</ele><time>2015-04-27T11:50:51.0000000+00:00</time></trkpt><trkpt lat="35.033459" lon="32.6524554"><ele>1194.0</ele><time>2015-04-27T11:50:55.0000000+00:00</time></trkpt><trkpt lat="35.0334078" lon="32.6524631"><ele>1193.9</ele><time>2015-04-27T11:50:59.0000000+00:00</time></trkpt><trkpt lat="35.0333623" lon="32.652476"><ele>1194.7</ele><time>2015-04-27T11:51:02.0000000+00:00</time></trkpt><trkpt lat="35.0333155" lon="32.6524817"><ele>1195.6</ele><time>2015-04-27T11:51:05.0000000+00:00</time></trkpt><trkpt lat="35.033267" lon="32.6524754"><ele>1195.9</ele><time>2015-04-27T11:51:08.0000000+00:00</time></trkpt><trkpt lat="35.0332176" lon="32.6524631"><ele>1195.9</ele><time>2015-04-27T11:51:11.0000000+00:00</time></trkpt><trkpt lat="35.0331723" lon="32.6524312"><ele>1195.9</ele><time>2015-04-27T11:51:15.0000000+00:00</time></trkpt><trkpt lat="35.0331214" lon="32.6523986"><ele>1195.9</ele><time>2015-04-27T11:51:19.0000000+00:00</time></trkpt><trkpt lat="35.0330687" lon="32.6523677"><ele>1195.9</ele><time>2015-04-27T11:51:23.0000000+00:00</time></trkpt><trkpt lat="35.0330206" lon="32.652341"><ele>1196.2</ele><time>2015-04-27T11:51:26.0000000+00:00</time></trkpt><trkpt lat="35.0329799" lon="32.6523081"><ele>1196.8</ele><time>2015-04-27T11:51:29.0000000+00:00</time></trkpt><trkpt lat="35.0329452" lon="32.6522687"><ele>1197.4</ele><time>2015-04-27T11:51:32.0000000+00:00</time></trkpt><trkpt lat="35.0329092" lon="32.6522336"><ele>1197.1</ele><time>2015-04-27T11:51:35.0000000+00:00</time></trkpt><trkpt lat="35.0328594" lon="32.6522178"><ele>1197.8</ele><time>2015-04-27T11:51:38.0000000+00:00</time></trkpt><trkpt lat="35.0328157" lon="32.6521877"><ele>1198.4</ele><time>2015-04-27T11:51:41.0000000+00:00</time></trkpt><trkpt lat="35.0327772" lon="32.6521545"><ele>1199.6</ele><time>2015-04-27T11:51:44.0000000+00:00</time></trkpt><trkpt lat="35.0327331" lon="32.6521261"><ele>1199.9</ele><time>2015-04-27T11:51:48.0000000+00:00</time></trkpt><trkpt lat="35.0326848" lon="32.6520904"><ele>1200.2</ele><time>2015-04-27T11:51:52.0000000+00:00</time></trkpt><trkpt lat="35.0326409" lon="32.6520775"><ele>1200.2</ele><time>2015-04-27T11:51:55.0000000+00:00</time></trkpt><trkpt lat="35.0325798" lon="32.6520702"><ele>1200.5</ele><time>2015-04-27T11:51:58.0000000+00:00</time></trkpt><trkpt lat="35.0325196" lon="32.6520732"><ele>1200.9</ele><time>2015-04-27T11:52:01.0000000+00:00</time></trkpt><trkpt lat="35.0324593" lon="32.6520842"><ele>1201.5</ele><time>2015-04-27T11:52:04.0000000+00:00</time></trkpt><trkpt lat="35.0324052" lon="32.652117"><ele>1203.5</ele><time>2015-04-27T11:52:07.0000000+00:00</time></trkpt><trkpt lat="35.0323543" lon="32.652144"><ele>1203.9</ele><time>2015-04-27T11:52:10.0000000+00:00</time></trkpt><trkpt lat="35.0323144" lon="32.6521735"><ele>1204.3</ele><time>2015-04-27T11:52:14.0000000+00:00</time></trkpt><trkpt lat="35.0322768" lon="32.652204"><ele>1205.4</ele><time>2015-04-27T11:52:20.0000000+00:00</time></trkpt><trkpt lat="35.032231" lon="32.6522328"><ele>1206.8</ele><time>2015-04-27T11:52:26.0000000+00:00</time></trkpt><trkpt lat="35.0321824" lon="32.6522152"><ele>1206.4</ele><time>2015-04-27T11:52:32.0000000+00:00</time></trkpt><trkpt lat="35.0321369" lon="32.6522396"><ele>1205.9</ele><time>2015-04-27T11:52:37.0000000+00:00</time></trkpt><trkpt lat="35.0320968" lon="32.6522726"><ele>1205.6</ele><time>2015-04-27T11:52:41.0000000+00:00</time></trkpt><trkpt lat="35.0320444" lon="32.6522744"><ele>1205.8</ele><time>2015-04-27T11:52:46.0000000+00:00</time></trkpt><trkpt lat="35.0319938" lon="32.6522695"><ele>1205.9</ele><time>2015-04-27T11:52:51.0000000+00:00</time></trkpt><trkpt lat="35.0319505" lon="32.6522547"><ele>1206.9</ele><time>2015-04-27T11:52:55.0000000+00:00</time></trkpt><trkpt lat="35.0319056" lon="32.6522308"><ele>1206.4</ele><time>2015-04-27T11:52:59.0000000+00:00</time></trkpt><trkpt lat="35.0318543" lon="32.6522166"><ele>1206.5</ele><time>2015-04-27T11:53:03.0000000+00:00</time></trkpt><trkpt lat="35.0318092" lon="32.6521878"><ele>1206.5</ele><time>2015-04-27T11:53:07.0000000+00:00</time></trkpt><trkpt lat="35.0317601" lon="32.6521793"><ele>1207.8</ele><time>2015-04-27T11:53:11.0000000+00:00</time></trkpt><trkpt lat="35.0317086" lon="32.6521664"><ele>1207.9</ele><time>2015-04-27T11:53:15.0000000+00:00</time></trkpt><trkpt lat="35.0316538" lon="32.6521725"><ele>1208.4</ele><time>2015-04-27T11:53:19.0000000+00:00</time></trkpt><trkpt lat="35.0315982" lon="32.6521635"><ele>1209.2</ele><time>2015-04-27T11:53:23.0000000+00:00</time></trkpt><trkpt lat="35.031539" lon="32.6521615"><ele>1209.3</ele><time>2015-04-27T11:53:27.0000000+00:00</time></trkpt><trkpt lat="35.0314919" lon="32.6521718"><ele>1210.5</ele><time>2015-04-27T11:53:30.0000000+00:00</time></trkpt><trkpt lat="35.0314408" lon="32.6521732"><ele>1211.0</ele><time>2015-04-27T11:53:34.0000000+00:00</time></trkpt><trkpt lat="35.031385" lon="32.6521841"><ele>1211.2</ele><time>2015-04-27T11:53:38.0000000+00:00</time></trkpt><trkpt lat="35.0313295" lon="32.6521892"><ele>1212.3</ele><time>2015-04-27T11:53:41.0000000+00:00</time></trkpt><trkpt lat="35.031271" lon="32.6522086"><ele>1213.1</ele><time>2015-04-27T11:53:44.0000000+00:00</time></trkpt><trkpt lat="35.0312145" lon="32.652221"><ele>1214.3</ele><time>2015-04-27T11:53:47.0000000+00:00</time></trkpt><trkpt lat="35.0311599" lon="32.6522415"><ele>1214.9</ele><time>2015-04-27T11:53:50.0000000+00:00</time></trkpt><trkpt lat="35.0311075" lon="32.6522613"><ele>1215.8</ele><time>2015-04-27T11:53:53.0000000+00:00</time></trkpt><trkpt lat="35.0310565" lon="32.6522758"><ele>1216.7</ele><time>2015-04-27T11:53:56.0000000+00:00</time></trkpt><trkpt lat="35.0310085" lon="32.6522958"><ele>1216.3</ele><time>2015-04-27T11:53:59.0000000+00:00</time></trkpt><trkpt lat="35.030962" lon="32.6523166"><ele>1216.5</ele><time>2015-04-27T11:54:02.0000000+00:00</time></trkpt><trkpt lat="35.0309166" lon="32.6523474"><ele>1216.0</ele><time>2015-04-27T11:54:05.0000000+00:00</time></trkpt><trkpt lat="35.0308692" lon="32.65235"><ele>1215.9</ele><time>2015-04-27T11:54:08.0000000+00:00</time></trkpt><trkpt lat="35.0308222" lon="32.6523528"><ele>1215.8</ele><time>2015-04-27T11:54:11.0000000+00:00</time></trkpt><trkpt lat="35.0307759" lon="32.6523644"><ele>1216.4</ele><time>2015-04-27T11:54:14.0000000+00:00</time></trkpt><trkpt lat="35.0307317" lon="32.652375"><ele>1216.9</ele><time>2015-04-27T11:54:17.0000000+00:00</time></trkpt><trkpt lat="35.0306869" lon="32.6523821"><ele>1216.5</ele><time>2015-04-27T11:54:20.0000000+00:00</time></trkpt><trkpt lat="35.0306414" lon="32.6523824"><ele>1216.9</ele><time>2015-04-27T11:54:23.0000000+00:00</time></trkpt><trkpt lat="35.030583" lon="32.6523912"><ele>1217.0</ele><time>2015-04-27T11:54:27.0000000+00:00</time></trkpt><trkpt lat="35.030538" lon="32.6524048"><ele>1217.4</ele><time>2015-04-27T11:54:30.0000000+00:00</time></trkpt><trkpt lat="35.0304895" lon="32.6524223"><ele>1217.9</ele><time>2015-04-27T11:54:33.0000000+00:00</time></trkpt><trkpt lat="35.0304398" lon="32.6524236"><ele>1218.4</ele><time>2015-04-27T11:54:36.0000000+00:00</time></trkpt><trkpt lat="35.0303952" lon="32.6524448"><ele>1219.6</ele><time>2015-04-27T11:54:39.0000000+00:00</time></trkpt><trkpt lat="35.0303483" lon="32.652456"><ele>1219.9</ele><time>2015-04-27T11:54:42.0000000+00:00</time></trkpt><trkpt lat="35.030304" lon="32.652471"><ele>1220.7</ele><time>2015-04-27T11:54:45.0000000+00:00</time></trkpt><trkpt lat="35.0302459" lon="32.6524821"><ele>1221.7</ele><time>2015-04-27T11:54:49.0000000+00:00</time></trkpt><trkpt lat="35.0302014" lon="32.6524957"><ele>1221.9</ele><time>2015-04-27T11:54:52.0000000+00:00</time></trkpt><trkpt lat="35.0301557" lon="32.6525096"><ele>1222.4</ele><time>2015-04-27T11:54:56.0000000+00:00</time></trkpt><trkpt lat="35.0301072" lon="32.6525209"><ele>1222.9</ele><time>2015-04-27T11:55:02.0000000+00:00</time></trkpt><trkpt lat="35.030057" lon="32.6525381"><ele>1222.2</ele><time>2015-04-27T11:55:06.0000000+00:00</time></trkpt><trkpt lat="35.0299999" lon="32.6525484"><ele>1222.7</ele><time>2015-04-27T11:55:10.0000000+00:00</time></trkpt><trkpt lat="35.0299448" lon="32.6525677"><ele>1223.8</ele><time>2015-04-27T11:55:14.0000000+00:00</time></trkpt><trkpt lat="35.0298897" lon="32.6525775"><ele>1225.6</ele><time>2015-04-27T11:55:18.0000000+00:00</time></trkpt><trkpt lat="35.0298441" lon="32.6526003"><ele>1225.3</ele><time>2015-04-27T11:55:22.0000000+00:00</time></trkpt><trkpt lat="35.0298005" lon="32.6526381"><ele>1224.5</ele><time>2015-04-27T11:55:27.0000000+00:00</time></trkpt><trkpt lat="35.0297583" lon="32.6526128"><ele>1228.2</ele><time>2015-04-27T11:57:04.0000000+00:00</time></trkpt><trkpt lat="35.0297197" lon="32.6526437"><ele>1226.3</ele><time>2015-04-27T11:57:15.0000000+00:00</time></trkpt><trkpt lat="35.0296731" lon="32.6526553"><ele>1225.1</ele><time>2015-04-27T11:57:18.0000000+00:00</time></trkpt><trkpt lat="35.0296207" lon="32.652691"><ele>1225.7</ele><time>2015-04-27T11:57:21.0000000+00:00</time></trkpt><trkpt lat="35.0295723" lon="32.6527169"><ele>1226.2</ele><time>2015-04-27T11:57:24.0000000+00:00</time></trkpt><trkpt lat="35.0295251" lon="32.6527294"><ele>1226.8</ele><time>2015-04-27T11:57:27.0000000+00:00</time></trkpt><trkpt lat="35.029481" lon="32.6527495"><ele>1227.4</ele><time>2015-04-27T11:57:30.0000000+00:00</time></trkpt><trkpt lat="35.0294399" lon="32.6527785"><ele>1228.1</ele><time>2015-04-27T11:57:33.0000000+00:00</time></trkpt><trkpt lat="35.0293969" lon="32.6528091"><ele>1228.0</ele><time>2015-04-27T11:57:36.0000000+00:00</time></trkpt><trkpt lat="35.0293549" lon="32.6528382"><ele>1227.9</ele><time>2015-04-27T11:57:39.0000000+00:00</time></trkpt><trkpt lat="35.0293148" lon="32.6528676"><ele>1228.3</ele><time>2015-04-27T11:57:42.0000000+00:00</time></trkpt><trkpt lat="35.0292756" lon="32.6529022"><ele>1228.9</ele><time>2015-04-27T11:57:45.0000000+00:00</time></trkpt><trkpt lat="35.0292389" lon="32.6529565"><ele>1230.7</ele><time>2015-04-27T11:57:49.0000000+00:00</time></trkpt><trkpt lat="35.0292012" lon="32.6530092"><ele>1232.3</ele><time>2015-04-27T11:57:53.0000000+00:00</time></trkpt><trkpt lat="35.0291677" lon="32.6530576"><ele>1233.4</ele><time>2015-04-27T11:57:57.0000000+00:00</time></trkpt><trkpt lat="35.0291401" lon="32.6531012"><ele>1233.9</ele><time>2015-04-27T11:58:00.0000000+00:00</time></trkpt><trkpt lat="35.0291057" lon="32.6531411"><ele>1234.8</ele><time>2015-04-27T11:58:03.0000000+00:00</time></trkpt><trkpt lat="35.0290674" lon="32.6531735"><ele>1234.9</ele><time>2015-04-27T11:58:06.0000000+00:00</time></trkpt><trkpt lat="35.0290302" lon="32.6532139"><ele>1234.1</ele><time>2015-04-27T11:58:09.0000000+00:00</time></trkpt><trkpt lat="35.0289904" lon="32.6532519"><ele>1233.9</ele><time>2015-04-27T11:58:12.0000000+00:00</time></trkpt><trkpt lat="35.0289511" lon="32.653288"><ele>1232.7</ele><time>2015-04-27T11:58:15.0000000+00:00</time></trkpt><trkpt lat="35.0289082" lon="32.6533072"><ele>1234.2</ele><time>2015-04-27T11:58:19.0000000+00:00</time></trkpt><trkpt lat="35.0288685" lon="32.6533466"><ele>1235.9</ele><time>2015-04-27T11:58:23.0000000+00:00</time></trkpt><trkpt lat="35.0288265" lon="32.6533689"><ele>1236.0</ele><time>2015-04-27T11:58:26.0000000+00:00</time></trkpt><trkpt lat="35.0287852" lon="32.6533951"><ele>1236.7</ele><time>2015-04-27T11:58:29.0000000+00:00</time></trkpt><trkpt lat="35.0287358" lon="32.6534329"><ele>1237.2</ele><time>2015-04-27T11:58:33.0000000+00:00</time></trkpt><trkpt lat="35.0286881" lon="32.6534678"><ele>1238.2</ele><time>2015-04-27T11:58:37.0000000+00:00</time></trkpt><trkpt lat="35.0286474" lon="32.6534961"><ele>1238.5</ele><time>2015-04-27T11:58:40.0000000+00:00</time></trkpt><trkpt lat="35.028602" lon="32.6535361"><ele>1238.4</ele><time>2015-04-27T11:58:44.0000000+00:00</time></trkpt><trkpt lat="35.0285489" lon="32.6535712"><ele>1238.4</ele><time>2015-04-27T11:58:48.0000000+00:00</time></trkpt><trkpt lat="35.0285036" lon="32.6535956"><ele>1238.2</ele><time>2015-04-27T11:58:51.0000000+00:00</time></trkpt><trkpt lat="35.0284558" lon="32.6536272"><ele>1238.6</ele><time>2015-04-27T11:58:54.0000000+00:00</time></trkpt><trkpt lat="35.0284055" lon="32.6536661"><ele>1238.6</ele><time>2015-04-27T11:58:57.0000000+00:00</time></trkpt><trkpt lat="35.0283624" lon="32.653703"><ele>1239.4</ele><time>2015-04-27T11:59:00.0000000+00:00</time></trkpt><trkpt lat="35.0283147" lon="32.6537379"><ele>1239.9</ele><time>2015-04-27T11:59:04.0000000+00:00</time></trkpt><trkpt lat="35.028278" lon="32.6537743"><ele>1239.2</ele><time>2015-04-27T11:59:07.0000000+00:00</time></trkpt><trkpt lat="35.0282459" lon="32.6538177"><ele>1239.0</ele><time>2015-04-27T11:59:10.0000000+00:00</time></trkpt><trkpt lat="35.0282157" lon="32.6538644"><ele>1238.9</ele><time>2015-04-27T11:59:13.0000000+00:00</time></trkpt><trkpt lat="35.0281809" lon="32.653911"><ele>1236.6</ele><time>2015-04-27T11:59:16.0000000+00:00</time></trkpt><trkpt lat="35.0281386" lon="32.6539499"><ele>1236.9</ele><time>2015-04-27T11:59:19.0000000+00:00</time></trkpt><trkpt lat="35.0280893" lon="32.6539744"><ele>1237.7</ele><time>2015-04-27T11:59:21.0000000+00:00</time></trkpt><trkpt lat="35.0280464" lon="32.6539952"><ele>1238.4</ele><time>2015-04-27T11:59:23.0000000+00:00</time></trkpt><trkpt lat="35.028001" lon="32.6539846"><ele>1240.4</ele><time>2015-04-27T12:00:07.0000000+00:00</time></trkpt><trkpt lat="35.0280472" lon="32.6539557"><ele>1243.6</ele><time>2015-04-27T12:00:39.0000000+00:00</time></trkpt><trkpt lat="35.0280044" lon="32.6539378"><ele>1251.0</ele><time>2015-04-27T12:03:00.0000000+00:00</time></trkpt><trkpt lat="35.0280469" lon="32.6539568"><ele>1242.0</ele><time>2015-04-27T12:04:18.0000000+00:00</time></trkpt><trkpt lat="35.0280603" lon="32.6540167"><ele>1240.2</ele><time>2015-04-27T12:05:00.0000000+00:00</time></trkpt><trkpt lat="35.0280835" lon="32.6540642"><ele>1239.9</ele><time>2015-04-27T12:05:05.0000000+00:00</time></trkpt><trkpt lat="35.0280917" lon="32.6541329"><ele>1239.2</ele><time>2015-04-27T12:05:08.0000000+00:00</time></trkpt><trkpt lat="35.0280886" lon="32.6542106"><ele>1238.1</ele><time>2015-04-27T12:05:11.0000000+00:00</time></trkpt><trkpt lat="35.0280685" lon="32.6542815"><ele>1237.4</ele><time>2015-04-27T12:05:14.0000000+00:00</time></trkpt><trkpt lat="35.028059" lon="32.6543585"><ele>1237.4</ele><time>2015-04-27T12:05:17.0000000+00:00</time></trkpt><trkpt lat="35.0280512" lon="32.6544147"><ele>1236.5</ele><time>2015-04-27T12:05:19.0000000+00:00</time></trkpt><trkpt lat="35.0280474" lon="32.6544866"><ele>1238.1</ele><time>2015-04-27T12:05:22.0000000+00:00</time></trkpt><trkpt lat="35.0280515" lon="32.6545632"><ele>1240.5</ele><time>2015-04-27T12:05:25.0000000+00:00</time></trkpt><trkpt lat="35.0280483" lon="32.6546386"><ele>1240.8</ele><time>2015-04-27T12:05:27.0000000+00:00</time></trkpt><trkpt lat="35.0280322" lon="32.654703"><ele>1240.9</ele><time>2015-04-27T12:05:29.0000000+00:00</time></trkpt><trkpt lat="35.0280062" lon="32.6547627"><ele>1241.7</ele><time>2015-04-27T12:05:32.0000000+00:00</time></trkpt><trkpt lat="35.0279896" lon="32.6548316"><ele>1242.0</ele><time>2015-04-27T12:05:35.0000000+00:00</time></trkpt><trkpt lat="35.0279565" lon="32.6549051"><ele>1242.4</ele><time>2015-04-27T12:05:38.0000000+00:00</time></trkpt><trkpt lat="35.027918" lon="32.6549743"><ele>1242.8</ele><time>2015-04-27T12:05:40.0000000+00:00</time></trkpt><trkpt lat="35.0278747" lon="32.6550356"><ele>1243.6</ele><time>2015-04-27T12:05:42.0000000+00:00</time></trkpt><trkpt lat="35.0278206" lon="32.6550821"><ele>1244.1</ele><time>2015-04-27T12:05:44.0000000+00:00</time></trkpt><trkpt lat="35.0277676" lon="32.655131"><ele>1241.7</ele><time>2015-04-27T12:05:46.0000000+00:00</time></trkpt><trkpt lat="35.027716" lon="32.655174"><ele>1241.1</ele><time>2015-04-27T12:05:48.0000000+00:00</time></trkpt><trkpt lat="35.0276647" lon="32.6552055"><ele>1241.7</ele><time>2015-04-27T12:05:50.0000000+00:00</time></trkpt><trkpt lat="35.0276197" lon="32.655228"><ele>1240.6</ele><time>2015-04-27T12:05:52.0000000+00:00</time></trkpt><trkpt lat="35.0275607" lon="32.6552222"><ele>1238.6</ele><time>2015-04-27T12:05:54.0000000+00:00</time></trkpt><trkpt lat="35.0275127" lon="32.6552316"><ele>1238.3</ele><time>2015-04-27T12:05:56.0000000+00:00</time></trkpt><trkpt lat="35.0274481" lon="32.6552478"><ele>1237.9</ele><time>2015-04-27T12:05:59.0000000+00:00</time></trkpt><trkpt lat="35.0273886" lon="32.6552896"><ele>1238.9</ele><time>2015-04-27T12:06:01.0000000+00:00</time></trkpt><trkpt lat="35.0273256" lon="32.655345"><ele>1241.9</ele><time>2015-04-27T12:06:03.0000000+00:00</time></trkpt><trkpt lat="35.0272684" lon="32.655396"><ele>1241.9</ele><time>2015-04-27T12:06:05.0000000+00:00</time></trkpt><trkpt lat="35.0272312" lon="32.6554293"><ele>1242.7</ele><time>2015-04-27T12:06:07.0000000+00:00</time></trkpt><trkpt lat="35.0271852" lon="32.6554717"><ele>1241.6</ele><time>2015-04-27T12:06:10.0000000+00:00</time></trkpt><trkpt lat="35.027128" lon="32.6555101"><ele>1239.8</ele><time>2015-04-27T12:06:13.0000000+00:00</time></trkpt><trkpt lat="35.0270808" lon="32.6555354"><ele>1235.1</ele><time>2015-04-27T12:06:15.0000000+00:00</time></trkpt><trkpt lat="35.0270363" lon="32.6555609"><ele>1233.5</ele><time>2015-04-27T12:06:17.0000000+00:00</time></trkpt><trkpt lat="35.0269939" lon="32.6555938"><ele>1235.1</ele><time>2015-04-27T12:06:20.0000000+00:00</time></trkpt><trkpt lat="35.0269499" lon="32.6556272"><ele>1235.0</ele><time>2015-04-27T12:06:23.0000000+00:00</time></trkpt><trkpt lat="35.0268945" lon="32.6556692"><ele>1234.4</ele><time>2015-04-27T12:06:26.0000000+00:00</time></trkpt><trkpt lat="35.0268446" lon="32.6557076"><ele>1234.1</ele><time>2015-04-27T12:06:28.0000000+00:00</time></trkpt><trkpt lat="35.0267984" lon="32.6557516"><ele>1233.0</ele><time>2015-04-27T12:06:30.0000000+00:00</time></trkpt><trkpt lat="35.0267581" lon="32.6558039"><ele>1233.4</ele><time>2015-04-27T12:06:32.0000000+00:00</time></trkpt><trkpt lat="35.0267177" lon="32.6558622"><ele>1233.8</ele><time>2015-04-27T12:06:34.0000000+00:00</time></trkpt><trkpt lat="35.0266667" lon="32.6559294"><ele>1233.9</ele><time>2015-04-27T12:06:36.0000000+00:00</time></trkpt><trkpt lat="35.026617" lon="32.655996"><ele>1235.4</ele><time>2015-04-27T12:06:38.0000000+00:00</time></trkpt><trkpt lat="35.0265684" lon="32.6560544"><ele>1235.3</ele><time>2015-04-27T12:06:40.0000000+00:00</time></trkpt><trkpt lat="35.0265294" lon="32.6560983"><ele>1235.8</ele><time>2015-04-27T12:06:42.0000000+00:00</time></trkpt><trkpt lat="35.0264935" lon="32.6561537"><ele>1235.2</ele><time>2015-04-27T12:06:45.0000000+00:00</time></trkpt><trkpt lat="35.0264645" lon="32.6562018"><ele>1235.7</ele><time>2015-04-27T12:06:47.0000000+00:00</time></trkpt><trkpt lat="35.0264312" lon="32.6562799"><ele>1237.1</ele><time>2015-04-27T12:06:49.0000000+00:00</time></trkpt><trkpt lat="35.0264056" lon="32.6563647"><ele>1238.2</ele><time>2015-04-27T12:06:51.0000000+00:00</time></trkpt><trkpt lat="35.0263763" lon="32.6564464"><ele>1238.0</ele><time>2015-04-27T12:06:53.0000000+00:00</time></trkpt><trkpt lat="35.0263526" lon="32.6565259"><ele>1238.2</ele><time>2015-04-27T12:06:55.0000000+00:00</time></trkpt><trkpt lat="35.0263308" lon="32.6566061"><ele>1238.0</ele><time>2015-04-27T12:06:57.0000000+00:00</time></trkpt><trkpt lat="35.0263128" lon="32.6566857"><ele>1238.7</ele><time>2015-04-27T12:06:59.0000000+00:00</time></trkpt><trkpt lat="35.0262985" lon="32.6567606"><ele>1239.4</ele><time>2015-04-27T12:07:01.0000000+00:00</time></trkpt><trkpt lat="35.0262725" lon="32.656828"><ele>1238.3</ele><time>2015-04-27T12:07:03.0000000+00:00</time></trkpt><trkpt lat="35.02625" lon="32.6568956"><ele>1238.8</ele><time>2015-04-27T12:07:05.0000000+00:00</time></trkpt><trkpt lat="35.0262542" lon="32.6569774"><ele>1240.1</ele><time>2015-04-27T12:07:07.0000000+00:00</time></trkpt><trkpt lat="35.0262558" lon="32.6570336"><ele>1240.5</ele><time>2015-04-27T12:07:08.0000000+00:00</time></trkpt><trkpt lat="35.0262612" lon="32.6570918"><ele>1240.7</ele><time>2015-04-27T12:07:09.0000000+00:00</time></trkpt><trkpt lat="35.0262802" lon="32.6571598"><ele>1240.8</ele><time>2015-04-27T12:07:10.0000000+00:00</time></trkpt><trkpt lat="35.026291" lon="32.6572197"><ele>1240.9</ele><time>2015-04-27T12:07:11.0000000+00:00</time></trkpt><trkpt lat="35.0262913" lon="32.6572755"><ele>1240.9</ele><time>2015-04-27T12:07:12.0000000+00:00</time></trkpt><trkpt lat="35.0262977" lon="32.6573911"><ele>1241.7</ele><time>2015-04-27T12:07:14.0000000+00:00</time></trkpt><trkpt lat="35.0262982" lon="32.6574502"><ele>1242.3</ele><time>2015-04-27T12:07:15.0000000+00:00</time></trkpt><trkpt lat="35.0262999" lon="32.6575126"><ele>1243.1</ele><time>2015-04-27T12:07:16.0000000+00:00</time></trkpt><trkpt lat="35.0262935" lon="32.6575839"><ele>1244.0</ele><time>2015-04-27T12:07:17.0000000+00:00</time></trkpt><trkpt lat="35.0262829" lon="32.6576489"><ele>1244.0</ele><time>2015-04-27T12:07:18.0000000+00:00</time></trkpt><trkpt lat="35.026274" lon="32.6577114"><ele>1244.0</ele><time>2015-04-27T12:07:19.0000000+00:00</time></trkpt><trkpt lat="35.0262658" lon="32.6577793"><ele>1243.9</ele><time>2015-04-27T12:07:20.0000000+00:00</time></trkpt><trkpt lat="35.026243" lon="32.6578518"><ele>1243.9</ele><time>2015-04-27T12:07:21.0000000+00:00</time></trkpt><trkpt lat="35.026224" lon="32.6579191"><ele>1243.4</ele><time>2015-04-27T12:07:22.0000000+00:00</time></trkpt><trkpt lat="35.0261954" lon="32.6579807"><ele>1243.2</ele><time>2015-04-27T12:07:23.0000000+00:00</time></trkpt><trkpt lat="35.0261552" lon="32.6580439"><ele>1243.1</ele><time>2015-04-27T12:07:24.0000000+00:00</time></trkpt><trkpt lat="35.0261196" lon="32.6580951"><ele>1242.5</ele><time>2015-04-27T12:07:25.0000000+00:00</time></trkpt><trkpt lat="35.0260912" lon="32.6581504"><ele>1242.7</ele><time>2015-04-27T12:07:26.0000000+00:00</time></trkpt><trkpt lat="35.0260524" lon="32.658197"><ele>1242.8</ele><time>2015-04-27T12:07:27.0000000+00:00</time></trkpt><trkpt lat="35.0260063" lon="32.6582255"><ele>1242.4</ele><time>2015-04-27T12:07:28.0000000+00:00</time></trkpt><trkpt lat="35.0259574" lon="32.658262"><ele>1242.2</ele><time>2015-04-27T12:07:29.0000000+00:00</time></trkpt><trkpt lat="35.0258993" lon="32.6582697"><ele>1241.5</ele><time>2015-04-27T12:07:30.0000000+00:00</time></trkpt><trkpt lat="35.0258288" lon="32.6582701"><ele>1241.2</ele><time>2015-04-27T12:07:31.0000000+00:00</time></trkpt><trkpt lat="35.025767" lon="32.6582585"><ele>1241.1</ele><time>2015-04-27T12:07:32.0000000+00:00</time></trkpt><trkpt lat="35.0257154" lon="32.6582215"><ele>1241.0</ele><time>2015-04-27T12:07:33.0000000+00:00</time></trkpt><trkpt lat="35.0256748" lon="32.6581928"><ele>1242.0</ele><time>2015-04-27T12:07:34.0000000+00:00</time></trkpt><trkpt lat="35.0256176" lon="32.6581797"><ele>1241.9</ele><time>2015-04-27T12:07:35.0000000+00:00</time></trkpt><trkpt lat="35.0255671" lon="32.658146"><ele>1241.9</ele><time>2015-04-27T12:07:36.0000000+00:00</time></trkpt><trkpt lat="35.0255045" lon="32.6581173"><ele>1241.9</ele><time>2015-04-27T12:07:37.0000000+00:00</time></trkpt><trkpt lat="35.0254477" lon="32.6581025"><ele>1241.9</ele><time>2015-04-27T12:07:38.0000000+00:00</time></trkpt><trkpt lat="35.0253894" lon="32.6580837"><ele>1241.9</ele><time>2015-04-27T12:07:39.0000000+00:00</time></trkpt><trkpt lat="35.0253537" lon="32.6580341"><ele>1241.9</ele><time>2015-04-27T12:07:40.0000000+00:00</time></trkpt><trkpt lat="35.0253013" lon="32.6580241"><ele>1242.4</ele><time>2015-04-27T12:07:41.0000000+00:00</time></trkpt><trkpt lat="35.0252566" lon="32.6579917"><ele>1242.7</ele><time>2015-04-27T12:07:42.0000000+00:00</time></trkpt><trkpt lat="35.0252126" lon="32.6579657"><ele>1242.8</ele><time>2015-04-27T12:07:43.0000000+00:00</time></trkpt><trkpt lat="35.0251596" lon="32.6579357"><ele>1245.6</ele><time>2015-04-27T12:07:45.0000000+00:00</time></trkpt><trkpt lat="35.0251142" lon="32.6579286"><ele>1245.8</ele><time>2015-04-27T12:07:46.0000000+00:00</time></trkpt><trkpt lat="35.0250302" lon="32.657915"><ele>1245.9</ele><time>2015-04-27T12:07:48.0000000+00:00</time></trkpt><trkpt lat="35.0249862" lon="32.6578995"><ele>1245.9</ele><time>2015-04-27T12:07:49.0000000+00:00</time></trkpt><trkpt lat="35.0249352" lon="32.6578956"><ele>1245.4</ele><time>2015-04-27T12:07:50.0000000+00:00</time></trkpt><trkpt lat="35.0248526" lon="32.6578982"><ele>1245.6</ele><time>2015-04-27T12:07:52.0000000+00:00</time></trkpt><trkpt lat="35.024781" lon="32.6579464"><ele>1246.1</ele><time>2015-04-27T12:07:54.0000000+00:00</time></trkpt><trkpt lat="35.0247403" lon="32.6580022"><ele>1246.5</ele><time>2015-04-27T12:07:56.0000000+00:00</time></trkpt><trkpt lat="35.0247363" lon="32.6580707"><ele>1246.7</ele><time>2015-04-27T12:07:57.0000000+00:00</time></trkpt><trkpt lat="35.0247182" lon="32.6581295"><ele>1246.8</ele><time>2015-04-27T12:07:58.0000000+00:00</time></trkpt><trkpt lat="35.0247045" lon="32.6581891"><ele>1246.9</ele><time>2015-04-27T12:07:59.0000000+00:00</time></trkpt><trkpt lat="35.0246846" lon="32.6582513"><ele>1246.9</ele><time>2015-04-27T12:08:00.0000000+00:00</time></trkpt><trkpt lat="35.0246688" lon="32.6583115"><ele>1246.4</ele><time>2015-04-27T12:08:01.0000000+00:00</time></trkpt><trkpt lat="35.0246465" lon="32.6583717"><ele>1246.2</ele><time>2015-04-27T12:08:02.0000000+00:00</time></trkpt><trkpt lat="35.0246314" lon="32.6584295"><ele>1246.1</ele><time>2015-04-27T12:08:03.0000000+00:00</time></trkpt><trkpt lat="35.0245969" lon="32.658474"><ele>1245.5</ele><time>2015-04-27T12:08:04.0000000+00:00</time></trkpt><trkpt lat="35.0245431" lon="32.6585479"><ele>1245.8</ele><time>2015-04-27T12:08:06.0000000+00:00</time></trkpt><trkpt lat="35.0244959" lon="32.6586286"><ele>1245.4</ele><time>2015-04-27T12:08:08.0000000+00:00</time></trkpt><trkpt lat="35.0244672" lon="32.6586734"><ele>1245.7</ele><time>2015-04-27T12:08:09.0000000+00:00</time></trkpt><trkpt lat="35.0244277" lon="32.65876"><ele>1246.4</ele><time>2015-04-27T12:08:11.0000000+00:00</time></trkpt><trkpt lat="35.0243773" lon="32.6588406"><ele>1246.0</ele><time>2015-04-27T12:08:13.0000000+00:00</time></trkpt><trkpt lat="35.0243465" lon="32.6588849"><ele>1246.0</ele><time>2015-04-27T12:08:14.0000000+00:00</time></trkpt><trkpt lat="35.0243028" lon="32.6589533"><ele>1246.9</ele><time>2015-04-27T12:08:16.0000000+00:00</time></trkpt><trkpt lat="35.0242458" lon="32.6589905"><ele>1247.7</ele><time>2015-04-27T12:08:18.0000000+00:00</time></trkpt><trkpt lat="35.0241717" lon="32.6590075"><ele>1247.4</ele><time>2015-04-27T12:08:20.0000000+00:00</time></trkpt><trkpt lat="35.0240966" lon="32.6590108"><ele>1245.8</ele><time>2015-04-27T12:08:22.0000000+00:00</time></trkpt><trkpt lat="35.0240295" lon="32.6590094"><ele>1245.1</ele><time>2015-04-27T12:08:24.0000000+00:00</time></trkpt><trkpt lat="35.0239814" lon="32.6590083"><ele>1246.5</ele><time>2015-04-27T12:08:26.0000000+00:00</time></trkpt><trkpt lat="35.0239291" lon="32.6590072"><ele>1246.6</ele><time>2015-04-27T12:08:28.0000000+00:00</time></trkpt><trkpt lat="35.0238788" lon="32.659004"><ele>1245.1</ele><time>2015-04-27T12:08:30.0000000+00:00</time></trkpt><trkpt lat="35.0238254" lon="32.6590054"><ele>1245.0</ele><time>2015-04-27T12:08:32.0000000+00:00</time></trkpt><trkpt lat="35.0237713" lon="32.6590106"><ele>1244.9</ele><time>2015-04-27T12:08:34.0000000+00:00</time></trkpt><trkpt lat="35.0237186" lon="32.6590233"><ele>1244.2</ele><time>2015-04-27T12:08:36.0000000+00:00</time></trkpt><trkpt lat="35.0236681" lon="32.6590415"><ele>1244.5</ele><time>2015-04-27T12:08:38.0000000+00:00</time></trkpt><trkpt lat="35.0236128" lon="32.659059"><ele>1245.1</ele><time>2015-04-27T12:08:40.0000000+00:00</time></trkpt><trkpt lat="35.0235499" lon="32.6590809"><ele>1245.3</ele><time>2015-04-27T12:08:43.0000000+00:00</time></trkpt><trkpt lat="35.0234939" lon="32.6591129"><ele>1246.7</ele><time>2015-04-27T12:08:46.0000000+00:00</time></trkpt><trkpt lat="35.0234426" lon="32.6591378"><ele>1248.6</ele><time>2015-04-27T12:08:48.0000000+00:00</time></trkpt><trkpt lat="35.0233953" lon="32.6591722"><ele>1249.9</ele><time>2015-04-27T12:08:50.0000000+00:00</time></trkpt><trkpt lat="35.023359" lon="32.6592286"><ele>1250.7</ele><time>2015-04-27T12:08:52.0000000+00:00</time></trkpt><trkpt lat="35.0233217" lon="32.6592913"><ele>1250.1</ele><time>2015-04-27T12:08:54.0000000+00:00</time></trkpt><trkpt lat="35.0232933" lon="32.6593634"><ele>1249.2</ele><time>2015-04-27T12:08:56.0000000+00:00</time></trkpt><trkpt lat="35.0232766" lon="32.6594377"><ele>1249.5</ele><time>2015-04-27T12:08:58.0000000+00:00</time></trkpt><trkpt lat="35.0232612" lon="32.6595284"><ele>1249.8</ele><time>2015-04-27T12:09:00.0000000+00:00</time></trkpt><trkpt lat="35.0232322" lon="32.6596193"><ele>1250.2</ele><time>2015-04-27T12:09:02.0000000+00:00</time></trkpt><trkpt lat="35.0231779" lon="32.6596842"><ele>1250.5</ele><time>2015-04-27T12:09:04.0000000+00:00</time></trkpt><trkpt lat="35.0231148" lon="32.6597029"><ele>1250.3</ele><time>2015-04-27T12:09:06.0000000+00:00</time></trkpt><trkpt lat="35.0230417" lon="32.6597019"><ele>1247.0</ele><time>2015-04-27T12:09:08.0000000+00:00</time></trkpt><trkpt lat="35.0229656" lon="32.65969"><ele>1247.0</ele><time>2015-04-27T12:09:10.0000000+00:00</time></trkpt><trkpt lat="35.0228925" lon="32.6596829"><ele>1248.7</ele><time>2015-04-27T12:09:12.0000000+00:00</time></trkpt><trkpt lat="35.0228205" lon="32.6596686"><ele>1249.1</ele><time>2015-04-27T12:09:14.0000000+00:00</time></trkpt><trkpt lat="35.0227469" lon="32.6596603"><ele>1248.5</ele><time>2015-04-27T12:09:16.0000000+00:00</time></trkpt><trkpt lat="35.0226775" lon="32.6596525"><ele>1249.3</ele><time>2015-04-27T12:09:18.0000000+00:00</time></trkpt><trkpt lat="35.0226117" lon="32.6596444"><ele>1251.3</ele><time>2015-04-27T12:09:20.0000000+00:00</time></trkpt><trkpt lat="35.0225473" lon="32.659629"><ele>1251.8</ele><time>2015-04-27T12:09:22.0000000+00:00</time></trkpt><trkpt lat="35.022486" lon="32.6596113"><ele>1251.9</ele><time>2015-04-27T12:09:24.0000000+00:00</time></trkpt><trkpt lat="35.0224263" lon="32.6595898"><ele>1251.4</ele><time>2015-04-27T12:09:26.0000000+00:00</time></trkpt><trkpt lat="35.0223673" lon="32.6595705"><ele>1253.3</ele><time>2015-04-27T12:09:28.0000000+00:00</time></trkpt><trkpt lat="35.0223039" lon="32.6595572"><ele>1253.0</ele><time>2015-04-27T12:09:30.0000000+00:00</time></trkpt><trkpt lat="35.0222458" lon="32.6595444"><ele>1253.5</ele><time>2015-04-27T12:09:32.0000000+00:00</time></trkpt><trkpt lat="35.0221947" lon="32.6595122"><ele>1253.8</ele><time>2015-04-27T12:09:34.0000000+00:00</time></trkpt><trkpt lat="35.0221406" lon="32.6594812"><ele>1255.2</ele><time>2015-04-27T12:09:36.0000000+00:00</time></trkpt><trkpt lat="35.022084" lon="32.6594506"><ele>1255.7</ele><time>2015-04-27T12:09:38.0000000+00:00</time></trkpt><trkpt lat="35.022031" lon="32.6594151"><ele>1257.4</ele><time>2015-04-27T12:09:40.0000000+00:00</time></trkpt><trkpt lat="35.0219727" lon="32.6593846"><ele>1255.0</ele><time>2015-04-27T12:09:42.0000000+00:00</time></trkpt><trkpt lat="35.0219103" lon="32.6593661"><ele>1254.2</ele><time>2015-04-27T12:09:44.0000000+00:00</time></trkpt><trkpt lat="35.0218416" lon="32.6593449"><ele>1250.0</ele><time>2015-04-27T12:09:46.0000000+00:00</time></trkpt><trkpt lat="35.0217586" lon="32.6593257"><ele>1248.9</ele><time>2015-04-27T12:09:48.0000000+00:00</time></trkpt><trkpt lat="35.0217124" lon="32.6593117"><ele>1249.4</ele><time>2015-04-27T12:09:49.0000000+00:00</time></trkpt><trkpt lat="35.0216661" lon="32.6592958"><ele>1250.7</ele><time>2015-04-27T12:09:50.0000000+00:00</time></trkpt><trkpt lat="35.0215978" lon="32.6592709"><ele>1250.8</ele><time>2015-04-27T12:09:51.0000000+00:00</time></trkpt><trkpt lat="35.0215429" lon="32.6592628"><ele>1250.4</ele><time>2015-04-27T12:09:52.0000000+00:00</time></trkpt><trkpt lat="35.0214853" lon="32.6592586"><ele>1250.6</ele><time>2015-04-27T12:09:53.0000000+00:00</time></trkpt><trkpt lat="35.0214349" lon="32.6592705"><ele>1251.3</ele><time>2015-04-27T12:09:54.0000000+00:00</time></trkpt><trkpt lat="35.0213845" lon="32.6592918"><ele>1251.6</ele><time>2015-04-27T12:09:55.0000000+00:00</time></trkpt><trkpt lat="35.0213081" lon="32.6593114"><ele>1249.3</ele><time>2015-04-27T12:09:56.0000000+00:00</time></trkpt><trkpt lat="35.0212652" lon="32.6593403"><ele>1249.1</ele><time>2015-04-27T12:09:57.0000000+00:00</time></trkpt><trkpt lat="35.0211906" lon="32.6593833"><ele>1249.7</ele><time>2015-04-27T12:09:59.0000000+00:00</time></trkpt><trkpt lat="35.0211442" lon="32.6594182"><ele>1249.9</ele><time>2015-04-27T12:10:02.0000000+00:00</time></trkpt><trkpt lat="35.0210937" lon="32.659448"><ele>1249.8</ele><time>2015-04-27T12:10:22.0000000+00:00</time></trkpt><trkpt lat="35.021047" lon="32.6594639"><ele>1249.4</ele><time>2015-04-27T12:10:25.0000000+00:00</time></trkpt><trkpt lat="35.0210011" lon="32.6594609"><ele>1246.1</ele><time>2015-04-27T12:10:56.0000000+00:00</time></trkpt><trkpt lat="35.0209311" lon="32.659475"><ele>1245.2</ele><time>2015-04-27T12:11:02.0000000+00:00</time></trkpt><trkpt lat="35.0208511" lon="32.6594915"><ele>1243.5</ele><time>2015-04-27T12:11:04.0000000+00:00</time></trkpt><trkpt lat="35.0208069" lon="32.6595017"><ele>1243.7</ele><time>2015-04-27T12:11:05.0000000+00:00</time></trkpt><trkpt lat="35.020755" lon="32.6595146"><ele>1243.8</ele><time>2015-04-27T12:11:06.0000000+00:00</time></trkpt><trkpt lat="35.0206858" lon="32.6595298"><ele>1243.4</ele><time>2015-04-27T12:11:07.0000000+00:00</time></trkpt><trkpt lat="35.0206291" lon="32.659545"><ele>1243.7</ele><time>2015-04-27T12:11:08.0000000+00:00</time></trkpt><trkpt lat="35.0205634" lon="32.6595561"><ele>1243.3</ele><time>2015-04-27T12:11:09.0000000+00:00</time></trkpt><trkpt lat="35.0204971" lon="32.6595691"><ele>1242.6</ele><time>2015-04-27T12:11:10.0000000+00:00</time></trkpt><trkpt lat="35.0204228" lon="32.6595882"><ele>1242.3</ele><time>2015-04-27T12:11:11.0000000+00:00</time></trkpt><trkpt lat="35.0203474" lon="32.6596157"><ele>1242.6</ele><time>2015-04-27T12:11:12.0000000+00:00</time></trkpt><trkpt lat="35.0202673" lon="32.6596529"><ele>1242.8</ele><time>2015-04-27T12:11:13.0000000+00:00</time></trkpt><trkpt lat="35.0201852" lon="32.6596884"><ele>1242.3</ele><time>2015-04-27T12:11:14.0000000+00:00</time></trkpt><trkpt lat="35.020115" lon="32.6597497"><ele>1242.1</ele><time>2015-04-27T12:11:15.0000000+00:00</time></trkpt><trkpt lat="35.0200566" lon="32.6598268"><ele>1241.5</ele><time>2015-04-27T12:11:16.0000000+00:00</time></trkpt><trkpt lat="35.0199938" lon="32.6599023"><ele>1240.7</ele><time>2015-04-27T12:11:17.0000000+00:00</time></trkpt><trkpt lat="35.0199232" lon="32.6599878"><ele>1239.8</ele><time>2015-04-27T12:11:18.0000000+00:00</time></trkpt><trkpt lat="35.0198406" lon="32.6600703"><ele>1239.4</ele><time>2015-04-27T12:11:19.0000000+00:00</time></trkpt><trkpt lat="35.0197441" lon="32.6601362"><ele>1238.2</ele><time>2015-04-27T12:11:20.0000000+00:00</time></trkpt><trkpt lat="35.0196595" lon="32.6602136"><ele>1237.0</ele><time>2015-04-27T12:11:21.0000000+00:00</time></trkpt><trkpt lat="35.0195738" lon="32.6603024"><ele>1236.0</ele><time>2015-04-27T12:11:22.0000000+00:00</time></trkpt><trkpt lat="35.0194829" lon="32.6603933"><ele>1235.5</ele><time>2015-04-27T12:11:23.0000000+00:00</time></trkpt><trkpt lat="35.0193904" lon="32.660489"><ele>1234.2</ele><time>2015-04-27T12:11:24.0000000+00:00</time></trkpt><trkpt lat="35.0193026" lon="32.6605982"><ele>1233.6</ele><time>2015-04-27T12:11:25.0000000+00:00</time></trkpt><trkpt lat="35.0192025" lon="32.6607002"><ele>1232.2</ele><time>2015-04-27T12:11:26.0000000+00:00</time></trkpt><trkpt lat="35.0191052" lon="32.6608046"><ele>1232.1</ele><time>2015-04-27T12:11:27.0000000+00:00</time></trkpt><trkpt lat="35.0189894" lon="32.6608978"><ele>1232.0</ele><time>2015-04-27T12:11:28.0000000+00:00</time></trkpt><trkpt lat="35.0188781" lon="32.660969"><ele>1232.0</ele><time>2015-04-27T12:11:29.0000000+00:00</time></trkpt><trkpt lat="35.018772" lon="32.6610397"><ele>1231.9</ele><time>2015-04-27T12:11:30.0000000+00:00</time></trkpt><trkpt lat="35.0186666" lon="32.661112"><ele>1231.9</ele><time>2015-04-27T12:11:31.0000000+00:00</time></trkpt><trkpt lat="35.0185688" lon="32.6611841"><ele>1231.4</ele><time>2015-04-27T12:11:32.0000000+00:00</time></trkpt><trkpt lat="35.0184726" lon="32.6612605"><ele>1231.2</ele><time>2015-04-27T12:11:33.0000000+00:00</time></trkpt><trkpt lat="35.0183867" lon="32.661334"><ele>1230.6</ele><time>2015-04-27T12:11:34.0000000+00:00</time></trkpt><trkpt lat="35.0183015" lon="32.6614133"><ele>1230.2</ele><time>2015-04-27T12:11:35.0000000+00:00</time></trkpt><trkpt lat="35.0182169" lon="32.6614985"><ele>1229.6</ele><time>2015-04-27T12:11:36.0000000+00:00</time></trkpt><trkpt lat="35.0181247" lon="32.6615746"><ele>1229.3</ele><time>2015-04-27T12:11:37.0000000+00:00</time></trkpt><trkpt lat="35.0180506" lon="32.6616433"><ele>1228.1</ele><time>2015-04-27T12:11:38.0000000+00:00</time></trkpt><trkpt lat="35.0179605" lon="32.6617326"><ele>1227.5</ele><time>2015-04-27T12:11:39.0000000+00:00</time></trkpt><trkpt lat="35.0178725" lon="32.6618112"><ele>1226.7</ele><time>2015-04-27T12:11:40.0000000+00:00</time></trkpt><trkpt lat="35.0177797" lon="32.6619142"><ele>1226.3</ele><time>2015-04-27T12:11:41.0000000+00:00</time></trkpt><trkpt lat="35.017681" lon="32.6619957"><ele>1225.6</ele><time>2015-04-27T12:11:42.0000000+00:00</time></trkpt><trkpt lat="35.0175933" lon="32.6620858"><ele>1224.8</ele><time>2015-04-27T12:11:43.0000000+00:00</time></trkpt><trkpt lat="35.017496" lon="32.6621782"><ele>1223.4</ele><time>2015-04-27T12:11:44.0000000+00:00</time></trkpt><trkpt lat="35.0174062" lon="32.6622643"><ele>1222.6</ele><time>2015-04-27T12:11:45.0000000+00:00</time></trkpt><trkpt lat="35.0173251" lon="32.6623342"><ele>1222.3</ele><time>2015-04-27T12:11:46.0000000+00:00</time></trkpt><trkpt lat="35.0172386" lon="32.6623945"><ele>1222.1</ele><time>2015-04-27T12:11:47.0000000+00:00</time></trkpt><trkpt lat="35.0171596" lon="32.6624301"><ele>1221.5</ele><time>2015-04-27T12:11:48.0000000+00:00</time></trkpt><trkpt lat="35.0170918" lon="32.6624477"><ele>1220.7</ele><time>2015-04-27T12:11:49.0000000+00:00</time></trkpt><trkpt lat="35.0170183" lon="32.6624524"><ele>1220.3</ele><time>2015-04-27T12:11:50.0000000+00:00</time></trkpt><trkpt lat="35.0169425" lon="32.6624437"><ele>1220.1</ele><time>2015-04-27T12:11:51.0000000+00:00</time></trkpt><trkpt lat="35.016867" lon="32.6624133"><ele>1219.5</ele><time>2015-04-27T12:11:52.0000000+00:00</time></trkpt><trkpt lat="35.0168115" lon="32.6623703"><ele>1219.2</ele><time>2015-04-27T12:11:53.0000000+00:00</time></trkpt><trkpt lat="35.0167555" lon="32.6623218"><ele>1218.6</ele><time>2015-04-27T12:11:54.0000000+00:00</time></trkpt><trkpt lat="35.016697" lon="32.6622853"><ele>1218.8</ele><time>2015-04-27T12:11:55.0000000+00:00</time></trkpt><trkpt lat="35.0166335" lon="32.6622633"><ele>1218.8</ele><time>2015-04-27T12:11:56.0000000+00:00</time></trkpt><trkpt lat="35.016574" lon="32.6622203"><ele>1218.9</ele><time>2015-04-27T12:11:57.0000000+00:00</time></trkpt><trkpt lat="35.0164853" lon="32.662232"><ele>1218.9</ele><time>2015-04-27T12:11:58.0000000+00:00</time></trkpt><trkpt lat="35.0164382" lon="32.6622091"><ele>1218.9</ele><time>2015-04-27T12:11:59.0000000+00:00</time></trkpt><trkpt lat="35.0163908" lon="32.6621715"><ele>1217.9</ele><time>2015-04-27T12:12:00.0000000+00:00</time></trkpt><trkpt lat="35.0163116" lon="32.6621444"><ele>1216.4</ele><time>2015-04-27T12:12:01.0000000+00:00</time></trkpt><trkpt lat="35.016261" lon="32.6620925"><ele>1216.2</ele><time>2015-04-27T12:12:02.0000000+00:00</time></trkpt><trkpt lat="35.016209" lon="32.6620253"><ele>1216.1</ele><time>2015-04-27T12:12:03.0000000+00:00</time></trkpt><trkpt lat="35.0161551" lon="32.6619677"><ele>1216.5</ele><time>2015-04-27T12:12:04.0000000+00:00</time></trkpt><trkpt lat="35.0160858" lon="32.6619219"><ele>1216.7</ele><time>2015-04-27T12:12:05.0000000+00:00</time></trkpt><trkpt lat="35.0160144" lon="32.6618969"><ele>1216.8</ele><time>2015-04-27T12:12:06.0000000+00:00</time></trkpt><trkpt lat="35.0159443" lon="32.6618792"><ele>1215.9</ele><time>2015-04-27T12:12:07.0000000+00:00</time></trkpt><trkpt lat="35.0158684" lon="32.6618833"><ele>1214.9</ele><time>2015-04-27T12:12:08.0000000+00:00</time></trkpt><trkpt lat="35.0158043" lon="32.6619209"><ele>1213.9</ele><time>2015-04-27T12:12:09.0000000+00:00</time></trkpt><trkpt lat="35.0157402" lon="32.6619492"><ele>1212.9</ele><time>2015-04-27T12:12:10.0000000+00:00</time></trkpt><trkpt lat="35.0156774" lon="32.6619854"><ele>1212.4</ele><time>2015-04-27T12:12:11.0000000+00:00</time></trkpt><trkpt lat="35.0156018" lon="32.6620207"><ele>1211.2</ele><time>2015-04-27T12:12:12.0000000+00:00</time></trkpt><trkpt lat="35.0155517" lon="32.6620818"><ele>1211.1</ele><time>2015-04-27T12:12:13.0000000+00:00</time></trkpt><trkpt lat="35.0154922" lon="32.6621486"><ele>1210.5</ele><time>2015-04-27T12:12:14.0000000+00:00</time></trkpt><trkpt lat="35.0154734" lon="32.6622416"><ele>1210.2</ele><time>2015-04-27T12:12:15.0000000+00:00</time></trkpt><trkpt lat="35.0154557" lon="32.6623251"><ele>1210.1</ele><time>2015-04-27T12:12:16.0000000+00:00</time></trkpt><trkpt lat="35.0154078" lon="32.6624047"><ele>1209.5</ele><time>2015-04-27T12:12:17.0000000+00:00</time></trkpt><trkpt lat="35.0153332" lon="32.6624703"><ele>1209.2</ele><time>2015-04-27T12:12:18.0000000+00:00</time></trkpt><trkpt lat="35.0152784" lon="32.6625514"><ele>1208.6</ele><time>2015-04-27T12:12:19.0000000+00:00</time></trkpt><trkpt lat="35.0152374" lon="32.6626335"><ele>1208.8</ele><time>2015-04-27T12:12:20.0000000+00:00</time></trkpt><trkpt lat="35.0152057" lon="32.6627204"><ele>1208.3</ele><time>2015-04-27T12:12:21.0000000+00:00</time></trkpt><trkpt lat="35.015155" lon="32.6627945"><ele>1207.1</ele><time>2015-04-27T12:12:22.0000000+00:00</time></trkpt><trkpt lat="35.0151276" lon="32.6628607"><ele>1207.0</ele><time>2015-04-27T12:12:23.0000000+00:00</time></trkpt><trkpt lat="35.0150811" lon="32.6629172"><ele>1206.5</ele><time>2015-04-27T12:12:24.0000000+00:00</time></trkpt><trkpt lat="35.0150429" lon="32.6629707"><ele>1206.7</ele><time>2015-04-27T12:12:25.0000000+00:00</time></trkpt><trkpt lat="35.0150111" lon="32.663015"><ele>1206.3</ele><time>2015-04-27T12:12:26.0000000+00:00</time></trkpt><trkpt lat="35.0149149" lon="32.663028"><ele>1205.1</ele><time>2015-04-27T12:12:27.0000000+00:00</time></trkpt><trkpt lat="35.0148299" lon="32.6630386"><ele>1204.0</ele><time>2015-04-27T12:12:28.0000000+00:00</time></trkpt><trkpt lat="35.0147426" lon="32.6630287"><ele>1203.0</ele><time>2015-04-27T12:12:29.0000000+00:00</time></trkpt><trkpt lat="35.0146639" lon="32.6630524"><ele>1202.0</ele><time>2015-04-27T12:12:30.0000000+00:00</time></trkpt><trkpt lat="35.0146016" lon="32.6631225"><ele>1200.9</ele><time>2015-04-27T12:12:31.0000000+00:00</time></trkpt><trkpt lat="35.0144967" lon="32.6631406"><ele>1200.4</ele><time>2015-04-27T12:12:32.0000000+00:00</time></trkpt><trkpt lat="35.0144248" lon="32.663194"><ele>1199.2</ele><time>2015-04-27T12:12:33.0000000+00:00</time></trkpt><trkpt lat="35.014357" lon="32.6632062"><ele>1200.1</ele><time>2015-04-27T12:12:34.0000000+00:00</time></trkpt><trkpt lat="35.0142651" lon="32.6632046"><ele>1200.0</ele><time>2015-04-27T12:12:35.0000000+00:00</time></trkpt><trkpt lat="35.0141923" lon="32.6631589"><ele>1200.0</ele><time>2015-04-27T12:12:36.0000000+00:00</time></trkpt><trkpt lat="35.0141419" lon="32.6630794"><ele>1199.9</ele><time>2015-04-27T12:12:37.0000000+00:00</time></trkpt><trkpt lat="35.014068" lon="32.6630296"><ele>1200.9</ele><time>2015-04-27T12:12:38.0000000+00:00</time></trkpt><trkpt lat="35.013999" lon="32.6629816"><ele>1201.4</ele><time>2015-04-27T12:12:39.0000000+00:00</time></trkpt><trkpt lat="35.0139659" lon="32.6629057"><ele>1200.7</ele><time>2015-04-27T12:12:40.0000000+00:00</time></trkpt><trkpt lat="35.0139" lon="32.6628902"><ele>1200.8</ele><time>2015-04-27T12:12:41.0000000+00:00</time></trkpt><trkpt lat="35.0138005" lon="32.6629089"><ele>1201.4</ele><time>2015-04-27T12:12:42.0000000+00:00</time></trkpt><trkpt lat="35.0137318" lon="32.6628951"><ele>1200.6</ele><time>2015-04-27T12:12:43.0000000+00:00</time></trkpt><trkpt lat="35.0136465" lon="32.6629201"><ele>1200.3</ele><time>2015-04-27T12:12:44.0000000+00:00</time></trkpt><trkpt lat="35.0135864" lon="32.6629617"><ele>1199.6</ele><time>2015-04-27T12:12:45.0000000+00:00</time></trkpt><trkpt lat="35.013496" lon="32.662994"><ele>1199.3</ele><time>2015-04-27T12:12:46.0000000+00:00</time></trkpt><trkpt lat="35.0134103" lon="32.6630046"><ele>1198.6</ele><time>2015-04-27T12:12:47.0000000+00:00</time></trkpt><trkpt lat="35.013351" lon="32.6630943"><ele>1197.8</ele><time>2015-04-27T12:12:48.0000000+00:00</time></trkpt><trkpt lat="35.0132512" lon="32.6631458"><ele>1197.3</ele><time>2015-04-27T12:12:49.0000000+00:00</time></trkpt><trkpt lat="35.0131384" lon="32.6631846"><ele>1197.1</ele><time>2015-04-27T12:12:50.0000000+00:00</time></trkpt><trkpt lat="35.0130606" lon="32.6632077"><ele>1196.5</ele><time>2015-04-27T12:12:51.0000000+00:00</time></trkpt><trkpt lat="35.0129694" lon="32.6632788"><ele>1195.2</ele><time>2015-04-27T12:12:52.0000000+00:00</time></trkpt><trkpt lat="35.0128656" lon="32.6633024"><ele>1194.1</ele><time>2015-04-27T12:12:53.0000000+00:00</time></trkpt><trkpt lat="35.0127656" lon="32.6633328"><ele>1194.0</ele><time>2015-04-27T12:12:54.0000000+00:00</time></trkpt><trkpt lat="35.0126612" lon="32.6633403"><ele>1193.5</ele><time>2015-04-27T12:12:55.0000000+00:00</time></trkpt><trkpt lat="35.0125801" lon="32.6634152"><ele>1193.2</ele><time>2015-04-27T12:12:56.0000000+00:00</time></trkpt><trkpt lat="35.0124852" lon="32.6634543"><ele>1193.1</ele><time>2015-04-27T12:12:57.0000000+00:00</time></trkpt><trkpt lat="35.0124078" lon="32.6634798"><ele>1193.0</ele><time>2015-04-27T12:12:58.0000000+00:00</time></trkpt><trkpt lat="35.0123268" lon="32.6635153"><ele>1192.0</ele><time>2015-04-27T12:12:59.0000000+00:00</time></trkpt><trkpt lat="35.0122043" lon="32.663521"><ele>1190.4</ele><time>2015-04-27T12:13:00.0000000+00:00</time></trkpt><trkpt lat="35.0121171" lon="32.6635117"><ele>1190.7</ele><time>2015-04-27T12:13:01.0000000+00:00</time></trkpt><trkpt lat="35.0120106" lon="32.6635299"><ele>1190.8</ele><time>2015-04-27T12:13:02.0000000+00:00</time></trkpt><trkpt lat="35.0119172" lon="32.6635171"><ele>1190.4</ele><time>2015-04-27T12:13:03.0000000+00:00</time></trkpt><trkpt lat="35.0118182" lon="32.6635262"><ele>1189.6</ele><time>2015-04-27T12:13:04.0000000+00:00</time></trkpt><trkpt lat="35.0117175" lon="32.6635491"><ele>1189.8</ele><time>2015-04-27T12:13:05.0000000+00:00</time></trkpt><trkpt lat="35.0116327" lon="32.6635903"><ele>1189.9</ele><time>2015-04-27T12:13:06.0000000+00:00</time></trkpt><trkpt lat="35.011532" lon="32.6636069"><ele>1189.9</ele><time>2015-04-27T12:13:07.0000000+00:00</time></trkpt><trkpt lat="35.0114384" lon="32.6636125"><ele>1189.4</ele><time>2015-04-27T12:13:08.0000000+00:00</time></trkpt><trkpt lat="35.0113468" lon="32.663623"><ele>1189.2</ele><time>2015-04-27T12:13:09.0000000+00:00</time></trkpt><trkpt lat="35.0112556" lon="32.6636312"><ele>1189.1</ele><time>2015-04-27T12:13:10.0000000+00:00</time></trkpt><trkpt lat="35.0111475" lon="32.6636569"><ele>1188.0</ele><time>2015-04-27T12:13:11.0000000+00:00</time></trkpt><trkpt lat="35.0110493" lon="32.6636707"><ele>1187.5</ele><time>2015-04-27T12:13:12.0000000+00:00</time></trkpt><trkpt lat="35.010972" lon="32.6636768"><ele>1187.2</ele><time>2015-04-27T12:13:13.0000000+00:00</time></trkpt><trkpt lat="35.0109011" lon="32.6636884"><ele>1187.1</ele><time>2015-04-27T12:13:14.0000000+00:00</time></trkpt><trkpt lat="35.0108297" lon="32.6637282"><ele>1187.7</ele><time>2015-04-27T12:13:16.0000000+00:00</time></trkpt><trkpt lat="35.0108436" lon="32.6638142"><ele>1187.1</ele><time>2015-04-27T12:13:18.0000000+00:00</time></trkpt><trkpt lat="35.0108967" lon="32.6638994"><ele>1186.2</ele><time>2015-04-27T12:13:20.0000000+00:00</time></trkpt><trkpt lat="35.0109544" lon="32.6639347"><ele>1186.6</ele><time>2015-04-27T12:13:21.0000000+00:00</time></trkpt><trkpt lat="35.0109975" lon="32.663952"><ele>1186.8</ele><time>2015-04-27T12:13:22.0000000+00:00</time></trkpt><trkpt lat="35.0110706" lon="32.6639928"><ele>1186.8</ele><time>2015-04-27T12:13:23.0000000+00:00</time></trkpt><trkpt lat="35.0111365" lon="32.6640348"><ele>1183.9</ele><time>2015-04-27T12:13:25.0000000+00:00</time></trkpt><trkpt lat="35.0112292" lon="32.6640681"><ele>1183.9</ele><time>2015-04-27T12:13:26.0000000+00:00</time></trkpt><trkpt lat="35.0112652" lon="32.6641152"><ele>1183.4</ele><time>2015-04-27T12:13:27.0000000+00:00</time></trkpt><trkpt lat="35.0113148" lon="32.6641422"><ele>1183.2</ele><time>2015-04-27T12:13:28.0000000+00:00</time></trkpt><trkpt lat="35.0113905" lon="32.6642144"><ele>1182.6</ele><time>2015-04-27T12:13:29.0000000+00:00</time></trkpt><trkpt lat="35.0114544" lon="32.6642713"><ele>1182.2</ele><time>2015-04-27T12:13:30.0000000+00:00</time></trkpt><trkpt lat="35.0114957" lon="32.66435"><ele>1182.1</ele><time>2015-04-27T12:13:31.0000000+00:00</time></trkpt><trkpt lat="35.0115052" lon="32.6644537"><ele>1182.0</ele><time>2015-04-27T12:13:32.0000000+00:00</time></trkpt><trkpt lat="35.0114851" lon="32.6645511"><ele>1182.5</ele><time>2015-04-27T12:13:33.0000000+00:00</time></trkpt><trkpt lat="35.0114766" lon="32.6646307"><ele>1182.7</ele><time>2015-04-27T12:13:34.0000000+00:00</time></trkpt><trkpt lat="35.0114555" lon="32.6647051"><ele>1182.8</ele><time>2015-04-27T12:13:35.0000000+00:00</time></trkpt><trkpt lat="35.0114154" lon="32.6647801"><ele>1182.9</ele><time>2015-04-27T12:13:36.0000000+00:00</time></trkpt><trkpt lat="35.0113664" lon="32.6648725"><ele>1181.9</ele><time>2015-04-27T12:13:37.0000000+00:00</time></trkpt><trkpt lat="35.011337" lon="32.6649528"><ele>1180.9</ele><time>2015-04-27T12:13:38.0000000+00:00</time></trkpt><trkpt lat="35.0112968" lon="32.6650219"><ele>1180.4</ele><time>2015-04-27T12:13:39.0000000+00:00</time></trkpt><trkpt lat="35.0112477" lon="32.665081"><ele>1180.2</ele><time>2015-04-27T12:13:40.0000000+00:00</time></trkpt><trkpt lat="35.0112561" lon="32.6651799"><ele>1180.1</ele><time>2015-04-27T12:13:41.0000000+00:00</time></trkpt><trkpt lat="35.0112227" lon="32.6652417"><ele>1179.0</ele><time>2015-04-27T12:13:42.0000000+00:00</time></trkpt><trkpt lat="35.0111939" lon="32.6653334"><ele>1178.5</ele><time>2015-04-27T12:13:43.0000000+00:00</time></trkpt><trkpt lat="35.0111553" lon="32.6653962"><ele>1178.2</ele><time>2015-04-27T12:13:44.0000000+00:00</time></trkpt><trkpt lat="35.0111158" lon="32.6654393"><ele>1178.1</ele><time>2015-04-27T12:13:45.0000000+00:00</time></trkpt><trkpt lat="35.0110675" lon="32.6654926"><ele>1178.0</ele><time>2015-04-27T12:13:46.0000000+00:00</time></trkpt><trkpt lat="35.0110129" lon="32.6655403"><ele>1178.0</ele><time>2015-04-27T12:13:47.0000000+00:00</time></trkpt><trkpt lat="35.0109595" lon="32.6656286"><ele>1177.4</ele><time>2015-04-27T12:13:48.0000000+00:00</time></trkpt><trkpt lat="35.010881" lon="32.665661"><ele>1176.7</ele><time>2015-04-27T12:13:49.0000000+00:00</time></trkpt><trkpt lat="35.0108343" lon="32.6657324"><ele>1175.8</ele><time>2015-04-27T12:13:50.0000000+00:00</time></trkpt><trkpt lat="35.010807" lon="32.6658281"><ele>1174.9</ele><time>2015-04-27T12:13:51.0000000+00:00</time></trkpt><trkpt lat="35.0107893" lon="32.6659108"><ele>1174.4</ele><time>2015-04-27T12:13:52.0000000+00:00</time></trkpt><trkpt lat="35.0107733" lon="32.6659792"><ele>1173.7</ele><time>2015-04-27T12:13:53.0000000+00:00</time></trkpt><trkpt lat="35.0107895" lon="32.6660621"><ele>1173.8</ele><time>2015-04-27T12:13:54.0000000+00:00</time></trkpt><trkpt lat="35.0108172" lon="32.6661361"><ele>1172.9</ele><time>2015-04-27T12:13:55.0000000+00:00</time></trkpt><trkpt lat="35.0108644" lon="32.6662104"><ele>1172.9</ele><time>2015-04-27T12:13:56.0000000+00:00</time></trkpt><trkpt lat="35.010891" lon="32.6662837"><ele>1172.4</ele><time>2015-04-27T12:13:57.0000000+00:00</time></trkpt><trkpt lat="35.0109266" lon="32.6663675"><ele>1172.2</ele><time>2015-04-27T12:13:58.0000000+00:00</time></trkpt><trkpt lat="35.010973" lon="32.6664295"><ele>1172.1</ele><time>2015-04-27T12:13:59.0000000+00:00</time></trkpt><trkpt lat="35.0110059" lon="32.6664983"><ele>1172.0</ele><time>2015-04-27T12:14:00.0000000+00:00</time></trkpt><trkpt lat="35.0110381" lon="32.6665787"><ele>1172.5</ele><time>2015-04-27T12:14:01.0000000+00:00</time></trkpt><trkpt lat="35.0110557" lon="32.6666445"><ele>1171.7</ele><time>2015-04-27T12:14:02.0000000+00:00</time></trkpt><trkpt lat="35.0110564" lon="32.6667281"><ele>1171.8</ele><time>2015-04-27T12:14:03.0000000+00:00</time></trkpt><trkpt lat="35.0110716" lon="32.6668191"><ele>1170.4</ele><time>2015-04-27T12:14:04.0000000+00:00</time></trkpt><trkpt lat="35.0111306" lon="32.6669214"><ele>1169.7</ele><time>2015-04-27T12:14:05.0000000+00:00</time></trkpt><trkpt lat="35.011119" lon="32.6670085"><ele>1168.8</ele><time>2015-04-27T12:14:06.0000000+00:00</time></trkpt><trkpt lat="35.011141" lon="32.6671088"><ele>1168.9</ele><time>2015-04-27T12:14:07.0000000+00:00</time></trkpt><trkpt lat="35.0111773" lon="32.667225"><ele>1168.9</ele><time>2015-04-27T12:14:08.0000000+00:00</time></trkpt><trkpt lat="35.0112006" lon="32.6673175"><ele>1168.4</ele><time>2015-04-27T12:14:09.0000000+00:00</time></trkpt><trkpt lat="35.0112303" lon="32.6674071"><ele>1168.2</ele><time>2015-04-27T12:14:10.0000000+00:00</time></trkpt><trkpt lat="35.0112605" lon="32.6675014"><ele>1168.1</ele><time>2015-04-27T12:14:11.0000000+00:00</time></trkpt><trkpt lat="35.0112649" lon="32.6675874"><ele>1168.5</ele><time>2015-04-27T12:14:12.0000000+00:00</time></trkpt><trkpt lat="35.0112701" lon="32.66767"><ele>1168.7</ele><time>2015-04-27T12:14:13.0000000+00:00</time></trkpt><trkpt lat="35.0112871" lon="32.667735"><ele>1168.3</ele><time>2015-04-27T12:14:14.0000000+00:00</time></trkpt><trkpt lat="35.0112985" lon="32.6678026"><ele>1167.6</ele><time>2015-04-27T12:14:15.0000000+00:00</time></trkpt><trkpt lat="35.0112913" lon="32.667875"><ele>1167.3</ele><time>2015-04-27T12:14:16.0000000+00:00</time></trkpt><trkpt lat="35.011289" lon="32.6679336"><ele>1166.6</ele><time>2015-04-27T12:14:17.0000000+00:00</time></trkpt><trkpt lat="35.011279" lon="32.6680462"><ele>1166.6</ele><time>2015-04-27T12:14:19.0000000+00:00</time></trkpt><trkpt lat="35.0112792" lon="32.6681239"><ele>1166.8</ele><time>2015-04-27T12:14:22.0000000+00:00</time></trkpt><trkpt lat="35.0112803" lon="32.668186"><ele>1167.6</ele><time>2015-04-27T12:14:24.0000000+00:00</time></trkpt><trkpt lat="35.0112628" lon="32.6682566"><ele>1167.4</ele><time>2015-04-27T12:14:26.0000000+00:00</time></trkpt><trkpt lat="35.0112541" lon="32.668325"><ele>1166.4</ele><time>2015-04-27T12:14:29.0000000+00:00</time></trkpt><trkpt lat="35.0112666" lon="32.66839"><ele>1164.7</ele><time>2015-04-27T12:17:11.0000000+00:00</time></trkpt><trkpt lat="35.0112574" lon="32.6684523"><ele>1165.6</ele><time>2015-04-27T12:17:13.0000000+00:00</time></trkpt><trkpt lat="35.0112638" lon="32.6685302"><ele>1167.4</ele><time>2015-04-27T12:17:15.0000000+00:00</time></trkpt><trkpt lat="35.0112586" lon="32.6686058"><ele>1166.5</ele><time>2015-04-27T12:17:17.0000000+00:00</time></trkpt><trkpt lat="35.011251" lon="32.6686821"><ele>1168.1</ele><time>2015-04-27T12:17:19.0000000+00:00</time></trkpt><trkpt lat="35.0112419" lon="32.6687588"><ele>1168.5</ele><time>2015-04-27T12:17:21.0000000+00:00</time></trkpt><trkpt lat="35.011247" lon="32.6688382"><ele>1169.1</ele><time>2015-04-27T12:17:23.0000000+00:00</time></trkpt><trkpt lat="35.0112709" lon="32.668915"><ele>1169.7</ele><time>2015-04-27T12:17:25.0000000+00:00</time></trkpt><trkpt lat="35.0113084" lon="32.6689861"><ele>1169.4</ele><time>2015-04-27T12:17:27.0000000+00:00</time></trkpt><trkpt lat="35.0113538" lon="32.6690541"><ele>1168.3</ele><time>2015-04-27T12:17:29.0000000+00:00</time></trkpt><trkpt lat="35.0114026" lon="32.6691388"><ele>1167.3</ele><time>2015-04-27T12:17:31.0000000+00:00</time></trkpt><trkpt lat="35.0114264" lon="32.6691859"><ele>1167.6</ele><time>2015-04-27T12:17:32.0000000+00:00</time></trkpt><trkpt lat="35.0114469" lon="32.6692358"><ele>1167.8</ele><time>2015-04-27T12:17:33.0000000+00:00</time></trkpt><trkpt lat="35.0114644" lon="32.6692944"><ele>1167.3</ele><time>2015-04-27T12:17:34.0000000+00:00</time></trkpt><trkpt lat="35.0114594" lon="32.6693817"><ele>1167.6</ele><time>2015-04-27T12:17:35.0000000+00:00</time></trkpt><trkpt lat="35.0114546" lon="32.6694537"><ele>1167.8</ele><time>2015-04-27T12:17:36.0000000+00:00</time></trkpt><trkpt lat="35.0114389" lon="32.6695189"><ele>1167.4</ele><time>2015-04-27T12:17:37.0000000+00:00</time></trkpt><trkpt lat="35.0114232" lon="32.669581"><ele>1167.6</ele><time>2015-04-27T12:17:38.0000000+00:00</time></trkpt><trkpt lat="35.0114139" lon="32.6696534"><ele>1167.8</ele><time>2015-04-27T12:17:39.0000000+00:00</time></trkpt><trkpt lat="35.0114055" lon="32.6697249"><ele>1168.4</ele><time>2015-04-27T12:17:40.0000000+00:00</time></trkpt><trkpt lat="35.0113793" lon="32.6697942"><ele>1168.1</ele><time>2015-04-27T12:17:41.0000000+00:00</time></trkpt><trkpt lat="35.0113513" lon="32.6698607"><ele>1168.5</ele><time>2015-04-27T12:17:42.0000000+00:00</time></trkpt><trkpt lat="35.0113153" lon="32.669934"><ele>1167.7</ele><time>2015-04-27T12:17:43.0000000+00:00</time></trkpt><trkpt lat="35.0113027" lon="32.6700064"><ele>1167.3</ele><time>2015-04-27T12:17:44.0000000+00:00</time></trkpt><trkpt lat="35.0113052" lon="32.6700843"><ele>1166.6</ele><time>2015-04-27T12:17:45.0000000+00:00</time></trkpt><trkpt lat="35.0113366" lon="32.6701568"><ele>1166.3</ele><time>2015-04-27T12:17:46.0000000+00:00</time></trkpt><trkpt lat="35.0113781" lon="32.670215"><ele>1165.6</ele><time>2015-04-27T12:17:47.0000000+00:00</time></trkpt><trkpt lat="35.011446" lon="32.6702545"><ele>1165.3</ele><time>2015-04-27T12:17:48.0000000+00:00</time></trkpt><trkpt lat="35.0115052" lon="32.6702723"><ele>1165.1</ele><time>2015-04-27T12:17:49.0000000+00:00</time></trkpt><trkpt lat="35.011573" lon="32.6702759"><ele>1165.0</ele><time>2015-04-27T12:17:50.0000000+00:00</time></trkpt><trkpt lat="35.0116398" lon="32.6702952"><ele>1164.5</ele><time>2015-04-27T12:17:51.0000000+00:00</time></trkpt><trkpt lat="35.0116947" lon="32.6703335"><ele>1163.2</ele><time>2015-04-27T12:17:52.0000000+00:00</time></trkpt><trkpt lat="35.0117778" lon="32.6704492"><ele>1162.6</ele><time>2015-04-27T12:17:53.0000000+00:00</time></trkpt><trkpt lat="35.0118356" lon="32.6705063"><ele>1162.2</ele><time>2015-04-27T12:17:54.0000000+00:00</time></trkpt><trkpt lat="35.0118918" lon="32.6706025"><ele>1162.1</ele><time>2015-04-27T12:17:55.0000000+00:00</time></trkpt><trkpt lat="35.0119518" lon="32.6706792"><ele>1162.0</ele><time>2015-04-27T12:17:56.0000000+00:00</time></trkpt><trkpt lat="35.0120074" lon="32.6707618"><ele>1162.0</ele><time>2015-04-27T12:17:57.0000000+00:00</time></trkpt><trkpt lat="35.0120579" lon="32.6708473"><ele>1160.9</ele><time>2015-04-27T12:17:58.0000000+00:00</time></trkpt><trkpt lat="35.0121167" lon="32.6709543"><ele>1160.4</ele><time>2015-04-27T12:17:59.0000000+00:00</time></trkpt><trkpt lat="35.0121619" lon="32.6710382"><ele>1159.7</ele><time>2015-04-27T12:18:00.0000000+00:00</time></trkpt><trkpt lat="35.0121989" lon="32.6711166"><ele>1158.8</ele><time>2015-04-27T12:18:01.0000000+00:00</time></trkpt><trkpt lat="35.0122296" lon="32.6711937"><ele>1158.4</ele><time>2015-04-27T12:18:02.0000000+00:00</time></trkpt><trkpt lat="35.0122384" lon="32.6712793"><ele>1158.1</ele><time>2015-04-27T12:18:03.0000000+00:00</time></trkpt><trkpt lat="35.0122263" lon="32.6713626"><ele>1158.0</ele><time>2015-04-27T12:18:04.0000000+00:00</time></trkpt><trkpt lat="35.012193" lon="32.6714322"><ele>1157.5</ele><time>2015-04-27T12:18:05.0000000+00:00</time></trkpt><trkpt lat="35.0121514" lon="32.6715015"><ele>1157.2</ele><time>2015-04-27T12:18:06.0000000+00:00</time></trkpt><trkpt lat="35.0120989" lon="32.6715639"><ele>1156.6</ele><time>2015-04-27T12:18:07.0000000+00:00</time></trkpt><trkpt lat="35.0120489" lon="32.6716292"><ele>1156.2</ele><time>2015-04-27T12:18:08.0000000+00:00</time></trkpt><trkpt lat="35.0120045" lon="32.6716986"><ele>1156.1</ele><time>2015-04-27T12:18:09.0000000+00:00</time></trkpt><trkpt lat="35.011972" lon="32.6717741"><ele>1156.0</ele><time>2015-04-27T12:18:10.0000000+00:00</time></trkpt><trkpt lat="35.0119522" lon="32.6718497"><ele>1156.0</ele><time>2015-04-27T12:18:11.0000000+00:00</time></trkpt><trkpt lat="35.0119477" lon="32.6719315"><ele>1155.9</ele><time>2015-04-27T12:18:12.0000000+00:00</time></trkpt><trkpt lat="35.0119577" lon="32.6720003"><ele>1155.4</ele><time>2015-04-27T12:18:13.0000000+00:00</time></trkpt><trkpt lat="35.0119901" lon="32.6720608"><ele>1155.2</ele><time>2015-04-27T12:18:14.0000000+00:00</time></trkpt><trkpt lat="35.0120326" lon="32.6721268"><ele>1155.6</ele><time>2015-04-27T12:18:15.0000000+00:00</time></trkpt><trkpt lat="35.0120721" lon="32.6721914"><ele>1155.2</ele><time>2015-04-27T12:18:16.0000000+00:00</time></trkpt><trkpt lat="35.0121252" lon="32.6722584"><ele>1155.1</ele><time>2015-04-27T12:18:17.0000000+00:00</time></trkpt><trkpt lat="35.0121734" lon="32.6723151"><ele>1154.5</ele><time>2015-04-27T12:18:18.0000000+00:00</time></trkpt><trkpt lat="35.012225" lon="32.6723732"><ele>1154.2</ele><time>2015-04-27T12:18:19.0000000+00:00</time></trkpt><trkpt lat="35.0122791" lon="32.6724399"><ele>1153.6</ele><time>2015-04-27T12:18:20.0000000+00:00</time></trkpt><trkpt lat="35.0122874" lon="32.6725211"><ele>1152.8</ele><time>2015-04-27T12:18:21.0000000+00:00</time></trkpt><trkpt lat="35.0122824" lon="32.672605"><ele>1152.3</ele><time>2015-04-27T12:18:22.0000000+00:00</time></trkpt><trkpt lat="35.0122564" lon="32.6726817"><ele>1152.1</ele><time>2015-04-27T12:18:23.0000000+00:00</time></trkpt><trkpt lat="35.0122091" lon="32.6727454"><ele>1152.0</ele><time>2015-04-27T12:18:24.0000000+00:00</time></trkpt><trkpt lat="35.012153" lon="32.6728005"><ele>1152.0</ele><time>2015-04-27T12:18:25.0000000+00:00</time></trkpt><trkpt lat="35.0120918" lon="32.6728448"><ele>1152.0</ele><time>2015-04-27T12:18:26.0000000+00:00</time></trkpt><trkpt lat="35.0120248" lon="32.6728959"><ele>1151.9</ele><time>2015-04-27T12:18:27.0000000+00:00</time></trkpt><trkpt lat="35.0119419" lon="32.6729496"><ele>1151.4</ele><time>2015-04-27T12:18:28.0000000+00:00</time></trkpt><trkpt lat="35.0118977" lon="32.6730158"><ele>1150.7</ele><time>2015-04-27T12:18:29.0000000+00:00</time></trkpt><trkpt lat="35.0118477" lon="32.673085"><ele>1150.8</ele><time>2015-04-27T12:18:30.0000000+00:00</time></trkpt><trkpt lat="35.011795" lon="32.6731463"><ele>1151.4</ele><time>2015-04-27T12:18:31.0000000+00:00</time></trkpt><trkpt lat="35.0117323" lon="32.6731934"><ele>1151.6</ele><time>2015-04-27T12:18:32.0000000+00:00</time></trkpt><trkpt lat="35.0116649" lon="32.673245"><ele>1151.3</ele><time>2015-04-27T12:18:33.0000000+00:00</time></trkpt><trkpt lat="35.0116017" lon="32.6732913"><ele>1151.6</ele><time>2015-04-27T12:18:34.0000000+00:00</time></trkpt><trkpt lat="35.0115348" lon="32.6733263"><ele>1151.3</ele><time>2015-04-27T12:18:35.0000000+00:00</time></trkpt><trkpt lat="35.0114706" lon="32.6733712"><ele>1151.1</ele><time>2015-04-27T12:18:36.0000000+00:00</time></trkpt><trkpt lat="35.0114171" lon="32.673418"><ele>1151.0</ele><time>2015-04-27T12:18:37.0000000+00:00</time></trkpt><trkpt lat="35.01136" lon="32.673459"><ele>1151.0</ele><time>2015-04-27T12:18:38.0000000+00:00</time></trkpt><trkpt lat="35.0112951" lon="32.6734935"><ele>1150.5</ele><time>2015-04-27T12:18:39.0000000+00:00</time></trkpt><trkpt lat="35.0112344" lon="32.6735328"><ele>1150.7</ele><time>2015-04-27T12:18:40.0000000+00:00</time></trkpt><trkpt lat="35.0111753" lon="32.6735667"><ele>1150.8</ele><time>2015-04-27T12:18:41.0000000+00:00</time></trkpt><trkpt lat="35.0111157" lon="32.6735943"><ele>1150.4</ele><time>2015-04-27T12:18:42.0000000+00:00</time></trkpt><trkpt lat="35.0110528" lon="32.6736356"><ele>1150.2</ele><time>2015-04-27T12:18:43.0000000+00:00</time></trkpt><trkpt lat="35.0109965" lon="32.6736886"><ele>1150.5</ele><time>2015-04-27T12:18:44.0000000+00:00</time></trkpt><trkpt lat="35.0109621" lon="32.6737579"><ele>1150.2</ele><time>2015-04-27T12:18:45.0000000+00:00</time></trkpt><trkpt lat="35.010962" lon="32.6738453"><ele>1150.1</ele><time>2015-04-27T12:18:46.0000000+00:00</time></trkpt><trkpt lat="35.010978" lon="32.6739318"><ele>1150.0</ele><time>2015-04-27T12:18:47.0000000+00:00</time></trkpt><trkpt lat="35.0109912" lon="32.6740169"><ele>1150.0</ele><time>2015-04-27T12:18:48.0000000+00:00</time></trkpt><trkpt lat="35.0109882" lon="32.6741024"><ele>1149.9</ele><time>2015-04-27T12:18:49.0000000+00:00</time></trkpt><trkpt lat="35.0109611" lon="32.674177"><ele>1149.9</ele><time>2015-04-27T12:18:50.0000000+00:00</time></trkpt><trkpt lat="35.0109198" lon="32.6742444"><ele>1150.4</ele><time>2015-04-27T12:18:51.0000000+00:00</time></trkpt><trkpt lat="35.0108725" lon="32.6742998"><ele>1150.7</ele><time>2015-04-27T12:18:52.0000000+00:00</time></trkpt><trkpt lat="35.0108204" lon="32.6743437"><ele>1150.8</ele><time>2015-04-27T12:18:53.0000000+00:00</time></trkpt><trkpt lat="35.0107663" lon="32.674376"><ele>1150.9</ele><time>2015-04-27T12:18:54.0000000+00:00</time></trkpt><trkpt lat="35.0107092" lon="32.6744128"><ele>1150.9</ele><time>2015-04-27T12:18:55.0000000+00:00</time></trkpt><trkpt lat="35.0106492" lon="32.6744569"><ele>1150.4</ele><time>2015-04-27T12:18:56.0000000+00:00</time></trkpt><trkpt lat="35.0106054" lon="32.6745026"><ele>1150.2</ele><time>2015-04-27T12:18:57.0000000+00:00</time></trkpt><trkpt lat="35.01057" lon="32.6745499"><ele>1149.6</ele><time>2015-04-27T12:18:58.0000000+00:00</time></trkpt><trkpt lat="35.0105491" lon="32.6746352"><ele>1149.6</ele><time>2015-04-27T12:19:00.0000000+00:00</time></trkpt><trkpt lat="35.0105744" lon="32.6747142"><ele>1149.8</ele><time>2015-04-27T12:19:02.0000000+00:00</time></trkpt><trkpt lat="35.010608" lon="32.6747863"><ele>1149.4</ele><time>2015-04-27T12:19:04.0000000+00:00</time></trkpt><trkpt lat="35.0106696" lon="32.6748713"><ele>1148.3</ele><time>2015-04-27T12:19:06.0000000+00:00</time></trkpt><trkpt lat="35.0107126" lon="32.6749132"><ele>1148.1</ele><time>2015-04-27T12:19:07.0000000+00:00</time></trkpt><trkpt lat="35.0107672" lon="32.6749558"><ele>1148.0</ele><time>2015-04-27T12:19:08.0000000+00:00</time></trkpt><trkpt lat="35.0108184" lon="32.6749978"><ele>1147.5</ele><time>2015-04-27T12:19:09.0000000+00:00</time></trkpt><trkpt lat="35.0108741" lon="32.6750439"><ele>1146.7</ele><time>2015-04-27T12:19:10.0000000+00:00</time></trkpt><trkpt lat="35.0109364" lon="32.6750866"><ele>1146.3</ele><time>2015-04-27T12:19:11.0000000+00:00</time></trkpt><trkpt lat="35.0110054" lon="32.6751299"><ele>1146.1</ele><time>2015-04-27T12:19:12.0000000+00:00</time></trkpt><trkpt lat="35.0110603" lon="32.6751705"><ele>1145.5</ele><time>2015-04-27T12:19:13.0000000+00:00</time></trkpt><trkpt lat="35.0111159" lon="32.6752164"><ele>1145.2</ele><time>2015-04-27T12:19:14.0000000+00:00</time></trkpt><trkpt lat="35.0111717" lon="32.6752573"><ele>1145.1</ele><time>2015-04-27T12:19:15.0000000+00:00</time></trkpt><trkpt lat="35.0112288" lon="32.6752885"><ele>1145.5</ele><time>2015-04-27T12:19:16.0000000+00:00</time></trkpt><trkpt lat="35.0112872" lon="32.6753157"><ele>1145.7</ele><time>2015-04-27T12:19:17.0000000+00:00</time></trkpt><trkpt lat="35.0113396" lon="32.6753481"><ele>1145.8</ele><time>2015-04-27T12:19:18.0000000+00:00</time></trkpt><trkpt lat="35.0114012" lon="32.6753783"><ele>1145.9</ele><time>2015-04-27T12:19:19.0000000+00:00</time></trkpt><trkpt lat="35.0114599" lon="32.6754099"><ele>1145.9</ele><time>2015-04-27T12:19:20.0000000+00:00</time></trkpt><trkpt lat="35.0115163" lon="32.6754542"><ele>1146.4</ele><time>2015-04-27T12:19:21.0000000+00:00</time></trkpt><trkpt lat="35.0115525" lon="32.6755082"><ele>1146.2</ele><time>2015-04-27T12:19:22.0000000+00:00</time></trkpt><trkpt lat="35.01158" lon="32.6755818"><ele>1146.6</ele><time>2015-04-27T12:19:23.0000000+00:00</time></trkpt><trkpt lat="35.0115957" lon="32.6756536"><ele>1147.2</ele><time>2015-04-27T12:19:24.0000000+00:00</time></trkpt><trkpt lat="35.0115996" lon="32.6757412"><ele>1147.6</ele><time>2015-04-27T12:19:25.0000000+00:00</time></trkpt><trkpt lat="35.011603" lon="32.6758252"><ele>1147.8</ele><time>2015-04-27T12:19:26.0000000+00:00</time></trkpt><trkpt lat="35.0116103" lon="32.6759124"><ele>1147.8</ele><time>2015-04-27T12:19:27.0000000+00:00</time></trkpt><trkpt lat="35.0116159" lon="32.6760041"><ele>1147.9</ele><time>2015-04-27T12:19:28.0000000+00:00</time></trkpt><trkpt lat="35.0116176" lon="32.6760975"><ele>1147.9</ele><time>2015-04-27T12:19:29.0000000+00:00</time></trkpt><trkpt lat="35.0116108" lon="32.6761905"><ele>1147.9</ele><time>2015-04-27T12:19:30.0000000+00:00</time></trkpt><trkpt lat="35.0115983" lon="32.676274"><ele>1147.9</ele><time>2015-04-27T12:19:31.0000000+00:00</time></trkpt><trkpt lat="35.0115774" lon="32.6763613"><ele>1147.4</ele><time>2015-04-27T12:19:32.0000000+00:00</time></trkpt><trkpt lat="35.0115614" lon="32.6764425"><ele>1146.7</ele><time>2015-04-27T12:19:33.0000000+00:00</time></trkpt><trkpt lat="35.0115407" lon="32.6765264"><ele>1146.3</ele><time>2015-04-27T12:19:34.0000000+00:00</time></trkpt><trkpt lat="35.0115162" lon="32.6766065"><ele>1146.1</ele><time>2015-04-27T12:19:35.0000000+00:00</time></trkpt><trkpt lat="35.011492" lon="32.6766841"><ele>1146.0</ele><time>2015-04-27T12:19:36.0000000+00:00</time></trkpt><trkpt lat="35.0114591" lon="32.676757"><ele>1146.0</ele><time>2015-04-27T12:19:37.0000000+00:00</time></trkpt><trkpt lat="35.0114233" lon="32.676824"><ele>1146.0</ele><time>2015-04-27T12:19:38.0000000+00:00</time></trkpt><trkpt lat="35.0113856" lon="32.6768937"><ele>1145.9</ele><time>2015-04-27T12:19:39.0000000+00:00</time></trkpt><trkpt lat="35.0113514" lon="32.6769755"><ele>1145.9</ele><time>2015-04-27T12:19:40.0000000+00:00</time></trkpt><trkpt lat="35.0113343" lon="32.677054"><ele>1145.9</ele><time>2015-04-27T12:19:41.0000000+00:00</time></trkpt><trkpt lat="35.0113302" lon="32.6771386"><ele>1145.4</ele><time>2015-04-27T12:19:42.0000000+00:00</time></trkpt><trkpt lat="35.0113548" lon="32.6772154"><ele>1144.2</ele><time>2015-04-27T12:19:43.0000000+00:00</time></trkpt><trkpt lat="35.0113915" lon="32.6772822"><ele>1143.6</ele><time>2015-04-27T12:19:44.0000000+00:00</time></trkpt><trkpt lat="35.0114414" lon="32.6773418"><ele>1143.2</ele><time>2015-04-27T12:19:45.0000000+00:00</time></trkpt><trkpt lat="35.0114941" lon="32.6774011"><ele>1143.1</ele><time>2015-04-27T12:19:46.0000000+00:00</time></trkpt><trkpt lat="35.0115434" lon="32.6774576"><ele>1143.0</ele><time>2015-04-27T12:19:47.0000000+00:00</time></trkpt><trkpt lat="35.011593" lon="32.6775245"><ele>1143.0</ele><time>2015-04-27T12:19:48.0000000+00:00</time></trkpt><trkpt lat="35.0116313" lon="32.6776096"><ele>1143.4</ele><time>2015-04-27T12:19:49.0000000+00:00</time></trkpt><trkpt lat="35.0116499" lon="32.6776909"><ele>1143.7</ele><time>2015-04-27T12:19:50.0000000+00:00</time></trkpt><trkpt lat="35.011659" lon="32.6777754"><ele>1143.8</ele><time>2015-04-27T12:19:51.0000000+00:00</time></trkpt><trkpt lat="35.0116753" lon="32.6778558"><ele>1142.9</ele><time>2015-04-27T12:19:52.0000000+00:00</time></trkpt><trkpt lat="35.0117132" lon="32.6779267"><ele>1142.9</ele><time>2015-04-27T12:19:53.0000000+00:00</time></trkpt><trkpt lat="35.0117532" lon="32.6779836"><ele>1142.9</ele><time>2015-04-27T12:19:54.0000000+00:00</time></trkpt><trkpt lat="35.0118035" lon="32.6780299"><ele>1142.9</ele><time>2015-04-27T12:19:55.0000000+00:00</time></trkpt><trkpt lat="35.0118523" lon="32.6780678"><ele>1143.4</ele><time>2015-04-27T12:19:56.0000000+00:00</time></trkpt><trkpt lat="35.0119109" lon="32.678107"><ele>1143.2</ele><time>2015-04-27T12:19:57.0000000+00:00</time></trkpt><trkpt lat="35.0119712" lon="32.6781486"><ele>1143.6</ele><time>2015-04-27T12:19:58.0000000+00:00</time></trkpt><trkpt lat="35.0120194" lon="32.6782071"><ele>1144.2</ele><time>2015-04-27T12:19:59.0000000+00:00</time></trkpt><trkpt lat="35.0120599" lon="32.6782684"><ele>1144.6</ele><time>2015-04-27T12:20:00.0000000+00:00</time></trkpt><trkpt lat="35.0120961" lon="32.6783468"><ele>1144.8</ele><time>2015-04-27T12:20:01.0000000+00:00</time></trkpt><trkpt lat="35.0121136" lon="32.678431"><ele>1145.3</ele><time>2015-04-27T12:20:02.0000000+00:00</time></trkpt><trkpt lat="35.0121193" lon="32.6785244"><ele>1145.1</ele><time>2015-04-27T12:20:03.0000000+00:00</time></trkpt><trkpt lat="35.0121137" lon="32.6786119"><ele>1145.0</ele><time>2015-04-27T12:20:04.0000000+00:00</time></trkpt><trkpt lat="35.0120999" lon="32.6786977"><ele>1145.0</ele><time>2015-04-27T12:20:05.0000000+00:00</time></trkpt><trkpt lat="35.012091" lon="32.6787768"><ele>1144.5</ele><time>2015-04-27T12:20:06.0000000+00:00</time></trkpt><trkpt lat="35.0120869" lon="32.6788543"><ele>1143.7</ele><time>2015-04-27T12:20:07.0000000+00:00</time></trkpt><trkpt lat="35.012102" lon="32.6789278"><ele>1143.8</ele><time>2015-04-27T12:20:08.0000000+00:00</time></trkpt><trkpt lat="35.012123" lon="32.6790043"><ele>1143.9</ele><time>2015-04-27T12:20:09.0000000+00:00</time></trkpt><trkpt lat="35.012155" lon="32.6790663"><ele>1143.9</ele><time>2015-04-27T12:20:10.0000000+00:00</time></trkpt><trkpt lat="35.0121932" lon="32.679121"><ele>1143.9</ele><time>2015-04-27T12:20:11.0000000+00:00</time></trkpt><trkpt lat="35.0122382" lon="32.6791733"><ele>1143.4</ele><time>2015-04-27T12:20:12.0000000+00:00</time></trkpt><trkpt lat="35.0122893" lon="32.6792146"><ele>1143.7</ele><time>2015-04-27T12:20:13.0000000+00:00</time></trkpt><trkpt lat="35.0123285" lon="32.6792612"><ele>1144.3</ele><time>2015-04-27T12:20:14.0000000+00:00</time></trkpt><trkpt lat="35.0123739" lon="32.6793111"><ele>1145.1</ele><time>2015-04-27T12:20:15.0000000+00:00</time></trkpt><trkpt lat="35.0124098" lon="32.679357"><ele>1145.5</ele><time>2015-04-27T12:20:16.0000000+00:00</time></trkpt><trkpt lat="35.012442" lon="32.6793964"><ele>1145.2</ele><time>2015-04-27T12:20:17.0000000+00:00</time></trkpt><trkpt lat="35.0124743" lon="32.6794422"><ele>1145.6</ele><time>2015-04-27T12:20:18.0000000+00:00</time></trkpt><trkpt lat="35.0125386" lon="32.6795056"><ele>1145.8</ele><time>2015-04-27T12:20:20.0000000+00:00</time></trkpt><trkpt lat="35.0125801" lon="32.6795426"><ele>1146.4</ele><time>2015-04-27T12:20:22.0000000+00:00</time></trkpt><trkpt lat="35.0126122" lon="32.6795899"><ele>1146.1</ele><time>2015-04-27T12:21:20.0000000+00:00</time></trkpt><trkpt lat="35.0126075" lon="32.6796454"><ele>1149.0</ele><time>2015-04-27T12:22:15.0000000+00:00</time></trkpt><trkpt lat="35.01256" lon="32.6796695"><ele>1146.4</ele><time>2015-04-27T12:22:46.0000000+00:00</time></trkpt><trkpt lat="35.0125166" lon="32.6796965"><ele>1146.9</ele><time>2015-04-27T12:22:49.0000000+00:00</time></trkpt><trkpt lat="35.0124681" lon="32.6797416"><ele>1148.4</ele><time>2015-04-27T12:22:52.0000000+00:00</time></trkpt><trkpt lat="35.0124288" lon="32.6797789"><ele>1149.1</ele><time>2015-04-27T12:22:54.0000000+00:00</time></trkpt><trkpt lat="35.0123913" lon="32.6798164"><ele>1149.0</ele><time>2015-04-27T12:22:56.0000000+00:00</time></trkpt><trkpt lat="35.0123468" lon="32.6798591"><ele>1149.7</ele><time>2015-04-27T12:22:58.0000000+00:00</time></trkpt><trkpt lat="35.01229" lon="32.6799245"><ele>1150.6</ele><time>2015-04-27T12:23:00.0000000+00:00</time></trkpt><trkpt lat="35.0122334" lon="32.6800035"><ele>1151.1</ele><time>2015-04-27T12:23:02.0000000+00:00</time></trkpt><trkpt lat="35.0121932" lon="32.6801012"><ele>1151.7</ele><time>2015-04-27T12:23:04.0000000+00:00</time></trkpt><trkpt lat="35.0121784" lon="32.6801535"><ele>1151.3</ele><time>2015-04-27T12:23:05.0000000+00:00</time></trkpt><trkpt lat="35.0121576" lon="32.6802564"><ele>1150.8</ele><time>2015-04-27T12:23:07.0000000+00:00</time></trkpt><trkpt lat="35.0121459" lon="32.6803517"><ele>1150.1</ele><time>2015-04-27T12:23:09.0000000+00:00</time></trkpt><trkpt lat="35.0121378" lon="32.6804402"><ele>1148.7</ele><time>2015-04-27T12:23:11.0000000+00:00</time></trkpt><trkpt lat="35.0121382" lon="32.6805259"><ele>1148.6</ele><time>2015-04-27T12:23:13.0000000+00:00</time></trkpt><trkpt lat="35.012141" lon="32.6806108"><ele>1148.1</ele><time>2015-04-27T12:23:15.0000000+00:00</time></trkpt><trkpt lat="35.0121376" lon="32.6806982"><ele>1147.5</ele><time>2015-04-27T12:23:17.0000000+00:00</time></trkpt><trkpt lat="35.0121305" lon="32.6807871"><ele>1147.3</ele><time>2015-04-27T12:23:19.0000000+00:00</time></trkpt><trkpt lat="35.012117" lon="32.6808786"><ele>1147.0</ele><time>2015-04-27T12:23:21.0000000+00:00</time></trkpt><trkpt lat="35.0120849" lon="32.6809658"><ele>1147.0</ele><time>2015-04-27T12:23:23.0000000+00:00</time></trkpt><trkpt lat="35.0120331" lon="32.6810374"><ele>1146.9</ele><time>2015-04-27T12:23:25.0000000+00:00</time></trkpt><trkpt lat="35.0119666" lon="32.6810842"><ele>1146.9</ele><time>2015-04-27T12:23:27.0000000+00:00</time></trkpt><trkpt lat="35.0118913" lon="32.6811126"><ele>1146.2</ele><time>2015-04-27T12:23:29.0000000+00:00</time></trkpt><trkpt lat="35.0118158" lon="32.6811378"><ele>1146.0</ele><time>2015-04-27T12:23:31.0000000+00:00</time></trkpt><trkpt lat="35.0117426" lon="32.6811637"><ele>1146.2</ele><time>2015-04-27T12:23:33.0000000+00:00</time></trkpt><trkpt lat="35.0116708" lon="32.681196"><ele>1144.5</ele><time>2015-04-27T12:23:35.0000000+00:00</time></trkpt><trkpt lat="35.0115991" lon="32.6812301"><ele>1144.1</ele><time>2015-04-27T12:23:37.0000000+00:00</time></trkpt><trkpt lat="35.0115266" lon="32.68127"><ele>1143.2</ele><time>2015-04-27T12:23:39.0000000+00:00</time></trkpt><trkpt lat="35.0114576" lon="32.6813088"><ele>1142.5</ele><time>2015-04-27T12:23:41.0000000+00:00</time></trkpt><trkpt lat="35.0113978" lon="32.6813421"><ele>1141.6</ele><time>2015-04-27T12:23:43.0000000+00:00</time></trkpt><trkpt lat="35.0113323" lon="32.6813861"><ele>1140.6</ele><time>2015-04-27T12:23:45.0000000+00:00</time></trkpt><trkpt lat="35.0112791" lon="32.6814316"><ele>1139.8</ele><time>2015-04-27T12:23:47.0000000+00:00</time></trkpt><trkpt lat="35.0112413" lon="32.6814933"><ele>1141.4</ele><time>2015-04-27T12:23:49.0000000+00:00</time></trkpt><trkpt lat="35.0112128" lon="32.6815711"><ele>1141.8</ele><time>2015-04-27T12:23:51.0000000+00:00</time></trkpt><trkpt lat="35.0111775" lon="32.6816703"><ele>1141.6</ele><time>2015-04-27T12:23:53.0000000+00:00</time></trkpt><trkpt lat="35.0111578" lon="32.6817287"><ele>1141.3</ele><time>2015-04-27T12:23:54.0000000+00:00</time></trkpt><trkpt lat="35.0111105" lon="32.6818206"><ele>1141.8</ele><time>2015-04-27T12:23:56.0000000+00:00</time></trkpt><trkpt lat="35.0110827" lon="32.6818684"><ele>1141.8</ele><time>2015-04-27T12:23:57.0000000+00:00</time></trkpt><trkpt lat="35.0110261" lon="32.6819592"><ele>1143.2</ele><time>2015-04-27T12:23:59.0000000+00:00</time></trkpt><trkpt lat="35.0109964" lon="32.6820019"><ele>1143.5</ele><time>2015-04-27T12:24:00.0000000+00:00</time></trkpt><trkpt lat="35.0109669" lon="32.6820467"><ele>1143.7</ele><time>2015-04-27T12:24:01.0000000+00:00</time></trkpt><trkpt lat="35.0109364" lon="32.6820894"><ele>1143.3</ele><time>2015-04-27T12:24:02.0000000+00:00</time></trkpt><trkpt lat="35.0109112" lon="32.682138"><ele>1143.1</ele><time>2015-04-27T12:24:03.0000000+00:00</time></trkpt><trkpt lat="35.0108889" lon="32.682189"><ele>1143.5</ele><time>2015-04-27T12:24:04.0000000+00:00</time></trkpt><trkpt lat="35.0108695" lon="32.6822397"><ele>1143.7</ele><time>2015-04-27T12:24:05.0000000+00:00</time></trkpt><trkpt lat="35.0108491" lon="32.6822963"><ele>1143.8</ele><time>2015-04-27T12:24:06.0000000+00:00</time></trkpt><trkpt lat="35.0108268" lon="32.6823477"><ele>1143.9</ele><time>2015-04-27T12:24:07.0000000+00:00</time></trkpt><trkpt lat="35.0108039" lon="32.6824036"><ele>1143.4</ele><time>2015-04-27T12:24:08.0000000+00:00</time></trkpt><trkpt lat="35.0107857" lon="32.6824548"><ele>1143.2</ele><time>2015-04-27T12:24:09.0000000+00:00</time></trkpt><trkpt lat="35.0107667" lon="32.6825107"><ele>1142.5</ele><time>2015-04-27T12:24:10.0000000+00:00</time></trkpt><trkpt lat="35.0107484" lon="32.6825665"><ele>1142.2</ele><time>2015-04-27T12:24:11.0000000+00:00</time></trkpt><trkpt lat="35.0107218" lon="32.6826171"><ele>1142.6</ele><time>2015-04-27T12:24:12.0000000+00:00</time></trkpt><trkpt lat="35.0106833" lon="32.6826668"><ele>1142.3</ele><time>2015-04-27T12:24:13.0000000+00:00</time></trkpt><trkpt lat="35.0106424" lon="32.6827179"><ele>1142.6</ele><time>2015-04-27T12:24:14.0000000+00:00</time></trkpt><trkpt lat="35.0105877" lon="32.6827695"><ele>1142.8</ele><time>2015-04-27T12:24:15.0000000+00:00</time></trkpt><trkpt lat="35.0105418" lon="32.6828187"><ele>1142.8</ele><time>2015-04-27T12:24:16.0000000+00:00</time></trkpt><trkpt lat="35.0104962" lon="32.6828616"><ele>1142.4</ele><time>2015-04-27T12:24:17.0000000+00:00</time></trkpt><trkpt lat="35.0104622" lon="32.6829032"><ele>1142.7</ele><time>2015-04-27T12:24:18.0000000+00:00</time></trkpt><trkpt lat="35.010424" lon="32.6829428"><ele>1143.3</ele><time>2015-04-27T12:24:19.0000000+00:00</time></trkpt><trkpt lat="35.0103775" lon="32.6829723"><ele>1143.1</ele><time>2015-04-27T12:24:20.0000000+00:00</time></trkpt><trkpt lat="35.0103372" lon="32.6830045"><ele>1143.5</ele><time>2015-04-27T12:24:21.0000000+00:00</time></trkpt><trkpt lat="35.0102591" lon="32.6830637"><ele>1144.6</ele><time>2015-04-27T12:24:23.0000000+00:00</time></trkpt><trkpt lat="35.0102183" lon="32.6830901"><ele>1144.3</ele><time>2015-04-27T12:24:24.0000000+00:00</time></trkpt><trkpt lat="35.0101451" lon="32.6831284"><ele>1144.8</ele><time>2015-04-27T12:24:26.0000000+00:00</time></trkpt><trkpt lat="35.0100603" lon="32.6831292"><ele>1144.1</ele><time>2015-04-27T12:24:28.0000000+00:00</time></trkpt><trkpt lat="35.0100122" lon="32.6831228"><ele>1144.5</ele><time>2015-04-27T12:24:29.0000000+00:00</time></trkpt><trkpt lat="35.0099683" lon="32.6831052"><ele>1144.7</ele><time>2015-04-27T12:24:30.0000000+00:00</time></trkpt><trkpt lat="35.0099138" lon="32.6830868"><ele>1144.3</ele><time>2015-04-27T12:24:31.0000000+00:00</time></trkpt><trkpt lat="35.0098564" lon="32.6830779"><ele>1144.1</ele><time>2015-04-27T12:24:32.0000000+00:00</time></trkpt><trkpt lat="35.0097958" lon="32.6830719"><ele>1144.5</ele><time>2015-04-27T12:24:33.0000000+00:00</time></trkpt><trkpt lat="35.009734" lon="32.6830732"><ele>1145.2</ele><time>2015-04-27T12:24:34.0000000+00:00</time></trkpt><trkpt lat="35.0096779" lon="32.6830708"><ele>1146.1</ele><time>2015-04-27T12:24:35.0000000+00:00</time></trkpt><trkpt lat="35.0096294" lon="32.6830582"><ele>1147.0</ele><time>2015-04-27T12:24:36.0000000+00:00</time></trkpt><trkpt lat="35.0095832" lon="32.6830538"><ele>1147.5</ele><time>2015-04-27T12:24:37.0000000+00:00</time></trkpt><trkpt lat="35.0094961" lon="32.683053"><ele>1147.8</ele><time>2015-04-27T12:24:39.0000000+00:00</time></trkpt><trkpt lat="35.0094239" lon="32.6830818"><ele>1147.9</ele><time>2015-04-27T12:24:41.0000000+00:00</time></trkpt><trkpt lat="35.0093396" lon="32.6830534"><ele>1148.7</ele><time>2015-04-27T12:24:43.0000000+00:00</time></trkpt><trkpt lat="35.0092571" lon="32.6830265"><ele>1148.6</ele><time>2015-04-27T12:24:45.0000000+00:00</time></trkpt><trkpt lat="35.0091755" lon="32.6830123"><ele>1149.4</ele><time>2015-04-27T12:24:47.0000000+00:00</time></trkpt><trkpt lat="35.0090886" lon="32.6830421"><ele>1150.3</ele><time>2015-04-27T12:24:49.0000000+00:00</time></trkpt><trkpt lat="35.0090105" lon="32.6830927"><ele>1150.8</ele><time>2015-04-27T12:24:51.0000000+00:00</time></trkpt><trkpt lat="35.0089396" lon="32.683123"><ele>1151.4</ele><time>2015-04-27T12:24:53.0000000+00:00</time></trkpt><trkpt lat="35.0088679" lon="32.6831535"><ele>1152.3</ele><time>2015-04-27T12:24:55.0000000+00:00</time></trkpt><trkpt lat="35.0088143" lon="32.6831367"><ele>1152.8</ele><time>2015-04-27T12:24:57.0000000+00:00</time></trkpt><trkpt lat="35.008761" lon="32.6831154"><ele>1154.1</ele><time>2015-04-27T12:24:59.0000000+00:00</time></trkpt><trkpt lat="35.0087151" lon="32.6830654"><ele>1155.5</ele><time>2015-04-27T12:25:01.0000000+00:00</time></trkpt><trkpt lat="35.008671" lon="32.6830084"><ele>1157.1</ele><time>2015-04-27T12:25:03.0000000+00:00</time></trkpt><trkpt lat="35.0086246" lon="32.6829508"><ele>1157.7</ele><time>2015-04-27T12:25:05.0000000+00:00</time></trkpt><trkpt lat="35.0085723" lon="32.6828986"><ele>1157.9</ele><time>2015-04-27T12:25:07.0000000+00:00</time></trkpt><trkpt lat="35.0085259" lon="32.6828534"><ele>1157.9</ele><time>2015-04-27T12:25:09.0000000+00:00</time></trkpt><trkpt lat="35.0084892" lon="32.6828214"><ele>1160.1</ele><time>2015-04-27T12:25:12.0000000+00:00</time></trkpt><trkpt lat="35.0084542" lon="32.6827578"><ele>1160.7</ele><time>2015-04-27T12:25:15.0000000+00:00</time></trkpt><trkpt lat="35.0084321" lon="32.6826562"><ele>1160.9</ele><time>2015-04-27T12:25:17.0000000+00:00</time></trkpt><trkpt lat="35.0084307" lon="32.682601"><ele>1160.9</ele><time>2015-04-27T12:25:18.0000000+00:00</time></trkpt><trkpt lat="35.0084406" lon="32.6825042"><ele>1161.4</ele><time>2015-04-27T12:25:20.0000000+00:00</time></trkpt><trkpt lat="35.008451" lon="32.6824259"><ele>1162.3</ele><time>2015-04-27T12:25:22.0000000+00:00</time></trkpt><trkpt lat="35.0084637" lon="32.6823497"><ele>1162.3</ele><time>2015-04-27T12:25:24.0000000+00:00</time></trkpt><trkpt lat="35.0084684" lon="32.6822688"><ele>1162.3</ele><time>2015-04-27T12:25:26.0000000+00:00</time></trkpt><trkpt lat="35.008469" lon="32.6821812"><ele>1161.5</ele><time>2015-04-27T12:25:28.0000000+00:00</time></trkpt><trkpt lat="35.0084697" lon="32.6820895"><ele>1161.1</ele><time>2015-04-27T12:25:30.0000000+00:00</time></trkpt><trkpt lat="35.008475" lon="32.6819908"><ele>1160.2</ele><time>2015-04-27T12:25:32.0000000+00:00</time></trkpt><trkpt lat="35.0084746" lon="32.681901"><ele>1160.8</ele><time>2015-04-27T12:25:34.0000000+00:00</time></trkpt><trkpt lat="35.0084588" lon="32.6818252"><ele>1161.4</ele><time>2015-04-27T12:25:36.0000000+00:00</time></trkpt><trkpt lat="35.0084315" lon="32.681757"><ele>1160.8</ele><time>2015-04-27T12:25:38.0000000+00:00</time></trkpt><trkpt lat="35.0084082" lon="32.6817058"><ele>1160.9</ele><time>2015-04-27T12:25:40.0000000+00:00</time></trkpt><trkpt lat="35.0083597" lon="32.681656"><ele>1161.8</ele><time>2015-04-27T12:25:43.0000000+00:00</time></trkpt><trkpt lat="35.0083206" lon="32.6816162"><ele>1161.9</ele><time>2015-04-27T12:25:45.0000000+00:00</time></trkpt><trkpt lat="35.0082595" lon="32.6815672"><ele>1161.9</ele><time>2015-04-27T12:25:47.0000000+00:00</time></trkpt><trkpt lat="35.0082059" lon="32.6815298"><ele>1162.4</ele><time>2015-04-27T12:25:49.0000000+00:00</time></trkpt><trkpt lat="35.0081619" lon="32.6815104"><ele>1164.7</ele><time>2015-04-27T12:25:52.0000000+00:00</time></trkpt><trkpt lat="35.0081088" lon="32.6814841"><ele>1166.7</ele><time>2015-04-27T12:25:56.0000000+00:00</time></trkpt><trkpt lat="35.0080578" lon="32.6814581"><ele>1166.9</ele><time>2015-04-27T12:25:58.0000000+00:00</time></trkpt><trkpt lat="35.0080043" lon="32.6814256"><ele>1167.2</ele><time>2015-04-27T12:26:00.0000000+00:00</time></trkpt><trkpt lat="35.0079574" lon="32.6813916"><ele>1167.5</ele><time>2015-04-27T12:26:02.0000000+00:00</time></trkpt><trkpt lat="35.0079131" lon="32.6813512"><ele>1168.8</ele><time>2015-04-27T12:26:06.0000000+00:00</time></trkpt><trkpt lat="35.0078656" lon="32.6812894"><ele>1168.4</ele><time>2015-04-27T12:26:09.0000000+00:00</time></trkpt><trkpt lat="35.0078125" lon="32.6812284"><ele>1167.3</ele><time>2015-04-27T12:26:11.0000000+00:00</time></trkpt><trkpt lat="35.0077612" lon="32.6811862"><ele>1167.8</ele><time>2015-04-27T12:26:13.0000000+00:00</time></trkpt><trkpt lat="35.0077195" lon="32.6811385"><ele>1168.3</ele><time>2015-04-27T12:26:16.0000000+00:00</time></trkpt><trkpt lat="35.0076614" lon="32.6810998"><ele>1170.1</ele><time>2015-04-27T12:26:19.0000000+00:00</time></trkpt><trkpt lat="35.0075952" lon="32.6810932"><ele>1170.2</ele><time>2015-04-27T12:26:21.0000000+00:00</time></trkpt><trkpt lat="35.007533" lon="32.6811191"><ele>1168.5</ele><time>2015-04-27T12:26:23.0000000+00:00</time></trkpt><trkpt lat="35.0074821" lon="32.6811676"><ele>1168.8</ele><time>2015-04-27T12:26:25.0000000+00:00</time></trkpt><trkpt lat="35.007447" lon="32.6812142"><ele>1170.2</ele><time>2015-04-27T12:26:27.0000000+00:00</time></trkpt><trkpt lat="35.0074003" lon="32.6812696"><ele>1170.1</ele><time>2015-04-27T12:26:30.0000000+00:00</time></trkpt><trkpt lat="35.0073602" lon="32.6813024"><ele>1170.7</ele><time>2015-04-27T12:26:32.0000000+00:00</time></trkpt><trkpt lat="35.0072894" lon="32.6813045"><ele>1170.1</ele><time>2015-04-27T12:26:34.0000000+00:00</time></trkpt><trkpt lat="35.0072198" lon="32.6812645"><ele>1170.0</ele><time>2015-04-27T12:26:36.0000000+00:00</time></trkpt><trkpt lat="35.0071555" lon="32.6812062"><ele>1170.4</ele><time>2015-04-27T12:26:38.0000000+00:00</time></trkpt><trkpt lat="35.0071034" lon="32.6811339"><ele>1170.8</ele><time>2015-04-27T12:26:40.0000000+00:00</time></trkpt><trkpt lat="35.0070639" lon="32.6810629"><ele>1170.9</ele><time>2015-04-27T12:26:42.0000000+00:00</time></trkpt><trkpt lat="35.0070304" lon="32.6810028"><ele>1170.9</ele><time>2015-04-27T12:26:45.0000000+00:00</time></trkpt><trkpt lat="35.0069911" lon="32.6809394"><ele>1170.8</ele><time>2015-04-27T12:26:48.0000000+00:00</time></trkpt><trkpt lat="35.0069697" lon="32.6808901"><ele>1171.1</ele><time>2015-04-27T12:26:50.0000000+00:00</time></trkpt><trkpt lat="35.0069476" lon="32.680831"><ele>1171.7</ele><time>2015-04-27T12:26:52.0000000+00:00</time></trkpt><trkpt lat="35.0069162" lon="32.6807651"><ele>1171.9</ele><time>2015-04-27T12:26:54.0000000+00:00</time></trkpt><trkpt lat="35.0068774" lon="32.6806992"><ele>1171.9</ele><time>2015-04-27T12:26:56.0000000+00:00</time></trkpt><trkpt lat="35.0068373" lon="32.6806184"><ele>1171.9</ele><time>2015-04-27T12:26:58.0000000+00:00</time></trkpt><trkpt lat="35.0068025" lon="32.6805392"><ele>1172.4</ele><time>2015-04-27T12:27:00.0000000+00:00</time></trkpt><trkpt lat="35.0067691" lon="32.6804701"><ele>1172.8</ele><time>2015-04-27T12:27:02.0000000+00:00</time></trkpt><trkpt lat="35.0067464" lon="32.680414"><ele>1172.9</ele><time>2015-04-27T12:27:04.0000000+00:00</time></trkpt><trkpt lat="35.006727" lon="32.6803527"><ele>1172.4</ele><time>2015-04-27T12:27:06.0000000+00:00</time></trkpt><trkpt lat="35.0067069" lon="32.6802912"><ele>1172.8</ele><time>2015-04-27T12:27:08.0000000+00:00</time></trkpt><trkpt lat="35.0066869" lon="32.6802357"><ele>1173.6</ele><time>2015-04-27T12:27:10.0000000+00:00</time></trkpt><trkpt lat="35.0066537" lon="32.6801824"><ele>1172.9</ele><time>2015-04-27T12:27:12.0000000+00:00</time></trkpt><trkpt lat="35.0066154" lon="32.6801338"><ele>1172.4</ele><time>2015-04-27T12:27:14.0000000+00:00</time></trkpt><trkpt lat="35.0065766" lon="32.6800915"><ele>1172.3</ele><time>2015-04-27T12:27:16.0000000+00:00</time></trkpt><trkpt lat="35.0065201" lon="32.680065"><ele>1173.4</ele><time>2015-04-27T12:27:19.0000000+00:00</time></trkpt><trkpt lat="35.0064686" lon="32.6800684"><ele>1173.7</ele><time>2015-04-27T12:27:22.0000000+00:00</time></trkpt><trkpt lat="35.0064053" lon="32.6801001"><ele>1173.2</ele><time>2015-04-27T12:27:25.0000000+00:00</time></trkpt><trkpt lat="35.0063536" lon="32.6801502"><ele>1172.7</ele><time>2015-04-27T12:27:27.0000000+00:00</time></trkpt><trkpt lat="35.0063084" lon="32.6802105"><ele>1173.6</ele><time>2015-04-27T12:27:29.0000000+00:00</time></trkpt><trkpt lat="35.0062612" lon="32.6802856"><ele>1173.9</ele><time>2015-04-27T12:27:31.0000000+00:00</time></trkpt><trkpt lat="35.0062246" lon="32.6803696"><ele>1176.4</ele><time>2015-04-27T12:27:33.0000000+00:00</time></trkpt><trkpt lat="35.0061975" lon="32.680463"><ele>1179.3</ele><time>2015-04-27T12:27:35.0000000+00:00</time></trkpt><trkpt lat="35.0061662" lon="32.6805591"><ele>1180.0</ele><time>2015-04-27T12:27:37.0000000+00:00</time></trkpt><trkpt lat="35.0061321" lon="32.6806611"><ele>1178.7</ele><time>2015-04-27T12:27:39.0000000+00:00</time></trkpt><trkpt lat="35.0061103" lon="32.6807182"><ele>1177.8</ele><time>2015-04-27T12:27:40.0000000+00:00</time></trkpt><trkpt lat="35.0060873" lon="32.6807702"><ele>1176.9</ele><time>2015-04-27T12:27:41.0000000+00:00</time></trkpt><trkpt lat="35.0060579" lon="32.6808193"><ele>1176.4</ele><time>2015-04-27T12:27:42.0000000+00:00</time></trkpt><trkpt lat="35.0060288" lon="32.6808654"><ele>1176.2</ele><time>2015-04-27T12:27:43.0000000+00:00</time></trkpt><trkpt lat="35.0060152" lon="32.6809543"><ele>1178.2</ele><time>2015-04-27T12:27:45.0000000+00:00</time></trkpt><trkpt lat="35.00595" lon="32.6809991"><ele>1176.6</ele><time>2015-04-27T12:27:46.0000000+00:00</time></trkpt><trkpt lat="35.0058792" lon="32.6810562"><ele>1173.8</ele><time>2015-04-27T12:27:48.0000000+00:00</time></trkpt><trkpt lat="35.0057956" lon="32.6811058"><ele>1171.9</ele><time>2015-04-27T12:27:50.0000000+00:00</time></trkpt><trkpt lat="35.0057438" lon="32.6811315"><ele>1170.9</ele><time>2015-04-27T12:27:51.0000000+00:00</time></trkpt><trkpt lat="35.0057061" lon="32.681175"><ele>1170.4</ele><time>2015-04-27T12:27:52.0000000+00:00</time></trkpt><trkpt lat="35.0056421" lon="32.6812639"><ele>1169.6</ele><time>2015-04-27T12:27:54.0000000+00:00</time></trkpt><trkpt lat="35.005602" lon="32.6813406"><ele>1169.8</ele><time>2015-04-27T12:27:56.0000000+00:00</time></trkpt><trkpt lat="35.0055772" lon="32.681387"><ele>1169.4</ele><time>2015-04-27T12:27:57.0000000+00:00</time></trkpt><trkpt lat="35.0055806" lon="32.681446"><ele>1169.2</ele><time>2015-04-27T12:27:58.0000000+00:00</time></trkpt><trkpt lat="35.0055778" lon="32.681503"><ele>1170.0</ele><time>2015-04-27T12:27:59.0000000+00:00</time></trkpt><trkpt lat="35.0055554" lon="32.6816116"><ele>1170.2</ele><time>2015-04-27T12:28:01.0000000+00:00</time></trkpt><trkpt lat="35.0055164" lon="32.6817233"><ele>1168.7</ele><time>2015-04-27T12:28:03.0000000+00:00</time></trkpt><trkpt lat="35.0054956" lon="32.6817834"><ele>1168.3</ele><time>2015-04-27T12:28:04.0000000+00:00</time></trkpt><trkpt lat="35.005473" lon="32.6818532"><ele>1167.6</ele><time>2015-04-27T12:28:05.0000000+00:00</time></trkpt><trkpt lat="35.0054507" lon="32.6819219"><ele>1167.3</ele><time>2015-04-27T12:28:06.0000000+00:00</time></trkpt><trkpt lat="35.0054189" lon="32.6819823"><ele>1166.6</ele><time>2015-04-27T12:28:07.0000000+00:00</time></trkpt><trkpt lat="35.0053882" lon="32.682049"><ele>1165.8</ele><time>2015-04-27T12:28:08.0000000+00:00</time></trkpt><trkpt lat="35.0053529" lon="32.6821032"><ele>1164.8</ele><time>2015-04-27T12:28:09.0000000+00:00</time></trkpt><trkpt lat="35.0053207" lon="32.6821597"><ele>1164.9</ele><time>2015-04-27T12:28:10.0000000+00:00</time></trkpt><trkpt lat="35.0052791" lon="32.6822082"><ele>1164.9</ele><time>2015-04-27T12:28:11.0000000+00:00</time></trkpt><trkpt lat="35.0052321" lon="32.6822542"><ele>1164.4</ele><time>2015-04-27T12:28:12.0000000+00:00</time></trkpt><trkpt lat="35.0051798" lon="32.6823002"><ele>1163.2</ele><time>2015-04-27T12:28:13.0000000+00:00</time></trkpt><trkpt lat="35.0051407" lon="32.6823419"><ele>1162.6</ele><time>2015-04-27T12:28:14.0000000+00:00</time></trkpt><trkpt lat="35.0050978" lon="32.6823789"><ele>1162.2</ele><time>2015-04-27T12:28:15.0000000+00:00</time></trkpt><trkpt lat="35.0050688" lon="32.6824365"><ele>1163.1</ele><time>2015-04-27T12:28:16.0000000+00:00</time></trkpt><trkpt lat="35.0050213" lon="32.6824511"><ele>1163.5</ele><time>2015-04-27T12:28:17.0000000+00:00</time></trkpt><trkpt lat="35.0049714" lon="32.6824391"><ele>1163.7</ele><time>2015-04-27T12:28:18.0000000+00:00</time></trkpt><trkpt lat="35.0049152" lon="32.6824343"><ele>1164.3</ele><time>2015-04-27T12:28:19.0000000+00:00</time></trkpt><trkpt lat="35.0048613" lon="32.682426"><ele>1163.6</ele><time>2015-04-27T12:28:20.0000000+00:00</time></trkpt><trkpt lat="35.004812" lon="32.682424"><ele>1162.3</ele><time>2015-04-27T12:28:21.0000000+00:00</time></trkpt><trkpt lat="35.0047607" lon="32.6824276"><ele>1161.1</ele><time>2015-04-27T12:28:22.0000000+00:00</time></trkpt><trkpt lat="35.0047213" lon="32.6824559"><ele>1161.0</ele><time>2015-04-27T12:28:23.0000000+00:00</time></trkpt><trkpt lat="35.0046778" lon="32.6824805"><ele>1161.0</ele><time>2015-04-27T12:28:24.0000000+00:00</time></trkpt><trkpt lat="35.0046324" lon="32.682511"><ele>1160.5</ele><time>2015-04-27T12:28:25.0000000+00:00</time></trkpt><trkpt lat="35.0045817" lon="32.6825374"><ele>1159.2</ele><time>2015-04-27T12:28:26.0000000+00:00</time></trkpt><trkpt lat="35.0045315" lon="32.6825694"><ele>1159.1</ele><time>2015-04-27T12:28:27.0000000+00:00</time></trkpt><trkpt lat="35.0044837" lon="32.6825922"><ele>1160.0</ele><time>2015-04-27T12:28:28.0000000+00:00</time></trkpt><trkpt lat="35.0044386" lon="32.6825983"><ele>1160.5</ele><time>2015-04-27T12:28:29.0000000+00:00</time></trkpt><trkpt lat="35.0043904" lon="32.6825939"><ele>1161.7</ele><time>2015-04-27T12:28:30.0000000+00:00</time></trkpt><trkpt lat="35.0043444" lon="32.6825834"><ele>1162.8</ele><time>2015-04-27T12:28:31.0000000+00:00</time></trkpt><trkpt lat="35.004306" lon="32.6825529"><ele>1162.9</ele><time>2015-04-27T12:28:32.0000000+00:00</time></trkpt><trkpt lat="35.0042681" lon="32.6825219"><ele>1162.9</ele><time>2015-04-27T12:28:33.0000000+00:00</time></trkpt><trkpt lat="35.0042102" lon="32.6824578"><ele>1163.7</ele><time>2015-04-27T12:28:35.0000000+00:00</time></trkpt><trkpt lat="35.0041577" lon="32.6823898"><ele>1164.4</ele><time>2015-04-27T12:28:37.0000000+00:00</time></trkpt><trkpt lat="35.0041165" lon="32.6822997"><ele>1164.3</ele><time>2015-04-27T12:28:39.0000000+00:00</time></trkpt><trkpt lat="35.0040707" lon="32.6822105"><ele>1164.0</ele><time>2015-04-27T12:28:41.0000000+00:00</time></trkpt><trkpt lat="35.0040321" lon="32.6821309"><ele>1164.0</ele><time>2015-04-27T12:28:43.0000000+00:00</time></trkpt><trkpt lat="35.0040014" lon="32.6820769"><ele>1163.9</ele><time>2015-04-27T12:28:45.0000000+00:00</time></trkpt><trkpt lat="35.0039804" lon="32.6820273"><ele>1160.5</ele><time>2015-04-27T12:29:55.0000000+00:00</time></trkpt><trkpt lat="35.0040237" lon="32.6820071"><ele>1164.4</ele><time>2015-04-27T12:33:27.0000000+00:00</time></trkpt><trkpt lat="35.0040122" lon="32.6819258"><ele>1164.7</ele><time>2015-04-27T12:33:44.0000000+00:00</time></trkpt><trkpt lat="35.003993" lon="32.6818447"><ele>1164.9</ele><time>2015-04-27T12:33:46.0000000+00:00</time></trkpt><trkpt lat="35.0039574" lon="32.6817518"><ele>1164.4</ele><time>2015-04-27T12:33:48.0000000+00:00</time></trkpt><trkpt lat="35.003903" lon="32.6816686"><ele>1165.3</ele><time>2015-04-27T12:33:50.0000000+00:00</time></trkpt><trkpt lat="35.0038441" lon="32.6815941"><ele>1167.0</ele><time>2015-04-27T12:33:52.0000000+00:00</time></trkpt><trkpt lat="35.0037854" lon="32.6815207"><ele>1168.0</ele><time>2015-04-27T12:33:54.0000000+00:00</time></trkpt><trkpt lat="35.003731" lon="32.6814408"><ele>1167.4</ele><time>2015-04-27T12:33:56.0000000+00:00</time></trkpt><trkpt lat="35.0036853" lon="32.6814032"><ele>1167.2</ele><time>2015-04-27T12:33:57.0000000+00:00</time></trkpt><trkpt lat="35.0036141" lon="32.6813401"><ele>1167.7</ele><time>2015-04-27T12:33:59.0000000+00:00</time></trkpt><trkpt lat="35.0035283" lon="32.681318"><ele>1167.9</ele><time>2015-04-27T12:34:01.0000000+00:00</time></trkpt><trkpt lat="35.0034841" lon="32.6813587"><ele>1167.4</ele><time>2015-04-27T12:34:02.0000000+00:00</time></trkpt><trkpt lat="35.0034557" lon="32.6814424"><ele>1166.5</ele><time>2015-04-27T12:34:04.0000000+00:00</time></trkpt><trkpt lat="35.003441" lon="32.6814996"><ele>1166.2</ele><time>2015-04-27T12:34:05.0000000+00:00</time></trkpt><trkpt lat="35.0034359" lon="32.6815545"><ele>1166.6</ele><time>2015-04-27T12:34:06.0000000+00:00</time></trkpt><trkpt lat="35.0034331" lon="32.68161"><ele>1166.3</ele><time>2015-04-27T12:34:07.0000000+00:00</time></trkpt><trkpt lat="35.0034225" lon="32.6816812"><ele>1166.1</ele><time>2015-04-27T12:34:08.0000000+00:00</time></trkpt><trkpt lat="35.0034004" lon="32.6817426"><ele>1166.0</ele><time>2015-04-27T12:34:09.0000000+00:00</time></trkpt><trkpt lat="35.0033795" lon="32.6818199"><ele>1166.0</ele><time>2015-04-27T12:34:10.0000000+00:00</time></trkpt><trkpt lat="35.0033581" lon="32.6818898"><ele>1166.0</ele><time>2015-04-27T12:34:11.0000000+00:00</time></trkpt><trkpt lat="35.0033486" lon="32.6819783"><ele>1165.9</ele><time>2015-04-27T12:34:12.0000000+00:00</time></trkpt><trkpt lat="35.0033118" lon="32.6820594"><ele>1165.4</ele><time>2015-04-27T12:34:13.0000000+00:00</time></trkpt><trkpt lat="35.0032905" lon="32.6821476"><ele>1164.2</ele><time>2015-04-27T12:34:14.0000000+00:00</time></trkpt><trkpt lat="35.0032777" lon="32.682239"><ele>1163.6</ele><time>2015-04-27T12:34:15.0000000+00:00</time></trkpt><trkpt lat="35.0032809" lon="32.6823292"><ele>1162.7</ele><time>2015-04-27T12:34:16.0000000+00:00</time></trkpt><trkpt lat="35.00329" lon="32.6824239"><ele>1161.8</ele><time>2015-04-27T12:34:17.0000000+00:00</time></trkpt><trkpt lat="35.0032973" lon="32.6825258"><ele>1160.4</ele><time>2015-04-27T12:34:18.0000000+00:00</time></trkpt><trkpt lat="35.0032884" lon="32.6826336"><ele>1158.7</ele><time>2015-04-27T12:34:19.0000000+00:00</time></trkpt><trkpt lat="35.0032685" lon="32.682736"><ele>1156.8</ele><time>2015-04-27T12:34:20.0000000+00:00</time></trkpt><trkpt lat="35.0032312" lon="32.6828397"><ele>1155.4</ele><time>2015-04-27T12:34:21.0000000+00:00</time></trkpt><trkpt lat="35.0031972" lon="32.6829421"><ele>1155.1</ele><time>2015-04-27T12:34:22.0000000+00:00</time></trkpt><trkpt lat="35.0031675" lon="32.6830532"><ele>1154.5</ele><time>2015-04-27T12:34:23.0000000+00:00</time></trkpt><trkpt lat="35.0031439" lon="32.6831696"><ele>1154.2</ele><time>2015-04-27T12:34:24.0000000+00:00</time></trkpt><trkpt lat="35.0031115" lon="32.6832711"><ele>1153.6</ele><time>2015-04-27T12:34:25.0000000+00:00</time></trkpt><trkpt lat="35.0030846" lon="32.683353"><ele>1153.8</ele><time>2015-04-27T12:34:26.0000000+00:00</time></trkpt><trkpt lat="35.0030244" lon="32.6834256"><ele>1153.3</ele><time>2015-04-27T12:34:27.0000000+00:00</time></trkpt><trkpt lat="35.0029562" lon="32.6834859"><ele>1153.6</ele><time>2015-04-27T12:34:28.0000000+00:00</time></trkpt><trkpt lat="35.002881" lon="32.6835372"><ele>1153.3</ele><time>2015-04-27T12:34:29.0000000+00:00</time></trkpt><trkpt lat="35.0027994" lon="32.6835758"><ele>1151.6</ele><time>2015-04-27T12:34:30.0000000+00:00</time></trkpt><trkpt lat="35.002721" lon="32.6836048"><ele>1150.8</ele><time>2015-04-27T12:34:31.0000000+00:00</time></trkpt><trkpt lat="35.0026477" lon="32.6836242"><ele>1150.3</ele><time>2015-04-27T12:34:32.0000000+00:00</time></trkpt><trkpt lat="35.0025681" lon="32.6836354"><ele>1149.6</ele><time>2015-04-27T12:34:33.0000000+00:00</time></trkpt><trkpt lat="35.0024935" lon="32.6836421"><ele>1148.8</ele><time>2015-04-27T12:34:34.0000000+00:00</time></trkpt><trkpt lat="35.0024193" lon="32.6836532"><ele>1147.9</ele><time>2015-04-27T12:34:35.0000000+00:00</time></trkpt><trkpt lat="35.0023479" lon="32.6836718"><ele>1146.9</ele><time>2015-04-27T12:34:36.0000000+00:00</time></trkpt><trkpt lat="35.00228" lon="32.6836945"><ele>1146.4</ele><time>2015-04-27T12:34:37.0000000+00:00</time></trkpt><trkpt lat="35.0022137" lon="32.6837125"><ele>1146.2</ele><time>2015-04-27T12:34:38.0000000+00:00</time></trkpt><trkpt lat="35.002151" lon="32.6837293"><ele>1145.6</ele><time>2015-04-27T12:34:39.0000000+00:00</time></trkpt><trkpt lat="35.0020871" lon="32.6837538"><ele>1145.2</ele><time>2015-04-27T12:34:40.0000000+00:00</time></trkpt><trkpt lat="35.0020253" lon="32.6837806"><ele>1145.1</ele><time>2015-04-27T12:34:41.0000000+00:00</time></trkpt><trkpt lat="35.0019667" lon="32.6838161"><ele>1145.5</ele><time>2015-04-27T12:34:42.0000000+00:00</time></trkpt><trkpt lat="35.0019072" lon="32.6838438"><ele>1145.2</ele><time>2015-04-27T12:34:43.0000000+00:00</time></trkpt><trkpt lat="35.0018679" lon="32.6838778"><ele>1145.1</ele><time>2015-04-27T12:34:44.0000000+00:00</time></trkpt><trkpt lat="35.0018026" lon="32.6839285"><ele>1144.5</ele><time>2015-04-27T12:34:45.0000000+00:00</time></trkpt><trkpt lat="35.001758" lon="32.6839808"><ele>1144.2</ele><time>2015-04-27T12:34:46.0000000+00:00</time></trkpt><trkpt lat="35.0017426" lon="32.6840515"><ele>1144.1</ele><time>2015-04-27T12:34:47.0000000+00:00</time></trkpt><trkpt lat="35.0017523" lon="32.6841219"><ele>1144.5</ele><time>2015-04-27T12:34:48.0000000+00:00</time></trkpt><trkpt lat="35.0017687" lon="32.6841894"><ele>1143.7</ele><time>2015-04-27T12:34:49.0000000+00:00</time></trkpt><trkpt lat="35.0017954" lon="32.6842518"><ele>1143.3</ele><time>2015-04-27T12:34:50.0000000+00:00</time></trkpt><trkpt lat="35.0018201" lon="32.6843134"><ele>1143.1</ele><time>2015-04-27T12:34:51.0000000+00:00</time></trkpt><trkpt lat="35.0018442" lon="32.6843753"><ele>1143.0</ele><time>2015-04-27T12:34:52.0000000+00:00</time></trkpt><trkpt lat="35.0018752" lon="32.6844375"><ele>1143.5</ele><time>2015-04-27T12:34:53.0000000+00:00</time></trkpt><trkpt lat="35.0019115" lon="32.6845082"><ele>1143.2</ele><time>2015-04-27T12:34:54.0000000+00:00</time></trkpt><trkpt lat="35.0019429" lon="32.6845732"><ele>1142.6</ele><time>2015-04-27T12:34:55.0000000+00:00</time></trkpt><trkpt lat="35.0019778" lon="32.6846444"><ele>1142.2</ele><time>2015-04-27T12:34:56.0000000+00:00</time></trkpt><trkpt lat="35.0019995" lon="32.6847257"><ele>1142.1</ele><time>2015-04-27T12:34:57.0000000+00:00</time></trkpt><trkpt lat="35.0020168" lon="32.6847995"><ele>1141.5</ele><time>2015-04-27T12:34:58.0000000+00:00</time></trkpt><trkpt lat="35.0020363" lon="32.6848727"><ele>1140.7</ele><time>2015-04-27T12:34:59.0000000+00:00</time></trkpt><trkpt lat="35.002072" lon="32.6849387"><ele>1139.8</ele><time>2015-04-27T12:35:00.0000000+00:00</time></trkpt><trkpt lat="35.0021103" lon="32.6849919"><ele>1138.9</ele><time>2015-04-27T12:35:01.0000000+00:00</time></trkpt><trkpt lat="35.002146" lon="32.6850458"><ele>1138.4</ele><time>2015-04-27T12:35:02.0000000+00:00</time></trkpt><trkpt lat="35.002172" lon="32.6851021"><ele>1138.2</ele><time>2015-04-27T12:35:03.0000000+00:00</time></trkpt><trkpt lat="35.002182" lon="32.6851634"><ele>1138.0</ele><time>2015-04-27T12:35:04.0000000+00:00</time></trkpt><trkpt lat="35.0021652" lon="32.6852349"><ele>1137.5</ele><time>2015-04-27T12:35:05.0000000+00:00</time></trkpt><trkpt lat="35.0021354" lon="32.6852998"><ele>1137.2</ele><time>2015-04-27T12:35:06.0000000+00:00</time></trkpt><trkpt lat="35.0021008" lon="32.6853626"><ele>1137.1</ele><time>2015-04-27T12:35:07.0000000+00:00</time></trkpt><trkpt lat="35.0020704" lon="32.6854329"><ele>1137.0</ele><time>2015-04-27T12:35:08.0000000+00:00</time></trkpt><trkpt lat="35.0020418" lon="32.6855031"><ele>1136.5</ele><time>2015-04-27T12:35:09.0000000+00:00</time></trkpt><trkpt lat="35.0020208" lon="32.6855813"><ele>1136.2</ele><time>2015-04-27T12:35:10.0000000+00:00</time></trkpt><trkpt lat="35.0020024" lon="32.6856499"><ele>1135.6</ele><time>2015-04-27T12:35:11.0000000+00:00</time></trkpt><trkpt lat="35.0020078" lon="32.6857346"><ele>1135.2</ele><time>2015-04-27T12:35:12.0000000+00:00</time></trkpt><trkpt lat="35.0020273" lon="32.6858071"><ele>1135.6</ele><time>2015-04-27T12:35:13.0000000+00:00</time></trkpt><trkpt lat="35.0020532" lon="32.6858681"><ele>1135.8</ele><time>2015-04-27T12:35:14.0000000+00:00</time></trkpt><trkpt lat="35.0020892" lon="32.6859173"><ele>1135.3</ele><time>2015-04-27T12:35:15.0000000+00:00</time></trkpt><trkpt lat="35.0021411" lon="32.6859623"><ele>1135.1</ele><time>2015-04-27T12:35:16.0000000+00:00</time></trkpt><trkpt lat="35.0022009" lon="32.6860075"><ele>1134.5</ele><time>2015-04-27T12:35:17.0000000+00:00</time></trkpt><trkpt lat="35.002249" lon="32.6860543"><ele>1134.2</ele><time>2015-04-27T12:35:18.0000000+00:00</time></trkpt><trkpt lat="35.0022966" lon="32.6861029"><ele>1133.6</ele><time>2015-04-27T12:35:19.0000000+00:00</time></trkpt><trkpt lat="35.0023596" lon="32.6861684"><ele>1133.3</ele><time>2015-04-27T12:35:20.0000000+00:00</time></trkpt><trkpt lat="35.0024169" lon="32.6862255"><ele>1132.6</ele><time>2015-04-27T12:35:21.0000000+00:00</time></trkpt><trkpt lat="35.0024702" lon="32.6862818"><ele>1132.3</ele><time>2015-04-27T12:35:22.0000000+00:00</time></trkpt><trkpt lat="35.0025207" lon="32.6863402"><ele>1131.6</ele><time>2015-04-27T12:35:23.0000000+00:00</time></trkpt><trkpt lat="35.0025793" lon="32.6863967"><ele>1130.8</ele><time>2015-04-27T12:35:24.0000000+00:00</time></trkpt><trkpt lat="35.0026292" lon="32.6864741"><ele>1129.8</ele><time>2015-04-27T12:35:25.0000000+00:00</time></trkpt><trkpt lat="35.0026542" lon="32.6865539"><ele>1129.4</ele><time>2015-04-27T12:35:26.0000000+00:00</time></trkpt><trkpt lat="35.0026702" lon="32.6866321"><ele>1129.7</ele><time>2015-04-27T12:35:27.0000000+00:00</time></trkpt><trkpt lat="35.0026784" lon="32.6867209"><ele>1129.8</ele><time>2015-04-27T12:35:28.0000000+00:00</time></trkpt><trkpt lat="35.0026809" lon="32.6868102"><ele>1129.9</ele><time>2015-04-27T12:35:29.0000000+00:00</time></trkpt><trkpt lat="35.0026675" lon="32.6868996"><ele>1129.9</ele><time>2015-04-27T12:35:30.0000000+00:00</time></trkpt><trkpt lat="35.0026531" lon="32.6869798"><ele>1130.4</ele><time>2015-04-27T12:35:31.0000000+00:00</time></trkpt><trkpt lat="35.0026333" lon="32.6870662"><ele>1130.7</ele><time>2015-04-27T12:35:32.0000000+00:00</time></trkpt><trkpt lat="35.0026172" lon="32.6871517"><ele>1130.8</ele><time>2015-04-27T12:35:33.0000000+00:00</time></trkpt><trkpt lat="35.0026074" lon="32.6872427"><ele>1130.4</ele><time>2015-04-27T12:35:34.0000000+00:00</time></trkpt><trkpt lat="35.0026142" lon="32.6873338"><ele>1130.1</ele><time>2015-04-27T12:35:35.0000000+00:00</time></trkpt><trkpt lat="35.0026345" lon="32.6874185"><ele>1130.5</ele><time>2015-04-27T12:35:36.0000000+00:00</time></trkpt><trkpt lat="35.002672" lon="32.6874954"><ele>1130.7</ele><time>2015-04-27T12:35:37.0000000+00:00</time></trkpt><trkpt lat="35.0026989" lon="32.6875664"><ele>1130.8</ele><time>2015-04-27T12:35:38.0000000+00:00</time></trkpt><trkpt lat="35.0027158" lon="32.6876404"><ele>1130.9</ele><time>2015-04-27T12:35:39.0000000+00:00</time></trkpt><trkpt lat="35.002743" lon="32.6876992"><ele>1130.9</ele><time>2015-04-27T12:35:40.0000000+00:00</time></trkpt><trkpt lat="35.0027775" lon="32.6877516"><ele>1131.4</ele><time>2015-04-27T12:35:41.0000000+00:00</time></trkpt><trkpt lat="35.002808" lon="32.6878145"><ele>1131.2</ele><time>2015-04-27T12:35:42.0000000+00:00</time></trkpt><trkpt lat="35.0028538" lon="32.6878709"><ele>1131.1</ele><time>2015-04-27T12:35:43.0000000+00:00</time></trkpt><trkpt lat="35.002899" lon="32.6879315"><ele>1130.5</ele><time>2015-04-27T12:35:44.0000000+00:00</time></trkpt><trkpt lat="35.0029441" lon="32.6879932"><ele>1130.7</ele><time>2015-04-27T12:35:45.0000000+00:00</time></trkpt><trkpt lat="35.0029972" lon="32.6880466"><ele>1130.8</ele><time>2015-04-27T12:35:46.0000000+00:00</time></trkpt><trkpt lat="35.0030521" lon="32.6880877"><ele>1130.9</ele><time>2015-04-27T12:35:47.0000000+00:00</time></trkpt><trkpt lat="35.0031086" lon="32.6881486"><ele>1130.4</ele><time>2015-04-27T12:35:48.0000000+00:00</time></trkpt><trkpt lat="35.0031638" lon="32.688212"><ele>1130.2</ele><time>2015-04-27T12:35:49.0000000+00:00</time></trkpt><trkpt lat="35.0032154" lon="32.6882799"><ele>1130.0</ele><time>2015-04-27T12:35:50.0000000+00:00</time></trkpt><trkpt lat="35.003273" lon="32.6883414"><ele>1129.5</ele><time>2015-04-27T12:35:51.0000000+00:00</time></trkpt><trkpt lat="35.0033334" lon="32.6884023"><ele>1129.2</ele><time>2015-04-27T12:35:52.0000000+00:00</time></trkpt><trkpt lat="35.0033898" lon="32.688459"><ele>1129.1</ele><time>2015-04-27T12:35:53.0000000+00:00</time></trkpt><trkpt lat="35.0034432" lon="32.6885226"><ele>1129.0</ele><time>2015-04-27T12:35:54.0000000+00:00</time></trkpt><trkpt lat="35.0034763" lon="32.6886087"><ele>1128.5</ele><time>2015-04-27T12:35:55.0000000+00:00</time></trkpt><trkpt lat="35.0035022" lon="32.6887057"><ele>1128.2</ele><time>2015-04-27T12:35:56.0000000+00:00</time></trkpt><trkpt lat="35.0035129" lon="32.6888016"><ele>1128.1</ele><time>2015-04-27T12:35:57.0000000+00:00</time></trkpt><trkpt lat="35.0035297" lon="32.6888928"><ele>1128.0</ele><time>2015-04-27T12:35:58.0000000+00:00</time></trkpt><trkpt lat="35.0035517" lon="32.6889797"><ele>1128.0</ele><time>2015-04-27T12:35:59.0000000+00:00</time></trkpt><trkpt lat="35.003576" lon="32.6890667"><ele>1127.9</ele><time>2015-04-27T12:36:00.0000000+00:00</time></trkpt><trkpt lat="35.0036042" lon="32.6891543"><ele>1127.9</ele><time>2015-04-27T12:36:01.0000000+00:00</time></trkpt><trkpt lat="35.0036337" lon="32.6892419"><ele>1127.9</ele><time>2015-04-27T12:36:02.0000000+00:00</time></trkpt><trkpt lat="35.0036678" lon="32.6893194"><ele>1127.9</ele><time>2015-04-27T12:36:03.0000000+00:00</time></trkpt><trkpt lat="35.0037098" lon="32.6893944"><ele>1127.9</ele><time>2015-04-27T12:36:04.0000000+00:00</time></trkpt><trkpt lat="35.0037557" lon="32.6894624"><ele>1127.4</ele><time>2015-04-27T12:36:05.0000000+00:00</time></trkpt><trkpt lat="35.0038011" lon="32.6895347"><ele>1127.2</ele><time>2015-04-27T12:36:06.0000000+00:00</time></trkpt><trkpt lat="35.0038481" lon="32.6896058"><ele>1126.6</ele><time>2015-04-27T12:36:07.0000000+00:00</time></trkpt><trkpt lat="35.0038956" lon="32.6896689"><ele>1126.7</ele><time>2015-04-27T12:36:08.0000000+00:00</time></trkpt><trkpt lat="35.0039435" lon="32.6897356"><ele>1126.3</ele><time>2015-04-27T12:36:09.0000000+00:00</time></trkpt><trkpt lat="35.0039916" lon="32.6898"><ele>1125.6</ele><time>2015-04-27T12:36:10.0000000+00:00</time></trkpt><trkpt lat="35.0040455" lon="32.6898496"><ele>1125.3</ele><time>2015-04-27T12:36:11.0000000+00:00</time></trkpt><trkpt lat="35.0041073" lon="32.6898964"><ele>1125.1</ele><time>2015-04-27T12:36:12.0000000+00:00</time></trkpt><trkpt lat="35.0041599" lon="32.6899226"><ele>1125.0</ele><time>2015-04-27T12:36:13.0000000+00:00</time></trkpt><trkpt lat="35.0042119" lon="32.689952"><ele>1125.5</ele><time>2015-04-27T12:36:14.0000000+00:00</time></trkpt><trkpt lat="35.0042594" lon="32.6900172"><ele>1125.2</ele><time>2015-04-27T12:36:15.0000000+00:00</time></trkpt><trkpt lat="35.0042967" lon="32.690087"><ele>1124.6</ele><time>2015-04-27T12:36:16.0000000+00:00</time></trkpt><trkpt lat="35.0043107" lon="32.6901722"><ele>1124.2</ele><time>2015-04-27T12:36:17.0000000+00:00</time></trkpt><trkpt lat="35.004324" lon="32.6902572"><ele>1124.6</ele><time>2015-04-27T12:36:18.0000000+00:00</time></trkpt><trkpt lat="35.0043304" lon="32.6903465"><ele>1124.3</ele><time>2015-04-27T12:36:19.0000000+00:00</time></trkpt><trkpt lat="35.0043398" lon="32.6904339"><ele>1124.1</ele><time>2015-04-27T12:36:20.0000000+00:00</time></trkpt><trkpt lat="35.0043574" lon="32.6905239"><ele>1124.0</ele><time>2015-04-27T12:36:21.0000000+00:00</time></trkpt><trkpt lat="35.0043827" lon="32.6906094"><ele>1124.0</ele><time>2015-04-27T12:36:22.0000000+00:00</time></trkpt><trkpt lat="35.0044217" lon="32.6906868"><ele>1124.0</ele><time>2015-04-27T12:36:23.0000000+00:00</time></trkpt><trkpt lat="35.0044668" lon="32.6907526"><ele>1123.9</ele><time>2015-04-27T12:36:24.0000000+00:00</time></trkpt><trkpt lat="35.0045201" lon="32.6908097"><ele>1123.4</ele><time>2015-04-27T12:36:25.0000000+00:00</time></trkpt><trkpt lat="35.0045663" lon="32.6908688"><ele>1123.7</ele><time>2015-04-27T12:36:26.0000000+00:00</time></trkpt><trkpt lat="35.004615" lon="32.690926"><ele>1123.3</ele><time>2015-04-27T12:36:27.0000000+00:00</time></trkpt><trkpt lat="35.0046567" lon="32.6909814"><ele>1123.6</ele><time>2015-04-27T12:36:28.0000000+00:00</time></trkpt><trkpt lat="35.0047044" lon="32.6910416"><ele>1123.8</ele><time>2015-04-27T12:36:29.0000000+00:00</time></trkpt><trkpt lat="35.0047463" lon="32.6911064"><ele>1123.9</ele><time>2015-04-27T12:36:30.0000000+00:00</time></trkpt><trkpt lat="35.004781" lon="32.6911748"><ele>1123.9</ele><time>2015-04-27T12:36:31.0000000+00:00</time></trkpt><trkpt lat="35.0048135" lon="32.69124"><ele>1123.9</ele><time>2015-04-27T12:36:32.0000000+00:00</time></trkpt><trkpt lat="35.004854" lon="32.6913018"><ele>1123.4</ele><time>2015-04-27T12:36:33.0000000+00:00</time></trkpt><trkpt lat="35.0048956" lon="32.6913559"><ele>1123.7</ele><time>2015-04-27T12:36:34.0000000+00:00</time></trkpt><trkpt lat="35.004947" lon="32.691409"><ele>1123.3</ele><time>2015-04-27T12:36:35.0000000+00:00</time></trkpt><trkpt lat="35.0050035" lon="32.6914495"><ele>1123.6</ele><time>2015-04-27T12:36:36.0000000+00:00</time></trkpt><trkpt lat="35.0050678" lon="32.6914812"><ele>1123.8</ele><time>2015-04-27T12:36:37.0000000+00:00</time></trkpt><trkpt lat="35.0051329" lon="32.6914995"><ele>1123.4</ele><time>2015-04-27T12:36:38.0000000+00:00</time></trkpt><trkpt lat="35.0052024" lon="32.6915173"><ele>1123.1</ele><time>2015-04-27T12:36:39.0000000+00:00</time></trkpt><trkpt lat="35.0052623" lon="32.6915342"><ele>1122.5</ele><time>2015-04-27T12:36:40.0000000+00:00</time></trkpt><trkpt lat="35.00531" lon="32.6915612"><ele>1122.2</ele><time>2015-04-27T12:36:41.0000000+00:00</time></trkpt><trkpt lat="35.0053558" lon="32.691608"><ele>1121.6</ele><time>2015-04-27T12:36:42.0000000+00:00</time></trkpt><trkpt lat="35.0053938" lon="32.6916608"><ele>1121.3</ele><time>2015-04-27T12:36:43.0000000+00:00</time></trkpt><trkpt lat="35.0054271" lon="32.691731"><ele>1121.1</ele><time>2015-04-27T12:36:44.0000000+00:00</time></trkpt><trkpt lat="35.0054502" lon="32.6918031"><ele>1120.5</ele><time>2015-04-27T12:36:45.0000000+00:00</time></trkpt><trkpt lat="35.0054743" lon="32.6918713"><ele>1120.2</ele><time>2015-04-27T12:36:46.0000000+00:00</time></trkpt><trkpt lat="35.0055103" lon="32.6919486"><ele>1120.1</ele><time>2015-04-27T12:36:47.0000000+00:00</time></trkpt><trkpt lat="35.0055564" lon="32.6920082"><ele>1120.0</ele><time>2015-04-27T12:36:48.0000000+00:00</time></trkpt><trkpt lat="35.0056101" lon="32.6920651"><ele>1120.0</ele><time>2015-04-27T12:36:49.0000000+00:00</time></trkpt><trkpt lat="35.0056756" lon="32.6921133"><ele>1119.4</ele><time>2015-04-27T12:36:50.0000000+00:00</time></trkpt><trkpt lat="35.0057408" lon="32.6921511"><ele>1119.2</ele><time>2015-04-27T12:36:51.0000000+00:00</time></trkpt><trkpt lat="35.0058023" lon="32.6921953"><ele>1119.1</ele><time>2015-04-27T12:36:52.0000000+00:00</time></trkpt><trkpt lat="35.0058661" lon="32.6922399"><ele>1119.0</ele><time>2015-04-27T12:36:53.0000000+00:00</time></trkpt><trkpt lat="35.0059211" lon="32.6922945"><ele>1118.5</ele><time>2015-04-27T12:36:54.0000000+00:00</time></trkpt><trkpt lat="35.0059788" lon="32.6923524"><ele>1118.2</ele><time>2015-04-27T12:36:55.0000000+00:00</time></trkpt><trkpt lat="35.006031" lon="32.692399"><ele>1118.1</ele><time>2015-04-27T12:36:56.0000000+00:00</time></trkpt><trkpt lat="35.0060794" lon="32.6924544"><ele>1118.5</ele><time>2015-04-27T12:36:57.0000000+00:00</time></trkpt><trkpt lat="35.0061184" lon="32.6925147"><ele>1118.7</ele><time>2015-04-27T12:36:58.0000000+00:00</time></trkpt><trkpt lat="35.0061329" lon="32.6926065"><ele>1118.8</ele><time>2015-04-27T12:36:59.0000000+00:00</time></trkpt><trkpt lat="35.0061352" lon="32.6926908"><ele>1118.9</ele><time>2015-04-27T12:37:00.0000000+00:00</time></trkpt><trkpt lat="35.0061302" lon="32.6927765"><ele>1118.4</ele><time>2015-04-27T12:37:01.0000000+00:00</time></trkpt><trkpt lat="35.0061222" lon="32.692855"><ele>1118.2</ele><time>2015-04-27T12:37:02.0000000+00:00</time></trkpt><trkpt lat="35.006101" lon="32.6929297"><ele>1118.0</ele><time>2015-04-27T12:37:03.0000000+00:00</time></trkpt><trkpt lat="35.0060646" lon="32.6929959"><ele>1117.5</ele><time>2015-04-27T12:37:04.0000000+00:00</time></trkpt><trkpt lat="35.0060142" lon="32.6930513"><ele>1116.7</ele><time>2015-04-27T12:37:05.0000000+00:00</time></trkpt><trkpt lat="35.0059577" lon="32.6930983"><ele>1115.8</ele><time>2015-04-27T12:37:06.0000000+00:00</time></trkpt><trkpt lat="35.0059031" lon="32.693137"><ele>1115.4</ele><time>2015-04-27T12:37:07.0000000+00:00</time></trkpt><trkpt lat="35.0058413" lon="32.6931837"><ele>1115.2</ele><time>2015-04-27T12:37:08.0000000+00:00</time></trkpt><trkpt lat="35.0057797" lon="32.6932175"><ele>1115.5</ele><time>2015-04-27T12:37:09.0000000+00:00</time></trkpt><trkpt lat="35.0057181" lon="32.6932568"><ele>1115.7</ele><time>2015-04-27T12:37:10.0000000+00:00</time></trkpt><trkpt lat="35.0056529" lon="32.6932963"><ele>1115.8</ele><time>2015-04-27T12:37:11.0000000+00:00</time></trkpt><trkpt lat="35.0055923" lon="32.6933385"><ele>1115.9</ele><time>2015-04-27T12:37:12.0000000+00:00</time></trkpt><trkpt lat="35.005533" lon="32.693378"><ele>1116.4</ele><time>2015-04-27T12:37:13.0000000+00:00</time></trkpt><trkpt lat="35.0054792" lon="32.6934153"><ele>1116.2</ele><time>2015-04-27T12:37:14.0000000+00:00</time></trkpt><trkpt lat="35.0054299" lon="32.6934514"><ele>1116.5</ele><time>2015-04-27T12:37:15.0000000+00:00</time></trkpt><trkpt lat="35.0053649" lon="32.6934754"><ele>1117.2</ele><time>2015-04-27T12:37:16.0000000+00:00</time></trkpt><trkpt lat="35.0052987" lon="32.6934666"><ele>1118.1</ele><time>2015-04-27T12:37:17.0000000+00:00</time></trkpt><trkpt lat="35.0052394" lon="32.6934454"><ele>1118.5</ele><time>2015-04-27T12:37:18.0000000+00:00</time></trkpt><trkpt lat="35.0051787" lon="32.6934134"><ele>1118.7</ele><time>2015-04-27T12:37:19.0000000+00:00</time></trkpt><trkpt lat="35.0051205" lon="32.6933712"><ele>1118.8</ele><time>2015-04-27T12:37:20.0000000+00:00</time></trkpt><trkpt lat="35.0050666" lon="32.6933317"><ele>1118.4</ele><time>2015-04-27T12:37:21.0000000+00:00</time></trkpt><trkpt lat="35.0050124" lon="32.6932888"><ele>1117.7</ele><time>2015-04-27T12:37:22.0000000+00:00</time></trkpt><trkpt lat="35.0049594" lon="32.6932524"><ele>1117.3</ele><time>2015-04-27T12:37:23.0000000+00:00</time></trkpt><trkpt lat="35.0049027" lon="32.6932104"><ele>1117.6</ele><time>2015-04-27T12:37:24.0000000+00:00</time></trkpt><trkpt lat="35.0048477" lon="32.6931708"><ele>1117.8</ele><time>2015-04-27T12:37:25.0000000+00:00</time></trkpt><trkpt lat="35.0047988" lon="32.6931283"><ele>1117.9</ele><time>2015-04-27T12:37:26.0000000+00:00</time></trkpt><trkpt lat="35.004747" lon="32.6930883"><ele>1117.9</ele><time>2015-04-27T12:37:27.0000000+00:00</time></trkpt><trkpt lat="35.0046924" lon="32.6930481"><ele>1118.4</ele><time>2015-04-27T12:37:28.0000000+00:00</time></trkpt><trkpt lat="35.004642" lon="32.6930029"><ele>1118.7</ele><time>2015-04-27T12:37:29.0000000+00:00</time></trkpt><trkpt lat="35.0045889" lon="32.6929613"><ele>1119.3</ele><time>2015-04-27T12:37:30.0000000+00:00</time></trkpt><trkpt lat="35.0045397" lon="32.6929124"><ele>1119.6</ele><time>2015-04-27T12:37:31.0000000+00:00</time></trkpt><trkpt lat="35.0044869" lon="32.6928668"><ele>1119.3</ele><time>2015-04-27T12:37:32.0000000+00:00</time></trkpt><trkpt lat="35.0044313" lon="32.6928307"><ele>1119.1</ele><time>2015-04-27T12:37:33.0000000+00:00</time></trkpt><trkpt lat="35.0043792" lon="32.692805"><ele>1119.0</ele><time>2015-04-27T12:37:34.0000000+00:00</time></trkpt><trkpt lat="35.0043224" lon="32.6928083"><ele>1119.5</ele><time>2015-04-27T12:37:35.0000000+00:00</time></trkpt><trkpt lat="35.0042568" lon="32.6928044"><ele>1120.2</ele><time>2015-04-27T12:37:36.0000000+00:00</time></trkpt><trkpt lat="35.0041906" lon="32.6928139"><ele>1120.1</ele><time>2015-04-27T12:37:37.0000000+00:00</time></trkpt><trkpt lat="35.0041117" lon="32.6928444"><ele>1121.0</ele><time>2015-04-27T12:37:38.0000000+00:00</time></trkpt><trkpt lat="35.0040442" lon="32.6928656"><ele>1121.5</ele><time>2015-04-27T12:37:39.0000000+00:00</time></trkpt><trkpt lat="35.0039831" lon="32.6929068"><ele>1121.2</ele><time>2015-04-27T12:37:40.0000000+00:00</time></trkpt><trkpt lat="35.003924" lon="32.6929417"><ele>1122.6</ele><time>2015-04-27T12:37:41.0000000+00:00</time></trkpt><trkpt lat="35.0038658" lon="32.692975"><ele>1122.7</ele><time>2015-04-27T12:37:42.0000000+00:00</time></trkpt><trkpt lat="35.0038085" lon="32.6930184"><ele>1122.8</ele><time>2015-04-27T12:37:43.0000000+00:00</time></trkpt><trkpt lat="35.0037412" lon="32.6930509"><ele>1122.4</ele><time>2015-04-27T12:37:44.0000000+00:00</time></trkpt><trkpt lat="35.0036702" lon="32.6930691"><ele>1122.2</ele><time>2015-04-27T12:37:45.0000000+00:00</time></trkpt><trkpt lat="35.0035956" lon="32.6930846"><ele>1122.5</ele><time>2015-04-27T12:37:46.0000000+00:00</time></trkpt><trkpt lat="35.0035302" lon="32.69309"><ele>1122.7</ele><time>2015-04-27T12:37:47.0000000+00:00</time></trkpt><trkpt lat="35.0034603" lon="32.6930975"><ele>1122.8</ele><time>2015-04-27T12:37:48.0000000+00:00</time></trkpt><trkpt lat="35.0033887" lon="32.6931176"><ele>1122.4</ele><time>2015-04-27T12:37:49.0000000+00:00</time></trkpt><trkpt lat="35.0033141" lon="32.6931347"><ele>1122.2</ele><time>2015-04-27T12:37:50.0000000+00:00</time></trkpt><trkpt lat="35.0032459" lon="32.6931696"><ele>1122.0</ele><time>2015-04-27T12:37:51.0000000+00:00</time></trkpt><trkpt lat="35.0031923" lon="32.693237"><ele>1122.0</ele><time>2015-04-27T12:37:52.0000000+00:00</time></trkpt><trkpt lat="35.0031394" lon="32.6932859"><ele>1122.0</ele><time>2015-04-27T12:37:53.0000000+00:00</time></trkpt><trkpt lat="35.0030912" lon="32.6933592"><ele>1121.9</ele><time>2015-04-27T12:37:54.0000000+00:00</time></trkpt><trkpt lat="35.0030445" lon="32.6934319"><ele>1121.9</ele><time>2015-04-27T12:37:55.0000000+00:00</time></trkpt><trkpt lat="35.0030087" lon="32.6935074"><ele>1121.4</ele><time>2015-04-27T12:37:56.0000000+00:00</time></trkpt><trkpt lat="35.0029715" lon="32.6935859"><ele>1121.2</ele><time>2015-04-27T12:37:57.0000000+00:00</time></trkpt><trkpt lat="35.0029349" lon="32.6936561"><ele>1120.6</ele><time>2015-04-27T12:37:58.0000000+00:00</time></trkpt><trkpt lat="35.0028993" lon="32.6937376"><ele>1119.7</ele><time>2015-04-27T12:37:59.0000000+00:00</time></trkpt><trkpt lat="35.0028578" lon="32.693811"><ele>1119.3</ele><time>2015-04-27T12:38:00.0000000+00:00</time></trkpt><trkpt lat="35.0027889" lon="32.6938556"><ele>1118.1</ele><time>2015-04-27T12:38:01.0000000+00:00</time></trkpt><trkpt lat="35.0027289" lon="32.6938688"><ele>1117.0</ele><time>2015-04-27T12:38:02.0000000+00:00</time></trkpt><trkpt lat="35.0026769" lon="32.693854"><ele>1116.5</ele><time>2015-04-27T12:38:03.0000000+00:00</time></trkpt><trkpt lat="35.002631" lon="32.6938053"><ele>1116.7</ele><time>2015-04-27T12:38:04.0000000+00:00</time></trkpt><trkpt lat="35.0025998" lon="32.6937487"><ele>1117.3</ele><time>2015-04-27T12:38:05.0000000+00:00</time></trkpt><trkpt lat="35.002573" lon="32.6936842"><ele>1118.1</ele><time>2015-04-27T12:38:06.0000000+00:00</time></trkpt><trkpt lat="35.0025447" lon="32.6936131"><ele>1118.0</ele><time>2015-04-27T12:38:07.0000000+00:00</time></trkpt><trkpt lat="35.0025166" lon="32.6935525"><ele>1118.0</ele><time>2015-04-27T12:38:08.0000000+00:00</time></trkpt><trkpt lat="35.0024853" lon="32.6934993"><ele>1118.0</ele><time>2015-04-27T12:38:09.0000000+00:00</time></trkpt><trkpt lat="35.0024524" lon="32.6934546"><ele>1118.4</ele><time>2015-04-27T12:38:10.0000000+00:00</time></trkpt><trkpt lat="35.0024194" lon="32.6934012"><ele>1118.7</ele><time>2015-04-27T12:38:11.0000000+00:00</time></trkpt><trkpt lat="35.0023761" lon="32.6933543"><ele>1119.3</ele><time>2015-04-27T12:38:12.0000000+00:00</time></trkpt><trkpt lat="35.0023313" lon="32.6933074"><ele>1119.1</ele><time>2015-04-27T12:38:13.0000000+00:00</time></trkpt><trkpt lat="35.0022845" lon="32.6932681"><ele>1119.0</ele><time>2015-04-27T12:38:14.0000000+00:00</time></trkpt><trkpt lat="35.0022335" lon="32.6932377"><ele>1119.0</ele><time>2015-04-27T12:38:15.0000000+00:00</time></trkpt><trkpt lat="35.0021846" lon="32.6932072"><ele>1119.5</ele><time>2015-04-27T12:38:16.0000000+00:00</time></trkpt><trkpt lat="35.0021374" lon="32.6931682"><ele>1119.7</ele><time>2015-04-27T12:38:17.0000000+00:00</time></trkpt><trkpt lat="35.0020798" lon="32.6931264"><ele>1119.8</ele><time>2015-04-27T12:38:18.0000000+00:00</time></trkpt><trkpt lat="35.0020238" lon="32.6930863"><ele>1119.9</ele><time>2015-04-27T12:38:19.0000000+00:00</time></trkpt><trkpt lat="35.0019692" lon="32.693056"><ele>1119.9</ele><time>2015-04-27T12:38:20.0000000+00:00</time></trkpt><trkpt lat="35.0019142" lon="32.6930275"><ele>1119.9</ele><time>2015-04-27T12:38:21.0000000+00:00</time></trkpt><trkpt lat="35.0018616" lon="32.6929999"><ele>1119.9</ele><time>2015-04-27T12:38:22.0000000+00:00</time></trkpt><trkpt lat="35.0018092" lon="32.6929778"><ele>1120.4</ele><time>2015-04-27T12:38:23.0000000+00:00</time></trkpt><trkpt lat="35.0017494" lon="32.6929551"><ele>1121.2</ele><time>2015-04-27T12:38:24.0000000+00:00</time></trkpt><trkpt lat="35.0016913" lon="32.69293"><ele>1121.6</ele><time>2015-04-27T12:38:25.0000000+00:00</time></trkpt><trkpt lat="35.0016333" lon="32.6929006"><ele>1122.2</ele><time>2015-04-27T12:38:26.0000000+00:00</time></trkpt><trkpt lat="35.0015844" lon="32.6928699"><ele>1122.6</ele><time>2015-04-27T12:38:27.0000000+00:00</time></trkpt><trkpt lat="35.0015404" lon="32.6928436"><ele>1122.8</ele><time>2015-04-27T12:38:28.0000000+00:00</time></trkpt><trkpt lat="35.0014609" lon="32.692789"><ele>1123.6</ele><time>2015-04-27T12:38:30.0000000+00:00</time></trkpt><trkpt lat="35.0014164" lon="32.6927601"><ele>1123.8</ele><time>2015-04-27T12:38:31.0000000+00:00</time></trkpt><trkpt lat="35.0013649" lon="32.6927352"><ele>1123.9</ele><time>2015-04-27T12:38:32.0000000+00:00</time></trkpt><trkpt lat="35.0013112" lon="32.6927068"><ele>1123.9</ele><time>2015-04-27T12:38:33.0000000+00:00</time></trkpt><trkpt lat="35.0012616" lon="32.6926852"><ele>1123.9</ele><time>2015-04-27T12:38:34.0000000+00:00</time></trkpt><trkpt lat="35.0012101" lon="32.692651"><ele>1123.4</ele><time>2015-04-27T12:38:35.0000000+00:00</time></trkpt><trkpt lat="35.0011539" lon="32.6926225"><ele>1123.2</ele><time>2015-04-27T12:38:36.0000000+00:00</time></trkpt><trkpt lat="35.0010951" lon="32.6926008"><ele>1123.6</ele><time>2015-04-27T12:38:37.0000000+00:00</time></trkpt><trkpt lat="35.0010396" lon="32.6925973"><ele>1123.7</ele><time>2015-04-27T12:38:38.0000000+00:00</time></trkpt><trkpt lat="35.0009911" lon="32.6925884"><ele>1123.8</ele><time>2015-04-27T12:38:39.0000000+00:00</time></trkpt><trkpt lat="35.0008901" lon="32.6925906"><ele>1122.4</ele><time>2015-04-27T12:38:41.0000000+00:00</time></trkpt><trkpt lat="35.0008402" lon="32.6925991"><ele>1122.7</ele><time>2015-04-27T12:38:42.0000000+00:00</time></trkpt><trkpt lat="35.0007825" lon="32.6926052"><ele>1122.3</ele><time>2015-04-27T12:38:43.0000000+00:00</time></trkpt><trkpt lat="35.0006842" lon="32.6926354"><ele>1121.8</ele><time>2015-04-27T12:38:45.0000000+00:00</time></trkpt><trkpt lat="35.0006302" lon="32.692655"><ele>1121.9</ele><time>2015-04-27T12:38:46.0000000+00:00</time></trkpt><trkpt lat="35.0005795" lon="32.6926871"><ele>1121.9</ele><time>2015-04-27T12:38:47.0000000+00:00</time></trkpt><trkpt lat="35.0005323" lon="32.6927096"><ele>1122.4</ele><time>2015-04-27T12:38:48.0000000+00:00</time></trkpt><trkpt lat="35.0004914" lon="32.6927337"><ele>1122.2</ele><time>2015-04-27T12:38:49.0000000+00:00</time></trkpt><trkpt lat="35.000449" lon="32.6927658"><ele>1122.6</ele><time>2015-04-27T12:38:50.0000000+00:00</time></trkpt><trkpt lat="35.0004121" lon="32.6928022"><ele>1122.7</ele><time>2015-04-27T12:38:51.0000000+00:00</time></trkpt><trkpt lat="35.0003851" lon="32.6928475"><ele>1122.8</ele><time>2015-04-27T12:38:52.0000000+00:00</time></trkpt><trkpt lat="35.000364" lon="32.6929018"><ele>1122.4</ele><time>2015-04-27T12:38:53.0000000+00:00</time></trkpt><trkpt lat="35.0003374" lon="32.69295"><ele>1122.2</ele><time>2015-04-27T12:38:54.0000000+00:00</time></trkpt><trkpt lat="35.0003124" lon="32.6929962"><ele>1122.0</ele><time>2015-04-27T12:38:55.0000000+00:00</time></trkpt><trkpt lat="35.0002843" lon="32.693051"><ele>1122.0</ele><time>2015-04-27T12:38:56.0000000+00:00</time></trkpt><trkpt lat="35.0002558" lon="32.6931032"><ele>1122.0</ele><time>2015-04-27T12:38:57.0000000+00:00</time></trkpt><trkpt lat="35.0002265" lon="32.6931612"><ele>1121.9</ele><time>2015-04-27T12:38:58.0000000+00:00</time></trkpt><trkpt lat="35.0001916" lon="32.6932186"><ele>1121.4</ele><time>2015-04-27T12:38:59.0000000+00:00</time></trkpt><trkpt lat="35.0001543" lon="32.693277"><ele>1120.7</ele><time>2015-04-27T12:39:00.0000000+00:00</time></trkpt><trkpt lat="35.0001213" lon="32.6933336"><ele>1120.3</ele><time>2015-04-27T12:39:01.0000000+00:00</time></trkpt><trkpt lat="35.0000889" lon="32.6933925"><ele>1119.6</ele><time>2015-04-27T12:39:02.0000000+00:00</time></trkpt><trkpt lat="35.0000603" lon="32.6934571"><ele>1119.3</ele><time>2015-04-27T12:39:03.0000000+00:00</time></trkpt><trkpt lat="35.0000219" lon="32.693518"><ele>1119.1</ele><time>2015-04-27T12:39:04.0000000+00:00</time></trkpt><trkpt lat="34.9999785" lon="32.6935687"><ele>1119.0</ele><time>2015-04-27T12:39:05.0000000+00:00</time></trkpt><trkpt lat="34.9999196" lon="32.6936116"><ele>1119.5</ele><time>2015-04-27T12:39:06.0000000+00:00</time></trkpt><trkpt lat="34.9998534" lon="32.6936388"><ele>1120.2</ele><time>2015-04-27T12:39:07.0000000+00:00</time></trkpt><trkpt lat="34.9997853" lon="32.6936547"><ele>1121.1</ele><time>2015-04-27T12:39:08.0000000+00:00</time></trkpt><trkpt lat="34.9997186" lon="32.6936688"><ele>1121.5</ele><time>2015-04-27T12:39:09.0000000+00:00</time></trkpt><trkpt lat="34.9996531" lon="32.6936846"><ele>1121.7</ele><time>2015-04-27T12:39:10.0000000+00:00</time></trkpt><trkpt lat="34.9995856" lon="32.6936881"><ele>1122.3</ele><time>2015-04-27T12:39:11.0000000+00:00</time></trkpt><trkpt lat="34.9995193" lon="32.6936721"><ele>1123.6</ele><time>2015-04-27T12:39:12.0000000+00:00</time></trkpt><trkpt lat="34.999467" lon="32.6936386"><ele>1124.3</ele><time>2015-04-27T12:39:13.0000000+00:00</time></trkpt><trkpt lat="34.9994194" lon="32.6935981"><ele>1124.6</ele><time>2015-04-27T12:39:14.0000000+00:00</time></trkpt><trkpt lat="34.9993766" lon="32.693542"><ele>1124.3</ele><time>2015-04-27T12:39:15.0000000+00:00</time></trkpt><trkpt lat="34.9993312" lon="32.6934945"><ele>1124.1</ele><time>2015-04-27T12:39:16.0000000+00:00</time></trkpt><trkpt lat="34.9992884" lon="32.6934486"><ele>1124.0</ele><time>2015-04-27T12:39:17.0000000+00:00</time></trkpt><trkpt lat="34.9992345" lon="32.693402"><ele>1124.0</ele><time>2015-04-27T12:39:18.0000000+00:00</time></trkpt><trkpt lat="34.9991717" lon="32.6933618"><ele>1124.0</ele><time>2015-04-27T12:39:19.0000000+00:00</time></trkpt><trkpt lat="34.9991208" lon="32.6933345"><ele>1123.4</ele><time>2015-04-27T12:39:20.0000000+00:00</time></trkpt><trkpt lat="34.9990452" lon="32.6933154"><ele>1123.2</ele><time>2015-04-27T12:39:21.0000000+00:00</time></trkpt><trkpt lat="34.998982" lon="32.6932984"><ele>1122.6</ele><time>2015-04-27T12:39:22.0000000+00:00</time></trkpt><trkpt lat="34.9989345" lon="32.6932863"><ele>1121.7</ele><time>2015-04-27T12:39:23.0000000+00:00</time></trkpt><trkpt lat="34.9988771" lon="32.6933099"><ele>1121.3</ele><time>2015-04-27T12:39:24.0000000+00:00</time></trkpt><trkpt lat="34.9988226" lon="32.6933324"><ele>1120.1</ele><time>2015-04-27T12:39:25.0000000+00:00</time></trkpt><trkpt lat="34.9987693" lon="32.6933554"><ele>1119.5</ele><time>2015-04-27T12:39:26.0000000+00:00</time></trkpt><trkpt lat="34.9987079" lon="32.6933886"><ele>1119.2</ele><time>2015-04-27T12:39:27.0000000+00:00</time></trkpt><trkpt lat="34.998655" lon="32.6934322"><ele>1119.6</ele><time>2015-04-27T12:39:28.0000000+00:00</time></trkpt><trkpt lat="34.9986087" lon="32.6934635"><ele>1118.8</ele><time>2015-04-27T12:39:29.0000000+00:00</time></trkpt><trkpt lat="34.9985451" lon="32.6934932"><ele>1118.3</ele><time>2015-04-27T12:39:30.0000000+00:00</time></trkpt><trkpt lat="34.9984929" lon="32.6935079"><ele>1118.1</ele><time>2015-04-27T12:39:31.0000000+00:00</time></trkpt><trkpt lat="34.9984266" lon="32.6935197"><ele>1118.5</ele><time>2015-04-27T12:39:32.0000000+00:00</time></trkpt><trkpt lat="34.9983669" lon="32.693538"><ele>1118.7</ele><time>2015-04-27T12:39:33.0000000+00:00</time></trkpt><trkpt lat="34.9983023" lon="32.693554"><ele>1118.8</ele><time>2015-04-27T12:39:34.0000000+00:00</time></trkpt><trkpt lat="34.9982428" lon="32.6935748"><ele>1118.4</ele><time>2015-04-27T12:39:35.0000000+00:00</time></trkpt><trkpt lat="34.9981835" lon="32.6935941"><ele>1118.2</ele><time>2015-04-27T12:39:36.0000000+00:00</time></trkpt><trkpt lat="34.9981187" lon="32.6936311"><ele>1118.5</ele><time>2015-04-27T12:39:37.0000000+00:00</time></trkpt><trkpt lat="34.9980741" lon="32.693652"><ele>1118.2</ele><time>2015-04-27T12:39:38.0000000+00:00</time></trkpt><trkpt lat="34.9980188" lon="32.6936895"><ele>1118.1</ele><time>2015-04-27T12:39:39.0000000+00:00</time></trkpt><trkpt lat="34.9979646" lon="32.6937293"><ele>1117.5</ele><time>2015-04-27T12:39:40.0000000+00:00</time></trkpt><trkpt lat="34.997928" lon="32.6937931"><ele>1117.7</ele><time>2015-04-27T12:39:41.0000000+00:00</time></trkpt><trkpt lat="34.9979008" lon="32.6938687"><ele>1117.3</ele><time>2015-04-27T12:39:42.0000000+00:00</time></trkpt><trkpt lat="34.9978873" lon="32.6939588"><ele>1117.6</ele><time>2015-04-27T12:39:43.0000000+00:00</time></trkpt><trkpt lat="34.997896" lon="32.6940382"><ele>1117.8</ele><time>2015-04-27T12:39:44.0000000+00:00</time></trkpt><trkpt lat="34.9979164" lon="32.6941231"><ele>1118.4</ele><time>2015-04-27T12:39:45.0000000+00:00</time></trkpt><trkpt lat="34.9979429" lon="32.6942"><ele>1118.6</ele><time>2015-04-27T12:39:46.0000000+00:00</time></trkpt><trkpt lat="34.997971" lon="32.6942741"><ele>1118.3</ele><time>2015-04-27T12:39:47.0000000+00:00</time></trkpt><trkpt lat="34.9979975" lon="32.6943552"><ele>1118.1</ele><time>2015-04-27T12:39:48.0000000+00:00</time></trkpt><trkpt lat="34.9980281" lon="32.6944362"><ele>1118.0</ele><time>2015-04-27T12:39:49.0000000+00:00</time></trkpt><trkpt lat="34.9980583" lon="32.6945122"><ele>1118.0</ele><time>2015-04-27T12:39:50.0000000+00:00</time></trkpt><trkpt lat="34.9980775" lon="32.6945912"><ele>1118.0</ele><time>2015-04-27T12:39:51.0000000+00:00</time></trkpt><trkpt lat="34.998081" lon="32.6946725"><ele>1117.9</ele><time>2015-04-27T12:39:52.0000000+00:00</time></trkpt><trkpt lat="34.9980823" lon="32.694755"><ele>1117.4</ele><time>2015-04-27T12:39:53.0000000+00:00</time></trkpt><trkpt lat="34.9980787" lon="32.6948446"><ele>1116.7</ele><time>2015-04-27T12:39:54.0000000+00:00</time></trkpt><trkpt lat="34.9980784" lon="32.6949334"><ele>1115.8</ele><time>2015-04-27T12:39:55.0000000+00:00</time></trkpt><trkpt lat="34.9980708" lon="32.6950165"><ele>1115.4</ele><time>2015-04-27T12:39:56.0000000+00:00</time></trkpt><trkpt lat="34.9980563" lon="32.695097"><ele>1114.6</ele><time>2015-04-27T12:39:57.0000000+00:00</time></trkpt><trkpt lat="34.9980391" lon="32.6951787"><ele>1114.3</ele><time>2015-04-27T12:39:58.0000000+00:00</time></trkpt><trkpt lat="34.9980177" lon="32.6952579"><ele>1114.1</ele><time>2015-04-27T12:39:59.0000000+00:00</time></trkpt><trkpt lat="34.9979907" lon="32.6953358"><ele>1114.0</ele><time>2015-04-27T12:40:00.0000000+00:00</time></trkpt><trkpt lat="34.9979613" lon="32.695413"><ele>1114.0</ele><time>2015-04-27T12:40:01.0000000+00:00</time></trkpt><trkpt lat="34.997931" lon="32.6954869"><ele>1113.5</ele><time>2015-04-27T12:40:02.0000000+00:00</time></trkpt><trkpt lat="34.997902" lon="32.6955681"><ele>1113.2</ele><time>2015-04-27T12:40:03.0000000+00:00</time></trkpt><trkpt lat="34.9978725" lon="32.6956472"><ele>1113.1</ele><time>2015-04-27T12:40:04.0000000+00:00</time></trkpt><trkpt lat="34.9978445" lon="32.6957263"><ele>1112.5</ele><time>2015-04-27T12:40:05.0000000+00:00</time></trkpt><trkpt lat="34.9978283" lon="32.6958089"><ele>1111.7</ele><time>2015-04-27T12:40:06.0000000+00:00</time></trkpt><trkpt lat="34.9978277" lon="32.6958918"><ele>1111.3</ele><time>2015-04-27T12:40:07.0000000+00:00</time></trkpt><trkpt lat="34.9978441" lon="32.6959759"><ele>1111.1</ele><time>2015-04-27T12:40:08.0000000+00:00</time></trkpt><trkpt lat="34.9978671" lon="32.6960553"><ele>1110.5</ele><time>2015-04-27T12:40:09.0000000+00:00</time></trkpt><trkpt lat="34.9978994" lon="32.6961407"><ele>1110.2</ele><time>2015-04-27T12:40:10.0000000+00:00</time></trkpt><trkpt lat="34.9979376" lon="32.6962196"><ele>1110.1</ele><time>2015-04-27T12:40:11.0000000+00:00</time></trkpt><trkpt lat="34.9979783" lon="32.696291"><ele>1110.0</ele><time>2015-04-27T12:40:12.0000000+00:00</time></trkpt><trkpt lat="34.9980142" lon="32.6963656"><ele>1110.0</ele><time>2015-04-27T12:40:13.0000000+00:00</time></trkpt><trkpt lat="34.9980484" lon="32.6964398"><ele>1109.9</ele><time>2015-04-27T12:40:14.0000000+00:00</time></trkpt><trkpt lat="34.9980759" lon="32.6965235"><ele>1109.4</ele><time>2015-04-27T12:40:15.0000000+00:00</time></trkpt><trkpt lat="34.9980922" lon="32.6966185"><ele>1109.2</ele><time>2015-04-27T12:40:16.0000000+00:00</time></trkpt><trkpt lat="34.9980972" lon="32.6967117"><ele>1109.1</ele><time>2015-04-27T12:40:17.0000000+00:00</time></trkpt><trkpt lat="34.9980911" lon="32.6967976"><ele>1109.0</ele><time>2015-04-27T12:40:18.0000000+00:00</time></trkpt><trkpt lat="34.9980634" lon="32.6968759"><ele>1109.0</ele><time>2015-04-27T12:40:19.0000000+00:00</time></trkpt><trkpt lat="34.9980186" lon="32.6969408"><ele>1108.9</ele><time>2015-04-27T12:40:20.0000000+00:00</time></trkpt><trkpt lat="34.9979533" lon="32.696992"><ele>1108.9</ele><time>2015-04-27T12:40:21.0000000+00:00</time></trkpt><trkpt lat="34.9978908" lon="32.6970282"><ele>1108.9</ele><time>2015-04-27T12:40:22.0000000+00:00</time></trkpt><trkpt lat="34.9978315" lon="32.697063"><ele>1108.9</ele><time>2015-04-27T12:40:23.0000000+00:00</time></trkpt><trkpt lat="34.9977718" lon="32.6971012"><ele>1109.4</ele><time>2015-04-27T12:40:24.0000000+00:00</time></trkpt><trkpt lat="34.9977077" lon="32.6971303"><ele>1109.2</ele><time>2015-04-27T12:40:25.0000000+00:00</time></trkpt><trkpt lat="34.9976437" lon="32.6971561"><ele>1109.1</ele><time>2015-04-27T12:40:26.0000000+00:00</time></trkpt><trkpt lat="34.9975822" lon="32.6971817"><ele>1109.0</ele><time>2015-04-27T12:40:27.0000000+00:00</time></trkpt><trkpt lat="34.9975267" lon="32.6971994"><ele>1109.0</ele><time>2015-04-27T12:40:28.0000000+00:00</time></trkpt><trkpt lat="34.9974716" lon="32.6972206"><ele>1108.9</ele><time>2015-04-27T12:40:29.0000000+00:00</time></trkpt><trkpt lat="34.9974075" lon="32.697244"><ele>1108.9</ele><time>2015-04-27T12:40:30.0000000+00:00</time></trkpt><trkpt lat="34.9973435" lon="32.6972708"><ele>1108.4</ele><time>2015-04-27T12:40:31.0000000+00:00</time></trkpt><trkpt lat="34.997283" lon="32.6972894"><ele>1108.7</ele><time>2015-04-27T12:40:32.0000000+00:00</time></trkpt><trkpt lat="34.9972224" lon="32.6973098"><ele>1108.3</ele><time>2015-04-27T12:40:33.0000000+00:00</time></trkpt><trkpt lat="34.9971643" lon="32.6973288"><ele>1108.6</ele><time>2015-04-27T12:40:34.0000000+00:00</time></trkpt><trkpt lat="34.9971013" lon="32.6973573"><ele>1108.8</ele><time>2015-04-27T12:40:35.0000000+00:00</time></trkpt><trkpt lat="34.9970577" lon="32.6973749"><ele>1108.9</ele><time>2015-04-27T12:40:36.0000000+00:00</time></trkpt><trkpt lat="34.9970053" lon="32.6973921"><ele>1108.9</ele><time>2015-04-27T12:40:37.0000000+00:00</time></trkpt><trkpt lat="34.9969536" lon="32.6974089"><ele>1108.9</ele><time>2015-04-27T12:40:38.0000000+00:00</time></trkpt><trkpt lat="34.9969098" lon="32.6974304"><ele>1108.9</ele><time>2015-04-27T12:40:39.0000000+00:00</time></trkpt><trkpt lat="34.9968646" lon="32.6974637"><ele>1108.9</ele><time>2015-04-27T12:40:40.0000000+00:00</time></trkpt><trkpt lat="34.9968208" lon="32.6974935"><ele>1108.9</ele><time>2015-04-27T12:40:41.0000000+00:00</time></trkpt><trkpt lat="34.9967528" lon="32.6975483"><ele>1110.2</ele><time>2015-04-27T12:40:43.0000000+00:00</time></trkpt><trkpt lat="34.9966782" lon="32.6976023"><ele>1110.7</ele><time>2015-04-27T12:40:45.0000000+00:00</time></trkpt><trkpt lat="34.9966074" lon="32.6976565"><ele>1110.9</ele><time>2015-04-27T12:40:47.0000000+00:00</time></trkpt><trkpt lat="34.9965686" lon="32.6976929"><ele>1110.4</ele><time>2015-04-27T12:40:48.0000000+00:00</time></trkpt><trkpt lat="34.9965332" lon="32.6977374"><ele>1110.2</ele><time>2015-04-27T12:40:49.0000000+00:00</time></trkpt><trkpt lat="34.9964946" lon="32.6977848"><ele>1109.5</ele><time>2015-04-27T12:40:50.0000000+00:00</time></trkpt><trkpt lat="34.9964716" lon="32.6978493"><ele>1109.2</ele><time>2015-04-27T12:40:51.0000000+00:00</time></trkpt><trkpt lat="34.9964706" lon="32.6979718"><ele>1111.0</ele><time>2015-04-27T12:40:53.0000000+00:00</time></trkpt><trkpt lat="34.9964863" lon="32.6980442"><ele>1111.5</ele><time>2015-04-27T12:40:54.0000000+00:00</time></trkpt><trkpt lat="34.9965088" lon="32.698122"><ele>1111.7</ele><time>2015-04-27T12:40:55.0000000+00:00</time></trkpt><trkpt lat="34.9965375" lon="32.6981849"><ele>1111.3</ele><time>2015-04-27T12:40:56.0000000+00:00</time></trkpt><trkpt lat="34.9965735" lon="32.6982517"><ele>1110.1</ele><time>2015-04-27T12:40:57.0000000+00:00</time></trkpt><trkpt lat="34.9966108" lon="32.6983163"><ele>1109.0</ele><time>2015-04-27T12:40:58.0000000+00:00</time></trkpt><trkpt lat="34.9966515" lon="32.6983812"><ele>1108.5</ele><time>2015-04-27T12:40:59.0000000+00:00</time></trkpt><trkpt lat="34.9966931" lon="32.6984428"><ele>1107.7</ele><time>2015-04-27T12:41:00.0000000+00:00</time></trkpt><trkpt lat="34.9967395" lon="32.6984973"><ele>1106.8</ele><time>2015-04-27T12:41:01.0000000+00:00</time></trkpt><trkpt lat="34.9967712" lon="32.698541"><ele>1105.4</ele><time>2015-04-27T12:41:02.0000000+00:00</time></trkpt><trkpt lat="34.9968212" lon="32.6985979"><ele>1103.7</ele><time>2015-04-27T12:41:03.0000000+00:00</time></trkpt><trkpt lat="34.9968777" lon="32.6986556"><ele>1103.8</ele><time>2015-04-27T12:41:04.0000000+00:00</time></trkpt><trkpt lat="34.9969275" lon="32.6987212"><ele>1103.4</ele><time>2015-04-27T12:41:05.0000000+00:00</time></trkpt><trkpt lat="34.996964" lon="32.6987918"><ele>1102.6</ele><time>2015-04-27T12:41:06.0000000+00:00</time></trkpt><trkpt lat="34.9969902" lon="32.6988761"><ele>1102.3</ele><time>2015-04-27T12:41:07.0000000+00:00</time></trkpt><trkpt lat="34.997" lon="32.6989586"><ele>1102.1</ele><time>2015-04-27T12:41:08.0000000+00:00</time></trkpt><trkpt lat="34.9969896" lon="32.6990376"><ele>1101.0</ele><time>2015-04-27T12:41:09.0000000+00:00</time></trkpt><trkpt lat="34.9969833" lon="32.6991216"><ele>1100.5</ele><time>2015-04-27T12:41:10.0000000+00:00</time></trkpt><trkpt lat="34.9969779" lon="32.6991994"><ele>1100.2</ele><time>2015-04-27T12:41:11.0000000+00:00</time></trkpt><trkpt lat="34.9969734" lon="32.6992799"><ele>1100.1</ele><time>2015-04-27T12:41:12.0000000+00:00</time></trkpt><trkpt lat="34.9969836" lon="32.6993643"><ele>1100.5</ele><time>2015-04-27T12:41:13.0000000+00:00</time></trkpt><trkpt lat="34.996996" lon="32.6994453"><ele>1101.2</ele><time>2015-04-27T12:41:14.0000000+00:00</time></trkpt><trkpt lat="34.9970182" lon="32.6995191"><ele>1101.1</ele><time>2015-04-27T12:41:15.0000000+00:00</time></trkpt><trkpt lat="34.9970423" lon="32.6995939"><ele>1101.0</ele><time>2015-04-27T12:41:16.0000000+00:00</time></trkpt><trkpt lat="34.9970692" lon="32.6996661"><ele>1100.5</ele><time>2015-04-27T12:41:17.0000000+00:00</time></trkpt><trkpt lat="34.9970966" lon="32.6997422"><ele>1100.2</ele><time>2015-04-27T12:41:18.0000000+00:00</time></trkpt><trkpt lat="34.9971226" lon="32.6998152"><ele>1099.6</ele><time>2015-04-27T12:41:19.0000000+00:00</time></trkpt><trkpt lat="34.9971494" lon="32.6998877"><ele>1098.7</ele><time>2015-04-27T12:41:20.0000000+00:00</time></trkpt><trkpt lat="34.9971747" lon="32.699957"><ele>1098.3</ele><time>2015-04-27T12:41:21.0000000+00:00</time></trkpt><trkpt lat="34.9971969" lon="32.7000294"><ele>1098.6</ele><time>2015-04-27T12:41:22.0000000+00:00</time></trkpt><trkpt lat="34.9972236" lon="32.7001075"><ele>1098.8</ele><time>2015-04-27T12:41:23.0000000+00:00</time></trkpt><trkpt lat="34.9972477" lon="32.7002018"><ele>1098.4</ele><time>2015-04-27T12:41:24.0000000+00:00</time></trkpt><trkpt lat="34.9972781" lon="32.7002786"><ele>1098.1</ele><time>2015-04-27T12:41:25.0000000+00:00</time></trkpt><trkpt lat="34.9973131" lon="32.7003579"><ele>1098.0</ele><time>2015-04-27T12:41:26.0000000+00:00</time></trkpt><trkpt lat="34.9973534" lon="32.7004412"><ele>1097.5</ele><time>2015-04-27T12:41:27.0000000+00:00</time></trkpt><trkpt lat="34.9974048" lon="32.7005192"><ele>1097.2</ele><time>2015-04-27T12:41:28.0000000+00:00</time></trkpt><trkpt lat="34.9974622" lon="32.7005924"><ele>1096.1</ele><time>2015-04-27T12:41:29.0000000+00:00</time></trkpt><trkpt lat="34.9975203" lon="32.7006518"><ele>1095.5</ele><time>2015-04-27T12:41:30.0000000+00:00</time></trkpt><trkpt lat="34.9975742" lon="32.7007217"><ele>1095.2</ele><time>2015-04-27T12:41:31.0000000+00:00</time></trkpt><trkpt lat="34.9976171" lon="32.7008144"><ele>1094.6</ele><time>2015-04-27T12:41:32.0000000+00:00</time></trkpt><trkpt lat="34.997655" lon="32.7009029"><ele>1094.3</ele><time>2015-04-27T12:41:33.0000000+00:00</time></trkpt><trkpt lat="34.9976694" lon="32.7009996"><ele>1094.1</ele><time>2015-04-27T12:41:34.0000000+00:00</time></trkpt><trkpt lat="34.9976717" lon="32.7010976"><ele>1094.0</ele><time>2015-04-27T12:41:35.0000000+00:00</time></trkpt><trkpt lat="34.9976938" lon="32.7011944"><ele>1094.0</ele><time>2015-04-27T12:41:36.0000000+00:00</time></trkpt><trkpt lat="34.9977375" lon="32.7012756"><ele>1094.5</ele><time>2015-04-27T12:41:37.0000000+00:00</time></trkpt><trkpt lat="34.9977856" lon="32.7013529"><ele>1094.7</ele><time>2015-04-27T12:41:38.0000000+00:00</time></trkpt><trkpt lat="34.9978497" lon="32.7014251"><ele>1094.8</ele><time>2015-04-27T12:41:39.0000000+00:00</time></trkpt><trkpt lat="34.9979032" lon="32.7014793"><ele>1094.9</ele><time>2015-04-27T12:41:40.0000000+00:00</time></trkpt><trkpt lat="34.9979397" lon="32.7015323"><ele>1094.9</ele><time>2015-04-27T12:41:41.0000000+00:00</time></trkpt><trkpt lat="34.997967" lon="32.7015956"><ele>1094.4</ele><time>2015-04-27T12:41:42.0000000+00:00</time></trkpt><trkpt lat="34.9979848" lon="32.7016627"><ele>1094.2</ele><time>2015-04-27T12:41:43.0000000+00:00</time></trkpt><trkpt lat="34.9979792" lon="32.7017309"><ele>1094.1</ele><time>2015-04-27T12:41:44.0000000+00:00</time></trkpt><trkpt lat="34.9979593" lon="32.7018023"><ele>1093.5</ele><time>2015-04-27T12:41:45.0000000+00:00</time></trkpt><trkpt lat="34.9979394" lon="32.7018754"><ele>1093.7</ele><time>2015-04-27T12:41:46.0000000+00:00</time></trkpt><trkpt lat="34.9979182" lon="32.7019526"><ele>1093.8</ele><time>2015-04-27T12:41:47.0000000+00:00</time></trkpt><trkpt lat="34.997904" lon="32.7020408"><ele>1093.4</ele><time>2015-04-27T12:41:48.0000000+00:00</time></trkpt><trkpt lat="34.997904" lon="32.7021286"><ele>1093.7</ele><time>2015-04-27T12:41:49.0000000+00:00</time></trkpt><trkpt lat="34.9979065" lon="32.7022139"><ele>1093.8</ele><time>2015-04-27T12:41:50.0000000+00:00</time></trkpt><trkpt lat="34.9979149" lon="32.7022978"><ele>1093.9</ele><time>2015-04-27T12:41:51.0000000+00:00</time></trkpt><trkpt lat="34.9979276" lon="32.7023815"><ele>1094.4</ele><time>2015-04-27T12:41:52.0000000+00:00</time></trkpt><trkpt lat="34.9979421" lon="32.7024587"><ele>1094.7</ele><time>2015-04-27T12:41:53.0000000+00:00</time></trkpt><trkpt lat="34.9979574" lon="32.7025363"><ele>1094.8</ele><time>2015-04-27T12:41:54.0000000+00:00</time></trkpt><trkpt lat="34.997967" lon="32.7026195"><ele>1095.4</ele><time>2015-04-27T12:41:55.0000000+00:00</time></trkpt><trkpt lat="34.9979701" lon="32.7027043"><ele>1095.6</ele><time>2015-04-27T12:41:56.0000000+00:00</time></trkpt><trkpt lat="34.9979639" lon="32.7027803"><ele>1095.3</ele><time>2015-04-27T12:41:57.0000000+00:00</time></trkpt><trkpt lat="34.9979535" lon="32.7028666"><ele>1095.1</ele><time>2015-04-27T12:41:58.0000000+00:00</time></trkpt><trkpt lat="34.99795" lon="32.7029561"><ele>1095.0</ele><time>2015-04-27T12:41:59.0000000+00:00</time></trkpt><trkpt lat="34.9979551" lon="32.7030449"><ele>1095.0</ele><time>2015-04-27T12:42:00.0000000+00:00</time></trkpt><trkpt lat="34.9979616" lon="32.7031241"><ele>1095.0</ele><time>2015-04-27T12:42:01.0000000+00:00</time></trkpt><trkpt lat="34.9979804" lon="32.7032076"><ele>1094.9</ele><time>2015-04-27T12:42:02.0000000+00:00</time></trkpt><trkpt lat="34.9980176" lon="32.7032872"><ele>1094.9</ele><time>2015-04-27T12:42:03.0000000+00:00</time></trkpt><trkpt lat="34.9980758" lon="32.7033506"><ele>1094.9</ele><time>2015-04-27T12:42:04.0000000+00:00</time></trkpt><trkpt lat="34.9981355" lon="32.7033947"><ele>1094.9</ele><time>2015-04-27T12:42:05.0000000+00:00</time></trkpt><trkpt lat="34.9981955" lon="32.7034373"><ele>1094.9</ele><time>2015-04-27T12:42:06.0000000+00:00</time></trkpt><trkpt lat="34.9982505" lon="32.7034852"><ele>1094.9</ele><time>2015-04-27T12:42:07.0000000+00:00</time></trkpt><trkpt lat="34.9983028" lon="32.7035418"><ele>1094.9</ele><time>2015-04-27T12:42:08.0000000+00:00</time></trkpt><trkpt lat="34.9983463" lon="32.7036066"><ele>1094.4</ele><time>2015-04-27T12:42:09.0000000+00:00</time></trkpt><trkpt lat="34.9983799" lon="32.7036796"><ele>1094.7</ele><time>2015-04-27T12:42:10.0000000+00:00</time></trkpt><trkpt lat="34.9984121" lon="32.7037544"><ele>1094.3</ele><time>2015-04-27T12:42:11.0000000+00:00</time></trkpt><trkpt lat="34.9984525" lon="32.703828"><ele>1094.1</ele><time>2015-04-27T12:42:12.0000000+00:00</time></trkpt><trkpt lat="34.9985047" lon="32.7039039"><ele>1093.5</ele><time>2015-04-27T12:42:13.0000000+00:00</time></trkpt><trkpt lat="34.9985567" lon="32.703967"><ele>1092.7</ele><time>2015-04-27T12:42:14.0000000+00:00</time></trkpt><trkpt lat="34.9986137" lon="32.7040316"><ele>1092.3</ele><time>2015-04-27T12:42:15.0000000+00:00</time></trkpt><trkpt lat="34.9986752" lon="32.7041048"><ele>1092.1</ele><time>2015-04-27T12:42:16.0000000+00:00</time></trkpt><trkpt lat="34.9987512" lon="32.704159"><ele>1092.0</ele><time>2015-04-27T12:42:17.0000000+00:00</time></trkpt><trkpt lat="34.998829" lon="32.7041922"><ele>1091.5</ele><time>2015-04-27T12:42:18.0000000+00:00</time></trkpt><trkpt lat="34.9989104" lon="32.7041957"><ele>1091.2</ele><time>2015-04-27T12:42:19.0000000+00:00</time></trkpt><trkpt lat="34.9989911" lon="32.7041857"><ele>1091.1</ele><time>2015-04-27T12:42:20.0000000+00:00</time></trkpt><trkpt lat="34.9990732" lon="32.704159"><ele>1090.5</ele><time>2015-04-27T12:42:21.0000000+00:00</time></trkpt><trkpt lat="34.9991447" lon="32.7041274"><ele>1090.2</ele><time>2015-04-27T12:42:22.0000000+00:00</time></trkpt><trkpt lat="34.9992258" lon="32.704122"><ele>1090.1</ele><time>2015-04-27T12:42:23.0000000+00:00</time></trkpt><trkpt lat="34.999306" lon="32.7041369"><ele>1089.5</ele><time>2015-04-27T12:42:24.0000000+00:00</time></trkpt><trkpt lat="34.9993892" lon="32.7041723"><ele>1088.2</ele><time>2015-04-27T12:42:25.0000000+00:00</time></trkpt><trkpt lat="34.9994673" lon="32.7041879"><ele>1087.1</ele><time>2015-04-27T12:42:26.0000000+00:00</time></trkpt><trkpt lat="34.9995494" lon="32.7042209"><ele>1086.0</ele><time>2015-04-27T12:42:27.0000000+00:00</time></trkpt><trkpt lat="34.9996344" lon="32.704248"><ele>1085.0</ele><time>2015-04-27T12:42:28.0000000+00:00</time></trkpt><trkpt lat="34.9997196" lon="32.7042626"><ele>1084.9</ele><time>2015-04-27T12:42:29.0000000+00:00</time></trkpt><trkpt lat="34.9998025" lon="32.7042736"><ele>1084.4</ele><time>2015-04-27T12:42:30.0000000+00:00</time></trkpt><trkpt lat="34.9998804" lon="32.704279"><ele>1083.7</ele><time>2015-04-27T12:42:31.0000000+00:00</time></trkpt><trkpt lat="34.9999452" lon="32.7042962"><ele>1082.8</ele><time>2015-04-27T12:42:32.0000000+00:00</time></trkpt><trkpt lat="35.0000068" lon="32.704346"><ele>1082.4</ele><time>2015-04-27T12:42:33.0000000+00:00</time></trkpt><trkpt lat="35.0000543" lon="32.704421"><ele>1081.6</ele><time>2015-04-27T12:42:34.0000000+00:00</time></trkpt><trkpt lat="35.0000797" lon="32.7045114"><ele>1081.3</ele><time>2015-04-27T12:42:35.0000000+00:00</time></trkpt><trkpt lat="35.000097" lon="32.7045992"><ele>1080.6</ele><time>2015-04-27T12:42:36.0000000+00:00</time></trkpt><trkpt lat="35.0001123" lon="32.704687"><ele>1080.3</ele><time>2015-04-27T12:42:37.0000000+00:00</time></trkpt><trkpt lat="35.0001378" lon="32.7047721"><ele>1080.1</ele><time>2015-04-27T12:42:38.0000000+00:00</time></trkpt><trkpt lat="35.0001734" lon="32.7048649"><ele>1080.5</ele><time>2015-04-27T12:42:39.0000000+00:00</time></trkpt><trkpt lat="35.0002169" lon="32.7049497"><ele>1080.2</ele><time>2015-04-27T12:42:40.0000000+00:00</time></trkpt><trkpt lat="35.0002742" lon="32.7050273"><ele>1079.6</ele><time>2015-04-27T12:42:41.0000000+00:00</time></trkpt><trkpt lat="35.0003499" lon="32.7050701"><ele>1079.3</ele><time>2015-04-27T12:42:42.0000000+00:00</time></trkpt><trkpt lat="35.0004261" lon="32.7050976"><ele>1079.1</ele><time>2015-04-27T12:42:43.0000000+00:00</time></trkpt><trkpt lat="35.0005092" lon="32.7051112"><ele>1078.5</ele><time>2015-04-27T12:42:44.0000000+00:00</time></trkpt><trkpt lat="35.0005957" lon="32.7051382"><ele>1077.7</ele><time>2015-04-27T12:42:45.0000000+00:00</time></trkpt><trkpt lat="35.0006859" lon="32.705148"><ele>1077.8</ele><time>2015-04-27T12:42:46.0000000+00:00</time></trkpt><trkpt lat="35.0007694" lon="32.7051358"><ele>1077.9</ele><time>2015-04-27T12:42:47.0000000+00:00</time></trkpt><trkpt lat="35.0008582" lon="32.705112"><ele>1078.4</ele><time>2015-04-27T12:42:48.0000000+00:00</time></trkpt><trkpt lat="35.0009468" lon="32.7050958"><ele>1078.7</ele><time>2015-04-27T12:42:49.0000000+00:00</time></trkpt><trkpt lat="35.0010404" lon="32.705106"><ele>1077.8</ele><time>2015-04-27T12:42:50.0000000+00:00</time></trkpt><trkpt lat="35.0011383" lon="32.7051172"><ele>1076.9</ele><time>2015-04-27T12:42:51.0000000+00:00</time></trkpt><trkpt lat="35.0012333" lon="32.7051151"><ele>1076.9</ele><time>2015-04-27T12:42:52.0000000+00:00</time></trkpt><trkpt lat="35.001324" lon="32.7051197"><ele>1076.4</ele><time>2015-04-27T12:42:53.0000000+00:00</time></trkpt><trkpt lat="35.0013826" lon="32.7050207"><ele>1076.2</ele><time>2015-04-27T12:42:54.0000000+00:00</time></trkpt><trkpt lat="35.0014354" lon="32.7049339"><ele>1076.1</ele><time>2015-04-27T12:42:55.0000000+00:00</time></trkpt><trkpt lat="35.0014961" lon="32.7048622"><ele>1076.5</ele><time>2015-04-27T12:42:56.0000000+00:00</time></trkpt><trkpt lat="35.0015515" lon="32.7047904"><ele>1076.2</ele><time>2015-04-27T12:42:57.0000000+00:00</time></trkpt><trkpt lat="35.0016124" lon="32.704726"><ele>1075.6</ele><time>2015-04-27T12:42:58.0000000+00:00</time></trkpt><trkpt lat="35.001674" lon="32.7046512"><ele>1075.2</ele><time>2015-04-27T12:42:59.0000000+00:00</time></trkpt><trkpt lat="35.0017323" lon="32.7045754"><ele>1075.1</ele><time>2015-04-27T12:43:00.0000000+00:00</time></trkpt><trkpt lat="35.0017864" lon="32.7044938"><ele>1074.5</ele><time>2015-04-27T12:43:01.0000000+00:00</time></trkpt><trkpt lat="35.0018447" lon="32.7044157"><ele>1073.7</ele><time>2015-04-27T12:43:02.0000000+00:00</time></trkpt><trkpt lat="35.0019061" lon="32.7043441"><ele>1072.8</ele><time>2015-04-27T12:43:03.0000000+00:00</time></trkpt><trkpt lat="35.0019805" lon="32.7042824"><ele>1071.9</ele><time>2015-04-27T12:43:04.0000000+00:00</time></trkpt><trkpt lat="35.0020482" lon="32.7042157"><ele>1071.4</ele><time>2015-04-27T12:43:05.0000000+00:00</time></trkpt><trkpt lat="35.0021082" lon="32.7041459"><ele>1070.7</ele><time>2015-04-27T12:43:06.0000000+00:00</time></trkpt><trkpt lat="35.0021613" lon="32.7040883"><ele>1070.3</ele><time>2015-04-27T12:43:07.0000000+00:00</time></trkpt><trkpt lat="35.0022374" lon="32.704053"><ele>1069.1</ele><time>2015-04-27T12:43:08.0000000+00:00</time></trkpt><trkpt lat="35.0023062" lon="32.7040412"><ele>1068.5</ele><time>2015-04-27T12:43:09.0000000+00:00</time></trkpt><trkpt lat="35.0023798" lon="32.7040669"><ele>1067.7</ele><time>2015-04-27T12:43:10.0000000+00:00</time></trkpt><trkpt lat="35.002446" lon="32.7041155"><ele>1067.3</ele><time>2015-04-27T12:43:11.0000000+00:00</time></trkpt><trkpt lat="35.0025014" lon="32.7041787"><ele>1067.1</ele><time>2015-04-27T12:43:12.0000000+00:00</time></trkpt><trkpt lat="35.0025563" lon="32.7042449"><ele>1067.0</ele><time>2015-04-27T12:43:13.0000000+00:00</time></trkpt><trkpt lat="35.0026124" lon="32.7043081"><ele>1067.0</ele><time>2015-04-27T12:43:14.0000000+00:00</time></trkpt><trkpt lat="35.0026706" lon="32.7043727"><ele>1067.0</ele><time>2015-04-27T12:43:15.0000000+00:00</time></trkpt><trkpt lat="35.0027207" lon="32.7044335"><ele>1066.9</ele><time>2015-04-27T12:43:16.0000000+00:00</time></trkpt><trkpt lat="35.002787" lon="32.704487"><ele>1066.4</ele><time>2015-04-27T12:43:17.0000000+00:00</time></trkpt><trkpt lat="35.0028637" lon="32.7045298"><ele>1066.2</ele><time>2015-04-27T12:43:18.0000000+00:00</time></trkpt><trkpt lat="35.0029383" lon="32.7045692"><ele>1066.1</ele><time>2015-04-27T12:43:19.0000000+00:00</time></trkpt><trkpt lat="35.0030171" lon="32.704601"><ele>1066.0</ele><time>2015-04-27T12:43:20.0000000+00:00</time></trkpt><trkpt lat="35.0030917" lon="32.7046493"><ele>1066.0</ele><time>2015-04-27T12:43:21.0000000+00:00</time></trkpt><trkpt lat="35.0031585" lon="32.7047078"><ele>1065.4</ele><time>2015-04-27T12:43:22.0000000+00:00</time></trkpt><trkpt lat="35.0032423" lon="32.70478"><ele>1064.7</ele><time>2015-04-27T12:43:23.0000000+00:00</time></trkpt><trkpt lat="35.0033185" lon="32.7048476"><ele>1063.8</ele><time>2015-04-27T12:43:24.0000000+00:00</time></trkpt><trkpt lat="35.0034191" lon="32.7048862"><ele>1063.4</ele><time>2015-04-27T12:43:25.0000000+00:00</time></trkpt><trkpt lat="35.0035123" lon="32.7049115"><ele>1063.6</ele><time>2015-04-27T12:43:26.0000000+00:00</time></trkpt><trkpt lat="35.0036013" lon="32.7049602"><ele>1063.3</ele><time>2015-04-27T12:43:27.0000000+00:00</time></trkpt><trkpt lat="35.0036829" lon="32.7050037"><ele>1063.1</ele><time>2015-04-27T12:43:28.0000000+00:00</time></trkpt><trkpt lat="35.0037592" lon="32.7050604"><ele>1062.0</ele><time>2015-04-27T12:43:29.0000000+00:00</time></trkpt><trkpt lat="35.0038389" lon="32.7051122"><ele>1061.5</ele><time>2015-04-27T12:43:30.0000000+00:00</time></trkpt><trkpt lat="35.0039255" lon="32.7051505"><ele>1060.7</ele><time>2015-04-27T12:43:31.0000000+00:00</time></trkpt><trkpt lat="35.0040176" lon="32.7051659"><ele>1060.8</ele><time>2015-04-27T12:43:32.0000000+00:00</time></trkpt><trkpt lat="35.0041074" lon="32.7051834"><ele>1060.4</ele><time>2015-04-27T12:43:33.0000000+00:00</time></trkpt><trkpt lat="35.0041961" lon="32.7051856"><ele>1060.2</ele><time>2015-04-27T12:43:34.0000000+00:00</time></trkpt><trkpt lat="35.0042797" lon="32.705183"><ele>1060.0</ele><time>2015-04-27T12:43:35.0000000+00:00</time></trkpt><trkpt lat="35.0043571" lon="32.7051721"><ele>1059.5</ele><time>2015-04-27T12:43:36.0000000+00:00</time></trkpt><trkpt lat="35.0044382" lon="32.7051548"><ele>1058.7</ele><time>2015-04-27T12:43:37.0000000+00:00</time></trkpt><trkpt lat="35.0045178" lon="32.7051405"><ele>1058.8</ele><time>2015-04-27T12:43:38.0000000+00:00</time></trkpt><trkpt lat="35.0045985" lon="32.7051328"><ele>1058.4</ele><time>2015-04-27T12:43:39.0000000+00:00</time></trkpt><trkpt lat="35.0046832" lon="32.7051308"><ele>1058.2</ele><time>2015-04-27T12:43:40.0000000+00:00</time></trkpt><trkpt lat="35.0047642" lon="32.7051306"><ele>1057.5</ele><time>2015-04-27T12:43:41.0000000+00:00</time></trkpt><trkpt lat="35.0048422" lon="32.7051356"><ele>1057.2</ele><time>2015-04-27T12:43:42.0000000+00:00</time></trkpt><trkpt lat="35.0049201" lon="32.7051289"><ele>1057.1</ele><time>2015-04-27T12:43:43.0000000+00:00</time></trkpt><trkpt lat="35.0049958" lon="32.7051324"><ele>1056.5</ele><time>2015-04-27T12:43:44.0000000+00:00</time></trkpt><trkpt lat="35.0050709" lon="32.7051546"><ele>1055.7</ele><time>2015-04-27T12:43:45.0000000+00:00</time></trkpt><trkpt lat="35.0051429" lon="32.7051943"><ele>1055.3</ele><time>2015-04-27T12:43:46.0000000+00:00</time></trkpt><trkpt lat="35.0052144" lon="32.7052366"><ele>1055.1</ele><time>2015-04-27T12:43:47.0000000+00:00</time></trkpt><trkpt lat="35.0052897" lon="32.7052783"><ele>1055.0</ele><time>2015-04-27T12:43:48.0000000+00:00</time></trkpt><trkpt lat="35.0053626" lon="32.7053183"><ele>1054.5</ele><time>2015-04-27T12:43:49.0000000+00:00</time></trkpt><trkpt lat="35.005436" lon="32.705358"><ele>1054.7</ele><time>2015-04-27T12:43:50.0000000+00:00</time></trkpt><trkpt lat="35.0055114" lon="32.7053902"><ele>1054.8</ele><time>2015-04-27T12:43:51.0000000+00:00</time></trkpt><trkpt lat="35.005582" lon="32.7054156"><ele>1054.4</ele><time>2015-04-27T12:43:52.0000000+00:00</time></trkpt><trkpt lat="35.0056542" lon="32.7054336"><ele>1054.2</ele><time>2015-04-27T12:43:53.0000000+00:00</time></trkpt><trkpt lat="35.0057209" lon="32.7054488"><ele>1054.0</ele><time>2015-04-27T12:43:54.0000000+00:00</time></trkpt><trkpt lat="35.0057887" lon="32.7054858"><ele>1053.5</ele><time>2015-04-27T12:43:55.0000000+00:00</time></trkpt><trkpt lat="35.0058454" lon="32.7055365"><ele>1053.2</ele><time>2015-04-27T12:43:56.0000000+00:00</time></trkpt><trkpt lat="35.0058802" lon="32.7056265"><ele>1052.6</ele><time>2015-04-27T12:43:57.0000000+00:00</time></trkpt><trkpt lat="35.005891" lon="32.7057176"><ele>1052.2</ele><time>2015-04-27T12:43:58.0000000+00:00</time></trkpt><trkpt lat="35.0058821" lon="32.7057973"><ele>1051.6</ele><time>2015-04-27T12:43:59.0000000+00:00</time></trkpt><trkpt lat="35.0058432" lon="32.7058633"><ele>1051.3</ele><time>2015-04-27T12:44:00.0000000+00:00</time></trkpt><trkpt lat="35.0057943" lon="32.7059145"><ele>1051.1</ele><time>2015-04-27T12:44:01.0000000+00:00</time></trkpt><trkpt lat="35.0057363" lon="32.705936"><ele>1052.0</ele><time>2015-04-27T12:44:02.0000000+00:00</time></trkpt><trkpt lat="35.0056837" lon="32.705961"><ele>1053.0</ele><time>2015-04-27T12:44:03.0000000+00:00</time></trkpt><trkpt lat="35.0056346" lon="32.7059822"><ele>1053.5</ele><time>2015-04-27T12:44:04.0000000+00:00</time></trkpt><trkpt lat="35.0055821" lon="32.7059973"><ele>1053.7</ele><time>2015-04-27T12:44:05.0000000+00:00</time></trkpt><trkpt lat="35.0055257" lon="32.706004"><ele>1054.3</ele><time>2015-04-27T12:44:06.0000000+00:00</time></trkpt><trkpt lat="35.0054671" lon="32.7060078"><ele>1055.1</ele><time>2015-04-27T12:44:07.0000000+00:00</time></trkpt><trkpt lat="35.0054156" lon="32.7060183"><ele>1055.5</ele><time>2015-04-27T12:44:08.0000000+00:00</time></trkpt><trkpt lat="35.0053589" lon="32.7060257"><ele>1056.2</ele><time>2015-04-27T12:44:09.0000000+00:00</time></trkpt><trkpt lat="35.0053107" lon="32.7060423"><ele>1057.1</ele><time>2015-04-27T12:44:10.0000000+00:00</time></trkpt><trkpt lat="35.0052641" lon="32.7060599"><ele>1057.5</ele><time>2015-04-27T12:44:11.0000000+00:00</time></trkpt><trkpt lat="35.0051765" lon="32.706079"><ele>1058.3</ele><time>2015-04-27T12:44:13.0000000+00:00</time></trkpt><trkpt lat="35.0050984" lon="32.7060809"><ele>1058.8</ele><time>2015-04-27T12:44:15.0000000+00:00</time></trkpt><trkpt lat="35.005054" lon="32.7060932"><ele>1058.9</ele><time>2015-04-27T12:44:16.0000000+00:00</time></trkpt><trkpt lat="35.0050062" lon="32.7060988"><ele>1058.9</ele><time>2015-04-27T12:44:17.0000000+00:00</time></trkpt><trkpt lat="35.00495" lon="32.7060967"><ele>1058.9</ele><time>2015-04-27T12:44:18.0000000+00:00</time></trkpt><trkpt lat="35.0049021" lon="32.7061011"><ele>1058.9</ele><time>2015-04-27T12:44:19.0000000+00:00</time></trkpt><trkpt lat="35.0048565" lon="32.7060995"><ele>1058.9</ele><time>2015-04-27T12:44:20.0000000+00:00</time></trkpt><trkpt lat="35.0048004" lon="32.7061121"><ele>1059.4</ele><time>2015-04-27T12:44:21.0000000+00:00</time></trkpt><trkpt lat="35.0047447" lon="32.7061246"><ele>1059.7</ele><time>2015-04-27T12:44:22.0000000+00:00</time></trkpt><trkpt lat="35.0046889" lon="32.7061389"><ele>1059.8</ele><time>2015-04-27T12:44:23.0000000+00:00</time></trkpt><trkpt lat="35.004632" lon="32.706149"><ele>1059.9</ele><time>2015-04-27T12:44:24.0000000+00:00</time></trkpt><trkpt lat="35.0045756" lon="32.70617"><ele>1059.9</ele><time>2015-04-27T12:44:25.0000000+00:00</time></trkpt><trkpt lat="35.0045174" lon="32.706187"><ele>1059.9</ele><time>2015-04-27T12:44:26.0000000+00:00</time></trkpt><trkpt lat="35.0044688" lon="32.7062089"><ele>1059.9</ele><time>2015-04-27T12:44:27.0000000+00:00</time></trkpt><trkpt lat="35.004403" lon="32.7062273"><ele>1059.9</ele><time>2015-04-27T12:44:28.0000000+00:00</time></trkpt><trkpt lat="35.0043438" lon="32.7062451"><ele>1059.9</ele><time>2015-04-27T12:44:29.0000000+00:00</time></trkpt><trkpt lat="35.0042855" lon="32.7062694"><ele>1058.9</ele><time>2015-04-27T12:44:30.0000000+00:00</time></trkpt><trkpt lat="35.004224" lon="32.7062883"><ele>1058.9</ele><time>2015-04-27T12:44:31.0000000+00:00</time></trkpt><trkpt lat="35.0041666" lon="32.7063147"><ele>1058.9</ele><time>2015-04-27T12:44:32.0000000+00:00</time></trkpt><trkpt lat="35.0041233" lon="32.7063456"><ele>1058.9</ele><time>2015-04-27T12:44:33.0000000+00:00</time></trkpt><trkpt lat="35.0040828" lon="32.7063775"><ele>1059.4</ele><time>2015-04-27T12:44:34.0000000+00:00</time></trkpt><trkpt lat="35.0040432" lon="32.7064129"><ele>1059.7</ele><time>2015-04-27T12:44:35.0000000+00:00</time></trkpt><trkpt lat="35.0039977" lon="32.7064444"><ele>1059.8</ele><time>2015-04-27T12:44:36.0000000+00:00</time></trkpt><trkpt lat="35.0039371" lon="32.7064739"><ele>1059.4</ele><time>2015-04-27T12:44:37.0000000+00:00</time></trkpt><trkpt lat="35.0038577" lon="32.7065227"><ele>1059.0</ele><time>2015-04-27T12:44:39.0000000+00:00</time></trkpt><trkpt lat="35.0038052" lon="32.7065515"><ele>1058.5</ele><time>2015-04-27T12:44:40.0000000+00:00</time></trkpt><trkpt lat="35.0037516" lon="32.7065773"><ele>1058.2</ele><time>2015-04-27T12:44:41.0000000+00:00</time></trkpt><trkpt lat="35.0037052" lon="32.7066146"><ele>1058.1</ele><time>2015-04-27T12:44:42.0000000+00:00</time></trkpt><trkpt lat="35.0036709" lon="32.7066627"><ele>1058.0</ele><time>2015-04-27T12:44:43.0000000+00:00</time></trkpt><trkpt lat="35.0036168" lon="32.7067131"><ele>1058.0</ele><time>2015-04-27T12:44:44.0000000+00:00</time></trkpt><trkpt lat="35.0035737" lon="32.7067596"><ele>1057.9</ele><time>2015-04-27T12:44:45.0000000+00:00</time></trkpt><trkpt lat="35.0035104" lon="32.7068533"><ele>1058.7</ele><time>2015-04-27T12:44:47.0000000+00:00</time></trkpt><trkpt lat="35.0034561" lon="32.7069496"><ele>1058.1</ele><time>2015-04-27T12:44:49.0000000+00:00</time></trkpt><trkpt lat="35.0034124" lon="32.7069993"><ele>1058.0</ele><time>2015-04-27T12:44:50.0000000+00:00</time></trkpt><trkpt lat="35.0033792" lon="32.707048"><ele>1057.5</ele><time>2015-04-27T12:44:51.0000000+00:00</time></trkpt><trkpt lat="35.0033463" lon="32.7070879"><ele>1056.7</ele><time>2015-04-27T12:44:52.0000000+00:00</time></trkpt><trkpt lat="35.0033144" lon="32.7071348"><ele>1056.3</ele><time>2015-04-27T12:44:53.0000000+00:00</time></trkpt><trkpt lat="35.0032769" lon="32.7071815"><ele>1056.6</ele><time>2015-04-27T12:44:54.0000000+00:00</time></trkpt><trkpt lat="35.0032272" lon="32.7072747"><ele>1055.6</ele><time>2015-04-27T12:44:56.0000000+00:00</time></trkpt><trkpt lat="35.0032034" lon="32.7073235"><ele>1054.8</ele><time>2015-04-27T12:44:57.0000000+00:00</time></trkpt><trkpt lat="35.0031775" lon="32.7073772"><ele>1054.3</ele><time>2015-04-27T12:44:58.0000000+00:00</time></trkpt><trkpt lat="35.0031558" lon="32.7074375"><ele>1054.1</ele><time>2015-04-27T12:44:59.0000000+00:00</time></trkpt><trkpt lat="35.0031303" lon="32.7074966"><ele>1053.5</ele><time>2015-04-27T12:45:00.0000000+00:00</time></trkpt><trkpt lat="35.0031033" lon="32.707547"><ele>1052.7</ele><time>2015-04-27T12:45:01.0000000+00:00</time></trkpt><trkpt lat="35.0030814" lon="32.707601"><ele>1052.8</ele><time>2015-04-27T12:45:02.0000000+00:00</time></trkpt><trkpt lat="35.0030539" lon="32.7076479"><ele>1052.9</ele><time>2015-04-27T12:45:03.0000000+00:00</time></trkpt><trkpt lat="35.0030245" lon="32.7076942"><ele>1052.9</ele><time>2015-04-27T12:45:04.0000000+00:00</time></trkpt><trkpt lat="35.0029919" lon="32.7077422"><ele>1052.9</ele><time>2015-04-27T12:45:05.0000000+00:00</time></trkpt><trkpt lat="35.0029617" lon="32.7077856"><ele>1052.4</ele><time>2015-04-27T12:45:06.0000000+00:00</time></trkpt><trkpt lat="35.0029316" lon="32.7078316"><ele>1052.2</ele><time>2015-04-27T12:45:07.0000000+00:00</time></trkpt><trkpt lat="35.0029031" lon="32.7078779"><ele>1051.6</ele><time>2015-04-27T12:45:08.0000000+00:00</time></trkpt><trkpt lat="35.0028758" lon="32.7079227"><ele>1050.7</ele><time>2015-04-27T12:45:09.0000000+00:00</time></trkpt><trkpt lat="35.0028472" lon="32.7079686"><ele>1049.8</ele><time>2015-04-27T12:45:10.0000000+00:00</time></trkpt><trkpt lat="35.0028237" lon="32.7080159"><ele>1049.4</ele><time>2015-04-27T12:45:11.0000000+00:00</time></trkpt><trkpt lat="35.002792" lon="32.7080598"><ele>1049.2</ele><time>2015-04-27T12:45:12.0000000+00:00</time></trkpt><trkpt lat="35.0027482" lon="32.7081642"><ele>1049.0</ele><time>2015-04-27T12:45:14.0000000+00:00</time></trkpt><trkpt lat="35.0027252" lon="32.708221"><ele>1049.5</ele><time>2015-04-27T12:45:15.0000000+00:00</time></trkpt><trkpt lat="35.0027009" lon="32.7082765"><ele>1049.7</ele><time>2015-04-27T12:45:16.0000000+00:00</time></trkpt><trkpt lat="35.0026796" lon="32.7083325"><ele>1049.8</ele><time>2015-04-27T12:45:17.0000000+00:00</time></trkpt><trkpt lat="35.0026661" lon="32.7083948"><ele>1049.4</ele><time>2015-04-27T12:45:18.0000000+00:00</time></trkpt><trkpt lat="35.0026562" lon="32.7084519"><ele>1049.2</ele><time>2015-04-27T12:45:19.0000000+00:00</time></trkpt><trkpt lat="35.0026458" lon="32.7085181"><ele>1049.0</ele><time>2015-04-27T12:45:20.0000000+00:00</time></trkpt><trkpt lat="35.002647" lon="32.7085911"><ele>1049.5</ele><time>2015-04-27T12:45:21.0000000+00:00</time></trkpt><trkpt lat="35.002652" lon="32.7086673"><ele>1049.2</ele><time>2015-04-27T12:45:22.0000000+00:00</time></trkpt><trkpt lat="35.0026677" lon="32.7087331"><ele>1049.6</ele><time>2015-04-27T12:45:23.0000000+00:00</time></trkpt><trkpt lat="35.0026808" lon="32.7088048"><ele>1049.7</ele><time>2015-04-27T12:45:24.0000000+00:00</time></trkpt><trkpt lat="35.002695" lon="32.7088805"><ele>1049.8</ele><time>2015-04-27T12:45:25.0000000+00:00</time></trkpt><trkpt lat="35.0027152" lon="32.7089623"><ele>1050.4</ele><time>2015-04-27T12:45:26.0000000+00:00</time></trkpt><trkpt lat="35.0027296" lon="32.7090344"><ele>1050.7</ele><time>2015-04-27T12:45:27.0000000+00:00</time></trkpt><trkpt lat="35.0027535" lon="32.7091076"><ele>1051.3</ele><time>2015-04-27T12:45:28.0000000+00:00</time></trkpt><trkpt lat="35.0027556" lon="32.7091825"><ele>1051.6</ele><time>2015-04-27T12:45:29.0000000+00:00</time></trkpt><trkpt lat="35.0027449" lon="32.7092604"><ele>1051.8</ele><time>2015-04-27T12:45:30.0000000+00:00</time></trkpt><trkpt lat="35.0027382" lon="32.7093364"><ele>1051.4</ele><time>2015-04-27T12:45:31.0000000+00:00</time></trkpt><trkpt lat="35.0027277" lon="32.7094209"><ele>1051.1</ele><time>2015-04-27T12:45:32.0000000+00:00</time></trkpt><trkpt lat="35.0027275" lon="32.7094968"><ele>1051.0</ele><time>2015-04-27T12:45:33.0000000+00:00</time></trkpt><trkpt lat="35.002719" lon="32.7095704"><ele>1050.5</ele><time>2015-04-27T12:45:34.0000000+00:00</time></trkpt><trkpt lat="35.0027047" lon="32.7096555"><ele>1049.2</ele><time>2015-04-27T12:45:35.0000000+00:00</time></trkpt><trkpt lat="35.0027046" lon="32.7097387"><ele>1048.6</ele><time>2015-04-27T12:45:36.0000000+00:00</time></trkpt><trkpt lat="35.0027052" lon="32.709818"><ele>1048.2</ele><time>2015-04-27T12:45:37.0000000+00:00</time></trkpt><trkpt lat="35.002713" lon="32.7098962"><ele>1048.1</ele><time>2015-04-27T12:45:38.0000000+00:00</time></trkpt><trkpt lat="35.0027241" lon="32.7099723"><ele>1048.0</ele><time>2015-04-27T12:45:39.0000000+00:00</time></trkpt><trkpt lat="35.0027415" lon="32.7100483"><ele>1047.5</ele><time>2015-04-27T12:45:40.0000000+00:00</time></trkpt><trkpt lat="35.0027655" lon="32.7101334"><ele>1047.2</ele><time>2015-04-27T12:45:41.0000000+00:00</time></trkpt><trkpt lat="35.0027969" lon="32.7102106"><ele>1047.1</ele><time>2015-04-27T12:45:42.0000000+00:00</time></trkpt><trkpt lat="35.0028365" lon="32.71028"><ele>1046.5</ele><time>2015-04-27T12:45:43.0000000+00:00</time></trkpt><trkpt lat="35.0028746" lon="32.7103532"><ele>1046.2</ele><time>2015-04-27T12:45:44.0000000+00:00</time></trkpt><trkpt lat="35.0029024" lon="32.7104486"><ele>1045.6</ele><time>2015-04-27T12:45:45.0000000+00:00</time></trkpt><trkpt lat="35.0029126" lon="32.7105456"><ele>1045.8</ele><time>2015-04-27T12:45:46.0000000+00:00</time></trkpt><trkpt lat="35.0029067" lon="32.7106504"><ele>1045.3</ele><time>2015-04-27T12:45:47.0000000+00:00</time></trkpt><trkpt lat="35.0028834" lon="32.7107369"><ele>1044.6</ele><time>2015-04-27T12:45:48.0000000+00:00</time></trkpt><trkpt lat="35.0028565" lon="32.7108283"><ele>1044.3</ele><time>2015-04-27T12:45:49.0000000+00:00</time></trkpt><trkpt lat="35.0028267" lon="32.7109094"><ele>1044.1</ele><time>2015-04-27T12:45:50.0000000+00:00</time></trkpt><trkpt lat="35.0028067" lon="32.7109804"><ele>1043.5</ele><time>2015-04-27T12:45:51.0000000+00:00</time></trkpt><trkpt lat="35.0027872" lon="32.7110533"><ele>1042.7</ele><time>2015-04-27T12:45:52.0000000+00:00</time></trkpt><trkpt lat="35.0027717" lon="32.7111215"><ele>1042.3</ele><time>2015-04-27T12:45:53.0000000+00:00</time></trkpt><trkpt lat="35.0027642" lon="32.7111948"><ele>1042.1</ele><time>2015-04-27T12:45:54.0000000+00:00</time></trkpt><trkpt lat="35.002764" lon="32.7112624"><ele>1042.0</ele><time>2015-04-27T12:45:55.0000000+00:00</time></trkpt><trkpt lat="35.002767" lon="32.7113396"><ele>1042.5</ele><time>2015-04-27T12:45:56.0000000+00:00</time></trkpt><trkpt lat="35.0027717" lon="32.7114166"><ele>1042.7</ele><time>2015-04-27T12:45:57.0000000+00:00</time></trkpt><trkpt lat="35.0027866" lon="32.7114884"><ele>1043.3</ele><time>2015-04-27T12:45:58.0000000+00:00</time></trkpt><trkpt lat="35.0027972" lon="32.7115583"><ele>1044.1</ele><time>2015-04-27T12:45:59.0000000+00:00</time></trkpt><trkpt lat="35.0028085" lon="32.7116261"><ele>1044.5</ele><time>2015-04-27T12:46:00.0000000+00:00</time></trkpt><trkpt lat="35.0028086" lon="32.7116934"><ele>1044.2</ele><time>2015-04-27T12:46:01.0000000+00:00</time></trkpt><trkpt lat="35.0028125" lon="32.7117657"><ele>1044.1</ele><time>2015-04-27T12:46:02.0000000+00:00</time></trkpt><trkpt lat="35.002817" lon="32.7118369"><ele>1044.0</ele><time>2015-04-27T12:46:03.0000000+00:00</time></trkpt><trkpt lat="35.0028177" lon="32.7119028"><ele>1044.0</ele><time>2015-04-27T12:46:04.0000000+00:00</time></trkpt><trkpt lat="35.002817" lon="32.7119762"><ele>1043.4</ele><time>2015-04-27T12:46:05.0000000+00:00</time></trkpt><trkpt lat="35.00282" lon="32.7120471"><ele>1043.7</ele><time>2015-04-27T12:46:06.0000000+00:00</time></trkpt><trkpt lat="35.002822" lon="32.7121205"><ele>1043.3</ele><time>2015-04-27T12:46:07.0000000+00:00</time></trkpt><trkpt lat="35.0028278" lon="32.7121934"><ele>1043.1</ele><time>2015-04-27T12:46:08.0000000+00:00</time></trkpt><trkpt lat="35.0028358" lon="32.7122687"><ele>1043.0</ele><time>2015-04-27T12:46:09.0000000+00:00</time></trkpt><trkpt lat="35.0028367" lon="32.7123429"><ele>1043.0</ele><time>2015-04-27T12:46:10.0000000+00:00</time></trkpt><trkpt lat="35.0028356" lon="32.7124218"><ele>1043.0</ele><time>2015-04-27T12:46:11.0000000+00:00</time></trkpt><trkpt lat="35.0028294" lon="32.7125034"><ele>1042.9</ele><time>2015-04-27T12:46:12.0000000+00:00</time></trkpt><trkpt lat="35.0028262" lon="32.7125858"><ele>1042.9</ele><time>2015-04-27T12:46:13.0000000+00:00</time></trkpt><trkpt lat="35.0028257" lon="32.7126669"><ele>1042.9</ele><time>2015-04-27T12:46:14.0000000+00:00</time></trkpt><trkpt lat="35.0028148" lon="32.7127469"><ele>1042.9</ele><time>2015-04-27T12:46:15.0000000+00:00</time></trkpt><trkpt lat="35.0027936" lon="32.7128276"><ele>1042.9</ele><time>2015-04-27T12:46:16.0000000+00:00</time></trkpt><trkpt lat="35.0027718" lon="32.712911"><ele>1042.9</ele><time>2015-04-27T12:46:17.0000000+00:00</time></trkpt><trkpt lat="35.002753" lon="32.7129858"><ele>1042.4</ele><time>2015-04-27T12:46:18.0000000+00:00</time></trkpt><trkpt lat="35.0027375" lon="32.7130535"><ele>1042.2</ele><time>2015-04-27T12:46:19.0000000+00:00</time></trkpt><trkpt lat="35.0027268" lon="32.7131196"><ele>1042.1</ele><time>2015-04-27T12:46:20.0000000+00:00</time></trkpt><trkpt lat="35.0027194" lon="32.7131763"><ele>1042.0</ele><time>2015-04-27T12:46:21.0000000+00:00</time></trkpt><trkpt lat="35.0027172" lon="32.7132321"><ele>1041.5</ele><time>2015-04-27T12:46:22.0000000+00:00</time></trkpt><trkpt lat="35.002714" lon="32.7133064"><ele>1040.3</ele><time>2015-04-27T12:46:24.0000000+00:00</time></trkpt><trkpt lat="35.0027052" lon="32.7133768"><ele>1040.0</ele><time>2015-04-27T12:46:26.0000000+00:00</time></trkpt><trkpt lat="35.0027013" lon="32.7134459"><ele>1039.7</ele><time>2015-04-27T12:46:28.0000000+00:00</time></trkpt><trkpt lat="35.0026972" lon="32.7135158"><ele>1039.1</ele><time>2015-04-27T12:46:30.0000000+00:00</time></trkpt><trkpt lat="35.0026874" lon="32.7135919"><ele>1038.5</ele><time>2015-04-27T12:46:32.0000000+00:00</time></trkpt><trkpt lat="35.0026857" lon="32.7136791"><ele>1038.6</ele><time>2015-04-27T12:46:34.0000000+00:00</time></trkpt><trkpt lat="35.002688" lon="32.7137709"><ele>1038.6</ele><time>2015-04-27T12:46:36.0000000+00:00</time></trkpt><trkpt lat="35.0027082" lon="32.7138632"><ele>1038.8</ele><time>2015-04-27T12:46:38.0000000+00:00</time></trkpt><trkpt lat="35.0027547" lon="32.7139524"><ele>1039.7</ele><time>2015-04-27T12:46:40.0000000+00:00</time></trkpt><trkpt lat="35.0027849" lon="32.7139996"><ele>1039.8</ele><time>2015-04-27T12:46:41.0000000+00:00</time></trkpt><trkpt lat="35.0028355" lon="32.7140506"><ele>1039.4</ele><time>2015-04-27T12:46:42.0000000+00:00</time></trkpt><trkpt lat="35.002868" lon="32.7140956"><ele>1039.6</ele><time>2015-04-27T12:46:43.0000000+00:00</time></trkpt><trkpt lat="35.002904" lon="32.7141459"><ele>1039.3</ele><time>2015-04-27T12:46:44.0000000+00:00</time></trkpt><trkpt lat="35.0029401" lon="32.7141946"><ele>1039.6</ele><time>2015-04-27T12:46:45.0000000+00:00</time></trkpt><trkpt lat="35.0029708" lon="32.714242"><ele>1039.8</ele><time>2015-04-27T12:46:46.0000000+00:00</time></trkpt><trkpt lat="35.0030066" lon="32.7142905"><ele>1039.8</ele><time>2015-04-27T12:46:47.0000000+00:00</time></trkpt><trkpt lat="35.0030372" lon="32.7143361"><ele>1039.4</ele><time>2015-04-27T12:46:48.0000000+00:00</time></trkpt><trkpt lat="35.0030654" lon="32.714386"><ele>1039.2</ele><time>2015-04-27T12:46:49.0000000+00:00</time></trkpt><trkpt lat="35.0031217" lon="32.7144653"><ele>1039.5</ele><time>2015-04-27T12:46:51.0000000+00:00</time></trkpt><trkpt lat="35.0031807" lon="32.7145584"><ele>1038.6</ele><time>2015-04-27T12:46:53.0000000+00:00</time></trkpt><trkpt lat="35.0032433" lon="32.7146242"><ele>1037.8</ele><time>2015-04-27T12:46:55.0000000+00:00</time></trkpt><trkpt lat="35.0033202" lon="32.7146924"><ele>1038.7</ele><time>2015-04-27T12:46:57.0000000+00:00</time></trkpt><trkpt lat="35.0033891" lon="32.714756"><ele>1038.9</ele><time>2015-04-27T12:46:59.0000000+00:00</time></trkpt><trkpt lat="35.0034692" lon="32.7148163"><ele>1038.4</ele><time>2015-04-27T12:47:01.0000000+00:00</time></trkpt><trkpt lat="35.0035089" lon="32.7148512"><ele>1038.2</ele><time>2015-04-27T12:47:02.0000000+00:00</time></trkpt><trkpt lat="35.0035796" lon="32.7149034"><ele>1038.0</ele><time>2015-04-27T12:47:04.0000000+00:00</time></trkpt><trkpt lat="35.0036408" lon="32.7149763"><ele>1037.9</ele><time>2015-04-27T12:47:06.0000000+00:00</time></trkpt><trkpt lat="35.0037148" lon="32.7150292"><ele>1037.4</ele><time>2015-04-27T12:47:08.0000000+00:00</time></trkpt><trkpt lat="35.0037853" lon="32.7150732"><ele>1037.6</ele><time>2015-04-27T12:47:10.0000000+00:00</time></trkpt><trkpt lat="35.0038478" lon="32.7151246"><ele>1037.8</ele><time>2015-04-27T12:47:12.0000000+00:00</time></trkpt><trkpt lat="35.0039048" lon="32.7151886"><ele>1037.9</ele><time>2015-04-27T12:47:14.0000000+00:00</time></trkpt><trkpt lat="35.0039672" lon="32.7152483"><ele>1037.9</ele><time>2015-04-27T12:47:16.0000000+00:00</time></trkpt><trkpt lat="35.0040063" lon="32.7152819"><ele>1038.4</ele><time>2015-04-27T12:47:17.0000000+00:00</time></trkpt><trkpt lat="35.0040602" lon="32.7153255"><ele>1038.7</ele><time>2015-04-27T12:47:18.0000000+00:00</time></trkpt><trkpt lat="35.0041023" lon="32.7153522"><ele>1038.8</ele><time>2015-04-27T12:47:19.0000000+00:00</time></trkpt><trkpt lat="35.0041452" lon="32.7153784"><ele>1039.4</ele><time>2015-04-27T12:47:20.0000000+00:00</time></trkpt><trkpt lat="35.0042268" lon="32.7154311"><ele>1039.8</ele><time>2015-04-27T12:47:22.0000000+00:00</time></trkpt><trkpt lat="35.0043124" lon="32.7154681"><ele>1040.4</ele><time>2015-04-27T12:47:24.0000000+00:00</time></trkpt><trkpt lat="35.0043602" lon="32.7154878"><ele>1040.7</ele><time>2015-04-27T12:47:25.0000000+00:00</time></trkpt><trkpt lat="35.0044076" lon="32.7155076"><ele>1040.8</ele><time>2015-04-27T12:47:26.0000000+00:00</time></trkpt><trkpt lat="35.0044841" lon="32.7155438"><ele>1040.9</ele><time>2015-04-27T12:47:28.0000000+00:00</time></trkpt><trkpt lat="35.0045593" lon="32.7155832"><ele>1040.9</ele><time>2015-04-27T12:47:30.0000000+00:00</time></trkpt><trkpt lat="35.004635" lon="32.7156037"><ele>1040.9</ele><time>2015-04-27T12:47:32.0000000+00:00</time></trkpt><trkpt lat="35.0046931" lon="32.7156197"><ele>1042.2</ele><time>2015-04-27T12:47:34.0000000+00:00</time></trkpt><trkpt lat="35.0047431" lon="32.715625"><ele>1042.7</ele><time>2015-04-27T12:47:36.0000000+00:00</time></trkpt><trkpt lat="35.0047954" lon="32.7156351"><ele>1043.9</ele><time>2015-04-27T12:47:38.0000000+00:00</time></trkpt><trkpt lat="35.0048498" lon="32.715655"><ele>1045.2</ele><time>2015-04-27T12:47:40.0000000+00:00</time></trkpt><trkpt lat="35.0049048" lon="32.7157067"><ele>1045.5</ele><time>2015-04-27T12:47:42.0000000+00:00</time></trkpt><trkpt lat="35.0049283" lon="32.7157991"><ele>1044.1</ele><time>2015-04-27T12:47:44.0000000+00:00</time></trkpt><trkpt lat="35.0049206" lon="32.7158868"><ele>1043.7</ele><time>2015-04-27T12:47:46.0000000+00:00</time></trkpt><trkpt lat="35.0048698" lon="32.715966"><ele>1043.1</ele><time>2015-04-27T12:47:48.0000000+00:00</time></trkpt><trkpt lat="35.0047932" lon="32.7160205"><ele>1043.0</ele><time>2015-04-27T12:47:50.0000000+00:00</time></trkpt><trkpt lat="35.0047204" lon="32.7160656"><ele>1043.4</ele><time>2015-04-27T12:47:52.0000000+00:00</time></trkpt><trkpt lat="35.0046634" lon="32.716091"><ele>1043.1</ele><time>2015-04-27T12:47:54.0000000+00:00</time></trkpt><trkpt lat="35.0046109" lon="32.7161113"><ele>1045.2</ele><time>2015-04-27T12:47:57.0000000+00:00</time></trkpt><trkpt lat="35.0045684" lon="32.7161298"><ele>1047.0</ele><time>2015-04-27T12:47:59.0000000+00:00</time></trkpt><trkpt lat="35.0045094" lon="32.7161596"><ele>1047.7</ele><time>2015-04-27T12:48:01.0000000+00:00</time></trkpt><trkpt lat="35.0044539" lon="32.7161859"><ele>1048.1</ele><time>2015-04-27T12:48:03.0000000+00:00</time></trkpt><trkpt lat="35.0043973" lon="32.7162163"><ele>1048.0</ele><time>2015-04-27T12:48:05.0000000+00:00</time></trkpt><trkpt lat="35.0043418" lon="32.7162449"><ele>1047.2</ele><time>2015-04-27T12:48:07.0000000+00:00</time></trkpt><trkpt lat="35.0043016" lon="32.7162708"><ele>1047.7</ele><time>2015-04-27T12:48:09.0000000+00:00</time></trkpt><trkpt lat="35.0042642" lon="32.716304"><ele>1048.1</ele><time>2015-04-27T12:48:11.0000000+00:00</time></trkpt><trkpt lat="35.0042234" lon="32.7163405"><ele>1048.5</ele><time>2015-04-27T12:48:13.0000000+00:00</time></trkpt><trkpt lat="35.0041804" lon="32.7163841"><ele>1048.8</ele><time>2015-04-27T12:48:15.0000000+00:00</time></trkpt><trkpt lat="35.0041322" lon="32.7164394"><ele>1049.2</ele><time>2015-04-27T12:48:17.0000000+00:00</time></trkpt><trkpt lat="35.0040831" lon="32.7164971"><ele>1049.5</ele><time>2015-04-27T12:48:19.0000000+00:00</time></trkpt><trkpt lat="35.0040351" lon="32.7165477"><ele>1049.3</ele><time>2015-04-27T12:48:21.0000000+00:00</time></trkpt><trkpt lat="35.0039967" lon="32.716582"><ele>1047.8</ele><time>2015-04-27T12:48:23.0000000+00:00</time></trkpt><trkpt lat="35.0039534" lon="32.7166258"><ele>1047.6</ele><time>2015-04-27T12:48:25.0000000+00:00</time></trkpt><trkpt lat="35.0038969" lon="32.7166844"><ele>1047.9</ele><time>2015-04-27T12:48:27.0000000+00:00</time></trkpt><trkpt lat="35.0038499" lon="32.7167428"><ele>1049.2</ele><time>2015-04-27T12:48:29.0000000+00:00</time></trkpt><trkpt lat="35.0038129" lon="32.7167943"><ele>1048.0</ele><time>2015-04-27T12:48:31.0000000+00:00</time></trkpt><trkpt lat="35.0037814" lon="32.7168472"><ele>1048.4</ele><time>2015-04-27T12:48:33.0000000+00:00</time></trkpt><trkpt lat="35.0037485" lon="32.7169049"><ele>1048.8</ele><time>2015-04-27T12:48:35.0000000+00:00</time></trkpt><trkpt lat="35.0037163" lon="32.7169588"><ele>1046.1</ele><time>2015-04-27T12:48:37.0000000+00:00</time></trkpt><trkpt lat="35.0036794" lon="32.7170159"><ele>1045.7</ele><time>2015-04-27T12:48:39.0000000+00:00</time></trkpt><trkpt lat="35.0036461" lon="32.7170734"><ele>1047.4</ele><time>2015-04-27T12:48:41.0000000+00:00</time></trkpt><trkpt lat="35.0036251" lon="32.7171367"><ele>1048.5</ele><time>2015-04-27T12:48:43.0000000+00:00</time></trkpt><trkpt lat="35.0036113" lon="32.7172125"><ele>1049.6</ele><time>2015-04-27T12:48:45.0000000+00:00</time></trkpt><trkpt lat="35.0035993" lon="32.7173017"><ele>1051.1</ele><time>2015-04-27T12:48:47.0000000+00:00</time></trkpt><trkpt lat="35.0035902" lon="32.7173819"><ele>1050.5</ele><time>2015-04-27T12:48:49.0000000+00:00</time></trkpt><trkpt lat="35.003585" lon="32.7174651"><ele>1051.3</ele><time>2015-04-27T12:48:51.0000000+00:00</time></trkpt><trkpt lat="35.0035802" lon="32.7175436"><ele>1051.0</ele><time>2015-04-27T12:48:53.0000000+00:00</time></trkpt><trkpt lat="35.0035733" lon="32.7176174"><ele>1051.2</ele><time>2015-04-27T12:48:55.0000000+00:00</time></trkpt><trkpt lat="35.0035658" lon="32.7176988"><ele>1051.5</ele><time>2015-04-27T12:48:57.0000000+00:00</time></trkpt><trkpt lat="35.0035587" lon="32.7177815"><ele>1051.6</ele><time>2015-04-27T12:48:59.0000000+00:00</time></trkpt><trkpt lat="35.0035496" lon="32.7178576"><ele>1052.6</ele><time>2015-04-27T12:49:01.0000000+00:00</time></trkpt><trkpt lat="35.0035308" lon="32.7179288"><ele>1051.6</ele><time>2015-04-27T12:49:03.0000000+00:00</time></trkpt><trkpt lat="35.003483" lon="32.7179899"><ele>1050.3</ele><time>2015-04-27T12:49:05.0000000+00:00</time></trkpt><trkpt lat="35.0034184" lon="32.7180588"><ele>1050.8</ele><time>2015-04-27T12:49:07.0000000+00:00</time></trkpt><trkpt lat="35.0033594" lon="32.7181268"><ele>1050.1</ele><time>2015-04-27T12:49:09.0000000+00:00</time></trkpt><trkpt lat="35.0033117" lon="32.7181965"><ele>1051.2</ele><time>2015-04-27T12:49:11.0000000+00:00</time></trkpt><trkpt lat="35.0032698" lon="32.7182719"><ele>1051.0</ele><time>2015-04-27T12:49:13.0000000+00:00</time></trkpt><trkpt lat="35.0032352" lon="32.7183575"><ele>1051.2</ele><time>2015-04-27T12:49:15.0000000+00:00</time></trkpt><trkpt lat="35.0032065" lon="32.7184486"><ele>1052.2</ele><time>2015-04-27T12:49:17.0000000+00:00</time></trkpt><trkpt lat="35.0031805" lon="32.7185443"><ele>1051.3</ele><time>2015-04-27T12:49:19.0000000+00:00</time></trkpt><trkpt lat="35.0031411" lon="32.7186324"><ele>1051.0</ele><time>2015-04-27T12:49:21.0000000+00:00</time></trkpt><trkpt lat="35.0030939" lon="32.7187137"><ele>1051.0</ele><time>2015-04-27T12:49:23.0000000+00:00</time></trkpt><trkpt lat="35.0030507" lon="32.7187928"><ele>1052.4</ele><time>2015-04-27T12:49:25.0000000+00:00</time></trkpt><trkpt lat="35.0030098" lon="32.7188726"><ele>1054.1</ele><time>2015-04-27T12:49:27.0000000+00:00</time></trkpt><trkpt lat="35.0029716" lon="32.7189359"><ele>1054.7</ele><time>2015-04-27T12:49:29.0000000+00:00</time></trkpt><trkpt lat="35.0029403" lon="32.718992"><ele>1053.9</ele><time>2015-04-27T12:49:31.0000000+00:00</time></trkpt><trkpt lat="35.0029122" lon="32.7190524"><ele>1053.7</ele><time>2015-04-27T12:49:33.0000000+00:00</time></trkpt><trkpt lat="35.0028912" lon="32.7191309"><ele>1053.1</ele><time>2015-04-27T12:49:35.0000000+00:00</time></trkpt><trkpt lat="35.0028865" lon="32.7192186"><ele>1052.0</ele><time>2015-04-27T12:49:37.0000000+00:00</time></trkpt><trkpt lat="35.0028979" lon="32.7193128"><ele>1051.4</ele><time>2015-04-27T12:49:39.0000000+00:00</time></trkpt><trkpt lat="35.0029108" lon="32.7194018"><ele>1052.3</ele><time>2015-04-27T12:49:41.0000000+00:00</time></trkpt><trkpt lat="35.0029236" lon="32.7194846"><ele>1052.8</ele><time>2015-04-27T12:49:43.0000000+00:00</time></trkpt><trkpt lat="35.0029426" lon="32.7195752"><ele>1051.4</ele><time>2015-04-27T12:49:45.0000000+00:00</time></trkpt><trkpt lat="35.0029669" lon="32.719682"><ele>1050.3</ele><time>2015-04-27T12:49:47.0000000+00:00</time></trkpt><trkpt lat="35.0029794" lon="32.7197367"><ele>1050.1</ele><time>2015-04-27T12:49:48.0000000+00:00</time></trkpt><trkpt lat="35.0029912" lon="32.7197901"><ele>1050.5</ele><time>2015-04-27T12:49:49.0000000+00:00</time></trkpt><trkpt lat="35.003018" lon="32.7198913"><ele>1050.3</ele><time>2015-04-27T12:49:51.0000000+00:00</time></trkpt><trkpt lat="35.0030486" lon="32.719981"><ele>1050.8</ele><time>2015-04-27T12:49:53.0000000+00:00</time></trkpt><trkpt lat="35.0030814" lon="32.7200708"><ele>1050.1</ele><time>2015-04-27T12:49:55.0000000+00:00</time></trkpt><trkpt lat="35.0031329" lon="32.7201817"><ele>1050.7</ele><time>2015-04-27T12:49:57.0000000+00:00</time></trkpt><trkpt lat="35.0031552" lon="32.7202296"><ele>1050.3</ele><time>2015-04-27T12:49:58.0000000+00:00</time></trkpt><trkpt lat="35.0031759" lon="32.720287"><ele>1049.6</ele><time>2015-04-27T12:49:59.0000000+00:00</time></trkpt><trkpt lat="35.0032129" lon="32.7203769"><ele>1048.6</ele><time>2015-04-27T12:50:01.0000000+00:00</time></trkpt><trkpt lat="35.0032429" lon="32.7204749"><ele>1048.3</ele><time>2015-04-27T12:50:03.0000000+00:00</time></trkpt><trkpt lat="35.0032542" lon="32.720532"><ele>1048.1</ele><time>2015-04-27T12:50:04.0000000+00:00</time></trkpt><trkpt lat="35.003266" lon="32.7205873"><ele>1047.5</ele><time>2015-04-27T12:50:05.0000000+00:00</time></trkpt><trkpt lat="35.0033025" lon="32.7206866"><ele>1047.8</ele><time>2015-04-27T12:50:07.0000000+00:00</time></trkpt><trkpt lat="35.0033212" lon="32.7207373"><ele>1048.4</ele><time>2015-04-27T12:50:08.0000000+00:00</time></trkpt><trkpt lat="35.0033472" lon="32.72084"><ele>1047.8</ele><time>2015-04-27T12:50:10.0000000+00:00</time></trkpt><trkpt lat="35.0033901" lon="32.720932"><ele>1047.1</ele><time>2015-04-27T12:50:12.0000000+00:00</time></trkpt><trkpt lat="35.0034244" lon="32.721001"><ele>1047.5</ele><time>2015-04-27T12:50:14.0000000+00:00</time></trkpt><trkpt lat="35.0034671" lon="32.721089"><ele>1048.6</ele><time>2015-04-27T12:50:16.0000000+00:00</time></trkpt><trkpt lat="35.0034958" lon="32.7211708"><ele>1049.3</ele><time>2015-04-27T12:50:18.0000000+00:00</time></trkpt><trkpt lat="35.0035065" lon="32.7212507"><ele>1050.8</ele><time>2015-04-27T12:50:20.0000000+00:00</time></trkpt><trkpt lat="35.0035019" lon="32.7213348"><ele>1053.4</ele><time>2015-04-27T12:50:22.0000000+00:00</time></trkpt><trkpt lat="35.0034784" lon="32.7214266"><ele>1054.5</ele><time>2015-04-27T12:50:24.0000000+00:00</time></trkpt><trkpt lat="35.0034624" lon="32.7214815"><ele>1054.7</ele><time>2015-04-27T12:50:25.0000000+00:00</time></trkpt><trkpt lat="35.0034457" lon="32.7215436"><ele>1053.3</ele><time>2015-04-27T12:50:26.0000000+00:00</time></trkpt><trkpt lat="35.0034248" lon="32.7216652"><ele>1052.1</ele><time>2015-04-27T12:50:27.0000000+00:00</time></trkpt><trkpt lat="35.0034005" lon="32.7217788"><ele>1051.0</ele><time>2015-04-27T12:50:29.0000000+00:00</time></trkpt><trkpt lat="35.0033879" lon="32.7218332"><ele>1050.5</ele><time>2015-04-27T12:50:30.0000000+00:00</time></trkpt><trkpt lat="35.0033733" lon="32.7218935"><ele>1050.7</ele><time>2015-04-27T12:50:31.0000000+00:00</time></trkpt><trkpt lat="35.003352" lon="32.7219969"><ele>1050.1</ele><time>2015-04-27T12:50:33.0000000+00:00</time></trkpt><trkpt lat="35.0033336" lon="32.7221025"><ele>1050.2</ele><time>2015-04-27T12:50:35.0000000+00:00</time></trkpt><trkpt lat="35.0033327" lon="32.7221588"><ele>1049.6</ele><time>2015-04-27T12:50:36.0000000+00:00</time></trkpt><trkpt lat="35.0033386" lon="32.7222486"><ele>1051.3</ele><time>2015-04-27T12:50:38.0000000+00:00</time></trkpt><trkpt lat="35.00334" lon="32.7223104"><ele>1051.1</ele><time>2015-04-27T12:50:39.0000000+00:00</time></trkpt><trkpt lat="35.0033427" lon="32.7224037"><ele>1051.7</ele><time>2015-04-27T12:50:41.0000000+00:00</time></trkpt><trkpt lat="35.0033345" lon="32.7225049"><ele>1053.1</ele><time>2015-04-27T12:50:43.0000000+00:00</time></trkpt><trkpt lat="35.0033253" lon="32.7226076"><ele>1053.2</ele><time>2015-04-27T12:50:45.0000000+00:00</time></trkpt><trkpt lat="35.00333" lon="32.7226624"><ele>1053.6</ele><time>2015-04-27T12:50:46.0000000+00:00</time></trkpt><trkpt lat="35.0033344" lon="32.7227672"><ele>1053.8</ele><time>2015-04-27T12:50:48.0000000+00:00</time></trkpt><trkpt lat="35.0033385" lon="32.7228241"><ele>1054.4</ele><time>2015-04-27T12:50:49.0000000+00:00</time></trkpt><trkpt lat="35.0033392" lon="32.722895"><ele>1054.2</ele><time>2015-04-27T12:50:50.0000000+00:00</time></trkpt><trkpt lat="35.0033456" lon="32.7229888"><ele>1053.7</ele><time>2015-04-27T12:50:52.0000000+00:00</time></trkpt><trkpt lat="35.0033548" lon="32.7230858"><ele>1054.4</ele><time>2015-04-27T12:50:54.0000000+00:00</time></trkpt><trkpt lat="35.0033896" lon="32.7231832"><ele>1055.5</ele><time>2015-04-27T12:50:56.0000000+00:00</time></trkpt><trkpt lat="35.0034225" lon="32.7232832"><ele>1055.1</ele><time>2015-04-27T12:50:58.0000000+00:00</time></trkpt><trkpt lat="35.0034458" lon="32.7233329"><ele>1055.0</ele><time>2015-04-27T12:50:59.0000000+00:00</time></trkpt><trkpt lat="35.0034672" lon="32.7234229"><ele>1051.0</ele><time>2015-04-27T12:51:00.0000000+00:00</time></trkpt><trkpt lat="35.0035285" lon="32.7234993"><ele>1047.9</ele><time>2015-04-27T12:51:02.0000000+00:00</time></trkpt><trkpt lat="35.0035803" lon="32.7235448"><ele>1047.9</ele><time>2015-04-27T12:51:03.0000000+00:00</time></trkpt><trkpt lat="35.0036224" lon="32.7235817"><ele>1047.9</ele><time>2015-04-27T12:51:04.0000000+00:00</time></trkpt><trkpt lat="35.0036611" lon="32.7236211"><ele>1047.9</ele><time>2015-04-27T12:51:05.0000000+00:00</time></trkpt><trkpt lat="35.0036979" lon="32.7236603"><ele>1048.4</ele><time>2015-04-27T12:51:06.0000000+00:00</time></trkpt><trkpt lat="35.003731" lon="32.7237061"><ele>1048.7</ele><time>2015-04-27T12:51:07.0000000+00:00</time></trkpt><trkpt lat="35.0037665" lon="32.7237478"><ele>1048.8</ele><time>2015-04-27T12:51:08.0000000+00:00</time></trkpt><trkpt lat="35.0038044" lon="32.7237859"><ele>1049.4</ele><time>2015-04-27T12:51:09.0000000+00:00</time></trkpt><trkpt lat="35.0038481" lon="32.7238215"><ele>1049.1</ele><time>2015-04-27T12:51:10.0000000+00:00</time></trkpt><trkpt lat="35.0038844" lon="32.7238566"><ele>1049.0</ele><time>2015-04-27T12:51:11.0000000+00:00</time></trkpt><trkpt lat="35.0039205" lon="32.7238929"><ele>1049.0</ele><time>2015-04-27T12:51:12.0000000+00:00</time></trkpt><trkpt lat="35.0039578" lon="32.7239256"><ele>1049.0</ele><time>2015-04-27T12:51:13.0000000+00:00</time></trkpt><trkpt lat="35.0039975" lon="32.7239634"><ele>1048.9</ele><time>2015-04-27T12:51:14.0000000+00:00</time></trkpt><trkpt lat="35.0040441" lon="32.7240004"><ele>1048.9</ele><time>2015-04-27T12:51:15.0000000+00:00</time></trkpt><trkpt lat="35.004118" lon="32.7240571"><ele>1049.7</ele><time>2015-04-27T12:51:17.0000000+00:00</time></trkpt><trkpt lat="35.0041932" lon="32.724103"><ele>1049.9</ele><time>2015-04-27T12:51:19.0000000+00:00</time></trkpt><trkpt lat="35.0042313" lon="32.7241392"><ele>1049.9</ele><time>2015-04-27T12:51:20.0000000+00:00</time></trkpt><trkpt lat="35.0042724" lon="32.7241754"><ele>1049.9</ele><time>2015-04-27T12:51:21.0000000+00:00</time></trkpt><trkpt lat="35.0043044" lon="32.724228"><ele>1049.9</ele><time>2015-04-27T12:51:22.0000000+00:00</time></trkpt><trkpt lat="35.004335" lon="32.7242913"><ele>1049.4</ele><time>2015-04-27T12:51:23.0000000+00:00</time></trkpt><trkpt lat="35.0043624" lon="32.7243625"><ele>1049.2</ele><time>2015-04-27T12:51:24.0000000+00:00</time></trkpt><trkpt lat="35.0043883" lon="32.7244401"><ele>1049.1</ele><time>2015-04-27T12:51:25.0000000+00:00</time></trkpt><trkpt lat="35.0044128" lon="32.7245196"><ele>1048.5</ele><time>2015-04-27T12:51:26.0000000+00:00</time></trkpt><trkpt lat="35.0044395" lon="32.7245952"><ele>1047.7</ele><time>2015-04-27T12:51:27.0000000+00:00</time></trkpt><trkpt lat="35.0044657" lon="32.7246673"><ele>1047.3</ele><time>2015-04-27T12:51:28.0000000+00:00</time></trkpt><trkpt lat="35.0044958" lon="32.7247483"><ele>1047.1</ele><time>2015-04-27T12:51:29.0000000+00:00</time></trkpt><trkpt lat="35.0045219" lon="32.7248246"><ele>1047.0</ele><time>2015-04-27T12:51:30.0000000+00:00</time></trkpt><trkpt lat="35.0045516" lon="32.7248953"><ele>1047.0</ele><time>2015-04-27T12:51:31.0000000+00:00</time></trkpt><trkpt lat="35.0045866" lon="32.7249787"><ele>1046.5</ele><time>2015-04-27T12:51:32.0000000+00:00</time></trkpt><trkpt lat="35.0046169" lon="32.7250425"><ele>1046.2</ele><time>2015-04-27T12:51:33.0000000+00:00</time></trkpt><trkpt lat="35.004647" lon="32.7251089"><ele>1046.6</ele><time>2015-04-27T12:51:34.0000000+00:00</time></trkpt><trkpt lat="35.0046949" lon="32.725167"><ele>1046.7</ele><time>2015-04-27T12:51:35.0000000+00:00</time></trkpt><trkpt lat="35.0047432" lon="32.7252212"><ele>1047.3</ele><time>2015-04-27T12:51:36.0000000+00:00</time></trkpt><trkpt lat="35.0047972" lon="32.725284"><ele>1048.1</ele><time>2015-04-27T12:51:37.0000000+00:00</time></trkpt><trkpt lat="35.0048563" lon="32.7253361"><ele>1048.0</ele><time>2015-04-27T12:51:38.0000000+00:00</time></trkpt><trkpt lat="35.0049161" lon="32.7253704"><ele>1048.5</ele><time>2015-04-27T12:51:39.0000000+00:00</time></trkpt><trkpt lat="35.0049727" lon="32.7254258"><ele>1048.2</ele><time>2015-04-27T12:51:40.0000000+00:00</time></trkpt><trkpt lat="35.0050238" lon="32.7254842"><ele>1047.6</ele><time>2015-04-27T12:51:41.0000000+00:00</time></trkpt><trkpt lat="35.0050777" lon="32.7255451"><ele>1047.2</ele><time>2015-04-27T12:51:42.0000000+00:00</time></trkpt><trkpt lat="35.005126" lon="32.7256087"><ele>1046.6</ele><time>2015-04-27T12:51:43.0000000+00:00</time></trkpt><trkpt lat="35.0051809" lon="32.725673"><ele>1046.3</ele><time>2015-04-27T12:51:44.0000000+00:00</time></trkpt><trkpt lat="35.0052394" lon="32.7257505"><ele>1045.6</ele><time>2015-04-27T12:51:45.0000000+00:00</time></trkpt><trkpt lat="35.0052818" lon="32.7258212"><ele>1044.8</ele><time>2015-04-27T12:51:46.0000000+00:00</time></trkpt><trkpt lat="35.0053382" lon="32.7258792"><ele>1045.3</ele><time>2015-04-27T12:51:47.0000000+00:00</time></trkpt><trkpt lat="35.0053928" lon="32.72596"><ele>1045.1</ele><time>2015-04-27T12:51:48.0000000+00:00</time></trkpt><trkpt lat="35.0054541" lon="32.7260322"><ele>1044.0</ele><time>2015-04-27T12:51:49.0000000+00:00</time></trkpt><trkpt lat="35.00552" lon="32.7261001"><ele>1044.0</ele><time>2015-04-27T12:51:50.0000000+00:00</time></trkpt><trkpt lat="35.0055788" lon="32.7261729"><ele>1043.5</ele><time>2015-04-27T12:51:51.0000000+00:00</time></trkpt><trkpt lat="35.005637" lon="32.7262496"><ele>1042.7</ele><time>2015-04-27T12:51:52.0000000+00:00</time></trkpt><trkpt lat="35.0056992" lon="32.7263263"><ele>1041.3</ele><time>2015-04-27T12:51:53.0000000+00:00</time></trkpt><trkpt lat="35.0057697" lon="32.7263861"><ele>1040.6</ele><time>2015-04-27T12:51:54.0000000+00:00</time></trkpt><trkpt lat="35.0058425" lon="32.7264402"><ele>1039.8</ele><time>2015-04-27T12:51:55.0000000+00:00</time></trkpt><trkpt lat="35.0059252" lon="32.7264758"><ele>1038.9</ele><time>2015-04-27T12:51:56.0000000+00:00</time></trkpt><trkpt lat="35.0060136" lon="32.726492"><ele>1038.9</ele><time>2015-04-27T12:51:57.0000000+00:00</time></trkpt><trkpt lat="35.0061015" lon="32.7264972"><ele>1038.9</ele><time>2015-04-27T12:51:58.0000000+00:00</time></trkpt><trkpt lat="35.0061836" lon="32.7264956"><ele>1038.9</ele><time>2015-04-27T12:51:59.0000000+00:00</time></trkpt><trkpt lat="35.0062687" lon="32.7264935"><ele>1038.4</ele><time>2015-04-27T12:52:00.0000000+00:00</time></trkpt><trkpt lat="35.0063478" lon="32.7264919"><ele>1038.2</ele><time>2015-04-27T12:52:01.0000000+00:00</time></trkpt><trkpt lat="35.0064141" lon="32.7264936"><ele>1037.6</ele><time>2015-04-27T12:52:02.0000000+00:00</time></trkpt><trkpt lat="35.0064815" lon="32.7264986"><ele>1037.7</ele><time>2015-04-27T12:52:03.0000000+00:00</time></trkpt><trkpt lat="35.0065379" lon="32.7265531"><ele>1037.8</ele><time>2015-04-27T12:52:04.0000000+00:00</time></trkpt><trkpt lat="35.006571" lon="32.7266193"><ele>1037.9</ele><time>2015-04-27T12:52:05.0000000+00:00</time></trkpt><trkpt lat="35.006588" lon="32.7266905"><ele>1038.4</ele><time>2015-04-27T12:52:06.0000000+00:00</time></trkpt><trkpt lat="35.0065903" lon="32.7267698"><ele>1039.2</ele><time>2015-04-27T12:52:07.0000000+00:00</time></trkpt><trkpt lat="35.0065911" lon="32.7268417"><ele>1039.5</ele><time>2015-04-27T12:52:08.0000000+00:00</time></trkpt><trkpt lat="35.0065947" lon="32.7269246"><ele>1039.2</ele><time>2015-04-27T12:52:09.0000000+00:00</time></trkpt><trkpt lat="35.0066102" lon="32.7270064"><ele>1039.1</ele><time>2015-04-27T12:52:10.0000000+00:00</time></trkpt><trkpt lat="35.0066333" lon="32.7270908"><ele>1039.0</ele><time>2015-04-27T12:52:11.0000000+00:00</time></trkpt><trkpt lat="35.0066719" lon="32.7271668"><ele>1039.0</ele><time>2015-04-27T12:52:12.0000000+00:00</time></trkpt><trkpt lat="35.0067242" lon="32.727231"><ele>1038.9</ele><time>2015-04-27T12:52:13.0000000+00:00</time></trkpt><trkpt lat="35.0067782" lon="32.7272906"><ele>1038.9</ele><time>2015-04-27T12:52:14.0000000+00:00</time></trkpt><trkpt lat="35.0068308" lon="32.7273469"><ele>1038.9</ele><time>2015-04-27T12:52:15.0000000+00:00</time></trkpt><trkpt lat="35.0068758" lon="32.7273967"><ele>1038.9</ele><time>2015-04-27T12:52:16.0000000+00:00</time></trkpt><trkpt lat="35.0069309" lon="32.7274507"><ele>1039.4</ele><time>2015-04-27T12:52:17.0000000+00:00</time></trkpt><trkpt lat="35.0069914" lon="32.7274975"><ele>1039.2</ele><time>2015-04-27T12:52:18.0000000+00:00</time></trkpt><trkpt lat="35.0070507" lon="32.7275502"><ele>1039.6</ele><time>2015-04-27T12:52:19.0000000+00:00</time></trkpt><trkpt lat="35.007106" lon="32.7276031"><ele>1039.7</ele><time>2015-04-27T12:52:20.0000000+00:00</time></trkpt><trkpt lat="35.007163" lon="32.7276608"><ele>1039.8</ele><time>2015-04-27T12:52:21.0000000+00:00</time></trkpt><trkpt lat="35.0072188" lon="32.7277224"><ele>1039.4</ele><time>2015-04-27T12:52:22.0000000+00:00</time></trkpt><trkpt lat="35.0072755" lon="32.7277759"><ele>1039.2</ele><time>2015-04-27T12:52:23.0000000+00:00</time></trkpt><trkpt lat="35.0073378" lon="32.7278336"><ele>1039.0</ele><time>2015-04-27T12:52:24.0000000+00:00</time></trkpt><trkpt lat="35.0073938" lon="32.727893"><ele>1039.0</ele><time>2015-04-27T12:52:25.0000000+00:00</time></trkpt><trkpt lat="35.0074548" lon="32.7279411"><ele>1038.5</ele><time>2015-04-27T12:52:26.0000000+00:00</time></trkpt><trkpt lat="35.0075257" lon="32.7279784"><ele>1038.2</ele><time>2015-04-27T12:52:27.0000000+00:00</time></trkpt><trkpt lat="35.0075949" lon="32.7280042"><ele>1038.1</ele><time>2015-04-27T12:52:28.0000000+00:00</time></trkpt><trkpt lat="35.0076684" lon="32.7280237"><ele>1038.5</ele><time>2015-04-27T12:52:29.0000000+00:00</time></trkpt><trkpt lat="35.0077435" lon="32.7280294"><ele>1038.7</ele><time>2015-04-27T12:52:30.0000000+00:00</time></trkpt><trkpt lat="35.0078229" lon="32.7280201"><ele>1038.3</ele><time>2015-04-27T12:52:31.0000000+00:00</time></trkpt><trkpt lat="35.0078983" lon="32.7280113"><ele>1038.1</ele><time>2015-04-27T12:52:32.0000000+00:00</time></trkpt><trkpt lat="35.0079757" lon="32.7279948"><ele>1037.5</ele><time>2015-04-27T12:52:33.0000000+00:00</time></trkpt><trkpt lat="35.0080491" lon="32.7279888"><ele>1037.7</ele><time>2015-04-27T12:52:34.0000000+00:00</time></trkpt><trkpt lat="35.0081333" lon="32.7279886"><ele>1037.3</ele><time>2015-04-27T12:52:35.0000000+00:00</time></trkpt><trkpt lat="35.0082079" lon="32.7279947"><ele>1037.1</ele><time>2015-04-27T12:52:36.0000000+00:00</time></trkpt><trkpt lat="35.0082874" lon="32.7280212"><ele>1037.0</ele><time>2015-04-27T12:52:37.0000000+00:00</time></trkpt><trkpt lat="35.0083695" lon="32.7280565"><ele>1036.5</ele><time>2015-04-27T12:52:38.0000000+00:00</time></trkpt><trkpt lat="35.0084484" lon="32.7280987"><ele>1036.2</ele><time>2015-04-27T12:52:39.0000000+00:00</time></trkpt><trkpt lat="35.0085231" lon="32.7281344"><ele>1035.6</ele><time>2015-04-27T12:52:40.0000000+00:00</time></trkpt><trkpt lat="35.0085974" lon="32.7281698"><ele>1035.2</ele><time>2015-04-27T12:52:41.0000000+00:00</time></trkpt><trkpt lat="35.0086738" lon="32.7282004"><ele>1035.6</ele><time>2015-04-27T12:52:42.0000000+00:00</time></trkpt><trkpt lat="35.0087506" lon="32.728215"><ele>1035.3</ele><time>2015-04-27T12:52:43.0000000+00:00</time></trkpt><trkpt lat="35.008835" lon="32.7282186"><ele>1035.6</ele><time>2015-04-27T12:52:44.0000000+00:00</time></trkpt><trkpt lat="35.0089146" lon="32.7282129"><ele>1035.8</ele><time>2015-04-27T12:52:45.0000000+00:00</time></trkpt><trkpt lat="35.0089932" lon="32.7282071"><ele>1035.3</ele><time>2015-04-27T12:52:46.0000000+00:00</time></trkpt><trkpt lat="35.0090696" lon="32.7282109"><ele>1035.1</ele><time>2015-04-27T12:52:47.0000000+00:00</time></trkpt><trkpt lat="35.0091458" lon="32.7282076"><ele>1034.5</ele><time>2015-04-27T12:52:48.0000000+00:00</time></trkpt><trkpt lat="35.0092306" lon="32.7282073"><ele>1033.2</ele><time>2015-04-27T12:52:49.0000000+00:00</time></trkpt><trkpt lat="35.0093082" lon="32.7281917"><ele>1032.6</ele><time>2015-04-27T12:52:50.0000000+00:00</time></trkpt><trkpt lat="35.0093877" lon="32.7281689"><ele>1032.8</ele><time>2015-04-27T12:52:51.0000000+00:00</time></trkpt><trkpt lat="35.0094623" lon="32.7281417"><ele>1032.8</ele><time>2015-04-27T12:52:52.0000000+00:00</time></trkpt><trkpt lat="35.0095441" lon="32.7281184"><ele>1033.4</ele><time>2015-04-27T12:52:53.0000000+00:00</time></trkpt><trkpt lat="35.0096121" lon="32.7280742"><ele>1033.7</ele><time>2015-04-27T12:52:54.0000000+00:00</time></trkpt><trkpt lat="35.009687" lon="32.7280431"><ele>1033.3</ele><time>2015-04-27T12:52:55.0000000+00:00</time></trkpt><trkpt lat="35.0097657" lon="32.7280117"><ele>1033.1</ele><time>2015-04-27T12:52:56.0000000+00:00</time></trkpt><trkpt lat="35.0098509" lon="32.7279878"><ele>1033.0</ele><time>2015-04-27T12:52:57.0000000+00:00</time></trkpt><trkpt lat="35.0099276" lon="32.7279478"><ele>1033.0</ele><time>2015-04-27T12:52:58.0000000+00:00</time></trkpt><trkpt lat="35.0099963" lon="32.7279265"><ele>1032.5</ele><time>2015-04-27T12:52:59.0000000+00:00</time></trkpt><trkpt lat="35.0100693" lon="32.7278753"><ele>1032.7</ele><time>2015-04-27T12:53:00.0000000+00:00</time></trkpt><trkpt lat="35.0101362" lon="32.7278111"><ele>1032.8</ele><time>2015-04-27T12:53:01.0000000+00:00</time></trkpt><trkpt lat="35.0102013" lon="32.7277317"><ele>1032.4</ele><time>2015-04-27T12:53:02.0000000+00:00</time></trkpt><trkpt lat="35.010258" lon="32.7276486"><ele>1032.2</ele><time>2015-04-27T12:53:03.0000000+00:00</time></trkpt><trkpt lat="35.010304" lon="32.727558"><ele>1031.5</ele><time>2015-04-27T12:53:04.0000000+00:00</time></trkpt><trkpt lat="35.0103536" lon="32.7274682"><ele>1030.7</ele><time>2015-04-27T12:53:05.0000000+00:00</time></trkpt><trkpt lat="35.0104098" lon="32.7273792"><ele>1030.3</ele><time>2015-04-27T12:53:06.0000000+00:00</time></trkpt><trkpt lat="35.0104592" lon="32.7272919"><ele>1029.6</ele><time>2015-04-27T12:53:07.0000000+00:00</time></trkpt><trkpt lat="35.0105177" lon="32.7272037"><ele>1029.3</ele><time>2015-04-27T12:53:08.0000000+00:00</time></trkpt><trkpt lat="35.0105791" lon="32.7271108"><ele>1029.1</ele><time>2015-04-27T12:53:09.0000000+00:00</time></trkpt><trkpt lat="35.0106394" lon="32.7270312"><ele>1029.0</ele><time>2015-04-27T12:53:10.0000000+00:00</time></trkpt><trkpt lat="35.0106997" lon="32.7269414"><ele>1028.5</ele><time>2015-04-27T12:53:11.0000000+00:00</time></trkpt><trkpt lat="35.010758" lon="32.7268529"><ele>1027.2</ele><time>2015-04-27T12:53:12.0000000+00:00</time></trkpt><trkpt lat="35.0108046" lon="32.7267633"><ele>1027.1</ele><time>2015-04-27T12:53:13.0000000+00:00</time></trkpt><trkpt lat="35.0108665" lon="32.7267038"><ele>1026.5</ele><time>2015-04-27T12:53:14.0000000+00:00</time></trkpt><trkpt lat="35.0109383" lon="32.726676"><ele>1026.2</ele><time>2015-04-27T12:53:15.0000000+00:00</time></trkpt><trkpt lat="35.0110127" lon="32.7266822"><ele>1026.1</ele><time>2015-04-27T12:53:16.0000000+00:00</time></trkpt><trkpt lat="35.0110801" lon="32.7267132"><ele>1026.0</ele><time>2015-04-27T12:53:17.0000000+00:00</time></trkpt><trkpt lat="35.0111461" lon="32.7267669"><ele>1025.0</ele><time>2015-04-27T12:53:18.0000000+00:00</time></trkpt><trkpt lat="35.0112052" lon="32.726829"><ele>1023.9</ele><time>2015-04-27T12:53:19.0000000+00:00</time></trkpt><trkpt lat="35.0112672" lon="32.7268916"><ele>1023.9</ele><time>2015-04-27T12:53:20.0000000+00:00</time></trkpt><trkpt lat="35.011333" lon="32.7269472"><ele>1023.4</ele><time>2015-04-27T12:53:21.0000000+00:00</time></trkpt><trkpt lat="35.0114026" lon="32.7269947"><ele>1023.2</ele><time>2015-04-27T12:53:22.0000000+00:00</time></trkpt><trkpt lat="35.0114652" lon="32.7270501"><ele>1023.1</ele><time>2015-04-27T12:53:23.0000000+00:00</time></trkpt><trkpt lat="35.011538" lon="32.7271219"><ele>1022.5</ele><time>2015-04-27T12:53:24.0000000+00:00</time></trkpt><trkpt lat="35.0116056" lon="32.7271949"><ele>1021.7</ele><time>2015-04-27T12:53:25.0000000+00:00</time></trkpt><trkpt lat="35.0116716" lon="32.7272697"><ele>1020.8</ele><time>2015-04-27T12:53:26.0000000+00:00</time></trkpt><trkpt lat="35.0117444" lon="32.7273402"><ele>1020.9</ele><time>2015-04-27T12:53:27.0000000+00:00</time></trkpt><trkpt lat="35.0118205" lon="32.7274018"><ele>1020.4</ele><time>2015-04-27T12:53:28.0000000+00:00</time></trkpt><trkpt lat="35.0119027" lon="32.7274624"><ele>1020.2</ele><time>2015-04-27T12:53:29.0000000+00:00</time></trkpt><trkpt lat="35.0119865" lon="32.7275131"><ele>1020.0</ele><time>2015-04-27T12:53:30.0000000+00:00</time></trkpt><trkpt lat="35.0120785" lon="32.7275598"><ele>1020.5</ele><time>2015-04-27T12:53:31.0000000+00:00</time></trkpt><trkpt lat="35.0121733" lon="32.7275944"><ele>1020.7</ele><time>2015-04-27T12:53:32.0000000+00:00</time></trkpt><trkpt lat="35.0122714" lon="32.7276296"><ele>1020.8</ele><time>2015-04-27T12:53:33.0000000+00:00</time></trkpt><trkpt lat="35.0123594" lon="32.7276674"><ele>1020.9</ele><time>2015-04-27T12:53:34.0000000+00:00</time></trkpt><trkpt lat="35.0124453" lon="32.7276925"><ele>1020.4</ele><time>2015-04-27T12:53:35.0000000+00:00</time></trkpt><trkpt lat="35.012532" lon="32.7277104"><ele>1020.7</ele><time>2015-04-27T12:53:36.0000000+00:00</time></trkpt><trkpt lat="35.0126081" lon="32.7276972"><ele>1020.8</ele><time>2015-04-27T12:53:37.0000000+00:00</time></trkpt><trkpt lat="35.0126979" lon="32.7276625"><ele>1021.9</ele><time>2015-04-27T12:53:38.0000000+00:00</time></trkpt><trkpt lat="35.0127859" lon="32.7276351"><ele>1021.9</ele><time>2015-04-27T12:53:39.0000000+00:00</time></trkpt><trkpt lat="35.0128668" lon="32.7275966"><ele>1022.4</ele><time>2015-04-27T12:53:40.0000000+00:00</time></trkpt><trkpt lat="35.0129436" lon="32.7275626"><ele>1022.7</ele><time>2015-04-27T12:53:41.0000000+00:00</time></trkpt><trkpt lat="35.0130204" lon="32.7275256"><ele>1022.8</ele><time>2015-04-27T12:53:42.0000000+00:00</time></trkpt><trkpt lat="35.0130898" lon="32.727483"><ele>1023.4</ele><time>2015-04-27T12:53:43.0000000+00:00</time></trkpt><trkpt lat="35.0131597" lon="32.7274562"><ele>1023.6</ele><time>2015-04-27T12:53:44.0000000+00:00</time></trkpt><trkpt lat="35.0132219" lon="32.7274281"><ele>1023.8</ele><time>2015-04-27T12:53:45.0000000+00:00</time></trkpt><trkpt lat="35.0132839" lon="32.7274196"><ele>1023.9</ele><time>2015-04-27T12:53:46.0000000+00:00</time></trkpt><trkpt lat="35.0133437" lon="32.7274155"><ele>1023.9</ele><time>2015-04-27T12:53:47.0000000+00:00</time></trkpt><trkpt lat="35.0134092" lon="32.7274202"><ele>1023.4</ele><time>2015-04-27T12:53:48.0000000+00:00</time></trkpt><trkpt lat="35.01346" lon="32.7274251"><ele>1023.7</ele><time>2015-04-27T12:53:49.0000000+00:00</time></trkpt><trkpt lat="35.0135356" lon="32.7274329"><ele>1022.4</ele><time>2015-04-27T12:53:51.0000000+00:00</time></trkpt><trkpt lat="35.0135874" lon="32.7274571"><ele>1021.5</ele><time>2015-04-27T12:53:53.0000000+00:00</time></trkpt><trkpt lat="35.0135812" lon="32.7275126"><ele>1023.3</ele><time>2015-04-27T12:55:56.0000000+00:00</time></trkpt><trkpt lat="35.0135577" lon="32.7275718"><ele>1023.5</ele><time>2015-04-27T12:56:01.0000000+00:00</time></trkpt><trkpt lat="35.0135671" lon="32.7276516"><ele>1023.1</ele><time>2015-04-27T12:56:04.0000000+00:00</time></trkpt><trkpt lat="35.013581" lon="32.727727"><ele>1022.5</ele><time>2015-04-27T12:56:06.0000000+00:00</time></trkpt><trkpt lat="35.0135928" lon="32.7278054"><ele>1021.6</ele><time>2015-04-27T12:56:08.0000000+00:00</time></trkpt><trkpt lat="35.0135989" lon="32.7278974"><ele>1020.8</ele><time>2015-04-27T12:56:10.0000000+00:00</time></trkpt><trkpt lat="35.0136065" lon="32.7280045"><ele>1020.2</ele><time>2015-04-27T12:56:12.0000000+00:00</time></trkpt><trkpt lat="35.0136121" lon="32.7280601"><ele>1020.0</ele><time>2015-04-27T12:56:13.0000000+00:00</time></trkpt><trkpt lat="35.0136119" lon="32.7281338"><ele>1020.0</ele><time>2015-04-27T12:56:14.0000000+00:00</time></trkpt><trkpt lat="35.0136072" lon="32.7281972"><ele>1019.5</ele><time>2015-04-27T12:56:15.0000000+00:00</time></trkpt><trkpt lat="35.0136004" lon="32.7282641"><ele>1018.7</ele><time>2015-04-27T12:56:16.0000000+00:00</time></trkpt><trkpt lat="35.0135754" lon="32.728328"><ele>1018.8</ele><time>2015-04-27T12:56:17.0000000+00:00</time></trkpt><trkpt lat="35.0135467" lon="32.7283926"><ele>1018.4</ele><time>2015-04-27T12:56:18.0000000+00:00</time></trkpt><trkpt lat="35.0135081" lon="32.728454"><ele>1018.2</ele><time>2015-04-27T12:56:19.0000000+00:00</time></trkpt><trkpt lat="35.0134653" lon="32.7285105"><ele>1018.0</ele><time>2015-04-27T12:56:20.0000000+00:00</time></trkpt><trkpt lat="35.0134201" lon="32.7285611"><ele>1018.0</ele><time>2015-04-27T12:56:21.0000000+00:00</time></trkpt><trkpt lat="35.0133745" lon="32.7286143"><ele>1018.0</ele><time>2015-04-27T12:56:22.0000000+00:00</time></trkpt><trkpt lat="35.0133281" lon="32.7286576"><ele>1017.9</ele><time>2015-04-27T12:56:23.0000000+00:00</time></trkpt><trkpt lat="35.0132708" lon="32.7286874"><ele>1018.4</ele><time>2015-04-27T12:56:24.0000000+00:00</time></trkpt><trkpt lat="35.0132108" lon="32.7287085"><ele>1018.7</ele><time>2015-04-27T12:56:25.0000000+00:00</time></trkpt><trkpt lat="35.0131485" lon="32.7287125"><ele>1018.8</ele><time>2015-04-27T12:56:26.0000000+00:00</time></trkpt><trkpt lat="35.013083" lon="32.7287026"><ele>1018.9</ele><time>2015-04-27T12:56:27.0000000+00:00</time></trkpt><trkpt lat="35.0130186" lon="32.7287008"><ele>1019.4</ele><time>2015-04-27T12:56:28.0000000+00:00</time></trkpt><trkpt lat="35.0129508" lon="32.7287009"><ele>1019.2</ele><time>2015-04-27T12:56:29.0000000+00:00</time></trkpt><trkpt lat="35.0128794" lon="32.7286933"><ele>1019.0</ele><time>2015-04-27T12:56:30.0000000+00:00</time></trkpt><trkpt lat="35.012803" lon="32.7286915"><ele>1019.0</ele><time>2015-04-27T12:56:31.0000000+00:00</time></trkpt><trkpt lat="35.01273" lon="32.7286701"><ele>1018.5</ele><time>2015-04-27T12:56:32.0000000+00:00</time></trkpt><trkpt lat="35.0126487" lon="32.7286617"><ele>1018.2</ele><time>2015-04-27T12:56:33.0000000+00:00</time></trkpt><trkpt lat="35.0125749" lon="32.7286462"><ele>1018.1</ele><time>2015-04-27T12:56:34.0000000+00:00</time></trkpt><trkpt lat="35.0124924" lon="32.7286451"><ele>1017.5</ele><time>2015-04-27T12:56:35.0000000+00:00</time></trkpt><trkpt lat="35.0124108" lon="32.7286689"><ele>1017.2</ele><time>2015-04-27T12:56:36.0000000+00:00</time></trkpt><trkpt lat="35.0123313" lon="32.7287127"><ele>1017.6</ele><time>2015-04-27T12:56:37.0000000+00:00</time></trkpt><trkpt lat="35.0122603" lon="32.728766"><ele>1017.3</ele><time>2015-04-27T12:56:38.0000000+00:00</time></trkpt><trkpt lat="35.0121886" lon="32.7288221"><ele>1017.1</ele><time>2015-04-27T12:56:39.0000000+00:00</time></trkpt><trkpt lat="35.0121226" lon="32.7288671"><ele>1017.0</ele><time>2015-04-27T12:56:40.0000000+00:00</time></trkpt><trkpt lat="35.0120464" lon="32.7288837"><ele>1016.0</ele><time>2015-04-27T12:56:41.0000000+00:00</time></trkpt><trkpt lat="35.011967" lon="32.7288943"><ele>1015.5</ele><time>2015-04-27T12:56:42.0000000+00:00</time></trkpt><trkpt lat="35.0118816" lon="32.7289024"><ele>1014.7</ele><time>2015-04-27T12:56:43.0000000+00:00</time></trkpt><trkpt lat="35.0117961" lon="32.7289017"><ele>1014.3</ele><time>2015-04-27T12:56:44.0000000+00:00</time></trkpt><trkpt lat="35.011716" lon="32.7288955"><ele>1013.1</ele><time>2015-04-27T12:56:45.0000000+00:00</time></trkpt><trkpt lat="35.0116291" lon="32.728897"><ele>1012.0</ele><time>2015-04-27T12:56:46.0000000+00:00</time></trkpt><trkpt lat="35.0115469" lon="32.7289154"><ele>1011.5</ele><time>2015-04-27T12:56:47.0000000+00:00</time></trkpt><trkpt lat="35.0114665" lon="32.7289552"><ele>1010.7</ele><time>2015-04-27T12:56:48.0000000+00:00</time></trkpt><trkpt lat="35.0114024" lon="32.7290184"><ele>1010.8</ele><time>2015-04-27T12:56:49.0000000+00:00</time></trkpt><trkpt lat="35.0113474" lon="32.7290822"><ele>1010.4</ele><time>2015-04-27T12:56:50.0000000+00:00</time></trkpt><trkpt lat="35.0113108" lon="32.7291848"><ele>1010.2</ele><time>2015-04-27T12:56:51.0000000+00:00</time></trkpt><trkpt lat="35.0113197" lon="32.7292832"><ele>1009.5</ele><time>2015-04-27T12:56:52.0000000+00:00</time></trkpt><trkpt lat="35.011319" lon="32.7293783"><ele>1008.7</ele><time>2015-04-27T12:56:53.0000000+00:00</time></trkpt><trkpt lat="35.0113162" lon="32.7294871"><ele>1007.8</ele><time>2015-04-27T12:56:54.0000000+00:00</time></trkpt><trkpt lat="35.011308" lon="32.7295853"><ele>1006.9</ele><time>2015-04-27T12:56:55.0000000+00:00</time></trkpt><trkpt lat="35.0112837" lon="32.7296796"><ele>1005.4</ele><time>2015-04-27T12:56:56.0000000+00:00</time></trkpt><trkpt lat="35.011263" lon="32.7297804"><ele>1004.7</ele><time>2015-04-27T12:56:57.0000000+00:00</time></trkpt><trkpt lat="35.0112193" lon="32.7298746"><ele>1003.3</ele><time>2015-04-27T12:56:58.0000000+00:00</time></trkpt><trkpt lat="35.0111622" lon="32.7299693"><ele>1002.6</ele><time>2015-04-27T12:56:59.0000000+00:00</time></trkpt><trkpt lat="35.0111066" lon="32.7300519"><ele>1001.3</ele><time>2015-04-27T12:57:00.0000000+00:00</time></trkpt><trkpt lat="35.0110484" lon="32.7301403"><ele>1000.6</ele><time>2015-04-27T12:57:01.0000000+00:00</time></trkpt><trkpt lat="35.0109971" lon="32.7302315"><ele>1000.3</ele><time>2015-04-27T12:57:02.0000000+00:00</time></trkpt><trkpt lat="35.0109502" lon="32.730327"><ele>1000.1</ele><time>2015-04-27T12:57:03.0000000+00:00</time></trkpt><trkpt lat="35.0109206" lon="32.7304185"><ele>999.5</ele><time>2015-04-27T12:57:04.0000000+00:00</time></trkpt><trkpt lat="35.0108932" lon="32.7305098"><ele>998.7</ele><time>2015-04-27T12:57:05.0000000+00:00</time></trkpt><trkpt lat="35.01087" lon="32.7305918"><ele>997.8</ele><time>2015-04-27T12:57:06.0000000+00:00</time></trkpt><trkpt lat="35.0108413" lon="32.7306707"><ele>996.9</ele><time>2015-04-27T12:57:07.0000000+00:00</time></trkpt><trkpt lat="35.0108184" lon="32.7307475"><ele>995.9</ele><time>2015-04-27T12:57:08.0000000+00:00</time></trkpt><trkpt lat="35.0107994" lon="32.7308182"><ele>994.9</ele><time>2015-04-27T12:57:09.0000000+00:00</time></trkpt><trkpt lat="35.0107816" lon="32.7308895"><ele>994.4</ele><time>2015-04-27T12:57:10.0000000+00:00</time></trkpt><trkpt lat="35.0107708" lon="32.7309607"><ele>994.2</ele><time>2015-04-27T12:57:11.0000000+00:00</time></trkpt><trkpt lat="35.0107616" lon="32.7310342"><ele>994.6</ele><time>2015-04-27T12:57:12.0000000+00:00</time></trkpt><trkpt lat="35.0107434" lon="32.7310974"><ele>994.7</ele><time>2015-04-27T12:57:13.0000000+00:00</time></trkpt><trkpt lat="35.0107074" lon="32.7311419"><ele>994.3</ele><time>2015-04-27T12:57:14.0000000+00:00</time></trkpt><trkpt lat="35.0106575" lon="32.7311701"><ele>994.1</ele><time>2015-04-27T12:57:15.0000000+00:00</time></trkpt><trkpt lat="35.0106084" lon="32.7311709"><ele>993.5</ele><time>2015-04-27T12:57:16.0000000+00:00</time></trkpt><trkpt lat="35.0105516" lon="32.7311503"><ele>992.7</ele><time>2015-04-27T12:57:17.0000000+00:00</time></trkpt><trkpt lat="35.010495" lon="32.7311292"><ele>992.3</ele><time>2015-04-27T12:57:18.0000000+00:00</time></trkpt><trkpt lat="35.0104343" lon="32.7310993"><ele>991.6</ele><time>2015-04-27T12:57:19.0000000+00:00</time></trkpt><trkpt lat="35.0103676" lon="32.7310723"><ele>990.8</ele><time>2015-04-27T12:57:20.0000000+00:00</time></trkpt><trkpt lat="35.0102951" lon="32.7310556"><ele>989.9</ele><time>2015-04-27T12:57:21.0000000+00:00</time></trkpt><trkpt lat="35.0102182" lon="32.7310416"><ele>988.9</ele><time>2015-04-27T12:57:22.0000000+00:00</time></trkpt><trkpt lat="35.0101487" lon="32.7310308"><ele>988.4</ele><time>2015-04-27T12:57:23.0000000+00:00</time></trkpt><trkpt lat="35.010087" lon="32.7310139"><ele>987.7</ele><time>2015-04-27T12:57:24.0000000+00:00</time></trkpt><trkpt lat="35.0100319" lon="32.7310021"><ele>987.3</ele><time>2015-04-27T12:57:25.0000000+00:00</time></trkpt><trkpt lat="35.0099765" lon="32.7309953"><ele>986.6</ele><time>2015-04-27T12:57:26.0000000+00:00</time></trkpt><trkpt lat="35.0099322" lon="32.7309803"><ele>986.3</ele><time>2015-04-27T12:57:27.0000000+00:00</time></trkpt><trkpt lat="35.0098519" lon="32.7309484"><ele>985.5</ele><time>2015-04-27T12:57:29.0000000+00:00</time></trkpt><trkpt lat="35.0097604" lon="32.7309279"><ele>984.6</ele><time>2015-04-27T12:57:31.0000000+00:00</time></trkpt><trkpt lat="35.0097102" lon="32.7309108"><ele>984.3</ele><time>2015-04-27T12:57:32.0000000+00:00</time></trkpt><trkpt lat="35.0096529" lon="32.7308928"><ele>983.6</ele><time>2015-04-27T12:57:33.0000000+00:00</time></trkpt><trkpt lat="35.0095985" lon="32.7308864"><ele>982.8</ele><time>2015-04-27T12:57:34.0000000+00:00</time></trkpt><trkpt lat="35.0095464" lon="32.730878"><ele>982.3</ele><time>2015-04-27T12:57:35.0000000+00:00</time></trkpt><trkpt lat="35.0095003" lon="32.7308678"><ele>981.6</ele><time>2015-04-27T12:57:36.0000000+00:00</time></trkpt><trkpt lat="35.0094112" lon="32.7308364"><ele>980.6</ele><time>2015-04-27T12:57:38.0000000+00:00</time></trkpt><trkpt lat="35.0093701" lon="32.7308035"><ele>979.8</ele><time>2015-04-27T12:57:39.0000000+00:00</time></trkpt><trkpt lat="35.0093344" lon="32.7307509"><ele>979.3</ele><time>2015-04-27T12:57:40.0000000+00:00</time></trkpt><trkpt lat="35.0093031" lon="32.7306888"><ele>979.1</ele><time>2015-04-27T12:57:41.0000000+00:00</time></trkpt><trkpt lat="35.0092718" lon="32.7306273"><ele>979.0</ele><time>2015-04-27T12:57:42.0000000+00:00</time></trkpt><trkpt lat="35.009234" lon="32.7305564"><ele>978.5</ele><time>2015-04-27T12:57:43.0000000+00:00</time></trkpt><trkpt lat="35.0091969" lon="32.7304915"><ele>978.2</ele><time>2015-04-27T12:57:44.0000000+00:00</time></trkpt><trkpt lat="35.009157" lon="32.7304215"><ele>977.1</ele><time>2015-04-27T12:57:45.0000000+00:00</time></trkpt><trkpt lat="35.0091188" lon="32.7303636"><ele>976.5</ele><time>2015-04-27T12:57:46.0000000+00:00</time></trkpt><trkpt lat="35.0090816" lon="32.7303119"><ele>976.2</ele><time>2015-04-27T12:57:47.0000000+00:00</time></trkpt><trkpt lat="35.0090482" lon="32.730266"><ele>976.1</ele><time>2015-04-27T12:57:48.0000000+00:00</time></trkpt><trkpt lat="35.009006" lon="32.7302382"><ele>976.0</ele><time>2015-04-27T12:57:49.0000000+00:00</time></trkpt><trkpt lat="35.0089272" lon="32.7302404"><ele>975.4</ele><time>2015-04-27T12:57:51.0000000+00:00</time></trkpt><trkpt lat="35.0088494" lon="32.7302877"><ele>975.1</ele><time>2015-04-27T12:57:53.0000000+00:00</time></trkpt><trkpt lat="35.00877" lon="32.7303239"><ele>974.5</ele><time>2015-04-27T12:57:55.0000000+00:00</time></trkpt><trkpt lat="35.0087063" lon="32.7303557"><ele>974.6</ele><time>2015-04-27T12:57:57.0000000+00:00</time></trkpt><trkpt lat="35.008655" lon="32.7303823"><ele>974.8</ele><time>2015-04-27T12:57:59.0000000+00:00</time></trkpt><trkpt lat="35.0086118" lon="32.7304032"><ele>974.4</ele><time>2015-04-27T12:58:01.0000000+00:00</time></trkpt><trkpt lat="35.0085662" lon="32.7304222"><ele>974.0</ele><time>2015-04-27T12:58:03.0000000+00:00</time></trkpt><trkpt lat="35.0085209" lon="32.7304471"><ele>974.7</ele><time>2015-04-27T12:58:05.0000000+00:00</time></trkpt><trkpt lat="35.0084728" lon="32.7304625"><ele>975.6</ele><time>2015-04-27T12:58:07.0000000+00:00</time></trkpt><trkpt lat="35.0084231" lon="32.7304572"><ele>975.4</ele><time>2015-04-27T12:58:09.0000000+00:00</time></trkpt><trkpt lat="35.0083704" lon="32.7304541"><ele>975.8</ele><time>2015-04-27T12:58:11.0000000+00:00</time></trkpt><trkpt lat="35.0083168" lon="32.7304538"><ele>975.1</ele><time>2015-04-27T12:58:13.0000000+00:00</time></trkpt><trkpt lat="35.008265" lon="32.730451"><ele>975.2</ele><time>2015-04-27T12:58:15.0000000+00:00</time></trkpt><trkpt lat="35.008214" lon="32.7304491"><ele>975.0</ele><time>2015-04-27T12:58:17.0000000+00:00</time></trkpt><trkpt lat="35.0081588" lon="32.730434"><ele>974.2</ele><time>2015-04-27T12:58:19.0000000+00:00</time></trkpt><trkpt lat="35.008103" lon="32.7304153"><ele>974.0</ele><time>2015-04-27T12:58:21.0000000+00:00</time></trkpt><trkpt lat="35.0080528" lon="32.7303953"><ele>973.4</ele><time>2015-04-27T12:58:23.0000000+00:00</time></trkpt><trkpt lat="35.0080026" lon="32.730373"><ele>974.2</ele><time>2015-04-27T12:58:26.0000000+00:00</time></trkpt><trkpt lat="35.0079458" lon="32.7303626"><ele>974.8</ele><time>2015-04-27T12:58:29.0000000+00:00</time></trkpt><trkpt lat="35.0078888" lon="32.7303497"><ele>975.4</ele><time>2015-04-27T12:58:32.0000000+00:00</time></trkpt><trkpt lat="35.0078384" lon="32.7303375"><ele>975.7</ele><time>2015-04-27T12:58:35.0000000+00:00</time></trkpt><trkpt lat="35.0077763" lon="32.7303322"><ele>975.7</ele><time>2015-04-27T12:58:38.0000000+00:00</time></trkpt><trkpt lat="35.0077278" lon="32.730334"><ele>975.9</ele><time>2015-04-27T12:58:40.0000000+00:00</time></trkpt><trkpt lat="35.0076801" lon="32.7303404"><ele>977.2</ele><time>2015-04-27T12:58:42.0000000+00:00</time></trkpt><trkpt lat="35.0076326" lon="32.7303491"><ele>977.7</ele><time>2015-04-27T12:58:44.0000000+00:00</time></trkpt><trkpt lat="35.0075854" lon="32.7303618"><ele>977.9</ele><time>2015-04-27T12:58:46.0000000+00:00</time></trkpt><trkpt lat="35.0075386" lon="32.7303771"><ele>978.7</ele><time>2015-04-27T12:58:48.0000000+00:00</time></trkpt><trkpt lat="35.0074909" lon="32.7303916"><ele>978.9</ele><time>2015-04-27T12:58:50.0000000+00:00</time></trkpt><trkpt lat="35.0074429" lon="32.7303937"><ele>978.9</ele><time>2015-04-27T12:58:52.0000000+00:00</time></trkpt><trkpt lat="35.0073942" lon="32.7303901"><ele>980.2</ele><time>2015-04-27T12:58:54.0000000+00:00</time></trkpt><trkpt lat="35.007347" lon="32.7303811"><ele>980.7</ele><time>2015-04-27T12:58:56.0000000+00:00</time></trkpt><trkpt lat="35.0073021" lon="32.7303657"><ele>980.9</ele><time>2015-04-27T12:58:58.0000000+00:00</time></trkpt><trkpt lat="35.0072546" lon="32.730349"><ele>980.4</ele><time>2015-04-27T12:59:00.0000000+00:00</time></trkpt><trkpt lat="35.0072102" lon="32.7303236"><ele>980.1</ele><time>2015-04-27T12:59:02.0000000+00:00</time></trkpt><trkpt lat="35.0071555" lon="32.7303025"><ele>979.1</ele><time>2015-04-27T12:59:05.0000000+00:00</time></trkpt><trkpt lat="35.0071037" lon="32.7302878"><ele>978.4</ele><time>2015-04-27T12:59:08.0000000+00:00</time></trkpt><trkpt lat="35.0070549" lon="32.7302747"><ele>979.6</ele><time>2015-04-27T12:59:10.0000000+00:00</time></trkpt><trkpt lat="35.006999" lon="32.7302606"><ele>979.3</ele><time>2015-04-27T12:59:12.0000000+00:00</time></trkpt><trkpt lat="35.0069405" lon="32.7302438"><ele>979.0</ele><time>2015-04-27T12:59:14.0000000+00:00</time></trkpt><trkpt lat="35.0068839" lon="32.7302288"><ele>979.0</ele><time>2015-04-27T12:59:16.0000000+00:00</time></trkpt><trkpt lat="35.0068378" lon="32.7302187"><ele>979.4</ele><time>2015-04-27T12:59:18.0000000+00:00</time></trkpt><trkpt lat="35.0067902" lon="32.7302082"><ele>979.1</ele><time>2015-04-27T12:59:20.0000000+00:00</time></trkpt><trkpt lat="35.0067286" lon="32.7301972"><ele>977.7</ele><time>2015-04-27T12:59:22.0000000+00:00</time></trkpt><trkpt lat="35.0066611" lon="32.7302047"><ele>976.9</ele><time>2015-04-27T12:59:24.0000000+00:00</time></trkpt><trkpt lat="35.0065998" lon="32.7302482"><ele>976.4</ele><time>2015-04-27T12:59:26.0000000+00:00</time></trkpt><trkpt lat="35.0065567" lon="32.7303184"><ele>975.6</ele><time>2015-04-27T12:59:28.0000000+00:00</time></trkpt><trkpt lat="35.0065339" lon="32.7304018"><ele>975.1</ele><time>2015-04-27T12:59:30.0000000+00:00</time></trkpt><trkpt lat="35.0065301" lon="32.7304934"><ele>975.0</ele><time>2015-04-27T12:59:32.0000000+00:00</time></trkpt><trkpt lat="35.0065376" lon="32.7305852"><ele>974.9</ele><time>2015-04-27T12:59:34.0000000+00:00</time></trkpt><trkpt lat="35.0065473" lon="32.730669"><ele>975.4</ele><time>2015-04-27T12:59:36.0000000+00:00</time></trkpt><trkpt lat="35.0065476" lon="32.7307306"><ele>975.8</ele><time>2015-04-27T12:59:38.0000000+00:00</time></trkpt><trkpt lat="35.0065422" lon="32.7307914"><ele>975.9</ele><time>2015-04-27T12:59:40.0000000+00:00</time></trkpt><trkpt lat="35.0065466" lon="32.7308534"><ele>976.7</ele><time>2015-04-27T12:59:42.0000000+00:00</time></trkpt><trkpt lat="35.0065602" lon="32.7309187"><ele>976.9</ele><time>2015-04-27T12:59:44.0000000+00:00</time></trkpt><trkpt lat="35.0065718" lon="32.7309987"><ele>976.9</ele><time>2015-04-27T12:59:46.0000000+00:00</time></trkpt><trkpt lat="35.0065767" lon="32.7310879"><ele>977.4</ele><time>2015-04-27T12:59:48.0000000+00:00</time></trkpt><trkpt lat="35.0065814" lon="32.7311768"><ele>977.8</ele><time>2015-04-27T12:59:50.0000000+00:00</time></trkpt><trkpt lat="35.0065873" lon="32.7312632"><ele>977.9</ele><time>2015-04-27T12:59:52.0000000+00:00</time></trkpt><trkpt lat="35.006591" lon="32.7313441"><ele>977.9</ele><time>2015-04-27T12:59:54.0000000+00:00</time></trkpt><trkpt lat="35.0065885" lon="32.7314246"><ele>978.2</ele><time>2015-04-27T12:59:56.0000000+00:00</time></trkpt><trkpt lat="35.0065962" lon="32.7315038"><ele>978.0</ele><time>2015-04-27T12:59:58.0000000+00:00</time></trkpt><trkpt lat="35.0066078" lon="32.7315622"><ele>977.2</ele><time>2015-04-27T13:00:00.0000000+00:00</time></trkpt><trkpt lat="35.006626" lon="32.7316148"><ele>976.2</ele><time>2015-04-27T13:00:03.0000000+00:00</time></trkpt><trkpt lat="35.0066427" lon="32.7316818"><ele>976.3</ele><time>2015-04-27T13:00:06.0000000+00:00</time></trkpt><trkpt lat="35.006657" lon="32.7317435"><ele>976.0</ele><time>2015-04-27T13:00:09.0000000+00:00</time></trkpt><trkpt lat="35.0066576" lon="32.7318079"><ele>976.8</ele><time>2015-04-27T13:00:12.0000000+00:00</time></trkpt><trkpt lat="35.0066527" lon="32.7318646"><ele>978.2</ele><time>2015-04-27T13:00:14.0000000+00:00</time></trkpt><trkpt lat="35.0066362" lon="32.731927"><ele>978.7</ele><time>2015-04-27T13:00:16.0000000+00:00</time></trkpt><trkpt lat="35.0066059" lon="32.731987"><ele>979.6</ele><time>2015-04-27T13:00:18.0000000+00:00</time></trkpt><trkpt lat="35.0065689" lon="32.7320509"><ele>980.4</ele><time>2015-04-27T13:00:20.0000000+00:00</time></trkpt><trkpt lat="35.0065262" lon="32.7321187"><ele>981.3</ele><time>2015-04-27T13:00:22.0000000+00:00</time></trkpt><trkpt lat="35.0064838" lon="32.7321789"><ele>982.3</ele><time>2015-04-27T13:00:24.0000000+00:00</time></trkpt><trkpt lat="35.0064531" lon="32.7322229"><ele>982.8</ele><time>2015-04-27T13:00:26.0000000+00:00</time></trkpt><trkpt lat="35.006418" lon="32.7322845"><ele>982.9</ele><time>2015-04-27T13:00:29.0000000+00:00</time></trkpt><trkpt lat="35.006387" lon="32.732347"><ele>982.9</ele><time>2015-04-27T13:00:32.0000000+00:00</time></trkpt><trkpt lat="35.0063561" lon="32.7324006"><ele>982.2</ele><time>2015-04-27T13:00:36.0000000+00:00</time></trkpt><trkpt lat="35.0063427" lon="32.7324537"><ele>983.7</ele><time>2015-04-27T13:00:39.0000000+00:00</time></trkpt><trkpt lat="35.0063392" lon="32.7325108"><ele>983.9</ele><time>2015-04-27T13:00:41.0000000+00:00</time></trkpt><trkpt lat="35.0063354" lon="32.7325709"><ele>984.7</ele><time>2015-04-27T13:00:43.0000000+00:00</time></trkpt><trkpt lat="35.006319" lon="32.7326272"><ele>985.6</ele><time>2015-04-27T13:00:45.0000000+00:00</time></trkpt><trkpt lat="35.0062956" lon="32.7326757"><ele>985.9</ele><time>2015-04-27T13:00:47.0000000+00:00</time></trkpt><trkpt lat="35.0062674" lon="32.7327398"><ele>986.0</ele><time>2015-04-27T13:00:50.0000000+00:00</time></trkpt><trkpt lat="35.0062347" lon="32.7327979"><ele>986.7</ele><time>2015-04-27T13:00:54.0000000+00:00</time></trkpt><trkpt lat="35.0062012" lon="32.7328346"><ele>989.0</ele><time>2015-04-27T13:00:57.0000000+00:00</time></trkpt><trkpt lat="35.0061585" lon="32.7328602"><ele>990.6</ele><time>2015-04-27T13:01:00.0000000+00:00</time></trkpt><trkpt lat="35.0061104" lon="32.7328858"><ele>990.4</ele><time>2015-04-27T13:01:03.0000000+00:00</time></trkpt><trkpt lat="35.0060563" lon="32.7328878"><ele>990.0</ele><time>2015-04-27T13:01:06.0000000+00:00</time></trkpt><trkpt lat="35.0060084" lon="32.7328843"><ele>989.9</ele><time>2015-04-27T13:01:08.0000000+00:00</time></trkpt><trkpt lat="35.0059485" lon="32.7328591"><ele>991.1</ele><time>2015-04-27T13:01:11.0000000+00:00</time></trkpt><trkpt lat="35.0059059" lon="32.7328153"><ele>991.9</ele><time>2015-04-27T13:01:15.0000000+00:00</time></trkpt><trkpt lat="35.0058649" lon="32.7327646"><ele>991.4</ele><time>2015-04-27T13:01:19.0000000+00:00</time></trkpt><trkpt lat="35.0058237" lon="32.7327208"><ele>991.4</ele><time>2015-04-27T13:01:23.0000000+00:00</time></trkpt><trkpt lat="35.0057937" lon="32.7326668"><ele>991.9</ele><time>2015-04-27T13:01:27.0000000+00:00</time></trkpt><trkpt lat="35.0057648" lon="32.732621"><ele>993.6</ele><time>2015-04-27T13:01:31.0000000+00:00</time></trkpt><trkpt lat="35.0057295" lon="32.7325808"><ele>994.2</ele><time>2015-04-27T13:01:35.0000000+00:00</time></trkpt><trkpt lat="35.0056938" lon="32.7325422"><ele>996.1</ele><time>2015-04-27T13:01:39.0000000+00:00</time></trkpt><trkpt lat="35.0056575" lon="32.7325038"><ele>997.4</ele><time>2015-04-27T13:01:43.0000000+00:00</time></trkpt><trkpt lat="35.0056168" lon="32.7324701"><ele>998.8</ele><time>2015-04-27T13:01:47.0000000+00:00</time></trkpt><trkpt lat="35.0055858" lon="32.7324302"><ele>999.4</ele><time>2015-04-27T13:01:51.0000000+00:00</time></trkpt><trkpt lat="35.0055403" lon="32.7323931"><ele>1000.7</ele><time>2015-04-27T13:01:56.0000000+00:00</time></trkpt><trkpt lat="35.0055087" lon="32.732351"><ele>1000.9</ele><time>2015-04-27T13:02:00.0000000+00:00</time></trkpt><trkpt lat="35.0054665" lon="32.7323176"><ele>1001.7</ele><time>2015-04-27T13:02:04.0000000+00:00</time></trkpt><trkpt lat="35.0054255" lon="32.7322824"><ele>1001.9</ele><time>2015-04-27T13:02:08.0000000+00:00</time></trkpt><trkpt lat="35.005386" lon="32.7322414"><ele>1001.9</ele><time>2015-04-27T13:02:12.0000000+00:00</time></trkpt><trkpt lat="35.0053438" lon="32.7322035"><ele>1002.4</ele><time>2015-04-27T13:02:16.0000000+00:00</time></trkpt><trkpt lat="35.0053082" lon="32.7321559"><ele>1002.9</ele><time>2015-04-27T13:02:20.0000000+00:00</time></trkpt><trkpt lat="35.0052763" lon="32.732108"><ele>1004.2</ele><time>2015-04-27T13:02:24.0000000+00:00</time></trkpt><trkpt lat="35.00523" lon="32.7321148"><ele>998.3</ele><time>2015-04-27T13:14:38.0000000+00:00</time></trkpt><trkpt lat="35.005177" lon="32.7321054"><ele>998.9</ele><time>2015-04-27T13:14:44.0000000+00:00</time></trkpt><trkpt lat="35.005131" lon="32.732112"><ele>1000.0</ele><time>2015-04-27T13:14:48.0000000+00:00</time></trkpt><trkpt lat="35.005085" lon="32.7321087"><ele>1000.4</ele><time>2015-04-27T13:14:52.0000000+00:00</time></trkpt><trkpt lat="35.0050345" lon="32.7321278"><ele>999.1</ele><time>2015-04-27T13:14:56.0000000+00:00</time></trkpt><trkpt lat="35.0049872" lon="32.7321493"><ele>999.9</ele><time>2015-04-27T13:15:00.0000000+00:00</time></trkpt><trkpt lat="35.004943" lon="32.7321667"><ele>1000.9</ele><time>2015-04-27T13:15:04.0000000+00:00</time></trkpt><trkpt lat="35.0048968" lon="32.7321977"><ele>1001.6</ele><time>2015-04-27T13:15:09.0000000+00:00</time></trkpt><trkpt lat="35.0048551" lon="32.7322237"><ele>1000.6</ele><time>2015-04-27T13:15:13.0000000+00:00</time></trkpt><trkpt lat="35.004808" lon="32.7322516"><ele>999.7</ele><time>2015-04-27T13:15:17.0000000+00:00</time></trkpt><trkpt lat="35.0047573" lon="32.7322804"><ele>1000.4</ele><time>2015-04-27T13:15:21.0000000+00:00</time></trkpt><trkpt lat="35.0047088" lon="32.7323191"><ele>1001.0</ele><time>2015-04-27T13:15:25.0000000+00:00</time></trkpt><trkpt lat="35.0046649" lon="32.7323592"><ele>1002.3</ele><time>2015-04-27T13:15:29.0000000+00:00</time></trkpt><trkpt lat="35.0046211" lon="32.7323995"><ele>1003.3</ele><time>2015-04-27T13:15:33.0000000+00:00</time></trkpt><trkpt lat="35.0045792" lon="32.7324413"><ele>1004.6</ele><time>2015-04-27T13:15:37.0000000+00:00</time></trkpt><trkpt lat="35.0045394" lon="32.7324848"><ele>1002.8</ele><time>2015-04-27T13:15:43.0000000+00:00</time></trkpt><trkpt lat="35.0045039" lon="32.7325274"><ele>1003.4</ele><time>2015-04-27T13:15:48.0000000+00:00</time></trkpt><trkpt lat="35.0044608" lon="32.7325697"><ele>1003.0</ele><time>2015-04-27T13:15:53.0000000+00:00</time></trkpt><trkpt lat="35.0044249" lon="32.7326134"><ele>1004.3</ele><time>2015-04-27T13:15:57.0000000+00:00</time></trkpt><trkpt lat="35.0043917" lon="32.7326537"><ele>1004.9</ele><time>2015-04-27T13:16:01.0000000+00:00</time></trkpt><trkpt lat="35.0043578" lon="32.7326947"><ele>1005.2</ele><time>2015-04-27T13:16:05.0000000+00:00</time></trkpt><trkpt lat="35.0043168" lon="32.7327335"><ele>1004.8</ele><time>2015-04-27T13:16:09.0000000+00:00</time></trkpt><trkpt lat="35.0042794" lon="32.732772"><ele>1005.8</ele><time>2015-04-27T13:16:13.0000000+00:00</time></trkpt><trkpt lat="35.0042392" lon="32.7328087"><ele>1006.8</ele><time>2015-04-27T13:16:17.0000000+00:00</time></trkpt><trkpt lat="35.004204" lon="32.7328475"><ele>1007.0</ele><time>2015-04-27T13:16:21.0000000+00:00</time></trkpt><trkpt lat="35.0041651" lon="32.7328834"><ele>1005.4</ele><time>2015-04-27T13:16:25.0000000+00:00</time></trkpt><trkpt lat="35.004126" lon="32.7329241"><ele>1005.0</ele><time>2015-04-27T13:16:29.0000000+00:00</time></trkpt><trkpt lat="35.0040868" lon="32.7329679"><ele>1005.6</ele><time>2015-04-27T13:16:33.0000000+00:00</time></trkpt><trkpt lat="35.0040449" lon="32.7330024"><ele>1004.5</ele><time>2015-04-27T13:16:37.0000000+00:00</time></trkpt><trkpt lat="35.0040061" lon="32.7330362"><ele>1005.4</ele><time>2015-04-27T13:16:41.0000000+00:00</time></trkpt><trkpt lat="35.0039587" lon="32.7330552"><ele>1006.9</ele><time>2015-04-27T13:16:47.0000000+00:00</time></trkpt><trkpt lat="35.0039133" lon="32.7330509"><ele>1007.5</ele><time>2015-04-27T13:16:53.0000000+00:00</time></trkpt><trkpt lat="35.003867" lon="32.7330473"><ele>1008.4</ele><time>2015-04-27T13:16:58.0000000+00:00</time></trkpt><trkpt lat="35.003815" lon="32.7330472"><ele>1010.4</ele><time>2015-04-27T13:17:03.0000000+00:00</time></trkpt><trkpt lat="35.0037632" lon="32.7330564"><ele>1012.8</ele><time>2015-04-27T13:17:08.0000000+00:00</time></trkpt><trkpt lat="35.0037116" lon="32.7330751"><ele>1013.2</ele><time>2015-04-27T13:17:13.0000000+00:00</time></trkpt><trkpt lat="35.0036678" lon="32.7330912"><ele>1012.9</ele><time>2015-04-27T13:17:17.0000000+00:00</time></trkpt><trkpt lat="35.0036234" lon="32.7331043"><ele>1013.4</ele><time>2015-04-27T13:17:21.0000000+00:00</time></trkpt><trkpt lat="35.0035689" lon="32.7331122"><ele>1013.5</ele><time>2015-04-27T13:17:26.0000000+00:00</time></trkpt><trkpt lat="35.0035219" lon="32.7331261"><ele>1013.2</ele><time>2015-04-27T13:17:30.0000000+00:00</time></trkpt><trkpt lat="35.0034736" lon="32.7331384"><ele>1014.9</ele><time>2015-04-27T13:17:34.0000000+00:00</time></trkpt><trkpt lat="35.003421" lon="32.7331442"><ele>1016.7</ele><time>2015-04-27T13:17:38.0000000+00:00</time></trkpt><trkpt lat="35.0033756" lon="32.7331388"><ele>1016.4</ele><time>2015-04-27T13:17:42.0000000+00:00</time></trkpt><trkpt lat="35.0033275" lon="32.7331181"><ele>1016.5</ele><time>2015-04-27T13:17:46.0000000+00:00</time></trkpt><trkpt lat="35.0032811" lon="32.7330913"><ele>1018.3</ele><time>2015-04-27T13:17:50.0000000+00:00</time></trkpt><trkpt lat="35.0032346" lon="32.7330627"><ele>1017.8</ele><time>2015-04-27T13:17:54.0000000+00:00</time></trkpt><trkpt lat="35.0031884" lon="32.7330472"><ele>1017.2</ele><time>2015-04-27T13:17:58.0000000+00:00</time></trkpt><trkpt lat="35.0031494" lon="32.7330187"><ele>1015.8</ele><time>2015-04-27T13:18:02.0000000+00:00</time></trkpt><trkpt lat="35.0031016" lon="32.732996"><ele>1015.9</ele><time>2015-04-27T13:18:06.0000000+00:00</time></trkpt><trkpt lat="35.0030529" lon="32.7329753"><ele>1016.6</ele><time>2015-04-27T13:18:11.0000000+00:00</time></trkpt><trkpt lat="35.0030083" lon="32.7329551"><ele>1017.3</ele><time>2015-04-27T13:18:16.0000000+00:00</time></trkpt><trkpt lat="35.0029625" lon="32.7329292"><ele>1017.1</ele><time>2015-04-27T13:18:21.0000000+00:00</time></trkpt><trkpt lat="35.0029096" lon="32.7329187"><ele>1017.1</ele><time>2015-04-27T13:18:27.0000000+00:00</time></trkpt><trkpt lat="35.0028606" lon="32.7329029"><ele>1017.1</ele><time>2015-04-27T13:18:32.0000000+00:00</time></trkpt><trkpt lat="35.0028116" lon="32.7328965"><ele>1019.5</ele><time>2015-04-27T13:18:36.0000000+00:00</time></trkpt><trkpt lat="35.0027598" lon="32.732887"><ele>1018.2</ele><time>2015-04-27T13:18:41.0000000+00:00</time></trkpt><trkpt lat="35.0027111" lon="32.7328776"><ele>1016.5</ele><time>2015-04-27T13:18:46.0000000+00:00</time></trkpt><trkpt lat="35.0026661" lon="32.7328778"><ele>1015.9</ele><time>2015-04-27T13:18:51.0000000+00:00</time></trkpt><trkpt lat="35.0026211" lon="32.7328869"><ele>1017.8</ele><time>2015-04-27T13:18:56.0000000+00:00</time></trkpt><trkpt lat="35.0025703" lon="32.7328936"><ele>1017.5</ele><time>2015-04-27T13:19:01.0000000+00:00</time></trkpt><trkpt lat="35.0025235" lon="32.7329027"><ele>1016.9</ele><time>2015-04-27T13:19:06.0000000+00:00</time></trkpt><trkpt lat="35.002478" lon="32.7329228"><ele>1015.6</ele><time>2015-04-27T13:19:11.0000000+00:00</time></trkpt><trkpt lat="35.0024339" lon="32.7329551"><ele>1017.9</ele><time>2015-04-27T13:19:16.0000000+00:00</time></trkpt><trkpt lat="35.0023912" lon="32.7329878"><ele>1018.7</ele><time>2015-04-27T13:19:21.0000000+00:00</time></trkpt><trkpt lat="35.0023531" lon="32.7330264"><ele>1019.1</ele><time>2015-04-27T13:19:26.0000000+00:00</time></trkpt><trkpt lat="35.0023074" lon="32.7330472"><ele>1019.3</ele><time>2015-04-27T13:19:31.0000000+00:00</time></trkpt><trkpt lat="35.0022641" lon="32.7330858"><ele>1020.4</ele><time>2015-04-27T13:19:36.0000000+00:00</time></trkpt><trkpt lat="35.0022106" lon="32.7331277"><ele>1022.6</ele><time>2015-04-27T13:19:40.0000000+00:00</time></trkpt><trkpt lat="35.0021693" lon="32.7331685"><ele>1020.1</ele><time>2015-04-27T13:19:44.0000000+00:00</time></trkpt><trkpt lat="35.0021258" lon="32.7331995"><ele>1021.6</ele><time>2015-04-27T13:19:49.0000000+00:00</time></trkpt><trkpt lat="35.0020882" lon="32.7332321"><ele>1022.9</ele><time>2015-04-27T13:19:53.0000000+00:00</time></trkpt><trkpt lat="35.0020511" lon="32.7332682"><ele>1023.0</ele><time>2015-04-27T13:19:57.0000000+00:00</time></trkpt><trkpt lat="35.0020102" lon="32.7333112"><ele>1023.0</ele><time>2015-04-27T13:20:02.0000000+00:00</time></trkpt><trkpt lat="35.001978" lon="32.7333502"><ele>1023.4</ele><time>2015-04-27T13:20:06.0000000+00:00</time></trkpt><trkpt lat="35.0019368" lon="32.7333953"><ele>1024.6</ele><time>2015-04-27T13:20:10.0000000+00:00</time></trkpt><trkpt lat="35.0019039" lon="32.7334337"><ele>1025.8</ele><time>2015-04-27T13:20:13.0000000+00:00</time></trkpt><trkpt lat="35.0018652" lon="32.7334712"><ele>1025.9</ele><time>2015-04-27T13:20:16.0000000+00:00</time></trkpt><trkpt lat="35.0018132" lon="32.733503"><ele>1025.9</ele><time>2015-04-27T13:20:20.0000000+00:00</time></trkpt><trkpt lat="35.0017632" lon="32.7335368"><ele>1026.9</ele><time>2015-04-27T13:20:24.0000000+00:00</time></trkpt><trkpt lat="35.001711" lon="32.7335648"><ele>1027.9</ele><time>2015-04-27T13:20:28.0000000+00:00</time></trkpt><trkpt lat="35.0016634" lon="32.7335899"><ele>1026.2</ele><time>2015-04-27T13:20:32.0000000+00:00</time></trkpt><trkpt lat="35.0016103" lon="32.7335985"><ele>1027.4</ele><time>2015-04-27T13:20:36.0000000+00:00</time></trkpt><trkpt lat="35.0015545" lon="32.7336114"><ele>1027.9</ele><time>2015-04-27T13:20:40.0000000+00:00</time></trkpt><trkpt lat="35.001503" lon="32.7336319"><ele>1028.1</ele><time>2015-04-27T13:20:44.0000000+00:00</time></trkpt><trkpt lat="35.0014481" lon="32.7336253"><ele>1027.2</ele><time>2015-04-27T13:20:48.0000000+00:00</time></trkpt><trkpt lat="35.0013944" lon="32.7336188"><ele>1027.9</ele><time>2015-04-27T13:20:52.0000000+00:00</time></trkpt><trkpt lat="35.0013399" lon="32.7336159"><ele>1028.7</ele><time>2015-04-27T13:20:56.0000000+00:00</time></trkpt><trkpt lat="35.001281" lon="32.7336153"><ele>1029.4</ele><time>2015-04-27T13:21:00.0000000+00:00</time></trkpt><trkpt lat="35.0012344" lon="32.7336129"><ele>1029.9</ele><time>2015-04-27T13:21:03.0000000+00:00</time></trkpt><trkpt lat="35.0011869" lon="32.7336183"><ele>1029.9</ele><time>2015-04-27T13:21:06.0000000+00:00</time></trkpt><trkpt lat="35.001141" lon="32.733623"><ele>1029.9</ele><time>2015-04-27T13:21:09.0000000+00:00</time></trkpt><trkpt lat="35.0010956" lon="32.7336255"><ele>1029.9</ele><time>2015-04-27T13:21:12.0000000+00:00</time></trkpt><trkpt lat="35.001038" lon="32.7336417"><ele>1029.9</ele><time>2015-04-27T13:21:16.0000000+00:00</time></trkpt><trkpt lat="35.0009824" lon="32.73366"><ele>1029.9</ele><time>2015-04-27T13:21:20.0000000+00:00</time></trkpt><trkpt lat="35.0009279" lon="32.7336705"><ele>1028.4</ele><time>2015-04-27T13:21:24.0000000+00:00</time></trkpt><trkpt lat="35.0008761" lon="32.7336962"><ele>1027.8</ele><time>2015-04-27T13:21:28.0000000+00:00</time></trkpt><trkpt lat="35.000837" lon="32.7337303"><ele>1030.0</ele><time>2015-04-27T13:21:31.0000000+00:00</time></trkpt><trkpt lat="35.0007987" lon="32.7337689"><ele>1030.8</ele><time>2015-04-27T13:21:34.0000000+00:00</time></trkpt><trkpt lat="35.0007646" lon="32.7338061"><ele>1030.5</ele><time>2015-04-27T13:21:37.0000000+00:00</time></trkpt><trkpt lat="35.0007313" lon="32.7338628"><ele>1030.3</ele><time>2015-04-27T13:21:41.0000000+00:00</time></trkpt><trkpt lat="35.0007109" lon="32.7339271"><ele>1029.2</ele><time>2015-04-27T13:21:45.0000000+00:00</time></trkpt><trkpt lat="35.000701" lon="32.7339979"><ele>1030.1</ele><time>2015-04-27T13:21:49.0000000+00:00</time></trkpt><trkpt lat="35.0006862" lon="32.7340635"><ele>1033.0</ele><time>2015-04-27T13:21:53.0000000+00:00</time></trkpt><trkpt lat="35.0006944" lon="32.7341282"><ele>1034.4</ele><time>2015-04-27T13:21:57.0000000+00:00</time></trkpt><trkpt lat="35.000712" lon="32.7341871"><ele>1034.8</ele><time>2015-04-27T13:22:01.0000000+00:00</time></trkpt><trkpt lat="35.0007299" lon="32.7342413"><ele>1034.9</ele><time>2015-04-27T13:22:05.0000000+00:00</time></trkpt><trkpt lat="35.0007558" lon="32.7342971"><ele>1034.9</ele><time>2015-04-27T13:22:10.0000000+00:00</time></trkpt><trkpt lat="35.0007672" lon="32.7343588"><ele>1034.7</ele><time>2015-04-27T13:22:15.0000000+00:00</time></trkpt><trkpt lat="35.0007829" lon="32.734418"><ele>1035.4</ele><time>2015-04-27T13:22:20.0000000+00:00</time></trkpt><trkpt lat="35.0007884" lon="32.7344734"><ele>1035.9</ele><time>2015-04-27T13:22:25.0000000+00:00</time></trkpt><trkpt lat="35.0007867" lon="32.7345404"><ele>1036.9</ele><time>2015-04-27T13:22:30.0000000+00:00</time></trkpt><trkpt lat="35.0007967" lon="32.7346007"><ele>1036.7</ele><time>2015-04-27T13:22:34.0000000+00:00</time></trkpt><trkpt lat="35.000758" lon="32.7346295"><ele>1035.9</ele><time>2015-04-27T13:22:40.0000000+00:00</time></trkpt><trkpt lat="35.0007526" lon="32.7346849"><ele>1036.7</ele><time>2015-04-27T13:22:44.0000000+00:00</time></trkpt><trkpt lat="35.0007276" lon="32.7347468"><ele>1037.8</ele><time>2015-04-27T13:22:49.0000000+00:00</time></trkpt><trkpt lat="35.0006919" lon="32.7347956"><ele>1039.3</ele><time>2015-04-27T13:22:53.0000000+00:00</time></trkpt><trkpt lat="35.0006681" lon="32.7348517"><ele>1039.9</ele><time>2015-04-27T13:22:57.0000000+00:00</time></trkpt><trkpt lat="35.0006347" lon="32.7348992"><ele>1040.9</ele><time>2015-04-27T13:23:01.0000000+00:00</time></trkpt><trkpt lat="35.0005865" lon="32.734931"><ele>1040.9</ele><time>2015-04-27T13:23:06.0000000+00:00</time></trkpt><trkpt lat="35.0005354" lon="32.7349552"><ele>1042.3</ele><time>2015-04-27T13:23:11.0000000+00:00</time></trkpt><trkpt lat="35.0004921" lon="32.7349912"><ele>1043.0</ele><time>2015-04-27T13:23:16.0000000+00:00</time></trkpt><trkpt lat="35.0004512" lon="32.7350263"><ele>1042.0</ele><time>2015-04-27T13:23:21.0000000+00:00</time></trkpt><trkpt lat="35.0004095" lon="32.73507"><ele>1041.9</ele><time>2015-04-27T13:23:26.0000000+00:00</time></trkpt><trkpt lat="35.0003707" lon="32.7351012"><ele>1042.8</ele><time>2015-04-27T13:23:30.0000000+00:00</time></trkpt><trkpt lat="35.0003361" lon="32.7351423"><ele>1044.3</ele><time>2015-04-27T13:23:34.0000000+00:00</time></trkpt><trkpt lat="35.0003022" lon="32.7351922"><ele>1045.8</ele><time>2015-04-27T13:23:39.0000000+00:00</time></trkpt><trkpt lat="35.0002714" lon="32.7352432"><ele>1045.5</ele><time>2015-04-27T13:23:44.0000000+00:00</time></trkpt><trkpt lat="35.0002567" lon="32.7353053"><ele>1046.2</ele><time>2015-04-27T13:23:49.0000000+00:00</time></trkpt><trkpt lat="35.0002477" lon="32.7353761"><ele>1046.0</ele><time>2015-04-27T13:23:54.0000000+00:00</time></trkpt><trkpt lat="35.0002363" lon="32.7354462"><ele>1045.9</ele><time>2015-04-27T13:23:58.0000000+00:00</time></trkpt><trkpt lat="35.0002303" lon="32.7355061"><ele>1046.8</ele><time>2015-04-27T13:24:02.0000000+00:00</time></trkpt><trkpt lat="35.0002252" lon="32.7355616"><ele>1046.9</ele><time>2015-04-27T13:24:06.0000000+00:00</time></trkpt><trkpt lat="35.0002066" lon="32.7356211"><ele>1047.7</ele><time>2015-04-27T13:24:11.0000000+00:00</time></trkpt><trkpt lat="35.0001936" lon="32.7356835"><ele>1049.6</ele><time>2015-04-27T13:24:16.0000000+00:00</time></trkpt><trkpt lat="35.0001711" lon="32.735742"><ele>1049.4</ele><time>2015-04-27T13:24:21.0000000+00:00</time></trkpt><trkpt lat="35.0001329" lon="32.735781"><ele>1049.8</ele><time>2015-04-27T13:24:25.0000000+00:00</time></trkpt><trkpt lat="35.0000989" lon="32.7358249"><ele>1049.0</ele><time>2015-04-27T13:24:29.0000000+00:00</time></trkpt><trkpt lat="35.000068" lon="32.7358702"><ele>1049.2</ele><time>2015-04-27T13:24:33.0000000+00:00</time></trkpt><trkpt lat="35.0000232" lon="32.7359059"><ele>1050.3</ele><time>2015-04-27T13:24:38.0000000+00:00</time></trkpt><trkpt lat="34.9999769" lon="32.7359259"><ele>1052.3</ele><time>2015-04-27T13:24:43.0000000+00:00</time></trkpt><trkpt lat="34.9999346" lon="32.7359564"><ele>1052.0</ele><time>2015-04-27T13:24:47.0000000+00:00</time></trkpt><trkpt lat="34.9998876" lon="32.7359615"><ele>1051.9</ele><time>2015-04-27T13:24:51.0000000+00:00</time></trkpt><trkpt lat="34.9998404" lon="32.7359545"><ele>1052.9</ele><time>2015-04-27T13:24:55.0000000+00:00</time></trkpt><trkpt lat="34.9997839" lon="32.7359489"><ele>1054.2</ele><time>2015-04-27T13:24:59.0000000+00:00</time></trkpt><trkpt lat="34.9997316" lon="32.7359372"><ele>1054.0</ele><time>2015-04-27T13:25:02.0000000+00:00</time></trkpt><trkpt lat="34.9996842" lon="32.7359154"><ele>1054.8</ele><time>2015-04-27T13:25:05.0000000+00:00</time></trkpt><trkpt lat="34.999644" lon="32.7358892"><ele>1055.2</ele><time>2015-04-27T13:25:09.0000000+00:00</time></trkpt><trkpt lat="34.9996005" lon="32.7358452"><ele>1055.9</ele><time>2015-04-27T13:25:13.0000000+00:00</time></trkpt><trkpt lat="34.9995648" lon="32.7357923"><ele>1055.5</ele><time>2015-04-27T13:25:17.0000000+00:00</time></trkpt><trkpt lat="34.9995342" lon="32.7357373"><ele>1057.2</ele><time>2015-04-27T13:25:21.0000000+00:00</time></trkpt><trkpt lat="34.9995067" lon="32.7356936"><ele>1058.7</ele><time>2015-04-27T13:25:24.0000000+00:00</time></trkpt><trkpt lat="34.9994798" lon="32.7356429"><ele>1059.0</ele><time>2015-04-27T13:25:27.0000000+00:00</time></trkpt><trkpt lat="34.99945" lon="32.735595"><ele>1059.6</ele><time>2015-04-27T13:25:30.0000000+00:00</time></trkpt><trkpt lat="34.9994051" lon="32.7355604"><ele>1059.3</ele><time>2015-04-27T13:25:34.0000000+00:00</time></trkpt><trkpt lat="34.9993609" lon="32.7355238"><ele>1060.6</ele><time>2015-04-27T13:25:38.0000000+00:00</time></trkpt><trkpt lat="34.9993078" lon="32.7354951"><ele>1060.4</ele><time>2015-04-27T13:25:42.0000000+00:00</time></trkpt><trkpt lat="34.9992625" lon="32.7354673"><ele>1060.4</ele><time>2015-04-27T13:25:46.0000000+00:00</time></trkpt><trkpt lat="34.9992147" lon="32.7354427"><ele>1063.1</ele><time>2015-04-27T13:25:50.0000000+00:00</time></trkpt><trkpt lat="34.9991737" lon="32.7354108"><ele>1063.9</ele><time>2015-04-27T13:25:54.0000000+00:00</time></trkpt><trkpt lat="34.9991301" lon="32.7353778"><ele>1063.1</ele><time>2015-04-27T13:25:58.0000000+00:00</time></trkpt><trkpt lat="34.9990873" lon="32.7353436"><ele>1063.7</ele><time>2015-04-27T13:26:02.0000000+00:00</time></trkpt><trkpt lat="34.9990546" lon="32.7352914"><ele>1064.7</ele><time>2015-04-27T13:26:06.0000000+00:00</time></trkpt><trkpt lat="34.9990165" lon="32.735246"><ele>1065.9</ele><time>2015-04-27T13:26:10.0000000+00:00</time></trkpt><trkpt lat="34.9989834" lon="32.7351983"><ele>1065.2</ele><time>2015-04-27T13:26:14.0000000+00:00</time></trkpt><trkpt lat="34.9989429" lon="32.7351543"><ele>1064.5</ele><time>2015-04-27T13:26:18.0000000+00:00</time></trkpt><trkpt lat="34.99892" lon="32.7351042"><ele>1064.7</ele><time>2015-04-27T13:26:22.0000000+00:00</time></trkpt><trkpt lat="34.9988854" lon="32.7350559"><ele>1064.9</ele><time>2015-04-27T13:26:26.0000000+00:00</time></trkpt><trkpt lat="34.9988647" lon="32.7349983"><ele>1063.3</ele><time>2015-04-27T13:26:30.0000000+00:00</time></trkpt><trkpt lat="34.9988398" lon="32.7349411"><ele>1062.1</ele><time>2015-04-27T13:26:34.0000000+00:00</time></trkpt><trkpt lat="34.9988037" lon="32.7348837"><ele>1063.1</ele><time>2015-04-27T13:26:38.0000000+00:00</time></trkpt><trkpt lat="34.9987752" lon="32.7348379"><ele>1062.7</ele><time>2015-04-27T13:26:41.0000000+00:00</time></trkpt><trkpt lat="34.9987464" lon="32.7347901"><ele>1062.7</ele><time>2015-04-27T13:26:44.0000000+00:00</time></trkpt><trkpt lat="34.9987092" lon="32.734747"><ele>1062.1</ele><time>2015-04-27T13:26:47.0000000+00:00</time></trkpt><trkpt lat="34.9986754" lon="32.7347065"><ele>1062.1</ele><time>2015-04-27T13:26:50.0000000+00:00</time></trkpt><trkpt lat="34.9986318" lon="32.7346626"><ele>1062.0</ele><time>2015-04-27T13:26:54.0000000+00:00</time></trkpt><trkpt lat="34.9985866" lon="32.7346396"><ele>1063.1</ele><time>2015-04-27T13:26:58.0000000+00:00</time></trkpt><trkpt lat="34.9985396" lon="32.7346185"><ele>1063.6</ele><time>2015-04-27T13:27:02.0000000+00:00</time></trkpt><trkpt lat="34.9984987" lon="32.7345942"><ele>1063.7</ele><time>2015-04-27T13:27:06.0000000+00:00</time></trkpt><trkpt lat="34.9984519" lon="32.7345862"><ele>1063.7</ele><time>2015-04-27T13:27:10.0000000+00:00</time></trkpt><trkpt lat="34.9984024" lon="32.7345866"><ele>1066.2</ele><time>2015-04-27T13:27:14.0000000+00:00</time></trkpt><trkpt lat="34.9983537" lon="32.7345825"><ele>1066.0</ele><time>2015-04-27T13:27:16.0000000+00:00</time></trkpt><trkpt lat="34.9983032" lon="32.7345776"><ele>1065.9</ele><time>2015-04-27T13:27:18.0000000+00:00</time></trkpt><trkpt lat="34.998247" lon="32.7345826"><ele>1066.7</ele><time>2015-04-27T13:27:20.0000000+00:00</time></trkpt><trkpt lat="34.9981899" lon="32.7345891"><ele>1065.6</ele><time>2015-04-27T13:27:22.0000000+00:00</time></trkpt><trkpt lat="34.9981336" lon="32.7346044"><ele>1064.4</ele><time>2015-04-27T13:27:24.0000000+00:00</time></trkpt><trkpt lat="34.9980687" lon="32.734632"><ele>1065.5</ele><time>2015-04-27T13:27:26.0000000+00:00</time></trkpt><trkpt lat="34.9980038" lon="32.7346584"><ele>1066.3</ele><time>2015-04-27T13:27:28.0000000+00:00</time></trkpt><trkpt lat="34.9979426" lon="32.7346837"><ele>1065.5</ele><time>2015-04-27T13:27:30.0000000+00:00</time></trkpt><trkpt lat="34.9978788" lon="32.7347114"><ele>1065.8</ele><time>2015-04-27T13:27:32.0000000+00:00</time></trkpt><trkpt lat="34.9978196" lon="32.7347394"><ele>1065.7</ele><time>2015-04-27T13:27:34.0000000+00:00</time></trkpt><trkpt lat="34.9977658" lon="32.734769"><ele>1065.1</ele><time>2015-04-27T13:27:36.0000000+00:00</time></trkpt><trkpt lat="34.9977116" lon="32.7347986"><ele>1066.0</ele><time>2015-04-27T13:27:38.0000000+00:00</time></trkpt><trkpt lat="34.9976627" lon="32.7348305"><ele>1066.7</ele><time>2015-04-27T13:27:40.0000000+00:00</time></trkpt><trkpt lat="34.9976136" lon="32.7348684"><ele>1068.5</ele><time>2015-04-27T13:27:44.0000000+00:00</time></trkpt><trkpt lat="34.9975717" lon="32.7348942"><ele>1068.8</ele><time>2015-04-27T13:27:46.0000000+00:00</time></trkpt><trkpt lat="34.9975288" lon="32.7349257"><ele>1069.4</ele><time>2015-04-27T13:27:48.0000000+00:00</time></trkpt><trkpt lat="34.997489" lon="32.7349596"><ele>1070.2</ele><time>2015-04-27T13:27:51.0000000+00:00</time></trkpt><trkpt lat="34.9974511" lon="32.7349945"><ele>1070.3</ele><time>2015-04-27T13:27:54.0000000+00:00</time></trkpt><trkpt lat="34.9974074" lon="32.7350426"><ele>1071.2</ele><time>2015-04-27T13:27:57.0000000+00:00</time></trkpt><trkpt lat="34.9973664" lon="32.7350915"><ele>1071.8</ele><time>2015-04-27T13:27:59.0000000+00:00</time></trkpt><trkpt lat="34.997332" lon="32.7351356"><ele>1071.4</ele><time>2015-04-27T13:28:01.0000000+00:00</time></trkpt><trkpt lat="34.9972988" lon="32.7351905"><ele>1070.2</ele><time>2015-04-27T13:28:05.0000000+00:00</time></trkpt><trkpt lat="34.9972706" lon="32.7352385"><ele>1069.2</ele><time>2015-04-27T13:28:08.0000000+00:00</time></trkpt><trkpt lat="34.9972347" lon="32.7352891"><ele>1068.1</ele><time>2015-04-27T13:28:11.0000000+00:00</time></trkpt><trkpt lat="34.9972078" lon="32.7353361"><ele>1069.7</ele><time>2015-04-27T13:28:14.0000000+00:00</time></trkpt><trkpt lat="34.9971764" lon="32.735396"><ele>1071.5</ele><time>2015-04-27T13:28:18.0000000+00:00</time></trkpt><trkpt lat="34.997154" lon="32.7354645"><ele>1072.7</ele><time>2015-04-27T13:28:21.0000000+00:00</time></trkpt><trkpt lat="34.997131" lon="32.7355298"><ele>1073.8</ele><time>2015-04-27T13:28:25.0000000+00:00</time></trkpt><trkpt lat="34.9971119" lon="32.7355966"><ele>1074.8</ele><time>2015-04-27T13:28:29.0000000+00:00</time></trkpt><trkpt lat="34.9970928" lon="32.7356534"><ele>1075.7</ele><time>2015-04-27T13:28:32.0000000+00:00</time></trkpt><trkpt lat="34.9970673" lon="32.7357122"><ele>1077.6</ele><time>2015-04-27T13:28:35.0000000+00:00</time></trkpt><trkpt lat="34.9970255" lon="32.7357694"><ele>1078.6</ele><time>2015-04-27T13:28:38.0000000+00:00</time></trkpt><trkpt lat="34.9969779" lon="32.7358096"><ele>1079.4</ele><time>2015-04-27T13:28:41.0000000+00:00</time></trkpt><trkpt lat="34.9969274" lon="32.7358424"><ele>1079.7</ele><time>2015-04-27T13:28:44.0000000+00:00</time></trkpt><trkpt lat="34.9968674" lon="32.7358584"><ele>1081.3</ele><time>2015-04-27T13:28:47.0000000+00:00</time></trkpt><trkpt lat="34.9968178" lon="32.7358469"><ele>1082.3</ele><time>2015-04-27T13:28:50.0000000+00:00</time></trkpt><trkpt lat="34.9967721" lon="32.7358216"><ele>1082.9</ele><time>2015-04-27T13:28:53.0000000+00:00</time></trkpt><trkpt lat="34.9967238" lon="32.7357849"><ele>1083.0</ele><time>2015-04-27T13:28:56.0000000+00:00</time></trkpt><trkpt lat="34.9966812" lon="32.7357376"><ele>1082.9</ele><time>2015-04-27T13:29:00.0000000+00:00</time></trkpt><trkpt lat="34.9966507" lon="32.7356918"><ele>1081.3</ele><time>2015-04-27T13:29:03.0000000+00:00</time></trkpt><trkpt lat="34.996617" lon="32.7356432"><ele>1080.5</ele><time>2015-04-27T13:29:06.0000000+00:00</time></trkpt><trkpt lat="34.9965756" lon="32.7355987"><ele>1080.1</ele><time>2015-04-27T13:29:09.0000000+00:00</time></trkpt><trkpt lat="34.9965403" lon="32.735561"><ele>1080.7</ele><time>2015-04-27T13:29:12.0000000+00:00</time></trkpt><trkpt lat="34.9965002" lon="32.7355124"><ele>1078.6</ele><time>2015-04-27T13:29:17.0000000+00:00</time></trkpt><trkpt lat="34.9964646" lon="32.7354742"><ele>1080.1</ele><time>2015-04-27T13:29:20.0000000+00:00</time></trkpt><trkpt lat="34.9964238" lon="32.735434"><ele>1082.5</ele><time>2015-04-27T13:29:24.0000000+00:00</time></trkpt><trkpt lat="34.9963851" lon="32.7353971"><ele>1083.4</ele><time>2015-04-27T13:29:28.0000000+00:00</time></trkpt><trkpt lat="34.9963363" lon="32.7353575"><ele>1083.7</ele><time>2015-04-27T13:29:32.0000000+00:00</time></trkpt><trkpt lat="34.9962924" lon="32.7353314"><ele>1084.7</ele><time>2015-04-27T13:29:36.0000000+00:00</time></trkpt><trkpt lat="34.9962503" lon="32.7352988"><ele>1086.7</ele><time>2015-04-27T13:29:40.0000000+00:00</time></trkpt><trkpt lat="34.9962046" lon="32.7352589"><ele>1086.2</ele><time>2015-04-27T13:29:44.0000000+00:00</time></trkpt><trkpt lat="34.9961597" lon="32.7352272"><ele>1086.5</ele><time>2015-04-27T13:29:47.0000000+00:00</time></trkpt><trkpt lat="34.9961158" lon="32.735184"><ele>1087.6</ele><time>2015-04-27T13:29:50.0000000+00:00</time></trkpt><trkpt lat="34.9960716" lon="32.7351456"><ele>1087.5</ele><time>2015-04-27T13:29:53.0000000+00:00</time></trkpt><trkpt lat="34.9960256" lon="32.7351127"><ele>1084.8</ele><time>2015-04-27T13:29:57.0000000+00:00</time></trkpt><trkpt lat="34.9959716" lon="32.7350753"><ele>1083.5</ele><time>2015-04-27T13:30:01.0000000+00:00</time></trkpt><trkpt lat="34.9959196" lon="32.7350604"><ele>1083.9</ele><time>2015-04-27T13:30:04.0000000+00:00</time></trkpt><trkpt lat="34.9958687" lon="32.7350516"><ele>1085.3</ele><time>2015-04-27T13:30:07.0000000+00:00</time></trkpt><trkpt lat="34.9958197" lon="32.7350454"><ele>1087.7</ele><time>2015-04-27T13:30:10.0000000+00:00</time></trkpt><trkpt lat="34.9957717" lon="32.7350616"><ele>1090.3</ele><time>2015-04-27T13:30:14.0000000+00:00</time></trkpt><trkpt lat="34.9957168" lon="32.7350786"><ele>1093.5</ele><time>2015-04-27T13:30:17.0000000+00:00</time></trkpt><trkpt lat="34.9956598" lon="32.7351024"><ele>1094.6</ele><time>2015-04-27T13:30:20.0000000+00:00</time></trkpt><trkpt lat="34.995613" lon="32.7351316"><ele>1094.4</ele><time>2015-04-27T13:30:23.0000000+00:00</time></trkpt><trkpt lat="34.9955746" lon="32.7351716"><ele>1094.5</ele><time>2015-04-27T13:30:26.0000000+00:00</time></trkpt><trkpt lat="34.9955333" lon="32.7352131"><ele>1094.4</ele><time>2015-04-27T13:30:29.0000000+00:00</time></trkpt><trkpt lat="34.9954943" lon="32.7352499"><ele>1095.1</ele><time>2015-04-27T13:30:32.0000000+00:00</time></trkpt><trkpt lat="34.9954545" lon="32.7352846"><ele>1094.6</ele><time>2015-04-27T13:30:35.0000000+00:00</time></trkpt><trkpt lat="34.9954176" lon="32.7353268"><ele>1095.3</ele><time>2015-04-27T13:30:38.0000000+00:00</time></trkpt><trkpt lat="34.9953804" lon="32.7353666"><ele>1096.2</ele><time>2015-04-27T13:30:41.0000000+00:00</time></trkpt><trkpt lat="34.9953415" lon="32.7354092"><ele>1098.1</ele><time>2015-04-27T13:30:44.0000000+00:00</time></trkpt><trkpt lat="34.9953009" lon="32.7354526"><ele>1099.3</ele><time>2015-04-27T13:30:47.0000000+00:00</time></trkpt><trkpt lat="34.9952623" lon="32.7354962"><ele>1099.9</ele><time>2015-04-27T13:30:50.0000000+00:00</time></trkpt><trkpt lat="34.9952256" lon="32.7355424"><ele>1100.4</ele><time>2015-04-27T13:30:53.0000000+00:00</time></trkpt><trkpt lat="34.9951882" lon="32.7355872"><ele>1100.1</ele><time>2015-04-27T13:30:56.0000000+00:00</time></trkpt><trkpt lat="34.9951451" lon="32.735624"><ele>1101.2</ele><time>2015-04-27T13:30:59.0000000+00:00</time></trkpt><trkpt lat="34.9951056" lon="32.7356636"><ele>1101.7</ele><time>2015-04-27T13:31:02.0000000+00:00</time></trkpt><trkpt lat="34.995072" lon="32.7357053"><ele>1102.4</ele><time>2015-04-27T13:31:05.0000000+00:00</time></trkpt><trkpt lat="34.9950426" lon="32.7357493"><ele>1102.7</ele><time>2015-04-27T13:31:08.0000000+00:00</time></trkpt><trkpt lat="34.9950033" lon="32.7358037"><ele>1104.6</ele><time>2015-04-27T13:31:12.0000000+00:00</time></trkpt><trkpt lat="34.994961" lon="32.7358532"><ele>1105.3</ele><time>2015-04-27T13:31:16.0000000+00:00</time></trkpt><trkpt lat="34.9949203" lon="32.7358908"><ele>1105.0</ele><time>2015-04-27T13:31:20.0000000+00:00</time></trkpt><trkpt lat="34.9948817" lon="32.7359302"><ele>1104.9</ele><time>2015-04-27T13:31:24.0000000+00:00</time></trkpt><trkpt lat="34.9948477" lon="32.7359796"><ele>1104.1</ele><time>2015-04-27T13:31:28.0000000+00:00</time></trkpt><trkpt lat="34.994803" lon="32.7360154"><ele>1103.9</ele><time>2015-04-27T13:31:32.0000000+00:00</time></trkpt><trkpt lat="34.9947506" lon="32.7360486"><ele>1103.0</ele><time>2015-04-27T13:31:36.0000000+00:00</time></trkpt><trkpt lat="34.9946966" lon="32.7360784"><ele>1100.5</ele><time>2015-04-27T13:31:40.0000000+00:00</time></trkpt><trkpt lat="34.9946515" lon="32.7360961"><ele>1098.2</ele><time>2015-04-27T13:31:45.0000000+00:00</time></trkpt><trkpt lat="34.9945983" lon="32.736091"><ele>1100.2</ele><time>2015-04-27T13:31:51.0000000+00:00</time></trkpt><trkpt lat="34.9945468" lon="32.7360819"><ele>1098.8</ele><time>2015-04-27T13:31:56.0000000+00:00</time></trkpt><trkpt lat="34.9945016" lon="32.7360827"><ele>1100.3</ele><time>2015-04-27T13:32:00.0000000+00:00</time></trkpt><trkpt lat="34.994447" lon="32.7360749"><ele>1101.4</ele><time>2015-04-27T13:32:04.0000000+00:00</time></trkpt><trkpt lat="34.9943949" lon="32.7360638"><ele>1101.7</ele><time>2015-04-27T13:32:07.0000000+00:00</time></trkpt><trkpt lat="34.9943358" lon="32.7360516"><ele>1100.7</ele><time>2015-04-27T13:32:11.0000000+00:00</time></trkpt><trkpt lat="34.9942757" lon="32.7360494"><ele>1101.4</ele><time>2015-04-27T13:32:14.0000000+00:00</time></trkpt><trkpt lat="34.9942201" lon="32.7360497"><ele>1101.6</ele><time>2015-04-27T13:32:17.0000000+00:00</time></trkpt><trkpt lat="34.9941651" lon="32.7360573"><ele>1103.1</ele><time>2015-04-27T13:32:20.0000000+00:00</time></trkpt><trkpt lat="34.9941084" lon="32.7360682"><ele>1102.5</ele><time>2015-04-27T13:32:23.0000000+00:00</time></trkpt><trkpt lat="34.9940554" lon="32.7360869"><ele>1102.1</ele><time>2015-04-27T13:32:25.0000000+00:00</time></trkpt><trkpt lat="34.9940043" lon="32.7361093"><ele>1102.7</ele><time>2015-04-27T13:32:27.0000000+00:00</time></trkpt><trkpt lat="34.9939498" lon="32.7361403"><ele>1102.9</ele><time>2015-04-27T13:32:29.0000000+00:00</time></trkpt><trkpt lat="34.9939" lon="32.7361783"><ele>1103.2</ele><time>2015-04-27T13:32:31.0000000+00:00</time></trkpt><trkpt lat="34.9938552" lon="32.7362152"><ele>1102.6</ele><time>2015-04-27T13:32:34.0000000+00:00</time></trkpt><trkpt lat="34.9938017" lon="32.7362713"><ele>1102.8</ele><time>2015-04-27T13:32:37.0000000+00:00</time></trkpt><trkpt lat="34.9937645" lon="32.7363194"><ele>1102.9</ele><time>2015-04-27T13:32:39.0000000+00:00</time></trkpt><trkpt lat="34.9937319" lon="32.7363681"><ele>1102.9</ele><time>2015-04-27T13:32:41.0000000+00:00</time></trkpt><trkpt lat="34.9937009" lon="32.7364265"><ele>1102.9</ele><time>2015-04-27T13:32:43.0000000+00:00</time></trkpt><trkpt lat="34.9936708" lon="32.7364847"><ele>1103.4</ele><time>2015-04-27T13:32:45.0000000+00:00</time></trkpt><trkpt lat="34.9936386" lon="32.7365375"><ele>1106.3</ele><time>2015-04-27T13:32:47.0000000+00:00</time></trkpt><trkpt lat="34.9936087" lon="32.7365933"><ele>1107.3</ele><time>2015-04-27T13:32:49.0000000+00:00</time></trkpt><trkpt lat="34.9935777" lon="32.7366443"><ele>1108.5</ele><time>2015-04-27T13:32:51.0000000+00:00</time></trkpt><trkpt lat="34.9935489" lon="32.7366967"><ele>1107.7</ele><time>2015-04-27T13:32:55.0000000+00:00</time></trkpt><trkpt lat="34.9935118" lon="32.7367723"><ele>1109.9</ele><time>2015-04-27T13:32:59.0000000+00:00</time></trkpt><trkpt lat="34.9934794" lon="32.7368326"><ele>1109.9</ele><time>2015-04-27T13:33:01.0000000+00:00</time></trkpt><trkpt lat="34.9934604" lon="32.7368929"><ele>1109.9</ele><time>2015-04-27T13:33:03.0000000+00:00</time></trkpt><trkpt lat="34.99345" lon="32.7369575"><ele>1108.7</ele><time>2015-04-27T13:33:06.0000000+00:00</time></trkpt><trkpt lat="34.9934323" lon="32.737019"><ele>1108.2</ele><time>2015-04-27T13:33:10.0000000+00:00</time></trkpt><trkpt lat="34.9934119" lon="32.737079"><ele>1108.0</ele><time>2015-04-27T13:33:13.0000000+00:00</time></trkpt><trkpt lat="34.9933916" lon="32.7371457"><ele>1107.4</ele><time>2015-04-27T13:33:15.0000000+00:00</time></trkpt><trkpt lat="34.993372" lon="32.7372066"><ele>1106.6</ele><time>2015-04-27T13:33:17.0000000+00:00</time></trkpt><trkpt lat="34.9933561" lon="32.7372816"><ele>1106.5</ele><time>2015-04-27T13:33:20.0000000+00:00</time></trkpt><trkpt lat="34.9933349" lon="32.7373455"><ele>1106.9</ele><time>2015-04-27T13:33:23.0000000+00:00</time></trkpt><trkpt lat="34.9933081" lon="32.7374124"><ele>1107.8</ele><time>2015-04-27T13:33:26.0000000+00:00</time></trkpt><trkpt lat="34.9932774" lon="32.7374802"><ele>1107.9</ele><time>2015-04-27T13:33:29.0000000+00:00</time></trkpt><trkpt lat="34.9932586" lon="32.7375309"><ele>1107.9</ele><time>2015-04-27T13:33:31.0000000+00:00</time></trkpt><trkpt lat="34.9932442" lon="32.7375829"><ele>1108.7</ele><time>2015-04-27T13:33:33.0000000+00:00</time></trkpt><trkpt lat="34.9932083" lon="32.7376461"><ele>1109.8</ele><time>2015-04-27T13:33:36.0000000+00:00</time></trkpt><trkpt lat="34.9931752" lon="32.7376916"><ele>1109.4</ele><time>2015-04-27T13:33:38.0000000+00:00</time></trkpt><trkpt lat="34.9931368" lon="32.737743"><ele>1109.5</ele><time>2015-04-27T13:33:40.0000000+00:00</time></trkpt><trkpt lat="34.993102" lon="32.7377928"><ele>1109.6</ele><time>2015-04-27T13:33:42.0000000+00:00</time></trkpt><trkpt lat="34.9930566" lon="32.7378404"><ele>1109.1</ele><time>2015-04-27T13:33:45.0000000+00:00</time></trkpt><trkpt lat="34.9930101" lon="32.7378668"><ele>1109.0</ele><time>2015-04-27T13:33:48.0000000+00:00</time></trkpt><trkpt lat="34.9929637" lon="32.7379001"><ele>1108.6</ele><time>2015-04-27T13:33:51.0000000+00:00</time></trkpt><trkpt lat="34.9929186" lon="32.7379055"><ele>1116.9</ele><time>2015-04-27T13:41:03.0000000+00:00</time></trkpt><trkpt lat="34.9928636" lon="32.7379123"><ele>1117.7</ele><time>2015-04-27T13:42:07.0000000+00:00</time></trkpt><trkpt lat="34.9928156" lon="32.7379069"><ele>1116.2</ele><time>2015-04-27T13:42:10.0000000+00:00</time></trkpt><trkpt lat="34.9927501" lon="32.7378951"><ele>1115.2</ele><time>2015-04-27T13:42:13.0000000+00:00</time></trkpt><trkpt lat="34.9927027" lon="32.7378894"><ele>1115.0</ele><time>2015-04-27T13:42:15.0000000+00:00</time></trkpt><trkpt lat="34.9926484" lon="32.7378773"><ele>1116.2</ele><time>2015-04-27T13:42:17.0000000+00:00</time></trkpt><trkpt lat="34.9925983" lon="32.7378494"><ele>1116.7</ele><time>2015-04-27T13:42:19.0000000+00:00</time></trkpt><trkpt lat="34.9925506" lon="32.7378188"><ele>1116.9</ele><time>2015-04-27T13:42:21.0000000+00:00</time></trkpt><trkpt lat="34.9925056" lon="32.737787"><ele>1116.4</ele><time>2015-04-27T13:42:23.0000000+00:00</time></trkpt><trkpt lat="34.9924613" lon="32.7377494"><ele>1115.6</ele><time>2015-04-27T13:42:25.0000000+00:00</time></trkpt><trkpt lat="34.9924165" lon="32.7377151"><ele>1114.6</ele><time>2015-04-27T13:42:27.0000000+00:00</time></trkpt><trkpt lat="34.9923703" lon="32.7376921"><ele>1114.1</ele><time>2015-04-27T13:42:29.0000000+00:00</time></trkpt><trkpt lat="34.9923255" lon="32.7376709"><ele>1114.0</ele><time>2015-04-27T13:42:31.0000000+00:00</time></trkpt><trkpt lat="34.9922613" lon="32.7376586"><ele>1115.8</ele><time>2015-04-27T13:42:34.0000000+00:00</time></trkpt><trkpt lat="34.9922005" lon="32.7376441"><ele>1116.8</ele><time>2015-04-27T13:42:37.0000000+00:00</time></trkpt><trkpt lat="34.9921382" lon="32.7376146"><ele>1116.9</ele><time>2015-04-27T13:42:40.0000000+00:00</time></trkpt><trkpt lat="34.9920961" lon="32.7375916"><ele>1116.4</ele><time>2015-04-27T13:42:42.0000000+00:00</time></trkpt><trkpt lat="34.9920357" lon="32.7375722"><ele>1116.9</ele><time>2015-04-27T13:42:45.0000000+00:00</time></trkpt><trkpt lat="34.9919872" lon="32.7375672"><ele>1116.7</ele><time>2015-04-27T13:42:49.0000000+00:00</time></trkpt><trkpt lat="34.9919346" lon="32.7375581"><ele>1116.2</ele><time>2015-04-27T13:43:03.0000000+00:00</time></trkpt><trkpt lat="34.9918757" lon="32.737536"><ele>1116.7</ele><time>2015-04-27T13:43:06.0000000+00:00</time></trkpt><trkpt lat="34.9918304" lon="32.7375163"><ele>1116.9</ele><time>2015-04-27T13:43:08.0000000+00:00</time></trkpt><trkpt lat="34.9917852" lon="32.7375114"><ele>1116.2</ele><time>2015-04-27T13:43:10.0000000+00:00</time></trkpt><trkpt lat="34.9917172" lon="32.7375194"><ele>1116.5</ele><time>2015-04-27T13:43:13.0000000+00:00</time></trkpt><trkpt lat="34.9916637" lon="32.7375346"><ele>1116.3</ele><time>2015-04-27T13:43:15.0000000+00:00</time></trkpt><trkpt lat="34.9916035" lon="32.7375672"><ele>1117.3</ele><time>2015-04-27T13:43:17.0000000+00:00</time></trkpt><trkpt lat="34.9915477" lon="32.7376012"><ele>1118.3</ele><time>2015-04-27T13:43:19.0000000+00:00</time></trkpt><trkpt lat="34.9914954" lon="32.7376329"><ele>1119.8</ele><time>2015-04-27T13:43:21.0000000+00:00</time></trkpt><trkpt lat="34.9914467" lon="32.7376661"><ele>1120.6</ele><time>2015-04-27T13:43:23.0000000+00:00</time></trkpt><trkpt lat="34.9913861" lon="32.7377154"><ele>1120.9</ele><time>2015-04-27T13:43:25.0000000+00:00</time></trkpt><trkpt lat="34.9913323" lon="32.7377591"><ele>1120.9</ele><time>2015-04-27T13:43:27.0000000+00:00</time></trkpt><trkpt lat="34.9912801" lon="32.7377972"><ele>1121.2</ele><time>2015-04-27T13:43:29.0000000+00:00</time></trkpt><trkpt lat="34.9912277" lon="32.7378353"><ele>1120.2</ele><time>2015-04-27T13:43:31.0000000+00:00</time></trkpt><trkpt lat="34.9911659" lon="32.7378687"><ele>1120.0</ele><time>2015-04-27T13:43:33.0000000+00:00</time></trkpt><trkpt lat="34.9910984" lon="32.7378977"><ele>1120.9</ele><time>2015-04-27T13:43:35.0000000+00:00</time></trkpt><trkpt lat="34.9910313" lon="32.7379232"><ele>1121.9</ele><time>2015-04-27T13:43:37.0000000+00:00</time></trkpt><trkpt lat="34.9909605" lon="32.7379468"><ele>1123.2</ele><time>2015-04-27T13:43:39.0000000+00:00</time></trkpt><trkpt lat="34.9908896" lon="32.7379702"><ele>1124.2</ele><time>2015-04-27T13:43:41.0000000+00:00</time></trkpt><trkpt lat="34.9908173" lon="32.7379891"><ele>1124.5</ele><time>2015-04-27T13:43:43.0000000+00:00</time></trkpt><trkpt lat="34.9907437" lon="32.7380064"><ele>1124.6</ele><time>2015-04-27T13:43:45.0000000+00:00</time></trkpt><trkpt lat="34.9906777" lon="32.7380374"><ele>1123.6</ele><time>2015-04-27T13:43:47.0000000+00:00</time></trkpt><trkpt lat="34.9906171" lon="32.7380738"><ele>1122.6</ele><time>2015-04-27T13:43:49.0000000+00:00</time></trkpt><trkpt lat="34.990555" lon="32.7381073"><ele>1121.3</ele><time>2015-04-27T13:43:51.0000000+00:00</time></trkpt><trkpt lat="34.9904895" lon="32.738146"><ele>1122.0</ele><time>2015-04-27T13:43:53.0000000+00:00</time></trkpt><trkpt lat="34.9904219" lon="32.7381977"><ele>1122.7</ele><time>2015-04-27T13:43:55.0000000+00:00</time></trkpt><trkpt lat="34.9903554" lon="32.7382495"><ele>1121.6</ele><time>2015-04-27T13:43:57.0000000+00:00</time></trkpt><trkpt lat="34.9902873" lon="32.738297"><ele>1121.9</ele><time>2015-04-27T13:43:59.0000000+00:00</time></trkpt><trkpt lat="34.99022" lon="32.7383465"><ele>1122.4</ele><time>2015-04-27T13:44:01.0000000+00:00</time></trkpt><trkpt lat="34.9901185" lon="32.7384075"><ele>1122.3</ele><time>2015-04-27T13:44:03.0000000+00:00</time></trkpt><trkpt lat="34.9900378" lon="32.7384416"><ele>1122.8</ele><time>2015-04-27T13:44:05.0000000+00:00</time></trkpt><trkpt lat="34.9899718" lon="32.7384622"><ele>1123.6</ele><time>2015-04-27T13:44:07.0000000+00:00</time></trkpt><trkpt lat="34.9899063" lon="32.738484"><ele>1123.9</ele><time>2015-04-27T13:44:09.0000000+00:00</time></trkpt><trkpt lat="34.9898348" lon="32.738504"><ele>1123.4</ele><time>2015-04-27T13:44:11.0000000+00:00</time></trkpt><trkpt lat="34.9897495" lon="32.738538"><ele>1123.1</ele><time>2015-04-27T13:44:13.0000000+00:00</time></trkpt><trkpt lat="34.9897056" lon="32.7385634"><ele>1123.0</ele><time>2015-04-27T13:44:14.0000000+00:00</time></trkpt><trkpt lat="34.98966" lon="32.7385834"><ele>1123.0</ele><time>2015-04-27T13:44:15.0000000+00:00</time></trkpt><trkpt lat="34.9896122" lon="32.7386036"><ele>1123.4</ele><time>2015-04-27T13:44:16.0000000+00:00</time></trkpt><trkpt lat="34.9895722" lon="32.7386353"><ele>1123.7</ele><time>2015-04-27T13:44:17.0000000+00:00</time></trkpt><trkpt lat="34.9895286" lon="32.7386534"><ele>1123.8</ele><time>2015-04-27T13:44:18.0000000+00:00</time></trkpt><trkpt lat="34.989454" lon="32.7386874"><ele>1124.6</ele><time>2015-04-27T13:44:20.0000000+00:00</time></trkpt><trkpt lat="34.9893847" lon="32.738739"><ele>1124.4</ele><time>2015-04-27T13:44:22.0000000+00:00</time></trkpt><trkpt lat="34.9893481" lon="32.7387719"><ele>1124.1</ele><time>2015-04-27T13:44:23.0000000+00:00</time></trkpt><trkpt lat="34.9892838" lon="32.7388298"><ele>1123.2</ele><time>2015-04-27T13:44:25.0000000+00:00</time></trkpt><trkpt lat="34.9892243" lon="32.7388901"><ele>1123.5</ele><time>2015-04-27T13:44:27.0000000+00:00</time></trkpt><trkpt lat="34.9891788" lon="32.7389417"><ele>1123.8</ele><time>2015-04-27T13:44:29.0000000+00:00</time></trkpt><trkpt lat="34.989129" lon="32.7389785"><ele>1125.2</ele><time>2015-04-27T13:44:31.0000000+00:00</time></trkpt><trkpt lat="34.9890751" lon="32.7390253"><ele>1125.7</ele><time>2015-04-27T13:44:33.0000000+00:00</time></trkpt><trkpt lat="34.9890204" lon="32.739081"><ele>1125.9</ele><time>2015-04-27T13:44:35.0000000+00:00</time></trkpt><trkpt lat="34.9889586" lon="32.7391399"><ele>1126.7</ele><time>2015-04-27T13:44:37.0000000+00:00</time></trkpt><trkpt lat="34.9889013" lon="32.7391852"><ele>1127.3</ele><time>2015-04-27T13:44:38.0000000+00:00</time></trkpt><trkpt lat="34.9888231" lon="32.73924"><ele>1126.3</ele><time>2015-04-27T13:44:40.0000000+00:00</time></trkpt><trkpt lat="34.988747" lon="32.7392872"><ele>1126.5</ele><time>2015-04-27T13:44:42.0000000+00:00</time></trkpt><trkpt lat="34.9886774" lon="32.7393419"><ele>1126.8</ele><time>2015-04-27T13:44:44.0000000+00:00</time></trkpt><trkpt lat="34.9886092" lon="32.7394003"><ele>1126.9</ele><time>2015-04-27T13:44:46.0000000+00:00</time></trkpt><trkpt lat="34.9885364" lon="32.7394554"><ele>1126.9</ele><time>2015-04-27T13:44:48.0000000+00:00</time></trkpt><trkpt lat="34.9884985" lon="32.7394929"><ele>1127.4</ele><time>2015-04-27T13:44:49.0000000+00:00</time></trkpt><trkpt lat="34.9884587" lon="32.7395256"><ele>1127.2</ele><time>2015-04-27T13:44:50.0000000+00:00</time></trkpt><trkpt lat="34.9884179" lon="32.7395541"><ele>1127.6</ele><time>2015-04-27T13:44:51.0000000+00:00</time></trkpt><trkpt lat="34.9883743" lon="32.7395858"><ele>1127.7</ele><time>2015-04-27T13:44:52.0000000+00:00</time></trkpt><trkpt lat="34.9883319" lon="32.7396246"><ele>1127.8</ele><time>2015-04-27T13:44:53.0000000+00:00</time></trkpt><trkpt lat="34.9882854" lon="32.7396584"><ele>1127.4</ele><time>2015-04-27T13:44:54.0000000+00:00</time></trkpt><trkpt lat="34.9882064" lon="32.7397186"><ele>1125.0</ele><time>2015-04-27T13:44:56.0000000+00:00</time></trkpt><trkpt lat="34.9881629" lon="32.7397504"><ele>1124.0</ele><time>2015-04-27T13:44:57.0000000+00:00</time></trkpt><trkpt lat="34.9881185" lon="32.739785"><ele>1123.0</ele><time>2015-04-27T13:44:58.0000000+00:00</time></trkpt><trkpt lat="34.9880436" lon="32.7398515"><ele>1120.9</ele><time>2015-04-27T13:45:00.0000000+00:00</time></trkpt><trkpt lat="34.9879964" lon="32.73988"><ele>1120.4</ele><time>2015-04-27T13:45:01.0000000+00:00</time></trkpt><trkpt lat="34.987957" lon="32.739913"><ele>1119.7</ele><time>2015-04-27T13:45:02.0000000+00:00</time></trkpt><trkpt lat="34.9878837" lon="32.7399806"><ele>1117.6</ele><time>2015-04-27T13:45:04.0000000+00:00</time></trkpt><trkpt lat="34.9878487" lon="32.740021"><ele>1116.3</ele><time>2015-04-27T13:45:05.0000000+00:00</time></trkpt><trkpt lat="34.9878085" lon="32.7400612"><ele>1115.6</ele><time>2015-04-27T13:45:06.0000000+00:00</time></trkpt><trkpt lat="34.9877643" lon="32.7400986"><ele>1115.3</ele><time>2015-04-27T13:45:07.0000000+00:00</time></trkpt><trkpt lat="34.9877296" lon="32.7401434"><ele>1114.6</ele><time>2015-04-27T13:45:08.0000000+00:00</time></trkpt><trkpt lat="34.9876928" lon="32.740179"><ele>1114.3</ele><time>2015-04-27T13:45:09.0000000+00:00</time></trkpt><trkpt lat="34.9876518" lon="32.7402231"><ele>1114.1</ele><time>2015-04-27T13:45:10.0000000+00:00</time></trkpt><trkpt lat="34.9876151" lon="32.7402655"><ele>1114.0</ele><time>2015-04-27T13:45:11.0000000+00:00</time></trkpt><trkpt lat="34.9875781" lon="32.7403128"><ele>1114.0</ele><time>2015-04-27T13:45:12.0000000+00:00</time></trkpt><trkpt lat="34.9875457" lon="32.7403606"><ele>1114.5</ele><time>2015-04-27T13:45:13.0000000+00:00</time></trkpt><trkpt lat="34.9875128" lon="32.7404061"><ele>1114.7</ele><time>2015-04-27T13:45:14.0000000+00:00</time></trkpt><trkpt lat="34.9874862" lon="32.7404516"><ele>1114.3</ele><time>2015-04-27T13:45:15.0000000+00:00</time></trkpt><trkpt lat="34.9874583" lon="32.7405013"><ele>1114.6</ele><time>2015-04-27T13:45:16.0000000+00:00</time></trkpt><trkpt lat="34.987402" lon="32.7405984"><ele>1114.6</ele><time>2015-04-27T13:45:18.0000000+00:00</time></trkpt><trkpt lat="34.987374" lon="32.7406622"><ele>1114.8</ele><time>2015-04-27T13:45:19.0000000+00:00</time></trkpt><trkpt lat="34.9873477" lon="32.7407214"><ele>1114.3</ele><time>2015-04-27T13:45:20.0000000+00:00</time></trkpt><trkpt lat="34.9873254" lon="32.7407899"><ele>1115.1</ele><time>2015-04-27T13:45:21.0000000+00:00</time></trkpt><trkpt lat="34.9873061" lon="32.7408539"><ele>1115.5</ele><time>2015-04-27T13:45:22.0000000+00:00</time></trkpt><trkpt lat="34.9872862" lon="32.7409123"><ele>1116.2</ele><time>2015-04-27T13:45:23.0000000+00:00</time></trkpt><trkpt lat="34.9872613" lon="32.7409772"><ele>1117.1</ele><time>2015-04-27T13:45:24.0000000+00:00</time></trkpt><trkpt lat="34.9872406" lon="32.7410386"><ele>1117.0</ele><time>2015-04-27T13:45:25.0000000+00:00</time></trkpt><trkpt lat="34.9872189" lon="32.7411044"><ele>1117.0</ele><time>2015-04-27T13:45:26.0000000+00:00</time></trkpt><trkpt lat="34.9871951" lon="32.7411743"><ele>1116.9</ele><time>2015-04-27T13:45:27.0000000+00:00</time></trkpt><trkpt lat="34.9871648" lon="32.7412406"><ele>1116.9</ele><time>2015-04-27T13:45:28.0000000+00:00</time></trkpt><trkpt lat="34.9871551" lon="32.741304"><ele>1116.9</ele><time>2015-04-27T13:45:29.0000000+00:00</time></trkpt><trkpt lat="34.9871381" lon="32.7413623"><ele>1116.9</ele><time>2015-04-27T13:45:30.0000000+00:00</time></trkpt><trkpt lat="34.9871282" lon="32.7414213"><ele>1116.9</ele><time>2015-04-27T13:45:31.0000000+00:00</time></trkpt><trkpt lat="34.9871044" lon="32.7414805"><ele>1116.9</ele><time>2015-04-27T13:45:32.0000000+00:00</time></trkpt><trkpt lat="34.9870926" lon="32.7415376"><ele>1117.4</ele><time>2015-04-27T13:45:33.0000000+00:00</time></trkpt><trkpt lat="34.9870697" lon="32.7415996"><ele>1117.7</ele><time>2015-04-27T13:45:34.0000000+00:00</time></trkpt><trkpt lat="34.9870509" lon="32.741661"><ele>1117.8</ele><time>2015-04-27T13:45:35.0000000+00:00</time></trkpt><trkpt lat="34.9870331" lon="32.7417186"><ele>1118.4</ele><time>2015-04-27T13:45:36.0000000+00:00</time></trkpt><trkpt lat="34.9870143" lon="32.7418226"><ele>1118.0</ele><time>2015-04-27T13:45:38.0000000+00:00</time></trkpt><trkpt lat="34.9869764" lon="32.7419228"><ele>1118.5</ele><time>2015-04-27T13:45:40.0000000+00:00</time></trkpt><trkpt lat="34.9869527" lon="32.7420238"><ele>1119.6</ele><time>2015-04-27T13:45:42.0000000+00:00</time></trkpt><trkpt lat="34.9869211" lon="32.74213"><ele>1119.8</ele><time>2015-04-27T13:45:44.0000000+00:00</time></trkpt><trkpt lat="34.9868941" lon="32.7421748"><ele>1119.4</ele><time>2015-04-27T13:45:45.0000000+00:00</time></trkpt><trkpt lat="34.9868607" lon="32.7422357"><ele>1119.7</ele><time>2015-04-27T13:45:46.0000000+00:00</time></trkpt><trkpt lat="34.9868592" lon="32.7422995"><ele>1119.8</ele><time>2015-04-27T13:45:47.0000000+00:00</time></trkpt><trkpt lat="34.9868452" lon="32.7423566"><ele>1119.9</ele><time>2015-04-27T13:45:48.0000000+00:00</time></trkpt><trkpt lat="34.9868307" lon="32.7424187"><ele>1120.4</ele><time>2015-04-27T13:45:49.0000000+00:00</time></trkpt><trkpt lat="34.9868072" lon="32.7424758"><ele>1120.7</ele><time>2015-04-27T13:45:50.0000000+00:00</time></trkpt><trkpt lat="34.9867765" lon="32.7425758"><ele>1120.9</ele><time>2015-04-27T13:45:52.0000000+00:00</time></trkpt><trkpt lat="34.9867525" lon="32.7426749"><ele>1121.2</ele><time>2015-04-27T13:45:54.0000000+00:00</time></trkpt><trkpt lat="34.9867444" lon="32.742735"><ele>1121.5</ele><time>2015-04-27T13:45:55.0000000+00:00</time></trkpt><trkpt lat="34.9867342" lon="32.742794"><ele>1121.2</ele><time>2015-04-27T13:45:56.0000000+00:00</time></trkpt><trkpt lat="34.9867214" lon="32.7428564"><ele>1121.1</ele><time>2015-04-27T13:45:57.0000000+00:00</time></trkpt><trkpt lat="34.9867088" lon="32.7429215"><ele>1121.0</ele><time>2015-04-27T13:45:58.0000000+00:00</time></trkpt><trkpt lat="34.9866926" lon="32.7429826"><ele>1121.5</ele><time>2015-04-27T13:45:59.0000000+00:00</time></trkpt><trkpt lat="34.9866794" lon="32.7430398"><ele>1120.7</ele><time>2015-04-27T13:46:00.0000000+00:00</time></trkpt><trkpt lat="34.9866713" lon="32.7430984"><ele>1120.8</ele><time>2015-04-27T13:46:01.0000000+00:00</time></trkpt><trkpt lat="34.9866473" lon="32.7431642"><ele>1121.4</ele><time>2015-04-27T13:46:02.0000000+00:00</time></trkpt><trkpt lat="34.9866342" lon="32.7432189"><ele>1121.7</ele><time>2015-04-27T13:46:03.0000000+00:00</time></trkpt><trkpt lat="34.9866055" lon="32.7433135"><ele>1121.9</ele><time>2015-04-27T13:46:05.0000000+00:00</time></trkpt><trkpt lat="34.9865755" lon="32.7434059"><ele>1121.7</ele><time>2015-04-27T13:46:07.0000000+00:00</time></trkpt><trkpt lat="34.986537" lon="32.7434948"><ele>1121.9</ele><time>2015-04-27T13:46:09.0000000+00:00</time></trkpt><trkpt lat="34.9864885" lon="32.7435751"><ele>1121.9</ele><time>2015-04-27T13:46:11.0000000+00:00</time></trkpt><trkpt lat="34.9864292" lon="32.743649"><ele>1121.9</ele><time>2015-04-27T13:46:13.0000000+00:00</time></trkpt><trkpt lat="34.9863678" lon="32.7437065"><ele>1123.4</ele><time>2015-04-27T13:46:15.0000000+00:00</time></trkpt><trkpt lat="34.9863123" lon="32.7437582"><ele>1123.1</ele><time>2015-04-27T13:46:17.0000000+00:00</time></trkpt><trkpt lat="34.9862544" lon="32.7438028"><ele>1123.0</ele><time>2015-04-27T13:46:19.0000000+00:00</time></trkpt><trkpt lat="34.9862023" lon="32.743836"><ele>1122.9</ele><time>2015-04-27T13:46:21.0000000+00:00</time></trkpt><trkpt lat="34.9861571" lon="32.7438615"><ele>1122.2</ele><time>2015-04-27T13:46:23.0000000+00:00</time></trkpt><trkpt lat="34.986112" lon="32.7438846"><ele>1121.5</ele><time>2015-04-27T13:46:25.0000000+00:00</time></trkpt><trkpt lat="34.9860642" lon="32.7439011"><ele>1121.8</ele><time>2015-04-27T13:46:27.0000000+00:00</time></trkpt><trkpt lat="34.9860111" lon="32.7439267"><ele>1121.4</ele><time>2015-04-27T13:46:29.0000000+00:00</time></trkpt><trkpt lat="34.9859407" lon="32.7439704"><ele>1121.0</ele><time>2015-04-27T13:46:31.0000000+00:00</time></trkpt><trkpt lat="34.98587" lon="32.7440144"><ele>1121.0</ele><time>2015-04-27T13:46:33.0000000+00:00</time></trkpt><trkpt lat="34.9857776" lon="32.7440569"><ele>1121.2</ele><time>2015-04-27T13:46:35.0000000+00:00</time></trkpt><trkpt lat="34.9857043" lon="32.7440765"><ele>1120.2</ele><time>2015-04-27T13:46:37.0000000+00:00</time></trkpt><trkpt lat="34.9856303" lon="32.7441161"><ele>1119.8</ele><time>2015-04-27T13:46:39.0000000+00:00</time></trkpt><trkpt lat="34.9855582" lon="32.744129"><ele>1120.4</ele><time>2015-04-27T13:46:41.0000000+00:00</time></trkpt><trkpt lat="34.9854852" lon="32.7441228"><ele>1120.3</ele><time>2015-04-27T13:46:43.0000000+00:00</time></trkpt><trkpt lat="34.9854118" lon="32.7441179"><ele>1120.0</ele><time>2015-04-27T13:46:45.0000000+00:00</time></trkpt><trkpt lat="34.9853473" lon="32.7440831"><ele>1119.5</ele><time>2015-04-27T13:46:47.0000000+00:00</time></trkpt><trkpt lat="34.9852942" lon="32.7440302"><ele>1119.8</ele><time>2015-04-27T13:46:49.0000000+00:00</time></trkpt><trkpt lat="34.9852537" lon="32.7439642"><ele>1119.4</ele><time>2015-04-27T13:46:51.0000000+00:00</time></trkpt><trkpt lat="34.9852333" lon="32.7438859"><ele>1119.8</ele><time>2015-04-27T13:46:53.0000000+00:00</time></trkpt><trkpt lat="34.9852202" lon="32.7438064"><ele>1119.9</ele><time>2015-04-27T13:46:55.0000000+00:00</time></trkpt><trkpt lat="34.9852043" lon="32.7437308"><ele>1119.9</ele><time>2015-04-27T13:46:57.0000000+00:00</time></trkpt><trkpt lat="34.9851935" lon="32.743663"><ele>1120.7</ele><time>2015-04-27T13:46:59.0000000+00:00</time></trkpt><trkpt lat="34.9851812" lon="32.7435988"><ele>1121.6</ele><time>2015-04-27T13:47:01.0000000+00:00</time></trkpt><trkpt lat="34.9851563" lon="32.7435294"><ele>1121.9</ele><time>2015-04-27T13:47:03.0000000+00:00</time></trkpt><trkpt lat="34.9851217" lon="32.743446"><ele>1122.7</ele><time>2015-04-27T13:47:05.0000000+00:00</time></trkpt><trkpt lat="34.9850811" lon="32.7433577"><ele>1123.6</ele><time>2015-04-27T13:47:07.0000000+00:00</time></trkpt><trkpt lat="34.9850346" lon="32.7432825"><ele>1123.9</ele><time>2015-04-27T13:47:09.0000000+00:00</time></trkpt><trkpt lat="34.9849928" lon="32.743232"><ele>1123.9</ele><time>2015-04-27T13:47:11.0000000+00:00</time></trkpt><trkpt lat="34.9849495" lon="32.743181"><ele>1123.9</ele><time>2015-04-27T13:47:13.0000000+00:00</time></trkpt><trkpt lat="34.9849058" lon="32.7431255"><ele>1124.4</ele><time>2015-04-27T13:47:15.0000000+00:00</time></trkpt><trkpt lat="34.9848571" lon="32.7430712"><ele>1125.6</ele><time>2015-04-27T13:47:17.0000000+00:00</time></trkpt><trkpt lat="34.9848145" lon="32.7430164"><ele>1125.8</ele><time>2015-04-27T13:47:19.0000000+00:00</time></trkpt><trkpt lat="34.9847721" lon="32.7429638"><ele>1126.4</ele><time>2015-04-27T13:47:21.0000000+00:00</time></trkpt><trkpt lat="34.9847279" lon="32.7429093"><ele>1126.0</ele><time>2015-04-27T13:47:23.0000000+00:00</time></trkpt><trkpt lat="34.9846876" lon="32.7428526"><ele>1126.0</ele><time>2015-04-27T13:47:25.0000000+00:00</time></trkpt><trkpt lat="34.9846528" lon="32.7427944"><ele>1126.7</ele><time>2015-04-27T13:47:27.0000000+00:00</time></trkpt><trkpt lat="34.9846204" lon="32.742737"><ele>1127.9</ele><time>2015-04-27T13:47:29.0000000+00:00</time></trkpt><trkpt lat="34.9845982" lon="32.7426805"><ele>1128.9</ele><time>2015-04-27T13:47:31.0000000+00:00</time></trkpt><trkpt lat="34.9845853" lon="32.7426213"><ele>1129.4</ele><time>2015-04-27T13:47:33.0000000+00:00</time></trkpt><trkpt lat="34.9845737" lon="32.742562"><ele>1130.6</ele><time>2015-04-27T13:47:35.0000000+00:00</time></trkpt><trkpt lat="34.984569" lon="32.7425026"><ele>1130.8</ele><time>2015-04-27T13:47:37.0000000+00:00</time></trkpt><trkpt lat="34.9845646" lon="32.7424258"><ele>1132.3</ele><time>2015-04-27T13:47:41.0000000+00:00</time></trkpt><trkpt lat="34.984561" lon="32.7423708"><ele>1133.3</ele><time>2015-04-27T13:47:43.0000000+00:00</time></trkpt><trkpt lat="34.9845608" lon="32.7423134"><ele>1134.5</ele><time>2015-04-27T13:47:45.0000000+00:00</time></trkpt><trkpt lat="34.9845629" lon="32.7422547"><ele>1135.6</ele><time>2015-04-27T13:47:47.0000000+00:00</time></trkpt><trkpt lat="34.9845631" lon="32.7421977"><ele>1136.6</ele><time>2015-04-27T13:47:49.0000000+00:00</time></trkpt><trkpt lat="34.984555" lon="32.7421434"><ele>1136.3</ele><time>2015-04-27T13:47:51.0000000+00:00</time></trkpt><trkpt lat="34.9845428" lon="32.7420647"><ele>1137.4</ele><time>2015-04-27T13:47:54.0000000+00:00</time></trkpt><trkpt lat="34.9845398" lon="32.7419839"><ele>1137.0</ele><time>2015-04-27T13:47:57.0000000+00:00</time></trkpt><trkpt lat="34.9845454" lon="32.7419014"><ele>1136.9</ele><time>2015-04-27T13:48:00.0000000+00:00</time></trkpt><trkpt lat="34.9845393" lon="32.7418263"><ele>1136.9</ele><time>2015-04-27T13:48:03.0000000+00:00</time></trkpt><trkpt lat="34.9845299" lon="32.7417563"><ele>1137.8</ele><time>2015-04-27T13:48:06.0000000+00:00</time></trkpt><trkpt lat="34.9845217" lon="32.7416847"><ele>1140.2</ele><time>2015-04-27T13:48:09.0000000+00:00</time></trkpt><trkpt lat="34.9845007" lon="32.7416312"><ele>1142.8</ele><time>2015-04-27T13:48:12.0000000+00:00</time></trkpt><trkpt lat="34.9844538" lon="32.7416038"><ele>1142.9</ele><time>2015-04-27T13:48:16.0000000+00:00</time></trkpt><trkpt lat="34.9844097" lon="32.7415617"><ele>1142.0</ele><time>2015-04-27T13:48:21.0000000+00:00</time></trkpt><trkpt lat="34.984371" lon="32.7415283"><ele>1141.2</ele><time>2015-04-27T13:48:24.0000000+00:00</time></trkpt><trkpt lat="34.9843204" lon="32.7414982"><ele>1140.8</ele><time>2015-04-27T13:48:27.0000000+00:00</time></trkpt><trkpt lat="34.9842724" lon="32.7414916"><ele>1141.0</ele><time>2015-04-27T13:48:30.0000000+00:00</time></trkpt><trkpt lat="34.9842264" lon="32.7414966"><ele>1141.6</ele><time>2015-04-27T13:48:33.0000000+00:00</time></trkpt><trkpt lat="34.9841802" lon="32.7415023"><ele>1142.4</ele><time>2015-04-27T13:48:36.0000000+00:00</time></trkpt><trkpt lat="34.9841355" lon="32.7415089"><ele>1142.1</ele><time>2015-04-27T13:48:39.0000000+00:00</time></trkpt><trkpt lat="34.9840841" lon="32.7415167"><ele>1142.8</ele><time>2015-04-27T13:48:42.0000000+00:00</time></trkpt><trkpt lat="34.9840323" lon="32.7415314"><ele>1142.0</ele><time>2015-04-27T13:48:45.0000000+00:00</time></trkpt><trkpt lat="34.9839874" lon="32.7415515"><ele>1139.6</ele><time>2015-04-27T13:48:48.0000000+00:00</time></trkpt><trkpt lat="34.9839292" lon="32.7415653"><ele>1138.8</ele><time>2015-04-27T13:48:52.0000000+00:00</time></trkpt><trkpt lat="34.9838829" lon="32.7415478"><ele>1136.8</ele><time>2015-04-27T13:48:55.0000000+00:00</time></trkpt><trkpt lat="34.9839099" lon="32.7415023"><ele>1136.6</ele><time>2015-04-27T13:49:00.0000000+00:00</time></trkpt><trkpt lat="34.9839542" lon="32.7415302"><ele>1134.5</ele><time>2015-04-27T13:49:06.0000000+00:00</time></trkpt><trkpt lat="34.9839978" lon="32.7415111"><ele>1133.5</ele><time>2015-04-27T13:49:10.0000000+00:00</time></trkpt><trkpt lat="34.9839559" lon="32.7415352"><ele>1135.1</ele><time>2015-04-27T13:49:15.0000000+00:00</time></trkpt><trkpt lat="34.9839027" lon="32.7415004"><ele>1136.1</ele><time>2015-04-27T13:49:19.0000000+00:00</time></trkpt><trkpt lat="34.9839306" lon="32.7414545"><ele>1128.1</ele><time>2015-04-27T13:54:44.0000000+00:00</time></trkpt><trkpt lat="34.9838977" lon="32.7414993"><ele>1130.7</ele><time>2015-04-27T13:54:58.0000000+00:00</time></trkpt><trkpt lat="34.983862" lon="32.7415533"><ele>1130.1</ele><time>2015-04-27T13:55:10.0000000+00:00</time></trkpt><trkpt lat="34.9838244" lon="32.7416114"><ele>1130.7</ele><time>2015-04-27T13:55:13.0000000+00:00</time></trkpt><trkpt lat="34.9837804" lon="32.7416683"><ele>1130.9</ele><time>2015-04-27T13:55:16.0000000+00:00</time></trkpt><trkpt lat="34.9837482" lon="32.7417146"><ele>1131.7</ele><time>2015-04-27T13:55:18.0000000+00:00</time></trkpt><trkpt lat="34.9837143" lon="32.7417795"><ele>1129.8</ele><time>2015-04-27T13:55:21.0000000+00:00</time></trkpt><trkpt lat="34.9836787" lon="32.7418345"><ele>1129.0</ele><time>2015-04-27T13:55:24.0000000+00:00</time></trkpt><trkpt lat="34.9836408" lon="32.7418851"><ele>1130.3</ele><time>2015-04-27T13:55:27.0000000+00:00</time></trkpt><trkpt lat="34.9835995" lon="32.7419393"><ele>1130.1</ele><time>2015-04-27T13:55:30.0000000+00:00</time></trkpt><trkpt lat="34.983562" lon="32.7419976"><ele>1128.6</ele><time>2015-04-27T13:55:33.0000000+00:00</time></trkpt><trkpt lat="34.9835224" lon="32.7420577"><ele>1128.0</ele><time>2015-04-27T13:55:36.0000000+00:00</time></trkpt><trkpt lat="34.9834842" lon="32.7421114"><ele>1127.7</ele><time>2015-04-27T13:55:39.0000000+00:00</time></trkpt><trkpt lat="34.9834479" lon="32.7421677"><ele>1127.9</ele><time>2015-04-27T13:55:42.0000000+00:00</time></trkpt><trkpt lat="34.9834037" lon="32.7422138"><ele>1128.3</ele><time>2015-04-27T13:55:45.0000000+00:00</time></trkpt><trkpt lat="34.9833541" lon="32.7422546"><ele>1129.2</ele><time>2015-04-27T13:55:49.0000000+00:00</time></trkpt><trkpt lat="34.9833208" lon="32.7422966"><ele>1129.0</ele><time>2015-04-27T13:55:51.0000000+00:00</time></trkpt><trkpt lat="34.9832829" lon="32.7423459"><ele>1130.9</ele><time>2015-04-27T13:55:53.0000000+00:00</time></trkpt><trkpt lat="34.9832468" lon="32.7423902"><ele>1131.9</ele><time>2015-04-27T13:55:55.0000000+00:00</time></trkpt><trkpt lat="34.9832178" lon="32.7424598"><ele>1132.3</ele><time>2015-04-27T13:55:58.0000000+00:00</time></trkpt><trkpt lat="34.9832012" lon="32.742511"><ele>1132.8</ele><time>2015-04-27T13:56:00.0000000+00:00</time></trkpt><trkpt lat="34.9831812" lon="32.7425851"><ele>1132.4</ele><time>2015-04-27T13:56:03.0000000+00:00</time></trkpt><trkpt lat="34.9831651" lon="32.7426584"><ele>1132.9</ele><time>2015-04-27T13:56:06.0000000+00:00</time></trkpt><trkpt lat="34.9831354" lon="32.742732"><ele>1134.7</ele><time>2015-04-27T13:56:09.0000000+00:00</time></trkpt><trkpt lat="34.9831209" lon="32.7427848"><ele>1134.9</ele><time>2015-04-27T13:56:11.0000000+00:00</time></trkpt><trkpt lat="34.9831088" lon="32.7428391"><ele>1134.4</ele><time>2015-04-27T13:56:13.0000000+00:00</time></trkpt><trkpt lat="34.9830933" lon="32.7428925"><ele>1134.1</ele><time>2015-04-27T13:56:15.0000000+00:00</time></trkpt><trkpt lat="34.9830646" lon="32.7429638"><ele>1134.3</ele><time>2015-04-27T13:56:18.0000000+00:00</time></trkpt><trkpt lat="34.9830456" lon="32.7430225"><ele>1133.8</ele><time>2015-04-27T13:56:22.0000000+00:00</time></trkpt><trkpt lat="34.9830228" lon="32.7430912"><ele>1133.2</ele><time>2015-04-27T13:56:25.0000000+00:00</time></trkpt><trkpt lat="34.9830022" lon="32.7431491"><ele>1132.5</ele><time>2015-04-27T13:56:27.0000000+00:00</time></trkpt><trkpt lat="34.9829812" lon="32.7431986"><ele>1132.1</ele><time>2015-04-27T13:56:29.0000000+00:00</time></trkpt><trkpt lat="34.9829655" lon="32.7432651"><ele>1130.1</ele><time>2015-04-27T13:56:33.0000000+00:00</time></trkpt><trkpt lat="34.9829449" lon="32.7433147"><ele>1130.1</ele><time>2015-04-27T13:56:36.0000000+00:00</time></trkpt><trkpt lat="34.982917" lon="32.743362"><ele>1131.4</ele><time>2015-04-27T13:56:39.0000000+00:00</time></trkpt><trkpt lat="34.9828768" lon="32.7434001"><ele>1132.4</ele><time>2015-04-27T13:56:42.0000000+00:00</time></trkpt><trkpt lat="34.9828249" lon="32.7434199"><ele>1132.9</ele><time>2015-04-27T13:56:45.0000000+00:00</time></trkpt><trkpt lat="34.9827712" lon="32.743426"><ele>1132.9</ele><time>2015-04-27T13:56:48.0000000+00:00</time></trkpt><trkpt lat="34.9827256" lon="32.7434369"><ele>1133.7</ele><time>2015-04-27T13:56:51.0000000+00:00</time></trkpt><trkpt lat="34.9826823" lon="32.7434138"><ele>1134.6</ele><time>2015-04-27T13:56:54.0000000+00:00</time></trkpt><trkpt lat="34.9826348" lon="32.7433972"><ele>1134.9</ele><time>2015-04-27T13:56:57.0000000+00:00</time></trkpt><trkpt lat="34.9825911" lon="32.7433823"><ele>1135.1</ele><time>2015-04-27T13:57:00.0000000+00:00</time></trkpt><trkpt lat="34.9825481" lon="32.7433575"><ele>1134.9</ele><time>2015-04-27T13:57:05.0000000+00:00</time></trkpt><trkpt lat="34.9825077" lon="32.7433223"><ele>1134.0</ele><time>2015-04-27T13:57:11.0000000+00:00</time></trkpt><trkpt lat="34.9824672" lon="32.7432637"><ele>1134.9</ele><time>2015-04-27T13:57:16.0000000+00:00</time></trkpt><trkpt lat="34.9824199" lon="32.7432271"><ele>1134.9</ele><time>2015-04-27T13:57:19.0000000+00:00</time></trkpt><trkpt lat="34.9823788" lon="32.7431834"><ele>1135.8</ele><time>2015-04-27T13:57:22.0000000+00:00</time></trkpt><trkpt lat="34.9823446" lon="32.7431104"><ele>1134.5</ele><time>2015-04-27T13:57:25.0000000+00:00</time></trkpt><trkpt lat="34.9823163" lon="32.7430528"><ele>1135.3</ele><time>2015-04-27T13:57:27.0000000+00:00</time></trkpt><trkpt lat="34.9822824" lon="32.7429918"><ele>1137.0</ele><time>2015-04-27T13:57:29.0000000+00:00</time></trkpt><trkpt lat="34.9822432" lon="32.7429047"><ele>1138.5</ele><time>2015-04-27T13:57:31.0000000+00:00</time></trkpt><trkpt lat="34.9822095" lon="32.7428175"><ele>1138.8</ele><time>2015-04-27T13:57:33.0000000+00:00</time></trkpt><trkpt lat="34.9821845" lon="32.7427481"><ele>1139.7</ele><time>2015-04-27T13:57:35.0000000+00:00</time></trkpt><trkpt lat="34.9821495" lon="32.7426836"><ele>1139.6</ele><time>2015-04-27T13:57:37.0000000+00:00</time></trkpt><trkpt lat="34.982106" lon="32.7426208"><ele>1141.3</ele><time>2015-04-27T13:57:39.0000000+00:00</time></trkpt><trkpt lat="34.9820646" lon="32.7425568"><ele>1141.8</ele><time>2015-04-27T13:57:41.0000000+00:00</time></trkpt><trkpt lat="34.9820145" lon="32.7425023"><ele>1142.4</ele><time>2015-04-27T13:57:43.0000000+00:00</time></trkpt><trkpt lat="34.9819636" lon="32.7424478"><ele>1142.0</ele><time>2015-04-27T13:57:45.0000000+00:00</time></trkpt><trkpt lat="34.9819139" lon="32.7423971"><ele>1142.0</ele><time>2015-04-27T13:57:47.0000000+00:00</time></trkpt><trkpt lat="34.9818696" lon="32.7423598"><ele>1141.9</ele><time>2015-04-27T13:57:49.0000000+00:00</time></trkpt><trkpt lat="34.981826" lon="32.742331"><ele>1141.9</ele><time>2015-04-27T13:57:51.0000000+00:00</time></trkpt><trkpt lat="34.9817844" lon="32.7423023"><ele>1141.9</ele><time>2015-04-27T13:57:53.0000000+00:00</time></trkpt><trkpt lat="34.9817284" lon="32.7422608"><ele>1141.4</ele><time>2015-04-27T13:57:56.0000000+00:00</time></trkpt><trkpt lat="34.9816726" lon="32.7422297"><ele>1138.9</ele><time>2015-04-27T13:57:59.0000000+00:00</time></trkpt><trkpt lat="34.9816275" lon="32.7422152"><ele>1137.7</ele><time>2015-04-27T13:58:01.0000000+00:00</time></trkpt><trkpt lat="34.9815616" lon="32.7421962"><ele>1135.9</ele><time>2015-04-27T13:58:03.0000000+00:00</time></trkpt><trkpt lat="34.9814904" lon="32.7421749"><ele>1134.4</ele><time>2015-04-27T13:58:05.0000000+00:00</time></trkpt><trkpt lat="34.98141" lon="32.7421608"><ele>1132.8</ele><time>2015-04-27T13:58:07.0000000+00:00</time></trkpt><trkpt lat="34.9813319" lon="32.7421474"><ele>1132.1</ele><time>2015-04-27T13:58:09.0000000+00:00</time></trkpt><trkpt lat="34.9812506" lon="32.742134"><ele>1130.7</ele><time>2015-04-27T13:58:11.0000000+00:00</time></trkpt><trkpt lat="34.9811992" lon="32.742126"><ele>1130.3</ele><time>2015-04-27T13:58:12.0000000+00:00</time></trkpt><trkpt lat="34.9811339" lon="32.7421137"><ele>1129.6</ele><time>2015-04-27T13:58:13.0000000+00:00</time></trkpt><trkpt lat="34.98107" lon="32.7421055"><ele>1129.3</ele><time>2015-04-27T13:58:14.0000000+00:00</time></trkpt><trkpt lat="34.9810109" lon="32.7421004"><ele>1128.6</ele><time>2015-04-27T13:58:15.0000000+00:00</time></trkpt><trkpt lat="34.9809434" lon="32.7421062"><ele>1128.3</ele><time>2015-04-27T13:58:16.0000000+00:00</time></trkpt><trkpt lat="34.9808742" lon="32.7421143"><ele>1127.6</ele><time>2015-04-27T13:58:17.0000000+00:00</time></trkpt><trkpt lat="34.980798" lon="32.742121"><ele>1126.8</ele><time>2015-04-27T13:58:18.0000000+00:00</time></trkpt><trkpt lat="34.9807204" lon="32.7421394"><ele>1126.3</ele><time>2015-04-27T13:58:19.0000000+00:00</time></trkpt><trkpt lat="34.9806344" lon="32.7421616"><ele>1125.6</ele><time>2015-04-27T13:58:20.0000000+00:00</time></trkpt><trkpt lat="34.9805484" lon="32.7421906"><ele>1123.8</ele><time>2015-04-27T13:58:21.0000000+00:00</time></trkpt><trkpt lat="34.9804487" lon="32.7422202"><ele>1122.9</ele><time>2015-04-27T13:58:22.0000000+00:00</time></trkpt><trkpt lat="34.9803528" lon="32.742242"><ele>1120.9</ele><time>2015-04-27T13:58:23.0000000+00:00</time></trkpt><trkpt lat="34.9802441" lon="32.7422627"><ele>1119.4</ele><time>2015-04-27T13:58:24.0000000+00:00</time></trkpt><trkpt lat="34.9801348" lon="32.7422738"><ele>1118.2</ele><time>2015-04-27T13:58:25.0000000+00:00</time></trkpt><trkpt lat="34.9800188" lon="32.7422838"><ele>1117.1</ele><time>2015-04-27T13:58:26.0000000+00:00</time></trkpt><trkpt lat="34.9799077" lon="32.7422928"><ele>1116.0</ele><time>2015-04-27T13:58:27.0000000+00:00</time></trkpt><trkpt lat="34.9798079" lon="32.7422934"><ele>1115.0</ele><time>2015-04-27T13:58:28.0000000+00:00</time></trkpt><trkpt lat="34.979728" lon="32.7422961"><ele>1114.4</ele><time>2015-04-27T13:58:29.0000000+00:00</time></trkpt><trkpt lat="34.9796556" lon="32.7423039"><ele>1114.2</ele><time>2015-04-27T13:58:30.0000000+00:00</time></trkpt><trkpt lat="34.9795908" lon="32.7423086"><ele>1113.6</ele><time>2015-04-27T13:58:31.0000000+00:00</time></trkpt><trkpt lat="34.9795348" lon="32.7423184"><ele>1113.2</ele><time>2015-04-27T13:58:32.0000000+00:00</time></trkpt><trkpt lat="34.9794545" lon="32.7423203"><ele>1112.3</ele><time>2015-04-27T13:58:34.0000000+00:00</time></trkpt><trkpt lat="34.9793893" lon="32.7423275"><ele>1111.3</ele><time>2015-04-27T13:58:36.0000000+00:00</time></trkpt><trkpt lat="34.9793135" lon="32.7423315"><ele>1111.0</ele><time>2015-04-27T13:58:38.0000000+00:00</time></trkpt><trkpt lat="34.9792358" lon="32.7423808"><ele>1109.7</ele><time>2015-04-27T13:58:40.0000000+00:00</time></trkpt><trkpt lat="34.9791914" lon="32.742401"><ele>1109.3</ele><time>2015-04-27T13:58:41.0000000+00:00</time></trkpt><trkpt lat="34.9791436" lon="32.7424293"><ele>1109.1</ele><time>2015-04-27T13:58:42.0000000+00:00</time></trkpt><trkpt lat="34.9790957" lon="32.7424622"><ele>1109.0</ele><time>2015-04-27T13:58:43.0000000+00:00</time></trkpt><trkpt lat="34.979043" lon="32.7425002"><ele>1109.0</ele><time>2015-04-27T13:58:44.0000000+00:00</time></trkpt><trkpt lat="34.9789861" lon="32.7425339"><ele>1108.5</ele><time>2015-04-27T13:58:45.0000000+00:00</time></trkpt><trkpt lat="34.9789328" lon="32.7425776"><ele>1107.7</ele><time>2015-04-27T13:58:46.0000000+00:00</time></trkpt><trkpt lat="34.9788699" lon="32.7426214"><ele>1107.3</ele><time>2015-04-27T13:58:47.0000000+00:00</time></trkpt><trkpt lat="34.9788018" lon="32.7426672"><ele>1107.1</ele><time>2015-04-27T13:58:48.0000000+00:00</time></trkpt><trkpt lat="34.9787334" lon="32.7427029"><ele>1106.5</ele><time>2015-04-27T13:58:49.0000000+00:00</time></trkpt><trkpt lat="34.9786587" lon="32.7427436"><ele>1105.7</ele><time>2015-04-27T13:58:50.0000000+00:00</time></trkpt><trkpt lat="34.9785867" lon="32.7427848"><ele>1105.3</ele><time>2015-04-27T13:58:51.0000000+00:00</time></trkpt><trkpt lat="34.9785041" lon="32.7428122"><ele>1104.6</ele><time>2015-04-27T13:58:52.0000000+00:00</time></trkpt><trkpt lat="34.9784206" lon="32.742831"><ele>1103.8</ele><time>2015-04-27T13:58:53.0000000+00:00</time></trkpt><trkpt lat="34.9783326" lon="32.7428326"><ele>1103.4</ele><time>2015-04-27T13:58:54.0000000+00:00</time></trkpt><trkpt lat="34.9782526" lon="32.7428265"><ele>1102.6</ele><time>2015-04-27T13:58:55.0000000+00:00</time></trkpt><trkpt lat="34.9781784" lon="32.7428245"><ele>1102.3</ele><time>2015-04-27T13:58:56.0000000+00:00</time></trkpt><trkpt lat="34.9781258" lon="32.7428281"><ele>1101.6</ele><time>2015-04-27T13:58:57.0000000+00:00</time></trkpt><trkpt lat="34.9780539" lon="32.7428402"><ele>1100.6</ele><time>2015-04-27T13:58:59.0000000+00:00</time></trkpt><trkpt lat="34.9780099" lon="32.7428755"><ele>1099.3</ele><time>2015-04-27T13:59:02.0000000+00:00</time></trkpt><trkpt lat="34.9780263" lon="32.742943"><ele>1096.1</ele><time>2015-04-27T13:59:08.0000000+00:00</time></trkpt><trkpt lat="34.9780694" lon="32.7429757"><ele>1096.0</ele><time>2015-04-27T13:59:11.0000000+00:00</time></trkpt><trkpt lat="34.9781362" lon="32.7429865"><ele>1095.9</ele><time>2015-04-27T13:59:13.0000000+00:00</time></trkpt><trkpt lat="34.9782225" lon="32.7429811"><ele>1095.4</ele><time>2015-04-27T13:59:15.0000000+00:00</time></trkpt><trkpt lat="34.9782712" lon="32.7429833"><ele>1095.2</ele><time>2015-04-27T13:59:16.0000000+00:00</time></trkpt><trkpt lat="34.9783177" lon="32.7429969"><ele>1095.1</ele><time>2015-04-27T13:59:17.0000000+00:00</time></trkpt><trkpt lat="34.9783918" lon="32.7430066"><ele>1094.5</ele><time>2015-04-27T13:59:19.0000000+00:00</time></trkpt><trkpt lat="34.9784551" lon="32.7430146"><ele>1093.3</ele><time>2015-04-27T13:59:21.0000000+00:00</time></trkpt><trkpt lat="34.978518" lon="32.7430264"><ele>1092.3</ele><time>2015-04-27T13:59:23.0000000+00:00</time></trkpt><trkpt lat="34.9785706" lon="32.7430352"><ele>1092.0</ele><time>2015-04-27T13:59:25.0000000+00:00</time></trkpt><trkpt lat="34.9786219" lon="32.7430587"><ele>1091.2</ele><time>2015-04-27T13:59:27.0000000+00:00</time></trkpt><trkpt lat="34.97868" lon="32.743074"><ele>1090.5</ele><time>2015-04-27T13:59:29.0000000+00:00</time></trkpt><trkpt lat="34.9787563" lon="32.7430769"><ele>1089.6</ele><time>2015-04-27T13:59:31.0000000+00:00</time></trkpt><trkpt lat="34.9788046" lon="32.7430762"><ele>1088.8</ele><time>2015-04-27T13:59:32.0000000+00:00</time></trkpt><trkpt lat="34.9788635" lon="32.7430633"><ele>1088.3</ele><time>2015-04-27T13:59:33.0000000+00:00</time></trkpt><trkpt lat="34.9789138" lon="32.7430473"><ele>1088.1</ele><time>2015-04-27T13:59:34.0000000+00:00</time></trkpt><trkpt lat="34.9789669" lon="32.7430297"><ele>1088.0</ele><time>2015-04-27T13:59:35.0000000+00:00</time></trkpt><trkpt lat="34.9790242" lon="32.7430104"><ele>1088.0</ele><time>2015-04-27T13:59:36.0000000+00:00</time></trkpt><trkpt lat="34.9790853" lon="32.7429862"><ele>1087.5</ele><time>2015-04-27T13:59:37.0000000+00:00</time></trkpt><trkpt lat="34.9791481" lon="32.7429614"><ele>1086.7</ele><time>2015-04-27T13:59:38.0000000+00:00</time></trkpt><trkpt lat="34.9792135" lon="32.7429419"><ele>1086.3</ele><time>2015-04-27T13:59:39.0000000+00:00</time></trkpt><trkpt lat="34.9792824" lon="32.7429204"><ele>1085.6</ele><time>2015-04-27T13:59:40.0000000+00:00</time></trkpt><trkpt lat="34.9793554" lon="32.7428983"><ele>1085.3</ele><time>2015-04-27T13:59:41.0000000+00:00</time></trkpt><trkpt lat="34.9794364" lon="32.742873"><ele>1085.1</ele><time>2015-04-27T13:59:42.0000000+00:00</time></trkpt><trkpt lat="34.9795151" lon="32.7428379"><ele>1084.5</ele><time>2015-04-27T13:59:43.0000000+00:00</time></trkpt><trkpt lat="34.9795758" lon="32.7428036"><ele>1084.2</ele><time>2015-04-27T13:59:44.0000000+00:00</time></trkpt><trkpt lat="34.979664" lon="32.7427699"><ele>1083.6</ele><time>2015-04-27T13:59:45.0000000+00:00</time></trkpt><trkpt lat="34.9797422" lon="32.7427803"><ele>1083.3</ele><time>2015-04-27T13:59:46.0000000+00:00</time></trkpt><trkpt lat="34.9798031" lon="32.7427803"><ele>1083.1</ele><time>2015-04-27T13:59:47.0000000+00:00</time></trkpt><trkpt lat="34.9798832" lon="32.7427786"><ele>1083.0</ele><time>2015-04-27T13:59:48.0000000+00:00</time></trkpt><trkpt lat="34.9799557" lon="32.7427928"><ele>1083.5</ele><time>2015-04-27T13:59:49.0000000+00:00</time></trkpt><trkpt lat="34.9800205" lon="32.742825"><ele>1083.7</ele><time>2015-04-27T13:59:50.0000000+00:00</time></trkpt><trkpt lat="34.9801083" lon="32.7428518"><ele>1083.3</ele><time>2015-04-27T13:59:51.0000000+00:00</time></trkpt><trkpt lat="34.9802156" lon="32.7428765"><ele>1082.1</ele><time>2015-04-27T13:59:52.0000000+00:00</time></trkpt><trkpt lat="34.9803317" lon="32.7428929"><ele>1079.0</ele><time>2015-04-27T13:59:53.0000000+00:00</time></trkpt><trkpt lat="34.9804288" lon="32.7429005"><ele>1077.5</ele><time>2015-04-27T13:59:54.0000000+00:00</time></trkpt><trkpt lat="34.9805241" lon="32.7429064"><ele>1076.2</ele><time>2015-04-27T13:59:55.0000000+00:00</time></trkpt><trkpt lat="34.9806274" lon="32.7429158"><ele>1076.1</ele><time>2015-04-27T13:59:56.0000000+00:00</time></trkpt><trkpt lat="34.9807219" lon="32.7429292"><ele>1076.5</ele><time>2015-04-27T13:59:57.0000000+00:00</time></trkpt><trkpt lat="34.9808282" lon="32.7429551"><ele>1076.7</ele><time>2015-04-27T13:59:58.0000000+00:00</time></trkpt><trkpt lat="34.9809262" lon="32.74298"><ele>1076.8</ele><time>2015-04-27T13:59:59.0000000+00:00</time></trkpt><trkpt lat="34.9810311" lon="32.7430088"><ele>1076.9</ele><time>2015-04-27T14:00:00.0000000+00:00</time></trkpt><trkpt lat="34.9811237" lon="32.7430499"><ele>1076.9</ele><time>2015-04-27T14:00:01.0000000+00:00</time></trkpt><trkpt lat="34.9812109" lon="32.7430904"><ele>1076.4</ele><time>2015-04-27T14:00:02.0000000+00:00</time></trkpt><trkpt lat="34.981284" lon="32.743141"><ele>1075.2</ele><time>2015-04-27T14:00:03.0000000+00:00</time></trkpt><trkpt lat="34.9813459" lon="32.74319"><ele>1074.6</ele><time>2015-04-27T14:00:04.0000000+00:00</time></trkpt><trkpt lat="34.9813894" lon="32.7432851"><ele>1074.2</ele><time>2015-04-27T14:00:05.0000000+00:00</time></trkpt><trkpt lat="34.9814112" lon="32.7433768"><ele>1073.6</ele><time>2015-04-27T14:00:06.0000000+00:00</time></trkpt><trkpt lat="34.9814268" lon="32.7434829"><ele>1073.3</ele><time>2015-04-27T14:00:07.0000000+00:00</time></trkpt><trkpt lat="34.9814437" lon="32.74358"><ele>1072.6</ele><time>2015-04-27T14:00:08.0000000+00:00</time></trkpt><trkpt lat="34.9814682" lon="32.7436733"><ele>1072.8</ele><time>2015-04-27T14:00:09.0000000+00:00</time></trkpt><trkpt lat="34.9814993" lon="32.7437717"><ele>1072.8</ele><time>2015-04-27T14:00:10.0000000+00:00</time></trkpt><trkpt lat="34.9815277" lon="32.7438618"><ele>1072.4</ele><time>2015-04-27T14:00:11.0000000+00:00</time></trkpt><trkpt lat="34.9815375" lon="32.7439647"><ele>1072.2</ele><time>2015-04-27T14:00:12.0000000+00:00</time></trkpt><trkpt lat="34.9815313" lon="32.7440657"><ele>1072.5</ele><time>2015-04-27T14:00:13.0000000+00:00</time></trkpt><trkpt lat="34.981507" lon="32.744167"><ele>1071.7</ele><time>2015-04-27T14:00:14.0000000+00:00</time></trkpt><trkpt lat="34.9814792" lon="32.74426"><ele>1070.8</ele><time>2015-04-27T14:00:15.0000000+00:00</time></trkpt><trkpt lat="34.9814177" lon="32.7443371"><ele>1070.4</ele><time>2015-04-27T14:00:16.0000000+00:00</time></trkpt><trkpt lat="34.9813589" lon="32.7444266"><ele>1070.2</ele><time>2015-04-27T14:00:17.0000000+00:00</time></trkpt><trkpt lat="34.9813126" lon="32.7445276"><ele>1070.0</ele><time>2015-04-27T14:00:18.0000000+00:00</time></trkpt><trkpt lat="34.9812782" lon="32.7446294"><ele>1069.5</ele><time>2015-04-27T14:00:19.0000000+00:00</time></trkpt><trkpt lat="34.9812681" lon="32.7447363"><ele>1068.7</ele><time>2015-04-27T14:00:20.0000000+00:00</time></trkpt><trkpt lat="34.9812502" lon="32.7448442"><ele>1068.3</ele><time>2015-04-27T14:00:21.0000000+00:00</time></trkpt><trkpt lat="34.9812198" lon="32.7449517"><ele>1068.1</ele><time>2015-04-27T14:00:22.0000000+00:00</time></trkpt><trkpt lat="34.9811584" lon="32.745038"><ele>1067.5</ele><time>2015-04-27T14:00:23.0000000+00:00</time></trkpt><trkpt lat="34.9810943" lon="32.7451215"><ele>1066.7</ele><time>2015-04-27T14:00:24.0000000+00:00</time></trkpt><trkpt lat="34.9810252" lon="32.7451973"><ele>1066.3</ele><time>2015-04-27T14:00:25.0000000+00:00</time></trkpt><trkpt lat="34.9809495" lon="32.7452674"><ele>1066.1</ele><time>2015-04-27T14:00:26.0000000+00:00</time></trkpt><trkpt lat="34.9808802" lon="32.7453428"><ele>1065.5</ele><time>2015-04-27T14:00:27.0000000+00:00</time></trkpt><trkpt lat="34.980809" lon="32.7454166"><ele>1065.2</ele><time>2015-04-27T14:00:28.0000000+00:00</time></trkpt><trkpt lat="34.9807333" lon="32.7454827"><ele>1065.1</ele><time>2015-04-27T14:00:29.0000000+00:00</time></trkpt><trkpt lat="34.9806499" lon="32.7455484"><ele>1064.5</ele><time>2015-04-27T14:00:30.0000000+00:00</time></trkpt><trkpt lat="34.9805709" lon="32.745615"><ele>1064.2</ele><time>2015-04-27T14:00:31.0000000+00:00</time></trkpt><trkpt lat="34.9804863" lon="32.745676"><ele>1064.6</ele><time>2015-04-27T14:00:32.0000000+00:00</time></trkpt><trkpt lat="34.9804177" lon="32.7457591"><ele>1063.8</ele><time>2015-04-27T14:00:33.0000000+00:00</time></trkpt><trkpt lat="34.9803328" lon="32.7458267"><ele>1063.3</ele><time>2015-04-27T14:00:34.0000000+00:00</time></trkpt><trkpt lat="34.9802536" lon="32.7458962"><ele>1063.1</ele><time>2015-04-27T14:00:35.0000000+00:00</time></trkpt><trkpt lat="34.9801773" lon="32.7459673"><ele>1062.5</ele><time>2015-04-27T14:00:36.0000000+00:00</time></trkpt><trkpt lat="34.9800949" lon="32.7460364"><ele>1062.2</ele><time>2015-04-27T14:00:37.0000000+00:00</time></trkpt><trkpt lat="34.9800235" lon="32.7461232"><ele>1061.1</ele><time>2015-04-27T14:00:38.0000000+00:00</time></trkpt><trkpt lat="34.9799548" lon="32.746212"><ele>1060.0</ele><time>2015-04-27T14:00:39.0000000+00:00</time></trkpt><trkpt lat="34.9798941" lon="32.7463118"><ele>1059.0</ele><time>2015-04-27T14:00:40.0000000+00:00</time></trkpt><trkpt lat="34.9798568" lon="32.7464268"><ele>1057.9</ele><time>2015-04-27T14:00:41.0000000+00:00</time></trkpt><trkpt lat="34.9798385" lon="32.7465528"><ele>1057.4</ele><time>2015-04-27T14:00:42.0000000+00:00</time></trkpt><trkpt lat="34.979829" lon="32.7466763"><ele>1057.7</ele><time>2015-04-27T14:00:43.0000000+00:00</time></trkpt><trkpt lat="34.979828" lon="32.7468022"><ele>1057.3</ele><time>2015-04-27T14:00:44.0000000+00:00</time></trkpt><trkpt lat="34.9798135" lon="32.7469261"><ele>1057.1</ele><time>2015-04-27T14:00:45.0000000+00:00</time></trkpt><trkpt lat="34.9797948" lon="32.7470554"><ele>1056.5</ele><time>2015-04-27T14:00:46.0000000+00:00</time></trkpt><trkpt lat="34.9797563" lon="32.7471674"><ele>1056.2</ele><time>2015-04-27T14:00:47.0000000+00:00</time></trkpt><trkpt lat="34.9797262" lon="32.7472801"><ele>1055.1</ele><time>2015-04-27T14:00:48.0000000+00:00</time></trkpt><trkpt lat="34.9796991" lon="32.7473833"><ele>1053.0</ele><time>2015-04-27T14:00:49.0000000+00:00</time></trkpt><trkpt lat="34.979652" lon="32.7474914"><ele>1052.0</ele><time>2015-04-27T14:00:50.0000000+00:00</time></trkpt><trkpt lat="34.9796006" lon="32.7475956"><ele>1050.9</ele><time>2015-04-27T14:00:51.0000000+00:00</time></trkpt><trkpt lat="34.9795693" lon="32.7477128"><ele>1050.4</ele><time>2015-04-27T14:00:52.0000000+00:00</time></trkpt><trkpt lat="34.9795432" lon="32.7478177"><ele>1050.2</ele><time>2015-04-27T14:00:53.0000000+00:00</time></trkpt><trkpt lat="34.9795283" lon="32.7479252"><ele>1050.1</ele><time>2015-04-27T14:00:54.0000000+00:00</time></trkpt><trkpt lat="34.9795553" lon="32.7480248"><ele>1051.0</ele><time>2015-04-27T14:00:55.0000000+00:00</time></trkpt><trkpt lat="34.9795938" lon="32.7481056"><ele>1051.0</ele><time>2015-04-27T14:00:56.0000000+00:00</time></trkpt><trkpt lat="34.9796487" lon="32.7481752"><ele>1050.4</ele><time>2015-04-27T14:00:57.0000000+00:00</time></trkpt><trkpt lat="34.9797214" lon="32.7482096"><ele>1050.2</ele><time>2015-04-27T14:00:58.0000000+00:00</time></trkpt><trkpt lat="34.9798028" lon="32.7482197"><ele>1049.6</ele><time>2015-04-27T14:00:59.0000000+00:00</time></trkpt><trkpt lat="34.9798832" lon="32.7482255"><ele>1048.7</ele><time>2015-04-27T14:01:00.0000000+00:00</time></trkpt><trkpt lat="34.9799654" lon="32.7482022"><ele>1047.8</ele><time>2015-04-27T14:01:01.0000000+00:00</time></trkpt><trkpt lat="34.9800344" lon="32.7481688"><ele>1046.4</ele><time>2015-04-27T14:01:02.0000000+00:00</time></trkpt><trkpt lat="34.9800885" lon="32.7481074"><ele>1046.2</ele><time>2015-04-27T14:01:03.0000000+00:00</time></trkpt><trkpt lat="34.980135" lon="32.7480422"><ele>1046.0</ele><time>2015-04-27T14:01:04.0000000+00:00</time></trkpt><trkpt lat="34.9801849" lon="32.7479805"><ele>1046.5</ele><time>2015-04-27T14:01:05.0000000+00:00</time></trkpt><trkpt lat="34.9802256" lon="32.747876"><ele>1046.2</ele><time>2015-04-27T14:01:06.0000000+00:00</time></trkpt><trkpt lat="34.980257" lon="32.7477845"><ele>1045.6</ele><time>2015-04-27T14:01:07.0000000+00:00</time></trkpt><trkpt lat="34.9802892" lon="32.7476955"><ele>1045.7</ele><time>2015-04-27T14:01:08.0000000+00:00</time></trkpt><trkpt lat="34.9803223" lon="32.7476027"><ele>1045.8</ele><time>2015-04-27T14:01:09.0000000+00:00</time></trkpt><trkpt lat="34.9803562" lon="32.7475073"><ele>1045.4</ele><time>2015-04-27T14:01:10.0000000+00:00</time></trkpt><trkpt lat="34.9803951" lon="32.7474115"><ele>1045.2</ele><time>2015-04-27T14:01:11.0000000+00:00</time></trkpt><trkpt lat="34.9804414" lon="32.747318"><ele>1045.0</ele><time>2015-04-27T14:01:12.0000000+00:00</time></trkpt><trkpt lat="34.9804897" lon="32.7472309"><ele>1045.5</ele><time>2015-04-27T14:01:13.0000000+00:00</time></trkpt><trkpt lat="34.9805455" lon="32.7471388"><ele>1045.7</ele><time>2015-04-27T14:01:14.0000000+00:00</time></trkpt><trkpt lat="34.9806017" lon="32.7470581"><ele>1045.8</ele><time>2015-04-27T14:01:15.0000000+00:00</time></trkpt><trkpt lat="34.9806603" lon="32.7469692"><ele>1045.4</ele><time>2015-04-27T14:01:16.0000000+00:00</time></trkpt><trkpt lat="34.9807203" lon="32.7468815"><ele>1045.2</ele><time>2015-04-27T14:01:17.0000000+00:00</time></trkpt><trkpt lat="34.9807936" lon="32.7468113"><ele>1045.0</ele><time>2015-04-27T14:01:18.0000000+00:00</time></trkpt><trkpt lat="34.9808582" lon="32.7467474"><ele>1044.5</ele><time>2015-04-27T14:01:19.0000000+00:00</time></trkpt><trkpt lat="34.9809336" lon="32.7466992"><ele>1043.7</ele><time>2015-04-27T14:01:20.0000000+00:00</time></trkpt><trkpt lat="34.9810034" lon="32.7466831"><ele>1042.8</ele><time>2015-04-27T14:01:21.0000000+00:00</time></trkpt><trkpt lat="34.9810694" lon="32.7466806"><ele>1041.9</ele><time>2015-04-27T14:01:22.0000000+00:00</time></trkpt><trkpt lat="34.9811279" lon="32.7467063"><ele>1041.9</ele><time>2015-04-27T14:01:23.0000000+00:00</time></trkpt><trkpt lat="34.9811791" lon="32.746741"><ele>1040.9</ele><time>2015-04-27T14:01:24.0000000+00:00</time></trkpt><trkpt lat="34.9812409" lon="32.7468067"><ele>1039.9</ele><time>2015-04-27T14:01:25.0000000+00:00</time></trkpt><trkpt lat="34.9812828" lon="32.7469042"><ele>1039.9</ele><time>2015-04-27T14:01:26.0000000+00:00</time></trkpt><trkpt lat="34.9812897" lon="32.7469916"><ele>1039.9</ele><time>2015-04-27T14:01:27.0000000+00:00</time></trkpt><trkpt lat="34.981316" lon="32.7471056"><ele>1039.9</ele><time>2015-04-27T14:01:28.0000000+00:00</time></trkpt><trkpt lat="34.981349" lon="32.7471956"><ele>1039.9</ele><time>2015-04-27T14:01:29.0000000+00:00</time></trkpt><trkpt lat="34.9813777" lon="32.7472901"><ele>1039.4</ele><time>2015-04-27T14:01:30.0000000+00:00</time></trkpt><trkpt lat="34.9813957" lon="32.7473842"><ele>1039.2</ele><time>2015-04-27T14:01:31.0000000+00:00</time></trkpt><trkpt lat="34.9814323" lon="32.7474806"><ele>1039.6</ele><time>2015-04-27T14:01:32.0000000+00:00</time></trkpt><trkpt lat="34.981453" lon="32.7475772"><ele>1038.7</ele><time>2015-04-27T14:01:33.0000000+00:00</time></trkpt><trkpt lat="34.9814839" lon="32.7476781"><ele>1038.8</ele><time>2015-04-27T14:01:34.0000000+00:00</time></trkpt><trkpt lat="34.9815173" lon="32.7477702"><ele>1038.9</ele><time>2015-04-27T14:01:35.0000000+00:00</time></trkpt><trkpt lat="34.9815539" lon="32.7478732"><ele>1038.9</ele><time>2015-04-27T14:01:36.0000000+00:00</time></trkpt><trkpt lat="34.9815919" lon="32.7479678"><ele>1038.4</ele><time>2015-04-27T14:01:37.0000000+00:00</time></trkpt><trkpt lat="34.9816313" lon="32.7480653"><ele>1037.7</ele><time>2015-04-27T14:01:38.0000000+00:00</time></trkpt><trkpt lat="34.9816716" lon="32.7481674"><ele>1037.3</ele><time>2015-04-27T14:01:39.0000000+00:00</time></trkpt><trkpt lat="34.9817118" lon="32.7482685"><ele>1037.1</ele><time>2015-04-27T14:01:40.0000000+00:00</time></trkpt><trkpt lat="34.981761" lon="32.7483666"><ele>1036.5</ele><time>2015-04-27T14:01:41.0000000+00:00</time></trkpt><trkpt lat="34.9818107" lon="32.7484546"><ele>1036.2</ele><time>2015-04-27T14:01:42.0000000+00:00</time></trkpt><trkpt lat="34.9818747" lon="32.7485184"><ele>1035.6</ele><time>2015-04-27T14:01:43.0000000+00:00</time></trkpt><trkpt lat="34.98196" lon="32.7485783"><ele>1033.8</ele><time>2015-04-27T14:01:44.0000000+00:00</time></trkpt><trkpt lat="34.9820318" lon="32.7486282"><ele>1032.3</ele><time>2015-04-27T14:01:45.0000000+00:00</time></trkpt><trkpt lat="34.9821209" lon="32.7486499"><ele>1031.1</ele><time>2015-04-27T14:01:46.0000000+00:00</time></trkpt><trkpt lat="34.9822077" lon="32.7486515"><ele>1031.0</ele><time>2015-04-27T14:01:47.0000000+00:00</time></trkpt><trkpt lat="34.9823041" lon="32.7486584"><ele>1030.0</ele><time>2015-04-27T14:01:48.0000000+00:00</time></trkpt><trkpt lat="34.9823984" lon="32.7486776"><ele>1028.5</ele><time>2015-04-27T14:01:49.0000000+00:00</time></trkpt><trkpt lat="34.9824752" lon="32.7487079"><ele>1027.7</ele><time>2015-04-27T14:01:50.0000000+00:00</time></trkpt><trkpt lat="34.9825546" lon="32.7487632"><ele>1027.3</ele><time>2015-04-27T14:01:51.0000000+00:00</time></trkpt><trkpt lat="34.9826243" lon="32.748828"><ele>1026.6</ele><time>2015-04-27T14:01:52.0000000+00:00</time></trkpt><trkpt lat="34.9826837" lon="32.7489136"><ele>1026.8</ele><time>2015-04-27T14:01:53.0000000+00:00</time></trkpt><trkpt lat="34.9827556" lon="32.7489925"><ele>1027.4</ele><time>2015-04-27T14:01:54.0000000+00:00</time></trkpt><trkpt lat="34.9828182" lon="32.7490621"><ele>1027.6</ele><time>2015-04-27T14:01:55.0000000+00:00</time></trkpt><trkpt lat="34.9829042" lon="32.749113"><ele>1027.3</ele><time>2015-04-27T14:01:56.0000000+00:00</time></trkpt><trkpt lat="34.9830002" lon="32.7491461"><ele>1026.1</ele><time>2015-04-27T14:01:57.0000000+00:00</time></trkpt><trkpt lat="34.9830993" lon="32.7491808"><ele>1025.0</ele><time>2015-04-27T14:01:58.0000000+00:00</time></trkpt><trkpt lat="34.9831971" lon="32.7492002"><ele>1024.0</ele><time>2015-04-27T14:01:59.0000000+00:00</time></trkpt><trkpt lat="34.9832873" lon="32.749229"><ele>1023.5</ele><time>2015-04-27T14:02:00.0000000+00:00</time></trkpt><trkpt lat="34.9833692" lon="32.7492571"><ele>1022.7</ele><time>2015-04-27T14:02:01.0000000+00:00</time></trkpt><trkpt lat="34.9834552" lon="32.7492858"><ele>1021.8</ele><time>2015-04-27T14:02:02.0000000+00:00</time></trkpt><trkpt lat="34.9835406" lon="32.7492978"><ele>1020.4</ele><time>2015-04-27T14:02:03.0000000+00:00</time></trkpt><trkpt lat="34.9836252" lon="32.749301"><ele>1019.7</ele><time>2015-04-27T14:02:04.0000000+00:00</time></trkpt><trkpt lat="34.983705" lon="32.7492934"><ele>1018.8</ele><time>2015-04-27T14:02:05.0000000+00:00</time></trkpt><trkpt lat="34.983792" lon="32.749262"><ele>1018.9</ele><time>2015-04-27T14:02:06.0000000+00:00</time></trkpt><trkpt lat="34.9838874" lon="32.7492141"><ele>1018.4</ele><time>2015-04-27T14:02:07.0000000+00:00</time></trkpt><trkpt lat="34.9839715" lon="32.7491529"><ele>1017.7</ele><time>2015-04-27T14:02:08.0000000+00:00</time></trkpt><trkpt lat="34.9840255" lon="32.7490995"><ele>1016.8</ele><time>2015-04-27T14:02:09.0000000+00:00</time></trkpt><trkpt lat="34.9841001" lon="32.7490652"><ele>1016.4</ele><time>2015-04-27T14:02:10.0000000+00:00</time></trkpt><trkpt lat="34.9841864" lon="32.7490512"><ele>1016.1</ele><time>2015-04-27T14:02:11.0000000+00:00</time></trkpt><trkpt lat="34.9842856" lon="32.7490597"><ele>1015.5</ele><time>2015-04-27T14:02:12.0000000+00:00</time></trkpt><trkpt lat="34.9843715" lon="32.7490881"><ele>1015.2</ele><time>2015-04-27T14:02:13.0000000+00:00</time></trkpt><trkpt lat="34.9844466" lon="32.7491542"><ele>1014.1</ele><time>2015-04-27T14:02:14.0000000+00:00</time></trkpt><trkpt lat="34.9845167" lon="32.7492133"><ele>1013.0</ele><time>2015-04-27T14:02:15.0000000+00:00</time></trkpt><trkpt lat="34.9845966" lon="32.7492744"><ele>1012.5</ele><time>2015-04-27T14:02:16.0000000+00:00</time></trkpt><trkpt lat="34.984668" lon="32.7493222"><ele>1011.7</ele><time>2015-04-27T14:02:17.0000000+00:00</time></trkpt><trkpt lat="34.984745" lon="32.7493474"><ele>1010.3</ele><time>2015-04-27T14:02:18.0000000+00:00</time></trkpt><trkpt lat="34.9848124" lon="32.7493788"><ele>1009.6</ele><time>2015-04-27T14:02:19.0000000+00:00</time></trkpt><trkpt lat="34.9848818" lon="32.7493665"><ele>1009.3</ele><time>2015-04-27T14:02:20.0000000+00:00</time></trkpt><trkpt lat="34.9849581" lon="32.7493311"><ele>1009.1</ele><time>2015-04-27T14:02:21.0000000+00:00</time></trkpt><trkpt lat="34.9850107" lon="32.7492631"><ele>1009.5</ele><time>2015-04-27T14:02:22.0000000+00:00</time></trkpt><trkpt lat="34.9850564" lon="32.7491932"><ele>1009.7</ele><time>2015-04-27T14:02:23.0000000+00:00</time></trkpt><trkpt lat="34.9851187" lon="32.7491113"><ele>1010.3</ele><time>2015-04-27T14:02:24.0000000+00:00</time></trkpt><trkpt lat="34.9851593" lon="32.7490311"><ele>1010.6</ele><time>2015-04-27T14:02:25.0000000+00:00</time></trkpt><trkpt lat="34.9851655" lon="32.7489259"><ele>1010.3</ele><time>2015-04-27T14:02:26.0000000+00:00</time></trkpt><trkpt lat="34.9851758" lon="32.7488117"><ele>1010.1</ele><time>2015-04-27T14:02:27.0000000+00:00</time></trkpt><trkpt lat="34.9851847" lon="32.7486948"><ele>1009.5</ele><time>2015-04-27T14:02:28.0000000+00:00</time></trkpt><trkpt lat="34.9851881" lon="32.7485833"><ele>1009.2</ele><time>2015-04-27T14:02:29.0000000+00:00</time></trkpt><trkpt lat="34.9851849" lon="32.7484709"><ele>1009.1</ele><time>2015-04-27T14:02:30.0000000+00:00</time></trkpt><trkpt lat="34.985188" lon="32.7483678"><ele>1009.0</ele><time>2015-04-27T14:02:31.0000000+00:00</time></trkpt><trkpt lat="34.9851931" lon="32.7482515"><ele>1008.5</ele><time>2015-04-27T14:02:32.0000000+00:00</time></trkpt><trkpt lat="34.985204" lon="32.748137"><ele>1007.7</ele><time>2015-04-27T14:02:33.0000000+00:00</time></trkpt><trkpt lat="34.9852298" lon="32.74801"><ele>1006.8</ele><time>2015-04-27T14:02:34.0000000+00:00</time></trkpt><trkpt lat="34.9852523" lon="32.7478914"><ele>1006.9</ele><time>2015-04-27T14:02:35.0000000+00:00</time></trkpt><trkpt lat="34.985269" lon="32.7477673"><ele>1006.9</ele><time>2015-04-27T14:02:36.0000000+00:00</time></trkpt><trkpt lat="34.9852629" lon="32.7476693"><ele>1005.9</ele><time>2015-04-27T14:02:37.0000000+00:00</time></trkpt><trkpt lat="34.9852712" lon="32.7475708"><ele>1004.9</ele><time>2015-04-27T14:02:38.0000000+00:00</time></trkpt><trkpt lat="34.9852877" lon="32.7474884"><ele>1003.9</ele><time>2015-04-27T14:02:39.0000000+00:00</time></trkpt><trkpt lat="34.9853065" lon="32.7473961"><ele>1003.4</ele><time>2015-04-27T14:02:40.0000000+00:00</time></trkpt><trkpt lat="34.9853066" lon="32.7473015"><ele>1003.2</ele><time>2015-04-27T14:02:41.0000000+00:00</time></trkpt><trkpt lat="34.9853046" lon="32.7472006"><ele>1003.1</ele><time>2015-04-27T14:02:42.0000000+00:00</time></trkpt><trkpt lat="34.9852767" lon="32.7471048"><ele>1002.5</ele><time>2015-04-27T14:02:43.0000000+00:00</time></trkpt><trkpt lat="34.9852427" lon="32.7470081"><ele>1001.7</ele><time>2015-04-27T14:02:44.0000000+00:00</time></trkpt><trkpt lat="34.9852129" lon="32.7469124"><ele>1000.8</ele><time>2015-04-27T14:02:45.0000000+00:00</time></trkpt><trkpt lat="34.9852082" lon="32.7468391"><ele>999.4</ele><time>2015-04-27T14:02:46.0000000+00:00</time></trkpt><trkpt lat="34.985234" lon="32.7467771"><ele>999.2</ele><time>2015-04-27T14:02:47.0000000+00:00</time></trkpt><trkpt lat="34.9853122" lon="32.7467412"><ele>998.5</ele><time>2015-04-27T14:02:49.0000000+00:00</time></trkpt><trkpt lat="34.9853734" lon="32.746741"><ele>997.7</ele><time>2015-04-27T14:02:50.0000000+00:00</time></trkpt><trkpt lat="34.9854363" lon="32.7467537"><ele>996.8</ele><time>2015-04-27T14:02:51.0000000+00:00</time></trkpt><trkpt lat="34.9855088" lon="32.7467867"><ele>997.4</ele><time>2015-04-27T14:02:52.0000000+00:00</time></trkpt><trkpt lat="34.9855712" lon="32.7468143"><ele>997.2</ele><time>2015-04-27T14:02:53.0000000+00:00</time></trkpt><trkpt lat="34.985642" lon="32.7468471"><ele>996.5</ele><time>2015-04-27T14:02:54.0000000+00:00</time></trkpt><trkpt lat="34.9857116" lon="32.7468828"><ele>995.7</ele><time>2015-04-27T14:02:55.0000000+00:00</time></trkpt><trkpt lat="34.9857702" lon="32.7469313"><ele>994.3</ele><time>2015-04-27T14:02:56.0000000+00:00</time></trkpt><trkpt lat="34.9858356" lon="32.7470001"><ele>994.1</ele><time>2015-04-27T14:02:57.0000000+00:00</time></trkpt><trkpt lat="34.9858705" lon="32.7470858"><ele>993.5</ele><time>2015-04-27T14:02:58.0000000+00:00</time></trkpt><trkpt lat="34.9859029" lon="32.7471853"><ele>993.2</ele><time>2015-04-27T14:02:59.0000000+00:00</time></trkpt><trkpt lat="34.9859058" lon="32.7472949"><ele>992.6</ele><time>2015-04-27T14:03:00.0000000+00:00</time></trkpt><trkpt lat="34.98592" lon="32.7474017"><ele>991.8</ele><time>2015-04-27T14:03:01.0000000+00:00</time></trkpt><trkpt lat="34.9859325" lon="32.7475232"><ele>991.3</ele><time>2015-04-27T14:03:02.0000000+00:00</time></trkpt><trkpt lat="34.9859393" lon="32.7476385"><ele>991.1</ele><time>2015-04-27T14:03:03.0000000+00:00</time></trkpt><trkpt lat="34.9859389" lon="32.7477604"><ele>990.5</ele><time>2015-04-27T14:03:04.0000000+00:00</time></trkpt><trkpt lat="34.9859462" lon="32.7478852"><ele>990.2</ele><time>2015-04-27T14:03:05.0000000+00:00</time></trkpt><trkpt lat="34.985978" lon="32.7480268"><ele>990.1</ele><time>2015-04-27T14:03:06.0000000+00:00</time></trkpt><trkpt lat="34.9859933" lon="32.7481558"><ele>990.0</ele><time>2015-04-27T14:03:07.0000000+00:00</time></trkpt><trkpt lat="34.9860223" lon="32.7482679"><ele>990.0</ele><time>2015-04-27T14:03:08.0000000+00:00</time></trkpt><trkpt lat="34.9860523" lon="32.7484193"><ele>989.9</ele><time>2015-04-27T14:03:09.0000000+00:00</time></trkpt><trkpt lat="34.9860621" lon="32.7485631"><ele>990.4</ele><time>2015-04-27T14:03:10.0000000+00:00</time></trkpt><trkpt lat="34.9860998" lon="32.7486593"><ele>990.7</ele><time>2015-04-27T14:03:11.0000000+00:00</time></trkpt><trkpt lat="34.9861297" lon="32.7487792"><ele>990.3</ele><time>2015-04-27T14:03:12.0000000+00:00</time></trkpt><trkpt lat="34.9861499" lon="32.7489131"><ele>990.1</ele><time>2015-04-27T14:03:13.0000000+00:00</time></trkpt><trkpt lat="34.9861798" lon="32.7490286"><ele>990.5</ele><time>2015-04-27T14:03:14.0000000+00:00</time></trkpt><trkpt lat="34.9862144" lon="32.7491572"><ele>990.7</ele><time>2015-04-27T14:03:15.0000000+00:00</time></trkpt><trkpt lat="34.9862389" lon="32.7492896"><ele>988.8</ele><time>2015-04-27T14:03:16.0000000+00:00</time></trkpt><trkpt lat="34.9862712" lon="32.7494119"><ele>987.9</ele><time>2015-04-27T14:03:17.0000000+00:00</time></trkpt><trkpt lat="34.9862936" lon="32.7495391"><ele>987.4</ele><time>2015-04-27T14:03:18.0000000+00:00</time></trkpt><trkpt lat="34.986318" lon="32.7496614"><ele>987.2</ele><time>2015-04-27T14:03:19.0000000+00:00</time></trkpt><trkpt lat="34.9863243" lon="32.7497868"><ele>987.0</ele><time>2015-04-27T14:03:20.0000000+00:00</time></trkpt><trkpt lat="34.9863267" lon="32.7499014"><ele>986.5</ele><time>2015-04-27T14:03:21.0000000+00:00</time></trkpt><trkpt lat="34.9863133" lon="32.7500014"><ele>985.7</ele><time>2015-04-27T14:03:22.0000000+00:00</time></trkpt><trkpt lat="34.9863097" lon="32.7500952"><ele>984.3</ele><time>2015-04-27T14:03:23.0000000+00:00</time></trkpt><trkpt lat="34.9862801" lon="32.7501756"><ele>983.6</ele><time>2015-04-27T14:03:24.0000000+00:00</time></trkpt><trkpt lat="34.9862534" lon="32.7502482"><ele>983.3</ele><time>2015-04-27T14:03:25.0000000+00:00</time></trkpt><trkpt lat="34.9862221" lon="32.750324"><ele>982.6</ele><time>2015-04-27T14:03:26.0000000+00:00</time></trkpt><trkpt lat="34.9862127" lon="32.7504048"><ele>980.3</ele><time>2015-04-27T14:03:27.0000000+00:00</time></trkpt><trkpt lat="34.9861831" lon="32.7504815"><ele>979.1</ele><time>2015-04-27T14:03:28.0000000+00:00</time></trkpt><trkpt lat="34.9861514" lon="32.7505604"><ele>978.5</ele><time>2015-04-27T14:03:29.0000000+00:00</time></trkpt><trkpt lat="34.9861098" lon="32.7506335"><ele>978.2</ele><time>2015-04-27T14:03:30.0000000+00:00</time></trkpt><trkpt lat="34.9860676" lon="32.7507029"><ele>978.1</ele><time>2015-04-27T14:03:31.0000000+00:00</time></trkpt><trkpt lat="34.9860197" lon="32.7507761"><ele>978.5</ele><time>2015-04-27T14:03:32.0000000+00:00</time></trkpt><trkpt lat="34.9859742" lon="32.7508456"><ele>978.2</ele><time>2015-04-27T14:03:33.0000000+00:00</time></trkpt><trkpt lat="34.9859317" lon="32.7509178"><ele>978.1</ele><time>2015-04-27T14:03:34.0000000+00:00</time></trkpt><trkpt lat="34.9858893" lon="32.7509863"><ele>978.0</ele><time>2015-04-27T14:03:35.0000000+00:00</time></trkpt><trkpt lat="34.9858518" lon="32.7510566"><ele>978.0</ele><time>2015-04-27T14:03:36.0000000+00:00</time></trkpt><trkpt lat="34.9858056" lon="32.7511195"><ele>977.9</ele><time>2015-04-27T14:03:37.0000000+00:00</time></trkpt><trkpt lat="34.9857634" lon="32.7511774"><ele>977.9</ele><time>2015-04-27T14:03:38.0000000+00:00</time></trkpt><trkpt lat="34.9857232" lon="32.7512329"><ele>977.9</ele><time>2015-04-27T14:03:39.0000000+00:00</time></trkpt><trkpt lat="34.9856868" lon="32.7512878"><ele>977.9</ele><time>2015-04-27T14:03:40.0000000+00:00</time></trkpt><trkpt lat="34.9856531" lon="32.7513344"><ele>977.9</ele><time>2015-04-27T14:03:41.0000000+00:00</time></trkpt><trkpt lat="34.9856208" lon="32.7513911"><ele>977.9</ele><time>2015-04-27T14:03:42.0000000+00:00</time></trkpt><trkpt lat="34.9855872" lon="32.7514474"><ele>977.9</ele><time>2015-04-27T14:03:43.0000000+00:00</time></trkpt><trkpt lat="34.9855564" lon="32.7515054"><ele>977.9</ele><time>2015-04-27T14:03:44.0000000+00:00</time></trkpt><trkpt lat="34.9855393" lon="32.7515658"><ele>977.9</ele><time>2015-04-27T14:03:45.0000000+00:00</time></trkpt><trkpt lat="34.9855141" lon="32.7516215"><ele>977.9</ele><time>2015-04-27T14:03:46.0000000+00:00</time></trkpt><trkpt lat="34.9854868" lon="32.7516726"><ele>977.9</ele><time>2015-04-27T14:03:47.0000000+00:00</time></trkpt><trkpt lat="34.9854707" lon="32.751742"><ele>977.4</ele><time>2015-04-27T14:03:48.0000000+00:00</time></trkpt><trkpt lat="34.9854477" lon="32.7518096"><ele>977.7</ele><time>2015-04-27T14:03:49.0000000+00:00</time></trkpt><trkpt lat="34.9854266" lon="32.751868"><ele>977.8</ele><time>2015-04-27T14:03:50.0000000+00:00</time></trkpt><trkpt lat="34.9854062" lon="32.7519271"><ele>978.4</ele><time>2015-04-27T14:03:51.0000000+00:00</time></trkpt><trkpt lat="34.9854024" lon="32.7519966"><ele>978.1</ele><time>2015-04-27T14:03:52.0000000+00:00</time></trkpt><trkpt lat="34.9853788" lon="32.7520672"><ele>978.0</ele><time>2015-04-27T14:03:53.0000000+00:00</time></trkpt><trkpt lat="34.9853499" lon="32.7521201"><ele>978.0</ele><time>2015-04-27T14:03:54.0000000+00:00</time></trkpt><trkpt lat="34.9853098" lon="32.7521787"><ele>978.5</ele><time>2015-04-27T14:03:55.0000000+00:00</time></trkpt><trkpt lat="34.9852849" lon="32.752281"><ele>976.1</ele><time>2015-04-27T14:03:57.0000000+00:00</time></trkpt><trkpt lat="34.9852244" lon="32.752353"><ele>976.0</ele><time>2015-04-27T14:03:59.0000000+00:00</time></trkpt><trkpt lat="34.9851738" lon="32.7523855"><ele>975.7</ele><time>2015-04-27T14:04:01.0000000+00:00</time></trkpt><trkpt lat="34.9851286" lon="32.752396"><ele>977.1</ele><time>2015-04-27T14:04:03.0000000+00:00</time></trkpt><trkpt lat="34.9850738" lon="32.7523968"><ele>977.7</ele><time>2015-04-27T14:04:05.0000000+00:00</time></trkpt><trkpt lat="34.985009" lon="32.752402"><ele>977.1</ele><time>2015-04-27T14:04:07.0000000+00:00</time></trkpt><trkpt lat="34.9849347" lon="32.752417"><ele>977.7</ele><time>2015-04-27T14:04:09.0000000+00:00</time></trkpt><trkpt lat="34.9848587" lon="32.7524217"><ele>977.9</ele><time>2015-04-27T14:04:11.0000000+00:00</time></trkpt><trkpt lat="34.9847824" lon="32.7524224"><ele>977.9</ele><time>2015-04-27T14:04:13.0000000+00:00</time></trkpt><trkpt lat="34.9847114" lon="32.7524236"><ele>977.9</ele><time>2015-04-27T14:04:15.0000000+00:00</time></trkpt><trkpt lat="34.9846538" lon="32.7524353"><ele>978.4</ele><time>2015-04-27T14:04:17.0000000+00:00</time></trkpt><trkpt lat="34.9846051" lon="32.7524434"><ele>979.3</ele><time>2015-04-27T14:04:19.0000000+00:00</time></trkpt><trkpt lat="34.9845476" lon="32.7524409"><ele>980.4</ele><time>2015-04-27T14:04:22.0000000+00:00</time></trkpt><trkpt lat="34.9844811" lon="32.7524556"><ele>980.0</ele><time>2015-04-27T14:04:25.0000000+00:00</time></trkpt><trkpt lat="34.9844284" lon="32.7524848"><ele>980.7</ele><time>2015-04-27T14:04:27.0000000+00:00</time></trkpt><trkpt lat="34.9843591" lon="32.752506"><ele>979.6</ele><time>2015-04-27T14:04:29.0000000+00:00</time></trkpt><trkpt lat="34.9842851" lon="32.7525246"><ele>978.4</ele><time>2015-04-27T14:04:31.0000000+00:00</time></trkpt><trkpt lat="34.9842022" lon="32.7525593"><ele>978.0</ele><time>2015-04-27T14:04:33.0000000+00:00</time></trkpt><trkpt lat="34.9841594" lon="32.7525802"><ele>978.5</ele><time>2015-04-27T14:04:34.0000000+00:00</time></trkpt><trkpt lat="34.9840754" lon="32.7526222"><ele>978.8</ele><time>2015-04-27T14:04:36.0000000+00:00</time></trkpt><trkpt lat="34.9840264" lon="32.7526524"><ele>978.4</ele><time>2015-04-27T14:04:37.0000000+00:00</time></trkpt><trkpt lat="34.9839471" lon="32.7526925"><ele>977.3</ele><time>2015-04-27T14:04:39.0000000+00:00</time></trkpt><trkpt lat="34.983878" lon="32.7527312"><ele>977.5</ele><time>2015-04-27T14:04:41.0000000+00:00</time></trkpt><trkpt lat="34.9838153" lon="32.7527671"><ele>978.6</ele><time>2015-04-27T14:04:43.0000000+00:00</time></trkpt><trkpt lat="34.9837522" lon="32.7527993"><ele>979.6</ele><time>2015-04-27T14:04:45.0000000+00:00</time></trkpt><trkpt lat="34.9836823" lon="32.7528318"><ele>980.6</ele><time>2015-04-27T14:04:47.0000000+00:00</time></trkpt><trkpt lat="34.9836116" lon="32.7528673"><ele>981.3</ele><time>2015-04-27T14:04:49.0000000+00:00</time></trkpt><trkpt lat="34.9835463" lon="32.7529019"><ele>981.0</ele><time>2015-04-27T14:04:51.0000000+00:00</time></trkpt><trkpt lat="34.9834773" lon="32.7529369"><ele>981.0</ele><time>2015-04-27T14:04:53.0000000+00:00</time></trkpt><trkpt lat="34.983395" lon="32.7529757"><ele>981.7</ele><time>2015-04-27T14:04:55.0000000+00:00</time></trkpt><trkpt lat="34.9833424" lon="32.752993"><ele>981.8</ele><time>2015-04-27T14:04:56.0000000+00:00</time></trkpt><trkpt lat="34.9832798" lon="32.7530245"><ele>982.4</ele><time>2015-04-27T14:04:58.0000000+00:00</time></trkpt><trkpt lat="34.9832077" lon="32.753058"><ele>982.0</ele><time>2015-04-27T14:05:00.0000000+00:00</time></trkpt><trkpt lat="34.9831401" lon="32.753099"><ele>982.0</ele><time>2015-04-27T14:05:02.0000000+00:00</time></trkpt><trkpt lat="34.9830621" lon="32.753141"><ele>981.9</ele><time>2015-04-27T14:05:04.0000000+00:00</time></trkpt><trkpt lat="34.9829936" lon="32.75316"><ele>981.9</ele><time>2015-04-27T14:05:06.0000000+00:00</time></trkpt><trkpt lat="34.9829296" lon="32.7531824"><ele>981.2</ele><time>2015-04-27T14:05:08.0000000+00:00</time></trkpt><trkpt lat="34.9828622" lon="32.753208"><ele>982.5</ele><time>2015-04-27T14:05:10.0000000+00:00</time></trkpt><trkpt lat="34.9827926" lon="32.7532371"><ele>982.1</ele><time>2015-04-27T14:05:12.0000000+00:00</time></trkpt><trkpt lat="34.9827494" lon="32.7532568"><ele>982.0</ele><time>2015-04-27T14:05:13.0000000+00:00</time></trkpt><trkpt lat="34.9827072" lon="32.7532769"><ele>982.0</ele><time>2015-04-27T14:05:14.0000000+00:00</time></trkpt><trkpt lat="34.9826358" lon="32.7533172"><ele>981.9</ele><time>2015-04-27T14:05:16.0000000+00:00</time></trkpt><trkpt lat="34.9825768" lon="32.7533562"><ele>982.4</ele><time>2015-04-27T14:05:18.0000000+00:00</time></trkpt><trkpt lat="34.9825236" lon="32.7533976"><ele>981.5</ele><time>2015-04-27T14:05:21.0000000+00:00</time></trkpt><trkpt lat="34.9824756" lon="32.7534639"><ele>982.1</ele><time>2015-04-27T14:05:23.0000000+00:00</time></trkpt><trkpt lat="34.982422" lon="32.7535168"><ele>983.2</ele><time>2015-04-27T14:05:25.0000000+00:00</time></trkpt><trkpt lat="34.9823617" lon="32.7535685"><ele>983.5</ele><time>2015-04-27T14:05:27.0000000+00:00</time></trkpt><trkpt lat="34.9823084" lon="32.7536146"><ele>983.1</ele><time>2015-04-27T14:05:29.0000000+00:00</time></trkpt><trkpt lat="34.9822669" lon="32.7536489"><ele>983.2</ele><time>2015-04-27T14:05:31.0000000+00:00</time></trkpt><trkpt lat="34.9822212" lon="32.7536817"><ele>983.7</ele><time>2015-04-27T14:05:34.0000000+00:00</time></trkpt><trkpt lat="34.9821731" lon="32.7537002"><ele>983.5</ele><time>2015-04-27T14:05:38.0000000+00:00</time></trkpt><trkpt lat="34.9821308" lon="32.75372"><ele>983.9</ele><time>2015-04-27T14:05:41.0000000+00:00</time></trkpt><trkpt lat="34.9820887" lon="32.7537412"><ele>984.7</ele><time>2015-04-27T14:05:43.0000000+00:00</time></trkpt><trkpt lat="34.9820416" lon="32.7537673"><ele>984.6</ele><time>2015-04-27T14:05:45.0000000+00:00</time></trkpt><trkpt lat="34.9819976" lon="32.7537955"><ele>984.4</ele><time>2015-04-27T14:05:47.0000000+00:00</time></trkpt><trkpt lat="34.9819562" lon="32.7538255"><ele>983.5</ele><time>2015-04-27T14:05:49.0000000+00:00</time></trkpt><trkpt lat="34.9819134" lon="32.7538554"><ele>983.8</ele><time>2015-04-27T14:05:51.0000000+00:00</time></trkpt><trkpt lat="34.981872" lon="32.7538879"><ele>983.9</ele><time>2015-04-27T14:05:53.0000000+00:00</time></trkpt><trkpt lat="34.9818328" lon="32.7539225"><ele>983.9</ele><time>2015-04-27T14:05:55.0000000+00:00</time></trkpt><trkpt lat="34.9817952" lon="32.7539593"><ele>984.4</ele><time>2015-04-27T14:05:57.0000000+00:00</time></trkpt><trkpt lat="34.9817578" lon="32.7539949"><ele>985.3</ele><time>2015-04-27T14:05:59.0000000+00:00</time></trkpt><trkpt lat="34.9817199" lon="32.754029"><ele>985.5</ele><time>2015-04-27T14:06:01.0000000+00:00</time></trkpt><trkpt lat="34.9816816" lon="32.7540638"><ele>986.6</ele><time>2015-04-27T14:06:03.0000000+00:00</time></trkpt><trkpt lat="34.9816406" lon="32.7540943"><ele>986.6</ele><time>2015-04-27T14:06:05.0000000+00:00</time></trkpt><trkpt lat="34.9816045" lon="32.7541295"><ele>986.8</ele><time>2015-04-27T14:06:07.0000000+00:00</time></trkpt><trkpt lat="34.9815691" lon="32.7541683"><ele>987.7</ele><time>2015-04-27T14:06:09.0000000+00:00</time></trkpt><trkpt lat="34.981533" lon="32.7542054"><ele>987.9</ele><time>2015-04-27T14:06:11.0000000+00:00</time></trkpt><trkpt lat="34.9814966" lon="32.7542404"><ele>988.7</ele><time>2015-04-27T14:06:13.0000000+00:00</time></trkpt><trkpt lat="34.9814587" lon="32.754272"><ele>989.4</ele><time>2015-04-27T14:06:15.0000000+00:00</time></trkpt><trkpt lat="34.9814202" lon="32.754304"><ele>989.8</ele><time>2015-04-27T14:06:17.0000000+00:00</time></trkpt><trkpt lat="34.9813832" lon="32.7543372"><ele>989.9</ele><time>2015-04-27T14:06:19.0000000+00:00</time></trkpt><trkpt lat="34.9813446" lon="32.7543658"><ele>989.9</ele><time>2015-04-27T14:06:21.0000000+00:00</time></trkpt><trkpt lat="34.9812913" lon="32.7544154"><ele>991.6</ele><time>2015-04-27T14:06:24.0000000+00:00</time></trkpt><trkpt lat="34.9812387" lon="32.7544608"><ele>991.3</ele><time>2015-04-27T14:06:27.0000000+00:00</time></trkpt><trkpt lat="34.9811777" lon="32.7544893"><ele>991.5</ele><time>2015-04-27T14:06:30.0000000+00:00</time></trkpt><trkpt lat="34.9811193" lon="32.7545159"><ele>991.0</ele><time>2015-04-27T14:06:33.0000000+00:00</time></trkpt><trkpt lat="34.9810619" lon="32.7545521"><ele>990.9</ele><time>2015-04-27T14:06:36.0000000+00:00</time></trkpt><trkpt lat="34.981003" lon="32.7545724"><ele>990.9</ele><time>2015-04-27T14:06:39.0000000+00:00</time></trkpt><trkpt lat="34.980944" lon="32.7545761"><ele>991.4</ele><time>2015-04-27T14:06:42.0000000+00:00</time></trkpt><trkpt lat="34.9808944" lon="32.7546123"><ele>991.9</ele><time>2015-04-27T14:06:46.0000000+00:00</time></trkpt><trkpt lat="34.9808643" lon="32.7546644"><ele>991.9</ele><time>2015-04-27T14:06:49.0000000+00:00</time></trkpt><trkpt lat="34.9808318" lon="32.7547253"><ele>991.9</ele><time>2015-04-27T14:06:52.0000000+00:00</time></trkpt><trkpt lat="34.9808059" lon="32.754796"><ele>992.4</ele><time>2015-04-27T14:06:55.0000000+00:00</time></trkpt><trkpt lat="34.980775" lon="32.7548732"><ele>993.4</ele><time>2015-04-27T14:06:58.0000000+00:00</time></trkpt><trkpt lat="34.9807557" lon="32.7549283"><ele>993.8</ele><time>2015-04-27T14:07:00.0000000+00:00</time></trkpt><trkpt lat="34.9807378" lon="32.7549832"><ele>993.9</ele><time>2015-04-27T14:07:02.0000000+00:00</time></trkpt><trkpt lat="34.9807093" lon="32.755031"><ele>993.9</ele><time>2015-04-27T14:07:04.0000000+00:00</time></trkpt><trkpt lat="34.98069" lon="32.7550813"><ele>993.9</ele><time>2015-04-27T14:07:06.0000000+00:00</time></trkpt><trkpt lat="34.9806837" lon="32.7551549"><ele>993.9</ele><time>2015-04-27T14:07:09.0000000+00:00</time></trkpt><trkpt lat="34.9806572" lon="32.7552174"><ele>993.6</ele><time>2015-04-27T14:07:12.0000000+00:00</time></trkpt><trkpt lat="34.9806576" lon="32.7552851"><ele>993.0</ele><time>2015-04-27T14:07:15.0000000+00:00</time></trkpt><trkpt lat="34.9806676" lon="32.7553578"><ele>992.4</ele><time>2015-04-27T14:07:18.0000000+00:00</time></trkpt><trkpt lat="34.9806841" lon="32.7554094"><ele>992.8</ele><time>2015-04-27T14:07:20.0000000+00:00</time></trkpt><trkpt lat="34.9806937" lon="32.7554851"><ele>994.2</ele><time>2015-04-27T14:07:23.0000000+00:00</time></trkpt><trkpt lat="34.9807128" lon="32.7555601"><ele>993.3</ele><time>2015-04-27T14:07:26.0000000+00:00</time></trkpt><trkpt lat="34.9807118" lon="32.7556363"><ele>994.5</ele><time>2015-04-27T14:07:29.0000000+00:00</time></trkpt><trkpt lat="34.9807328" lon="32.7557146"><ele>995.2</ele><time>2015-04-27T14:07:32.0000000+00:00</time></trkpt><trkpt lat="34.9807401" lon="32.7557915"><ele>994.3</ele><time>2015-04-27T14:07:35.0000000+00:00</time></trkpt><trkpt lat="34.9807293" lon="32.7558685"><ele>994.4</ele><time>2015-04-27T14:07:38.0000000+00:00</time></trkpt><trkpt lat="34.9807088" lon="32.7559431"><ele>995.1</ele><time>2015-04-27T14:07:41.0000000+00:00</time></trkpt><trkpt lat="34.9807067" lon="32.7559994"><ele>994.2</ele><time>2015-04-27T14:07:43.0000000+00:00</time></trkpt><trkpt lat="34.9807" lon="32.7560552"><ele>994.0</ele><time>2015-04-27T14:07:45.0000000+00:00</time></trkpt><trkpt lat="34.9806886" lon="32.7561094"><ele>993.2</ele><time>2015-04-27T14:07:47.0000000+00:00</time></trkpt><trkpt lat="34.9806779" lon="32.7561638"><ele>993.0</ele><time>2015-04-27T14:07:49.0000000+00:00</time></trkpt><trkpt lat="34.9806536" lon="32.7562402"><ele>991.6</ele><time>2015-04-27T14:07:52.0000000+00:00</time></trkpt><trkpt lat="34.9806308" lon="32.7562888"><ele>991.1</ele><time>2015-04-27T14:07:54.0000000+00:00</time></trkpt><trkpt lat="34.9806163" lon="32.7563413"><ele>990.0</ele><time>2015-04-27T14:07:56.0000000+00:00</time></trkpt><trkpt lat="34.9806169" lon="32.7564008"><ele>990.7</ele><time>2015-04-27T14:07:58.0000000+00:00</time></trkpt><trkpt lat="34.9806139" lon="32.7564579"><ele>991.6</ele><time>2015-04-27T14:08:00.0000000+00:00</time></trkpt><trkpt lat="34.9805997" lon="32.7565108"><ele>991.9</ele><time>2015-04-27T14:08:02.0000000+00:00</time></trkpt><trkpt lat="34.9805889" lon="32.7565658"><ele>992.7</ele><time>2015-04-27T14:08:04.0000000+00:00</time></trkpt><trkpt lat="34.9805731" lon="32.7566177"><ele>992.9</ele><time>2015-04-27T14:08:06.0000000+00:00</time></trkpt><trkpt lat="34.9805632" lon="32.7566966"><ele>993.3</ele><time>2015-04-27T14:08:09.0000000+00:00</time></trkpt><trkpt lat="34.980556" lon="32.7567758"><ele>992.1</ele><time>2015-04-27T14:08:12.0000000+00:00</time></trkpt><trkpt lat="34.9805426" lon="32.7568511"><ele>993.2</ele><time>2015-04-27T14:08:15.0000000+00:00</time></trkpt><trkpt lat="34.9805246" lon="32.7569261"><ele>993.8</ele><time>2015-04-27T14:08:18.0000000+00:00</time></trkpt><trkpt lat="34.9805061" lon="32.7569855"><ele>993.9</ele><time>2015-04-27T14:08:21.0000000+00:00</time></trkpt><trkpt lat="34.9804956" lon="32.7570401"><ele>993.9</ele><time>2015-04-27T14:08:25.0000000+00:00</time></trkpt><trkpt lat="34.9804666" lon="32.7570979"><ele>995.1</ele><time>2015-04-27T14:08:29.0000000+00:00</time></trkpt><trkpt lat="34.9804364" lon="32.7571625"><ele>995.5</ele><time>2015-04-27T14:08:31.0000000+00:00</time></trkpt><trkpt lat="34.9804087" lon="32.7572269"><ele>995.3</ele><time>2015-04-27T14:08:33.0000000+00:00</time></trkpt><trkpt lat="34.9803888" lon="32.7572852"><ele>995.0</ele><time>2015-04-27T14:08:35.0000000+00:00</time></trkpt><trkpt lat="34.9803645" lon="32.7573437"><ele>995.8</ele><time>2015-04-27T14:08:38.0000000+00:00</time></trkpt><trkpt lat="34.9803415" lon="32.757408"><ele>995.9</ele><time>2015-04-27T14:08:41.0000000+00:00</time></trkpt><trkpt lat="34.9803281" lon="32.7574826"><ele>995.1</ele><time>2015-04-27T14:08:44.0000000+00:00</time></trkpt><trkpt lat="34.9803136" lon="32.7575537"><ele>994.9</ele><time>2015-04-27T14:08:47.0000000+00:00</time></trkpt><trkpt lat="34.980305" lon="32.7576355"><ele>997.7</ele><time>2015-04-27T14:08:50.0000000+00:00</time></trkpt><trkpt lat="34.9803038" lon="32.7576993"><ele>998.4</ele><time>2015-04-27T14:08:52.0000000+00:00</time></trkpt><trkpt lat="34.9803004" lon="32.7577609"><ele>998.5</ele><time>2015-04-27T14:08:54.0000000+00:00</time></trkpt><trkpt lat="34.9803018" lon="32.757822"><ele>1000.1</ele><time>2015-04-27T14:08:56.0000000+00:00</time></trkpt><trkpt lat="34.980307" lon="32.7578848"><ele>1001.5</ele><time>2015-04-27T14:08:58.0000000+00:00</time></trkpt><trkpt lat="34.9803137" lon="32.7579538"><ele>1002.2</ele><time>2015-04-27T14:09:00.0000000+00:00</time></trkpt><trkpt lat="34.980319" lon="32.7580185"><ele>1001.4</ele><time>2015-04-27T14:09:02.0000000+00:00</time></trkpt><trkpt lat="34.9803059" lon="32.7580774"><ele>1000.4</ele><time>2015-04-27T14:09:04.0000000+00:00</time></trkpt><trkpt lat="34.9802999" lon="32.7581395"><ele>999.9</ele><time>2015-04-27T14:09:06.0000000+00:00</time></trkpt><trkpt lat="34.9802979" lon="32.758198"><ele>1000.6</ele><time>2015-04-27T14:09:08.0000000+00:00</time></trkpt><trkpt lat="34.9802897" lon="32.7582553"><ele>1001.2</ele><time>2015-04-27T14:09:11.0000000+00:00</time></trkpt><trkpt lat="34.9802671" lon="32.7583383"><ele>1004.1</ele><time>2015-04-27T14:09:14.0000000+00:00</time></trkpt><trkpt lat="34.9802551" lon="32.7584033"><ele>1003.1</ele><time>2015-04-27T14:09:16.0000000+00:00</time></trkpt><trkpt lat="34.9802513" lon="32.7584811"><ele>1001.9</ele><time>2015-04-27T14:09:19.0000000+00:00</time></trkpt><trkpt lat="34.9802472" lon="32.7585541"><ele>1001.2</ele><time>2015-04-27T14:09:22.0000000+00:00</time></trkpt><trkpt lat="34.9802277" lon="32.7586266"><ele>1000.9</ele><time>2015-04-27T14:09:25.0000000+00:00</time></trkpt><trkpt lat="34.9802193" lon="32.7586821"><ele>1000.8</ele><time>2015-04-27T14:09:27.0000000+00:00</time></trkpt><trkpt lat="34.9802085" lon="32.7587557"><ele>1002.0</ele><time>2015-04-27T14:09:30.0000000+00:00</time></trkpt><trkpt lat="34.9801972" lon="32.7588192"><ele>1001.5</ele><time>2015-04-27T14:09:34.0000000+00:00</time></trkpt><trkpt lat="34.9801811" lon="32.7588868"><ele>1000.9</ele><time>2015-04-27T14:09:37.0000000+00:00</time></trkpt><trkpt lat="34.9801759" lon="32.758953"><ele>999.1</ele><time>2015-04-27T14:09:42.0000000+00:00</time></trkpt><trkpt lat="34.9801692" lon="32.7590257"><ele>998.1</ele><time>2015-04-27T14:09:45.0000000+00:00</time></trkpt><trkpt lat="34.9801769" lon="32.7590953"><ele>998.3</ele><time>2015-04-27T14:09:47.0000000+00:00</time></trkpt><trkpt lat="34.9801936" lon="32.7591572"><ele>999.4</ele><time>2015-04-27T14:09:49.0000000+00:00</time></trkpt><trkpt lat="34.9802086" lon="32.7592137"><ele>999.7</ele><time>2015-04-27T14:09:52.0000000+00:00</time></trkpt><trkpt lat="34.9802228" lon="32.7592818"><ele>1000.4</ele><time>2015-04-27T14:09:55.0000000+00:00</time></trkpt><trkpt lat="34.9802354" lon="32.7593615"><ele>999.7</ele><time>2015-04-27T14:09:58.0000000+00:00</time></trkpt><trkpt lat="34.9802528" lon="32.7594295"><ele>998.6</ele><time>2015-04-27T14:10:01.0000000+00:00</time></trkpt><trkpt lat="34.980275" lon="32.7594933"><ele>999.4</ele><time>2015-04-27T14:10:05.0000000+00:00</time></trkpt><trkpt lat="34.9803138" lon="32.7595608"><ele>1000.0</ele><time>2015-04-27T14:10:08.0000000+00:00</time></trkpt><trkpt lat="34.9803501" lon="32.7596271"><ele>999.8</ele><time>2015-04-27T14:10:11.0000000+00:00</time></trkpt><trkpt lat="34.9803772" lon="32.7596724"><ele>1000.5</ele><time>2015-04-27T14:10:13.0000000+00:00</time></trkpt><trkpt lat="34.980407" lon="32.7597172"><ele>1000.7</ele><time>2015-04-27T14:10:15.0000000+00:00</time></trkpt><trkpt lat="34.9804357" lon="32.7597631"><ele>1001.5</ele><time>2015-04-27T14:10:18.0000000+00:00</time></trkpt><trkpt lat="34.9804801" lon="32.7598231"><ele>1001.7</ele><time>2015-04-27T14:10:22.0000000+00:00</time></trkpt><trkpt lat="34.9805187" lon="32.7598618"><ele>1003.0</ele><time>2015-04-27T14:10:24.0000000+00:00</time></trkpt><trkpt lat="34.9805698" lon="32.7598956"><ele>1003.3</ele><time>2015-04-27T14:10:27.0000000+00:00</time></trkpt><trkpt lat="34.9806235" lon="32.7599305"><ele>1004.5</ele><time>2015-04-27T14:10:30.0000000+00:00</time></trkpt><trkpt lat="34.9806783" lon="32.7599619"><ele>1005.2</ele><time>2015-04-27T14:10:33.0000000+00:00</time></trkpt><trkpt lat="34.9807275" lon="32.7599869"><ele>1005.6</ele><time>2015-04-27T14:10:36.0000000+00:00</time></trkpt><trkpt lat="34.9807749" lon="32.7600206"><ele>1006.2</ele><time>2015-04-27T14:10:39.0000000+00:00</time></trkpt><trkpt lat="34.9808253" lon="32.7600576"><ele>1005.9</ele><time>2015-04-27T14:10:42.0000000+00:00</time></trkpt><trkpt lat="34.9808908" lon="32.7600994"><ele>1004.9</ele><time>2015-04-27T14:10:45.0000000+00:00</time></trkpt><trkpt lat="34.9809459" lon="32.7601355"><ele>1005.3</ele><time>2015-04-27T14:10:47.0000000+00:00</time></trkpt><trkpt lat="34.9809927" lon="32.7601818"><ele>1004.9</ele><time>2015-04-27T14:10:49.0000000+00:00</time></trkpt><trkpt lat="34.9810376" lon="32.7602249"><ele>1004.8</ele><time>2015-04-27T14:10:51.0000000+00:00</time></trkpt><trkpt lat="34.9810791" lon="32.7602602"><ele>1004.9</ele><time>2015-04-27T14:10:54.0000000+00:00</time></trkpt><trkpt lat="34.9811094" lon="32.7603142"><ele>1004.0</ele><time>2015-04-27T14:10:58.0000000+00:00</time></trkpt><trkpt lat="34.981145" lon="32.7603504"><ele>1004.7</ele><time>2015-04-27T14:11:01.0000000+00:00</time></trkpt><trkpt lat="34.9811736" lon="32.7604075"><ele>1004.8</ele><time>2015-04-27T14:11:05.0000000+00:00</time></trkpt><trkpt lat="34.981198" lon="32.760454"><ele>1003.8</ele><time>2015-04-27T14:11:08.0000000+00:00</time></trkpt><trkpt lat="34.9812315" lon="32.7605287"><ele>1003.8</ele><time>2015-04-27T14:11:11.0000000+00:00</time></trkpt><trkpt lat="34.9812619" lon="32.7605842"><ele>1003.8</ele><time>2015-04-27T14:11:13.0000000+00:00</time></trkpt><trkpt lat="34.9813027" lon="32.7606456"><ele>1004.5</ele><time>2015-04-27T14:11:15.0000000+00:00</time></trkpt><trkpt lat="34.9813347" lon="32.7607005"><ele>1005.5</ele><time>2015-04-27T14:11:17.0000000+00:00</time></trkpt><trkpt lat="34.9813516" lon="32.7607651"><ele>1006.6</ele><time>2015-04-27T14:11:20.0000000+00:00</time></trkpt><trkpt lat="34.9813669" lon="32.76082"><ele>1007.5</ele><time>2015-04-27T14:11:23.0000000+00:00</time></trkpt><trkpt lat="34.9813767" lon="32.7608897"><ele>1008.1</ele><time>2015-04-27T14:11:26.0000000+00:00</time></trkpt><trkpt lat="34.9813989" lon="32.7609645"><ele>1008.6</ele><time>2015-04-27T14:11:28.0000000+00:00</time></trkpt><trkpt lat="34.981425" lon="32.7610364"><ele>1009.0</ele><time>2015-04-27T14:11:30.0000000+00:00</time></trkpt><trkpt lat="34.9814506" lon="32.7611043"><ele>1009.6</ele><time>2015-04-27T14:11:32.0000000+00:00</time></trkpt><trkpt lat="34.9814736" lon="32.7611694"><ele>1009.2</ele><time>2015-04-27T14:11:34.0000000+00:00</time></trkpt><trkpt lat="34.9815064" lon="32.7612302"><ele>1009.4</ele><time>2015-04-27T14:11:36.0000000+00:00</time></trkpt><trkpt lat="34.9815447" lon="32.7612896"><ele>1008.4</ele><time>2015-04-27T14:11:38.0000000+00:00</time></trkpt><trkpt lat="34.9815928" lon="32.7613322"><ele>1007.9</ele><time>2015-04-27T14:11:40.0000000+00:00</time></trkpt><trkpt lat="34.9816348" lon="32.7613656"><ele>1006.1</ele><time>2015-04-27T14:11:42.0000000+00:00</time></trkpt><trkpt lat="34.9816713" lon="32.7614045"><ele>1005.1</ele><time>2015-04-27T14:11:45.0000000+00:00</time></trkpt><trkpt lat="34.9817142" lon="32.7614697"><ele>1005.7</ele><time>2015-04-27T14:11:48.0000000+00:00</time></trkpt><trkpt lat="34.9817409" lon="32.7615176"><ele>1007.0</ele><time>2015-04-27T14:11:50.0000000+00:00</time></trkpt><trkpt lat="34.9817657" lon="32.7615648"><ele>1006.8</ele><time>2015-04-27T14:11:52.0000000+00:00</time></trkpt><trkpt lat="34.9817894" lon="32.7616224"><ele>1007.3</ele><time>2015-04-27T14:11:54.0000000+00:00</time></trkpt><trkpt lat="34.9818195" lon="32.7617075"><ele>1006.9</ele><time>2015-04-27T14:11:56.0000000+00:00</time></trkpt><trkpt lat="34.9818445" lon="32.761794"><ele>1007.0</ele><time>2015-04-27T14:11:58.0000000+00:00</time></trkpt><trkpt lat="34.9818662" lon="32.7618803"><ele>1006.8</ele><time>2015-04-27T14:12:00.0000000+00:00</time></trkpt><trkpt lat="34.9818936" lon="32.7619684"><ele>1006.0</ele><time>2015-04-27T14:12:02.0000000+00:00</time></trkpt><trkpt lat="34.9819371" lon="32.7620609"><ele>1005.8</ele><time>2015-04-27T14:12:04.0000000+00:00</time></trkpt><trkpt lat="34.9819894" lon="32.7621456"><ele>1006.5</ele><time>2015-04-27T14:12:06.0000000+00:00</time></trkpt><trkpt lat="34.9820438" lon="32.7622231"><ele>1006.7</ele><time>2015-04-27T14:12:08.0000000+00:00</time></trkpt><trkpt lat="34.9820962" lon="32.7622894"><ele>1007.5</ele><time>2015-04-27T14:12:10.0000000+00:00</time></trkpt><trkpt lat="34.9821446" lon="32.7623497"><ele>1008.9</ele><time>2015-04-27T14:12:12.0000000+00:00</time></trkpt><trkpt lat="34.9821862" lon="32.762411"><ele>1010.1</ele><time>2015-04-27T14:12:14.0000000+00:00</time></trkpt><trkpt lat="34.9822125" lon="32.7624695"><ele>1010.6</ele><time>2015-04-27T14:12:16.0000000+00:00</time></trkpt><trkpt lat="34.9822361" lon="32.7625287"><ele>1012.1</ele><time>2015-04-27T14:12:19.0000000+00:00</time></trkpt><trkpt lat="34.9822476" lon="32.7625834"><ele>1013.4</ele><time>2015-04-27T14:12:22.0000000+00:00</time></trkpt><trkpt lat="34.9822182" lon="32.7626461"><ele>1013.4</ele><time>2015-04-27T14:12:26.0000000+00:00</time></trkpt><trkpt lat="34.9821881" lon="32.7626925"><ele>1013.6</ele><time>2015-04-27T14:12:29.0000000+00:00</time></trkpt><trkpt lat="34.9821378" lon="32.762723"><ele>1013.4</ele><time>2015-04-27T14:12:32.0000000+00:00</time></trkpt><trkpt lat="34.9820919" lon="32.76272"><ele>1013.8</ele><time>2015-04-27T14:14:20.0000000+00:00</time></trkpt><trkpt lat="34.9820302" lon="32.7626986"><ele>1013.8</ele><time>2015-04-27T14:14:49.0000000+00:00</time></trkpt><trkpt lat="34.9819742" lon="32.7626941"><ele>1013.3</ele><time>2015-04-27T14:14:51.0000000+00:00</time></trkpt><trkpt lat="34.9819021" lon="32.7626825"><ele>1013.6</ele><time>2015-04-27T14:14:53.0000000+00:00</time></trkpt><trkpt lat="34.9818576" lon="32.7626733"><ele>1013.2</ele><time>2015-04-27T14:14:54.0000000+00:00</time></trkpt><trkpt lat="34.9818118" lon="32.7626647"><ele>1012.5</ele><time>2015-04-27T14:14:55.0000000+00:00</time></trkpt><trkpt lat="34.9817602" lon="32.7626583"><ele>1012.1</ele><time>2015-04-27T14:14:56.0000000+00:00</time></trkpt><trkpt lat="34.9817039" lon="32.7626554"><ele>1011.4</ele><time>2015-04-27T14:14:57.0000000+00:00</time></trkpt><trkpt lat="34.9816468" lon="32.7626584"><ele>1011.1</ele><time>2015-04-27T14:14:58.0000000+00:00</time></trkpt><trkpt lat="34.9815879" lon="32.7626748"><ele>1010.9</ele><time>2015-04-27T14:14:59.0000000+00:00</time></trkpt><trkpt lat="34.9815258" lon="32.7626956"><ele>1010.8</ele><time>2015-04-27T14:15:00.0000000+00:00</time></trkpt><trkpt lat="34.981464" lon="32.7627175"><ele>1010.8</ele><time>2015-04-27T14:15:01.0000000+00:00</time></trkpt><trkpt lat="34.9813957" lon="32.7627345"><ele>1010.3</ele><time>2015-04-27T14:15:02.0000000+00:00</time></trkpt><trkpt lat="34.9813312" lon="32.7627466"><ele>1010.0</ele><time>2015-04-27T14:15:03.0000000+00:00</time></trkpt><trkpt lat="34.981261" lon="32.7627568"><ele>1009.4</ele><time>2015-04-27T14:15:04.0000000+00:00</time></trkpt><trkpt lat="34.9811976" lon="32.7627438"><ele>1009.6</ele><time>2015-04-27T14:15:05.0000000+00:00</time></trkpt><trkpt lat="34.9811285" lon="32.7627086"><ele>1009.2</ele><time>2015-04-27T14:15:06.0000000+00:00</time></trkpt><trkpt lat="34.9810731" lon="32.7626485"><ele>1009.0</ele><time>2015-04-27T14:15:07.0000000+00:00</time></trkpt><trkpt lat="34.9810284" lon="32.7625741"><ele>1008.9</ele><time>2015-04-27T14:15:08.0000000+00:00</time></trkpt><trkpt lat="34.9809906" lon="32.7624902"><ele>1008.3</ele><time>2015-04-27T14:15:09.0000000+00:00</time></trkpt><trkpt lat="34.9809609" lon="32.7623982"><ele>1008.0</ele><time>2015-04-27T14:15:10.0000000+00:00</time></trkpt><trkpt lat="34.9809368" lon="32.7623073"><ele>1007.9</ele><time>2015-04-27T14:15:11.0000000+00:00</time></trkpt><trkpt lat="34.9809169" lon="32.7622062"><ele>1007.3</ele><time>2015-04-27T14:15:12.0000000+00:00</time></trkpt><trkpt lat="34.9808988" lon="32.7621093"><ele>1007.0</ele><time>2015-04-27T14:15:13.0000000+00:00</time></trkpt><trkpt lat="34.9808624" lon="32.7620109"><ele>1006.4</ele><time>2015-04-27T14:15:14.0000000+00:00</time></trkpt><trkpt lat="34.9808219" lon="32.7619107"><ele>1006.1</ele><time>2015-04-27T14:15:15.0000000+00:00</time></trkpt><trkpt lat="34.9807716" lon="32.7618215"><ele>1005.9</ele><time>2015-04-27T14:15:16.0000000+00:00</time></trkpt><trkpt lat="34.9807256" lon="32.7617358"><ele>1005.3</ele><time>2015-04-27T14:15:17.0000000+00:00</time></trkpt><trkpt lat="34.9806765" lon="32.7616404"><ele>1004.1</ele><time>2015-04-27T14:15:18.0000000+00:00</time></trkpt><trkpt lat="34.9806241" lon="32.7615637"><ele>1003.4</ele><time>2015-04-27T14:15:19.0000000+00:00</time></trkpt><trkpt lat="34.9805556" lon="32.7614818"><ele>1003.1</ele><time>2015-04-27T14:15:20.0000000+00:00</time></trkpt><trkpt lat="34.9804813" lon="32.7614164"><ele>1002.4</ele><time>2015-04-27T14:15:21.0000000+00:00</time></trkpt><trkpt lat="34.9804171" lon="32.7613532"><ele>1002.1</ele><time>2015-04-27T14:15:22.0000000+00:00</time></trkpt><trkpt lat="34.9803292" lon="32.7613294"><ele>1001.9</ele><time>2015-04-27T14:15:23.0000000+00:00</time></trkpt><trkpt lat="34.9802375" lon="32.7613157"><ele>1001.3</ele><time>2015-04-27T14:15:24.0000000+00:00</time></trkpt><trkpt lat="34.9801366" lon="32.7613237"><ele>1001.1</ele><time>2015-04-27T14:15:25.0000000+00:00</time></trkpt><trkpt lat="34.9800389" lon="32.7613429"><ele>1000.9</ele><time>2015-04-27T14:15:26.0000000+00:00</time></trkpt><trkpt lat="34.97995" lon="32.7613861"><ele>1000.3</ele><time>2015-04-27T14:15:27.0000000+00:00</time></trkpt><trkpt lat="34.9798774" lon="32.761462"><ele>1000.1</ele><time>2015-04-27T14:15:28.0000000+00:00</time></trkpt><trkpt lat="34.9798113" lon="32.761545"><ele>999.9</ele><time>2015-04-27T14:15:29.0000000+00:00</time></trkpt><trkpt lat="34.9797624" lon="32.7616459"><ele>999.8</ele><time>2015-04-27T14:15:30.0000000+00:00</time></trkpt><trkpt lat="34.9797112" lon="32.7617429"><ele>999.8</ele><time>2015-04-27T14:15:31.0000000+00:00</time></trkpt><trkpt lat="34.9796605" lon="32.7618376"><ele>999.8</ele><time>2015-04-27T14:15:32.0000000+00:00</time></trkpt><trkpt lat="34.9796062" lon="32.7619394"><ele>999.8</ele><time>2015-04-27T14:15:33.0000000+00:00</time></trkpt><trkpt lat="34.9795511" lon="32.7620442"><ele>1000.3</ele><time>2015-04-27T14:15:34.0000000+00:00</time></trkpt><trkpt lat="34.9795009" lon="32.7621492"><ele>999.5</ele><time>2015-04-27T14:15:35.0000000+00:00</time></trkpt><trkpt lat="34.9794544" lon="32.7622553"><ele>999.1</ele><time>2015-04-27T14:15:36.0000000+00:00</time></trkpt><trkpt lat="34.9794098" lon="32.7623567"><ele>998.5</ele><time>2015-04-27T14:15:37.0000000+00:00</time></trkpt><trkpt lat="34.9793563" lon="32.762449"><ele>997.6</ele><time>2015-04-27T14:15:38.0000000+00:00</time></trkpt><trkpt lat="34.9793039" lon="32.7625313"><ele>997.2</ele><time>2015-04-27T14:15:39.0000000+00:00</time></trkpt><trkpt lat="34.9792358" lon="32.762613"><ele>997.0</ele><time>2015-04-27T14:15:40.0000000+00:00</time></trkpt><trkpt lat="34.9791393" lon="32.7626502"><ele>996.9</ele><time>2015-04-27T14:15:41.0000000+00:00</time></trkpt><trkpt lat="34.9790365" lon="32.7626626"><ele>996.3</ele><time>2015-04-27T14:15:42.0000000+00:00</time></trkpt><trkpt lat="34.9789445" lon="32.7627053"><ele>995.5</ele><time>2015-04-27T14:15:43.0000000+00:00</time></trkpt><trkpt lat="34.9788478" lon="32.7627363"><ele>995.2</ele><time>2015-04-27T14:15:44.0000000+00:00</time></trkpt><trkpt lat="34.978764" lon="32.7627963"><ele>995.0</ele><time>2015-04-27T14:15:45.0000000+00:00</time></trkpt><trkpt lat="34.9786773" lon="32.7628554"><ele>993.9</ele><time>2015-04-27T14:15:46.0000000+00:00</time></trkpt><trkpt lat="34.9786087" lon="32.7629394"><ele>993.8</ele><time>2015-04-27T14:15:47.0000000+00:00</time></trkpt><trkpt lat="34.9785493" lon="32.7630299"><ele>993.8</ele><time>2015-04-27T14:15:48.0000000+00:00</time></trkpt><trkpt lat="34.9785676" lon="32.7631285"><ele>993.3</ele><time>2015-04-27T14:15:49.0000000+00:00</time></trkpt><trkpt lat="34.9786228" lon="32.7632135"><ele>993.0</ele><time>2015-04-27T14:15:50.0000000+00:00</time></trkpt><trkpt lat="34.9786471" lon="32.7632979"><ele>992.9</ele><time>2015-04-27T14:15:51.0000000+00:00</time></trkpt><trkpt lat="34.9787004" lon="32.7633625"><ele>992.3</ele><time>2015-04-27T14:15:52.0000000+00:00</time></trkpt><trkpt lat="34.9787954" lon="32.7634269"><ele>991.5</ele><time>2015-04-27T14:15:53.0000000+00:00</time></trkpt><trkpt lat="34.9788417" lon="32.7635345"><ele>991.7</ele><time>2015-04-27T14:15:54.0000000+00:00</time></trkpt><trkpt lat="34.9789295" lon="32.7636008"><ele>991.7</ele><time>2015-04-27T14:15:55.0000000+00:00</time></trkpt><trkpt lat="34.9790252" lon="32.7636295"><ele>989.7</ele><time>2015-04-27T14:15:56.0000000+00:00</time></trkpt><trkpt lat="34.9791081" lon="32.7637061"><ele>989.3</ele><time>2015-04-27T14:15:57.0000000+00:00</time></trkpt><trkpt lat="34.9791683" lon="32.7637931"><ele>988.5</ele><time>2015-04-27T14:15:58.0000000+00:00</time></trkpt><trkpt lat="34.9792289" lon="32.7638637"><ele>987.6</ele><time>2015-04-27T14:15:59.0000000+00:00</time></trkpt><trkpt lat="34.9792806" lon="32.763945"><ele>987.2</ele><time>2015-04-27T14:16:00.0000000+00:00</time></trkpt><trkpt lat="34.9792872" lon="32.7640558"><ele>987.5</ele><time>2015-04-27T14:16:01.0000000+00:00</time></trkpt><trkpt lat="34.9792905" lon="32.7641733"><ele>987.1</ele><time>2015-04-27T14:16:02.0000000+00:00</time></trkpt><trkpt lat="34.9792453" lon="32.7642639"><ele>986.4</ele><time>2015-04-27T14:16:03.0000000+00:00</time></trkpt><trkpt lat="34.9792092" lon="32.7643502"><ele>986.1</ele><time>2015-04-27T14:16:04.0000000+00:00</time></trkpt><trkpt lat="34.979159" lon="32.7644322"><ele>985.4</ele><time>2015-04-27T14:16:05.0000000+00:00</time></trkpt><trkpt lat="34.9790997" lon="32.7645178"><ele>985.1</ele><time>2015-04-27T14:16:06.0000000+00:00</time></trkpt><trkpt lat="34.9790691" lon="32.7646179"><ele>984.9</ele><time>2015-04-27T14:16:07.0000000+00:00</time></trkpt><trkpt lat="34.9790287" lon="32.7647203"><ele>984.8</ele><time>2015-04-27T14:16:08.0000000+00:00</time></trkpt><trkpt lat="34.9790031" lon="32.7648208"><ele>984.8</ele><time>2015-04-27T14:16:09.0000000+00:00</time></trkpt><trkpt lat="34.979043" lon="32.7649189"><ele>984.8</ele><time>2015-04-27T14:16:10.0000000+00:00</time></trkpt><trkpt lat="34.9790613" lon="32.7650183"><ele>985.3</ele><time>2015-04-27T14:16:11.0000000+00:00</time></trkpt><trkpt lat="34.9790309" lon="32.7651189"><ele>984.5</ele><time>2015-04-27T14:16:12.0000000+00:00</time></trkpt><trkpt lat="34.9790084" lon="32.765215"><ele>983.1</ele><time>2015-04-27T14:16:13.0000000+00:00</time></trkpt><trkpt lat="34.9789528" lon="32.7653006"><ele>981.5</ele><time>2015-04-27T14:16:14.0000000+00:00</time></trkpt><trkpt lat="34.9789167" lon="32.7653928"><ele>980.6</ele><time>2015-04-27T14:16:15.0000000+00:00</time></trkpt><trkpt lat="34.9788777" lon="32.7654931"><ele>980.2</ele><time>2015-04-27T14:16:16.0000000+00:00</time></trkpt><trkpt lat="34.978847" lon="32.7655913"><ele>979.5</ele><time>2015-04-27T14:16:17.0000000+00:00</time></trkpt><trkpt lat="34.9788162" lon="32.7657056"><ele>979.6</ele><time>2015-04-27T14:16:18.0000000+00:00</time></trkpt><trkpt lat="34.9788268" lon="32.7658153"><ele>979.2</ele><time>2015-04-27T14:16:19.0000000+00:00</time></trkpt><trkpt lat="34.9788347" lon="32.7659363"><ele>979.0</ele><time>2015-04-27T14:16:20.0000000+00:00</time></trkpt><trkpt lat="34.9788253" lon="32.7660482"><ele>978.9</ele><time>2015-04-27T14:16:21.0000000+00:00</time></trkpt><trkpt lat="34.9788322" lon="32.7661673"><ele>978.3</ele><time>2015-04-27T14:16:22.0000000+00:00</time></trkpt><trkpt lat="34.9788613" lon="32.766285"><ele>978.5</ele><time>2015-04-27T14:16:23.0000000+00:00</time></trkpt><trkpt lat="34.9788771" lon="32.7664011"><ele>978.7</ele><time>2015-04-27T14:16:24.0000000+00:00</time></trkpt><trkpt lat="34.978919" lon="32.7665071"><ele>978.7</ele><time>2015-04-27T14:16:25.0000000+00:00</time></trkpt><trkpt lat="34.9789666" lon="32.7665847"><ele>978.7</ele><time>2015-04-27T14:16:26.0000000+00:00</time></trkpt><trkpt lat="34.9790044" lon="32.7666536"><ele>978.3</ele><time>2015-04-27T14:16:27.0000000+00:00</time></trkpt><trkpt lat="34.9791212" lon="32.7667169"><ele>978.0</ele><time>2015-04-27T14:16:28.0000000+00:00</time></trkpt><trkpt lat="34.9791897" lon="32.7667965"><ele>977.4</ele><time>2015-04-27T14:16:29.0000000+00:00</time></trkpt><trkpt lat="34.9792274" lon="32.7668914"><ele>976.1</ele><time>2015-04-27T14:16:30.0000000+00:00</time></trkpt><trkpt lat="34.9792411" lon="32.7669996"><ele>975.4</ele><time>2015-04-27T14:16:31.0000000+00:00</time></trkpt><trkpt lat="34.9792641" lon="32.7671217"><ele>974.6</ele><time>2015-04-27T14:16:32.0000000+00:00</time></trkpt><trkpt lat="34.9792976" lon="32.767227"><ele>974.2</ele><time>2015-04-27T14:16:33.0000000+00:00</time></trkpt><trkpt lat="34.979312" lon="32.76734"><ele>974.0</ele><time>2015-04-27T14:16:34.0000000+00:00</time></trkpt><trkpt lat="34.9793155" lon="32.7674589"><ele>973.9</ele><time>2015-04-27T14:16:35.0000000+00:00</time></trkpt><trkpt lat="34.979295" lon="32.7675809"><ele>972.8</ele><time>2015-04-27T14:16:36.0000000+00:00</time></trkpt><trkpt lat="34.9792584" lon="32.7676978"><ele>971.8</ele><time>2015-04-27T14:16:37.0000000+00:00</time></trkpt><trkpt lat="34.9792144" lon="32.7678185"><ele>970.3</ele><time>2015-04-27T14:16:38.0000000+00:00</time></trkpt><trkpt lat="34.9791502" lon="32.7679078"><ele>968.5</ele><time>2015-04-27T14:16:39.0000000+00:00</time></trkpt><trkpt lat="34.979111" lon="32.768029"><ele>967.6</ele><time>2015-04-27T14:16:40.0000000+00:00</time></trkpt><trkpt lat="34.9790642" lon="32.76815"><ele>967.2</ele><time>2015-04-27T14:16:41.0000000+00:00</time></trkpt><trkpt lat="34.9790291" lon="32.7682795"><ele>967.0</ele><time>2015-04-27T14:16:42.0000000+00:00</time></trkpt><trkpt lat="34.9789924" lon="32.7684086"><ele>966.4</ele><time>2015-04-27T14:16:43.0000000+00:00</time></trkpt><trkpt lat="34.9790014" lon="32.7685517"><ele>965.6</ele><time>2015-04-27T14:16:44.0000000+00:00</time></trkpt><trkpt lat="34.9789866" lon="32.7686748"><ele>965.2</ele><time>2015-04-27T14:16:45.0000000+00:00</time></trkpt><trkpt lat="34.9790019" lon="32.7687959"><ele>965.0</ele><time>2015-04-27T14:16:46.0000000+00:00</time></trkpt><trkpt lat="34.979004" lon="32.7689318"><ele>964.9</ele><time>2015-04-27T14:16:47.0000000+00:00</time></trkpt><trkpt lat="34.9789917" lon="32.7690619"><ele>964.3</ele><time>2015-04-27T14:16:48.0000000+00:00</time></trkpt><trkpt lat="34.9789634" lon="32.7691882"><ele>964.0</ele><time>2015-04-27T14:16:49.0000000+00:00</time></trkpt><trkpt lat="34.9788796" lon="32.7692831"><ele>963.4</ele><time>2015-04-27T14:16:50.0000000+00:00</time></trkpt><trkpt lat="34.9788505" lon="32.769411"><ele>962.6</ele><time>2015-04-27T14:16:51.0000000+00:00</time></trkpt><trkpt lat="34.9788463" lon="32.7695561"><ele>961.7</ele><time>2015-04-27T14:16:52.0000000+00:00</time></trkpt><trkpt lat="34.9788453" lon="32.769679"><ele>960.7</ele><time>2015-04-27T14:16:53.0000000+00:00</time></trkpt><trkpt lat="34.9788442" lon="32.7698111"><ele>960.7</ele><time>2015-04-27T14:16:54.0000000+00:00</time></trkpt><trkpt lat="34.9788608" lon="32.7699389"><ele>960.8</ele><time>2015-04-27T14:16:55.0000000+00:00</time></trkpt><trkpt lat="34.9788826" lon="32.7700493"><ele>960.8</ele><time>2015-04-27T14:16:56.0000000+00:00</time></trkpt><trkpt lat="34.9789257" lon="32.7701651"><ele>960.8</ele><time>2015-04-27T14:16:57.0000000+00:00</time></trkpt><trkpt lat="34.9789452" lon="32.7702829"><ele>960.8</ele><time>2015-04-27T14:16:58.0000000+00:00</time></trkpt><trkpt lat="34.9789461" lon="32.7704007"><ele>960.8</ele><time>2015-04-27T14:16:59.0000000+00:00</time></trkpt><trkpt lat="34.9789333" lon="32.770528"><ele>960.3</ele><time>2015-04-27T14:17:00.0000000+00:00</time></trkpt><trkpt lat="34.9789216" lon="32.7706538"><ele>960.0</ele><time>2015-04-27T14:17:01.0000000+00:00</time></trkpt><trkpt lat="34.9788806" lon="32.7707776"><ele>959.9</ele><time>2015-04-27T14:17:02.0000000+00:00</time></trkpt><trkpt lat="34.9788286" lon="32.7708785"><ele>959.3</ele><time>2015-04-27T14:17:03.0000000+00:00</time></trkpt><trkpt lat="34.9787937" lon="32.7710025"><ele>958.5</ele><time>2015-04-27T14:17:04.0000000+00:00</time></trkpt><trkpt lat="34.9787922" lon="32.7711042"><ele>957.7</ele><time>2015-04-27T14:17:05.0000000+00:00</time></trkpt><trkpt lat="34.978806" lon="32.7712259"><ele>957.7</ele><time>2015-04-27T14:17:06.0000000+00:00</time></trkpt><trkpt lat="34.978832" lon="32.7713455"><ele>957.7</ele><time>2015-04-27T14:17:07.0000000+00:00</time></trkpt><trkpt lat="34.9788485" lon="32.7714664"><ele>957.3</ele><time>2015-04-27T14:17:08.0000000+00:00</time></trkpt><trkpt lat="34.9788767" lon="32.7715935"><ele>957.0</ele><time>2015-04-27T14:17:09.0000000+00:00</time></trkpt><trkpt lat="34.9788859" lon="32.7717138"><ele>956.4</ele><time>2015-04-27T14:17:10.0000000+00:00</time></trkpt><trkpt lat="34.9789108" lon="32.771841"><ele>956.1</ele><time>2015-04-27T14:17:11.0000000+00:00</time></trkpt><trkpt lat="34.9789271" lon="32.77197"><ele>955.9</ele><time>2015-04-27T14:17:12.0000000+00:00</time></trkpt><trkpt lat="34.9789672" lon="32.7721016"><ele>956.8</ele><time>2015-04-27T14:17:13.0000000+00:00</time></trkpt><trkpt lat="34.9790021" lon="32.7722194"><ele>956.8</ele><time>2015-04-27T14:17:14.0000000+00:00</time></trkpt><trkpt lat="34.9790244" lon="32.7723276"><ele>956.3</ele><time>2015-04-27T14:17:15.0000000+00:00</time></trkpt><trkpt lat="34.9790423" lon="32.7724413"><ele>956.0</ele><time>2015-04-27T14:17:16.0000000+00:00</time></trkpt><trkpt lat="34.9790203" lon="32.7725386"><ele>955.4</ele><time>2015-04-27T14:17:17.0000000+00:00</time></trkpt><trkpt lat="34.9789868" lon="32.7726388"><ele>954.1</ele><time>2015-04-27T14:17:18.0000000+00:00</time></trkpt><trkpt lat="34.9789504" lon="32.7727397"><ele>953.4</ele><time>2015-04-27T14:17:19.0000000+00:00</time></trkpt><trkpt lat="34.9789004" lon="32.7728471"><ele>952.1</ele><time>2015-04-27T14:17:20.0000000+00:00</time></trkpt><trkpt lat="34.9788777" lon="32.7729485"><ele>951.4</ele><time>2015-04-27T14:17:21.0000000+00:00</time></trkpt><trkpt lat="34.9788445" lon="32.7730498"><ele>951.1</ele><time>2015-04-27T14:17:22.0000000+00:00</time></trkpt><trkpt lat="34.9788591" lon="32.7731818"><ele>950.4</ele><time>2015-04-27T14:17:23.0000000+00:00</time></trkpt><trkpt lat="34.9788481" lon="32.7732948"><ele>950.6</ele><time>2015-04-27T14:17:24.0000000+00:00</time></trkpt><trkpt lat="34.9788434" lon="32.7734156"><ele>950.2</ele><time>2015-04-27T14:17:25.0000000+00:00</time></trkpt><trkpt lat="34.9788306" lon="32.7735391"><ele>950.5</ele><time>2015-04-27T14:17:26.0000000+00:00</time></trkpt><trkpt lat="34.9788076" lon="32.7736628"><ele>950.1</ele><time>2015-04-27T14:17:27.0000000+00:00</time></trkpt><trkpt lat="34.9787736" lon="32.7737834"><ele>949.4</ele><time>2015-04-27T14:17:28.0000000+00:00</time></trkpt><trkpt lat="34.9787406" lon="32.7739068"><ele>948.6</ele><time>2015-04-27T14:17:29.0000000+00:00</time></trkpt><trkpt lat="34.978733" lon="32.774043"><ele>947.7</ele><time>2015-04-27T14:17:30.0000000+00:00</time></trkpt><trkpt lat="34.9787483" lon="32.7741773"><ele>947.2</ele><time>2015-04-27T14:17:31.0000000+00:00</time></trkpt><trkpt lat="34.9787858" lon="32.7743079"><ele>947.5</ele><time>2015-04-27T14:17:32.0000000+00:00</time></trkpt><trkpt lat="34.978839" lon="32.7744343"><ele>947.6</ele><time>2015-04-27T14:17:33.0000000+00:00</time></trkpt><trkpt lat="34.978879" lon="32.7745505"><ele>946.7</ele><time>2015-04-27T14:17:34.0000000+00:00</time></trkpt><trkpt lat="34.97891" lon="32.7746598"><ele>946.2</ele><time>2015-04-27T14:17:35.0000000+00:00</time></trkpt><trkpt lat="34.9789311" lon="32.7747553"><ele>945.5</ele><time>2015-04-27T14:17:36.0000000+00:00</time></trkpt><trkpt lat="34.978917" lon="32.7748327"><ele>944.6</ele><time>2015-04-27T14:17:37.0000000+00:00</time></trkpt><trkpt lat="34.9789027" lon="32.7749188"><ele>943.7</ele><time>2015-04-27T14:17:38.0000000+00:00</time></trkpt><trkpt lat="34.9788556" lon="32.7749778"><ele>941.7</ele><time>2015-04-27T14:17:39.0000000+00:00</time></trkpt><trkpt lat="34.9787911" lon="32.7750458"><ele>940.2</ele><time>2015-04-27T14:17:40.0000000+00:00</time></trkpt><trkpt lat="34.9787309" lon="32.7751106"><ele>939.0</ele><time>2015-04-27T14:17:41.0000000+00:00</time></trkpt><trkpt lat="34.9786696" lon="32.7751719"><ele>938.4</ele><time>2015-04-27T14:17:42.0000000+00:00</time></trkpt><trkpt lat="34.9786051" lon="32.7752324"><ele>938.1</ele><time>2015-04-27T14:17:43.0000000+00:00</time></trkpt><trkpt lat="34.9785384" lon="32.7753019"><ele>937.9</ele><time>2015-04-27T14:17:44.0000000+00:00</time></trkpt><trkpt lat="34.9784677" lon="32.7753602"><ele>937.3</ele><time>2015-04-27T14:17:45.0000000+00:00</time></trkpt><trkpt lat="34.9783953" lon="32.7754291"><ele>937.1</ele><time>2015-04-27T14:17:46.0000000+00:00</time></trkpt><trkpt lat="34.9783356" lon="32.7755039"><ele>936.9</ele><time>2015-04-27T14:17:47.0000000+00:00</time></trkpt><trkpt lat="34.9782678" lon="32.7755826"><ele>936.3</ele><time>2015-04-27T14:17:48.0000000+00:00</time></trkpt><trkpt lat="34.9782128" lon="32.775669"><ele>936.6</ele><time>2015-04-27T14:17:49.0000000+00:00</time></trkpt><trkpt lat="34.9781451" lon="32.7757511"><ele>936.7</ele><time>2015-04-27T14:17:50.0000000+00:00</time></trkpt><trkpt lat="34.9780834" lon="32.775842"><ele>936.7</ele><time>2015-04-27T14:17:51.0000000+00:00</time></trkpt><trkpt lat="34.9780214" lon="32.7759242"><ele>936.7</ele><time>2015-04-27T14:17:52.0000000+00:00</time></trkpt><trkpt lat="34.9779676" lon="32.7760108"><ele>936.8</ele><time>2015-04-27T14:17:53.0000000+00:00</time></trkpt><trkpt lat="34.9779223" lon="32.7760976"><ele>936.3</ele><time>2015-04-27T14:17:54.0000000+00:00</time></trkpt><trkpt lat="34.9778997" lon="32.7761888"><ele>936.0</ele><time>2015-04-27T14:17:55.0000000+00:00</time></trkpt><trkpt lat="34.9779368" lon="32.7762784"><ele>934.4</ele><time>2015-04-27T14:17:56.0000000+00:00</time></trkpt><trkpt lat="34.978" lon="32.7763513"><ele>932.6</ele><time>2015-04-27T14:17:57.0000000+00:00</time></trkpt><trkpt lat="34.9780588" lon="32.7764174"><ele>931.7</ele><time>2015-04-27T14:17:58.0000000+00:00</time></trkpt><trkpt lat="34.9781251" lon="32.7764723"><ele>931.2</ele><time>2015-04-27T14:17:59.0000000+00:00</time></trkpt><trkpt lat="34.9781997" lon="32.776523"><ele>930.5</ele><time>2015-04-27T14:18:00.0000000+00:00</time></trkpt><trkpt lat="34.9782864" lon="32.7765566"><ele>929.6</ele><time>2015-04-27T14:18:01.0000000+00:00</time></trkpt><trkpt lat="34.9783681" lon="32.7766072"><ele>929.2</ele><time>2015-04-27T14:18:02.0000000+00:00</time></trkpt><trkpt lat="34.9784315" lon="32.7766797"><ele>929.0</ele><time>2015-04-27T14:18:03.0000000+00:00</time></trkpt><trkpt lat="34.9784979" lon="32.7767481"><ele>928.4</ele><time>2015-04-27T14:18:04.0000000+00:00</time></trkpt><trkpt lat="34.9785453" lon="32.7768324"><ele>927.6</ele><time>2015-04-27T14:18:05.0000000+00:00</time></trkpt><trkpt lat="34.9785881" lon="32.7769191"><ele>927.7</ele><time>2015-04-27T14:18:06.0000000+00:00</time></trkpt><trkpt lat="34.9786031" lon="32.7770165"><ele>926.7</ele><time>2015-04-27T14:18:07.0000000+00:00</time></trkpt><trkpt lat="34.9786152" lon="32.7771067"><ele>926.2</ele><time>2015-04-27T14:18:08.0000000+00:00</time></trkpt><trkpt lat="34.9786228" lon="32.7771744"><ele>926.0</ele><time>2015-04-27T14:18:09.0000000+00:00</time></trkpt><trkpt lat="34.978624" lon="32.7772318"><ele>925.4</ele><time>2015-04-27T14:18:10.0000000+00:00</time></trkpt><trkpt lat="34.9786286" lon="32.7773023"><ele>925.1</ele><time>2015-04-27T14:18:11.0000000+00:00</time></trkpt><trkpt lat="34.9786464" lon="32.7773559"><ele>925.4</ele><time>2015-04-27T14:18:12.0000000+00:00</time></trkpt><trkpt lat="34.9786746" lon="32.7774156"><ele>925.6</ele><time>2015-04-27T14:18:13.0000000+00:00</time></trkpt><trkpt lat="34.9786869" lon="32.7774742"><ele>925.2</ele><time>2015-04-27T14:18:14.0000000+00:00</time></trkpt><trkpt lat="34.9787058" lon="32.7775298"><ele>925.0</ele><time>2015-04-27T14:18:15.0000000+00:00</time></trkpt><trkpt lat="34.9787507" lon="32.7776276"><ele>924.8</ele><time>2015-04-27T14:18:17.0000000+00:00</time></trkpt><trkpt lat="34.9788117" lon="32.777656"><ele>924.3</ele><time>2015-04-27T14:18:18.0000000+00:00</time></trkpt><trkpt lat="34.9788548" lon="32.7776962"><ele>924.0</ele><time>2015-04-27T14:18:19.0000000+00:00</time></trkpt><trkpt lat="34.978905" lon="32.7777326"><ele>923.4</ele><time>2015-04-27T14:18:20.0000000+00:00</time></trkpt><trkpt lat="34.9789527" lon="32.7777612"><ele>922.1</ele><time>2015-04-27T14:18:21.0000000+00:00</time></trkpt><trkpt lat="34.979002" lon="32.7778214"><ele>921.4</ele><time>2015-04-27T14:18:22.0000000+00:00</time></trkpt><trkpt lat="34.9790403" lon="32.7778829"><ele>920.6</ele><time>2015-04-27T14:18:23.0000000+00:00</time></trkpt><trkpt lat="34.9790677" lon="32.7779571"><ele>920.2</ele><time>2015-04-27T14:18:24.0000000+00:00</time></trkpt><trkpt lat="34.9790857" lon="32.7780375"><ele>920.0</ele><time>2015-04-27T14:18:25.0000000+00:00</time></trkpt><trkpt lat="34.9791032" lon="32.7781331"><ele>919.9</ele><time>2015-04-27T14:18:26.0000000+00:00</time></trkpt><trkpt lat="34.9791112" lon="32.7782201"><ele>919.3</ele><time>2015-04-27T14:18:27.0000000+00:00</time></trkpt><trkpt lat="34.9791218" lon="32.7783106"><ele>918.5</ele><time>2015-04-27T14:18:28.0000000+00:00</time></trkpt><trkpt lat="34.9791359" lon="32.7783843"><ele>917.7</ele><time>2015-04-27T14:18:29.0000000+00:00</time></trkpt><trkpt lat="34.979154" lon="32.7784766"><ele>917.2</ele><time>2015-04-27T14:18:30.0000000+00:00</time></trkpt><trkpt lat="34.9791714" lon="32.7785652"><ele>917.5</ele><time>2015-04-27T14:18:31.0000000+00:00</time></trkpt><trkpt lat="34.9791845" lon="32.778649"><ele>918.1</ele><time>2015-04-27T14:18:32.0000000+00:00</time></trkpt><trkpt lat="34.9791983" lon="32.7787337"><ele>918.4</ele><time>2015-04-27T14:18:33.0000000+00:00</time></trkpt><trkpt lat="34.9792169" lon="32.7788127"><ele>919.1</ele><time>2015-04-27T14:18:34.0000000+00:00</time></trkpt><trkpt lat="34.9792279" lon="32.7788956"><ele>919.9</ele><time>2015-04-27T14:18:35.0000000+00:00</time></trkpt><trkpt lat="34.9792363" lon="32.7789679"><ele>920.9</ele><time>2015-04-27T14:18:36.0000000+00:00</time></trkpt><trkpt lat="34.9792412" lon="32.7790357"><ele>921.3</ele><time>2015-04-27T14:18:37.0000000+00:00</time></trkpt><trkpt lat="34.9792523" lon="32.7791033"><ele>921.5</ele><time>2015-04-27T14:18:38.0000000+00:00</time></trkpt><trkpt lat="34.9792662" lon="32.7791861"><ele>921.7</ele><time>2015-04-27T14:18:39.0000000+00:00</time></trkpt><trkpt lat="34.9792795" lon="32.7792693"><ele>921.2</ele><time>2015-04-27T14:18:40.0000000+00:00</time></trkpt><trkpt lat="34.9792978" lon="32.7793363"><ele>920.5</ele><time>2015-04-27T14:18:41.0000000+00:00</time></trkpt><trkpt lat="34.9793134" lon="32.779414"><ele>920.1</ele><time>2015-04-27T14:18:42.0000000+00:00</time></trkpt><trkpt lat="34.9793235" lon="32.779494"><ele>919.9</ele><time>2015-04-27T14:18:43.0000000+00:00</time></trkpt><trkpt lat="34.979313" lon="32.7795622"><ele>919.4</ele><time>2015-04-27T14:18:44.0000000+00:00</time></trkpt><trkpt lat="34.9793256" lon="32.7796454"><ele>919.1</ele><time>2015-04-27T14:18:45.0000000+00:00</time></trkpt><trkpt lat="34.9793329" lon="32.7797154"><ele>919.4</ele><time>2015-04-27T14:18:46.0000000+00:00</time></trkpt><trkpt lat="34.9793358" lon="32.7797762"><ele>919.6</ele><time>2015-04-27T14:18:47.0000000+00:00</time></trkpt><trkpt lat="34.9793005" lon="32.7799039"><ele>919.0</ele><time>2015-04-27T14:18:49.0000000+00:00</time></trkpt><trkpt lat="34.9792838" lon="32.779967"><ele>918.9</ele><time>2015-04-27T14:18:50.0000000+00:00</time></trkpt><trkpt lat="34.9792802" lon="32.7800272"><ele>918.8</ele><time>2015-04-27T14:18:51.0000000+00:00</time></trkpt><trkpt lat="34.9792719" lon="32.7800987"><ele>919.8</ele><time>2015-04-27T14:18:52.0000000+00:00</time></trkpt><trkpt lat="34.9792535" lon="32.7801502"><ele>920.3</ele><time>2015-04-27T14:18:53.0000000+00:00</time></trkpt><trkpt lat="34.979244" lon="32.7802308"><ele>920.6</ele><time>2015-04-27T14:18:55.0000000+00:00</time></trkpt><trkpt lat="34.9792757" lon="32.7803113"><ele>919.0</ele><time>2015-04-27T14:18:57.0000000+00:00</time></trkpt><trkpt lat="34.9792816" lon="32.7803837"><ele>919.6</ele><time>2015-04-27T14:18:59.0000000+00:00</time></trkpt><trkpt lat="34.9792859" lon="32.7804438"><ele>920.5</ele><time>2015-04-27T14:19:01.0000000+00:00</time></trkpt><trkpt lat="34.9792836" lon="32.780516"><ele>920.0</ele><time>2015-04-27T14:19:04.0000000+00:00</time></trkpt><trkpt lat="34.9792747" lon="32.7805814"><ele>919.8</ele><time>2015-04-27T14:19:06.0000000+00:00</time></trkpt><trkpt lat="34.9792676" lon="32.7806562"><ele>920.3</ele><time>2015-04-27T14:19:08.0000000+00:00</time></trkpt><trkpt lat="34.9792612" lon="32.7807344"><ele>919.9</ele><time>2015-04-27T14:19:10.0000000+00:00</time></trkpt><trkpt lat="34.979279" lon="32.7808144"><ele>920.3</ele><time>2015-04-27T14:19:12.0000000+00:00</time></trkpt><trkpt lat="34.9792868" lon="32.78089"><ele>921.1</ele><time>2015-04-27T14:19:14.0000000+00:00</time></trkpt><trkpt lat="34.9793068" lon="32.7809509"><ele>923.4</ele><time>2015-04-27T14:19:17.0000000+00:00</time></trkpt><trkpt lat="34.9793003" lon="32.7810135"><ele>923.1</ele><time>2015-04-27T14:19:20.0000000+00:00</time></trkpt><trkpt lat="34.9792946" lon="32.7810767"><ele>922.8</ele><time>2015-04-27T14:19:22.0000000+00:00</time></trkpt><trkpt lat="34.9793075" lon="32.7811553"><ele>924.3</ele><time>2015-04-27T14:19:24.0000000+00:00</time></trkpt><trkpt lat="34.9793268" lon="32.78122"><ele>924.6</ele><time>2015-04-27T14:19:26.0000000+00:00</time></trkpt><trkpt lat="34.9793456" lon="32.7812832"><ele>923.8</ele><time>2015-04-27T14:19:29.0000000+00:00</time></trkpt><trkpt lat="34.9793944" lon="32.7813264"><ele>925.6</ele><time>2015-04-27T14:19:32.0000000+00:00</time></trkpt><trkpt lat="34.979479" lon="32.7813398"><ele>926.5</ele><time>2015-04-27T14:19:34.0000000+00:00</time></trkpt><trkpt lat="34.979553" lon="32.78132"><ele>926.7</ele><time>2015-04-27T14:19:36.0000000+00:00</time></trkpt><trkpt lat="34.9795987" lon="32.7812784"><ele>926.7</ele><time>2015-04-27T14:19:38.0000000+00:00</time></trkpt><trkpt lat="34.9796388" lon="32.78124"><ele>926.8</ele><time>2015-04-27T14:19:40.0000000+00:00</time></trkpt><trkpt lat="34.9796823" lon="32.7812078"><ele>927.5</ele><time>2015-04-27T14:19:42.0000000+00:00</time></trkpt><trkpt lat="34.9797266" lon="32.7811847"><ele>927.7</ele><time>2015-04-27T14:19:44.0000000+00:00</time></trkpt><trkpt lat="34.9797792" lon="32.7811693"><ele>927.3</ele><time>2015-04-27T14:19:48.0000000+00:00</time></trkpt><trkpt lat="34.9798363" lon="32.7811565"><ele>925.9</ele><time>2015-04-27T14:19:52.0000000+00:00</time></trkpt><trkpt lat="34.979885" lon="32.7811653"><ele>925.7</ele><time>2015-04-27T14:19:55.0000000+00:00</time></trkpt><trkpt lat="34.9799352" lon="32.781189"><ele>926.3</ele><time>2015-04-27T14:19:58.0000000+00:00</time></trkpt><trkpt lat="34.9799806" lon="32.7812303"><ele>927.5</ele><time>2015-04-27T14:20:01.0000000+00:00</time></trkpt><trkpt lat="34.9800146" lon="32.7812868"><ele>927.9</ele><time>2015-04-27T14:20:04.0000000+00:00</time></trkpt><trkpt lat="34.9800378" lon="32.7813501"><ele>928.5</ele><time>2015-04-27T14:20:07.0000000+00:00</time></trkpt><trkpt lat="34.9800579" lon="32.7814153"><ele>928.2</ele><time>2015-04-27T14:20:10.0000000+00:00</time></trkpt><trkpt lat="34.980069" lon="32.7814795"><ele>928.6</ele><time>2015-04-27T14:20:13.0000000+00:00</time></trkpt><trkpt lat="34.9800811" lon="32.7815524"><ele>928.0</ele><time>2015-04-27T14:20:16.0000000+00:00</time></trkpt><trkpt lat="34.9801036" lon="32.7816188"><ele>927.3</ele><time>2015-04-27T14:20:19.0000000+00:00</time></trkpt><trkpt lat="34.9801368" lon="32.7816895"><ele>925.6</ele><time>2015-04-27T14:20:22.0000000+00:00</time></trkpt><trkpt lat="34.9801812" lon="32.7817342"><ele>926.5</ele><time>2015-04-27T14:20:24.0000000+00:00</time></trkpt><trkpt lat="34.9802264" lon="32.7817703"><ele>926.7</ele><time>2015-04-27T14:20:26.0000000+00:00</time></trkpt><trkpt lat="34.980272" lon="32.7817937"><ele>926.7</ele><time>2015-04-27T14:20:28.0000000+00:00</time></trkpt><trkpt lat="34.9803232" lon="32.7818147"><ele>927.4</ele><time>2015-04-27T14:20:31.0000000+00:00</time></trkpt><trkpt lat="34.9803862" lon="32.7818531"><ele>928.2</ele><time>2015-04-27T14:20:34.0000000+00:00</time></trkpt><trkpt lat="34.9804298" lon="32.7818876"><ele>927.9</ele><time>2015-04-27T14:20:36.0000000+00:00</time></trkpt><trkpt lat="34.9804708" lon="32.781935"><ele>927.8</ele><time>2015-04-27T14:20:38.0000000+00:00</time></trkpt><trkpt lat="34.9805086" lon="32.7819907"><ele>927.8</ele><time>2015-04-27T14:20:40.0000000+00:00</time></trkpt><trkpt lat="34.9805374" lon="32.7820456"><ele>928.3</ele><time>2015-04-27T14:20:42.0000000+00:00</time></trkpt><trkpt lat="34.9805651" lon="32.7820978"><ele>929.6</ele><time>2015-04-27T14:20:45.0000000+00:00</time></trkpt><trkpt lat="34.9805929" lon="32.7821645"><ele>931.1</ele><time>2015-04-27T14:20:48.0000000+00:00</time></trkpt><trkpt lat="34.9806159" lon="32.7822144"><ele>931.6</ele><time>2015-04-27T14:20:50.0000000+00:00</time></trkpt><trkpt lat="34.9806441" lon="32.7822654"><ele>931.7</ele><time>2015-04-27T14:20:52.0000000+00:00</time></trkpt><trkpt lat="34.9806759" lon="32.7823197"><ele>931.0</ele><time>2015-04-27T14:20:54.0000000+00:00</time></trkpt><trkpt lat="34.9807002" lon="32.7823735"><ele>930.3</ele><time>2015-04-27T14:20:56.0000000+00:00</time></trkpt><trkpt lat="34.9807246" lon="32.7824231"><ele>929.4</ele><time>2015-04-27T14:20:58.0000000+00:00</time></trkpt><trkpt lat="34.9807538" lon="32.7824692"><ele>928.9</ele><time>2015-04-27T14:21:00.0000000+00:00</time></trkpt><trkpt lat="34.9808052" lon="32.78252"><ele>927.4</ele><time>2015-04-27T14:21:03.0000000+00:00</time></trkpt><trkpt lat="34.980848" lon="32.782577"><ele>928.6</ele><time>2015-04-27T14:21:06.0000000+00:00</time></trkpt><trkpt lat="34.9808812" lon="32.7826226"><ele>930.2</ele><time>2015-04-27T14:21:08.0000000+00:00</time></trkpt><trkpt lat="34.9809165" lon="32.7826709"><ele>931.9</ele><time>2015-04-27T14:21:10.0000000+00:00</time></trkpt><trkpt lat="34.9809456" lon="32.7827128"><ele>933.0</ele><time>2015-04-27T14:21:12.0000000+00:00</time></trkpt><trkpt lat="34.980965" lon="32.7827762"><ele>935.1</ele><time>2015-04-27T14:21:17.0000000+00:00</time></trkpt><trkpt lat="34.9809821" lon="32.7828472"><ele>936.2</ele><time>2015-04-27T14:21:20.0000000+00:00</time></trkpt><trkpt lat="34.9809959" lon="32.7829164"><ele>937.9</ele><time>2015-04-27T14:21:23.0000000+00:00</time></trkpt><trkpt lat="34.9810087" lon="32.7829769"><ele>937.8</ele><time>2015-04-27T14:21:27.0000000+00:00</time></trkpt><trkpt lat="34.9810034" lon="32.7830507"><ele>938.1</ele><time>2015-04-27T14:21:32.0000000+00:00</time></trkpt><trkpt lat="34.9810116" lon="32.7831171"><ele>938.1</ele><time>2015-04-27T14:21:34.0000000+00:00</time></trkpt><trkpt lat="34.9810222" lon="32.7831755"><ele>938.6</ele><time>2015-04-27T14:21:36.0000000+00:00</time></trkpt><trkpt lat="34.9810138" lon="32.783241"><ele>937.8</ele><time>2015-04-27T14:21:40.0000000+00:00</time></trkpt><trkpt lat="34.981023" lon="32.7832957"><ele>937.6</ele><time>2015-04-27T14:21:43.0000000+00:00</time></trkpt><trkpt lat="34.9810374" lon="32.7833521"><ele>937.2</ele><time>2015-04-27T14:21:45.0000000+00:00</time></trkpt><trkpt lat="34.9810644" lon="32.783416"><ele>937.7</ele><time>2015-04-27T14:21:48.0000000+00:00</time></trkpt><trkpt lat="34.981093" lon="32.7834636"><ele>937.3</ele><time>2015-04-27T14:21:51.0000000+00:00</time></trkpt><trkpt lat="34.9811261" lon="32.7835062"><ele>936.1</ele><time>2015-04-27T14:21:54.0000000+00:00</time></trkpt><trkpt lat="34.9811709" lon="32.7835416"><ele>935.8</ele><time>2015-04-27T14:21:57.0000000+00:00</time></trkpt><trkpt lat="34.9812166" lon="32.7835704"><ele>936.5</ele><time>2015-04-27T14:22:00.0000000+00:00</time></trkpt><trkpt lat="34.9812734" lon="32.7836101"><ele>937.5</ele><time>2015-04-27T14:22:03.0000000+00:00</time></trkpt><trkpt lat="34.9813193" lon="32.7836384"><ele>937.7</ele><time>2015-04-27T14:22:05.0000000+00:00</time></trkpt><trkpt lat="34.9813716" lon="32.7836728"><ele>937.8</ele><time>2015-04-27T14:22:08.0000000+00:00</time></trkpt><trkpt lat="34.981428" lon="32.7837068"><ele>937.8</ele><time>2015-04-27T14:22:11.0000000+00:00</time></trkpt><trkpt lat="34.9814698" lon="32.7837297"><ele>938.5</ele><time>2015-04-27T14:22:13.0000000+00:00</time></trkpt><trkpt lat="34.9815196" lon="32.7837594"><ele>938.7</ele><time>2015-04-27T14:22:16.0000000+00:00</time></trkpt><trkpt lat="34.981564" lon="32.7837941"><ele>938.8</ele><time>2015-04-27T14:22:19.0000000+00:00</time></trkpt><trkpt lat="34.9816165" lon="32.7838301"><ele>939.5</ele><time>2015-04-27T14:22:22.0000000+00:00</time></trkpt><trkpt lat="34.9816568" lon="32.7838578"><ele>940.0</ele><time>2015-04-27T14:22:24.0000000+00:00</time></trkpt><trkpt lat="34.9816966" lon="32.7838857"><ele>939.8</ele><time>2015-04-27T14:22:26.0000000+00:00</time></trkpt><trkpt lat="34.9817456" lon="32.7839217"><ele>940.1</ele><time>2015-04-27T14:22:29.0000000+00:00</time></trkpt><trkpt lat="34.9818022" lon="32.7839541"><ele>940.7</ele><time>2015-04-27T14:22:32.0000000+00:00</time></trkpt><trkpt lat="34.9818518" lon="32.7839942"><ele>940.8</ele><time>2015-04-27T14:22:35.0000000+00:00</time></trkpt><trkpt lat="34.9818955" lon="32.7840233"><ele>940.8</ele><time>2015-04-27T14:22:39.0000000+00:00</time></trkpt><trkpt lat="34.9819576" lon="32.784053"><ele>940.8</ele><time>2015-04-27T14:22:42.0000000+00:00</time></trkpt><trkpt lat="34.9820007" lon="32.7840797"><ele>940.8</ele><time>2015-04-27T14:22:44.0000000+00:00</time></trkpt><trkpt lat="34.9820444" lon="32.7841069"><ele>940.8</ele><time>2015-04-27T14:22:46.0000000+00:00</time></trkpt><trkpt lat="34.9820882" lon="32.7841274"><ele>941.3</ele><time>2015-04-27T14:22:48.0000000+00:00</time></trkpt><trkpt lat="34.9821504" lon="32.7841489"><ele>941.2</ele><time>2015-04-27T14:22:51.0000000+00:00</time></trkpt><trkpt lat="34.9822073" lon="32.7841785"><ele>941.7</ele><time>2015-04-27T14:22:54.0000000+00:00</time></trkpt><trkpt lat="34.982266" lon="32.7842045"><ele>941.8</ele><time>2015-04-27T14:22:57.0000000+00:00</time></trkpt><trkpt lat="34.9823186" lon="32.7842302"><ele>941.8</ele><time>2015-04-27T14:23:00.0000000+00:00</time></trkpt><trkpt lat="34.9823618" lon="32.7842527"><ele>942.3</ele><time>2015-04-27T14:23:03.0000000+00:00</time></trkpt><trkpt lat="34.9824136" lon="32.7842826"><ele>942.7</ele><time>2015-04-27T14:23:07.0000000+00:00</time></trkpt><trkpt lat="34.9824585" lon="32.7843293"><ele>942.8</ele><time>2015-04-27T14:23:11.0000000+00:00</time></trkpt><trkpt lat="34.9824961" lon="32.7843676"><ele>943.0</ele><time>2015-04-27T14:23:14.0000000+00:00</time></trkpt><trkpt lat="34.9825392" lon="32.7844056"><ele>943.5</ele><time>2015-04-27T14:23:17.0000000+00:00</time></trkpt><trkpt lat="34.9825812" lon="32.7844485"><ele>944.2</ele><time>2015-04-27T14:23:20.0000000+00:00</time></trkpt><trkpt lat="34.9826195" lon="32.7844904"><ele>943.8</ele><time>2015-04-27T14:23:23.0000000+00:00</time></trkpt><trkpt lat="34.9826625" lon="32.7845356"><ele>944.5</ele><time>2015-04-27T14:23:26.0000000+00:00</time></trkpt><trkpt lat="34.9826973" lon="32.7845785"><ele>944.7</ele><time>2015-04-27T14:23:28.0000000+00:00</time></trkpt><trkpt lat="34.9827311" lon="32.7846229"><ele>945.5</ele><time>2015-04-27T14:23:30.0000000+00:00</time></trkpt><trkpt lat="34.9827662" lon="32.7846654"><ele>946.4</ele><time>2015-04-27T14:23:32.0000000+00:00</time></trkpt><trkpt lat="34.9828042" lon="32.7847057"><ele>947.4</ele><time>2015-04-27T14:23:34.0000000+00:00</time></trkpt><trkpt lat="34.98284" lon="32.7847457"><ele>947.7</ele><time>2015-04-27T14:23:36.0000000+00:00</time></trkpt><trkpt lat="34.9828755" lon="32.7847891"><ele>947.5</ele><time>2015-04-27T14:23:38.0000000+00:00</time></trkpt><trkpt lat="34.9829096" lon="32.7848348"><ele>947.7</ele><time>2015-04-27T14:23:40.0000000+00:00</time></trkpt><trkpt lat="34.9829464" lon="32.7848776"><ele>948.5</ele><time>2015-04-27T14:23:42.0000000+00:00</time></trkpt><trkpt lat="34.9829803" lon="32.7849211"><ele>947.9</ele><time>2015-04-27T14:23:44.0000000+00:00</time></trkpt><trkpt lat="34.983009" lon="32.7849686"><ele>947.8</ele><time>2015-04-27T14:23:46.0000000+00:00</time></trkpt><trkpt lat="34.9830463" lon="32.7850203"><ele>948.5</ele><time>2015-04-27T14:23:48.0000000+00:00</time></trkpt><trkpt lat="34.9830834" lon="32.7850769"><ele>947.5</ele><time>2015-04-27T14:23:50.0000000+00:00</time></trkpt><trkpt lat="34.9831096" lon="32.7851322"><ele>946.9</ele><time>2015-04-27T14:23:52.0000000+00:00</time></trkpt><trkpt lat="34.9831133" lon="32.785205"><ele>945.5</ele><time>2015-04-27T14:23:55.0000000+00:00</time></trkpt><trkpt lat="34.9830873" lon="32.7852818"><ele>944.9</ele><time>2015-04-27T14:23:58.0000000+00:00</time></trkpt><trkpt lat="34.9830796" lon="32.7853504"><ele>944.8</ele><time>2015-04-27T14:24:00.0000000+00:00</time></trkpt><trkpt lat="34.9830761" lon="32.7854224"><ele>945.5</ele><time>2015-04-27T14:24:02.0000000+00:00</time></trkpt><trkpt lat="34.9830539" lon="32.7854857"><ele>945.7</ele><time>2015-04-27T14:24:04.0000000+00:00</time></trkpt><trkpt lat="34.983015" lon="32.7855369"><ele>945.2</ele><time>2015-04-27T14:24:06.0000000+00:00</time></trkpt><trkpt lat="34.9829714" lon="32.7855852"><ele>944.4</ele><time>2015-04-27T14:24:08.0000000+00:00</time></trkpt><trkpt lat="34.982929" lon="32.7856371"><ele>943.4</ele><time>2015-04-27T14:24:10.0000000+00:00</time></trkpt><trkpt lat="34.9828838" lon="32.7856983"><ele>942.9</ele><time>2015-04-27T14:24:12.0000000+00:00</time></trkpt><trkpt lat="34.9828455" lon="32.7857512"><ele>942.3</ele><time>2015-04-27T14:24:14.0000000+00:00</time></trkpt><trkpt lat="34.982805" lon="32.7857979"><ele>941.8</ele><time>2015-04-27T14:24:17.0000000+00:00</time></trkpt><trkpt lat="34.9827663" lon="32.7858498"><ele>941.7</ele><time>2015-04-27T14:24:22.0000000+00:00</time></trkpt><trkpt lat="34.9827201" lon="32.7858947"><ele>942.3</ele><time>2015-04-27T14:24:24.0000000+00:00</time></trkpt><trkpt lat="34.9826792" lon="32.7859278"><ele>942.1</ele><time>2015-04-27T14:24:26.0000000+00:00</time></trkpt><trkpt lat="34.982644" lon="32.7859636"><ele>942.7</ele><time>2015-04-27T14:24:29.0000000+00:00</time></trkpt><trkpt lat="34.9826055" lon="32.7860143"><ele>942.6</ele><time>2015-04-27T14:24:34.0000000+00:00</time></trkpt><trkpt lat="34.9825626" lon="32.7860599"><ele>943.2</ele><time>2015-04-27T14:24:36.0000000+00:00</time></trkpt><trkpt lat="34.9825242" lon="32.7861014"><ele>943.6</ele><time>2015-04-27T14:24:38.0000000+00:00</time></trkpt><trkpt lat="34.9824778" lon="32.7861345"><ele>944.3</ele><time>2015-04-27T14:24:42.0000000+00:00</time></trkpt><trkpt lat="34.9824407" lon="32.7861973"><ele>944.0</ele><time>2015-04-27T14:24:46.0000000+00:00</time></trkpt><trkpt lat="34.9824218" lon="32.7862626"><ele>943.8</ele><time>2015-04-27T14:24:48.0000000+00:00</time></trkpt><trkpt lat="34.982394" lon="32.7863085"><ele>943.8</ele><time>2015-04-27T14:24:50.0000000+00:00</time></trkpt><trkpt lat="34.982369" lon="32.7863562"><ele>944.5</ele><time>2015-04-27T14:24:52.0000000+00:00</time></trkpt><trkpt lat="34.9823531" lon="32.7864118"><ele>944.7</ele><time>2015-04-27T14:24:54.0000000+00:00</time></trkpt><trkpt lat="34.9823396" lon="32.7864696"><ele>944.7</ele><time>2015-04-27T14:24:56.0000000+00:00</time></trkpt><trkpt lat="34.982328" lon="32.786526"><ele>944.8</ele><time>2015-04-27T14:24:58.0000000+00:00</time></trkpt><trkpt lat="34.9823255" lon="32.7865832"><ele>944.8</ele><time>2015-04-27T14:25:00.0000000+00:00</time></trkpt><trkpt lat="34.9823209" lon="32.7866399"><ele>945.0</ele><time>2015-04-27T14:25:02.0000000+00:00</time></trkpt><trkpt lat="34.9823241" lon="32.7867193"><ele>945.5</ele><time>2015-04-27T14:25:05.0000000+00:00</time></trkpt><trkpt lat="34.9823358" lon="32.7867734"><ele>946.2</ele><time>2015-04-27T14:25:07.0000000+00:00</time></trkpt><trkpt lat="34.9823584" lon="32.7868462"><ele>948.1</ele><time>2015-04-27T14:25:10.0000000+00:00</time></trkpt><trkpt lat="34.9823908" lon="32.7869143"><ele>949.9</ele><time>2015-04-27T14:25:13.0000000+00:00</time></trkpt><trkpt lat="34.9824278" lon="32.7869747"><ele>951.2</ele><time>2015-04-27T14:25:16.0000000+00:00</time></trkpt><trkpt lat="34.9824682" lon="32.7870152"><ele>949.6</ele><time>2015-04-27T14:25:19.0000000+00:00</time></trkpt><trkpt lat="34.9825186" lon="32.7870408"><ele>949.7</ele><time>2015-04-27T14:25:22.0000000+00:00</time></trkpt><trkpt lat="34.9825768" lon="32.7870487"><ele>950.1</ele><time>2015-04-27T14:25:26.0000000+00:00</time></trkpt><trkpt lat="34.9826358" lon="32.7870454"><ele>950.9</ele><time>2015-04-27T14:25:29.0000000+00:00</time></trkpt><trkpt lat="34.9826883" lon="32.7870384"><ele>951.4</ele><time>2015-04-27T14:25:32.0000000+00:00</time></trkpt><trkpt lat="34.9827376" lon="32.7870276"><ele>952.5</ele><time>2015-04-27T14:25:35.0000000+00:00</time></trkpt><trkpt lat="34.9827824" lon="32.7870107"><ele>953.2</ele><time>2015-04-27T14:25:37.0000000+00:00</time></trkpt><trkpt lat="34.9828386" lon="32.7869837"><ele>953.2</ele><time>2015-04-27T14:25:40.0000000+00:00</time></trkpt><trkpt lat="34.982893" lon="32.7869555"><ele>952.8</ele><time>2015-04-27T14:25:44.0000000+00:00</time></trkpt><trkpt lat="34.9829343" lon="32.7869238"><ele>953.3</ele><time>2015-04-27T14:25:46.0000000+00:00</time></trkpt><trkpt lat="34.982979" lon="32.7868859"><ele>953.6</ele><time>2015-04-27T14:25:48.0000000+00:00</time></trkpt><trkpt lat="34.983028" lon="32.7868551"><ele>954.5</ele><time>2015-04-27T14:25:50.0000000+00:00</time></trkpt><trkpt lat="34.9830714" lon="32.7868388"><ele>953.9</ele><time>2015-04-27T14:25:53.0000000+00:00</time></trkpt><trkpt lat="34.9831196" lon="32.7868084"><ele>954.5</ele><time>2015-04-27T14:25:56.0000000+00:00</time></trkpt><trkpt lat="34.9831565" lon="32.7867711"><ele>954.8</ele><time>2015-04-27T14:26:00.0000000+00:00</time></trkpt><trkpt lat="34.9832051" lon="32.7867407"><ele>953.5</ele><time>2015-04-27T14:26:03.0000000+00:00</time></trkpt><trkpt lat="34.9832506" lon="32.786713"><ele>953.0</ele><time>2015-04-27T14:26:05.0000000+00:00</time></trkpt><trkpt lat="34.9833014" lon="32.7866882"><ele>952.3</ele><time>2015-04-27T14:26:08.0000000+00:00</time></trkpt><trkpt lat="34.9833526" lon="32.7866594"><ele>953.3</ele><time>2015-04-27T14:26:11.0000000+00:00</time></trkpt><trkpt lat="34.9834053" lon="32.786629"><ele>953.7</ele><time>2015-04-27T14:26:14.0000000+00:00</time></trkpt><trkpt lat="34.9834352" lon="32.7865787"><ele>952.8</ele><time>2015-04-27T14:26:18.0000000+00:00</time></trkpt><trkpt lat="34.9834548" lon="32.786507"><ele>951.9</ele><time>2015-04-27T14:26:22.0000000+00:00</time></trkpt><trkpt lat="34.9834712" lon="32.7864478"><ele>953.2</ele><time>2015-04-27T14:26:25.0000000+00:00</time></trkpt><trkpt lat="34.9834919" lon="32.7863854"><ele>954.6</ele><time>2015-04-27T14:26:28.0000000+00:00</time></trkpt><trkpt lat="34.9835141" lon="32.7863256"><ele>954.7</ele><time>2015-04-27T14:26:31.0000000+00:00</time></trkpt><trkpt lat="34.9835485" lon="32.7862761"><ele>955.7</ele><time>2015-04-27T14:26:35.0000000+00:00</time></trkpt><trkpt lat="34.983581" lon="32.7862216"><ele>956.7</ele><time>2015-04-27T14:26:39.0000000+00:00</time></trkpt><trkpt lat="34.9836142" lon="32.7861593"><ele>956.9</ele><time>2015-04-27T14:26:42.0000000+00:00</time></trkpt><trkpt lat="34.9836563" lon="32.786122"><ele>957.3</ele><time>2015-04-27T14:26:45.0000000+00:00</time></trkpt><trkpt lat="34.9837" lon="32.7860842"><ele>959.3</ele><time>2015-04-27T14:26:48.0000000+00:00</time></trkpt><trkpt lat="34.9837442" lon="32.7860508"><ele>958.5</ele><time>2015-04-27T14:26:51.0000000+00:00</time></trkpt><trkpt lat="34.9837996" lon="32.7860232"><ele>957.9</ele><time>2015-04-27T14:26:54.0000000+00:00</time></trkpt><trkpt lat="34.9838484" lon="32.7860087"><ele>957.5</ele><time>2015-04-27T14:26:57.0000000+00:00</time></trkpt><trkpt lat="34.9839013" lon="32.7859977"><ele>960.5</ele><time>2015-04-27T14:27:00.0000000+00:00</time></trkpt><trkpt lat="34.9839534" lon="32.7859982"><ele>961.5</ele><time>2015-04-27T14:27:03.0000000+00:00</time></trkpt><trkpt lat="34.9840097" lon="32.7859825"><ele>959.7</ele><time>2015-04-27T14:27:06.0000000+00:00</time></trkpt><trkpt lat="34.9840681" lon="32.7859668"><ele>959.0</ele><time>2015-04-27T14:27:08.0000000+00:00</time></trkpt><trkpt lat="34.9841205" lon="32.7859522"><ele>959.3</ele><time>2015-04-27T14:27:10.0000000+00:00</time></trkpt><trkpt lat="34.9841706" lon="32.785936"><ele>959.0</ele><time>2015-04-27T14:27:13.0000000+00:00</time></trkpt><trkpt lat="34.98423" lon="32.7859236"><ele>958.8</ele><time>2015-04-27T14:27:16.0000000+00:00</time></trkpt><trkpt lat="34.9842863" lon="32.7859181"><ele>958.5</ele><time>2015-04-27T14:27:19.0000000+00:00</time></trkpt><trkpt lat="34.9843437" lon="32.7859089"><ele>958.7</ele><time>2015-04-27T14:27:22.0000000+00:00</time></trkpt><trkpt lat="34.984399" lon="32.785907"><ele>960.5</ele><time>2015-04-27T14:27:25.0000000+00:00</time></trkpt><trkpt lat="34.9844516" lon="32.7859021"><ele>961.2</ele><time>2015-04-27T14:27:28.0000000+00:00</time></trkpt><trkpt lat="34.9844985" lon="32.7858848"><ele>960.9</ele><time>2015-04-27T14:27:31.0000000+00:00</time></trkpt><trkpt lat="34.9845468" lon="32.7858792"><ele>961.7</ele><time>2015-04-27T14:27:34.0000000+00:00</time></trkpt><trkpt lat="34.9846001" lon="32.785882"><ele>962.5</ele><time>2015-04-27T14:27:37.0000000+00:00</time></trkpt><trkpt lat="34.9846496" lon="32.7858981"><ele>962.2</ele><time>2015-04-27T14:27:40.0000000+00:00</time></trkpt><trkpt lat="34.9847097" lon="32.7859139"><ele>962.3</ele><time>2015-04-27T14:27:43.0000000+00:00</time></trkpt><trkpt lat="34.9847543" lon="32.7859236"><ele>962.2</ele><time>2015-04-27T14:27:45.0000000+00:00</time></trkpt><trkpt lat="34.984814" lon="32.7859385"><ele>962.3</ele><time>2015-04-27T14:27:48.0000000+00:00</time></trkpt><trkpt lat="34.9848778" lon="32.7859563"><ele>964.0</ele><time>2015-04-27T14:27:51.0000000+00:00</time></trkpt><trkpt lat="34.9849241" lon="32.7859739"><ele>964.6</ele><time>2015-04-27T14:27:53.0000000+00:00</time></trkpt><trkpt lat="34.9849679" lon="32.7859951"><ele>964.7</ele><time>2015-04-27T14:27:55.0000000+00:00</time></trkpt><trkpt lat="34.9850116" lon="32.7860188"><ele>965.0</ele><time>2015-04-27T14:27:57.0000000+00:00</time></trkpt><trkpt lat="34.9850664" lon="32.7860682"><ele>964.8</ele><time>2015-04-27T14:28:00.0000000+00:00</time></trkpt><trkpt lat="34.9850956" lon="32.7861183"><ele>964.0</ele><time>2015-04-27T14:28:02.0000000+00:00</time></trkpt><trkpt lat="34.9851232" lon="32.7861644"><ele>963.8</ele><time>2015-04-27T14:28:04.0000000+00:00</time></trkpt><trkpt lat="34.9851566" lon="32.7862199"><ele>965.2</ele><time>2015-04-27T14:28:08.0000000+00:00</time></trkpt><trkpt lat="34.9851715" lon="32.786275"><ele>965.7</ele><time>2015-04-27T14:28:11.0000000+00:00</time></trkpt><trkpt lat="34.9851846" lon="32.7863373"><ele>965.3</ele><time>2015-04-27T14:28:14.0000000+00:00</time></trkpt><trkpt lat="34.9851918" lon="32.7864051"><ele>964.3</ele><time>2015-04-27T14:28:17.0000000+00:00</time></trkpt><trkpt lat="34.9851992" lon="32.7864757"><ele>964.7</ele><time>2015-04-27T14:28:20.0000000+00:00</time></trkpt><trkpt lat="34.9851994" lon="32.7865337"><ele>964.8</ele><time>2015-04-27T14:28:23.0000000+00:00</time></trkpt><trkpt lat="34.9851987" lon="32.7865918"><ele>964.0</ele><time>2015-04-27T14:28:26.0000000+00:00</time></trkpt><trkpt lat="34.985205" lon="32.786653"><ele>964.3</ele><time>2015-04-27T14:28:29.0000000+00:00</time></trkpt><trkpt lat="34.9852133" lon="32.786709"><ele>966.0</ele><time>2015-04-27T14:28:32.0000000+00:00</time></trkpt><trkpt lat="34.9852398" lon="32.7867678"><ele>968.0</ele><time>2015-04-27T14:28:36.0000000+00:00</time></trkpt><trkpt lat="34.9852638" lon="32.7868206"><ele>969.5</ele><time>2015-04-27T14:28:39.0000000+00:00</time></trkpt><trkpt lat="34.985299" lon="32.7868644"><ele>970.6</ele><time>2015-04-27T14:28:42.0000000+00:00</time></trkpt><trkpt lat="34.9853479" lon="32.786906"><ele>971.3</ele><time>2015-04-27T14:28:46.0000000+00:00</time></trkpt><trkpt lat="34.985396" lon="32.7869262"><ele>972.5</ele><time>2015-04-27T14:28:49.0000000+00:00</time></trkpt><trkpt lat="34.9854479" lon="32.7869374"><ele>972.7</ele><time>2015-04-27T14:28:52.0000000+00:00</time></trkpt><trkpt lat="34.9855042" lon="32.7869526"><ele>973.0</ele><time>2015-04-27T14:28:55.0000000+00:00</time></trkpt><trkpt lat="34.9855606" lon="32.7869667"><ele>973.3</ele><time>2015-04-27T14:28:57.0000000+00:00</time></trkpt><trkpt lat="34.9856061" lon="32.7869717"><ele>973.7</ele><time>2015-04-27T14:28:59.0000000+00:00</time></trkpt><trkpt lat="34.985651" lon="32.7869435"><ele>977.3</ele><time>2015-04-27T14:29:23.0000000+00:00</time></trkpt><trkpt lat="34.9857007" lon="32.7869189"><ele>976.1</ele><time>2015-04-27T14:29:26.0000000+00:00</time></trkpt><trkpt lat="34.985758" lon="32.7869125"><ele>975.8</ele><time>2015-04-27T14:29:30.0000000+00:00</time></trkpt><trkpt lat="34.9858039" lon="32.7868831"><ele>975.8</ele><time>2015-04-27T14:29:33.0000000+00:00</time></trkpt><trkpt lat="34.9858496" lon="32.786883"><ele>974.1</ele><time>2015-04-27T14:29:36.0000000+00:00</time></trkpt><trkpt lat="34.985906" lon="32.7868836"><ele>972.6</ele><time>2015-04-27T14:29:40.0000000+00:00</time></trkpt><trkpt lat="34.9859549" lon="32.7868926"><ele>972.1</ele><time>2015-04-27T14:29:44.0000000+00:00</time></trkpt><trkpt lat="34.9860038" lon="32.7869089"><ele>972.7</ele><time>2015-04-27T14:29:48.0000000+00:00</time></trkpt><trkpt lat="34.9860468" lon="32.7869405"><ele>973.9</ele><time>2015-04-27T14:29:52.0000000+00:00</time></trkpt><trkpt lat="34.9861008" lon="32.7869655"><ele>976.3</ele><time>2015-04-27T14:29:56.0000000+00:00</time></trkpt><trkpt lat="34.9861336" lon="32.7870034"><ele>976.8</ele><time>2015-04-27T14:29:59.0000000+00:00</time></trkpt><trkpt lat="34.9861647" lon="32.7870458"><ele>976.8</ele><time>2015-04-27T14:30:02.0000000+00:00</time></trkpt><trkpt lat="34.9862018" lon="32.7870977"><ele>976.8</ele><time>2015-04-27T14:30:06.0000000+00:00</time></trkpt><trkpt lat="34.9862325" lon="32.7871382"><ele>977.0</ele><time>2015-04-27T14:30:09.0000000+00:00</time></trkpt><trkpt lat="34.9862626" lon="32.7871949"><ele>978.4</ele><time>2015-04-27T14:30:13.0000000+00:00</time></trkpt><trkpt lat="34.9863021" lon="32.7872493"><ele>980.2</ele><time>2015-04-27T14:30:17.0000000+00:00</time></trkpt><trkpt lat="34.9863323" lon="32.7872969"><ele>981.9</ele><time>2015-04-27T14:30:20.0000000+00:00</time></trkpt><trkpt lat="34.9863631" lon="32.7873402"><ele>982.9</ele><time>2015-04-27T14:30:23.0000000+00:00</time></trkpt><trkpt lat="34.9863989" lon="32.7873737"><ele>982.8</ele><time>2015-04-27T14:30:26.0000000+00:00</time></trkpt><trkpt lat="34.9864438" lon="32.7873874"><ele>985.3</ele><time>2015-04-27T14:30:29.0000000+00:00</time></trkpt><trkpt lat="34.9864905" lon="32.7873858"><ele>985.7</ele><time>2015-04-27T14:30:32.0000000+00:00</time></trkpt><trkpt lat="34.9865376" lon="32.787348"><ele>984.6</ele><time>2015-04-27T14:30:36.0000000+00:00</time></trkpt><trkpt lat="34.9865871" lon="32.7872942"><ele>985.2</ele><time>2015-04-27T14:30:39.0000000+00:00</time></trkpt><trkpt lat="34.986615" lon="32.7872458"><ele>985.1</ele><time>2015-04-27T14:30:42.0000000+00:00</time></trkpt><trkpt lat="34.9866491" lon="32.7871877"><ele>986.2</ele><time>2015-04-27T14:30:46.0000000+00:00</time></trkpt><trkpt lat="34.9866804" lon="32.7871367"><ele>987.4</ele><time>2015-04-27T14:30:49.0000000+00:00</time></trkpt><trkpt lat="34.9867147" lon="32.7870897"><ele>988.1</ele><time>2015-04-27T14:30:52.0000000+00:00</time></trkpt><trkpt lat="34.9867613" lon="32.7870536"><ele>986.7</ele><time>2015-04-27T14:30:55.0000000+00:00</time></trkpt><trkpt lat="34.9868204" lon="32.7870264"><ele>985.9</ele><time>2015-04-27T14:30:58.0000000+00:00</time></trkpt><trkpt lat="34.9868762" lon="32.7870129"><ele>985.0</ele><time>2015-04-27T14:31:00.0000000+00:00</time></trkpt><trkpt lat="34.9869349" lon="32.7870015"><ele>984.8</ele><time>2015-04-27T14:31:02.0000000+00:00</time></trkpt><trkpt lat="34.9869944" lon="32.7869998"><ele>984.0</ele><time>2015-04-27T14:31:04.0000000+00:00</time></trkpt><trkpt lat="34.9870459" lon="32.7870103"><ele>983.8</ele><time>2015-04-27T14:31:06.0000000+00:00</time></trkpt><trkpt lat="34.9870982" lon="32.7870364"><ele>982.3</ele><time>2015-04-27T14:31:09.0000000+00:00</time></trkpt><trkpt lat="34.9871524" lon="32.7870638"><ele>983.5</ele><time>2015-04-27T14:31:13.0000000+00:00</time></trkpt><trkpt lat="34.987206" lon="32.7871026"><ele>985.9</ele><time>2015-04-27T14:31:16.0000000+00:00</time></trkpt><trkpt lat="34.9872441" lon="32.7871366"><ele>987.0</ele><time>2015-04-27T14:31:18.0000000+00:00</time></trkpt><trkpt lat="34.9872959" lon="32.7871711"><ele>986.0</ele><time>2015-04-27T14:31:22.0000000+00:00</time></trkpt><trkpt lat="34.9873382" lon="32.7872066"><ele>988.0</ele><time>2015-04-27T14:31:25.0000000+00:00</time></trkpt><trkpt lat="34.9873818" lon="32.787251"><ele>989.3</ele><time>2015-04-27T14:31:28.0000000+00:00</time></trkpt><trkpt lat="34.9874369" lon="32.7873057"><ele>987.2</ele><time>2015-04-27T14:31:31.0000000+00:00</time></trkpt><trkpt lat="34.9874738" lon="32.7873476"><ele>987.4</ele><time>2015-04-27T14:31:33.0000000+00:00</time></trkpt><trkpt lat="34.9875202" lon="32.7874007"><ele>987.6</ele><time>2015-04-27T14:31:36.0000000+00:00</time></trkpt><trkpt lat="34.9875689" lon="32.7874473"><ele>987.0</ele><time>2015-04-27T14:31:39.0000000+00:00</time></trkpt><trkpt lat="34.9876057" lon="32.7874802"><ele>986.8</ele><time>2015-04-27T14:31:42.0000000+00:00</time></trkpt><trkpt lat="34.9876416" lon="32.7875152"><ele>988.6</ele><time>2015-04-27T14:31:45.0000000+00:00</time></trkpt><trkpt lat="34.9876839" lon="32.78756"><ele>988.7</ele><time>2015-04-27T14:31:47.0000000+00:00</time></trkpt><trkpt lat="34.9877329" lon="32.7875997"><ele>988.8</ele><time>2015-04-27T14:31:49.0000000+00:00</time></trkpt><trkpt lat="34.9877801" lon="32.787634"><ele>990.0</ele><time>2015-04-27T14:31:51.0000000+00:00</time></trkpt><trkpt lat="34.987828" lon="32.7876638"><ele>990.1</ele><time>2015-04-27T14:31:53.0000000+00:00</time></trkpt><trkpt lat="34.9878776" lon="32.7876888"><ele>991.1</ele><time>2015-04-27T14:31:55.0000000+00:00</time></trkpt><trkpt lat="34.9879254" lon="32.7877212"><ele>990.9</ele><time>2015-04-27T14:31:58.0000000+00:00</time></trkpt><trkpt lat="34.9879841" lon="32.7877652"><ele>990.8</ele><time>2015-04-27T14:32:01.0000000+00:00</time></trkpt><trkpt lat="34.9880315" lon="32.7877957"><ele>990.8</ele><time>2015-04-27T14:32:03.0000000+00:00</time></trkpt><trkpt lat="34.9880704" lon="32.7878276"><ele>990.8</ele><time>2015-04-27T14:32:05.0000000+00:00</time></trkpt><trkpt lat="34.9881098" lon="32.7878591"><ele>991.0</ele><time>2015-04-27T14:32:07.0000000+00:00</time></trkpt><trkpt lat="34.9881528" lon="32.7878896"><ele>991.3</ele><time>2015-04-27T14:32:09.0000000+00:00</time></trkpt><trkpt lat="34.9881924" lon="32.787922"><ele>991.7</ele><time>2015-04-27T14:32:11.0000000+00:00</time></trkpt><trkpt lat="34.988229" lon="32.7879556"><ele>991.4</ele><time>2015-04-27T14:32:14.0000000+00:00</time></trkpt><trkpt lat="34.9882688" lon="32.7879865"><ele>991.7</ele><time>2015-04-27T14:32:17.0000000+00:00</time></trkpt><trkpt lat="34.9883143" lon="32.7880349"><ele>992.3</ele><time>2015-04-27T14:32:21.0000000+00:00</time></trkpt><trkpt lat="34.9883509" lon="32.788075"><ele>992.2</ele><time>2015-04-27T14:32:24.0000000+00:00</time></trkpt><trkpt lat="34.9883916" lon="32.7881201"><ele>990.9</ele><time>2015-04-27T14:32:27.0000000+00:00</time></trkpt><trkpt lat="34.9884284" lon="32.788169"><ele>992.2</ele><time>2015-04-27T14:32:30.0000000+00:00</time></trkpt><trkpt lat="34.988476" lon="32.7882298"><ele>992.7</ele><time>2015-04-27T14:32:33.0000000+00:00</time></trkpt><trkpt lat="34.9885117" lon="32.7882731"><ele>992.0</ele><time>2015-04-27T14:32:35.0000000+00:00</time></trkpt><trkpt lat="34.9885621" lon="32.7883248"><ele>991.8</ele><time>2015-04-27T14:32:38.0000000+00:00</time></trkpt><trkpt lat="34.9886011" lon="32.788358"><ele>992.5</ele><time>2015-04-27T14:32:40.0000000+00:00</time></trkpt><trkpt lat="34.9886561" lon="32.7884"><ele>992.7</ele><time>2015-04-27T14:32:43.0000000+00:00</time></trkpt><trkpt lat="34.9887125" lon="32.7884379"><ele>992.8</ele><time>2015-04-27T14:32:46.0000000+00:00</time></trkpt><trkpt lat="34.9887756" lon="32.7884518"><ele>994.1</ele><time>2015-04-27T14:32:49.0000000+00:00</time></trkpt><trkpt lat="34.9888247" lon="32.7884603"><ele>993.8</ele><time>2015-04-27T14:32:52.0000000+00:00</time></trkpt><trkpt lat="34.9888749" lon="32.7884639"><ele>994.3</ele><time>2015-04-27T14:32:54.0000000+00:00</time></trkpt><trkpt lat="34.9889199" lon="32.7884678"><ele>994.6</ele><time>2015-04-27T14:32:56.0000000+00:00</time></trkpt><trkpt lat="34.9889729" lon="32.7884657"><ele>995.5</ele><time>2015-04-27T14:32:59.0000000+00:00</time></trkpt><trkpt lat="34.9890395" lon="32.7884671"><ele>996.6</ele><time>2015-04-27T14:33:02.0000000+00:00</time></trkpt><trkpt lat="34.9890854" lon="32.7884688"><ele>996.7</ele><time>2015-04-27T14:33:04.0000000+00:00</time></trkpt><trkpt lat="34.9891471" lon="32.7884652"><ele>997.0</ele><time>2015-04-27T14:33:07.0000000+00:00</time></trkpt><trkpt lat="34.9891936" lon="32.7884605"><ele>996.8</ele><time>2015-04-27T14:33:10.0000000+00:00</time></trkpt><trkpt lat="34.9892579" lon="32.7884571"><ele>997.6</ele><time>2015-04-27T14:33:13.0000000+00:00</time></trkpt><trkpt lat="34.9893218" lon="32.7884515"><ele>998.2</ele><time>2015-04-27T14:33:16.0000000+00:00</time></trkpt><trkpt lat="34.9893812" lon="32.7884461"><ele>998.6</ele><time>2015-04-27T14:33:18.0000000+00:00</time></trkpt><trkpt lat="34.9894394" lon="32.7884491"><ele>998.7</ele><time>2015-04-27T14:33:20.0000000+00:00</time></trkpt><trkpt lat="34.9894907" lon="32.7884602"><ele>998.5</ele><time>2015-04-27T14:33:22.0000000+00:00</time></trkpt><trkpt lat="34.9895393" lon="32.7884681"><ele>998.2</ele><time>2015-04-27T14:33:24.0000000+00:00</time></trkpt><trkpt lat="34.9895963" lon="32.7884871"><ele>997.4</ele><time>2015-04-27T14:33:27.0000000+00:00</time></trkpt><trkpt lat="34.9896471" lon="32.7885136"><ele>998.3</ele><time>2015-04-27T14:33:30.0000000+00:00</time></trkpt><trkpt lat="34.9897056" lon="32.788545"><ele>998.7</ele><time>2015-04-27T14:33:33.0000000+00:00</time></trkpt><trkpt lat="34.9897488" lon="32.7885737"><ele>999.5</ele><time>2015-04-27T14:33:35.0000000+00:00</time></trkpt><trkpt lat="34.9898196" lon="32.7886193"><ele>1000.2</ele><time>2015-04-27T14:33:37.0000000+00:00</time></trkpt><trkpt lat="34.9898893" lon="32.7886627"><ele>1000.9</ele><time>2015-04-27T14:33:39.0000000+00:00</time></trkpt><trkpt lat="34.9899542" lon="32.7886977"><ele>1001.5</ele><time>2015-04-27T14:33:41.0000000+00:00</time></trkpt><trkpt lat="34.9899988" lon="32.7887259"><ele>1001.2</ele><time>2015-04-27T14:33:43.0000000+00:00</time></trkpt><trkpt lat="34.9900427" lon="32.7887509"><ele>1001.1</ele><time>2015-04-27T14:33:45.0000000+00:00</time></trkpt><trkpt lat="34.9900932" lon="32.7887697"><ele>1000.9</ele><time>2015-04-27T14:33:47.0000000+00:00</time></trkpt><trkpt lat="34.990139" lon="32.7887816"><ele>1000.8</ele><time>2015-04-27T14:33:49.0000000+00:00</time></trkpt><trkpt lat="34.990191" lon="32.7888088"><ele>1000.8</ele><time>2015-04-27T14:33:53.0000000+00:00</time></trkpt><trkpt lat="34.9902348" lon="32.7888376"><ele>1000.5</ele><time>2015-04-27T14:33:55.0000000+00:00</time></trkpt><trkpt lat="34.9902919" lon="32.7888764"><ele>1000.0</ele><time>2015-04-27T14:33:57.0000000+00:00</time></trkpt><trkpt lat="34.9903359" lon="32.7889126"><ele>1000.6</ele><time>2015-04-27T14:33:59.0000000+00:00</time></trkpt><trkpt lat="34.990384" lon="32.7889597"><ele>1000.3</ele><time>2015-04-27T14:34:03.0000000+00:00</time></trkpt><trkpt lat="34.990432" lon="32.7890144"><ele>999.1</ele><time>2015-04-27T14:34:06.0000000+00:00</time></trkpt><trkpt lat="34.9904553" lon="32.789074"><ele>998.1</ele><time>2015-04-27T14:34:09.0000000+00:00</time></trkpt><trkpt lat="34.9904571" lon="32.7891395"><ele>999.2</ele><time>2015-04-27T14:34:12.0000000+00:00</time></trkpt><trkpt lat="34.990444" lon="32.7892151"><ele>999.2</ele><time>2015-04-27T14:34:15.0000000+00:00</time></trkpt><trkpt lat="34.9904221" lon="32.7892703"><ele>999.2</ele><time>2015-04-27T14:34:18.0000000+00:00</time></trkpt><trkpt lat="34.9903897" lon="32.7893328"><ele>999.7</ele><time>2015-04-27T14:34:21.0000000+00:00</time></trkpt><trkpt lat="34.9903543" lon="32.7893686"><ele>999.7</ele><time>2015-04-27T14:34:23.0000000+00:00</time></trkpt><trkpt lat="34.9902977" lon="32.7893927"><ele>1000.3</ele><time>2015-04-27T14:34:26.0000000+00:00</time></trkpt><trkpt lat="34.9902367" lon="32.7894345"><ele>1000.7</ele><time>2015-04-27T14:34:29.0000000+00:00</time></trkpt><trkpt lat="34.9901953" lon="32.7894587"><ele>1000.7</ele><time>2015-04-27T14:34:31.0000000+00:00</time></trkpt><trkpt lat="34.9901461" lon="32.7894741"><ele>1001.3</ele><time>2015-04-27T14:34:34.0000000+00:00</time></trkpt><trkpt lat="34.9900929" lon="32.7894841"><ele>1002.2</ele><time>2015-04-27T14:34:37.0000000+00:00</time></trkpt><trkpt lat="34.9900412" lon="32.7895011"><ele>1002.6</ele><time>2015-04-27T14:34:40.0000000+00:00</time></trkpt><trkpt lat="34.9899796" lon="32.789521"><ele>1002.1</ele><time>2015-04-27T14:34:43.0000000+00:00</time></trkpt><trkpt lat="34.9899197" lon="32.7895273"><ele>1001.9</ele><time>2015-04-27T14:34:45.0000000+00:00</time></trkpt><trkpt lat="34.9898598" lon="32.7895443"><ele>1001.8</ele><time>2015-04-27T14:34:47.0000000+00:00</time></trkpt><trkpt lat="34.9898029" lon="32.789563"><ele>1001.8</ele><time>2015-04-27T14:34:49.0000000+00:00</time></trkpt><trkpt lat="34.9897563" lon="32.7895806"><ele>1002.3</ele><time>2015-04-27T14:34:51.0000000+00:00</time></trkpt><trkpt lat="34.9896948" lon="32.7896169"><ele>1002.7</ele><time>2015-04-27T14:34:54.0000000+00:00</time></trkpt><trkpt lat="34.9896451" lon="32.7896408"><ele>1003.0</ele><time>2015-04-27T14:34:56.0000000+00:00</time></trkpt><trkpt lat="34.9895955" lon="32.7896646"><ele>1002.8</ele><time>2015-04-27T14:34:58.0000000+00:00</time></trkpt><trkpt lat="34.989549" lon="32.7896881"><ele>1003.5</ele><time>2015-04-27T14:35:00.0000000+00:00</time></trkpt><trkpt lat="34.9895045" lon="32.7897163"><ele>1003.5</ele><time>2015-04-27T14:35:02.0000000+00:00</time></trkpt><trkpt lat="34.9894636" lon="32.7897464"><ele>1003.7</ele><time>2015-04-27T14:35:04.0000000+00:00</time></trkpt><trkpt lat="34.9894121" lon="32.7897844"><ele>1002.9</ele><time>2015-04-27T14:35:07.0000000+00:00</time></trkpt><trkpt lat="34.989377" lon="32.7898236"><ele>1002.8</ele><time>2015-04-27T14:35:09.0000000+00:00</time></trkpt><trkpt lat="34.9893498" lon="32.7898747"><ele>1002.8</ele><time>2015-04-27T14:35:11.0000000+00:00</time></trkpt><trkpt lat="34.9893244" lon="32.7899236"><ele>1002.8</ele><time>2015-04-27T14:35:13.0000000+00:00</time></trkpt><trkpt lat="34.989298" lon="32.7899831"><ele>1002.0</ele><time>2015-04-27T14:35:16.0000000+00:00</time></trkpt><trkpt lat="34.9892732" lon="32.7900488"><ele>1002.3</ele><time>2015-04-27T14:35:19.0000000+00:00</time></trkpt><trkpt lat="34.9892656" lon="32.7901059"><ele>1002.6</ele><time>2015-04-27T14:35:21.0000000+00:00</time></trkpt><trkpt lat="34.9892639" lon="32.7901684"><ele>1003.0</ele><time>2015-04-27T14:35:23.0000000+00:00</time></trkpt><trkpt lat="34.9892605" lon="32.790228"><ele>1002.8</ele><time>2015-04-27T14:35:25.0000000+00:00</time></trkpt><trkpt lat="34.9892544" lon="32.7902985"><ele>1002.8</ele><time>2015-04-27T14:35:28.0000000+00:00</time></trkpt><trkpt lat="34.9892391" lon="32.7903626"><ele>1002.6</ele><time>2015-04-27T14:35:32.0000000+00:00</time></trkpt><trkpt lat="34.9892185" lon="32.7904352"><ele>1002.5</ele><time>2015-04-27T14:35:35.0000000+00:00</time></trkpt><trkpt lat="34.9892023" lon="32.790491"><ele>1002.7</ele><time>2015-04-27T14:35:37.0000000+00:00</time></trkpt><trkpt lat="34.9891865" lon="32.7905578"><ele>1002.3</ele><time>2015-04-27T14:35:40.0000000+00:00</time></trkpt><trkpt lat="34.9891598" lon="32.7906179"><ele>1001.8</ele><time>2015-04-27T14:35:43.0000000+00:00</time></trkpt><trkpt lat="34.9891244" lon="32.7906817"><ele>1002.5</ele><time>2015-04-27T14:35:46.0000000+00:00</time></trkpt><trkpt lat="34.9890772" lon="32.7907352"><ele>1002.7</ele><time>2015-04-27T14:35:49.0000000+00:00</time></trkpt><trkpt lat="34.9890426" lon="32.7907723"><ele>1002.8</ele><time>2015-04-27T14:35:51.0000000+00:00</time></trkpt><trkpt lat="34.9889866" lon="32.790815"><ele>1002.8</ele><time>2015-04-27T14:35:54.0000000+00:00</time></trkpt><trkpt lat="34.9889262" lon="32.7908498"><ele>1004.0</ele><time>2015-04-27T14:35:57.0000000+00:00</time></trkpt><trkpt lat="34.9888827" lon="32.7908668"><ele>1004.6</ele><time>2015-04-27T14:35:59.0000000+00:00</time></trkpt><trkpt lat="34.9888375" lon="32.7908712"><ele>1004.7</ele><time>2015-04-27T14:36:01.0000000+00:00</time></trkpt><trkpt lat="34.9887911" lon="32.7908716"><ele>1004.8</ele><time>2015-04-27T14:36:03.0000000+00:00</time></trkpt><trkpt lat="34.9887346" lon="32.7908621"><ele>1004.8</ele><time>2015-04-27T14:36:05.0000000+00:00</time></trkpt><trkpt lat="34.9886745" lon="32.7908341"><ele>1004.8</ele><time>2015-04-27T14:36:07.0000000+00:00</time></trkpt><trkpt lat="34.988624" lon="32.7907941"><ele>1005.3</ele><time>2015-04-27T14:36:09.0000000+00:00</time></trkpt><trkpt lat="34.9885825" lon="32.7907603"><ele>1005.6</ele><time>2015-04-27T14:36:11.0000000+00:00</time></trkpt><trkpt lat="34.9885314" lon="32.7907238"><ele>1005.7</ele><time>2015-04-27T14:36:14.0000000+00:00</time></trkpt><trkpt lat="34.9884796" lon="32.7906903"><ele>1005.8</ele><time>2015-04-27T14:36:17.0000000+00:00</time></trkpt><trkpt lat="34.9884258" lon="32.7906474"><ele>1005.8</ele><time>2015-04-27T14:36:19.0000000+00:00</time></trkpt><trkpt lat="34.9883602" lon="32.7906048"><ele>1007.0</ele><time>2015-04-27T14:36:21.0000000+00:00</time></trkpt><trkpt lat="34.9882988" lon="32.7905746"><ele>1007.6</ele><time>2015-04-27T14:36:23.0000000+00:00</time></trkpt><trkpt lat="34.9882392" lon="32.7905634"><ele>1007.7</ele><time>2015-04-27T14:36:26.0000000+00:00</time></trkpt><trkpt lat="34.9881886" lon="32.7905763"><ele>1007.8</ele><time>2015-04-27T14:36:29.0000000+00:00</time></trkpt><trkpt lat="34.9881324" lon="32.7905939"><ele>1006.9</ele><time>2015-04-27T14:36:32.0000000+00:00</time></trkpt><trkpt lat="34.9880836" lon="32.7906201"><ele>1006.8</ele><time>2015-04-27T14:36:35.0000000+00:00</time></trkpt><trkpt lat="34.9880577" lon="32.7906887"><ele>1005.9</ele><time>2015-04-27T14:36:38.0000000+00:00</time></trkpt><trkpt lat="34.9880068" lon="32.7906969"><ele>999.8</ele><time>2015-04-27T14:40:14.0000000+00:00</time></trkpt><trkpt lat="34.9879648" lon="32.7907349"><ele>1001.5</ele><time>2015-04-27T14:40:32.0000000+00:00</time></trkpt><trkpt lat="34.9879393" lon="32.7907946"><ele>1002.5</ele><time>2015-04-27T14:40:35.0000000+00:00</time></trkpt><trkpt lat="34.9879096" lon="32.7908468"><ele>1002.7</ele><time>2015-04-27T14:40:38.0000000+00:00</time></trkpt><trkpt lat="34.9878805" lon="32.7908944"><ele>1004.6</ele><time>2015-04-27T14:40:44.0000000+00:00</time></trkpt><trkpt lat="34.987865" lon="32.7909657"><ele>1006.2</ele><time>2015-04-27T14:40:49.0000000+00:00</time></trkpt><trkpt lat="34.9878465" lon="32.7910232"><ele>1006.7</ele><time>2015-04-27T14:40:52.0000000+00:00</time></trkpt><trkpt lat="34.9878353" lon="32.7910791"><ele>1006.8</ele><time>2015-04-27T14:40:55.0000000+00:00</time></trkpt><trkpt lat="34.9878312" lon="32.7911508"><ele>1007.5</ele><time>2015-04-27T14:40:58.0000000+00:00</time></trkpt><trkpt lat="34.9878337" lon="32.7912147"><ele>1007.7</ele><time>2015-04-27T14:41:02.0000000+00:00</time></trkpt><trkpt lat="34.9878537" lon="32.7912715"><ele>1007.8</ele><time>2015-04-27T14:41:06.0000000+00:00</time></trkpt><trkpt lat="34.9878733" lon="32.7913314"><ele>1006.8</ele><time>2015-04-27T14:41:09.0000000+00:00</time></trkpt><trkpt lat="34.9878937" lon="32.7913954"><ele>1006.8</ele><time>2015-04-27T14:41:12.0000000+00:00</time></trkpt><trkpt lat="34.987912" lon="32.7914515"><ele>1007.3</ele><time>2015-04-27T14:41:15.0000000+00:00</time></trkpt><trkpt lat="34.987933" lon="32.7915027"><ele>1007.2</ele><time>2015-04-27T14:41:18.0000000+00:00</time></trkpt><trkpt lat="34.9879546" lon="32.7915534"><ele>1006.8</ele><time>2015-04-27T14:41:21.0000000+00:00</time></trkpt><trkpt lat="34.9879756" lon="32.7916064"><ele>1007.3</ele><time>2015-04-27T14:41:25.0000000+00:00</time></trkpt><trkpt lat="34.9879817" lon="32.7916709"><ele>1008.6</ele><time>2015-04-27T14:41:28.0000000+00:00</time></trkpt><trkpt lat="34.9879948" lon="32.7917464"><ele>1009.6</ele><time>2015-04-27T14:41:31.0000000+00:00</time></trkpt><trkpt lat="34.988019" lon="32.7918101"><ele>1009.7</ele><time>2015-04-27T14:41:34.0000000+00:00</time></trkpt><trkpt lat="34.9880433" lon="32.7918944"><ele>1009.6</ele><time>2015-04-27T14:41:37.0000000+00:00</time></trkpt><trkpt lat="34.9880586" lon="32.7919678"><ele>1009.7</ele><time>2015-04-27T14:41:39.0000000+00:00</time></trkpt><trkpt lat="34.9880748" lon="32.7920434"><ele>1009.8</ele><time>2015-04-27T14:41:41.0000000+00:00</time></trkpt><trkpt lat="34.9880944" lon="32.7921143"><ele>1010.5</ele><time>2015-04-27T14:41:43.0000000+00:00</time></trkpt><trkpt lat="34.9881071" lon="32.7921866"><ele>1011.0</ele><time>2015-04-27T14:41:45.0000000+00:00</time></trkpt><trkpt lat="34.9881215" lon="32.7922626"><ele>1010.3</ele><time>2015-04-27T14:41:47.0000000+00:00</time></trkpt><trkpt lat="34.9881344" lon="32.79234"><ele>1011.2</ele><time>2015-04-27T14:41:49.0000000+00:00</time></trkpt><trkpt lat="34.9881572" lon="32.7924158"><ele>1012.1</ele><time>2015-04-27T14:41:51.0000000+00:00</time></trkpt><trkpt lat="34.9881888" lon="32.7924883"><ele>1012.9</ele><time>2015-04-27T14:41:53.0000000+00:00</time></trkpt><trkpt lat="34.9882272" lon="32.7925492"><ele>1012.8</ele><time>2015-04-27T14:41:55.0000000+00:00</time></trkpt><trkpt lat="34.9882732" lon="32.7925923"><ele>1012.3</ele><time>2015-04-27T14:41:57.0000000+00:00</time></trkpt><trkpt lat="34.9883302" lon="32.7926303"><ele>1011.1</ele><time>2015-04-27T14:41:59.0000000+00:00</time></trkpt><trkpt lat="34.9883946" lon="32.7926692"><ele>1009.6</ele><time>2015-04-27T14:42:01.0000000+00:00</time></trkpt><trkpt lat="34.9884565" lon="32.7927089"><ele>1009.2</ele><time>2015-04-27T14:42:03.0000000+00:00</time></trkpt><trkpt lat="34.988515" lon="32.7927462"><ele>1008.9</ele><time>2015-04-27T14:42:05.0000000+00:00</time></trkpt><trkpt lat="34.9885717" lon="32.7927859"><ele>1009.0</ele><time>2015-04-27T14:42:07.0000000+00:00</time></trkpt><trkpt lat="34.9886197" lon="32.7928282"><ele>1008.8</ele><time>2015-04-27T14:42:09.0000000+00:00</time></trkpt><trkpt lat="34.9886585" lon="32.7928788"><ele>1009.3</ele><time>2015-04-27T14:42:11.0000000+00:00</time></trkpt><trkpt lat="34.9886961" lon="32.7929334"><ele>1010.1</ele><time>2015-04-27T14:42:13.0000000+00:00</time></trkpt><trkpt lat="34.9887354" lon="32.7929937"><ele>1010.6</ele><time>2015-04-27T14:42:15.0000000+00:00</time></trkpt><trkpt lat="34.988774" lon="32.7930556"><ele>1011.2</ele><time>2015-04-27T14:42:17.0000000+00:00</time></trkpt><trkpt lat="34.9888066" lon="32.7931251"><ele>1011.6</ele><time>2015-04-27T14:42:19.0000000+00:00</time></trkpt><trkpt lat="34.9888337" lon="32.793203"><ele>1012.5</ele><time>2015-04-27T14:42:21.0000000+00:00</time></trkpt><trkpt lat="34.988863" lon="32.7932831"><ele>1012.7</ele><time>2015-04-27T14:42:23.0000000+00:00</time></trkpt><trkpt lat="34.9888924" lon="32.7933733"><ele>1012.7</ele><time>2015-04-27T14:42:25.0000000+00:00</time></trkpt><trkpt lat="34.988914" lon="32.7934655"><ele>1013.3</ele><time>2015-04-27T14:42:27.0000000+00:00</time></trkpt><trkpt lat="34.988935" lon="32.7935547"><ele>1012.6</ele><time>2015-04-27T14:42:29.0000000+00:00</time></trkpt><trkpt lat="34.9889472" lon="32.7936391"><ele>1012.5</ele><time>2015-04-27T14:42:31.0000000+00:00</time></trkpt><trkpt lat="34.9889588" lon="32.7937242"><ele>1012.7</ele><time>2015-04-27T14:42:33.0000000+00:00</time></trkpt><trkpt lat="34.9889696" lon="32.7938089"><ele>1012.7</ele><time>2015-04-27T14:42:35.0000000+00:00</time></trkpt><trkpt lat="34.9889855" lon="32.7938938"><ele>1012.8</ele><time>2015-04-27T14:42:37.0000000+00:00</time></trkpt><trkpt lat="34.9890088" lon="32.7939725"><ele>1012.8</ele><time>2015-04-27T14:42:39.0000000+00:00</time></trkpt><trkpt lat="34.9890275" lon="32.7940407"><ele>1013.5</ele><time>2015-04-27T14:42:41.0000000+00:00</time></trkpt><trkpt lat="34.9890585" lon="32.7940934"><ele>1013.5</ele><time>2015-04-27T14:42:43.0000000+00:00</time></trkpt><trkpt lat="34.9890979" lon="32.7941371"><ele>1013.7</ele><time>2015-04-27T14:42:45.0000000+00:00</time></trkpt><trkpt lat="34.9891363" lon="32.794187"><ele>1013.7</ele><time>2015-04-27T14:42:47.0000000+00:00</time></trkpt><trkpt lat="34.9891783" lon="32.7942377"><ele>1013.8</ele><time>2015-04-27T14:42:49.0000000+00:00</time></trkpt><trkpt lat="34.9892186" lon="32.7942926"><ele>1013.8</ele><time>2015-04-27T14:42:51.0000000+00:00</time></trkpt><trkpt lat="34.9892638" lon="32.7943487"><ele>1013.0</ele><time>2015-04-27T14:42:53.0000000+00:00</time></trkpt><trkpt lat="34.9893062" lon="32.7944103"><ele>1011.3</ele><time>2015-04-27T14:42:55.0000000+00:00</time></trkpt><trkpt lat="34.9893402" lon="32.7944752"><ele>1010.2</ele><time>2015-04-27T14:42:57.0000000+00:00</time></trkpt><trkpt lat="34.9893625" lon="32.794546"><ele>1009.9</ele><time>2015-04-27T14:42:59.0000000+00:00</time></trkpt><trkpt lat="34.9893736" lon="32.7946203"><ele>1010.5</ele><time>2015-04-27T14:43:01.0000000+00:00</time></trkpt><trkpt lat="34.9893687" lon="32.7946885"><ele>1011.5</ele><time>2015-04-27T14:43:03.0000000+00:00</time></trkpt><trkpt lat="34.9893582" lon="32.7947547"><ele>1010.9</ele><time>2015-04-27T14:43:05.0000000+00:00</time></trkpt><trkpt lat="34.989341" lon="32.7948236"><ele>1011.3</ele><time>2015-04-27T14:43:07.0000000+00:00</time></trkpt><trkpt lat="34.9893208" lon="32.7949024"><ele>1011.7</ele><time>2015-04-27T14:43:09.0000000+00:00</time></trkpt><trkpt lat="34.9892974" lon="32.7949882"><ele>1012.2</ele><time>2015-04-27T14:43:11.0000000+00:00</time></trkpt><trkpt lat="34.9892818" lon="32.795078"><ele>1012.6</ele><time>2015-04-27T14:43:13.0000000+00:00</time></trkpt><trkpt lat="34.9892747" lon="32.7951709"><ele>1012.7</ele><time>2015-04-27T14:43:15.0000000+00:00</time></trkpt><trkpt lat="34.9892845" lon="32.7952636"><ele>1012.8</ele><time>2015-04-27T14:43:17.0000000+00:00</time></trkpt><trkpt lat="34.9893101" lon="32.795352"><ele>1012.0</ele><time>2015-04-27T14:43:19.0000000+00:00</time></trkpt><trkpt lat="34.9893382" lon="32.7954309"><ele>1011.3</ele><time>2015-04-27T14:43:21.0000000+00:00</time></trkpt><trkpt lat="34.9893689" lon="32.7955075"><ele>1011.9</ele><time>2015-04-27T14:43:23.0000000+00:00</time></trkpt><trkpt lat="34.9893959" lon="32.7955905"><ele>1013.1</ele><time>2015-04-27T14:43:25.0000000+00:00</time></trkpt><trkpt lat="34.9894185" lon="32.7956718"><ele>1013.6</ele><time>2015-04-27T14:43:27.0000000+00:00</time></trkpt><trkpt lat="34.9894376" lon="32.7957247"><ele>1012.7</ele><time>2015-04-27T14:43:29.0000000+00:00</time></trkpt><trkpt lat="34.9894632" lon="32.795788"><ele>1012.3</ele><time>2015-04-27T14:43:32.0000000+00:00</time></trkpt><trkpt lat="34.9894924" lon="32.7958478"><ele>1011.9</ele><time>2015-04-27T14:43:34.0000000+00:00</time></trkpt><trkpt lat="34.9895241" lon="32.7959179"><ele>1012.5</ele><time>2015-04-27T14:43:36.0000000+00:00</time></trkpt><trkpt lat="34.989558" lon="32.7959909"><ele>1013.2</ele><time>2015-04-27T14:43:38.0000000+00:00</time></trkpt><trkpt lat="34.9895995" lon="32.7960731"><ele>1013.6</ele><time>2015-04-27T14:43:40.0000000+00:00</time></trkpt><trkpt lat="34.9896425" lon="32.7961524"><ele>1013.0</ele><time>2015-04-27T14:43:42.0000000+00:00</time></trkpt><trkpt lat="34.9896823" lon="32.7962244"><ele>1013.3</ele><time>2015-04-27T14:43:44.0000000+00:00</time></trkpt><trkpt lat="34.9897136" lon="32.7962795"><ele>1014.4</ele><time>2015-04-27T14:43:46.0000000+00:00</time></trkpt><trkpt lat="34.9897446" lon="32.7963259"><ele>1014.7</ele><time>2015-04-27T14:43:48.0000000+00:00</time></trkpt><trkpt lat="34.9897827" lon="32.7963751"><ele>1013.9</ele><time>2015-04-27T14:43:51.0000000+00:00</time></trkpt><trkpt lat="34.9898141" lon="32.7964319"><ele>1013.8</ele><time>2015-04-27T14:43:54.0000000+00:00</time></trkpt><trkpt lat="34.9898489" lon="32.7964917"><ele>1013.8</ele><time>2015-04-27T14:43:56.0000000+00:00</time></trkpt><trkpt lat="34.9898818" lon="32.7965572"><ele>1014.5</ele><time>2015-04-27T14:43:58.0000000+00:00</time></trkpt><trkpt lat="34.9899024" lon="32.7966297"><ele>1014.7</ele><time>2015-04-27T14:44:00.0000000+00:00</time></trkpt><trkpt lat="34.9899077" lon="32.7967118"><ele>1014.7</ele><time>2015-04-27T14:44:02.0000000+00:00</time></trkpt><trkpt lat="34.9898869" lon="32.7967964"><ele>1016.0</ele><time>2015-04-27T14:44:04.0000000+00:00</time></trkpt><trkpt lat="34.9898462" lon="32.7968724"><ele>1016.6</ele><time>2015-04-27T14:44:06.0000000+00:00</time></trkpt><trkpt lat="34.9898127" lon="32.7969283"><ele>1016.7</ele><time>2015-04-27T14:44:08.0000000+00:00</time></trkpt><trkpt lat="34.9897662" lon="32.7969572"><ele>1017.3</ele><time>2015-04-27T14:44:10.0000000+00:00</time></trkpt><trkpt lat="34.9897168" lon="32.7969758"><ele>1016.9</ele><time>2015-04-27T14:44:12.0000000+00:00</time></trkpt><trkpt lat="34.9896693" lon="32.796988"><ele>1017.5</ele><time>2015-04-27T14:44:14.0000000+00:00</time></trkpt><trkpt lat="34.989617" lon="32.7970012"><ele>1017.2</ele><time>2015-04-27T14:44:16.0000000+00:00</time></trkpt><trkpt lat="34.9895463" lon="32.7970295"><ele>1016.9</ele><time>2015-04-27T14:44:18.0000000+00:00</time></trkpt><trkpt lat="34.9894867" lon="32.797062"><ele>1016.8</ele><time>2015-04-27T14:44:20.0000000+00:00</time></trkpt><trkpt lat="34.9894302" lon="32.7970988"><ele>1016.8</ele><time>2015-04-27T14:44:22.0000000+00:00</time></trkpt><trkpt lat="34.9893773" lon="32.7971514"><ele>1018.3</ele><time>2015-04-27T14:44:24.0000000+00:00</time></trkpt><trkpt lat="34.9893356" lon="32.7972197"><ele>1017.9</ele><time>2015-04-27T14:44:26.0000000+00:00</time></trkpt><trkpt lat="34.9893008" lon="32.7972918"><ele>1017.5</ele><time>2015-04-27T14:44:28.0000000+00:00</time></trkpt><trkpt lat="34.9892684" lon="32.7973632"><ele>1018.5</ele><time>2015-04-27T14:44:30.0000000+00:00</time></trkpt><trkpt lat="34.9892398" lon="32.7974318"><ele>1018.9</ele><time>2015-04-27T14:44:32.0000000+00:00</time></trkpt><trkpt lat="34.9892148" lon="32.7974914"><ele>1019.6</ele><time>2015-04-27T14:44:34.0000000+00:00</time></trkpt><trkpt lat="34.9891865" lon="32.7975384"><ele>1019.0</ele><time>2015-04-27T14:44:36.0000000+00:00</time></trkpt><trkpt lat="34.9891514" lon="32.7975735"><ele>1019.1</ele><time>2015-04-27T14:44:38.0000000+00:00</time></trkpt><trkpt lat="34.9891012" lon="32.7975935"><ele>1019.6</ele><time>2015-04-27T14:44:40.0000000+00:00</time></trkpt><trkpt lat="34.9890393" lon="32.7975948"><ele>1019.0</ele><time>2015-04-27T14:44:42.0000000+00:00</time></trkpt><trkpt lat="34.98899" lon="32.7975799"><ele>1018.1</ele><time>2015-04-27T14:44:44.0000000+00:00</time></trkpt><trkpt lat="34.9889306" lon="32.7975356"><ele>1018.6</ele><time>2015-04-27T14:44:47.0000000+00:00</time></trkpt><trkpt lat="34.9888757" lon="32.7974941"><ele>1018.7</ele><time>2015-04-27T14:44:49.0000000+00:00</time></trkpt><trkpt lat="34.9888235" lon="32.7974404"><ele>1019.5</ele><time>2015-04-27T14:44:51.0000000+00:00</time></trkpt><trkpt lat="34.9887869" lon="32.797387"><ele>1019.7</ele><time>2015-04-27T14:44:53.0000000+00:00</time></trkpt><trkpt lat="34.9887621" lon="32.7973312"><ele>1019.8</ele><time>2015-04-27T14:44:57.0000000+00:00</time></trkpt><trkpt lat="34.9887335" lon="32.7972665"><ele>1019.0</ele><time>2015-04-27T14:45:00.0000000+00:00</time></trkpt><trkpt lat="34.9887058" lon="32.7972138"><ele>1018.8</ele><time>2015-04-27T14:45:02.0000000+00:00</time></trkpt><trkpt lat="34.9886761" lon="32.797159"><ele>1019.3</ele><time>2015-04-27T14:45:04.0000000+00:00</time></trkpt><trkpt lat="34.9886415" lon="32.7971"><ele>1018.9</ele><time>2015-04-27T14:45:06.0000000+00:00</time></trkpt><trkpt lat="34.9886079" lon="32.7970471"><ele>1019.3</ele><time>2015-04-27T14:45:08.0000000+00:00</time></trkpt><trkpt lat="34.9885643" lon="32.7970082"><ele>1020.1</ele><time>2015-04-27T14:45:10.0000000+00:00</time></trkpt><trkpt lat="34.9885094" lon="32.7969695"><ele>1020.6</ele><time>2015-04-27T14:45:12.0000000+00:00</time></trkpt><trkpt lat="34.9884363" lon="32.7969606"><ele>1021.2</ele><time>2015-04-27T14:45:14.0000000+00:00</time></trkpt><trkpt lat="34.988353" lon="32.7969746"><ele>1021.6</ele><time>2015-04-27T14:45:16.0000000+00:00</time></trkpt><trkpt lat="34.9882792" lon="32.7969933"><ele>1021.7</ele><time>2015-04-27T14:45:18.0000000+00:00</time></trkpt><trkpt lat="34.9882279" lon="32.7970147"><ele>1021.8</ele><time>2015-04-27T14:45:20.0000000+00:00</time></trkpt><trkpt lat="34.9881831" lon="32.7970313"><ele>1021.8</ele><time>2015-04-27T14:45:22.0000000+00:00</time></trkpt><trkpt lat="34.9881374" lon="32.7970505"><ele>1022.3</ele><time>2015-04-27T14:45:24.0000000+00:00</time></trkpt><trkpt lat="34.9880902" lon="32.797069"><ele>1023.1</ele><time>2015-04-27T14:45:26.0000000+00:00</time></trkpt><trkpt lat="34.988042" lon="32.797085"><ele>1023.6</ele><time>2015-04-27T14:45:28.0000000+00:00</time></trkpt><trkpt lat="34.987992" lon="32.7971027"><ele>1023.7</ele><time>2015-04-27T14:45:30.0000000+00:00</time></trkpt><trkpt lat="34.987947" lon="32.7971282"><ele>1024.0</ele><time>2015-04-27T14:45:32.0000000+00:00</time></trkpt><trkpt lat="34.9879004" lon="32.7971527"><ele>1024.3</ele><time>2015-04-27T14:45:35.0000000+00:00</time></trkpt><trkpt lat="34.987848" lon="32.7971801"><ele>1024.7</ele><time>2015-04-27T14:45:38.0000000+00:00</time></trkpt><trkpt lat="34.9877753" lon="32.7971861"><ele>1024.3</ele><time>2015-04-27T14:45:41.0000000+00:00</time></trkpt><trkpt lat="34.9877286" lon="32.7971815"><ele>1023.9</ele><time>2015-04-27T14:45:43.0000000+00:00</time></trkpt><trkpt lat="34.9876749" lon="32.7971724"><ele>1024.5</ele><time>2015-04-27T14:45:46.0000000+00:00</time></trkpt><trkpt lat="34.9876228" lon="32.7971358"><ele>1024.7</ele><time>2015-04-27T14:45:49.0000000+00:00</time></trkpt><trkpt lat="34.9875848" lon="32.7970897"><ele>1025.3</ele><time>2015-04-27T14:45:53.0000000+00:00</time></trkpt><trkpt lat="34.9875483" lon="32.7970297"><ele>1025.7</ele><time>2015-04-27T14:45:57.0000000+00:00</time></trkpt><trkpt lat="34.9875006" lon="32.7969773"><ele>1025.8</ele><time>2015-04-27T14:46:00.0000000+00:00</time></trkpt><trkpt lat="34.9874673" lon="32.7969399"><ele>1025.8</ele><time>2015-04-27T14:46:02.0000000+00:00</time></trkpt><trkpt lat="34.9874352" lon="32.7969011"><ele>1025.8</ele><time>2015-04-27T14:46:04.0000000+00:00</time></trkpt><trkpt lat="34.9873766" lon="32.796862"><ele>1026.6</ele><time>2015-04-27T14:46:07.0000000+00:00</time></trkpt><trkpt lat="34.9873122" lon="32.7968448"><ele>1028.1</ele><time>2015-04-27T14:46:10.0000000+00:00</time></trkpt><trkpt lat="34.9872654" lon="32.796852"><ele>1029.4</ele><time>2015-04-27T14:46:12.0000000+00:00</time></trkpt><trkpt lat="34.9872239" lon="32.7968735"><ele>1030.2</ele><time>2015-04-27T14:46:14.0000000+00:00</time></trkpt><trkpt lat="34.9871757" lon="32.7968949"><ele>1030.7</ele><time>2015-04-27T14:46:17.0000000+00:00</time></trkpt><trkpt lat="34.9871344" lon="32.7969175"><ele>1031.5</ele><time>2015-04-27T14:46:20.0000000+00:00</time></trkpt><trkpt lat="34.9870955" lon="32.7969534"><ele>1032.2</ele><time>2015-04-27T14:46:23.0000000+00:00</time></trkpt><trkpt lat="34.9870468" lon="32.7969721"><ele>1033.2</ele><time>2015-04-27T14:46:26.0000000+00:00</time></trkpt><trkpt lat="34.9869904" lon="32.7969682"><ele>1034.4</ele><time>2015-04-27T14:46:29.0000000+00:00</time></trkpt><trkpt lat="34.9869395" lon="32.7969623"><ele>1035.2</ele><time>2015-04-27T14:46:32.0000000+00:00</time></trkpt><trkpt lat="34.9868864" lon="32.7969578"><ele>1036.2</ele><time>2015-04-27T14:46:35.0000000+00:00</time></trkpt><trkpt lat="34.9868339" lon="32.7969358"><ele>1036.2</ele><time>2015-04-27T14:46:38.0000000+00:00</time></trkpt><trkpt lat="34.9867868" lon="32.7968964"><ele>1035.8</ele><time>2015-04-27T14:46:41.0000000+00:00</time></trkpt><trkpt lat="34.9867464" lon="32.7968509"><ele>1036.6</ele><time>2015-04-27T14:46:44.0000000+00:00</time></trkpt><trkpt lat="34.9867103" lon="32.7968017"><ele>1036.4</ele><time>2015-04-27T14:46:47.0000000+00:00</time></trkpt><trkpt lat="34.9866731" lon="32.7967552"><ele>1036.7</ele><time>2015-04-27T14:46:50.0000000+00:00</time></trkpt><trkpt lat="34.9866363" lon="32.796711"><ele>1036.8</ele><time>2015-04-27T14:46:53.0000000+00:00</time></trkpt><trkpt lat="34.9866006" lon="32.7966705"><ele>1036.8</ele><time>2015-04-27T14:46:56.0000000+00:00</time></trkpt><trkpt lat="34.9865691" lon="32.7966274"><ele>1036.8</ele><time>2015-04-27T14:46:59.0000000+00:00</time></trkpt><trkpt lat="34.9865308" lon="32.7965905"><ele>1036.8</ele><time>2015-04-27T14:47:02.0000000+00:00</time></trkpt><trkpt lat="34.9864958" lon="32.796543"><ele>1037.5</ele><time>2015-04-27T14:47:05.0000000+00:00</time></trkpt><trkpt lat="34.9864638" lon="32.7964879"><ele>1037.7</ele><time>2015-04-27T14:47:08.0000000+00:00</time></trkpt><trkpt lat="34.9864227" lon="32.7964436"><ele>1038.5</ele><time>2015-04-27T14:47:11.0000000+00:00</time></trkpt><trkpt lat="34.9863811" lon="32.7964041"><ele>1038.7</ele><time>2015-04-27T14:47:14.0000000+00:00</time></trkpt><trkpt lat="34.9863377" lon="32.7963696"><ele>1038.8</ele><time>2015-04-27T14:47:17.0000000+00:00</time></trkpt><trkpt lat="34.9862951" lon="32.7963325"><ele>1038.8</ele><time>2015-04-27T14:47:20.0000000+00:00</time></trkpt><trkpt lat="34.9862534" lon="32.7962947"><ele>1039.5</ele><time>2015-04-27T14:47:23.0000000+00:00</time></trkpt><trkpt lat="34.9862152" lon="32.7962531"><ele>1039.7</ele><time>2015-04-27T14:47:26.0000000+00:00</time></trkpt><trkpt lat="34.9861752" lon="32.79622"><ele>1039.8</ele><time>2015-04-27T14:47:29.0000000+00:00</time></trkpt><trkpt lat="34.9861346" lon="32.7961902"><ele>1039.8</ele><time>2015-04-27T14:47:32.0000000+00:00</time></trkpt><trkpt lat="34.9860966" lon="32.7961513"><ele>1039.8</ele><time>2015-04-27T14:47:35.0000000+00:00</time></trkpt><trkpt lat="34.9860575" lon="32.7961108"><ele>1040.0</ele><time>2015-04-27T14:47:38.0000000+00:00</time></trkpt><trkpt lat="34.9860197" lon="32.7960692"><ele>1040.7</ele><time>2015-04-27T14:47:41.0000000+00:00</time></trkpt><trkpt lat="34.9859799" lon="32.7960289"><ele>1040.8</ele><time>2015-04-27T14:47:44.0000000+00:00</time></trkpt><trkpt lat="34.9859447" lon="32.7959906"><ele>1040.8</ele><time>2015-04-27T14:47:47.0000000+00:00</time></trkpt><trkpt lat="34.9859106" lon="32.795953"><ele>1041.5</ele><time>2015-04-27T14:47:50.0000000+00:00</time></trkpt><trkpt lat="34.985867" lon="32.7959159"><ele>1041.7</ele><time>2015-04-27T14:47:54.0000000+00:00</time></trkpt><trkpt lat="34.9858296" lon="32.7958818"><ele>1041.8</ele><time>2015-04-27T14:47:58.0000000+00:00</time></trkpt><trkpt lat="34.985785" lon="32.7958507"><ele>1041.8</ele><time>2015-04-27T14:48:02.0000000+00:00</time></trkpt><trkpt lat="34.9857346" lon="32.795825"><ele>1042.6</ele><time>2015-04-27T14:48:06.0000000+00:00</time></trkpt><trkpt lat="34.9856899" lon="32.7958159"><ele>1043.2</ele><time>2015-04-27T14:48:09.0000000+00:00</time></trkpt><trkpt lat="34.9856352" lon="32.7958249"><ele>1044.2</ele><time>2015-04-27T14:48:13.0000000+00:00</time></trkpt><trkpt lat="34.9855974" lon="32.7958555"><ele>1044.0</ele><time>2015-04-27T14:48:17.0000000+00:00</time></trkpt><trkpt lat="34.9855561" lon="32.7958971"><ele>1044.0</ele><time>2015-04-27T14:48:42.0000000+00:00</time></trkpt><trkpt lat="34.9855157" lon="32.7959453"><ele>1044.2</ele><time>2015-04-27T14:48:45.0000000+00:00</time></trkpt><trkpt lat="34.9855016" lon="32.7960025"><ele>1043.6</ele><time>2015-04-27T14:48:48.0000000+00:00</time></trkpt><trkpt lat="34.9854948" lon="32.7960586"><ele>1043.7</ele><time>2015-04-27T14:48:51.0000000+00:00</time></trkpt><trkpt lat="34.9855065" lon="32.796114"><ele>1044.3</ele><time>2015-04-27T14:48:54.0000000+00:00</time></trkpt><trkpt lat="34.9855339" lon="32.7961757"><ele>1046.1</ele><time>2015-04-27T14:48:58.0000000+00:00</time></trkpt><trkpt lat="34.98556" lon="32.796221"><ele>1046.2</ele><time>2015-04-27T14:49:01.0000000+00:00</time></trkpt><trkpt lat="34.9855985" lon="32.7962734"><ele>1046.7</ele><time>2015-04-27T14:49:04.0000000+00:00</time></trkpt><trkpt lat="34.9856306" lon="32.7963138"><ele>1047.5</ele><time>2015-04-27T14:49:06.0000000+00:00</time></trkpt><trkpt lat="34.9856695" lon="32.7963519"><ele>1047.2</ele><time>2015-04-27T14:49:08.0000000+00:00</time></trkpt><trkpt lat="34.9857214" lon="32.7963942"><ele>1047.6</ele><time>2015-04-27T14:49:11.0000000+00:00</time></trkpt><trkpt lat="34.9857702" lon="32.7964313"><ele>1048.2</ele><time>2015-04-27T14:49:14.0000000+00:00</time></trkpt><trkpt lat="34.9858153" lon="32.7964716"><ele>1047.8</ele><time>2015-04-27T14:49:17.0000000+00:00</time></trkpt><trkpt lat="34.9858593" lon="32.796515"><ele>1047.8</ele><time>2015-04-27T14:49:20.0000000+00:00</time></trkpt><trkpt lat="34.985911" lon="32.7965617"><ele>1048.5</ele><time>2015-04-27T14:49:23.0000000+00:00</time></trkpt><trkpt lat="34.9859566" lon="32.7966049"><ele>1048.7</ele><time>2015-04-27T14:49:25.0000000+00:00</time></trkpt><trkpt lat="34.9859976" lon="32.7966397"><ele>1048.7</ele><time>2015-04-27T14:49:27.0000000+00:00</time></trkpt><trkpt lat="34.9860367" lon="32.7966803"><ele>1049.6</ele><time>2015-04-27T14:49:32.0000000+00:00</time></trkpt><trkpt lat="34.9860857" lon="32.7967197"><ele>1050.6</ele><time>2015-04-27T14:49:36.0000000+00:00</time></trkpt><trkpt lat="34.9861245" lon="32.7967549"><ele>1051.5</ele><time>2015-04-27T14:49:38.0000000+00:00</time></trkpt><trkpt lat="34.9861631" lon="32.7967913"><ele>1051.2</ele><time>2015-04-27T14:49:40.0000000+00:00</time></trkpt><trkpt lat="34.9862184" lon="32.7968344"><ele>1050.1</ele><time>2015-04-27T14:49:43.0000000+00:00</time></trkpt><trkpt lat="34.9862728" lon="32.7968779"><ele>1050.3</ele><time>2015-04-27T14:49:46.0000000+00:00</time></trkpt><trkpt lat="34.9863175" lon="32.7969195"><ele>1051.6</ele><time>2015-04-27T14:49:49.0000000+00:00</time></trkpt><trkpt lat="34.9863676" lon="32.79696"><ele>1052.5</ele><time>2015-04-27T14:49:52.0000000+00:00</time></trkpt><trkpt lat="34.9864148" lon="32.7970017"><ele>1052.7</ele><time>2015-04-27T14:49:55.0000000+00:00</time></trkpt><trkpt lat="34.98646" lon="32.7970453"><ele>1051.9</ele><time>2015-04-27T14:49:58.0000000+00:00</time></trkpt><trkpt lat="34.9865011" lon="32.7970974"><ele>1051.8</ele><time>2015-04-27T14:50:01.0000000+00:00</time></trkpt><trkpt lat="34.9865376" lon="32.7971369"><ele>1052.0</ele><time>2015-04-27T14:50:04.0000000+00:00</time></trkpt><trkpt lat="34.9865738" lon="32.797189"><ele>1051.8</ele><time>2015-04-27T14:50:07.0000000+00:00</time></trkpt><trkpt lat="34.9865993" lon="32.7972441"><ele>1051.8</ele><time>2015-04-27T14:50:10.0000000+00:00</time></trkpt><trkpt lat="34.9866435" lon="32.7972991"><ele>1051.8</ele><time>2015-04-27T14:50:14.0000000+00:00</time></trkpt><trkpt lat="34.986679" lon="32.7973628"><ele>1052.6</ele><time>2015-04-27T14:50:17.0000000+00:00</time></trkpt><trkpt lat="34.9866992" lon="32.7974222"><ele>1052.7</ele><time>2015-04-27T14:50:20.0000000+00:00</time></trkpt><trkpt lat="34.9867176" lon="32.7974755"><ele>1053.6</ele><time>2015-04-27T14:50:23.0000000+00:00</time></trkpt><trkpt lat="34.9867448" lon="32.7975339"><ele>1053.7</ele><time>2015-04-27T14:50:26.0000000+00:00</time></trkpt><trkpt lat="34.9867667" lon="32.7975957"><ele>1053.3</ele><time>2015-04-27T14:50:29.0000000+00:00</time></trkpt><trkpt lat="34.9867842" lon="32.7976593"><ele>1052.8</ele><time>2015-04-27T14:50:32.0000000+00:00</time></trkpt><trkpt lat="34.9868023" lon="32.7977344"><ele>1053.5</ele><time>2015-04-27T14:50:35.0000000+00:00</time></trkpt><trkpt lat="34.9868227" lon="32.7978108"><ele>1053.1</ele><time>2015-04-27T14:50:38.0000000+00:00</time></trkpt><trkpt lat="34.9868391" lon="32.7978634"><ele>1052.9</ele><time>2015-04-27T14:50:40.0000000+00:00</time></trkpt><trkpt lat="34.9868616" lon="32.797934"><ele>1052.8</ele><time>2015-04-27T14:50:42.0000000+00:00</time></trkpt><trkpt lat="34.9868786" lon="32.7979905"><ele>1053.5</ele><time>2015-04-27T14:50:44.0000000+00:00</time></trkpt><trkpt lat="34.9868995" lon="32.7980503"><ele>1053.7</ele><time>2015-04-27T14:50:48.0000000+00:00</time></trkpt><trkpt lat="34.9869272" lon="32.798116"><ele>1054.1</ele><time>2015-04-27T14:50:51.0000000+00:00</time></trkpt><trkpt lat="34.9869491" lon="32.7981694"><ele>1055.4</ele><time>2015-04-27T14:50:53.0000000+00:00</time></trkpt><trkpt lat="34.9869686" lon="32.7982235"><ele>1056.4</ele><time>2015-04-27T14:50:55.0000000+00:00</time></trkpt><trkpt lat="34.9869886" lon="32.7982802"><ele>1057.5</ele><time>2015-04-27T14:50:58.0000000+00:00</time></trkpt><trkpt lat="34.9870174" lon="32.7983373"><ele>1058.6</ele><time>2015-04-27T14:51:02.0000000+00:00</time></trkpt><trkpt lat="34.9870427" lon="32.7983843"><ele>1058.7</ele><time>2015-04-27T14:51:05.0000000+00:00</time></trkpt><trkpt lat="34.9870751" lon="32.7984256"><ele>1059.3</ele><time>2015-04-27T14:51:09.0000000+00:00</time></trkpt><trkpt lat="34.9871272" lon="32.7984792"><ele>1060.0</ele><time>2015-04-27T14:51:12.0000000+00:00</time></trkpt><trkpt lat="34.9871793" lon="32.7985282"><ele>1059.8</ele><time>2015-04-27T14:51:15.0000000+00:00</time></trkpt><trkpt lat="34.9872373" lon="32.7985691"><ele>1060.5</ele><time>2015-04-27T14:51:18.0000000+00:00</time></trkpt><trkpt lat="34.9872927" lon="32.7986102"><ele>1061.5</ele><time>2015-04-27T14:51:21.0000000+00:00</time></trkpt><trkpt lat="34.9873491" lon="32.7986483"><ele>1061.2</ele><time>2015-04-27T14:51:24.0000000+00:00</time></trkpt><trkpt lat="34.9874086" lon="32.7986793"><ele>1061.3</ele><time>2015-04-27T14:51:27.0000000+00:00</time></trkpt><trkpt lat="34.9874685" lon="32.7987065"><ele>1061.7</ele><time>2015-04-27T14:51:30.0000000+00:00</time></trkpt><trkpt lat="34.9875297" lon="32.7987351"><ele>1062.3</ele><time>2015-04-27T14:51:33.0000000+00:00</time></trkpt><trkpt lat="34.9875808" lon="32.7987752"><ele>1062.7</ele><time>2015-04-27T14:51:36.0000000+00:00</time></trkpt><trkpt lat="34.987631" lon="32.7987969"><ele>1064.6</ele><time>2015-04-27T14:51:40.0000000+00:00</time></trkpt><trkpt lat="34.9876736" lon="32.7988276"><ele>1065.6</ele><time>2015-04-27T14:51:43.0000000+00:00</time></trkpt><trkpt lat="34.9877301" lon="32.7988657"><ele>1066.6</ele><time>2015-04-27T14:51:46.0000000+00:00</time></trkpt><trkpt lat="34.9877716" lon="32.7988898"><ele>1066.7</ele><time>2015-04-27T14:51:48.0000000+00:00</time></trkpt><trkpt lat="34.987816" lon="32.7989122"><ele>1066.8</ele><time>2015-04-27T14:51:50.0000000+00:00</time></trkpt><trkpt lat="34.9878552" lon="32.7989406"><ele>1067.5</ele><time>2015-04-27T14:51:52.0000000+00:00</time></trkpt><trkpt lat="34.9878908" lon="32.7989774"><ele>1067.7</ele><time>2015-04-27T14:51:54.0000000+00:00</time></trkpt><trkpt lat="34.9879377" lon="32.7990124"><ele>1067.3</ele><time>2015-04-27T14:51:57.0000000+00:00</time></trkpt><trkpt lat="34.9879854" lon="32.7990364"><ele>1067.7</ele><time>2015-04-27T14:52:00.0000000+00:00</time></trkpt><trkpt lat="34.988036" lon="32.7990741"><ele>1068.0</ele><time>2015-04-27T14:52:03.0000000+00:00</time></trkpt><trkpt lat="34.9880881" lon="32.7991163"><ele>1069.0</ele><time>2015-04-27T14:52:06.0000000+00:00</time></trkpt><trkpt lat="34.9881253" lon="32.7991494"><ele>1068.8</ele><time>2015-04-27T14:52:08.0000000+00:00</time></trkpt><trkpt lat="34.9881704" lon="32.7991872"><ele>1069.0</ele><time>2015-04-27T14:52:10.0000000+00:00</time></trkpt><trkpt lat="34.9882105" lon="32.7992216"><ele>1068.8</ele><time>2015-04-27T14:52:12.0000000+00:00</time></trkpt><trkpt lat="34.9882527" lon="32.7992504"><ele>1068.5</ele><time>2015-04-27T14:52:14.0000000+00:00</time></trkpt><trkpt lat="34.9883058" lon="32.7992944"><ele>1069.0</ele><time>2015-04-27T14:52:17.0000000+00:00</time></trkpt><trkpt lat="34.9883433" lon="32.7993402"><ele>1068.8</ele><time>2015-04-27T14:52:20.0000000+00:00</time></trkpt><trkpt lat="34.988383" lon="32.799387"><ele>1069.5</ele><time>2015-04-27T14:52:23.0000000+00:00</time></trkpt><trkpt lat="34.9884259" lon="32.7994396"><ele>1070.6</ele><time>2015-04-27T14:52:26.0000000+00:00</time></trkpt><trkpt lat="34.9884687" lon="32.799497"><ele>1070.7</ele><time>2015-04-27T14:52:29.0000000+00:00</time></trkpt><trkpt lat="34.9885041" lon="32.7995456"><ele>1069.9</ele><time>2015-04-27T14:52:32.0000000+00:00</time></trkpt><trkpt lat="34.9885396" lon="32.7995934"><ele>1070.5</ele><time>2015-04-27T14:52:35.0000000+00:00</time></trkpt><trkpt lat="34.9885792" lon="32.7996482"><ele>1071.5</ele><time>2015-04-27T14:52:38.0000000+00:00</time></trkpt><trkpt lat="34.9886261" lon="32.7997058"><ele>1070.9</ele><time>2015-04-27T14:52:41.0000000+00:00</time></trkpt><trkpt lat="34.9886587" lon="32.7997549"><ele>1071.3</ele><time>2015-04-27T14:52:43.0000000+00:00</time></trkpt><trkpt lat="34.9886892" lon="32.7998004"><ele>1071.6</ele><time>2015-04-27T14:52:45.0000000+00:00</time></trkpt><trkpt lat="34.9887232" lon="32.7998365"><ele>1071.6</ele><time>2015-04-27T14:52:49.0000000+00:00</time></trkpt><trkpt lat="34.988751" lon="32.7998983"><ele>1072.5</ele><time>2015-04-27T14:52:54.0000000+00:00</time></trkpt><trkpt lat="34.9888127" lon="32.7999351"><ele>1071.9</ele><time>2015-04-27T14:52:57.0000000+00:00</time></trkpt><trkpt lat="34.9888513" lon="32.7999754"><ele>1072.3</ele><time>2015-04-27T14:52:59.0000000+00:00</time></trkpt><trkpt lat="34.9888816" lon="32.8000271"><ele>1072.6</ele><time>2015-04-27T14:53:01.0000000+00:00</time></trkpt><trkpt lat="34.9889221" lon="32.8000857"><ele>1072.6</ele><time>2015-04-27T14:53:04.0000000+00:00</time></trkpt><trkpt lat="34.9889467" lon="32.800143"><ele>1072.9</ele><time>2015-04-27T14:53:08.0000000+00:00</time></trkpt><trkpt lat="34.9889652" lon="32.8002023"><ele>1072.0</ele><time>2015-04-27T14:53:11.0000000+00:00</time></trkpt><trkpt lat="34.9889792" lon="32.8002787"><ele>1071.8</ele><time>2015-04-27T14:53:14.0000000+00:00</time></trkpt><trkpt lat="34.9889816" lon="32.8003579"><ele>1071.5</ele><time>2015-04-27T14:53:17.0000000+00:00</time></trkpt><trkpt lat="34.9889723" lon="32.8004264"><ele>1071.7</ele><time>2015-04-27T14:53:20.0000000+00:00</time></trkpt><trkpt lat="34.9889527" lon="32.8004858"><ele>1071.7</ele><time>2015-04-27T14:53:24.0000000+00:00</time></trkpt><trkpt lat="34.9889308" lon="32.800538"><ele>1072.2</ele><time>2015-04-27T14:53:26.0000000+00:00</time></trkpt><trkpt lat="34.988895" lon="32.8005951"><ele>1072.7</ele><time>2015-04-27T14:53:29.0000000+00:00</time></trkpt><trkpt lat="34.9888668" lon="32.8006503"><ele>1072.8</ele><time>2015-04-27T14:53:33.0000000+00:00</time></trkpt><trkpt lat="34.9888411" lon="32.8007121"><ele>1072.8</ele><time>2015-04-27T14:53:36.0000000+00:00</time></trkpt><trkpt lat="34.988818" lon="32.800762"><ele>1072.8</ele><time>2015-04-27T14:53:39.0000000+00:00</time></trkpt><trkpt lat="34.988796" lon="32.8008194"><ele>1073.5</ele><time>2015-04-27T14:53:43.0000000+00:00</time></trkpt><trkpt lat="34.9887776" lon="32.800889"><ele>1073.0</ele><time>2015-04-27T14:53:46.0000000+00:00</time></trkpt><trkpt lat="34.9887642" lon="32.8009467"><ele>1073.6</ele><time>2015-04-27T14:53:48.0000000+00:00</time></trkpt><trkpt lat="34.9887578" lon="32.8010033"><ele>1074.2</ele><time>2015-04-27T14:53:50.0000000+00:00</time></trkpt><trkpt lat="34.9887652" lon="32.8010635"><ele>1074.7</ele><time>2015-04-27T14:53:53.0000000+00:00</time></trkpt><trkpt lat="34.9887782" lon="32.8011264"><ele>1074.6</ele><time>2015-04-27T14:53:58.0000000+00:00</time></trkpt><trkpt lat="34.9888007" lon="32.8011888"><ele>1074.7</ele><time>2015-04-27T14:54:01.0000000+00:00</time></trkpt><trkpt lat="34.9888258" lon="32.8012578"><ele>1075.6</ele><time>2015-04-27T14:54:04.0000000+00:00</time></trkpt><trkpt lat="34.9888453" lon="32.8013347"><ele>1076.2</ele><time>2015-04-27T14:54:07.0000000+00:00</time></trkpt><trkpt lat="34.9888596" lon="32.8014052"><ele>1076.6</ele><time>2015-04-27T14:54:09.0000000+00:00</time></trkpt><trkpt lat="34.9888676" lon="32.8014721"><ele>1076.7</ele><time>2015-04-27T14:54:11.0000000+00:00</time></trkpt><trkpt lat="34.988863" lon="32.8015292"><ele>1075.8</ele><time>2015-04-27T14:54:13.0000000+00:00</time></trkpt><trkpt lat="34.9888517" lon="32.8015939"><ele>1076.5</ele><time>2015-04-27T14:54:16.0000000+00:00</time></trkpt><trkpt lat="34.9888255" lon="32.8016474"><ele>1076.7</ele><time>2015-04-27T14:54:19.0000000+00:00</time></trkpt><trkpt lat="34.988787" lon="32.8017089"><ele>1076.8</ele><time>2015-04-27T14:54:22.0000000+00:00</time></trkpt><trkpt lat="34.9887387" lon="32.8017556"><ele>1076.8</ele><time>2015-04-27T14:54:24.0000000+00:00</time></trkpt><trkpt lat="34.9886753" lon="32.8017887"><ele>1076.8</ele><time>2015-04-27T14:54:26.0000000+00:00</time></trkpt><trkpt lat="34.9885962" lon="32.8018187"><ele>1076.8</ele><time>2015-04-27T14:54:28.0000000+00:00</time></trkpt><trkpt lat="34.9885207" lon="32.8018403"><ele>1076.8</ele><time>2015-04-27T14:54:30.0000000+00:00</time></trkpt><trkpt lat="34.9884541" lon="32.8018811"><ele>1076.3</ele><time>2015-04-27T14:54:32.0000000+00:00</time></trkpt><trkpt lat="34.9884011" lon="32.8019307"><ele>1076.1</ele><time>2015-04-27T14:54:34.0000000+00:00</time></trkpt><trkpt lat="34.9883722" lon="32.8019774"><ele>1076.6</ele><time>2015-04-27T14:54:36.0000000+00:00</time></trkpt><trkpt lat="34.9883472" lon="32.8020342"><ele>1077.5</ele><time>2015-04-27T14:54:38.0000000+00:00</time></trkpt><trkpt lat="34.9883216" lon="32.8020919"><ele>1078.4</ele><time>2015-04-27T14:54:40.0000000+00:00</time></trkpt><trkpt lat="34.9883038" lon="32.8021541"><ele>1078.7</ele><time>2015-04-27T14:54:42.0000000+00:00</time></trkpt><trkpt lat="34.988289" lon="32.8022213"><ele>1078.7</ele><time>2015-04-27T14:54:44.0000000+00:00</time></trkpt><trkpt lat="34.9882671" lon="32.8022772"><ele>1078.8</ele><time>2015-04-27T14:54:46.0000000+00:00</time></trkpt><trkpt lat="34.9882534" lon="32.8023415"><ele>1079.6</ele><time>2015-04-27T14:54:50.0000000+00:00</time></trkpt><trkpt lat="34.9882298" lon="32.8024056"><ele>1078.8</ele><time>2015-04-27T14:54:54.0000000+00:00</time></trkpt><trkpt lat="34.988205" lon="32.8024543"><ele>1079.6</ele><time>2015-04-27T14:54:57.0000000+00:00</time></trkpt><trkpt lat="34.9881641" lon="32.8024854"><ele>1080.6</ele><time>2015-04-27T14:55:00.0000000+00:00</time></trkpt><trkpt lat="34.9881529" lon="32.8025404"><ele>1082.0</ele><time>2015-04-27T14:55:03.0000000+00:00</time></trkpt><trkpt lat="34.988148" lon="32.8025979"><ele>1082.7</ele><time>2015-04-27T14:55:07.0000000+00:00</time></trkpt><trkpt lat="34.9881168" lon="32.8026514"><ele>1083.5</ele><time>2015-04-27T14:55:11.0000000+00:00</time></trkpt><trkpt lat="34.9880863" lon="32.8026997"><ele>1083.7</ele><time>2015-04-27T14:55:15.0000000+00:00</time></trkpt><trkpt lat="34.9880671" lon="32.8027512"><ele>1083.3</ele><time>2015-04-27T14:55:19.0000000+00:00</time></trkpt><trkpt lat="34.9880352" lon="32.8028104"><ele>1084.1</ele><time>2015-04-27T14:55:22.0000000+00:00</time></trkpt><trkpt lat="34.9880037" lon="32.8028556"><ele>1084.8</ele><time>2015-04-27T14:55:24.0000000+00:00</time></trkpt><trkpt lat="34.9879583" lon="32.8029044"><ele>1086.1</ele><time>2015-04-27T14:55:27.0000000+00:00</time></trkpt><trkpt lat="34.9879116" lon="32.8029534"><ele>1085.8</ele><time>2015-04-27T14:55:30.0000000+00:00</time></trkpt><trkpt lat="34.9878664" lon="32.8030004"><ele>1086.6</ele><time>2015-04-27T14:55:33.0000000+00:00</time></trkpt><trkpt lat="34.9878184" lon="32.8030508"><ele>1087.5</ele><time>2015-04-27T14:55:36.0000000+00:00</time></trkpt><trkpt lat="34.9877634" lon="32.8030908"><ele>1088.6</ele><time>2015-04-27T14:55:39.0000000+00:00</time></trkpt><trkpt lat="34.9877219" lon="32.8031302"><ele>1088.7</ele><time>2015-04-27T14:55:41.0000000+00:00</time></trkpt><trkpt lat="34.987684" lon="32.8031615"><ele>1089.5</ele><time>2015-04-27T14:55:43.0000000+00:00</time></trkpt><trkpt lat="34.9876365" lon="32.8031911"><ele>1089.7</ele><time>2015-04-27T14:55:46.0000000+00:00</time></trkpt><trkpt lat="34.9875954" lon="32.8032306"><ele>1090.6</ele><time>2015-04-27T14:55:49.0000000+00:00</time></trkpt><trkpt lat="34.9875542" lon="32.8032674"><ele>1091.2</ele><time>2015-04-27T14:55:52.0000000+00:00</time></trkpt><trkpt lat="34.9875014" lon="32.8032826"><ele>1091.7</ele><time>2015-04-27T14:55:55.0000000+00:00</time></trkpt><trkpt lat="34.987449" lon="32.8033047"><ele>1092.6</ele><time>2015-04-27T14:55:58.0000000+00:00</time></trkpt><trkpt lat="34.987399" lon="32.8033368"><ele>1092.7</ele><time>2015-04-27T14:56:01.0000000+00:00</time></trkpt><trkpt lat="34.9873469" lon="32.8033578"><ele>1093.5</ele><time>2015-04-27T14:56:04.0000000+00:00</time></trkpt><trkpt lat="34.9872969" lon="32.803387"><ele>1093.7</ele><time>2015-04-27T14:56:07.0000000+00:00</time></trkpt><trkpt lat="34.9872469" lon="32.8034147"><ele>1094.3</ele><time>2015-04-27T14:56:10.0000000+00:00</time></trkpt><trkpt lat="34.9871996" lon="32.8034409"><ele>1094.7</ele><time>2015-04-27T14:56:13.0000000+00:00</time></trkpt><trkpt lat="34.9871556" lon="32.803476"><ele>1094.3</ele><time>2015-04-27T14:56:16.0000000+00:00</time></trkpt><trkpt lat="34.9871074" lon="32.803507"><ele>1093.8</ele><time>2015-04-27T14:56:19.0000000+00:00</time></trkpt><trkpt lat="34.9870615" lon="32.8035456"><ele>1094.5</ele><time>2015-04-27T14:56:22.0000000+00:00</time></trkpt><trkpt lat="34.9870077" lon="32.8035689"><ele>1094.7</ele><time>2015-04-27T14:56:25.0000000+00:00</time></trkpt><trkpt lat="34.9869502" lon="32.8035963"><ele>1095.5</ele><time>2015-04-27T14:56:28.0000000+00:00</time></trkpt><trkpt lat="34.9868939" lon="32.8036169"><ele>1096.5</ele><time>2015-04-27T14:56:31.0000000+00:00</time></trkpt><trkpt lat="34.9868315" lon="32.8036202"><ele>1096.5</ele><time>2015-04-27T14:56:34.0000000+00:00</time></trkpt><trkpt lat="34.9867676" lon="32.8036127"><ele>1096.7</ele><time>2015-04-27T14:56:37.0000000+00:00</time></trkpt><trkpt lat="34.9867018" lon="32.8036157"><ele>1097.3</ele><time>2015-04-27T14:56:40.0000000+00:00</time></trkpt><trkpt lat="34.9866413" lon="32.8036227"><ele>1097.7</ele><time>2015-04-27T14:56:43.0000000+00:00</time></trkpt><trkpt lat="34.9865869" lon="32.8036272"><ele>1097.8</ele><time>2015-04-27T14:56:46.0000000+00:00</time></trkpt><trkpt lat="34.9865352" lon="32.8036477"><ele>1098.5</ele><time>2015-04-27T14:56:49.0000000+00:00</time></trkpt><trkpt lat="34.9864816" lon="32.8036562"><ele>1098.7</ele><time>2015-04-27T14:56:52.0000000+00:00</time></trkpt><trkpt lat="34.9864309" lon="32.8036491"><ele>1099.6</ele><time>2015-04-27T14:56:55.0000000+00:00</time></trkpt><trkpt lat="34.9863846" lon="32.8036556"><ele>1099.7</ele><time>2015-04-27T14:56:58.0000000+00:00</time></trkpt><trkpt lat="34.9863809" lon="32.8037146"><ele>1098.3</ele><time>2015-04-27T15:10:25.0000000+00:00</time></trkpt><trkpt lat="34.9863532" lon="32.8037781"><ele>1098.7</ele><time>2015-04-27T15:10:29.0000000+00:00</time></trkpt><trkpt lat="34.9863244" lon="32.8038304"><ele>1099.0</ele><time>2015-04-27T15:10:32.0000000+00:00</time></trkpt><trkpt lat="34.9863018" lon="32.8038952"><ele>1098.0</ele><time>2015-04-27T15:10:35.0000000+00:00</time></trkpt><trkpt lat="34.9862884" lon="32.8039582"><ele>1097.8</ele><time>2015-04-27T15:10:38.0000000+00:00</time></trkpt><trkpt lat="34.9862632" lon="32.8040093"><ele>1097.8</ele><time>2015-04-27T15:10:41.0000000+00:00</time></trkpt><trkpt lat="34.9862394" lon="32.8040676"><ele>1098.5</ele><time>2015-04-27T15:10:45.0000000+00:00</time></trkpt><trkpt lat="34.9862224" lon="32.8041228"><ele>1099.6</ele><time>2015-04-27T15:10:48.0000000+00:00</time></trkpt><trkpt lat="34.9861984" lon="32.8041822"><ele>1100.0</ele><time>2015-04-27T15:10:51.0000000+00:00</time></trkpt><trkpt lat="34.9861709" lon="32.8042448"><ele>1100.3</ele><time>2015-04-27T15:10:54.0000000+00:00</time></trkpt><trkpt lat="34.9861365" lon="32.80432"><ele>1100.8</ele><time>2015-04-27T15:10:57.0000000+00:00</time></trkpt><trkpt lat="34.986106" lon="32.8043871"><ele>1101.3</ele><time>2015-04-27T15:10:59.0000000+00:00</time></trkpt><trkpt lat="34.9860778" lon="32.8044606"><ele>1101.4</ele><time>2015-04-27T15:11:01.0000000+00:00</time></trkpt><trkpt lat="34.9860544" lon="32.804537"><ele>1101.7</ele><time>2015-04-27T15:11:03.0000000+00:00</time></trkpt><trkpt lat="34.9860283" lon="32.8046109"><ele>1101.2</ele><time>2015-04-27T15:11:05.0000000+00:00</time></trkpt><trkpt lat="34.9860052" lon="32.8046875"><ele>1099.6</ele><time>2015-04-27T15:11:07.0000000+00:00</time></trkpt><trkpt lat="34.9859673" lon="32.8047517"><ele>1098.2</ele><time>2015-04-27T15:11:09.0000000+00:00</time></trkpt><trkpt lat="34.9859207" lon="32.804812"><ele>1098.6</ele><time>2015-04-27T15:11:11.0000000+00:00</time></trkpt><trkpt lat="34.9858671" lon="32.8048676"><ele>1098.2</ele><time>2015-04-27T15:11:13.0000000+00:00</time></trkpt><trkpt lat="34.9858132" lon="32.804926"><ele>1098.1</ele><time>2015-04-27T15:11:15.0000000+00:00</time></trkpt><trkpt lat="34.9857641" lon="32.8049842"><ele>1098.4</ele><time>2015-04-27T15:11:17.0000000+00:00</time></trkpt><trkpt lat="34.9857018" lon="32.8050369"><ele>1098.2</ele><time>2015-04-27T15:11:19.0000000+00:00</time></trkpt><trkpt lat="34.985643" lon="32.8050763"><ele>1098.4</ele><time>2015-04-27T15:11:21.0000000+00:00</time></trkpt><trkpt lat="34.9855838" lon="32.8051062"><ele>1097.9</ele><time>2015-04-27T15:11:23.0000000+00:00</time></trkpt><trkpt lat="34.9855271" lon="32.8051394"><ele>1097.8</ele><time>2015-04-27T15:11:25.0000000+00:00</time></trkpt><trkpt lat="34.9854712" lon="32.8051729"><ele>1097.0</ele><time>2015-04-27T15:11:27.0000000+00:00</time></trkpt><trkpt lat="34.9854148" lon="32.8052104"><ele>1096.1</ele><time>2015-04-27T15:11:29.0000000+00:00</time></trkpt><trkpt lat="34.9853618" lon="32.8052596"><ele>1096.1</ele><time>2015-04-27T15:11:31.0000000+00:00</time></trkpt><trkpt lat="34.9853075" lon="32.8053116"><ele>1095.8</ele><time>2015-04-27T15:11:33.0000000+00:00</time></trkpt><trkpt lat="34.9852488" lon="32.8053597"><ele>1095.0</ele><time>2015-04-27T15:11:35.0000000+00:00</time></trkpt><trkpt lat="34.9851894" lon="32.8054087"><ele>1094.8</ele><time>2015-04-27T15:11:37.0000000+00:00</time></trkpt><trkpt lat="34.9851303" lon="32.8054674"><ele>1094.3</ele><time>2015-04-27T15:11:39.0000000+00:00</time></trkpt><trkpt lat="34.9850742" lon="32.8055234"><ele>1094.6</ele><time>2015-04-27T15:11:41.0000000+00:00</time></trkpt><trkpt lat="34.985032" lon="32.8055621"><ele>1094.2</ele><time>2015-04-27T15:11:42.0000000+00:00</time></trkpt><trkpt lat="34.9849932" lon="32.805596"><ele>1094.0</ele><time>2015-04-27T15:11:43.0000000+00:00</time></trkpt><trkpt lat="34.9849276" lon="32.8056489"><ele>1093.9</ele><time>2015-04-27T15:11:44.0000000+00:00</time></trkpt><trkpt lat="34.9848907" lon="32.8056852"><ele>1093.8</ele><time>2015-04-27T15:11:45.0000000+00:00</time></trkpt><trkpt lat="34.9848483" lon="32.8057206"><ele>1093.8</ele><time>2015-04-27T15:11:46.0000000+00:00</time></trkpt><trkpt lat="34.9848094" lon="32.8057588"><ele>1093.8</ele><time>2015-04-27T15:11:47.0000000+00:00</time></trkpt><trkpt lat="34.9847548" lon="32.8057889"><ele>1094.3</ele><time>2015-04-27T15:11:48.0000000+00:00</time></trkpt><trkpt lat="34.9847113" lon="32.8058312"><ele>1094.0</ele><time>2015-04-27T15:11:49.0000000+00:00</time></trkpt><trkpt lat="34.9846649" lon="32.805871"><ele>1094.4</ele><time>2015-04-27T15:11:50.0000000+00:00</time></trkpt><trkpt lat="34.9846156" lon="32.8059189"><ele>1094.1</ele><time>2015-04-27T15:11:51.0000000+00:00</time></trkpt><trkpt lat="34.9845614" lon="32.8059676"><ele>1093.9</ele><time>2015-04-27T15:11:52.0000000+00:00</time></trkpt><trkpt lat="34.9845128" lon="32.8060042"><ele>1093.3</ele><time>2015-04-27T15:11:53.0000000+00:00</time></trkpt><trkpt lat="34.9844723" lon="32.8060461"><ele>1093.6</ele><time>2015-04-27T15:11:54.0000000+00:00</time></trkpt><trkpt lat="34.9844236" lon="32.8060697"><ele>1093.2</ele><time>2015-04-27T15:11:55.0000000+00:00</time></trkpt><trkpt lat="34.9843802" lon="32.8061077"><ele>1093.5</ele><time>2015-04-27T15:11:56.0000000+00:00</time></trkpt><trkpt lat="34.9843321" lon="32.8061355"><ele>1093.6</ele><time>2015-04-27T15:11:57.0000000+00:00</time></trkpt><trkpt lat="34.9842896" lon="32.8061708"><ele>1093.7</ele><time>2015-04-27T15:11:58.0000000+00:00</time></trkpt><trkpt lat="34.9842494" lon="32.8062109"><ele>1093.7</ele><time>2015-04-27T15:11:59.0000000+00:00</time></trkpt><trkpt lat="34.9842078" lon="32.8062446"><ele>1093.2</ele><time>2015-04-27T15:12:00.0000000+00:00</time></trkpt><trkpt lat="34.9841298" lon="32.8062937"><ele>1094.4</ele><time>2015-04-27T15:12:02.0000000+00:00</time></trkpt><trkpt lat="34.9840897" lon="32.8063229"><ele>1095.1</ele><time>2015-04-27T15:12:03.0000000+00:00</time></trkpt><trkpt lat="34.9840069" lon="32.8063923"><ele>1092.6</ele><time>2015-04-27T15:12:05.0000000+00:00</time></trkpt><trkpt lat="34.9839692" lon="32.8064232"><ele>1091.7</ele><time>2015-04-27T15:12:06.0000000+00:00</time></trkpt><trkpt lat="34.9839329" lon="32.8064573"><ele>1090.7</ele><time>2015-04-27T15:12:07.0000000+00:00</time></trkpt><trkpt lat="34.9838683" lon="32.8065286"><ele>1089.5</ele><time>2015-04-27T15:12:09.0000000+00:00</time></trkpt><trkpt lat="34.9838345" lon="32.8065682"><ele>1089.1</ele><time>2015-04-27T15:12:10.0000000+00:00</time></trkpt><trkpt lat="34.9837965" lon="32.8066022"><ele>1088.4</ele><time>2015-04-27T15:12:11.0000000+00:00</time></trkpt><trkpt lat="34.9837637" lon="32.8066417"><ele>1088.1</ele><time>2015-04-27T15:12:12.0000000+00:00</time></trkpt><trkpt lat="34.9837339" lon="32.8066844"><ele>1088.4</ele><time>2015-04-27T15:12:13.0000000+00:00</time></trkpt><trkpt lat="34.9836851" lon="32.8067657"><ele>1088.7</ele><time>2015-04-27T15:12:15.0000000+00:00</time></trkpt><trkpt lat="34.9836518" lon="32.8068201"><ele>1090.7</ele><time>2015-04-27T15:12:17.0000000+00:00</time></trkpt><trkpt lat="34.9836138" lon="32.8068929"><ele>1091.5</ele><time>2015-04-27T15:12:19.0000000+00:00</time></trkpt><trkpt lat="34.9835846" lon="32.8069353"><ele>1091.6</ele><time>2015-04-27T15:12:20.0000000+00:00</time></trkpt><trkpt lat="34.9835532" lon="32.8069778"><ele>1091.2</ele><time>2015-04-27T15:12:21.0000000+00:00</time></trkpt><trkpt lat="34.9835136" lon="32.8070206"><ele>1091.0</ele><time>2015-04-27T15:12:22.0000000+00:00</time></trkpt><trkpt lat="34.9834762" lon="32.8070604"><ele>1090.9</ele><time>2015-04-27T15:12:23.0000000+00:00</time></trkpt><trkpt lat="34.9834374" lon="32.8070897"><ele>1090.8</ele><time>2015-04-27T15:12:24.0000000+00:00</time></trkpt><trkpt lat="34.9833941" lon="32.8071131"><ele>1090.3</ele><time>2015-04-27T15:12:25.0000000+00:00</time></trkpt><trkpt lat="34.9833157" lon="32.8071579"><ele>1089.1</ele><time>2015-04-27T15:12:27.0000000+00:00</time></trkpt><trkpt lat="34.9832496" lon="32.8071967"><ele>1088.9</ele><time>2015-04-27T15:12:29.0000000+00:00</time></trkpt><trkpt lat="34.9831823" lon="32.807233"><ele>1088.0</ele><time>2015-04-27T15:12:31.0000000+00:00</time></trkpt><trkpt lat="34.9831172" lon="32.8072751"><ele>1087.8</ele><time>2015-04-27T15:12:33.0000000+00:00</time></trkpt><trkpt lat="34.9830654" lon="32.8073252"><ele>1088.3</ele><time>2015-04-27T15:12:35.0000000+00:00</time></trkpt><trkpt lat="34.9830206" lon="32.8073852"><ele>1088.6</ele><time>2015-04-27T15:12:37.0000000+00:00</time></trkpt><trkpt lat="34.9829786" lon="32.8074473"><ele>1088.2</ele><time>2015-04-27T15:12:39.0000000+00:00</time></trkpt><trkpt lat="34.9829392" lon="32.8075139"><ele>1088.1</ele><time>2015-04-27T15:12:41.0000000+00:00</time></trkpt><trkpt lat="34.9829106" lon="32.8075831"><ele>1086.9</ele><time>2015-04-27T15:12:43.0000000+00:00</time></trkpt><trkpt lat="34.9828826" lon="32.8076464"><ele>1086.8</ele><time>2015-04-27T15:12:45.0000000+00:00</time></trkpt><trkpt lat="34.9828458" lon="32.8077059"><ele>1087.5</ele><time>2015-04-27T15:12:47.0000000+00:00</time></trkpt><trkpt lat="34.9828087" lon="32.8077703"><ele>1087.7</ele><time>2015-04-27T15:12:49.0000000+00:00</time></trkpt><trkpt lat="34.9827711" lon="32.807832"><ele>1087.5</ele><time>2015-04-27T15:12:51.0000000+00:00</time></trkpt><trkpt lat="34.9827294" lon="32.8078826"><ele>1087.7</ele><time>2015-04-27T15:12:53.0000000+00:00</time></trkpt><trkpt lat="34.9826832" lon="32.8079322"><ele>1088.5</ele><time>2015-04-27T15:12:55.0000000+00:00</time></trkpt><trkpt lat="34.9826269" lon="32.8079815"><ele>1088.7</ele><time>2015-04-27T15:12:57.0000000+00:00</time></trkpt><trkpt lat="34.9825701" lon="32.8080309"><ele>1089.5</ele><time>2015-04-27T15:12:59.0000000+00:00</time></trkpt><trkpt lat="34.9825102" lon="32.8080902"><ele>1089.7</ele><time>2015-04-27T15:13:01.0000000+00:00</time></trkpt><trkpt lat="34.9824614" lon="32.8081517"><ele>1089.7</ele><time>2015-04-27T15:13:03.0000000+00:00</time></trkpt><trkpt lat="34.9824182" lon="32.8082134"><ele>1089.3</ele><time>2015-04-27T15:13:05.0000000+00:00</time></trkpt><trkpt lat="34.9823784" lon="32.808268"><ele>1089.1</ele><time>2015-04-27T15:13:07.0000000+00:00</time></trkpt><trkpt lat="34.9823355" lon="32.8083118"><ele>1089.4</ele><time>2015-04-27T15:13:09.0000000+00:00</time></trkpt><trkpt lat="34.9822958" lon="32.8083588"><ele>1089.2</ele><time>2015-04-27T15:13:11.0000000+00:00</time></trkpt><trkpt lat="34.9822628" lon="32.8084114"><ele>1088.9</ele><time>2015-04-27T15:13:13.0000000+00:00</time></trkpt><trkpt lat="34.9822338" lon="32.8084672"><ele>1088.8</ele><time>2015-04-27T15:13:15.0000000+00:00</time></trkpt><trkpt lat="34.9822012" lon="32.8085238"><ele>1089.3</ele><time>2015-04-27T15:13:17.0000000+00:00</time></trkpt><trkpt lat="34.9821631" lon="32.8085826"><ele>1088.9</ele><time>2015-04-27T15:13:19.0000000+00:00</time></trkpt><trkpt lat="34.9821105" lon="32.8086371"><ele>1087.5</ele><time>2015-04-27T15:13:21.0000000+00:00</time></trkpt><trkpt lat="34.9820551" lon="32.8086951"><ele>1087.2</ele><time>2015-04-27T15:13:23.0000000+00:00</time></trkpt><trkpt lat="34.9819972" lon="32.8087471"><ele>1088.4</ele><time>2015-04-27T15:13:25.0000000+00:00</time></trkpt><trkpt lat="34.9819304" lon="32.8087804"><ele>1089.4</ele><time>2015-04-27T15:13:27.0000000+00:00</time></trkpt><trkpt lat="34.9818642" lon="32.8088069"><ele>1089.2</ele><time>2015-04-27T15:13:29.0000000+00:00</time></trkpt><trkpt lat="34.9817995" lon="32.8088316"><ele>1088.9</ele><time>2015-04-27T15:13:31.0000000+00:00</time></trkpt><trkpt lat="34.9817323" lon="32.8088461"><ele>1089.8</ele><time>2015-04-27T15:13:33.0000000+00:00</time></trkpt><trkpt lat="34.9816622" lon="32.8088481"><ele>1090.5</ele><time>2015-04-27T15:13:35.0000000+00:00</time></trkpt><trkpt lat="34.9815926" lon="32.8088438"><ele>1091.5</ele><time>2015-04-27T15:13:37.0000000+00:00</time></trkpt><trkpt lat="34.9815259" lon="32.808845"><ele>1091.9</ele><time>2015-04-27T15:13:39.0000000+00:00</time></trkpt><trkpt lat="34.9814565" lon="32.8088518"><ele>1093.1</ele><time>2015-04-27T15:13:41.0000000+00:00</time></trkpt><trkpt lat="34.9813866" lon="32.8088594"><ele>1094.1</ele><time>2015-04-27T15:13:43.0000000+00:00</time></trkpt><trkpt lat="34.9813166" lon="32.8088736"><ele>1094.6</ele><time>2015-04-27T15:13:45.0000000+00:00</time></trkpt><trkpt lat="34.9812493" lon="32.8089023"><ele>1094.7</ele><time>2015-04-27T15:13:47.0000000+00:00</time></trkpt><trkpt lat="34.9811809" lon="32.8089406"><ele>1094.8</ele><time>2015-04-27T15:13:49.0000000+00:00</time></trkpt><trkpt lat="34.9811157" lon="32.8089854"><ele>1094.5</ele><time>2015-04-27T15:13:51.0000000+00:00</time></trkpt><trkpt lat="34.9810563" lon="32.8090311"><ele>1094.5</ele><time>2015-04-27T15:13:53.0000000+00:00</time></trkpt><trkpt lat="34.9810025" lon="32.8090814"><ele>1094.7</ele><time>2015-04-27T15:13:55.0000000+00:00</time></trkpt><trkpt lat="34.9809533" lon="32.8091327"><ele>1094.2</ele><time>2015-04-27T15:13:57.0000000+00:00</time></trkpt><trkpt lat="34.9809028" lon="32.8091866"><ele>1094.4</ele><time>2015-04-27T15:13:59.0000000+00:00</time></trkpt><trkpt lat="34.9808521" lon="32.8092393"><ele>1095.2</ele><time>2015-04-27T15:14:01.0000000+00:00</time></trkpt><trkpt lat="34.9808047" lon="32.8092766"><ele>1096.4</ele><time>2015-04-27T15:14:03.0000000+00:00</time></trkpt><trkpt lat="34.980757" lon="32.8093105"><ele>1095.9</ele><time>2015-04-27T15:14:05.0000000+00:00</time></trkpt><trkpt lat="34.9807002" lon="32.8093437"><ele>1096.3</ele><time>2015-04-27T15:14:07.0000000+00:00</time></trkpt><trkpt lat="34.9806353" lon="32.8093812"><ele>1096.6</ele><time>2015-04-27T15:14:09.0000000+00:00</time></trkpt><trkpt lat="34.9805629" lon="32.8094191"><ele>1096.7</ele><time>2015-04-27T15:14:11.0000000+00:00</time></trkpt><trkpt lat="34.9804922" lon="32.8094468"><ele>1097.5</ele><time>2015-04-27T15:14:13.0000000+00:00</time></trkpt><trkpt lat="34.9804241" lon="32.8094641"><ele>1097.7</ele><time>2015-04-27T15:14:15.0000000+00:00</time></trkpt><trkpt lat="34.9803611" lon="32.8094758"><ele>1098.2</ele><time>2015-04-27T15:14:17.0000000+00:00</time></trkpt><trkpt lat="34.980303" lon="32.8094713"><ele>1098.6</ele><time>2015-04-27T15:14:19.0000000+00:00</time></trkpt><trkpt lat="34.9802463" lon="32.8094544"><ele>1099.2</ele><time>2015-04-27T15:14:21.0000000+00:00</time></trkpt><trkpt lat="34.9801919" lon="32.8094441"><ele>1099.1</ele><time>2015-04-27T15:14:23.0000000+00:00</time></trkpt><trkpt lat="34.9801395" lon="32.8094488"><ele>1099.6</ele><time>2015-04-27T15:14:25.0000000+00:00</time></trkpt><trkpt lat="34.9800833" lon="32.8094549"><ele>1099.2</ele><time>2015-04-27T15:14:27.0000000+00:00</time></trkpt><trkpt lat="34.9800174" lon="32.8094613"><ele>1098.4</ele><time>2015-04-27T15:14:29.0000000+00:00</time></trkpt><trkpt lat="34.9799415" lon="32.8094671"><ele>1097.9</ele><time>2015-04-27T15:14:31.0000000+00:00</time></trkpt><trkpt lat="34.9798563" lon="32.809478"><ele>1097.8</ele><time>2015-04-27T15:14:33.0000000+00:00</time></trkpt><trkpt lat="34.9797714" lon="32.8095008"><ele>1097.8</ele><time>2015-04-27T15:14:35.0000000+00:00</time></trkpt><trkpt lat="34.9796946" lon="32.8095505"><ele>1097.8</ele><time>2015-04-27T15:14:37.0000000+00:00</time></trkpt><trkpt lat="34.9796223" lon="32.8096034"><ele>1097.8</ele><time>2015-04-27T15:14:39.0000000+00:00</time></trkpt><trkpt lat="34.9795467" lon="32.8096427"><ele>1097.3</ele><time>2015-04-27T15:14:41.0000000+00:00</time></trkpt><trkpt lat="34.9794615" lon="32.8096603"><ele>1096.1</ele><time>2015-04-27T15:14:43.0000000+00:00</time></trkpt><trkpt lat="34.9793736" lon="32.8096572"><ele>1095.9</ele><time>2015-04-27T15:14:45.0000000+00:00</time></trkpt><trkpt lat="34.9793083" lon="32.8096373"><ele>1095.8</ele><time>2015-04-27T15:14:46.0000000+00:00</time></trkpt><trkpt lat="34.9792265" lon="32.809608"><ele>1095.8</ele><time>2015-04-27T15:14:48.0000000+00:00</time></trkpt><trkpt lat="34.9791752" lon="32.8095929"><ele>1095.3</ele><time>2015-04-27T15:14:49.0000000+00:00</time></trkpt><trkpt lat="34.9791261" lon="32.8095694"><ele>1095.5</ele><time>2015-04-27T15:14:50.0000000+00:00</time></trkpt><trkpt lat="34.9790247" lon="32.8095538"><ele>1095.7</ele><time>2015-04-27T15:14:52.0000000+00:00</time></trkpt><trkpt lat="34.978971" lon="32.8095594"><ele>1095.2</ele><time>2015-04-27T15:14:53.0000000+00:00</time></trkpt><trkpt lat="34.9789159" lon="32.8095722"><ele>1095.5</ele><time>2015-04-27T15:14:54.0000000+00:00</time></trkpt><trkpt lat="34.9788632" lon="32.8095839"><ele>1095.1</ele><time>2015-04-27T15:14:55.0000000+00:00</time></trkpt><trkpt lat="34.9788086" lon="32.8095968"><ele>1094.9</ele><time>2015-04-27T15:14:56.0000000+00:00</time></trkpt><trkpt lat="34.9787479" lon="32.8096081"><ele>1094.4</ele><time>2015-04-27T15:14:57.0000000+00:00</time></trkpt><trkpt lat="34.9786895" lon="32.8096079"><ele>1094.1</ele><time>2015-04-27T15:14:58.0000000+00:00</time></trkpt><trkpt lat="34.9786364" lon="32.8096149"><ele>1093.9</ele><time>2015-04-27T15:14:59.0000000+00:00</time></trkpt><trkpt lat="34.9785917" lon="32.8096239"><ele>1093.3</ele><time>2015-04-27T15:15:00.0000000+00:00</time></trkpt><trkpt lat="34.9785396" lon="32.8096101"><ele>1090.9</ele><time>2015-04-27T15:15:02.0000000+00:00</time></trkpt><trkpt lat="34.9785011" lon="32.8095811"><ele>1090.8</ele><time>2015-04-27T15:16:42.0000000+00:00</time></trkpt><trkpt lat="34.9784636" lon="32.8095484"><ele>1090.0</ele><time>2015-04-27T15:16:44.0000000+00:00</time></trkpt><trkpt lat="34.9784003" lon="32.8095168"><ele>1089.8</ele><time>2015-04-27T15:16:47.0000000+00:00</time></trkpt><trkpt lat="34.9783438" lon="32.8095037"><ele>1090.0</ele><time>2015-04-27T15:16:49.0000000+00:00</time></trkpt><trkpt lat="34.9782721" lon="32.8094842"><ele>1088.3</ele><time>2015-04-27T15:16:51.0000000+00:00</time></trkpt><trkpt lat="34.978197" lon="32.809458"><ele>1087.9</ele><time>2015-04-27T15:16:53.0000000+00:00</time></trkpt><trkpt lat="34.9781164" lon="32.8094423"><ele>1088.6</ele><time>2015-04-27T15:16:55.0000000+00:00</time></trkpt><trkpt lat="34.9780366" lon="32.8094602"><ele>1089.0</ele><time>2015-04-27T15:16:57.0000000+00:00</time></trkpt><trkpt lat="34.9779564" lon="32.8094944"><ele>1088.1</ele><time>2015-04-27T15:16:59.0000000+00:00</time></trkpt><trkpt lat="34.9779028" lon="32.8095255"><ele>1087.9</ele><time>2015-04-27T15:17:00.0000000+00:00</time></trkpt><trkpt lat="34.9778545" lon="32.809541"><ele>1087.3</ele><time>2015-04-27T15:17:01.0000000+00:00</time></trkpt><trkpt lat="34.9778082" lon="32.8095606"><ele>1087.6</ele><time>2015-04-27T15:17:02.0000000+00:00</time></trkpt><trkpt lat="34.9777576" lon="32.8095824"><ele>1087.2</ele><time>2015-04-27T15:17:03.0000000+00:00</time></trkpt><trkpt lat="34.9777096" lon="32.8096054"><ele>1087.0</ele><time>2015-04-27T15:17:04.0000000+00:00</time></trkpt><trkpt lat="34.9776588" lon="32.8096235"><ele>1086.9</ele><time>2015-04-27T15:17:05.0000000+00:00</time></trkpt><trkpt lat="34.9776101" lon="32.8096447"><ele>1087.3</ele><time>2015-04-27T15:17:06.0000000+00:00</time></trkpt><trkpt lat="34.9775571" lon="32.8096695"><ele>1087.0</ele><time>2015-04-27T15:17:07.0000000+00:00</time></trkpt><trkpt lat="34.977506" lon="32.8096938"><ele>1087.4</ele><time>2015-04-27T15:17:08.0000000+00:00</time></trkpt><trkpt lat="34.9774457" lon="32.8097139"><ele>1087.1</ele><time>2015-04-27T15:17:09.0000000+00:00</time></trkpt><trkpt lat="34.977387" lon="32.8097305"><ele>1086.9</ele><time>2015-04-27T15:17:10.0000000+00:00</time></trkpt><trkpt lat="34.9773286" lon="32.809743"><ele>1086.3</ele><time>2015-04-27T15:17:11.0000000+00:00</time></trkpt><trkpt lat="34.977272" lon="32.8097569"><ele>1086.1</ele><time>2015-04-27T15:17:12.0000000+00:00</time></trkpt><trkpt lat="34.9772131" lon="32.8097726"><ele>1085.9</ele><time>2015-04-27T15:17:13.0000000+00:00</time></trkpt><trkpt lat="34.9771547" lon="32.8097883"><ele>1085.8</ele><time>2015-04-27T15:17:14.0000000+00:00</time></trkpt><trkpt lat="34.977105" lon="32.8098012"><ele>1085.8</ele><time>2015-04-27T15:17:15.0000000+00:00</time></trkpt><trkpt lat="34.9770479" lon="32.8098024"><ele>1085.8</ele><time>2015-04-27T15:17:16.0000000+00:00</time></trkpt><trkpt lat="34.9769986" lon="32.8098074"><ele>1085.8</ele><time>2015-04-27T15:17:17.0000000+00:00</time></trkpt><trkpt lat="34.9769445" lon="32.8098103"><ele>1085.8</ele><time>2015-04-27T15:17:18.0000000+00:00</time></trkpt><trkpt lat="34.9768533" lon="32.8098136"><ele>1086.8</ele><time>2015-04-27T15:17:20.0000000+00:00</time></trkpt><trkpt lat="34.9767731" lon="32.8098115"><ele>1087.5</ele><time>2015-04-27T15:17:22.0000000+00:00</time></trkpt><trkpt lat="34.976709" lon="32.8098015"><ele>1088.2</ele><time>2015-04-27T15:17:24.0000000+00:00</time></trkpt><trkpt lat="34.9766591" lon="32.8097947"><ele>1089.1</ele><time>2015-04-27T15:17:26.0000000+00:00</time></trkpt><trkpt lat="34.9766025" lon="32.8097722"><ele>1090.4</ele><time>2015-04-27T15:17:29.0000000+00:00</time></trkpt><trkpt lat="34.9765562" lon="32.8097698"><ele>1090.7</ele><time>2015-04-27T15:17:31.0000000+00:00</time></trkpt><trkpt lat="34.9765024" lon="32.8097596"><ele>1090.7</ele><time>2015-04-27T15:17:33.0000000+00:00</time></trkpt><trkpt lat="34.9764438" lon="32.809742"><ele>1090.8</ele><time>2015-04-27T15:17:35.0000000+00:00</time></trkpt><trkpt lat="34.9763753" lon="32.8097265"><ele>1090.8</ele><time>2015-04-27T15:17:37.0000000+00:00</time></trkpt><trkpt lat="34.9763152" lon="32.809716"><ele>1090.8</ele><time>2015-04-27T15:17:39.0000000+00:00</time></trkpt><trkpt lat="34.9762582" lon="32.8097009"><ele>1090.8</ele><time>2015-04-27T15:17:42.0000000+00:00</time></trkpt><trkpt lat="34.9761973" lon="32.8096931"><ele>1089.9</ele><time>2015-04-27T15:17:45.0000000+00:00</time></trkpt><trkpt lat="34.9761498" lon="32.8096886"><ele>1090.5</ele><time>2015-04-27T15:17:47.0000000+00:00</time></trkpt><trkpt lat="34.9760996" lon="32.8096825"><ele>1090.7</ele><time>2015-04-27T15:17:49.0000000+00:00</time></trkpt><trkpt lat="34.9760486" lon="32.8096694"><ele>1090.8</ele><time>2015-04-27T15:17:51.0000000+00:00</time></trkpt><trkpt lat="34.9759944" lon="32.8096574"><ele>1091.3</ele><time>2015-04-27T15:17:53.0000000+00:00</time></trkpt><trkpt lat="34.9759431" lon="32.809642"><ele>1091.6</ele><time>2015-04-27T15:17:55.0000000+00:00</time></trkpt><trkpt lat="34.9758992" lon="32.8096165"><ele>1091.7</ele><time>2015-04-27T15:17:57.0000000+00:00</time></trkpt><trkpt lat="34.9758562" lon="32.8095969"><ele>1091.3</ele><time>2015-04-27T15:17:59.0000000+00:00</time></trkpt><trkpt lat="34.9758067" lon="32.8095834"><ele>1091.6</ele><time>2015-04-27T15:18:01.0000000+00:00</time></trkpt><trkpt lat="34.9757576" lon="32.8095609"><ele>1092.0</ele><time>2015-04-27T15:18:03.0000000+00:00</time></trkpt><trkpt lat="34.9757117" lon="32.8095225"><ele>1091.8</ele><time>2015-04-27T15:18:05.0000000+00:00</time></trkpt><trkpt lat="34.9756632" lon="32.80948"><ele>1091.8</ele><time>2015-04-27T15:18:07.0000000+00:00</time></trkpt><trkpt lat="34.9756171" lon="32.8094472"><ele>1091.3</ele><time>2015-04-27T15:18:09.0000000+00:00</time></trkpt><trkpt lat="34.9755717" lon="32.8094178"><ele>1090.4</ele><time>2015-04-27T15:18:11.0000000+00:00</time></trkpt><trkpt lat="34.975528" lon="32.8093852"><ele>1090.7</ele><time>2015-04-27T15:18:13.0000000+00:00</time></trkpt><trkpt lat="34.9754848" lon="32.8093563"><ele>1090.5</ele><time>2015-04-27T15:18:15.0000000+00:00</time></trkpt><trkpt lat="34.9754424" lon="32.8093286"><ele>1091.2</ele><time>2015-04-27T15:18:17.0000000+00:00</time></trkpt><trkpt lat="34.9753986" lon="32.809309"><ele>1091.4</ele><time>2015-04-27T15:18:19.0000000+00:00</time></trkpt><trkpt lat="34.9753486" lon="32.8093031"><ele>1091.9</ele><time>2015-04-27T15:18:21.0000000+00:00</time></trkpt><trkpt lat="34.9753001" lon="32.809303"><ele>1093.1</ele><time>2015-04-27T15:18:23.0000000+00:00</time></trkpt><trkpt lat="34.9752364" lon="32.8093176"><ele>1093.9</ele><time>2015-04-27T15:18:26.0000000+00:00</time></trkpt><trkpt lat="34.9751774" lon="32.8093372"><ele>1094.3</ele><time>2015-04-27T15:18:29.0000000+00:00</time></trkpt><trkpt lat="34.9751293" lon="32.809386"><ele>1094.7</ele><time>2015-04-27T15:18:32.0000000+00:00</time></trkpt><trkpt lat="34.975084" lon="32.80944"><ele>1094.9</ele><time>2015-04-27T15:18:35.0000000+00:00</time></trkpt><trkpt lat="34.9750491" lon="32.8094969"><ele>1095.0</ele><time>2015-04-27T15:18:38.0000000+00:00</time></trkpt><trkpt lat="34.9750176" lon="32.8095488"><ele>1096.5</ele><time>2015-04-27T15:18:41.0000000+00:00</time></trkpt><trkpt lat="34.9749816" lon="32.8095988"><ele>1096.4</ele><time>2015-04-27T15:18:45.0000000+00:00</time></trkpt><trkpt lat="34.974945" lon="32.809646"><ele>1095.1</ele><time>2015-04-27T15:18:49.0000000+00:00</time></trkpt><trkpt lat="34.9749022" lon="32.8097016"><ele>1090.8</ele><time>2015-04-27T15:18:53.0000000+00:00</time></trkpt><trkpt lat="34.9748501" lon="32.8097436"><ele>1089.3</ele><time>2015-04-27T15:18:56.0000000+00:00</time></trkpt><trkpt lat="34.9748106" lon="32.809776"><ele>1089.1</ele><time>2015-04-27T15:18:58.0000000+00:00</time></trkpt><trkpt lat="34.9747686" lon="32.8098133"><ele>1088.4</ele><time>2015-04-27T15:19:00.0000000+00:00</time></trkpt><trkpt lat="34.9747284" lon="32.8098438"><ele>1089.4</ele><time>2015-04-27T15:19:02.0000000+00:00</time></trkpt><trkpt lat="34.9746874" lon="32.809868"><ele>1090.4</ele><time>2015-04-27T15:19:04.0000000+00:00</time></trkpt><trkpt lat="34.9746266" lon="32.8099102"><ele>1091.0</ele><time>2015-04-27T15:19:07.0000000+00:00</time></trkpt><trkpt lat="34.9745853" lon="32.809934"><ele>1092.3</ele><time>2015-04-27T15:19:09.0000000+00:00</time></trkpt><trkpt lat="34.9745274" lon="32.8099632"><ele>1094.2</ele><time>2015-04-27T15:19:11.0000000+00:00</time></trkpt><trkpt lat="34.9744833" lon="32.809983"><ele>1095.9</ele><time>2015-04-27T15:19:13.0000000+00:00</time></trkpt><trkpt lat="34.9744387" lon="32.810009"><ele>1095.8</ele><time>2015-04-27T15:19:15.0000000+00:00</time></trkpt><trkpt lat="34.9743977" lon="32.8100343"><ele>1095.8</ele><time>2015-04-27T15:19:17.0000000+00:00</time></trkpt><trkpt lat="34.9743414" lon="32.8100669"><ele>1097.1</ele><time>2015-04-27T15:19:20.0000000+00:00</time></trkpt><trkpt lat="34.974285" lon="32.8100916"><ele>1097.7</ele><time>2015-04-27T15:19:23.0000000+00:00</time></trkpt><trkpt lat="34.9742272" lon="32.8101233"><ele>1096.9</ele><time>2015-04-27T15:19:26.0000000+00:00</time></trkpt><trkpt lat="34.9741677" lon="32.8101558"><ele>1096.9</ele><time>2015-04-27T15:19:29.0000000+00:00</time></trkpt><trkpt lat="34.9741122" lon="32.8101896"><ele>1097.0</ele><time>2015-04-27T15:19:32.0000000+00:00</time></trkpt><trkpt lat="34.974056" lon="32.8102345"><ele>1097.5</ele><time>2015-04-27T15:19:35.0000000+00:00</time></trkpt><trkpt lat="34.9740006" lon="32.8102786"><ele>1098.2</ele><time>2015-04-27T15:19:38.0000000+00:00</time></trkpt><trkpt lat="34.9739503" lon="32.8103207"><ele>1098.2</ele><time>2015-04-27T15:19:41.0000000+00:00</time></trkpt><trkpt lat="34.973902" lon="32.8103449"><ele>1098.0</ele><time>2015-04-27T15:19:46.0000000+00:00</time></trkpt><trkpt lat="34.9738797" lon="32.8103956"><ele>1098.7</ele><time>2015-04-27T15:19:50.0000000+00:00</time></trkpt><trkpt lat="34.9738534" lon="32.8104612"><ele>1099.1</ele><time>2015-04-27T15:19:54.0000000+00:00</time></trkpt><trkpt lat="34.9738353" lon="32.8105118"><ele>1100.2</ele><time>2015-04-27T15:19:57.0000000+00:00</time></trkpt><trkpt lat="34.9738259" lon="32.8105687"><ele>1100.7</ele><time>2015-04-27T15:20:00.0000000+00:00</time></trkpt><trkpt lat="34.9738197" lon="32.8106289"><ele>1100.3</ele><time>2015-04-27T15:20:03.0000000+00:00</time></trkpt><trkpt lat="34.9738094" lon="32.8106884"><ele>1099.1</ele><time>2015-04-27T15:20:06.0000000+00:00</time></trkpt><trkpt lat="34.9737913" lon="32.8107481"><ele>1099.3</ele><time>2015-04-27T15:20:09.0000000+00:00</time></trkpt><trkpt lat="34.9737852" lon="32.8108103"><ele>1100.5</ele><time>2015-04-27T15:20:12.0000000+00:00</time></trkpt><trkpt lat="34.97376" lon="32.8108678"><ele>1100.2</ele><time>2015-04-27T15:20:15.0000000+00:00</time></trkpt><trkpt lat="34.9737387" lon="32.8109322"><ele>1101.4</ele><time>2015-04-27T15:20:18.0000000+00:00</time></trkpt><trkpt lat="34.9737268" lon="32.810986"><ele>1101.7</ele><time>2015-04-27T15:20:21.0000000+00:00</time></trkpt><trkpt lat="34.9737012" lon="32.8110325"><ele>1102.3</ele><time>2015-04-27T15:20:24.0000000+00:00</time></trkpt><trkpt lat="34.9736709" lon="32.8110915"><ele>1104.0</ele><time>2015-04-27T15:20:28.0000000+00:00</time></trkpt><trkpt lat="34.9736252" lon="32.8111185"><ele>1103.8</ele><time>2015-04-27T15:20:31.0000000+00:00</time></trkpt><trkpt lat="34.9735733" lon="32.8111342"><ele>1101.6</ele><time>2015-04-27T15:20:36.0000000+00:00</time></trkpt><trkpt lat="34.9735213" lon="32.8111562"><ele>1100.8</ele><time>2015-04-27T15:20:40.0000000+00:00</time></trkpt><trkpt lat="34.9734684" lon="32.8111678"><ele>1102.4</ele><time>2015-04-27T15:20:43.0000000+00:00</time></trkpt><trkpt lat="34.9734147" lon="32.8111685"><ele>1103.1</ele><time>2015-04-27T15:20:46.0000000+00:00</time></trkpt><trkpt lat="34.9733658" lon="32.8111606"><ele>1102.1</ele><time>2015-04-27T15:20:49.0000000+00:00</time></trkpt><trkpt lat="34.9733116" lon="32.8111892"><ele>1103.7</ele><time>2015-04-27T15:20:53.0000000+00:00</time></trkpt><trkpt lat="34.9732681" lon="32.8112081"><ele>1105.1</ele><time>2015-04-27T15:20:56.0000000+00:00</time></trkpt><trkpt lat="34.9732147" lon="32.8112105"><ele>1104.7</ele><time>2015-04-27T15:20:59.0000000+00:00</time></trkpt><trkpt lat="34.9731694" lon="32.8111984"><ele>1103.1</ele><time>2015-04-27T15:21:03.0000000+00:00</time></trkpt><trkpt lat="34.9731167" lon="32.8112241"><ele>1104.7</ele><time>2015-04-27T15:21:08.0000000+00:00</time></trkpt><trkpt lat="34.9730647" lon="32.8112198"><ele>1104.3</ele><time>2015-04-27T15:21:12.0000000+00:00</time></trkpt><trkpt lat="34.9730177" lon="32.8112281"><ele>1105.5</ele><time>2015-04-27T15:21:15.0000000+00:00</time></trkpt><trkpt lat="34.9729716" lon="32.8112207"><ele>1105.7</ele><time>2015-04-27T15:21:18.0000000+00:00</time></trkpt><trkpt lat="34.9729242" lon="32.8112279"><ele>1106.1</ele><time>2015-04-27T15:21:21.0000000+00:00</time></trkpt><trkpt lat="34.9728758" lon="32.8112456"><ele>1107.1</ele><time>2015-04-27T15:21:24.0000000+00:00</time></trkpt><trkpt lat="34.972831" lon="32.8112561"><ele>1109.2</ele><time>2015-04-27T15:21:27.0000000+00:00</time></trkpt><trkpt lat="34.9727809" lon="32.8112635"><ele>1109.1</ele><time>2015-04-27T15:21:30.0000000+00:00</time></trkpt><trkpt lat="34.9727307" lon="32.811266"><ele>1109.6</ele><time>2015-04-27T15:21:33.0000000+00:00</time></trkpt><trkpt lat="34.9726834" lon="32.8112866"><ele>1108.9</ele><time>2015-04-27T15:21:36.0000000+00:00</time></trkpt><trkpt lat="34.9726254" lon="32.8113012"><ele>1107.5</ele><time>2015-04-27T15:21:39.0000000+00:00</time></trkpt><trkpt lat="34.9725705" lon="32.8113295"><ele>1108.6</ele><time>2015-04-27T15:21:42.0000000+00:00</time></trkpt><trkpt lat="34.9725176" lon="32.8113653"><ele>1107.9</ele><time>2015-04-27T15:21:45.0000000+00:00</time></trkpt><trkpt lat="34.9724758" lon="32.8114042"><ele>1106.2</ele><time>2015-04-27T15:21:48.0000000+00:00</time></trkpt><trkpt lat="34.9724364" lon="32.811444"><ele>1103.8</ele><time>2015-04-27T15:21:51.0000000+00:00</time></trkpt><trkpt lat="34.9724036" lon="32.8114935"><ele>1104.3</ele><time>2015-04-27T15:21:54.0000000+00:00</time></trkpt><trkpt lat="34.9723655" lon="32.8115379"><ele>1105.0</ele><time>2015-04-27T15:21:57.0000000+00:00</time></trkpt><trkpt lat="34.9723186" lon="32.8115704"><ele>1106.5</ele><time>2015-04-27T15:22:00.0000000+00:00</time></trkpt><trkpt lat="34.9722694" lon="32.8116175"><ele>1107.6</ele><time>2015-04-27T15:22:03.0000000+00:00</time></trkpt><trkpt lat="34.9722264" lon="32.8116604"><ele>1108.1</ele><time>2015-04-27T15:22:06.0000000+00:00</time></trkpt><trkpt lat="34.9721811" lon="32.8116934"><ele>1107.8</ele><time>2015-04-27T15:22:09.0000000+00:00</time></trkpt><trkpt lat="34.9721349" lon="32.8117129"><ele>1108.4</ele><time>2015-04-27T15:22:12.0000000+00:00</time></trkpt><trkpt lat="34.9720904" lon="32.8117413"><ele>1108.6</ele><time>2015-04-27T15:22:15.0000000+00:00</time></trkpt><trkpt lat="34.9720422" lon="32.8117698"><ele>1109.2</ele><time>2015-04-27T15:22:18.0000000+00:00</time></trkpt><trkpt lat="34.971995" lon="32.8117997"><ele>1109.7</ele><time>2015-04-27T15:22:21.0000000+00:00</time></trkpt><trkpt lat="34.9719516" lon="32.8118321"><ele>1108.1</ele><time>2015-04-27T15:22:24.0000000+00:00</time></trkpt><trkpt lat="34.9718972" lon="32.8118579"><ele>1109.7</ele><time>2015-04-27T15:22:28.0000000+00:00</time></trkpt><trkpt lat="34.9718529" lon="32.8118688"><ele>1109.3</ele><time>2015-04-27T15:22:31.0000000+00:00</time></trkpt><trkpt lat="34.9718084" lon="32.8118798"><ele>1109.7</ele><time>2015-04-27T15:22:34.0000000+00:00</time></trkpt><trkpt lat="34.9717622" lon="32.8118939"><ele>1110.6</ele><time>2015-04-27T15:22:37.0000000+00:00</time></trkpt><trkpt lat="34.9717047" lon="32.8119112"><ele>1110.7</ele><time>2015-04-27T15:22:40.0000000+00:00</time></trkpt><trkpt lat="34.9716456" lon="32.811928"><ele>1109.9</ele><time>2015-04-27T15:22:43.0000000+00:00</time></trkpt><trkpt lat="34.971602" lon="32.8119435"><ele>1111.0</ele><time>2015-04-27T15:22:45.0000000+00:00</time></trkpt><trkpt lat="34.9715369" lon="32.8119605"><ele>1111.1</ele><time>2015-04-27T15:22:48.0000000+00:00</time></trkpt><trkpt lat="34.9714909" lon="32.8119736"><ele>1110.8</ele><time>2015-04-27T15:22:50.0000000+00:00</time></trkpt><trkpt lat="34.9714472" lon="32.811993"><ele>1111.3</ele><time>2015-04-27T15:22:52.0000000+00:00</time></trkpt><trkpt lat="34.9713929" lon="32.8120187"><ele>1112.5</ele><time>2015-04-27T15:22:55.0000000+00:00</time></trkpt><trkpt lat="34.9713349" lon="32.8120404"><ele>1113.5</ele><time>2015-04-27T15:22:58.0000000+00:00</time></trkpt><trkpt lat="34.9712754" lon="32.8120704"><ele>1113.2</ele><time>2015-04-27T15:23:01.0000000+00:00</time></trkpt><trkpt lat="34.971215" lon="32.812092"><ele>1112.3</ele><time>2015-04-27T15:23:04.0000000+00:00</time></trkpt><trkpt lat="34.9711727" lon="32.8121119"><ele>1112.7</ele><time>2015-04-27T15:23:07.0000000+00:00</time></trkpt><trkpt lat="34.9711207" lon="32.8121317"><ele>1113.1</ele><time>2015-04-27T15:23:11.0000000+00:00</time></trkpt><trkpt lat="34.9710784" lon="32.8121726"><ele>1116.1</ele><time>2015-04-27T15:23:15.0000000+00:00</time></trkpt><trkpt lat="34.9710426" lon="32.812215"><ele>1117.4</ele><time>2015-04-27T15:23:18.0000000+00:00</time></trkpt><trkpt lat="34.9710066" lon="32.8122634"><ele>1118.2</ele><time>2015-04-27T15:23:21.0000000+00:00</time></trkpt><trkpt lat="34.9709806" lon="32.8123091"><ele>1118.9</ele><time>2015-04-27T15:23:23.0000000+00:00</time></trkpt><trkpt lat="34.9709623" lon="32.812382"><ele>1117.9</ele><time>2015-04-27T15:23:26.0000000+00:00</time></trkpt><trkpt lat="34.9709687" lon="32.8124555"><ele>1116.9</ele><time>2015-04-27T15:23:29.0000000+00:00</time></trkpt><trkpt lat="34.9709955" lon="32.8125306"><ele>1116.6</ele><time>2015-04-27T15:23:31.0000000+00:00</time></trkpt><trkpt lat="34.9710156" lon="32.8126012"><ele>1115.0</ele><time>2015-04-27T15:23:33.0000000+00:00</time></trkpt><trkpt lat="34.9710287" lon="32.8126663"><ele>1114.1</ele><time>2015-04-27T15:23:35.0000000+00:00</time></trkpt><trkpt lat="34.971051" lon="32.8127275"><ele>1113.8</ele><time>2015-04-27T15:23:37.0000000+00:00</time></trkpt><trkpt lat="34.9710754" lon="32.8127901"><ele>1114.3</ele><time>2015-04-27T15:23:39.0000000+00:00</time></trkpt><trkpt lat="34.9710908" lon="32.8128532"><ele>1114.6</ele><time>2015-04-27T15:23:41.0000000+00:00</time></trkpt><trkpt lat="34.9711128" lon="32.8129252"><ele>1114.0</ele><time>2015-04-27T15:23:44.0000000+00:00</time></trkpt><trkpt lat="34.9711256" lon="32.8129882"><ele>1113.5</ele><time>2015-04-27T15:23:47.0000000+00:00</time></trkpt><trkpt lat="34.9711476" lon="32.813049"><ele>1112.9</ele><time>2015-04-27T15:23:50.0000000+00:00</time></trkpt><trkpt lat="34.9711583" lon="32.8131118"><ele>1112.3</ele><time>2015-04-27T15:23:52.0000000+00:00</time></trkpt><trkpt lat="34.9711693" lon="32.8131845"><ele>1111.9</ele><time>2015-04-27T15:23:54.0000000+00:00</time></trkpt><trkpt lat="34.9711781" lon="32.8132529"><ele>1112.5</ele><time>2015-04-27T15:23:56.0000000+00:00</time></trkpt><trkpt lat="34.9711777" lon="32.8133122"><ele>1112.2</ele><time>2015-04-27T15:23:58.0000000+00:00</time></trkpt><trkpt lat="34.9711738" lon="32.813374"><ele>1111.9</ele><time>2015-04-27T15:24:00.0000000+00:00</time></trkpt><trkpt lat="34.9711776" lon="32.8134384"><ele>1111.8</ele><time>2015-04-27T15:24:02.0000000+00:00</time></trkpt><trkpt lat="34.9711792" lon="32.8135043"><ele>1111.8</ele><time>2015-04-27T15:24:04.0000000+00:00</time></trkpt><trkpt lat="34.9711786" lon="32.8135668"><ele>1112.5</ele><time>2015-04-27T15:24:06.0000000+00:00</time></trkpt><trkpt lat="34.9711695" lon="32.8136394"><ele>1112.0</ele><time>2015-04-27T15:24:09.0000000+00:00</time></trkpt><trkpt lat="34.9711654" lon="32.8137054"><ele>1112.7</ele><time>2015-04-27T15:24:12.0000000+00:00</time></trkpt><trkpt lat="34.9711556" lon="32.8137756"><ele>1112.7</ele><time>2015-04-27T15:24:14.0000000+00:00</time></trkpt><trkpt lat="34.9711277" lon="32.8138509"><ele>1112.8</ele><time>2015-04-27T15:24:16.0000000+00:00</time></trkpt><trkpt lat="34.9710847" lon="32.813909"><ele>1112.8</ele><time>2015-04-27T15:24:18.0000000+00:00</time></trkpt><trkpt lat="34.9710376" lon="32.8139537"><ele>1113.5</ele><time>2015-04-27T15:24:20.0000000+00:00</time></trkpt><trkpt lat="34.9709826" lon="32.8139978"><ele>1114.2</ele><time>2015-04-27T15:24:23.0000000+00:00</time></trkpt><trkpt lat="34.9709422" lon="32.8140262"><ele>1114.6</ele><time>2015-04-27T15:24:25.0000000+00:00</time></trkpt><trkpt lat="34.9708901" lon="32.8140608"><ele>1115.5</ele><time>2015-04-27T15:24:27.0000000+00:00</time></trkpt><trkpt lat="34.9708277" lon="32.8140957"><ele>1115.7</ele><time>2015-04-27T15:24:29.0000000+00:00</time></trkpt><trkpt lat="34.9707599" lon="32.8140997"><ele>1115.7</ele><time>2015-04-27T15:24:31.0000000+00:00</time></trkpt><trkpt lat="34.9706956" lon="32.814084"><ele>1115.8</ele><time>2015-04-27T15:24:33.0000000+00:00</time></trkpt><trkpt lat="34.9706447" lon="32.8140654"><ele>1115.8</ele><time>2015-04-27T15:24:35.0000000+00:00</time></trkpt><trkpt lat="34.9706004" lon="32.8140387"><ele>1115.8</ele><time>2015-04-27T15:24:37.0000000+00:00</time></trkpt><trkpt lat="34.9705591" lon="32.814002"><ele>1116.5</ele><time>2015-04-27T15:24:39.0000000+00:00</time></trkpt><trkpt lat="34.970517" lon="32.8139652"><ele>1116.7</ele><time>2015-04-27T15:24:41.0000000+00:00</time></trkpt><trkpt lat="34.9704726" lon="32.8139316"><ele>1116.7</ele><time>2015-04-27T15:24:43.0000000+00:00</time></trkpt><trkpt lat="34.9704303" lon="32.8138946"><ele>1117.5</ele><time>2015-04-27T15:24:45.0000000+00:00</time></trkpt><trkpt lat="34.9703872" lon="32.8138567"><ele>1118.2</ele><time>2015-04-27T15:24:47.0000000+00:00</time></trkpt><trkpt lat="34.9703428" lon="32.8138213"><ele>1118.6</ele><time>2015-04-27T15:24:49.0000000+00:00</time></trkpt><trkpt lat="34.9702989" lon="32.8137826"><ele>1118.7</ele><time>2015-04-27T15:24:51.0000000+00:00</time></trkpt><trkpt lat="34.9702541" lon="32.8137427"><ele>1118.3</ele><time>2015-04-27T15:24:53.0000000+00:00</time></trkpt><trkpt lat="34.970208" lon="32.8137066"><ele>1117.9</ele><time>2015-04-27T15:24:55.0000000+00:00</time></trkpt><trkpt lat="34.9701588" lon="32.81368"><ele>1118.3</ele><time>2015-04-27T15:24:57.0000000+00:00</time></trkpt><trkpt lat="34.9701083" lon="32.8136589"><ele>1118.6</ele><time>2015-04-27T15:24:59.0000000+00:00</time></trkpt><trkpt lat="34.970058" lon="32.8136341"><ele>1118.7</ele><time>2015-04-27T15:25:01.0000000+00:00</time></trkpt><trkpt lat="34.9700067" lon="32.8136123"><ele>1118.8</ele><time>2015-04-27T15:25:03.0000000+00:00</time></trkpt><trkpt lat="34.9699543" lon="32.8135934"><ele>1118.3</ele><time>2015-04-27T15:25:05.0000000+00:00</time></trkpt><trkpt lat="34.9698999" lon="32.8135866"><ele>1118.6</ele><time>2015-04-27T15:25:07.0000000+00:00</time></trkpt><trkpt lat="34.9698385" lon="32.8135988"><ele>1119.0</ele><time>2015-04-27T15:25:09.0000000+00:00</time></trkpt><trkpt lat="34.9697761" lon="32.8136298"><ele>1119.3</ele><time>2015-04-27T15:25:11.0000000+00:00</time></trkpt><trkpt lat="34.9697192" lon="32.8136746"><ele>1118.9</ele><time>2015-04-27T15:25:13.0000000+00:00</time></trkpt><trkpt lat="34.9696666" lon="32.8137255"><ele>1118.8</ele><time>2015-04-27T15:25:15.0000000+00:00</time></trkpt><trkpt lat="34.9696163" lon="32.8137743"><ele>1119.3</ele><time>2015-04-27T15:25:17.0000000+00:00</time></trkpt><trkpt lat="34.9695623" lon="32.8138147"><ele>1120.1</ele><time>2015-04-27T15:25:19.0000000+00:00</time></trkpt><trkpt lat="34.9695081" lon="32.813852"><ele>1120.6</ele><time>2015-04-27T15:25:21.0000000+00:00</time></trkpt><trkpt lat="34.9694538" lon="32.8138828"><ele>1120.7</ele><time>2015-04-27T15:25:23.0000000+00:00</time></trkpt><trkpt lat="34.9693934" lon="32.8138954"><ele>1120.8</ele><time>2015-04-27T15:25:25.0000000+00:00</time></trkpt><trkpt lat="34.9693219" lon="32.8138925"><ele>1119.5</ele><time>2015-04-27T15:25:27.0000000+00:00</time></trkpt><trkpt lat="34.9692438" lon="32.8138868"><ele>1118.2</ele><time>2015-04-27T15:25:29.0000000+00:00</time></trkpt><trkpt lat="34.969162" lon="32.8138695"><ele>1118.4</ele><time>2015-04-27T15:25:31.0000000+00:00</time></trkpt><trkpt lat="34.9691014" lon="32.8138492"><ele>1118.6</ele><time>2015-04-27T15:25:32.0000000+00:00</time></trkpt><trkpt lat="34.9690502" lon="32.8138472"><ele>1118.2</ele><time>2015-04-27T15:25:33.0000000+00:00</time></trkpt><trkpt lat="34.9690019" lon="32.8138405"><ele>1118.0</ele><time>2015-04-27T15:25:34.0000000+00:00</time></trkpt><trkpt lat="34.9689512" lon="32.8138292"><ele>1117.9</ele><time>2015-04-27T15:25:35.0000000+00:00</time></trkpt><trkpt lat="34.9689067" lon="32.8138194"><ele>1118.3</ele><time>2015-04-27T15:25:36.0000000+00:00</time></trkpt><trkpt lat="34.9688606" lon="32.8138091"><ele>1119.0</ele><time>2015-04-27T15:25:37.0000000+00:00</time></trkpt><trkpt lat="34.9688112" lon="32.8137962"><ele>1119.4</ele><time>2015-04-27T15:25:38.0000000+00:00</time></trkpt><trkpt lat="34.9687618" lon="32.8137805"><ele>1119.1</ele><time>2015-04-27T15:25:39.0000000+00:00</time></trkpt><trkpt lat="34.9687105" lon="32.8137721"><ele>1118.9</ele><time>2015-04-27T15:25:40.0000000+00:00</time></trkpt><trkpt lat="34.9686519" lon="32.8137742"><ele>1118.8</ele><time>2015-04-27T15:25:41.0000000+00:00</time></trkpt><trkpt lat="34.9685851" lon="32.8137614"><ele>1118.8</ele><time>2015-04-27T15:25:42.0000000+00:00</time></trkpt><trkpt lat="34.9685247" lon="32.8137483"><ele>1118.8</ele><time>2015-04-27T15:25:43.0000000+00:00</time></trkpt><trkpt lat="34.968461" lon="32.8137376"><ele>1118.8</ele><time>2015-04-27T15:25:44.0000000+00:00</time></trkpt><trkpt lat="34.9684004" lon="32.8137326"><ele>1118.8</ele><time>2015-04-27T15:25:45.0000000+00:00</time></trkpt><trkpt lat="34.9683339" lon="32.8137265"><ele>1118.8</ele><time>2015-04-27T15:25:46.0000000+00:00</time></trkpt><trkpt lat="34.9682678" lon="32.8137294"><ele>1118.3</ele><time>2015-04-27T15:25:47.0000000+00:00</time></trkpt><trkpt lat="34.9681993" lon="32.8137426"><ele>1118.0</ele><time>2015-04-27T15:25:48.0000000+00:00</time></trkpt><trkpt lat="34.9681337" lon="32.8137755"><ele>1116.9</ele><time>2015-04-27T15:25:49.0000000+00:00</time></trkpt><trkpt lat="34.9680771" lon="32.8138248"><ele>1116.3</ele><time>2015-04-27T15:25:50.0000000+00:00</time></trkpt><trkpt lat="34.968035" lon="32.8138878"><ele>1116.0</ele><time>2015-04-27T15:25:51.0000000+00:00</time></trkpt><trkpt lat="34.9680049" lon="32.8139598"><ele>1115.9</ele><time>2015-04-27T15:25:52.0000000+00:00</time></trkpt><trkpt lat="34.9679769" lon="32.8140294"><ele>1116.3</ele><time>2015-04-27T15:25:53.0000000+00:00</time></trkpt><trkpt lat="34.9679316" lon="32.8140874"><ele>1117.1</ele><time>2015-04-27T15:25:54.0000000+00:00</time></trkpt><trkpt lat="34.9678752" lon="32.8141347"><ele>1117.4</ele><time>2015-04-27T15:25:55.0000000+00:00</time></trkpt><trkpt lat="34.9678137" lon="32.81417"><ele>1118.1</ele><time>2015-04-27T15:25:56.0000000+00:00</time></trkpt><trkpt lat="34.9677526" lon="32.8141884"><ele>1118.4</ele><time>2015-04-27T15:25:57.0000000+00:00</time></trkpt><trkpt lat="34.9676909" lon="32.8142196"><ele>1119.1</ele><time>2015-04-27T15:25:58.0000000+00:00</time></trkpt><trkpt lat="34.9676404" lon="32.8142571"><ele>1119.9</ele><time>2015-04-27T15:25:59.0000000+00:00</time></trkpt><trkpt lat="34.9675928" lon="32.8143135"><ele>1119.8</ele><time>2015-04-27T15:26:00.0000000+00:00</time></trkpt><trkpt lat="34.9675724" lon="32.8143737"><ele>1119.8</ele><time>2015-04-27T15:26:01.0000000+00:00</time></trkpt><trkpt lat="34.9675729" lon="32.8144405"><ele>1119.8</ele><time>2015-04-27T15:26:02.0000000+00:00</time></trkpt><trkpt lat="34.9675755" lon="32.8145047"><ele>1119.3</ele><time>2015-04-27T15:26:03.0000000+00:00</time></trkpt><trkpt lat="34.9675812" lon="32.8145724"><ele>1119.0</ele><time>2015-04-27T15:26:04.0000000+00:00</time></trkpt><trkpt lat="34.9675816" lon="32.8146304"><ele>1118.9</ele><time>2015-04-27T15:26:05.0000000+00:00</time></trkpt><trkpt lat="34.9675786" lon="32.8146906"><ele>1118.8</ele><time>2015-04-27T15:26:06.0000000+00:00</time></trkpt><trkpt lat="34.9675756" lon="32.8147477"><ele>1118.8</ele><time>2015-04-27T15:26:07.0000000+00:00</time></trkpt><trkpt lat="34.9675656" lon="32.8148074"><ele>1118.3</ele><time>2015-04-27T15:26:08.0000000+00:00</time></trkpt><trkpt lat="34.9675534" lon="32.8148657"><ele>1118.0</ele><time>2015-04-27T15:26:09.0000000+00:00</time></trkpt><trkpt lat="34.9675371" lon="32.8149247"><ele>1117.9</ele><time>2015-04-27T15:26:10.0000000+00:00</time></trkpt><trkpt lat="34.9675278" lon="32.8149854"><ele>1117.8</ele><time>2015-04-27T15:26:11.0000000+00:00</time></trkpt><trkpt lat="34.9675324" lon="32.815049"><ele>1117.3</ele><time>2015-04-27T15:26:12.0000000+00:00</time></trkpt><trkpt lat="34.9675374" lon="32.8151197"><ele>1116.5</ele><time>2015-04-27T15:26:13.0000000+00:00</time></trkpt><trkpt lat="34.9675592" lon="32.815199"><ele>1116.6</ele><time>2015-04-27T15:26:14.0000000+00:00</time></trkpt><trkpt lat="34.9675873" lon="32.8152668"><ele>1116.2</ele><time>2015-04-27T15:26:15.0000000+00:00</time></trkpt><trkpt lat="34.9676218" lon="32.8153334"><ele>1116.5</ele><time>2015-04-27T15:26:16.0000000+00:00</time></trkpt><trkpt lat="34.967654" lon="32.8153928"><ele>1116.6</ele><time>2015-04-27T15:26:17.0000000+00:00</time></trkpt><trkpt lat="34.9676862" lon="32.8154545"><ele>1116.7</ele><time>2015-04-27T15:26:18.0000000+00:00</time></trkpt><trkpt lat="34.967711" lon="32.8155167"><ele>1116.7</ele><time>2015-04-27T15:26:19.0000000+00:00</time></trkpt><trkpt lat="34.9677333" lon="32.8155768"><ele>1116.7</ele><time>2015-04-27T15:26:20.0000000+00:00</time></trkpt><trkpt lat="34.9677513" lon="32.8156464"><ele>1117.3</ele><time>2015-04-27T15:26:21.0000000+00:00</time></trkpt><trkpt lat="34.9677676" lon="32.815726"><ele>1117.5</ele><time>2015-04-27T15:26:22.0000000+00:00</time></trkpt><trkpt lat="34.9677786" lon="32.8157995"><ele>1117.6</ele><time>2015-04-27T15:26:23.0000000+00:00</time></trkpt><trkpt lat="34.96778" lon="32.8158829"><ele>1117.7</ele><time>2015-04-27T15:26:24.0000000+00:00</time></trkpt><trkpt lat="34.9677738" lon="32.8159599"><ele>1117.7</ele><time>2015-04-27T15:26:25.0000000+00:00</time></trkpt><trkpt lat="34.9677631" lon="32.8160416"><ele>1117.2</ele><time>2015-04-27T15:26:26.0000000+00:00</time></trkpt><trkpt lat="34.967747" lon="32.8161211"><ele>1117.5</ele><time>2015-04-27T15:26:27.0000000+00:00</time></trkpt><trkpt lat="34.9677318" lon="32.8161988"><ele>1117.6</ele><time>2015-04-27T15:26:28.0000000+00:00</time></trkpt><trkpt lat="34.9677164" lon="32.816274"><ele>1117.2</ele><time>2015-04-27T15:26:29.0000000+00:00</time></trkpt><trkpt lat="34.9677047" lon="32.8163518"><ele>1117.0</ele><time>2015-04-27T15:26:30.0000000+00:00</time></trkpt><trkpt lat="34.967688" lon="32.8164182"><ele>1116.4</ele><time>2015-04-27T15:26:31.0000000+00:00</time></trkpt><trkpt lat="34.9676722" lon="32.8164926"><ele>1115.6</ele><time>2015-04-27T15:26:32.0000000+00:00</time></trkpt><trkpt lat="34.9676606" lon="32.8165634"><ele>1115.2</ele><time>2015-04-27T15:26:33.0000000+00:00</time></trkpt><trkpt lat="34.9676506" lon="32.8166326"><ele>1115.5</ele><time>2015-04-27T15:26:34.0000000+00:00</time></trkpt><trkpt lat="34.9676392" lon="32.8167017"><ele>1115.1</ele><time>2015-04-27T15:26:35.0000000+00:00</time></trkpt><trkpt lat="34.9676315" lon="32.8167746"><ele>1114.9</ele><time>2015-04-27T15:26:36.0000000+00:00</time></trkpt><trkpt lat="34.9676233" lon="32.8168494"><ele>1114.9</ele><time>2015-04-27T15:26:37.0000000+00:00</time></trkpt><trkpt lat="34.9676223" lon="32.8169269"><ele>1114.8</ele><time>2015-04-27T15:26:38.0000000+00:00</time></trkpt><trkpt lat="34.9676248" lon="32.8170008"><ele>1114.3</ele><time>2015-04-27T15:26:39.0000000+00:00</time></trkpt><trkpt lat="34.9676342" lon="32.8170796"><ele>1114.5</ele><time>2015-04-27T15:26:40.0000000+00:00</time></trkpt><trkpt lat="34.9676485" lon="32.8171585"><ele>1114.6</ele><time>2015-04-27T15:26:41.0000000+00:00</time></trkpt><trkpt lat="34.9676706" lon="32.817238"><ele>1114.7</ele><time>2015-04-27T15:26:42.0000000+00:00</time></trkpt><trkpt lat="34.9677012" lon="32.8173189"><ele>1114.7</ele><time>2015-04-27T15:26:43.0000000+00:00</time></trkpt><trkpt lat="34.9677444" lon="32.8174016"><ele>1114.8</ele><time>2015-04-27T15:26:44.0000000+00:00</time></trkpt><trkpt lat="34.9677691" lon="32.8174846"><ele>1114.8</ele><time>2015-04-27T15:26:45.0000000+00:00</time></trkpt><trkpt lat="34.9677989" lon="32.8175596"><ele>1114.3</ele><time>2015-04-27T15:26:46.0000000+00:00</time></trkpt><trkpt lat="34.9678249" lon="32.817643"><ele>1114.0</ele><time>2015-04-27T15:26:47.0000000+00:00</time></trkpt><trkpt lat="34.9678602" lon="32.8177183"><ele>1114.4</ele><time>2015-04-27T15:26:48.0000000+00:00</time></trkpt><trkpt lat="34.9678955" lon="32.8177942"><ele>1114.6</ele><time>2015-04-27T15:26:49.0000000+00:00</time></trkpt><trkpt lat="34.9679312" lon="32.8178632"><ele>1115.2</ele><time>2015-04-27T15:26:50.0000000+00:00</time></trkpt><trkpt lat="34.967958" lon="32.8179343"><ele>1116.0</ele><time>2015-04-27T15:26:51.0000000+00:00</time></trkpt><trkpt lat="34.9679817" lon="32.8179941"><ele>1116.4</ele><time>2015-04-27T15:26:52.0000000+00:00</time></trkpt><trkpt lat="34.9680013" lon="32.8180653"><ele>1116.6</ele><time>2015-04-27T15:26:53.0000000+00:00</time></trkpt><trkpt lat="34.9680383" lon="32.8181371"><ele>1117.2</ele><time>2015-04-27T15:26:54.0000000+00:00</time></trkpt><trkpt lat="34.9680668" lon="32.8182048"><ele>1117.5</ele><time>2015-04-27T15:26:55.0000000+00:00</time></trkpt><trkpt lat="34.9680853" lon="32.8182604"><ele>1117.6</ele><time>2015-04-27T15:26:56.0000000+00:00</time></trkpt><trkpt lat="34.9681123" lon="32.8183173"><ele>1117.7</ele><time>2015-04-27T15:26:57.0000000+00:00</time></trkpt><trkpt lat="34.9681321" lon="32.8183815"><ele>1117.7</ele><time>2015-04-27T15:26:58.0000000+00:00</time></trkpt><trkpt lat="34.968158" lon="32.8184437"><ele>1118.2</ele><time>2015-04-27T15:26:59.0000000+00:00</time></trkpt><trkpt lat="34.9681841" lon="32.818505"><ele>1118.5</ele><time>2015-04-27T15:27:00.0000000+00:00</time></trkpt><trkpt lat="34.9682148" lon="32.818588"><ele>1119.2</ele><time>2015-04-27T15:27:02.0000000+00:00</time></trkpt><trkpt lat="34.9682355" lon="32.8186806"><ele>1119.6</ele><time>2015-04-27T15:27:04.0000000+00:00</time></trkpt><trkpt lat="34.9682367" lon="32.8187355"><ele>1119.2</ele><time>2015-04-27T15:27:05.0000000+00:00</time></trkpt><trkpt lat="34.9682481" lon="32.8188168"><ele>1118.6</ele><time>2015-04-27T15:27:07.0000000+00:00</time></trkpt><trkpt lat="34.9682512" lon="32.8188874"><ele>1117.0</ele><time>2015-04-27T15:27:10.0000000+00:00</time></trkpt><trkpt lat="34.9682319" lon="32.8189481"><ele>1117.3</ele><time>2015-04-27T15:27:13.0000000+00:00</time></trkpt><trkpt lat="34.968203" lon="32.8190173"><ele>1118.2</ele><time>2015-04-27T15:27:16.0000000+00:00</time></trkpt><trkpt lat="34.968167" lon="32.8190805"><ele>1120.4</ele><time>2015-04-27T15:27:19.0000000+00:00</time></trkpt><trkpt lat="34.9681357" lon="32.8191486"><ele>1121.1</ele><time>2015-04-27T15:27:22.0000000+00:00</time></trkpt><trkpt lat="34.9681046" lon="32.819192"><ele>1121.1</ele><time>2015-04-27T15:27:24.0000000+00:00</time></trkpt><trkpt lat="34.9680772" lon="32.8192383"><ele>1122.6</ele><time>2015-04-27T15:27:26.0000000+00:00</time></trkpt><trkpt lat="34.9680469" lon="32.8193048"><ele>1124.5</ele><time>2015-04-27T15:27:29.0000000+00:00</time></trkpt><trkpt lat="34.9680088" lon="32.819359"><ele>1125.5</ele><time>2015-04-27T15:27:32.0000000+00:00</time></trkpt><trkpt lat="34.9679896" lon="32.8194109"><ele>1127.0</ele><time>2015-04-27T15:27:35.0000000+00:00</time></trkpt><trkpt lat="34.9679708" lon="32.8194797"><ele>1128.2</ele><time>2015-04-27T15:27:39.0000000+00:00</time></trkpt><trkpt lat="34.9679472" lon="32.8195323"><ele>1127.7</ele><time>2015-04-27T15:27:42.0000000+00:00</time></trkpt><trkpt lat="34.96793" lon="32.819594"><ele>1128.1</ele><time>2015-04-27T15:27:45.0000000+00:00</time></trkpt><trkpt lat="34.9679051" lon="32.8196433"><ele>1129.8</ele><time>2015-04-27T15:27:48.0000000+00:00</time></trkpt><trkpt lat="34.9678718" lon="32.8196964"><ele>1129.0</ele><time>2015-04-27T15:27:51.0000000+00:00</time></trkpt><trkpt lat="34.9678403" lon="32.8197559"><ele>1128.0</ele><time>2015-04-27T15:27:54.0000000+00:00</time></trkpt><trkpt lat="34.9678073" lon="32.8198082"><ele>1127.8</ele><time>2015-04-27T15:27:57.0000000+00:00</time></trkpt><trkpt lat="34.9677737" lon="32.8198538"><ele>1128.5</ele><time>2015-04-27T15:28:00.0000000+00:00</time></trkpt><trkpt lat="34.9677409" lon="32.8199002"><ele>1128.7</ele><time>2015-04-27T15:28:03.0000000+00:00</time></trkpt><trkpt lat="34.967708" lon="32.8199575"><ele>1128.3</ele><time>2015-04-27T15:28:06.0000000+00:00</time></trkpt><trkpt lat="34.9676758" lon="32.8199988"><ele>1128.5</ele><time>2015-04-27T15:28:09.0000000+00:00</time></trkpt><trkpt lat="34.967626" lon="32.820032"><ele>1128.5</ele><time>2015-04-27T15:28:13.0000000+00:00</time></trkpt><trkpt lat="34.9675823" lon="32.820068"><ele>1128.3</ele><time>2015-04-27T15:28:17.0000000+00:00</time></trkpt><trkpt lat="34.9675424" lon="32.8201"><ele>1128.7</ele><time>2015-04-27T15:28:20.0000000+00:00</time></trkpt><trkpt lat="34.9674961" lon="32.8201175"><ele>1128.3</ele><time>2015-04-27T15:28:23.0000000+00:00</time></trkpt><trkpt lat="34.9674397" lon="32.8201338"><ele>1128.7</ele><time>2015-04-27T15:28:27.0000000+00:00</time></trkpt><trkpt lat="34.9673914" lon="32.8201615"><ele>1128.8</ele><time>2015-04-27T15:28:31.0000000+00:00</time></trkpt><trkpt lat="34.9673354" lon="32.8201733"><ele>1128.3</ele><time>2015-04-27T15:28:35.0000000+00:00</time></trkpt><trkpt lat="34.9672896" lon="32.8201695"><ele>1129.5</ele><time>2015-04-27T15:28:38.0000000+00:00</time></trkpt><trkpt lat="34.9672394" lon="32.8201496"><ele>1129.9</ele><time>2015-04-27T15:28:41.0000000+00:00</time></trkpt><trkpt lat="34.96719" lon="32.8201239"><ele>1129.3</ele><time>2015-04-27T15:28:44.0000000+00:00</time></trkpt><trkpt lat="34.9671475" lon="32.8200867"><ele>1129.3</ele><time>2015-04-27T15:28:47.0000000+00:00</time></trkpt><trkpt lat="34.9671072" lon="32.8200468"><ele>1128.3</ele><time>2015-04-27T15:28:50.0000000+00:00</time></trkpt><trkpt lat="34.9670701" lon="32.819995"><ele>1129.6</ele><time>2015-04-27T15:28:53.0000000+00:00</time></trkpt><trkpt lat="34.9670336" lon="32.8199495"><ele>1128.2</ele><time>2015-04-27T15:28:56.0000000+00:00</time></trkpt><trkpt lat="34.9669951" lon="32.8198993"><ele>1129.4</ele><time>2015-04-27T15:28:59.0000000+00:00</time></trkpt><trkpt lat="34.9669408" lon="32.8198584"><ele>1127.6</ele><time>2015-04-27T15:29:02.0000000+00:00</time></trkpt><trkpt lat="34.9668954" lon="32.8198188"><ele>1127.2</ele><time>2015-04-27T15:29:05.0000000+00:00</time></trkpt><trkpt lat="34.9668574" lon="32.8197815"><ele>1127.1</ele><time>2015-04-27T15:29:08.0000000+00:00</time></trkpt><trkpt lat="34.9668195" lon="32.8197437"><ele>1126.1</ele><time>2015-04-27T15:29:11.0000000+00:00</time></trkpt><trkpt lat="34.9667945" lon="32.8196909"><ele>1126.3</ele><time>2015-04-27T15:29:14.0000000+00:00</time></trkpt><trkpt lat="34.9667594" lon="32.8196485"><ele>1125.8</ele><time>2015-04-27T15:29:17.0000000+00:00</time></trkpt><trkpt lat="34.9667267" lon="32.8195957"><ele>1127.0</ele><time>2015-04-27T15:29:20.0000000+00:00</time></trkpt><trkpt lat="34.9666843" lon="32.8195505"><ele>1128.4</ele><time>2015-04-27T15:29:23.0000000+00:00</time></trkpt><trkpt lat="34.9666457" lon="32.8194937"><ele>1129.8</ele><time>2015-04-27T15:29:26.0000000+00:00</time></trkpt><trkpt lat="34.9666003" lon="32.81945"><ele>1130.3</ele><time>2015-04-27T15:29:29.0000000+00:00</time></trkpt><trkpt lat="34.9665572" lon="32.8194032"><ele>1131.2</ele><time>2015-04-27T15:29:32.0000000+00:00</time></trkpt><trkpt lat="34.9665147" lon="32.8193558"><ele>1132.2</ele><time>2015-04-27T15:29:35.0000000+00:00</time></trkpt><trkpt lat="34.9664768" lon="32.8193107"><ele>1132.7</ele><time>2015-04-27T15:29:38.0000000+00:00</time></trkpt><trkpt lat="34.9664395" lon="32.8192758"><ele>1132.8</ele><time>2015-04-27T15:29:41.0000000+00:00</time></trkpt><trkpt lat="34.966393" lon="32.8192602"><ele>1132.8</ele><time>2015-04-27T15:29:44.0000000+00:00</time></trkpt><trkpt lat="34.9663385" lon="32.8192648"><ele>1132.8</ele><time>2015-04-27T15:29:47.0000000+00:00</time></trkpt><trkpt lat="34.9662735" lon="32.819283"><ele>1133.0</ele><time>2015-04-27T15:29:50.0000000+00:00</time></trkpt><trkpt lat="34.9662323" lon="32.8193161"><ele>1133.6</ele><time>2015-04-27T15:29:52.0000000+00:00</time></trkpt><trkpt lat="34.9661993" lon="32.8193662"><ele>1133.7</ele><time>2015-04-27T15:29:54.0000000+00:00</time></trkpt><trkpt lat="34.9661813" lon="32.8194225"><ele>1134.0</ele><time>2015-04-27T15:29:56.0000000+00:00</time></trkpt><trkpt lat="34.9661726" lon="32.81948"><ele>1134.1</ele><time>2015-04-27T15:29:58.0000000+00:00</time></trkpt><trkpt lat="34.9661664" lon="32.8195371"><ele>1134.1</ele><time>2015-04-27T15:30:00.0000000+00:00</time></trkpt><trkpt lat="34.9661628" lon="32.8195948"><ele>1134.3</ele><time>2015-04-27T15:30:02.0000000+00:00</time></trkpt><trkpt lat="34.966154" lon="32.8196518"><ele>1135.9</ele><time>2015-04-27T15:30:04.0000000+00:00</time></trkpt><trkpt lat="34.966132" lon="32.8197081"><ele>1137.1</ele><time>2015-04-27T15:30:06.0000000+00:00</time></trkpt><trkpt lat="34.9661035" lon="32.8197627"><ele>1138.3</ele><time>2015-04-27T15:30:08.0000000+00:00</time></trkpt><trkpt lat="34.9660712" lon="32.8198306"><ele>1139.2</ele><time>2015-04-27T15:30:10.0000000+00:00</time></trkpt><trkpt lat="34.9660357" lon="32.8199019"><ele>1139.4</ele><time>2015-04-27T15:30:12.0000000+00:00</time></trkpt><trkpt lat="34.9660006" lon="32.8199732"><ele>1137.9</ele><time>2015-04-27T15:30:14.0000000+00:00</time></trkpt><trkpt lat="34.9659715" lon="32.820045"><ele>1138.3</ele><time>2015-04-27T15:30:16.0000000+00:00</time></trkpt><trkpt lat="34.9659446" lon="32.8201101"><ele>1138.9</ele><time>2015-04-27T15:30:18.0000000+00:00</time></trkpt><trkpt lat="34.9659184" lon="32.820172"><ele>1139.5</ele><time>2015-04-27T15:30:20.0000000+00:00</time></trkpt><trkpt lat="34.9659064" lon="32.8202319"><ele>1141.2</ele><time>2015-04-27T15:30:22.0000000+00:00</time></trkpt><trkpt lat="34.9658979" lon="32.8202902"><ele>1141.9</ele><time>2015-04-27T15:30:24.0000000+00:00</time></trkpt><trkpt lat="34.9658948" lon="32.8203521"><ele>1141.8</ele><time>2015-04-27T15:30:26.0000000+00:00</time></trkpt><trkpt lat="34.9659177" lon="32.8204021"><ele>1141.0</ele><time>2015-04-27T15:30:28.0000000+00:00</time></trkpt><trkpt lat="34.9659377" lon="32.8204528"><ele>1140.3</ele><time>2015-04-27T15:30:30.0000000+00:00</time></trkpt><trkpt lat="34.9659661" lon="32.8205009"><ele>1140.4</ele><time>2015-04-27T15:30:32.0000000+00:00</time></trkpt><trkpt lat="34.9659884" lon="32.820552"><ele>1140.7</ele><time>2015-04-27T15:30:34.0000000+00:00</time></trkpt><trkpt lat="34.9659996" lon="32.8206075"><ele>1140.2</ele><time>2015-04-27T15:30:36.0000000+00:00</time></trkpt><trkpt lat="34.9660124" lon="32.8206889"><ele>1139.1</ele><time>2015-04-27T15:30:39.0000000+00:00</time></trkpt><trkpt lat="34.9660093" lon="32.8207716"><ele>1138.1</ele><time>2015-04-27T15:30:42.0000000+00:00</time></trkpt><trkpt lat="34.9660132" lon="32.8208281"><ele>1137.8</ele><time>2015-04-27T15:30:44.0000000+00:00</time></trkpt><trkpt lat="34.966019" lon="32.8208898"><ele>1137.8</ele><time>2015-04-27T15:30:46.0000000+00:00</time></trkpt><trkpt lat="34.9660124" lon="32.8209503"><ele>1136.5</ele><time>2015-04-27T15:30:48.0000000+00:00</time></trkpt><trkpt lat="34.9659996" lon="32.821013"><ele>1136.0</ele><time>2015-04-27T15:30:50.0000000+00:00</time></trkpt><trkpt lat="34.9659896" lon="32.8210783"><ele>1136.3</ele><time>2015-04-27T15:30:52.0000000+00:00</time></trkpt><trkpt lat="34.9659834" lon="32.8211395"><ele>1136.7</ele><time>2015-04-27T15:30:54.0000000+00:00</time></trkpt><trkpt lat="34.9659879" lon="32.8212013"><ele>1136.0</ele><time>2015-04-27T15:30:56.0000000+00:00</time></trkpt><trkpt lat="34.9659998" lon="32.8212609"><ele>1134.6</ele><time>2015-04-27T15:30:58.0000000+00:00</time></trkpt><trkpt lat="34.9660135" lon="32.8213198"><ele>1134.0</ele><time>2015-04-27T15:31:00.0000000+00:00</time></trkpt><trkpt lat="34.9660294" lon="32.8213784"><ele>1134.3</ele><time>2015-04-27T15:31:02.0000000+00:00</time></trkpt><trkpt lat="34.9660494" lon="32.8214362"><ele>1135.4</ele><time>2015-04-27T15:31:04.0000000+00:00</time></trkpt><trkpt lat="34.9660679" lon="32.8214941"><ele>1134.9</ele><time>2015-04-27T15:31:06.0000000+00:00</time></trkpt><trkpt lat="34.9660915" lon="32.8215521"><ele>1135.6</ele><time>2015-04-27T15:31:08.0000000+00:00</time></trkpt><trkpt lat="34.9661112" lon="32.821622"><ele>1135.2</ele><time>2015-04-27T15:31:10.0000000+00:00</time></trkpt><trkpt lat="34.9661217" lon="32.8217034"><ele>1134.4</ele><time>2015-04-27T15:31:12.0000000+00:00</time></trkpt><trkpt lat="34.9661184" lon="32.8218781"><ele>1133.9</ele><time>2015-04-27T15:31:14.0000000+00:00</time></trkpt><trkpt lat="34.9661211" lon="32.8219581"><ele>1133.8</ele><time>2015-04-27T15:31:15.0000000+00:00</time></trkpt><trkpt lat="34.9661253" lon="32.8220234"><ele>1133.8</ele><time>2015-04-27T15:31:16.0000000+00:00</time></trkpt><trkpt lat="34.9661444" lon="32.8220946"><ele>1134.3</ele><time>2015-04-27T15:31:17.0000000+00:00</time></trkpt><trkpt lat="34.9661764" lon="32.8221636"><ele>1134.5</ele><time>2015-04-27T15:31:18.0000000+00:00</time></trkpt><trkpt lat="34.9662187" lon="32.8222064"><ele>1134.6</ele><time>2015-04-27T15:31:19.0000000+00:00</time></trkpt><trkpt lat="34.9662674" lon="32.8222405"><ele>1134.7</ele><time>2015-04-27T15:31:20.0000000+00:00</time></trkpt><trkpt lat="34.9663264" lon="32.8222331"><ele>1135.2</ele><time>2015-04-27T15:31:21.0000000+00:00</time></trkpt><trkpt lat="34.966383" lon="32.8222406"><ele>1136.0</ele><time>2015-04-27T15:31:22.0000000+00:00</time></trkpt><trkpt lat="34.9664365" lon="32.8222445"><ele>1136.4</ele><time>2015-04-27T15:31:23.0000000+00:00</time></trkpt><trkpt lat="34.9664924" lon="32.8222688"><ele>1136.6</ele><time>2015-04-27T15:31:24.0000000+00:00</time></trkpt><trkpt lat="34.9665772" lon="32.8223245"><ele>1136.7</ele><time>2015-04-27T15:31:26.0000000+00:00</time></trkpt><trkpt lat="34.9666142" lon="32.8223647"><ele>1137.2</ele><time>2015-04-27T15:31:27.0000000+00:00</time></trkpt><trkpt lat="34.9666683" lon="32.8223985"><ele>1137.5</ele><time>2015-04-27T15:31:28.0000000+00:00</time></trkpt><trkpt lat="34.9667119" lon="32.8224376"><ele>1137.1</ele><time>2015-04-27T15:31:29.0000000+00:00</time></trkpt><trkpt lat="34.9667682" lon="32.8224704"><ele>1137.9</ele><time>2015-04-27T15:31:30.0000000+00:00</time></trkpt><trkpt lat="34.9668147" lon="32.8225054"><ele>1138.9</ele><time>2015-04-27T15:31:31.0000000+00:00</time></trkpt><trkpt lat="34.9668652" lon="32.8225256"><ele>1139.3</ele><time>2015-04-27T15:31:32.0000000+00:00</time></trkpt><trkpt lat="34.9669481" lon="32.8225591"><ele>1140.2</ele><time>2015-04-27T15:31:34.0000000+00:00</time></trkpt><trkpt lat="34.9670209" lon="32.8225702"><ele>1140.6</ele><time>2015-04-27T15:31:36.0000000+00:00</time></trkpt><trkpt lat="34.9670947" lon="32.8225591"><ele>1139.7</ele><time>2015-04-27T15:31:38.0000000+00:00</time></trkpt><trkpt lat="34.9671422" lon="32.8225495"><ele>1139.0</ele><time>2015-04-27T15:31:40.0000000+00:00</time></trkpt><trkpt lat="34.9671883" lon="32.822542"><ele>1138.8</ele><time>2015-04-27T15:31:42.0000000+00:00</time></trkpt><trkpt lat="34.9672411" lon="32.8225285"><ele>1138.0</ele><time>2015-04-27T15:31:44.0000000+00:00</time></trkpt><trkpt lat="34.9673003" lon="32.8225095"><ele>1137.8</ele><time>2015-04-27T15:31:46.0000000+00:00</time></trkpt><trkpt lat="34.9673598" lon="32.8224913"><ele>1137.0</ele><time>2015-04-27T15:31:48.0000000+00:00</time></trkpt><trkpt lat="34.9674164" lon="32.822473"><ele>1137.6</ele><time>2015-04-27T15:31:50.0000000+00:00</time></trkpt><trkpt lat="34.967465" lon="32.8224674"><ele>1137.0</ele><time>2015-04-27T15:31:52.0000000+00:00</time></trkpt><trkpt lat="34.9675124" lon="32.8224752"><ele>1136.8</ele><time>2015-04-27T15:31:55.0000000+00:00</time></trkpt><trkpt lat="34.9675662" lon="32.8224909"><ele>1138.9</ele><time>2015-04-27T15:32:00.0000000+00:00</time></trkpt><trkpt lat="34.9676158" lon="32.8225167"><ele>1139.1</ele><time>2015-04-27T15:32:04.0000000+00:00</time></trkpt><trkpt lat="34.9676603" lon="32.822539"><ele>1139.6</ele><time>2015-04-27T15:32:07.0000000+00:00</time></trkpt><trkpt lat="34.9677136" lon="32.8225594"><ele>1142.0</ele><time>2015-04-27T15:32:11.0000000+00:00</time></trkpt><trkpt lat="34.9677678" lon="32.8225674"><ele>1141.0</ele><time>2015-04-27T15:32:15.0000000+00:00</time></trkpt><trkpt lat="34.9678141" lon="32.8225738"><ele>1141.4</ele><time>2015-04-27T15:32:18.0000000+00:00</time></trkpt><trkpt lat="34.9678633" lon="32.822582"><ele>1143.0</ele><time>2015-04-27T15:32:21.0000000+00:00</time></trkpt><trkpt lat="34.9679114" lon="32.8225873"><ele>1144.5</ele><time>2015-04-27T15:32:24.0000000+00:00</time></trkpt><trkpt lat="34.967963" lon="32.8225925"><ele>1145.6</ele><time>2015-04-27T15:32:27.0000000+00:00</time></trkpt><trkpt lat="34.9680117" lon="32.8226122"><ele>1145.8</ele><time>2015-04-27T15:32:31.0000000+00:00</time></trkpt><trkpt lat="34.9680578" lon="32.8226482"><ele>1142.0</ele><time>2015-04-27T15:32:36.0000000+00:00</time></trkpt><trkpt lat="34.968101" lon="32.8226707"><ele>1143.9</ele><time>2015-04-27T15:32:39.0000000+00:00</time></trkpt><trkpt lat="34.968127" lon="32.8227206"><ele>1145.2</ele><time>2015-04-27T15:32:42.0000000+00:00</time></trkpt><trkpt lat="34.9681428" lon="32.8227822"><ele>1146.3</ele><time>2015-04-27T15:32:45.0000000+00:00</time></trkpt><trkpt lat="34.9681522" lon="32.8228467"><ele>1147.6</ele><time>2015-04-27T15:32:48.0000000+00:00</time></trkpt><trkpt lat="34.9681509" lon="32.822912"><ele>1148.1</ele><time>2015-04-27T15:32:51.0000000+00:00</time></trkpt><trkpt lat="34.9681561" lon="32.8229766"><ele>1148.3</ele><time>2015-04-27T15:32:54.0000000+00:00</time></trkpt><trkpt lat="34.9681549" lon="32.8230331"><ele>1148.6</ele><time>2015-04-27T15:32:57.0000000+00:00</time></trkpt><trkpt lat="34.9681547" lon="32.8230889"><ele>1149.6</ele><time>2015-04-27T15:33:00.0000000+00:00</time></trkpt><trkpt lat="34.9681632" lon="32.8231457"><ele>1147.9</ele><time>2015-04-27T15:33:03.0000000+00:00</time></trkpt><trkpt lat="34.9681889" lon="32.8231963"><ele>1148.5</ele><time>2015-04-27T15:33:06.0000000+00:00</time></trkpt><trkpt lat="34.9682092" lon="32.8232612"><ele>1150.1</ele><time>2015-04-27T15:33:10.0000000+00:00</time></trkpt><trkpt lat="34.9682441" lon="32.8233015"><ele>1148.3</ele><time>2015-04-27T15:33:13.0000000+00:00</time></trkpt><trkpt lat="34.9682792" lon="32.823352"><ele>1148.3</ele><time>2015-04-27T15:33:17.0000000+00:00</time></trkpt><trkpt lat="34.968305" lon="32.8234109"><ele>1149.9</ele><time>2015-04-27T15:33:21.0000000+00:00</time></trkpt><trkpt lat="34.9683261" lon="32.8234618"><ele>1150.4</ele><time>2015-04-27T15:33:24.0000000+00:00</time></trkpt><trkpt lat="34.9683466" lon="32.8235168"><ele>1151.0</ele><time>2015-04-27T15:33:27.0000000+00:00</time></trkpt><trkpt lat="34.9683601" lon="32.8235775"><ele>1151.0</ele><time>2015-04-27T15:33:30.0000000+00:00</time></trkpt><trkpt lat="34.9683661" lon="32.8236326"><ele>1151.5</ele><time>2015-04-27T15:33:33.0000000+00:00</time></trkpt><trkpt lat="34.9683746" lon="32.8236976"><ele>1151.3</ele><time>2015-04-27T15:33:37.0000000+00:00</time></trkpt><trkpt lat="34.968367" lon="32.8237632"><ele>1150.9</ele><time>2015-04-27T15:33:41.0000000+00:00</time></trkpt><trkpt lat="34.9683837" lon="32.8238171"><ele>1152.5</ele><time>2015-04-27T15:33:45.0000000+00:00</time></trkpt><trkpt lat="34.9684142" lon="32.8238764"><ele>1153.2</ele><time>2015-04-27T15:33:49.0000000+00:00</time></trkpt><trkpt lat="34.9684393" lon="32.8239335"><ele>1156.1</ele><time>2015-04-27T15:33:53.0000000+00:00</time></trkpt><trkpt lat="34.9684721" lon="32.8239748"><ele>1156.0</ele><time>2015-04-27T15:33:57.0000000+00:00</time></trkpt><trkpt lat="34.9685015" lon="32.8240342"><ele>1154.8</ele><time>2015-04-27T15:34:02.0000000+00:00</time></trkpt><trkpt lat="34.9685465" lon="32.8240642"><ele>1156.7</ele><time>2015-04-27T15:34:07.0000000+00:00</time></trkpt><trkpt lat="34.9685996" lon="32.8240979"><ele>1156.4</ele><time>2015-04-27T15:34:11.0000000+00:00</time></trkpt><trkpt lat="34.9686555" lon="32.8241193"><ele>1156.9</ele><time>2015-04-27T15:34:15.0000000+00:00</time></trkpt><trkpt lat="34.9687036" lon="32.8241224"><ele>1157.3</ele><time>2015-04-27T15:34:18.0000000+00:00</time></trkpt><trkpt lat="34.9687526" lon="32.8241234"><ele>1158.2</ele><time>2015-04-27T15:34:21.0000000+00:00</time></trkpt><trkpt lat="34.968799" lon="32.8241301"><ele>1158.1</ele><time>2015-04-27T15:34:24.0000000+00:00</time></trkpt><trkpt lat="34.968853" lon="32.8241317"><ele>1159.2</ele><time>2015-04-27T15:34:27.0000000+00:00</time></trkpt><trkpt lat="34.9689042" lon="32.824131"><ele>1159.7</ele><time>2015-04-27T15:34:30.0000000+00:00</time></trkpt><trkpt lat="34.9689554" lon="32.8241325"><ele>1160.6</ele><time>2015-04-27T15:34:33.0000000+00:00</time></trkpt><trkpt lat="34.9689996" lon="32.8241453"><ele>1161.5</ele><time>2015-04-27T15:34:36.0000000+00:00</time></trkpt><trkpt lat="34.9690531" lon="32.8241502"><ele>1160.5</ele><time>2015-04-27T15:34:40.0000000+00:00</time></trkpt><trkpt lat="34.9691109" lon="32.8241479"><ele>1159.5</ele><time>2015-04-27T15:34:44.0000000+00:00</time></trkpt><trkpt lat="34.9691587" lon="32.8241506"><ele>1159.2</ele><time>2015-04-27T15:34:47.0000000+00:00</time></trkpt><trkpt lat="34.9692058" lon="32.8241631"><ele>1158.8</ele><time>2015-04-27T15:34:50.0000000+00:00</time></trkpt><trkpt lat="34.9692554" lon="32.8241671"><ele>1160.1</ele><time>2015-04-27T15:34:53.0000000+00:00</time></trkpt><trkpt lat="34.9693036" lon="32.8241547"><ele>1160.7</ele><time>2015-04-27T15:34:56.0000000+00:00</time></trkpt><trkpt lat="34.969364" lon="32.8241449"><ele>1163.0</ele><time>2015-04-27T15:34:59.0000000+00:00</time></trkpt><trkpt lat="34.969423" lon="32.8241556"><ele>1162.8</ele><time>2015-04-27T15:35:02.0000000+00:00</time></trkpt><trkpt lat="34.9694779" lon="32.8241739"><ele>1162.8</ele><time>2015-04-27T15:35:05.0000000+00:00</time></trkpt><trkpt lat="34.9695254" lon="32.8242046"><ele>1162.9</ele><time>2015-04-27T15:35:08.0000000+00:00</time></trkpt><trkpt lat="34.9695575" lon="32.8242567"><ele>1161.4</ele><time>2015-04-27T15:35:11.0000000+00:00</time></trkpt><trkpt lat="34.9695783" lon="32.8243145"><ele>1161.3</ele><time>2015-04-27T15:35:14.0000000+00:00</time></trkpt><trkpt lat="34.9695822" lon="32.8243723"><ele>1162.6</ele><time>2015-04-27T15:35:17.0000000+00:00</time></trkpt><trkpt lat="34.9695581" lon="32.8244223"><ele>1163.5</ele><time>2015-04-27T15:35:20.0000000+00:00</time></trkpt><trkpt lat="34.9695512" lon="32.8244779"><ele>1159.0</ele><time>2015-04-27T15:36:01.0000000+00:00</time></trkpt><trkpt lat="34.9695296" lon="32.8245291"><ele>1161.0</ele><time>2015-04-27T15:36:40.0000000+00:00</time></trkpt><trkpt lat="34.9695721" lon="32.8244958"><ele>1163.8</ele><time>2015-04-27T15:37:33.0000000+00:00</time></trkpt><trkpt lat="34.9696193" lon="32.8244673"><ele>1163.8</ele><time>2015-04-27T15:37:38.0000000+00:00</time></trkpt><trkpt lat="34.9696632" lon="32.824454"><ele>1163.8</ele><time>2015-04-27T15:37:50.0000000+00:00</time></trkpt><trkpt lat="34.969618" lon="32.8244619"><ele>1162.0</ele><time>2015-04-27T15:38:48.0000000+00:00</time></trkpt><trkpt lat="34.9695743" lon="32.8244915"><ele>1160.8</ele><time>2015-04-27T15:38:52.0000000+00:00</time></trkpt><trkpt lat="34.9695334" lon="32.8245241"><ele>1159.0</ele><time>2015-04-27T15:38:56.0000000+00:00</time></trkpt><trkpt lat="34.9694896" lon="32.8245527"><ele>1166.2</ele><time>2015-04-27T15:39:13.0000000+00:00</time></trkpt><trkpt lat="34.9694513" lon="32.8245921"><ele>1164.2</ele><time>2015-04-27T15:39:17.0000000+00:00</time></trkpt><trkpt lat="34.9694104" lon="32.8246332"><ele>1164.8</ele><time>2015-04-27T15:39:39.0000000+00:00</time></trkpt><trkpt lat="34.9693637" lon="32.8246725"><ele>1164.3</ele><time>2015-04-27T15:39:43.0000000+00:00</time></trkpt><trkpt lat="34.9693155" lon="32.8247121"><ele>1164.7</ele><time>2015-04-27T15:39:46.0000000+00:00</time></trkpt><trkpt lat="34.9692789" lon="32.8247467"><ele>1164.7</ele><time>2015-04-27T15:39:48.0000000+00:00</time></trkpt><trkpt lat="34.9692448" lon="32.8247838"><ele>1164.8</ele><time>2015-04-27T15:39:50.0000000+00:00</time></trkpt><trkpt lat="34.9692011" lon="32.8248394"><ele>1165.6</ele><time>2015-04-27T15:39:53.0000000+00:00</time></trkpt><trkpt lat="34.9691599" lon="32.8248894"><ele>1165.7</ele><time>2015-04-27T15:39:56.0000000+00:00</time></trkpt><trkpt lat="34.9691136" lon="32.824951"><ele>1166.6</ele><time>2015-04-27T15:39:59.0000000+00:00</time></trkpt><trkpt lat="34.9690771" lon="32.8249947"><ele>1167.5</ele><time>2015-04-27T15:40:01.0000000+00:00</time></trkpt><trkpt lat="34.969044" lon="32.8250401"><ele>1167.7</ele><time>2015-04-27T15:40:03.0000000+00:00</time></trkpt><trkpt lat="34.9690036" lon="32.8251021"><ele>1167.5</ele><time>2015-04-27T15:40:06.0000000+00:00</time></trkpt><trkpt lat="34.9689705" lon="32.8251412"><ele>1167.7</ele><time>2015-04-27T15:40:08.0000000+00:00</time></trkpt><trkpt lat="34.9689356" lon="32.8251852"><ele>1167.7</ele><time>2015-04-27T15:40:10.0000000+00:00</time></trkpt><trkpt lat="34.9688966" lon="32.8252223"><ele>1167.8</ele><time>2015-04-27T15:40:12.0000000+00:00</time></trkpt><trkpt lat="34.96886" lon="32.8252634"><ele>1167.0</ele><time>2015-04-27T15:40:14.0000000+00:00</time></trkpt><trkpt lat="34.9688291" lon="32.8253109"><ele>1167.3</ele><time>2015-04-27T15:40:16.0000000+00:00</time></trkpt><trkpt lat="34.9687985" lon="32.8253559"><ele>1167.7</ele><time>2015-04-27T15:40:18.0000000+00:00</time></trkpt><trkpt lat="34.9687657" lon="32.8253958"><ele>1167.7</ele><time>2015-04-27T15:40:20.0000000+00:00</time></trkpt><trkpt lat="34.9687162" lon="32.8254497"><ele>1168.6</ele><time>2015-04-27T15:40:23.0000000+00:00</time></trkpt><trkpt lat="34.9686802" lon="32.8254844"><ele>1169.5</ele><time>2015-04-27T15:40:25.0000000+00:00</time></trkpt><trkpt lat="34.96864" lon="32.8255181"><ele>1168.9</ele><time>2015-04-27T15:40:27.0000000+00:00</time></trkpt><trkpt lat="34.9686003" lon="32.8255465"><ele>1169.6</ele><time>2015-04-27T15:40:29.0000000+00:00</time></trkpt><trkpt lat="34.9685376" lon="32.8255641"><ele>1169.7</ele><time>2015-04-27T15:40:32.0000000+00:00</time></trkpt><trkpt lat="34.9684891" lon="32.8255749"><ele>1169.3</ele><time>2015-04-27T15:40:34.0000000+00:00</time></trkpt><trkpt lat="34.9684357" lon="32.8255844"><ele>1168.9</ele><time>2015-04-27T15:40:36.0000000+00:00</time></trkpt><trkpt lat="34.968373" lon="32.8255908"><ele>1168.3</ele><time>2015-04-27T15:40:38.0000000+00:00</time></trkpt><trkpt lat="34.96832" lon="32.825596"><ele>1168.4</ele><time>2015-04-27T15:40:40.0000000+00:00</time></trkpt><trkpt lat="34.968272" lon="32.8256098"><ele>1167.9</ele><time>2015-04-27T15:40:42.0000000+00:00</time></trkpt><trkpt lat="34.9682197" lon="32.8256212"><ele>1167.3</ele><time>2015-04-27T15:40:44.0000000+00:00</time></trkpt><trkpt lat="34.9681633" lon="32.8256283"><ele>1167.4</ele><time>2015-04-27T15:40:46.0000000+00:00</time></trkpt><trkpt lat="34.9681048" lon="32.8256417"><ele>1167.2</ele><time>2015-04-27T15:40:48.0000000+00:00</time></trkpt><trkpt lat="34.968048" lon="32.8256578"><ele>1166.1</ele><time>2015-04-27T15:40:50.0000000+00:00</time></trkpt><trkpt lat="34.9679979" lon="32.8256772"><ele>1166.6</ele><time>2015-04-27T15:40:52.0000000+00:00</time></trkpt><trkpt lat="34.967942" lon="32.8257107"><ele>1167.6</ele><time>2015-04-27T15:40:55.0000000+00:00</time></trkpt><trkpt lat="34.9678886" lon="32.8257503"><ele>1166.4</ele><time>2015-04-27T15:40:58.0000000+00:00</time></trkpt><trkpt lat="34.9678472" lon="32.8257771"><ele>1167.4</ele><time>2015-04-27T15:41:00.0000000+00:00</time></trkpt><trkpt lat="34.9678049" lon="32.8258066"><ele>1167.2</ele><time>2015-04-27T15:41:02.0000000+00:00</time></trkpt><trkpt lat="34.9677542" lon="32.8258465"><ele>1169.1</ele><time>2015-04-27T15:41:05.0000000+00:00</time></trkpt><trkpt lat="34.9677096" lon="32.825871"><ele>1168.6</ele><time>2015-04-27T15:41:07.0000000+00:00</time></trkpt><trkpt lat="34.9676632" lon="32.8259001"><ele>1168.7</ele><time>2015-04-27T15:41:09.0000000+00:00</time></trkpt><trkpt lat="34.967613" lon="32.8259242"><ele>1169.3</ele><time>2015-04-27T15:41:11.0000000+00:00</time></trkpt><trkpt lat="34.9675665" lon="32.8259497"><ele>1169.6</ele><time>2015-04-27T15:41:13.0000000+00:00</time></trkpt><trkpt lat="34.9675177" lon="32.8259761"><ele>1169.2</ele><time>2015-04-27T15:41:15.0000000+00:00</time></trkpt><trkpt lat="34.967469" lon="32.8260084"><ele>1168.4</ele><time>2015-04-27T15:41:17.0000000+00:00</time></trkpt><trkpt lat="34.9674103" lon="32.8260565"><ele>1167.4</ele><time>2015-04-27T15:41:19.0000000+00:00</time></trkpt><trkpt lat="34.9673543" lon="32.8260966"><ele>1167.4</ele><time>2015-04-27T15:41:21.0000000+00:00</time></trkpt><trkpt lat="34.967299" lon="32.8261397"><ele>1167.4</ele><time>2015-04-27T15:41:23.0000000+00:00</time></trkpt><trkpt lat="34.9672457" lon="32.8261818"><ele>1166.7</ele><time>2015-04-27T15:41:25.0000000+00:00</time></trkpt><trkpt lat="34.9671882" lon="32.8262223"><ele>1166.0</ele><time>2015-04-27T15:41:27.0000000+00:00</time></trkpt><trkpt lat="34.9671271" lon="32.8262654"><ele>1166.6</ele><time>2015-04-27T15:41:29.0000000+00:00</time></trkpt><trkpt lat="34.967074" lon="32.8263018"><ele>1166.2</ele><time>2015-04-27T15:41:31.0000000+00:00</time></trkpt><trkpt lat="34.9670136" lon="32.8263415"><ele>1164.4</ele><time>2015-04-27T15:41:33.0000000+00:00</time></trkpt><trkpt lat="34.9669634" lon="32.8263851"><ele>1165.2</ele><time>2015-04-27T15:41:35.0000000+00:00</time></trkpt><trkpt lat="34.9669142" lon="32.8264279"><ele>1166.1</ele><time>2015-04-27T15:41:37.0000000+00:00</time></trkpt><trkpt lat="34.9668648" lon="32.8264665"><ele>1166.1</ele><time>2015-04-27T15:41:39.0000000+00:00</time></trkpt><trkpt lat="34.9668218" lon="32.8264995"><ele>1166.1</ele><time>2015-04-27T15:41:41.0000000+00:00</time></trkpt><trkpt lat="34.9667808" lon="32.8265278"><ele>1165.8</ele><time>2015-04-27T15:41:43.0000000+00:00</time></trkpt><trkpt lat="34.9667425" lon="32.826563"><ele>1165.8</ele><time>2015-04-27T15:41:45.0000000+00:00</time></trkpt><trkpt lat="34.9667094" lon="32.8266027"><ele>1165.8</ele><time>2015-04-27T15:41:47.0000000+00:00</time></trkpt><trkpt lat="34.9666648" lon="32.8266476"><ele>1165.5</ele><time>2015-04-27T15:41:50.0000000+00:00</time></trkpt><trkpt lat="34.9666189" lon="32.826687"><ele>1166.1</ele><time>2015-04-27T15:41:55.0000000+00:00</time></trkpt><trkpt lat="34.9665787" lon="32.8267294"><ele>1167.2</ele><time>2015-04-27T15:41:58.0000000+00:00</time></trkpt><trkpt lat="34.9665429" lon="32.8267681"><ele>1168.4</ele><time>2015-04-27T15:42:00.0000000+00:00</time></trkpt><trkpt lat="34.9665022" lon="32.8268062"><ele>1168.7</ele><time>2015-04-27T15:42:02.0000000+00:00</time></trkpt><trkpt lat="34.966454" lon="32.8268545"><ele>1169.3</ele><time>2015-04-27T15:42:05.0000000+00:00</time></trkpt><trkpt lat="34.966413" lon="32.8268821"><ele>1169.7</ele><time>2015-04-27T15:42:08.0000000+00:00</time></trkpt><trkpt lat="34.9663815" lon="32.8269291"><ele>1170.6</ele><time>2015-04-27T15:42:11.0000000+00:00</time></trkpt><trkpt lat="34.9663488" lon="32.8269696"><ele>1170.7</ele><time>2015-04-27T15:42:13.0000000+00:00</time></trkpt><trkpt lat="34.9662974" lon="32.8270186"><ele>1170.5</ele><time>2015-04-27T15:42:16.0000000+00:00</time></trkpt><trkpt lat="34.9662438" lon="32.8270683"><ele>1169.0</ele><time>2015-04-27T15:42:19.0000000+00:00</time></trkpt><trkpt lat="34.9661924" lon="32.8271128"><ele>1168.8</ele><time>2015-04-27T15:42:21.0000000+00:00</time></trkpt><trkpt lat="34.9661296" lon="32.8271634"><ele>1169.5</ele><time>2015-04-27T15:42:23.0000000+00:00</time></trkpt><trkpt lat="34.9660668" lon="32.8272174"><ele>1169.0</ele><time>2015-04-27T15:42:25.0000000+00:00</time></trkpt><trkpt lat="34.9660082" lon="32.8272721"><ele>1168.3</ele><time>2015-04-27T15:42:27.0000000+00:00</time></trkpt><trkpt lat="34.9659483" lon="32.827319"><ele>1167.9</ele><time>2015-04-27T15:42:29.0000000+00:00</time></trkpt><trkpt lat="34.9658911" lon="32.8273606"><ele>1168.5</ele><time>2015-04-27T15:42:31.0000000+00:00</time></trkpt><trkpt lat="34.9658414" lon="32.8273992"><ele>1169.2</ele><time>2015-04-27T15:42:33.0000000+00:00</time></trkpt><trkpt lat="34.965797" lon="32.8274206"><ele>1169.6</ele><time>2015-04-27T15:42:35.0000000+00:00</time></trkpt><trkpt lat="34.965748" lon="32.8274521"><ele>1170.2</ele><time>2015-04-27T15:42:37.0000000+00:00</time></trkpt><trkpt lat="34.9656954" lon="32.827486"><ele>1170.1</ele><time>2015-04-27T15:42:39.0000000+00:00</time></trkpt><trkpt lat="34.9656442" lon="32.8275157"><ele>1171.1</ele><time>2015-04-27T15:42:41.0000000+00:00</time></trkpt><trkpt lat="34.9655981" lon="32.827549"><ele>1172.6</ele><time>2015-04-27T15:42:43.0000000+00:00</time></trkpt><trkpt lat="34.9655518" lon="32.82759"><ele>1172.7</ele><time>2015-04-27T15:42:45.0000000+00:00</time></trkpt><trkpt lat="34.9655063" lon="32.8276399"><ele>1173.3</ele><time>2015-04-27T15:42:47.0000000+00:00</time></trkpt><trkpt lat="34.9654663" lon="32.827695"><ele>1173.1</ele><time>2015-04-27T15:42:49.0000000+00:00</time></trkpt><trkpt lat="34.9654231" lon="32.8277372"><ele>1172.9</ele><time>2015-04-27T15:42:51.0000000+00:00</time></trkpt><trkpt lat="34.9653745" lon="32.827776"><ele>1172.0</ele><time>2015-04-27T15:42:53.0000000+00:00</time></trkpt><trkpt lat="34.9653231" lon="32.8278091"><ele>1171.1</ele><time>2015-04-27T15:42:55.0000000+00:00</time></trkpt><trkpt lat="34.9652733" lon="32.8278395"><ele>1170.8</ele><time>2015-04-27T15:42:57.0000000+00:00</time></trkpt><trkpt lat="34.965225" lon="32.8278668"><ele>1170.0</ele><time>2015-04-27T15:42:59.0000000+00:00</time></trkpt><trkpt lat="34.9651778" lon="32.8278986"><ele>1169.8</ele><time>2015-04-27T15:43:01.0000000+00:00</time></trkpt><trkpt lat="34.9651319" lon="32.8279264"><ele>1170.8</ele><time>2015-04-27T15:43:03.0000000+00:00</time></trkpt><trkpt lat="34.9650893" lon="32.8279527"><ele>1170.8</ele><time>2015-04-27T15:43:05.0000000+00:00</time></trkpt><trkpt lat="34.9650476" lon="32.8279782"><ele>1170.8</ele><time>2015-04-27T15:43:07.0000000+00:00</time></trkpt><trkpt lat="34.9650072" lon="32.8280039"><ele>1170.8</ele><time>2015-04-27T15:43:09.0000000+00:00</time></trkpt><trkpt lat="34.964945" lon="32.8280337"><ele>1172.0</ele><time>2015-04-27T15:43:12.0000000+00:00</time></trkpt><trkpt lat="34.9648862" lon="32.8280587"><ele>1173.5</ele><time>2015-04-27T15:43:15.0000000+00:00</time></trkpt><trkpt lat="34.9648319" lon="32.8280878"><ele>1172.4</ele><time>2015-04-27T15:43:18.0000000+00:00</time></trkpt><trkpt lat="34.9647868" lon="32.8281248"><ele>1172.4</ele><time>2015-04-27T15:43:22.0000000+00:00</time></trkpt><trkpt lat="34.9647389" lon="32.8281472"><ele>1172.7</ele><time>2015-04-27T15:43:25.0000000+00:00</time></trkpt><trkpt lat="34.9646885" lon="32.8281814"><ele>1176.3</ele><time>2015-04-27T15:43:29.0000000+00:00</time></trkpt><trkpt lat="34.9646324" lon="32.8281986"><ele>1176.6</ele><time>2015-04-27T15:43:33.0000000+00:00</time></trkpt><trkpt lat="34.9645738" lon="32.8281936"><ele>1175.6</ele><time>2015-04-27T15:43:37.0000000+00:00</time></trkpt><trkpt lat="34.9645254" lon="32.8281875"><ele>1176.2</ele><time>2015-04-27T15:43:40.0000000+00:00</time></trkpt><trkpt lat="34.964476" lon="32.8281904"><ele>1176.6</ele><time>2015-04-27T15:43:42.0000000+00:00</time></trkpt><trkpt lat="34.9644254" lon="32.8282001"><ele>1176.7</ele><time>2015-04-27T15:43:44.0000000+00:00</time></trkpt><trkpt lat="34.9643793" lon="32.8282152"><ele>1176.8</ele><time>2015-04-27T15:43:46.0000000+00:00</time></trkpt><trkpt lat="34.9643302" lon="32.8282349"><ele>1177.3</ele><time>2015-04-27T15:43:48.0000000+00:00</time></trkpt><trkpt lat="34.9642837" lon="32.8282583"><ele>1178.1</ele><time>2015-04-27T15:43:50.0000000+00:00</time></trkpt><trkpt lat="34.9642366" lon="32.8282791"><ele>1179.2</ele><time>2015-04-27T15:43:54.0000000+00:00</time></trkpt><trkpt lat="34.9641864" lon="32.8283139"><ele>1180.5</ele><time>2015-04-27T15:43:58.0000000+00:00</time></trkpt><trkpt lat="34.9641402" lon="32.8283376"><ele>1180.7</ele><time>2015-04-27T15:44:00.0000000+00:00</time></trkpt><trkpt lat="34.9640871" lon="32.8283664"><ele>1180.8</ele><time>2015-04-27T15:44:03.0000000+00:00</time></trkpt><trkpt lat="34.9640408" lon="32.828371"><ele>1181.7</ele><time>2015-04-27T15:44:07.0000000+00:00</time></trkpt><trkpt lat="34.9639961" lon="32.8284138"><ele>1181.0</ele><time>2015-04-27T15:44:11.0000000+00:00</time></trkpt><trkpt lat="34.9639424" lon="32.828442"><ele>1180.8</ele><time>2015-04-27T15:44:14.0000000+00:00</time></trkpt><trkpt lat="34.9638786" lon="32.8284506"><ele>1180.0</ele><time>2015-04-27T15:44:16.0000000+00:00</time></trkpt><trkpt lat="34.9637912" lon="32.8284429"><ele>1180.1</ele><time>2015-04-27T15:44:18.0000000+00:00</time></trkpt><trkpt lat="34.9637422" lon="32.8284357"><ele>1179.9</ele><time>2015-04-27T15:44:19.0000000+00:00</time></trkpt><trkpt lat="34.9636829" lon="32.828424"><ele>1179.8</ele><time>2015-04-27T15:44:20.0000000+00:00</time></trkpt><trkpt lat="34.9636263" lon="32.8284212"><ele>1179.3</ele><time>2015-04-27T15:44:21.0000000+00:00</time></trkpt><trkpt lat="34.963564" lon="32.8284232"><ele>1179.0</ele><time>2015-04-27T15:44:22.0000000+00:00</time></trkpt><trkpt lat="34.9635035" lon="32.8284397"><ele>1178.9</ele><time>2015-04-27T15:44:23.0000000+00:00</time></trkpt><trkpt lat="34.9634359" lon="32.8284571"><ele>1178.8</ele><time>2015-04-27T15:44:24.0000000+00:00</time></trkpt><trkpt lat="34.963361" lon="32.8284788"><ele>1178.8</ele><time>2015-04-27T15:44:25.0000000+00:00</time></trkpt><trkpt lat="34.9632804" lon="32.828497"><ele>1178.8</ele><time>2015-04-27T15:44:26.0000000+00:00</time></trkpt><trkpt lat="34.963207" lon="32.8285212"><ele>1178.8</ele><time>2015-04-27T15:44:27.0000000+00:00</time></trkpt><trkpt lat="34.9631273" lon="32.8285422"><ele>1178.8</ele><time>2015-04-27T15:44:28.0000000+00:00</time></trkpt><trkpt lat="34.963048" lon="32.8285522"><ele>1178.8</ele><time>2015-04-27T15:44:29.0000000+00:00</time></trkpt><trkpt lat="34.9629586" lon="32.8285635"><ele>1178.8</ele><time>2015-04-27T15:44:30.0000000+00:00</time></trkpt><trkpt lat="34.9628626" lon="32.828562"><ele>1178.3</ele><time>2015-04-27T15:44:31.0000000+00:00</time></trkpt><trkpt lat="34.9627682" lon="32.8285653"><ele>1178.0</ele><time>2015-04-27T15:44:32.0000000+00:00</time></trkpt><trkpt lat="34.9626726" lon="32.8285675"><ele>1177.4</ele><time>2015-04-27T15:44:33.0000000+00:00</time></trkpt><trkpt lat="34.962585" lon="32.8285664"><ele>1176.6</ele><time>2015-04-27T15:44:34.0000000+00:00</time></trkpt><trkpt lat="34.962507" lon="32.828572"><ele>1176.2</ele><time>2015-04-27T15:44:35.0000000+00:00</time></trkpt><trkpt lat="34.9624287" lon="32.8285876"><ele>1175.5</ele><time>2015-04-27T15:44:36.0000000+00:00</time></trkpt><trkpt lat="34.9623655" lon="32.8286189"><ele>1175.1</ele><time>2015-04-27T15:44:37.0000000+00:00</time></trkpt><trkpt lat="34.9623076" lon="32.8286699"><ele>1174.9</ele><time>2015-04-27T15:44:38.0000000+00:00</time></trkpt><trkpt lat="34.962258" lon="32.8287228"><ele>1174.4</ele><time>2015-04-27T15:44:39.0000000+00:00</time></trkpt><trkpt lat="34.9622098" lon="32.8287804"><ele>1174.1</ele><time>2015-04-27T15:44:40.0000000+00:00</time></trkpt><trkpt lat="34.9621561" lon="32.8288177"><ele>1173.9</ele><time>2015-04-27T15:44:41.0000000+00:00</time></trkpt><trkpt lat="34.9620997" lon="32.8288374"><ele>1173.8</ele><time>2015-04-27T15:44:42.0000000+00:00</time></trkpt><trkpt lat="34.9620408" lon="32.8288479"><ele>1174.3</ele><time>2015-04-27T15:44:43.0000000+00:00</time></trkpt><trkpt lat="34.9619828" lon="32.8288408"><ele>1174.5</ele><time>2015-04-27T15:44:44.0000000+00:00</time></trkpt><trkpt lat="34.9619236" lon="32.8288304"><ele>1174.1</ele><time>2015-04-27T15:44:45.0000000+00:00</time></trkpt><trkpt lat="34.961864" lon="32.8288261"><ele>1173.5</ele><time>2015-04-27T15:44:46.0000000+00:00</time></trkpt><trkpt lat="34.9618184" lon="32.8288166"><ele>1173.1</ele><time>2015-04-27T15:44:47.0000000+00:00</time></trkpt><trkpt lat="34.9617573" lon="32.8288451"><ele>1173.4</ele><time>2015-04-27T15:44:49.0000000+00:00</time></trkpt><trkpt lat="34.9617683" lon="32.8289014"><ele>1172.7</ele><time>2015-04-27T15:44:51.0000000+00:00</time></trkpt><trkpt lat="34.9618565" lon="32.8289275"><ele>1171.5</ele><time>2015-04-27T15:44:53.0000000+00:00</time></trkpt><trkpt lat="34.9619186" lon="32.8289307"><ele>1171.1</ele><time>2015-04-27T15:44:54.0000000+00:00</time></trkpt><trkpt lat="34.9619733" lon="32.8289319"><ele>1171.4</ele><time>2015-04-27T15:44:55.0000000+00:00</time></trkpt><trkpt lat="34.9620505" lon="32.8289258"><ele>1170.6</ele><time>2015-04-27T15:44:56.0000000+00:00</time></trkpt><trkpt lat="34.9621228" lon="32.8289227"><ele>1169.7</ele><time>2015-04-27T15:44:57.0000000+00:00</time></trkpt><trkpt lat="34.9622001" lon="32.8289178"><ele>1168.7</ele><time>2015-04-27T15:44:58.0000000+00:00</time></trkpt><trkpt lat="34.9622893" lon="32.8289078"><ele>1167.7</ele><time>2015-04-27T15:44:59.0000000+00:00</time></trkpt><trkpt lat="34.9623797" lon="32.8288978"><ele>1167.3</ele><time>2015-04-27T15:45:00.0000000+00:00</time></trkpt><trkpt lat="34.9624697" lon="32.8288892"><ele>1166.0</ele><time>2015-04-27T15:45:01.0000000+00:00</time></trkpt><trkpt lat="34.9625653" lon="32.8288736"><ele>1165.4</ele><time>2015-04-27T15:45:02.0000000+00:00</time></trkpt><trkpt lat="34.9626631" lon="32.8288812"><ele>1165.1</ele><time>2015-04-27T15:45:03.0000000+00:00</time></trkpt><trkpt lat="34.962754" lon="32.8288976"><ele>1164.4</ele><time>2015-04-27T15:45:04.0000000+00:00</time></trkpt><trkpt lat="34.9628486" lon="32.8289182"><ele>1163.1</ele><time>2015-04-27T15:45:05.0000000+00:00</time></trkpt><trkpt lat="34.9629427" lon="32.8289397"><ele>1162.4</ele><time>2015-04-27T15:45:06.0000000+00:00</time></trkpt><trkpt lat="34.9630312" lon="32.8289582"><ele>1161.6</ele><time>2015-04-27T15:45:07.0000000+00:00</time></trkpt><trkpt lat="34.9631312" lon="32.8289569"><ele>1161.2</ele><time>2015-04-27T15:45:08.0000000+00:00</time></trkpt><trkpt lat="34.9632358" lon="32.8289397"><ele>1160.5</ele><time>2015-04-27T15:45:09.0000000+00:00</time></trkpt><trkpt lat="34.9633344" lon="32.8289258"><ele>1159.1</ele><time>2015-04-27T15:45:10.0000000+00:00</time></trkpt><trkpt lat="34.96344" lon="32.8289221"><ele>1157.9</ele><time>2015-04-27T15:45:11.0000000+00:00</time></trkpt><trkpt lat="34.9635459" lon="32.8289107"><ele>1156.4</ele><time>2015-04-27T15:45:12.0000000+00:00</time></trkpt><trkpt lat="34.9636548" lon="32.8289132"><ele>1155.1</ele><time>2015-04-27T15:45:13.0000000+00:00</time></trkpt><trkpt lat="34.963763" lon="32.828919"><ele>1153.9</ele><time>2015-04-27T15:45:14.0000000+00:00</time></trkpt><trkpt lat="34.9638792" lon="32.8289252"><ele>1152.8</ele><time>2015-04-27T15:45:15.0000000+00:00</time></trkpt><trkpt lat="34.9639908" lon="32.8289242"><ele>1151.8</ele><time>2015-04-27T15:45:16.0000000+00:00</time></trkpt><trkpt lat="34.9641019" lon="32.8289274"><ele>1150.8</ele><time>2015-04-27T15:45:17.0000000+00:00</time></trkpt><trkpt lat="34.9642102" lon="32.828927"><ele>1150.3</ele><time>2015-04-27T15:45:18.0000000+00:00</time></trkpt><trkpt lat="34.9643146" lon="32.8289396"><ele>1149.5</ele><time>2015-04-27T15:45:19.0000000+00:00</time></trkpt><trkpt lat="34.9644191" lon="32.8289617"><ele>1148.6</ele><time>2015-04-27T15:45:20.0000000+00:00</time></trkpt><trkpt lat="34.9644978" lon="32.8289895"><ele>1147.2</ele><time>2015-04-27T15:45:21.0000000+00:00</time></trkpt><trkpt lat="34.9645771" lon="32.8290195"><ele>1146.0</ele><time>2015-04-27T15:45:22.0000000+00:00</time></trkpt><trkpt lat="34.9646553" lon="32.829062"><ele>1145.4</ele><time>2015-04-27T15:45:23.0000000+00:00</time></trkpt><trkpt lat="34.9647324" lon="32.8291027"><ele>1144.6</ele><time>2015-04-27T15:45:24.0000000+00:00</time></trkpt><trkpt lat="34.9647947" lon="32.8291317"><ele>1143.7</ele><time>2015-04-27T15:45:25.0000000+00:00</time></trkpt><trkpt lat="34.9648485" lon="32.8291498"><ele>1143.2</ele><time>2015-04-27T15:45:26.0000000+00:00</time></trkpt><trkpt lat="34.9648982" lon="32.8291495"><ele>1142.5</ele><time>2015-04-27T15:45:27.0000000+00:00</time></trkpt><trkpt lat="34.9650112" lon="32.8291328"><ele>1141.7</ele><time>2015-04-27T15:45:29.0000000+00:00</time></trkpt><trkpt lat="34.9650677" lon="32.829111"><ele>1142.2</ele><time>2015-04-27T15:45:30.0000000+00:00</time></trkpt><trkpt lat="34.9650982" lon="32.8290562"><ele>1143.0</ele><time>2015-04-27T15:45:31.0000000+00:00</time></trkpt><trkpt lat="34.9651521" lon="32.8290019"><ele>1143.4</ele><time>2015-04-27T15:45:32.0000000+00:00</time></trkpt><trkpt lat="34.9652088" lon="32.8289524"><ele>1143.6</ele><time>2015-04-27T15:45:33.0000000+00:00</time></trkpt><trkpt lat="34.9652584" lon="32.8289082"><ele>1144.2</ele><time>2015-04-27T15:45:34.0000000+00:00</time></trkpt><trkpt lat="34.9653005" lon="32.8288535"><ele>1144.0</ele><time>2015-04-27T15:45:35.0000000+00:00</time></trkpt><trkpt lat="34.9653584" lon="32.8288076"><ele>1144.4</ele><time>2015-04-27T15:45:36.0000000+00:00</time></trkpt><trkpt lat="34.9654149" lon="32.8287656"><ele>1144.6</ele><time>2015-04-27T15:45:37.0000000+00:00</time></trkpt><trkpt lat="34.9654648" lon="32.8287079"><ele>1143.7</ele><time>2015-04-27T15:45:38.0000000+00:00</time></trkpt><trkpt lat="34.9655182" lon="32.828651"><ele>1142.7</ele><time>2015-04-27T15:45:39.0000000+00:00</time></trkpt><trkpt lat="34.9655855" lon="32.8285849"><ele>1141.7</ele><time>2015-04-27T15:45:40.0000000+00:00</time></trkpt><trkpt lat="34.9656533" lon="32.8285207"><ele>1141.3</ele><time>2015-04-27T15:45:41.0000000+00:00</time></trkpt><trkpt lat="34.9657213" lon="32.828449"><ele>1141.0</ele><time>2015-04-27T15:45:42.0000000+00:00</time></trkpt><trkpt lat="34.9657928" lon="32.828378"><ele>1140.4</ele><time>2015-04-27T15:45:43.0000000+00:00</time></trkpt><trkpt lat="34.9658766" lon="32.828324"><ele>1139.6</ele><time>2015-04-27T15:45:44.0000000+00:00</time></trkpt><trkpt lat="34.9659546" lon="32.8282731"><ele>1139.2</ele><time>2015-04-27T15:45:45.0000000+00:00</time></trkpt><trkpt lat="34.9660456" lon="32.8282189"><ele>1138.0</ele><time>2015-04-27T15:45:46.0000000+00:00</time></trkpt><trkpt lat="34.9661177" lon="32.8281639"><ele>1135.9</ele><time>2015-04-27T15:45:47.0000000+00:00</time></trkpt><trkpt lat="34.9661998" lon="32.8281025"><ele>1135.3</ele><time>2015-04-27T15:45:48.0000000+00:00</time></trkpt><trkpt lat="34.9662711" lon="32.8280466"><ele>1135.0</ele><time>2015-04-27T15:45:49.0000000+00:00</time></trkpt><trkpt lat="34.9663422" lon="32.8279954"><ele>1134.4</ele><time>2015-04-27T15:45:50.0000000+00:00</time></trkpt><trkpt lat="34.9664073" lon="32.8279485"><ele>1134.1</ele><time>2015-04-27T15:45:51.0000000+00:00</time></trkpt><trkpt lat="34.9664734" lon="32.827898"><ele>1133.9</ele><time>2015-04-27T15:45:52.0000000+00:00</time></trkpt><trkpt lat="34.9665297" lon="32.8278608"><ele>1133.3</ele><time>2015-04-27T15:45:53.0000000+00:00</time></trkpt><trkpt lat="34.9665832" lon="32.8278107"><ele>1132.6</ele><time>2015-04-27T15:45:54.0000000+00:00</time></trkpt><trkpt lat="34.9666236" lon="32.8277762"><ele>1132.2</ele><time>2015-04-27T15:45:55.0000000+00:00</time></trkpt><trkpt lat="34.9666712" lon="32.8277417"><ele>1131.5</ele><time>2015-04-27T15:45:56.0000000+00:00</time></trkpt><trkpt lat="34.9667476" lon="32.8276653"><ele>1130.7</ele><time>2015-04-27T15:45:58.0000000+00:00</time></trkpt><trkpt lat="34.9667894" lon="32.8276242"><ele>1131.2</ele><time>2015-04-27T15:45:59.0000000+00:00</time></trkpt><trkpt lat="34.9668364" lon="32.8275839"><ele>1131.0</ele><time>2015-04-27T15:46:00.0000000+00:00</time></trkpt><trkpt lat="34.9668768" lon="32.8275463"><ele>1130.4</ele><time>2015-04-27T15:46:01.0000000+00:00</time></trkpt><trkpt lat="34.966917" lon="32.8275199"><ele>1130.1</ele><time>2015-04-27T15:46:02.0000000+00:00</time></trkpt><trkpt lat="34.9669865" lon="32.8274967"><ele>1129.3</ele><time>2015-04-27T15:46:04.0000000+00:00</time></trkpt><trkpt lat="34.9670227" lon="32.827453"><ele>1129.2</ele><time>2015-04-27T15:46:06.0000000+00:00</time></trkpt><trkpt lat="34.9670981" lon="32.8274361"><ele>1129.1</ele><time>2015-04-27T15:46:08.0000000+00:00</time></trkpt><trkpt lat="34.9671636" lon="32.8274407"><ele>1128.9</ele><time>2015-04-27T15:46:10.0000000+00:00</time></trkpt><trkpt lat="34.9672089" lon="32.827405"><ele>1128.3</ele><time>2015-04-27T15:46:11.0000000+00:00</time></trkpt><trkpt lat="34.9672911" lon="32.827424"><ele>1127.7</ele><time>2015-04-27T15:46:13.0000000+00:00</time></trkpt><trkpt lat="34.9673734" lon="32.8274353"><ele>1124.2</ele><time>2015-04-27T15:46:15.0000000+00:00</time></trkpt><trkpt lat="34.9674617" lon="32.8274473"><ele>1123.1</ele><time>2015-04-27T15:46:17.0000000+00:00</time></trkpt><trkpt lat="34.9675161" lon="32.8274668"><ele>1122.9</ele><time>2015-04-27T15:46:18.0000000+00:00</time></trkpt><trkpt lat="34.9675875" lon="32.8274967"><ele>1122.3</ele><time>2015-04-27T15:46:20.0000000+00:00</time></trkpt><trkpt lat="34.9676565" lon="32.8275406"><ele>1123.2</ele><time>2015-04-27T15:46:22.0000000+00:00</time></trkpt><trkpt lat="34.9677104" lon="32.8275831"><ele>1123.6</ele><time>2015-04-27T15:46:24.0000000+00:00</time></trkpt><trkpt lat="34.9677639" lon="32.8276103"><ele>1122.5</ele><time>2015-04-27T15:46:26.0000000+00:00</time></trkpt><trkpt lat="34.9677983" lon="32.8276503"><ele>1122.8</ele><time>2015-04-27T15:46:45.0000000+00:00</time></trkpt><trkpt lat="34.9678426" lon="32.8276779"><ele>1124.2</ele><time>2015-04-27T15:46:54.0000000+00:00</time></trkpt><trkpt lat="34.9678864" lon="32.8276947"><ele>1123.7</ele><time>2015-04-27T15:47:00.0000000+00:00</time></trkpt><trkpt lat="34.9679326" lon="32.8277316"><ele>1123.8</ele><time>2015-04-27T15:47:05.0000000+00:00</time></trkpt><trkpt lat="34.9679543" lon="32.8277807"><ele>1124.3</ele><time>2015-04-27T15:47:37.0000000+00:00</time></trkpt></trkseg><trkseg><trkpt lat="34.96763949" lon="32.82751028"><ele>1118.6</ele><time>2015-04-28T07:44:53.0000000+00:00</time></trkpt><trkpt lat="34.96763731" lon="32.82750165"><ele>1119.1</ele><time>2015-04-28T07:45:12.0000000+00:00</time></trkpt><trkpt lat="34.96760965" lon="32.82753903"><ele>1119.1</ele><time>2015-04-28T07:45:35.0000000+00:00</time></trkpt><trkpt lat="34.96760529" lon="32.82755764"><ele>1119.1</ele><time>2015-04-28T07:45:56.0000000+00:00</time></trkpt><trkpt lat="34.96759951" lon="32.82753744"><ele>1119.1</ele><time>2015-04-28T07:46:10.0000000+00:00</time></trkpt><trkpt lat="34.96756716" lon="32.82752797"><ele>1119.1</ele><time>2015-04-28T07:46:25.0000000+00:00</time></trkpt><trkpt lat="34.96758945" lon="32.82753778"><ele>1119.1</ele><time>2015-04-28T07:46:47.0000000+00:00</time></trkpt><trkpt lat="34.96762072" lon="32.82754675"><ele>1119.1</ele><time>2015-04-28T07:47:04.0000000+00:00</time></trkpt><trkpt lat="34.96762482" lon="32.82754641"><ele>1119.1</ele><time>2015-04-28T07:47:06.0000000+00:00</time></trkpt><trkpt lat="34.9679078" lon="32.827749"><ele>1118.6</ele><time>2015-04-28T07:47:19.0000000+00:00</time></trkpt><trkpt lat="34.9679249" lon="32.82776124"><ele>1118.2</ele><time>2015-04-28T07:47:20.0000000+00:00</time></trkpt><trkpt lat="34.96794392" lon="32.82776518"><ele>1118.6</ele><time>2015-04-28T07:47:21.0000000+00:00</time></trkpt><trkpt lat="34.96795884" lon="32.82777088"><ele>1118.2</ele><time>2015-04-28T07:47:22.0000000+00:00</time></trkpt><trkpt lat="34.96797167" lon="32.82778529"><ele>1118.2</ele><time>2015-04-28T07:47:23.0000000+00:00</time></trkpt><trkpt lat="34.96798424" lon="32.82780181"><ele>1118.2</ele><time>2015-04-28T07:47:24.0000000+00:00</time></trkpt><trkpt lat="34.96799966" lon="32.82781472"><ele>1118.2</ele><time>2015-04-28T07:47:25.0000000+00:00</time></trkpt><trkpt lat="34.9680207" lon="32.82782821"><ele>1118.2</ele><time>2015-04-28T07:47:26.0000000+00:00</time></trkpt><trkpt lat="34.96830108" lon="32.82800649"><ele>1116.7</ele><time>2015-04-28T07:47:38.0000000+00:00</time></trkpt><trkpt lat="34.96854315" lon="32.82784925"><ele>1115.3</ele><time>2015-04-28T07:47:50.0000000+00:00</time></trkpt><trkpt lat="34.96858514" lon="32.82744918"><ele>1113.3</ele><time>2015-04-28T07:48:01.0000000+00:00</time></trkpt><trkpt lat="34.96868514" lon="32.82699195"><ele>1110.9</ele><time>2015-04-28T07:48:12.0000000+00:00</time></trkpt><trkpt lat="34.96897146" lon="32.82687133"><ele>1109.0</ele><time>2015-04-28T07:48:23.0000000+00:00</time></trkpt><trkpt lat="34.96925561" lon="32.82688508"><ele>1107.1</ele><time>2015-04-28T07:48:34.0000000+00:00</time></trkpt><trkpt lat="34.96931202" lon="32.8268451"><ele>1106.6</ele><time>2015-04-28T07:48:38.0000000+00:00</time></trkpt><trkpt lat="34.96932459" lon="32.82682481"><ele>1106.6</ele><time>2015-04-28T07:48:39.0000000+00:00</time></trkpt><trkpt lat="34.96933985" lon="32.82679883"><ele>1106.1</ele><time>2015-04-28T07:48:40.0000000+00:00</time></trkpt><trkpt lat="34.96937823" lon="32.82667553"><ele>1105.7</ele><time>2015-04-28T07:48:43.0000000+00:00</time></trkpt><trkpt lat="34.96939936" lon="32.82644813"><ele>1105.2</ele><time>2015-04-28T07:48:47.0000000+00:00</time></trkpt><trkpt lat="34.96944353" lon="32.82621704"><ele>1104.2</ele><time>2015-04-28T07:48:51.0000000+00:00</time></trkpt><trkpt lat="34.96946583" lon="32.82616775"><ele>1103.7</ele><time>2015-04-28T07:48:52.0000000+00:00</time></trkpt><trkpt lat="34.96948988" lon="32.82613331"><ele>1103.3</ele><time>2015-04-28T07:48:53.0000000+00:00</time></trkpt><trkpt lat="34.96951117" lon="32.8261131"><ele>1103.3</ele><time>2015-04-28T07:48:54.0000000+00:00</time></trkpt><trkpt lat="34.96953179" lon="32.82609936"><ele>1103.3</ele><time>2015-04-28T07:48:55.0000000+00:00</time></trkpt><trkpt lat="34.96954906" lon="32.82608561"><ele>1103.3</ele><time>2015-04-28T07:48:56.0000000+00:00</time></trkpt><trkpt lat="34.96956616" lon="32.82606826"><ele>1102.8</ele><time>2015-04-28T07:48:57.0000000+00:00</time></trkpt><trkpt lat="34.96958476" lon="32.82604664"><ele>1102.8</ele><time>2015-04-28T07:48:58.0000000+00:00</time></trkpt><trkpt lat="34.96960362" lon="32.82601839"><ele>1102.8</ele><time>2015-04-28T07:48:59.0000000+00:00</time></trkpt><trkpt lat="34.96968811" lon="32.82594161"><ele>1102.3</ele><time>2015-04-28T07:49:02.0000000+00:00</time></trkpt><trkpt lat="34.96972994" lon="32.825922"><ele>1101.8</ele><time>2015-04-28T07:49:03.0000000+00:00</time></trkpt><trkpt lat="34.96977822" lon="32.82591328"><ele>1101.8</ele><time>2015-04-28T07:49:04.0000000+00:00</time></trkpt><trkpt lat="34.96983111" lon="32.82591336"><ele>1101.3</ele><time>2015-04-28T07:49:05.0000000+00:00</time></trkpt><trkpt lat="34.96988366" lon="32.82592183"><ele>1101.3</ele><time>2015-04-28T07:49:06.0000000+00:00</time></trkpt><trkpt lat="34.96993664" lon="32.82593558"><ele>1100.9</ele><time>2015-04-28T07:49:07.0000000+00:00</time></trkpt><trkpt lat="34.97027535" lon="32.82606843"><ele>1099.4</ele><time>2015-04-28T07:49:13.0000000+00:00</time></trkpt><trkpt lat="34.97032975" lon="32.82610204"><ele>1098.9</ele><time>2015-04-28T07:49:14.0000000+00:00</time></trkpt><trkpt lat="34.97038046" lon="32.82614085"><ele>1098.4</ele><time>2015-04-28T07:49:15.0000000+00:00</time></trkpt><trkpt lat="34.97057366" lon="32.82629742"><ele>1096.5</ele><time>2015-04-28T07:49:20.0000000+00:00</time></trkpt><trkpt lat="34.97060979" lon="32.82631268"><ele>1096.5</ele><time>2015-04-28T07:49:21.0000000+00:00</time></trkpt><trkpt lat="34.97067659" lon="32.8263276"><ele>1096.0</ele><time>2015-04-28T07:49:23.0000000+00:00</time></trkpt><trkpt lat="34.97070828" lon="32.82631787"><ele>1096.0</ele><time>2015-04-28T07:49:24.0000000+00:00</time></trkpt><trkpt lat="34.97074138" lon="32.82629742"><ele>1095.6</ele><time>2015-04-28T07:49:25.0000000+00:00</time></trkpt><trkpt lat="34.97077701" lon="32.82626985"><ele>1095.6</ele><time>2015-04-28T07:49:26.0000000+00:00</time></trkpt><trkpt lat="34.97081447" lon="32.82623397"><ele>1095.1</ele><time>2015-04-28T07:49:27.0000000+00:00</time></trkpt><trkpt lat="34.9708485" lon="32.82619609"><ele>1094.6</ele><time>2015-04-28T07:49:28.0000000+00:00</time></trkpt><trkpt lat="34.97093484" lon="32.82613079"><ele>1094.1</ele><time>2015-04-28T07:49:31.0000000+00:00</time></trkpt><trkpt lat="34.97097415" lon="32.82619944"><ele>1093.6</ele><time>2015-04-28T07:49:38.0000000+00:00</time></trkpt><trkpt lat="34.97096417" lon="32.82619709"><ele>1094.1</ele><time>2015-04-28T07:49:53.0000000+00:00</time></trkpt><trkpt lat="34.97097046" lon="32.82620321"><ele>1093.6</ele><time>2015-04-28T07:50:20.0000000+00:00</time></trkpt><trkpt lat="34.97098421" lon="32.82618997"><ele>1093.6</ele><time>2015-04-28T07:50:48.0000000+00:00</time></trkpt><trkpt lat="34.9709563" lon="32.82615091"><ele>1093.6</ele><time>2015-04-28T07:50:53.0000000+00:00</time></trkpt><trkpt lat="34.97098069" lon="32.82608243"><ele>1093.2</ele><time>2015-04-28T07:50:57.0000000+00:00</time></trkpt><trkpt lat="34.97099753" lon="32.82606013"><ele>1093.2</ele><time>2015-04-28T07:50:58.0000000+00:00</time></trkpt><trkpt lat="34.97101639" lon="32.82603247"><ele>1093.2</ele><time>2015-04-28T07:50:59.0000000+00:00</time></trkpt><trkpt lat="34.97103911" lon="32.82600121"><ele>1093.2</ele><time>2015-04-28T07:51:00.0000000+00:00</time></trkpt><trkpt lat="34.97106484" lon="32.82596625"><ele>1092.7</ele><time>2015-04-28T07:51:01.0000000+00:00</time></trkpt><trkpt lat="34.97109468" lon="32.82592963"><ele>1092.7</ele><time>2015-04-28T07:51:02.0000000+00:00</time></trkpt><trkpt lat="34.97112863" lon="32.82589534"><ele>1092.2</ele><time>2015-04-28T07:51:03.0000000+00:00</time></trkpt><trkpt lat="34.97116786" lon="32.82586408"><ele>1092.2</ele><time>2015-04-28T07:51:04.0000000+00:00</time></trkpt><trkpt lat="34.97121035" lon="32.82583558"><ele>1091.7</ele><time>2015-04-28T07:51:05.0000000+00:00</time></trkpt><trkpt lat="34.97125746" lon="32.82581203"><ele>1091.7</ele><time>2015-04-28T07:51:06.0000000+00:00</time></trkpt><trkpt lat="34.97131026" lon="32.82579811"><ele>1091.2</ele><time>2015-04-28T07:51:07.0000000+00:00</time></trkpt><trkpt lat="34.97136667" lon="32.82579836"><ele>1091.2</ele><time>2015-04-28T07:51:08.0000000+00:00</time></trkpt><trkpt lat="34.97142484" lon="32.82581412"><ele>1090.8</ele><time>2015-04-28T07:51:09.0000000+00:00</time></trkpt><trkpt lat="34.97148293" lon="32.82584304"><ele>1090.3</ele><time>2015-04-28T07:51:10.0000000+00:00</time></trkpt><trkpt lat="34.97154018" lon="32.82587707"><ele>1090.3</ele><time>2015-04-28T07:51:11.0000000+00:00</time></trkpt><trkpt lat="34.97170195" lon="32.82598025"><ele>1088.8</ele><time>2015-04-28T07:51:14.0000000+00:00</time></trkpt><trkpt lat="34.97176012" lon="32.82600146"><ele>1088.4</ele><time>2015-04-28T07:51:15.0000000+00:00</time></trkpt><trkpt lat="34.97181896" lon="32.82601487"><ele>1088.4</ele><time>2015-04-28T07:51:16.0000000+00:00</time></trkpt><trkpt lat="34.97187629" lon="32.82602048"><ele>1087.4</ele><time>2015-04-28T07:51:17.0000000+00:00</time></trkpt><trkpt lat="34.97193287" lon="32.82601655"><ele>1086.9</ele><time>2015-04-28T07:51:18.0000000+00:00</time></trkpt><trkpt lat="34.97198995" lon="32.82599987"><ele>1086.9</ele><time>2015-04-28T07:51:19.0000000+00:00</time></trkpt><trkpt lat="34.97204879" lon="32.82596952"><ele>1086.4</ele><time>2015-04-28T07:51:20.0000000+00:00</time></trkpt><trkpt lat="34.97210864" lon="32.82592963"><ele>1086.0</ele><time>2015-04-28T07:51:21.0000000+00:00</time></trkpt><trkpt lat="34.97216656" lon="32.82588093"><ele>1085.5</ele><time>2015-04-28T07:51:22.0000000+00:00</time></trkpt><trkpt lat="34.97222724" lon="32.82583047"><ele>1085.0</ele><time>2015-04-28T07:51:23.0000000+00:00</time></trkpt><trkpt lat="34.97236311" lon="32.82573131"><ele>1084.0</ele><time>2015-04-28T07:51:25.0000000+00:00</time></trkpt><trkpt lat="34.97243729" lon="32.82568605"><ele>1083.5</ele><time>2015-04-28T07:51:26.0000000+00:00</time></trkpt><trkpt lat="34.9725181" lon="32.82565235"><ele>1083.1</ele><time>2015-04-28T07:51:27.0000000+00:00</time></trkpt><trkpt lat="34.97260393" lon="32.82563265"><ele>1082.6</ele><time>2015-04-28T07:51:28.0000000+00:00</time></trkpt><trkpt lat="34.97269294" lon="32.82562704"><ele>1082.1</ele><time>2015-04-28T07:51:29.0000000+00:00</time></trkpt><trkpt lat="34.97278313" lon="32.82563944"><ele>1081.1</ele><time>2015-04-28T07:51:30.0000000+00:00</time></trkpt><trkpt lat="34.97287148" lon="32.82567062"><ele>1081.1</ele><time>2015-04-28T07:51:31.0000000+00:00</time></trkpt><trkpt lat="34.97295412" lon="32.82571245"><ele>1080.7</ele><time>2015-04-28T07:51:32.0000000+00:00</time></trkpt><trkpt lat="34.97317658" lon="32.8258075"><ele>1078.7</ele><time>2015-04-28T07:51:35.0000000+00:00</time></trkpt><trkpt lat="34.97325612" lon="32.82581035"><ele>1077.8</ele><time>2015-04-28T07:51:36.0000000+00:00</time></trkpt><trkpt lat="34.97333642" lon="32.82579317"><ele>1077.3</ele><time>2015-04-28T07:51:37.0000000+00:00</time></trkpt><trkpt lat="34.97341437" lon="32.82575302"><ele>1076.8</ele><time>2015-04-28T07:51:38.0000000+00:00</time></trkpt><trkpt lat="34.97348604" lon="32.8256915"><ele>1076.3</ele><time>2015-04-28T07:51:39.0000000+00:00</time></trkpt><trkpt lat="34.97354865" lon="32.82561195"><ele>1075.4</ele><time>2015-04-28T07:51:40.0000000+00:00</time></trkpt><trkpt lat="34.97360732" lon="32.82552042"><ele>1074.9</ele><time>2015-04-28T07:51:41.0000000+00:00</time></trkpt><trkpt lat="34.97366566" lon="32.82542931"><ele>1074.4</ele><time>2015-04-28T07:51:42.0000000+00:00</time></trkpt><trkpt lat="34.97373322" lon="32.82534943"><ele>1073.9</ele><time>2015-04-28T07:51:43.0000000+00:00</time></trkpt><trkpt lat="34.97381352" lon="32.82528958"><ele>1073.0</ele><time>2015-04-28T07:51:44.0000000+00:00</time></trkpt><trkpt lat="34.97390429" lon="32.82525312"><ele>1072.5</ele><time>2015-04-28T07:51:45.0000000+00:00</time></trkpt><trkpt lat="34.97400203" lon="32.82524256"><ele>1071.5</ele><time>2015-04-28T07:51:46.0000000+00:00</time></trkpt><trkpt lat="34.97410236" lon="32.82525991"><ele>1071.1</ele><time>2015-04-28T07:51:47.0000000+00:00</time></trkpt><trkpt lat="34.97420504" lon="32.82529444"><ele>1070.6</ele><time>2015-04-28T07:51:48.0000000+00:00</time></trkpt><trkpt lat="34.97430428" lon="32.82533518"><ele>1069.6</ele><time>2015-04-28T07:51:49.0000000+00:00</time></trkpt><trkpt lat="34.97447401" lon="32.82540634"><ele>1067.7</ele><time>2015-04-28T07:51:51.0000000+00:00</time></trkpt><trkpt lat="34.97455356" lon="32.8254185"><ele>1067.2</ele><time>2015-04-28T07:51:52.0000000+00:00</time></trkpt><trkpt lat="34.97462891" lon="32.82540358"><ele>1066.2</ele><time>2015-04-28T07:51:53.0000000+00:00</time></trkpt><trkpt lat="34.97469236" lon="32.82536091"><ele>1065.8</ele><time>2015-04-28T07:51:54.0000000+00:00</time></trkpt><trkpt lat="34.97474307" lon="32.82529092"><ele>1064.8</ele><time>2015-04-28T07:51:55.0000000+00:00</time></trkpt><trkpt lat="34.97477677" lon="32.82520015"><ele>1064.3</ele><time>2015-04-28T07:51:56.0000000+00:00</time></trkpt><trkpt lat="34.97479822" lon="32.82509931"><ele>1063.8</ele><time>2015-04-28T07:51:57.0000000+00:00</time></trkpt><trkpt lat="34.97481457" lon="32.82499311"><ele>1063.4</ele><time>2015-04-28T07:51:58.0000000+00:00</time></trkpt><trkpt lat="34.97492471" lon="32.8244327"><ele>1060.0</ele><time>2015-04-28T07:52:03.0000000+00:00</time></trkpt><trkpt lat="34.97498078" lon="32.82433731"><ele>1059.5</ele><time>2015-04-28T07:52:04.0000000+00:00</time></trkpt><trkpt lat="34.97505287" lon="32.82425752"><ele>1059.0</ele><time>2015-04-28T07:52:05.0000000+00:00</time></trkpt><trkpt lat="34.97534003" lon="32.82399517"><ele>1056.2</ele><time>2015-04-28T07:52:09.0000000+00:00</time></trkpt><trkpt lat="34.97539686" lon="32.82392107"><ele>1055.7</ele><time>2015-04-28T07:52:10.0000000+00:00</time></trkpt><trkpt lat="34.97545126" lon="32.82384111"><ele>1055.2</ele><time>2015-04-28T07:52:11.0000000+00:00</time></trkpt><trkpt lat="34.97568746" lon="32.8235127"><ele>1052.3</ele><time>2015-04-28T07:52:16.0000000+00:00</time></trkpt><trkpt lat="34.97572619" lon="32.82350675"><ele>1051.8</ele><time>2015-04-28T07:52:17.0000000+00:00</time></trkpt><trkpt lat="34.97576332" lon="32.82352075"><ele>1051.8</ele><time>2015-04-28T07:52:18.0000000+00:00</time></trkpt><trkpt lat="34.97579215" lon="32.82354908"><ele>1051.3</ele><time>2015-04-28T07:52:19.0000000+00:00</time></trkpt><trkpt lat="34.97580933" lon="32.82358236"><ele>1051.3</ele><time>2015-04-28T07:52:20.0000000+00:00</time></trkpt><trkpt lat="34.97581554" lon="32.82361723"><ele>1050.9</ele><time>2015-04-28T07:52:21.0000000+00:00</time></trkpt><trkpt lat="34.97581512" lon="32.82365151"><ele>1050.9</ele><time>2015-04-28T07:52:22.0000000+00:00</time></trkpt><trkpt lat="34.97580967" lon="32.823679"><ele>1050.4</ele><time>2015-04-28T07:52:23.0000000+00:00</time></trkpt><trkpt lat="34.97580313" lon="32.82370163"><ele>1050.4</ele><time>2015-04-28T07:52:24.0000000+00:00</time></trkpt><trkpt lat="34.97579517" lon="32.82372049"><ele>1050.4</ele><time>2015-04-28T07:52:25.0000000+00:00</time></trkpt><trkpt lat="34.97578528" lon="32.82373935"><ele>1050.4</ele><time>2015-04-28T07:52:26.0000000+00:00</time></trkpt><trkpt lat="34.97577514" lon="32.82375511"><ele>1049.9</ele><time>2015-04-28T07:52:27.0000000+00:00</time></trkpt><trkpt lat="34.97576424" lon="32.82376952"><ele>1049.9</ele><time>2015-04-28T07:52:28.0000000+00:00</time></trkpt><trkpt lat="34.97553608" lon="32.82408494"><ele>1048.0</ele><time>2015-04-28T07:52:37.0000000+00:00</time></trkpt><trkpt lat="34.97527013" lon="32.82447956"><ele>1045.1</ele><time>2015-04-28T07:52:43.0000000+00:00</time></trkpt><trkpt lat="34.97523023" lon="32.82456463"><ele>1044.6</ele><time>2015-04-28T07:52:44.0000000+00:00</time></trkpt><trkpt lat="34.97519486" lon="32.82465524"><ele>1044.1</ele><time>2015-04-28T07:52:45.0000000+00:00</time></trkpt><trkpt lat="34.97516971" lon="32.82475339"><ele>1043.7</ele><time>2015-04-28T07:52:46.0000000+00:00</time></trkpt><trkpt lat="34.97515823" lon="32.82485842"><ele>1043.2</ele><time>2015-04-28T07:52:47.0000000+00:00</time></trkpt><trkpt lat="34.97516024" lon="32.82496705"><ele>1042.2</ele><time>2015-04-28T07:52:48.0000000+00:00</time></trkpt><trkpt lat="34.97517231" lon="32.82507719"><ele>1041.7</ele><time>2015-04-28T07:52:49.0000000+00:00</time></trkpt><trkpt lat="34.97518748" lon="32.82518732"><ele>1040.8</ele><time>2015-04-28T07:52:50.0000000+00:00</time></trkpt><trkpt lat="34.97523509" lon="32.82561203"><ele>1038.4</ele><time>2015-04-28T07:52:54.0000000+00:00</time></trkpt><trkpt lat="34.97522855" lon="32.82570734"><ele>1037.9</ele><time>2015-04-28T07:52:55.0000000+00:00</time></trkpt><trkpt lat="34.97521003" lon="32.82579669"><ele>1037.4</ele><time>2015-04-28T07:52:56.0000000+00:00</time></trkpt><trkpt lat="34.97518019" lon="32.82587556"><ele>1036.9</ele><time>2015-04-28T07:52:57.0000000+00:00</time></trkpt><trkpt lat="34.97514054" lon="32.82594513"><ele>1036.4</ele><time>2015-04-28T07:52:58.0000000+00:00</time></trkpt><trkpt lat="34.97509201" lon="32.82600531"><ele>1036.0</ele><time>2015-04-28T07:52:59.0000000+00:00</time></trkpt><trkpt lat="34.97503032" lon="32.82605242"><ele>1035.5</ele><time>2015-04-28T07:53:00.0000000+00:00</time></trkpt><trkpt lat="34.97495622" lon="32.82608536"><ele>1035.0</ele><time>2015-04-28T07:53:01.0000000+00:00</time></trkpt><trkpt lat="34.97487542" lon="32.82610497"><ele>1034.5</ele><time>2015-04-28T07:53:02.0000000+00:00</time></trkpt><trkpt lat="34.97479009" lon="32.82610875"><ele>1034.0</ele><time>2015-04-28T07:53:03.0000000+00:00</time></trkpt><trkpt lat="34.97470217" lon="32.82609919"><ele>1033.6</ele><time>2015-04-28T07:53:04.0000000+00:00</time></trkpt><trkpt lat="34.97461516" lon="32.82608117"><ele>1032.6</ele><time>2015-04-28T07:53:05.0000000+00:00</time></trkpt><trkpt lat="34.97452808" lon="32.82605921"><ele>1032.6</ele><time>2015-04-28T07:53:06.0000000+00:00</time></trkpt><trkpt lat="34.97435424" lon="32.8260401"><ele>1031.2</ele><time>2015-04-28T07:53:08.0000000+00:00</time></trkpt><trkpt lat="34.9742679" lon="32.82605569"><ele>1030.7</ele><time>2015-04-28T07:53:09.0000000+00:00</time></trkpt><trkpt lat="34.97418551" lon="32.82609165"><ele>1030.2</ele><time>2015-04-28T07:53:10.0000000+00:00</time></trkpt><trkpt lat="34.9741115" lon="32.82614764"><ele>1029.7</ele><time>2015-04-28T07:53:11.0000000+00:00</time></trkpt><trkpt lat="34.97405064" lon="32.82622618"><ele>1029.2</ele><time>2015-04-28T07:53:12.0000000+00:00</time></trkpt><trkpt lat="34.97400454" lon="32.82632039"><ele>1028.3</ele><time>2015-04-28T07:53:13.0000000+00:00</time></trkpt><trkpt lat="34.97396875" lon="32.82642106"><ele>1027.8</ele><time>2015-04-28T07:53:14.0000000+00:00</time></trkpt><trkpt lat="34.97393707" lon="32.8265244"><ele>1027.3</ele><time>2015-04-28T07:53:15.0000000+00:00</time></trkpt><trkpt lat="34.97382157" lon="32.82691064"><ele>1025.4</ele><time>2015-04-28T07:53:19.0000000+00:00</time></trkpt><trkpt lat="34.97378175" lon="32.82698197"><ele>1025.4</ele><time>2015-04-28T07:53:20.0000000+00:00</time></trkpt><trkpt lat="34.97372987" lon="32.8270409"><ele>1024.9</ele><time>2015-04-28T07:53:21.0000000+00:00</time></trkpt><trkpt lat="34.97367027" lon="32.82708809"><ele>1024.4</ele><time>2015-04-28T07:53:22.0000000+00:00</time></trkpt><trkpt lat="34.97360322" lon="32.82711944"><ele>1023.9</ele><time>2015-04-28T07:53:23.0000000+00:00</time></trkpt><trkpt lat="34.97352828" lon="32.82713067"><ele>1023.5</ele><time>2015-04-28T07:53:24.0000000+00:00</time></trkpt><trkpt lat="34.97345075" lon="32.82712606"><ele>1023.5</ele><time>2015-04-28T07:53:25.0000000+00:00</time></trkpt><trkpt lat="34.97337582" lon="32.82710846"><ele>1023.0</ele><time>2015-04-28T07:53:26.0000000+00:00</time></trkpt><trkpt lat="34.97330457" lon="32.82707853"><ele>1022.0</ele><time>2015-04-28T07:53:27.0000000+00:00</time></trkpt><trkpt lat="34.97323559" lon="32.8270445"><ele>1021.5</ele><time>2015-04-28T07:53:28.0000000+00:00</time></trkpt><trkpt lat="34.97303006" lon="32.82695297"><ele>1020.6</ele><time>2015-04-28T07:53:31.0000000+00:00</time></trkpt><trkpt lat="34.97296301" lon="32.82694249"><ele>1020.1</ele><time>2015-04-28T07:53:32.0000000+00:00</time></trkpt><trkpt lat="34.97289738" lon="32.82694585"><ele>1019.6</ele><time>2015-04-28T07:53:33.0000000+00:00</time></trkpt><trkpt lat="34.97283175" lon="32.82696848"><ele>1019.1</ele><time>2015-04-28T07:53:34.0000000+00:00</time></trkpt><trkpt lat="34.97276989" lon="32.82700905"><ele>1018.7</ele><time>2015-04-28T07:53:35.0000000+00:00</time></trkpt><trkpt lat="34.97271038" lon="32.82705917"><ele>1018.7</ele><time>2015-04-28T07:53:36.0000000+00:00</time></trkpt><trkpt lat="34.97245708" lon="32.8272621"><ele>1016.7</ele><time>2015-04-28T07:53:40.0000000+00:00</time></trkpt><trkpt lat="34.97238323" lon="32.8272994"><ele>1016.7</ele><time>2015-04-28T07:53:41.0000000+00:00</time></trkpt><trkpt lat="34.97230285" lon="32.82732924"><ele>1016.3</ele><time>2015-04-28T07:53:42.0000000+00:00</time></trkpt><trkpt lat="34.97198492" lon="32.82743812"><ele>1013.4</ele><time>2015-04-28T07:53:46.0000000+00:00</time></trkpt><trkpt lat="34.97192902" lon="32.82749821"><ele>1012.9</ele><time>2015-04-28T07:53:47.0000000+00:00</time></trkpt><trkpt lat="34.97188878" lon="32.8275822"><ele>1012.4</ele><time>2015-04-28T07:53:48.0000000+00:00</time></trkpt><trkpt lat="34.97185936" lon="32.82767977"><ele>1011.4</ele><time>2015-04-28T07:53:49.0000000+00:00</time></trkpt><trkpt lat="34.9718322" lon="32.82777918"><ele>1011.4</ele><time>2015-04-28T07:53:50.0000000+00:00</time></trkpt><trkpt lat="34.97179692" lon="32.8278759"><ele>1010.5</ele><time>2015-04-28T07:53:51.0000000+00:00</time></trkpt><trkpt lat="34.97174587" lon="32.82796685"><ele>1010.0</ele><time>2015-04-28T07:53:52.0000000+00:00</time></trkpt><trkpt lat="34.97168938" lon="32.82805544"><ele>1009.0</ele><time>2015-04-28T07:53:53.0000000+00:00</time></trkpt><trkpt lat="34.97164361" lon="32.82815016"><ele>1007.6</ele><time>2015-04-28T07:53:54.0000000+00:00</time></trkpt><trkpt lat="34.97161729" lon="32.82825577"><ele>1007.1</ele><time>2015-04-28T07:53:55.0000000+00:00</time></trkpt><trkpt lat="34.97160212" lon="32.82836172"><ele>1006.2</ele><time>2015-04-28T07:53:56.0000000+00:00</time></trkpt><trkpt lat="34.97158058" lon="32.82845903"><ele>1005.7</ele><time>2015-04-28T07:53:57.0000000+00:00</time></trkpt><trkpt lat="34.97154202" lon="32.8285462"><ele>1004.7</ele><time>2015-04-28T07:53:58.0000000+00:00</time></trkpt><trkpt lat="34.9714831" lon="32.82861921"><ele>1004.2</ele><time>2015-04-28T07:53:59.0000000+00:00</time></trkpt><trkpt lat="34.97141378" lon="32.8286799"><ele>1003.3</ele><time>2015-04-28T07:54:00.0000000+00:00</time></trkpt><trkpt lat="34.97134035" lon="32.82873563"><ele>1002.8</ele><time>2015-04-28T07:54:01.0000000+00:00</time></trkpt><trkpt lat="34.97115" lon="32.82892347"><ele>1000.4</ele><time>2015-04-28T07:54:04.0000000+00:00</time></trkpt><trkpt lat="34.9711101" lon="32.82901785"><ele>999.4</ele><time>2015-04-28T07:54:05.0000000+00:00</time></trkpt><trkpt lat="34.97108404" lon="32.82912514"><ele>999.0</ele><time>2015-04-28T07:54:06.0000000+00:00</time></trkpt><trkpt lat="34.97100256" lon="32.82943536"><ele>996.1</ele><time>2015-04-28T07:54:09.0000000+00:00</time></trkpt><trkpt lat="34.97095671" lon="32.82951918"><ele>995.6</ele><time>2015-04-28T07:54:10.0000000+00:00</time></trkpt><trkpt lat="34.97086099" lon="32.82966234"><ele>994.1</ele><time>2015-04-28T07:54:12.0000000+00:00</time></trkpt><trkpt lat="34.97082629" lon="32.82973392"><ele>993.2</ele><time>2015-04-28T07:54:13.0000000+00:00</time></trkpt><trkpt lat="34.97081263" lon="32.82980802"><ele>992.7</ele><time>2015-04-28T07:54:14.0000000+00:00</time></trkpt><trkpt lat="34.97082579" lon="32.82988144"><ele>991.7</ele><time>2015-04-28T07:54:15.0000000+00:00</time></trkpt><trkpt lat="34.97086083" lon="32.82994632"><ele>991.3</ele><time>2015-04-28T07:54:16.0000000+00:00</time></trkpt><trkpt lat="34.97091137" lon="32.8299925"><ele>990.8</ele><time>2015-04-28T07:54:17.0000000+00:00</time></trkpt><trkpt lat="34.97097038" lon="32.83002829"><ele>990.3</ele><time>2015-04-28T07:54:18.0000000+00:00</time></trkpt><trkpt lat="34.97103265" lon="32.83006676"><ele>990.3</ele><time>2015-04-28T07:54:19.0000000+00:00</time></trkpt><trkpt lat="34.97109083" lon="32.83011714"><ele>989.8</ele><time>2015-04-28T07:54:20.0000000+00:00</time></trkpt><trkpt lat="34.97114212" lon="32.83018093"><ele>988.9</ele><time>2015-04-28T07:54:21.0000000+00:00</time></trkpt><trkpt lat="34.97118797" lon="32.83025603"><ele>988.4</ele><time>2015-04-28T07:54:22.0000000+00:00</time></trkpt><trkpt lat="34.97123248" lon="32.83033792"><ele>987.9</ele><time>2015-04-28T07:54:23.0000000+00:00</time></trkpt><trkpt lat="34.97142744" lon="32.83074922"><ele>985.5</ele><time>2015-04-28T07:54:28.0000000+00:00</time></trkpt><trkpt lat="34.97143448" lon="32.8308286"><ele>985.0</ele><time>2015-04-28T07:54:29.0000000+00:00</time></trkpt><trkpt lat="34.97142627" lon="32.83091065"><ele>985.0</ele><time>2015-04-28T07:54:30.0000000+00:00</time></trkpt><trkpt lat="34.97140355" lon="32.83099238"><ele>984.5</ele><time>2015-04-28T07:54:31.0000000+00:00</time></trkpt><trkpt lat="34.97137045" lon="32.831071"><ele>984.1</ele><time>2015-04-28T07:54:32.0000000+00:00</time></trkpt><trkpt lat="34.97132619" lon="32.83114652"><ele>983.6</ele><time>2015-04-28T07:54:33.0000000+00:00</time></trkpt><trkpt lat="34.97127313" lon="32.83121944"><ele>983.1</ele><time>2015-04-28T07:54:34.0000000+00:00</time></trkpt><trkpt lat="34.97122326" lon="32.83129295"><ele>982.6</ele><time>2015-04-28T07:54:35.0000000+00:00</time></trkpt><trkpt lat="34.97118856" lon="32.83136982"><ele>982.6</ele><time>2015-04-28T07:54:36.0000000+00:00</time></trkpt><trkpt lat="34.97117473" lon="32.83145003"><ele>981.6</ele><time>2015-04-28T07:54:37.0000000+00:00</time></trkpt><trkpt lat="34.97118194" lon="32.83153628"><ele>981.6</ele><time>2015-04-28T07:54:38.0000000+00:00</time></trkpt><trkpt lat="34.97119694" lon="32.83162245"><ele>981.2</ele><time>2015-04-28T07:54:39.0000000+00:00</time></trkpt><trkpt lat="34.9712396" lon="32.83179838"><ele>980.2</ele><time>2015-04-28T07:54:41.0000000+00:00</time></trkpt><trkpt lat="34.97142191" lon="32.83231898"><ele>976.8</ele><time>2015-04-28T07:54:47.0000000+00:00</time></trkpt><trkpt lat="34.97145108" lon="32.83242032"><ele>976.4</ele><time>2015-04-28T07:54:49.0000000+00:00</time></trkpt><trkpt lat="34.97146935" lon="32.83244513"><ele>975.9</ele><time>2015-04-28T07:54:50.0000000+00:00</time></trkpt><trkpt lat="34.97148855" lon="32.83243742"><ele>975.4</ele><time>2015-04-28T07:54:51.0000000+00:00</time></trkpt><trkpt lat="34.97150162" lon="32.83240699"><ele>975.4</ele><time>2015-04-28T07:54:52.0000000+00:00</time></trkpt><trkpt lat="34.97150355" lon="32.83237346"><ele>974.9</ele><time>2015-04-28T07:54:53.0000000+00:00</time></trkpt><trkpt lat="34.97149894" lon="32.83234966"><ele>974.9</ele><time>2015-04-28T07:54:54.0000000+00:00</time></trkpt><trkpt lat="34.97149207" lon="32.83233508"><ele>974.4</ele><time>2015-04-28T07:54:55.0000000+00:00</time></trkpt><trkpt lat="34.97148561" lon="32.8322982"><ele>974.4</ele><time>2015-04-28T07:54:58.0000000+00:00</time></trkpt><trkpt lat="34.97148821" lon="32.83228034"><ele>974.4</ele><time>2015-04-28T07:54:59.0000000+00:00</time></trkpt><trkpt lat="34.97142476" lon="32.83204582"><ele>973.5</ele><time>2015-04-28T07:55:09.0000000+00:00</time></trkpt><trkpt lat="34.97136408" lon="32.83186837"><ele>972.5</ele><time>2015-04-28T07:55:13.0000000+00:00</time></trkpt><trkpt lat="34.97134211" lon="32.83183023"><ele>972.0</ele><time>2015-04-28T07:55:14.0000000+00:00</time></trkpt><trkpt lat="34.97132401" lon="32.83179411"><ele>971.6</ele><time>2015-04-28T07:55:15.0000000+00:00</time></trkpt><trkpt lat="34.97131462" lon="32.83175681"><ele>971.6</ele><time>2015-04-28T07:55:16.0000000+00:00</time></trkpt><trkpt lat="34.97130901" lon="32.83171942"><ele>971.6</ele><time>2015-04-28T07:55:17.0000000+00:00</time></trkpt><trkpt lat="34.9713018" lon="32.83168045"><ele>971.1</ele><time>2015-04-28T07:55:18.0000000+00:00</time></trkpt><trkpt lat="34.97129476" lon="32.8316429"><ele>971.1</ele><time>2015-04-28T07:55:19.0000000+00:00</time></trkpt><trkpt lat="34.97129333" lon="32.83160484"><ele>970.6</ele><time>2015-04-28T07:55:20.0000000+00:00</time></trkpt><trkpt lat="34.97129601" lon="32.83156562"><ele>970.6</ele><time>2015-04-28T07:55:21.0000000+00:00</time></trkpt><trkpt lat="34.97130247" lon="32.83152689"><ele>970.1</ele><time>2015-04-28T07:55:22.0000000+00:00</time></trkpt><trkpt lat="34.97131336" lon="32.83149588"><ele>970.1</ele><time>2015-04-28T07:55:23.0000000+00:00</time></trkpt><trkpt lat="34.97132535" lon="32.83147107"><ele>969.6</ele><time>2015-04-28T07:55:24.0000000+00:00</time></trkpt><trkpt lat="34.97133533" lon="32.83144793"><ele>969.6</ele><time>2015-04-28T07:55:25.0000000+00:00</time></trkpt><trkpt lat="34.97135033" lon="32.83140401"><ele>969.6</ele><time>2015-04-28T07:55:37.0000000+00:00</time></trkpt><trkpt lat="34.97135502" lon="32.83138842"><ele>969.2</ele><time>2015-04-28T07:55:54.0000000+00:00</time></trkpt><trkpt lat="34.9713619" lon="32.83138884"><ele>969.2</ele><time>2015-04-28T07:56:08.0000000+00:00</time></trkpt><trkpt lat="34.97137296" lon="32.83138063"><ele>969.2</ele><time>2015-04-28T07:56:09.0000000+00:00</time></trkpt><trkpt lat="34.97166423" lon="32.83109749"><ele>966.7</ele><time>2015-04-28T07:56:18.0000000+00:00</time></trkpt><trkpt lat="34.97175844" lon="32.83098827"><ele>965.3</ele><time>2015-04-28T07:56:20.0000000+00:00</time></trkpt><trkpt lat="34.97179373" lon="32.83092247"><ele>965.3</ele><time>2015-04-28T07:56:21.0000000+00:00</time></trkpt><trkpt lat="34.97181159" lon="32.83084352"><ele>964.8</ele><time>2015-04-28T07:56:22.0000000+00:00</time></trkpt><trkpt lat="34.9718084" lon="32.83075819"><ele>964.3</ele><time>2015-04-28T07:56:23.0000000+00:00</time></trkpt><trkpt lat="34.97178543" lon="32.83067127"><ele>963.4</ele><time>2015-04-28T07:56:24.0000000+00:00</time></trkpt><trkpt lat="34.97175367" lon="32.83058468"><ele>962.9</ele><time>2015-04-28T07:56:25.0000000+00:00</time></trkpt><trkpt lat="34.97171612" lon="32.83049961"><ele>962.4</ele><time>2015-04-28T07:56:26.0000000+00:00</time></trkpt><trkpt lat="34.97154655" lon="32.83016852"><ele>960.5</ele><time>2015-04-28T07:56:30.0000000+00:00</time></trkpt><trkpt lat="34.9715235" lon="32.83008864"><ele>960.0</ele><time>2015-04-28T07:56:31.0000000+00:00</time></trkpt><trkpt lat="34.97151813" lon="32.830006"><ele>960.0</ele><time>2015-04-28T07:56:32.0000000+00:00</time></trkpt><trkpt lat="34.97153171" lon="32.82992578"><ele>959.5</ele><time>2015-04-28T07:56:33.0000000+00:00</time></trkpt><trkpt lat="34.97156499" lon="32.82985546"><ele>959.1</ele><time>2015-04-28T07:56:34.0000000+00:00</time></trkpt><trkpt lat="34.97161377" lon="32.82979393"><ele>959.1</ele><time>2015-04-28T07:56:35.0000000+00:00</time></trkpt><trkpt lat="34.97167152" lon="32.82974121"><ele>958.6</ele><time>2015-04-28T07:56:36.0000000+00:00</time></trkpt><trkpt lat="34.97173799" lon="32.82969377"><ele>958.6</ele><time>2015-04-28T07:56:37.0000000+00:00</time></trkpt><trkpt lat="34.97208618" lon="32.82943913"><ele>956.2</ele><time>2015-04-28T07:56:42.0000000+00:00</time></trkpt><trkpt lat="34.97255087" lon="32.82905633"><ele>952.8</ele><time>2015-04-28T07:56:48.0000000+00:00</time></trkpt><trkpt lat="34.97278657" lon="32.82889833"><ele>950.4</ele><time>2015-04-28T07:56:51.0000000+00:00</time></trkpt><trkpt lat="34.97285815" lon="32.82888299"><ele>949.4</ele><time>2015-04-28T07:56:52.0000000+00:00</time></trkpt><trkpt lat="34.97293426" lon="32.82888676"><ele>949.0</ele><time>2015-04-28T07:56:53.0000000+00:00</time></trkpt><trkpt lat="34.97301414" lon="32.82890897"><ele>948.5</ele><time>2015-04-28T07:56:54.0000000+00:00</time></trkpt><trkpt lat="34.97309242" lon="32.82894569"><ele>948.0</ele><time>2015-04-28T07:56:55.0000000+00:00</time></trkpt><trkpt lat="34.97317046" lon="32.82899237"><ele>947.5</ele><time>2015-04-28T07:56:56.0000000+00:00</time></trkpt><trkpt lat="34.97325017" lon="32.82904887"><ele>946.6</ele><time>2015-04-28T07:56:57.0000000+00:00</time></trkpt><trkpt lat="34.97333265" lon="32.82910729"><ele>946.1</ele><time>2015-04-28T07:56:58.0000000+00:00</time></trkpt><trkpt lat="34.97341764" lon="32.8291673"><ele>945.1</ele><time>2015-04-28T07:56:59.0000000+00:00</time></trkpt><trkpt lat="34.97378787" lon="32.82940007"><ele>941.8</ele><time>2015-04-28T07:57:04.0000000+00:00</time></trkpt><trkpt lat="34.97384948" lon="32.82941465"><ele>940.8</ele><time>2015-04-28T07:57:05.0000000+00:00</time></trkpt><trkpt lat="34.97390924" lon="32.82940292"><ele>940.3</ele><time>2015-04-28T07:57:06.0000000+00:00</time></trkpt><trkpt lat="34.97396532" lon="32.82936419"><ele>939.8</ele><time>2015-04-28T07:57:07.0000000+00:00</time></trkpt><trkpt lat="34.97401519" lon="32.82930602"><ele>938.9</ele><time>2015-04-28T07:57:08.0000000+00:00</time></trkpt><trkpt lat="34.97406229" lon="32.82923536"><ele>938.9</ele><time>2015-04-28T07:57:09.0000000+00:00</time></trkpt><trkpt lat="34.97410814" lon="32.82915808"><ele>938.4</ele><time>2015-04-28T07:57:10.0000000+00:00</time></trkpt><trkpt lat="34.97425315" lon="32.82890419"><ele>936.0</ele><time>2015-04-28T07:57:13.0000000+00:00</time></trkpt><trkpt lat="34.97431677" lon="32.82883756"><ele>935.5</ele><time>2015-04-28T07:57:14.0000000+00:00</time></trkpt><trkpt lat="34.97439296" lon="32.82879188"><ele>935.0</ele><time>2015-04-28T07:57:15.0000000+00:00</time></trkpt><trkpt lat="34.97447988" lon="32.8287721"><ele>934.5</ele><time>2015-04-28T07:57:16.0000000+00:00</time></trkpt><trkpt lat="34.97457015" lon="32.82877981"><ele>934.1</ele><time>2015-04-28T07:57:17.0000000+00:00</time></trkpt><trkpt lat="34.9746637" lon="32.82880646"><ele>933.1</ele><time>2015-04-28T07:57:18.0000000+00:00</time></trkpt><trkpt lat="34.9747533" lon="32.82883345"><ele>932.6</ele><time>2015-04-28T07:57:19.0000000+00:00</time></trkpt><trkpt lat="34.97483661" lon="32.82884644"><ele>931.7</ele><time>2015-04-28T07:57:20.0000000+00:00</time></trkpt><trkpt lat="34.97491247" lon="32.82883144"><ele>931.2</ele><time>2015-04-28T07:57:21.0000000+00:00</time></trkpt><trkpt lat="34.97497978" lon="32.82878702"><ele>930.2</ele><time>2015-04-28T07:57:22.0000000+00:00</time></trkpt><trkpt lat="34.97503468" lon="32.82871443"><ele>929.7</ele><time>2015-04-28T07:57:23.0000000+00:00</time></trkpt><trkpt lat="34.97507592" lon="32.8286198"><ele>929.3</ele><time>2015-04-28T07:57:24.0000000+00:00</time></trkpt><trkpt lat="34.97511137" lon="32.8285219"><ele>928.3</ele><time>2015-04-28T07:57:25.0000000+00:00</time></trkpt><trkpt lat="34.97515538" lon="32.82843791"><ele>927.8</ele><time>2015-04-28T07:57:26.0000000+00:00</time></trkpt><trkpt lat="34.97521623" lon="32.82837211"><ele>927.3</ele><time>2015-04-28T07:57:27.0000000+00:00</time></trkpt><trkpt lat="34.9752951" lon="32.82833037"><ele>926.4</ele><time>2015-04-28T07:57:28.0000000+00:00</time></trkpt><trkpt lat="34.9753801" lon="32.82831662"><ele>926.4</ele><time>2015-04-28T07:57:29.0000000+00:00</time></trkpt><trkpt lat="34.97546442" lon="32.82833867"><ele>925.9</ele><time>2015-04-28T07:57:30.0000000+00:00</time></trkpt><trkpt lat="34.97554614" lon="32.82838544"><ele>924.9</ele><time>2015-04-28T07:57:31.0000000+00:00</time></trkpt><trkpt lat="34.97562652" lon="32.8284447"><ele>924.5</ele><time>2015-04-28T07:57:32.0000000+00:00</time></trkpt><trkpt lat="34.97604587" lon="32.82876816"><ele>921.1</ele><time>2015-04-28T07:57:37.0000000+00:00</time></trkpt><trkpt lat="34.97627755" lon="32.8289114"><ele>918.7</ele><time>2015-04-28T07:57:40.0000000+00:00</time></trkpt><trkpt lat="34.97635122" lon="32.82892222"><ele>917.7</ele><time>2015-04-28T07:57:41.0000000+00:00</time></trkpt><trkpt lat="34.97642364" lon="32.82890461"><ele>917.2</ele><time>2015-04-28T07:57:42.0000000+00:00</time></trkpt><trkpt lat="34.97649087" lon="32.82885566"><ele>916.8</ele><time>2015-04-28T07:57:43.0000000+00:00</time></trkpt><trkpt lat="34.97655155" lon="32.82878601"><ele>916.3</ele><time>2015-04-28T07:57:44.0000000+00:00</time></trkpt><trkpt lat="34.97660914" lon="32.82870688"><ele>915.3</ele><time>2015-04-28T07:57:45.0000000+00:00</time></trkpt><trkpt lat="34.97667099" lon="32.82863547"><ele>914.8</ele><time>2015-04-28T07:57:46.0000000+00:00</time></trkpt><trkpt lat="34.97674115" lon="32.82857906"><ele>914.4</ele><time>2015-04-28T07:57:47.0000000+00:00</time></trkpt><trkpt lat="34.97682061" lon="32.82854687"><ele>913.9</ele><time>2015-04-28T07:57:48.0000000+00:00</time></trkpt><trkpt lat="34.97690594" lon="32.82854428"><ele>912.9</ele><time>2015-04-28T07:57:49.0000000+00:00</time></trkpt><trkpt lat="34.97699169" lon="32.828569"><ele>912.4</ele><time>2015-04-28T07:57:50.0000000+00:00</time></trkpt><trkpt lat="34.97707559" lon="32.82861334"><ele>911.5</ele><time>2015-04-28T07:57:51.0000000+00:00</time></trkpt><trkpt lat="34.97715874" lon="32.82866732"><ele>911.5</ele><time>2015-04-28T07:57:52.0000000+00:00</time></trkpt><trkpt lat="34.9774744" lon="32.82885256"><ele>908.1</ele><time>2015-04-28T07:57:56.0000000+00:00</time></trkpt><trkpt lat="34.97754682" lon="32.82885466"><ele>907.6</ele><time>2015-04-28T07:57:57.0000000+00:00</time></trkpt><trkpt lat="34.97761915" lon="32.82883144"><ele>907.1</ele><time>2015-04-28T07:57:58.0000000+00:00</time></trkpt><trkpt lat="34.97768353" lon="32.82877528"><ele>906.2</ele><time>2015-04-28T07:57:59.0000000+00:00</time></trkpt><trkpt lat="34.97773558" lon="32.82869272"><ele>905.7</ele><time>2015-04-28T07:58:00.0000000+00:00</time></trkpt><trkpt lat="34.97776726" lon="32.82859038"><ele>904.7</ele><time>2015-04-28T07:58:01.0000000+00:00</time></trkpt><trkpt lat="34.97778864" lon="32.82848334"><ele>904.3</ele><time>2015-04-28T07:58:02.0000000+00:00</time></trkpt><trkpt lat="34.97780842" lon="32.82837152"><ele>903.8</ele><time>2015-04-28T07:58:03.0000000+00:00</time></trkpt><trkpt lat="34.97785544" lon="32.82789753"><ele>901.4</ele><time>2015-04-28T07:58:07.0000000+00:00</time></trkpt><trkpt lat="34.97784882" lon="32.82777381"><ele>900.4</ele><time>2015-04-28T07:58:08.0000000+00:00</time></trkpt><trkpt lat="34.97783348" lon="32.82764817"><ele>899.9</ele><time>2015-04-28T07:58:09.0000000+00:00</time></trkpt><trkpt lat="34.9777671" lon="32.82706613"><ele>897.1</ele><time>2015-04-28T07:58:14.0000000+00:00</time></trkpt><trkpt lat="34.97777749" lon="32.82696982"><ele>896.6</ele><time>2015-04-28T07:58:15.0000000+00:00</time></trkpt><trkpt lat="34.97780439" lon="32.82687527"><ele>895.6</ele><time>2015-04-28T07:58:16.0000000+00:00</time></trkpt><trkpt lat="34.97783993" lon="32.82678567"><ele>895.6</ele><time>2015-04-28T07:58:17.0000000+00:00</time></trkpt><trkpt lat="34.9778888" lon="32.82671233"><ele>895.1</ele><time>2015-04-28T07:58:18.0000000+00:00</time></trkpt><trkpt lat="34.97794873" lon="32.82666053"><ele>894.2</ele><time>2015-04-28T07:58:19.0000000+00:00</time></trkpt><trkpt lat="34.97801679" lon="32.82662733"><ele>893.7</ele><time>2015-04-28T07:58:20.0000000+00:00</time></trkpt><trkpt lat="34.97808963" lon="32.82661082"><ele>893.7</ele><time>2015-04-28T07:58:21.0000000+00:00</time></trkpt><trkpt lat="34.97816532" lon="32.82661585"><ele>893.2</ele><time>2015-04-28T07:58:22.0000000+00:00</time></trkpt><trkpt lat="34.978239" lon="32.82664737"><ele>892.7</ele><time>2015-04-28T07:58:23.0000000+00:00</time></trkpt><trkpt lat="34.97830957" lon="32.82669925"><ele>892.7</ele><time>2015-04-28T07:58:24.0000000+00:00</time></trkpt><trkpt lat="34.97837772" lon="32.82676069"><ele>891.8</ele><time>2015-04-28T07:58:25.0000000+00:00</time></trkpt><trkpt lat="34.97858441" lon="32.82694987"><ele>890.8</ele><time>2015-04-28T07:58:28.0000000+00:00</time></trkpt><trkpt lat="34.97866245" lon="32.82700234"><ele>890.3</ele><time>2015-04-28T07:58:29.0000000+00:00</time></trkpt><trkpt lat="34.97874442" lon="32.82704827"><ele>889.8</ele><time>2015-04-28T07:58:30.0000000+00:00</time></trkpt><trkpt lat="34.97918255" lon="32.82724206"><ele>886.5</ele><time>2015-04-28T07:58:35.0000000+00:00</time></trkpt><trkpt lat="34.97936251" lon="32.82729311"><ele>885.5</ele><time>2015-04-28T07:58:37.0000000+00:00</time></trkpt><trkpt lat="34.97945311" lon="32.82729336"><ele>884.1</ele><time>2015-04-28T07:58:38.0000000+00:00</time></trkpt><trkpt lat="34.97953786" lon="32.82727475"><ele>884.1</ele><time>2015-04-28T07:58:39.0000000+00:00</time></trkpt><trkpt lat="34.97961639" lon="32.82725237"><ele>883.1</ele><time>2015-04-28T07:58:40.0000000+00:00</time></trkpt><trkpt lat="34.97969435" lon="32.82724399"><ele>882.2</ele><time>2015-04-28T07:58:41.0000000+00:00</time></trkpt><trkpt lat="34.97977138" lon="32.82726335"><ele>881.7</ele><time>2015-04-28T07:58:42.0000000+00:00</time></trkpt><trkpt lat="34.97984237" lon="32.82731482"><ele>881.2</ele><time>2015-04-28T07:58:43.0000000+00:00</time></trkpt><trkpt lat="34.97990364" lon="32.82739202"><ele>880.7</ele><time>2015-04-28T07:58:44.0000000+00:00</time></trkpt><trkpt lat="34.97994966" lon="32.82748757"><ele>880.2</ele><time>2015-04-28T07:58:45.0000000+00:00</time></trkpt><trkpt lat="34.9799748" lon="32.82759452"><ele>879.7</ele><time>2015-04-28T07:58:46.0000000+00:00</time></trkpt><trkpt lat="34.97999132" lon="32.82770248"><ele>878.8</ele><time>2015-04-28T07:58:47.0000000+00:00</time></trkpt><trkpt lat="34.98001168" lon="32.82780013"><ele>877.8</ele><time>2015-04-28T07:58:48.0000000+00:00</time></trkpt><trkpt lat="34.98004647" lon="32.82788537"><ele>877.3</ele><time>2015-04-28T07:58:49.0000000+00:00</time></trkpt><trkpt lat="34.9800945" lon="32.82795587"><ele>876.4</ele><time>2015-04-28T07:58:50.0000000+00:00</time></trkpt><trkpt lat="34.98016072" lon="32.82800314"><ele>875.4</ele><time>2015-04-28T07:58:51.0000000+00:00</time></trkpt><trkpt lat="34.98024034" lon="32.82802879"><ele>874.9</ele><time>2015-04-28T07:58:52.0000000+00:00</time></trkpt><trkpt lat="34.9803245" lon="32.82803516"><ele>874.5</ele><time>2015-04-28T07:58:53.0000000+00:00</time></trkpt><trkpt lat="34.98041217" lon="32.82803524"><ele>873.5</ele><time>2015-04-28T07:58:54.0000000+00:00</time></trkpt><trkpt lat="34.98078877" lon="32.82802284"><ele>870.6</ele><time>2015-04-28T07:58:58.0000000+00:00</time></trkpt><trkpt lat="34.98108264" lon="32.82803038"><ele>867.7</ele><time>2015-04-28T07:59:01.0000000+00:00</time></trkpt><trkpt lat="34.9811652" lon="32.82805947"><ele>867.3</ele><time>2015-04-28T07:59:02.0000000+00:00</time></trkpt><trkpt lat="34.98123561" lon="32.82811043"><ele>866.3</ele><time>2015-04-28T07:59:03.0000000+00:00</time></trkpt><trkpt lat="34.98129303" lon="32.82817815"><ele>865.8</ele><time>2015-04-28T07:59:04.0000000+00:00</time></trkpt><trkpt lat="34.98134441" lon="32.82824613"><ele>864.8</ele><time>2015-04-28T07:59:05.0000000+00:00</time></trkpt><trkpt lat="34.98139788" lon="32.82830279"><ele>864.4</ele><time>2015-04-28T07:59:06.0000000+00:00</time></trkpt><trkpt lat="34.98145966" lon="32.82834101"><ele>863.9</ele><time>2015-04-28T07:59:07.0000000+00:00</time></trkpt><trkpt lat="34.98153225" lon="32.82835702"><ele>862.9</ele><time>2015-04-28T07:59:08.0000000+00:00</time></trkpt><trkpt lat="34.98160953" lon="32.82834889"><ele>862.4</ele><time>2015-04-28T07:59:09.0000000+00:00</time></trkpt><trkpt lat="34.98168899" lon="32.82832199"><ele>862.0</ele><time>2015-04-28T07:59:10.0000000+00:00</time></trkpt><trkpt lat="34.98176845" lon="32.82828611"><ele>861.0</ele><time>2015-04-28T07:59:11.0000000+00:00</time></trkpt><trkpt lat="34.98208227" lon="32.82811881"><ele>858.1</ele><time>2015-04-28T07:59:15.0000000+00:00</time></trkpt><trkpt lat="34.98214765" lon="32.82807514"><ele>857.2</ele><time>2015-04-28T07:59:16.0000000+00:00</time></trkpt><trkpt lat="34.98220523" lon="32.82802192"><ele>856.7</ele><time>2015-04-28T07:59:17.0000000+00:00</time></trkpt><trkpt lat="34.98224831" lon="32.82795201"><ele>855.7</ele><time>2015-04-28T07:59:18.0000000+00:00</time></trkpt><trkpt lat="34.98227471" lon="32.8278635"><ele>855.2</ele><time>2015-04-28T07:59:19.0000000+00:00</time></trkpt><trkpt lat="34.98228461" lon="32.827763"><ele>854.8</ele><time>2015-04-28T07:59:20.0000000+00:00</time></trkpt><trkpt lat="34.98227731" lon="32.82766116"><ele>853.8</ele><time>2015-04-28T07:59:21.0000000+00:00</time></trkpt><trkpt lat="34.98226441" lon="32.8275625"><ele>853.3</ele><time>2015-04-28T07:59:22.0000000+00:00</time></trkpt><trkpt lat="34.98226122" lon="32.82747357"><ele>852.4</ele><time>2015-04-28T07:59:23.0000000+00:00</time></trkpt><trkpt lat="34.98227086" lon="32.82740216"><ele>851.4</ele><time>2015-04-28T07:59:24.0000000+00:00</time></trkpt><trkpt lat="34.98229031" lon="32.8273496"><ele>851.4</ele><time>2015-04-28T07:59:25.0000000+00:00</time></trkpt><trkpt lat="34.98231947" lon="32.82730937"><ele>850.9</ele><time>2015-04-28T07:59:26.0000000+00:00</time></trkpt><trkpt lat="34.98236147" lon="32.82727249"><ele>850.9</ele><time>2015-04-28T07:59:27.0000000+00:00</time></trkpt><trkpt lat="34.98240765" lon="32.82723502"><ele>850.4</ele><time>2015-04-28T07:59:28.0000000+00:00</time></trkpt><trkpt lat="34.98246423" lon="32.82720384"><ele>849.5</ele><time>2015-04-28T07:59:29.0000000+00:00</time></trkpt><trkpt lat="34.98252743" lon="32.82717576"><ele>849.0</ele><time>2015-04-28T07:59:30.0000000+00:00</time></trkpt><trkpt lat="34.98259692" lon="32.82715389"><ele>848.5</ele><time>2015-04-28T07:59:31.0000000+00:00</time></trkpt><trkpt lat="34.98267042" lon="32.82713335"><ele>848.5</ele><time>2015-04-28T07:59:32.0000000+00:00</time></trkpt><trkpt lat="34.98288332" lon="32.8270761"><ele>846.6</ele><time>2015-04-28T07:59:35.0000000+00:00</time></trkpt><trkpt lat="34.98304007" lon="32.82702204"><ele>845.1</ele><time>2015-04-28T07:59:38.0000000+00:00</time></trkpt><trkpt lat="34.98308667" lon="32.8269922"><ele>845.1</ele><time>2015-04-28T07:59:39.0000000+00:00</time></trkpt><trkpt lat="34.98312984" lon="32.82695884"><ele>844.7</ele><time>2015-04-28T07:59:40.0000000+00:00</time></trkpt><trkpt lat="34.9831658" lon="32.82691659"><ele>844.7</ele><time>2015-04-28T07:59:41.0000000+00:00</time></trkpt><trkpt lat="34.9831927" lon="32.82686228"><ele>844.2</ele><time>2015-04-28T07:59:42.0000000+00:00</time></trkpt><trkpt lat="34.98321139" lon="32.82679724"><ele>843.7</ele><time>2015-04-28T07:59:43.0000000+00:00</time></trkpt><trkpt lat="34.98322371" lon="32.82672565"><ele>843.2</ele><time>2015-04-28T07:59:44.0000000+00:00</time></trkpt><trkpt lat="34.98322757" lon="32.8266467"><ele>842.7</ele><time>2015-04-28T07:59:45.0000000+00:00</time></trkpt><trkpt lat="34.98321567" lon="32.82656187"><ele>842.3</ele><time>2015-04-28T07:59:46.0000000+00:00</time></trkpt><trkpt lat="34.98319488" lon="32.82647554"><ele>841.8</ele><time>2015-04-28T07:59:47.0000000+00:00</time></trkpt><trkpt lat="34.98317518" lon="32.82638627"><ele>841.3</ele><time>2015-04-28T07:59:48.0000000+00:00</time></trkpt><trkpt lat="34.98316152" lon="32.8262986"><ele>840.8</ele><time>2015-04-28T07:59:49.0000000+00:00</time></trkpt><trkpt lat="34.98315339" lon="32.82621939"><ele>840.3</ele><time>2015-04-28T07:59:50.0000000+00:00</time></trkpt><trkpt lat="34.98315297" lon="32.82614714"><ele>839.9</ele><time>2015-04-28T07:59:51.0000000+00:00</time></trkpt><trkpt lat="34.98315909" lon="32.82607572"><ele>839.4</ele><time>2015-04-28T07:59:52.0000000+00:00</time></trkpt><trkpt lat="34.98317116" lon="32.82600355"><ele>838.9</ele><time>2015-04-28T07:59:53.0000000+00:00</time></trkpt><trkpt lat="34.98319798" lon="32.82593591"><ele>838.9</ele><time>2015-04-28T07:59:54.0000000+00:00</time></trkpt><trkpt lat="34.9832362" lon="32.82587405"><ele>838.9</ele><time>2015-04-28T07:59:55.0000000+00:00</time></trkpt><trkpt lat="34.98328029" lon="32.82582611"><ele>838.4</ele><time>2015-04-28T07:59:56.0000000+00:00</time></trkpt><trkpt lat="34.98332933" lon="32.82579191"><ele>838.4</ele><time>2015-04-28T07:59:57.0000000+00:00</time></trkpt><trkpt lat="34.98338842" lon="32.82576903"><ele>837.9</ele><time>2015-04-28T07:59:58.0000000+00:00</time></trkpt><trkpt lat="34.98344533" lon="32.82575511"><ele>837.9</ele><time>2015-04-28T07:59:59.0000000+00:00</time></trkpt><trkpt lat="34.9834968" lon="32.82574371"><ele>837.5</ele><time>2015-04-28T08:00:00.0000000+00:00</time></trkpt><trkpt lat="34.9835455" lon="32.8257293"><ele>837.0</ele><time>2015-04-28T08:00:01.0000000+00:00</time></trkpt><trkpt lat="34.98369645" lon="32.82564933"><ele>835.5</ele><time>2015-04-28T08:00:05.0000000+00:00</time></trkpt><trkpt lat="34.98371305" lon="32.82560147"><ele>835.5</ele><time>2015-04-28T08:00:06.0000000+00:00</time></trkpt><trkpt lat="34.98371682" lon="32.82555286"><ele>835.0</ele><time>2015-04-28T08:00:07.0000000+00:00</time></trkpt><trkpt lat="34.98371464" lon="32.82550877"><ele>835.0</ele><time>2015-04-28T08:00:08.0000000+00:00</time></trkpt><trkpt lat="34.98371146" lon="32.82546887"><ele>834.6</ele><time>2015-04-28T08:00:09.0000000+00:00</time></trkpt><trkpt lat="34.98364775" lon="32.82508699"><ele>832.2</ele><time>2015-04-28T08:00:16.0000000+00:00</time></trkpt><trkpt lat="34.98362454" lon="32.82502539"><ele>832.2</ele><time>2015-04-28T08:00:17.0000000+00:00</time></trkpt><trkpt lat="34.98359302" lon="32.82496361"><ele>831.7</ele><time>2015-04-28T08:00:18.0000000+00:00</time></trkpt><trkpt lat="34.98355505" lon="32.82490393"><ele>831.2</ele><time>2015-04-28T08:00:19.0000000+00:00</time></trkpt><trkpt lat="34.98351272" lon="32.82485339"><ele>831.2</ele><time>2015-04-28T08:00:20.0000000+00:00</time></trkpt><trkpt lat="34.9834709" lon="32.82481156"><ele>830.7</ele><time>2015-04-28T08:00:21.0000000+00:00</time></trkpt><trkpt lat="34.98330703" lon="32.82460989"><ele>829.3</ele><time>2015-04-28T08:00:26.0000000+00:00</time></trkpt><trkpt lat="34.98325028" lon="32.82451543"><ele>828.8</ele><time>2015-04-28T08:00:34.0000000+00:00</time></trkpt><trkpt lat="34.98323905" lon="32.82452499"><ele>828.3</ele><time>2015-04-28T08:00:55.0000000+00:00</time></trkpt><trkpt lat="34.98322564" lon="32.82452096"><ele>828.3</ele><time>2015-04-28T08:01:25.0000000+00:00</time></trkpt><trkpt lat="34.98319823" lon="32.82452255"><ele>828.8</ele><time>2015-04-28T08:01:47.0000000+00:00</time></trkpt><trkpt lat="34.98319144" lon="32.82451065"><ele>828.8</ele><time>2015-04-28T08:01:48.0000000+00:00</time></trkpt><trkpt lat="34.98318826" lon="32.82449523"><ele>828.8</ele><time>2015-04-28T08:01:49.0000000+00:00</time></trkpt><trkpt lat="34.98319949" lon="32.82446153"><ele>829.3</ele><time>2015-04-28T08:01:52.0000000+00:00</time></trkpt><trkpt lat="34.98320343" lon="32.82444519"><ele>829.3</ele><time>2015-04-28T08:01:53.0000000+00:00</time></trkpt><trkpt lat="34.98321592" lon="32.82423128"><ele>831.2</ele><time>2015-04-28T08:02:07.0000000+00:00</time></trkpt><trkpt lat="34.98321701" lon="32.82421846"><ele>831.2</ele><time>2015-04-28T08:02:08.0000000+00:00</time></trkpt><trkpt lat="34.98321491" lon="32.82420413"><ele>831.2</ele><time>2015-04-28T08:02:09.0000000+00:00</time></trkpt><trkpt lat="34.98321567" lon="32.82419055"><ele>831.7</ele><time>2015-04-28T08:02:10.0000000+00:00</time></trkpt><trkpt lat="34.98321961" lon="32.8241716"><ele>831.7</ele><time>2015-04-28T08:02:11.0000000+00:00</time></trkpt><trkpt lat="34.98322321" lon="32.82415409"><ele>831.7</ele><time>2015-04-28T08:02:12.0000000+00:00</time></trkpt><trkpt lat="34.98322455" lon="32.82413741"><ele>831.7</ele><time>2015-04-28T08:02:13.0000000+00:00</time></trkpt><trkpt lat="34.98322573" lon="32.8241224"><ele>831.7</ele><time>2015-04-28T08:02:14.0000000+00:00</time></trkpt><trkpt lat="34.98322682" lon="32.82410857"><ele>831.7</ele><time>2015-04-28T08:02:15.0000000+00:00</time></trkpt><trkpt lat="34.98322899" lon="32.82409541"><ele>831.7</ele><time>2015-04-28T08:02:16.0000000+00:00</time></trkpt><trkpt lat="34.98322958" lon="32.82408209"><ele>831.7</ele><time>2015-04-28T08:02:17.0000000+00:00</time></trkpt><trkpt lat="34.98322715" lon="32.82406683"><ele>831.7</ele><time>2015-04-28T08:02:18.0000000+00:00</time></trkpt><trkpt lat="34.98322732" lon="32.82405149"><ele>831.7</ele><time>2015-04-28T08:02:19.0000000+00:00</time></trkpt><trkpt lat="34.98323176" lon="32.82403582"><ele>831.7</ele><time>2015-04-28T08:02:20.0000000+00:00</time></trkpt><trkpt lat="34.9832393" lon="32.82402392"><ele>831.7</ele><time>2015-04-28T08:02:21.0000000+00:00</time></trkpt><trkpt lat="34.98324174" lon="32.82400724"><ele>831.7</ele><time>2015-04-28T08:02:22.0000000+00:00</time></trkpt><trkpt lat="34.9832419" lon="32.82399072"><ele>831.7</ele><time>2015-04-28T08:02:23.0000000+00:00</time></trkpt><trkpt lat="34.98324257" lon="32.82397773"><ele>831.7</ele><time>2015-04-28T08:02:24.0000000+00:00</time></trkpt><trkpt lat="34.98324852" lon="32.82381143"><ele>831.7</ele><time>2015-04-28T08:02:35.0000000+00:00</time></trkpt><trkpt lat="34.98308374" lon="32.82362485"><ele>832.2</ele><time>2015-04-28T08:02:47.0000000+00:00</time></trkpt><trkpt lat="34.98278308" lon="32.82359459"><ele>835.0</ele><time>2015-04-28T08:03:02.0000000+00:00</time></trkpt><trkpt lat="34.98261343" lon="32.82350985"><ele>835.5</ele><time>2015-04-28T08:03:15.0000000+00:00</time></trkpt><trkpt lat="34.98260605" lon="32.82349896"><ele>836.0</ele><time>2015-04-28T08:03:16.0000000+00:00</time></trkpt><trkpt lat="34.98247446" lon="32.82331036"><ele>836.5</ele><time>2015-04-28T08:03:30.0000000+00:00</time></trkpt><trkpt lat="34.9824385" lon="32.82326099"><ele>836.5</ele><time>2015-04-28T08:03:34.0000000+00:00</time></trkpt><trkpt lat="34.98242467" lon="32.82325018"><ele>836.5</ele><time>2015-04-28T08:03:35.0000000+00:00</time></trkpt><trkpt lat="34.98226181" lon="32.82314071"><ele>837.5</ele><time>2015-04-28T08:03:48.0000000+00:00</time></trkpt><trkpt lat="34.98209719" lon="32.82308858"><ele>838.4</ele><time>2015-04-28T08:04:02.0000000+00:00</time></trkpt><trkpt lat="34.98198495" lon="32.82306528"><ele>839.9</ele><time>2015-04-28T08:04:14.0000000+00:00</time></trkpt><trkpt lat="34.98186509" lon="32.82296528"><ele>842.3</ele><time>2015-04-28T08:04:28.0000000+00:00</time></trkpt><trkpt lat="34.98182318" lon="32.82289538"><ele>843.7</ele><time>2015-04-28T08:04:36.0000000+00:00</time></trkpt><trkpt lat="34.98181648" lon="32.8228616"><ele>843.7</ele><time>2015-04-28T08:04:39.0000000+00:00</time></trkpt><trkpt lat="34.98180742" lon="32.82285648"><ele>844.2</ele><time>2015-04-28T08:04:40.0000000+00:00</time></trkpt><trkpt lat="34.98179795" lon="32.82285531"><ele>844.2</ele><time>2015-04-28T08:04:41.0000000+00:00</time></trkpt><trkpt lat="34.9817868" lon="32.82285372"><ele>844.7</ele><time>2015-04-28T08:04:42.0000000+00:00</time></trkpt><trkpt lat="34.98177691" lon="32.82285305"><ele>844.7</ele><time>2015-04-28T08:04:43.0000000+00:00</time></trkpt><trkpt lat="34.98176417" lon="32.8228512"><ele>844.7</ele><time>2015-04-28T08:04:44.0000000+00:00</time></trkpt><trkpt lat="34.98175202" lon="32.82284366"><ele>844.7</ele><time>2015-04-28T08:04:45.0000000+00:00</time></trkpt><trkpt lat="34.9817407" lon="32.82283553"><ele>845.1</ele><time>2015-04-28T08:04:46.0000000+00:00</time></trkpt><trkpt lat="34.98173081" lon="32.82282447"><ele>845.1</ele><time>2015-04-28T08:04:47.0000000+00:00</time></trkpt><trkpt lat="34.98154826" lon="32.82268424"><ele>848.0</ele><time>2015-04-28T08:05:03.0000000+00:00</time></trkpt><trkpt lat="34.98146134" lon="32.82270452"><ele>849.9</ele><time>2015-04-28T08:05:17.0000000+00:00</time></trkpt><trkpt lat="34.9814874" lon="32.82273746"><ele>850.4</ele><time>2015-04-28T08:05:22.0000000+00:00</time></trkpt><trkpt lat="34.98149612" lon="32.82274551"><ele>850.4</ele><time>2015-04-28T08:05:23.0000000+00:00</time></trkpt><trkpt lat="34.98150492" lon="32.82275506"><ele>850.4</ele><time>2015-04-28T08:05:24.0000000+00:00</time></trkpt><trkpt lat="34.98162269" lon="32.82287057"><ele>851.4</ele><time>2015-04-28T08:05:37.0000000+00:00</time></trkpt><trkpt lat="34.98174883" lon="32.82304868"><ele>851.9</ele><time>2015-04-28T08:05:50.0000000+00:00</time></trkpt><trkpt lat="34.98199543" lon="32.82340659"><ele>852.8</ele><time>2015-04-28T08:06:04.0000000+00:00</time></trkpt><trkpt lat="34.98228301" lon="32.82374505"><ele>853.3</ele><time>2015-04-28T08:06:17.0000000+00:00</time></trkpt><trkpt lat="34.98237454" lon="32.82397689"><ele>856.2</ele><time>2015-04-28T08:06:28.0000000+00:00</time></trkpt><trkpt lat="34.98254419" lon="32.82405929"><ele>859.6</ele><time>2015-04-28T08:06:41.0000000+00:00</time></trkpt><trkpt lat="34.98268149" lon="32.8241338"><ele>860.5</ele><time>2015-04-28T08:06:56.0000000+00:00</time></trkpt><trkpt lat="34.98268015" lon="32.82415585"><ele>860.5</ele><time>2015-04-28T08:07:18.0000000+00:00</time></trkpt><trkpt lat="34.98268233" lon="32.82419709"><ele>860.5</ele><time>2015-04-28T08:07:56.0000000+00:00</time></trkpt><trkpt lat="34.9826783" lon="32.82417621"><ele>860.5</ele><time>2015-04-28T08:08:32.0000000+00:00</time></trkpt><trkpt lat="34.98269758" lon="32.82420949"><ele>860.5</ele><time>2015-04-28T08:09:07.0000000+00:00</time></trkpt><trkpt lat="34.98270353" lon="32.82423883"><ele>860.0</ele><time>2015-04-28T08:10:01.0000000+00:00</time></trkpt><trkpt lat="34.982712" lon="32.82426314"><ele>860.0</ele><time>2015-04-28T08:10:54.0000000+00:00</time></trkpt><trkpt lat="34.98272122" lon="32.82425442"><ele>860.0</ele><time>2015-04-28T08:11:44.0000000+00:00</time></trkpt><trkpt lat="34.98271108" lon="32.82424746"><ele>859.6</ele><time>2015-04-28T08:12:41.0000000+00:00</time></trkpt><trkpt lat="34.98270923" lon="32.8242276"><ele>859.6</ele><time>2015-04-28T08:13:14.0000000+00:00</time></trkpt><trkpt lat="34.98269381" lon="32.82423371"><ele>859.1</ele><time>2015-04-28T08:14:05.0000000+00:00</time></trkpt><trkpt lat="34.9827032" lon="32.82423011"><ele>859.1</ele><time>2015-04-28T08:14:55.0000000+00:00</time></trkpt><trkpt lat="34.98271259" lon="32.82424059"><ele>859.1</ele><time>2015-04-28T08:15:23.0000000+00:00</time></trkpt><trkpt lat="34.98270068" lon="32.82420807"><ele>859.1</ele><time>2015-04-28T08:15:24.0000000+00:00</time></trkpt><trkpt lat="34.98267604" lon="32.82413422"><ele>858.6</ele><time>2015-04-28T08:15:36.0000000+00:00</time></trkpt><trkpt lat="34.98252676" lon="32.8240815"><ele>857.6</ele><time>2015-04-28T08:15:47.0000000+00:00</time></trkpt><trkpt lat="34.9823504" lon="32.82395686"><ele>854.3</ele><time>2015-04-28T08:15:53.0000000+00:00</time></trkpt><trkpt lat="34.98231922" lon="32.82390556"><ele>853.8</ele><time>2015-04-28T08:15:54.0000000+00:00</time></trkpt><trkpt lat="34.98229232" lon="32.823837"><ele>852.8</ele><time>2015-04-28T08:15:55.0000000+00:00</time></trkpt><trkpt lat="34.98224957" lon="32.82369861"><ele>851.4</ele><time>2015-04-28T08:15:57.0000000+00:00</time></trkpt><trkpt lat="34.98222694" lon="32.82364304"><ele>851.4</ele><time>2015-04-28T08:15:58.0000000+00:00</time></trkpt><trkpt lat="34.98219903" lon="32.82359795"><ele>851.4</ele><time>2015-04-28T08:15:59.0000000+00:00</time></trkpt><trkpt lat="34.98216692" lon="32.82356023"><ele>851.4</ele><time>2015-04-28T08:16:00.0000000+00:00</time></trkpt><trkpt lat="34.98213021" lon="32.82352972"><ele>850.9</ele><time>2015-04-28T08:16:01.0000000+00:00</time></trkpt><trkpt lat="34.98209174" lon="32.82350508"><ele>850.9</ele><time>2015-04-28T08:16:02.0000000+00:00</time></trkpt><trkpt lat="34.9820531" lon="32.82348362"><ele>850.9</ele><time>2015-04-28T08:16:03.0000000+00:00</time></trkpt><trkpt lat="34.98201462" lon="32.82346568"><ele>850.9</ele><time>2015-04-28T08:16:04.0000000+00:00</time></trkpt><trkpt lat="34.98197758" lon="32.82344565"><ele>850.9</ele><time>2015-04-28T08:16:05.0000000+00:00</time></trkpt><trkpt lat="34.98194514" lon="32.82341455"><ele>850.9</ele><time>2015-04-28T08:16:06.0000000+00:00</time></trkpt><trkpt lat="34.98191848" lon="32.82337884"><ele>850.9</ele><time>2015-04-28T08:16:07.0000000+00:00</time></trkpt><trkpt lat="34.98189711" lon="32.82333886"><ele>850.9</ele><time>2015-04-28T08:16:08.0000000+00:00</time></trkpt><trkpt lat="34.9818775" lon="32.82329813"><ele>850.9</ele><time>2015-04-28T08:16:09.0000000+00:00</time></trkpt><trkpt lat="34.98185654" lon="32.82325907"><ele>850.9</ele><time>2015-04-28T08:16:10.0000000+00:00</time></trkpt><trkpt lat="34.98164766" lon="32.82293703"><ele>849.9</ele><time>2015-04-28T08:16:19.0000000+00:00</time></trkpt><trkpt lat="34.98158371" lon="32.82286746"><ele>849.5</ele><time>2015-04-28T08:16:21.0000000+00:00</time></trkpt><trkpt lat="34.98140627" lon="32.82265834"><ele>848.5</ele><time>2015-04-28T08:16:29.0000000+00:00</time></trkpt><trkpt lat="34.98139906" lon="32.82264685"><ele>848.5</ele><time>2015-04-28T08:16:30.0000000+00:00</time></trkpt><trkpt lat="34.98138875" lon="32.82263042"><ele>848.5</ele><time>2015-04-28T08:16:32.0000000+00:00</time></trkpt><trkpt lat="34.98138271" lon="32.82262003"><ele>848.0</ele><time>2015-04-28T08:16:33.0000000+00:00</time></trkpt><trkpt lat="34.98137609" lon="32.82260587"><ele>848.5</ele><time>2015-04-28T08:16:34.0000000+00:00</time></trkpt><trkpt lat="34.98136318" lon="32.82257494"><ele>848.5</ele><time>2015-04-28T08:16:36.0000000+00:00</time></trkpt><trkpt lat="34.98136226" lon="32.82255557"><ele>848.5</ele><time>2015-04-28T08:16:37.0000000+00:00</time></trkpt><trkpt lat="34.98136452" lon="32.82253562"><ele>848.5</ele><time>2015-04-28T08:16:38.0000000+00:00</time></trkpt><trkpt lat="34.98136058" lon="32.82251501"><ele>848.5</ele><time>2015-04-28T08:16:39.0000000+00:00</time></trkpt><trkpt lat="34.98134868" lon="32.82249489"><ele>848.5</ele><time>2015-04-28T08:16:40.0000000+00:00</time></trkpt><trkpt lat="34.98133318" lon="32.82247209"><ele>848.5</ele><time>2015-04-28T08:16:41.0000000+00:00</time></trkpt><trkpt lat="34.98131423" lon="32.82244937"><ele>848.5</ele><time>2015-04-28T08:16:42.0000000+00:00</time></trkpt><trkpt lat="34.98104199" lon="32.82205249"><ele>848.5</ele><time>2015-04-28T08:16:56.0000000+00:00</time></trkpt><trkpt lat="34.98103981" lon="32.82202927"><ele>848.5</ele><time>2015-04-28T08:16:57.0000000+00:00</time></trkpt><trkpt lat="34.9810419" lon="32.82201251"><ele>849.0</ele><time>2015-04-28T08:16:58.0000000+00:00</time></trkpt><trkpt lat="34.98104442" lon="32.82199591"><ele>849.0</ele><time>2015-04-28T08:16:59.0000000+00:00</time></trkpt><trkpt lat="34.98104123" lon="32.82197773"><ele>849.0</ele><time>2015-04-28T08:17:00.0000000+00:00</time></trkpt><trkpt lat="34.98103503" lon="32.82196498"><ele>849.0</ele><time>2015-04-28T08:17:01.0000000+00:00</time></trkpt><trkpt lat="34.9810274" lon="32.82195761"><ele>849.0</ele><time>2015-04-28T08:17:02.0000000+00:00</time></trkpt><trkpt lat="34.98102254" lon="32.82194395"><ele>849.5</ele><time>2015-04-28T08:17:03.0000000+00:00</time></trkpt><trkpt lat="34.9810181" lon="32.8219297"><ele>849.5</ele><time>2015-04-28T08:17:04.0000000+00:00</time></trkpt><trkpt lat="34.98101693" lon="32.82191419"><ele>849.5</ele><time>2015-04-28T08:17:05.0000000+00:00</time></trkpt><trkpt lat="34.98101844" lon="32.82189835"><ele>849.5</ele><time>2015-04-28T08:17:06.0000000+00:00</time></trkpt><trkpt lat="34.98099455" lon="32.82183339"><ele>850.4</ele><time>2015-04-28T08:17:18.0000000+00:00</time></trkpt><trkpt lat="34.98099807" lon="32.82182199"><ele>850.4</ele><time>2015-04-28T08:17:20.0000000+00:00</time></trkpt><trkpt lat="34.98099983" lon="32.82178586"><ele>850.4</ele><time>2015-04-28T08:17:23.0000000+00:00</time></trkpt><trkpt lat="34.98099069" lon="32.82177203"><ele>850.9</ele><time>2015-04-28T08:17:24.0000000+00:00</time></trkpt><trkpt lat="34.98097979" lon="32.8217541"><ele>850.9</ele><time>2015-04-28T08:17:25.0000000+00:00</time></trkpt><trkpt lat="34.98096412" lon="32.821738"><ele>850.9</ele><time>2015-04-28T08:17:26.0000000+00:00</time></trkpt><trkpt lat="34.98094677" lon="32.82171981"><ele>851.4</ele><time>2015-04-28T08:17:27.0000000+00:00</time></trkpt><trkpt lat="34.98093193" lon="32.82170238"><ele>851.4</ele><time>2015-04-28T08:17:28.0000000+00:00</time></trkpt><trkpt lat="34.98076488" lon="32.82154622"><ele>853.8</ele><time>2015-04-28T08:17:42.0000000+00:00</time></trkpt><trkpt lat="34.98072239" lon="32.82150314"><ele>854.8</ele><time>2015-04-28T08:17:46.0000000+00:00</time></trkpt><trkpt lat="34.98070981" lon="32.82149367"><ele>854.8</ele><time>2015-04-28T08:17:47.0000000+00:00</time></trkpt><trkpt lat="34.98064041" lon="32.82143382"><ele>855.7</ele><time>2015-04-28T08:17:53.0000000+00:00</time></trkpt><trkpt lat="34.98047386" lon="32.82141957"><ele>857.2</ele><time>2015-04-28T08:18:05.0000000+00:00</time></trkpt><trkpt lat="34.98046448" lon="32.82142469"><ele>857.6</ele><time>2015-04-28T08:18:06.0000000+00:00</time></trkpt><trkpt lat="34.98045442" lon="32.82142955"><ele>857.6</ele><time>2015-04-28T08:18:07.0000000+00:00</time></trkpt><trkpt lat="34.9804436" lon="32.82143491"><ele>857.6</ele><time>2015-04-28T08:18:08.0000000+00:00</time></trkpt><trkpt lat="34.9804343" lon="32.82144221"><ele>857.6</ele><time>2015-04-28T08:18:09.0000000+00:00</time></trkpt><trkpt lat="34.98042491" lon="32.82145059"><ele>857.6</ele><time>2015-04-28T08:18:10.0000000+00:00</time></trkpt><trkpt lat="34.98041318" lon="32.82145453"><ele>858.1</ele><time>2015-04-28T08:18:11.0000000+00:00</time></trkpt><trkpt lat="34.98040052" lon="32.82145629"><ele>858.1</ele><time>2015-04-28T08:18:12.0000000+00:00</time></trkpt><trkpt lat="34.98038879" lon="32.82146031"><ele>858.6</ele><time>2015-04-28T08:18:13.0000000+00:00</time></trkpt><trkpt lat="34.98037915" lon="32.82146467"><ele>858.1</ele><time>2015-04-28T08:18:14.0000000+00:00</time></trkpt><trkpt lat="34.98028686" lon="32.82152477"><ele>859.1</ele><time>2015-04-28T08:18:23.0000000+00:00</time></trkpt><trkpt lat="34.98027479" lon="32.82153281"><ele>859.1</ele><time>2015-04-28T08:18:24.0000000+00:00</time></trkpt><trkpt lat="34.98026566" lon="32.82154178"><ele>859.6</ele><time>2015-04-28T08:18:25.0000000+00:00</time></trkpt><trkpt lat="34.98006709" lon="32.82146995"><ele>860.5</ele><time>2015-04-28T08:18:42.0000000+00:00</time></trkpt><trkpt lat="34.98004144" lon="32.82114364"><ele>862.4</ele><time>2015-04-28T08:18:57.0000000+00:00</time></trkpt><trkpt lat="34.98003792" lon="32.82084994"><ele>864.4</ele><time>2015-04-28T08:19:11.0000000+00:00</time></trkpt><trkpt lat="34.98006608" lon="32.82054945"><ele>864.8</ele><time>2015-04-28T08:19:26.0000000+00:00</time></trkpt><trkpt lat="34.97995242" lon="32.82025432"><ele>866.8</ele><time>2015-04-28T08:19:42.0000000+00:00</time></trkpt><trkpt lat="34.97965101" lon="32.8201332"><ele>868.2</ele><time>2015-04-28T08:19:57.0000000+00:00</time></trkpt><trkpt lat="34.97956946" lon="32.81992106"><ele>870.1</ele><time>2015-04-28T08:20:08.0000000+00:00</time></trkpt><trkpt lat="34.9795138" lon="32.81970296"><ele>872.1</ele><time>2015-04-28T08:20:21.0000000+00:00</time></trkpt><trkpt lat="34.97937843" lon="32.81950892"><ele>874.5</ele><time>2015-04-28T08:20:35.0000000+00:00</time></trkpt><trkpt lat="34.97932781" lon="32.81945729"><ele>874.5</ele><time>2015-04-28T08:20:40.0000000+00:00</time></trkpt><trkpt lat="34.97931766" lon="32.81944597"><ele>874.9</ele><time>2015-04-28T08:20:41.0000000+00:00</time></trkpt><trkpt lat="34.97930869" lon="32.81943675"><ele>874.9</ele><time>2015-04-28T08:20:42.0000000+00:00</time></trkpt><trkpt lat="34.97929637" lon="32.81942896"><ele>874.9</ele><time>2015-04-28T08:20:43.0000000+00:00</time></trkpt><trkpt lat="34.97928497" lon="32.81942099"><ele>874.9</ele><time>2015-04-28T08:20:44.0000000+00:00</time></trkpt><trkpt lat="34.97927383" lon="32.81940985"><ele>875.4</ele><time>2015-04-28T08:20:45.0000000+00:00</time></trkpt><trkpt lat="34.97913754" lon="32.81922243"><ele>876.9</ele><time>2015-04-28T08:21:00.0000000+00:00</time></trkpt><trkpt lat="34.97912597" lon="32.81921237"><ele>876.9</ele><time>2015-04-28T08:21:01.0000000+00:00</time></trkpt><trkpt lat="34.97911616" lon="32.81920021"><ele>877.3</ele><time>2015-04-28T08:21:02.0000000+00:00</time></trkpt><trkpt lat="34.9791056" lon="32.81918588"><ele>877.3</ele><time>2015-04-28T08:21:03.0000000+00:00</time></trkpt><trkpt lat="34.97909714" lon="32.81917138"><ele>877.3</ele><time>2015-04-28T08:21:04.0000000+00:00</time></trkpt><trkpt lat="34.97893352" lon="32.81896946"><ele>880.7</ele><time>2015-04-28T08:21:19.0000000+00:00</time></trkpt><trkpt lat="34.97879656" lon="32.81880752"><ele>882.6</ele><time>2015-04-28T08:21:31.0000000+00:00</time></trkpt><trkpt lat="34.9787207" lon="32.8187009"><ele>884.1</ele><time>2015-04-28T08:21:39.0000000+00:00</time></trkpt><trkpt lat="34.97870788" lon="32.81868707"><ele>884.1</ele><time>2015-04-28T08:21:40.0000000+00:00</time></trkpt><trkpt lat="34.97869908" lon="32.81867157"><ele>884.1</ele><time>2015-04-28T08:21:41.0000000+00:00</time></trkpt><trkpt lat="34.97869212" lon="32.8186543"><ele>884.6</ele><time>2015-04-28T08:21:42.0000000+00:00</time></trkpt><trkpt lat="34.97868634" lon="32.81863779"><ele>884.6</ele><time>2015-04-28T08:21:43.0000000+00:00</time></trkpt><trkpt lat="34.97866035" lon="32.81853167"><ele>886.0</ele><time>2015-04-28T08:21:49.0000000+00:00</time></trkpt><trkpt lat="34.97866002" lon="32.81851332"><ele>886.0</ele><time>2015-04-28T08:21:50.0000000+00:00</time></trkpt><trkpt lat="34.97865474" lon="32.8184963"><ele>886.5</ele><time>2015-04-28T08:21:51.0000000+00:00</time></trkpt><trkpt lat="34.97864862" lon="32.8184792"><ele>886.5</ele><time>2015-04-28T08:21:52.0000000+00:00</time></trkpt><trkpt lat="34.978643" lon="32.81846353"><ele>887.0</ele><time>2015-04-28T08:21:53.0000000+00:00</time></trkpt><trkpt lat="34.97863647" lon="32.81844886"><ele>887.0</ele><time>2015-04-28T08:21:54.0000000+00:00</time></trkpt><trkpt lat="34.9786109" lon="32.81841081"><ele>887.4</ele><time>2015-04-28T08:21:57.0000000+00:00</time></trkpt><trkpt lat="34.97860461" lon="32.81839496"><ele>887.9</ele><time>2015-04-28T08:21:58.0000000+00:00</time></trkpt><trkpt lat="34.97859715" lon="32.81838239"><ele>887.9</ele><time>2015-04-28T08:21:59.0000000+00:00</time></trkpt><trkpt lat="34.97858777" lon="32.81837175"><ele>887.9</ele><time>2015-04-28T08:22:00.0000000+00:00</time></trkpt><trkpt lat="34.97857838" lon="32.81836018"><ele>887.9</ele><time>2015-04-28T08:22:01.0000000+00:00</time></trkpt><trkpt lat="34.97856966" lon="32.81834694"><ele>887.9</ele><time>2015-04-28T08:22:02.0000000+00:00</time></trkpt><trkpt lat="34.97855944" lon="32.81833537"><ele>888.4</ele><time>2015-04-28T08:22:03.0000000+00:00</time></trkpt><trkpt lat="34.97853865" lon="32.81830377"><ele>888.4</ele><time>2015-04-28T08:22:06.0000000+00:00</time></trkpt><trkpt lat="34.97853446" lon="32.81828675"><ele>888.4</ele><time>2015-04-28T08:22:07.0000000+00:00</time></trkpt><trkpt lat="34.97852658" lon="32.81827385"><ele>888.9</ele><time>2015-04-28T08:22:08.0000000+00:00</time></trkpt><trkpt lat="34.97851552" lon="32.8182653"><ele>888.9</ele><time>2015-04-28T08:22:09.0000000+00:00</time></trkpt><trkpt lat="34.97850252" lon="32.81825683"><ele>888.9</ele><time>2015-04-28T08:22:10.0000000+00:00</time></trkpt><trkpt lat="34.97849087" lon="32.81824753"><ele>888.9</ele><time>2015-04-28T08:22:11.0000000+00:00</time></trkpt><trkpt lat="34.9784783" lon="32.81824015"><ele>889.4</ele><time>2015-04-28T08:22:12.0000000+00:00</time></trkpt><trkpt lat="34.97846522" lon="32.81823537"><ele>889.4</ele><time>2015-04-28T08:22:13.0000000+00:00</time></trkpt><trkpt lat="34.97845282" lon="32.81822992"><ele>889.4</ele><time>2015-04-28T08:22:14.0000000+00:00</time></trkpt><trkpt lat="34.97844025" lon="32.81822708"><ele>889.8</ele><time>2015-04-28T08:22:15.0000000+00:00</time></trkpt><trkpt lat="34.97842625" lon="32.81822766"><ele>889.8</ele><time>2015-04-28T08:22:16.0000000+00:00</time></trkpt><trkpt lat="34.978413" lon="32.81822791"><ele>889.8</ele><time>2015-04-28T08:22:17.0000000+00:00</time></trkpt><trkpt lat="34.97840211" lon="32.81822674"><ele>889.8</ele><time>2015-04-28T08:22:18.0000000+00:00</time></trkpt><trkpt lat="34.97839222" lon="32.81822297"><ele>890.3</ele><time>2015-04-28T08:22:19.0000000+00:00</time></trkpt><trkpt lat="34.97815233" lon="32.81817041"><ele>893.2</ele><time>2015-04-28T08:22:35.0000000+00:00</time></trkpt><trkpt lat="34.97791579" lon="32.81825432"><ele>896.1</ele><time>2015-04-28T08:22:52.0000000+00:00</time></trkpt><trkpt lat="34.97770155" lon="32.81838407"><ele>897.5</ele><time>2015-04-28T08:23:08.0000000+00:00</time></trkpt><trkpt lat="34.97750415" lon="32.81843159"><ele>899.5</ele><time>2015-04-28T08:23:22.0000000+00:00</time></trkpt><trkpt lat="34.97749183" lon="32.81843453"><ele>899.9</ele><time>2015-04-28T08:23:23.0000000+00:00</time></trkpt><trkpt lat="34.97731204" lon="32.81836714"><ele>902.3</ele><time>2015-04-28T08:23:37.0000000+00:00</time></trkpt><trkpt lat="34.9772988" lon="32.81836018"><ele>902.8</ele><time>2015-04-28T08:23:38.0000000+00:00</time></trkpt><trkpt lat="34.97713208" lon="32.81830293"><ele>904.7</ele><time>2015-04-28T08:23:51.0000000+00:00</time></trkpt><trkpt lat="34.97712219" lon="32.81829723"><ele>905.2</ele><time>2015-04-28T08:23:52.0000000+00:00</time></trkpt><trkpt lat="34.97711037" lon="32.81829371"><ele>905.2</ele><time>2015-04-28T08:23:53.0000000+00:00</time></trkpt><trkpt lat="34.97706201" lon="32.81828801"><ele>905.7</ele><time>2015-04-28T08:23:57.0000000+00:00</time></trkpt><trkpt lat="34.97688607" lon="32.81823487"><ele>908.1</ele><time>2015-04-28T08:24:13.0000000+00:00</time></trkpt><trkpt lat="34.97681273" lon="32.81822934"><ele>909.5</ele><time>2015-04-28T08:24:25.0000000+00:00</time></trkpt><trkpt lat="34.9768046" lon="32.81822917"><ele>909.5</ele><time>2015-04-28T08:24:51.0000000+00:00</time></trkpt><trkpt lat="34.97678189" lon="32.81824451"><ele>909.1</ele><time>2015-04-28T08:25:16.0000000+00:00</time></trkpt><trkpt lat="34.97674626" lon="32.81819422"><ele>909.5</ele><time>2015-04-28T08:25:36.0000000+00:00</time></trkpt><trkpt lat="34.97666228" lon="32.81816999"><ele>910.5</ele><time>2015-04-28T08:25:46.0000000+00:00</time></trkpt><trkpt lat="34.97665146" lon="32.81816471"><ele>910.5</ele><time>2015-04-28T08:25:47.0000000+00:00</time></trkpt><trkpt lat="34.9766399" lon="32.8181601"><ele>911.0</ele><time>2015-04-28T08:25:48.0000000+00:00</time></trkpt><trkpt lat="34.97662799" lon="32.81815784"><ele>911.0</ele><time>2015-04-28T08:25:49.0000000+00:00</time></trkpt><trkpt lat="34.97660067" lon="32.81812884"><ele>911.0</ele><time>2015-04-28T08:25:53.0000000+00:00</time></trkpt><trkpt lat="34.97657988" lon="32.81812339"><ele>911.5</ele><time>2015-04-28T08:25:55.0000000+00:00</time></trkpt><trkpt lat="34.97656806" lon="32.81812666"><ele>912.0</ele><time>2015-04-28T08:25:56.0000000+00:00</time></trkpt><trkpt lat="34.97651509" lon="32.81811845"><ele>912.4</ele><time>2015-04-28T08:26:02.0000000+00:00</time></trkpt><trkpt lat="34.97649523" lon="32.8180938"><ele>912.9</ele><time>2015-04-28T08:26:05.0000000+00:00</time></trkpt><trkpt lat="34.97648391" lon="32.81809196"><ele>912.9</ele><time>2015-04-28T08:26:06.0000000+00:00</time></trkpt><trkpt lat="34.97643974" lon="32.81808752"><ele>913.4</ele><time>2015-04-28T08:26:10.0000000+00:00</time></trkpt><trkpt lat="34.97642951" lon="32.81809255"><ele>913.4</ele><time>2015-04-28T08:26:11.0000000+00:00</time></trkpt><trkpt lat="34.9764187" lon="32.81809246"><ele>913.9</ele><time>2015-04-28T08:26:12.0000000+00:00</time></trkpt><trkpt lat="34.97633589" lon="32.81805659"><ele>914.4</ele><time>2015-04-28T08:26:19.0000000+00:00</time></trkpt><trkpt lat="34.97632323" lon="32.81805441"><ele>914.8</ele><time>2015-04-28T08:26:20.0000000+00:00</time></trkpt><trkpt lat="34.9763094" lon="32.81805298"><ele>914.8</ele><time>2015-04-28T08:26:21.0000000+00:00</time></trkpt><trkpt lat="34.97624058" lon="32.81804016"><ele>915.8</ele><time>2015-04-28T08:26:27.0000000+00:00</time></trkpt><trkpt lat="34.97617965" lon="32.81801032"><ele>916.8</ele><time>2015-04-28T08:26:34.0000000+00:00</time></trkpt><trkpt lat="34.97616942" lon="32.81801166"><ele>916.8</ele><time>2015-04-28T08:26:35.0000000+00:00</time></trkpt><trkpt lat="34.97607445" lon="32.81799054"><ele>917.7</ele><time>2015-04-28T08:26:44.0000000+00:00</time></trkpt><trkpt lat="34.97599407" lon="32.81794972"><ele>919.2</ele><time>2015-04-28T08:26:52.0000000+00:00</time></trkpt><trkpt lat="34.97591042" lon="32.81791334"><ele>920.6</ele><time>2015-04-28T08:27:03.0000000+00:00</time></trkpt><trkpt lat="34.97590137" lon="32.81790965"><ele>920.6</ele><time>2015-04-28T08:27:04.0000000+00:00</time></trkpt><trkpt lat="34.9758898" lon="32.81790563"><ele>921.1</ele><time>2015-04-28T08:27:05.0000000+00:00</time></trkpt><trkpt lat="34.97587924" lon="32.81790286"><ele>921.1</ele><time>2015-04-28T08:27:06.0000000+00:00</time></trkpt><trkpt lat="34.97586583" lon="32.81790026"><ele>921.1</ele><time>2015-04-28T08:27:07.0000000+00:00</time></trkpt><trkpt lat="34.9758551" lon="32.81790161"><ele>921.6</ele><time>2015-04-28T08:27:08.0000000+00:00</time></trkpt><trkpt lat="34.97584429" lon="32.81790379"><ele>921.6</ele><time>2015-04-28T08:27:09.0000000+00:00</time></trkpt><trkpt lat="34.97583381" lon="32.81790563"><ele>921.6</ele><time>2015-04-28T08:27:10.0000000+00:00</time></trkpt><trkpt lat="34.97582459" lon="32.81790186"><ele>922.0</ele><time>2015-04-28T08:27:11.0000000+00:00</time></trkpt><trkpt lat="34.97581529" lon="32.81789524"><ele>922.0</ele><time>2015-04-28T08:27:12.0000000+00:00</time></trkpt><trkpt lat="34.97576231" lon="32.81787872"><ele>922.5</ele><time>2015-04-28T08:27:17.0000000+00:00</time></trkpt><trkpt lat="34.97575267" lon="32.81788266"><ele>923.0</ele><time>2015-04-28T08:27:18.0000000+00:00</time></trkpt><trkpt lat="34.97571412" lon="32.81788727"><ele>923.0</ele><time>2015-04-28T08:27:22.0000000+00:00</time></trkpt><trkpt lat="34.97570339" lon="32.8178809"><ele>923.5</ele><time>2015-04-28T08:27:23.0000000+00:00</time></trkpt><trkpt lat="34.97569383" lon="32.81787353"><ele>923.5</ele><time>2015-04-28T08:27:24.0000000+00:00</time></trkpt><trkpt lat="34.97568578" lon="32.81786464"><ele>923.5</ele><time>2015-04-28T08:27:25.0000000+00:00</time></trkpt><trkpt lat="34.97567455" lon="32.81785718"><ele>923.5</ele><time>2015-04-28T08:27:26.0000000+00:00</time></trkpt><trkpt lat="34.97566039" lon="32.8178524"><ele>924.0</ele><time>2015-04-28T08:27:27.0000000+00:00</time></trkpt><trkpt lat="34.97564781" lon="32.81784955"><ele>924.0</ele><time>2015-04-28T08:27:28.0000000+00:00</time></trkpt><trkpt lat="34.97563533" lon="32.81784729"><ele>924.0</ele><time>2015-04-28T08:27:29.0000000+00:00</time></trkpt><trkpt lat="34.97561395" lon="32.81784067"><ele>924.5</ele><time>2015-04-28T08:27:31.0000000+00:00</time></trkpt><trkpt lat="34.97559342" lon="32.81783262"><ele>924.5</ele><time>2015-04-28T08:27:33.0000000+00:00</time></trkpt><trkpt lat="34.97558294" lon="32.81783899"><ele>924.5</ele><time>2015-04-28T08:27:34.0000000+00:00</time></trkpt><trkpt lat="34.97557439" lon="32.8178488"><ele>924.9</ele><time>2015-04-28T08:27:35.0000000+00:00</time></trkpt><trkpt lat="34.97556483" lon="32.81785752"><ele>924.9</ele><time>2015-04-28T08:27:36.0000000+00:00</time></trkpt><trkpt lat="34.9755541" lon="32.81786221"><ele>924.9</ele><time>2015-04-28T08:27:37.0000000+00:00</time></trkpt><trkpt lat="34.97554346" lon="32.81786582"><ele>924.9</ele><time>2015-04-28T08:27:38.0000000+00:00</time></trkpt><trkpt lat="34.97553374" lon="32.81786665"><ele>924.9</ele><time>2015-04-28T08:27:39.0000000+00:00</time></trkpt><trkpt lat="34.97552452" lon="32.81786473"><ele>925.4</ele><time>2015-04-28T08:27:40.0000000+00:00</time></trkpt><trkpt lat="34.97551404" lon="32.81786313"><ele>925.4</ele><time>2015-04-28T08:27:41.0000000+00:00</time></trkpt><trkpt lat="34.97550298" lon="32.81786456"><ele>925.4</ele><time>2015-04-28T08:27:42.0000000+00:00</time></trkpt><trkpt lat="34.97548956" lon="32.81785567"><ele>925.9</ele><time>2015-04-28T08:27:44.0000000+00:00</time></trkpt><trkpt lat="34.97548277" lon="32.81784947"><ele>925.9</ele><time>2015-04-28T08:27:45.0000000+00:00</time></trkpt><trkpt lat="34.97547305" lon="32.81784369"><ele>925.9</ele><time>2015-04-28T08:27:46.0000000+00:00</time></trkpt><trkpt lat="34.9754526" lon="32.81784084"><ele>926.4</ele><time>2015-04-28T08:27:50.0000000+00:00</time></trkpt><trkpt lat="34.9754438" lon="32.81784737"><ele>926.4</ele><time>2015-04-28T08:27:51.0000000+00:00</time></trkpt><trkpt lat="34.97543206" lon="32.81785576"><ele>926.4</ele><time>2015-04-28T08:27:52.0000000+00:00</time></trkpt><trkpt lat="34.9754231" lon="32.81786104"><ele>926.4</ele><time>2015-04-28T08:27:53.0000000+00:00</time></trkpt><trkpt lat="34.97541295" lon="32.81786514"><ele>926.9</ele><time>2015-04-28T08:27:54.0000000+00:00</time></trkpt><trkpt lat="34.97540315" lon="32.81786975"><ele>926.9</ele><time>2015-04-28T08:27:55.0000000+00:00</time></trkpt><trkpt lat="34.97536861" lon="32.81786607"><ele>927.3</ele><time>2015-04-28T08:27:58.0000000+00:00</time></trkpt><trkpt lat="34.97535512" lon="32.81786104"><ele>927.3</ele><time>2015-04-28T08:27:59.0000000+00:00</time></trkpt><trkpt lat="34.97534338" lon="32.81785827"><ele>927.3</ele><time>2015-04-28T08:28:00.0000000+00:00</time></trkpt><trkpt lat="34.97523274" lon="32.81782231"><ele>928.3</ele><time>2015-04-28T08:28:11.0000000+00:00</time></trkpt><trkpt lat="34.97518547" lon="32.81780253"><ele>928.8</ele><time>2015-04-28T08:28:15.0000000+00:00</time></trkpt><trkpt lat="34.97517843" lon="32.81779449"><ele>928.8</ele><time>2015-04-28T08:28:16.0000000+00:00</time></trkpt><trkpt lat="34.97516544" lon="32.81778711"><ele>928.8</ele><time>2015-04-28T08:28:17.0000000+00:00</time></trkpt><trkpt lat="34.9751527" lon="32.81778099"><ele>928.8</ele><time>2015-04-28T08:28:18.0000000+00:00</time></trkpt><trkpt lat="34.97504826" lon="32.81773807"><ele>929.7</ele><time>2015-04-28T08:28:28.0000000+00:00</time></trkpt><trkpt lat="34.97504063" lon="32.81772827"><ele>929.7</ele><time>2015-04-28T08:28:29.0000000+00:00</time></trkpt><trkpt lat="34.97503434" lon="32.81771628"><ele>929.7</ele><time>2015-04-28T08:28:30.0000000+00:00</time></trkpt><trkpt lat="34.97502571" lon="32.81771125"><ele>929.7</ele><time>2015-04-28T08:28:31.0000000+00:00</time></trkpt><trkpt lat="34.97501465" lon="32.81770907"><ele>929.7</ele><time>2015-04-28T08:28:32.0000000+00:00</time></trkpt><trkpt lat="34.97499704" lon="32.81770782"><ele>929.7</ele><time>2015-04-28T08:28:33.0000000+00:00</time></trkpt><trkpt lat="34.97491105" lon="32.81768887"><ele>930.7</ele><time>2015-04-28T08:28:41.0000000+00:00</time></trkpt><trkpt lat="34.9748968" lon="32.8176851"><ele>930.7</ele><time>2015-04-28T08:28:42.0000000+00:00</time></trkpt><trkpt lat="34.9748807" lon="32.8176799"><ele>930.7</ele><time>2015-04-28T08:28:43.0000000+00:00</time></trkpt><trkpt lat="34.97480384" lon="32.81765744"><ele>931.2</ele><time>2015-04-28T08:28:49.0000000+00:00</time></trkpt><trkpt lat="34.97479521" lon="32.81764663"><ele>931.2</ele><time>2015-04-28T08:28:50.0000000+00:00</time></trkpt><trkpt lat="34.97478632" lon="32.81763875"><ele>931.2</ele><time>2015-04-28T08:28:51.0000000+00:00</time></trkpt><trkpt lat="34.97477425" lon="32.81763598"><ele>931.7</ele><time>2015-04-28T08:28:52.0000000+00:00</time></trkpt><trkpt lat="34.97476076" lon="32.817639"><ele>931.7</ele><time>2015-04-28T08:28:53.0000000+00:00</time></trkpt><trkpt lat="34.97474802" lon="32.81764437"><ele>931.7</ele><time>2015-04-28T08:28:54.0000000+00:00</time></trkpt><trkpt lat="34.97473746" lon="32.81764856"><ele>931.7</ele><time>2015-04-28T08:28:55.0000000+00:00</time></trkpt><trkpt lat="34.97472296" lon="32.81765501"><ele>932.1</ele><time>2015-04-28T08:28:56.0000000+00:00</time></trkpt><trkpt lat="34.97470938" lon="32.81765937"><ele>932.1</ele><time>2015-04-28T08:28:57.0000000+00:00</time></trkpt><trkpt lat="34.97469756" lon="32.81765928"><ele>932.1</ele><time>2015-04-28T08:28:58.0000000+00:00</time></trkpt><trkpt lat="34.97468431" lon="32.81765962"><ele>932.1</ele><time>2015-04-28T08:28:59.0000000+00:00</time></trkpt><trkpt lat="34.97467224" lon="32.81765996"><ele>932.1</ele><time>2015-04-28T08:29:00.0000000+00:00</time></trkpt><trkpt lat="34.97465841" lon="32.8176582"><ele>932.1</ele><time>2015-04-28T08:29:01.0000000+00:00</time></trkpt><trkpt lat="34.97464291" lon="32.81765794"><ele>932.6</ele><time>2015-04-28T08:29:02.0000000+00:00</time></trkpt><trkpt lat="34.97463008" lon="32.8176587"><ele>932.6</ele><time>2015-04-28T08:29:03.0000000+00:00</time></trkpt><trkpt lat="34.97444166" lon="32.81765618"><ele>933.6</ele><time>2015-04-28T08:29:18.0000000+00:00</time></trkpt><trkpt lat="34.97428718" lon="32.81767144"><ele>934.5</ele><time>2015-04-28T08:29:30.0000000+00:00</time></trkpt><trkpt lat="34.97414678" lon="32.81769415"><ele>935.5</ele><time>2015-04-28T08:29:43.0000000+00:00</time></trkpt><trkpt lat="34.97402206" lon="32.8176758"><ele>936.9</ele><time>2015-04-28T08:29:54.0000000+00:00</time></trkpt><trkpt lat="34.97401024" lon="32.81767596"><ele>936.9</ele><time>2015-04-28T08:29:55.0000000+00:00</time></trkpt><trkpt lat="34.97399616" lon="32.81767856"><ele>936.9</ele><time>2015-04-28T08:29:56.0000000+00:00</time></trkpt><trkpt lat="34.97398107" lon="32.81767915"><ele>937.4</ele><time>2015-04-28T08:29:57.0000000+00:00</time></trkpt><trkpt lat="34.9738654" lon="32.81769692"><ele>938.4</ele><time>2015-04-28T08:30:06.0000000+00:00</time></trkpt><trkpt lat="34.97367295" lon="32.81766054"><ele>939.4</ele><time>2015-04-28T08:30:22.0000000+00:00</time></trkpt><trkpt lat="34.97365108" lon="32.81766012"><ele>939.8</ele><time>2015-04-28T08:30:24.0000000+00:00</time></trkpt><trkpt lat="34.97364018" lon="32.81766641"><ele>939.8</ele><time>2015-04-28T08:30:25.0000000+00:00</time></trkpt><trkpt lat="34.97361043" lon="32.81768141"><ele>939.8</ele><time>2015-04-28T08:30:28.0000000+00:00</time></trkpt><trkpt lat="34.97360053" lon="32.81767999"><ele>939.8</ele><time>2015-04-28T08:30:29.0000000+00:00</time></trkpt><trkpt lat="34.97358905" lon="32.81767731"><ele>940.3</ele><time>2015-04-28T08:30:30.0000000+00:00</time></trkpt><trkpt lat="34.97357505" lon="32.8176768"><ele>940.3</ele><time>2015-04-28T08:30:31.0000000+00:00</time></trkpt><trkpt lat="34.97356189" lon="32.81767831"><ele>940.3</ele><time>2015-04-28T08:30:32.0000000+00:00</time></trkpt><trkpt lat="34.97341043" lon="32.81765467"><ele>941.3</ele><time>2015-04-28T08:30:45.0000000+00:00</time></trkpt><trkpt lat="34.97327783" lon="32.81765266"><ele>941.8</ele><time>2015-04-28T08:30:59.0000000+00:00</time></trkpt><trkpt lat="34.97311355" lon="32.81757245"><ele>941.3</ele><time>2015-04-28T08:31:06.0000000+00:00</time></trkpt><trkpt lat="34.9730822" lon="32.81753138"><ele>941.8</ele><time>2015-04-28T08:31:07.0000000+00:00</time></trkpt><trkpt lat="34.9730532" lon="32.81748125"><ele>941.8</ele><time>2015-04-28T08:31:08.0000000+00:00</time></trkpt><trkpt lat="34.97303182" lon="32.8174204"><ele>941.8</ele><time>2015-04-28T08:31:09.0000000+00:00</time></trkpt><trkpt lat="34.97302252" lon="32.81735418"><ele>941.8</ele><time>2015-04-28T08:31:10.0000000+00:00</time></trkpt><trkpt lat="34.97302369" lon="32.81729015"><ele>942.2</ele><time>2015-04-28T08:31:11.0000000+00:00</time></trkpt><trkpt lat="34.97303467" lon="32.81723415"><ele>943.7</ele><time>2015-04-28T08:31:12.0000000+00:00</time></trkpt><trkpt lat="34.97305295" lon="32.81718948"><ele>944.2</ele><time>2015-04-28T08:31:13.0000000+00:00</time></trkpt><trkpt lat="34.9730713" lon="32.8171557"><ele>944.6</ele><time>2015-04-28T08:31:14.0000000+00:00</time></trkpt><trkpt lat="34.97308765" lon="32.8171324"><ele>945.1</ele><time>2015-04-28T08:31:15.0000000+00:00</time></trkpt><trkpt lat="34.97309804" lon="32.81711865"><ele>945.1</ele><time>2015-04-28T08:31:16.0000000+00:00</time></trkpt><trkpt lat="34.97310315" lon="32.81710784"><ele>945.6</ele><time>2015-04-28T08:31:17.0000000+00:00</time></trkpt><trkpt lat="34.97311195" lon="32.81709862"><ele>945.6</ele><time>2015-04-28T08:31:18.0000000+00:00</time></trkpt><trkpt lat="34.97314841" lon="32.81708328"><ele>946.1</ele><time>2015-04-28T08:31:22.0000000+00:00</time></trkpt><trkpt lat="34.97315311" lon="32.81706953"><ele>946.1</ele><time>2015-04-28T08:31:23.0000000+00:00</time></trkpt><trkpt lat="34.9731573" lon="32.81705436"><ele>946.1</ele><time>2015-04-28T08:31:24.0000000+00:00</time></trkpt><trkpt lat="34.97316392" lon="32.81704062"><ele>946.6</ele><time>2015-04-28T08:31:25.0000000+00:00</time></trkpt><trkpt lat="34.97317138" lon="32.81702796"><ele>947.0</ele><time>2015-04-28T08:31:26.0000000+00:00</time></trkpt><trkpt lat="34.97321388" lon="32.81700525"><ele>947.5</ele><time>2015-04-28T08:31:31.0000000+00:00</time></trkpt><trkpt lat="34.97323634" lon="32.81697624"><ele>948.0</ele><time>2015-04-28T08:31:34.0000000+00:00</time></trkpt><trkpt lat="34.97324363" lon="32.81696342"><ele>948.0</ele><time>2015-04-28T08:31:35.0000000+00:00</time></trkpt><trkpt lat="34.97325277" lon="32.81695227"><ele>948.5</ele><time>2015-04-28T08:31:36.0000000+00:00</time></trkpt><trkpt lat="34.97326409" lon="32.8169459"><ele>948.5</ele><time>2015-04-28T08:31:37.0000000+00:00</time></trkpt><trkpt lat="34.97327515" lon="32.81694246"><ele>948.5</ele><time>2015-04-28T08:31:38.0000000+00:00</time></trkpt><trkpt lat="34.97344572" lon="32.81686409"><ele>951.4</ele><time>2015-04-28T08:31:54.0000000+00:00</time></trkpt><trkpt lat="34.97349065" lon="32.8168511"><ele>951.8</ele><time>2015-04-28T08:31:58.0000000+00:00</time></trkpt><trkpt lat="34.9735251" lon="32.81685529"><ele>952.3</ele><time>2015-04-28T08:32:11.0000000+00:00</time></trkpt><trkpt lat="34.9735033" lon="32.81682487"><ele>952.3</ele><time>2015-04-28T08:32:44.0000000+00:00</time></trkpt><trkpt lat="34.97350557" lon="32.81681732"><ele>952.3</ele><time>2015-04-28T08:32:52.0000000+00:00</time></trkpt><trkpt lat="34.97353222" lon="32.81677131"><ele>952.8</ele><time>2015-04-28T08:33:03.0000000+00:00</time></trkpt><trkpt lat="34.97351026" lon="32.8167941"><ele>952.3</ele><time>2015-04-28T08:33:16.0000000+00:00</time></trkpt><trkpt lat="34.97350976" lon="32.81678539"><ele>952.3</ele><time>2015-04-28T08:33:35.0000000+00:00</time></trkpt><trkpt lat="34.97349911" lon="32.81677424"><ele>952.3</ele><time>2015-04-28T08:34:01.0000000+00:00</time></trkpt><trkpt lat="34.97348872" lon="32.81681389"><ele>951.8</ele><time>2015-04-28T08:34:20.0000000+00:00</time></trkpt><trkpt lat="34.97348813" lon="32.81683434"><ele>951.8</ele><time>2015-04-28T08:34:53.0000000+00:00</time></trkpt><trkpt lat="34.97347808" lon="32.816819"><ele>951.8</ele><time>2015-04-28T08:35:07.0000000+00:00</time></trkpt><trkpt lat="34.97347531" lon="32.81680433"><ele>951.4</ele><time>2015-04-28T08:35:26.0000000+00:00</time></trkpt><trkpt lat="34.97348579" lon="32.81681657"><ele>951.4</ele><time>2015-04-28T08:35:56.0000000+00:00</time></trkpt><trkpt lat="34.97348939" lon="32.81682906"><ele>951.4</ele><time>2015-04-28T08:36:16.0000000+00:00</time></trkpt><trkpt lat="34.97347531" lon="32.81683124"><ele>951.4</ele><time>2015-04-28T08:36:36.0000000+00:00</time></trkpt><trkpt lat="34.97327037" lon="32.81693023"><ele>948.5</ele><time>2015-04-28T08:36:51.0000000+00:00</time></trkpt><trkpt lat="34.97309888" lon="32.81710893"><ele>945.6</ele><time>2015-04-28T08:36:57.0000000+00:00</time></trkpt><trkpt lat="34.97306862" lon="32.81715436"><ele>944.6</ele><time>2015-04-28T08:36:58.0000000+00:00</time></trkpt><trkpt lat="34.97304448" lon="32.81720918"><ele>944.2</ele><time>2015-04-28T08:36:59.0000000+00:00</time></trkpt><trkpt lat="34.97302973" lon="32.81727606"><ele>943.7</ele><time>2015-04-28T08:37:00.0000000+00:00</time></trkpt><trkpt lat="34.97303182" lon="32.81735167"><ele>942.7</ele><time>2015-04-28T08:37:01.0000000+00:00</time></trkpt><trkpt lat="34.97305236" lon="32.81742912"><ele>941.8</ele><time>2015-04-28T08:37:02.0000000+00:00</time></trkpt><trkpt lat="34.97308974" lon="32.81749894"><ele>941.3</ele><time>2015-04-28T08:37:03.0000000+00:00</time></trkpt><trkpt lat="34.97313852" lon="32.81755493"><ele>941.8</ele><time>2015-04-28T08:37:04.0000000+00:00</time></trkpt><trkpt lat="34.97319208" lon="32.81759282"><ele>941.8</ele><time>2015-04-28T08:37:05.0000000+00:00</time></trkpt><trkpt lat="34.97324841" lon="32.81761218"><ele>941.8</ele><time>2015-04-28T08:37:06.0000000+00:00</time></trkpt><trkpt lat="34.97330516" lon="32.81762416"><ele>941.8</ele><time>2015-04-28T08:37:07.0000000+00:00</time></trkpt><trkpt lat="34.97403187" lon="32.81767739"><ele>938.4</ele><time>2015-04-28T08:37:18.0000000+00:00</time></trkpt><trkpt lat="34.97448617" lon="32.81764009"><ele>935.0</ele><time>2015-04-28T08:37:23.0000000+00:00</time></trkpt><trkpt lat="34.97495681" lon="32.81766146"><ele>932.1</ele><time>2015-04-28T08:37:28.0000000+00:00</time></trkpt><trkpt lat="34.97504348" lon="32.81769575"><ele>931.7</ele><time>2015-04-28T08:37:29.0000000+00:00</time></trkpt><trkpt lat="34.97540097" lon="32.81783598"><ele>929.3</ele><time>2015-04-28T08:37:33.0000000+00:00</time></trkpt><trkpt lat="34.97549853" lon="32.81785442"><ele>928.3</ele><time>2015-04-28T08:37:34.0000000+00:00</time></trkpt><trkpt lat="34.97581" lon="32.81790052"><ele>924.9</ele><time>2015-04-28T08:37:37.0000000+00:00</time></trkpt><trkpt lat="34.97591059" lon="32.81792952"><ele>923.5</ele><time>2015-04-28T08:37:38.0000000+00:00</time></trkpt><trkpt lat="34.97610991" lon="32.8180042"><ele>920.6</ele><time>2015-04-28T08:37:40.0000000+00:00</time></trkpt><trkpt lat="34.97643806" lon="32.81809456"><ele>916.8</ele><time>2015-04-28T08:37:43.0000000+00:00</time></trkpt><trkpt lat="34.97666169" lon="32.81816656"><ele>913.9</ele><time>2015-04-28T08:37:45.0000000+00:00</time></trkpt><trkpt lat="34.97694911" lon="32.81824149"><ele>910.5</ele><time>2015-04-28T08:37:48.0000000+00:00</time></trkpt><trkpt lat="34.97724365" lon="32.8183264"><ele>907.1</ele><time>2015-04-28T08:37:51.0000000+00:00</time></trkpt><trkpt lat="34.97742352" lon="32.81838784"><ele>904.3</ele><time>2015-04-28T08:37:53.0000000+00:00</time></trkpt><trkpt lat="34.97750206" lon="32.81841047"><ele>902.3</ele><time>2015-04-28T08:37:54.0000000+00:00</time></trkpt><trkpt lat="34.97757557" lon="32.81841743"><ele>901.4</ele><time>2015-04-28T08:37:55.0000000+00:00</time></trkpt><trkpt lat="34.97764925" lon="32.81841014"><ele>900.9</ele><time>2015-04-28T08:37:56.0000000+00:00</time></trkpt><trkpt lat="34.97772695" lon="32.81839237"><ele>899.5</ele><time>2015-04-28T08:37:57.0000000+00:00</time></trkpt><trkpt lat="34.9778049" lon="32.81835708"><ele>899.0</ele><time>2015-04-28T08:37:58.0000000+00:00</time></trkpt><trkpt lat="34.97788285" lon="32.81830746"><ele>898.5</ele><time>2015-04-28T08:37:59.0000000+00:00</time></trkpt><trkpt lat="34.97795569" lon="32.81825172"><ele>897.5</ele><time>2015-04-28T08:38:00.0000000+00:00</time></trkpt><trkpt lat="34.97802928" lon="32.81820813"><ele>896.6</ele><time>2015-04-28T08:38:01.0000000+00:00</time></trkpt><trkpt lat="34.97810472" lon="32.81817955"><ele>895.6</ele><time>2015-04-28T08:38:02.0000000+00:00</time></trkpt><trkpt lat="34.97818007" lon="32.81816958"><ele>894.6</ele><time>2015-04-28T08:38:03.0000000+00:00</time></trkpt><trkpt lat="34.97825886" lon="32.81817846"><ele>893.7</ele><time>2015-04-28T08:38:04.0000000+00:00</time></trkpt><trkpt lat="34.97834075" lon="32.81819858"><ele>892.7</ele><time>2015-04-28T08:38:05.0000000+00:00</time></trkpt><trkpt lat="34.97842239" lon="32.81823068"><ele>892.2</ele><time>2015-04-28T08:38:06.0000000+00:00</time></trkpt><trkpt lat="34.97849615" lon="32.81826966"><ele>890.8</ele><time>2015-04-28T08:38:07.0000000+00:00</time></trkpt><trkpt lat="34.97855474" lon="32.81831534"><ele>889.8</ele><time>2015-04-28T08:38:08.0000000+00:00</time></trkpt><trkpt lat="34.97860034" lon="32.81836965"><ele>889.4</ele><time>2015-04-28T08:38:09.0000000+00:00</time></trkpt><trkpt lat="34.97863328" lon="32.81843922"><ele>888.9</ele><time>2015-04-28T08:38:10.0000000+00:00</time></trkpt><trkpt lat="34.97865851" lon="32.81852027"><ele>888.4</ele><time>2015-04-28T08:38:11.0000000+00:00</time></trkpt><trkpt lat="34.97868994" lon="32.81860619"><ele>887.4</ele><time>2015-04-28T08:38:12.0000000+00:00</time></trkpt><trkpt lat="34.97873495" lon="32.8186952"><ele>886.5</ele><time>2015-04-28T08:38:13.0000000+00:00</time></trkpt><trkpt lat="34.97879405" lon="32.81878087"><ele>885.5</ele><time>2015-04-28T08:38:14.0000000+00:00</time></trkpt><trkpt lat="34.97886529" lon="32.81886477"><ele>884.6</ele><time>2015-04-28T08:38:15.0000000+00:00</time></trkpt><trkpt lat="34.97894375" lon="32.81895286"><ele>883.6</ele><time>2015-04-28T08:38:16.0000000+00:00</time></trkpt><trkpt lat="34.97910711" lon="32.81915101"><ele>880.2</ele><time>2015-04-28T08:38:18.0000000+00:00</time></trkpt><trkpt lat="34.97917643" lon="32.8192614"><ele>878.8</ele><time>2015-04-28T08:38:19.0000000+00:00</time></trkpt><trkpt lat="34.97923703" lon="32.81935318"><ele>877.8</ele><time>2015-04-28T08:38:20.0000000+00:00</time></trkpt><trkpt lat="34.97929419" lon="32.81941932"><ele>876.4</ele><time>2015-04-28T08:38:21.0000000+00:00</time></trkpt><trkpt lat="34.9793527" lon="32.81947145"><ele>875.9</ele><time>2015-04-28T08:38:22.0000000+00:00</time></trkpt><trkpt lat="34.97940827" lon="32.8195261"><ele>875.9</ele><time>2015-04-28T08:38:23.0000000+00:00</time></trkpt><trkpt lat="34.97945638" lon="32.81959651"><ele>874.9</ele><time>2015-04-28T08:38:24.0000000+00:00</time></trkpt><trkpt lat="34.97949947" lon="32.81967932"><ele>874.0</ele><time>2015-04-28T08:38:25.0000000+00:00</time></trkpt><trkpt lat="34.97953618" lon="32.81977446"><ele>873.0</ele><time>2015-04-28T08:38:26.0000000+00:00</time></trkpt><trkpt lat="34.97956543" lon="32.81987722"><ele>872.1</ele><time>2015-04-28T08:38:27.0000000+00:00</time></trkpt><trkpt lat="34.97958873" lon="32.81997847"><ele>871.6</ele><time>2015-04-28T08:38:28.0000000+00:00</time></trkpt><trkpt lat="34.97961329" lon="32.82006179"><ele>870.6</ele><time>2015-04-28T08:38:29.0000000+00:00</time></trkpt><trkpt lat="34.97965244" lon="32.82012742"><ele>869.2</ele><time>2015-04-28T08:38:30.0000000+00:00</time></trkpt><trkpt lat="34.97970776" lon="32.82017319"><ele>868.7</ele><time>2015-04-28T08:38:31.0000000+00:00</time></trkpt><trkpt lat="34.97977238" lon="32.82019557"><ele>868.7</ele><time>2015-04-28T08:38:32.0000000+00:00</time></trkpt><trkpt lat="34.97984262" lon="32.82020914"><ele>868.7</ele><time>2015-04-28T08:38:33.0000000+00:00</time></trkpt><trkpt lat="34.97991404" lon="32.82022951"><ele>867.7</ele><time>2015-04-28T08:38:34.0000000+00:00</time></trkpt><trkpt lat="34.97998017" lon="32.82025868"><ele>867.7</ele><time>2015-04-28T08:38:35.0000000+00:00</time></trkpt><trkpt lat="34.98003105" lon="32.82030277"><ele>867.3</ele><time>2015-04-28T08:38:36.0000000+00:00</time></trkpt><trkpt lat="34.98006156" lon="32.82036278"><ele>867.3</ele><time>2015-04-28T08:38:37.0000000+00:00</time></trkpt><trkpt lat="34.98007572" lon="32.82043302"><ele>866.8</ele><time>2015-04-28T08:38:38.0000000+00:00</time></trkpt><trkpt lat="34.98007949" lon="32.82050963"><ele>866.3</ele><time>2015-04-28T08:38:39.0000000+00:00</time></trkpt><trkpt lat="34.98007539" lon="32.8205896"><ele>866.3</ele><time>2015-04-28T08:38:40.0000000+00:00</time></trkpt><trkpt lat="34.98006558" lon="32.82066889"><ele>865.8</ele><time>2015-04-28T08:38:41.0000000+00:00</time></trkpt><trkpt lat="34.98005502" lon="32.8207507"><ele>865.3</ele><time>2015-04-28T08:38:42.0000000+00:00</time></trkpt><trkpt lat="34.98004504" lon="32.82083368"><ele>865.3</ele><time>2015-04-28T08:38:43.0000000+00:00</time></trkpt><trkpt lat="34.98003281" lon="32.82109763"><ele>863.9</ele><time>2015-04-28T08:38:46.0000000+00:00</time></trkpt><trkpt lat="34.98007488" lon="32.82145679"><ele>861.5</ele><time>2015-04-28T08:38:51.0000000+00:00</time></trkpt><trkpt lat="34.98008964" lon="32.82150968"><ele>861.0</ele><time>2015-04-28T08:38:52.0000000+00:00</time></trkpt><trkpt lat="34.98011503" lon="32.8215505"><ele>861.0</ele><time>2015-04-28T08:38:53.0000000+00:00</time></trkpt><trkpt lat="34.98015015" lon="32.82157095"><ele>860.5</ele><time>2015-04-28T08:38:54.0000000+00:00</time></trkpt><trkpt lat="34.98018804" lon="32.82156534"><ele>860.5</ele><time>2015-04-28T08:38:55.0000000+00:00</time></trkpt><trkpt lat="34.9802276" lon="32.82154597"><ele>860.0</ele><time>2015-04-28T08:38:56.0000000+00:00</time></trkpt><trkpt lat="34.98027119" lon="32.82151781"><ele>860.0</ele><time>2015-04-28T08:38:57.0000000+00:00</time></trkpt><trkpt lat="34.98031964" lon="32.82148571"><ele>859.6</ele><time>2015-04-28T08:38:58.0000000+00:00</time></trkpt><trkpt lat="34.9803716" lon="32.82145444"><ele>859.1</ele><time>2015-04-28T08:38:59.0000000+00:00</time></trkpt><trkpt lat="34.98047076" lon="32.82140817"><ele>858.1</ele><time>2015-04-28T08:39:01.0000000+00:00</time></trkpt><trkpt lat="34.98052021" lon="32.82140038"><ele>857.6</ele><time>2015-04-28T08:39:02.0000000+00:00</time></trkpt><trkpt lat="34.98057771" lon="32.82141128"><ele>857.2</ele><time>2015-04-28T08:39:03.0000000+00:00</time></trkpt><trkpt lat="34.98063555" lon="32.82144145"><ele>856.7</ele><time>2015-04-28T08:39:04.0000000+00:00</time></trkpt><trkpt lat="34.98069523" lon="32.82148747"><ele>856.2</ele><time>2015-04-28T08:39:05.0000000+00:00</time></trkpt><trkpt lat="34.98075256" lon="32.82153533"><ele>855.2</ele><time>2015-04-28T08:39:06.0000000+00:00</time></trkpt><trkpt lat="34.98092079" lon="32.82166944"><ele>852.4</ele><time>2015-04-28T08:39:09.0000000+00:00</time></trkpt><trkpt lat="34.98096379" lon="32.82171805"><ele>851.9</ele><time>2015-04-28T08:39:10.0000000+00:00</time></trkpt><trkpt lat="34.98099287" lon="32.82177228"><ele>851.9</ele><time>2015-04-28T08:39:11.0000000+00:00</time></trkpt><trkpt lat="34.98101064" lon="32.82182911"><ele>851.4</ele><time>2015-04-28T08:39:12.0000000+00:00</time></trkpt><trkpt lat="34.98102321" lon="32.82188485"><ele>850.4</ele><time>2015-04-28T08:39:13.0000000+00:00</time></trkpt><trkpt lat="34.98103025" lon="32.82194244"><ele>849.9</ele><time>2015-04-28T08:39:14.0000000+00:00</time></trkpt><trkpt lat="34.98103327" lon="32.8220017"><ele>849.5</ele><time>2015-04-28T08:39:15.0000000+00:00</time></trkpt><trkpt lat="34.98103453" lon="32.82205895"><ele>849.0</ele><time>2015-04-28T08:39:16.0000000+00:00</time></trkpt><trkpt lat="34.98104584" lon="32.82218509"><ele>848.0</ele><time>2015-04-28T08:39:24.0000000+00:00</time></trkpt><trkpt lat="34.98104853" lon="32.82218358"><ele>848.0</ele><time>2015-04-28T08:39:46.0000000+00:00</time></trkpt><trkpt lat="34.98106286" lon="32.822183"><ele>848.0</ele><time>2015-04-28T08:40:10.0000000+00:00</time></trkpt><trkpt lat="34.98108432" lon="32.82219834"><ele>848.0</ele><time>2015-04-28T08:40:36.0000000+00:00</time></trkpt><trkpt lat="34.98107786" lon="32.82222063"><ele>848.0</ele><time>2015-04-28T08:40:50.0000000+00:00</time></trkpt><trkpt lat="34.9810849" lon="32.82222952"><ele>848.0</ele><time>2015-04-28T08:40:51.0000000+00:00</time></trkpt><trkpt lat="34.98109295" lon="32.82223916"><ele>848.0</ele><time>2015-04-28T08:40:52.0000000+00:00</time></trkpt><trkpt lat="34.98110351" lon="32.82224343"><ele>848.0</ele><time>2015-04-28T08:40:53.0000000+00:00</time></trkpt><trkpt lat="34.98111399" lon="32.82224804"><ele>848.0</ele><time>2015-04-28T08:40:54.0000000+00:00</time></trkpt><trkpt lat="34.9811238" lon="32.82225483"><ele>848.0</ele><time>2015-04-28T08:40:55.0000000+00:00</time></trkpt><trkpt lat="34.9811305" lon="32.82226372"><ele>848.0</ele><time>2015-04-28T08:40:56.0000000+00:00</time></trkpt><trkpt lat="34.98113939" lon="32.82227394"><ele>848.0</ele><time>2015-04-28T08:40:57.0000000+00:00</time></trkpt><trkpt lat="34.98115011" lon="32.82228232"><ele>848.5</ele><time>2015-04-28T08:40:58.0000000+00:00</time></trkpt><trkpt lat="34.98116093" lon="32.82229305"><ele>848.5</ele><time>2015-04-28T08:40:59.0000000+00:00</time></trkpt><trkpt lat="34.98136603" lon="32.82251107"><ele>848.5</ele><time>2015-04-28T08:41:12.0000000+00:00</time></trkpt><trkpt lat="34.98164993" lon="32.82275816"><ele>845.6</ele><time>2015-04-28T08:41:24.0000000+00:00</time></trkpt><trkpt lat="34.98173777" lon="32.8228331"><ele>844.2</ele><time>2015-04-28T08:41:26.0000000+00:00</time></trkpt><trkpt lat="34.98179485" lon="32.82287895"><ele>843.2</ele><time>2015-04-28T08:41:27.0000000+00:00</time></trkpt><trkpt lat="34.98200172" lon="32.82304533"><ele>839.9</ele><time>2015-04-28T08:41:30.0000000+00:00</time></trkpt><trkpt lat="34.9820873" lon="32.82308984"><ele>838.4</ele><time>2015-04-28T08:41:31.0000000+00:00</time></trkpt><trkpt lat="34.98233666" lon="32.82318346"><ele>835.5</ele><time>2015-04-28T08:41:34.0000000+00:00</time></trkpt><trkpt lat="34.98239919" lon="32.82321791"><ele>835.0</ele><time>2015-04-28T08:41:35.0000000+00:00</time></trkpt><trkpt lat="34.98244847" lon="32.82326401"><ele>834.6</ele><time>2015-04-28T08:41:36.0000000+00:00</time></trkpt><trkpt lat="34.98248745" lon="32.82331288"><ele>834.1</ele><time>2015-04-28T08:41:37.0000000+00:00</time></trkpt><trkpt lat="34.98261024" lon="32.82349317"><ele>834.1</ele><time>2015-04-28T08:41:41.0000000+00:00</time></trkpt><trkpt lat="34.98286346" lon="32.82363508"><ele>832.2</ele><time>2015-04-28T08:41:50.0000000+00:00</time></trkpt><trkpt lat="34.98298491" lon="32.82362795"><ele>831.7</ele><time>2015-04-28T08:41:53.0000000+00:00</time></trkpt><trkpt lat="34.98303764" lon="32.82363642"><ele>830.7</ele><time>2015-04-28T08:41:54.0000000+00:00</time></trkpt><trkpt lat="34.98308969" lon="32.82365184"><ele>830.7</ele><time>2015-04-28T08:41:55.0000000+00:00</time></trkpt><trkpt lat="34.98328054" lon="32.8237878"><ele>828.8</ele><time>2015-04-28T08:42:01.0000000+00:00</time></trkpt><trkpt lat="34.98328557" lon="32.82380448"><ele>828.8</ele><time>2015-04-28T08:42:02.0000000+00:00</time></trkpt><trkpt lat="34.98329094" lon="32.82382049"><ele>828.8</ele><time>2015-04-28T08:42:12.0000000+00:00</time></trkpt><trkpt lat="34.98327979" lon="32.82383155"><ele>828.8</ele><time>2015-04-28T08:42:27.0000000+00:00</time></trkpt><trkpt lat="34.98327359" lon="32.82384831"><ele>828.3</ele><time>2015-04-28T08:42:40.0000000+00:00</time></trkpt><trkpt lat="34.98326973" lon="32.82387564"><ele>828.8</ele><time>2015-04-28T08:42:42.0000000+00:00</time></trkpt><trkpt lat="34.98326931" lon="32.82389886"><ele>828.8</ele><time>2015-04-28T08:42:43.0000000+00:00</time></trkpt><trkpt lat="34.98326814" lon="32.82392534"><ele>828.8</ele><time>2015-04-28T08:42:44.0000000+00:00</time></trkpt><trkpt lat="34.98322003" lon="32.82432784"><ele>827.8</ele><time>2015-04-28T08:42:55.0000000+00:00</time></trkpt><trkpt lat="34.98325137" lon="32.82453295"><ele>825.4</ele><time>2015-04-28T08:43:00.0000000+00:00</time></trkpt><trkpt lat="34.9832756" lon="32.82453622"><ele>825.0</ele><time>2015-04-28T08:43:01.0000000+00:00</time></trkpt><trkpt lat="34.98329161" lon="32.82451669"><ele>825.0</ele><time>2015-04-28T08:43:02.0000000+00:00</time></trkpt><trkpt lat="34.98328884" lon="32.82448802"><ele>825.0</ele><time>2015-04-28T08:43:03.0000000+00:00</time></trkpt><trkpt lat="34.98327702" lon="32.82446279"><ele>824.5</ele><time>2015-04-28T08:43:04.0000000+00:00</time></trkpt><trkpt lat="34.9832673" lon="32.82443496"><ele>824.5</ele><time>2015-04-28T08:43:05.0000000+00:00</time></trkpt><trkpt lat="34.98326227" lon="32.82439942"><ele>824.5</ele><time>2015-04-28T08:43:06.0000000+00:00</time></trkpt><trkpt lat="34.98326235" lon="32.82435902"><ele>824.5</ele><time>2015-04-28T08:43:07.0000000+00:00</time></trkpt><trkpt lat="34.9832678" lon="32.82431385"><ele>824.0</ele><time>2015-04-28T08:43:08.0000000+00:00</time></trkpt><trkpt lat="34.98334064" lon="32.82379836"><ele>821.1</ele><time>2015-04-28T08:43:18.0000000+00:00</time></trkpt><trkpt lat="34.98318004" lon="32.82349787"><ele>819.2</ele><time>2015-04-28T08:43:28.0000000+00:00</time></trkpt><trkpt lat="34.98314174" lon="32.82345939"><ele>819.2</ele><time>2015-04-28T08:43:29.0000000+00:00</time></trkpt><trkpt lat="34.98309765" lon="32.82342419"><ele>818.7</ele><time>2015-04-28T08:43:30.0000000+00:00</time></trkpt><trkpt lat="34.9830539" lon="32.82339259"><ele>818.2</ele><time>2015-04-28T08:43:31.0000000+00:00</time></trkpt><trkpt lat="34.98292389" lon="32.82331011"><ele>817.3</ele><time>2015-04-28T08:43:34.0000000+00:00</time></trkpt><trkpt lat="34.98288165" lon="32.82326862"><ele>816.3</ele><time>2015-04-28T08:43:35.0000000+00:00</time></trkpt><trkpt lat="34.98284091" lon="32.82322001"><ele>816.3</ele><time>2015-04-28T08:43:36.0000000+00:00</time></trkpt><trkpt lat="34.98269029" lon="32.82296101"><ele>814.4</ele><time>2015-04-28T08:43:41.0000000+00:00</time></trkpt><trkpt lat="34.98267772" lon="32.82291885"><ele>814.4</ele><time>2015-04-28T08:43:42.0000000+00:00</time></trkpt><trkpt lat="34.98266498" lon="32.82288465"><ele>813.9</ele><time>2015-04-28T08:43:43.0000000+00:00</time></trkpt><trkpt lat="34.98267529" lon="32.82255842"><ele>812.5</ele><time>2015-04-28T08:43:54.0000000+00:00</time></trkpt><trkpt lat="34.98292875" lon="32.82242381"><ele>811.0</ele><time>2015-04-28T08:44:06.0000000+00:00</time></trkpt><trkpt lat="34.98336436" lon="32.8225057"><ele>810.5</ele><time>2015-04-28T08:44:20.0000000+00:00</time></trkpt><trkpt lat="34.98371305" lon="32.82264233"><ele>809.1</ele><time>2015-04-28T08:44:33.0000000+00:00</time></trkpt><trkpt lat="34.98405637" lon="32.82285204"><ele>807.2</ele><time>2015-04-28T08:44:42.0000000+00:00</time></trkpt><trkpt lat="34.98449927" lon="32.82316351"><ele>804.3</ele><time>2015-04-28T08:44:54.0000000+00:00</time></trkpt><trkpt lat="34.98459726" lon="32.82321255"><ele>803.8</ele><time>2015-04-28T08:44:57.0000000+00:00</time></trkpt><trkpt lat="34.9846307" lon="32.82320333"><ele>803.8</ele><time>2015-04-28T08:44:58.0000000+00:00</time></trkpt><trkpt lat="34.98466104" lon="32.8231869"><ele>803.8</ele><time>2015-04-28T08:44:59.0000000+00:00</time></trkpt><trkpt lat="34.98468988" lon="32.82316209"><ele>803.8</ele><time>2015-04-28T08:45:00.0000000+00:00</time></trkpt><trkpt lat="34.98472064" lon="32.82313501"><ele>803.8</ele><time>2015-04-28T08:45:01.0000000+00:00</time></trkpt><trkpt lat="34.98475299" lon="32.82310761"><ele>803.8</ele><time>2015-04-28T08:45:02.0000000+00:00</time></trkpt><trkpt lat="34.98478426" lon="32.82307466"><ele>803.3</ele><time>2015-04-28T08:45:03.0000000+00:00</time></trkpt><trkpt lat="34.98488333" lon="32.82298842"><ele>803.3</ele><time>2015-04-28T08:45:06.0000000+00:00</time></trkpt><trkpt lat="34.98492122" lon="32.82297182"><ele>803.3</ele><time>2015-04-28T08:45:07.0000000+00:00</time></trkpt><trkpt lat="34.98496078" lon="32.82296595"><ele>803.3</ele><time>2015-04-28T08:45:08.0000000+00:00</time></trkpt><trkpt lat="34.98500051" lon="32.82297635"><ele>803.3</ele><time>2015-04-28T08:45:09.0000000+00:00</time></trkpt><trkpt lat="34.98503848" lon="32.82300166"><ele>803.3</ele><time>2015-04-28T08:45:10.0000000+00:00</time></trkpt><trkpt lat="34.98507117" lon="32.8230403"><ele>802.8</ele><time>2015-04-28T08:45:11.0000000+00:00</time></trkpt><trkpt lat="34.98509958" lon="32.82308565"><ele>802.8</ele><time>2015-04-28T08:45:12.0000000+00:00</time></trkpt><trkpt lat="34.9856035" lon="32.82381881"><ele>800.0</ele><time>2015-04-28T08:45:26.0000000+00:00</time></trkpt><trkpt lat="34.98587592" lon="32.82412869"><ele>799.0</ele><time>2015-04-28T08:45:33.0000000+00:00</time></trkpt><trkpt lat="34.98590056" lon="32.82416146"><ele>799.0</ele><time>2015-04-28T08:45:34.0000000+00:00</time></trkpt><trkpt lat="34.9859143" lon="32.82419021"><ele>798.5</ele><time>2015-04-28T08:45:35.0000000+00:00</time></trkpt><trkpt lat="34.98592369" lon="32.82421276"><ele>798.5</ele><time>2015-04-28T08:45:36.0000000+00:00</time></trkpt><trkpt lat="34.98593459" lon="32.82423464"><ele>799.0</ele><time>2015-04-28T08:45:37.0000000+00:00</time></trkpt><trkpt lat="34.9859615" lon="32.82439632"><ele>797.1</ele><time>2015-04-28T08:45:46.0000000+00:00</time></trkpt><trkpt lat="34.98596644" lon="32.82440445"><ele>797.1</ele><time>2015-04-28T08:45:47.0000000+00:00</time></trkpt><trkpt lat="34.98596082" lon="32.82440873"><ele>797.1</ele><time>2015-04-28T08:46:02.0000000+00:00</time></trkpt><trkpt lat="34.98593593" lon="32.82443748"><ele>797.1</ele><time>2015-04-28T08:46:23.0000000+00:00</time></trkpt><trkpt lat="34.98593903" lon="32.82445106"><ele>797.1</ele><time>2015-04-28T08:46:32.0000000+00:00</time></trkpt><trkpt lat="34.98597952" lon="32.82452666"><ele>797.1</ele><time>2015-04-28T08:46:43.0000000+00:00</time></trkpt><trkpt lat="34.98601723" lon="32.82456547"><ele>797.1</ele><time>2015-04-28T08:46:56.0000000+00:00</time></trkpt><trkpt lat="34.98603702" lon="32.82458031"><ele>796.6</ele><time>2015-04-28T08:47:13.0000000+00:00</time></trkpt><trkpt lat="34.98607817" lon="32.82458332"><ele>796.6</ele><time>2015-04-28T08:47:53.0000000+00:00</time></trkpt><trkpt lat="34.98605529" lon="32.82458257"><ele>796.6</ele><time>2015-04-28T08:48:22.0000000+00:00</time></trkpt><trkpt lat="34.98606317" lon="32.82459531"><ele>796.6</ele><time>2015-04-28T08:49:00.0000000+00:00</time></trkpt><trkpt lat="34.98609636" lon="32.82457201"><ele>796.6</ele><time>2015-04-28T08:49:41.0000000+00:00</time></trkpt><trkpt lat="34.986106" lon="32.82456589"><ele>796.6</ele><time>2015-04-28T08:50:14.0000000+00:00</time></trkpt><trkpt lat="34.98613399" lon="32.82456203"><ele>796.6</ele><time>2015-04-28T08:50:52.0000000+00:00</time></trkpt><trkpt lat="34.98613064" lon="32.82456438"><ele>797.1</ele><time>2015-04-28T08:51:30.0000000+00:00</time></trkpt><trkpt lat="34.98609879" lon="32.82457301"><ele>797.1</ele><time>2015-04-28T08:52:04.0000000+00:00</time></trkpt><trkpt lat="34.9860708" lon="32.82460285"><ele>797.1</ele><time>2015-04-28T08:52:35.0000000+00:00</time></trkpt><trkpt lat="34.98603618" lon="32.82458232"><ele>797.1</ele><time>2015-04-28T08:53:16.0000000+00:00</time></trkpt><trkpt lat="34.98605638" lon="32.82456899"><ele>797.1</ele><time>2015-04-28T08:53:59.0000000+00:00</time></trkpt><trkpt lat="34.98603852" lon="32.82457704"><ele>796.6</ele><time>2015-04-28T08:54:40.0000000+00:00</time></trkpt><trkpt lat="34.98603576" lon="32.82457922"><ele>796.6</ele><time>2015-04-28T08:55:12.0000000+00:00</time></trkpt><trkpt lat="34.98602704" lon="32.82456522"><ele>796.6</ele><time>2015-04-28T08:55:53.0000000+00:00</time></trkpt><trkpt lat="34.98602411" lon="32.82455893"><ele>796.6</ele><time>2015-04-28T08:56:29.0000000+00:00</time></trkpt><trkpt lat="34.98604246" lon="32.8245425"><ele>796.6</ele><time>2015-04-28T08:57:04.0000000+00:00</time></trkpt><trkpt lat="34.9860594" lon="32.82456061"><ele>796.1</ele><time>2015-04-28T08:57:40.0000000+00:00</time></trkpt><trkpt lat="34.98604624" lon="32.82458198"><ele>796.1</ele><time>2015-04-28T08:58:15.0000000+00:00</time></trkpt><trkpt lat="34.98601933" lon="32.82458475"><ele>796.1</ele><time>2015-04-28T08:58:54.0000000+00:00</time></trkpt><trkpt lat="34.98603718" lon="32.82458374"><ele>796.1</ele><time>2015-04-28T08:59:38.0000000+00:00</time></trkpt><trkpt lat="34.98605059" lon="32.82457301"><ele>796.1</ele><time>2015-04-28T09:00:10.0000000+00:00</time></trkpt><trkpt lat="34.98604791" lon="32.82456405"><ele>796.1</ele><time>2015-04-28T09:00:45.0000000+00:00</time></trkpt><trkpt lat="34.98607256" lon="32.824556"><ele>796.1</ele><time>2015-04-28T09:01:09.0000000+00:00</time></trkpt><trkpt lat="34.98607809" lon="32.82456597"><ele>795.6</ele><time>2015-04-28T09:01:40.0000000+00:00</time></trkpt><trkpt lat="34.98605412" lon="32.82457394"><ele>795.6</ele><time>2015-04-28T09:02:18.0000000+00:00</time></trkpt><trkpt lat="34.98605395" lon="32.82458299"><ele>795.6</ele><time>2015-04-28T09:02:49.0000000+00:00</time></trkpt><trkpt lat="34.98606551" lon="32.82457679"><ele>795.6</ele><time>2015-04-28T09:03:22.0000000+00:00</time></trkpt><trkpt lat="34.98606602" lon="32.82457477"><ele>795.6</ele><time>2015-04-28T09:03:59.0000000+00:00</time></trkpt><trkpt lat="34.98604649" lon="32.82456673"><ele>795.2</ele><time>2015-04-28T09:04:35.0000000+00:00</time></trkpt><trkpt lat="34.98604422" lon="32.82458483"><ele>795.2</ele><time>2015-04-28T09:05:24.0000000+00:00</time></trkpt><trkpt lat="34.98605738" lon="32.82458282"><ele>795.2</ele><time>2015-04-28T09:06:02.0000000+00:00</time></trkpt><trkpt lat="34.98605671" lon="32.82456539"><ele>795.2</ele><time>2015-04-28T09:06:48.0000000+00:00</time></trkpt><trkpt lat="34.98605152" lon="32.82456933"><ele>795.2</ele><time>2015-04-28T09:07:32.0000000+00:00</time></trkpt><trkpt lat="34.98604716" lon="32.82458047"><ele>794.7</ele><time>2015-04-28T09:08:13.0000000+00:00</time></trkpt><trkpt lat="34.98603693" lon="32.82459254"><ele>794.7</ele><time>2015-04-28T09:08:55.0000000+00:00</time></trkpt><trkpt lat="34.98602277" lon="32.8246104"><ele>794.2</ele><time>2015-04-28T09:09:40.0000000+00:00</time></trkpt><trkpt lat="34.98602981" lon="32.82460109"><ele>794.2</ele><time>2015-04-28T09:10:30.0000000+00:00</time></trkpt><trkpt lat="34.98601774" lon="32.82459472"><ele>793.7</ele><time>2015-04-28T09:11:03.0000000+00:00</time></trkpt><trkpt lat="34.98601472" lon="32.82458475"><ele>793.2</ele><time>2015-04-28T09:11:44.0000000+00:00</time></trkpt><trkpt lat="34.98601086" lon="32.82458148"><ele>793.2</ele><time>2015-04-28T09:12:27.0000000+00:00</time></trkpt><trkpt lat="34.98604096" lon="32.82457209"><ele>792.7</ele><time>2015-04-28T09:13:17.0000000+00:00</time></trkpt><trkpt lat="34.98604557" lon="32.82458374"><ele>791.8</ele><time>2015-04-28T09:14:16.0000000+00:00</time></trkpt><trkpt lat="34.98605571" lon="32.82457486"><ele>791.8</ele><time>2015-04-28T09:15:10.0000000+00:00</time></trkpt><trkpt lat="34.98604297" lon="32.82457209"><ele>790.8</ele><time>2015-04-28T09:16:06.0000000+00:00</time></trkpt><trkpt lat="34.98603685" lon="32.8245741"><ele>790.3</ele><time>2015-04-28T09:16:57.0000000+00:00</time></trkpt><trkpt lat="34.9860433" lon="32.82457318"><ele>789.9</ele><time>2015-04-28T09:17:54.0000000+00:00</time></trkpt><trkpt lat="34.98605219" lon="32.82457662"><ele>789.4</ele><time>2015-04-28T09:18:43.0000000+00:00</time></trkpt><trkpt lat="34.98604339" lon="32.8245627"><ele>789.4</ele><time>2015-04-28T09:19:23.0000000+00:00</time></trkpt><trkpt lat="34.98605051" lon="32.82457276"><ele>788.9</ele><time>2015-04-28T09:20:10.0000000+00:00</time></trkpt><trkpt lat="34.98607758" lon="32.82457997"><ele>788.9</ele><time>2015-04-28T09:20:45.0000000+00:00</time></trkpt><trkpt lat="34.98604741" lon="32.82454024"><ele>788.9</ele><time>2015-04-28T09:21:05.0000000+00:00</time></trkpt><trkpt lat="34.98607096" lon="32.82452306"><ele>788.9</ele><time>2015-04-28T09:21:27.0000000+00:00</time></trkpt><trkpt lat="34.98609242" lon="32.82446849"><ele>788.9</ele><time>2015-04-28T09:21:57.0000000+00:00</time></trkpt><trkpt lat="34.98610089" lon="32.82445081"><ele>788.9</ele><time>2015-04-28T09:22:04.0000000+00:00</time></trkpt><trkpt lat="34.98609628" lon="32.82448534"><ele>788.4</ele><time>2015-04-28T09:22:14.0000000+00:00</time></trkpt><trkpt lat="34.98612653" lon="32.82457125"><ele>787.9</ele><time>2015-04-28T09:22:19.0000000+00:00</time></trkpt><trkpt lat="34.98636642" lon="32.82484911"><ele>786.0</ele><time>2015-04-28T09:22:32.0000000+00:00</time></trkpt><trkpt lat="34.98647304" lon="32.82481584"><ele>785.5</ele><time>2015-04-28T09:22:35.0000000+00:00</time></trkpt><trkpt lat="34.98650883" lon="32.82478876"><ele>785.1</ele><time>2015-04-28T09:22:36.0000000+00:00</time></trkpt><trkpt lat="34.98654337" lon="32.82475482"><ele>785.1</ele><time>2015-04-28T09:22:37.0000000+00:00</time></trkpt><trkpt lat="34.98661528" lon="32.82468122"><ele>785.1</ele><time>2015-04-28T09:22:39.0000000+00:00</time></trkpt><trkpt lat="34.98665837" lon="32.82465432"><ele>784.6</ele><time>2015-04-28T09:22:40.0000000+00:00</time></trkpt><trkpt lat="34.98670799" lon="32.82464233"><ele>784.6</ele><time>2015-04-28T09:22:41.0000000+00:00</time></trkpt><trkpt lat="34.98730461" lon="32.82454787"><ele>781.7</ele><time>2015-04-28T09:22:52.0000000+00:00</time></trkpt><trkpt lat="34.98751902" lon="32.82445039"><ele>780.7</ele><time>2015-04-28T09:22:57.0000000+00:00</time></trkpt><trkpt lat="34.9875595" lon="32.82443966"><ele>780.3</ele><time>2015-04-28T09:22:58.0000000+00:00</time></trkpt><trkpt lat="34.98760468" lon="32.82443446"><ele>780.3</ele><time>2015-04-28T09:22:59.0000000+00:00</time></trkpt><trkpt lat="34.98765321" lon="32.82444234"><ele>780.3</ele><time>2015-04-28T09:23:00.0000000+00:00</time></trkpt><trkpt lat="34.98770032" lon="32.8244648"><ele>779.8</ele><time>2015-04-28T09:23:01.0000000+00:00</time></trkpt><trkpt lat="34.98774542" lon="32.8245052"><ele>779.8</ele><time>2015-04-28T09:23:02.0000000+00:00</time></trkpt><trkpt lat="34.98778883" lon="32.82455206"><ele>779.3</ele><time>2015-04-28T09:23:03.0000000+00:00</time></trkpt><trkpt lat="34.98783158" lon="32.82460646"><ele>778.8</ele><time>2015-04-28T09:23:04.0000000+00:00</time></trkpt><trkpt lat="34.98792085" lon="32.82471928"><ele>778.3</ele><time>2015-04-28T09:23:06.0000000+00:00</time></trkpt><trkpt lat="34.98797416" lon="32.82477569"><ele>777.8</ele><time>2015-04-28T09:23:07.0000000+00:00</time></trkpt><trkpt lat="34.98835377" lon="32.82517165"><ele>775.4</ele><time>2015-04-28T09:23:15.0000000+00:00</time></trkpt><trkpt lat="34.98837322" lon="32.82522144"><ele>775.4</ele><time>2015-04-28T09:23:16.0000000+00:00</time></trkpt><trkpt lat="34.98838462" lon="32.82527919"><ele>775.0</ele><time>2015-04-28T09:23:17.0000000+00:00</time></trkpt><trkpt lat="34.98839317" lon="32.82533702"><ele>774.5</ele><time>2015-04-28T09:23:18.0000000+00:00</time></trkpt><trkpt lat="34.98839485" lon="32.82539452"><ele>774.5</ele><time>2015-04-28T09:23:19.0000000+00:00</time></trkpt><trkpt lat="34.98839309" lon="32.82545697"><ele>774.5</ele><time>2015-04-28T09:23:20.0000000+00:00</time></trkpt><trkpt lat="34.98841236" lon="32.82593901"><ele>772.6</ele><time>2015-04-28T09:23:30.0000000+00:00</time></trkpt><trkpt lat="34.98841857" lon="32.82611872"><ele>771.6</ele><time>2015-04-28T09:23:34.0000000+00:00</time></trkpt><trkpt lat="34.98840792" lon="32.8262281"><ele>771.1</ele><time>2015-04-28T09:23:36.0000000+00:00</time></trkpt><trkpt lat="34.98839585" lon="32.8262903"><ele>770.6</ele><time>2015-04-28T09:23:37.0000000+00:00</time></trkpt><trkpt lat="34.9883096" lon="32.82668735"><ele>768.7</ele><time>2015-04-28T09:23:44.0000000+00:00</time></trkpt><trkpt lat="34.98830457" lon="32.82673412"><ele>768.7</ele><time>2015-04-28T09:23:45.0000000+00:00</time></trkpt><trkpt lat="34.98830055" lon="32.82677352"><ele>768.2</ele><time>2015-04-28T09:23:46.0000000+00:00</time></trkpt><trkpt lat="34.98835503" lon="32.82694241"><ele>767.3</ele><time>2015-04-28T09:23:51.0000000+00:00</time></trkpt><trkpt lat="34.98839309" lon="32.82695876"><ele>766.8</ele><time>2015-04-28T09:23:52.0000000+00:00</time></trkpt><trkpt lat="34.98843608" lon="32.82696521"><ele>766.3</ele><time>2015-04-28T09:23:53.0000000+00:00</time></trkpt><trkpt lat="34.98848042" lon="32.82697602"><ele>766.3</ele><time>2015-04-28T09:23:54.0000000+00:00</time></trkpt><trkpt lat="34.98852426" lon="32.8269901"><ele>765.8</ele><time>2015-04-28T09:23:55.0000000+00:00</time></trkpt><trkpt lat="34.988566" lon="32.82700846"><ele>765.8</ele><time>2015-04-28T09:23:56.0000000+00:00</time></trkpt><trkpt lat="34.98860154" lon="32.82703159"><ele>765.4</ele><time>2015-04-28T09:23:57.0000000+00:00</time></trkpt><trkpt lat="34.98862761" lon="32.82705339"><ele>764.9</ele><time>2015-04-28T09:23:58.0000000+00:00</time></trkpt><trkpt lat="34.98885158" lon="32.82731985"><ele>762.9</ele><time>2015-04-28T09:24:10.0000000+00:00</time></trkpt><trkpt lat="34.98895224" lon="32.82744004"><ele>762.0</ele><time>2015-04-28T09:24:13.0000000+00:00</time></trkpt><trkpt lat="34.98899164" lon="32.8274677"><ele>762.0</ele><time>2015-04-28T09:24:14.0000000+00:00</time></trkpt><trkpt lat="34.98903304" lon="32.8274905"><ele>761.0</ele><time>2015-04-28T09:24:15.0000000+00:00</time></trkpt><trkpt lat="34.98912491" lon="32.82752453"><ele>760.5</ele><time>2015-04-28T09:24:17.0000000+00:00</time></trkpt><trkpt lat="34.98922884" lon="32.82753954"><ele>759.6</ele><time>2015-04-28T09:24:19.0000000+00:00</time></trkpt><trkpt lat="34.98927419" lon="32.82753769"><ele>759.1</ele><time>2015-04-28T09:24:20.0000000+00:00</time></trkpt><trkpt lat="34.98931702" lon="32.8275299"><ele>759.1</ele><time>2015-04-28T09:24:21.0000000+00:00</time></trkpt><trkpt lat="34.98935474" lon="32.82751691"><ele>758.6</ele><time>2015-04-28T09:24:22.0000000+00:00</time></trkpt><trkpt lat="34.98938425" lon="32.8275009"><ele>758.1</ele><time>2015-04-28T09:24:23.0000000+00:00</time></trkpt><trkpt lat="34.98941249" lon="32.82748153"><ele>757.7</ele><time>2015-04-28T09:24:24.0000000+00:00</time></trkpt><trkpt lat="34.98950419" lon="32.82738724"><ele>756.7</ele><time>2015-04-28T09:24:27.0000000+00:00</time></trkpt><trkpt lat="34.98958709" lon="32.82729772"><ele>755.7</ele><time>2015-04-28T09:24:31.0000000+00:00</time></trkpt><trkpt lat="34.98960276" lon="32.8272911"><ele>755.7</ele><time>2015-04-28T09:24:32.0000000+00:00</time></trkpt><trkpt lat="34.98962221" lon="32.82729252"><ele>755.3</ele><time>2015-04-28T09:24:33.0000000+00:00</time></trkpt><trkpt lat="34.98964073" lon="32.82729797"><ele>755.3</ele><time>2015-04-28T09:24:34.0000000+00:00</time></trkpt><trkpt lat="34.9896533" lon="32.82729529"><ele>755.3</ele><time>2015-04-28T09:24:35.0000000+00:00</time></trkpt><trkpt lat="34.98967158" lon="32.82727995"><ele>755.3</ele><time>2015-04-28T09:24:47.0000000+00:00</time></trkpt><trkpt lat="34.98966948" lon="32.8272828"><ele>755.3</ele><time>2015-04-28T09:25:06.0000000+00:00</time></trkpt><trkpt lat="34.98966378" lon="32.82730342"><ele>755.3</ele><time>2015-04-28T09:25:33.0000000+00:00</time></trkpt><trkpt lat="34.98966848" lon="32.82729956"><ele>755.3</ele><time>2015-04-28T09:26:02.0000000+00:00</time></trkpt><trkpt lat="34.98967208" lon="32.82729655"><ele>755.3</ele><time>2015-04-28T09:26:34.0000000+00:00</time></trkpt><trkpt lat="34.98967652" lon="32.82728984"><ele>755.3</ele><time>2015-04-28T09:26:49.0000000+00:00</time></trkpt><trkpt lat="34.98968155" lon="32.82727542"><ele>755.3</ele><time>2015-04-28T09:26:50.0000000+00:00</time></trkpt><trkpt lat="34.98968826" lon="32.82725631"><ele>754.8</ele><time>2015-04-28T09:26:51.0000000+00:00</time></trkpt><trkpt lat="34.9896989" lon="32.82723452"><ele>755.3</ele><time>2015-04-28T09:26:52.0000000+00:00</time></trkpt><trkpt lat="34.98971089" lon="32.82720644"><ele>754.8</ele><time>2015-04-28T09:26:53.0000000+00:00</time></trkpt><trkpt lat="34.98972279" lon="32.82717207"><ele>754.8</ele><time>2015-04-28T09:26:54.0000000+00:00</time></trkpt><trkpt lat="34.98973729" lon="32.82713184"><ele>754.8</ele><time>2015-04-28T09:26:55.0000000+00:00</time></trkpt><trkpt lat="34.98974953" lon="32.82708599"><ele>754.8</ele><time>2015-04-28T09:26:56.0000000+00:00</time></trkpt><trkpt lat="34.9897559" lon="32.82703922"><ele>754.3</ele><time>2015-04-28T09:26:57.0000000+00:00</time></trkpt><trkpt lat="34.98975766" lon="32.82699815"><ele>754.3</ele><time>2015-04-28T09:26:58.0000000+00:00</time></trkpt><trkpt lat="34.98975992" lon="32.82696068"><ele>754.3</ele><time>2015-04-28T09:26:59.0000000+00:00</time></trkpt><trkpt lat="34.98976537" lon="32.82692531"><ele>753.8</ele><time>2015-04-28T09:27:00.0000000+00:00</time></trkpt><trkpt lat="34.98977216" lon="32.82689103"><ele>753.3</ele><time>2015-04-28T09:27:01.0000000+00:00</time></trkpt><trkpt lat="34.98981491" lon="32.82674443"><ele>752.9</ele><time>2015-04-28T09:27:10.0000000+00:00</time></trkpt><trkpt lat="34.98983435" lon="32.82671451"><ele>752.9</ele><time>2015-04-28T09:27:23.0000000+00:00</time></trkpt><trkpt lat="34.98984885" lon="32.82672532"><ele>752.9</ele><time>2015-04-28T09:27:49.0000000+00:00</time></trkpt><trkpt lat="34.98986436" lon="32.82670537"><ele>752.9</ele><time>2015-04-28T09:27:55.0000000+00:00</time></trkpt><trkpt lat="34.98987517" lon="32.82669221"><ele>752.9</ele><time>2015-04-28T09:27:56.0000000+00:00</time></trkpt><trkpt lat="34.98988775" lon="32.82667737"><ele>752.4</ele><time>2015-04-28T09:27:57.0000000+00:00</time></trkpt><trkpt lat="34.99018254" lon="32.82649918"><ele>751.4</ele><time>2015-04-28T09:28:10.0000000+00:00</time></trkpt><trkpt lat="34.99046425" lon="32.82645802"><ele>750.0</ele><time>2015-04-28T09:28:22.0000000+00:00</time></trkpt><trkpt lat="34.99047372" lon="32.8264773"><ele>750.0</ele><time>2015-04-28T09:28:23.0000000+00:00</time></trkpt><trkpt lat="34.99047984" lon="32.82650353"><ele>750.0</ele><time>2015-04-28T09:28:24.0000000+00:00</time></trkpt><trkpt lat="34.99048454" lon="32.82653262"><ele>750.0</ele><time>2015-04-28T09:28:25.0000000+00:00</time></trkpt><trkpt lat="34.99048831" lon="32.82656305"><ele>749.5</ele><time>2015-04-28T09:28:26.0000000+00:00</time></trkpt><trkpt lat="34.99049267" lon="32.82695825"><ele>747.6</ele><time>2015-04-28T09:28:36.0000000+00:00</time></trkpt><trkpt lat="34.99051136" lon="32.82705213"><ele>747.1</ele><time>2015-04-28T09:28:38.0000000+00:00</time></trkpt><trkpt lat="34.99051689" lon="32.82710477"><ele>747.1</ele><time>2015-04-28T09:28:39.0000000+00:00</time></trkpt><trkpt lat="34.99051538" lon="32.82715883"><ele>746.6</ele><time>2015-04-28T09:28:40.0000000+00:00</time></trkpt><trkpt lat="34.99053491" lon="32.82756971"><ele>743.7</ele><time>2015-04-28T09:28:49.0000000+00:00</time></trkpt><trkpt lat="34.99055595" lon="32.82758916"><ele>743.2</ele><time>2015-04-28T09:28:50.0000000+00:00</time></trkpt><trkpt lat="34.99092023" lon="32.82781782"><ele>739.9</ele><time>2015-04-28T09:29:02.0000000+00:00</time></trkpt><trkpt lat="34.99111176" lon="32.82797221"><ele>738.0</ele><time>2015-04-28T09:29:15.0000000+00:00</time></trkpt><trkpt lat="34.9911276" lon="32.82798596"><ele>738.0</ele><time>2015-04-28T09:29:26.0000000+00:00</time></trkpt><trkpt lat="34.99117194" lon="32.8280251"><ele>738.0</ele><time>2015-04-28T09:29:32.0000000+00:00</time></trkpt><trkpt lat="34.99119474" lon="32.82803508"><ele>738.0</ele><time>2015-04-28T09:29:33.0000000+00:00</time></trkpt><trkpt lat="34.99122106" lon="32.82804497"><ele>737.5</ele><time>2015-04-28T09:29:34.0000000+00:00</time></trkpt><trkpt lat="34.99124779" lon="32.82805301"><ele>737.5</ele><time>2015-04-28T09:29:35.0000000+00:00</time></trkpt><trkpt lat="34.99127302" lon="32.8280619"><ele>737.5</ele><time>2015-04-28T09:29:36.0000000+00:00</time></trkpt><trkpt lat="34.99135843" lon="32.82810163"><ele>736.5</ele><time>2015-04-28T09:29:40.0000000+00:00</time></trkpt><trkpt lat="34.99137545" lon="32.82811152"><ele>736.0</ele><time>2015-04-28T09:29:41.0000000+00:00</time></trkpt><trkpt lat="34.99139506" lon="32.82812191"><ele>736.5</ele><time>2015-04-28T09:29:42.0000000+00:00</time></trkpt><trkpt lat="34.99141485" lon="32.82813532"><ele>736.5</ele><time>2015-04-28T09:29:43.0000000+00:00</time></trkpt><trkpt lat="34.99143404" lon="32.8281494"><ele>736.0</ele><time>2015-04-28T09:29:44.0000000+00:00</time></trkpt><trkpt lat="34.99145298" lon="32.8281598"><ele>736.0</ele><time>2015-04-28T09:29:45.0000000+00:00</time></trkpt><trkpt lat="34.99147318" lon="32.82817128"><ele>736.0</ele><time>2015-04-28T09:29:46.0000000+00:00</time></trkpt><trkpt lat="34.99149414" lon="32.82818729"><ele>735.6</ele><time>2015-04-28T09:29:47.0000000+00:00</time></trkpt><trkpt lat="34.99158349" lon="32.82827849"><ele>735.1</ele><time>2015-04-28T09:29:52.0000000+00:00</time></trkpt><trkpt lat="34.99157703" lon="32.82834755"><ele>734.6</ele><time>2015-04-28T09:30:04.0000000+00:00</time></trkpt><trkpt lat="34.99159598" lon="32.82832241"><ele>734.6</ele><time>2015-04-28T09:30:24.0000000+00:00</time></trkpt><trkpt lat="34.99161618" lon="32.82831914"><ele>734.6</ele><time>2015-04-28T09:30:36.0000000+00:00</time></trkpt><trkpt lat="34.99162791" lon="32.82832014"><ele>734.6</ele><time>2015-04-28T09:30:37.0000000+00:00</time></trkpt><trkpt lat="34.99170503" lon="32.82833163"><ele>734.6</ele><time>2015-04-28T09:30:45.0000000+00:00</time></trkpt><trkpt lat="34.99196176" lon="32.82849968"><ele>733.1</ele><time>2015-04-28T09:30:59.0000000+00:00</time></trkpt><trkpt lat="34.99221775" lon="32.82847865"><ele>732.2</ele><time>2015-04-28T09:31:06.0000000+00:00</time></trkpt><trkpt lat="34.9924563" lon="32.82836264"><ele>730.3</ele><time>2015-04-28T09:31:17.0000000+00:00</time></trkpt><trkpt lat="34.9924853" lon="32.82834277"><ele>730.3</ele><time>2015-04-28T09:31:31.0000000+00:00</time></trkpt><trkpt lat="34.99250223" lon="32.82834663"><ele>729.8</ele><time>2015-04-28T09:31:39.0000000+00:00</time></trkpt><trkpt lat="34.99247398" lon="32.82839826"><ele>730.3</ele><time>2015-04-28T09:31:44.0000000+00:00</time></trkpt><trkpt lat="34.9924563" lon="32.82840639"><ele>730.7</ele><time>2015-04-28T09:31:45.0000000+00:00</time></trkpt><trkpt lat="34.99213862" lon="32.82852684"><ele>731.7</ele><time>2015-04-28T09:32:00.0000000+00:00</time></trkpt><trkpt lat="34.99181835" lon="32.82849549"><ele>733.1</ele><time>2015-04-28T09:32:16.0000000+00:00</time></trkpt><trkpt lat="34.99159715" lon="32.82831662"><ele>734.6</ele><time>2015-04-28T09:32:30.0000000+00:00</time></trkpt><trkpt lat="34.99158508" lon="32.8283162"><ele>734.6</ele><time>2015-04-28T09:32:31.0000000+00:00</time></trkpt><trkpt lat="34.99137688" lon="32.82823364"><ele>732.2</ele><time>2015-04-28T09:32:39.0000000+00:00</time></trkpt><trkpt lat="34.9913415" lon="32.82822099"><ele>731.7</ele><time>2015-04-28T09:32:41.0000000+00:00</time></trkpt><trkpt lat="34.99130907" lon="32.82823607"><ele>731.7</ele><time>2015-04-28T09:32:52.0000000+00:00</time></trkpt><trkpt lat="34.99134452" lon="32.82826457"><ele>731.2</ele><time>2015-04-28T09:33:01.0000000+00:00</time></trkpt><trkpt lat="34.99147511" lon="32.82837329"><ele>727.9</ele><time>2015-04-28T09:33:07.0000000+00:00</time></trkpt><trkpt lat="34.99154552" lon="32.82841955"><ele>727.4</ele><time>2015-04-28T09:33:11.0000000+00:00</time></trkpt><trkpt lat="34.99154753" lon="32.82840849"><ele>727.4</ele><time>2015-04-28T09:33:13.0000000+00:00</time></trkpt><trkpt lat="34.99153119" lon="32.82839198"><ele>727.4</ele><time>2015-04-28T09:33:15.0000000+00:00</time></trkpt><trkpt lat="34.99151886" lon="32.82838846"><ele>727.4</ele><time>2015-04-28T09:33:16.0000000+00:00</time></trkpt><trkpt lat="34.99136824" lon="32.82837982"><ele>724.0</ele><time>2015-04-28T09:33:27.0000000+00:00</time></trkpt><trkpt lat="34.99134569" lon="32.82840463"><ele>723.1</ele><time>2015-04-28T09:33:30.0000000+00:00</time></trkpt><trkpt lat="34.99134989" lon="32.82841972"><ele>723.1</ele><time>2015-04-28T09:33:31.0000000+00:00</time></trkpt><trkpt lat="34.99135366" lon="32.82843481"><ele>722.6</ele><time>2015-04-28T09:33:32.0000000+00:00</time></trkpt><trkpt lat="34.99135634" lon="32.828482"><ele>721.6</ele><time>2015-04-28T09:33:35.0000000+00:00</time></trkpt><trkpt lat="34.99134184" lon="32.8286255"><ele>719.2</ele><time>2015-04-28T09:33:49.0000000+00:00</time></trkpt><trkpt lat="34.99139573" lon="32.82875894"><ele>715.4</ele><time>2015-04-28T09:33:59.0000000+00:00</time></trkpt><trkpt lat="34.99140604" lon="32.82877587"><ele>715.4</ele><time>2015-04-28T09:34:00.0000000+00:00</time></trkpt><trkpt lat="34.99144552" lon="32.82883152"><ele>713.9</ele><time>2015-04-28T09:34:04.0000000+00:00</time></trkpt><trkpt lat="34.99148022" lon="32.82889464"><ele>712.0</ele><time>2015-04-28T09:34:09.0000000+00:00</time></trkpt><trkpt lat="34.99152792" lon="32.82904878"><ele>708.6</ele><time>2015-04-28T09:34:22.0000000+00:00</time></trkpt><trkpt lat="34.99154393" lon="32.8291088"><ele>707.2</ele><time>2015-04-28T09:34:26.0000000+00:00</time></trkpt><trkpt lat="34.99156295" lon="32.82914693"><ele>705.8</ele><time>2015-04-28T09:34:29.0000000+00:00</time></trkpt><trkpt lat="34.99163127" lon="32.82924249"><ele>703.3</ele><time>2015-04-28T09:34:38.0000000+00:00</time></trkpt><trkpt lat="34.99167494" lon="32.82932958"><ele>700.5</ele><time>2015-04-28T09:34:53.0000000+00:00</time></trkpt><trkpt lat="34.99169145" lon="32.829331"><ele>700.5</ele><time>2015-04-28T09:35:10.0000000+00:00</time></trkpt><trkpt lat="34.99170008" lon="32.82932664"><ele>700.5</ele><time>2015-04-28T09:35:17.0000000+00:00</time></trkpt><trkpt lat="34.99166823" lon="32.82933435"><ele>700.5</ele><time>2015-04-28T09:35:28.0000000+00:00</time></trkpt><trkpt lat="34.99167133" lon="32.82934089"><ele>700.5</ele><time>2015-04-28T09:35:52.0000000+00:00</time></trkpt><trkpt lat="34.99169447" lon="32.82933972"><ele>700.5</ele><time>2015-04-28T09:36:10.0000000+00:00</time></trkpt><trkpt lat="34.99172414" lon="32.82933016"><ele>700.0</ele><time>2015-04-28T09:36:15.0000000+00:00</time></trkpt><trkpt lat="34.99181885" lon="32.82929278"><ele>698.5</ele><time>2015-04-28T09:36:35.0000000+00:00</time></trkpt><trkpt lat="34.99184802" lon="32.82930862"><ele>698.5</ele><time>2015-04-28T09:36:49.0000000+00:00</time></trkpt><trkpt lat="34.99185322" lon="32.82934257"><ele>697.6</ele><time>2015-04-28T09:37:15.0000000+00:00</time></trkpt><trkpt lat="34.99180502" lon="32.82933008"><ele>697.6</ele><time>2015-04-28T09:38:01.0000000+00:00</time></trkpt><trkpt lat="34.99180662" lon="32.82930116"><ele>698.1</ele><time>2015-04-28T09:38:14.0000000+00:00</time></trkpt><trkpt lat="34.99181081" lon="32.82929563"><ele>698.1</ele><time>2015-04-28T09:38:16.0000000+00:00</time></trkpt><trkpt lat="34.9918378" lon="32.82927509"><ele>698.1</ele><time>2015-04-28T09:38:18.0000000+00:00</time></trkpt><trkpt lat="34.99185934" lon="32.82925984"><ele>697.6</ele><time>2015-04-28T09:38:19.0000000+00:00</time></trkpt><trkpt lat="34.99203108" lon="32.82912506"><ele>694.7</ele><time>2015-04-28T09:38:25.0000000+00:00</time></trkpt><trkpt lat="34.99219562" lon="32.82906949"><ele>691.3</ele><time>2015-04-28T09:38:31.0000000+00:00</time></trkpt><trkpt lat="34.99242646" lon="32.82915129"><ele>688.4</ele><time>2015-04-28T09:38:39.0000000+00:00</time></trkpt><trkpt lat="34.99244993" lon="32.82916789"><ele>688.0</ele><time>2015-04-28T09:38:40.0000000+00:00</time></trkpt><trkpt lat="34.99246493" lon="32.82919538"><ele>688.0</ele><time>2015-04-28T09:38:41.0000000+00:00</time></trkpt><trkpt lat="34.99247314" lon="32.82922346"><ele>687.5</ele><time>2015-04-28T09:38:42.0000000+00:00</time></trkpt><trkpt lat="34.99247356" lon="32.8292554"><ele>687.5</ele><time>2015-04-28T09:38:43.0000000+00:00</time></trkpt><trkpt lat="34.99246996" lon="32.82928934"><ele>687.0</ele><time>2015-04-28T09:38:44.0000000+00:00</time></trkpt><trkpt lat="34.9924656" lon="32.82932061"><ele>686.5</ele><time>2015-04-28T09:38:45.0000000+00:00</time></trkpt><trkpt lat="34.99244205" lon="32.82944173"><ele>686.0</ele><time>2015-04-28T09:38:55.0000000+00:00</time></trkpt><trkpt lat="34.9924112" lon="32.8294569"><ele>686.0</ele><time>2015-04-28T09:39:23.0000000+00:00</time></trkpt><trkpt lat="34.99242889" lon="32.82945799"><ele>686.0</ele><time>2015-04-28T09:39:47.0000000+00:00</time></trkpt><trkpt lat="34.99241514" lon="32.82948447"><ele>686.0</ele><time>2015-04-28T09:40:05.0000000+00:00</time></trkpt><trkpt lat="34.99240777" lon="32.82950032"><ele>686.0</ele><time>2015-04-28T09:40:06.0000000+00:00</time></trkpt><trkpt lat="34.99240265" lon="32.82951909"><ele>685.6</ele><time>2015-04-28T09:40:07.0000000+00:00</time></trkpt><trkpt lat="34.99239905" lon="32.82953602"><ele>685.6</ele><time>2015-04-28T09:40:08.0000000+00:00</time></trkpt><trkpt lat="34.99239511" lon="32.82955538"><ele>685.6</ele><time>2015-04-28T09:40:09.0000000+00:00</time></trkpt><trkpt lat="34.99239008" lon="32.82957559"><ele>685.6</ele><time>2015-04-28T09:40:10.0000000+00:00</time></trkpt><trkpt lat="34.99238388" lon="32.82959478"><ele>685.6</ele><time>2015-04-28T09:40:11.0000000+00:00</time></trkpt><trkpt lat="34.99237918" lon="32.82961439"><ele>685.1</ele><time>2015-04-28T09:40:12.0000000+00:00</time></trkpt><trkpt lat="34.99233183" lon="32.8297905"><ele>684.1</ele><time>2015-04-28T09:40:23.0000000+00:00</time></trkpt><trkpt lat="34.99230274" lon="32.82980592"><ele>684.1</ele><time>2015-04-28T09:40:42.0000000+00:00</time></trkpt><trkpt lat="34.99232428" lon="32.82983501"><ele>684.1</ele><time>2015-04-28T09:41:05.0000000+00:00</time></trkpt><trkpt lat="34.99234306" lon="32.82982277"><ele>683.6</ele><time>2015-04-28T09:41:34.0000000+00:00</time></trkpt><trkpt lat="34.99236133" lon="32.82977541"><ele>683.6</ele><time>2015-04-28T09:42:02.0000000+00:00</time></trkpt><trkpt lat="34.99236384" lon="32.82978882"><ele>683.2</ele><time>2015-04-28T09:42:33.0000000+00:00</time></trkpt><trkpt lat="34.99235571" lon="32.82983392"><ele>683.2</ele><time>2015-04-28T09:43:05.0000000+00:00</time></trkpt><trkpt lat="34.99217299" lon="32.82999334"><ele>681.2</ele><time>2015-04-28T09:43:16.0000000+00:00</time></trkpt><trkpt lat="34.99190259" lon="32.83021362"><ele>678.8</ele><time>2015-04-28T09:43:27.0000000+00:00</time></trkpt><trkpt lat="34.99186495" lon="32.83024346"><ele>678.8</ele><time>2015-04-28T09:43:30.0000000+00:00</time></trkpt><trkpt lat="34.99185037" lon="32.83025117"><ele>678.4</ele><time>2015-04-28T09:43:31.0000000+00:00</time></trkpt><trkpt lat="34.99183704" lon="32.83026106"><ele>678.4</ele><time>2015-04-28T09:43:32.0000000+00:00</time></trkpt><trkpt lat="34.99182246" lon="32.83026743"><ele>678.4</ele><time>2015-04-28T09:43:33.0000000+00:00</time></trkpt><trkpt lat="34.9918077" lon="32.83027405"><ele>678.4</ele><time>2015-04-28T09:43:34.0000000+00:00</time></trkpt><trkpt lat="34.99179002" lon="32.8302831"><ele>678.4</ele><time>2015-04-28T09:43:35.0000000+00:00</time></trkpt><trkpt lat="34.99176965" lon="32.83029425"><ele>678.4</ele><time>2015-04-28T09:43:36.0000000+00:00</time></trkpt><trkpt lat="34.99175012" lon="32.8303064"><ele>677.9</ele><time>2015-04-28T09:43:37.0000000+00:00</time></trkpt><trkpt lat="34.9916544" lon="32.83030112"><ele>677.4</ele><time>2015-04-28T09:43:44.0000000+00:00</time></trkpt><trkpt lat="34.99163889" lon="32.83029911"><ele>676.9</ele><time>2015-04-28T09:43:45.0000000+00:00</time></trkpt><trkpt lat="34.99142884" lon="32.83023482"><ele>674.0</ele><time>2015-04-28T09:43:56.0000000+00:00</time></trkpt><trkpt lat="34.99128048" lon="32.8301842"><ele>672.6</ele><time>2015-04-28T09:44:07.0000000+00:00</time></trkpt><trkpt lat="34.99118334" lon="32.8301655"><ele>672.1</ele><time>2015-04-28T09:44:20.0000000+00:00</time></trkpt><trkpt lat="34.99115584" lon="32.83022066"><ele>672.1</ele><time>2015-04-28T09:44:36.0000000+00:00</time></trkpt><trkpt lat="34.99113338" lon="32.83019811"><ele>672.1</ele><time>2015-04-28T09:44:57.0000000+00:00</time></trkpt><trkpt lat="34.99111444" lon="32.8302059"><ele>671.6</ele><time>2015-04-28T09:45:33.0000000+00:00</time></trkpt><trkpt lat="34.99112357" lon="32.83023222"><ele>671.6</ele><time>2015-04-28T09:46:01.0000000+00:00</time></trkpt><trkpt lat="34.99112709" lon="32.83021571"><ele>671.1</ele><time>2015-04-28T09:46:26.0000000+00:00</time></trkpt><trkpt lat="34.99114973" lon="32.83019216"><ele>671.1</ele><time>2015-04-28T09:46:59.0000000+00:00</time></trkpt><trkpt lat="34.99112693" lon="32.83019367"><ele>671.1</ele><time>2015-04-28T09:47:32.0000000+00:00</time></trkpt><trkpt lat="34.99112827" lon="32.83019601"><ele>671.1</ele><time>2015-04-28T09:47:56.0000000+00:00</time></trkpt><trkpt lat="34.99111762" lon="32.83020574"><ele>670.7</ele><time>2015-04-28T09:48:24.0000000+00:00</time></trkpt><trkpt lat="34.99114277" lon="32.83022921"><ele>670.7</ele><time>2015-04-28T09:48:48.0000000+00:00</time></trkpt><trkpt lat="34.9911602" lon="32.83020448"><ele>670.2</ele><time>2015-04-28T09:49:19.0000000+00:00</time></trkpt><trkpt lat="34.99118233" lon="32.83020398"><ele>670.2</ele><time>2015-04-28T09:49:46.0000000+00:00</time></trkpt><trkpt lat="34.99115358" lon="32.8302448"><ele>670.2</ele><time>2015-04-28T09:50:13.0000000+00:00</time></trkpt><trkpt lat="34.99115559" lon="32.83023792"><ele>669.7</ele><time>2015-04-28T09:50:39.0000000+00:00</time></trkpt><trkpt lat="34.99113858" lon="32.83025569"><ele>669.2</ele><time>2015-04-28T09:51:12.0000000+00:00</time></trkpt><trkpt lat="34.99117378" lon="32.83024144"><ele>669.2</ele><time>2015-04-28T09:51:42.0000000+00:00</time></trkpt><trkpt lat="34.99116196" lon="32.83024848"><ele>669.2</ele><time>2015-04-28T09:52:14.0000000+00:00</time></trkpt><trkpt lat="34.99117353" lon="32.8302044"><ele>668.7</ele><time>2015-04-28T09:52:44.0000000+00:00</time></trkpt><trkpt lat="34.99115358" lon="32.83022569"><ele>668.7</ele><time>2015-04-28T09:53:19.0000000+00:00</time></trkpt><trkpt lat="34.99115727" lon="32.830222"><ele>668.7</ele><time>2015-04-28T09:53:44.0000000+00:00</time></trkpt><trkpt lat="34.99114143" lon="32.83022929"><ele>668.3</ele><time>2015-04-28T09:54:21.0000000+00:00</time></trkpt><trkpt lat="34.99114897" lon="32.83024823"><ele>668.7</ele><time>2015-04-28T09:54:43.0000000+00:00</time></trkpt><trkpt lat="34.99117931" lon="32.83024186"><ele>668.3</ele><time>2015-04-28T09:55:04.0000000+00:00</time></trkpt><trkpt lat="34.99117596" lon="32.8302318"><ele>668.3</ele><time>2015-04-28T09:55:37.0000000+00:00</time></trkpt><trkpt lat="34.99113916" lon="32.83020842"><ele>668.3</ele><time>2015-04-28T09:56:09.0000000+00:00</time></trkpt><trkpt lat="34.99114017" lon="32.83019207"><ele>668.3</ele><time>2015-04-28T09:56:36.0000000+00:00</time></trkpt><trkpt lat="34.99115258" lon="32.83017749"><ele>667.8</ele><time>2015-04-28T09:56:57.0000000+00:00</time></trkpt><trkpt lat="34.99116808" lon="32.83017447"><ele>667.8</ele><time>2015-04-28T09:57:31.0000000+00:00</time></trkpt><trkpt lat="34.9911571" lon="32.83018495"><ele>667.8</ele><time>2015-04-28T09:58:04.0000000+00:00</time></trkpt><trkpt lat="34.99117445" lon="32.83015586"><ele>668.3</ele><time>2015-04-28T09:58:16.0000000+00:00</time></trkpt><trkpt lat="34.99118795" lon="32.83017699"><ele>667.8</ele><time>2015-04-28T09:58:26.0000000+00:00</time></trkpt><trkpt lat="34.99119775" lon="32.83018671"><ele>667.8</ele><time>2015-04-28T09:58:27.0000000+00:00</time></trkpt><trkpt lat="34.99120991" lon="32.83019358"><ele>668.3</ele><time>2015-04-28T09:58:28.0000000+00:00</time></trkpt><trkpt lat="34.99132239" lon="32.83022661"><ele>668.7</ele><time>2015-04-28T09:58:35.0000000+00:00</time></trkpt><trkpt lat="34.99133337" lon="32.83023658"><ele>668.7</ele><time>2015-04-28T09:58:36.0000000+00:00</time></trkpt><trkpt lat="34.99134536" lon="32.83024513"><ele>669.2</ele><time>2015-04-28T09:58:37.0000000+00:00</time></trkpt><trkpt lat="34.99151107" lon="32.83030448"><ele>671.1</ele><time>2015-04-28T09:58:51.0000000+00:00</time></trkpt><trkpt lat="34.99159724" lon="32.83031361"><ele>673.1</ele><time>2015-04-28T09:59:01.0000000+00:00</time></trkpt><trkpt lat="34.99160922" lon="32.83031009"><ele>673.1</ele><time>2015-04-28T09:59:02.0000000+00:00</time></trkpt><trkpt lat="34.99162221" lon="32.8303121"><ele>673.1</ele><time>2015-04-28T09:59:03.0000000+00:00</time></trkpt><trkpt lat="34.99167318" lon="32.83032409"><ele>673.1</ele><time>2015-04-28T09:59:09.0000000+00:00</time></trkpt><trkpt lat="34.99168231" lon="32.83031898"><ele>673.1</ele><time>2015-04-28T09:59:10.0000000+00:00</time></trkpt><trkpt lat="34.99169212" lon="32.83031445"><ele>673.5</ele><time>2015-04-28T09:59:11.0000000+00:00</time></trkpt><trkpt lat="34.99170151" lon="32.83030942"><ele>673.1</ele><time>2015-04-28T09:59:12.0000000+00:00</time></trkpt><trkpt lat="34.99171047" lon="32.8303028"><ele>673.5</ele><time>2015-04-28T09:59:13.0000000+00:00</time></trkpt><trkpt lat="34.99172087" lon="32.83029635"><ele>673.5</ele><time>2015-04-28T09:59:14.0000000+00:00</time></trkpt><trkpt lat="34.9917321" lon="32.83029098"><ele>673.5</ele><time>2015-04-28T09:59:15.0000000+00:00</time></trkpt><trkpt lat="34.99174543" lon="32.83028469"><ele>673.5</ele><time>2015-04-28T09:59:16.0000000+00:00</time></trkpt><trkpt lat="34.99183335" lon="32.83023608"><ele>674.0</ele><time>2015-04-28T09:59:23.0000000+00:00</time></trkpt><trkpt lat="34.99198431" lon="32.83009484"><ele>675.5</ele><time>2015-04-28T09:59:39.0000000+00:00</time></trkpt><trkpt lat="34.99212312" lon="32.83000717"><ele>676.4</ele><time>2015-04-28T09:59:52.0000000+00:00</time></trkpt><trkpt lat="34.99213183" lon="32.82999912"><ele>676.9</ele><time>2015-04-28T09:59:53.0000000+00:00</time></trkpt><trkpt lat="34.99214323" lon="32.82999543"><ele>676.9</ele><time>2015-04-28T09:59:54.0000000+00:00</time></trkpt><trkpt lat="34.99221699" lon="32.8299816"><ele>677.4</ele><time>2015-04-28T10:00:00.0000000+00:00</time></trkpt><trkpt lat="34.99223049" lon="32.82998093"><ele>677.9</ele><time>2015-04-28T10:00:01.0000000+00:00</time></trkpt><trkpt lat="34.99224264" lon="32.82998228"><ele>677.9</ele><time>2015-04-28T10:00:02.0000000+00:00</time></trkpt><trkpt lat="34.99231732" lon="32.83000398"><ele>678.4</ele><time>2015-04-28T10:00:08.0000000+00:00</time></trkpt><trkpt lat="34.99234867" lon="32.83002167"><ele>678.4</ele><time>2015-04-28T10:00:11.0000000+00:00</time></trkpt><trkpt lat="34.99235949" lon="32.83003039"><ele>678.4</ele><time>2015-04-28T10:00:12.0000000+00:00</time></trkpt><trkpt lat="34.99237055" lon="32.83003793"><ele>678.4</ele><time>2015-04-28T10:00:13.0000000+00:00</time></trkpt><trkpt lat="34.99253618" lon="32.83015369"><ele>679.3</ele><time>2015-04-28T10:00:28.0000000+00:00</time></trkpt><trkpt lat="34.99271044" lon="32.83027304"><ele>679.3</ele><time>2015-04-28T10:00:42.0000000+00:00</time></trkpt><trkpt lat="34.99295175" lon="32.83043096"><ele>679.3</ele><time>2015-04-28T10:00:56.0000000+00:00</time></trkpt><trkpt lat="34.99301788" lon="32.83047723"><ele>677.9</ele><time>2015-04-28T10:01:07.0000000+00:00</time></trkpt><trkpt lat="34.99305275" lon="32.83045426"><ele>677.9</ele><time>2015-04-28T10:01:14.0000000+00:00</time></trkpt><trkpt lat="34.99304345" lon="32.83044688"><ele>678.4</ele><time>2015-04-28T10:01:15.0000000+00:00</time></trkpt><trkpt lat="34.99300389" lon="32.8304344"><ele>678.4</ele><time>2015-04-28T10:01:18.0000000+00:00</time></trkpt><trkpt lat="34.99281605" lon="32.83032727"><ele>679.8</ele><time>2015-04-28T10:01:30.0000000+00:00</time></trkpt><trkpt lat="34.99277137" lon="32.83031068"><ele>679.8</ele><time>2015-04-28T10:01:34.0000000+00:00</time></trkpt><trkpt lat="34.99275754" lon="32.8303204"><ele>679.8</ele><time>2015-04-28T10:01:37.0000000+00:00</time></trkpt><trkpt lat="34.99286123" lon="32.83051922"><ele>682.2</ele><time>2015-04-28T10:01:50.0000000+00:00</time></trkpt><trkpt lat="34.99283834" lon="32.83062366"><ele>683.2</ele><time>2015-04-28T10:01:59.0000000+00:00</time></trkpt><trkpt lat="34.99282502" lon="32.83065274"><ele>683.6</ele><time>2015-04-28T10:02:02.0000000+00:00</time></trkpt><trkpt lat="34.99281722" lon="32.83071041"><ele>684.6</ele><time>2015-04-28T10:02:07.0000000+00:00</time></trkpt><trkpt lat="34.99275419" lon="32.83077797"><ele>686.0</ele><time>2015-04-28T10:02:16.0000000+00:00</time></trkpt><trkpt lat="34.99273458" lon="32.83078459"><ele>686.0</ele><time>2015-04-28T10:02:18.0000000+00:00</time></trkpt><trkpt lat="34.99263726" lon="32.83099741"><ele>688.4</ele><time>2015-04-28T10:02:34.0000000+00:00</time></trkpt><trkpt lat="34.99254573" lon="32.83119338"><ele>689.9</ele><time>2015-04-28T10:02:48.0000000+00:00</time></trkpt><trkpt lat="34.9925438" lon="32.83121618"><ele>690.4</ele><time>2015-04-28T10:02:50.0000000+00:00</time></trkpt><trkpt lat="34.99256954" lon="32.83118382"><ele>689.9</ele><time>2015-04-28T10:02:56.0000000+00:00</time></trkpt><trkpt lat="34.99249133" lon="32.831416"><ele>692.3</ele><time>2015-04-28T10:03:12.0000000+00:00</time></trkpt><trkpt lat="34.99248312" lon="32.83165623"><ele>694.2</ele><time>2015-04-28T10:03:27.0000000+00:00</time></trkpt><trkpt lat="34.99242403" lon="32.83182914"><ele>696.1</ele><time>2015-04-28T10:03:39.0000000+00:00</time></trkpt><trkpt lat="34.99240215" lon="32.83188354"><ele>696.6</ele><time>2015-04-28T10:03:43.0000000+00:00</time></trkpt><trkpt lat="34.99236192" lon="32.83203458"><ele>698.1</ele><time>2015-04-28T10:03:53.0000000+00:00</time></trkpt><trkpt lat="34.99235747" lon="32.83206627"><ele>698.5</ele><time>2015-04-28T10:03:55.0000000+00:00</time></trkpt><trkpt lat="34.99238472" lon="32.83214338"><ele>699.0</ele><time>2015-04-28T10:04:00.0000000+00:00</time></trkpt><trkpt lat="34.99242956" lon="32.83224958"><ele>700.0</ele><time>2015-04-28T10:04:07.0000000+00:00</time></trkpt><trkpt lat="34.99243886" lon="32.8325401"><ele>701.4</ele><time>2015-04-28T10:04:22.0000000+00:00</time></trkpt><trkpt lat="34.99253081" lon="32.83276792"><ele>702.9</ele><time>2015-04-28T10:04:36.0000000+00:00</time></trkpt><trkpt lat="34.99261689" lon="32.83292583"><ele>703.3</ele><time>2015-04-28T10:04:46.0000000+00:00</time></trkpt><trkpt lat="34.9926303" lon="32.83295232"><ele>703.3</ele><time>2015-04-28T10:04:48.0000000+00:00</time></trkpt><trkpt lat="34.9926583" lon="32.83300018"><ele>703.8</ele><time>2015-04-28T10:04:53.0000000+00:00</time></trkpt><trkpt lat="34.99265411" lon="32.83301401"><ele>703.8</ele><time>2015-04-28T10:04:54.0000000+00:00</time></trkpt><trkpt lat="34.99265193" lon="32.83302558"><ele>703.8</ele><time>2015-04-28T10:04:55.0000000+00:00</time></trkpt><trkpt lat="34.99265386" lon="32.83304008"><ele>704.3</ele><time>2015-04-28T10:04:56.0000000+00:00</time></trkpt><trkpt lat="34.99265989" lon="32.83305206"><ele>704.3</ele><time>2015-04-28T10:04:57.0000000+00:00</time></trkpt><trkpt lat="34.99268948" lon="32.83309707"><ele>704.8</ele><time>2015-04-28T10:05:03.0000000+00:00</time></trkpt><trkpt lat="34.99269141" lon="32.83311107"><ele>705.3</ele><time>2015-04-28T10:05:04.0000000+00:00</time></trkpt><trkpt lat="34.99269887" lon="32.83315617"><ele>704.8</ele><time>2015-04-28T10:05:08.0000000+00:00</time></trkpt><trkpt lat="34.99269568" lon="32.83316581"><ele>704.3</ele><time>2015-04-28T10:05:09.0000000+00:00</time></trkpt><trkpt lat="34.99271831" lon="32.83322037"><ele>703.8</ele><time>2015-04-28T10:05:21.0000000+00:00</time></trkpt><trkpt lat="34.99271161" lon="32.83320981"><ele>703.8</ele><time>2015-04-28T10:05:32.0000000+00:00</time></trkpt><trkpt lat="34.99269686" lon="32.83312406"><ele>703.8</ele><time>2015-04-28T10:05:39.0000000+00:00</time></trkpt><trkpt lat="34.99268579" lon="32.8331037"><ele>703.8</ele><time>2015-04-28T10:05:40.0000000+00:00</time></trkpt><trkpt lat="34.99267414" lon="32.83308257"><ele>703.8</ele><time>2015-04-28T10:05:41.0000000+00:00</time></trkpt><trkpt lat="34.9926609" lon="32.83306212"><ele>704.3</ele><time>2015-04-28T10:05:42.0000000+00:00</time></trkpt><trkpt lat="34.99264816" lon="32.83304058"><ele>703.8</ele><time>2015-04-28T10:05:43.0000000+00:00</time></trkpt><trkpt lat="34.9924832" lon="32.83274495"><ele>702.9</ele><time>2015-04-28T10:05:58.0000000+00:00</time></trkpt><trkpt lat="34.99240693" lon="32.83261428"><ele>701.9</ele><time>2015-04-28T10:06:09.0000000+00:00</time></trkpt><trkpt lat="34.99244775" lon="32.83263079"><ele>701.9</ele><time>2015-04-28T10:06:43.0000000+00:00</time></trkpt><trkpt lat="34.99241665" lon="32.83245502"><ele>700.9</ele><time>2015-04-28T10:06:54.0000000+00:00</time></trkpt><trkpt lat="34.99242151" lon="32.83239869"><ele>700.9</ele><time>2015-04-28T10:06:55.0000000+00:00</time></trkpt><trkpt lat="34.9924174" lon="32.83233365"><ele>700.5</ele><time>2015-04-28T10:06:56.0000000+00:00</time></trkpt><trkpt lat="34.99240651" lon="32.83226752"><ele>700.0</ele><time>2015-04-28T10:06:57.0000000+00:00</time></trkpt><trkpt lat="34.99239067" lon="32.83220155"><ele>700.0</ele><time>2015-04-28T10:06:58.0000000+00:00</time></trkpt><trkpt lat="34.99238086" lon="32.83213349"><ele>699.0</ele><time>2015-04-28T10:06:59.0000000+00:00</time></trkpt><trkpt lat="34.99238337" lon="32.83206057"><ele>698.5</ele><time>2015-04-28T10:07:00.0000000+00:00</time></trkpt><trkpt lat="34.99239855" lon="32.83198228"><ele>697.6</ele><time>2015-04-28T10:07:01.0000000+00:00</time></trkpt><trkpt lat="34.99242662" lon="32.83190483"><ele>697.1</ele><time>2015-04-28T10:07:02.0000000+00:00</time></trkpt><trkpt lat="34.99245898" lon="32.83183124"><ele>696.6</ele><time>2015-04-28T10:07:03.0000000+00:00</time></trkpt><trkpt lat="34.99248429" lon="32.83175614"><ele>695.7</ele><time>2015-04-28T10:07:04.0000000+00:00</time></trkpt><trkpt lat="34.99249695" lon="32.83167257"><ele>695.2</ele><time>2015-04-28T10:07:05.0000000+00:00</time></trkpt><trkpt lat="34.9924993" lon="32.83158045"><ele>694.2</ele><time>2015-04-28T10:07:06.0000000+00:00</time></trkpt><trkpt lat="34.99250374" lon="32.83148767"><ele>693.3</ele><time>2015-04-28T10:07:07.0000000+00:00</time></trkpt><trkpt lat="34.99251639" lon="32.83139337"><ele>692.8</ele><time>2015-04-28T10:07:08.0000000+00:00</time></trkpt><trkpt lat="34.9925397" lon="32.83130075"><ele>691.8</ele><time>2015-04-28T10:07:09.0000000+00:00</time></trkpt><trkpt lat="34.99256845" lon="32.83121643"><ele>690.8</ele><time>2015-04-28T10:07:10.0000000+00:00</time></trkpt><trkpt lat="34.99259954" lon="32.83114292"><ele>689.9</ele><time>2015-04-28T10:07:11.0000000+00:00</time></trkpt><trkpt lat="34.99262863" lon="32.83107745"><ele>688.9</ele><time>2015-04-28T10:07:12.0000000+00:00</time></trkpt><trkpt lat="34.99267171" lon="32.83096966"><ele>688.0</ele><time>2015-04-28T10:07:14.0000000+00:00</time></trkpt><trkpt lat="34.99269971" lon="32.83089238"><ele>686.5</ele><time>2015-04-28T10:07:16.0000000+00:00</time></trkpt><trkpt lat="34.99272418" lon="32.83087553"><ele>686.0</ele><time>2015-04-28T10:07:17.0000000+00:00</time></trkpt><trkpt lat="34.99275017" lon="32.83088014"><ele>686.0</ele><time>2015-04-28T10:07:18.0000000+00:00</time></trkpt><trkpt lat="34.99276592" lon="32.83089582"><ele>685.6</ele><time>2015-04-28T10:07:19.0000000+00:00</time></trkpt><trkpt lat="34.99276777" lon="32.83091736"><ele>686.0</ele><time>2015-04-28T10:07:20.0000000+00:00</time></trkpt><trkpt lat="34.99275947" lon="32.83093832"><ele>685.1</ele><time>2015-04-28T10:07:21.0000000+00:00</time></trkpt><trkpt lat="34.99275059" lon="32.83096019"><ele>685.1</ele><time>2015-04-28T10:07:22.0000000+00:00</time></trkpt><trkpt lat="34.99274296" lon="32.83098559"><ele>685.6</ele><time>2015-04-28T10:07:23.0000000+00:00</time></trkpt><trkpt lat="34.99273441" lon="32.83106664"><ele>685.1</ele><time>2015-04-28T10:07:27.0000000+00:00</time></trkpt><trkpt lat="34.99272804" lon="32.83108341"><ele>685.6</ele><time>2015-04-28T10:07:28.0000000+00:00</time></trkpt><trkpt lat="34.99270901" lon="32.83111802"><ele>684.6</ele><time>2015-04-28T10:07:36.0000000+00:00</time></trkpt><trkpt lat="34.99269652" lon="32.8311249"><ele>684.6</ele><time>2015-04-28T10:07:37.0000000+00:00</time></trkpt><trkpt lat="34.99268252" lon="32.83113495"><ele>684.6</ele><time>2015-04-28T10:07:38.0000000+00:00</time></trkpt><trkpt lat="34.99267104" lon="32.83115281"><ele>684.6</ele><time>2015-04-28T10:07:39.0000000+00:00</time></trkpt><trkpt lat="34.99266425" lon="32.83117561"><ele>684.6</ele><time>2015-04-28T10:07:40.0000000+00:00</time></trkpt><trkpt lat="34.99265922" lon="32.83119782"><ele>684.6</ele><time>2015-04-28T10:07:41.0000000+00:00</time></trkpt><trkpt lat="34.99262335" lon="32.83141558"><ele>683.6</ele><time>2015-04-28T10:07:46.0000000+00:00</time></trkpt><trkpt lat="34.99261731" lon="32.83156629"><ele>682.7</ele><time>2015-04-28T10:07:48.0000000+00:00</time></trkpt><trkpt lat="34.99261614" lon="32.83163804"><ele>682.7</ele><time>2015-04-28T10:07:49.0000000+00:00</time></trkpt><trkpt lat="34.99261564" lon="32.83170165"><ele>683.2</ele><time>2015-04-28T10:07:50.0000000+00:00</time></trkpt><trkpt lat="34.99261572" lon="32.83181422"><ele>683.2</ele><time>2015-04-28T10:07:52.0000000+00:00</time></trkpt><trkpt lat="34.99261455" lon="32.83221697"><ele>684.6</ele><time>2015-04-28T10:08:03.0000000+00:00</time></trkpt><trkpt lat="34.99275746" lon="32.83259257"><ele>684.1</ele><time>2015-04-28T10:08:17.0000000+00:00</time></trkpt><trkpt lat="34.99303909" lon="32.83297059"><ele>684.1</ele><time>2015-04-28T10:08:29.0000000+00:00</time></trkpt><trkpt lat="34.99307572" lon="32.83300236"><ele>683.6</ele><time>2015-04-28T10:08:30.0000000+00:00</time></trkpt><trkpt lat="34.99311117" lon="32.83303681"><ele>683.6</ele><time>2015-04-28T10:08:31.0000000+00:00</time></trkpt><trkpt lat="34.99314965" lon="32.83307671"><ele>683.6</ele><time>2015-04-28T10:08:32.0000000+00:00</time></trkpt><trkpt lat="34.99319558" lon="32.83311308"><ele>683.6</ele><time>2015-04-28T10:08:33.0000000+00:00</time></trkpt><trkpt lat="34.99324881" lon="32.83314175"><ele>683.2</ele><time>2015-04-28T10:08:34.0000000+00:00</time></trkpt><trkpt lat="34.99330823" lon="32.83316044"><ele>682.7</ele><time>2015-04-28T10:08:35.0000000+00:00</time></trkpt><trkpt lat="34.99337118" lon="32.83316153"><ele>682.7</ele><time>2015-04-28T10:08:36.0000000+00:00</time></trkpt><trkpt lat="34.99343086" lon="32.8331415"><ele>682.7</ele><time>2015-04-28T10:08:37.0000000+00:00</time></trkpt><trkpt lat="34.99347621" lon="32.83310026"><ele>683.6</ele><time>2015-04-28T10:08:38.0000000+00:00</time></trkpt><trkpt lat="34.99349741" lon="32.83304469"><ele>684.1</ele><time>2015-04-28T10:08:39.0000000+00:00</time></trkpt><trkpt lat="34.99350001" lon="32.83298685"><ele>684.1</ele><time>2015-04-28T10:08:40.0000000+00:00</time></trkpt><trkpt lat="34.99349071" lon="32.83293455"><ele>685.1</ele><time>2015-04-28T10:08:41.0000000+00:00</time></trkpt><trkpt lat="34.99347922" lon="32.83289918"><ele>685.1</ele><time>2015-04-28T10:08:42.0000000+00:00</time></trkpt><trkpt lat="34.99326331" lon="32.83256851"><ele>686.5</ele><time>2015-04-28T10:08:53.0000000+00:00</time></trkpt><trkpt lat="34.99323766" lon="32.83210038"><ele>685.1</ele><time>2015-04-28T10:09:05.0000000+00:00</time></trkpt><trkpt lat="34.99326523" lon="32.83172496"><ele>684.6</ele><time>2015-04-28T10:09:14.0000000+00:00</time></trkpt><trkpt lat="34.99328401" lon="32.83166762"><ele>684.6</ele><time>2015-04-28T10:09:18.0000000+00:00</time></trkpt><trkpt lat="34.99346833" lon="32.83142991"><ele>683.6</ele><time>2015-04-28T10:09:34.0000000+00:00</time></trkpt><trkpt lat="34.99353941" lon="32.83138926"><ele>684.1</ele><time>2015-04-28T10:09:38.0000000+00:00</time></trkpt><trkpt lat="34.99355994" lon="32.83138968"><ele>683.6</ele><time>2015-04-28T10:09:39.0000000+00:00</time></trkpt><trkpt lat="34.99358266" lon="32.83138968"><ele>683.6</ele><time>2015-04-28T10:09:40.0000000+00:00</time></trkpt><trkpt lat="34.99360856" lon="32.83139018"><ele>683.6</ele><time>2015-04-28T10:09:41.0000000+00:00</time></trkpt><trkpt lat="34.99363672" lon="32.83139094"><ele>683.6</ele><time>2015-04-28T10:09:42.0000000+00:00</time></trkpt><trkpt lat="34.99395381" lon="32.8312549"><ele>682.7</ele><time>2015-04-28T10:09:53.0000000+00:00</time></trkpt><trkpt lat="34.99405565" lon="32.83107519"><ele>680.8</ele><time>2015-04-28T10:09:57.0000000+00:00</time></trkpt><trkpt lat="34.99408775" lon="32.83104242"><ele>680.3</ele><time>2015-04-28T10:09:58.0000000+00:00</time></trkpt><trkpt lat="34.99412471" lon="32.83102741"><ele>679.8</ele><time>2015-04-28T10:09:59.0000000+00:00</time></trkpt><trkpt lat="34.99415891" lon="32.83103571"><ele>679.3</ele><time>2015-04-28T10:10:00.0000000+00:00</time></trkpt><trkpt lat="34.99418716" lon="32.83105365"><ele>679.3</ele><time>2015-04-28T10:10:01.0000000+00:00</time></trkpt><trkpt lat="34.99420652" lon="32.83106547"><ele>678.8</ele><time>2015-04-28T10:10:02.0000000+00:00</time></trkpt><trkpt lat="34.99437156" lon="32.83117737"><ele>676.9</ele><time>2015-04-28T10:10:10.0000000+00:00</time></trkpt><trkpt lat="34.99441339" lon="32.83118307"><ele>676.4</ele><time>2015-04-28T10:10:11.0000000+00:00</time></trkpt><trkpt lat="34.9946371" lon="32.83116689"><ele>673.5</ele><time>2015-04-28T10:10:17.0000000+00:00</time></trkpt><trkpt lat="34.99470139" lon="32.83111216"><ele>672.1</ele><time>2015-04-28T10:10:19.0000000+00:00</time></trkpt><trkpt lat="34.99472821" lon="32.83106538"><ele>671.6</ele><time>2015-04-28T10:10:20.0000000+00:00</time></trkpt><trkpt lat="34.99474732" lon="32.83101065"><ele>670.7</ele><time>2015-04-28T10:10:21.0000000+00:00</time></trkpt><trkpt lat="34.99475746" lon="32.83094997"><ele>670.2</ele><time>2015-04-28T10:10:22.0000000+00:00</time></trkpt><trkpt lat="34.99476149" lon="32.83088341"><ele>669.7</ele><time>2015-04-28T10:10:23.0000000+00:00</time></trkpt><trkpt lat="34.99476124" lon="32.83081586"><ele>668.7</ele><time>2015-04-28T10:10:24.0000000+00:00</time></trkpt><trkpt lat="34.99475981" lon="32.8307488"><ele>668.3</ele><time>2015-04-28T10:10:25.0000000+00:00</time></trkpt><trkpt lat="34.99476224" lon="32.83061997"><ele>666.8</ele><time>2015-04-28T10:10:27.0000000+00:00</time></trkpt><trkpt lat="34.99477834" lon="32.83056054"><ele>666.3</ele><time>2015-04-28T10:10:28.0000000+00:00</time></trkpt><trkpt lat="34.99480918" lon="32.83050396"><ele>665.4</ele><time>2015-04-28T10:10:29.0000000+00:00</time></trkpt><trkpt lat="34.99485" lon="32.83044965"><ele>665.4</ele><time>2015-04-28T10:10:30.0000000+00:00</time></trkpt><trkpt lat="34.99489719" lon="32.83039567"><ele>664.9</ele><time>2015-04-28T10:10:31.0000000+00:00</time></trkpt><trkpt lat="34.99517446" lon="32.83010197"><ele>662.5</ele><time>2015-04-28T10:10:36.0000000+00:00</time></trkpt><trkpt lat="34.9953587" lon="32.8299179"><ele>660.6</ele><time>2015-04-28T10:10:39.0000000+00:00</time></trkpt><trkpt lat="34.9954281" lon="32.82987524"><ele>660.6</ele><time>2015-04-28T10:10:40.0000000+00:00</time></trkpt><trkpt lat="34.99550262" lon="32.8298485"><ele>660.6</ele><time>2015-04-28T10:10:41.0000000+00:00</time></trkpt><trkpt lat="34.99565399" lon="32.82979016"><ele>659.1</ele><time>2015-04-28T10:10:43.0000000+00:00</time></trkpt><trkpt lat="34.9957213" lon="32.82973643"><ele>658.6</ele><time>2015-04-28T10:10:44.0000000+00:00</time></trkpt><trkpt lat="34.9958482" lon="32.82961641"><ele>657.7</ele><time>2015-04-28T10:10:46.0000000+00:00</time></trkpt><trkpt lat="34.99591643" lon="32.82957299"><ele>657.7</ele><time>2015-04-28T10:10:47.0000000+00:00</time></trkpt><trkpt lat="34.99598776" lon="32.82954776"><ele>657.7</ele><time>2015-04-28T10:10:48.0000000+00:00</time></trkpt><trkpt lat="34.99605783" lon="32.82953896"><ele>657.2</ele><time>2015-04-28T10:10:49.0000000+00:00</time></trkpt><trkpt lat="34.99612799" lon="32.82953745"><ele>657.2</ele><time>2015-04-28T10:10:50.0000000+00:00</time></trkpt><trkpt lat="34.99620049" lon="32.82953032"><ele>657.2</ele><time>2015-04-28T10:10:51.0000000+00:00</time></trkpt><trkpt lat="34.99627492" lon="32.82951054"><ele>656.2</ele><time>2015-04-28T10:10:52.0000000+00:00</time></trkpt><trkpt lat="34.99635061" lon="32.82947492"><ele>655.8</ele><time>2015-04-28T10:10:53.0000000+00:00</time></trkpt><trkpt lat="34.99642689" lon="32.8294263"><ele>655.3</ele><time>2015-04-28T10:10:54.0000000+00:00</time></trkpt><trkpt lat="34.99650333" lon="32.829374"><ele>654.8</ele><time>2015-04-28T10:10:55.0000000+00:00</time></trkpt><trkpt lat="34.99691103" lon="32.82914157"><ele>651.4</ele><time>2015-04-28T10:11:00.0000000+00:00</time></trkpt><trkpt lat="34.99698621" lon="32.82912263"><ele>651.4</ele><time>2015-04-28T10:11:01.0000000+00:00</time></trkpt><trkpt lat="34.99705712" lon="32.82912204"><ele>651.0</ele><time>2015-04-28T10:11:02.0000000+00:00</time></trkpt><trkpt lat="34.99712544" lon="32.82913604"><ele>651.0</ele><time>2015-04-28T10:11:03.0000000+00:00</time></trkpt><trkpt lat="34.99765953" lon="32.82927157"><ele>652.4</ele><time>2015-04-28T10:11:14.0000000+00:00</time></trkpt><trkpt lat="34.99792683" lon="32.82929446"><ele>651.9</ele><time>2015-04-28T10:11:25.0000000+00:00</time></trkpt><trkpt lat="34.99794192" lon="32.82931902"><ele>651.9</ele><time>2015-04-28T10:11:26.0000000+00:00</time></trkpt><trkpt lat="34.99799917" lon="32.82945354"><ele>651.9</ele><time>2015-04-28T10:11:37.0000000+00:00</time></trkpt><trkpt lat="34.99802222" lon="32.82943871"><ele>651.4</ele><time>2015-04-28T10:12:04.0000000+00:00</time></trkpt><trkpt lat="34.99801819" lon="32.8294367"><ele>651.4</ele><time>2015-04-28T10:12:34.0000000+00:00</time></trkpt><trkpt lat="34.99801048" lon="32.82944357"><ele>651.0</ele><time>2015-04-28T10:13:00.0000000+00:00</time></trkpt><trkpt lat="34.99800176" lon="32.82947307"><ele>651.4</ele><time>2015-04-28T10:13:13.0000000+00:00</time></trkpt><trkpt lat="34.99798542" lon="32.82949462"><ele>651.4</ele><time>2015-04-28T10:13:23.0000000+00:00</time></trkpt><trkpt lat="34.9979586" lon="32.82951121"><ele>651.0</ele><time>2015-04-28T10:14:05.0000000+00:00</time></trkpt><trkpt lat="34.99794376" lon="32.82951708"><ele>650.5</ele><time>2015-04-28T10:14:41.0000000+00:00</time></trkpt><trkpt lat="34.99794074" lon="32.82953275"><ele>650.0</ele><time>2015-04-28T10:15:25.0000000+00:00</time></trkpt><trkpt lat="34.99795374" lon="32.82952177"><ele>650.0</ele><time>2015-04-28T10:16:04.0000000+00:00</time></trkpt><trkpt lat="34.99796857" lon="32.82953384"><ele>650.0</ele><time>2015-04-28T10:16:06.0000000+00:00</time></trkpt><trkpt lat="34.99798089" lon="32.82953753"><ele>649.5</ele><time>2015-04-28T10:16:07.0000000+00:00</time></trkpt><trkpt lat="34.99799212" lon="32.82954449"><ele>650.0</ele><time>2015-04-28T10:16:08.0000000+00:00</time></trkpt><trkpt lat="34.99800168" lon="32.82955673"><ele>650.0</ele><time>2015-04-28T10:16:09.0000000+00:00</time></trkpt><trkpt lat="34.99801249" lon="32.82957014"><ele>650.0</ele><time>2015-04-28T10:16:10.0000000+00:00</time></trkpt><trkpt lat="34.9980223" lon="32.82958288"><ele>650.0</ele><time>2015-04-28T10:16:11.0000000+00:00</time></trkpt><trkpt lat="34.99824408" lon="32.8298516"><ele>650.5</ele><time>2015-04-28T10:16:27.0000000+00:00</time></trkpt><trkpt lat="34.99841667" lon="32.83015477"><ele>651.4</ele><time>2015-04-28T10:16:41.0000000+00:00</time></trkpt><trkpt lat="34.99857861" lon="32.83044035"><ele>651.0</ele><time>2015-04-28T10:16:55.0000000+00:00</time></trkpt><trkpt lat="34.99865698" lon="32.83050254"><ele>651.0</ele><time>2015-04-28T10:16:58.0000000+00:00</time></trkpt><trkpt lat="34.99869528" lon="32.83049835"><ele>651.0</ele><time>2015-04-28T10:16:59.0000000+00:00</time></trkpt><trkpt lat="34.99872998" lon="32.83047144"><ele>651.0</ele><time>2015-04-28T10:17:00.0000000+00:00</time></trkpt><trkpt lat="34.9987579" lon="32.83043113"><ele>651.4</ele><time>2015-04-28T10:17:01.0000000+00:00</time></trkpt><trkpt lat="34.99878874" lon="32.83039098"><ele>651.4</ele><time>2015-04-28T10:17:02.0000000+00:00</time></trkpt><trkpt lat="34.99882059" lon="32.8303613"><ele>652.4</ele><time>2015-04-28T10:17:03.0000000+00:00</time></trkpt><trkpt lat="34.998848" lon="32.83033725"><ele>652.9</ele><time>2015-04-28T10:17:04.0000000+00:00</time></trkpt><trkpt lat="34.99888069" lon="32.83030079"><ele>653.8</ele><time>2015-04-28T10:17:06.0000000+00:00</time></trkpt><trkpt lat="34.99892696" lon="32.83024572"><ele>654.8</ele><time>2015-04-28T10:17:10.0000000+00:00</time></trkpt><trkpt lat="34.99893241" lon="32.83023356"><ele>654.8</ele><time>2015-04-28T10:17:11.0000000+00:00</time></trkpt><trkpt lat="34.99893827" lon="32.83021982"><ele>654.8</ele><time>2015-04-28T10:17:12.0000000+00:00</time></trkpt><trkpt lat="34.99894464" lon="32.8302085"><ele>654.8</ele><time>2015-04-28T10:17:13.0000000+00:00</time></trkpt><trkpt lat="34.99896116" lon="32.83016332"><ele>655.3</ele><time>2015-04-28T10:17:17.0000000+00:00</time></trkpt><trkpt lat="34.9989609" lon="32.83008655"><ele>655.8</ele><time>2015-04-28T10:17:24.0000000+00:00</time></trkpt><trkpt lat="34.9989164" lon="32.82994187"><ele>656.2</ele><time>2015-04-28T10:17:34.0000000+00:00</time></trkpt><trkpt lat="34.99890869" lon="32.82992779"><ele>656.7</ele><time>2015-04-28T10:17:35.0000000+00:00</time></trkpt><trkpt lat="34.99875186" lon="32.82968212"><ele>653.4</ele><time>2015-04-28T10:17:45.0000000+00:00</time></trkpt><trkpt lat="34.99874876" lon="32.82963853"><ele>652.9</ele><time>2015-04-28T10:17:46.0000000+00:00</time></trkpt><trkpt lat="34.99876418" lon="32.82954055"><ele>651.4</ele><time>2015-04-28T10:17:48.0000000+00:00</time></trkpt><trkpt lat="34.99879704" lon="32.82948364"><ele>651.0</ele><time>2015-04-28T10:17:49.0000000+00:00</time></trkpt><trkpt lat="34.99884373" lon="32.82943385"><ele>650.5</ele><time>2015-04-28T10:17:50.0000000+00:00</time></trkpt><trkpt lat="34.99889846" lon="32.82938691"><ele>650.0</ele><time>2015-04-28T10:17:51.0000000+00:00</time></trkpt><trkpt lat="34.99895671" lon="32.82933871"><ele>650.0</ele><time>2015-04-28T10:17:52.0000000+00:00</time></trkpt><trkpt lat="34.99907264" lon="32.82925414"><ele>649.5</ele><time>2015-04-28T10:17:54.0000000+00:00</time></trkpt><trkpt lat="34.99912636" lon="32.82923142"><ele>650.5</ele><time>2015-04-28T10:17:55.0000000+00:00</time></trkpt><trkpt lat="34.99916484" lon="32.82921449"><ele>651.4</ele><time>2015-04-28T10:17:56.0000000+00:00</time></trkpt><trkpt lat="34.99919032" lon="32.8292015"><ele>652.4</ele><time>2015-04-28T10:17:57.0000000+00:00</time></trkpt><trkpt lat="34.99920817" lon="32.82919337"><ele>652.9</ele><time>2015-04-28T10:17:58.0000000+00:00</time></trkpt><trkpt lat="34.99922024" lon="32.82918474"><ele>652.9</ele><time>2015-04-28T10:17:59.0000000+00:00</time></trkpt><trkpt lat="34.99922988" lon="32.82917812"><ele>652.9</ele><time>2015-04-28T10:18:00.0000000+00:00</time></trkpt><trkpt lat="34.99924111" lon="32.8291756"><ele>653.4</ele><time>2015-04-28T10:18:01.0000000+00:00</time></trkpt><trkpt lat="34.99937958" lon="32.82914358"><ele>654.3</ele><time>2015-04-28T10:18:11.0000000+00:00</time></trkpt><trkpt lat="34.99939224" lon="32.82914509"><ele>654.3</ele><time>2015-04-28T10:18:12.0000000+00:00</time></trkpt><trkpt lat="34.99964101" lon="32.82922631"><ele>654.3</ele><time>2015-04-28T10:18:26.0000000+00:00</time></trkpt><trkpt lat="34.999711" lon="32.82924316"><ele>653.4</ele><time>2015-04-28T10:18:30.0000000+00:00</time></trkpt><trkpt lat="34.99972366" lon="32.82922966"><ele>653.8</ele><time>2015-04-28T10:18:31.0000000+00:00</time></trkpt><trkpt lat="34.99975995" lon="32.82917409"><ele>652.9</ele><time>2015-04-28T10:18:44.0000000+00:00</time></trkpt><trkpt lat="34.9997654" lon="32.82919421"><ele>652.9</ele><time>2015-04-28T10:18:57.0000000+00:00</time></trkpt><trkpt lat="34.99976724" lon="32.82920728"><ele>653.4</ele><time>2015-04-28T10:18:59.0000000+00:00</time></trkpt><trkpt lat="34.99976867" lon="32.82921944"><ele>653.4</ele><time>2015-04-28T10:19:00.0000000+00:00</time></trkpt><trkpt lat="34.99976951" lon="32.82923679"><ele>652.9</ele><time>2015-04-28T10:19:01.0000000+00:00</time></trkpt><trkpt lat="34.99976574" lon="32.82926093"><ele>652.9</ele><time>2015-04-28T10:19:02.0000000+00:00</time></trkpt><trkpt lat="34.99976196" lon="32.82929127"><ele>652.9</ele><time>2015-04-28T10:19:03.0000000+00:00</time></trkpt><trkpt lat="34.99976004" lon="32.82932404"><ele>652.4</ele><time>2015-04-28T10:19:04.0000000+00:00</time></trkpt><trkpt lat="34.99976096" lon="32.82935841"><ele>651.9</ele><time>2015-04-28T10:19:05.0000000+00:00</time></trkpt><trkpt lat="34.99976448" lon="32.82940107"><ele>651.9</ele><time>2015-04-28T10:19:06.0000000+00:00</time></trkpt><trkpt lat="34.99976615" lon="32.82944952"><ele>651.0</ele><time>2015-04-28T10:19:07.0000000+00:00</time></trkpt><trkpt lat="34.9997949" lon="32.82968396"><ele>647.6</ele><time>2015-04-28T10:19:11.0000000+00:00</time></trkpt><trkpt lat="34.99982324" lon="32.82982193"><ele>644.7</ele><time>2015-04-28T10:19:13.0000000+00:00</time></trkpt><trkpt lat="34.9998493" lon="32.82987608"><ele>644.2</ele><time>2015-04-28T10:19:14.0000000+00:00</time></trkpt><trkpt lat="34.99988006" lon="32.82992662"><ele>643.3</ele><time>2015-04-28T10:19:15.0000000+00:00</time></trkpt><trkpt lat="35.00002096" lon="32.83011865"><ele>639.9</ele><time>2015-04-28T10:19:19.0000000+00:00</time></trkpt><trkpt lat="35.00012322" lon="32.8302334"><ele>637.5</ele><time>2015-04-28T10:19:22.0000000+00:00</time></trkpt><trkpt lat="35.00016136" lon="32.83025511"><ele>637.0</ele><time>2015-04-28T10:19:23.0000000+00:00</time></trkpt><trkpt lat="35.00020034" lon="32.83026466"><ele>636.5</ele><time>2015-04-28T10:19:24.0000000+00:00</time></trkpt><trkpt lat="35.00023688" lon="32.83026525"><ele>636.1</ele><time>2015-04-28T10:19:25.0000000+00:00</time></trkpt><trkpt lat="35.00026865" lon="32.83026014"><ele>635.6</ele><time>2015-04-28T10:19:26.0000000+00:00</time></trkpt><trkpt lat="35.00029254" lon="32.83024915"><ele>635.6</ele><time>2015-04-28T10:19:27.0000000+00:00</time></trkpt><trkpt lat="35.00030704" lon="32.83022736"><ele>635.1</ele><time>2015-04-28T10:19:28.0000000+00:00</time></trkpt><trkpt lat="35.00031383" lon="32.83019895"><ele>635.1</ele><time>2015-04-28T10:19:29.0000000+00:00</time></trkpt><trkpt lat="35.00031626" lon="32.83017053"><ele>634.6</ele><time>2015-04-28T10:19:30.0000000+00:00</time></trkpt><trkpt lat="35.00031643" lon="32.83014212"><ele>634.6</ele><time>2015-04-28T10:19:31.0000000+00:00</time></trkpt><trkpt lat="35.00031207" lon="32.83011144"><ele>634.6</ele><time>2015-04-28T10:19:32.0000000+00:00</time></trkpt><trkpt lat="35.00026706" lon="32.82959134"><ele>632.2</ele><time>2015-04-28T10:19:43.0000000+00:00</time></trkpt><trkpt lat="35.00028323" lon="32.82951892"><ele>631.7</ele><time>2015-04-28T10:19:44.0000000+00:00</time></trkpt><trkpt lat="35.00030729" lon="32.82944106"><ele>631.2</ele><time>2015-04-28T10:19:45.0000000+00:00</time></trkpt><trkpt lat="35.00044215" lon="32.82901341"><ele>628.8</ele><time>2015-04-28T10:19:50.0000000+00:00</time></trkpt><trkpt lat="35.0004994" lon="32.82871518"><ele>627.9</ele><time>2015-04-28T10:19:54.0000000+00:00</time></trkpt><trkpt lat="35.00052229" lon="32.82864846"><ele>627.9</ele><time>2015-04-28T10:19:55.0000000+00:00</time></trkpt><trkpt lat="35.00060527" lon="32.82836448"><ele>625.5</ele><time>2015-04-28T10:19:59.0000000+00:00</time></trkpt><trkpt lat="35.00061683" lon="32.82828812"><ele>625.0</ele><time>2015-04-28T10:20:00.0000000+00:00</time></trkpt><trkpt lat="35.00062429" lon="32.82821185"><ele>624.5</ele><time>2015-04-28T10:20:01.0000000+00:00</time></trkpt><trkpt lat="35.00066008" lon="32.82777825"><ele>622.1</ele><time>2015-04-28T10:20:06.0000000+00:00</time></trkpt><trkpt lat="35.00070157" lon="32.82748355"><ele>619.2</ele><time>2015-04-28T10:20:10.0000000+00:00</time></trkpt><trkpt lat="35.00072437" lon="32.8274201"><ele>618.8</ele><time>2015-04-28T10:20:11.0000000+00:00</time></trkpt><trkpt lat="35.00076067" lon="32.82736385"><ele>618.8</ele><time>2015-04-28T10:20:12.0000000+00:00</time></trkpt><trkpt lat="35.00081104" lon="32.82732211"><ele>618.3</ele><time>2015-04-28T10:20:13.0000000+00:00</time></trkpt><trkpt lat="35.00087231" lon="32.82729353"><ele>617.8</ele><time>2015-04-28T10:20:14.0000000+00:00</time></trkpt><trkpt lat="35.00093878" lon="32.82727366"><ele>617.3</ele><time>2015-04-28T10:20:15.0000000+00:00</time></trkpt><trkpt lat="35.00100659" lon="32.82725522"><ele>616.8</ele><time>2015-04-28T10:20:16.0000000+00:00</time></trkpt><trkpt lat="35.00106594" lon="32.82721943"><ele>616.3</ele><time>2015-04-28T10:20:17.0000000+00:00</time></trkpt><trkpt lat="35.00111178" lon="32.82716629"><ele>616.3</ele><time>2015-04-28T10:20:18.0000000+00:00</time></trkpt><trkpt lat="35.00114984" lon="32.82710066"><ele>615.4</ele><time>2015-04-28T10:20:19.0000000+00:00</time></trkpt><trkpt lat="35.00118705" lon="32.82702933"><ele>615.4</ele><time>2015-04-28T10:20:20.0000000+00:00</time></trkpt><trkpt lat="35.00133265" lon="32.82681257"><ele>613.9</ele><time>2015-04-28T10:20:23.0000000+00:00</time></trkpt><trkpt lat="35.00145393" lon="32.82668374"><ele>612.5</ele><time>2015-04-28T10:20:25.0000000+00:00</time></trkpt><trkpt lat="35.00152535" lon="32.82662541"><ele>611.5</ele><time>2015-04-28T10:20:26.0000000+00:00</time></trkpt><trkpt lat="35.00173833" lon="32.82646565"><ele>608.2</ele><time>2015-04-28T10:20:29.0000000+00:00</time></trkpt><trkpt lat="35.00179801" lon="32.82642776"><ele>607.7</ele><time>2015-04-28T10:20:30.0000000+00:00</time></trkpt><trkpt lat="35.00185132" lon="32.82640236"><ele>606.7</ele><time>2015-04-28T10:20:31.0000000+00:00</time></trkpt><trkpt lat="35.00190002" lon="32.82639499"><ele>606.3</ele><time>2015-04-28T10:20:32.0000000+00:00</time></trkpt><trkpt lat="35.00194553" lon="32.82639826"><ele>605.8</ele><time>2015-04-28T10:20:33.0000000+00:00</time></trkpt><trkpt lat="35.00198979" lon="32.82640873"><ele>605.3</ele><time>2015-04-28T10:20:34.0000000+00:00</time></trkpt><trkpt lat="35.00203254" lon="32.82642625"><ele>604.8</ele><time>2015-04-28T10:20:35.0000000+00:00</time></trkpt><trkpt lat="35.00207176" lon="32.82644922"><ele>604.3</ele><time>2015-04-28T10:20:36.0000000+00:00</time></trkpt><trkpt lat="35.0021099" lon="32.82647051"><ele>603.9</ele><time>2015-04-28T10:20:37.0000000+00:00</time></trkpt><trkpt lat="35.00215215" lon="32.82648484"><ele>602.9</ele><time>2015-04-28T10:20:38.0000000+00:00</time></trkpt><trkpt lat="35.00219557" lon="32.82648685"><ele>602.4</ele><time>2015-04-28T10:20:39.0000000+00:00</time></trkpt><trkpt lat="35.00223756" lon="32.82648065"><ele>602.4</ele><time>2015-04-28T10:20:40.0000000+00:00</time></trkpt><trkpt lat="35.00227897" lon="32.82647311"><ele>602.4</ele><time>2015-04-28T10:20:41.0000000+00:00</time></trkpt><trkpt lat="35.00231995" lon="32.8264711"><ele>602.4</ele><time>2015-04-28T10:20:42.0000000+00:00</time></trkpt><trkpt lat="35.00236077" lon="32.82647923"><ele>601.9</ele><time>2015-04-28T10:20:43.0000000+00:00</time></trkpt><trkpt lat="35.00239849" lon="32.82649557"><ele>601.4</ele><time>2015-04-28T10:20:44.0000000+00:00</time></trkpt><trkpt lat="35.00274927" lon="32.82667637"><ele>601.0</ele><time>2015-04-28T10:20:53.0000000+00:00</time></trkpt><trkpt lat="35.00282798" lon="32.82671484"><ele>600.5</ele><time>2015-04-28T10:20:55.0000000+00:00</time></trkpt><trkpt lat="35.00286687" lon="32.82673613"><ele>600.5</ele><time>2015-04-28T10:20:56.0000000+00:00</time></trkpt><trkpt lat="35.00330818" lon="32.82697409"><ele>599.5</ele><time>2015-04-28T10:21:09.0000000+00:00</time></trkpt><trkpt lat="35.00375183" lon="32.82720141"><ele>598.1</ele><time>2015-04-28T10:21:19.0000000+00:00</time></trkpt><trkpt lat="35.00380414" lon="32.82720946"><ele>598.1</ele><time>2015-04-28T10:21:20.0000000+00:00</time></trkpt><trkpt lat="35.00385351" lon="32.82720862"><ele>598.1</ele><time>2015-04-28T10:21:21.0000000+00:00</time></trkpt><trkpt lat="35.00390086" lon="32.82719814"><ele>598.1</ele><time>2015-04-28T10:21:22.0000000+00:00</time></trkpt><trkpt lat="35.00394487" lon="32.82718046"><ele>598.6</ele><time>2015-04-28T10:21:23.0000000+00:00</time></trkpt><trkpt lat="35.0039856" lon="32.8271595"><ele>598.6</ele><time>2015-04-28T10:21:24.0000000+00:00</time></trkpt><trkpt lat="35.00446212" lon="32.82690545"><ele>599.0</ele><time>2015-04-28T10:21:38.0000000+00:00</time></trkpt><trkpt lat="35.00483293" lon="32.82675616"><ele>599.0</ele><time>2015-04-28T10:21:52.0000000+00:00</time></trkpt><trkpt lat="35.00527566" lon="32.826671"><ele>597.6</ele><time>2015-04-28T10:22:05.0000000+00:00</time></trkpt><trkpt lat="35.00566928" lon="32.82664083"><ele>595.2</ele><time>2015-04-28T10:22:15.0000000+00:00</time></trkpt><trkpt lat="35.00595091" lon="32.82662373"><ele>593.8</ele><time>2015-04-28T10:22:29.0000000+00:00</time></trkpt><trkpt lat="35.00634427" lon="32.82648853"><ele>592.3</ele><time>2015-04-28T10:22:41.0000000+00:00</time></trkpt><trkpt lat="35.00676379" lon="32.82632517"><ele>589.0</ele><time>2015-04-28T10:22:50.0000000+00:00</time></trkpt><trkpt lat="35.00712438" lon="32.82615677"><ele>586.5</ele><time>2015-04-28T10:22:55.0000000+00:00</time></trkpt><trkpt lat="35.0075744" lon="32.82598436"><ele>582.7</ele><time>2015-04-28T10:23:00.0000000+00:00</time></trkpt><trkpt lat="35.00808159" lon="32.82587858"><ele>578.9</ele><time>2015-04-28T10:23:05.0000000+00:00</time></trkpt><trkpt lat="35.00852977" lon="32.82588453"><ele>575.0</ele><time>2015-04-28T10:23:09.0000000+00:00</time></trkpt><trkpt lat="35.00900284" lon="32.82595293"><ele>571.6</ele><time>2015-04-28T10:23:13.0000000+00:00</time></trkpt><trkpt lat="35.00949503" lon="32.82603038"><ele>567.8</ele><time>2015-04-28T10:23:17.0000000+00:00</time></trkpt><trkpt lat="35.01000037" lon="32.82607463"><ele>564.0</ele><time>2015-04-28T10:23:21.0000000+00:00</time></trkpt><trkpt lat="35.0103846" lon="32.82611277"><ele>560.6</ele><time>2015-04-28T10:23:24.0000000+00:00</time></trkpt><trkpt lat="35.01089749" lon="32.82615317"><ele>556.7</ele><time>2015-04-28T10:23:28.0000000+00:00</time></trkpt><trkpt lat="35.01115414" lon="32.82617765"><ele>553.9</ele><time>2015-04-28T10:23:30.0000000+00:00</time></trkpt><trkpt lat="35.01166812" lon="32.8262219"><ele>549.5</ele><time>2015-04-28T10:23:34.0000000+00:00</time></trkpt><trkpt lat="35.01205486" lon="32.82625669"><ele>546.2</ele><time>2015-04-28T10:23:37.0000000+00:00</time></trkpt><trkpt lat="35.0125675" lon="32.82629809"><ele>541.8</ele><time>2015-04-28T10:23:41.0000000+00:00</time></trkpt><trkpt lat="35.01295039" lon="32.82632022"><ele>539.0</ele><time>2015-04-28T10:23:44.0000000+00:00</time></trkpt><trkpt lat="35.01331156" lon="32.82631318"><ele>535.6</ele><time>2015-04-28T10:23:47.0000000+00:00</time></trkpt><trkpt lat="35.01366461" lon="32.82625828"><ele>532.2</ele><time>2015-04-28T10:23:50.0000000+00:00</time></trkpt><trkpt lat="35.01410943" lon="32.82609827"><ele>527.9</ele><time>2015-04-28T10:23:54.0000000+00:00</time></trkpt><trkpt lat="35.01452107" lon="32.82586735"><ele>524.1</ele><time>2015-04-28T10:23:58.0000000+00:00</time></trkpt><trkpt lat="35.01503572" lon="32.82554054"><ele>520.2</ele><time>2015-04-28T10:24:03.0000000+00:00</time></trkpt><trkpt lat="35.0155699" lon="32.82529403"><ele>516.9</ele><time>2015-04-28T10:24:08.0000000+00:00</time></trkpt><trkpt lat="35.015875" lon="32.82522504"><ele>514.9</ele><time>2015-04-28T10:24:11.0000000+00:00</time></trkpt><trkpt lat="35.01614071" lon="32.82521205"><ele>513.5</ele><time>2015-04-28T10:24:14.0000000+00:00</time></trkpt><trkpt lat="35.01687672" lon="32.82529922"><ele>511.1</ele><time>2015-04-28T10:24:23.0000000+00:00</time></trkpt><trkpt lat="35.01695769" lon="32.82531406"><ele>510.6</ele><time>2015-04-28T10:24:24.0000000+00:00</time></trkpt><trkpt lat="35.01711175" lon="32.82533904"><ele>509.6</ele><time>2015-04-28T10:24:26.0000000+00:00</time></trkpt><trkpt lat="35.01751886" lon="32.8254573"><ele>507.2</ele><time>2015-04-28T10:24:35.0000000+00:00</time></trkpt><trkpt lat="35.0177595" lon="32.82554557"><ele>505.8</ele><time>2015-04-28T10:24:48.0000000+00:00</time></trkpt><trkpt lat="35.01778414" lon="32.82556853"><ele>505.3</ele><time>2015-04-28T10:25:01.0000000+00:00</time></trkpt><trkpt lat="35.01784726" lon="32.82556417"><ele>504.8</ele><time>2015-04-28T10:25:26.0000000+00:00</time></trkpt><trkpt lat="35.01787526" lon="32.82557004"><ele>505.3</ele><time>2015-04-28T10:25:38.0000000+00:00</time></trkpt><trkpt lat="35.01791641" lon="32.82556736"><ele>505.8</ele><time>2015-04-28T10:25:51.0000000+00:00</time></trkpt><trkpt lat="35.01800048" lon="32.82558479"><ele>507.2</ele><time>2015-04-28T10:26:03.0000000+00:00</time></trkpt><trkpt lat="35.01812311" lon="32.82562519"><ele>508.7</ele><time>2015-04-28T10:26:16.0000000+00:00</time></trkpt><trkpt lat="35.01814691" lon="32.82562603"><ele>509.2</ele><time>2015-04-28T10:26:19.0000000+00:00</time></trkpt><trkpt lat="35.01829754" lon="32.82564263"><ele>511.6</ele><time>2015-04-28T10:26:34.0000000+00:00</time></trkpt><trkpt lat="35.01836845" lon="32.82564573"><ele>512.5</ele><time>2015-04-28T10:26:41.0000000+00:00</time></trkpt><trkpt lat="35.01838739" lon="32.82564648"><ele>512.5</ele><time>2015-04-28T10:26:43.0000000+00:00</time></trkpt><trkpt lat="35.01840776" lon="32.82565487"><ele>513.0</ele><time>2015-04-28T10:26:45.0000000+00:00</time></trkpt><trkpt lat="35.01857481" lon="32.82567163"><ele>514.9</ele><time>2015-04-28T10:27:01.0000000+00:00</time></trkpt><trkpt lat="35.01862711" lon="32.82568303"><ele>515.9</ele><time>2015-04-28T10:27:06.0000000+00:00</time></trkpt><trkpt lat="35.01863767" lon="32.82568663"><ele>516.4</ele><time>2015-04-28T10:27:07.0000000+00:00</time></trkpt><trkpt lat="35.01864756" lon="32.8256868"><ele>516.4</ele><time>2015-04-28T10:27:08.0000000+00:00</time></trkpt><trkpt lat="35.01865838" lon="32.82568915"><ele>516.9</ele><time>2015-04-28T10:27:09.0000000+00:00</time></trkpt><trkpt lat="35.0186676" lon="32.82569091"><ele>516.9</ele><time>2015-04-28T10:27:10.0000000+00:00</time></trkpt><trkpt lat="35.01867799" lon="32.82568823"><ele>516.9</ele><time>2015-04-28T10:27:11.0000000+00:00</time></trkpt><trkpt lat="35.01868914" lon="32.82568965"><ele>516.9</ele><time>2015-04-28T10:27:12.0000000+00:00</time></trkpt><trkpt lat="35.01870045" lon="32.82569175"><ele>516.9</ele><time>2015-04-28T10:27:13.0000000+00:00</time></trkpt><trkpt lat="35.01871102" lon="32.82569292"><ele>516.9</ele><time>2015-04-28T10:27:14.0000000+00:00</time></trkpt><trkpt lat="35.01872258" lon="32.82568697"><ele>516.9</ele><time>2015-04-28T10:27:15.0000000+00:00</time></trkpt><trkpt lat="35.01874287" lon="32.8256858"><ele>517.3</ele><time>2015-04-28T10:27:17.0000000+00:00</time></trkpt><trkpt lat="35.01875393" lon="32.8256858"><ele>517.3</ele><time>2015-04-28T10:27:18.0000000+00:00</time></trkpt><trkpt lat="35.01876575" lon="32.82568261"><ele>517.8</ele><time>2015-04-28T10:27:19.0000000+00:00</time></trkpt><trkpt lat="35.01877883" lon="32.82568328"><ele>517.8</ele><time>2015-04-28T10:27:20.0000000+00:00</time></trkpt><trkpt lat="35.01879157" lon="32.82568529"><ele>517.8</ele><time>2015-04-28T10:27:21.0000000+00:00</time></trkpt><trkpt lat="35.0189437" lon="32.82570516"><ele>520.2</ele><time>2015-04-28T10:27:36.0000000+00:00</time></trkpt><trkpt lat="35.0191431" lon="32.82574363"><ele>523.1</ele><time>2015-04-28T10:27:54.0000000+00:00</time></trkpt><trkpt lat="35.01931007" lon="32.82574656"><ele>525.5</ele><time>2015-04-28T10:28:10.0000000+00:00</time></trkpt><trkpt lat="35.01947595" lon="32.82576056"><ele>527.4</ele><time>2015-04-28T10:28:25.0000000+00:00</time></trkpt><trkpt lat="35.01963294" lon="32.82575025"><ele>528.9</ele><time>2015-04-28T10:28:39.0000000+00:00</time></trkpt><trkpt lat="35.01985246" lon="32.82573055"><ele>531.3</ele><time>2015-04-28T10:28:58.0000000+00:00</time></trkpt><trkpt lat="35.02004047" lon="32.82575981"><ele>532.7</ele><time>2015-04-28T10:29:14.0000000+00:00</time></trkpt><trkpt lat="35.02024574" lon="32.82581471"><ele>534.2</ele><time>2015-04-28T10:29:28.0000000+00:00</time></trkpt><trkpt lat="35.020477" lon="32.82582527"><ele>536.6</ele><time>2015-04-28T10:29:45.0000000+00:00</time></trkpt><trkpt lat="35.02069652" lon="32.82579702"><ele>539.4</ele><time>2015-04-28T10:30:03.0000000+00:00</time></trkpt><trkpt lat="35.02091403" lon="32.82576433"><ele>542.3</ele><time>2015-04-28T10:30:22.0000000+00:00</time></trkpt><trkpt lat="35.02102182" lon="32.82574506"><ele>543.8</ele><time>2015-04-28T10:30:31.0000000+00:00</time></trkpt><trkpt lat="35.02103356" lon="32.82574715"><ele>543.8</ele><time>2015-04-28T10:30:32.0000000+00:00</time></trkpt><trkpt lat="35.02124025" lon="32.82574589"><ele>546.2</ele><time>2015-04-28T10:30:49.0000000+00:00</time></trkpt><trkpt lat="35.02130697" lon="32.82572863"><ele>546.7</ele><time>2015-04-28T10:30:54.0000000+00:00</time></trkpt><trkpt lat="35.02131888" lon="32.82571991"><ele>546.7</ele><time>2015-04-28T10:30:55.0000000+00:00</time></trkpt><trkpt lat="35.02133103" lon="32.82570926"><ele>547.1</ele><time>2015-04-28T10:30:56.0000000+00:00</time></trkpt><trkpt lat="35.02134369" lon="32.82569803"><ele>547.1</ele><time>2015-04-28T10:30:57.0000000+00:00</time></trkpt><trkpt lat="35.02135576" lon="32.82568856"><ele>547.1</ele><time>2015-04-28T10:30:58.0000000+00:00</time></trkpt><trkpt lat="35.02139046" lon="32.82566861"><ele>547.6</ele><time>2015-04-28T10:31:01.0000000+00:00</time></trkpt><trkpt lat="35.02140144" lon="32.82566417"><ele>548.1</ele><time>2015-04-28T10:31:02.0000000+00:00</time></trkpt><trkpt lat="35.021584" lon="32.82555839"><ele>549.5</ele><time>2015-04-28T10:31:18.0000000+00:00</time></trkpt><trkpt lat="35.02175557" lon="32.82547063"><ele>551.5</ele><time>2015-04-28T10:31:32.0000000+00:00</time></trkpt><trkpt lat="35.02195029" lon="32.82538656"><ele>553.9</ele><time>2015-04-28T10:31:46.0000000+00:00</time></trkpt><trkpt lat="35.02195884" lon="32.8253734"><ele>553.9</ele><time>2015-04-28T10:31:47.0000000+00:00</time></trkpt><trkpt lat="35.02196739" lon="32.82536058"><ele>553.9</ele><time>2015-04-28T10:31:48.0000000+00:00</time></trkpt><trkpt lat="35.02197518" lon="32.82534792"><ele>554.3</ele><time>2015-04-28T10:31:49.0000000+00:00</time></trkpt><trkpt lat="35.02198138" lon="32.82533392"><ele>554.3</ele><time>2015-04-28T10:31:50.0000000+00:00</time></trkpt><trkpt lat="35.021987" lon="32.82532169"><ele>554.3</ele><time>2015-04-28T10:31:51.0000000+00:00</time></trkpt><trkpt lat="35.02199044" lon="32.82530685"><ele>554.3</ele><time>2015-04-28T10:31:52.0000000+00:00</time></trkpt><trkpt lat="35.02199563" lon="32.82527835"><ele>554.8</ele><time>2015-04-28T10:31:54.0000000+00:00</time></trkpt><trkpt lat="35.02199689" lon="32.82526293"><ele>554.8</ele><time>2015-04-28T10:31:55.0000000+00:00</time></trkpt><trkpt lat="35.02199815" lon="32.82524658"><ele>555.3</ele><time>2015-04-28T10:31:56.0000000+00:00</time></trkpt><trkpt lat="35.02199831" lon="32.82523233"><ele>555.3</ele><time>2015-04-28T10:31:57.0000000+00:00</time></trkpt><trkpt lat="35.02199773" lon="32.82521783"><ele>555.3</ele><time>2015-04-28T10:31:58.0000000+00:00</time></trkpt><trkpt lat="35.02199664" lon="32.82520308"><ele>555.3</ele><time>2015-04-28T10:31:59.0000000+00:00</time></trkpt><trkpt lat="35.02199471" lon="32.82518791"><ele>555.3</ele><time>2015-04-28T10:32:00.0000000+00:00</time></trkpt><trkpt lat="35.02199178" lon="32.82517324"><ele>555.3</ele><time>2015-04-28T10:32:01.0000000+00:00</time></trkpt><trkpt lat="35.02198675" lon="32.82516025"><ele>555.8</ele><time>2015-04-28T10:32:02.0000000+00:00</time></trkpt><trkpt lat="35.02198189" lon="32.82514743"><ele>555.8</ele><time>2015-04-28T10:32:03.0000000+00:00</time></trkpt><trkpt lat="35.02197677" lon="32.82513443"><ele>555.8</ele><time>2015-04-28T10:32:04.0000000+00:00</time></trkpt><trkpt lat="35.02197166" lon="32.82512287"><ele>556.3</ele><time>2015-04-28T10:32:05.0000000+00:00</time></trkpt><trkpt lat="35.02196898" lon="32.82510828"><ele>556.3</ele><time>2015-04-28T10:32:06.0000000+00:00</time></trkpt><trkpt lat="35.0219704" lon="32.82509278"><ele>556.3</ele><time>2015-04-28T10:32:07.0000000+00:00</time></trkpt><trkpt lat="35.02197141" lon="32.82507727"><ele>556.3</ele><time>2015-04-28T10:32:08.0000000+00:00</time></trkpt><trkpt lat="35.02197057" lon="32.82506302"><ele>556.3</ele><time>2015-04-28T10:32:09.0000000+00:00</time></trkpt><trkpt lat="35.02196789" lon="32.82504911"><ele>556.7</ele><time>2015-04-28T10:32:10.0000000+00:00</time></trkpt><trkpt lat="35.02196311" lon="32.82503511"><ele>556.7</ele><time>2015-04-28T10:32:11.0000000+00:00</time></trkpt><trkpt lat="35.02195925" lon="32.82501994"><ele>556.7</ele><time>2015-04-28T10:32:12.0000000+00:00</time></trkpt><trkpt lat="35.02195733" lon="32.82500502"><ele>556.7</ele><time>2015-04-28T10:32:13.0000000+00:00</time></trkpt><trkpt lat="35.02194274" lon="32.82475926"><ele>559.1</ele><time>2015-04-28T10:32:29.0000000+00:00</time></trkpt><trkpt lat="35.02191206" lon="32.82453873"><ele>561.1</ele><time>2015-04-28T10:32:43.0000000+00:00</time></trkpt><trkpt lat="35.02190729" lon="32.82448785"><ele>561.6</ele><time>2015-04-28T10:32:46.0000000+00:00</time></trkpt><trkpt lat="35.02185406" lon="32.82428065"><ele>563.5</ele><time>2015-04-28T10:33:00.0000000+00:00</time></trkpt><trkpt lat="35.02181115" lon="32.8241053"><ele>565.4</ele><time>2015-04-28T10:33:12.0000000+00:00</time></trkpt><trkpt lat="35.02181115" lon="32.82408971"><ele>565.4</ele><time>2015-04-28T10:33:13.0000000+00:00</time></trkpt><trkpt lat="35.02180805" lon="32.82407546"><ele>565.4</ele><time>2015-04-28T10:33:14.0000000+00:00</time></trkpt><trkpt lat="35.02180737" lon="32.82405837"><ele>565.4</ele><time>2015-04-28T10:33:15.0000000+00:00</time></trkpt><trkpt lat="35.02180846" lon="32.82404353"><ele>565.9</ele><time>2015-04-28T10:33:16.0000000+00:00</time></trkpt><trkpt lat="35.02180939" lon="32.82402987"><ele>565.9</ele><time>2015-04-28T10:33:17.0000000+00:00</time></trkpt><trkpt lat="35.02184073" lon="32.82398854"><ele>566.8</ele><time>2015-04-28T10:33:22.0000000+00:00</time></trkpt><trkpt lat="35.02188524" lon="32.82396818"><ele>567.8</ele><time>2015-04-28T10:33:27.0000000+00:00</time></trkpt><trkpt lat="35.02191408" lon="32.8239846"><ele>568.3</ele><time>2015-04-28T10:33:30.0000000+00:00</time></trkpt><trkpt lat="35.02205933" lon="32.82409105"><ele>570.2</ele><time>2015-04-28T10:33:45.0000000+00:00</time></trkpt><trkpt lat="35.0221331" lon="32.82414453"><ele>571.2</ele><time>2015-04-28T10:33:53.0000000+00:00</time></trkpt><trkpt lat="35.02223401" lon="32.82423941"><ele>572.1</ele><time>2015-04-28T10:34:04.0000000+00:00</time></trkpt><trkpt lat="35.0224154" lon="32.82424855"><ele>574.0</ele><time>2015-04-28T10:34:19.0000000+00:00</time></trkpt><trkpt lat="35.02260248" lon="32.82418678"><ele>576.0</ele><time>2015-04-28T10:34:34.0000000+00:00</time></trkpt><trkpt lat="35.022664" lon="32.82415995"><ele>576.9</ele><time>2015-04-28T10:34:39.0000000+00:00</time></trkpt><trkpt lat="35.02271773" lon="32.82414587"><ele>577.9</ele><time>2015-04-28T10:34:43.0000000+00:00</time></trkpt><trkpt lat="35.02287833" lon="32.82421988"><ele>579.8</ele><time>2015-04-28T10:34:57.0000000+00:00</time></trkpt><trkpt lat="35.02289618" lon="32.82433136"><ele>580.3</ele><time>2015-04-28T10:35:04.0000000+00:00</time></trkpt><trkpt lat="35.02289853" lon="32.82438777"><ele>580.8</ele><time>2015-04-28T10:35:08.0000000+00:00</time></trkpt><trkpt lat="35.02290197" lon="32.82444821"><ele>581.3</ele><time>2015-04-28T10:35:12.0000000+00:00</time></trkpt><trkpt lat="35.02296257" lon="32.82458793"><ele>582.2</ele><time>2015-04-28T10:35:22.0000000+00:00</time></trkpt><trkpt lat="35.02298654" lon="32.82460176"><ele>582.7</ele><time>2015-04-28T10:35:24.0000000+00:00</time></trkpt><trkpt lat="35.02316021" lon="32.82465499"><ele>584.6</ele><time>2015-04-28T10:35:35.0000000+00:00</time></trkpt><trkpt lat="35.02336524" lon="32.8246218"><ele>586.1</ele><time>2015-04-28T10:35:51.0000000+00:00</time></trkpt><trkpt lat="35.02344755" lon="32.82457922"><ele>586.5</ele><time>2015-04-28T10:35:57.0000000+00:00</time></trkpt><trkpt lat="35.02370143" lon="32.82449087"><ele>589.0</ele><time>2015-04-28T10:36:13.0000000+00:00</time></trkpt><trkpt lat="35.02382037" lon="32.82439699"><ele>590.4</ele><time>2015-04-28T10:36:22.0000000+00:00</time></trkpt><trkpt lat="35.0241269" lon="32.82416188"><ele>591.8</ele><time>2015-04-28T10:36:43.0000000+00:00</time></trkpt><trkpt lat="35.02438179" lon="32.82397656"><ele>591.4</ele><time>2015-04-28T10:36:55.0000000+00:00</time></trkpt><trkpt lat="35.02443518" lon="32.82391059"><ele>591.4</ele><time>2015-04-28T10:36:57.0000000+00:00</time></trkpt><trkpt lat="35.02447098" lon="32.82388369"><ele>590.9</ele><time>2015-04-28T10:36:58.0000000+00:00</time></trkpt><trkpt lat="35.02451138" lon="32.82386407"><ele>590.4</ele><time>2015-04-28T10:36:59.0000000+00:00</time></trkpt><trkpt lat="35.02455739" lon="32.82385795"><ele>590.4</ele><time>2015-04-28T10:37:00.0000000+00:00</time></trkpt><trkpt lat="35.02460458" lon="32.82386508"><ele>589.9</ele><time>2015-04-28T10:37:01.0000000+00:00</time></trkpt><trkpt lat="35.02465052" lon="32.82388025"><ele>589.4</ele><time>2015-04-28T10:37:02.0000000+00:00</time></trkpt><trkpt lat="35.02469469" lon="32.82389911"><ele>589.9</ele><time>2015-04-28T10:37:03.0000000+00:00</time></trkpt><trkpt lat="35.02473568" lon="32.82392526"><ele>589.4</ele><time>2015-04-28T10:37:04.0000000+00:00</time></trkpt><trkpt lat="35.02477122" lon="32.82395904"><ele>589.9</ele><time>2015-04-28T10:37:05.0000000+00:00</time></trkpt><trkpt lat="35.02480483" lon="32.82399483"><ele>589.9</ele><time>2015-04-28T10:37:06.0000000+00:00</time></trkpt><trkpt lat="35.02488672" lon="32.82404873"><ele>589.4</ele><time>2015-04-28T10:37:09.0000000+00:00</time></trkpt><trkpt lat="35.02491253" lon="32.8240406"><ele>589.0</ele><time>2015-04-28T10:37:10.0000000+00:00</time></trkpt><trkpt lat="35.02493517" lon="32.82401788"><ele>589.0</ele><time>2015-04-28T10:37:11.0000000+00:00</time></trkpt><trkpt lat="35.02495511" lon="32.82398729"><ele>589.0</ele><time>2015-04-28T10:37:12.0000000+00:00</time></trkpt><trkpt lat="35.02497288" lon="32.82395544"><ele>588.5</ele><time>2015-04-28T10:37:13.0000000+00:00</time></trkpt><trkpt lat="35.02498856" lon="32.82391923"><ele>588.0</ele><time>2015-04-28T10:37:14.0000000+00:00</time></trkpt><trkpt lat="35.02500524" lon="32.82387857"><ele>587.5</ele><time>2015-04-28T10:37:15.0000000+00:00</time></trkpt><trkpt lat="35.02502804" lon="32.82383407"><ele>587.5</ele><time>2015-04-28T10:37:16.0000000+00:00</time></trkpt><trkpt lat="35.02505863" lon="32.82378679"><ele>587.0</ele><time>2015-04-28T10:37:17.0000000+00:00</time></trkpt><trkpt lat="35.02509585" lon="32.82374052"><ele>586.5</ele><time>2015-04-28T10:37:18.0000000+00:00</time></trkpt><trkpt lat="35.02513583" lon="32.82369208"><ele>586.1</ele><time>2015-04-28T10:37:19.0000000+00:00</time></trkpt><trkpt lat="35.02525359" lon="32.82354372"><ele>586.1</ele><time>2015-04-28T10:37:22.0000000+00:00</time></trkpt><trkpt lat="35.02530313" lon="32.82350717"><ele>585.6</ele><time>2015-04-28T10:37:23.0000000+00:00</time></trkpt><trkpt lat="35.02594443" lon="32.82306427"><ele>587.0</ele><time>2015-04-28T10:37:37.0000000+00:00</time></trkpt><trkpt lat="35.0261549" lon="32.82290761"><ele>588.5</ele><time>2015-04-28T10:37:49.0000000+00:00</time></trkpt><trkpt lat="35.02642572" lon="32.82279555"><ele>591.8</ele><time>2015-04-28T10:38:06.0000000+00:00</time></trkpt><trkpt lat="35.02656142" lon="32.82258944"><ele>594.2</ele><time>2015-04-28T10:38:21.0000000+00:00</time></trkpt><trkpt lat="35.0266097" lon="32.82242356"><ele>595.2</ele><time>2015-04-28T10:38:32.0000000+00:00</time></trkpt><trkpt lat="35.0266149" lon="32.82240747"><ele>595.2</ele><time>2015-04-28T10:38:33.0000000+00:00</time></trkpt><trkpt lat="35.02661909" lon="32.82239154"><ele>595.2</ele><time>2015-04-28T10:38:34.0000000+00:00</time></trkpt><trkpt lat="35.02663267" lon="32.82234577"><ele>595.7</ele><time>2015-04-28T10:38:37.0000000+00:00</time></trkpt><trkpt lat="35.02663434" lon="32.82233169"><ele>595.7</ele><time>2015-04-28T10:38:38.0000000+00:00</time></trkpt><trkpt lat="35.0266403" lon="32.82231786"><ele>595.7</ele><time>2015-04-28T10:38:39.0000000+00:00</time></trkpt><trkpt lat="35.02664692" lon="32.82230294"><ele>596.2</ele><time>2015-04-28T10:38:40.0000000+00:00</time></trkpt><trkpt lat="35.02665111" lon="32.82228685"><ele>596.2</ele><time>2015-04-28T10:38:41.0000000+00:00</time></trkpt><trkpt lat="35.02666108" lon="32.82226237"><ele>596.2</ele><time>2015-04-28T10:38:43.0000000+00:00</time></trkpt><trkpt lat="35.02666569" lon="32.82224863"><ele>596.2</ele><time>2015-04-28T10:38:44.0000000+00:00</time></trkpt><trkpt lat="35.02672696" lon="32.82209348"><ele>597.1</ele><time>2015-04-28T10:38:56.0000000+00:00</time></trkpt><trkpt lat="35.02675672" lon="32.82202592"><ele>598.1</ele><time>2015-04-28T10:39:01.0000000+00:00</time></trkpt><trkpt lat="35.0267625" lon="32.82199382"><ele>598.1</ele><time>2015-04-28T10:39:03.0000000+00:00</time></trkpt><trkpt lat="35.02676862" lon="32.82197672"><ele>598.1</ele><time>2015-04-28T10:39:04.0000000+00:00</time></trkpt><trkpt lat="35.02678765" lon="32.8218955"><ele>598.1</ele><time>2015-04-28T10:39:08.0000000+00:00</time></trkpt><trkpt lat="35.0267558" lon="32.82165745"><ele>600.5</ele><time>2015-04-28T10:39:21.0000000+00:00</time></trkpt><trkpt lat="35.02675161" lon="32.82164329"><ele>600.5</ele><time>2015-04-28T10:39:22.0000000+00:00</time></trkpt><trkpt lat="35.02670559" lon="32.82152301"><ele>601.9</ele><time>2015-04-28T10:39:30.0000000+00:00</time></trkpt><trkpt lat="35.02670241" lon="32.82150934"><ele>601.9</ele><time>2015-04-28T10:39:31.0000000+00:00</time></trkpt><trkpt lat="35.0266993" lon="32.82149476"><ele>601.9</ele><time>2015-04-28T10:39:32.0000000+00:00</time></trkpt><trkpt lat="35.02669654" lon="32.82147984"><ele>602.4</ele><time>2015-04-28T10:39:33.0000000+00:00</time></trkpt><trkpt lat="35.0266905" lon="32.82146492"><ele>602.4</ele><time>2015-04-28T10:39:34.0000000+00:00</time></trkpt><trkpt lat="35.02668262" lon="32.82145092"><ele>602.4</ele><time>2015-04-28T10:39:35.0000000+00:00</time></trkpt><trkpt lat="35.02667567" lon="32.82143651"><ele>602.4</ele><time>2015-04-28T10:39:36.0000000+00:00</time></trkpt><trkpt lat="35.02667055" lon="32.82142083"><ele>602.4</ele><time>2015-04-28T10:39:37.0000000+00:00</time></trkpt><trkpt lat="35.02666594" lon="32.82140457"><ele>602.9</ele><time>2015-04-28T10:39:38.0000000+00:00</time></trkpt><trkpt lat="35.0266641" lon="32.82138772"><ele>602.9</ele><time>2015-04-28T10:39:39.0000000+00:00</time></trkpt><trkpt lat="35.02666209" lon="32.82137272"><ele>602.9</ele><time>2015-04-28T10:39:40.0000000+00:00</time></trkpt><trkpt lat="35.02665823" lon="32.82135881"><ele>603.4</ele><time>2015-04-28T10:39:41.0000000+00:00</time></trkpt><trkpt lat="35.02665178" lon="32.82134489"><ele>603.4</ele><time>2015-04-28T10:39:42.0000000+00:00</time></trkpt><trkpt lat="35.02663476" lon="32.82133047"><ele>603.9</ele><time>2015-04-28T10:39:44.0000000+00:00</time></trkpt><trkpt lat="35.02657349" lon="32.82143827"><ele>606.3</ele><time>2015-04-28T10:39:54.0000000+00:00</time></trkpt><trkpt lat="35.02658271" lon="32.82151555"><ele>607.2</ele><time>2015-04-28T10:39:59.0000000+00:00</time></trkpt><trkpt lat="35.02656771" lon="32.82160046"><ele>607.7</ele><time>2015-04-28T10:40:11.0000000+00:00</time></trkpt><trkpt lat="35.02655396" lon="32.82158436"><ele>607.7</ele><time>2015-04-28T10:40:35.0000000+00:00</time></trkpt><trkpt lat="35.02656268" lon="32.82160808"><ele>607.2</ele><time>2015-04-28T10:40:54.0000000+00:00</time></trkpt><trkpt lat="35.02655958" lon="32.82160381"><ele>607.2</ele><time>2015-04-28T10:41:24.0000000+00:00</time></trkpt><trkpt lat="35.02654801" lon="32.82162242"><ele>606.7</ele><time>2015-04-28T10:41:43.0000000+00:00</time></trkpt><trkpt lat="35.02652655" lon="32.82162057"><ele>606.7</ele><time>2015-04-28T10:42:11.0000000+00:00</time></trkpt><trkpt lat="35.0264994" lon="32.82161605"><ele>606.7</ele><time>2015-04-28T10:42:45.0000000+00:00</time></trkpt><trkpt lat="35.02651909" lon="32.82163692"><ele>606.3</ele><time>2015-04-28T10:43:26.0000000+00:00</time></trkpt><trkpt lat="35.02651339" lon="32.82165242"><ele>606.3</ele><time>2015-04-28T10:43:59.0000000+00:00</time></trkpt><trkpt lat="35.02655187" lon="32.82159283"><ele>605.8</ele><time>2015-04-28T10:44:38.0000000+00:00</time></trkpt><trkpt lat="35.02653896" lon="32.82162786"><ele>605.8</ele><time>2015-04-28T10:45:11.0000000+00:00</time></trkpt><trkpt lat="35.02650241" lon="32.82162258"><ele>605.3</ele><time>2015-04-28T10:45:51.0000000+00:00</time></trkpt><trkpt lat="35.02654047" lon="32.82162166"><ele>605.3</ele><time>2015-04-28T10:46:28.0000000+00:00</time></trkpt><trkpt lat="35.02653946" lon="32.8215992"><ele>604.8</ele><time>2015-04-28T10:47:00.0000000+00:00</time></trkpt><trkpt lat="35.02652798" lon="32.82160054"><ele>604.8</ele><time>2015-04-28T10:47:48.0000000+00:00</time></trkpt><trkpt lat="35.02652287" lon="32.82161538"><ele>604.3</ele><time>2015-04-28T10:48:22.0000000+00:00</time></trkpt><trkpt lat="35.02650409" lon="32.82162074"><ele>603.9</ele><time>2015-04-28T10:49:01.0000000+00:00</time></trkpt><trkpt lat="35.02652152" lon="32.82161219"><ele>603.9</ele><time>2015-04-28T10:49:36.0000000+00:00</time></trkpt><trkpt lat="35.02652982" lon="32.82159652"><ele>603.9</ele><time>2015-04-28T10:50:10.0000000+00:00</time></trkpt><trkpt lat="35.0265491" lon="32.8216044"><ele>603.9</ele><time>2015-04-28T10:50:42.0000000+00:00</time></trkpt><trkpt lat="35.0265315" lon="32.82159115"><ele>603.4</ele><time>2015-04-28T10:51:17.0000000+00:00</time></trkpt><trkpt lat="35.02653234" lon="32.82158688"><ele>603.4</ele><time>2015-04-28T10:52:05.0000000+00:00</time></trkpt><trkpt lat="35.02652622" lon="32.82157145"><ele>603.4</ele><time>2015-04-28T10:52:47.0000000+00:00</time></trkpt><trkpt lat="35.02653888" lon="32.82159551"><ele>602.9</ele><time>2015-04-28T10:53:22.0000000+00:00</time></trkpt><trkpt lat="35.02656545" lon="32.82158453"><ele>602.9</ele><time>2015-04-28T10:53:57.0000000+00:00</time></trkpt><trkpt lat="35.0265771" lon="32.82160741"><ele>602.4</ele><time>2015-04-28T10:54:40.0000000+00:00</time></trkpt><trkpt lat="35.0265833" lon="32.82161211"><ele>602.4</ele><time>2015-04-28T10:55:21.0000000+00:00</time></trkpt><trkpt lat="35.02657911" lon="32.8215821"><ele>602.4</ele><time>2015-04-28T10:55:43.0000000+00:00</time></trkpt><trkpt lat="35.0266061" lon="32.82159786"><ele>601.9</ele><time>2015-04-28T10:56:20.0000000+00:00</time></trkpt><trkpt lat="35.02655614" lon="32.82161311"><ele>601.9</ele><time>2015-04-28T10:57:00.0000000+00:00</time></trkpt><trkpt lat="35.02657643" lon="32.82159794"><ele>602.9</ele><time>2015-04-28T10:57:26.0000000+00:00</time></trkpt><trkpt lat="35.02661867" lon="32.82168344"><ele>603.4</ele><time>2015-04-28T10:57:39.0000000+00:00</time></trkpt><trkpt lat="35.02663468" lon="32.82174605"><ele>603.9</ele><time>2015-04-28T10:57:46.0000000+00:00</time></trkpt><trkpt lat="35.02658322" lon="32.8218504"><ele>605.8</ele><time>2015-04-28T10:58:00.0000000+00:00</time></trkpt><trkpt lat="35.02654583" lon="32.82188175"><ele>605.8</ele><time>2015-04-28T10:58:06.0000000+00:00</time></trkpt><trkpt lat="35.02642421" lon="32.82191386"><ele>607.2</ele><time>2015-04-28T10:58:20.0000000+00:00</time></trkpt><trkpt lat="35.02633394" lon="32.8219649"><ele>608.7</ele><time>2015-04-28T10:58:32.0000000+00:00</time></trkpt><trkpt lat="35.02624844" lon="32.82205534"><ele>611.1</ele><time>2015-04-28T10:58:45.0000000+00:00</time></trkpt><trkpt lat="35.02621349" lon="32.8220825"><ele>611.5</ele><time>2015-04-28T10:58:49.0000000+00:00</time></trkpt><trkpt lat="35.02614794" lon="32.8220996"><ele>612.5</ele><time>2015-04-28T10:58:56.0000000+00:00</time></trkpt><trkpt lat="35.02612523" lon="32.82205392"><ele>613.0</ele><time>2015-04-28T10:59:02.0000000+00:00</time></trkpt><trkpt lat="35.02616462" lon="32.82192056"><ele>614.4</ele><time>2015-04-28T10:59:17.0000000+00:00</time></trkpt><trkpt lat="35.02621139" lon="32.82182258"><ele>615.9</ele><time>2015-04-28T10:59:28.0000000+00:00</time></trkpt><trkpt lat="35.02633494" lon="32.82167816"><ele>618.3</ele><time>2015-04-28T10:59:44.0000000+00:00</time></trkpt><trkpt lat="35.02636135" lon="32.82161663"><ele>619.2</ele><time>2015-04-28T10:59:51.0000000+00:00</time></trkpt><trkpt lat="35.02634358" lon="32.82159593"><ele>619.7</ele><time>2015-04-28T10:59:54.0000000+00:00</time></trkpt><trkpt lat="35.02630536" lon="32.82162216"><ele>620.2</ele><time>2015-04-28T10:59:59.0000000+00:00</time></trkpt><trkpt lat="35.02619019" lon="32.8217095"><ele>622.1</ele><time>2015-04-28T11:00:14.0000000+00:00</time></trkpt><trkpt lat="35.026072" lon="32.82175837"><ele>623.6</ele><time>2015-04-28T11:00:27.0000000+00:00</time></trkpt><trkpt lat="35.02594083" lon="32.82179316"><ele>625.0</ele><time>2015-04-28T11:00:41.0000000+00:00</time></trkpt><trkpt lat="35.02582055" lon="32.82182425"><ele>626.4</ele><time>2015-04-28T11:00:53.0000000+00:00</time></trkpt><trkpt lat="35.02569247" lon="32.82188091"><ele>628.4</ele><time>2015-04-28T11:01:08.0000000+00:00</time></trkpt><trkpt lat="35.02559432" lon="32.82193062"><ele>629.3</ele><time>2015-04-28T11:01:19.0000000+00:00</time></trkpt><trkpt lat="35.02554554" lon="32.82196281"><ele>629.8</ele><time>2015-04-28T11:01:25.0000000+00:00</time></trkpt><trkpt lat="35.02548133" lon="32.82199658"><ele>630.3</ele><time>2015-04-28T11:01:32.0000000+00:00</time></trkpt><trkpt lat="35.02542106" lon="32.82203447"><ele>631.2</ele><time>2015-04-28T11:01:39.0000000+00:00</time></trkpt><trkpt lat="35.02524362" lon="32.82211863"><ele>633.2</ele><time>2015-04-28T11:01:57.0000000+00:00</time></trkpt><trkpt lat="35.02522409" lon="32.82212709"><ele>633.2</ele><time>2015-04-28T11:01:59.0000000+00:00</time></trkpt><trkpt lat="35.02507489" lon="32.82212173"><ele>635.1</ele><time>2015-04-28T11:02:14.0000000+00:00</time></trkpt><trkpt lat="35.02506718" lon="32.82212147"><ele>635.1</ele><time>2015-04-28T11:02:15.0000000+00:00</time></trkpt><trkpt lat="35.0250075" lon="32.82207923"><ele>636.1</ele><time>2015-04-28T11:02:22.0000000+00:00</time></trkpt><trkpt lat="35.02491899" lon="32.82205014"><ele>636.1</ele><time>2015-04-28T11:02:31.0000000+00:00</time></trkpt><trkpt lat="35.02470282" lon="32.82213748"><ele>636.5</ele><time>2015-04-28T11:02:46.0000000+00:00</time></trkpt><trkpt lat="35.02457751" lon="32.82247595"><ele>635.6</ele><time>2015-04-28T11:03:01.0000000+00:00</time></trkpt><trkpt lat="35.02430812" lon="32.82265892"><ele>633.7</ele><time>2015-04-28T11:03:14.0000000+00:00</time></trkpt><trkpt lat="35.0242714" lon="32.82267351"><ele>633.7</ele><time>2015-04-28T11:03:15.0000000+00:00</time></trkpt><trkpt lat="35.02423905" lon="32.82269245"><ele>633.7</ele><time>2015-04-28T11:03:16.0000000+00:00</time></trkpt><trkpt lat="35.02421348" lon="32.82271047"><ele>634.1</ele><time>2015-04-28T11:03:17.0000000+00:00</time></trkpt><trkpt lat="35.02419504" lon="32.82272522"><ele>634.1</ele><time>2015-04-28T11:03:18.0000000+00:00</time></trkpt><trkpt lat="35.02418222" lon="32.82273612"><ele>634.1</ele><time>2015-04-28T11:03:19.0000000+00:00</time></trkpt><trkpt lat="35.02416956" lon="32.82274383"><ele>634.1</ele><time>2015-04-28T11:03:20.0000000+00:00</time></trkpt><trkpt lat="35.02415556" lon="32.82275196"><ele>634.6</ele><time>2015-04-28T11:03:21.0000000+00:00</time></trkpt><trkpt lat="35.02414207" lon="32.82276202"><ele>634.1</ele><time>2015-04-28T11:03:22.0000000+00:00</time></trkpt><trkpt lat="35.02412975" lon="32.82277308"><ele>634.6</ele><time>2015-04-28T11:03:23.0000000+00:00</time></trkpt><trkpt lat="35.02411793" lon="32.82278365"><ele>634.6</ele><time>2015-04-28T11:03:24.0000000+00:00</time></trkpt><trkpt lat="35.0241072" lon="32.82279429"><ele>634.6</ele><time>2015-04-28T11:03:25.0000000+00:00</time></trkpt><trkpt lat="35.02409698" lon="32.82280477"><ele>634.6</ele><time>2015-04-28T11:03:26.0000000+00:00</time></trkpt><trkpt lat="35.02408474" lon="32.82281407"><ele>634.6</ele><time>2015-04-28T11:03:27.0000000+00:00</time></trkpt><trkpt lat="35.02407359" lon="32.82282363"><ele>634.6</ele><time>2015-04-28T11:03:28.0000000+00:00</time></trkpt><trkpt lat="35.02385264" lon="32.82294148"><ele>634.6</ele><time>2015-04-28T11:03:45.0000000+00:00</time></trkpt><trkpt lat="35.02362063" lon="32.82297417"><ele>634.6</ele><time>2015-04-28T11:03:58.0000000+00:00</time></trkpt><trkpt lat="35.0234053" lon="32.82293804"><ele>635.6</ele><time>2015-04-28T11:04:12.0000000+00:00</time></trkpt><trkpt lat="35.02333933" lon="32.82292991"><ele>635.1</ele><time>2015-04-28T11:04:16.0000000+00:00</time></trkpt><trkpt lat="35.02332232" lon="32.82292312"><ele>635.6</ele><time>2015-04-28T11:04:17.0000000+00:00</time></trkpt><trkpt lat="35.0233043" lon="32.82291558"><ele>635.6</ele><time>2015-04-28T11:04:18.0000000+00:00</time></trkpt><trkpt lat="35.02328536" lon="32.8229082"><ele>635.6</ele><time>2015-04-28T11:04:19.0000000+00:00</time></trkpt><trkpt lat="35.02326675" lon="32.82290166"><ele>636.1</ele><time>2015-04-28T11:04:20.0000000+00:00</time></trkpt><trkpt lat="35.02303029" lon="32.82282656"><ele>636.5</ele><time>2015-04-28T11:04:34.0000000+00:00</time></trkpt><trkpt lat="35.02276945" lon="32.82290602"><ele>636.5</ele><time>2015-04-28T11:04:50.0000000+00:00</time></trkpt><trkpt lat="35.0224185" lon="32.82274048"><ele>635.6</ele><time>2015-04-28T11:05:02.0000000+00:00</time></trkpt><trkpt lat="35.02215539" lon="32.82240235"><ele>636.1</ele><time>2015-04-28T11:05:14.0000000+00:00</time></trkpt><trkpt lat="35.02186085" lon="32.82192953"><ele>636.1</ele><time>2015-04-28T11:05:28.0000000+00:00</time></trkpt><trkpt lat="35.0216156" lon="32.82170238"><ele>636.1</ele><time>2015-04-28T11:05:39.0000000+00:00</time></trkpt><trkpt lat="35.02158442" lon="32.82172048"><ele>636.1</ele><time>2015-04-28T11:05:40.0000000+00:00</time></trkpt><trkpt lat="35.02155919" lon="32.82175485"><ele>636.1</ele><time>2015-04-28T11:05:41.0000000+00:00</time></trkpt><trkpt lat="35.02153823" lon="32.82179567"><ele>636.1</ele><time>2015-04-28T11:05:42.0000000+00:00</time></trkpt><trkpt lat="35.02151954" lon="32.82183792"><ele>636.1</ele><time>2015-04-28T11:05:43.0000000+00:00</time></trkpt><trkpt lat="35.02150378" lon="32.82188058"><ele>636.1</ele><time>2015-04-28T11:05:44.0000000+00:00</time></trkpt><trkpt lat="35.02148995" lon="32.82192291"><ele>636.1</ele><time>2015-04-28T11:05:45.0000000+00:00</time></trkpt><trkpt lat="35.02133824" lon="32.82231015"><ele>635.1</ele><time>2015-04-28T11:05:56.0000000+00:00</time></trkpt><trkpt lat="35.02097975" lon="32.82270569"><ele>633.2</ele><time>2015-04-28T11:06:09.0000000+00:00</time></trkpt><trkpt lat="35.020664" lon="32.82337868"><ele>629.8</ele><time>2015-04-28T11:06:22.0000000+00:00</time></trkpt><trkpt lat="35.02051706" lon="32.82379031"><ele>626.9</ele><time>2015-04-28T11:06:32.0000000+00:00</time></trkpt><trkpt lat="35.02028137" lon="32.82383381"><ele>626.0</ele><time>2015-04-28T11:06:43.0000000+00:00</time></trkpt><trkpt lat="35.02009613" lon="32.82375536"><ele>626.0</ele><time>2015-04-28T11:06:56.0000000+00:00</time></trkpt><trkpt lat="35.02007148" lon="32.82374254"><ele>626.0</ele><time>2015-04-28T11:06:58.0000000+00:00</time></trkpt><trkpt lat="35.02005698" lon="32.82374228"><ele>625.5</ele><time>2015-04-28T11:06:59.0000000+00:00</time></trkpt><trkpt lat="35.02004223" lon="32.82374094"><ele>625.5</ele><time>2015-04-28T11:07:00.0000000+00:00</time></trkpt><trkpt lat="35.01983277" lon="32.82365168"><ele>625.0</ele><time>2015-04-28T11:07:14.0000000+00:00</time></trkpt><trkpt lat="35.01975867" lon="32.82360289"><ele>625.0</ele><time>2015-04-28T11:07:27.0000000+00:00</time></trkpt><trkpt lat="35.01974685" lon="32.82360633"><ele>625.0</ele><time>2015-04-28T11:07:57.0000000+00:00</time></trkpt><trkpt lat="35.01974375" lon="32.82360775"><ele>625.0</ele><time>2015-04-28T11:08:23.0000000+00:00</time></trkpt><trkpt lat="35.01973327" lon="32.82360063"><ele>625.0</ele><time>2015-04-28T11:08:54.0000000+00:00</time></trkpt><trkpt lat="35.01973931" lon="32.8235899"><ele>625.5</ele><time>2015-04-28T11:09:20.0000000+00:00</time></trkpt><trkpt lat="35.01972958" lon="32.82359376"><ele>625.5</ele><time>2015-04-28T11:09:49.0000000+00:00</time></trkpt><trkpt lat="35.01973721" lon="32.82359937"><ele>625.0</ele><time>2015-04-28T11:10:11.0000000+00:00</time></trkpt><trkpt lat="35.01972808" lon="32.82359879"><ele>625.5</ele><time>2015-04-28T11:10:39.0000000+00:00</time></trkpt><trkpt lat="35.01960411" lon="32.82349896"><ele>625.0</ele><time>2015-04-28T11:10:57.0000000+00:00</time></trkpt><trkpt lat="35.01934494" lon="32.82348102"><ele>623.6</ele><time>2015-04-28T11:11:08.0000000+00:00</time></trkpt><trkpt lat="35.01924461" lon="32.82346208"><ele>622.6</ele><time>2015-04-28T11:11:14.0000000+00:00</time></trkpt><trkpt lat="35.01896943" lon="32.82315773"><ele>622.6</ele><time>2015-04-28T11:11:27.0000000+00:00</time></trkpt><trkpt lat="35.01881177" lon="32.82316913"><ele>624.0</ele><time>2015-04-28T11:11:37.0000000+00:00</time></trkpt><trkpt lat="35.01879567" lon="32.82316837"><ele>624.0</ele><time>2015-04-28T11:11:38.0000000+00:00</time></trkpt><trkpt lat="35.01861253" lon="32.82303929"><ele>625.0</ele><time>2015-04-28T11:11:51.0000000+00:00</time></trkpt><trkpt lat="35.01847146" lon="32.82281809"><ele>624.0</ele><time>2015-04-28T11:12:02.0000000+00:00</time></trkpt><trkpt lat="35.01845059" lon="32.82281323"><ele>624.0</ele><time>2015-04-28T11:12:03.0000000+00:00</time></trkpt><trkpt lat="35.0184288" lon="32.82281198"><ele>624.0</ele><time>2015-04-28T11:12:04.0000000+00:00</time></trkpt><trkpt lat="35.01826233" lon="32.82277426"><ele>623.1</ele><time>2015-04-28T11:12:09.0000000+00:00</time></trkpt><trkpt lat="35.0182257" lon="32.82275523"><ele>623.1</ele><time>2015-04-28T11:12:10.0000000+00:00</time></trkpt><trkpt lat="35.01819343" lon="32.82273143"><ele>623.1</ele><time>2015-04-28T11:12:11.0000000+00:00</time></trkpt><trkpt lat="35.01807592" lon="32.8226171"><ele>621.6</ele><time>2015-04-28T11:12:15.0000000+00:00</time></trkpt><trkpt lat="35.01794885" lon="32.82249422"><ele>621.2</ele><time>2015-04-28T11:12:18.0000000+00:00</time></trkpt><trkpt lat="35.0179123" lon="32.82243772"><ele>620.7</ele><time>2015-04-28T11:12:19.0000000+00:00</time></trkpt><trkpt lat="35.01789043" lon="32.82238148"><ele>621.6</ele><time>2015-04-28T11:12:20.0000000+00:00</time></trkpt><trkpt lat="35.01787844" lon="32.82233412"><ele>622.1</ele><time>2015-04-28T11:12:21.0000000+00:00</time></trkpt><trkpt lat="35.01787182" lon="32.82229867"><ele>622.6</ele><time>2015-04-28T11:12:22.0000000+00:00</time></trkpt><trkpt lat="35.01783427" lon="32.822141"><ele>625.0</ele><time>2015-04-28T11:12:33.0000000+00:00</time></trkpt><trkpt lat="35.01783494" lon="32.82205626"><ele>626.0</ele><time>2015-04-28T11:12:39.0000000+00:00</time></trkpt><trkpt lat="35.017846" lon="32.82200346"><ele>626.4</ele><time>2015-04-28T11:12:43.0000000+00:00</time></trkpt><trkpt lat="35.01784399" lon="32.82198837"><ele>626.9</ele><time>2015-04-28T11:12:44.0000000+00:00</time></trkpt><trkpt lat="35.01780099" lon="32.82176256"><ele>628.8</ele><time>2015-04-28T11:13:01.0000000+00:00</time></trkpt><trkpt lat="35.01776738" lon="32.82166206"><ele>629.8</ele><time>2015-04-28T11:13:09.0000000+00:00</time></trkpt><trkpt lat="35.01775783" lon="32.82164153"><ele>629.8</ele><time>2015-04-28T11:13:11.0000000+00:00</time></trkpt><trkpt lat="35.01775255" lon="32.82162971"><ele>630.3</ele><time>2015-04-28T11:13:12.0000000+00:00</time></trkpt><trkpt lat="35.01772966" lon="32.82160716"><ele>630.3</ele><time>2015-04-28T11:13:15.0000000+00:00</time></trkpt><trkpt lat="35.01770921" lon="32.82158344"><ele>630.8</ele><time>2015-04-28T11:13:18.0000000+00:00</time></trkpt><trkpt lat="35.01770427" lon="32.82157472"><ele>630.8</ele><time>2015-04-28T11:13:19.0000000+00:00</time></trkpt><trkpt lat="35.01769798" lon="32.82156575"><ele>630.8</ele><time>2015-04-28T11:13:20.0000000+00:00</time></trkpt><trkpt lat="35.017688" lon="32.82144941"><ele>632.2</ele><time>2015-04-28T11:13:32.0000000+00:00</time></trkpt><trkpt lat="35.01767811" lon="32.82126702"><ele>633.7</ele><time>2015-04-28T11:13:48.0000000+00:00</time></trkpt><trkpt lat="35.01767652" lon="32.82125328"><ele>634.1</ele><time>2015-04-28T11:13:49.0000000+00:00</time></trkpt><trkpt lat="35.01767082" lon="32.82116443"><ele>634.6</ele><time>2015-04-28T11:13:56.0000000+00:00</time></trkpt><trkpt lat="35.01766311" lon="32.82112487"><ele>635.1</ele><time>2015-04-28T11:13:59.0000000+00:00</time></trkpt><trkpt lat="35.01766043" lon="32.82111137"><ele>635.1</ele><time>2015-04-28T11:14:00.0000000+00:00</time></trkpt><trkpt lat="35.01766655" lon="32.82099"><ele>635.6</ele><time>2015-04-28T11:14:09.0000000+00:00</time></trkpt><trkpt lat="35.01767132" lon="32.8209755"><ele>636.1</ele><time>2015-04-28T11:14:10.0000000+00:00</time></trkpt><trkpt lat="35.01767283" lon="32.82096159"><ele>636.1</ele><time>2015-04-28T11:14:11.0000000+00:00</time></trkpt><trkpt lat="35.01764635" lon="32.82076738"><ele>637.0</ele><time>2015-04-28T11:14:24.0000000+00:00</time></trkpt><trkpt lat="35.0175787" lon="32.82055389"><ele>637.0</ele><time>2015-04-28T11:14:36.0000000+00:00</time></trkpt><trkpt lat="35.0175233" lon="32.8205114"><ele>637.0</ele><time>2015-04-28T11:14:39.0000000+00:00</time></trkpt><trkpt lat="35.01750536" lon="32.82051458"><ele>637.0</ele><time>2015-04-28T11:14:40.0000000+00:00</time></trkpt><trkpt lat="35.01748969" lon="32.82052263"><ele>637.5</ele><time>2015-04-28T11:14:41.0000000+00:00</time></trkpt><trkpt lat="35.01747762" lon="32.82053352"><ele>637.5</ele><time>2015-04-28T11:14:42.0000000+00:00</time></trkpt><trkpt lat="35.01746521" lon="32.82054551"><ele>638.0</ele><time>2015-04-28T11:14:43.0000000+00:00</time></trkpt><trkpt lat="35.01745247" lon="32.82055993"><ele>638.0</ele><time>2015-04-28T11:14:44.0000000+00:00</time></trkpt><trkpt lat="35.01744074" lon="32.82057887"><ele>638.0</ele><time>2015-04-28T11:14:45.0000000+00:00</time></trkpt><trkpt lat="35.01720185" lon="32.82093317"><ele>636.1</ele><time>2015-04-28T11:14:58.0000000+00:00</time></trkpt><trkpt lat="35.01706246" lon="32.82112537"><ele>634.1</ele><time>2015-04-28T11:15:04.0000000+00:00</time></trkpt><trkpt lat="35.01658394" lon="32.82151186"><ele>633.2</ele><time>2015-04-28T11:15:17.0000000+00:00</time></trkpt><trkpt lat="35.01634455" lon="32.82171856"><ele>634.1</ele><time>2015-04-28T11:15:27.0000000+00:00</time></trkpt><trkpt lat="35.01609385" lon="32.82183909"><ele>637.0</ele><time>2015-04-28T11:15:39.0000000+00:00</time></trkpt><trkpt lat="35.01597734" lon="32.82183607"><ele>638.0</ele><time>2015-04-28T11:15:47.0000000+00:00</time></trkpt><trkpt lat="35.01596251" lon="32.82183775"><ele>638.5</ele><time>2015-04-28T11:15:48.0000000+00:00</time></trkpt><trkpt lat="35.015947" lon="32.82184043"><ele>638.5</ele><time>2015-04-28T11:15:49.0000000+00:00</time></trkpt><trkpt lat="35.01593334" lon="32.8218411"><ele>638.5</ele><time>2015-04-28T11:15:50.0000000+00:00</time></trkpt><trkpt lat="35.01592202" lon="32.82183792"><ele>638.9</ele><time>2015-04-28T11:15:51.0000000+00:00</time></trkpt><trkpt lat="35.01590928" lon="32.82183414"><ele>638.9</ele><time>2015-04-28T11:15:52.0000000+00:00</time></trkpt><trkpt lat="35.01576981" lon="32.82174102"><ele>640.9</ele><time>2015-04-28T11:16:05.0000000+00:00</time></trkpt><trkpt lat="35.01568917" lon="32.82149887"><ele>643.3</ele><time>2015-04-28T11:16:21.0000000+00:00</time></trkpt><trkpt lat="35.01557811" lon="32.82123718"><ele>646.1</ele><time>2015-04-28T11:16:38.0000000+00:00</time></trkpt><trkpt lat="35.01550661" lon="32.82111271"><ele>647.1</ele><time>2015-04-28T11:16:47.0000000+00:00</time></trkpt><trkpt lat="35.01549924" lon="32.82109654"><ele>647.1</ele><time>2015-04-28T11:16:48.0000000+00:00</time></trkpt><trkpt lat="35.01548834" lon="32.82107935"><ele>647.1</ele><time>2015-04-28T11:16:49.0000000+00:00</time></trkpt><trkpt lat="35.01547552" lon="32.82106368"><ele>647.1</ele><time>2015-04-28T11:16:50.0000000+00:00</time></trkpt><trkpt lat="35.01546605" lon="32.82105069"><ele>647.1</ele><time>2015-04-28T11:16:51.0000000+00:00</time></trkpt><trkpt lat="35.0154585" lon="32.8210387"><ele>647.1</ele><time>2015-04-28T11:16:52.0000000+00:00</time></trkpt><trkpt lat="35.0154471" lon="32.8210268"><ele>647.6</ele><time>2015-04-28T11:16:53.0000000+00:00</time></trkpt><trkpt lat="35.0154347" lon="32.82101389"><ele>647.1</ele><time>2015-04-28T11:16:54.0000000+00:00</time></trkpt><trkpt lat="35.01542078" lon="32.82099838"><ele>647.6</ele><time>2015-04-28T11:16:55.0000000+00:00</time></trkpt><trkpt lat="35.01529003" lon="32.8207564"><ele>649.5</ele><time>2015-04-28T11:17:08.0000000+00:00</time></trkpt><trkpt lat="35.01521685" lon="32.82068716"><ele>650.5</ele><time>2015-04-28T11:17:14.0000000+00:00</time></trkpt><trkpt lat="35.01520235" lon="32.82068255"><ele>650.5</ele><time>2015-04-28T11:17:15.0000000+00:00</time></trkpt><trkpt lat="35.01518802" lon="32.82067719"><ele>650.5</ele><time>2015-04-28T11:17:16.0000000+00:00</time></trkpt><trkpt lat="35.01517251" lon="32.82067845"><ele>650.5</ele><time>2015-04-28T11:17:17.0000000+00:00</time></trkpt><trkpt lat="35.01515499" lon="32.82068406"><ele>650.5</ele><time>2015-04-28T11:17:18.0000000+00:00</time></trkpt><trkpt lat="35.01506355" lon="32.82073033"><ele>650.0</ele><time>2015-04-28T11:17:22.0000000+00:00</time></trkpt><trkpt lat="35.01504703" lon="32.82075288"><ele>650.0</ele><time>2015-04-28T11:17:23.0000000+00:00</time></trkpt><trkpt lat="35.01503119" lon="32.82077635"><ele>650.5</ele><time>2015-04-28T11:17:24.0000000+00:00</time></trkpt><trkpt lat="35.01501569" lon="32.82080233"><ele>650.5</ele><time>2015-04-28T11:17:25.0000000+00:00</time></trkpt><trkpt lat="35.01499909" lon="32.82082664"><ele>650.5</ele><time>2015-04-28T11:17:26.0000000+00:00</time></trkpt><trkpt lat="35.01498098" lon="32.82084818"><ele>650.5</ele><time>2015-04-28T11:17:27.0000000+00:00</time></trkpt><trkpt lat="35.01496104" lon="32.82086654"><ele>650.5</ele><time>2015-04-28T11:17:28.0000000+00:00</time></trkpt><trkpt lat="35.01494218" lon="32.82087928"><ele>650.5</ele><time>2015-04-28T11:17:29.0000000+00:00</time></trkpt><trkpt lat="35.01492474" lon="32.82088791"><ele>650.5</ele><time>2015-04-28T11:17:30.0000000+00:00</time></trkpt><trkpt lat="35.01473548" lon="32.82099889"><ele>650.0</ele><time>2015-04-28T11:17:42.0000000+00:00</time></trkpt><trkpt lat="35.0147224" lon="32.82101666"><ele>650.5</ele><time>2015-04-28T11:17:43.0000000+00:00</time></trkpt><trkpt lat="35.01471888" lon="32.82103384"><ele>650.0</ele><time>2015-04-28T11:17:44.0000000+00:00</time></trkpt><trkpt lat="35.01472282" lon="32.82105278"><ele>650.0</ele><time>2015-04-28T11:17:45.0000000+00:00</time></trkpt><trkpt lat="35.01472953" lon="32.82107407"><ele>650.0</ele><time>2015-04-28T11:17:46.0000000+00:00</time></trkpt><trkpt lat="35.01473648" lon="32.82109519"><ele>650.0</ele><time>2015-04-28T11:17:47.0000000+00:00</time></trkpt><trkpt lat="35.01474042" lon="32.82111875"><ele>650.0</ele><time>2015-04-28T11:17:48.0000000+00:00</time></trkpt><trkpt lat="35.01478611" lon="32.8214733"><ele>649.0</ele><time>2015-04-28T11:18:03.0000000+00:00</time></trkpt><trkpt lat="35.01476473" lon="32.82149275"><ele>649.0</ele><time>2015-04-28T11:18:04.0000000+00:00</time></trkpt><trkpt lat="35.01473992" lon="32.82150624"><ele>649.0</ele><time>2015-04-28T11:18:05.0000000+00:00</time></trkpt><trkpt lat="35.0147188" lon="32.82151228"><ele>649.0</ele><time>2015-04-28T11:18:06.0000000+00:00</time></trkpt><trkpt lat="35.01469851" lon="32.82151069"><ele>649.0</ele><time>2015-04-28T11:18:07.0000000+00:00</time></trkpt><trkpt lat="35.01468091" lon="32.82150658"><ele>649.0</ele><time>2015-04-28T11:18:08.0000000+00:00</time></trkpt><trkpt lat="35.01446776" lon="32.82149149"><ele>650.0</ele><time>2015-04-28T11:18:23.0000000+00:00</time></trkpt><trkpt lat="35.01445066" lon="32.82152879"><ele>649.5</ele><time>2015-04-28T11:18:42.0000000+00:00</time></trkpt><trkpt lat="35.01443708" lon="32.82152628"><ele>649.0</ele><time>2015-04-28T11:19:18.0000000+00:00</time></trkpt><trkpt lat="35.0144142" lon="32.82152418"><ele>649.0</ele><time>2015-04-28T11:19:52.0000000+00:00</time></trkpt><trkpt lat="35.0144282" lon="32.82150784"><ele>648.6</ele><time>2015-04-28T11:20:22.0000000+00:00</time></trkpt><trkpt lat="35.01442367" lon="32.82149543"><ele>648.6</ele><time>2015-04-28T11:21:02.0000000+00:00</time></trkpt><trkpt lat="35.01443021" lon="32.82147238"><ele>648.1</ele><time>2015-04-28T11:21:31.0000000+00:00</time></trkpt><trkpt lat="35.0144427" lon="32.82148018"><ele>648.6</ele><time>2015-04-28T11:21:58.0000000+00:00</time></trkpt><trkpt lat="35.01445058" lon="32.82152787"><ele>648.1</ele><time>2015-04-28T11:22:37.0000000+00:00</time></trkpt><trkpt lat="35.01445469" lon="32.82149484"><ele>648.1</ele><time>2015-04-28T11:23:14.0000000+00:00</time></trkpt><trkpt lat="35.01445955" lon="32.82149795"><ele>647.6</ele><time>2015-04-28T11:23:49.0000000+00:00</time></trkpt><trkpt lat="35.01442702" lon="32.82149308"><ele>647.1</ele><time>2015-04-28T11:24:17.0000000+00:00</time></trkpt><trkpt lat="35.01445385" lon="32.82148319"><ele>647.6</ele><time>2015-04-28T11:24:50.0000000+00:00</time></trkpt><trkpt lat="35.01446567" lon="32.82149803"><ele>647.1</ele><time>2015-04-28T11:25:28.0000000+00:00</time></trkpt><trkpt lat="35.01446215" lon="32.8214816"><ele>646.6</ele><time>2015-04-28T11:26:11.0000000+00:00</time></trkpt><trkpt lat="35.01446667" lon="32.82152175"><ele>647.1</ele><time>2015-04-28T11:26:49.0000000+00:00</time></trkpt><trkpt lat="35.01445871" lon="32.82153642"><ele>646.6</ele><time>2015-04-28T11:27:22.0000000+00:00</time></trkpt><trkpt lat="35.0144624" lon="32.82152954"><ele>647.1</ele><time>2015-04-28T11:28:00.0000000+00:00</time></trkpt><trkpt lat="35.01447514" lon="32.82152686"><ele>647.1</ele><time>2015-04-28T11:28:45.0000000+00:00</time></trkpt><trkpt lat="35.0144608" lon="32.82148202"><ele>646.6</ele><time>2015-04-28T11:29:25.0000000+00:00</time></trkpt><trkpt lat="35.01443038" lon="32.82146274"><ele>646.6</ele><time>2015-04-28T11:29:55.0000000+00:00</time></trkpt><trkpt lat="35.01443868" lon="32.82144019"><ele>646.6</ele><time>2015-04-28T11:30:27.0000000+00:00</time></trkpt><trkpt lat="35.01445225" lon="32.82143265"><ele>646.1</ele><time>2015-04-28T11:31:07.0000000+00:00</time></trkpt><trkpt lat="35.01447245" lon="32.82142913"><ele>646.1</ele><time>2015-04-28T11:31:43.0000000+00:00</time></trkpt><trkpt lat="35.01445225" lon="32.82144271"><ele>645.7</ele><time>2015-04-28T11:32:12.0000000+00:00</time></trkpt><trkpt lat="35.0144696" lon="32.82140692"><ele>645.7</ele><time>2015-04-28T11:32:46.0000000+00:00</time></trkpt><trkpt lat="35.01446667" lon="32.82137138"><ele>645.2</ele><time>2015-04-28T11:33:18.0000000+00:00</time></trkpt><trkpt lat="35.01446072" lon="32.82138621"><ele>645.2</ele><time>2015-04-28T11:33:48.0000000+00:00</time></trkpt><trkpt lat="35.01447757" lon="32.82139225"><ele>644.2</ele><time>2015-04-28T11:34:23.0000000+00:00</time></trkpt><trkpt lat="35.01447916" lon="32.82142083"><ele>644.2</ele><time>2015-04-28T11:34:58.0000000+00:00</time></trkpt><trkpt lat="35.01446114" lon="32.82138831"><ele>643.3</ele><time>2015-04-28T11:35:40.0000000+00:00</time></trkpt><trkpt lat="35.01448293" lon="32.82141807"><ele>643.3</ele><time>2015-04-28T11:36:12.0000000+00:00</time></trkpt><trkpt lat="35.01448712" lon="32.82143667"><ele>642.8</ele><time>2015-04-28T11:36:53.0000000+00:00</time></trkpt><trkpt lat="35.01447321" lon="32.82143081"><ele>642.8</ele><time>2015-04-28T11:37:31.0000000+00:00</time></trkpt><trkpt lat="35.0144919" lon="32.8214407"><ele>642.3</ele><time>2015-04-28T11:38:13.0000000+00:00</time></trkpt><trkpt lat="35.01446248" lon="32.82146886"><ele>641.8</ele><time>2015-04-28T11:38:57.0000000+00:00</time></trkpt><trkpt lat="35.01445175" lon="32.82147096"><ele>641.8</ele><time>2015-04-28T11:39:27.0000000+00:00</time></trkpt><trkpt lat="35.01445619" lon="32.82146995"><ele>641.8</ele><time>2015-04-28T11:40:01.0000000+00:00</time></trkpt><trkpt lat="35.01444421" lon="32.82144237"><ele>641.8</ele><time>2015-04-28T11:40:50.0000000+00:00</time></trkpt><trkpt lat="35.01444312" lon="32.82144648"><ele>641.3</ele><time>2015-04-28T11:41:26.0000000+00:00</time></trkpt><trkpt lat="35.01445008" lon="32.82143089"><ele>641.3</ele><time>2015-04-28T11:41:59.0000000+00:00</time></trkpt><trkpt lat="35.01445293" lon="32.82141329"><ele>641.3</ele><time>2015-04-28T11:42:44.0000000+00:00</time></trkpt><trkpt lat="35.01442024" lon="32.82137565"><ele>641.3</ele><time>2015-04-28T11:43:27.0000000+00:00</time></trkpt><trkpt lat="35.01445854" lon="32.82137088"><ele>640.9</ele><time>2015-04-28T11:44:02.0000000+00:00</time></trkpt><trkpt lat="35.01444781" lon="32.82135914"><ele>640.9</ele><time>2015-04-28T11:44:39.0000000+00:00</time></trkpt><trkpt lat="35.01447095" lon="32.82133039"><ele>640.4</ele><time>2015-04-28T11:45:11.0000000+00:00</time></trkpt><trkpt lat="35.01444647" lon="32.82133634"><ele>640.4</ele><time>2015-04-28T11:45:32.0000000+00:00</time></trkpt><trkpt lat="35.01443625" lon="32.82135185"><ele>640.9</ele><time>2015-04-28T11:45:45.0000000+00:00</time></trkpt><trkpt lat="35.01443767" lon="32.82137264"><ele>640.9</ele><time>2015-04-28T11:46:09.0000000+00:00</time></trkpt><trkpt lat="35.01443004" lon="32.82138999"><ele>640.9</ele><time>2015-04-28T11:46:38.0000000+00:00</time></trkpt><trkpt lat="35.01442183" lon="32.82142888"><ele>640.9</ele><time>2015-04-28T11:46:59.0000000+00:00</time></trkpt><trkpt lat="35.01443993" lon="32.82144841"><ele>640.9</ele><time>2015-04-28T11:47:28.0000000+00:00</time></trkpt><trkpt lat="35.01444982" lon="32.82145645"><ele>641.3</ele><time>2015-04-28T11:47:52.0000000+00:00</time></trkpt><trkpt lat="35.01440397" lon="32.8214588"><ele>641.3</ele><time>2015-04-28T11:48:12.0000000+00:00</time></trkpt><trkpt lat="35.01433684" lon="32.82149862"><ele>641.3</ele><time>2015-04-28T11:48:22.0000000+00:00</time></trkpt><trkpt lat="35.01432535" lon="32.82150708"><ele>641.3</ele><time>2015-04-28T11:48:23.0000000+00:00</time></trkpt><trkpt lat="35.01415394" lon="32.82169492"><ele>640.9</ele><time>2015-04-28T11:48:36.0000000+00:00</time></trkpt><trkpt lat="35.01413089" lon="32.82172191"><ele>641.3</ele><time>2015-04-28T11:48:38.0000000+00:00</time></trkpt><trkpt lat="35.01412075" lon="32.82173532"><ele>640.9</ele><time>2015-04-28T11:48:39.0000000+00:00</time></trkpt><trkpt lat="35.01411145" lon="32.82174747"><ele>640.9</ele><time>2015-04-28T11:48:40.0000000+00:00</time></trkpt><trkpt lat="35.0139128" lon="32.82199851"><ele>640.4</ele><time>2015-04-28T11:48:53.0000000+00:00</time></trkpt><trkpt lat="35.01377257" lon="32.82218643"><ele>640.4</ele><time>2015-04-28T11:49:04.0000000+00:00</time></trkpt><trkpt lat="35.01351633" lon="32.82219825"><ele>640.9</ele><time>2015-04-28T11:49:18.0000000+00:00</time></trkpt><trkpt lat="35.01341407" lon="32.82214637"><ele>642.3</ele><time>2015-04-28T11:49:24.0000000+00:00</time></trkpt><trkpt lat="35.01340284" lon="32.82212877"><ele>641.8</ele><time>2015-04-28T11:49:25.0000000+00:00</time></trkpt><trkpt lat="35.01339186" lon="32.82211351"><ele>641.8</ele><time>2015-04-28T11:49:26.0000000+00:00</time></trkpt><trkpt lat="35.01329614" lon="32.82193271"><ele>644.7</ele><time>2015-04-28T11:49:39.0000000+00:00</time></trkpt><trkpt lat="35.01317963" lon="32.82175452"><ele>646.1</ele><time>2015-04-28T11:49:52.0000000+00:00</time></trkpt><trkpt lat="35.01301962" lon="32.82152846"><ele>648.1</ele><time>2015-04-28T11:50:08.0000000+00:00</time></trkpt><trkpt lat="35.01284008" lon="32.82142301"><ele>650.0</ele><time>2015-04-28T11:50:22.0000000+00:00</time></trkpt><trkpt lat="35.0126488" lon="32.82134037"><ele>651.0</ele><time>2015-04-28T11:50:37.0000000+00:00</time></trkpt><trkpt lat="35.01260882" lon="32.82131321"><ele>651.0</ele><time>2015-04-28T11:50:40.0000000+00:00</time></trkpt><trkpt lat="35.01260178" lon="32.82129745"><ele>651.0</ele><time>2015-04-28T11:50:41.0000000+00:00</time></trkpt><trkpt lat="35.01256633" lon="32.82112478"><ele>652.4</ele><time>2015-04-28T11:50:50.0000000+00:00</time></trkpt><trkpt lat="35.01256071" lon="32.82110341"><ele>652.9</ele><time>2015-04-28T11:50:51.0000000+00:00</time></trkpt><trkpt lat="35.01253305" lon="32.82100149"><ele>653.8</ele><time>2015-04-28T11:50:57.0000000+00:00</time></trkpt><trkpt lat="35.01252919" lon="32.82098355"><ele>653.8</ele><time>2015-04-28T11:50:58.0000000+00:00</time></trkpt><trkpt lat="35.01252542" lon="32.82096687"><ele>654.3</ele><time>2015-04-28T11:50:59.0000000+00:00</time></trkpt><trkpt lat="35.01252232" lon="32.82095061"><ele>654.3</ele><time>2015-04-28T11:51:00.0000000+00:00</time></trkpt><trkpt lat="35.0125188" lon="32.82093435"><ele>654.3</ele><time>2015-04-28T11:51:01.0000000+00:00</time></trkpt><trkpt lat="35.01251427" lon="32.82091909"><ele>654.8</ele><time>2015-04-28T11:51:02.0000000+00:00</time></trkpt><trkpt lat="35.01251075" lon="32.82090233"><ele>654.8</ele><time>2015-04-28T11:51:03.0000000+00:00</time></trkpt><trkpt lat="35.01250799" lon="32.82088615"><ele>654.8</ele><time>2015-04-28T11:51:04.0000000+00:00</time></trkpt><trkpt lat="35.01250531" lon="32.82087089"><ele>654.8</ele><time>2015-04-28T11:51:05.0000000+00:00</time></trkpt><trkpt lat="35.01250271" lon="32.82085539"><ele>655.3</ele><time>2015-04-28T11:51:06.0000000+00:00</time></trkpt><trkpt lat="35.01249835" lon="32.82084147"><ele>655.3</ele><time>2015-04-28T11:51:07.0000000+00:00</time></trkpt><trkpt lat="35.01249215" lon="32.82082974"><ele>655.8</ele><time>2015-04-28T11:51:08.0000000+00:00</time></trkpt><trkpt lat="35.01248561" lon="32.82081884"><ele>655.8</ele><time>2015-04-28T11:51:09.0000000+00:00</time></trkpt><trkpt lat="35.01247765" lon="32.82081055"><ele>655.8</ele><time>2015-04-28T11:51:10.0000000+00:00</time></trkpt><trkpt lat="35.0124675" lon="32.82080317"><ele>655.8</ele><time>2015-04-28T11:51:11.0000000+00:00</time></trkpt><trkpt lat="35.01234102" lon="32.82082153"><ele>657.2</ele><time>2015-04-28T11:51:24.0000000+00:00</time></trkpt><trkpt lat="35.01210775" lon="32.82095974"><ele>657.2</ele><time>2015-04-28T11:51:40.0000000+00:00</time></trkpt><trkpt lat="35.01191522" lon="32.82108723"><ele>658.2</ele><time>2015-04-28T11:51:50.0000000+00:00</time></trkpt><trkpt lat="35.01191841" lon="32.82110408"><ele>657.7</ele><time>2015-04-28T11:52:03.0000000+00:00</time></trkpt><trkpt lat="35.01191363" lon="32.82109838"><ele>657.7</ele><time>2015-04-28T11:52:25.0000000+00:00</time></trkpt><trkpt lat="35.0118195" lon="32.8211511"><ele>658.2</ele><time>2015-04-28T11:52:37.0000000+00:00</time></trkpt><trkpt lat="35.0116522" lon="32.82120986"><ele>658.6</ele><time>2015-04-28T11:52:48.0000000+00:00</time></trkpt><trkpt lat="35.01160207" lon="32.82122109"><ele>658.6</ele><time>2015-04-28T11:52:52.0000000+00:00</time></trkpt><trkpt lat="35.01158925" lon="32.82122444"><ele>659.1</ele><time>2015-04-28T11:52:53.0000000+00:00</time></trkpt><trkpt lat="35.01157483" lon="32.82122302"><ele>658.6</ele><time>2015-04-28T11:52:54.0000000+00:00</time></trkpt><trkpt lat="35.011561" lon="32.8212221"><ele>659.1</ele><time>2015-04-28T11:52:55.0000000+00:00</time></trkpt><trkpt lat="35.01154566" lon="32.821219"><ele>659.1</ele><time>2015-04-28T11:52:56.0000000+00:00</time></trkpt><trkpt lat="35.01152823" lon="32.82121556"><ele>659.1</ele><time>2015-04-28T11:52:57.0000000+00:00</time></trkpt><trkpt lat="35.01151289" lon="32.82121154"><ele>659.1</ele><time>2015-04-28T11:52:58.0000000+00:00</time></trkpt><trkpt lat="35.01133394" lon="32.82110156"><ele>660.6</ele><time>2015-04-28T11:53:11.0000000+00:00</time></trkpt><trkpt lat="35.01132111" lon="32.82106016"><ele>661.0</ele><time>2015-04-28T11:53:26.0000000+00:00</time></trkpt><trkpt lat="35.01133201" lon="32.82105999"><ele>661.0</ele><time>2015-04-28T11:53:51.0000000+00:00</time></trkpt><trkpt lat="35.01131591" lon="32.82105345"><ele>661.5</ele><time>2015-04-28T11:54:21.0000000+00:00</time></trkpt><trkpt lat="35.01133452" lon="32.82103292"><ele>661.5</ele><time>2015-04-28T11:54:33.0000000+00:00</time></trkpt><trkpt lat="35.01134181" lon="32.82101347"><ele>661.5</ele><time>2015-04-28T11:54:34.0000000+00:00</time></trkpt><trkpt lat="35.01134533" lon="32.8209905"><ele>662.0</ele><time>2015-04-28T11:54:35.0000000+00:00</time></trkpt><trkpt lat="35.01134391" lon="32.82096905"><ele>662.0</ele><time>2015-04-28T11:54:36.0000000+00:00</time></trkpt><trkpt lat="35.01133947" lon="32.82094608"><ele>662.0</ele><time>2015-04-28T11:54:37.0000000+00:00</time></trkpt><trkpt lat="35.01130535" lon="32.82073896"><ele>664.4</ele><time>2015-04-28T11:54:51.0000000+00:00</time></trkpt><trkpt lat="35.01122422" lon="32.82064115"><ele>665.9</ele><time>2015-04-28T11:55:00.0000000+00:00</time></trkpt><trkpt lat="35.01121257" lon="32.82063251"><ele>665.9</ele><time>2015-04-28T11:55:01.0000000+00:00</time></trkpt><trkpt lat="35.01119974" lon="32.82062639"><ele>665.9</ele><time>2015-04-28T11:55:02.0000000+00:00</time></trkpt><trkpt lat="35.01118633" lon="32.82062204"><ele>665.9</ele><time>2015-04-28T11:55:03.0000000+00:00</time></trkpt><trkpt lat="35.01117409" lon="32.82061885"><ele>666.3</ele><time>2015-04-28T11:55:04.0000000+00:00</time></trkpt><trkpt lat="35.01114333" lon="32.82059723"><ele>666.3</ele><time>2015-04-28T11:55:07.0000000+00:00</time></trkpt><trkpt lat="35.01113025" lon="32.82059312"><ele>666.8</ele><time>2015-04-28T11:55:08.0000000+00:00</time></trkpt><trkpt lat="35.01111735" lon="32.82058893"><ele>666.8</ele><time>2015-04-28T11:55:09.0000000+00:00</time></trkpt><trkpt lat="35.01110259" lon="32.82058566"><ele>666.8</ele><time>2015-04-28T11:55:10.0000000+00:00</time></trkpt><trkpt lat="35.01108659" lon="32.82058381"><ele>666.8</ele><time>2015-04-28T11:55:11.0000000+00:00</time></trkpt><trkpt lat="35.01080646" lon="32.82065741"><ele>666.3</ele><time>2015-04-28T11:55:25.0000000+00:00</time></trkpt><trkpt lat="35.01054394" lon="32.82070518"><ele>667.3</ele><time>2015-04-28T11:55:39.0000000+00:00</time></trkpt><trkpt lat="35.0104934" lon="32.82069856"><ele>667.3</ele><time>2015-04-28T11:55:42.0000000+00:00</time></trkpt><trkpt lat="35.01048242" lon="32.82068138"><ele>667.3</ele><time>2015-04-28T11:55:43.0000000+00:00</time></trkpt><trkpt lat="35.01047563" lon="32.82066068"><ele>667.3</ele><time>2015-04-28T11:55:44.0000000+00:00</time></trkpt><trkpt lat="35.01046901" lon="32.82064106"><ele>667.8</ele><time>2015-04-28T11:55:45.0000000+00:00</time></trkpt><trkpt lat="35.01046046" lon="32.82062011"><ele>667.8</ele><time>2015-04-28T11:55:46.0000000+00:00</time></trkpt><trkpt lat="35.01036423" lon="32.82019733"><ele>669.7</ele><time>2015-04-28T11:56:03.0000000+00:00</time></trkpt><trkpt lat="35.01039332" lon="32.81988543"><ele>671.6</ele><time>2015-04-28T11:56:15.0000000+00:00</time></trkpt><trkpt lat="35.01068325" lon="32.81963775"><ele>673.5</ele><time>2015-04-28T11:56:30.0000000+00:00</time></trkpt><trkpt lat="35.01091274" lon="32.81947749"><ele>675.5</ele><time>2015-04-28T11:56:44.0000000+00:00</time></trkpt><trkpt lat="35.01095843" lon="32.81944999"><ele>675.9</ele><time>2015-04-28T11:56:47.0000000+00:00</time></trkpt><trkpt lat="35.01120041" lon="32.81933835"><ele>677.4</ele><time>2015-04-28T11:57:01.0000000+00:00</time></trkpt><trkpt lat="35.01126814" lon="32.81926023"><ele>678.4</ele><time>2015-04-28T11:57:08.0000000+00:00</time></trkpt><trkpt lat="35.01146184" lon="32.81909343"><ele>680.8</ele><time>2015-04-28T11:57:22.0000000+00:00</time></trkpt><trkpt lat="35.01164901" lon="32.81888539"><ele>682.7</ele><time>2015-04-28T11:57:37.0000000+00:00</time></trkpt><trkpt lat="35.01164323" lon="32.81872261"><ele>683.6</ele><time>2015-04-28T11:57:47.0000000+00:00</time></trkpt><trkpt lat="35.01160702" lon="32.81864382"><ele>683.2</ele><time>2015-04-28T11:57:55.0000000+00:00</time></trkpt><trkpt lat="35.01159889" lon="32.81863301"><ele>683.2</ele><time>2015-04-28T11:57:56.0000000+00:00</time></trkpt><trkpt lat="35.0115724" lon="32.81855883"><ele>682.7</ele><time>2015-04-28T11:58:09.0000000+00:00</time></trkpt><trkpt lat="35.01155924" lon="32.81847308"><ele>682.2</ele><time>2015-04-28T11:58:26.0000000+00:00</time></trkpt><trkpt lat="35.01155748" lon="32.81827485"><ele>680.3</ele><time>2015-04-28T11:58:30.0000000+00:00</time></trkpt><trkpt lat="35.0115646" lon="32.81821853"><ele>679.8</ele><time>2015-04-28T11:58:31.0000000+00:00</time></trkpt><trkpt lat="35.01158003" lon="32.81815834"><ele>679.3</ele><time>2015-04-28T11:58:32.0000000+00:00</time></trkpt><trkpt lat="35.01160559" lon="32.81809498"><ele>678.8</ele><time>2015-04-28T11:58:33.0000000+00:00</time></trkpt><trkpt lat="35.01163552" lon="32.81803739"><ele>678.4</ele><time>2015-04-28T11:58:34.0000000+00:00</time></trkpt><trkpt lat="35.01166477" lon="32.81799205"><ele>677.9</ele><time>2015-04-28T11:58:35.0000000+00:00</time></trkpt><trkpt lat="35.0116931" lon="32.8179498"><ele>676.9</ele><time>2015-04-28T11:58:36.0000000+00:00</time></trkpt><trkpt lat="35.01171581" lon="32.81790286"><ele>676.4</ele><time>2015-04-28T11:58:37.0000000+00:00</time></trkpt><trkpt lat="35.01173006" lon="32.8178488"><ele>675.5</ele><time>2015-04-28T11:58:38.0000000+00:00</time></trkpt><trkpt lat="35.01172478" lon="32.8177944"><ele>675.5</ele><time>2015-04-28T11:58:39.0000000+00:00</time></trkpt><trkpt lat="35.01170165" lon="32.81775601"><ele>675.5</ele><time>2015-04-28T11:58:40.0000000+00:00</time></trkpt><trkpt lat="35.01167315" lon="32.81773447"><ele>675.9</ele><time>2015-04-28T11:58:41.0000000+00:00</time></trkpt><trkpt lat="35.01164926" lon="32.81772173"><ele>676.4</ele><time>2015-04-28T11:58:42.0000000+00:00</time></trkpt><trkpt lat="35.01149554" lon="32.81752031"><ele>675.5</ele><time>2015-04-28T11:58:50.0000000+00:00</time></trkpt><trkpt lat="35.01146226" lon="32.81750388"><ele>675.5</ele><time>2015-04-28T11:58:51.0000000+00:00</time></trkpt><trkpt lat="35.01142857" lon="32.81749718"><ele>675.9</ele><time>2015-04-28T11:58:52.0000000+00:00</time></trkpt><trkpt lat="35.01113931" lon="32.81772651"><ele>676.4</ele><time>2015-04-28T11:59:03.0000000+00:00</time></trkpt><trkpt lat="35.01097586" lon="32.81797319"><ele>676.4</ele><time>2015-04-28T11:59:14.0000000+00:00</time></trkpt><trkpt lat="35.0109508" lon="32.81796154"><ele>676.9</ele><time>2015-04-28T11:59:15.0000000+00:00</time></trkpt><trkpt lat="35.01092725" lon="32.8179415"><ele>676.4</ele><time>2015-04-28T11:59:16.0000000+00:00</time></trkpt><trkpt lat="35.01087754" lon="32.81788711"><ele>675.9</ele><time>2015-04-28T11:59:18.0000000+00:00</time></trkpt><trkpt lat="35.01084309" lon="32.81785903"><ele>675.9</ele><time>2015-04-28T11:59:19.0000000+00:00</time></trkpt><trkpt lat="35.0108021" lon="32.81783581"><ele>675.5</ele><time>2015-04-28T11:59:20.0000000+00:00</time></trkpt><trkpt lat="35.01075751" lon="32.81781703"><ele>675.5</ele><time>2015-04-28T11:59:21.0000000+00:00</time></trkpt><trkpt lat="35.01071208" lon="32.8177996"><ele>675.5</ele><time>2015-04-28T11:59:22.0000000+00:00</time></trkpt><trkpt lat="35.01066891" lon="32.81777831"><ele>675.5</ele><time>2015-04-28T11:59:23.0000000+00:00</time></trkpt><trkpt lat="35.01062927" lon="32.81774922"><ele>675.5</ele><time>2015-04-28T11:59:24.0000000+00:00</time></trkpt><trkpt lat="35.010597" lon="32.8177136"><ele>675.5</ele><time>2015-04-28T11:59:25.0000000+00:00</time></trkpt><trkpt lat="35.01057018" lon="32.81767488"><ele>675.5</ele><time>2015-04-28T11:59:26.0000000+00:00</time></trkpt><trkpt lat="35.01054562" lon="32.81762995"><ele>675.5</ele><time>2015-04-28T11:59:27.0000000+00:00</time></trkpt><trkpt lat="35.01052315" lon="32.8175789"><ele>675.0</ele><time>2015-04-28T11:59:28.0000000+00:00</time></trkpt><trkpt lat="35.01050388" lon="32.81752316"><ele>674.5</ele><time>2015-04-28T11:59:29.0000000+00:00</time></trkpt><trkpt lat="35.0104851" lon="32.81746524"><ele>674.5</ele><time>2015-04-28T11:59:30.0000000+00:00</time></trkpt><trkpt lat="35.01045258" lon="32.81735335"><ele>674.5</ele><time>2015-04-28T11:59:32.0000000+00:00</time></trkpt><trkpt lat="35.01038452" lon="32.81712846"><ele>675.0</ele><time>2015-04-28T11:59:41.0000000+00:00</time></trkpt><trkpt lat="35.01037236" lon="32.81711195"><ele>674.0</ele><time>2015-04-28T12:00:11.0000000+00:00</time></trkpt><trkpt lat="35.0103696" lon="32.81710248"><ele>674.5</ele><time>2015-04-28T12:00:57.0000000+00:00</time></trkpt><trkpt lat="35.01038125" lon="32.8171039"><ele>674.0</ele><time>2015-04-28T12:01:31.0000000+00:00</time></trkpt><trkpt lat="35.0103722" lon="32.8171008"><ele>674.5</ele><time>2015-04-28T12:02:10.0000000+00:00</time></trkpt><trkpt lat="35.01036406" lon="32.8170951"><ele>675.0</ele><time>2015-04-28T12:02:44.0000000+00:00</time></trkpt><trkpt lat="35.01036339" lon="32.81709468"><ele>675.0</ele><time>2015-04-28T12:03:16.0000000+00:00</time></trkpt><trkpt lat="35.01035895" lon="32.8170946"><ele>675.0</ele><time>2015-04-28T12:03:50.0000000+00:00</time></trkpt><trkpt lat="35.01037295" lon="32.81712117"><ele>675.5</ele><time>2015-04-28T12:04:27.0000000+00:00</time></trkpt><trkpt lat="35.01034462" lon="32.81712913"><ele>675.5</ele><time>2015-04-28T12:04:30.0000000+00:00</time></trkpt><trkpt lat="35.0101893" lon="32.81713936"><ele>676.4</ele><time>2015-04-28T12:04:41.0000000+00:00</time></trkpt><trkpt lat="35.00997104" lon="32.8173137"><ele>676.4</ele><time>2015-04-28T12:04:55.0000000+00:00</time></trkpt><trkpt lat="35.00968236" lon="32.81759944"><ele>673.5</ele><time>2015-04-28T12:05:05.0000000+00:00</time></trkpt><trkpt lat="35.00964641" lon="32.8176281"><ele>673.1</ele><time>2015-04-28T12:05:06.0000000+00:00</time></trkpt><trkpt lat="35.00961355" lon="32.81766197"><ele>672.6</ele><time>2015-04-28T12:05:07.0000000+00:00</time></trkpt><trkpt lat="35.00958304" lon="32.81769876"><ele>672.1</ele><time>2015-04-28T12:05:08.0000000+00:00</time></trkpt><trkpt lat="35.00941549" lon="32.81789423"><ele>669.2</ele><time>2015-04-28T12:05:13.0000000+00:00</time></trkpt><trkpt lat="35.00933812" lon="32.81795894"><ele>668.3</ele><time>2015-04-28T12:05:15.0000000+00:00</time></trkpt><trkpt lat="35.00920845" lon="32.81803052"><ele>666.3</ele><time>2015-04-28T12:05:18.0000000+00:00</time></trkpt><trkpt lat="35.00916847" lon="32.81804318"><ele>665.9</ele><time>2015-04-28T12:05:19.0000000+00:00</time></trkpt><trkpt lat="35.00892665" lon="32.81804997"><ele>663.5</ele><time>2015-04-28T12:05:25.0000000+00:00</time></trkpt><trkpt lat="35.00889354" lon="32.81801904"><ele>663.0</ele><time>2015-04-28T12:05:26.0000000+00:00</time></trkpt><trkpt lat="35.00885457" lon="32.81797981"><ele>662.5</ele><time>2015-04-28T12:05:27.0000000+00:00</time></trkpt><trkpt lat="35.00871291" lon="32.81784779"><ele>661.5</ele><time>2015-04-28T12:05:30.0000000+00:00</time></trkpt><trkpt lat="35.00866748" lon="32.81778652"><ele>661.0</ele><time>2015-04-28T12:05:31.0000000+00:00</time></trkpt><trkpt lat="35.00862298" lon="32.81771855"><ele>660.1</ele><time>2015-04-28T12:05:32.0000000+00:00</time></trkpt><trkpt lat="35.00849063" lon="32.81745393"><ele>658.6</ele><time>2015-04-28T12:05:36.0000000+00:00</time></trkpt><trkpt lat="35.00847772" lon="32.81738067"><ele>657.7</ele><time>2015-04-28T12:05:37.0000000+00:00</time></trkpt><trkpt lat="35.00847671" lon="32.81730632"><ele>657.7</ele><time>2015-04-28T12:05:38.0000000+00:00</time></trkpt><trkpt lat="35.00848141" lon="32.81723114"><ele>657.2</ele><time>2015-04-28T12:05:39.0000000+00:00</time></trkpt><trkpt lat="35.00849096" lon="32.81715679"><ele>657.7</ele><time>2015-04-28T12:05:40.0000000+00:00</time></trkpt><trkpt lat="35.00849582" lon="32.81708202"><ele>657.7</ele><time>2015-04-28T12:05:41.0000000+00:00</time></trkpt><trkpt lat="35.00848032" lon="32.81681539"><ele>656.2</ele><time>2015-04-28T12:05:45.0000000+00:00</time></trkpt><trkpt lat="35.00844411" lon="32.816762"><ele>655.8</ele><time>2015-04-28T12:05:46.0000000+00:00</time></trkpt><trkpt lat="35.00839675" lon="32.81672705"><ele>655.8</ele><time>2015-04-28T12:05:47.0000000+00:00</time></trkpt><trkpt lat="35.00834512" lon="32.81671406"><ele>655.8</ele><time>2015-04-28T12:05:48.0000000+00:00</time></trkpt><trkpt lat="35.00829256" lon="32.81671355"><ele>655.8</ele><time>2015-04-28T12:05:49.0000000+00:00</time></trkpt><trkpt lat="35.00823984" lon="32.81671758"><ele>655.3</ele><time>2015-04-28T12:05:50.0000000+00:00</time></trkpt><trkpt lat="35.00807337" lon="32.81672303"><ele>653.8</ele><time>2015-04-28T12:05:53.0000000+00:00</time></trkpt><trkpt lat="35.00802023" lon="32.81670769"><ele>653.4</ele><time>2015-04-28T12:05:54.0000000+00:00</time></trkpt><trkpt lat="35.00797162" lon="32.81667391"><ele>653.4</ele><time>2015-04-28T12:05:55.0000000+00:00</time></trkpt><trkpt lat="35.00792879" lon="32.81662529"><ele>652.9</ele><time>2015-04-28T12:05:56.0000000+00:00</time></trkpt><trkpt lat="35.00789333" lon="32.81656637"><ele>652.4</ele><time>2015-04-28T12:05:57.0000000+00:00</time></trkpt><trkpt lat="35.00786265" lon="32.81650568"><ele>651.9</ele><time>2015-04-28T12:05:58.0000000+00:00</time></trkpt><trkpt lat="35.0077764" lon="32.81635984"><ele>651.0</ele><time>2015-04-28T12:06:01.0000000+00:00</time></trkpt><trkpt lat="35.00770331" lon="32.81626856"><ele>650.0</ele><time>2015-04-28T12:06:03.0000000+00:00</time></trkpt><trkpt lat="35.00767951" lon="32.81621081"><ele>649.5</ele><time>2015-04-28T12:06:04.0000000+00:00</time></trkpt><trkpt lat="35.00766987" lon="32.81614132"><ele>649.0</ele><time>2015-04-28T12:06:05.0000000+00:00</time></trkpt><trkpt lat="35.00766182" lon="32.81599372"><ele>647.6</ele><time>2015-04-28T12:06:07.0000000+00:00</time></trkpt><trkpt lat="35.00765076" lon="32.81593119"><ele>647.1</ele><time>2015-04-28T12:06:08.0000000+00:00</time></trkpt><trkpt lat="35.00761304" lon="32.81574436"><ele>645.7</ele><time>2015-04-28T12:06:11.0000000+00:00</time></trkpt><trkpt lat="35.00759661" lon="32.81568593"><ele>645.7</ele><time>2015-04-28T12:06:12.0000000+00:00</time></trkpt><trkpt lat="35.00757691" lon="32.81563229"><ele>645.2</ele><time>2015-04-28T12:06:13.0000000+00:00</time></trkpt><trkpt lat="35.00755504" lon="32.81558812"><ele>644.7</ele><time>2015-04-28T12:06:14.0000000+00:00</time></trkpt><trkpt lat="35.00743769" lon="32.81534353"><ele>641.8</ele><time>2015-04-28T12:06:21.0000000+00:00</time></trkpt><trkpt lat="35.0073335" lon="32.81509811"><ele>638.9</ele><time>2015-04-28T12:06:31.0000000+00:00</time></trkpt><trkpt lat="35.00723535" lon="32.81502033"><ele>638.0</ele><time>2015-04-28T12:06:35.0000000+00:00</time></trkpt><trkpt lat="35.00715069" lon="32.81505989"><ele>637.5</ele><time>2015-04-28T12:06:45.0000000+00:00</time></trkpt><trkpt lat="35.00714064" lon="32.81508311"><ele>638.0</ele><time>2015-04-28T12:06:56.0000000+00:00</time></trkpt><trkpt lat="35.00712974" lon="32.81513306"><ele>638.0</ele><time>2015-04-28T12:07:00.0000000+00:00</time></trkpt><trkpt lat="35.00712371" lon="32.8151717"><ele>638.5</ele><time>2015-04-28T12:07:02.0000000+00:00</time></trkpt><trkpt lat="35.00709269" lon="32.81535904"><ele>638.9</ele><time>2015-04-28T12:07:11.0000000+00:00</time></trkpt><trkpt lat="35.00704885" lon="32.81569197"><ele>640.4</ele><time>2015-04-28T12:07:25.0000000+00:00</time></trkpt><trkpt lat="35.00702019" lon="32.81610469"><ele>642.3</ele><time>2015-04-28T12:07:40.0000000+00:00</time></trkpt><trkpt lat="35.00706109" lon="32.81651759"><ele>644.2</ele><time>2015-04-28T12:07:54.0000000+00:00</time></trkpt><trkpt lat="35.00703209" lon="32.81701732"><ele>646.6</ele><time>2015-04-28T12:08:11.0000000+00:00</time></trkpt><trkpt lat="35.0071693" lon="32.8174727"><ele>648.6</ele><time>2015-04-28T12:08:27.0000000+00:00</time></trkpt><trkpt lat="35.00720333" lon="32.81791762"><ele>648.6</ele><time>2015-04-28T12:08:41.0000000+00:00</time></trkpt><trkpt lat="35.00718808" lon="32.81826555"><ele>649.0</ele><time>2015-04-28T12:08:53.0000000+00:00</time></trkpt><trkpt lat="35.00732428" lon="32.81877693"><ele>648.6</ele><time>2015-04-28T12:09:10.0000000+00:00</time></trkpt><trkpt lat="35.0073708" lon="32.81923659"><ele>648.6</ele><time>2015-04-28T12:09:23.0000000+00:00</time></trkpt><trkpt lat="35.00713921" lon="32.81963984"><ele>649.0</ele><time>2015-04-28T12:09:36.0000000+00:00</time></trkpt><trkpt lat="35.006859" lon="32.81992885"><ele>651.0</ele><time>2015-04-28T12:09:49.0000000+00:00</time></trkpt><trkpt lat="35.00685406" lon="32.81996054"><ele>651.0</ele><time>2015-04-28T12:09:50.0000000+00:00</time></trkpt><trkpt lat="35.00685741" lon="32.81999163"><ele>651.0</ele><time>2015-04-28T12:09:51.0000000+00:00</time></trkpt><trkpt lat="35.0068704" lon="32.82001887"><ele>651.0</ele><time>2015-04-28T12:09:52.0000000+00:00</time></trkpt><trkpt lat="35.00688817" lon="32.8200441"><ele>651.0</ele><time>2015-04-28T12:09:53.0000000+00:00</time></trkpt><trkpt lat="35.00690972" lon="32.82007017"><ele>651.0</ele><time>2015-04-28T12:09:54.0000000+00:00</time></trkpt><trkpt lat="35.00714256" lon="32.82016858"><ele>649.0</ele><time>2015-04-28T12:10:03.0000000+00:00</time></trkpt><trkpt lat="35.00737801" lon="32.82018593"><ele>648.1</ele><time>2015-04-28T12:10:08.0000000+00:00</time></trkpt><trkpt lat="35.00743132" lon="32.8202052"><ele>647.6</ele><time>2015-04-28T12:10:09.0000000+00:00</time></trkpt><trkpt lat="35.00747826" lon="32.82023245"><ele>647.1</ele><time>2015-04-28T12:10:10.0000000+00:00</time></trkpt><trkpt lat="35.00751656" lon="32.82026731"><ele>647.1</ele><time>2015-04-28T12:10:11.0000000+00:00</time></trkpt><trkpt lat="35.00754456" lon="32.82030746"><ele>647.1</ele><time>2015-04-28T12:10:12.0000000+00:00</time></trkpt><trkpt lat="35.00755881" lon="32.82034862"><ele>646.6</ele><time>2015-04-28T12:10:13.0000000+00:00</time></trkpt><trkpt lat="35.00756057" lon="32.82039019"><ele>646.6</ele><time>2015-04-28T12:10:14.0000000+00:00</time></trkpt><trkpt lat="35.00755252" lon="32.82042699"><ele>646.6</ele><time>2015-04-28T12:10:15.0000000+00:00</time></trkpt><trkpt lat="35.00753777" lon="32.82045909"><ele>646.6</ele><time>2015-04-28T12:10:16.0000000+00:00</time></trkpt><trkpt lat="35.00751816" lon="32.82048474"><ele>646.6</ele><time>2015-04-28T12:10:17.0000000+00:00</time></trkpt><trkpt lat="35.00749737" lon="32.82050653"><ele>647.1</ele><time>2015-04-28T12:10:18.0000000+00:00</time></trkpt><trkpt lat="35.00727014" lon="32.82076537"><ele>646.6</ele><time>2015-04-28T12:10:28.0000000+00:00</time></trkpt><trkpt lat="35.00726226" lon="32.82081239"><ele>646.6</ele><time>2015-04-28T12:10:29.0000000+00:00</time></trkpt><trkpt lat="35.00726125" lon="32.82085916"><ele>646.6</ele><time>2015-04-28T12:10:30.0000000+00:00</time></trkpt><trkpt lat="35.0072641" lon="32.82090484"><ele>646.6</ele><time>2015-04-28T12:10:31.0000000+00:00</time></trkpt><trkpt lat="35.00726737" lon="32.82095019"><ele>646.6</ele><time>2015-04-28T12:10:32.0000000+00:00</time></trkpt><trkpt lat="35.0072698" lon="32.8209931"><ele>646.6</ele><time>2015-04-28T12:10:33.0000000+00:00</time></trkpt><trkpt lat="35.00735756" lon="32.82162921"><ele>647.1</ele><time>2015-04-28T12:10:47.0000000+00:00</time></trkpt><trkpt lat="35.00734985" lon="32.82201972"><ele>647.6</ele><time>2015-04-28T12:11:00.0000000+00:00</time></trkpt><trkpt lat="35.00719671" lon="32.82226791"><ele>645.7</ele><time>2015-04-28T12:11:07.0000000+00:00</time></trkpt><trkpt lat="35.00715832" lon="32.82227905"><ele>645.7</ele><time>2015-04-28T12:11:08.0000000+00:00</time></trkpt><trkpt lat="35.00712236" lon="32.82228048"><ele>645.7</ele><time>2015-04-28T12:11:09.0000000+00:00</time></trkpt><trkpt lat="35.00709278" lon="32.82227595"><ele>645.7</ele><time>2015-04-28T12:11:10.0000000+00:00</time></trkpt><trkpt lat="35.00706654" lon="32.82227101"><ele>646.1</ele><time>2015-04-28T12:11:11.0000000+00:00</time></trkpt><trkpt lat="35.00703737" lon="32.82226849"><ele>646.1</ele><time>2015-04-28T12:11:12.0000000+00:00</time></trkpt><trkpt lat="35.0070072" lon="32.82226489"><ele>645.7</ele><time>2015-04-28T12:11:13.0000000+00:00</time></trkpt><trkpt lat="35.006916" lon="32.82226556"><ele>646.6</ele><time>2015-04-28T12:11:16.0000000+00:00</time></trkpt><trkpt lat="35.00689287" lon="32.82227914"><ele>646.1</ele><time>2015-04-28T12:11:17.0000000+00:00</time></trkpt><trkpt lat="35.00653999" lon="32.82249237"><ele>646.1</ele><time>2015-04-28T12:11:29.0000000+00:00</time></trkpt><trkpt lat="35.00616247" lon="32.82267217"><ele>645.7</ele><time>2015-04-28T12:11:42.0000000+00:00</time></trkpt><trkpt lat="35.00589106" lon="32.82293779"><ele>645.2</ele><time>2015-04-28T12:11:53.0000000+00:00</time></trkpt><trkpt lat="35.00556903" lon="32.8231698"><ele>645.7</ele><time>2015-04-28T12:12:06.0000000+00:00</time></trkpt><trkpt lat="35.00550851" lon="32.82357766"><ele>646.1</ele><time>2015-04-28T12:12:17.0000000+00:00</time></trkpt><trkpt lat="35.00542721" lon="32.82368671"><ele>645.7</ele><time>2015-04-28T12:12:22.0000000+00:00</time></trkpt><trkpt lat="35.00539712" lon="32.8236956"><ele>645.2</ele><time>2015-04-28T12:12:23.0000000+00:00</time></trkpt><trkpt lat="35.0053677" lon="32.8236992"><ele>645.2</ele><time>2015-04-28T12:12:24.0000000+00:00</time></trkpt><trkpt lat="35.00533719" lon="32.82368981"><ele>644.7</ele><time>2015-04-28T12:12:25.0000000+00:00</time></trkpt><trkpt lat="35.00530416" lon="32.82367028"><ele>644.2</ele><time>2015-04-28T12:12:26.0000000+00:00</time></trkpt><trkpt lat="35.00526711" lon="32.82363935"><ele>643.7</ele><time>2015-04-28T12:12:27.0000000+00:00</time></trkpt><trkpt lat="35.00522353" lon="32.82360842"><ele>643.3</ele><time>2015-04-28T12:12:28.0000000+00:00</time></trkpt><trkpt lat="35.00517298" lon="32.82359065"><ele>643.3</ele><time>2015-04-28T12:12:29.0000000+00:00</time></trkpt><trkpt lat="35.00511884" lon="32.82359074"><ele>642.8</ele><time>2015-04-28T12:12:30.0000000+00:00</time></trkpt><trkpt lat="35.00506561" lon="32.82360507"><ele>642.8</ele><time>2015-04-28T12:12:31.0000000+00:00</time></trkpt><trkpt lat="35.00501909" lon="32.82362971"><ele>642.3</ele><time>2015-04-28T12:12:32.0000000+00:00</time></trkpt><trkpt lat="35.00497735" lon="32.8236567"><ele>641.8</ele><time>2015-04-28T12:12:33.0000000+00:00</time></trkpt><trkpt lat="35.00489823" lon="32.82369593"><ele>641.3</ele><time>2015-04-28T12:12:35.0000000+00:00</time></trkpt><trkpt lat="35.00485917" lon="32.82370322"><ele>640.9</ele><time>2015-04-28T12:12:36.0000000+00:00</time></trkpt><trkpt lat="35.00481818" lon="32.82369979"><ele>640.4</ele><time>2015-04-28T12:12:37.0000000+00:00</time></trkpt><trkpt lat="35.00478004" lon="32.82368663"><ele>639.9</ele><time>2015-04-28T12:12:38.0000000+00:00</time></trkpt><trkpt lat="35.00474861" lon="32.82366307"><ele>639.9</ele><time>2015-04-28T12:12:39.0000000+00:00</time></trkpt><trkpt lat="35.00472363" lon="32.8236298"><ele>639.4</ele><time>2015-04-28T12:12:40.0000000+00:00</time></trkpt><trkpt lat="35.00469849" lon="32.82359024"><ele>639.4</ele><time>2015-04-28T12:12:41.0000000+00:00</time></trkpt><trkpt lat="35.00466856" lon="32.82354833"><ele>639.4</ele><time>2015-04-28T12:12:42.0000000+00:00</time></trkpt><trkpt lat="35.00462908" lon="32.82351941"><ele>638.9</ele><time>2015-04-28T12:12:43.0000000+00:00</time></trkpt><trkpt lat="35.00458139" lon="32.82350977"><ele>638.5</ele><time>2015-04-28T12:12:44.0000000+00:00</time></trkpt><trkpt lat="35.00452691" lon="32.82352217"><ele>638.0</ele><time>2015-04-28T12:12:45.0000000+00:00</time></trkpt><trkpt lat="35.00447796" lon="32.82355537"><ele>638.0</ele><time>2015-04-28T12:12:46.0000000+00:00</time></trkpt><trkpt lat="35.0044327" lon="32.82360239"><ele>637.5</ele><time>2015-04-28T12:12:47.0000000+00:00</time></trkpt><trkpt lat="35.00438383" lon="32.82364522"><ele>637.0</ele><time>2015-04-28T12:12:48.0000000+00:00</time></trkpt><trkpt lat="35.00433102" lon="32.82367774"><ele>637.0</ele><time>2015-04-28T12:12:49.0000000+00:00</time></trkpt><trkpt lat="35.0042788" lon="32.82370448"><ele>637.0</ele><time>2015-04-28T12:12:50.0000000+00:00</time></trkpt><trkpt lat="35.00404285" lon="32.82386365"><ele>637.5</ele><time>2015-04-28T12:12:56.0000000+00:00</time></trkpt><trkpt lat="35.00401603" lon="32.8239059"><ele>637.5</ele><time>2015-04-28T12:12:57.0000000+00:00</time></trkpt><trkpt lat="35.00399415" lon="32.82395217"><ele>637.5</ele><time>2015-04-28T12:12:58.0000000+00:00</time></trkpt><trkpt lat="35.00372887" lon="32.82439934"><ele>638.0</ele><time>2015-04-28T12:13:11.0000000+00:00</time></trkpt><trkpt lat="35.00335663" lon="32.82443773"><ele>639.4</ele><time>2015-04-28T12:13:24.0000000+00:00</time></trkpt><trkpt lat="35.00295673" lon="32.82418527"><ele>639.4</ele><time>2015-04-28T12:13:39.0000000+00:00</time></trkpt><trkpt lat="35.00283661" lon="32.82409022"><ele>638.9</ele><time>2015-04-28T12:13:43.0000000+00:00</time></trkpt><trkpt lat="35.00280602" lon="32.82405426"><ele>638.9</ele><time>2015-04-28T12:13:44.0000000+00:00</time></trkpt><trkpt lat="35.00278674" lon="32.82402341"><ele>638.5</ele><time>2015-04-28T12:13:45.0000000+00:00</time></trkpt><trkpt lat="35.00268364" lon="32.82387178"><ele>637.0</ele><time>2015-04-28T12:13:57.0000000+00:00</time></trkpt><trkpt lat="35.0026761" lon="32.82384429"><ele>636.5</ele><time>2015-04-28T12:13:59.0000000+00:00</time></trkpt><trkpt lat="35.00255859" lon="32.82369568"><ele>635.1</ele><time>2015-04-28T12:14:04.0000000+00:00</time></trkpt><trkpt lat="35.00252137" lon="32.82365679"><ele>634.6</ele><time>2015-04-28T12:14:05.0000000+00:00</time></trkpt><trkpt lat="35.00248633" lon="32.82361857"><ele>634.1</ele><time>2015-04-28T12:14:06.0000000+00:00</time></trkpt><trkpt lat="35.00242615" lon="32.82353986"><ele>633.2</ele><time>2015-04-28T12:14:08.0000000+00:00</time></trkpt><trkpt lat="35.00240469" lon="32.82349619"><ele>633.2</ele><time>2015-04-28T12:14:09.0000000+00:00</time></trkpt><trkpt lat="35.00238885" lon="32.82344749"><ele>632.7</ele><time>2015-04-28T12:14:10.0000000+00:00</time></trkpt><trkpt lat="35.00237008" lon="32.82339695"><ele>632.2</ele><time>2015-04-28T12:14:11.0000000+00:00</time></trkpt><trkpt lat="35.00234175" lon="32.82335009"><ele>631.7</ele><time>2015-04-28T12:14:12.0000000+00:00</time></trkpt><trkpt lat="35.00230855" lon="32.82331129"><ele>631.2</ele><time>2015-04-28T12:14:13.0000000+00:00</time></trkpt><trkpt lat="35.00227586" lon="32.82328161"><ele>631.2</ele><time>2015-04-28T12:14:14.0000000+00:00</time></trkpt><trkpt lat="35.00224317" lon="32.8232563"><ele>631.2</ele><time>2015-04-28T12:14:15.0000000+00:00</time></trkpt><trkpt lat="35.00203212" lon="32.82294877"><ele>628.4</ele><time>2015-04-28T12:14:22.0000000+00:00</time></trkpt><trkpt lat="35.00186356" lon="32.82261333"><ele>625.5</ele><time>2015-04-28T12:14:31.0000000+00:00</time></trkpt><trkpt lat="35.0018328" lon="32.82254367"><ele>624.5</ele><time>2015-04-28T12:14:33.0000000+00:00</time></trkpt><trkpt lat="35.00172752" lon="32.82227579"><ele>621.2</ele><time>2015-04-28T12:14:40.0000000+00:00</time></trkpt><trkpt lat="35.00167354" lon="32.82222801"><ele>620.7</ele><time>2015-04-28T12:14:42.0000000+00:00</time></trkpt><trkpt lat="35.00159215" lon="32.82218987"><ele>620.2</ele><time>2015-04-28T12:14:44.0000000+00:00</time></trkpt><trkpt lat="35.00155779" lon="32.82216406"><ele>619.7</ele><time>2015-04-28T12:14:45.0000000+00:00</time></trkpt><trkpt lat="35.00149601" lon="32.82211821"><ele>618.8</ele><time>2015-04-28T12:14:47.0000000+00:00</time></trkpt><trkpt lat="35.00145921" lon="32.82210186"><ele>618.8</ele><time>2015-04-28T12:14:48.0000000+00:00</time></trkpt><trkpt lat="35.00142233" lon="32.82209859"><ele>618.8</ele><time>2015-04-28T12:14:49.0000000+00:00</time></trkpt><trkpt lat="35.00139023" lon="32.82211351"><ele>618.8</ele><time>2015-04-28T12:14:50.0000000+00:00</time></trkpt><trkpt lat="35.00136207" lon="32.82214285"><ele>619.2</ele><time>2015-04-28T12:14:51.0000000+00:00</time></trkpt><trkpt lat="35.00134463" lon="32.82217789"><ele>619.2</ele><time>2015-04-28T12:14:52.0000000+00:00</time></trkpt><trkpt lat="35.0013422" lon="32.82221116"><ele>620.2</ele><time>2015-04-28T12:14:53.0000000+00:00</time></trkpt><trkpt lat="35.00134111" lon="32.8222348"><ele>620.7</ele><time>2015-04-28T12:14:54.0000000+00:00</time></trkpt><trkpt lat="35.00133818" lon="32.8222519"><ele>621.2</ele><time>2015-04-28T12:14:55.0000000+00:00</time></trkpt><trkpt lat="35.00133357" lon="32.82226011"><ele>620.7</ele><time>2015-04-28T12:14:56.0000000+00:00</time></trkpt><trkpt lat="35.00132904" lon="32.82227067"><ele>621.2</ele><time>2015-04-28T12:14:57.0000000+00:00</time></trkpt><trkpt lat="35.00132234" lon="32.82231082"><ele>622.1</ele><time>2015-04-28T12:15:07.0000000+00:00</time></trkpt><trkpt lat="35.00128982" lon="32.82250805"><ele>624.5</ele><time>2015-04-28T12:15:19.0000000+00:00</time></trkpt><trkpt lat="35.00127657" lon="32.82257468"><ele>625.0</ele><time>2015-04-28T12:15:25.0000000+00:00</time></trkpt><trkpt lat="35.00126484" lon="32.82262271"><ele>625.5</ele><time>2015-04-28T12:15:29.0000000+00:00</time></trkpt><trkpt lat="35.00122704" lon="32.82281441"><ele>626.9</ele><time>2015-04-28T12:15:45.0000000+00:00</time></trkpt><trkpt lat="35.00122737" lon="32.82291298"><ele>627.9</ele><time>2015-04-28T12:15:52.0000000+00:00</time></trkpt><trkpt lat="35.0012241" lon="32.82292597"><ele>627.9</ele><time>2015-04-28T12:15:53.0000000+00:00</time></trkpt><trkpt lat="35.00122276" lon="32.82296478"><ele>627.9</ele><time>2015-04-28T12:15:56.0000000+00:00</time></trkpt><trkpt lat="35.00122243" lon="32.82297777"><ele>628.4</ele><time>2015-04-28T12:15:57.0000000+00:00</time></trkpt><trkpt lat="35.00122041" lon="32.82298967"><ele>628.4</ele><time>2015-04-28T12:15:58.0000000+00:00</time></trkpt><trkpt lat="35.00121807" lon="32.82300233"><ele>628.4</ele><time>2015-04-28T12:15:59.0000000+00:00</time></trkpt><trkpt lat="35.0012153" lon="32.82301549"><ele>628.8</ele><time>2015-04-28T12:16:00.0000000+00:00</time></trkpt><trkpt lat="35.0012101" lon="32.82302957"><ele>628.8</ele><time>2015-04-28T12:16:01.0000000+00:00</time></trkpt><trkpt lat="35.00120474" lon="32.82304323"><ele>628.8</ele><time>2015-04-28T12:16:02.0000000+00:00</time></trkpt><trkpt lat="35.00117498" lon="32.82310274"><ele>628.8</ele><time>2015-04-28T12:16:07.0000000+00:00</time></trkpt><trkpt lat="35.00116442" lon="32.82311155"><ele>629.3</ele><time>2015-04-28T12:16:08.0000000+00:00</time></trkpt><trkpt lat="35.00115789" lon="32.82312487"><ele>629.3</ele><time>2015-04-28T12:16:09.0000000+00:00</time></trkpt><trkpt lat="35.00115185" lon="32.82313728"><ele>629.3</ele><time>2015-04-28T12:16:10.0000000+00:00</time></trkpt><trkpt lat="35.00114422" lon="32.82314985"><ele>629.3</ele><time>2015-04-28T12:16:11.0000000+00:00</time></trkpt><trkpt lat="35.00113643" lon="32.82316159"><ele>629.3</ele><time>2015-04-28T12:16:12.0000000+00:00</time></trkpt><trkpt lat="35.00112704" lon="32.8231719"><ele>629.8</ele><time>2015-04-28T12:16:13.0000000+00:00</time></trkpt><trkpt lat="35.00111631" lon="32.82318128"><ele>629.8</ele><time>2015-04-28T12:16:14.0000000+00:00</time></trkpt><trkpt lat="35.00110575" lon="32.82318941"><ele>629.8</ele><time>2015-04-28T12:16:15.0000000+00:00</time></trkpt><trkpt lat="35.00109552" lon="32.8231993"><ele>629.8</ele><time>2015-04-28T12:16:16.0000000+00:00</time></trkpt><trkpt lat="35.00108396" lon="32.82320643"><ele>630.3</ele><time>2015-04-28T12:16:17.0000000+00:00</time></trkpt><trkpt lat="35.00107164" lon="32.82321213"><ele>630.3</ele><time>2015-04-28T12:16:18.0000000+00:00</time></trkpt><trkpt lat="35.00106099" lon="32.82321867"><ele>630.3</ele><time>2015-04-28T12:16:19.0000000+00:00</time></trkpt><trkpt lat="35.0010511" lon="32.82322537"><ele>630.8</ele><time>2015-04-28T12:16:20.0000000+00:00</time></trkpt><trkpt lat="35.00102201" lon="32.82324499"><ele>630.8</ele><time>2015-04-28T12:16:23.0000000+00:00</time></trkpt><trkpt lat="35.00101187" lon="32.82325119"><ele>631.2</ele><time>2015-04-28T12:16:24.0000000+00:00</time></trkpt><trkpt lat="35.00099125" lon="32.82325739"><ele>631.2</ele><time>2015-04-28T12:16:26.0000000+00:00</time></trkpt><trkpt lat="35.00098178" lon="32.82326443"><ele>631.7</ele><time>2015-04-28T12:16:27.0000000+00:00</time></trkpt><trkpt lat="35.00097189" lon="32.82326988"><ele>631.7</ele><time>2015-04-28T12:16:28.0000000+00:00</time></trkpt><trkpt lat="35.00096192" lon="32.82327189"><ele>631.7</ele><time>2015-04-28T12:16:29.0000000+00:00</time></trkpt><trkpt lat="35.00082202" lon="32.82325446"><ele>633.7</ele><time>2015-04-28T12:16:45.0000000+00:00</time></trkpt><trkpt lat="35.00077617" lon="32.82328606"><ele>634.1</ele><time>2015-04-28T12:16:51.0000000+00:00</time></trkpt><trkpt lat="35.00077274" lon="32.8232993"><ele>634.1</ele><time>2015-04-28T12:16:52.0000000+00:00</time></trkpt><trkpt lat="35.00076955" lon="32.82331263"><ele>634.1</ele><time>2015-04-28T12:16:53.0000000+00:00</time></trkpt><trkpt lat="35.00076712" lon="32.82332771"><ele>634.1</ele><time>2015-04-28T12:16:54.0000000+00:00</time></trkpt><trkpt lat="35.00076729" lon="32.82334171"><ele>634.1</ele><time>2015-04-28T12:16:55.0000000+00:00</time></trkpt><trkpt lat="35.00076762" lon="32.82335554"><ele>634.6</ele><time>2015-04-28T12:16:56.0000000+00:00</time></trkpt><trkpt lat="35.0007693" lon="32.82336921"><ele>634.6</ele><time>2015-04-28T12:16:57.0000000+00:00</time></trkpt><trkpt lat="35.00077106" lon="32.82338203"><ele>634.6</ele><time>2015-04-28T12:16:58.0000000+00:00</time></trkpt><trkpt lat="35.00077559" lon="32.82340558"><ele>634.6</ele><time>2015-04-28T12:17:00.0000000+00:00</time></trkpt><trkpt lat="35.00078238" lon="32.82341816"><ele>635.1</ele><time>2015-04-28T12:17:01.0000000+00:00</time></trkpt><trkpt lat="35.0007864" lon="32.82343173"><ele>635.1</ele><time>2015-04-28T12:17:02.0000000+00:00</time></trkpt><trkpt lat="35.00089629" lon="32.82361538"><ele>638.0</ele><time>2015-04-28T12:17:16.0000000+00:00</time></trkpt><trkpt lat="35.00100173" lon="32.82372049"><ele>640.9</ele><time>2015-04-28T12:17:27.0000000+00:00</time></trkpt><trkpt lat="35.00099528" lon="32.82374295"><ele>640.9</ele><time>2015-04-28T12:17:29.0000000+00:00</time></trkpt><trkpt lat="35.00095446" lon="32.82379459"><ele>641.3</ele><time>2015-04-28T12:17:36.0000000+00:00</time></trkpt><trkpt lat="35.00095605" lon="32.82380867"><ele>641.3</ele><time>2015-04-28T12:17:37.0000000+00:00</time></trkpt><trkpt lat="35.00095747" lon="32.82382334"><ele>641.3</ele><time>2015-04-28T12:17:38.0000000+00:00</time></trkpt><trkpt lat="35.00095798" lon="32.82384002"><ele>641.3</ele><time>2015-04-28T12:17:39.0000000+00:00</time></trkpt><trkpt lat="35.00096041" lon="32.82385846"><ele>641.3</ele><time>2015-04-28T12:17:40.0000000+00:00</time></trkpt><trkpt lat="35.00096234" lon="32.82387681"><ele>641.3</ele><time>2015-04-28T12:17:41.0000000+00:00</time></trkpt><trkpt lat="35.00096225" lon="32.82389425"><ele>641.3</ele><time>2015-04-28T12:17:42.0000000+00:00</time></trkpt><trkpt lat="35.00096225" lon="32.8239126"><ele>641.3</ele><time>2015-04-28T12:17:43.0000000+00:00</time></trkpt><trkpt lat="35.00088095" lon="32.82407572"><ele>643.3</ele><time>2015-04-28T12:17:53.0000000+00:00</time></trkpt><trkpt lat="35.0008677" lon="32.82408804"><ele>642.8</ele><time>2015-04-28T12:17:54.0000000+00:00</time></trkpt><trkpt lat="35.00085421" lon="32.82410162"><ele>643.3</ele><time>2015-04-28T12:17:55.0000000+00:00</time></trkpt><trkpt lat="35.00084147" lon="32.82411595"><ele>643.3</ele><time>2015-04-28T12:17:56.0000000+00:00</time></trkpt><trkpt lat="35.00082814" lon="32.82412743"><ele>643.3</ele><time>2015-04-28T12:17:57.0000000+00:00</time></trkpt><trkpt lat="35.0008144" lon="32.8241364"><ele>643.3</ele><time>2015-04-28T12:17:58.0000000+00:00</time></trkpt><trkpt lat="35.00063594" lon="32.82419792"><ele>644.7</ele><time>2015-04-28T12:18:11.0000000+00:00</time></trkpt><trkpt lat="35.00042388" lon="32.82426557"><ele>646.6</ele><time>2015-04-28T12:18:24.0000000+00:00</time></trkpt><trkpt lat="35.0004119" lon="32.82427772"><ele>646.6</ele><time>2015-04-28T12:18:25.0000000+00:00</time></trkpt><trkpt lat="35.00023554" lon="32.82448132"><ele>649.0</ele><time>2015-04-28T12:18:40.0000000+00:00</time></trkpt><trkpt lat="35.00004678" lon="32.82467091"><ele>650.5</ele><time>2015-04-28T12:18:55.0000000+00:00</time></trkpt><trkpt lat="34.99985693" lon="32.82489496"><ele>652.9</ele><time>2015-04-28T12:19:12.0000000+00:00</time></trkpt><trkpt lat="34.99977596" lon="32.82500418"><ele>653.4</ele><time>2015-04-28T12:19:20.0000000+00:00</time></trkpt><trkpt lat="34.99976221" lon="32.82500929"><ele>653.8</ele><time>2015-04-28T12:19:21.0000000+00:00</time></trkpt><trkpt lat="34.99974822" lon="32.8250139"><ele>653.8</ele><time>2015-04-28T12:19:22.0000000+00:00</time></trkpt><trkpt lat="34.99973581" lon="32.82501834"><ele>653.8</ele><time>2015-04-28T12:19:23.0000000+00:00</time></trkpt><trkpt lat="34.99972349" lon="32.82502388"><ele>654.3</ele><time>2015-04-28T12:19:24.0000000+00:00</time></trkpt><trkpt lat="34.99956859" lon="32.82504056"><ele>654.8</ele><time>2015-04-28T12:19:34.0000000+00:00</time></trkpt><trkpt lat="34.99955133" lon="32.82503603"><ele>654.8</ele><time>2015-04-28T12:19:35.0000000+00:00</time></trkpt><trkpt lat="34.99929727" lon="32.82503578"><ele>656.2</ele><time>2015-04-28T12:19:48.0000000+00:00</time></trkpt><trkpt lat="34.99927816" lon="32.8250357"><ele>656.2</ele><time>2015-04-28T12:19:49.0000000+00:00</time></trkpt><trkpt lat="34.99896099" lon="32.82504827"><ele>657.7</ele><time>2015-04-28T12:20:05.0000000+00:00</time></trkpt><trkpt lat="34.99869218" lon="32.8251403"><ele>657.7</ele><time>2015-04-28T12:20:19.0000000+00:00</time></trkpt><trkpt lat="34.99851985" lon="32.82546409"><ele>659.1</ele><time>2015-04-28T12:20:35.0000000+00:00</time></trkpt><trkpt lat="34.99844944" lon="32.82562855"><ele>660.6</ele><time>2015-04-28T12:20:46.0000000+00:00</time></trkpt><trkpt lat="34.99844726" lon="32.82566803"><ele>660.6</ele><time>2015-04-28T12:20:59.0000000+00:00</time></trkpt><trkpt lat="34.99843704" lon="32.82567079"><ele>660.6</ele><time>2015-04-28T12:21:21.0000000+00:00</time></trkpt><trkpt lat="34.99842245" lon="32.82567767"><ele>661.0</ele><time>2015-04-28T12:21:38.0000000+00:00</time></trkpt><trkpt lat="34.99843804" lon="32.82566677"><ele>660.6</ele><time>2015-04-28T12:22:07.0000000+00:00</time></trkpt><trkpt lat="34.99838473" lon="32.82567842"><ele>661.0</ele><time>2015-04-28T12:22:27.0000000+00:00</time></trkpt><trkpt lat="34.99838138" lon="32.82566719"><ele>660.6</ele><time>2015-04-28T12:22:50.0000000+00:00</time></trkpt><trkpt lat="34.99833729" lon="32.82574321"><ele>661.5</ele><time>2015-04-28T12:23:03.0000000+00:00</time></trkpt><trkpt lat="34.9983108" lon="32.82575947"><ele>661.5</ele><time>2015-04-28T12:23:17.0000000+00:00</time></trkpt><trkpt lat="34.99832564" lon="32.82575285"><ele>661.5</ele><time>2015-04-28T12:23:42.0000000+00:00</time></trkpt><trkpt lat="34.99831625" lon="32.82576199"><ele>661.5</ele><time>2015-04-28T12:23:58.0000000+00:00</time></trkpt><trkpt lat="34.99830519" lon="32.82575679"><ele>661.5</ele><time>2015-04-28T12:23:59.0000000+00:00</time></trkpt><trkpt lat="34.99829111" lon="32.82574791"><ele>661.5</ele><time>2015-04-28T12:24:00.0000000+00:00</time></trkpt><trkpt lat="34.99827367" lon="32.82573977"><ele>662.0</ele><time>2015-04-28T12:24:01.0000000+00:00</time></trkpt><trkpt lat="34.99825917" lon="32.8257334"><ele>662.0</ele><time>2015-04-28T12:24:02.0000000+00:00</time></trkpt><trkpt lat="34.99824727" lon="32.82572636"><ele>662.0</ele><time>2015-04-28T12:24:03.0000000+00:00</time></trkpt><trkpt lat="34.99823436" lon="32.82572418"><ele>662.0</ele><time>2015-04-28T12:24:04.0000000+00:00</time></trkpt><trkpt lat="34.99821869" lon="32.82572796"><ele>662.0</ele><time>2015-04-28T12:24:05.0000000+00:00</time></trkpt><trkpt lat="34.99820435" lon="32.82573047"><ele>662.0</ele><time>2015-04-28T12:24:06.0000000+00:00</time></trkpt><trkpt lat="34.99806706" lon="32.82580976"><ele>663.9</ele><time>2015-04-28T12:24:19.0000000+00:00</time></trkpt><trkpt lat="34.99804124" lon="32.82592904"><ele>664.9</ele><time>2015-04-28T12:24:27.0000000+00:00</time></trkpt><trkpt lat="34.99803655" lon="32.82594069"><ele>665.4</ele><time>2015-04-28T12:24:28.0000000+00:00</time></trkpt><trkpt lat="34.99803345" lon="32.82595469"><ele>665.4</ele><time>2015-04-28T12:24:29.0000000+00:00</time></trkpt><trkpt lat="34.99803311" lon="32.82597086"><ele>665.4</ele><time>2015-04-28T12:24:30.0000000+00:00</time></trkpt><trkpt lat="34.99802892" lon="32.82598402"><ele>665.9</ele><time>2015-04-28T12:24:31.0000000+00:00</time></trkpt><trkpt lat="34.99802456" lon="32.82599743"><ele>665.9</ele><time>2015-04-28T12:24:32.0000000+00:00</time></trkpt><trkpt lat="34.99802113" lon="32.82601177"><ele>665.9</ele><time>2015-04-28T12:24:33.0000000+00:00</time></trkpt><trkpt lat="34.99801484" lon="32.82602384"><ele>666.3</ele><time>2015-04-28T12:24:34.0000000+00:00</time></trkpt><trkpt lat="34.99800939" lon="32.82603524"><ele>666.3</ele><time>2015-04-28T12:24:35.0000000+00:00</time></trkpt><trkpt lat="34.99800386" lon="32.82604697"><ele>666.3</ele><time>2015-04-28T12:24:36.0000000+00:00</time></trkpt><trkpt lat="34.99798064" lon="32.82609416"><ele>666.8</ele><time>2015-04-28T12:24:40.0000000+00:00</time></trkpt><trkpt lat="34.99797318" lon="32.82610699"><ele>666.8</ele><time>2015-04-28T12:24:41.0000000+00:00</time></trkpt><trkpt lat="34.99796597" lon="32.82611914"><ele>666.8</ele><time>2015-04-28T12:24:42.0000000+00:00</time></trkpt><trkpt lat="34.99793923" lon="32.82614345"><ele>667.3</ele><time>2015-04-28T12:24:56.0000000+00:00</time></trkpt><trkpt lat="34.99790571" lon="32.82617656"><ele>667.8</ele><time>2015-04-28T12:25:12.0000000+00:00</time></trkpt><trkpt lat="34.99789112" lon="32.82618318"><ele>667.8</ele><time>2015-04-28T12:25:13.0000000+00:00</time></trkpt><trkpt lat="34.9978793" lon="32.82619701"><ele>667.8</ele><time>2015-04-28T12:25:14.0000000+00:00</time></trkpt><trkpt lat="34.99786782" lon="32.82621176"><ele>668.3</ele><time>2015-04-28T12:25:15.0000000+00:00</time></trkpt><trkpt lat="34.99785919" lon="32.82622349"><ele>668.3</ele><time>2015-04-28T12:25:16.0000000+00:00</time></trkpt><trkpt lat="34.99772047" lon="32.82631695"><ele>670.2</ele><time>2015-04-28T12:25:28.0000000+00:00</time></trkpt><trkpt lat="34.99770915" lon="32.82632081"><ele>670.2</ele><time>2015-04-28T12:25:29.0000000+00:00</time></trkpt><trkpt lat="34.99767722" lon="32.82632936"><ele>670.2</ele><time>2015-04-28T12:25:32.0000000+00:00</time></trkpt><trkpt lat="34.99766464" lon="32.82632777"><ele>670.2</ele><time>2015-04-28T12:25:33.0000000+00:00</time></trkpt><trkpt lat="34.99764989" lon="32.82632575"><ele>670.2</ele><time>2015-04-28T12:25:34.0000000+00:00</time></trkpt><trkpt lat="34.99763975" lon="32.82631989"><ele>670.7</ele><time>2015-04-28T12:25:35.0000000+00:00</time></trkpt><trkpt lat="34.99763086" lon="32.82630974"><ele>670.7</ele><time>2015-04-28T12:25:36.0000000+00:00</time></trkpt><trkpt lat="34.99762014" lon="32.82630187"><ele>670.7</ele><time>2015-04-28T12:25:37.0000000+00:00</time></trkpt><trkpt lat="34.99760899" lon="32.82630011"><ele>670.7</ele><time>2015-04-28T12:25:38.0000000+00:00</time></trkpt><trkpt lat="34.9975975" lon="32.82629466"><ele>671.1</ele><time>2015-04-28T12:25:39.0000000+00:00</time></trkpt><trkpt lat="34.99758636" lon="32.82628703"><ele>671.1</ele><time>2015-04-28T12:25:40.0000000+00:00</time></trkpt><trkpt lat="34.99756171" lon="32.82627286"><ele>671.1</ele><time>2015-04-28T12:25:42.0000000+00:00</time></trkpt><trkpt lat="34.99754855" lon="32.82626716"><ele>671.6</ele><time>2015-04-28T12:25:43.0000000+00:00</time></trkpt><trkpt lat="34.99738217" lon="32.8261183"><ele>673.1</ele><time>2015-04-28T12:25:59.0000000+00:00</time></trkpt><trkpt lat="34.99723021" lon="32.82599802"><ele>674.5</ele><time>2015-04-28T12:26:12.0000000+00:00</time></trkpt><trkpt lat="34.99714446" lon="32.82601202"><ele>675.5</ele><time>2015-04-28T12:26:17.0000000+00:00</time></trkpt><trkpt lat="34.99712896" lon="32.82602183"><ele>675.9</ele><time>2015-04-28T12:26:18.0000000+00:00</time></trkpt><trkpt lat="34.99711337" lon="32.82603281"><ele>675.5</ele><time>2015-04-28T12:26:19.0000000+00:00</time></trkpt><trkpt lat="34.99710322" lon="32.82604773"><ele>675.9</ele><time>2015-04-28T12:26:20.0000000+00:00</time></trkpt><trkpt lat="34.99709476" lon="32.82606239"><ele>675.9</ele><time>2015-04-28T12:26:21.0000000+00:00</time></trkpt><trkpt lat="34.99708981" lon="32.82607757"><ele>675.9</ele><time>2015-04-28T12:26:22.0000000+00:00</time></trkpt><trkpt lat="34.99709015" lon="32.82609441"><ele>676.4</ele><time>2015-04-28T12:26:23.0000000+00:00</time></trkpt><trkpt lat="34.9971018" lon="32.82617714"><ele>676.9</ele><time>2015-04-28T12:26:29.0000000+00:00</time></trkpt><trkpt lat="34.99709928" lon="32.82618963"><ele>676.9</ele><time>2015-04-28T12:26:30.0000000+00:00</time></trkpt><trkpt lat="34.99709895" lon="32.82620313"><ele>677.4</ele><time>2015-04-28T12:26:31.0000000+00:00</time></trkpt><trkpt lat="34.99710029" lon="32.82621729"><ele>677.4</ele><time>2015-04-28T12:26:32.0000000+00:00</time></trkpt><trkpt lat="34.99710373" lon="32.82623297"><ele>677.4</ele><time>2015-04-28T12:26:33.0000000+00:00</time></trkpt><trkpt lat="34.997107" lon="32.82624638"><ele>677.4</ele><time>2015-04-28T12:26:34.0000000+00:00</time></trkpt><trkpt lat="34.99710641" lon="32.8262592"><ele>677.9</ele><time>2015-04-28T12:26:35.0000000+00:00</time></trkpt><trkpt lat="34.99710473" lon="32.82627228"><ele>677.9</ele><time>2015-04-28T12:26:36.0000000+00:00</time></trkpt><trkpt lat="34.99710641" lon="32.82628686"><ele>677.9</ele><time>2015-04-28T12:26:37.0000000+00:00</time></trkpt><trkpt lat="34.99710373" lon="32.82632458"><ele>677.9</ele><time>2015-04-28T12:26:40.0000000+00:00</time></trkpt><trkpt lat="34.99710289" lon="32.82633841"><ele>678.4</ele><time>2015-04-28T12:26:41.0000000+00:00</time></trkpt><trkpt lat="34.99710146" lon="32.82635191"><ele>678.4</ele><time>2015-04-28T12:26:42.0000000+00:00</time></trkpt><trkpt lat="34.99709836" lon="32.82636506"><ele>678.4</ele><time>2015-04-28T12:26:43.0000000+00:00</time></trkpt><trkpt lat="34.99709543" lon="32.82637806"><ele>678.8</ele><time>2015-04-28T12:26:44.0000000+00:00</time></trkpt><trkpt lat="34.99709283" lon="32.82639096"><ele>678.8</ele><time>2015-04-28T12:26:45.0000000+00:00</time></trkpt><trkpt lat="34.99709141" lon="32.82640463"><ele>678.8</ele><time>2015-04-28T12:26:46.0000000+00:00</time></trkpt><trkpt lat="34.99708964" lon="32.82641678"><ele>678.8</ele><time>2015-04-28T12:26:47.0000000+00:00</time></trkpt><trkpt lat="34.99708168" lon="32.82645819"><ele>678.8</ele><time>2015-04-28T12:26:50.0000000+00:00</time></trkpt><trkpt lat="34.99705486" lon="32.82650286"><ele>679.3</ele><time>2015-04-28T12:26:55.0000000+00:00</time></trkpt><trkpt lat="34.9970443" lon="32.82655223"><ele>679.8</ele><time>2015-04-28T12:26:59.0000000+00:00</time></trkpt><trkpt lat="34.99703458" lon="32.82660613"><ele>679.8</ele><time>2015-04-28T12:27:08.0000000+00:00</time></trkpt><trkpt lat="34.99703265" lon="32.82656346"><ele>680.3</ele><time>2015-04-28T12:27:36.0000000+00:00</time></trkpt><trkpt lat="34.99702628" lon="32.82658685"><ele>680.8</ele><time>2015-04-28T12:28:11.0000000+00:00</time></trkpt><trkpt lat="34.99698286" lon="32.8266218"><ele>680.8</ele><time>2015-04-28T12:28:35.0000000+00:00</time></trkpt><trkpt lat="34.99697272" lon="32.82663002"><ele>680.8</ele><time>2015-04-28T12:28:36.0000000+00:00</time></trkpt><trkpt lat="34.99687733" lon="32.82674192"><ele>682.7</ele><time>2015-04-28T12:28:47.0000000+00:00</time></trkpt><trkpt lat="34.99677641" lon="32.82678802"><ele>682.7</ele><time>2015-04-28T12:28:55.0000000+00:00</time></trkpt><trkpt lat="34.99676359" lon="32.82679246"><ele>682.7</ele><time>2015-04-28T12:28:56.0000000+00:00</time></trkpt><trkpt lat="34.99673928" lon="32.82680084"><ele>683.2</ele><time>2015-04-28T12:28:58.0000000+00:00</time></trkpt><trkpt lat="34.99672704" lon="32.82679883"><ele>683.2</ele><time>2015-04-28T12:28:59.0000000+00:00</time></trkpt><trkpt lat="34.99663459" lon="32.82672968"><ele>683.6</ele><time>2015-04-28T12:29:09.0000000+00:00</time></trkpt><trkpt lat="34.99662881" lon="32.82671853"><ele>683.6</ele><time>2015-04-28T12:29:10.0000000+00:00</time></trkpt><trkpt lat="34.99662269" lon="32.82670814"><ele>683.6</ele><time>2015-04-28T12:29:11.0000000+00:00</time></trkpt><trkpt lat="34.99661204" lon="32.82669825"><ele>683.6</ele><time>2015-04-28T12:29:12.0000000+00:00</time></trkpt><trkpt lat="34.99660467" lon="32.8266876"><ele>684.1</ele><time>2015-04-28T12:29:13.0000000+00:00</time></trkpt><trkpt lat="34.99659696" lon="32.82667503"><ele>684.1</ele><time>2015-04-28T12:29:14.0000000+00:00</time></trkpt><trkpt lat="34.99658732" lon="32.82666463"><ele>684.1</ele><time>2015-04-28T12:29:15.0000000+00:00</time></trkpt><trkpt lat="34.99657701" lon="32.82665575"><ele>684.1</ele><time>2015-04-28T12:29:16.0000000+00:00</time></trkpt><trkpt lat="34.99641306" lon="32.82656682"><ele>685.1</ele><time>2015-04-28T12:29:31.0000000+00:00</time></trkpt><trkpt lat="34.9962657" lon="32.82667385"><ele>687.0</ele><time>2015-04-28T12:29:44.0000000+00:00</time></trkpt><trkpt lat="34.99615171" lon="32.82682163"><ele>688.9</ele><time>2015-04-28T12:30:00.0000000+00:00</time></trkpt><trkpt lat="34.99613562" lon="32.82685457"><ele>688.9</ele><time>2015-04-28T12:30:03.0000000+00:00</time></trkpt><trkpt lat="34.99612606" lon="32.82686345"><ele>688.9</ele><time>2015-04-28T12:30:04.0000000+00:00</time></trkpt><trkpt lat="34.99611818" lon="32.82687393"><ele>689.4</ele><time>2015-04-28T12:30:05.0000000+00:00</time></trkpt><trkpt lat="34.99610913" lon="32.82688541"><ele>689.4</ele><time>2015-04-28T12:30:06.0000000+00:00</time></trkpt><trkpt lat="34.99610016" lon="32.82689421"><ele>689.4</ele><time>2015-04-28T12:30:07.0000000+00:00</time></trkpt><trkpt lat="34.99609019" lon="32.82690159"><ele>689.4</ele><time>2015-04-28T12:30:08.0000000+00:00</time></trkpt><trkpt lat="34.99607971" lon="32.82691064"><ele>689.4</ele><time>2015-04-28T12:30:09.0000000+00:00</time></trkpt><trkpt lat="34.9960689" lon="32.82691844"><ele>689.4</ele><time>2015-04-28T12:30:10.0000000+00:00</time></trkpt><trkpt lat="34.99605725" lon="32.82692506"><ele>689.9</ele><time>2015-04-28T12:30:11.0000000+00:00</time></trkpt><trkpt lat="34.99604484" lon="32.82693034"><ele>689.9</ele><time>2015-04-28T12:30:12.0000000+00:00</time></trkpt><trkpt lat="34.99603143" lon="32.82693688"><ele>689.9</ele><time>2015-04-28T12:30:13.0000000+00:00</time></trkpt><trkpt lat="34.99602254" lon="32.82694736"><ele>689.9</ele><time>2015-04-28T12:30:14.0000000+00:00</time></trkpt><trkpt lat="34.99601366" lon="32.82695607"><ele>689.9</ele><time>2015-04-28T12:30:15.0000000+00:00</time></trkpt><trkpt lat="34.99600251" lon="32.82696513"><ele>689.9</ele><time>2015-04-28T12:30:16.0000000+00:00</time></trkpt><trkpt lat="34.99599262" lon="32.82697384"><ele>690.4</ele><time>2015-04-28T12:30:17.0000000+00:00</time></trkpt><trkpt lat="34.99598064" lon="32.82697795"><ele>690.4</ele><time>2015-04-28T12:30:18.0000000+00:00</time></trkpt><trkpt lat="34.99596974" lon="32.82698155"><ele>690.4</ele><time>2015-04-28T12:30:19.0000000+00:00</time></trkpt><trkpt lat="34.99596077" lon="32.82698675"><ele>690.4</ele><time>2015-04-28T12:30:20.0000000+00:00</time></trkpt><trkpt lat="34.99593512" lon="32.8270062"><ele>690.8</ele><time>2015-04-28T12:30:23.0000000+00:00</time></trkpt><trkpt lat="34.99592448" lon="32.82701324"><ele>690.8</ele><time>2015-04-28T12:30:24.0000000+00:00</time></trkpt><trkpt lat="34.995914" lon="32.82702103"><ele>690.8</ele><time>2015-04-28T12:30:25.0000000+00:00</time></trkpt><trkpt lat="34.99590327" lon="32.82702832"><ele>690.8</ele><time>2015-04-28T12:30:26.0000000+00:00</time></trkpt><trkpt lat="34.99589229" lon="32.82703453"><ele>690.8</ele><time>2015-04-28T12:30:27.0000000+00:00</time></trkpt><trkpt lat="34.99576028" lon="32.82709043"><ele>692.3</ele><time>2015-04-28T12:30:39.0000000+00:00</time></trkpt><trkpt lat="34.99567746" lon="32.82710879"><ele>692.8</ele><time>2015-04-28T12:30:47.0000000+00:00</time></trkpt><trkpt lat="34.99566866" lon="32.8271165"><ele>693.3</ele><time>2015-04-28T12:30:48.0000000+00:00</time></trkpt><trkpt lat="34.99565743" lon="32.82711784"><ele>692.8</ele><time>2015-04-28T12:30:49.0000000+00:00</time></trkpt><trkpt lat="34.99564477" lon="32.8271165"><ele>692.8</ele><time>2015-04-28T12:30:50.0000000+00:00</time></trkpt><trkpt lat="34.99563228" lon="32.82711323"><ele>693.3</ele><time>2015-04-28T12:30:51.0000000+00:00</time></trkpt><trkpt lat="34.99562105" lon="32.82710846"><ele>693.3</ele><time>2015-04-28T12:30:52.0000000+00:00</time></trkpt><trkpt lat="34.99555592" lon="32.82707191"><ele>693.7</ele><time>2015-04-28T12:30:58.0000000+00:00</time></trkpt><trkpt lat="34.99555006" lon="32.82705867"><ele>693.7</ele><time>2015-04-28T12:30:59.0000000+00:00</time></trkpt><trkpt lat="34.99554545" lon="32.82704559"><ele>693.7</ele><time>2015-04-28T12:31:00.0000000+00:00</time></trkpt><trkpt lat="34.99553723" lon="32.8270383"><ele>694.2</ele><time>2015-04-28T12:31:01.0000000+00:00</time></trkpt><trkpt lat="34.99552701" lon="32.82703344"><ele>694.2</ele><time>2015-04-28T12:31:02.0000000+00:00</time></trkpt><trkpt lat="34.99551485" lon="32.82702765"><ele>694.2</ele><time>2015-04-28T12:31:03.0000000+00:00</time></trkpt><trkpt lat="34.99550371" lon="32.82701919"><ele>694.2</ele><time>2015-04-28T12:31:04.0000000+00:00</time></trkpt><trkpt lat="34.99549717" lon="32.82700578"><ele>694.7</ele><time>2015-04-28T12:31:05.0000000+00:00</time></trkpt><trkpt lat="34.99549038" lon="32.82699396"><ele>694.2</ele><time>2015-04-28T12:31:06.0000000+00:00</time></trkpt><trkpt lat="34.99548124" lon="32.82698667"><ele>694.7</ele><time>2015-04-28T12:31:07.0000000+00:00</time></trkpt><trkpt lat="34.99546154" lon="32.82698776"><ele>694.7</ele><time>2015-04-28T12:31:09.0000000+00:00</time></trkpt><trkpt lat="34.99544327" lon="32.82698541"><ele>695.2</ele><time>2015-04-28T12:31:11.0000000+00:00</time></trkpt><trkpt lat="34.99543305" lon="32.82697845"><ele>695.2</ele><time>2015-04-28T12:31:12.0000000+00:00</time></trkpt><trkpt lat="34.9954229" lon="32.82697518"><ele>695.2</ele><time>2015-04-28T12:31:13.0000000+00:00</time></trkpt><trkpt lat="34.99541234" lon="32.82697259"><ele>695.2</ele><time>2015-04-28T12:31:14.0000000+00:00</time></trkpt><trkpt lat="34.99531394" lon="32.82694233"><ele>696.1</ele><time>2015-04-28T12:31:24.0000000+00:00</time></trkpt><trkpt lat="34.99530019" lon="32.82695356"><ele>696.1</ele><time>2015-04-28T12:31:25.0000000+00:00</time></trkpt><trkpt lat="34.9952841" lon="32.82696362"><ele>696.1</ele><time>2015-04-28T12:31:26.0000000+00:00</time></trkpt><trkpt lat="34.99526725" lon="32.82697099"><ele>696.1</ele><time>2015-04-28T12:31:27.0000000+00:00</time></trkpt><trkpt lat="34.99525334" lon="32.8269751"><ele>696.6</ele><time>2015-04-28T12:31:28.0000000+00:00</time></trkpt><trkpt lat="34.99524051" lon="32.82697887"><ele>696.1</ele><time>2015-04-28T12:31:29.0000000+00:00</time></trkpt><trkpt lat="34.99522819" lon="32.82698088"><ele>696.1</ele><time>2015-04-28T12:31:30.0000000+00:00</time></trkpt><trkpt lat="34.99521495" lon="32.82698222"><ele>696.6</ele><time>2015-04-28T12:31:31.0000000+00:00</time></trkpt><trkpt lat="34.99520246" lon="32.82698449"><ele>696.6</ele><time>2015-04-28T12:31:32.0000000+00:00</time></trkpt><trkpt lat="34.99506583" lon="32.82702698"><ele>698.1</ele><time>2015-04-28T12:31:44.0000000+00:00</time></trkpt><trkpt lat="34.99505485" lon="32.82703009"><ele>698.1</ele><time>2015-04-28T12:31:45.0000000+00:00</time></trkpt><trkpt lat="34.99500347" lon="32.82706629"><ele>698.5</ele><time>2015-04-28T12:31:51.0000000+00:00</time></trkpt><trkpt lat="34.99499777" lon="32.8270751"><ele>698.5</ele><time>2015-04-28T12:31:52.0000000+00:00</time></trkpt><trkpt lat="34.99499098" lon="32.82708406"><ele>699.0</ele><time>2015-04-28T12:31:53.0000000+00:00</time></trkpt><trkpt lat="34.99498151" lon="32.8270906"><ele>698.5</ele><time>2015-04-28T12:31:54.0000000+00:00</time></trkpt><trkpt lat="34.99495452" lon="32.82710619"><ele>699.0</ele><time>2015-04-28T12:31:57.0000000+00:00</time></trkpt><trkpt lat="34.99485939" lon="32.82726654"><ele>700.5</ele><time>2015-04-28T12:32:14.0000000+00:00</time></trkpt><trkpt lat="34.99482284" lon="32.82731432"><ele>700.9</ele><time>2015-04-28T12:32:19.0000000+00:00</time></trkpt><trkpt lat="34.99481346" lon="32.82732253"><ele>700.9</ele><time>2015-04-28T12:32:20.0000000+00:00</time></trkpt><trkpt lat="34.99480725" lon="32.8273346"><ele>700.9</ele><time>2015-04-28T12:32:21.0000000+00:00</time></trkpt><trkpt lat="34.99480063" lon="32.82734592"><ele>700.9</ele><time>2015-04-28T12:32:22.0000000+00:00</time></trkpt><trkpt lat="34.99479183" lon="32.82735614"><ele>700.9</ele><time>2015-04-28T12:32:23.0000000+00:00</time></trkpt><trkpt lat="34.99478462" lon="32.8273667"><ele>701.4</ele><time>2015-04-28T12:32:24.0000000+00:00</time></trkpt><trkpt lat="34.99477649" lon="32.82737626"><ele>701.4</ele><time>2015-04-28T12:32:25.0000000+00:00</time></trkpt><trkpt lat="34.99476962" lon="32.8273869"><ele>701.4</ele><time>2015-04-28T12:32:26.0000000+00:00</time></trkpt><trkpt lat="34.9947635" lon="32.82739797"><ele>701.9</ele><time>2015-04-28T12:32:27.0000000+00:00</time></trkpt><trkpt lat="34.99475537" lon="32.82740811"><ele>701.9</ele><time>2015-04-28T12:32:28.0000000+00:00</time></trkpt><trkpt lat="34.99475" lon="32.82741825"><ele>701.9</ele><time>2015-04-28T12:32:29.0000000+00:00</time></trkpt><trkpt lat="34.99474389" lon="32.82742873"><ele>701.9</ele><time>2015-04-28T12:32:30.0000000+00:00</time></trkpt><trkpt lat="34.99473383" lon="32.82743996"><ele>702.4</ele><time>2015-04-28T12:32:31.0000000+00:00</time></trkpt><trkpt lat="34.99472327" lon="32.82745119"><ele>701.9</ele><time>2015-04-28T12:32:32.0000000+00:00</time></trkpt><trkpt lat="34.99471497" lon="32.82746217"><ele>702.4</ele><time>2015-04-28T12:32:33.0000000+00:00</time></trkpt><trkpt lat="34.99470474" lon="32.82747181"><ele>702.4</ele><time>2015-04-28T12:32:34.0000000+00:00</time></trkpt><trkpt lat="34.99469418" lon="32.82748061"><ele>702.4</ele><time>2015-04-28T12:32:35.0000000+00:00</time></trkpt><trkpt lat="34.99468421" lon="32.82749126"><ele>702.4</ele><time>2015-04-28T12:32:36.0000000+00:00</time></trkpt><trkpt lat="34.99467507" lon="32.82750224"><ele>702.4</ele><time>2015-04-28T12:32:37.0000000+00:00</time></trkpt><trkpt lat="34.99466652" lon="32.82751196"><ele>702.9</ele><time>2015-04-28T12:32:38.0000000+00:00</time></trkpt><trkpt lat="34.99465671" lon="32.82752051"><ele>702.4</ele><time>2015-04-28T12:32:39.0000000+00:00</time></trkpt><trkpt lat="34.99463107" lon="32.82755077"><ele>702.9</ele><time>2015-04-28T12:32:42.0000000+00:00</time></trkpt><trkpt lat="34.99462126" lon="32.82755982"><ele>703.3</ele><time>2015-04-28T12:32:43.0000000+00:00</time></trkpt><trkpt lat="34.99461162" lon="32.82756862"><ele>703.3</ele><time>2015-04-28T12:32:44.0000000+00:00</time></trkpt><trkpt lat="34.99460148" lon="32.82757809"><ele>703.3</ele><time>2015-04-28T12:32:45.0000000+00:00</time></trkpt><trkpt lat="34.9945941" lon="32.82759109"><ele>703.3</ele><time>2015-04-28T12:32:46.0000000+00:00</time></trkpt><trkpt lat="34.99458572" lon="32.82760064"><ele>703.3</ele><time>2015-04-28T12:32:47.0000000+00:00</time></trkpt><trkpt lat="34.99457289" lon="32.82761422"><ele>703.3</ele><time>2015-04-28T12:32:48.0000000+00:00</time></trkpt><trkpt lat="34.99455906" lon="32.82762612"><ele>703.8</ele><time>2015-04-28T12:32:49.0000000+00:00</time></trkpt><trkpt lat="34.99454767" lon="32.82763844"><ele>703.8</ele><time>2015-04-28T12:32:50.0000000+00:00</time></trkpt><trkpt lat="34.99453459" lon="32.82765185"><ele>703.8</ele><time>2015-04-28T12:32:51.0000000+00:00</time></trkpt><trkpt lat="34.99452336" lon="32.82766501"><ele>703.8</ele><time>2015-04-28T12:32:52.0000000+00:00</time></trkpt><trkpt lat="34.99451271" lon="32.82767868"><ele>703.8</ele><time>2015-04-28T12:32:53.0000000+00:00</time></trkpt><trkpt lat="34.99450022" lon="32.82768974"><ele>704.3</ele><time>2015-04-28T12:32:54.0000000+00:00</time></trkpt><trkpt lat="34.99448941" lon="32.82769988"><ele>704.3</ele><time>2015-04-28T12:32:55.0000000+00:00</time></trkpt><trkpt lat="34.99447826" lon="32.82771128"><ele>704.3</ele><time>2015-04-28T12:32:56.0000000+00:00</time></trkpt><trkpt lat="34.99446829" lon="32.82772159"><ele>704.3</ele><time>2015-04-28T12:32:57.0000000+00:00</time></trkpt><trkpt lat="34.99445857" lon="32.82773148"><ele>704.3</ele><time>2015-04-28T12:32:58.0000000+00:00</time></trkpt><trkpt lat="34.99430015" lon="32.82787389"><ele>706.2</ele><time>2015-04-28T12:33:13.0000000+00:00</time></trkpt><trkpt lat="34.99412086" lon="32.82805284"><ele>707.7</ele><time>2015-04-28T12:33:30.0000000+00:00</time></trkpt><trkpt lat="34.99411155" lon="32.82806517"><ele>707.7</ele><time>2015-04-28T12:33:31.0000000+00:00</time></trkpt><trkpt lat="34.99410217" lon="32.82807992"><ele>707.7</ele><time>2015-04-28T12:33:32.0000000+00:00</time></trkpt><trkpt lat="34.99409311" lon="32.82809174"><ele>707.7</ele><time>2015-04-28T12:33:33.0000000+00:00</time></trkpt><trkpt lat="34.99408741" lon="32.82810364"><ele>708.2</ele><time>2015-04-28T12:33:34.0000000+00:00</time></trkpt><trkpt lat="34.99407819" lon="32.8281121"><ele>707.7</ele><time>2015-04-28T12:33:35.0000000+00:00</time></trkpt><trkpt lat="34.99404416" lon="32.82815645"><ele>708.2</ele><time>2015-04-28T12:33:39.0000000+00:00</time></trkpt><trkpt lat="34.99403168" lon="32.82817732"><ele>708.6</ele><time>2015-04-28T12:33:41.0000000+00:00</time></trkpt><trkpt lat="34.99402078" lon="32.82818654"><ele>708.6</ele><time>2015-04-28T12:33:42.0000000+00:00</time></trkpt><trkpt lat="34.99391156" lon="32.8282608"><ele>708.6</ele><time>2015-04-28T12:33:53.0000000+00:00</time></trkpt><trkpt lat="34.99389916" lon="32.82826072"><ele>708.6</ele><time>2015-04-28T12:33:54.0000000+00:00</time></trkpt><trkpt lat="34.99388575" lon="32.8282603"><ele>708.6</ele><time>2015-04-28T12:33:55.0000000+00:00</time></trkpt><trkpt lat="34.99387016" lon="32.82825694"><ele>708.6</ele><time>2015-04-28T12:33:56.0000000+00:00</time></trkpt><trkpt lat="34.99385239" lon="32.82825233"><ele>708.6</ele><time>2015-04-28T12:33:57.0000000+00:00</time></trkpt><trkpt lat="34.99368668" lon="32.82818813"><ele>708.6</ele><time>2015-04-28T12:34:09.0000000+00:00</time></trkpt><trkpt lat="34.99343103" lon="32.82793843"><ele>707.7</ele><time>2015-04-28T12:34:25.0000000+00:00</time></trkpt><trkpt lat="34.99325878" lon="32.82790449"><ele>708.2</ele><time>2015-04-28T12:34:36.0000000+00:00</time></trkpt><trkpt lat="34.99324403" lon="32.8279158"><ele>708.2</ele><time>2015-04-28T12:34:37.0000000+00:00</time></trkpt><trkpt lat="34.99322693" lon="32.82792686"><ele>708.2</ele><time>2015-04-28T12:34:38.0000000+00:00</time></trkpt><trkpt lat="34.99320807" lon="32.8279386"><ele>708.2</ele><time>2015-04-28T12:34:39.0000000+00:00</time></trkpt><trkpt lat="34.99318946" lon="32.82794958"><ele>708.2</ele><time>2015-04-28T12:34:40.0000000+00:00</time></trkpt><trkpt lat="34.99317496" lon="32.82796165"><ele>708.2</ele><time>2015-04-28T12:34:41.0000000+00:00</time></trkpt><trkpt lat="34.99315929" lon="32.82797514"><ele>708.6</ele><time>2015-04-28T12:34:42.0000000+00:00</time></trkpt><trkpt lat="34.99314412" lon="32.82798411"><ele>709.1</ele><time>2015-04-28T12:34:43.0000000+00:00</time></trkpt><trkpt lat="34.9930442" lon="32.82807095"><ele>709.6</ele><time>2015-04-28T12:34:52.0000000+00:00</time></trkpt><trkpt lat="34.99303205" lon="32.82807791"><ele>710.1</ele><time>2015-04-28T12:34:53.0000000+00:00</time></trkpt><trkpt lat="34.9930214" lon="32.82808419"><ele>710.1</ele><time>2015-04-28T12:34:54.0000000+00:00</time></trkpt><trkpt lat="34.99300875" lon="32.8280909"><ele>710.1</ele><time>2015-04-28T12:34:55.0000000+00:00</time></trkpt><trkpt lat="34.9929945" lon="32.82809383"><ele>710.6</ele><time>2015-04-28T12:34:56.0000000+00:00</time></trkpt><trkpt lat="34.99298117" lon="32.82809719"><ele>710.6</ele><time>2015-04-28T12:34:57.0000000+00:00</time></trkpt><trkpt lat="34.99296868" lon="32.82809911"><ele>710.1</ele><time>2015-04-28T12:34:58.0000000+00:00</time></trkpt><trkpt lat="34.992837" lon="32.82813172"><ele>711.5</ele><time>2015-04-28T12:35:09.0000000+00:00</time></trkpt><trkpt lat="34.99282451" lon="32.82813071"><ele>711.5</ele><time>2015-04-28T12:35:10.0000000+00:00</time></trkpt><trkpt lat="34.99281261" lon="32.82813298"><ele>711.5</ele><time>2015-04-28T12:35:11.0000000+00:00</time></trkpt><trkpt lat="34.99269946" lon="32.82817547"><ele>712.5</ele><time>2015-04-28T12:35:21.0000000+00:00</time></trkpt><trkpt lat="34.99268898" lon="32.82818251"><ele>712.5</ele><time>2015-04-28T12:35:22.0000000+00:00</time></trkpt><trkpt lat="34.99267758" lon="32.82818872"><ele>712.5</ele><time>2015-04-28T12:35:23.0000000+00:00</time></trkpt><trkpt lat="34.99266719" lon="32.82819618"><ele>712.5</ele><time>2015-04-28T12:35:24.0000000+00:00</time></trkpt><trkpt lat="34.99265654" lon="32.82820355"><ele>712.5</ele><time>2015-04-28T12:35:25.0000000+00:00</time></trkpt><trkpt lat="34.99264648" lon="32.82821269"><ele>712.5</ele><time>2015-04-28T12:35:26.0000000+00:00</time></trkpt><trkpt lat="34.992636" lon="32.82822317"><ele>712.5</ele><time>2015-04-28T12:35:27.0000000+00:00</time></trkpt><trkpt lat="34.99248069" lon="32.8283478"><ele>713.4</ele><time>2015-04-28T12:35:40.0000000+00:00</time></trkpt><trkpt lat="34.99232135" lon="32.82841846"><ele>714.9</ele><time>2015-04-28T12:35:55.0000000+00:00</time></trkpt><trkpt lat="34.99217927" lon="32.82847806"><ele>715.8</ele><time>2015-04-28T12:36:05.0000000+00:00</time></trkpt><trkpt lat="34.99216561" lon="32.82848032"><ele>715.8</ele><time>2015-04-28T12:36:06.0000000+00:00</time></trkpt><trkpt lat="34.9921512" lon="32.8284856"><ele>715.8</ele><time>2015-04-28T12:36:07.0000000+00:00</time></trkpt><trkpt lat="34.9921356" lon="32.82849088"><ele>715.8</ele><time>2015-04-28T12:36:08.0000000+00:00</time></trkpt><trkpt lat="34.99212001" lon="32.8284939"><ele>715.8</ele><time>2015-04-28T12:36:09.0000000+00:00</time></trkpt><trkpt lat="34.99210468" lon="32.82849683"><ele>715.8</ele><time>2015-04-28T12:36:10.0000000+00:00</time></trkpt><trkpt lat="34.99209093" lon="32.82849935"><ele>715.8</ele><time>2015-04-28T12:36:11.0000000+00:00</time></trkpt><trkpt lat="34.99208012" lon="32.82850262"><ele>715.8</ele><time>2015-04-28T12:36:12.0000000+00:00</time></trkpt><trkpt lat="34.99206813" lon="32.82850916"><ele>715.8</ele><time>2015-04-28T12:36:13.0000000+00:00</time></trkpt><trkpt lat="34.99205598" lon="32.8285136"><ele>716.3</ele><time>2015-04-28T12:36:14.0000000+00:00</time></trkpt><trkpt lat="34.99204173" lon="32.82851402"><ele>716.3</ele><time>2015-04-28T12:36:15.0000000+00:00</time></trkpt><trkpt lat="34.99203033" lon="32.8285141"><ele>716.3</ele><time>2015-04-28T12:36:16.0000000+00:00</time></trkpt><trkpt lat="34.9920201" lon="32.82851762"><ele>716.3</ele><time>2015-04-28T12:36:17.0000000+00:00</time></trkpt><trkpt lat="34.99200921" lon="32.82852248"><ele>716.3</ele><time>2015-04-28T12:36:18.0000000+00:00</time></trkpt><trkpt lat="34.99199848" lon="32.8285286"><ele>716.8</ele><time>2015-04-28T12:36:19.0000000+00:00</time></trkpt><trkpt lat="34.99198599" lon="32.82853162"><ele>716.8</ele><time>2015-04-28T12:36:20.0000000+00:00</time></trkpt><trkpt lat="34.99197308" lon="32.82853346"><ele>716.8</ele><time>2015-04-28T12:36:21.0000000+00:00</time></trkpt><trkpt lat="34.99195891" lon="32.82853195"><ele>716.8</ele><time>2015-04-28T12:36:22.0000000+00:00</time></trkpt><trkpt lat="34.99194458" lon="32.82853011"><ele>716.8</ele><time>2015-04-28T12:36:23.0000000+00:00</time></trkpt><trkpt lat="34.99193083" lon="32.82852642"><ele>716.8</ele><time>2015-04-28T12:36:24.0000000+00:00</time></trkpt><trkpt lat="34.99173922" lon="32.82841494"><ele>718.2</ele><time>2015-04-28T12:36:38.0000000+00:00</time></trkpt><trkpt lat="34.99172456" lon="32.82840597"><ele>718.2</ele><time>2015-04-28T12:36:39.0000000+00:00</time></trkpt><trkpt lat="34.99171064" lon="32.82839349"><ele>718.2</ele><time>2015-04-28T12:36:40.0000000+00:00</time></trkpt><trkpt lat="34.99159807" lon="32.82825083"><ele>719.2</ele><time>2015-04-28T12:36:50.0000000+00:00</time></trkpt><trkpt lat="34.99150009" lon="32.82816516"><ele>719.7</ele><time>2015-04-28T12:37:00.0000000+00:00</time></trkpt><trkpt lat="34.9913923" lon="32.82812501"><ele>720.7</ele><time>2015-04-28T12:37:08.0000000+00:00</time></trkpt><trkpt lat="34.99123866" lon="32.82809107"><ele>721.6</ele><time>2015-04-28T12:37:21.0000000+00:00</time></trkpt><trkpt lat="34.99122634" lon="32.82808629"><ele>721.6</ele><time>2015-04-28T12:37:22.0000000+00:00</time></trkpt><trkpt lat="34.99104914" lon="32.82796551"><ele>723.1</ele><time>2015-04-28T12:37:37.0000000+00:00</time></trkpt><trkpt lat="34.99104227" lon="32.82795947"><ele>723.1</ele><time>2015-04-28T12:37:38.0000000+00:00</time></trkpt><trkpt lat="34.99103447" lon="32.82794975"><ele>723.1</ele><time>2015-04-28T12:37:39.0000000+00:00</time></trkpt><trkpt lat="34.99100623" lon="32.82791622"><ele>723.5</ele><time>2015-04-28T12:37:43.0000000+00:00</time></trkpt><trkpt lat="34.99099776" lon="32.82790583"><ele>724.0</ele><time>2015-04-28T12:37:44.0000000+00:00</time></trkpt><trkpt lat="34.99098795" lon="32.82789753"><ele>724.0</ele><time>2015-04-28T12:37:45.0000000+00:00</time></trkpt><trkpt lat="34.990982" lon="32.82788487"><ele>724.0</ele><time>2015-04-28T12:37:46.0000000+00:00</time></trkpt><trkpt lat="34.99097588" lon="32.82787054"><ele>724.0</ele><time>2015-04-28T12:37:47.0000000+00:00</time></trkpt><trkpt lat="34.99096717" lon="32.82785956"><ele>724.0</ele><time>2015-04-28T12:37:48.0000000+00:00</time></trkpt><trkpt lat="34.99095493" lon="32.82785193"><ele>724.0</ele><time>2015-04-28T12:37:49.0000000+00:00</time></trkpt><trkpt lat="34.99094445" lon="32.82784279"><ele>724.5</ele><time>2015-04-28T12:37:50.0000000+00:00</time></trkpt><trkpt lat="34.99093364" lon="32.82783274"><ele>724.5</ele><time>2015-04-28T12:37:51.0000000+00:00</time></trkpt><trkpt lat="34.99092367" lon="32.82782318"><ele>724.5</ele><time>2015-04-28T12:37:52.0000000+00:00</time></trkpt><trkpt lat="34.99091503" lon="32.82781262"><ele>724.5</ele><time>2015-04-28T12:37:53.0000000+00:00</time></trkpt><trkpt lat="34.99090824" lon="32.82780021"><ele>724.5</ele><time>2015-04-28T12:37:54.0000000+00:00</time></trkpt><trkpt lat="34.99090053" lon="32.82779058"><ele>725.0</ele><time>2015-04-28T12:37:55.0000000+00:00</time></trkpt><trkpt lat="34.9908893" lon="32.82778471"><ele>725.0</ele><time>2015-04-28T12:37:56.0000000+00:00</time></trkpt><trkpt lat="34.99085896" lon="32.82776325"><ele>725.5</ele><time>2015-04-28T12:37:59.0000000+00:00</time></trkpt><trkpt lat="34.99082753" lon="32.8277112"><ele>725.9</ele><time>2015-04-28T12:38:03.0000000+00:00</time></trkpt><trkpt lat="34.99081898" lon="32.82769083"><ele>725.9</ele><time>2015-04-28T12:38:04.0000000+00:00</time></trkpt><trkpt lat="34.99080649" lon="32.82767675"><ele>725.9</ele><time>2015-04-28T12:38:05.0000000+00:00</time></trkpt><trkpt lat="34.99079215" lon="32.82766862"><ele>725.9</ele><time>2015-04-28T12:38:06.0000000+00:00</time></trkpt><trkpt lat="34.9907779" lon="32.82766225"><ele>726.4</ele><time>2015-04-28T12:38:07.0000000+00:00</time></trkpt><trkpt lat="34.99076533" lon="32.82765605"><ele>726.4</ele><time>2015-04-28T12:38:08.0000000+00:00</time></trkpt><trkpt lat="34.99075309" lon="32.82764993"><ele>726.4</ele><time>2015-04-28T12:38:09.0000000+00:00</time></trkpt><trkpt lat="34.99073943" lon="32.82764322"><ele>726.9</ele><time>2015-04-28T12:38:10.0000000+00:00</time></trkpt><trkpt lat="34.99058051" lon="32.82759377"><ele>728.3</ele><time>2015-04-28T12:38:22.0000000+00:00</time></trkpt><trkpt lat="34.99056878" lon="32.82758606"><ele>728.3</ele><time>2015-04-28T12:38:23.0000000+00:00</time></trkpt><trkpt lat="34.99055964" lon="32.82757659"><ele>728.8</ele><time>2015-04-28T12:38:24.0000000+00:00</time></trkpt><trkpt lat="34.99052226" lon="32.82754457"><ele>729.3</ele><time>2015-04-28T12:38:28.0000000+00:00</time></trkpt><trkpt lat="34.990506" lon="32.82731088"><ele>730.3</ele><time>2015-04-28T12:38:45.0000000+00:00</time></trkpt><trkpt lat="34.99052561" lon="32.82715271"><ele>731.2</ele><time>2015-04-28T12:38:56.0000000+00:00</time></trkpt><trkpt lat="34.99052351" lon="32.82713637"><ele>731.7</ele><time>2015-04-28T12:38:57.0000000+00:00</time></trkpt><trkpt lat="34.99049971" lon="32.82692263"><ele>732.7</ele><time>2015-04-28T12:39:11.0000000+00:00</time></trkpt><trkpt lat="34.99049468" lon="32.82690905"><ele>732.7</ele><time>2015-04-28T12:39:12.0000000+00:00</time></trkpt><trkpt lat="34.99048973" lon="32.82674653"><ele>733.6</ele><time>2015-04-28T12:39:23.0000000+00:00</time></trkpt><trkpt lat="34.99048437" lon="32.82673177"><ele>733.6</ele><time>2015-04-28T12:39:24.0000000+00:00</time></trkpt><trkpt lat="34.99048127" lon="32.82671769"><ele>733.6</ele><time>2015-04-28T12:39:25.0000000+00:00</time></trkpt><trkpt lat="34.99048035" lon="32.82670252"><ele>734.1</ele><time>2015-04-28T12:39:26.0000000+00:00</time></trkpt><trkpt lat="34.99047775" lon="32.82668827"><ele>734.1</ele><time>2015-04-28T12:39:27.0000000+00:00</time></trkpt><trkpt lat="34.99047607" lon="32.82667427"><ele>734.1</ele><time>2015-04-28T12:39:28.0000000+00:00</time></trkpt><trkpt lat="34.99047649" lon="32.82665826"><ele>734.1</ele><time>2015-04-28T12:39:29.0000000+00:00</time></trkpt><trkpt lat="34.9904754" lon="32.82664318"><ele>734.1</ele><time>2015-04-28T12:39:30.0000000+00:00</time></trkpt><trkpt lat="34.9904728" lon="32.82662826"><ele>734.1</ele><time>2015-04-28T12:39:31.0000000+00:00</time></trkpt><trkpt lat="34.99047138" lon="32.82661376"><ele>734.6</ele><time>2015-04-28T12:39:32.0000000+00:00</time></trkpt><trkpt lat="34.99047272" lon="32.8265985"><ele>734.6</ele><time>2015-04-28T12:39:33.0000000+00:00</time></trkpt><trkpt lat="34.99047473" lon="32.8265804"><ele>734.6</ele><time>2015-04-28T12:39:34.0000000+00:00</time></trkpt><trkpt lat="34.99046886" lon="32.82637211"><ele>736.0</ele><time>2015-04-28T12:39:48.0000000+00:00</time></trkpt><trkpt lat="34.99047356" lon="32.82635853"><ele>736.0</ele><time>2015-04-28T12:39:49.0000000+00:00</time></trkpt><trkpt lat="34.99047926" lon="32.82634621"><ele>736.0</ele><time>2015-04-28T12:39:50.0000000+00:00</time></trkpt><trkpt lat="34.99048479" lon="32.82633531"><ele>736.5</ele><time>2015-04-28T12:39:51.0000000+00:00</time></trkpt><trkpt lat="34.99051262" lon="32.8263074"><ele>737.0</ele><time>2015-04-28T12:39:55.0000000+00:00</time></trkpt><trkpt lat="34.99052075" lon="32.82630036"><ele>737.5</ele><time>2015-04-28T12:39:56.0000000+00:00</time></trkpt><trkpt lat="34.99052963" lon="32.82629482"><ele>737.5</ele><time>2015-04-28T12:39:57.0000000+00:00</time></trkpt><trkpt lat="34.99053885" lon="32.82628887"><ele>738.0</ele><time>2015-04-28T12:39:58.0000000+00:00</time></trkpt><trkpt lat="34.99054757" lon="32.82627932"><ele>738.0</ele><time>2015-04-28T12:39:59.0000000+00:00</time></trkpt><trkpt lat="34.99058764" lon="32.8262338"><ele>739.4</ele><time>2015-04-28T12:40:04.0000000+00:00</time></trkpt><trkpt lat="34.99062695" lon="32.82618695"><ele>740.4</ele><time>2015-04-28T12:40:08.0000000+00:00</time></trkpt><trkpt lat="34.9906386" lon="32.82617781"><ele>740.8</ele><time>2015-04-28T12:40:09.0000000+00:00</time></trkpt><trkpt lat="34.99065067" lon="32.82616943"><ele>740.8</ele><time>2015-04-28T12:40:10.0000000+00:00</time></trkpt><trkpt lat="34.9906614" lon="32.82616398"><ele>741.3</ele><time>2015-04-28T12:40:11.0000000+00:00</time></trkpt><trkpt lat="34.9906712" lon="32.82615543"><ele>741.3</ele><time>2015-04-28T12:40:12.0000000+00:00</time></trkpt><trkpt lat="34.99069098" lon="32.82611285"><ele>742.3</ele><time>2015-04-28T12:40:15.0000000+00:00</time></trkpt><trkpt lat="34.99069115" lon="32.82609995"><ele>742.8</ele><time>2015-04-28T12:40:16.0000000+00:00</time></trkpt><trkpt lat="34.9907059" lon="32.82608813"><ele>742.8</ele><time>2015-04-28T12:40:27.0000000+00:00</time></trkpt><trkpt lat="34.99072568" lon="32.8260551"><ele>743.2</ele><time>2015-04-28T12:40:50.0000000+00:00</time></trkpt><trkpt lat="34.99070758" lon="32.82607254"><ele>743.2</ele><time>2015-04-28T12:41:10.0000000+00:00</time></trkpt><trkpt lat="34.99072585" lon="32.82606876"><ele>743.7</ele><time>2015-04-28T12:41:46.0000000+00:00</time></trkpt><trkpt lat="34.99070297" lon="32.82603608"><ele>744.2</ele><time>2015-04-28T12:42:32.0000000+00:00</time></trkpt><trkpt lat="34.99067908" lon="32.82604965"><ele>744.2</ele><time>2015-04-28T12:43:17.0000000+00:00</time></trkpt><trkpt lat="34.99069643" lon="32.82598838"><ele>744.7</ele><time>2015-04-28T12:44:04.0000000+00:00</time></trkpt><trkpt lat="34.99066693" lon="32.82602551"><ele>744.7</ele><time>2015-04-28T12:44:55.0000000+00:00</time></trkpt><trkpt lat="34.99069124" lon="32.82600699"><ele>744.7</ele><time>2015-04-28T12:45:57.0000000+00:00</time></trkpt><trkpt lat="34.99069928" lon="32.8260256"><ele>745.2</ele><time>2015-04-28T12:46:35.0000000+00:00</time></trkpt><trkpt lat="34.99068973" lon="32.82602803"><ele>744.7</ele><time>2015-04-28T12:47:21.0000000+00:00</time></trkpt><trkpt lat="34.99067883" lon="32.82603214"><ele>744.7</ele><time>2015-04-28T12:48:07.0000000+00:00</time></trkpt><trkpt lat="34.99065863" lon="32.82602493"><ele>744.7</ele><time>2015-04-28T12:49:00.0000000+00:00</time></trkpt><trkpt lat="34.99067564" lon="32.82602711"><ele>744.7</ele><time>2015-04-28T12:49:45.0000000+00:00</time></trkpt><trkpt lat="34.99068369" lon="32.82602644"><ele>744.7</ele><time>2015-04-28T12:50:26.0000000+00:00</time></trkpt><trkpt lat="34.99067606" lon="32.82606114"><ele>744.2</ele><time>2015-04-28T12:51:07.0000000+00:00</time></trkpt><trkpt lat="34.99069601" lon="32.82605929"><ele>744.7</ele><time>2015-04-28T12:51:26.0000000+00:00</time></trkpt><trkpt lat="34.99069585" lon="32.826081"><ele>745.2</ele><time>2015-04-28T12:51:48.0000000+00:00</time></trkpt><trkpt lat="34.99072091" lon="32.82608"><ele>744.7</ele><time>2015-04-28T12:52:08.0000000+00:00</time></trkpt><trkpt lat="34.99073734" lon="32.82604395"><ele>745.6</ele><time>2015-04-28T12:52:27.0000000+00:00</time></trkpt><trkpt lat="34.99079391" lon="32.82595008"><ele>748.0</ele><time>2015-04-28T12:52:45.0000000+00:00</time></trkpt><trkpt lat="34.9908401" lon="32.82587665"><ele>749.5</ele><time>2015-04-28T12:53:03.0000000+00:00</time></trkpt><trkpt lat="34.99088251" lon="32.82578889"><ele>750.9</ele><time>2015-04-28T12:53:20.0000000+00:00</time></trkpt><trkpt lat="34.99092082" lon="32.82568764"><ele>752.9</ele><time>2015-04-28T12:53:38.0000000+00:00</time></trkpt><trkpt lat="34.99097706" lon="32.8256241"><ele>754.3</ele><time>2015-04-28T12:53:51.0000000+00:00</time></trkpt><trkpt lat="34.99108393" lon="32.82561312"><ele>756.2</ele><time>2015-04-28T12:54:06.0000000+00:00</time></trkpt><trkpt lat="34.99116951" lon="32.82565881"><ele>757.7</ele><time>2015-04-28T12:54:19.0000000+00:00</time></trkpt><trkpt lat="34.9912716" lon="32.82576232"><ele>759.6</ele><time>2015-04-28T12:54:37.0000000+00:00</time></trkpt><trkpt lat="34.99128635" lon="32.82578537"><ele>759.6</ele><time>2015-04-28T12:54:40.0000000+00:00</time></trkpt><trkpt lat="34.99131418" lon="32.82588906"><ele>760.5</ele><time>2015-04-28T12:54:49.0000000+00:00</time></trkpt><trkpt lat="34.99131057" lon="32.82590196"><ele>760.5</ele><time>2015-04-28T12:54:50.0000000+00:00</time></trkpt><trkpt lat="34.99131007" lon="32.82591831"><ele>760.5</ele><time>2015-04-28T12:54:51.0000000+00:00</time></trkpt><trkpt lat="34.99131409" lon="32.82593398"><ele>760.5</ele><time>2015-04-28T12:54:52.0000000+00:00</time></trkpt><trkpt lat="34.99128576" lon="32.82611998"><ele>761.5</ele><time>2015-04-28T12:55:05.0000000+00:00</time></trkpt><trkpt lat="34.99126623" lon="32.82622148"><ele>761.5</ele><time>2015-04-28T12:55:10.0000000+00:00</time></trkpt><trkpt lat="34.99125676" lon="32.82623137"><ele>761.5</ele><time>2015-04-28T12:55:11.0000000+00:00</time></trkpt><trkpt lat="34.99124612" lon="32.82624328"><ele>761.5</ele><time>2015-04-28T12:55:12.0000000+00:00</time></trkpt><trkpt lat="34.99123807" lon="32.82625836"><ele>762.0</ele><time>2015-04-28T12:55:13.0000000+00:00</time></trkpt><trkpt lat="34.9912348" lon="32.82627789"><ele>762.0</ele><time>2015-04-28T12:55:14.0000000+00:00</time></trkpt><trkpt lat="34.99123564" lon="32.82630052"><ele>762.0</ele><time>2015-04-28T12:55:15.0000000+00:00</time></trkpt><trkpt lat="34.99124" lon="32.82632299"><ele>762.0</ele><time>2015-04-28T12:55:16.0000000+00:00</time></trkpt><trkpt lat="34.99124469" lon="32.82634562"><ele>762.0</ele><time>2015-04-28T12:55:17.0000000+00:00</time></trkpt><trkpt lat="34.99126724" lon="32.82639004"><ele>762.5</ele><time>2015-04-28T12:55:20.0000000+00:00</time></trkpt><trkpt lat="34.99127688" lon="32.82639088"><ele>762.5</ele><time>2015-04-28T12:55:21.0000000+00:00</time></trkpt><trkpt lat="34.99128208" lon="32.82638669"><ele>762.9</ele><time>2015-04-28T12:55:22.0000000+00:00</time></trkpt><trkpt lat="34.99128744" lon="32.82637814"><ele>762.9</ele><time>2015-04-28T12:55:23.0000000+00:00</time></trkpt><trkpt lat="34.99129163" lon="32.82636733"><ele>762.9</ele><time>2015-04-28T12:55:24.0000000+00:00</time></trkpt><trkpt lat="34.99129993" lon="32.82635786"><ele>763.4</ele><time>2015-04-28T12:55:25.0000000+00:00</time></trkpt><trkpt lat="34.99134695" lon="32.82628929"><ele>764.9</ele><time>2015-04-28T12:55:34.0000000+00:00</time></trkpt><trkpt lat="34.9913762" lon="32.82615761"><ele>766.3</ele><time>2015-04-28T12:55:47.0000000+00:00</time></trkpt><trkpt lat="34.99139682" lon="32.82609886"><ele>767.3</ele><time>2015-04-28T12:55:52.0000000+00:00</time></trkpt><trkpt lat="34.99141099" lon="32.82606508"><ele>767.3</ele><time>2015-04-28T12:55:55.0000000+00:00</time></trkpt><trkpt lat="34.9914182" lon="32.82605309"><ele>767.3</ele><time>2015-04-28T12:55:56.0000000+00:00</time></trkpt><trkpt lat="34.99145231" lon="32.82594563"><ele>768.2</ele><time>2015-04-28T12:56:04.0000000+00:00</time></trkpt><trkpt lat="34.99148458" lon="32.82581228"><ele>769.7</ele><time>2015-04-28T12:56:16.0000000+00:00</time></trkpt><trkpt lat="34.991514" lon="32.82570499"><ele>770.6</ele><time>2015-04-28T12:56:25.0000000+00:00</time></trkpt><trkpt lat="34.99151769" lon="32.82569015"><ele>770.6</ele><time>2015-04-28T12:56:26.0000000+00:00</time></trkpt><trkpt lat="34.9915161" lon="32.82567414"><ele>771.1</ele><time>2015-04-28T12:56:27.0000000+00:00</time></trkpt><trkpt lat="34.99152197" lon="32.82562704"><ele>771.1</ele><time>2015-04-28T12:56:30.0000000+00:00</time></trkpt><trkpt lat="34.99152314" lon="32.82561195"><ele>771.1</ele><time>2015-04-28T12:56:31.0000000+00:00</time></trkpt><trkpt lat="34.99150797" lon="32.82543794"><ele>773.0</ele><time>2015-04-28T12:56:45.0000000+00:00</time></trkpt><trkpt lat="34.99152993" lon="32.82521247"><ele>774.5</ele><time>2015-04-28T12:57:02.0000000+00:00</time></trkpt><trkpt lat="34.99152674" lon="32.82519621"><ele>774.5</ele><time>2015-04-28T12:57:03.0000000+00:00</time></trkpt><trkpt lat="34.99152725" lon="32.82518305"><ele>774.5</ele><time>2015-04-28T12:57:04.0000000+00:00</time></trkpt><trkpt lat="34.99152725" lon="32.82516704"><ele>775.0</ele><time>2015-04-28T12:57:05.0000000+00:00</time></trkpt><trkpt lat="34.99152666" lon="32.82509672"><ele>775.4</ele><time>2015-04-28T12:57:10.0000000+00:00</time></trkpt><trkpt lat="34.99152297" lon="32.82508054"><ele>775.4</ele><time>2015-04-28T12:57:11.0000000+00:00</time></trkpt><trkpt lat="34.99152264" lon="32.82506621"><ele>775.4</ele><time>2015-04-28T12:57:12.0000000+00:00</time></trkpt><trkpt lat="34.99151895" lon="32.82504919"><ele>775.9</ele><time>2015-04-28T12:57:13.0000000+00:00</time></trkpt><trkpt lat="34.99151442" lon="32.82503444"><ele>775.4</ele><time>2015-04-28T12:57:14.0000000+00:00</time></trkpt><trkpt lat="34.99145198" lon="32.82489345"><ele>776.4</ele><time>2015-04-28T12:57:25.0000000+00:00</time></trkpt><trkpt lat="34.99144041" lon="32.82488859"><ele>776.9</ele><time>2015-04-28T12:57:26.0000000+00:00</time></trkpt><trkpt lat="34.99142926" lon="32.82488164"><ele>776.4</ele><time>2015-04-28T12:57:27.0000000+00:00</time></trkpt><trkpt lat="34.99141786" lon="32.82487275"><ele>776.9</ele><time>2015-04-28T12:57:28.0000000+00:00</time></trkpt><trkpt lat="34.99140596" lon="32.82486496"><ele>776.9</ele><time>2015-04-28T12:57:29.0000000+00:00</time></trkpt><trkpt lat="34.99139607" lon="32.82485398"><ele>776.9</ele><time>2015-04-28T12:57:30.0000000+00:00</time></trkpt><trkpt lat="34.99138794" lon="32.8248404"><ele>776.9</ele><time>2015-04-28T12:57:31.0000000+00:00</time></trkpt><trkpt lat="34.99137579" lon="32.82482749"><ele>776.9</ele><time>2015-04-28T12:57:32.0000000+00:00</time></trkpt><trkpt lat="34.99104076" lon="32.8246689"><ele>778.3</ele><time>2015-04-28T12:57:50.0000000+00:00</time></trkpt><trkpt lat="34.99088746" lon="32.82485398"><ele>780.3</ele><time>2015-04-28T12:58:04.0000000+00:00</time></trkpt><trkpt lat="34.99069777" lon="32.82507643"><ele>780.7</ele><time>2015-04-28T12:58:18.0000000+00:00</time></trkpt><trkpt lat="34.99048739" lon="32.82527491"><ele>781.2</ele><time>2015-04-28T12:58:30.0000000+00:00</time></trkpt><trkpt lat="34.99020634" lon="32.82542286"><ele>782.7</ele><time>2015-04-28T12:58:45.0000000+00:00</time></trkpt><trkpt lat="34.98993762" lon="32.82550458"><ele>784.1</ele><time>2015-04-28T12:59:01.0000000+00:00</time></trkpt><trkpt lat="34.989917" lon="32.82551958"><ele>783.6</ele><time>2015-04-28T12:59:03.0000000+00:00</time></trkpt><trkpt lat="34.98973846" lon="32.82574531"><ele>785.1</ele><time>2015-04-28T12:59:17.0000000+00:00</time></trkpt><trkpt lat="34.98969337" lon="32.8257909"><ele>785.5</ele><time>2015-04-28T12:59:21.0000000+00:00</time></trkpt><trkpt lat="34.98966286" lon="32.82580976"><ele>786.0</ele><time>2015-04-28T12:59:23.0000000+00:00</time></trkpt><trkpt lat="34.98964434" lon="32.82581655"><ele>785.5</ele><time>2015-04-28T12:59:24.0000000+00:00</time></trkpt><trkpt lat="34.98962673" lon="32.82582217"><ele>786.0</ele><time>2015-04-28T12:59:25.0000000+00:00</time></trkpt><trkpt lat="34.98934904" lon="32.82592158"><ele>786.0</ele><time>2015-04-28T12:59:38.0000000+00:00</time></trkpt><trkpt lat="34.98915601" lon="32.8258883"><ele>789.4</ele><time>2015-04-28T12:59:46.0000000+00:00</time></trkpt><trkpt lat="34.98901829" lon="32.82572125"><ele>790.8</ele><time>2015-04-28T12:59:57.0000000+00:00</time></trkpt><trkpt lat="34.98900882" lon="32.82571522"><ele>790.8</ele><time>2015-04-28T12:59:58.0000000+00:00</time></trkpt><trkpt lat="34.98900052" lon="32.82570683"><ele>791.3</ele><time>2015-04-28T12:59:59.0000000+00:00</time></trkpt><trkpt lat="34.98887144" lon="32.82548178"><ele>793.2</ele><time>2015-04-28T13:00:17.0000000+00:00</time></trkpt><trkpt lat="34.98886708" lon="32.82546795"><ele>793.2</ele><time>2015-04-28T13:00:18.0000000+00:00</time></trkpt><trkpt lat="34.98886012" lon="32.82545395"><ele>793.2</ele><time>2015-04-28T13:00:19.0000000+00:00</time></trkpt><trkpt lat="34.9888504" lon="32.82544247"><ele>793.2</ele><time>2015-04-28T13:00:20.0000000+00:00</time></trkpt><trkpt lat="34.98883791" lon="32.82543166"><ele>793.2</ele><time>2015-04-28T13:00:21.0000000+00:00</time></trkpt><trkpt lat="34.98882869" lon="32.82541883"><ele>793.7</ele><time>2015-04-28T13:00:22.0000000+00:00</time></trkpt><trkpt lat="34.98882115" lon="32.825404"><ele>793.7</ele><time>2015-04-28T13:00:23.0000000+00:00</time></trkpt><trkpt lat="34.98878779" lon="32.82532948"><ele>794.7</ele><time>2015-04-28T13:00:28.0000000+00:00</time></trkpt><trkpt lat="34.98879357" lon="32.82527131"><ele>795.6</ele><time>2015-04-28T13:00:32.0000000+00:00</time></trkpt><trkpt lat="34.98879508" lon="32.82525564"><ele>795.6</ele><time>2015-04-28T13:00:33.0000000+00:00</time></trkpt><trkpt lat="34.98880053" lon="32.82524155"><ele>796.1</ele><time>2015-04-28T13:00:34.0000000+00:00</time></trkpt><trkpt lat="34.98880556" lon="32.82522781"><ele>796.1</ele><time>2015-04-28T13:00:35.0000000+00:00</time></trkpt><trkpt lat="34.98881235" lon="32.82521398"><ele>796.1</ele><time>2015-04-28T13:00:36.0000000+00:00</time></trkpt><trkpt lat="34.98882073" lon="32.82519847"><ele>796.1</ele><time>2015-04-28T13:00:37.0000000+00:00</time></trkpt><trkpt lat="34.98882827" lon="32.82518246"><ele>796.6</ele><time>2015-04-28T13:00:38.0000000+00:00</time></trkpt><trkpt lat="34.98883179" lon="32.82516737"><ele>796.6</ele><time>2015-04-28T13:00:39.0000000+00:00</time></trkpt><trkpt lat="34.98883749" lon="32.82515438"><ele>796.6</ele><time>2015-04-28T13:00:40.0000000+00:00</time></trkpt><trkpt lat="34.9888421" lon="32.8251403"><ele>796.6</ele><time>2015-04-28T13:00:41.0000000+00:00</time></trkpt><trkpt lat="34.98886482" lon="32.82507945"><ele>797.1</ele><time>2015-04-28T13:00:45.0000000+00:00</time></trkpt><trkpt lat="34.98886968" lon="32.82504676"><ele>797.6</ele><time>2015-04-28T13:00:47.0000000+00:00</time></trkpt><trkpt lat="34.98887513" lon="32.82503234"><ele>797.6</ele><time>2015-04-28T13:00:48.0000000+00:00</time></trkpt><trkpt lat="34.98887588" lon="32.82501902"><ele>797.6</ele><time>2015-04-28T13:00:49.0000000+00:00</time></trkpt><trkpt lat="34.98887555" lon="32.82500552"><ele>797.6</ele><time>2015-04-28T13:00:50.0000000+00:00</time></trkpt><trkpt lat="34.9888784" lon="32.82499253"><ele>797.6</ele><time>2015-04-28T13:00:51.0000000+00:00</time></trkpt><trkpt lat="34.98888074" lon="32.82497853"><ele>797.6</ele><time>2015-04-28T13:00:52.0000000+00:00</time></trkpt><trkpt lat="34.98889013" lon="32.82494701"><ele>798.0</ele><time>2015-04-28T13:00:55.0000000+00:00</time></trkpt><trkpt lat="34.98888586" lon="32.82493696"><ele>798.0</ele><time>2015-04-28T13:00:56.0000000+00:00</time></trkpt><trkpt lat="34.98888108" lon="32.82492455"><ele>798.0</ele><time>2015-04-28T13:00:57.0000000+00:00</time></trkpt><trkpt lat="34.98887588" lon="32.82491324"><ele>798.0</ele><time>2015-04-28T13:00:58.0000000+00:00</time></trkpt><trkpt lat="34.98887052" lon="32.82489966"><ele>798.0</ele><time>2015-04-28T13:00:59.0000000+00:00</time></trkpt><trkpt lat="34.98886499" lon="32.82488801"><ele>798.5</ele><time>2015-04-28T13:01:00.0000000+00:00</time></trkpt><trkpt lat="34.98885836" lon="32.82487552"><ele>798.5</ele><time>2015-04-28T13:01:01.0000000+00:00</time></trkpt><trkpt lat="34.98885275" lon="32.82486127"><ele>798.5</ele><time>2015-04-28T13:01:02.0000000+00:00</time></trkpt><trkpt lat="34.98884797" lon="32.82484584"><ele>798.5</ele><time>2015-04-28T13:01:03.0000000+00:00</time></trkpt><trkpt lat="34.98879567" lon="32.82476437"><ele>800.0</ele><time>2015-04-28T13:01:09.0000000+00:00</time></trkpt><trkpt lat="34.98878703" lon="32.8247513"><ele>800.4</ele><time>2015-04-28T13:01:10.0000000+00:00</time></trkpt><trkpt lat="34.98877731" lon="32.82473671"><ele>800.9</ele><time>2015-04-28T13:01:11.0000000+00:00</time></trkpt><trkpt lat="34.98876642" lon="32.82472414"><ele>800.9</ele><time>2015-04-28T13:01:12.0000000+00:00</time></trkpt><trkpt lat="34.98875611" lon="32.82471442"><ele>800.9</ele><time>2015-04-28T13:01:13.0000000+00:00</time></trkpt><trkpt lat="34.98872945" lon="32.82468768"><ele>801.4</ele><time>2015-04-28T13:01:16.0000000+00:00</time></trkpt><trkpt lat="34.9887204" lon="32.82467972"><ele>801.4</ele><time>2015-04-28T13:01:17.0000000+00:00</time></trkpt><trkpt lat="34.98871185" lon="32.82466857"><ele>801.9</ele><time>2015-04-28T13:01:18.0000000+00:00</time></trkpt><trkpt lat="34.98870556" lon="32.82465407"><ele>801.9</ele><time>2015-04-28T13:01:19.0000000+00:00</time></trkpt><trkpt lat="34.98870062" lon="32.82464015"><ele>801.9</ele><time>2015-04-28T13:01:20.0000000+00:00</time></trkpt><trkpt lat="34.98868913" lon="32.8245819"><ele>801.9</ele><time>2015-04-28T13:01:24.0000000+00:00</time></trkpt><trkpt lat="34.98868654" lon="32.82456857"><ele>802.4</ele><time>2015-04-28T13:01:25.0000000+00:00</time></trkpt><trkpt lat="34.98868587" lon="32.82455591"><ele>802.4</ele><time>2015-04-28T13:01:26.0000000+00:00</time></trkpt><trkpt lat="34.98868503" lon="32.82454208"><ele>802.4</ele><time>2015-04-28T13:01:27.0000000+00:00</time></trkpt><trkpt lat="34.98868327" lon="32.82452339"><ele>802.4</ele><time>2015-04-28T13:01:28.0000000+00:00</time></trkpt><trkpt lat="34.98868243" lon="32.8245016"><ele>802.4</ele><time>2015-04-28T13:01:29.0000000+00:00</time></trkpt><trkpt lat="34.98867706" lon="32.8244778"><ele>802.4</ele><time>2015-04-28T13:01:30.0000000+00:00</time></trkpt><trkpt lat="34.98867497" lon="32.82445366"><ele>802.4</ele><time>2015-04-28T13:01:31.0000000+00:00</time></trkpt><trkpt lat="34.98867212" lon="32.82443061"><ele>802.4</ele><time>2015-04-28T13:01:32.0000000+00:00</time></trkpt><trkpt lat="34.98866692" lon="32.82441074"><ele>802.4</ele><time>2015-04-28T13:01:33.0000000+00:00</time></trkpt><trkpt lat="34.9886603" lon="32.82439297"><ele>802.4</ele><time>2015-04-28T13:01:34.0000000+00:00</time></trkpt><trkpt lat="34.98854882" lon="32.82412257"><ele>802.4</ele><time>2015-04-28T13:01:49.0000000+00:00</time></trkpt><trkpt lat="34.98848235" lon="32.82372368"><ele>802.4</ele><time>2015-04-28T13:02:02.0000000+00:00</time></trkpt><trkpt lat="34.98847229" lon="32.82352368"><ele>801.9</ele><time>2015-04-28T13:02:05.0000000+00:00</time></trkpt><trkpt lat="34.98845327" lon="32.8234599"><ele>802.8</ele><time>2015-04-28T13:02:06.0000000+00:00</time></trkpt><trkpt lat="34.98839828" lon="32.82334917"><ele>804.3</ele><time>2015-04-28T13:02:09.0000000+00:00</time></trkpt><trkpt lat="34.98837288" lon="32.82333224"><ele>804.3</ele><time>2015-04-28T13:02:10.0000000+00:00</time></trkpt><trkpt lat="34.98835201" lon="32.82332805"><ele>804.8</ele><time>2015-04-28T13:02:11.0000000+00:00</time></trkpt><trkpt lat="34.9883044" lon="32.82332336"><ele>805.7</ele><time>2015-04-28T13:02:14.0000000+00:00</time></trkpt><trkpt lat="34.98813702" lon="32.82337591"><ele>808.1</ele><time>2015-04-28T13:02:25.0000000+00:00</time></trkpt><trkpt lat="34.9881231" lon="32.82337876"><ele>808.1</ele><time>2015-04-28T13:02:26.0000000+00:00</time></trkpt><trkpt lat="34.98810911" lon="32.82338102"><ele>808.1</ele><time>2015-04-28T13:02:27.0000000+00:00</time></trkpt><trkpt lat="34.98809452" lon="32.82338345"><ele>808.6</ele><time>2015-04-28T13:02:28.0000000+00:00</time></trkpt><trkpt lat="34.98807801" lon="32.82338697"><ele>808.6</ele><time>2015-04-28T13:02:29.0000000+00:00</time></trkpt><trkpt lat="34.98806016" lon="32.82339301"><ele>808.6</ele><time>2015-04-28T13:02:30.0000000+00:00</time></trkpt><trkpt lat="34.98804188" lon="32.82339997"><ele>808.6</ele><time>2015-04-28T13:02:31.0000000+00:00</time></trkpt><trkpt lat="34.98802353" lon="32.82340667"><ele>808.6</ele><time>2015-04-28T13:02:32.0000000+00:00</time></trkpt><trkpt lat="34.9878631" lon="32.82344137"><ele>810.5</ele><time>2015-04-28T13:02:44.0000000+00:00</time></trkpt><trkpt lat="34.98767652" lon="32.8234065"><ele>812.5</ele><time>2015-04-28T13:03:00.0000000+00:00</time></trkpt><trkpt lat="34.98750016" lon="32.82342075"><ele>814.4</ele><time>2015-04-28T13:03:15.0000000+00:00</time></trkpt><trkpt lat="34.98748549" lon="32.82341992"><ele>814.4</ele><time>2015-04-28T13:03:16.0000000+00:00</time></trkpt><trkpt lat="34.98747124" lon="32.82342243"><ele>814.4</ele><time>2015-04-28T13:03:17.0000000+00:00</time></trkpt><trkpt lat="34.98745582" lon="32.82342352"><ele>814.9</ele><time>2015-04-28T13:03:18.0000000+00:00</time></trkpt><trkpt lat="34.98743855" lon="32.82342327"><ele>814.9</ele><time>2015-04-28T13:03:19.0000000+00:00</time></trkpt><trkpt lat="34.98728659" lon="32.82339762"><ele>815.3</ele><time>2015-04-28T13:03:30.0000000+00:00</time></trkpt><trkpt lat="34.98711811" lon="32.82336116"><ele>815.8</ele><time>2015-04-28T13:03:39.0000000+00:00</time></trkpt><trkpt lat="34.98700102" lon="32.82342914"><ele>817.3</ele><time>2015-04-28T13:03:46.0000000+00:00</time></trkpt><trkpt lat="34.98699071" lon="32.82344288"><ele>817.3</ele><time>2015-04-28T13:03:47.0000000+00:00</time></trkpt><trkpt lat="34.98697763" lon="32.82345445"><ele>817.7</ele><time>2015-04-28T13:03:48.0000000+00:00</time></trkpt><trkpt lat="34.98696389" lon="32.82346434"><ele>817.7</ele><time>2015-04-28T13:03:49.0000000+00:00</time></trkpt><trkpt lat="34.98695031" lon="32.8234739"><ele>818.2</ele><time>2015-04-28T13:03:50.0000000+00:00</time></trkpt><trkpt lat="34.9869369" lon="32.82348529"><ele>818.2</ele><time>2015-04-28T13:03:51.0000000+00:00</time></trkpt><trkpt lat="34.9869265" lon="32.82349627"><ele>818.7</ele><time>2015-04-28T13:03:52.0000000+00:00</time></trkpt><trkpt lat="34.98668402" lon="32.82361547"><ele>821.1</ele><time>2015-04-28T13:04:08.0000000+00:00</time></trkpt><trkpt lat="34.98645846" lon="32.82367003"><ele>822.6</ele><time>2015-04-28T13:04:23.0000000+00:00</time></trkpt><trkpt lat="34.98638202" lon="32.82367104"><ele>822.6</ele><time>2015-04-28T13:04:33.0000000+00:00</time></trkpt><trkpt lat="34.98638327" lon="32.82363441"><ele>822.6</ele><time>2015-04-28T13:04:37.0000000+00:00</time></trkpt><trkpt lat="34.98638059" lon="32.82362192"><ele>822.6</ele><time>2015-04-28T13:04:38.0000000+00:00</time></trkpt><trkpt lat="34.98637414" lon="32.82360859"><ele>822.6</ele><time>2015-04-28T13:04:39.0000000+00:00</time></trkpt><trkpt lat="34.98636953" lon="32.82358286"><ele>822.6</ele><time>2015-04-28T13:04:41.0000000+00:00</time></trkpt><trkpt lat="34.98636777" lon="32.82357196"><ele>822.6</ele><time>2015-04-28T13:04:42.0000000+00:00</time></trkpt><trkpt lat="34.98636198" lon="32.82355637"><ele>822.6</ele><time>2015-04-28T13:04:43.0000000+00:00</time></trkpt><trkpt lat="34.98635243" lon="32.82353668"><ele>822.6</ele><time>2015-04-28T13:04:44.0000000+00:00</time></trkpt><trkpt lat="34.98634245" lon="32.82351756"><ele>822.6</ele><time>2015-04-28T13:04:45.0000000+00:00</time></trkpt><trkpt lat="34.98633206" lon="32.82349887"><ele>822.6</ele><time>2015-04-28T13:04:46.0000000+00:00</time></trkpt><trkpt lat="34.98632066" lon="32.82348496"><ele>823.0</ele><time>2015-04-28T13:04:47.0000000+00:00</time></trkpt><trkpt lat="34.98630649" lon="32.82347339"><ele>822.6</ele><time>2015-04-28T13:04:48.0000000+00:00</time></trkpt><trkpt lat="34.98629015" lon="32.82346484"><ele>822.6</ele><time>2015-04-28T13:04:49.0000000+00:00</time></trkpt><trkpt lat="34.98627288" lon="32.82345504"><ele>823.0</ele><time>2015-04-28T13:04:50.0000000+00:00</time></trkpt><trkpt lat="34.98625654" lon="32.82344313"><ele>823.0</ele><time>2015-04-28T13:04:51.0000000+00:00</time></trkpt><trkpt lat="34.98624581" lon="32.8234293"><ele>823.0</ele><time>2015-04-28T13:04:52.0000000+00:00</time></trkpt><trkpt lat="34.98623751" lon="32.82341648"><ele>823.0</ele><time>2015-04-28T13:04:53.0000000+00:00</time></trkpt><trkpt lat="34.98622955" lon="32.82340491"><ele>823.0</ele><time>2015-04-28T13:04:54.0000000+00:00</time></trkpt><trkpt lat="34.98621739" lon="32.82340961"><ele>823.0</ele><time>2015-04-28T13:05:05.0000000+00:00</time></trkpt><trkpt lat="34.98621999" lon="32.82339452"><ele>822.6</ele><time>2015-04-28T13:05:24.0000000+00:00</time></trkpt><trkpt lat="34.98624237" lon="32.82332545"><ele>822.6</ele><time>2015-04-28T13:06:04.0000000+00:00</time></trkpt><trkpt lat="34.98625687" lon="32.82332025"><ele>822.6</ele><time>2015-04-28T13:06:51.0000000+00:00</time></trkpt><trkpt lat="34.98625235" lon="32.82333048"><ele>822.6</ele><time>2015-04-28T13:07:35.0000000+00:00</time></trkpt><trkpt lat="34.98625143" lon="32.82331447"><ele>822.6</ele><time>2015-04-28T13:08:14.0000000+00:00</time></trkpt><trkpt lat="34.98626341" lon="32.82330961"><ele>823.0</ele><time>2015-04-28T13:08:59.0000000+00:00</time></trkpt><trkpt lat="34.98626291" lon="32.82330492"><ele>823.0</ele><time>2015-04-28T13:09:39.0000000+00:00</time></trkpt><trkpt lat="34.98625285" lon="32.82329704"><ele>823.0</ele><time>2015-04-28T13:10:24.0000000+00:00</time></trkpt><trkpt lat="34.98626534" lon="32.82330617"><ele>823.0</ele><time>2015-04-28T13:11:13.0000000+00:00</time></trkpt><trkpt lat="34.98627163" lon="32.82328631"><ele>823.0</ele><time>2015-04-28T13:12:01.0000000+00:00</time></trkpt><trkpt lat="34.98627087" lon="32.82328505"><ele>823.0</ele><time>2015-04-28T13:12:49.0000000+00:00</time></trkpt><trkpt lat="34.98626844" lon="32.82328136"><ele>823.0</ele><time>2015-04-28T13:13:36.0000000+00:00</time></trkpt><trkpt lat="34.98626794" lon="32.82326284"><ele>822.6</ele><time>2015-04-28T13:14:17.0000000+00:00</time></trkpt><trkpt lat="34.98625444" lon="32.82329075"><ele>822.6</ele><time>2015-04-28T13:15:01.0000000+00:00</time></trkpt><trkpt lat="34.98627045" lon="32.82327742"><ele>823.0</ele><time>2015-04-28T13:15:38.0000000+00:00</time></trkpt><trkpt lat="34.98624941" lon="32.82327508"><ele>822.6</ele><time>2015-04-28T13:16:22.0000000+00:00</time></trkpt><trkpt lat="34.98625939" lon="32.82328606"><ele>822.6</ele><time>2015-04-28T13:16:53.0000000+00:00</time></trkpt><trkpt lat="34.98625796" lon="32.82328773"><ele>822.6</ele><time>2015-04-28T13:17:27.0000000+00:00</time></trkpt><trkpt lat="34.98624606" lon="32.82332017"><ele>822.1</ele><time>2015-04-28T13:18:03.0000000+00:00</time></trkpt><trkpt lat="34.98624992" lon="32.82334222"><ele>822.6</ele><time>2015-04-28T13:18:32.0000000+00:00</time></trkpt><trkpt lat="34.98624807" lon="32.82331472"><ele>822.6</ele><time>2015-04-28T13:19:10.0000000+00:00</time></trkpt><trkpt lat="34.98625352" lon="32.82332109"><ele>822.6</ele><time>2015-04-28T13:19:41.0000000+00:00</time></trkpt><trkpt lat="34.98624279" lon="32.82334029"><ele>822.6</ele><time>2015-04-28T13:20:13.0000000+00:00</time></trkpt><trkpt lat="34.98624413" lon="32.8233475"><ele>822.6</ele><time>2015-04-28T13:20:49.0000000+00:00</time></trkpt><trkpt lat="34.98624858" lon="32.82331162"><ele>823.0</ele><time>2015-04-28T13:21:23.0000000+00:00</time></trkpt><trkpt lat="34.98624908" lon="32.82331171"><ele>822.6</ele><time>2015-04-28T13:22:01.0000000+00:00</time></trkpt><trkpt lat="34.9862464" lon="32.82329922"><ele>822.6</ele><time>2015-04-28T13:22:37.0000000+00:00</time></trkpt><trkpt lat="34.98624103" lon="32.82334138"><ele>822.6</ele><time>2015-04-28T13:23:18.0000000+00:00</time></trkpt><trkpt lat="34.98625193" lon="32.82334473"><ele>822.6</ele><time>2015-04-28T13:23:54.0000000+00:00</time></trkpt><trkpt lat="34.98622687" lon="32.82339569"><ele>823.0</ele><time>2015-04-28T13:24:12.0000000+00:00</time></trkpt><trkpt lat="34.98621848" lon="32.82338278"><ele>823.5</ele><time>2015-04-28T13:24:47.0000000+00:00</time></trkpt><trkpt lat="34.98619795" lon="32.82338362"><ele>823.5</ele><time>2015-04-28T13:24:53.0000000+00:00</time></trkpt><trkpt lat="34.98618311" lon="32.82337666"><ele>823.0</ele><time>2015-04-28T13:24:54.0000000+00:00</time></trkpt><trkpt lat="34.98616819" lon="32.82336761"><ele>823.5</ele><time>2015-04-28T13:24:55.0000000+00:00</time></trkpt><trkpt lat="34.98613995" lon="32.82333928"><ele>823.5</ele><time>2015-04-28T13:24:59.0000000+00:00</time></trkpt><trkpt lat="34.98613198" lon="32.8233283"><ele>823.5</ele><time>2015-04-28T13:25:00.0000000+00:00</time></trkpt><trkpt lat="34.98602059" lon="32.82322353"><ele>824.0</ele><time>2015-04-28T13:25:12.0000000+00:00</time></trkpt><trkpt lat="34.98585027" lon="32.82300292"><ele>824.5</ele><time>2015-04-28T13:25:28.0000000+00:00</time></trkpt><trkpt lat="34.98560074" lon="32.82264425"><ele>823.0</ele><time>2015-04-28T13:25:42.0000000+00:00</time></trkpt><trkpt lat="34.98542371" lon="32.82221862"><ele>819.7</ele><time>2015-04-28T13:25:56.0000000+00:00</time></trkpt><trkpt lat="34.98531123" lon="32.82208837"><ele>817.7</ele><time>2015-04-28T13:26:01.0000000+00:00</time></trkpt><trkpt lat="34.98526982" lon="32.82207286"><ele>817.7</ele><time>2015-04-28T13:26:02.0000000+00:00</time></trkpt><trkpt lat="34.98522414" lon="32.82207303"><ele>817.3</ele><time>2015-04-28T13:26:03.0000000+00:00</time></trkpt><trkpt lat="34.98518156" lon="32.82208485"><ele>817.3</ele><time>2015-04-28T13:26:04.0000000+00:00</time></trkpt><trkpt lat="34.98514384" lon="32.82210647"><ele>818.2</ele><time>2015-04-28T13:26:05.0000000+00:00</time></trkpt><trkpt lat="34.98511232" lon="32.82212818"><ele>818.2</ele><time>2015-04-28T13:26:06.0000000+00:00</time></trkpt><trkpt lat="34.98508232" lon="32.8221431"><ele>818.7</ele><time>2015-04-28T13:26:07.0000000+00:00</time></trkpt><trkpt lat="34.98505474" lon="32.82215685"><ele>819.2</ele><time>2015-04-28T13:26:08.0000000+00:00</time></trkpt><trkpt lat="34.98503102" lon="32.82217328"><ele>819.7</ele><time>2015-04-28T13:26:09.0000000+00:00</time></trkpt><trkpt lat="34.98501157" lon="32.82218962"><ele>820.1</ele><time>2015-04-28T13:26:10.0000000+00:00</time></trkpt><trkpt lat="34.98485374" lon="32.82222197"><ele>821.6</ele><time>2015-04-28T13:26:22.0000000+00:00</time></trkpt><trkpt lat="34.98484117" lon="32.82222223"><ele>821.6</ele><time>2015-04-28T13:26:23.0000000+00:00</time></trkpt><trkpt lat="34.98482541" lon="32.82222399"><ele>821.6</ele><time>2015-04-28T13:26:24.0000000+00:00</time></trkpt><trkpt lat="34.98481116" lon="32.82222784"><ele>821.6</ele><time>2015-04-28T13:26:25.0000000+00:00</time></trkpt><trkpt lat="34.98479867" lon="32.82222994"><ele>821.6</ele><time>2015-04-28T13:26:26.0000000+00:00</time></trkpt><trkpt lat="34.9847856" lon="32.82223086"><ele>821.6</ele><time>2015-04-28T13:26:27.0000000+00:00</time></trkpt><trkpt lat="34.9847162" lon="32.82223245"><ele>821.6</ele><time>2015-04-28T13:26:32.0000000+00:00</time></trkpt><trkpt lat="34.98470136" lon="32.82223019"><ele>821.6</ele><time>2015-04-28T13:26:33.0000000+00:00</time></trkpt><trkpt lat="34.98468585" lon="32.82222105"><ele>822.1</ele><time>2015-04-28T13:26:34.0000000+00:00</time></trkpt><trkpt lat="34.98466884" lon="32.82220756"><ele>822.1</ele><time>2015-04-28T13:26:35.0000000+00:00</time></trkpt><trkpt lat="34.98465459" lon="32.82219364"><ele>821.6</ele><time>2015-04-28T13:26:36.0000000+00:00</time></trkpt><trkpt lat="34.98456985" lon="32.82213195"><ele>822.1</ele><time>2015-04-28T13:26:43.0000000+00:00</time></trkpt><trkpt lat="34.98455627" lon="32.8221255"><ele>822.1</ele><time>2015-04-28T13:26:44.0000000+00:00</time></trkpt><trkpt lat="34.98454328" lon="32.82211854"><ele>822.1</ele><time>2015-04-28T13:26:45.0000000+00:00</time></trkpt><trkpt lat="34.9845276" lon="32.82211427"><ele>822.1</ele><time>2015-04-28T13:26:46.0000000+00:00</time></trkpt><trkpt lat="34.98450883" lon="32.82211008"><ele>822.1</ele><time>2015-04-28T13:26:47.0000000+00:00</time></trkpt><trkpt lat="34.98449055" lon="32.82210563"><ele>822.1</ele><time>2015-04-28T13:26:48.0000000+00:00</time></trkpt><trkpt lat="34.98447228" lon="32.82210127"><ele>822.1</ele><time>2015-04-28T13:26:49.0000000+00:00</time></trkpt><trkpt lat="34.9843981" lon="32.82209876"><ele>823.0</ele><time>2015-04-28T13:26:53.0000000+00:00</time></trkpt><trkpt lat="34.98436072" lon="32.82209734"><ele>823.5</ele><time>2015-04-28T13:26:56.0000000+00:00</time></trkpt><trkpt lat="34.98423365" lon="32.8221022"><ele>825.0</ele><time>2015-04-28T13:27:08.0000000+00:00</time></trkpt><trkpt lat="34.984078" lon="32.8220188"><ele>825.9</ele><time>2015-04-28T13:27:22.0000000+00:00</time></trkpt><trkpt lat="34.98407121" lon="32.82200312"><ele>826.4</ele><time>2015-04-28T13:27:23.0000000+00:00</time></trkpt><trkpt lat="34.98406207" lon="32.82199021"><ele>826.4</ele><time>2015-04-28T13:27:24.0000000+00:00</time></trkpt><trkpt lat="34.98403525" lon="32.82190866"><ele>826.9</ele><time>2015-04-28T13:27:30.0000000+00:00</time></trkpt><trkpt lat="34.98390734" lon="32.82172459"><ele>827.4</ele><time>2015-04-28T13:27:46.0000000+00:00</time></trkpt><trkpt lat="34.98363401" lon="32.82169861"><ele>826.4</ele><time>2015-04-28T13:27:57.0000000+00:00</time></trkpt><trkpt lat="34.98331399" lon="32.8219509"><ele>823.5</ele><time>2015-04-28T13:28:11.0000000+00:00</time></trkpt><trkpt lat="34.98314166" lon="32.82197881"><ele>821.1</ele><time>2015-04-28T13:28:16.0000000+00:00</time></trkpt><trkpt lat="34.98310913" lon="32.82197035"><ele>821.1</ele><time>2015-04-28T13:28:17.0000000+00:00</time></trkpt><trkpt lat="34.98297494" lon="32.82193355"><ele>819.2</ele><time>2015-04-28T13:28:27.0000000+00:00</time></trkpt><trkpt lat="34.98273488" lon="32.82191151"><ele>816.3</ele><time>2015-04-28T13:28:35.0000000+00:00</time></trkpt><trkpt lat="34.98254294" lon="32.82195417"><ele>813.4</ele><time>2015-04-28T13:28:46.0000000+00:00</time></trkpt><trkpt lat="34.98245099" lon="32.82201888"><ele>811.5</ele><time>2015-04-28T13:28:51.0000000+00:00</time></trkpt><trkpt lat="34.98242685" lon="32.82203045"><ele>811.5</ele><time>2015-04-28T13:28:52.0000000+00:00</time></trkpt><trkpt lat="34.98240681" lon="32.82203514"><ele>811.5</ele><time>2015-04-28T13:28:53.0000000+00:00</time></trkpt><trkpt lat="34.9823898" lon="32.8220364"><ele>812.0</ele><time>2015-04-28T13:28:54.0000000+00:00</time></trkpt><trkpt lat="34.98237295" lon="32.82204017"><ele>812.0</ele><time>2015-04-28T13:28:55.0000000+00:00</time></trkpt><trkpt lat="34.98235619" lon="32.82204738"><ele>812.5</ele><time>2015-04-28T13:28:56.0000000+00:00</time></trkpt><trkpt lat="34.98229709" lon="32.82207437"><ele>812.9</ele><time>2015-04-28T13:29:00.0000000+00:00</time></trkpt><trkpt lat="34.98228125" lon="32.82207102"><ele>812.9</ele><time>2015-04-28T13:29:01.0000000+00:00</time></trkpt><trkpt lat="34.9822665" lon="32.82206439"><ele>812.9</ele><time>2015-04-28T13:29:02.0000000+00:00</time></trkpt><trkpt lat="34.98225032" lon="32.82205786"><ele>812.9</ele><time>2015-04-28T13:29:03.0000000+00:00</time></trkpt><trkpt lat="34.98223373" lon="32.8220478"><ele>812.9</ele><time>2015-04-28T13:29:04.0000000+00:00</time></trkpt><trkpt lat="34.98221613" lon="32.82203481"><ele>812.9</ele><time>2015-04-28T13:29:05.0000000+00:00</time></trkpt><trkpt lat="34.98191781" lon="32.82169224"><ele>812.5</ele><time>2015-04-28T13:29:22.0000000+00:00</time></trkpt><trkpt lat="34.98170324" lon="32.82136207"><ele>811.0</ele><time>2015-04-28T13:29:34.0000000+00:00</time></trkpt><trkpt lat="34.98147634" lon="32.82118538"><ele>811.0</ele><time>2015-04-28T13:29:41.0000000+00:00</time></trkpt><trkpt lat="34.98144457" lon="32.8212003"><ele>811.5</ele><time>2015-04-28T13:29:42.0000000+00:00</time></trkpt><trkpt lat="34.98142068" lon="32.82122436"><ele>812.0</ele><time>2015-04-28T13:29:43.0000000+00:00</time></trkpt><trkpt lat="34.98137752" lon="32.8212708"><ele>813.9</ele><time>2015-04-28T13:29:47.0000000+00:00</time></trkpt><trkpt lat="34.98136695" lon="32.82130038"><ele>815.8</ele><time>2015-04-28T13:30:05.0000000+00:00</time></trkpt><trkpt lat="34.98131071" lon="32.82135034"><ele>817.7</ele><time>2015-04-28T13:30:22.0000000+00:00</time></trkpt><trkpt lat="34.98126302" lon="32.82142201"><ele>820.1</ele><time>2015-04-28T13:30:39.0000000+00:00</time></trkpt><trkpt lat="34.98124165" lon="32.8214707"><ele>821.6</ele><time>2015-04-28T13:30:55.0000000+00:00</time></trkpt><trkpt lat="34.98121784" lon="32.82154505"><ele>823.5</ele><time>2015-04-28T13:31:12.0000000+00:00</time></trkpt><trkpt lat="34.98121826" lon="32.8216085"><ele>825.0</ele><time>2015-04-28T13:31:27.0000000+00:00</time></trkpt><trkpt lat="34.98119798" lon="32.82169308"><ele>827.4</ele><time>2015-04-28T13:31:45.0000000+00:00</time></trkpt><trkpt lat="34.981173" lon="32.82175929"><ele>829.3</ele><time>2015-04-28T13:32:00.0000000+00:00</time></trkpt><trkpt lat="34.98115741" lon="32.82182928"><ele>831.2</ele><time>2015-04-28T13:32:14.0000000+00:00</time></trkpt><trkpt lat="34.98112497" lon="32.82189617"><ele>833.1</ele><time>2015-04-28T13:32:29.0000000+00:00</time></trkpt><trkpt lat="34.98107526" lon="32.82196976"><ele>834.1</ele><time>2015-04-28T13:32:46.0000000+00:00</time></trkpt><trkpt lat="34.98107594" lon="32.82195157"><ele>834.6</ele><time>2015-04-28T13:32:48.0000000+00:00</time></trkpt><trkpt lat="34.98107241" lon="32.82193883"><ele>834.6</ele><time>2015-04-28T13:32:49.0000000+00:00</time></trkpt><trkpt lat="34.98105783" lon="32.82190329"><ele>834.6</ele><time>2015-04-28T13:32:52.0000000+00:00</time></trkpt><trkpt lat="34.98106278" lon="32.82184747"><ele>835.0</ele><time>2015-04-28T13:32:55.0000000+00:00</time></trkpt><trkpt lat="34.98105967" lon="32.82182559"><ele>835.0</ele><time>2015-04-28T13:32:56.0000000+00:00</time></trkpt><trkpt lat="34.98105573" lon="32.82180439"><ele>835.0</ele><time>2015-04-28T13:32:57.0000000+00:00</time></trkpt><trkpt lat="34.98104995" lon="32.82178343"><ele>835.5</ele><time>2015-04-28T13:32:58.0000000+00:00</time></trkpt><trkpt lat="34.98104308" lon="32.82176684"><ele>836.0</ele><time>2015-04-28T13:32:59.0000000+00:00</time></trkpt><trkpt lat="34.98103604" lon="32.82174965"><ele>836.0</ele><time>2015-04-28T13:33:00.0000000+00:00</time></trkpt><trkpt lat="34.98102925" lon="32.82173188"><ele>836.0</ele><time>2015-04-28T13:33:01.0000000+00:00</time></trkpt><trkpt lat="34.98102103" lon="32.82171479"><ele>836.5</ele><time>2015-04-28T13:33:02.0000000+00:00</time></trkpt><trkpt lat="34.98101274" lon="32.82170012"><ele>836.5</ele><time>2015-04-28T13:33:03.0000000+00:00</time></trkpt><trkpt lat="34.98100511" lon="32.8216836"><ele>836.5</ele><time>2015-04-28T13:33:04.0000000+00:00</time></trkpt><trkpt lat="34.98099497" lon="32.82166625"><ele>836.5</ele><time>2015-04-28T13:33:05.0000000+00:00</time></trkpt><trkpt lat="34.98098223" lon="32.82165351"><ele>836.5</ele><time>2015-04-28T13:33:06.0000000+00:00</time></trkpt><trkpt lat="34.98096898" lon="32.82164471"><ele>837.0</ele><time>2015-04-28T13:33:07.0000000+00:00</time></trkpt><trkpt lat="34.98095591" lon="32.82163407"><ele>837.0</ele><time>2015-04-28T13:33:08.0000000+00:00</time></trkpt><trkpt lat="34.98094166" lon="32.82162317"><ele>837.0</ele><time>2015-04-28T13:33:09.0000000+00:00</time></trkpt><trkpt lat="34.98092766" lon="32.82161496"><ele>837.0</ele><time>2015-04-28T13:33:10.0000000+00:00</time></trkpt><trkpt lat="34.9809109" lon="32.82160691"><ele>837.5</ele><time>2015-04-28T13:33:11.0000000+00:00</time></trkpt><trkpt lat="34.98089195" lon="32.82159878"><ele>837.5</ele><time>2015-04-28T13:33:12.0000000+00:00</time></trkpt><trkpt lat="34.98087477" lon="32.82159015"><ele>837.9</ele><time>2015-04-28T13:33:13.0000000+00:00</time></trkpt><trkpt lat="34.9808596" lon="32.82158051"><ele>838.4</ele><time>2015-04-28T13:33:14.0000000+00:00</time></trkpt><trkpt lat="34.98077586" lon="32.82153097"><ele>838.9</ele><time>2015-04-28T13:33:21.0000000+00:00</time></trkpt><trkpt lat="34.98076924" lon="32.82151915"><ele>839.4</ele><time>2015-04-28T13:33:22.0000000+00:00</time></trkpt><trkpt lat="34.98075365" lon="32.82150364"><ele>839.9</ele><time>2015-04-28T13:33:24.0000000+00:00</time></trkpt><trkpt lat="34.98074259" lon="32.82149711"><ele>839.9</ele><time>2015-04-28T13:33:25.0000000+00:00</time></trkpt><trkpt lat="34.98073152" lon="32.82149049"><ele>839.9</ele><time>2015-04-28T13:33:26.0000000+00:00</time></trkpt><trkpt lat="34.98072088" lon="32.82148202"><ele>840.3</ele><time>2015-04-28T13:33:27.0000000+00:00</time></trkpt><trkpt lat="34.98071233" lon="32.82147112"><ele>840.3</ele><time>2015-04-28T13:33:28.0000000+00:00</time></trkpt><trkpt lat="34.98068593" lon="32.82144011"><ele>840.8</ele><time>2015-04-28T13:33:31.0000000+00:00</time></trkpt><trkpt lat="34.98067142" lon="32.82143575"><ele>840.8</ele><time>2015-04-28T13:33:32.0000000+00:00</time></trkpt><trkpt lat="34.98065877" lon="32.82142972"><ele>840.8</ele><time>2015-04-28T13:33:33.0000000+00:00</time></trkpt><trkpt lat="34.98064863" lon="32.82142276"><ele>841.3</ele><time>2015-04-28T13:33:34.0000000+00:00</time></trkpt><trkpt lat="34.98063832" lon="32.82141857"><ele>841.3</ele><time>2015-04-28T13:33:35.0000000+00:00</time></trkpt><trkpt lat="34.98062549" lon="32.82141429"><ele>841.3</ele><time>2015-04-28T13:33:36.0000000+00:00</time></trkpt><trkpt lat="34.98061434" lon="32.82140985"><ele>841.3</ele><time>2015-04-28T13:33:37.0000000+00:00</time></trkpt><trkpt lat="34.98060261" lon="32.82140507"><ele>841.8</ele><time>2015-04-28T13:33:38.0000000+00:00</time></trkpt><trkpt lat="34.98058895" lon="32.82140206"><ele>841.8</ele><time>2015-04-28T13:33:39.0000000+00:00</time></trkpt><trkpt lat="34.98057486" lon="32.82140063"><ele>841.8</ele><time>2015-04-28T13:33:40.0000000+00:00</time></trkpt><trkpt lat="34.98039884" lon="32.82143869"><ele>843.7</ele><time>2015-04-28T13:33:54.0000000+00:00</time></trkpt><trkpt lat="34.98038552" lon="32.82144631"><ele>843.7</ele><time>2015-04-28T13:33:55.0000000+00:00</time></trkpt><trkpt lat="34.98022274" lon="32.82153843"><ele>845.1</ele><time>2015-04-28T13:34:10.0000000+00:00</time></trkpt><trkpt lat="34.98016105" lon="32.82157389"><ele>845.6</ele><time>2015-04-28T13:34:20.0000000+00:00</time></trkpt><trkpt lat="34.98012124" lon="32.82153172"><ele>845.6</ele><time>2015-04-28T13:34:28.0000000+00:00</time></trkpt><trkpt lat="34.98010975" lon="32.82152292"><ele>845.6</ele><time>2015-04-28T13:34:29.0000000+00:00</time></trkpt><trkpt lat="34.98009852" lon="32.82151521"><ele>846.1</ele><time>2015-04-28T13:34:30.0000000+00:00</time></trkpt><trkpt lat="34.98009332" lon="32.82150381"><ele>846.1</ele><time>2015-04-28T13:34:31.0000000+00:00</time></trkpt><trkpt lat="34.98009223" lon="32.82148822"><ele>846.1</ele><time>2015-04-28T13:34:32.0000000+00:00</time></trkpt><trkpt lat="34.9800898" lon="32.82147464"><ele>846.1</ele><time>2015-04-28T13:34:33.0000000+00:00</time></trkpt><trkpt lat="34.98006709" lon="32.82128898"><ele>847.1</ele><time>2015-04-28T13:34:44.0000000+00:00</time></trkpt><trkpt lat="34.98005971" lon="32.82127641"><ele>847.1</ele><time>2015-04-28T13:34:45.0000000+00:00</time></trkpt><trkpt lat="34.98005519" lon="32.82126116"><ele>847.1</ele><time>2015-04-28T13:34:46.0000000+00:00</time></trkpt><trkpt lat="34.98005183" lon="32.82124523"><ele>847.1</ele><time>2015-04-28T13:34:47.0000000+00:00</time></trkpt><trkpt lat="34.98005058" lon="32.82122704"><ele>847.1</ele><time>2015-04-28T13:34:48.0000000+00:00</time></trkpt><trkpt lat="34.9800541" lon="32.82116074"><ele>847.5</ele><time>2015-04-28T13:34:52.0000000+00:00</time></trkpt><trkpt lat="34.98004169" lon="32.82108547"><ele>848.0</ele><time>2015-04-28T13:34:57.0000000+00:00</time></trkpt><trkpt lat="34.98003943" lon="32.8210703"><ele>848.0</ele><time>2015-04-28T13:34:58.0000000+00:00</time></trkpt><trkpt lat="34.98003549" lon="32.82105345"><ele>848.0</ele><time>2015-04-28T13:34:59.0000000+00:00</time></trkpt><trkpt lat="34.98005619" lon="32.82075204"><ele>849.5</ele><time>2015-04-28T13:35:17.0000000+00:00</time></trkpt><trkpt lat="34.98005753" lon="32.82068113"><ele>849.9</ele><time>2015-04-28T13:35:21.0000000+00:00</time></trkpt><trkpt lat="34.98006105" lon="32.82066302"><ele>849.9</ele><time>2015-04-28T13:35:22.0000000+00:00</time></trkpt><trkpt lat="34.9800396" lon="32.82032574"><ele>851.9</ele><time>2015-04-28T13:35:40.0000000+00:00</time></trkpt><trkpt lat="34.98002459" lon="32.82029481"><ele>851.4</ele><time>2015-04-28T13:35:42.0000000+00:00</time></trkpt><trkpt lat="34.98001319" lon="32.82028282"><ele>851.9</ele><time>2015-04-28T13:35:43.0000000+00:00</time></trkpt><trkpt lat="34.98000112" lon="32.82026874"><ele>851.9</ele><time>2015-04-28T13:35:44.0000000+00:00</time></trkpt><trkpt lat="34.97998612" lon="32.82025617"><ele>851.9</ele><time>2015-04-28T13:35:45.0000000+00:00</time></trkpt><trkpt lat="34.97997254" lon="32.82024602"><ele>851.9</ele><time>2015-04-28T13:35:46.0000000+00:00</time></trkpt><trkpt lat="34.97976123" lon="32.82019028"><ele>853.3</ele><time>2015-04-28T13:36:00.0000000+00:00</time></trkpt><trkpt lat="34.97970742" lon="32.82017126"><ele>853.8</ele><time>2015-04-28T13:36:05.0000000+00:00</time></trkpt><trkpt lat="34.97969518" lon="32.82016682"><ele>853.8</ele><time>2015-04-28T13:36:06.0000000+00:00</time></trkpt><trkpt lat="34.97968228" lon="32.82015977"><ele>853.8</ele><time>2015-04-28T13:36:07.0000000+00:00</time></trkpt><trkpt lat="34.97966778" lon="32.82015097"><ele>853.8</ele><time>2015-04-28T13:36:08.0000000+00:00</time></trkpt><trkpt lat="34.97965512" lon="32.82014125"><ele>853.8</ele><time>2015-04-28T13:36:09.0000000+00:00</time></trkpt><trkpt lat="34.9796428" lon="32.82013019"><ele>853.8</ele><time>2015-04-28T13:36:10.0000000+00:00</time></trkpt><trkpt lat="34.97963182" lon="32.82011728"><ele>853.8</ele><time>2015-04-28T13:36:11.0000000+00:00</time></trkpt><trkpt lat="34.97962193" lon="32.82010412"><ele>853.8</ele><time>2015-04-28T13:36:12.0000000+00:00</time></trkpt><trkpt lat="34.97960743" lon="32.82007755"><ele>854.3</ele><time>2015-04-28T13:36:14.0000000+00:00</time></trkpt><trkpt lat="34.97960374" lon="32.82006179"><ele>854.3</ele><time>2015-04-28T13:36:15.0000000+00:00</time></trkpt><trkpt lat="34.97959837" lon="32.8200488"><ele>854.3</ele><time>2015-04-28T13:36:16.0000000+00:00</time></trkpt><trkpt lat="34.97959779" lon="32.82003564"><ele>854.3</ele><time>2015-04-28T13:36:17.0000000+00:00</time></trkpt><trkpt lat="34.97959946" lon="32.82002164"><ele>854.3</ele><time>2015-04-28T13:36:18.0000000+00:00</time></trkpt><trkpt lat="34.9796034" lon="32.82000739"><ele>854.8</ele><time>2015-04-28T13:36:19.0000000+00:00</time></trkpt><trkpt lat="34.97960432" lon="32.81996372"><ele>854.8</ele><time>2015-04-28T13:36:22.0000000+00:00</time></trkpt><trkpt lat="34.97959779" lon="32.81995174"><ele>855.2</ele><time>2015-04-28T13:36:23.0000000+00:00</time></trkpt><trkpt lat="34.97959058" lon="32.81993958"><ele>855.2</ele><time>2015-04-28T13:36:24.0000000+00:00</time></trkpt><trkpt lat="34.9795822" lon="32.81992315"><ele>855.2</ele><time>2015-04-28T13:36:25.0000000+00:00</time></trkpt><trkpt lat="34.97957608" lon="32.81990807"><ele>855.7</ele><time>2015-04-28T13:36:26.0000000+00:00</time></trkpt><trkpt lat="34.9795749" lon="32.81987202"><ele>856.2</ele><time>2015-04-28T13:36:29.0000000+00:00</time></trkpt><trkpt lat="34.97957524" lon="32.81985844"><ele>856.2</ele><time>2015-04-28T13:36:30.0000000+00:00</time></trkpt><trkpt lat="34.97957088" lon="32.81984336"><ele>856.2</ele><time>2015-04-28T13:36:31.0000000+00:00</time></trkpt><trkpt lat="34.97946292" lon="32.81961394"><ele>858.6</ele><time>2015-04-28T13:36:49.0000000+00:00</time></trkpt><trkpt lat="34.9794195" lon="32.81952342"><ele>859.6</ele><time>2015-04-28T13:36:56.0000000+00:00</time></trkpt><trkpt lat="34.97941598" lon="32.81950892"><ele>859.6</ele><time>2015-04-28T13:36:57.0000000+00:00</time></trkpt><trkpt lat="34.97940886" lon="32.81949827"><ele>859.6</ele><time>2015-04-28T13:36:58.0000000+00:00</time></trkpt><trkpt lat="34.97939838" lon="32.81949291"><ele>859.6</ele><time>2015-04-28T13:36:59.0000000+00:00</time></trkpt><trkpt lat="34.97937902" lon="32.81946869"><ele>860.0</ele><time>2015-04-28T13:37:02.0000000+00:00</time></trkpt><trkpt lat="34.97937181" lon="32.81945796"><ele>860.0</ele><time>2015-04-28T13:37:03.0000000+00:00</time></trkpt><trkpt lat="34.979361" lon="32.81945008"><ele>860.0</ele><time>2015-04-28T13:37:04.0000000+00:00</time></trkpt><trkpt lat="34.97934499" lon="32.8194334"><ele>860.5</ele><time>2015-04-28T13:37:06.0000000+00:00</time></trkpt><trkpt lat="34.97933862" lon="32.81942376"><ele>860.5</ele><time>2015-04-28T13:37:07.0000000+00:00</time></trkpt><trkpt lat="34.97931691" lon="32.8194194"><ele>860.5</ele><time>2015-04-28T13:37:09.0000000+00:00</time></trkpt><trkpt lat="34.97930635" lon="32.81941731"><ele>860.5</ele><time>2015-04-28T13:37:10.0000000+00:00</time></trkpt><trkpt lat="34.97929637" lon="32.81941278"><ele>860.5</ele><time>2015-04-28T13:37:11.0000000+00:00</time></trkpt><trkpt lat="34.97928673" lon="32.81940691"><ele>861.0</ele><time>2015-04-28T13:37:12.0000000+00:00</time></trkpt><trkpt lat="34.9792786" lon="32.8193956"><ele>861.0</ele><time>2015-04-28T13:37:13.0000000+00:00</time></trkpt><trkpt lat="34.97927181" lon="32.8193852"><ele>861.0</ele><time>2015-04-28T13:37:14.0000000+00:00</time></trkpt><trkpt lat="34.9792641" lon="32.81937548"><ele>861.0</ele><time>2015-04-28T13:37:15.0000000+00:00</time></trkpt><trkpt lat="34.9792548" lon="32.81936768"><ele>861.0</ele><time>2015-04-28T13:37:16.0000000+00:00</time></trkpt><trkpt lat="34.97924432" lon="32.81936307"><ele>861.5</ele><time>2015-04-28T13:37:17.0000000+00:00</time></trkpt><trkpt lat="34.97923267" lon="32.81935805"><ele>861.5</ele><time>2015-04-28T13:37:18.0000000+00:00</time></trkpt><trkpt lat="34.97920903" lon="32.81932795"><ele>862.0</ele><time>2015-04-28T13:37:21.0000000+00:00</time></trkpt><trkpt lat="34.97920191" lon="32.81931739"><ele>862.0</ele><time>2015-04-28T13:37:22.0000000+00:00</time></trkpt><trkpt lat="34.97919227" lon="32.81930884"><ele>862.0</ele><time>2015-04-28T13:37:23.0000000+00:00</time></trkpt><trkpt lat="34.97914676" lon="32.81921941"><ele>862.4</ele><time>2015-04-28T13:37:30.0000000+00:00</time></trkpt><trkpt lat="34.97914114" lon="32.81920541"><ele>862.9</ele><time>2015-04-28T13:37:31.0000000+00:00</time></trkpt><trkpt lat="34.97903888" lon="32.81903652"><ele>864.8</ele><time>2015-04-28T13:37:46.0000000+00:00</time></trkpt><trkpt lat="34.9789927" lon="32.81897625"><ele>865.8</ele><time>2015-04-28T13:37:52.0000000+00:00</time></trkpt><trkpt lat="34.97898163" lon="32.8189682"><ele>865.8</ele><time>2015-04-28T13:37:53.0000000+00:00</time></trkpt><trkpt lat="34.97894333" lon="32.81893568"><ele>866.3</ele><time>2015-04-28T13:37:57.0000000+00:00</time></trkpt><trkpt lat="34.97892656" lon="32.81891741"><ele>866.8</ele><time>2015-04-28T13:37:59.0000000+00:00</time></trkpt><trkpt lat="34.97891617" lon="32.81891121"><ele>866.8</ele><time>2015-04-28T13:38:00.0000000+00:00</time></trkpt><trkpt lat="34.97879078" lon="32.81875304"><ele>869.2</ele><time>2015-04-28T13:38:15.0000000+00:00</time></trkpt><trkpt lat="34.97877728" lon="32.81873108"><ele>869.7</ele><time>2015-04-28T13:38:17.0000000+00:00</time></trkpt><trkpt lat="34.97876689" lon="32.81872186"><ele>869.7</ele><time>2015-04-28T13:38:18.0000000+00:00</time></trkpt><trkpt lat="34.97875893" lon="32.81871054"><ele>869.7</ele><time>2015-04-28T13:38:19.0000000+00:00</time></trkpt><trkpt lat="34.97875197" lon="32.81869797"><ele>870.1</ele><time>2015-04-28T13:38:20.0000000+00:00</time></trkpt><trkpt lat="34.97874375" lon="32.81868766"><ele>870.1</ele><time>2015-04-28T13:38:21.0000000+00:00</time></trkpt><trkpt lat="34.97873638" lon="32.81867601"><ele>870.1</ele><time>2015-04-28T13:38:22.0000000+00:00</time></trkpt><trkpt lat="34.97873311" lon="32.81866134"><ele>870.1</ele><time>2015-04-28T13:38:23.0000000+00:00</time></trkpt><trkpt lat="34.97873059" lon="32.81864692"><ele>870.6</ele><time>2015-04-28T13:38:24.0000000+00:00</time></trkpt><trkpt lat="34.97872766" lon="32.81861943"><ele>870.6</ele><time>2015-04-28T13:38:26.0000000+00:00</time></trkpt><trkpt lat="34.9787249" lon="32.81860594"><ele>871.1</ele><time>2015-04-28T13:38:27.0000000+00:00</time></trkpt><trkpt lat="34.97869933" lon="32.81856822"><ele>871.6</ele><time>2015-04-28T13:38:31.0000000+00:00</time></trkpt><trkpt lat="34.9786907" lon="32.81855824"><ele>871.6</ele><time>2015-04-28T13:38:32.0000000+00:00</time></trkpt><trkpt lat="34.97868709" lon="32.81854467"><ele>871.6</ele><time>2015-04-28T13:38:33.0000000+00:00</time></trkpt><trkpt lat="34.97868592" lon="32.81849287"><ele>872.5</ele><time>2015-04-28T13:38:37.0000000+00:00</time></trkpt><trkpt lat="34.97862582" lon="32.81836177"><ele>873.5</ele><time>2015-04-28T13:38:49.0000000+00:00</time></trkpt><trkpt lat="34.97862121" lon="32.81834685"><ele>874.0</ele><time>2015-04-28T13:38:50.0000000+00:00</time></trkpt><trkpt lat="34.97861115" lon="32.81833403"><ele>874.0</ele><time>2015-04-28T13:38:51.0000000+00:00</time></trkpt><trkpt lat="34.97846204" lon="32.8182114"><ele>875.4</ele><time>2015-04-28T13:39:06.0000000+00:00</time></trkpt><trkpt lat="34.97838719" lon="32.81819673"><ele>876.4</ele><time>2015-04-28T13:39:12.0000000+00:00</time></trkpt><trkpt lat="34.97833329" lon="32.81816379"><ele>877.3</ele><time>2015-04-28T13:39:17.0000000+00:00</time></trkpt><trkpt lat="34.97819725" lon="32.81814476"><ele>879.3</ele><time>2015-04-28T13:39:29.0000000+00:00</time></trkpt><trkpt lat="34.97818502" lon="32.81814946"><ele>879.3</ele><time>2015-04-28T13:39:30.0000000+00:00</time></trkpt><trkpt lat="34.97817219" lon="32.8181529"><ele>879.3</ele><time>2015-04-28T13:39:31.0000000+00:00</time></trkpt><trkpt lat="34.97815945" lon="32.81815524"><ele>879.3</ele><time>2015-04-28T13:39:32.0000000+00:00</time></trkpt><trkpt lat="34.97814621" lon="32.81815759"><ele>879.7</ele><time>2015-04-28T13:39:33.0000000+00:00</time></trkpt><trkpt lat="34.97813481" lon="32.81816144"><ele>879.7</ele><time>2015-04-28T13:39:34.0000000+00:00</time></trkpt><trkpt lat="34.97812182" lon="32.8181648"><ele>879.7</ele><time>2015-04-28T13:39:35.0000000+00:00</time></trkpt><trkpt lat="34.97810849" lon="32.81816924"><ele>880.2</ele><time>2015-04-28T13:39:36.0000000+00:00</time></trkpt><trkpt lat="34.97809483" lon="32.81817268"><ele>880.2</ele><time>2015-04-28T13:39:37.0000000+00:00</time></trkpt><trkpt lat="34.97807982" lon="32.81817762"><ele>880.2</ele><time>2015-04-28T13:39:38.0000000+00:00</time></trkpt><trkpt lat="34.97806557" lon="32.81818206"><ele>880.7</ele><time>2015-04-28T13:39:39.0000000+00:00</time></trkpt><trkpt lat="34.97805242" lon="32.81818642"><ele>880.2</ele><time>2015-04-28T13:39:40.0000000+00:00</time></trkpt><trkpt lat="34.97799978" lon="32.81821794"><ele>881.2</ele><time>2015-04-28T13:39:45.0000000+00:00</time></trkpt><trkpt lat="34.97798678" lon="32.81822096"><ele>881.2</ele><time>2015-04-28T13:39:46.0000000+00:00</time></trkpt><trkpt lat="34.97797446" lon="32.81822389"><ele>881.2</ele><time>2015-04-28T13:39:47.0000000+00:00</time></trkpt><trkpt lat="34.97796114" lon="32.81822884"><ele>881.7</ele><time>2015-04-28T13:39:48.0000000+00:00</time></trkpt><trkpt lat="34.97794982" lon="32.81823504"><ele>881.7</ele><time>2015-04-28T13:39:49.0000000+00:00</time></trkpt><trkpt lat="34.97794018" lon="32.81824208"><ele>881.7</ele><time>2015-04-28T13:39:50.0000000+00:00</time></trkpt><trkpt lat="34.97775645" lon="32.81835406"><ele>883.6</ele><time>2015-04-28T13:40:07.0000000+00:00</time></trkpt><trkpt lat="34.97771236" lon="32.81837745"><ele>884.1</ele><time>2015-04-28T13:40:11.0000000+00:00</time></trkpt><trkpt lat="34.97769979" lon="32.81838038"><ele>884.1</ele><time>2015-04-28T13:40:12.0000000+00:00</time></trkpt><trkpt lat="34.9776878" lon="32.81838499"><ele>884.1</ele><time>2015-04-28T13:40:13.0000000+00:00</time></trkpt><trkpt lat="34.97752586" lon="32.81841801"><ele>886.0</ele><time>2015-04-28T13:40:27.0000000+00:00</time></trkpt><trkpt lat="34.97751421" lon="32.81841416"><ele>886.5</ele><time>2015-04-28T13:40:28.0000000+00:00</time></trkpt><trkpt lat="34.97750332" lon="32.81840712"><ele>886.5</ele><time>2015-04-28T13:40:29.0000000+00:00</time></trkpt><trkpt lat="34.97749141" lon="32.81840142"><ele>886.5</ele><time>2015-04-28T13:40:30.0000000+00:00</time></trkpt><trkpt lat="34.97747918" lon="32.81839899"><ele>886.5</ele><time>2015-04-28T13:40:31.0000000+00:00</time></trkpt><trkpt lat="34.97746719" lon="32.81839731"><ele>887.0</ele><time>2015-04-28T13:40:32.0000000+00:00</time></trkpt><trkpt lat="34.97745671" lon="32.81839312"><ele>887.0</ele><time>2015-04-28T13:40:33.0000000+00:00</time></trkpt><trkpt lat="34.97744598" lon="32.81838784"><ele>887.4</ele><time>2015-04-28T13:40:34.0000000+00:00</time></trkpt><trkpt lat="34.97732562" lon="32.81833353"><ele>889.4</ele><time>2015-04-28T13:40:45.0000000+00:00</time></trkpt><trkpt lat="34.97730089" lon="32.81832967"><ele>889.4</ele><time>2015-04-28T13:40:47.0000000+00:00</time></trkpt><trkpt lat="34.97729184" lon="32.81831877"><ele>889.8</ele><time>2015-04-28T13:40:48.0000000+00:00</time></trkpt><trkpt lat="34.97728254" lon="32.81830763"><ele>889.8</ele><time>2015-04-28T13:40:49.0000000+00:00</time></trkpt><trkpt lat="34.97727122" lon="32.81830184"><ele>889.8</ele><time>2015-04-28T13:40:50.0000000+00:00</time></trkpt><trkpt lat="34.97726007" lon="32.81830159"><ele>889.8</ele><time>2015-04-28T13:40:51.0000000+00:00</time></trkpt><trkpt lat="34.97724876" lon="32.81830503"><ele>890.3</ele><time>2015-04-28T13:40:52.0000000+00:00</time></trkpt><trkpt lat="34.97723694" lon="32.81830746"><ele>890.3</ele><time>2015-04-28T13:40:53.0000000+00:00</time></trkpt><trkpt lat="34.9772242" lon="32.81830838"><ele>890.8</ele><time>2015-04-28T13:40:54.0000000+00:00</time></trkpt><trkpt lat="34.9772123" lon="32.81830704"><ele>890.8</ele><time>2015-04-28T13:40:55.0000000+00:00</time></trkpt><trkpt lat="34.97720157" lon="32.81830545"><ele>890.8</ele><time>2015-04-28T13:40:56.0000000+00:00</time></trkpt><trkpt lat="34.97719151" lon="32.81830134"><ele>891.3</ele><time>2015-04-28T13:40:57.0000000+00:00</time></trkpt><trkpt lat="34.97718338" lon="32.81829262"><ele>891.3</ele><time>2015-04-28T13:40:58.0000000+00:00</time></trkpt><trkpt lat="34.97717567" lon="32.81828374"><ele>891.3</ele><time>2015-04-28T13:40:59.0000000+00:00</time></trkpt><trkpt lat="34.97716687" lon="32.81827544"><ele>891.3</ele><time>2015-04-28T13:41:00.0000000+00:00</time></trkpt><trkpt lat="34.97715672" lon="32.81826966"><ele>891.3</ele><time>2015-04-28T13:41:01.0000000+00:00</time></trkpt><trkpt lat="34.97714474" lon="32.81826932"><ele>891.8</ele><time>2015-04-28T13:41:02.0000000+00:00</time></trkpt><trkpt lat="34.97711272" lon="32.81827175"><ele>891.8</ele><time>2015-04-28T13:41:05.0000000+00:00</time></trkpt><trkpt lat="34.97710249" lon="32.81826815"><ele>892.2</ele><time>2015-04-28T13:41:06.0000000+00:00</time></trkpt><trkpt lat="34.97709202" lon="32.81826555"><ele>892.2</ele><time>2015-04-28T13:41:07.0000000+00:00</time></trkpt><trkpt lat="34.9770828" lon="32.81826077"><ele>892.2</ele><time>2015-04-28T13:41:08.0000000+00:00</time></trkpt><trkpt lat="34.97707374" lon="32.81825423"><ele>892.7</ele><time>2015-04-28T13:41:09.0000000+00:00</time></trkpt><trkpt lat="34.97696159" lon="32.818214"><ele>894.2</ele><time>2015-04-28T13:41:20.0000000+00:00</time></trkpt><trkpt lat="34.97695304" lon="32.81820411"><ele>894.2</ele><time>2015-04-28T13:41:21.0000000+00:00</time></trkpt><trkpt lat="34.97694257" lon="32.81819933"><ele>894.2</ele><time>2015-04-28T13:41:22.0000000+00:00</time></trkpt><trkpt lat="34.97693184" lon="32.81819564"><ele>894.6</ele><time>2015-04-28T13:41:23.0000000+00:00</time></trkpt><trkpt lat="34.97692128" lon="32.81819631"><ele>894.6</ele><time>2015-04-28T13:41:24.0000000+00:00</time></trkpt><trkpt lat="34.97690996" lon="32.81820034"><ele>894.6</ele><time>2015-04-28T13:41:25.0000000+00:00</time></trkpt><trkpt lat="34.97689881" lon="32.81820411"><ele>894.6</ele><time>2015-04-28T13:41:26.0000000+00:00</time></trkpt><trkpt lat="34.97687845" lon="32.81820721"><ele>895.1</ele><time>2015-04-28T13:41:28.0000000+00:00</time></trkpt><trkpt lat="34.97677057" lon="32.81819321"><ele>896.1</ele><time>2015-04-28T13:41:38.0000000+00:00</time></trkpt><trkpt lat="34.97675758" lon="32.81819162"><ele>896.1</ele><time>2015-04-28T13:41:39.0000000+00:00</time></trkpt><trkpt lat="34.97674358" lon="32.81819179"><ele>896.1</ele><time>2015-04-28T13:41:40.0000000+00:00</time></trkpt><trkpt lat="34.97673009" lon="32.81818818"><ele>896.6</ele><time>2015-04-28T13:41:41.0000000+00:00</time></trkpt><trkpt lat="34.97671542" lon="32.81818341"><ele>896.6</ele><time>2015-04-28T13:41:42.0000000+00:00</time></trkpt><trkpt lat="34.9767036" lon="32.81817972"><ele>896.6</ele><time>2015-04-28T13:41:43.0000000+00:00</time></trkpt><trkpt lat="34.97669161" lon="32.81817704"><ele>896.6</ele><time>2015-04-28T13:41:44.0000000+00:00</time></trkpt><trkpt lat="34.97667904" lon="32.81817301"><ele>896.6</ele><time>2015-04-28T13:41:45.0000000+00:00</time></trkpt><trkpt lat="34.97666772" lon="32.81817008"><ele>897.1</ele><time>2015-04-28T13:41:46.0000000+00:00</time></trkpt><trkpt lat="34.97665674" lon="32.81816656"><ele>897.1</ele><time>2015-04-28T13:41:47.0000000+00:00</time></trkpt><trkpt lat="34.97664811" lon="32.81816002"><ele>897.1</ele><time>2015-04-28T13:41:48.0000000+00:00</time></trkpt><trkpt lat="34.97663755" lon="32.81815491"><ele>897.5</ele><time>2015-04-28T13:41:49.0000000+00:00</time></trkpt><trkpt lat="34.97662615" lon="32.81815357"><ele>897.5</ele><time>2015-04-28T13:41:50.0000000+00:00</time></trkpt><trkpt lat="34.97661375" lon="32.81815373"><ele>897.5</ele><time>2015-04-28T13:41:51.0000000+00:00</time></trkpt><trkpt lat="34.97660218" lon="32.81814979"><ele>898.0</ele><time>2015-04-28T13:41:52.0000000+00:00</time></trkpt><trkpt lat="34.97657008" lon="32.81813085"><ele>898.5</ele><time>2015-04-28T13:41:55.0000000+00:00</time></trkpt><trkpt lat="34.97655809" lon="32.8181285"><ele>898.5</ele><time>2015-04-28T13:41:56.0000000+00:00</time></trkpt><trkpt lat="34.97654602" lon="32.81812616"><ele>898.5</ele><time>2015-04-28T13:41:57.0000000+00:00</time></trkpt><trkpt lat="34.97653361" lon="32.81812289"><ele>899.0</ele><time>2015-04-28T13:41:58.0000000+00:00</time></trkpt><trkpt lat="34.97652071" lon="32.81811878"><ele>899.0</ele><time>2015-04-28T13:41:59.0000000+00:00</time></trkpt><trkpt lat="34.97641694" lon="32.81807151"><ele>900.4</ele><time>2015-04-28T13:42:08.0000000+00:00</time></trkpt><trkpt lat="34.97641233" lon="32.81805608"><ele>900.4</ele><time>2015-04-28T13:42:09.0000000+00:00</time></trkpt><trkpt lat="34.97640445" lon="32.81804502"><ele>900.4</ele><time>2015-04-28T13:42:10.0000000+00:00</time></trkpt><trkpt lat="34.97639271" lon="32.81804209"><ele>900.4</ele><time>2015-04-28T13:42:11.0000000+00:00</time></trkpt><trkpt lat="34.97638023" lon="32.818042"><ele>900.9</ele><time>2015-04-28T13:42:12.0000000+00:00</time></trkpt><trkpt lat="34.97636606" lon="32.81804309"><ele>900.9</ele><time>2015-04-28T13:42:13.0000000+00:00</time></trkpt><trkpt lat="34.97635273" lon="32.81804393"><ele>900.9</ele><time>2015-04-28T13:42:14.0000000+00:00</time></trkpt><trkpt lat="34.97634125" lon="32.81804494"><ele>901.4</ele><time>2015-04-28T13:42:15.0000000+00:00</time></trkpt><trkpt lat="34.97632868" lon="32.81804393"><ele>901.4</ele><time>2015-04-28T13:42:16.0000000+00:00</time></trkpt><trkpt lat="34.97631602" lon="32.81804653"><ele>901.4</ele><time>2015-04-28T13:42:17.0000000+00:00</time></trkpt><trkpt lat="34.97630429" lon="32.81804577"><ele>901.4</ele><time>2015-04-28T13:42:18.0000000+00:00</time></trkpt><trkpt lat="34.97629238" lon="32.81804427"><ele>901.9</ele><time>2015-04-28T13:42:19.0000000+00:00</time></trkpt><trkpt lat="34.97628015" lon="32.81804443"><ele>901.9</ele><time>2015-04-28T13:42:20.0000000+00:00</time></trkpt><trkpt lat="34.97626774" lon="32.81804133"><ele>901.9</ele><time>2015-04-28T13:42:21.0000000+00:00</time></trkpt><trkpt lat="34.97625668" lon="32.81803538"><ele>901.9</ele><time>2015-04-28T13:42:22.0000000+00:00</time></trkpt><trkpt lat="34.97624695" lon="32.81802683"><ele>902.3</ele><time>2015-04-28T13:42:23.0000000+00:00</time></trkpt><trkpt lat="34.97623631" lon="32.81802264"><ele>902.3</ele><time>2015-04-28T13:42:24.0000000+00:00</time></trkpt><trkpt lat="34.97622374" lon="32.81802348"><ele>902.8</ele><time>2015-04-28T13:42:25.0000000+00:00</time></trkpt><trkpt lat="34.97601888" lon="32.81797729"><ele>905.7</ele><time>2015-04-28T13:42:42.0000000+00:00</time></trkpt><trkpt lat="34.97599843" lon="32.81797243"><ele>905.7</ele><time>2015-04-28T13:42:44.0000000+00:00</time></trkpt><trkpt lat="34.97598619" lon="32.81797218"><ele>906.2</ele><time>2015-04-28T13:42:45.0000000+00:00</time></trkpt><trkpt lat="34.97597588" lon="32.81796682"><ele>906.2</ele><time>2015-04-28T13:42:46.0000000+00:00</time></trkpt><trkpt lat="34.9759654" lon="32.81795894"><ele>906.2</ele><time>2015-04-28T13:42:47.0000000+00:00</time></trkpt><trkpt lat="34.9759535" lon="32.81795391"><ele>906.7</ele><time>2015-04-28T13:42:48.0000000+00:00</time></trkpt><trkpt lat="34.97593104" lon="32.81793991"><ele>906.7</ele><time>2015-04-28T13:42:50.0000000+00:00</time></trkpt><trkpt lat="34.97591947" lon="32.81793723"><ele>906.7</ele><time>2015-04-28T13:42:51.0000000+00:00</time></trkpt><trkpt lat="34.97590841" lon="32.81793312"><ele>907.1</ele><time>2015-04-28T13:42:52.0000000+00:00</time></trkpt><trkpt lat="34.97589835" lon="32.81792633"><ele>907.1</ele><time>2015-04-28T13:42:53.0000000+00:00</time></trkpt><trkpt lat="34.97588829" lon="32.81791971"><ele>907.6</ele><time>2015-04-28T13:42:54.0000000+00:00</time></trkpt><trkpt lat="34.97587605" lon="32.81791535"><ele>907.6</ele><time>2015-04-28T13:42:55.0000000+00:00</time></trkpt><trkpt lat="34.97586382" lon="32.8179115"><ele>908.1</ele><time>2015-04-28T13:42:56.0000000+00:00</time></trkpt><trkpt lat="34.97585233" lon="32.8179032"><ele>908.1</ele><time>2015-04-28T13:42:57.0000000+00:00</time></trkpt><trkpt lat="34.97584068" lon="32.81789725"><ele>908.1</ele><time>2015-04-28T13:42:58.0000000+00:00</time></trkpt><trkpt lat="34.9758287" lon="32.81789633"><ele>908.6</ele><time>2015-04-28T13:42:59.0000000+00:00</time></trkpt><trkpt lat="34.97577405" lon="32.81787805"><ele>909.1</ele><time>2015-04-28T13:43:04.0000000+00:00</time></trkpt><trkpt lat="34.97576709" lon="32.81787043"><ele>909.1</ele><time>2015-04-28T13:43:05.0000000+00:00</time></trkpt><trkpt lat="34.97570481" lon="32.81784503"><ele>910.0</ele><time>2015-04-28T13:43:11.0000000+00:00</time></trkpt><trkpt lat="34.9756562" lon="32.81784846"><ele>910.5</ele><time>2015-04-28T13:43:15.0000000+00:00</time></trkpt><trkpt lat="34.97564421" lon="32.8178462"><ele>910.5</ele><time>2015-04-28T13:43:16.0000000+00:00</time></trkpt><trkpt lat="34.97563248" lon="32.81784436"><ele>911.0</ele><time>2015-04-28T13:43:17.0000000+00:00</time></trkpt><trkpt lat="34.975622" lon="32.81784042"><ele>911.0</ele><time>2015-04-28T13:43:18.0000000+00:00</time></trkpt><trkpt lat="34.97560959" lon="32.81783899"><ele>911.0</ele><time>2015-04-28T13:43:19.0000000+00:00</time></trkpt><trkpt lat="34.97559669" lon="32.81784075"><ele>911.5</ele><time>2015-04-28T13:43:20.0000000+00:00</time></trkpt><trkpt lat="34.97558445" lon="32.81784184"><ele>911.5</ele><time>2015-04-28T13:43:21.0000000+00:00</time></trkpt><trkpt lat="34.9755728" lon="32.81784243"><ele>911.5</ele><time>2015-04-28T13:43:22.0000000+00:00</time></trkpt><trkpt lat="34.97555989" lon="32.81784008"><ele>911.5</ele><time>2015-04-28T13:43:23.0000000+00:00</time></trkpt><trkpt lat="34.97554841" lon="32.81783841"><ele>911.5</ele><time>2015-04-28T13:43:24.0000000+00:00</time></trkpt><trkpt lat="34.97553784" lon="32.81783807"><ele>912.0</ele><time>2015-04-28T13:43:25.0000000+00:00</time></trkpt><trkpt lat="34.97552586" lon="32.81783933"><ele>912.0</ele><time>2015-04-28T13:43:26.0000000+00:00</time></trkpt><trkpt lat="34.97551697" lon="32.81783354"><ele>912.4</ele><time>2015-04-28T13:43:27.0000000+00:00</time></trkpt><trkpt lat="34.975508" lon="32.81782567"><ele>912.4</ele><time>2015-04-28T13:43:28.0000000+00:00</time></trkpt><trkpt lat="34.97549761" lon="32.81782298"><ele>912.4</ele><time>2015-04-28T13:43:29.0000000+00:00</time></trkpt><trkpt lat="34.97548663" lon="32.81782332"><ele>912.9</ele><time>2015-04-28T13:43:30.0000000+00:00</time></trkpt><trkpt lat="34.97545226" lon="32.81783086"><ele>912.9</ele><time>2015-04-28T13:43:33.0000000+00:00</time></trkpt><trkpt lat="34.97543986" lon="32.81783036"><ele>912.9</ele><time>2015-04-28T13:43:34.0000000+00:00</time></trkpt><trkpt lat="34.97542645" lon="32.81782843"><ele>913.4</ele><time>2015-04-28T13:43:35.0000000+00:00</time></trkpt><trkpt lat="34.97534959" lon="32.81780857"><ele>914.4</ele><time>2015-04-28T13:43:41.0000000+00:00</time></trkpt><trkpt lat="34.97533685" lon="32.81780454"><ele>914.4</ele><time>2015-04-28T13:43:42.0000000+00:00</time></trkpt><trkpt lat="34.97532327" lon="32.81780161"><ele>914.4</ele><time>2015-04-28T13:43:43.0000000+00:00</time></trkpt><trkpt lat="34.9753122" lon="32.81779599"><ele>914.8</ele><time>2015-04-28T13:43:44.0000000+00:00</time></trkpt><trkpt lat="34.9752998" lon="32.81778937"><ele>914.4</ele><time>2015-04-28T13:43:45.0000000+00:00</time></trkpt><trkpt lat="34.97519779" lon="32.81775878"><ele>915.3</ele><time>2015-04-28T13:43:53.0000000+00:00</time></trkpt><trkpt lat="34.97518564" lon="32.81775442"><ele>915.3</ele><time>2015-04-28T13:43:54.0000000+00:00</time></trkpt><trkpt lat="34.97517432" lon="32.81774486"><ele>915.8</ele><time>2015-04-28T13:43:55.0000000+00:00</time></trkpt><trkpt lat="34.97516301" lon="32.81773439"><ele>915.3</ele><time>2015-04-28T13:43:56.0000000+00:00</time></trkpt><trkpt lat="34.9751506" lon="32.81772492"><ele>915.8</ele><time>2015-04-28T13:43:57.0000000+00:00</time></trkpt><trkpt lat="34.97513618" lon="32.81771704"><ele>915.8</ele><time>2015-04-28T13:43:58.0000000+00:00</time></trkpt><trkpt lat="34.97512361" lon="32.81771301"><ele>915.8</ele><time>2015-04-28T13:43:59.0000000+00:00</time></trkpt><trkpt lat="34.97511028" lon="32.81770949"><ele>915.8</ele><time>2015-04-28T13:44:00.0000000+00:00</time></trkpt><trkpt lat="34.97493703" lon="32.81764529"><ele>916.8</ele><time>2015-04-28T13:44:12.0000000+00:00</time></trkpt><trkpt lat="34.97489629" lon="32.81763397"><ele>917.2</ele><time>2015-04-28T13:44:15.0000000+00:00</time></trkpt><trkpt lat="34.97488573" lon="32.81762634"><ele>917.2</ele><time>2015-04-28T13:44:16.0000000+00:00</time></trkpt><trkpt lat="34.97487509" lon="32.81761436"><ele>917.7</ele><time>2015-04-28T13:44:17.0000000+00:00</time></trkpt><trkpt lat="34.97485757" lon="32.81760857"><ele>917.7</ele><time>2015-04-28T13:44:18.0000000+00:00</time></trkpt><trkpt lat="34.97483871" lon="32.81760455"><ele>917.7</ele><time>2015-04-28T13:44:19.0000000+00:00</time></trkpt><trkpt lat="34.974644" lon="32.81760472"><ele>919.2</ele><time>2015-04-28T13:44:31.0000000+00:00</time></trkpt><trkpt lat="34.97445348" lon="32.81761386"><ele>920.1</ele><time>2015-04-28T13:44:43.0000000+00:00</time></trkpt><trkpt lat="34.97444334" lon="32.81761209"><ele>920.1</ele><time>2015-04-28T13:44:44.0000000+00:00</time></trkpt><trkpt lat="34.97443194" lon="32.81761444"><ele>920.6</ele><time>2015-04-28T13:44:45.0000000+00:00</time></trkpt><trkpt lat="34.97441878" lon="32.81761704"><ele>920.6</ele><time>2015-04-28T13:44:46.0000000+00:00</time></trkpt><trkpt lat="34.97440386" lon="32.81761662"><ele>920.6</ele><time>2015-04-28T13:44:47.0000000+00:00</time></trkpt><trkpt lat="34.97438768" lon="32.81761955"><ele>920.6</ele><time>2015-04-28T13:44:48.0000000+00:00</time></trkpt><trkpt lat="34.97415332" lon="32.81764512"><ele>922.0</ele><time>2015-04-28T13:45:01.0000000+00:00</time></trkpt><trkpt lat="34.97387781" lon="32.81765149"><ele>924.9</ele><time>2015-04-28T13:45:14.0000000+00:00</time></trkpt><trkpt lat="34.97355762" lon="32.81764512"><ele>926.9</ele><time>2015-04-28T13:45:28.0000000+00:00</time></trkpt><trkpt lat="34.97337959" lon="32.81763447"><ele>927.8</ele><time>2015-04-28T13:45:38.0000000+00:00</time></trkpt><trkpt lat="34.97328999" lon="32.81761813"><ele>927.8</ele><time>2015-04-28T13:45:43.0000000+00:00</time></trkpt><trkpt lat="34.9732718" lon="32.81761243"><ele>928.3</ele><time>2015-04-28T13:45:44.0000000+00:00</time></trkpt><trkpt lat="34.97305378" lon="32.81743364"><ele>927.3</ele><time>2015-04-28T13:45:55.0000000+00:00</time></trkpt><trkpt lat="34.97303853" lon="32.8172966"><ele>928.8</ele><time>2015-04-28T13:46:00.0000000+00:00</time></trkpt><trkpt lat="34.97304138" lon="32.81726114"><ele>929.3</ele><time>2015-04-28T13:46:01.0000000+00:00</time></trkpt><trkpt lat="34.97304398" lon="32.81720717"><ele>930.2</ele><time>2015-04-28T13:46:04.0000000+00:00</time></trkpt><trkpt lat="34.9730532" lon="32.81718948"><ele>930.2</ele><time>2015-04-28T13:46:05.0000000+00:00</time></trkpt><trkpt lat="34.97306652" lon="32.81717204"><ele>930.7</ele><time>2015-04-28T13:46:06.0000000+00:00</time></trkpt><trkpt lat="34.97310449" lon="32.81712846"><ele>931.2</ele><time>2015-04-28T13:46:10.0000000+00:00</time></trkpt><trkpt lat="34.97311397" lon="32.81712117"><ele>931.7</ele><time>2015-04-28T13:46:11.0000000+00:00</time></trkpt><trkpt lat="34.97312218" lon="32.81711387"><ele>931.7</ele><time>2015-04-28T13:46:12.0000000+00:00</time></trkpt><trkpt lat="34.97313224" lon="32.81710566"><ele>931.7</ele><time>2015-04-28T13:46:13.0000000+00:00</time></trkpt><trkpt lat="34.97314255" lon="32.8170951"><ele>932.1</ele><time>2015-04-28T13:46:14.0000000+00:00</time></trkpt><trkpt lat="34.97315018" lon="32.81708395"><ele>932.1</ele><time>2015-04-28T13:46:15.0000000+00:00</time></trkpt><trkpt lat="34.973207" lon="32.81702528"><ele>933.1</ele><time>2015-04-28T13:46:22.0000000+00:00</time></trkpt><trkpt lat="34.97321664" lon="32.81701279"><ele>933.6</ele><time>2015-04-28T13:46:23.0000000+00:00</time></trkpt><trkpt lat="34.97322385" lon="32.81699988"><ele>933.6</ele><time>2015-04-28T13:46:24.0000000+00:00</time></trkpt><trkpt lat="34.97323173" lon="32.81698672"><ele>934.1</ele><time>2015-04-28T13:46:25.0000000+00:00</time></trkpt><trkpt lat="34.97324011" lon="32.81697222"><ele>934.1</ele><time>2015-04-28T13:46:26.0000000+00:00</time></trkpt><trkpt lat="34.97324933" lon="32.81696074"><ele>934.5</ele><time>2015-04-28T13:46:27.0000000+00:00</time></trkpt><trkpt lat="34.97326157" lon="32.81695127"><ele>934.5</ele><time>2015-04-28T13:46:28.0000000+00:00</time></trkpt><trkpt lat="34.97327699" lon="32.81694096"><ele>934.5</ele><time>2015-04-28T13:46:29.0000000+00:00</time></trkpt><trkpt lat="34.97330943" lon="32.81690952"><ele>935.5</ele><time>2015-04-28T13:46:31.0000000+00:00</time></trkpt><trkpt lat="34.97331429" lon="32.8168962"><ele>935.5</ele><time>2015-04-28T13:46:42.0000000+00:00</time></trkpt><trkpt lat="34.97336567" lon="32.81685462"><ele>936.0</ele><time>2015-04-28T13:46:54.0000000+00:00</time></trkpt><trkpt lat="34.97331899" lon="32.81685915"><ele>936.5</ele><time>2015-04-28T13:47:38.0000000+00:00</time></trkpt><trkpt lat="34.97332703" lon="32.81687189"><ele>936.9</ele><time>2015-04-28T13:48:19.0000000+00:00</time></trkpt><trkpt lat="34.97335285" lon="32.81688513"><ele>937.4</ele><time>2015-04-28T13:49:03.0000000+00:00</time></trkpt><trkpt lat="34.97336249" lon="32.81689066"><ele>938.4</ele><time>2015-04-28T13:49:33.0000000+00:00</time></trkpt><trkpt lat="34.97337531" lon="32.81688731"><ele>938.4</ele><time>2015-04-28T13:50:11.0000000+00:00</time></trkpt><trkpt lat="34.97334925" lon="32.81686971"><ele>938.4</ele><time>2015-04-28T13:50:34.0000000+00:00</time></trkpt><trkpt lat="34.97332871" lon="32.8168687"><ele>938.9</ele><time>2015-04-28T13:51:09.0000000+00:00</time></trkpt><trkpt lat="34.97332586" lon="32.81685747"><ele>939.4</ele><time>2015-04-28T13:51:44.0000000+00:00</time></trkpt><trkpt lat="34.97332687" lon="32.81687046"><ele>939.4</ele><time>2015-04-28T13:52:11.0000000+00:00</time></trkpt><trkpt lat="34.97334824" lon="32.81685621"><ele>939.4</ele><time>2015-04-28T13:52:44.0000000+00:00</time></trkpt><trkpt lat="34.97338168" lon="32.81688455"><ele>939.4</ele><time>2015-04-28T13:53:18.0000000+00:00</time></trkpt><trkpt lat="34.97339853" lon="32.81689921"><ele>939.8</ele><time>2015-04-28T13:53:48.0000000+00:00</time></trkpt><trkpt lat="34.973379" lon="32.81689108"><ele>939.8</ele><time>2015-04-28T13:54:20.0000000+00:00</time></trkpt><trkpt lat="34.97338445" lon="32.81691547"><ele>940.3</ele><time>2015-04-28T13:54:56.0000000+00:00</time></trkpt><trkpt lat="34.97341387" lon="32.81692159"><ele>940.3</ele><time>2015-04-28T13:55:22.0000000+00:00</time></trkpt><trkpt lat="34.97337749" lon="32.81689804"><ele>940.8</ele><time>2015-04-28T13:55:52.0000000+00:00</time></trkpt><trkpt lat="34.97340901" lon="32.81691145"><ele>940.8</ele><time>2015-04-28T13:56:30.0000000+00:00</time></trkpt><trkpt lat="34.97340247" lon="32.81693366"><ele>941.3</ele><time>2015-04-28T13:57:06.0000000+00:00</time></trkpt><trkpt lat="34.97338395" lon="32.81691078"><ele>941.8</ele><time>2015-04-28T13:57:32.0000000+00:00</time></trkpt><trkpt lat="34.97337984" lon="32.81689846"><ele>941.8</ele><time>2015-04-28T13:58:03.0000000+00:00</time></trkpt><trkpt lat="34.97338663" lon="32.8169034"><ele>941.8</ele><time>2015-04-28T13:58:44.0000000+00:00</time></trkpt><trkpt lat="34.97341865" lon="32.81689234"><ele>942.2</ele><time>2015-04-28T13:59:26.0000000+00:00</time></trkpt><trkpt lat="34.97343055" lon="32.81689888"><ele>942.2</ele><time>2015-04-28T13:59:55.0000000+00:00</time></trkpt><trkpt lat="34.97342384" lon="32.81691656"><ele>942.2</ele><time>2015-04-28T14:00:24.0000000+00:00</time></trkpt><trkpt lat="34.97340222" lon="32.8168858"><ele>942.7</ele><time>2015-04-28T14:00:56.0000000+00:00</time></trkpt><trkpt lat="34.97336551" lon="32.81685923"><ele>942.2</ele><time>2015-04-28T14:01:48.0000000+00:00</time></trkpt><trkpt lat="34.97337439" lon="32.81684347"><ele>942.7</ele><time>2015-04-28T14:02:21.0000000+00:00</time></trkpt><trkpt lat="34.97341144" lon="32.816862"><ele>942.7</ele><time>2015-04-28T14:03:03.0000000+00:00</time></trkpt><trkpt lat="34.9733728" lon="32.81685035"><ele>942.7</ele><time>2015-04-28T14:03:45.0000000+00:00</time></trkpt><trkpt lat="34.97338604" lon="32.81688287"><ele>942.2</ele><time>2015-04-28T14:04:19.0000000+00:00</time></trkpt><trkpt lat="34.97338202" lon="32.81687357"><ele>942.2</ele><time>2015-04-28T14:04:50.0000000+00:00</time></trkpt><trkpt lat="34.97339585" lon="32.81685831"><ele>942.2</ele><time>2015-04-28T14:05:28.0000000+00:00</time></trkpt><trkpt lat="34.9734111" lon="32.81685085"><ele>942.2</ele><time>2015-04-28T14:06:02.0000000+00:00</time></trkpt><trkpt lat="34.97339183" lon="32.8168687"><ele>942.2</ele><time>2015-04-28T14:06:26.0000000+00:00</time></trkpt><trkpt lat="34.97338546" lon="32.81687466"><ele>942.7</ele><time>2015-04-28T14:06:43.0000000+00:00</time></trkpt><trkpt lat="34.97336718" lon="32.81686929"><ele>942.7</ele><time>2015-04-28T14:07:03.0000000+00:00</time></trkpt><trkpt lat="34.97334505" lon="32.81687398"><ele>942.7</ele><time>2015-04-28T14:07:04.0000000+00:00</time></trkpt><trkpt lat="34.97331798" lon="32.81687826"><ele>942.2</ele><time>2015-04-28T14:07:05.0000000+00:00</time></trkpt><trkpt lat="34.97315847" lon="32.81694355"><ele>945.1</ele><time>2015-04-28T14:07:16.0000000+00:00</time></trkpt><trkpt lat="34.97303258" lon="32.81698463"><ele>947.5</ele><time>2015-04-28T14:07:30.0000000+00:00</time></trkpt><trkpt lat="34.97297332" lon="32.81700131"><ele>948.0</ele><time>2015-04-28T14:07:44.0000000+00:00</time></trkpt><trkpt lat="34.97294515" lon="32.81698714"><ele>948.0</ele><time>2015-04-28T14:08:06.0000000+00:00</time></trkpt><trkpt lat="34.97293727" lon="32.81694255"><ele>949.0</ele><time>2015-04-28T14:08:23.0000000+00:00</time></trkpt><trkpt lat="34.97285857" lon="32.81693936"><ele>951.4</ele><time>2015-04-28T14:08:38.0000000+00:00</time></trkpt><trkpt lat="34.97276511" lon="32.81698236"><ele>954.3</ele><time>2015-04-28T14:08:58.0000000+00:00</time></trkpt><trkpt lat="34.97271105" lon="32.81701321"><ele>955.7</ele><time>2015-04-28T14:09:12.0000000+00:00</time></trkpt><trkpt lat="34.97268029" lon="32.8170153"><ele>956.2</ele><time>2015-04-28T14:09:40.0000000+00:00</time></trkpt><trkpt lat="34.97260418" lon="32.81707909"><ele>958.1</ele><time>2015-04-28T14:09:54.0000000+00:00</time></trkpt><trkpt lat="34.97251089" lon="32.81711999"><ele>960.5</ele><time>2015-04-28T14:10:13.0000000+00:00</time></trkpt><trkpt lat="34.97248993" lon="32.81713558"><ele>961.0</ele><time>2015-04-28T14:10:27.0000000+00:00</time></trkpt><trkpt lat="34.97239932" lon="32.81717758"><ele>962.4</ele><time>2015-04-28T14:10:43.0000000+00:00</time></trkpt><trkpt lat="34.97237435" lon="32.81719174"><ele>962.9</ele><time>2015-04-28T14:10:47.0000000+00:00</time></trkpt><trkpt lat="34.97234979" lon="32.81719711"><ele>963.4</ele><time>2015-04-28T14:10:50.0000000+00:00</time></trkpt><trkpt lat="34.97233948" lon="32.81719996"><ele>963.9</ele><time>2015-04-28T14:10:51.0000000+00:00</time></trkpt><trkpt lat="34.97228952" lon="32.8172241"><ele>964.3</ele><time>2015-04-28T14:10:56.0000000+00:00</time></trkpt><trkpt lat="34.97213328" lon="32.81729551"><ele>967.2</ele><time>2015-04-28T14:11:09.0000000+00:00</time></trkpt><trkpt lat="34.97208995" lon="32.81731663"><ele>968.2</ele><time>2015-04-28T14:11:13.0000000+00:00</time></trkpt><trkpt lat="34.97206078" lon="32.81733926"><ele>969.2</ele><time>2015-04-28T14:11:16.0000000+00:00</time></trkpt><trkpt lat="34.97198869" lon="32.81736064"><ele>970.1</ele><time>2015-04-28T14:11:23.0000000+00:00</time></trkpt><trkpt lat="34.97193463" lon="32.8173686"><ele>970.6</ele><time>2015-04-28T14:11:27.0000000+00:00</time></trkpt><trkpt lat="34.97179432" lon="32.81728419"><ele>972.0</ele><time>2015-04-28T14:11:39.0000000+00:00</time></trkpt><trkpt lat="34.97175928" lon="32.81724639"><ele>973.0</ele><time>2015-04-28T14:11:44.0000000+00:00</time></trkpt><trkpt lat="34.97163372" lon="32.81714899"><ele>976.4</ele><time>2015-04-28T14:11:59.0000000+00:00</time></trkpt><trkpt lat="34.97159148" lon="32.81711815"><ele>977.3</ele><time>2015-04-28T14:12:10.0000000+00:00</time></trkpt><trkpt lat="34.97154529" lon="32.81709753"><ele>978.8</ele><time>2015-04-28T14:12:22.0000000+00:00</time></trkpt><trkpt lat="34.97149576" lon="32.81707515"><ele>980.2</ele><time>2015-04-28T14:12:37.0000000+00:00</time></trkpt><trkpt lat="34.97151897" lon="32.81705562"><ele>980.2</ele><time>2015-04-28T14:13:02.0000000+00:00</time></trkpt><trkpt lat="34.97149559" lon="32.8170355"><ele>980.2</ele><time>2015-04-28T14:13:25.0000000+00:00</time></trkpt><trkpt lat="34.97148771" lon="32.81698018"><ele>980.2</ele><time>2015-04-28T14:13:54.0000000+00:00</time></trkpt><trkpt lat="34.97147849" lon="32.81700457"><ele>982.1</ele><time>2015-04-28T14:14:12.0000000+00:00</time></trkpt><trkpt lat="34.97141185" lon="32.816992"><ele>984.1</ele><time>2015-04-28T14:14:29.0000000+00:00</time></trkpt><trkpt lat="34.97135201" lon="32.81699225"><ele>986.0</ele><time>2015-04-28T14:14:45.0000000+00:00</time></trkpt><trkpt lat="34.97129157" lon="32.81697532"><ele>987.9</ele><time>2015-04-28T14:15:02.0000000+00:00</time></trkpt><trkpt lat="34.97124396" lon="32.81696451"><ele>989.3</ele><time>2015-04-28T14:15:19.0000000+00:00</time></trkpt><trkpt lat="34.97120046" lon="32.81693785"><ele>990.8</ele><time>2015-04-28T14:15:33.0000000+00:00</time></trkpt><trkpt lat="34.97120784" lon="32.81693651"><ele>990.8</ele><time>2015-04-28T14:15:54.0000000+00:00</time></trkpt><trkpt lat="34.97117498" lon="32.81692042"><ele>991.3</ele><time>2015-04-28T14:16:24.0000000+00:00</time></trkpt><trkpt lat="34.97114967" lon="32.81690869"><ele>993.2</ele><time>2015-04-28T14:16:43.0000000+00:00</time></trkpt><trkpt lat="34.97111849" lon="32.81687893"><ele>995.1</ele><time>2015-04-28T14:16:59.0000000+00:00</time></trkpt><trkpt lat="34.97110935" lon="32.81686217"><ele>996.1</ele><time>2015-04-28T14:17:12.0000000+00:00</time></trkpt><trkpt lat="34.97106208" lon="32.8168226"><ele>998.0</ele><time>2015-04-28T14:17:25.0000000+00:00</time></trkpt><trkpt lat="34.97103752" lon="32.81678312"><ele>998.5</ele><time>2015-04-28T14:17:40.0000000+00:00</time></trkpt><trkpt lat="34.97099913" lon="32.81673619"><ele>1000.9</ele><time>2015-04-28T14:17:54.0000000+00:00</time></trkpt><trkpt lat="34.97096292" lon="32.81673484"><ele>1001.8</ele><time>2015-04-28T14:18:10.0000000+00:00</time></trkpt><trkpt lat="34.97094305" lon="32.81671766"><ele>1002.8</ele><time>2015-04-28T14:18:21.0000000+00:00</time></trkpt><trkpt lat="34.97092763" lon="32.81670459"><ele>1003.8</ele><time>2015-04-28T14:18:38.0000000+00:00</time></trkpt><trkpt lat="34.97089209" lon="32.81666008"><ele>1005.2</ele><time>2015-04-28T14:18:52.0000000+00:00</time></trkpt><trkpt lat="34.97087122" lon="32.81663988"><ele>1006.6</ele><time>2015-04-28T14:19:09.0000000+00:00</time></trkpt><trkpt lat="34.97087055" lon="32.81662689"><ele>1006.6</ele><time>2015-04-28T14:19:24.0000000+00:00</time></trkpt><trkpt lat="34.97085513" lon="32.8166377"><ele>1006.6</ele><time>2015-04-28T14:19:46.0000000+00:00</time></trkpt><trkpt lat="34.97082327" lon="32.81661138"><ele>1006.6</ele><time>2015-04-28T14:20:21.0000000+00:00</time></trkpt><trkpt lat="34.97081431" lon="32.81653577"><ele>1009.0</ele><time>2015-04-28T14:20:43.0000000+00:00</time></trkpt><trkpt lat="34.97078757" lon="32.8165077"><ele>1010.5</ele><time>2015-04-28T14:20:58.0000000+00:00</time></trkpt><trkpt lat="34.97077315" lon="32.8164766"><ele>1011.4</ele><time>2015-04-28T14:21:11.0000000+00:00</time></trkpt><trkpt lat="34.97073518" lon="32.81644751"><ele>1012.4</ele><time>2015-04-28T14:21:22.0000000+00:00</time></trkpt><trkpt lat="34.97069302" lon="32.8164191"><ele>1013.9</ele><time>2015-04-28T14:21:34.0000000+00:00</time></trkpt><trkpt lat="34.97064617" lon="32.81638104"><ele>1015.3</ele><time>2015-04-28T14:21:49.0000000+00:00</time></trkpt><trkpt lat="34.97058179" lon="32.816315"><ele>1016.3</ele><time>2015-04-28T14:22:06.0000000+00:00</time></trkpt><trkpt lat="34.97061222" lon="32.816315"><ele>1016.7</ele><time>2015-04-28T14:22:11.0000000+00:00</time></trkpt><trkpt lat="34.97077265" lon="32.81634592"><ele>1018.7</ele><time>2015-04-28T14:22:25.0000000+00:00</time></trkpt><trkpt lat="34.97086141" lon="32.81640292"><ele>1019.6</ele><time>2015-04-28T14:22:35.0000000+00:00</time></trkpt><trkpt lat="34.97093157" lon="32.81641264"><ele>1020.1</ele><time>2015-04-28T14:22:42.0000000+00:00</time></trkpt><trkpt lat="34.97098303" lon="32.81642321"><ele>1019.6</ele><time>2015-04-28T14:22:45.0000000+00:00</time></trkpt><trkpt lat="34.97100282" lon="32.81643343"><ele>1019.6</ele><time>2015-04-28T14:22:46.0000000+00:00</time></trkpt><trkpt lat="34.97102151" lon="32.81643704"><ele>1019.6</ele><time>2015-04-28T14:22:47.0000000+00:00</time></trkpt><trkpt lat="34.97103844" lon="32.81643611"><ele>1019.1</ele><time>2015-04-28T14:22:48.0000000+00:00</time></trkpt><trkpt lat="34.9710578" lon="32.81643435"><ele>1019.1</ele><time>2015-04-28T14:22:49.0000000+00:00</time></trkpt><trkpt lat="34.97108001" lon="32.81642673"><ele>1018.2</ele><time>2015-04-28T14:22:50.0000000+00:00</time></trkpt><trkpt lat="34.97110415" lon="32.81641256"><ele>1018.7</ele><time>2015-04-28T14:22:51.0000000+00:00</time></trkpt><trkpt lat="34.97112351" lon="32.8163958"><ele>1018.7</ele><time>2015-04-28T14:22:52.0000000+00:00</time></trkpt><trkpt lat="34.97113693" lon="32.81638197"><ele>1018.2</ele><time>2015-04-28T14:22:53.0000000+00:00</time></trkpt><trkpt lat="34.97114631" lon="32.81637141"><ele>1017.7</ele><time>2015-04-28T14:22:54.0000000+00:00</time></trkpt><trkpt lat="34.97119795" lon="32.81632958"><ele>1017.7</ele><time>2015-04-28T14:23:06.0000000+00:00</time></trkpt><trkpt lat="34.97118923" lon="32.81634324"><ele>1017.7</ele><time>2015-04-28T14:23:11.0000000+00:00</time></trkpt><trkpt lat="34.97118127" lon="32.81635573"><ele>1018.2</ele><time>2015-04-28T14:23:12.0000000+00:00</time></trkpt><trkpt lat="34.97117029" lon="32.81637191"><ele>1018.2</ele><time>2015-04-28T14:23:13.0000000+00:00</time></trkpt><trkpt lat="34.97115478" lon="32.8163885"><ele>1018.2</ele><time>2015-04-28T14:23:15.0000000+00:00</time></trkpt><trkpt lat="34.97113064" lon="32.8164186"><ele>1018.2</ele><time>2015-04-28T14:23:19.0000000+00:00</time></trkpt><trkpt lat="34.97112259" lon="32.81642865"><ele>1018.7</ele><time>2015-04-28T14:23:20.0000000+00:00</time></trkpt><trkpt lat="34.97111161" lon="32.81643972"><ele>1018.7</ele><time>2015-04-28T14:23:21.0000000+00:00</time></trkpt><trkpt lat="34.97109041" lon="32.81644693"><ele>1019.1</ele><time>2015-04-28T14:23:23.0000000+00:00</time></trkpt><trkpt lat="34.97107783" lon="32.81644441"><ele>1019.1</ele><time>2015-04-28T14:23:24.0000000+00:00</time></trkpt><trkpt lat="34.97106367" lon="32.81644098"><ele>1019.1</ele><time>2015-04-28T14:23:25.0000000+00:00</time></trkpt><trkpt lat="34.97105076" lon="32.81643779"><ele>1019.1</ele><time>2015-04-28T14:23:26.0000000+00:00</time></trkpt><trkpt lat="34.97102872" lon="32.81642254"><ele>1019.6</ele><time>2015-04-28T14:23:28.0000000+00:00</time></trkpt><trkpt lat="34.9710039" lon="32.81641298"><ele>1019.1</ele><time>2015-04-28T14:23:30.0000000+00:00</time></trkpt><trkpt lat="34.97080266" lon="32.81632505"><ele>1019.6</ele><time>2015-04-28T14:23:43.0000000+00:00</time></trkpt><trkpt lat="34.97056109" lon="32.81626294"><ele>1016.7</ele><time>2015-04-28T14:23:50.0000000+00:00</time></trkpt><trkpt lat="34.97017125" lon="32.81627233"><ele>1013.9</ele><time>2015-04-28T14:23:58.0000000+00:00</time></trkpt><trkpt lat="34.97008885" lon="32.81632723"><ele>1013.4</ele><time>2015-04-28T14:24:01.0000000+00:00</time></trkpt><trkpt lat="34.97007569" lon="32.81637325"><ele>1012.9</ele><time>2015-04-28T14:24:02.0000000+00:00</time></trkpt><trkpt lat="34.97007293" lon="32.81642312"><ele>1012.9</ele><time>2015-04-28T14:24:03.0000000+00:00</time></trkpt><trkpt lat="34.97008827" lon="32.81652354"><ele>1013.4</ele><time>2015-04-28T14:24:06.0000000+00:00</time></trkpt><trkpt lat="34.970344" lon="32.81677139"><ele>1010.5</ele><time>2015-04-28T14:24:15.0000000+00:00</time></trkpt><trkpt lat="34.9703668" lon="32.8168242"><ele>1010.0</ele><time>2015-04-28T14:24:16.0000000+00:00</time></trkpt><trkpt lat="34.97037786" lon="32.81688329"><ele>1009.5</ele><time>2015-04-28T14:24:17.0000000+00:00</time></trkpt><trkpt lat="34.97037736" lon="32.8169423"><ele>1009.5</ele><time>2015-04-28T14:24:18.0000000+00:00</time></trkpt><trkpt lat="34.97036671" lon="32.81699795"><ele>1009.5</ele><time>2015-04-28T14:24:19.0000000+00:00</time></trkpt><trkpt lat="34.97035003" lon="32.81704313"><ele>1009.5</ele><time>2015-04-28T14:24:20.0000000+00:00</time></trkpt><trkpt lat="34.97033226" lon="32.81707825"><ele>1010.0</ele><time>2015-04-28T14:24:21.0000000+00:00</time></trkpt><trkpt lat="34.97024995" lon="32.81724631"><ele>1011.0</ele><time>2015-04-28T14:24:29.0000000+00:00</time></trkpt><trkpt lat="34.97025884" lon="32.81727179"><ele>1011.0</ele><time>2015-04-28T14:24:30.0000000+00:00</time></trkpt><trkpt lat="34.97027619" lon="32.81729283"><ele>1011.0</ele><time>2015-04-28T14:24:31.0000000+00:00</time></trkpt><trkpt lat="34.97029605" lon="32.81730557"><ele>1011.0</ele><time>2015-04-28T14:24:32.0000000+00:00</time></trkpt><trkpt lat="34.97031776" lon="32.8173147"><ele>1011.0</ele><time>2015-04-28T14:24:33.0000000+00:00</time></trkpt><trkpt lat="34.97034274" lon="32.81732208"><ele>1011.0</ele><time>2015-04-28T14:24:34.0000000+00:00</time></trkpt><trkpt lat="34.97037183" lon="32.81733222"><ele>1010.5</ele><time>2015-04-28T14:24:35.0000000+00:00</time></trkpt><trkpt lat="34.97040611" lon="32.81734756"><ele>1010.0</ele><time>2015-04-28T14:24:36.0000000+00:00</time></trkpt><trkpt lat="34.97044416" lon="32.81736718"><ele>1010.0</ele><time>2015-04-28T14:24:37.0000000+00:00</time></trkpt><trkpt lat="34.97048926" lon="32.81738159"><ele>1009.5</ele><time>2015-04-28T14:24:38.0000000+00:00</time></trkpt><trkpt lat="34.97054005" lon="32.81739551"><ele>1008.6</ele><time>2015-04-28T14:24:39.0000000+00:00</time></trkpt><trkpt lat="34.97060023" lon="32.81741839"><ele>1008.1</ele><time>2015-04-28T14:24:40.0000000+00:00</time></trkpt><trkpt lat="34.97074029" lon="32.81747974"><ele>1007.1</ele><time>2015-04-28T14:24:42.0000000+00:00</time></trkpt><trkpt lat="34.97080056" lon="32.8175173"><ele>1006.6</ele><time>2015-04-28T14:24:43.0000000+00:00</time></trkpt><trkpt lat="34.97084792" lon="32.81755434"><ele>1006.6</ele><time>2015-04-28T14:24:44.0000000+00:00</time></trkpt><trkpt lat="34.97106551" lon="32.81773807"><ele>1004.2</ele><time>2015-04-28T14:24:50.0000000+00:00</time></trkpt><trkpt lat="34.97108412" lon="32.81778837"><ele>1003.8</ele><time>2015-04-28T14:24:51.0000000+00:00</time></trkpt><trkpt lat="34.97109066" lon="32.81784209"><ele>1003.8</ele><time>2015-04-28T14:24:52.0000000+00:00</time></trkpt><trkpt lat="34.97108974" lon="32.81789557"><ele>1003.8</ele><time>2015-04-28T14:24:53.0000000+00:00</time></trkpt><trkpt lat="34.97108571" lon="32.81794871"><ele>1003.3</ele><time>2015-04-28T14:24:54.0000000+00:00</time></trkpt><trkpt lat="34.97115193" lon="32.81830201"><ele>1003.8</ele><time>2015-04-28T14:25:04.0000000+00:00</time></trkpt><trkpt lat="34.97113693" lon="32.81861055"><ele>1002.8</ele><time>2015-04-28T14:25:14.0000000+00:00</time></trkpt><trkpt lat="34.97111874" lon="32.8186574"><ele>1002.8</ele><time>2015-04-28T14:25:15.0000000+00:00</time></trkpt><trkpt lat="34.97103182" lon="32.81884398"><ele>1000.4</ele><time>2015-04-28T14:25:19.0000000+00:00</time></trkpt><trkpt lat="34.97101774" lon="32.81890794"><ele>999.9</ele><time>2015-04-28T14:25:20.0000000+00:00</time></trkpt><trkpt lat="34.97101597" lon="32.81897047"><ele>999.0</ele><time>2015-04-28T14:25:21.0000000+00:00</time></trkpt><trkpt lat="34.97102528" lon="32.81902453"><ele>999.0</ele><time>2015-04-28T14:25:22.0000000+00:00</time></trkpt><trkpt lat="34.97103877" lon="32.81906602"><ele>999.4</ele><time>2015-04-28T14:25:23.0000000+00:00</time></trkpt><trkpt lat="34.97105059" lon="32.8192785"><ele>1000.9</ele><time>2015-04-28T14:25:33.0000000+00:00</time></trkpt><trkpt lat="34.97104095" lon="32.81935545"><ele>1000.9</ele><time>2015-04-28T14:25:45.0000000+00:00</time></trkpt><trkpt lat="34.97103802" lon="32.81938738"><ele>1001.4</ele><time>2015-04-28T14:26:07.0000000+00:00</time></trkpt><trkpt lat="34.97092193" lon="32.81961277"><ele>1003.8</ele><time>2015-04-28T14:26:19.0000000+00:00</time></trkpt><trkpt lat="34.97081841" lon="32.81970522"><ele>1005.2</ele><time>2015-04-28T14:26:27.0000000+00:00</time></trkpt><trkpt lat="34.97081045" lon="32.81971755"><ele>1005.2</ele><time>2015-04-28T14:26:28.0000000+00:00</time></trkpt><trkpt lat="34.97080115" lon="32.81972735"><ele>1005.7</ele><time>2015-04-28T14:26:29.0000000+00:00</time></trkpt><trkpt lat="34.9707905" lon="32.81973892"><ele>1005.7</ele><time>2015-04-28T14:26:30.0000000+00:00</time></trkpt><trkpt lat="34.97078137" lon="32.8197504"><ele>1006.2</ele><time>2015-04-28T14:26:31.0000000+00:00</time></trkpt><trkpt lat="34.97069495" lon="32.81987605"><ele>1008.6</ele><time>2015-04-28T14:26:44.0000000+00:00</time></trkpt><trkpt lat="34.97066217" lon="32.81992701"><ele>1009.0</ele><time>2015-04-28T14:26:49.0000000+00:00</time></trkpt><trkpt lat="34.9706548" lon="32.81996925"><ele>1009.5</ele><time>2015-04-28T14:26:52.0000000+00:00</time></trkpt><trkpt lat="34.97065279" lon="32.81998501"><ele>1009.5</ele><time>2015-04-28T14:26:53.0000000+00:00</time></trkpt><trkpt lat="34.97064793" lon="32.81999717"><ele>1010.0</ele><time>2015-04-28T14:26:54.0000000+00:00</time></trkpt><trkpt lat="34.97062161" lon="32.82005123"><ele>1010.5</ele><time>2015-04-28T14:26:59.0000000+00:00</time></trkpt><trkpt lat="34.97061498" lon="32.82006137"><ele>1011.0</ele><time>2015-04-28T14:27:00.0000000+00:00</time></trkpt><trkpt lat="34.97058615" lon="32.8201094"><ele>1011.4</ele><time>2015-04-28T14:27:05.0000000+00:00</time></trkpt><trkpt lat="34.97051951" lon="32.82018132"><ele>1012.9</ele><time>2015-04-28T14:27:14.0000000+00:00</time></trkpt><trkpt lat="34.97045355" lon="32.82024032"><ele>1013.9</ele><time>2015-04-28T14:27:22.0000000+00:00</time></trkpt><trkpt lat="34.97035967" lon="32.82039019"><ele>1014.8</ele><time>2015-04-28T14:27:36.0000000+00:00</time></trkpt><trkpt lat="34.97022573" lon="32.82065095"><ele>1016.3</ele><time>2015-04-28T14:27:52.0000000+00:00</time></trkpt><trkpt lat="34.97021316" lon="32.8206642"><ele>1015.8</ele><time>2015-04-28T14:27:54.0000000+00:00</time></trkpt><trkpt lat="34.97020276" lon="32.82067409"><ele>1015.3</ele><time>2015-04-28T14:28:06.0000000+00:00</time></trkpt><trkpt lat="34.97019966" lon="32.82077224"><ele>1015.3</ele><time>2015-04-28T14:28:45.0000000+00:00</time></trkpt><trkpt lat="34.97023185" lon="32.82070619"><ele>1015.3</ele><time>2015-04-28T14:29:19.0000000+00:00</time></trkpt><trkpt lat="34.97024744" lon="32.82076981"><ele>1015.3</ele><time>2015-04-28T14:29:52.0000000+00:00</time></trkpt><trkpt lat="34.97022958" lon="32.82074844"><ele>1014.8</ele><time>2015-04-28T14:30:20.0000000+00:00</time></trkpt><trkpt lat="34.9702461" lon="32.82073477"><ele>1014.8</ele><time>2015-04-28T14:30:57.0000000+00:00</time></trkpt><trkpt lat="34.97024979" lon="32.82074709"><ele>1014.8</ele><time>2015-04-28T14:31:31.0000000+00:00</time></trkpt><trkpt lat="34.97018516" lon="32.82070535"><ele>1014.3</ele><time>2015-04-28T14:32:08.0000000+00:00</time></trkpt><trkpt lat="34.97021919" lon="32.82077149"><ele>1014.3</ele><time>2015-04-28T14:32:35.0000000+00:00</time></trkpt><trkpt lat="34.97022238" lon="32.8207248"><ele>1014.3</ele><time>2015-04-28T14:33:11.0000000+00:00</time></trkpt><trkpt lat="34.97020863" lon="32.82074106"><ele>1014.3</ele><time>2015-04-28T14:33:58.0000000+00:00</time></trkpt><trkpt lat="34.97026387" lon="32.82077216"><ele>1014.3</ele><time>2015-04-28T14:34:30.0000000+00:00</time></trkpt><trkpt lat="34.97022673" lon="32.82076729"><ele>1014.3</ele><time>2015-04-28T14:35:09.0000000+00:00</time></trkpt><trkpt lat="34.97023922" lon="32.82077425"><ele>1014.3</ele><time>2015-04-28T14:35:42.0000000+00:00</time></trkpt><trkpt lat="34.97024509" lon="32.82075346"><ele>1014.8</ele><time>2015-04-28T14:36:24.0000000+00:00</time></trkpt><trkpt lat="34.97021634" lon="32.82070979"><ele>1015.3</ele><time>2015-04-28T14:36:38.0000000+00:00</time></trkpt><trkpt lat="34.97017728" lon="32.82073963"><ele>1015.3</ele><time>2015-04-28T14:36:51.0000000+00:00</time></trkpt><trkpt lat="34.97018415" lon="32.82078699"><ele>1015.3</ele><time>2015-04-28T14:36:55.0000000+00:00</time></trkpt><trkpt lat="34.97031759" lon="32.8209693"><ele>1014.8</ele><time>2015-04-28T14:37:03.0000000+00:00</time></trkpt><trkpt lat="34.97033645" lon="32.82097257"><ele>1014.8</ele><time>2015-04-28T14:37:04.0000000+00:00</time></trkpt><trkpt lat="34.97064692" lon="32.82077928"><ele>1011.9</ele><time>2015-04-28T14:37:16.0000000+00:00</time></trkpt><trkpt lat="34.97067458" lon="32.82076143"><ele>1011.9</ele><time>2015-04-28T14:37:17.0000000+00:00</time></trkpt><trkpt lat="34.97072353" lon="32.82073662"><ele>1011.0</ele><time>2015-04-28T14:37:26.0000000+00:00</time></trkpt><trkpt lat="34.97071221" lon="32.82073871"><ele>1011.4</ele><time>2015-04-28T14:37:40.0000000+00:00</time></trkpt><trkpt lat="34.97070383" lon="32.82076109"><ele>1011.4</ele><time>2015-04-28T14:37:47.0000000+00:00</time></trkpt><trkpt lat="34.97069243" lon="32.82076989"><ele>1011.9</ele><time>2015-04-28T14:37:48.0000000+00:00</time></trkpt><trkpt lat="34.97053075" lon="32.82087031"><ele>1013.4</ele><time>2015-04-28T14:37:58.0000000+00:00</time></trkpt><trkpt lat="34.97038658" lon="32.82094558"><ele>1015.3</ele><time>2015-04-28T14:38:10.0000000+00:00</time></trkpt><trkpt lat="34.97033729" lon="32.82095622"><ele>1015.3</ele><time>2015-04-28T14:38:15.0000000+00:00</time></trkpt><trkpt lat="34.97032371" lon="32.82095036"><ele>1015.3</ele><time>2015-04-28T14:38:16.0000000+00:00</time></trkpt><trkpt lat="34.97031072" lon="32.82094516"><ele>1015.3</ele><time>2015-04-28T14:38:17.0000000+00:00</time></trkpt><trkpt lat="34.97029438" lon="32.82093619"><ele>1015.3</ele><time>2015-04-28T14:38:18.0000000+00:00</time></trkpt><trkpt lat="34.97027686" lon="32.82092337"><ele>1014.8</ele><time>2015-04-28T14:38:19.0000000+00:00</time></trkpt><trkpt lat="34.97016018" lon="32.82078029"><ele>1015.8</ele><time>2015-04-28T14:38:30.0000000+00:00</time></trkpt><trkpt lat="34.97013864" lon="32.82075229"><ele>1015.8</ele><time>2015-04-28T14:38:41.0000000+00:00</time></trkpt><trkpt lat="34.97012858" lon="32.82073511"><ele>1016.3</ele><time>2015-04-28T14:39:01.0000000+00:00</time></trkpt><trkpt lat="34.97015809" lon="32.82078221"><ele>1016.3</ele><time>2015-04-28T14:39:31.0000000+00:00</time></trkpt><trkpt lat="34.97017133" lon="32.82076637"><ele>1016.3</ele><time>2015-04-28T14:39:46.0000000+00:00</time></trkpt><trkpt lat="34.97017359" lon="32.82072128"><ele>1015.3</ele><time>2015-04-28T14:40:06.0000000+00:00</time></trkpt><trkpt lat="34.97014962" lon="32.82071843"><ele>1015.3</ele><time>2015-04-28T14:40:41.0000000+00:00</time></trkpt><trkpt lat="34.97015934" lon="32.82073209"><ele>1015.3</ele><time>2015-04-28T14:41:09.0000000+00:00</time></trkpt><trkpt lat="34.97015306" lon="32.82070518"><ele>1015.3</ele><time>2015-04-28T14:41:40.0000000+00:00</time></trkpt><trkpt lat="34.97014266" lon="32.82073419"><ele>1014.8</ele><time>2015-04-28T14:42:17.0000000+00:00</time></trkpt><trkpt lat="34.97009631" lon="32.82074366"><ele>1014.8</ele><time>2015-04-28T14:42:47.0000000+00:00</time></trkpt><trkpt lat="34.97005843" lon="32.82070979"><ele>1014.8</ele><time>2015-04-28T14:43:23.0000000+00:00</time></trkpt><trkpt lat="34.97004921" lon="32.82072706"><ele>1015.8</ele><time>2015-04-28T14:44:11.0000000+00:00</time></trkpt><trkpt lat="34.96998441" lon="32.82078339"><ele>1017.2</ele><time>2015-04-28T14:44:26.0000000+00:00</time></trkpt><trkpt lat="34.96997318" lon="32.82088674"><ele>1019.1</ele><time>2015-04-28T14:44:41.0000000+00:00</time></trkpt><trkpt lat="34.96999724" lon="32.82096125"><ele>1019.6</ele><time>2015-04-28T14:44:51.0000000+00:00</time></trkpt><trkpt lat="34.97000604" lon="32.82096938"><ele>1019.6</ele><time>2015-04-28T14:44:52.0000000+00:00</time></trkpt><trkpt lat="34.9700881" lon="32.82106007"><ele>1019.1</ele><time>2015-04-28T14:45:06.0000000+00:00</time></trkpt><trkpt lat="34.97010645" lon="32.82107038"><ele>1019.1</ele><time>2015-04-28T14:45:08.0000000+00:00</time></trkpt><trkpt lat="34.97020989" lon="32.82110835"><ele>1019.6</ele><time>2015-04-28T14:45:18.0000000+00:00</time></trkpt><trkpt lat="34.97042547" lon="32.82107701"><ele>1021.1</ele><time>2015-04-28T14:45:34.0000000+00:00</time></trkpt><trkpt lat="34.97061222" lon="32.82100006"><ele>1023.0</ele><time>2015-04-28T14:45:48.0000000+00:00</time></trkpt><trkpt lat="34.97062387" lon="32.82099235"><ele>1023.5</ele><time>2015-04-28T14:45:49.0000000+00:00</time></trkpt><trkpt lat="34.97063359" lon="32.8209874"><ele>1023.5</ele><time>2015-04-28T14:45:50.0000000+00:00</time></trkpt><trkpt lat="34.97064365" lon="32.82098338"><ele>1023.5</ele><time>2015-04-28T14:45:51.0000000+00:00</time></trkpt><trkpt lat="34.97065673" lon="32.82097843"><ele>1023.5</ele><time>2015-04-28T14:45:52.0000000+00:00</time></trkpt><trkpt lat="34.97067047" lon="32.82097064"><ele>1023.5</ele><time>2015-04-28T14:45:53.0000000+00:00</time></trkpt><trkpt lat="34.97068514" lon="32.82096477"><ele>1023.5</ele><time>2015-04-28T14:45:54.0000000+00:00</time></trkpt><trkpt lat="34.97070199" lon="32.82095924"><ele>1023.5</ele><time>2015-04-28T14:45:55.0000000+00:00</time></trkpt><trkpt lat="34.97071833" lon="32.8209548"><ele>1023.9</ele><time>2015-04-28T14:45:56.0000000+00:00</time></trkpt><trkpt lat="34.97097968" lon="32.8209325"><ele>1025.4</ele><time>2015-04-28T14:46:13.0000000+00:00</time></trkpt><trkpt lat="34.97109552" lon="32.82093334"><ele>1026.3</ele><time>2015-04-28T14:46:25.0000000+00:00</time></trkpt><trkpt lat="34.97115092" lon="32.82093057"><ele>1026.8</ele><time>2015-04-28T14:46:30.0000000+00:00</time></trkpt><trkpt lat="34.97116576" lon="32.82093435"><ele>1027.3</ele><time>2015-04-28T14:46:31.0000000+00:00</time></trkpt><trkpt lat="34.97117867" lon="32.8209356"><ele>1026.8</ele><time>2015-04-28T14:46:32.0000000+00:00</time></trkpt><trkpt lat="34.97119007" lon="32.82093619"><ele>1026.8</ele><time>2015-04-28T14:46:33.0000000+00:00</time></trkpt><trkpt lat="34.9712049" lon="32.82093854"><ele>1026.8</ele><time>2015-04-28T14:46:34.0000000+00:00</time></trkpt><trkpt lat="34.97135771" lon="32.82101976"><ele>1028.3</ele><time>2015-04-28T14:46:47.0000000+00:00</time></trkpt><trkpt lat="34.97137112" lon="32.82102269"><ele>1028.3</ele><time>2015-04-28T14:46:48.0000000+00:00</time></trkpt><trkpt lat="34.97138428" lon="32.82102445"><ele>1028.3</ele><time>2015-04-28T14:46:49.0000000+00:00</time></trkpt><trkpt lat="34.9713971" lon="32.82102596"><ele>1028.3</ele><time>2015-04-28T14:46:50.0000000+00:00</time></trkpt><trkpt lat="34.97140816" lon="32.82102688"><ele>1028.8</ele><time>2015-04-28T14:46:51.0000000+00:00</time></trkpt><trkpt lat="34.97141906" lon="32.82102697"><ele>1028.8</ele><time>2015-04-28T14:46:52.0000000+00:00</time></trkpt><trkpt lat="34.97142862" lon="32.82102512"><ele>1028.8</ele><time>2015-04-28T14:46:53.0000000+00:00</time></trkpt><trkpt lat="34.97143708" lon="32.82102445"><ele>1029.2</ele><time>2015-04-28T14:46:54.0000000+00:00</time></trkpt><trkpt lat="34.97155971" lon="32.82098774"><ele>1030.7</ele><time>2015-04-28T14:47:06.0000000+00:00</time></trkpt><trkpt lat="34.97164571" lon="32.82088204"><ele>1032.6</ele><time>2015-04-28T14:47:16.0000000+00:00</time></trkpt><trkpt lat="34.97165442" lon="32.82087584"><ele>1032.6</ele><time>2015-04-28T14:47:17.0000000+00:00</time></trkpt><trkpt lat="34.97166323" lon="32.82086821"><ele>1032.6</ele><time>2015-04-28T14:47:18.0000000+00:00</time></trkpt><trkpt lat="34.97175442" lon="32.82085354"><ele>1034.5</ele><time>2015-04-28T14:47:29.0000000+00:00</time></trkpt><trkpt lat="34.97181452" lon="32.82084634"><ele>1034.5</ele><time>2015-04-28T14:47:37.0000000+00:00</time></trkpt><trkpt lat="34.97182433" lon="32.82084952"><ele>1034.5</ele><time>2015-04-28T14:47:38.0000000+00:00</time></trkpt><trkpt lat="34.97188065" lon="32.82086427"><ele>1034.5</ele><time>2015-04-28T14:47:44.0000000+00:00</time></trkpt><trkpt lat="34.97189214" lon="32.82086285"><ele>1035.0</ele><time>2015-04-28T14:47:45.0000000+00:00</time></trkpt><trkpt lat="34.97190546" lon="32.82086184"><ele>1035.0</ele><time>2015-04-28T14:47:46.0000000+00:00</time></trkpt><trkpt lat="34.97191762" lon="32.82085941"><ele>1035.0</ele><time>2015-04-28T14:47:47.0000000+00:00</time></trkpt><trkpt lat="34.97193061" lon="32.82086235"><ele>1035.0</ele><time>2015-04-28T14:47:48.0000000+00:00</time></trkpt><trkpt lat="34.97194268" lon="32.82087165"><ele>1035.0</ele><time>2015-04-28T14:47:49.0000000+00:00</time></trkpt><trkpt lat="34.97194326" lon="32.82091339"><ele>1035.5</ele><time>2015-04-28T14:47:53.0000000+00:00</time></trkpt><trkpt lat="34.97193228" lon="32.82091783"><ele>1035.5</ele><time>2015-04-28T14:47:54.0000000+00:00</time></trkpt><trkpt lat="34.97192055" lon="32.8209154"><ele>1035.5</ele><time>2015-04-28T14:47:55.0000000+00:00</time></trkpt><trkpt lat="34.97190747" lon="32.8209118"><ele>1035.5</ele><time>2015-04-28T14:47:56.0000000+00:00</time></trkpt><trkpt lat="34.97189507" lon="32.82091348"><ele>1036.0</ele><time>2015-04-28T14:47:57.0000000+00:00</time></trkpt><trkpt lat="34.97182391" lon="32.82092102"><ele>1036.4</ele><time>2015-04-28T14:48:05.0000000+00:00</time></trkpt><trkpt lat="34.97181527" lon="32.82091901"><ele>1036.4</ele><time>2015-04-28T14:48:06.0000000+00:00</time></trkpt><trkpt lat="34.97180396" lon="32.82091859"><ele>1036.4</ele><time>2015-04-28T14:48:07.0000000+00:00</time></trkpt><trkpt lat="34.97179314" lon="32.82091959"><ele>1036.4</ele><time>2015-04-28T14:48:08.0000000+00:00</time></trkpt><trkpt lat="34.97178317" lon="32.82092228"><ele>1036.4</ele><time>2015-04-28T14:48:09.0000000+00:00</time></trkpt><trkpt lat="34.97177336" lon="32.82092504"><ele>1036.4</ele><time>2015-04-28T14:48:10.0000000+00:00</time></trkpt><trkpt lat="34.97176574" lon="32.82092831"><ele>1036.4</ele><time>2015-04-28T14:48:11.0000000+00:00</time></trkpt><trkpt lat="34.97175769" lon="32.82093317"><ele>1036.9</ele><time>2015-04-28T14:48:12.0000000+00:00</time></trkpt><trkpt lat="34.97174864" lon="32.82093929"><ele>1036.9</ele><time>2015-04-28T14:48:13.0000000+00:00</time></trkpt><trkpt lat="34.97172198" lon="32.82097684"><ele>1037.4</ele><time>2015-04-28T14:48:17.0000000+00:00</time></trkpt><trkpt lat="34.97171704" lon="32.82098925"><ele>1037.4</ele><time>2015-04-28T14:48:18.0000000+00:00</time></trkpt><trkpt lat="34.97171486" lon="32.82100014"><ele>1037.4</ele><time>2015-04-28T14:48:19.0000000+00:00</time></trkpt><trkpt lat="34.97171251" lon="32.82101171"><ele>1037.9</ele><time>2015-04-28T14:48:20.0000000+00:00</time></trkpt><trkpt lat="34.97170681" lon="32.8210247"><ele>1037.9</ele><time>2015-04-28T14:48:21.0000000+00:00</time></trkpt><trkpt lat="34.97170212" lon="32.8210392"><ele>1037.9</ele><time>2015-04-28T14:48:22.0000000+00:00</time></trkpt><trkpt lat="34.97169768" lon="32.82105345"><ele>1037.9</ele><time>2015-04-28T14:48:23.0000000+00:00</time></trkpt><trkpt lat="34.97169089" lon="32.82106376"><ele>1037.9</ele><time>2015-04-28T14:48:24.0000000+00:00</time></trkpt><trkpt lat="34.97168083" lon="32.82107332"><ele>1038.4</ele><time>2015-04-28T14:48:25.0000000+00:00</time></trkpt><trkpt lat="34.97162492" lon="32.82114926"><ele>1039.3</ele><time>2015-04-28T14:48:33.0000000+00:00</time></trkpt><trkpt lat="34.97162366" lon="32.82116334"><ele>1039.3</ele><time>2015-04-28T14:48:34.0000000+00:00</time></trkpt><trkpt lat="34.97161897" lon="32.8211744"><ele>1039.8</ele><time>2015-04-28T14:48:35.0000000+00:00</time></trkpt><trkpt lat="34.97156935" lon="32.82121447"><ele>1040.8</ele><time>2015-04-28T14:48:41.0000000+00:00</time></trkpt><trkpt lat="34.97155921" lon="32.82121958"><ele>1040.8</ele><time>2015-04-28T14:48:42.0000000+00:00</time></trkpt><trkpt lat="34.97154848" lon="32.82122386"><ele>1041.3</ele><time>2015-04-28T14:48:43.0000000+00:00</time></trkpt><trkpt lat="34.9714256" lon="32.82126409"><ele>1043.2</ele><time>2015-04-28T14:48:56.0000000+00:00</time></trkpt><trkpt lat="34.9713173" lon="32.82128228"><ele>1045.1</ele><time>2015-04-28T14:49:09.0000000+00:00</time></trkpt><trkpt lat="34.97125645" lon="32.82128345"><ele>1045.6</ele><time>2015-04-28T14:49:16.0000000+00:00</time></trkpt><trkpt lat="34.97123097" lon="32.82128152"><ele>1046.1</ele><time>2015-04-28T14:49:19.0000000+00:00</time></trkpt><trkpt lat="34.97115226" lon="32.82127666"><ele>1046.5</ele><time>2015-04-28T14:49:29.0000000+00:00</time></trkpt><trkpt lat="34.97103198" lon="32.82133282"><ele>1048.5</ele><time>2015-04-28T14:49:43.0000000+00:00</time></trkpt><trkpt lat="34.9709573" lon="32.82138085"><ele>1049.4</ele><time>2015-04-28T14:49:52.0000000+00:00</time></trkpt><trkpt lat="34.97094875" lon="32.82138663"><ele>1049.9</ele><time>2015-04-28T14:49:53.0000000+00:00</time></trkpt><trkpt lat="34.97089284" lon="32.82140977"><ele>1050.4</ele><time>2015-04-28T14:50:01.0000000+00:00</time></trkpt><trkpt lat="34.97081908" lon="32.82147339"><ele>1051.8</ele><time>2015-04-28T14:50:10.0000000+00:00</time></trkpt><trkpt lat="34.97080928" lon="32.82147883"><ele>1051.8</ele><time>2015-04-28T14:50:11.0000000+00:00</time></trkpt><trkpt lat="34.97080014" lon="32.82148537"><ele>1051.8</ele><time>2015-04-28T14:50:12.0000000+00:00</time></trkpt><trkpt lat="34.97075521" lon="32.82151739"><ele>1052.8</ele><time>2015-04-28T14:50:24.0000000+00:00</time></trkpt><trkpt lat="34.97074507" lon="32.82151982"><ele>1052.8</ele><time>2015-04-28T14:50:46.0000000+00:00</time></trkpt><trkpt lat="34.97075438" lon="32.82150976"><ele>1052.3</ele><time>2015-04-28T14:51:10.0000000+00:00</time></trkpt><trkpt lat="34.97076904" lon="32.8215101"><ele>1052.3</ele><time>2015-04-28T14:51:32.0000000+00:00</time></trkpt><trkpt lat="34.97077198" lon="32.82151563"><ele>1052.3</ele><time>2015-04-28T14:52:03.0000000+00:00</time></trkpt><trkpt lat="34.9707729" lon="32.82155394"><ele>1052.3</ele><time>2015-04-28T14:52:28.0000000+00:00</time></trkpt><trkpt lat="34.9707418" lon="32.82153038"><ele>1052.3</ele><time>2015-04-28T14:52:57.0000000+00:00</time></trkpt><trkpt lat="34.9707175" lon="32.82155704"><ele>1053.7</ele><time>2015-04-28T14:53:19.0000000+00:00</time></trkpt><trkpt lat="34.97067634" lon="32.82164052"><ele>1054.7</ele><time>2015-04-28T14:53:34.0000000+00:00</time></trkpt><trkpt lat="34.97065321" lon="32.82173172"><ele>1056.2</ele><time>2015-04-28T14:53:49.0000000+00:00</time></trkpt><trkpt lat="34.97062479" lon="32.82182073"><ele>1057.6</ele><time>2015-04-28T14:54:04.0000000+00:00</time></trkpt><trkpt lat="34.97058598" lon="32.82190723"><ele>1059.0</ele><time>2015-04-28T14:54:21.0000000+00:00</time></trkpt><trkpt lat="34.97054122" lon="32.82197085"><ele>1060.5</ele><time>2015-04-28T14:54:36.0000000+00:00</time></trkpt><trkpt lat="34.97045414" lon="32.82202626"><ele>1061.9</ele><time>2015-04-28T14:54:53.0000000+00:00</time></trkpt><trkpt lat="34.970359" lon="32.82204126"><ele>1063.4</ele><time>2015-04-28T14:55:10.0000000+00:00</time></trkpt><trkpt lat="34.9702502" lon="32.82208141"><ele>1065.3</ele><time>2015-04-28T14:55:26.0000000+00:00</time></trkpt><trkpt lat="34.97022782" lon="32.82211301"><ele>1065.3</ele><time>2015-04-28T14:55:32.0000000+00:00</time></trkpt><trkpt lat="34.97022187" lon="32.82212835"><ele>1065.8</ele><time>2015-04-28T14:55:33.0000000+00:00</time></trkpt><trkpt lat="34.97021475" lon="32.82214168"><ele>1065.8</ele><time>2015-04-28T14:55:34.0000000+00:00</time></trkpt><trkpt lat="34.97020503" lon="32.82214939"><ele>1065.8</ele><time>2015-04-28T14:55:35.0000000+00:00</time></trkpt><trkpt lat="34.97019488" lon="32.82215886"><ele>1066.2</ele><time>2015-04-28T14:55:36.0000000+00:00</time></trkpt><trkpt lat="34.97018583" lon="32.82217193"><ele>1066.2</ele><time>2015-04-28T14:55:37.0000000+00:00</time></trkpt><trkpt lat="34.97009665" lon="32.82228794"><ele>1067.7</ele><time>2015-04-28T14:55:49.0000000+00:00</time></trkpt><trkpt lat="34.97005943" lon="32.82234393"><ele>1068.2</ele><time>2015-04-28T14:56:02.0000000+00:00</time></trkpt><trkpt lat="34.96997025" lon="32.82240696"><ele>1069.1</ele><time>2015-04-28T14:56:18.0000000+00:00</time></trkpt><trkpt lat="34.96989967" lon="32.82237084"><ele>1068.6</ele><time>2015-04-28T14:56:30.0000000+00:00</time></trkpt><trkpt lat="34.96979289" lon="32.82221301"><ele>1068.2</ele><time>2015-04-28T14:56:42.0000000+00:00</time></trkpt><trkpt lat="34.96971074" lon="32.82222625"><ele>1068.6</ele><time>2015-04-28T14:56:49.0000000+00:00</time></trkpt><trkpt lat="34.96967898" lon="32.82225785"><ele>1069.1</ele><time>2015-04-28T14:57:02.0000000+00:00</time></trkpt><trkpt lat="34.96969985" lon="32.82224209"><ele>1069.1</ele><time>2015-04-28T14:57:36.0000000+00:00</time></trkpt><trkpt lat="34.96966012" lon="32.82224796"><ele>1069.1</ele><time>2015-04-28T14:57:55.0000000+00:00</time></trkpt><trkpt lat="34.96966121" lon="32.82225978"><ele>1069.1</ele><time>2015-04-28T14:58:13.0000000+00:00</time></trkpt><trkpt lat="34.96966607" lon="32.82226003"><ele>1068.6</ele><time>2015-04-28T14:58:48.0000000+00:00</time></trkpt><trkpt lat="34.96965165" lon="32.82230001"><ele>1069.6</ele><time>2015-04-28T14:59:15.0000000+00:00</time></trkpt><trkpt lat="34.96963858" lon="32.82229716"><ele>1070.6</ele><time>2015-04-28T14:59:32.0000000+00:00</time></trkpt><trkpt lat="34.96959901" lon="32.82227386"><ele>1069.6</ele><time>2015-04-28T14:59:45.0000000+00:00</time></trkpt><trkpt lat="34.96949382" lon="32.82222818"><ele>1070.6</ele><time>2015-04-28T15:00:01.0000000+00:00</time></trkpt><trkpt lat="34.9694639" lon="32.82218208"><ele>1071.1</ele><time>2015-04-28T15:00:08.0000000+00:00</time></trkpt><trkpt lat="34.969453" lon="32.82217478"><ele>1071.1</ele><time>2015-04-28T15:00:09.0000000+00:00</time></trkpt><trkpt lat="34.96942651" lon="32.82215048"><ele>1071.1</ele><time>2015-04-28T15:00:13.0000000+00:00</time></trkpt><trkpt lat="34.96941604" lon="32.82213866"><ele>1071.1</ele><time>2015-04-28T15:00:14.0000000+00:00</time></trkpt><trkpt lat="34.9692277" lon="32.82194973"><ele>1070.6</ele><time>2015-04-28T15:00:25.0000000+00:00</time></trkpt><trkpt lat="34.9691992" lon="32.82190866"><ele>1070.6</ele><time>2015-04-28T15:00:26.0000000+00:00</time></trkpt><trkpt lat="34.96917514" lon="32.82186063"><ele>1070.1</ele><time>2015-04-28T15:00:27.0000000+00:00</time></trkpt><trkpt lat="34.96900868" lon="32.82151764"><ele>1073.5</ele><time>2015-04-28T15:00:38.0000000+00:00</time></trkpt><trkpt lat="34.9689987" lon="32.82150926"><ele>1073.5</ele><time>2015-04-28T15:00:39.0000000+00:00</time></trkpt><trkpt lat="34.96898797" lon="32.82149912"><ele>1073.9</ele><time>2015-04-28T15:00:40.0000000+00:00</time></trkpt><trkpt lat="34.96897842" lon="32.82149518"><ele>1073.9</ele><time>2015-04-28T15:00:41.0000000+00:00</time></trkpt><trkpt lat="34.96896777" lon="32.8214878"><ele>1073.9</ele><time>2015-04-28T15:00:42.0000000+00:00</time></trkpt><trkpt lat="34.96895445" lon="32.82148219"><ele>1073.9</ele><time>2015-04-28T15:00:43.0000000+00:00</time></trkpt><trkpt lat="34.96894238" lon="32.82147582"><ele>1074.4</ele><time>2015-04-28T15:00:44.0000000+00:00</time></trkpt><trkpt lat="34.96893039" lon="32.82146601"><ele>1074.4</ele><time>2015-04-28T15:00:45.0000000+00:00</time></trkpt><trkpt lat="34.96883584" lon="32.82145863"><ele>1075.9</ele><time>2015-04-28T15:00:54.0000000+00:00</time></trkpt><trkpt lat="34.96882302" lon="32.82145637"><ele>1075.9</ele><time>2015-04-28T15:00:55.0000000+00:00</time></trkpt><trkpt lat="34.96878815" lon="32.8214588"><ele>1076.8</ele><time>2015-04-28T15:00:59.0000000+00:00</time></trkpt><trkpt lat="34.96877918" lon="32.82146039"><ele>1077.3</ele><time>2015-04-28T15:01:00.0000000+00:00</time></trkpt><trkpt lat="34.96875236" lon="32.82149996"><ele>1077.3</ele><time>2015-04-28T15:01:09.0000000+00:00</time></trkpt><trkpt lat="34.96875747" lon="32.82148328"><ele>1077.8</ele><time>2015-04-28T15:01:37.0000000+00:00</time></trkpt><trkpt lat="34.96872419" lon="32.8214759"><ele>1078.3</ele><time>2015-04-28T15:02:08.0000000+00:00</time></trkpt><trkpt lat="34.9686009" lon="32.82151211"><ele>1080.2</ele><time>2015-04-28T15:02:24.0000000+00:00</time></trkpt><trkpt lat="34.96846679" lon="32.82152929"><ele>1082.1</ele><time>2015-04-28T15:02:41.0000000+00:00</time></trkpt><trkpt lat="34.9683719" lon="32.82154706"><ele>1083.1</ele><time>2015-04-28T15:02:57.0000000+00:00</time></trkpt><trkpt lat="34.96826277" lon="32.82156626"><ele>1085.0</ele><time>2015-04-28T15:03:12.0000000+00:00</time></trkpt><trkpt lat="34.96813545" lon="32.82159274"><ele>1086.4</ele><time>2015-04-28T15:03:26.0000000+00:00</time></trkpt><trkpt lat="34.96802271" lon="32.82160859"><ele>1087.4</ele><time>2015-04-28T15:03:40.0000000+00:00</time></trkpt><trkpt lat="34.9678793" lon="32.82163457"><ele>1088.8</ele><time>2015-04-28T15:03:57.0000000+00:00</time></trkpt><trkpt lat="34.96777587" lon="32.82162694"><ele>1090.3</ele><time>2015-04-28T15:04:12.0000000+00:00</time></trkpt><trkpt lat="34.96767528" lon="32.82162284"><ele>1091.7</ele><time>2015-04-28T15:04:27.0000000+00:00</time></trkpt><trkpt lat="34.96761778" lon="32.82161504"><ele>1092.2</ele><time>2015-04-28T15:04:36.0000000+00:00</time></trkpt><trkpt lat="34.9674913" lon="32.82164899"><ele>1093.6</ele><time>2015-04-28T15:04:53.0000000+00:00</time></trkpt><trkpt lat="34.96747387" lon="32.8216536"><ele>1093.6</ele><time>2015-04-28T15:04:55.0000000+00:00</time></trkpt><trkpt lat="34.96735015" lon="32.82165837"><ele>1094.1</ele><time>2015-04-28T15:05:11.0000000+00:00</time></trkpt><trkpt lat="34.96731235" lon="32.82164957"><ele>1094.1</ele><time>2015-04-28T15:05:22.0000000+00:00</time></trkpt><trkpt lat="34.96730179" lon="32.82164915"><ele>1094.6</ele><time>2015-04-28T15:05:23.0000000+00:00</time></trkpt><trkpt lat="34.96729081" lon="32.82165033"><ele>1094.6</ele><time>2015-04-28T15:05:24.0000000+00:00</time></trkpt><trkpt lat="34.96728066" lon="32.82165511"><ele>1094.6</ele><time>2015-04-28T15:05:25.0000000+00:00</time></trkpt><trkpt lat="34.96727119" lon="32.82165879"><ele>1094.6</ele><time>2015-04-28T15:05:26.0000000+00:00</time></trkpt><trkpt lat="34.9672603" lon="32.82166357"><ele>1094.6</ele><time>2015-04-28T15:05:27.0000000+00:00</time></trkpt><trkpt lat="34.96724504" lon="32.82166919"><ele>1094.6</ele><time>2015-04-28T15:05:28.0000000+00:00</time></trkpt><trkpt lat="34.96709425" lon="32.82172007"><ele>1096.0</ele><time>2015-04-28T15:05:39.0000000+00:00</time></trkpt><trkpt lat="34.9670795" lon="32.82171495"><ele>1096.0</ele><time>2015-04-28T15:05:40.0000000+00:00</time></trkpt><trkpt lat="34.96706198" lon="32.82171043"><ele>1096.0</ele><time>2015-04-28T15:05:41.0000000+00:00</time></trkpt><trkpt lat="34.96704513" lon="32.82170657"><ele>1096.0</ele><time>2015-04-28T15:05:42.0000000+00:00</time></trkpt><trkpt lat="34.96702912" lon="32.82170439"><ele>1096.0</ele><time>2015-04-28T15:05:43.0000000+00:00</time></trkpt><trkpt lat="34.96701521" lon="32.82170213"><ele>1096.0</ele><time>2015-04-28T15:05:44.0000000+00:00</time></trkpt><trkpt lat="34.96700104" lon="32.82169903"><ele>1096.0</ele><time>2015-04-28T15:05:45.0000000+00:00</time></trkpt><trkpt lat="34.96679091" lon="32.82164622"><ele>1098.0</ele><time>2015-04-28T15:06:01.0000000+00:00</time></trkpt><trkpt lat="34.96673869" lon="32.8216463"><ele>1098.4</ele><time>2015-04-28T15:06:15.0000000+00:00</time></trkpt><trkpt lat="34.96664372" lon="32.82158688"><ele>1099.4</ele><time>2015-04-28T15:06:30.0000000+00:00</time></trkpt><trkpt lat="34.96660584" lon="32.82151965"><ele>1099.4</ele><time>2015-04-28T15:06:41.0000000+00:00</time></trkpt><trkpt lat="34.96659854" lon="32.82150842"><ele>1099.4</ele><time>2015-04-28T15:06:42.0000000+00:00</time></trkpt><trkpt lat="34.96657809" lon="32.82146308"><ele>1099.9</ele><time>2015-04-28T15:06:46.0000000+00:00</time></trkpt><trkpt lat="34.96657415" lon="32.82144832"><ele>1099.9</ele><time>2015-04-28T15:06:47.0000000+00:00</time></trkpt><trkpt lat="34.96656862" lon="32.82143349"><ele>1099.9</ele><time>2015-04-28T15:06:48.0000000+00:00</time></trkpt><trkpt lat="34.9665625" lon="32.82141664"><ele>1099.9</ele><time>2015-04-28T15:06:49.0000000+00:00</time></trkpt><trkpt lat="34.96655865" lon="32.82139828"><ele>1099.9</ele><time>2015-04-28T15:06:50.0000000+00:00</time></trkpt><trkpt lat="34.9665542" lon="32.82138035"><ele>1099.9</ele><time>2015-04-28T15:06:51.0000000+00:00</time></trkpt><trkpt lat="34.9665501" lon="32.82136157"><ele>1100.4</ele><time>2015-04-28T15:06:52.0000000+00:00</time></trkpt><trkpt lat="34.96654775" lon="32.82134087"><ele>1100.4</ele><time>2015-04-28T15:06:53.0000000+00:00</time></trkpt><trkpt lat="34.96658756" lon="32.82101347"><ele>1100.9</ele><time>2015-04-28T15:07:07.0000000+00:00</time></trkpt><trkpt lat="34.96665655" lon="32.82098363"><ele>1100.9</ele><time>2015-04-28T15:07:10.0000000+00:00</time></trkpt><trkpt lat="34.96668228" lon="32.82098698"><ele>1100.9</ele><time>2015-04-28T15:07:11.0000000+00:00</time></trkpt><trkpt lat="34.96670181" lon="32.82099687"><ele>1101.3</ele><time>2015-04-28T15:07:12.0000000+00:00</time></trkpt><trkpt lat="34.96671807" lon="32.8210071"><ele>1101.3</ele><time>2015-04-28T15:07:13.0000000+00:00</time></trkpt><trkpt lat="34.966734" lon="32.82101615"><ele>1101.8</ele><time>2015-04-28T15:07:14.0000000+00:00</time></trkpt><trkpt lat="34.96680214" lon="32.82105027"><ele>1103.3</ele><time>2015-04-28T15:07:21.0000000+00:00</time></trkpt><trkpt lat="34.96681564" lon="32.82104918"><ele>1103.3</ele><time>2015-04-28T15:07:22.0000000+00:00</time></trkpt><trkpt lat="34.96682829" lon="32.82105228"><ele>1103.3</ele><time>2015-04-28T15:07:23.0000000+00:00</time></trkpt><trkpt lat="34.9669023" lon="32.82106209"><ele>1103.7</ele><time>2015-04-28T15:07:29.0000000+00:00</time></trkpt><trkpt lat="34.96691245" lon="32.82105806"><ele>1103.7</ele><time>2015-04-28T15:07:30.0000000+00:00</time></trkpt><trkpt lat="34.96692376" lon="32.8210594"><ele>1103.7</ele><time>2015-04-28T15:07:31.0000000+00:00</time></trkpt><trkpt lat="34.96693256" lon="32.82105865"><ele>1104.2</ele><time>2015-04-28T15:07:32.0000000+00:00</time></trkpt><trkpt lat="34.96694245" lon="32.82105689"><ele>1104.2</ele><time>2015-04-28T15:07:33.0000000+00:00</time></trkpt><trkpt lat="34.96695268" lon="32.82105303"><ele>1104.2</ele><time>2015-04-28T15:07:34.0000000+00:00</time></trkpt><trkpt lat="34.96696257" lon="32.82104641"><ele>1104.2</ele><time>2015-04-28T15:07:35.0000000+00:00</time></trkpt><trkpt lat="34.96697271" lon="32.82103954"><ele>1104.2</ele><time>2015-04-28T15:07:36.0000000+00:00</time></trkpt><trkpt lat="34.96698227" lon="32.82103099"><ele>1104.2</ele><time>2015-04-28T15:07:37.0000000+00:00</time></trkpt><trkpt lat="34.96699383" lon="32.82101749"><ele>1104.7</ele><time>2015-04-28T15:07:38.0000000+00:00</time></trkpt><trkpt lat="34.96703692" lon="32.82098137"><ele>1104.7</ele><time>2015-04-28T15:07:42.0000000+00:00</time></trkpt><trkpt lat="34.96704865" lon="32.82097517"><ele>1104.7</ele><time>2015-04-28T15:07:43.0000000+00:00</time></trkpt><trkpt lat="34.96731193" lon="32.82075078"><ele>1105.2</ele><time>2015-04-28T15:07:58.0000000+00:00</time></trkpt><trkpt lat="34.96753396" lon="32.82050963"><ele>1105.7</ele><time>2015-04-28T15:08:11.0000000+00:00</time></trkpt><trkpt lat="34.96780043" lon="32.82034803"><ele>1106.1</ele><time>2015-04-28T15:08:24.0000000+00:00</time></trkpt><trkpt lat="34.96796697" lon="32.8200312"><ele>1107.1</ele><time>2015-04-28T15:08:38.0000000+00:00</time></trkpt><trkpt lat="34.96797452" lon="32.82000647"><ele>1107.1</ele><time>2015-04-28T15:08:39.0000000+00:00</time></trkpt><trkpt lat="34.96798441" lon="32.81998367"><ele>1107.6</ele><time>2015-04-28T15:08:40.0000000+00:00</time></trkpt><trkpt lat="34.96813914" lon="32.81957665"><ele>1108.5</ele><time>2015-04-28T15:08:56.0000000+00:00</time></trkpt><trkpt lat="34.96838188" lon="32.81924472"><ele>1110.0</ele><time>2015-04-28T15:09:11.0000000+00:00</time></trkpt><trkpt lat="34.96863644" lon="32.81919653"><ele>1111.4</ele><time>2015-04-28T15:09:23.0000000+00:00</time></trkpt><trkpt lat="34.96874934" lon="32.81914724"><ele>1112.4</ele><time>2015-04-28T15:09:29.0000000+00:00</time></trkpt><trkpt lat="34.96875672" lon="32.81912411"><ele>1112.4</ele><time>2015-04-28T15:09:30.0000000+00:00</time></trkpt><trkpt lat="34.96875898" lon="32.81909703"><ele>1112.9</ele><time>2015-04-28T15:09:31.0000000+00:00</time></trkpt><trkpt lat="34.96875077" lon="32.81907817"><ele>1112.9</ele><time>2015-04-28T15:09:32.0000000+00:00</time></trkpt><trkpt lat="34.96873534" lon="32.81906242"><ele>1112.9</ele><time>2015-04-28T15:09:33.0000000+00:00</time></trkpt><trkpt lat="34.9687169" lon="32.81905521"><ele>1113.3</ele><time>2015-04-28T15:09:34.0000000+00:00</time></trkpt><trkpt lat="34.96870073" lon="32.81904917"><ele>1113.3</ele><time>2015-04-28T15:09:35.0000000+00:00</time></trkpt><trkpt lat="34.96868547" lon="32.81904439"><ele>1113.8</ele><time>2015-04-28T15:09:36.0000000+00:00</time></trkpt><trkpt lat="34.96864926" lon="32.81903635"><ele>1113.8</ele><time>2015-04-28T15:09:40.0000000+00:00</time></trkpt><trkpt lat="34.96863719" lon="32.8190304"><ele>1114.3</ele><time>2015-04-28T15:09:41.0000000+00:00</time></trkpt><trkpt lat="34.96862378" lon="32.81902872"><ele>1114.3</ele><time>2015-04-28T15:09:42.0000000+00:00</time></trkpt><trkpt lat="34.96845916" lon="32.81904691"><ele>1115.3</ele><time>2015-04-28T15:09:56.0000000+00:00</time></trkpt><trkpt lat="34.968446" lon="32.81905185"><ele>1115.3</ele><time>2015-04-28T15:09:57.0000000+00:00</time></trkpt><trkpt lat="34.96822027" lon="32.81909091"><ele>1117.7</ele><time>2015-04-28T15:10:13.0000000+00:00</time></trkpt><trkpt lat="34.96813159" lon="32.81914875"><ele>1118.2</ele><time>2015-04-28T15:10:21.0000000+00:00</time></trkpt><trkpt lat="34.96806278" lon="32.81929434"><ele>1118.6</ele><time>2015-04-28T15:10:34.0000000+00:00</time></trkpt><trkpt lat="34.96800687" lon="32.81941253"><ele>1119.6</ele><time>2015-04-28T15:10:46.0000000+00:00</time></trkpt><trkpt lat="34.96796136" lon="32.8194909"><ele>1120.1</ele><time>2015-04-28T15:10:54.0000000+00:00</time></trkpt><trkpt lat="34.96795474" lon="32.81950565"><ele>1120.1</ele><time>2015-04-28T15:10:55.0000000+00:00</time></trkpt><trkpt lat="34.96792221" lon="32.81954957"><ele>1120.6</ele><time>2015-04-28T15:10:59.0000000+00:00</time></trkpt><trkpt lat="34.96791735" lon="32.81956298"><ele>1120.6</ele><time>2015-04-28T15:11:00.0000000+00:00</time></trkpt><trkpt lat="34.96791098" lon="32.81957908"><ele>1120.6</ele><time>2015-04-28T15:11:01.0000000+00:00</time></trkpt><trkpt lat="34.96790294" lon="32.81959584"><ele>1120.6</ele><time>2015-04-28T15:11:02.0000000+00:00</time></trkpt><trkpt lat="34.96789506" lon="32.81961235"><ele>1120.6</ele><time>2015-04-28T15:11:03.0000000+00:00</time></trkpt><trkpt lat="34.96788944" lon="32.81962811"><ele>1121.0</ele><time>2015-04-28T15:11:04.0000000+00:00</time></trkpt><trkpt lat="34.96774502" lon="32.81989348"><ele>1122.0</ele><time>2015-04-28T15:11:20.0000000+00:00</time></trkpt><trkpt lat="34.96769456" lon="32.8199623"><ele>1123.0</ele><time>2015-04-28T15:11:25.0000000+00:00</time></trkpt><trkpt lat="34.96768291" lon="32.81997244"><ele>1123.0</ele><time>2015-04-28T15:11:26.0000000+00:00</time></trkpt><trkpt lat="34.96755039" lon="32.82009599"><ele>1123.9</ele><time>2015-04-28T15:11:36.0000000+00:00</time></trkpt><trkpt lat="34.96753707" lon="32.82010504"><ele>1123.9</ele><time>2015-04-28T15:11:37.0000000+00:00</time></trkpt><trkpt lat="34.96752298" lon="32.82011367"><ele>1123.9</ele><time>2015-04-28T15:11:38.0000000+00:00</time></trkpt><trkpt lat="34.96722274" lon="32.82019439"><ele>1125.4</ele><time>2015-04-28T15:11:55.0000000+00:00</time></trkpt><trkpt lat="34.96705469" lon="32.82007696"><ele>1126.3</ele><time>2015-04-28T15:12:07.0000000+00:00</time></trkpt><trkpt lat="34.9668837" lon="32.81986255"><ele>1127.3</ele><time>2015-04-28T15:12:20.0000000+00:00</time></trkpt><trkpt lat="34.96672402" lon="32.81964043"><ele>1128.7</ele><time>2015-04-28T15:12:34.0000000+00:00</time></trkpt><trkpt lat="34.9665625" lon="32.81943977"><ele>1129.2</ele><time>2015-04-28T15:12:47.0000000+00:00</time></trkpt><trkpt lat="34.96653358" lon="32.8194054"><ele>1129.7</ele><time>2015-04-28T15:12:49.0000000+00:00</time></trkpt><trkpt lat="34.96651858" lon="32.81938688"><ele>1129.7</ele><time>2015-04-28T15:12:50.0000000+00:00</time></trkpt><trkpt lat="34.96625757" lon="32.81928915"><ele>1130.2</ele><time>2015-04-28T15:13:02.0000000+00:00</time></trkpt><trkpt lat="34.96615581" lon="32.81958587"><ele>1130.7</ele><time>2015-04-28T15:13:14.0000000+00:00</time></trkpt><trkpt lat="34.96597384" lon="32.81994076"><ele>1131.1</ele><time>2015-04-28T15:13:27.0000000+00:00</time></trkpt><trkpt lat="34.96587485" lon="32.82028802"><ele>1131.6</ele><time>2015-04-28T15:13:38.0000000+00:00</time></trkpt><trkpt lat="34.96600569" lon="32.82081448"><ele>1132.6</ele><time>2015-04-28T15:13:51.0000000+00:00</time></trkpt><trkpt lat="34.96602707" lon="32.82139795"><ele>1132.6</ele><time>2015-04-28T15:14:04.0000000+00:00</time></trkpt><trkpt lat="34.96608457" lon="32.82157196"><ele>1132.1</ele><time>2015-04-28T15:14:08.0000000+00:00</time></trkpt><trkpt lat="34.96608716" lon="32.82162577"><ele>1132.1</ele><time>2015-04-28T15:14:09.0000000+00:00</time></trkpt><trkpt lat="34.96610904" lon="32.82207772"><ele>1130.2</ele><time>2015-04-28T15:14:16.0000000+00:00</time></trkpt><trkpt lat="34.96613452" lon="32.82214344"><ele>1130.2</ele><time>2015-04-28T15:14:17.0000000+00:00</time></trkpt><trkpt lat="34.96617978" lon="32.82219641"><ele>1130.2</ele><time>2015-04-28T15:14:18.0000000+00:00</time></trkpt><trkpt lat="34.96624139" lon="32.82222843"><ele>1130.7</ele><time>2015-04-28T15:14:19.0000000+00:00</time></trkpt><trkpt lat="34.9663082" lon="32.82224108"><ele>1130.7</ele><time>2015-04-28T15:14:20.0000000+00:00</time></trkpt><trkpt lat="34.96637357" lon="32.82224452"><ele>1130.7</ele><time>2015-04-28T15:14:21.0000000+00:00</time></trkpt><trkpt lat="34.9664387" lon="32.82225399"><ele>1131.1</ele><time>2015-04-28T15:14:22.0000000+00:00</time></trkpt><trkpt lat="34.9664988" lon="32.82227738"><ele>1131.6</ele><time>2015-04-28T15:14:23.0000000+00:00</time></trkpt><trkpt lat="34.96655353" lon="32.82230931"><ele>1132.1</ele><time>2015-04-28T15:14:24.0000000+00:00</time></trkpt><trkpt lat="34.96659955" lon="32.8223472"><ele>1132.1</ele><time>2015-04-28T15:14:25.0000000+00:00</time></trkpt><trkpt lat="34.96663777" lon="32.8223902"><ele>1132.1</ele><time>2015-04-28T15:14:26.0000000+00:00</time></trkpt><trkpt lat="34.96671128" lon="32.8224591"><ele>1132.6</ele><time>2015-04-28T15:14:28.0000000+00:00</time></trkpt><trkpt lat="34.96697732" lon="32.82256689"><ele>1135.0</ele><time>2015-04-28T15:14:38.0000000+00:00</time></trkpt><trkpt lat="34.96722828" lon="32.82250185"><ele>1136.4</ele><time>2015-04-28T15:14:50.0000000+00:00</time></trkpt><trkpt lat="34.9675405" lon="32.82249464"><ele>1137.9</ele><time>2015-04-28T15:15:05.0000000+00:00</time></trkpt><trkpt lat="34.96783387" lon="32.82257653"><ele>1139.8</ele><time>2015-04-28T15:15:20.0000000+00:00</time></trkpt><trkpt lat="34.96809564" lon="32.82265808"><ele>1141.7</ele><time>2015-04-28T15:15:34.0000000+00:00</time></trkpt><trkpt lat="34.96814341" lon="32.82270444"><ele>1142.2</ele><time>2015-04-28T15:15:37.0000000+00:00</time></trkpt><trkpt lat="34.96815213" lon="32.82272346"><ele>1142.2</ele><time>2015-04-28T15:15:38.0000000+00:00</time></trkpt><trkpt lat="34.96815951" lon="32.82274308"><ele>1142.2</ele><time>2015-04-28T15:15:39.0000000+00:00</time></trkpt><trkpt lat="34.96816898" lon="32.82276537"><ele>1142.2</ele><time>2015-04-28T15:15:40.0000000+00:00</time></trkpt><trkpt lat="34.96817652" lon="32.82278717"><ele>1142.2</ele><time>2015-04-28T15:15:41.0000000+00:00</time></trkpt><trkpt lat="34.96818113" lon="32.82280879"><ele>1142.7</ele><time>2015-04-28T15:15:42.0000000+00:00</time></trkpt><trkpt lat="34.96818122" lon="32.82283209"><ele>1142.7</ele><time>2015-04-28T15:15:43.0000000+00:00</time></trkpt><trkpt lat="34.96817946" lon="32.82285296"><ele>1143.1</ele><time>2015-04-28T15:15:44.0000000+00:00</time></trkpt><trkpt lat="34.96816529" lon="32.82315144"><ele>1144.1</ele><time>2015-04-28T15:15:59.0000000+00:00</time></trkpt><trkpt lat="34.96827484" lon="32.82335781"><ele>1145.6</ele><time>2015-04-28T15:16:10.0000000+00:00</time></trkpt><trkpt lat="34.96835187" lon="32.82362477"><ele>1147.0</ele><time>2015-04-28T15:16:25.0000000+00:00</time></trkpt><trkpt lat="34.96837609" lon="32.8238406"><ele>1148.0</ele><time>2015-04-28T15:16:38.0000000+00:00</time></trkpt><trkpt lat="34.96838087" lon="32.82387757"><ele>1148.4</ele><time>2015-04-28T15:16:40.0000000+00:00</time></trkpt><trkpt lat="34.96838959" lon="32.8238955"><ele>1148.4</ele><time>2015-04-28T15:16:41.0000000+00:00</time></trkpt><trkpt lat="34.9684009" lon="32.82391252"><ele>1148.4</ele><time>2015-04-28T15:16:42.0000000+00:00</time></trkpt><trkpt lat="34.96840904" lon="32.82393054"><ele>1148.9</ele><time>2015-04-28T15:16:43.0000000+00:00</time></trkpt><trkpt lat="34.96841784" lon="32.82394823"><ele>1148.9</ele><time>2015-04-28T15:16:44.0000000+00:00</time></trkpt><trkpt lat="34.96842764" lon="32.82396382"><ele>1148.9</ele><time>2015-04-28T15:16:45.0000000+00:00</time></trkpt><trkpt lat="34.96843603" lon="32.82398025"><ele>1148.9</ele><time>2015-04-28T15:16:46.0000000+00:00</time></trkpt><trkpt lat="34.96846737" lon="32.82402509"><ele>1148.9</ele><time>2015-04-28T15:16:49.0000000+00:00</time></trkpt><trkpt lat="34.96848288" lon="32.82403875"><ele>1149.4</ele><time>2015-04-28T15:16:50.0000000+00:00</time></trkpt><trkpt lat="34.96849805" lon="32.82405476"><ele>1148.9</ele><time>2015-04-28T15:16:51.0000000+00:00</time></trkpt><trkpt lat="34.96858774" lon="32.82412265"><ele>1149.9</ele><time>2015-04-28T15:16:58.0000000+00:00</time></trkpt><trkpt lat="34.96860182" lon="32.82412735"><ele>1150.4</ele><time>2015-04-28T15:16:59.0000000+00:00</time></trkpt><trkpt lat="34.96861439" lon="32.82413129"><ele>1150.4</ele><time>2015-04-28T15:17:00.0000000+00:00</time></trkpt><trkpt lat="34.96862906" lon="32.82413623"><ele>1150.4</ele><time>2015-04-28T15:17:01.0000000+00:00</time></trkpt><trkpt lat="34.96864314" lon="32.82414084"><ele>1150.4</ele><time>2015-04-28T15:17:02.0000000+00:00</time></trkpt><trkpt lat="34.96865915" lon="32.82414654"><ele>1150.4</ele><time>2015-04-28T15:17:03.0000000+00:00</time></trkpt><trkpt lat="34.96867399" lon="32.82414998"><ele>1150.4</ele><time>2015-04-28T15:17:04.0000000+00:00</time></trkpt><trkpt lat="34.96873241" lon="32.82415283"><ele>1150.8</ele><time>2015-04-28T15:17:08.0000000+00:00</time></trkpt><trkpt lat="34.96874808" lon="32.82415124"><ele>1150.8</ele><time>2015-04-28T15:17:09.0000000+00:00</time></trkpt><trkpt lat="34.96876468" lon="32.82415333"><ele>1151.3</ele><time>2015-04-28T15:17:10.0000000+00:00</time></trkpt><trkpt lat="34.96904028" lon="32.82416347"><ele>1152.8</ele><time>2015-04-28T15:17:27.0000000+00:00</time></trkpt><trkpt lat="34.96934253" lon="32.82417328"><ele>1154.2</ele><time>2015-04-28T15:17:44.0000000+00:00</time></trkpt><trkpt lat="34.9695763" lon="32.82428987"><ele>1155.2</ele><time>2015-04-28T15:17:57.0000000+00:00</time></trkpt><trkpt lat="34.96956197" lon="32.82450261"><ele>1155.6</ele><time>2015-04-28T15:18:09.0000000+00:00</time></trkpt><trkpt lat="34.96947857" lon="32.82457444"><ele>1155.6</ele><time>2015-04-28T15:18:20.0000000+00:00</time></trkpt><trkpt lat="34.9694634" lon="32.8245819"><ele>1155.6</ele><time>2015-04-28T15:18:22.0000000+00:00</time></trkpt><trkpt lat="34.96944747" lon="32.8245938"><ele>1155.6</ele><time>2015-04-28T15:18:34.0000000+00:00</time></trkpt><trkpt lat="34.96942517" lon="32.82461694"><ele>1155.6</ele><time>2015-04-28T15:19:00.0000000+00:00</time></trkpt><trkpt lat="34.96941654" lon="32.82461199"><ele>1155.6</ele><time>2015-04-28T15:19:01.0000000+00:00</time></trkpt><trkpt lat="34.96941193" lon="32.82460026"><ele>1155.6</ele><time>2015-04-28T15:19:02.0000000+00:00</time></trkpt><trkpt lat="34.96947471" lon="32.82453094"><ele>1155.6</ele><time>2015-04-28T15:19:07.0000000+00:00</time></trkpt><trkpt lat="34.96949634" lon="32.82452465"><ele>1155.2</ele><time>2015-04-28T15:19:08.0000000+00:00</time></trkpt><trkpt lat="34.96951779" lon="32.82452054"><ele>1155.2</ele><time>2015-04-28T15:19:09.0000000+00:00</time></trkpt><trkpt lat="34.96963346" lon="32.82448718"><ele>1155.6</ele><time>2015-04-28T15:19:17.0000000+00:00</time></trkpt><trkpt lat="34.96965677" lon="32.82448735"><ele>1155.6</ele><time>2015-04-28T15:19:20.0000000+00:00</time></trkpt><trkpt lat="34.96966666" lon="32.82448878"><ele>1155.6</ele><time>2015-04-28T15:19:21.0000000+00:00</time></trkpt><trkpt lat="34.96983631" lon="32.82454561"><ele>1156.1</ele><time>2015-04-28T15:19:32.0000000+00:00</time></trkpt><trkpt lat="34.97020528" lon="32.82473495"><ele>1155.6</ele><time>2015-04-28T15:19:47.0000000+00:00</time></trkpt><trkpt lat="34.97043435" lon="32.82477644"><ele>1154.7</ele><time>2015-04-28T15:19:54.0000000+00:00</time></trkpt><trkpt lat="34.97048289" lon="32.82476362"><ele>1154.2</ele><time>2015-04-28T15:19:55.0000000+00:00</time></trkpt><trkpt lat="34.97097063" lon="32.82453856"><ele>1150.8</ele><time>2015-04-28T15:20:03.0000000+00:00</time></trkpt><trkpt lat="34.97125989" lon="32.8243628"><ele>1148.9</ele><time>2015-04-28T15:20:07.0000000+00:00</time></trkpt><trkpt lat="34.97134161" lon="32.82433555"><ele>1148.0</ele><time>2015-04-28T15:20:08.0000000+00:00</time></trkpt><trkpt lat="34.97142711" lon="32.82432893"><ele>1147.5</ele><time>2015-04-28T15:20:09.0000000+00:00</time></trkpt><trkpt lat="34.97151319" lon="32.82433916"><ele>1147.0</ele><time>2015-04-28T15:20:10.0000000+00:00</time></trkpt><trkpt lat="34.97159768" lon="32.82436405"><ele>1146.0</ele><time>2015-04-28T15:20:11.0000000+00:00</time></trkpt><trkpt lat="34.97167303" lon="32.82438995"><ele>1145.6</ele><time>2015-04-28T15:20:12.0000000+00:00</time></trkpt><trkpt lat="34.97174352" lon="32.824398"><ele>1145.1</ele><time>2015-04-28T15:20:13.0000000+00:00</time></trkpt><trkpt lat="34.97181385" lon="32.82438627"><ele>1144.6</ele><time>2015-04-28T15:20:14.0000000+00:00</time></trkpt><trkpt lat="34.97188208" lon="32.82435651"><ele>1144.1</ele><time>2015-04-28T15:20:15.0000000+00:00</time></trkpt><trkpt lat="34.97194394" lon="32.82431267"><ele>1143.1</ele><time>2015-04-28T15:20:16.0000000+00:00</time></trkpt><trkpt lat="34.97199699" lon="32.82426833"><ele>1142.7</ele><time>2015-04-28T15:20:17.0000000+00:00</time></trkpt><trkpt lat="34.97208366" lon="32.82421452"><ele>1141.2</ele><time>2015-04-28T15:20:19.0000000+00:00</time></trkpt><trkpt lat="34.97212063" lon="32.82421863"><ele>1140.7</ele><time>2015-04-28T15:20:20.0000000+00:00</time></trkpt><trkpt lat="34.97214292" lon="32.82424067"><ele>1140.3</ele><time>2015-04-28T15:20:21.0000000+00:00</time></trkpt><trkpt lat="34.97214778" lon="32.82426573"><ele>1139.8</ele><time>2015-04-28T15:20:22.0000000+00:00</time></trkpt><trkpt lat="34.97213739" lon="32.82428526"><ele>1139.8</ele><time>2015-04-28T15:20:23.0000000+00:00</time></trkpt><trkpt lat="34.97212054" lon="32.82429549"><ele>1139.8</ele><time>2015-04-28T15:20:24.0000000+00:00</time></trkpt><trkpt lat="34.97210596" lon="32.82430555"><ele>1139.3</ele><time>2015-04-28T15:20:25.0000000+00:00</time></trkpt><trkpt lat="34.97208945" lon="32.8243141"><ele>1139.8</ele><time>2015-04-28T15:20:26.0000000+00:00</time></trkpt><trkpt lat="34.97206824" lon="32.82432633"><ele>1139.8</ele><time>2015-04-28T15:20:27.0000000+00:00</time></trkpt><trkpt lat="34.97204418" lon="32.82434335"><ele>1139.8</ele><time>2015-04-28T15:20:28.0000000+00:00</time></trkpt><trkpt lat="34.97201803" lon="32.8243685"><ele>1139.3</ele><time>2015-04-28T15:20:29.0000000+00:00</time></trkpt><trkpt lat="34.97199146" lon="32.82440085"><ele>1139.3</ele><time>2015-04-28T15:20:30.0000000+00:00</time></trkpt><trkpt lat="34.97196338" lon="32.82443614"><ele>1139.3</ele><time>2015-04-28T15:20:31.0000000+00:00</time></trkpt><trkpt lat="34.97192952" lon="32.82447151"><ele>1138.8</ele><time>2015-04-28T15:20:32.0000000+00:00</time></trkpt><trkpt lat="34.97189071" lon="32.82450931"><ele>1138.8</ele><time>2015-04-28T15:20:33.0000000+00:00</time></trkpt><trkpt lat="34.97184888" lon="32.82454804"><ele>1138.3</ele><time>2015-04-28T15:20:34.0000000+00:00</time></trkpt><trkpt lat="34.9718027" lon="32.8245788"><ele>1137.9</ele><time>2015-04-28T15:20:35.0000000+00:00</time></trkpt><trkpt lat="34.97175358" lon="32.82459782"><ele>1137.4</ele><time>2015-04-28T15:20:36.0000000+00:00</time></trkpt><trkpt lat="34.97170161" lon="32.82460696"><ele>1136.9</ele><time>2015-04-28T15:20:37.0000000+00:00</time></trkpt><trkpt lat="34.97164168" lon="32.82460805"><ele>1136.4</ele><time>2015-04-28T15:20:38.0000000+00:00</time></trkpt><trkpt lat="34.97157396" lon="32.82460855"><ele>1135.9</ele><time>2015-04-28T15:20:39.0000000+00:00</time></trkpt><trkpt lat="34.97149701" lon="32.82461501"><ele>1135.0</ele><time>2015-04-28T15:20:40.0000000+00:00</time></trkpt><trkpt lat="34.97141663" lon="32.82463789"><ele>1134.5</ele><time>2015-04-28T15:20:41.0000000+00:00</time></trkpt><trkpt lat="34.97133994" lon="32.82467511"><ele>1134.0</ele><time>2015-04-28T15:20:42.0000000+00:00</time></trkpt><trkpt lat="34.9707579" lon="32.82510795"><ele>1133.5</ele><time>2015-04-28T15:20:52.0000000+00:00</time></trkpt><trkpt lat="34.9706144" lon="32.82518816"><ele>1133.1</ele><time>2015-04-28T15:20:55.0000000+00:00</time></trkpt><trkpt lat="34.9701223" lon="32.82526586"><ele>1129.7</ele><time>2015-04-28T15:21:03.0000000+00:00</time></trkpt><trkpt lat="34.97006463" lon="32.8252527"><ele>1129.2</ele><time>2015-04-28T15:21:04.0000000+00:00</time></trkpt><trkpt lat="34.96976925" lon="32.82515841"><ele>1125.8</ele><time>2015-04-28T15:21:09.0000000+00:00</time></trkpt><trkpt lat="34.9697053" lon="32.82516369"><ele>1124.9</ele><time>2015-04-28T15:21:10.0000000+00:00</time></trkpt><trkpt lat="34.96964302" lon="32.82519185"><ele>1124.4</ele><time>2015-04-28T15:21:11.0000000+00:00</time></trkpt><trkpt lat="34.96958619" lon="32.8252387"><ele>1124.4</ele><time>2015-04-28T15:21:12.0000000+00:00</time></trkpt><trkpt lat="34.9695333" lon="32.82529444"><ele>1123.9</ele><time>2015-04-28T15:21:13.0000000+00:00</time></trkpt><trkpt lat="34.96911597" lon="32.82581982"><ele>1123.4</ele><time>2015-04-28T15:21:22.0000000+00:00</time></trkpt><trkpt lat="34.96908504" lon="32.82588562"><ele>1123.0</ele><time>2015-04-28T15:21:23.0000000+00:00</time></trkpt><trkpt lat="34.96906106" lon="32.82595368"><ele>1123.0</ele><time>2015-04-28T15:21:24.0000000+00:00</time></trkpt><trkpt lat="34.96895679" lon="32.82629474"><ele>1123.0</ele><time>2015-04-28T15:21:29.0000000+00:00</time></trkpt><trkpt lat="34.96892033" lon="32.82635501"><ele>1122.5</ele><time>2015-04-28T15:21:30.0000000+00:00</time></trkpt><trkpt lat="34.96888186" lon="32.82640614"><ele>1122.5</ele><time>2015-04-28T15:21:31.0000000+00:00</time></trkpt><trkpt lat="34.96865672" lon="32.82663312"><ele>1120.1</ele><time>2015-04-28T15:21:40.0000000+00:00</time></trkpt><trkpt lat="34.96856829" lon="32.82667628"><ele>1118.2</ele><time>2015-04-28T15:21:43.0000000+00:00</time></trkpt><trkpt lat="34.96854281" lon="32.82670495"><ele>1117.7</ele><time>2015-04-28T15:21:44.0000000+00:00</time></trkpt><trkpt lat="34.96852697" lon="32.82673731"><ele>1117.2</ele><time>2015-04-28T15:21:45.0000000+00:00</time></trkpt><trkpt lat="34.96852068" lon="32.8267741"><ele>1116.7</ele><time>2015-04-28T15:21:46.0000000+00:00</time></trkpt><trkpt lat="34.96851641" lon="32.82681769"><ele>1115.8</ele><time>2015-04-28T15:21:47.0000000+00:00</time></trkpt><trkpt lat="34.96850727" lon="32.82694375"><ele>1113.8</ele><time>2015-04-28T15:21:49.0000000+00:00</time></trkpt><trkpt lat="34.96850912" lon="32.82700544"><ele>1112.9</ele><time>2015-04-28T15:21:50.0000000+00:00</time></trkpt><trkpt lat="34.96852797" lon="32.82722823"><ele>1109.5</ele><time>2015-04-28T15:21:54.0000000+00:00</time></trkpt><trkpt lat="34.96858095" lon="32.82752772"><ele>1106.1</ele><time>2015-04-28T15:22:01.0000000+00:00</time></trkpt><trkpt lat="34.9685962" lon="32.82757516"><ele>1105.7</ele><time>2015-04-28T15:22:02.0000000+00:00</time></trkpt><trkpt lat="34.96860668" lon="32.82763618"><ele>1105.2</ele><time>2015-04-28T15:22:03.0000000+00:00</time></trkpt><trkpt lat="34.96861313" lon="32.82769712"><ele>1105.2</ele><time>2015-04-28T15:22:04.0000000+00:00</time></trkpt><trkpt lat="34.9686159" lon="32.82774984"><ele>1104.7</ele><time>2015-04-28T15:22:05.0000000+00:00</time></trkpt><trkpt lat="34.96861548" lon="32.82779519"><ele>1105.7</ele><time>2015-04-28T15:22:06.0000000+00:00</time></trkpt><trkpt lat="34.96860995" lon="32.82783248"><ele>1106.1</ele><time>2015-04-28T15:22:07.0000000+00:00</time></trkpt><trkpt lat="34.96860065" lon="32.82786056"><ele>1106.1</ele><time>2015-04-28T15:22:08.0000000+00:00</time></trkpt><trkpt lat="34.96858975" lon="32.82788521"><ele>1106.1</ele><time>2015-04-28T15:22:09.0000000+00:00</time></trkpt><trkpt lat="34.96849311" lon="32.82804036"><ele>1107.1</ele><time>2015-04-28T15:22:16.0000000+00:00</time></trkpt><trkpt lat="34.96847617" lon="32.82805083"><ele>1107.1</ele><time>2015-04-28T15:22:17.0000000+00:00</time></trkpt><trkpt lat="34.96845958" lon="32.82806022"><ele>1107.1</ele><time>2015-04-28T15:22:18.0000000+00:00</time></trkpt><trkpt lat="34.96844105" lon="32.82806927"><ele>1107.6</ele><time>2015-04-28T15:22:19.0000000+00:00</time></trkpt><trkpt lat="34.96842622" lon="32.82807782"><ele>1107.6</ele><time>2015-04-28T15:22:20.0000000+00:00</time></trkpt><trkpt lat="34.96841323" lon="32.8280862"><ele>1107.6</ele><time>2015-04-28T15:22:21.0000000+00:00</time></trkpt><trkpt lat="34.96839998" lon="32.8280909"><ele>1107.6</ele><time>2015-04-28T15:22:22.0000000+00:00</time></trkpt><trkpt lat="34.96838632" lon="32.82809073"><ele>1108.1</ele><time>2015-04-28T15:22:23.0000000+00:00</time></trkpt><trkpt lat="34.96836998" lon="32.8280862"><ele>1108.1</ele><time>2015-04-28T15:22:24.0000000+00:00</time></trkpt><trkpt lat="34.96810779" lon="32.827935"><ele>1109.5</ele><time>2015-04-28T15:22:39.0000000+00:00</time></trkpt><trkpt lat="34.96788986" lon="32.82772268"><ele>1110.5</ele><time>2015-04-28T15:22:52.0000000+00:00</time></trkpt><trkpt lat="34.96775868" lon="32.82758472"><ele>1110.5</ele><time>2015-04-28T15:23:05.0000000+00:00</time></trkpt></trkseg><trkseg><trkpt lat="34.9676974" lon="32.8275838"><ele>1149.8</ele><time>2015-04-29T07:16:00.0000000+00:00</time></trkpt><trkpt lat="34.9677" lon="32.8276435"><ele>1147.3</ele><time>2015-04-29T07:16:01.0000000+00:00</time></trkpt><trkpt lat="34.9677607" lon="32.8276774"><ele>1146.5</ele><time>2015-04-29T07:16:02.0000000+00:00</time></trkpt><trkpt lat="34.9678277" lon="32.8277035"><ele>1147.2</ele><time>2015-04-29T07:16:04.0000000+00:00</time></trkpt><trkpt lat="34.9677726" lon="32.8277339"><ele>1155.9</ele><time>2015-04-29T07:16:06.0000000+00:00</time></trkpt><trkpt lat="34.9677366" lon="32.827698"><ele>1163.8</ele><time>2015-04-29T07:16:09.0000000+00:00</time></trkpt><trkpt lat="34.967786" lon="32.8276975"><ele>1139.6</ele><time>2015-04-29T07:16:32.0000000+00:00</time></trkpt><trkpt lat="34.9677711" lon="32.8276377"><ele>1127.4</ele><time>2015-04-29T07:16:49.0000000+00:00</time></trkpt><trkpt lat="34.9677295" lon="32.827597"><ele>1126.8</ele><time>2015-04-29T07:16:52.0000000+00:00</time></trkpt><trkpt lat="34.9676876" lon="32.8275666"><ele>1125.3</ele><time>2015-04-29T07:16:54.0000000+00:00</time></trkpt><trkpt lat="34.9676478" lon="32.8275352"><ele>1123.6</ele><time>2015-04-29T07:16:56.0000000+00:00</time></trkpt><trkpt lat="34.9676052" lon="32.8275078"><ele>1123.2</ele><time>2015-04-29T07:16:58.0000000+00:00</time></trkpt><trkpt lat="34.9675553" lon="32.8274908"><ele>1123.1</ele><time>2015-04-29T07:17:00.0000000+00:00</time></trkpt><trkpt lat="34.9674994" lon="32.8274724"><ele>1122.9</ele><time>2015-04-29T07:17:02.0000000+00:00</time></trkpt><trkpt lat="34.9674443" lon="32.827456"><ele>1122.8</ele><time>2015-04-29T07:17:04.0000000+00:00</time></trkpt><trkpt lat="34.9673934" lon="32.8274466"><ele>1122.8</ele><time>2015-04-29T07:17:06.0000000+00:00</time></trkpt><trkpt lat="34.9673442" lon="32.8274366"><ele>1122.5</ele><time>2015-04-29T07:17:08.0000000+00:00</time></trkpt><trkpt lat="34.9672935" lon="32.8274404"><ele>1122.7</ele><time>2015-04-29T07:17:10.0000000+00:00</time></trkpt><trkpt lat="34.967247" lon="32.8274472"><ele>1122.0</ele><time>2015-04-29T07:17:12.0000000+00:00</time></trkpt><trkpt lat="34.9671808" lon="32.8274445"><ele>1121.2</ele><time>2015-04-29T07:17:15.0000000+00:00</time></trkpt><trkpt lat="34.9671212" lon="32.8274429"><ele>1119.9</ele><time>2015-04-29T07:17:18.0000000+00:00</time></trkpt><trkpt lat="34.9670683" lon="32.8274479"><ele>1121.0</ele><time>2015-04-29T07:17:22.0000000+00:00</time></trkpt><trkpt lat="34.9670192" lon="32.8274702"><ele>1119.1</ele><time>2015-04-29T07:17:26.0000000+00:00</time></trkpt><trkpt lat="34.9669755" lon="32.8274879"><ele>1118.4</ele><time>2015-04-29T07:17:29.0000000+00:00</time></trkpt><trkpt lat="34.9669258" lon="32.827512"><ele>1118.8</ele><time>2015-04-29T07:17:33.0000000+00:00</time></trkpt><trkpt lat="34.9668739" lon="32.8275366"><ele>1117.5</ele><time>2015-04-29T07:17:37.0000000+00:00</time></trkpt><trkpt lat="34.9668261" lon="32.8275645"><ele>1118.2</ele><time>2015-04-29T07:17:40.0000000+00:00</time></trkpt><trkpt lat="34.9667855" lon="32.8276108"><ele>1119.8</ele><time>2015-04-29T07:17:43.0000000+00:00</time></trkpt><trkpt lat="34.9667398" lon="32.8276587"><ele>1119.6</ele><time>2015-04-29T07:17:46.0000000+00:00</time></trkpt><trkpt lat="34.9666992" lon="32.8276938"><ele>1118.9</ele><time>2015-04-29T07:17:49.0000000+00:00</time></trkpt><trkpt lat="34.9666522" lon="32.8277257"><ele>1118.3</ele><time>2015-04-29T07:17:53.0000000+00:00</time></trkpt><trkpt lat="34.9666111" lon="32.8277705"><ele>1120.1</ele><time>2015-04-29T07:17:57.0000000+00:00</time></trkpt><trkpt lat="34.9665674" lon="32.8277998"><ele>1121.5</ele><time>2015-04-29T07:18:01.0000000+00:00</time></trkpt><trkpt lat="34.9665264" lon="32.8278407"><ele>1120.9</ele><time>2015-04-29T07:18:05.0000000+00:00</time></trkpt><trkpt lat="34.9664845" lon="32.8278756"><ele>1122.4</ele><time>2015-04-29T07:18:09.0000000+00:00</time></trkpt><trkpt lat="34.9664395" lon="32.8279044"><ele>1122.2</ele><time>2015-04-29T07:18:13.0000000+00:00</time></trkpt><trkpt lat="34.9663978" lon="32.8279294"><ele>1122.7</ele><time>2015-04-29T07:18:17.0000000+00:00</time></trkpt><trkpt lat="34.9663529" lon="32.8279596"><ele>1123.5</ele><time>2015-04-29T07:18:21.0000000+00:00</time></trkpt><trkpt lat="34.9663028" lon="32.8279899"><ele>1124.4</ele><time>2015-04-29T07:18:25.0000000+00:00</time></trkpt><trkpt lat="34.9662615" lon="32.8280165"><ele>1124.7</ele><time>2015-04-29T07:18:28.0000000+00:00</time></trkpt><trkpt lat="34.9662211" lon="32.8280456"><ele>1125.6</ele><time>2015-04-29T07:18:31.0000000+00:00</time></trkpt><trkpt lat="34.9661802" lon="32.8280749"><ele>1125.0</ele><time>2015-04-29T07:18:34.0000000+00:00</time></trkpt><trkpt lat="34.9661292" lon="32.8281118"><ele>1125.8</ele><time>2015-04-29T07:18:38.0000000+00:00</time></trkpt><trkpt lat="34.9660906" lon="32.8281398"><ele>1127.3</ele><time>2015-04-29T07:18:41.0000000+00:00</time></trkpt><trkpt lat="34.9660432" lon="32.8281708"><ele>1126.8</ele><time>2015-04-29T07:18:45.0000000+00:00</time></trkpt><trkpt lat="34.9659993" lon="32.8282089"><ele>1126.6</ele><time>2015-04-29T07:18:49.0000000+00:00</time></trkpt><trkpt lat="34.9659603" lon="32.8282592"><ele>1128.3</ele><time>2015-04-29T07:18:53.0000000+00:00</time></trkpt><trkpt lat="34.9659106" lon="32.828299"><ele>1127.4</ele><time>2015-04-29T07:18:57.0000000+00:00</time></trkpt><trkpt lat="34.9658709" lon="32.8283282"><ele>1127.7</ele><time>2015-04-29T07:19:01.0000000+00:00</time></trkpt><trkpt lat="34.9658275" lon="32.8283569"><ele>1129.3</ele><time>2015-04-29T07:19:05.0000000+00:00</time></trkpt><trkpt lat="34.9657908" lon="32.8283948"><ele>1131.3</ele><time>2015-04-29T07:19:08.0000000+00:00</time></trkpt><trkpt lat="34.965752" lon="32.8284333"><ele>1132.2</ele><time>2015-04-29T07:19:11.0000000+00:00</time></trkpt><trkpt lat="34.9657122" lon="32.828476"><ele>1133.4</ele><time>2015-04-29T07:19:14.0000000+00:00</time></trkpt><trkpt lat="34.9656722" lon="32.8285133"><ele>1133.4</ele><time>2015-04-29T07:19:17.0000000+00:00</time></trkpt><trkpt lat="34.9656406" lon="32.8285613"><ele>1134.7</ele><time>2015-04-29T07:19:20.0000000+00:00</time></trkpt><trkpt lat="34.9655903" lon="32.8285864"><ele>1134.8</ele><time>2015-04-29T07:19:25.0000000+00:00</time></trkpt><trkpt lat="34.965554" lon="32.828637"><ele>1135.8</ele><time>2015-04-29T07:19:29.0000000+00:00</time></trkpt><trkpt lat="34.9655172" lon="32.8286699"><ele>1136.6</ele><time>2015-04-29T07:19:32.0000000+00:00</time></trkpt><trkpt lat="34.9654804" lon="32.8287038"><ele>1136.7</ele><time>2015-04-29T07:19:35.0000000+00:00</time></trkpt><trkpt lat="34.9654403" lon="32.8287436"><ele>1136.8</ele><time>2015-04-29T07:19:38.0000000+00:00</time></trkpt><trkpt lat="34.9653954" lon="32.8287793"><ele>1136.8</ele><time>2015-04-29T07:19:41.0000000+00:00</time></trkpt><trkpt lat="34.9653566" lon="32.8288085"><ele>1138.6</ele><time>2015-04-29T07:19:44.0000000+00:00</time></trkpt><trkpt lat="34.9653206" lon="32.8288414"><ele>1140.9</ele><time>2015-04-29T07:19:47.0000000+00:00</time></trkpt><trkpt lat="34.9652823" lon="32.8288713"><ele>1142.2</ele><time>2015-04-29T07:19:50.0000000+00:00</time></trkpt><trkpt lat="34.9652427" lon="32.8288985"><ele>1143.4</ele><time>2015-04-29T07:19:53.0000000+00:00</time></trkpt><trkpt lat="34.9652145" lon="32.8289468"><ele>1143.7</ele><time>2015-04-29T07:19:56.0000000+00:00</time></trkpt><trkpt lat="34.965168" lon="32.8289891"><ele>1143.3</ele><time>2015-04-29T07:20:00.0000000+00:00</time></trkpt><trkpt lat="34.9651187" lon="32.8290324"><ele>1142.8</ele><time>2015-04-29T07:20:04.0000000+00:00</time></trkpt><trkpt lat="34.9650709" lon="32.8290659"><ele>1142.6</ele><time>2015-04-29T07:20:08.0000000+00:00</time></trkpt><trkpt lat="34.9650252" lon="32.8290905"><ele>1144.5</ele><time>2015-04-29T07:20:12.0000000+00:00</time></trkpt><trkpt lat="34.9649737" lon="32.8291194"><ele>1143.3</ele><time>2015-04-29T07:20:18.0000000+00:00</time></trkpt><trkpt lat="34.9649241" lon="32.8291248"><ele>1141.6</ele><time>2015-04-29T07:20:21.0000000+00:00</time></trkpt><trkpt lat="34.9648754" lon="32.8291202"><ele>1140.1</ele><time>2015-04-29T07:20:24.0000000+00:00</time></trkpt><trkpt lat="34.9648164" lon="32.8291164"><ele>1138.3</ele><time>2015-04-29T07:20:28.0000000+00:00</time></trkpt><trkpt lat="34.9647619" lon="32.8291093"><ele>1138.3</ele><time>2015-04-29T07:20:32.0000000+00:00</time></trkpt><trkpt lat="34.964717" lon="32.8290911"><ele>1140.0</ele><time>2015-04-29T07:20:35.0000000+00:00</time></trkpt><trkpt lat="34.96467" lon="32.8290719"><ele>1140.2</ele><time>2015-04-29T07:20:38.0000000+00:00</time></trkpt><trkpt lat="34.9646209" lon="32.829055"><ele>1140.2</ele><time>2015-04-29T07:20:41.0000000+00:00</time></trkpt><trkpt lat="34.9645731" lon="32.8290249"><ele>1140.9</ele><time>2015-04-29T07:20:44.0000000+00:00</time></trkpt><trkpt lat="34.9645254" lon="32.8290008"><ele>1141.7</ele><time>2015-04-29T07:20:47.0000000+00:00</time></trkpt><trkpt lat="34.9644754" lon="32.8289844"><ele>1141.9</ele><time>2015-04-29T07:20:50.0000000+00:00</time></trkpt><trkpt lat="34.9644283" lon="32.8289733"><ele>1141.8</ele><time>2015-04-29T07:20:53.0000000+00:00</time></trkpt><trkpt lat="34.9643862" lon="32.8289531"><ele>1140.0</ele><time>2015-04-29T07:20:56.0000000+00:00</time></trkpt><trkpt lat="34.9643302" lon="32.8289391"><ele>1139.2</ele><time>2015-04-29T07:21:00.0000000+00:00</time></trkpt><trkpt lat="34.9642739" lon="32.8289322"><ele>1138.2</ele><time>2015-04-29T07:21:04.0000000+00:00</time></trkpt><trkpt lat="34.9642246" lon="32.8289317"><ele>1139.4</ele><time>2015-04-29T07:21:07.0000000+00:00</time></trkpt><trkpt lat="34.9641725" lon="32.8289289"><ele>1140.5</ele><time>2015-04-29T07:21:10.0000000+00:00</time></trkpt><trkpt lat="34.9641258" lon="32.8289312"><ele>1140.7</ele><time>2015-04-29T07:21:13.0000000+00:00</time></trkpt><trkpt lat="34.9640766" lon="32.8289336"><ele>1140.8</ele><time>2015-04-29T07:21:16.0000000+00:00</time></trkpt><trkpt lat="34.9640201" lon="32.8289406"><ele>1140.9</ele><time>2015-04-29T07:21:19.0000000+00:00</time></trkpt><trkpt lat="34.9639654" lon="32.8289317"><ele>1141.5</ele><time>2015-04-29T07:21:22.0000000+00:00</time></trkpt><trkpt lat="34.9639075" lon="32.8289318"><ele>1142.4</ele><time>2015-04-29T07:21:25.0000000+00:00</time></trkpt><trkpt lat="34.9638566" lon="32.8289244"><ele>1142.7</ele><time>2015-04-29T07:21:28.0000000+00:00</time></trkpt><trkpt lat="34.9637968" lon="32.8289126"><ele>1142.2</ele><time>2015-04-29T07:21:32.0000000+00:00</time></trkpt><trkpt lat="34.9637474" lon="32.8289161"><ele>1141.1</ele><time>2015-04-29T07:21:35.0000000+00:00</time></trkpt><trkpt lat="34.9636995" lon="32.8289175"><ele>1144.4</ele><time>2015-04-29T07:21:38.0000000+00:00</time></trkpt><trkpt lat="34.9636525" lon="32.8289208"><ele>1144.2</ele><time>2015-04-29T07:21:41.0000000+00:00</time></trkpt><trkpt lat="34.9636034" lon="32.8289157"><ele>1144.9</ele><time>2015-04-29T07:21:44.0000000+00:00</time></trkpt><trkpt lat="34.9635484" lon="32.8289199"><ele>1146.9</ele><time>2015-04-29T07:21:47.0000000+00:00</time></trkpt><trkpt lat="34.9634988" lon="32.8289186"><ele>1146.8</ele><time>2015-04-29T07:21:50.0000000+00:00</time></trkpt><trkpt lat="34.9634414" lon="32.8289295"><ele>1149.0</ele><time>2015-04-29T07:21:54.0000000+00:00</time></trkpt><trkpt lat="34.9633794" lon="32.828934"><ele>1148.8</ele><time>2015-04-29T07:21:58.0000000+00:00</time></trkpt><trkpt lat="34.9633284" lon="32.8289428"><ele>1149.9</ele><time>2015-04-29T07:22:01.0000000+00:00</time></trkpt><trkpt lat="34.9632661" lon="32.8289653"><ele>1152.4</ele><time>2015-04-29T07:22:05.0000000+00:00</time></trkpt><trkpt lat="34.963206" lon="32.8289708"><ele>1152.8</ele><time>2015-04-29T07:22:08.0000000+00:00</time></trkpt><trkpt lat="34.9631478" lon="32.8289822"><ele>1153.6</ele><time>2015-04-29T07:22:11.0000000+00:00</time></trkpt><trkpt lat="34.9630936" lon="32.8289897"><ele>1153.0</ele><time>2015-04-29T07:22:14.0000000+00:00</time></trkpt><trkpt lat="34.963048" lon="32.8289903"><ele>1152.8</ele><time>2015-04-29T07:22:17.0000000+00:00</time></trkpt><trkpt lat="34.9630017" lon="32.8289906"><ele>1153.1</ele><time>2015-04-29T07:22:20.0000000+00:00</time></trkpt><trkpt lat="34.962956" lon="32.8289883"><ele>1152.8</ele><time>2015-04-29T07:22:23.0000000+00:00</time></trkpt><trkpt lat="34.9629027" lon="32.8289693"><ele>1153.2</ele><time>2015-04-29T07:22:27.0000000+00:00</time></trkpt><trkpt lat="34.9628576" lon="32.8289568"><ele>1154.6</ele><time>2015-04-29T07:22:30.0000000+00:00</time></trkpt><trkpt lat="34.9628095" lon="32.8289421"><ele>1154.7</ele><time>2015-04-29T07:22:33.0000000+00:00</time></trkpt><trkpt lat="34.9627662" lon="32.8289237"><ele>1156.1</ele><time>2015-04-29T07:22:36.0000000+00:00</time></trkpt><trkpt lat="34.9627103" lon="32.8289034"><ele>1155.8</ele><time>2015-04-29T07:22:40.0000000+00:00</time></trkpt><trkpt lat="34.9626608" lon="32.8289007"><ele>1155.8</ele><time>2015-04-29T07:22:43.0000000+00:00</time></trkpt><trkpt lat="34.9626108" lon="32.8288943"><ele>1156.5</ele><time>2015-04-29T07:22:46.0000000+00:00</time></trkpt><trkpt lat="34.9625552" lon="32.8288985"><ele>1158.1</ele><time>2015-04-29T07:22:49.0000000+00:00</time></trkpt><trkpt lat="34.9624996" lon="32.8289022"><ele>1158.7</ele><time>2015-04-29T07:22:52.0000000+00:00</time></trkpt><trkpt lat="34.962449" lon="32.828914"><ele>1159.0</ele><time>2015-04-29T07:22:55.0000000+00:00</time></trkpt><trkpt lat="34.9624009" lon="32.8289227"><ele>1158.8</ele><time>2015-04-29T07:22:58.0000000+00:00</time></trkpt><trkpt lat="34.9623551" lon="32.8289311"><ele>1159.5</ele><time>2015-04-29T07:23:01.0000000+00:00</time></trkpt><trkpt lat="34.9623084" lon="32.8289405"><ele>1159.7</ele><time>2015-04-29T07:23:04.0000000+00:00</time></trkpt><trkpt lat="34.9622606" lon="32.8289342"><ele>1160.5</ele><time>2015-04-29T07:23:07.0000000+00:00</time></trkpt><trkpt lat="34.9622018" lon="32.8289398"><ele>1160.7</ele><time>2015-04-29T07:23:11.0000000+00:00</time></trkpt><trkpt lat="34.9621516" lon="32.8289452"><ele>1161.6</ele><time>2015-04-29T07:23:14.0000000+00:00</time></trkpt><trkpt lat="34.962099" lon="32.8289553"><ele>1162.6</ele><time>2015-04-29T07:23:17.0000000+00:00</time></trkpt><trkpt lat="34.9620506" lon="32.8289632"><ele>1162.7</ele><time>2015-04-29T07:23:20.0000000+00:00</time></trkpt><trkpt lat="34.9619995" lon="32.8289708"><ele>1162.8</ele><time>2015-04-29T07:23:23.0000000+00:00</time></trkpt><trkpt lat="34.9619502" lon="32.8289705"><ele>1164.1</ele><time>2015-04-29T07:23:26.0000000+00:00</time></trkpt><trkpt lat="34.961891" lon="32.8289628"><ele>1163.7</ele><time>2015-04-29T07:23:30.0000000+00:00</time></trkpt><trkpt lat="34.9618378" lon="32.828949"><ele>1165.2</ele><time>2015-04-29T07:23:37.0000000+00:00</time></trkpt><trkpt lat="34.9617915" lon="32.8289389"><ele>1167.4</ele><time>2015-04-29T07:23:41.0000000+00:00</time></trkpt><trkpt lat="34.9617566" lon="32.8288924"><ele>1168.2</ele><time>2015-04-29T07:23:45.0000000+00:00</time></trkpt><trkpt lat="34.9617556" lon="32.8288297"><ele>1167.7</ele><time>2015-04-29T07:23:49.0000000+00:00</time></trkpt><trkpt lat="34.9617781" lon="32.8287776"><ele>1170.7</ele><time>2015-04-29T07:23:54.0000000+00:00</time></trkpt><trkpt lat="34.9618225" lon="32.8287603"><ele>1171.3</ele><time>2015-04-29T07:23:58.0000000+00:00</time></trkpt><trkpt lat="34.9618699" lon="32.8287541"><ele>1171.1</ele><time>2015-04-29T07:24:01.0000000+00:00</time></trkpt><trkpt lat="34.961928" lon="32.8287496"><ele>1170.7</ele><time>2015-04-29T07:24:04.0000000+00:00</time></trkpt><trkpt lat="34.9619934" lon="32.8287395"><ele>1170.3</ele><time>2015-04-29T07:24:07.0000000+00:00</time></trkpt><trkpt lat="34.9620435" lon="32.8287348"><ele>1172.6</ele><time>2015-04-29T07:24:09.0000000+00:00</time></trkpt><trkpt lat="34.9621061" lon="32.8287212"><ele>1172.7</ele><time>2015-04-29T07:24:12.0000000+00:00</time></trkpt><trkpt lat="34.9621483" lon="32.8287"><ele>1173.1</ele><time>2015-04-29T07:24:15.0000000+00:00</time></trkpt><trkpt lat="34.9621885" lon="32.8286666"><ele>1174.6</ele><time>2015-04-29T07:24:18.0000000+00:00</time></trkpt><trkpt lat="34.9622265" lon="32.8286148"><ele>1175.3</ele><time>2015-04-29T07:24:22.0000000+00:00</time></trkpt><trkpt lat="34.9622601" lon="32.8285527"><ele>1174.7</ele><time>2015-04-29T07:24:26.0000000+00:00</time></trkpt><trkpt lat="34.9622965" lon="32.828519"><ele>1175.4</ele><time>2015-04-29T07:24:29.0000000+00:00</time></trkpt><trkpt lat="34.9623425" lon="32.828511"><ele>1175.3</ele><time>2015-04-29T07:24:32.0000000+00:00</time></trkpt><trkpt lat="34.9623998" lon="32.8285135"><ele>1174.9</ele><time>2015-04-29T07:24:36.0000000+00:00</time></trkpt><trkpt lat="34.9624441" lon="32.8285293"><ele>1173.0</ele><time>2015-04-29T07:24:39.0000000+00:00</time></trkpt><trkpt lat="34.9624997" lon="32.8285187"><ele>1171.5</ele><time>2015-04-29T07:24:43.0000000+00:00</time></trkpt><trkpt lat="34.9625579" lon="32.8285146"><ele>1172.6</ele><time>2015-04-29T07:24:47.0000000+00:00</time></trkpt><trkpt lat="34.9626155" lon="32.8285186"><ele>1174.1</ele><time>2015-04-29T07:24:51.0000000+00:00</time></trkpt><trkpt lat="34.9626603" lon="32.8285068"><ele>1172.4</ele><time>2015-04-29T07:24:53.0000000+00:00</time></trkpt><trkpt lat="34.9627067" lon="32.8284959"><ele>1171.2</ele><time>2015-04-29T07:24:55.0000000+00:00</time></trkpt><trkpt lat="34.9627408" lon="32.8285327"><ele>1169.2</ele><time>2015-04-29T07:24:59.0000000+00:00</time></trkpt><trkpt lat="34.9627901" lon="32.8285306"><ele>1169.6</ele><time>2015-04-29T07:25:02.0000000+00:00</time></trkpt><trkpt lat="34.9628484" lon="32.8285104"><ele>1170.4</ele><time>2015-04-29T07:25:05.0000000+00:00</time></trkpt><trkpt lat="34.9629093" lon="32.8284928"><ele>1171.2</ele><time>2015-04-29T07:25:08.0000000+00:00</time></trkpt><trkpt lat="34.9629658" lon="32.8284759"><ele>1172.4</ele><time>2015-04-29T07:25:11.0000000+00:00</time></trkpt><trkpt lat="34.9630172" lon="32.8284597"><ele>1173.9</ele><time>2015-04-29T07:25:13.0000000+00:00</time></trkpt><trkpt lat="34.9630814" lon="32.8284506"><ele>1176.3</ele><time>2015-04-29T07:25:16.0000000+00:00</time></trkpt><trkpt lat="34.963145" lon="32.8284462"><ele>1176.7</ele><time>2015-04-29T07:25:19.0000000+00:00</time></trkpt><trkpt lat="34.9631962" lon="32.8284323"><ele>1175.7</ele><time>2015-04-29T07:25:21.0000000+00:00</time></trkpt><trkpt lat="34.9632578" lon="32.8284222"><ele>1176.8</ele><time>2015-04-29T07:25:24.0000000+00:00</time></trkpt><trkpt lat="34.9633148" lon="32.8284161"><ele>1178.4</ele><time>2015-04-29T07:25:27.0000000+00:00</time></trkpt><trkpt lat="34.9633667" lon="32.8284135"><ele>1178.7</ele><time>2015-04-29T07:25:30.0000000+00:00</time></trkpt><trkpt lat="34.9634173" lon="32.8284012"><ele>1178.0</ele><time>2015-04-29T07:25:33.0000000+00:00</time></trkpt><trkpt lat="34.9634688" lon="32.8283851"><ele>1178.5</ele><time>2015-04-29T07:25:36.0000000+00:00</time></trkpt><trkpt lat="34.9635347" lon="32.828375"><ele>1181.2</ele><time>2015-04-29T07:25:39.0000000+00:00</time></trkpt><trkpt lat="34.9635853" lon="32.8283682"><ele>1182.1</ele><time>2015-04-29T07:25:41.0000000+00:00</time></trkpt><trkpt lat="34.9636373" lon="32.8283632"><ele>1182.1</ele><time>2015-04-29T07:25:43.0000000+00:00</time></trkpt><trkpt lat="34.9636886" lon="32.8283676"><ele>1183.1</ele><time>2015-04-29T07:25:45.0000000+00:00</time></trkpt><trkpt lat="34.9637357" lon="32.828375"><ele>1183.1</ele><time>2015-04-29T07:25:47.0000000+00:00</time></trkpt><trkpt lat="34.9637858" lon="32.8283809"><ele>1184.1</ele><time>2015-04-29T07:25:49.0000000+00:00</time></trkpt><trkpt lat="34.9638468" lon="32.8283801"><ele>1184.2</ele><time>2015-04-29T07:25:52.0000000+00:00</time></trkpt><trkpt lat="34.9638944" lon="32.8283566"><ele>1182.4</ele><time>2015-04-29T07:25:56.0000000+00:00</time></trkpt><trkpt lat="34.9639068" lon="32.8282972"><ele>1185.2</ele><time>2015-04-29T07:26:00.0000000+00:00</time></trkpt><trkpt lat="34.9638597" lon="32.8282731"><ele>1183.9</ele><time>2015-04-29T07:26:04.0000000+00:00</time></trkpt><trkpt lat="34.9638084" lon="32.8282666"><ele>1184.5</ele><time>2015-04-29T07:26:08.0000000+00:00</time></trkpt><trkpt lat="34.9637627" lon="32.8282616"><ele>1187.8</ele><time>2015-04-29T07:26:12.0000000+00:00</time></trkpt><trkpt lat="34.963707" lon="32.8282648"><ele>1188.0</ele><time>2015-04-29T07:26:16.0000000+00:00</time></trkpt><trkpt lat="34.9636617" lon="32.8282694"><ele>1186.4</ele><time>2015-04-29T07:26:19.0000000+00:00</time></trkpt><trkpt lat="34.9636154" lon="32.8282698"><ele>1186.6</ele><time>2015-04-29T07:26:22.0000000+00:00</time></trkpt><trkpt lat="34.9635624" lon="32.8282883"><ele>1187.6</ele><time>2015-04-29T07:26:26.0000000+00:00</time></trkpt><trkpt lat="34.963504" lon="32.8282969"><ele>1189.4</ele><time>2015-04-29T07:26:30.0000000+00:00</time></trkpt><trkpt lat="34.9634607" lon="32.8282786"><ele>1189.7</ele><time>2015-04-29T07:26:33.0000000+00:00</time></trkpt><trkpt lat="34.9634155" lon="32.8282835"><ele>1189.6</ele><time>2015-04-29T07:26:36.0000000+00:00</time></trkpt><trkpt lat="34.9633734" lon="32.8283034"><ele>1189.2</ele><time>2015-04-29T07:26:39.0000000+00:00</time></trkpt><trkpt lat="34.9633181" lon="32.8282876"><ele>1188.4</ele><time>2015-04-29T07:26:43.0000000+00:00</time></trkpt><trkpt lat="34.9632729" lon="32.8282847"><ele>1189.6</ele><time>2015-04-29T07:26:46.0000000+00:00</time></trkpt><trkpt lat="34.9632208" lon="32.8282714"><ele>1187.8</ele><time>2015-04-29T07:26:50.0000000+00:00</time></trkpt><trkpt lat="34.9631728" lon="32.8282768"><ele>1189.2</ele><time>2015-04-29T07:26:54.0000000+00:00</time></trkpt><trkpt lat="34.9631243" lon="32.8282755"><ele>1190.9</ele><time>2015-04-29T07:26:57.0000000+00:00</time></trkpt><trkpt lat="34.9630767" lon="32.8282582"><ele>1191.0</ele><time>2015-04-29T07:27:00.0000000+00:00</time></trkpt><trkpt lat="34.9630206" lon="32.8282348"><ele>1191.1</ele><time>2015-04-29T07:27:04.0000000+00:00</time></trkpt><trkpt lat="34.9629714" lon="32.8282099"><ele>1191.7</ele><time>2015-04-29T07:27:08.0000000+00:00</time></trkpt><trkpt lat="34.9629248" lon="32.8281831"><ele>1191.8</ele><time>2015-04-29T07:27:12.0000000+00:00</time></trkpt><trkpt lat="34.9628751" lon="32.8281648"><ele>1191.4</ele><time>2015-04-29T07:27:16.0000000+00:00</time></trkpt><trkpt lat="34.962828" lon="32.8281315"><ele>1191.7</ele><time>2015-04-29T07:27:20.0000000+00:00</time></trkpt><trkpt lat="34.9627743" lon="32.8281246"><ele>1191.9</ele><time>2015-04-29T07:27:24.0000000+00:00</time></trkpt><trkpt lat="34.9627165" lon="32.8281028"><ele>1191.8</ele><time>2015-04-29T07:27:28.0000000+00:00</time></trkpt><trkpt lat="34.9626658" lon="32.8280759"><ele>1190.8</ele><time>2015-04-29T07:27:32.0000000+00:00</time></trkpt><trkpt lat="34.9626205" lon="32.8280425"><ele>1189.5</ele><time>2015-04-29T07:27:36.0000000+00:00</time></trkpt><trkpt lat="34.9625714" lon="32.8280107"><ele>1188.4</ele><time>2015-04-29T07:27:40.0000000+00:00</time></trkpt><trkpt lat="34.9625298" lon="32.8279876"><ele>1188.0</ele><time>2015-04-29T07:27:43.0000000+00:00</time></trkpt><trkpt lat="34.9624822" lon="32.8279642"><ele>1191.0</ele><time>2015-04-29T07:27:46.0000000+00:00</time></trkpt><trkpt lat="34.9624321" lon="32.8279533"><ele>1193.3</ele><time>2015-04-29T07:27:49.0000000+00:00</time></trkpt><trkpt lat="34.9623783" lon="32.8279574"><ele>1195.3</ele><time>2015-04-29T07:27:52.0000000+00:00</time></trkpt><trkpt lat="34.9623326" lon="32.8279528"><ele>1195.1</ele><time>2015-04-29T07:27:55.0000000+00:00</time></trkpt><trkpt lat="34.9622825" lon="32.8279397"><ele>1194.9</ele><time>2015-04-29T07:27:58.0000000+00:00</time></trkpt><trkpt lat="34.9622286" lon="32.8279368"><ele>1196.4</ele><time>2015-04-29T07:28:01.0000000+00:00</time></trkpt><trkpt lat="34.9621701" lon="32.8279425"><ele>1200.6</ele><time>2015-04-29T07:28:04.0000000+00:00</time></trkpt><trkpt lat="34.9621237" lon="32.8279419"><ele>1200.4</ele><time>2015-04-29T07:28:07.0000000+00:00</time></trkpt><trkpt lat="34.9620652" lon="32.8279412"><ele>1200.3</ele><time>2015-04-29T07:28:11.0000000+00:00</time></trkpt><trkpt lat="34.9620218" lon="32.8279559"><ele>1202.1</ele><time>2015-04-29T07:28:14.0000000+00:00</time></trkpt><trkpt lat="34.9619697" lon="32.8279752"><ele>1200.8</ele><time>2015-04-29T07:28:18.0000000+00:00</time></trkpt><trkpt lat="34.9619148" lon="32.8279782"><ele>1200.5</ele><time>2015-04-29T07:28:22.0000000+00:00</time></trkpt><trkpt lat="34.9618563" lon="32.8279896"><ele>1202.2</ele><time>2015-04-29T07:28:26.0000000+00:00</time></trkpt><trkpt lat="34.961811" lon="32.827983"><ele>1202.7</ele><time>2015-04-29T07:28:29.0000000+00:00</time></trkpt><trkpt lat="34.9617538" lon="32.8279699"><ele>1199.9</ele><time>2015-04-29T07:28:33.0000000+00:00</time></trkpt><trkpt lat="34.9617055" lon="32.8279498"><ele>1199.6</ele><time>2015-04-29T07:28:37.0000000+00:00</time></trkpt><trkpt lat="34.9616532" lon="32.8279344"><ele>1200.7</ele><time>2015-04-29T07:28:41.0000000+00:00</time></trkpt><trkpt lat="34.9615978" lon="32.8279275"><ele>1203.3</ele><time>2015-04-29T07:28:45.0000000+00:00</time></trkpt><trkpt lat="34.9615512" lon="32.8279203"><ele>1205.1</ele><time>2015-04-29T07:28:48.0000000+00:00</time></trkpt><trkpt lat="34.9615071" lon="32.8279041"><ele>1205.6</ele><time>2015-04-29T07:28:51.0000000+00:00</time></trkpt><trkpt lat="34.9614566" lon="32.8278796"><ele>1203.3</ele><time>2015-04-29T07:28:55.0000000+00:00</time></trkpt><trkpt lat="34.9614125" lon="32.8278409"><ele>1202.9</ele><time>2015-04-29T07:28:59.0000000+00:00</time></trkpt><trkpt lat="34.9613694" lon="32.8277972"><ele>1202.4</ele><time>2015-04-29T07:29:03.0000000+00:00</time></trkpt><trkpt lat="34.9613222" lon="32.8277752"><ele>1204.1</ele><time>2015-04-29T07:29:06.0000000+00:00</time></trkpt><trkpt lat="34.9612745" lon="32.827751"><ele>1204.8</ele><time>2015-04-29T07:29:09.0000000+00:00</time></trkpt><trkpt lat="34.9612346" lon="32.8277183"><ele>1204.0</ele><time>2015-04-29T07:29:12.0000000+00:00</time></trkpt><trkpt lat="34.961196" lon="32.8276654"><ele>1205.0</ele><time>2015-04-29T07:29:16.0000000+00:00</time></trkpt><trkpt lat="34.9611515" lon="32.827637"><ele>1206.0</ele><time>2015-04-29T07:29:19.0000000+00:00</time></trkpt><trkpt lat="34.9611065" lon="32.827597"><ele>1204.9</ele><time>2015-04-29T07:29:22.0000000+00:00</time></trkpt><trkpt lat="34.9610624" lon="32.827558"><ele>1204.9</ele><time>2015-04-29T07:29:25.0000000+00:00</time></trkpt><trkpt lat="34.9610318" lon="32.8275131"><ele>1204.8</ele><time>2015-04-29T07:29:28.0000000+00:00</time></trkpt><trkpt lat="34.9609975" lon="32.8274554"><ele>1206.2</ele><time>2015-04-29T07:29:32.0000000+00:00</time></trkpt><trkpt lat="34.960956" lon="32.8274051"><ele>1208.9</ele><time>2015-04-29T07:29:36.0000000+00:00</time></trkpt><trkpt lat="34.9609041" lon="32.8273816"><ele>1210.0</ele><time>2015-04-29T07:29:39.0000000+00:00</time></trkpt><trkpt lat="34.9608495" lon="32.8273624"><ele>1210.9</ele><time>2015-04-29T07:29:42.0000000+00:00</time></trkpt><trkpt lat="34.9607967" lon="32.827333"><ele>1212.2</ele><time>2015-04-29T07:29:45.0000000+00:00</time></trkpt><trkpt lat="34.9607582" lon="32.8272828"><ele>1210.4</ele><time>2015-04-29T07:29:49.0000000+00:00</time></trkpt><trkpt lat="34.9607458" lon="32.8272252"><ele>1210.2</ele><time>2015-04-29T07:29:53.0000000+00:00</time></trkpt><trkpt lat="34.9607195" lon="32.82718"><ele>1211.5</ele><time>2015-04-29T07:29:57.0000000+00:00</time></trkpt><trkpt lat="34.9606696" lon="32.8271567"><ele>1214.6</ele><time>2015-04-29T07:30:01.0000000+00:00</time></trkpt><trkpt lat="34.9606268" lon="32.8271324"><ele>1214.9</ele><time>2015-04-29T07:30:05.0000000+00:00</time></trkpt><trkpt lat="34.9605726" lon="32.8271144"><ele>1212.4</ele><time>2015-04-29T07:30:09.0000000+00:00</time></trkpt><trkpt lat="34.9605098" lon="32.8271168"><ele>1212.9</ele><time>2015-04-29T07:30:13.0000000+00:00</time></trkpt><trkpt lat="34.9604591" lon="32.8271257"><ele>1213.7</ele><time>2015-04-29T07:30:16.0000000+00:00</time></trkpt><trkpt lat="34.9604042" lon="32.8271333"><ele>1216.3</ele><time>2015-04-29T07:30:20.0000000+00:00</time></trkpt><trkpt lat="34.9603564" lon="32.827139"><ele>1218.1</ele><time>2015-04-29T07:30:23.0000000+00:00</time></trkpt><trkpt lat="34.960305" lon="32.8271363"><ele>1217.8</ele><time>2015-04-29T07:30:26.0000000+00:00</time></trkpt><trkpt lat="34.9602565" lon="32.827127"><ele>1217.4</ele><time>2015-04-29T07:30:29.0000000+00:00</time></trkpt><trkpt lat="34.9602083" lon="32.8271187"><ele>1216.3</ele><time>2015-04-29T07:30:32.0000000+00:00</time></trkpt><trkpt lat="34.96016" lon="32.8271104"><ele>1216.6</ele><time>2015-04-29T07:30:35.0000000+00:00</time></trkpt><trkpt lat="34.9601128" lon="32.8270986"><ele>1217.2</ele><time>2015-04-29T07:30:38.0000000+00:00</time></trkpt><trkpt lat="34.9600634" lon="32.827081"><ele>1217.7</ele><time>2015-04-29T07:30:41.0000000+00:00</time></trkpt><trkpt lat="34.9600175" lon="32.8270709"><ele>1219.0</ele><time>2015-04-29T07:30:44.0000000+00:00</time></trkpt><trkpt lat="34.9599671" lon="32.8270643"><ele>1217.9</ele><time>2015-04-29T07:30:47.0000000+00:00</time></trkpt><trkpt lat="34.95992" lon="32.8270479"><ele>1218.3</ele><time>2015-04-29T07:30:50.0000000+00:00</time></trkpt><trkpt lat="34.9598679" lon="32.82704"><ele>1218.7</ele><time>2015-04-29T07:30:54.0000000+00:00</time></trkpt><trkpt lat="34.9598185" lon="32.8270144"><ele>1215.6</ele><time>2015-04-29T07:31:03.0000000+00:00</time></trkpt><trkpt lat="34.9597618" lon="32.8270157"><ele>1216.2</ele><time>2015-04-29T07:31:07.0000000+00:00</time></trkpt><trkpt lat="34.9597039" lon="32.8270338"><ele>1217.5</ele><time>2015-04-29T07:31:11.0000000+00:00</time></trkpt><trkpt lat="34.9596576" lon="32.8270547"><ele>1215.9</ele><time>2015-04-29T07:31:14.0000000+00:00</time></trkpt><trkpt lat="34.9596105" lon="32.82709"><ele>1216.5</ele><time>2015-04-29T07:31:17.0000000+00:00</time></trkpt><trkpt lat="34.9595723" lon="32.8271372"><ele>1218.9</ele><time>2015-04-29T07:31:20.0000000+00:00</time></trkpt><trkpt lat="34.9595438" lon="32.8271845"><ele>1219.9</ele><time>2015-04-29T07:31:23.0000000+00:00</time></trkpt><trkpt lat="34.9595191" lon="32.8272356"><ele>1219.9</ele><time>2015-04-29T07:31:26.0000000+00:00</time></trkpt><trkpt lat="34.959514" lon="32.8272903"><ele>1220.3</ele><time>2015-04-29T07:31:29.0000000+00:00</time></trkpt><trkpt lat="34.9595241" lon="32.8273484"><ele>1222.1</ele><time>2015-04-29T07:31:32.0000000+00:00</time></trkpt><trkpt lat="34.9595322" lon="32.8274074"><ele>1220.8</ele><time>2015-04-29T07:31:35.0000000+00:00</time></trkpt><trkpt lat="34.9595225" lon="32.8274668"><ele>1220.3</ele><time>2015-04-29T07:31:38.0000000+00:00</time></trkpt><trkpt lat="34.9595243" lon="32.8275253"><ele>1217.3</ele><time>2015-04-29T07:31:41.0000000+00:00</time></trkpt><trkpt lat="34.9595465" lon="32.8275855"><ele>1216.1</ele><time>2015-04-29T07:31:44.0000000+00:00</time></trkpt><trkpt lat="34.959573" lon="32.8276522"><ele>1216.7</ele><time>2015-04-29T07:31:47.0000000+00:00</time></trkpt><trkpt lat="34.9595919" lon="32.8277196"><ele>1218.9</ele><time>2015-04-29T07:31:50.0000000+00:00</time></trkpt><trkpt lat="34.9596049" lon="32.8277862"><ele>1219.3</ele><time>2015-04-29T07:31:53.0000000+00:00</time></trkpt><trkpt lat="34.9596074" lon="32.8278511"><ele>1219.0</ele><time>2015-04-29T07:31:56.0000000+00:00</time></trkpt><trkpt lat="34.959592" lon="32.8279141"><ele>1219.7</ele><time>2015-04-29T07:31:59.0000000+00:00</time></trkpt><trkpt lat="34.959573" lon="32.8279722"><ele>1221.1</ele><time>2015-04-29T07:32:02.0000000+00:00</time></trkpt><trkpt lat="34.9595544" lon="32.8280245"><ele>1220.2</ele><time>2015-04-29T07:32:05.0000000+00:00</time></trkpt><trkpt lat="34.959517" lon="32.8280695"><ele>1220.1</ele><time>2015-04-29T07:32:09.0000000+00:00</time></trkpt><trkpt lat="34.9594694" lon="32.828114"><ele>1222.6</ele><time>2015-04-29T07:32:13.0000000+00:00</time></trkpt><trkpt lat="34.9594243" lon="32.8281458"><ele>1224.1</ele><time>2015-04-29T07:32:16.0000000+00:00</time></trkpt><trkpt lat="34.95938" lon="32.828178"><ele>1226.7</ele><time>2015-04-29T07:32:19.0000000+00:00</time></trkpt><trkpt lat="34.9593361" lon="32.8282129"><ele>1227.6</ele><time>2015-04-29T07:32:22.0000000+00:00</time></trkpt><trkpt lat="34.9592865" lon="32.8282379"><ele>1228.7</ele><time>2015-04-29T07:32:25.0000000+00:00</time></trkpt><trkpt lat="34.9592398" lon="32.8282608"><ele>1229.5</ele><time>2015-04-29T07:32:28.0000000+00:00</time></trkpt><trkpt lat="34.9592026" lon="32.828293"><ele>1230.6</ele><time>2015-04-29T07:32:31.0000000+00:00</time></trkpt><trkpt lat="34.9591669" lon="32.8283405"><ele>1230.9</ele><time>2015-04-29T07:32:35.0000000+00:00</time></trkpt><trkpt lat="34.9591353" lon="32.8283919"><ele>1230.9</ele><time>2015-04-29T07:32:38.0000000+00:00</time></trkpt><trkpt lat="34.959133" lon="32.8284503"><ele>1232.0</ele><time>2015-04-29T07:32:41.0000000+00:00</time></trkpt><trkpt lat="34.9591538" lon="32.8285016"><ele>1232.7</ele><time>2015-04-29T07:32:44.0000000+00:00</time></trkpt><trkpt lat="34.9591542" lon="32.8285683"><ele>1232.0</ele><time>2015-04-29T07:32:48.0000000+00:00</time></trkpt><trkpt lat="34.9591725" lon="32.8286329"><ele>1230.1</ele><time>2015-04-29T07:32:52.0000000+00:00</time></trkpt><trkpt lat="34.9591943" lon="32.8286959"><ele>1230.3</ele><time>2015-04-29T07:32:56.0000000+00:00</time></trkpt><trkpt lat="34.959228" lon="32.828757"><ele>1232.9</ele><time>2015-04-29T07:33:00.0000000+00:00</time></trkpt><trkpt lat="34.959232" lon="32.8288183"><ele>1233.6</ele><time>2015-04-29T07:33:04.0000000+00:00</time></trkpt><trkpt lat="34.959219" lon="32.8288772"><ele>1233.9</ele><time>2015-04-29T07:33:08.0000000+00:00</time></trkpt><trkpt lat="34.9591924" lon="32.8289283"><ele>1234.5</ele><time>2015-04-29T07:33:12.0000000+00:00</time></trkpt><trkpt lat="34.9591627" lon="32.8289839"><ele>1235.8</ele><time>2015-04-29T07:33:17.0000000+00:00</time></trkpt><trkpt lat="34.9591214" lon="32.8290273"><ele>1236.3</ele><time>2015-04-29T07:33:21.0000000+00:00</time></trkpt><trkpt lat="34.9590784" lon="32.8290592"><ele>1236.5</ele><time>2015-04-29T07:33:24.0000000+00:00</time></trkpt><trkpt lat="34.9590225" lon="32.8290823"><ele>1238.5</ele><time>2015-04-29T07:33:27.0000000+00:00</time></trkpt><trkpt lat="34.9589622" lon="32.8290981"><ele>1240.0</ele><time>2015-04-29T07:33:30.0000000+00:00</time></trkpt><trkpt lat="34.9589077" lon="32.8291081"><ele>1241.0</ele><time>2015-04-29T07:33:33.0000000+00:00</time></trkpt><trkpt lat="34.9588579" lon="32.8291197"><ele>1240.5</ele><time>2015-04-29T07:33:36.0000000+00:00</time></trkpt><trkpt lat="34.9588127" lon="32.8291291"><ele>1240.7</ele><time>2015-04-29T07:33:39.0000000+00:00</time></trkpt><trkpt lat="34.9587672" lon="32.8291371"><ele>1240.1</ele><time>2015-04-29T07:33:42.0000000+00:00</time></trkpt><trkpt lat="34.9587178" lon="32.8291502"><ele>1241.4</ele><time>2015-04-29T07:33:45.0000000+00:00</time></trkpt><trkpt lat="34.9586584" lon="32.8291559"><ele>1240.7</ele><time>2015-04-29T07:33:49.0000000+00:00</time></trkpt><trkpt lat="34.9586087" lon="32.8291528"><ele>1241.5</ele><time>2015-04-29T07:33:52.0000000+00:00</time></trkpt><trkpt lat="34.9585564" lon="32.8291559"><ele>1241.9</ele><time>2015-04-29T07:33:55.0000000+00:00</time></trkpt><trkpt lat="34.9585037" lon="32.8291638"><ele>1242.7</ele><time>2015-04-29T07:33:58.0000000+00:00</time></trkpt><trkpt lat="34.9584572" lon="32.8291796"><ele>1242.4</ele><time>2015-04-29T07:34:01.0000000+00:00</time></trkpt><trkpt lat="34.9584082" lon="32.8291887"><ele>1243.5</ele><time>2015-04-29T07:34:04.0000000+00:00</time></trkpt><trkpt lat="34.9583489" lon="32.8291922"><ele>1242.6</ele><time>2015-04-29T07:34:08.0000000+00:00</time></trkpt><trkpt lat="34.9582911" lon="32.829194"><ele>1242.4</ele><time>2015-04-29T07:34:12.0000000+00:00</time></trkpt><trkpt lat="34.9582339" lon="32.8292176"><ele>1243.6</ele><time>2015-04-29T07:34:16.0000000+00:00</time></trkpt><trkpt lat="34.9581883" lon="32.8292326"><ele>1243.2</ele><time>2015-04-29T07:34:19.0000000+00:00</time></trkpt><trkpt lat="34.9581478" lon="32.8292568"><ele>1242.0</ele><time>2015-04-29T07:34:22.0000000+00:00</time></trkpt><trkpt lat="34.9581088" lon="32.8292859"><ele>1242.5</ele><time>2015-04-29T07:34:25.0000000+00:00</time></trkpt><trkpt lat="34.9580758" lon="32.8293239"><ele>1243.4</ele><time>2015-04-29T07:34:28.0000000+00:00</time></trkpt><trkpt lat="34.9580516" lon="32.8293784"><ele>1243.7</ele><time>2015-04-29T07:34:32.0000000+00:00</time></trkpt><trkpt lat="34.9580315" lon="32.8294412"><ele>1245.5</ele><time>2015-04-29T07:34:36.0000000+00:00</time></trkpt><trkpt lat="34.9580285" lon="32.8294966"><ele>1246.1</ele><time>2015-04-29T07:34:39.0000000+00:00</time></trkpt><trkpt lat="34.9580234" lon="32.8295646"><ele>1247.2</ele><time>2015-04-29T07:34:43.0000000+00:00</time></trkpt><trkpt lat="34.9580178" lon="32.82962"><ele>1247.6</ele><time>2015-04-29T07:34:46.0000000+00:00</time></trkpt><trkpt lat="34.9580023" lon="32.8296748"><ele>1244.0</ele><time>2015-04-29T07:34:49.0000000+00:00</time></trkpt><trkpt lat="34.9579952" lon="32.8297304"><ele>1243.8</ele><time>2015-04-29T07:34:52.0000000+00:00</time></trkpt><trkpt lat="34.9579998" lon="32.8297888"><ele>1244.6</ele><time>2015-04-29T07:34:55.0000000+00:00</time></trkpt><trkpt lat="34.95801" lon="32.829845"><ele>1243.7</ele><time>2015-04-29T07:34:58.0000000+00:00</time></trkpt><trkpt lat="34.9580266" lon="32.8299151"><ele>1245.1</ele><time>2015-04-29T07:35:02.0000000+00:00</time></trkpt><trkpt lat="34.9580547" lon="32.8299662"><ele>1247.8</ele><time>2015-04-29T07:35:05.0000000+00:00</time></trkpt><trkpt lat="34.9580963" lon="32.8300135"><ele>1249.0</ele><time>2015-04-29T07:35:08.0000000+00:00</time></trkpt><trkpt lat="34.9581248" lon="32.8300608"><ele>1249.7</ele><time>2015-04-29T07:35:11.0000000+00:00</time></trkpt><trkpt lat="34.9581524" lon="32.8301044"><ele>1251.4</ele><time>2015-04-29T07:35:14.0000000+00:00</time></trkpt><trkpt lat="34.9581857" lon="32.8301436"><ele>1252.5</ele><time>2015-04-29T07:35:17.0000000+00:00</time></trkpt><trkpt lat="34.9582249" lon="32.8301973"><ele>1254.9</ele><time>2015-04-29T07:35:21.0000000+00:00</time></trkpt><trkpt lat="34.9582609" lon="32.8302538"><ele>1254.3</ele><time>2015-04-29T07:35:25.0000000+00:00</time></trkpt><trkpt lat="34.9582825" lon="32.8303202"><ele>1254.7</ele><time>2015-04-29T07:35:29.0000000+00:00</time></trkpt><trkpt lat="34.9582904" lon="32.8303742"><ele>1255.6</ele><time>2015-04-29T07:35:32.0000000+00:00</time></trkpt><trkpt lat="34.958299" lon="32.8304455"><ele>1254.9</ele><time>2015-04-29T07:35:36.0000000+00:00</time></trkpt><trkpt lat="34.9583009" lon="32.8305167"><ele>1254.6</ele><time>2015-04-29T07:35:40.0000000+00:00</time></trkpt><trkpt lat="34.9583026" lon="32.8305889"><ele>1256.8</ele><time>2015-04-29T07:35:44.0000000+00:00</time></trkpt><trkpt lat="34.958299" lon="32.8306588"><ele>1257.3</ele><time>2015-04-29T07:35:48.0000000+00:00</time></trkpt><trkpt lat="34.9582905" lon="32.8307286"><ele>1259.9</ele><time>2015-04-29T07:35:52.0000000+00:00</time></trkpt><trkpt lat="34.9582635" lon="32.8307734"><ele>1260.7</ele><time>2015-04-29T07:35:55.0000000+00:00</time></trkpt><trkpt lat="34.9582175" lon="32.8308072"><ele>1262.4</ele><time>2015-04-29T07:35:59.0000000+00:00</time></trkpt><trkpt lat="34.9581812" lon="32.8308512"><ele>1262.2</ele><time>2015-04-29T07:36:03.0000000+00:00</time></trkpt><trkpt lat="34.95814" lon="32.8308836"><ele>1262.3</ele><time>2015-04-29T07:36:07.0000000+00:00</time></trkpt><trkpt lat="34.9580897" lon="32.8308996"><ele>1263.1</ele><time>2015-04-29T07:36:10.0000000+00:00</time></trkpt><trkpt lat="34.9580321" lon="32.8309234"><ele>1262.1</ele><time>2015-04-29T07:36:13.0000000+00:00</time></trkpt><trkpt lat="34.9579804" lon="32.830949"><ele>1261.7</ele><time>2015-04-29T07:36:16.0000000+00:00</time></trkpt><trkpt lat="34.9579361" lon="32.8309674"><ele>1261.5</ele><time>2015-04-29T07:36:19.0000000+00:00</time></trkpt><trkpt lat="34.9578952" lon="32.8309912"><ele>1261.1</ele><time>2015-04-29T07:36:22.0000000+00:00</time></trkpt><trkpt lat="34.9578555" lon="32.8310199"><ele>1261.7</ele><time>2015-04-29T07:36:25.0000000+00:00</time></trkpt><trkpt lat="34.9578099" lon="32.831041"><ele>1262.5</ele><time>2015-04-29T07:36:28.0000000+00:00</time></trkpt><trkpt lat="34.9577706" lon="32.8310734"><ele>1263.6</ele><time>2015-04-29T07:36:31.0000000+00:00</time></trkpt><trkpt lat="34.9577271" lon="32.8311115"><ele>1264.0</ele><time>2015-04-29T07:36:34.0000000+00:00</time></trkpt><trkpt lat="34.9576881" lon="32.831152"><ele>1264.5</ele><time>2015-04-29T07:36:37.0000000+00:00</time></trkpt><trkpt lat="34.9576491" lon="32.8311955"><ele>1266.2</ele><time>2015-04-29T07:36:40.0000000+00:00</time></trkpt><trkpt lat="34.9576149" lon="32.8312547"><ele>1266.7</ele><time>2015-04-29T07:36:44.0000000+00:00</time></trkpt><trkpt lat="34.9576026" lon="32.8313096"><ele>1267.6</ele><time>2015-04-29T07:36:47.0000000+00:00</time></trkpt><trkpt lat="34.9575939" lon="32.8313794"><ele>1267.7</ele><time>2015-04-29T07:36:51.0000000+00:00</time></trkpt><trkpt lat="34.9575893" lon="32.8314342"><ele>1269.1</ele><time>2015-04-29T07:36:54.0000000+00:00</time></trkpt><trkpt lat="34.9575728" lon="32.8315023"><ele>1269.0</ele><time>2015-04-29T07:36:58.0000000+00:00</time></trkpt><trkpt lat="34.9575527" lon="32.8315684"><ele>1268.9</ele><time>2015-04-29T07:37:02.0000000+00:00</time></trkpt><trkpt lat="34.957539" lon="32.8316344"><ele>1269.0</ele><time>2015-04-29T07:37:06.0000000+00:00</time></trkpt><trkpt lat="34.9575194" lon="32.831692"><ele>1269.3</ele><time>2015-04-29T07:37:10.0000000+00:00</time></trkpt><trkpt lat="34.9575116" lon="32.8317508"><ele>1269.7</ele><time>2015-04-29T07:37:14.0000000+00:00</time></trkpt><trkpt lat="34.9574871" lon="32.8318114"><ele>1270.3</ele><time>2015-04-29T07:37:18.0000000+00:00</time></trkpt><trkpt lat="34.9574669" lon="32.8318634"><ele>1268.8</ele><time>2015-04-29T07:37:21.0000000+00:00</time></trkpt><trkpt lat="34.9574876" lon="32.8319171"><ele>1268.0</ele><time>2015-04-29T07:37:48.0000000+00:00</time></trkpt><trkpt lat="34.9574396" lon="32.8319062"><ele>1270.9</ele><time>2015-04-29T07:41:51.0000000+00:00</time></trkpt><trkpt lat="34.9574329" lon="32.8319624"><ele>1273.1</ele><time>2015-04-29T07:41:58.0000000+00:00</time></trkpt><trkpt lat="34.9574457" lon="32.8320187"><ele>1276.1</ele><time>2015-04-29T07:42:13.0000000+00:00</time></trkpt><trkpt lat="34.9574728" lon="32.8320748"><ele>1276.0</ele><time>2015-04-29T07:42:17.0000000+00:00</time></trkpt><trkpt lat="34.9575174" lon="32.8321136"><ele>1274.8</ele><time>2015-04-29T07:42:21.0000000+00:00</time></trkpt><trkpt lat="34.9575802" lon="32.8321251"><ele>1278.1</ele><time>2015-04-29T07:42:25.0000000+00:00</time></trkpt><trkpt lat="34.9576413" lon="32.8321232"><ele>1280.2</ele><time>2015-04-29T07:42:28.0000000+00:00</time></trkpt><trkpt lat="34.9576952" lon="32.8321255"><ele>1279.9</ele><time>2015-04-29T07:42:31.0000000+00:00</time></trkpt><trkpt lat="34.9577475" lon="32.8321239"><ele>1279.3</ele><time>2015-04-29T07:42:34.0000000+00:00</time></trkpt><trkpt lat="34.9577919" lon="32.8321059"><ele>1278.8</ele><time>2015-04-29T07:42:37.0000000+00:00</time></trkpt><trkpt lat="34.9578502" lon="32.8321013"><ele>1280.1</ele><time>2015-04-29T07:42:41.0000000+00:00</time></trkpt><trkpt lat="34.9579088" lon="32.8320967"><ele>1279.8</ele><time>2015-04-29T07:42:45.0000000+00:00</time></trkpt><trkpt lat="34.9579561" lon="32.8320935"><ele>1278.8</ele><time>2015-04-29T07:42:48.0000000+00:00</time></trkpt><trkpt lat="34.9580057" lon="32.8320999"><ele>1277.8</ele><time>2015-04-29T07:42:51.0000000+00:00</time></trkpt><trkpt lat="34.9580565" lon="32.8321295"><ele>1277.8</ele><time>2015-04-29T07:42:54.0000000+00:00</time></trkpt><trkpt lat="34.9580989" lon="32.8321716"><ele>1279.9</ele><time>2015-04-29T07:42:57.0000000+00:00</time></trkpt><trkpt lat="34.9581347" lon="32.8322186"><ele>1280.7</ele><time>2015-04-29T07:43:00.0000000+00:00</time></trkpt><trkpt lat="34.9581788" lon="32.8322508"><ele>1282.5</ele><time>2015-04-29T07:43:03.0000000+00:00</time></trkpt><trkpt lat="34.9582165" lon="32.832291"><ele>1284.1</ele><time>2015-04-29T07:43:06.0000000+00:00</time></trkpt><trkpt lat="34.9582564" lon="32.8323326"><ele>1283.8</ele><time>2015-04-29T07:43:09.0000000+00:00</time></trkpt><trkpt lat="34.9583006" lon="32.8323782"><ele>1283.8</ele><time>2015-04-29T07:43:12.0000000+00:00</time></trkpt><trkpt lat="34.958336" lon="32.8324268"><ele>1283.8</ele><time>2015-04-29T07:43:15.0000000+00:00</time></trkpt><trkpt lat="34.9583736" lon="32.8324742"><ele>1283.8</ele><time>2015-04-29T07:43:18.0000000+00:00</time></trkpt><trkpt lat="34.9584212" lon="32.832514"><ele>1283.9</ele><time>2015-04-29T07:43:21.0000000+00:00</time></trkpt><trkpt lat="34.9584732" lon="32.8325578"><ele>1283.8</ele><time>2015-04-29T07:43:24.0000000+00:00</time></trkpt><trkpt lat="34.9585063" lon="32.8325955"><ele>1283.3</ele><time>2015-04-29T07:43:26.0000000+00:00</time></trkpt><trkpt lat="34.9585511" lon="32.8326539"><ele>1282.1</ele><time>2015-04-29T07:43:29.0000000+00:00</time></trkpt><trkpt lat="34.9585945" lon="32.8327146"><ele>1282.7</ele><time>2015-04-29T07:43:32.0000000+00:00</time></trkpt><trkpt lat="34.9586402" lon="32.832765"><ele>1282.8</ele><time>2015-04-29T07:43:35.0000000+00:00</time></trkpt><trkpt lat="34.9586792" lon="32.83282"><ele>1282.8</ele><time>2015-04-29T07:43:38.0000000+00:00</time></trkpt><trkpt lat="34.9587212" lon="32.8328677"><ele>1282.3</ele><time>2015-04-29T07:43:41.0000000+00:00</time></trkpt><trkpt lat="34.9587619" lon="32.8329248"><ele>1282.3</ele><time>2015-04-29T07:43:44.0000000+00:00</time></trkpt><trkpt lat="34.9587859" lon="32.8329824"><ele>1282.7</ele><time>2015-04-29T07:43:47.0000000+00:00</time></trkpt><trkpt lat="34.9588211" lon="32.8330295"><ele>1282.4</ele><time>2015-04-29T07:43:50.0000000+00:00</time></trkpt><trkpt lat="34.9588517" lon="32.8330833"><ele>1282.7</ele><time>2015-04-29T07:43:53.0000000+00:00</time></trkpt><trkpt lat="34.9588738" lon="32.8331429"><ele>1282.8</ele><time>2015-04-29T07:43:56.0000000+00:00</time></trkpt><trkpt lat="34.9588993" lon="32.8332051"><ele>1284.4</ele><time>2015-04-29T07:43:59.0000000+00:00</time></trkpt><trkpt lat="34.9589262" lon="32.8332698"><ele>1284.7</ele><time>2015-04-29T07:44:02.0000000+00:00</time></trkpt><trkpt lat="34.9589483" lon="32.8333384"><ele>1284.9</ele><time>2015-04-29T07:44:05.0000000+00:00</time></trkpt><trkpt lat="34.9589605" lon="32.8334086"><ele>1284.8</ele><time>2015-04-29T07:44:08.0000000+00:00</time></trkpt><trkpt lat="34.958969" lon="32.8334768"><ele>1283.9</ele><time>2015-04-29T07:44:11.0000000+00:00</time></trkpt><trkpt lat="34.9589735" lon="32.8335395"><ele>1284.4</ele><time>2015-04-29T07:44:14.0000000+00:00</time></trkpt><trkpt lat="34.9589665" lon="32.8336083"><ele>1282.6</ele><time>2015-04-29T07:44:18.0000000+00:00</time></trkpt><trkpt lat="34.9589617" lon="32.8336814"><ele>1282.6</ele><time>2015-04-29T07:44:22.0000000+00:00</time></trkpt><trkpt lat="34.9589567" lon="32.8337489"><ele>1281.9</ele><time>2015-04-29T07:44:26.0000000+00:00</time></trkpt><trkpt lat="34.9589597" lon="32.833808"><ele>1283.2</ele><time>2015-04-29T07:44:29.0000000+00:00</time></trkpt><trkpt lat="34.958977" lon="32.8338704"><ele>1282.8</ele><time>2015-04-29T07:44:32.0000000+00:00</time></trkpt><trkpt lat="34.9589929" lon="32.8339364"><ele>1282.8</ele><time>2015-04-29T07:44:35.0000000+00:00</time></trkpt><trkpt lat="34.9590061" lon="32.8340025"><ele>1284.3</ele><time>2015-04-29T07:44:38.0000000+00:00</time></trkpt><trkpt lat="34.9590126" lon="32.8340668"><ele>1283.8</ele><time>2015-04-29T07:44:41.0000000+00:00</time></trkpt><trkpt lat="34.9590265" lon="32.8341372"><ele>1287.4</ele><time>2015-04-29T07:44:44.0000000+00:00</time></trkpt><trkpt lat="34.959045" lon="32.8342071"><ele>1288.8</ele><time>2015-04-29T07:44:47.0000000+00:00</time></trkpt><trkpt lat="34.9590502" lon="32.8342684"><ele>1286.6</ele><time>2015-04-29T07:44:50.0000000+00:00</time></trkpt><trkpt lat="34.9590411" lon="32.8343319"><ele>1287.5</ele><time>2015-04-29T07:44:53.0000000+00:00</time></trkpt><trkpt lat="34.9590174" lon="32.8343939"><ele>1288.6</ele><time>2015-04-29T07:44:56.0000000+00:00</time></trkpt><trkpt lat="34.9590011" lon="32.8344511"><ele>1287.4</ele><time>2015-04-29T07:44:59.0000000+00:00</time></trkpt><trkpt lat="34.958988" lon="32.8345048"><ele>1287.8</ele><time>2015-04-29T07:45:02.0000000+00:00</time></trkpt><trkpt lat="34.9589733" lon="32.8345608"><ele>1289.3</ele><time>2015-04-29T07:45:05.0000000+00:00</time></trkpt><trkpt lat="34.9589451" lon="32.8346096"><ele>1290.5</ele><time>2015-04-29T07:45:08.0000000+00:00</time></trkpt><trkpt lat="34.9589188" lon="32.8346567"><ele>1291.2</ele><time>2015-04-29T07:45:11.0000000+00:00</time></trkpt><trkpt lat="34.9589018" lon="32.834718"><ele>1291.7</ele><time>2015-04-29T07:45:15.0000000+00:00</time></trkpt><trkpt lat="34.9588808" lon="32.8347752"><ele>1291.8</ele><time>2015-04-29T07:45:19.0000000+00:00</time></trkpt><trkpt lat="34.9588373" lon="32.8348216"><ele>1292.1</ele><time>2015-04-29T07:45:23.0000000+00:00</time></trkpt><trkpt lat="34.9588065" lon="32.8348645"><ele>1290.3</ele><time>2015-04-29T07:45:26.0000000+00:00</time></trkpt><trkpt lat="34.9587738" lon="32.8349046"><ele>1289.8</ele><time>2015-04-29T07:45:29.0000000+00:00</time></trkpt><trkpt lat="34.9587466" lon="32.8349683"><ele>1289.1</ele><time>2015-04-29T07:45:33.0000000+00:00</time></trkpt><trkpt lat="34.9587254" lon="32.835023"><ele>1290.7</ele><time>2015-04-29T07:45:37.0000000+00:00</time></trkpt><trkpt lat="34.9587137" lon="32.8350825"><ele>1292.4</ele><time>2015-04-29T07:45:41.0000000+00:00</time></trkpt><trkpt lat="34.9586871" lon="32.8351328"><ele>1296.3</ele><time>2015-04-29T07:45:45.0000000+00:00</time></trkpt><trkpt lat="34.9586481" lon="32.8351713"><ele>1297.0</ele><time>2015-04-29T07:45:48.0000000+00:00</time></trkpt><trkpt lat="34.9586137" lon="32.8352186"><ele>1297.2</ele><time>2015-04-29T07:45:51.0000000+00:00</time></trkpt><trkpt lat="34.9585736" lon="32.8352612"><ele>1296.8</ele><time>2015-04-29T07:45:54.0000000+00:00</time></trkpt><trkpt lat="34.9585516" lon="32.835311"><ele>1295.5</ele><time>2015-04-29T07:45:57.0000000+00:00</time></trkpt><trkpt lat="34.9585535" lon="32.8353728"><ele>1296.9</ele><time>2015-04-29T07:46:00.0000000+00:00</time></trkpt><trkpt lat="34.958548" lon="32.835431"><ele>1294.5</ele><time>2015-04-29T07:46:03.0000000+00:00</time></trkpt><trkpt lat="34.9585566" lon="32.8354981"><ele>1294.2</ele><time>2015-04-29T07:46:07.0000000+00:00</time></trkpt><trkpt lat="34.9585837" lon="32.8355515"><ele>1295.9</ele><time>2015-04-29T07:46:10.0000000+00:00</time></trkpt><trkpt lat="34.9586084" lon="32.8356008"><ele>1297.3</ele><time>2015-04-29T07:46:13.0000000+00:00</time></trkpt><trkpt lat="34.9586499" lon="32.8356536"><ele>1297.5</ele><time>2015-04-29T07:46:17.0000000+00:00</time></trkpt><trkpt lat="34.9586947" lon="32.8356858"><ele>1299.9</ele><time>2015-04-29T07:46:20.0000000+00:00</time></trkpt><trkpt lat="34.958752" lon="32.8357092"><ele>1302.9</ele><time>2015-04-29T07:46:23.0000000+00:00</time></trkpt><trkpt lat="34.9588027" lon="32.8357337"><ele>1302.9</ele><time>2015-04-29T07:46:26.0000000+00:00</time></trkpt><trkpt lat="34.9588448" lon="32.8357565"><ele>1302.0</ele><time>2015-04-29T07:46:29.0000000+00:00</time></trkpt><trkpt lat="34.958892" lon="32.8357611"><ele>1301.5</ele><time>2015-04-29T07:46:32.0000000+00:00</time></trkpt><trkpt lat="34.9589408" lon="32.8357728"><ele>1301.7</ele><time>2015-04-29T07:46:35.0000000+00:00</time></trkpt><trkpt lat="34.958997" lon="32.8357848"><ele>1302.2</ele><time>2015-04-29T07:46:39.0000000+00:00</time></trkpt><trkpt lat="34.9590479" lon="32.8358039"><ele>1300.0</ele><time>2015-04-29T07:46:43.0000000+00:00</time></trkpt><trkpt lat="34.9591052" lon="32.8358138"><ele>1300.3</ele><time>2015-04-29T07:46:47.0000000+00:00</time></trkpt><trkpt lat="34.95916" lon="32.8358345"><ele>1301.4</ele><time>2015-04-29T07:46:51.0000000+00:00</time></trkpt><trkpt lat="34.9591992" lon="32.8358637"><ele>1301.0</ele><time>2015-04-29T07:46:54.0000000+00:00</time></trkpt><trkpt lat="34.9592372" lon="32.8358943"><ele>1300.5</ele><time>2015-04-29T07:46:57.0000000+00:00</time></trkpt><trkpt lat="34.9592734" lon="32.8359322"><ele>1300.7</ele><time>2015-04-29T07:47:00.0000000+00:00</time></trkpt><trkpt lat="34.9593072" lon="32.8359721"><ele>1301.3</ele><time>2015-04-29T07:47:03.0000000+00:00</time></trkpt><trkpt lat="34.9593406" lon="32.8360122"><ele>1301.5</ele><time>2015-04-29T07:47:06.0000000+00:00</time></trkpt><trkpt lat="34.9593649" lon="32.836059"><ele>1303.1</ele><time>2015-04-29T07:47:09.0000000+00:00</time></trkpt><trkpt lat="34.9593876" lon="32.8361071"><ele>1304.4</ele><time>2015-04-29T07:47:12.0000000+00:00</time></trkpt><trkpt lat="34.9594168" lon="32.8361732"><ele>1306.7</ele><time>2015-04-29T07:47:16.0000000+00:00</time></trkpt><trkpt lat="34.9594406" lon="32.8362207"><ele>1308.0</ele><time>2015-04-29T07:47:19.0000000+00:00</time></trkpt><trkpt lat="34.9594511" lon="32.83629"><ele>1310.5</ele><time>2015-04-29T07:47:23.0000000+00:00</time></trkpt><trkpt lat="34.9594611" lon="32.8363545"><ele>1311.9</ele><time>2015-04-29T07:47:27.0000000+00:00</time></trkpt><trkpt lat="34.959471" lon="32.8364206"><ele>1312.2</ele><time>2015-04-29T07:47:31.0000000+00:00</time></trkpt><trkpt lat="34.9594742" lon="32.836476"><ele>1312.1</ele><time>2015-04-29T07:47:34.0000000+00:00</time></trkpt><trkpt lat="34.9594784" lon="32.8365425"><ele>1310.9</ele><time>2015-04-29T07:47:38.0000000+00:00</time></trkpt><trkpt lat="34.9594848" lon="32.8366085"><ele>1310.8</ele><time>2015-04-29T07:47:42.0000000+00:00</time></trkpt><trkpt lat="34.9595065" lon="32.8366746"><ele>1311.6</ele><time>2015-04-29T07:47:46.0000000+00:00</time></trkpt><trkpt lat="34.9595236" lon="32.8367257"><ele>1310.4</ele><time>2015-04-29T07:47:49.0000000+00:00</time></trkpt><trkpt lat="34.9595276" lon="32.8367805"><ele>1312.3</ele><time>2015-04-29T07:47:52.0000000+00:00</time></trkpt><trkpt lat="34.9595198" lon="32.8368457"><ele>1311.9</ele><time>2015-04-29T07:47:56.0000000+00:00</time></trkpt><trkpt lat="34.959507" lon="32.8369077"><ele>1310.5</ele><time>2015-04-29T07:48:00.0000000+00:00</time></trkpt><trkpt lat="34.9594924" lon="32.8369603"><ele>1306.8</ele><time>2015-04-29T07:48:04.0000000+00:00</time></trkpt><trkpt lat="34.9594849" lon="32.8370187"><ele>1308.0</ele><time>2015-04-29T07:48:08.0000000+00:00</time></trkpt><trkpt lat="34.959492" lon="32.8370753"><ele>1310.4</ele><time>2015-04-29T07:48:11.0000000+00:00</time></trkpt><trkpt lat="34.9594838" lon="32.8371321"><ele>1311.1</ele><time>2015-04-29T07:48:14.0000000+00:00</time></trkpt><trkpt lat="34.9594533" lon="32.8371877"><ele>1310.8</ele><time>2015-04-29T07:48:18.0000000+00:00</time></trkpt><trkpt lat="34.9594329" lon="32.8372449"><ele>1310.8</ele><time>2015-04-29T07:48:22.0000000+00:00</time></trkpt><trkpt lat="34.9593879" lon="32.8372694"><ele>1310.8</ele><time>2015-04-29T07:48:26.0000000+00:00</time></trkpt><trkpt lat="34.9593346" lon="32.8372676"><ele>1309.8</ele><time>2015-04-29T07:48:31.0000000+00:00</time></trkpt><trkpt lat="34.9593769" lon="32.8373095"><ele>1310.7</ele><time>2015-04-29T07:48:52.0000000+00:00</time></trkpt><trkpt lat="34.9594305" lon="32.8373486"><ele>1311.6</ele><time>2015-04-29T07:48:55.0000000+00:00</time></trkpt><trkpt lat="34.9594723" lon="32.8373736"><ele>1312.7</ele><time>2015-04-29T07:48:57.0000000+00:00</time></trkpt><trkpt lat="34.9595135" lon="32.8373987"><ele>1313.0</ele><time>2015-04-29T07:48:59.0000000+00:00</time></trkpt><trkpt lat="34.9595556" lon="32.8374298"><ele>1314.3</ele><time>2015-04-29T07:49:01.0000000+00:00</time></trkpt><trkpt lat="34.9595975" lon="32.83746"><ele>1314.7</ele><time>2015-04-29T07:49:03.0000000+00:00</time></trkpt><trkpt lat="34.959633" lon="32.8374981"><ele>1315.0</ele><time>2015-04-29T07:49:05.0000000+00:00</time></trkpt><trkpt lat="34.9596744" lon="32.8375561"><ele>1314.3</ele><time>2015-04-29T07:49:08.0000000+00:00</time></trkpt><trkpt lat="34.9597129" lon="32.8376166"><ele>1314.5</ele><time>2015-04-29T07:49:11.0000000+00:00</time></trkpt><trkpt lat="34.9597507" lon="32.8376616"><ele>1314.7</ele><time>2015-04-29T07:49:14.0000000+00:00</time></trkpt><trkpt lat="34.9596911" lon="32.8376352"><ele>1310.4</ele><time>2015-04-29T07:49:59.0000000+00:00</time></trkpt><trkpt lat="34.9596485" lon="32.8375713"><ele>1310.7</ele><time>2015-04-29T07:50:02.0000000+00:00</time></trkpt><trkpt lat="34.9596015" lon="32.8375258"><ele>1310.8</ele><time>2015-04-29T07:50:04.0000000+00:00</time></trkpt><trkpt lat="34.9595612" lon="32.8374897"><ele>1311.5</ele><time>2015-04-29T07:50:06.0000000+00:00</time></trkpt><trkpt lat="34.959519" lon="32.8374595"><ele>1311.7</ele><time>2015-04-29T07:50:08.0000000+00:00</time></trkpt><trkpt lat="34.959476" lon="32.8374247"><ele>1312.2</ele><time>2015-04-29T07:50:10.0000000+00:00</time></trkpt><trkpt lat="34.9594324" lon="32.8373939"><ele>1313.4</ele><time>2015-04-29T07:50:12.0000000+00:00</time></trkpt><trkpt lat="34.9593879" lon="32.837362"><ele>1313.7</ele><time>2015-04-29T07:50:14.0000000+00:00</time></trkpt><trkpt lat="34.9593447" lon="32.8373332"><ele>1313.0</ele><time>2015-04-29T07:50:16.0000000+00:00</time></trkpt><trkpt lat="34.9593003" lon="32.8372792"><ele>1314.2</ele><time>2015-04-29T07:50:19.0000000+00:00</time></trkpt><trkpt lat="34.9592589" lon="32.8372552"><ele>1313.8</ele><time>2015-04-29T07:50:24.0000000+00:00</time></trkpt><trkpt lat="34.9592128" lon="32.8372713"><ele>1313.0</ele><time>2015-04-29T07:50:28.0000000+00:00</time></trkpt><trkpt lat="34.959166" lon="32.8372822"><ele>1313.2</ele><time>2015-04-29T07:50:31.0000000+00:00</time></trkpt><trkpt lat="34.959109" lon="32.8372897"><ele>1313.7</ele><time>2015-04-29T07:50:35.0000000+00:00</time></trkpt><trkpt lat="34.9590495" lon="32.837291"><ele>1315.5</ele><time>2015-04-29T07:50:39.0000000+00:00</time></trkpt><trkpt lat="34.9590026" lon="32.8372914"><ele>1314.5</ele><time>2015-04-29T07:50:42.0000000+00:00</time></trkpt><trkpt lat="34.9589458" lon="32.8372842"><ele>1314.7</ele><time>2015-04-29T07:50:46.0000000+00:00</time></trkpt><trkpt lat="34.9588955" lon="32.8372651"><ele>1316.4</ele><time>2015-04-29T07:50:49.0000000+00:00</time></trkpt><trkpt lat="34.9588379" lon="32.8372611"><ele>1316.7</ele><time>2015-04-29T07:50:52.0000000+00:00</time></trkpt><trkpt lat="34.9587814" lon="32.8372463"><ele>1315.8</ele><time>2015-04-29T07:50:55.0000000+00:00</time></trkpt><trkpt lat="34.9587238" lon="32.8372418"><ele>1315.9</ele><time>2015-04-29T07:50:58.0000000+00:00</time></trkpt><trkpt lat="34.9586696" lon="32.8372241"><ele>1315.0</ele><time>2015-04-29T07:51:01.0000000+00:00</time></trkpt><trkpt lat="34.9586193" lon="32.8372039"><ele>1314.8</ele><time>2015-04-29T07:51:04.0000000+00:00</time></trkpt><trkpt lat="34.9585712" lon="32.837185"><ele>1316.0</ele><time>2015-04-29T07:51:07.0000000+00:00</time></trkpt><trkpt lat="34.9585192" lon="32.8371721"><ele>1318.0</ele><time>2015-04-29T07:51:10.0000000+00:00</time></trkpt><trkpt lat="34.9584589" lon="32.8371677"><ele>1319.9</ele><time>2015-04-29T07:51:13.0000000+00:00</time></trkpt><trkpt lat="34.9584039" lon="32.8371526"><ele>1320.9</ele><time>2015-04-29T07:51:16.0000000+00:00</time></trkpt><trkpt lat="34.9583491" lon="32.837138"><ele>1321.5</ele><time>2015-04-29T07:51:19.0000000+00:00</time></trkpt><trkpt lat="34.95829" lon="32.8371244"><ele>1322.6</ele><time>2015-04-29T07:51:22.0000000+00:00</time></trkpt><trkpt lat="34.9582304" lon="32.8371125"><ele>1325.6</ele><time>2015-04-29T07:51:25.0000000+00:00</time></trkpt><trkpt lat="34.9581748" lon="32.8370957"><ele>1326.1</ele><time>2015-04-29T07:51:28.0000000+00:00</time></trkpt><trkpt lat="34.9581245" lon="32.8370765"><ele>1325.1</ele><time>2015-04-29T07:51:31.0000000+00:00</time></trkpt><trkpt lat="34.9580715" lon="32.8370626"><ele>1325.7</ele><time>2015-04-29T07:51:34.0000000+00:00</time></trkpt><trkpt lat="34.9580227" lon="32.837044"><ele>1325.8</ele><time>2015-04-29T07:51:37.0000000+00:00</time></trkpt><trkpt lat="34.9579762" lon="32.8370272"><ele>1326.3</ele><time>2015-04-29T07:51:40.0000000+00:00</time></trkpt><trkpt lat="34.9579224" lon="32.8370031"><ele>1326.2</ele><time>2015-04-29T07:51:44.0000000+00:00</time></trkpt><trkpt lat="34.9578756" lon="32.8369895"><ele>1326.2</ele><time>2015-04-29T07:51:48.0000000+00:00</time></trkpt><trkpt lat="34.9578271" lon="32.836966"><ele>1325.7</ele><time>2015-04-29T07:51:53.0000000+00:00</time></trkpt><trkpt lat="34.9577783" lon="32.8369347"><ele>1326.9</ele><time>2015-04-29T07:51:58.0000000+00:00</time></trkpt><trkpt lat="34.9577331" lon="32.8369114"><ele>1325.9</ele><time>2015-04-29T07:52:02.0000000+00:00</time></trkpt><trkpt lat="34.9576932" lon="32.8368855"><ele>1326.2</ele><time>2015-04-29T07:52:06.0000000+00:00</time></trkpt><trkpt lat="34.9576421" lon="32.8368721"><ele>1325.3</ele><time>2015-04-29T07:52:11.0000000+00:00</time></trkpt><trkpt lat="34.9575972" lon="32.8368514"><ele>1329.6</ele><time>2015-04-29T07:52:36.0000000+00:00</time></trkpt><trkpt lat="34.9575374" lon="32.8368495"><ele>1330.0</ele><time>2015-04-29T07:52:39.0000000+00:00</time></trkpt><trkpt lat="34.9574809" lon="32.8368331"><ele>1330.3</ele><time>2015-04-29T07:52:41.0000000+00:00</time></trkpt><trkpt lat="34.9574169" lon="32.8368055"><ele>1328.4</ele><time>2015-04-29T07:52:43.0000000+00:00</time></trkpt><trkpt lat="34.9573382" lon="32.8367707"><ele>1327.7</ele><time>2015-04-29T07:52:45.0000000+00:00</time></trkpt><trkpt lat="34.957266" lon="32.8367465"><ele>1329.5</ele><time>2015-04-29T07:52:47.0000000+00:00</time></trkpt><trkpt lat="34.9572071" lon="32.8367147"><ele>1331.2</ele><time>2015-04-29T07:52:49.0000000+00:00</time></trkpt><trkpt lat="34.9571678" lon="32.836681"><ele>1332.4</ele><time>2015-04-29T07:52:51.0000000+00:00</time></trkpt><trkpt lat="34.957107" lon="32.836661"><ele>1333.6</ele><time>2015-04-29T07:52:54.0000000+00:00</time></trkpt><trkpt lat="34.9570648" lon="32.8366269"><ele>1333.8</ele><time>2015-04-29T07:52:58.0000000+00:00</time></trkpt><trkpt lat="34.9570288" lon="32.8365756"><ele>1334.1</ele><time>2015-04-29T07:53:02.0000000+00:00</time></trkpt><trkpt lat="34.9570383" lon="32.8365014"><ele>1334.9</ele><time>2015-04-29T07:55:27.0000000+00:00</time></trkpt><trkpt lat="34.9570418" lon="32.8364213"><ele>1335.7</ele><time>2015-04-29T07:55:30.0000000+00:00</time></trkpt><trkpt lat="34.9570614" lon="32.8363619"><ele>1336.5</ele><time>2015-04-29T07:55:32.0000000+00:00</time></trkpt><trkpt lat="34.9570865" lon="32.8363087"><ele>1336.7</ele><time>2015-04-29T07:55:34.0000000+00:00</time></trkpt><trkpt lat="34.9571102" lon="32.8362567"><ele>1336.2</ele><time>2015-04-29T07:55:36.0000000+00:00</time></trkpt><trkpt lat="34.9571297" lon="32.8361953"><ele>1335.5</ele><time>2015-04-29T07:55:39.0000000+00:00</time></trkpt><trkpt lat="34.9571481" lon="32.836142"><ele>1335.2</ele><time>2015-04-29T07:55:42.0000000+00:00</time></trkpt><trkpt lat="34.9571472" lon="32.8360806"><ele>1334.3</ele><time>2015-04-29T07:55:45.0000000+00:00</time></trkpt><trkpt lat="34.9571662" lon="32.8360184"><ele>1333.6</ele><time>2015-04-29T07:55:48.0000000+00:00</time></trkpt><trkpt lat="34.9571854" lon="32.8359543"><ele>1334.5</ele><time>2015-04-29T07:55:51.0000000+00:00</time></trkpt><trkpt lat="34.9571856" lon="32.8358841"><ele>1332.6</ele><time>2015-04-29T07:55:54.0000000+00:00</time></trkpt><trkpt lat="34.9571837" lon="32.8358138"><ele>1332.4</ele><time>2015-04-29T07:55:57.0000000+00:00</time></trkpt><trkpt lat="34.9571708" lon="32.8357368"><ele>1333.6</ele><time>2015-04-29T07:56:00.0000000+00:00</time></trkpt><trkpt lat="34.9571601" lon="32.8356651"><ele>1335.4</ele><time>2015-04-29T07:56:03.0000000+00:00</time></trkpt><trkpt lat="34.9571642" lon="32.835592"><ele>1336.1</ele><time>2015-04-29T07:56:06.0000000+00:00</time></trkpt><trkpt lat="34.9571512" lon="32.8355254"><ele>1335.7</ele><time>2015-04-29T07:56:09.0000000+00:00</time></trkpt><trkpt lat="34.957127" lon="32.8354622"><ele>1337.4</ele><time>2015-04-29T07:56:12.0000000+00:00</time></trkpt><trkpt lat="34.95711" lon="32.8354004"><ele>1338.2</ele><time>2015-04-29T07:56:15.0000000+00:00</time></trkpt><trkpt lat="34.9570975" lon="32.8353384"><ele>1337.4</ele><time>2015-04-29T07:56:18.0000000+00:00</time></trkpt><trkpt lat="34.9571019" lon="32.8352582"><ele>1337.7</ele><time>2015-04-29T07:56:21.0000000+00:00</time></trkpt><trkpt lat="34.9571257" lon="32.8351828"><ele>1339.3</ele><time>2015-04-29T07:56:24.0000000+00:00</time></trkpt><trkpt lat="34.9571445" lon="32.8351255"><ele>1339.4</ele><time>2015-04-29T07:56:26.0000000+00:00</time></trkpt><trkpt lat="34.9571709" lon="32.8350648"><ele>1341.2</ele><time>2015-04-29T07:56:28.0000000+00:00</time></trkpt><trkpt lat="34.9572101" lon="32.8349981"><ele>1341.9</ele><time>2015-04-29T07:56:30.0000000+00:00</time></trkpt><trkpt lat="34.9572475" lon="32.8349318"><ele>1342.0</ele><time>2015-04-29T07:56:32.0000000+00:00</time></trkpt><trkpt lat="34.9572886" lon="32.8348725"><ele>1341.8</ele><time>2015-04-29T07:56:34.0000000+00:00</time></trkpt><trkpt lat="34.9573356" lon="32.8348248"><ele>1341.8</ele><time>2015-04-29T07:56:36.0000000+00:00</time></trkpt><trkpt lat="34.9573761" lon="32.8347807"><ele>1342.3</ele><time>2015-04-29T07:56:38.0000000+00:00</time></trkpt><trkpt lat="34.9574176" lon="32.8347372"><ele>1343.4</ele><time>2015-04-29T07:56:40.0000000+00:00</time></trkpt><trkpt lat="34.9574554" lon="32.8347029"><ele>1343.7</ele><time>2015-04-29T07:56:42.0000000+00:00</time></trkpt><trkpt lat="34.9574906" lon="32.8346652"><ele>1343.7</ele><time>2015-04-29T07:56:44.0000000+00:00</time></trkpt><trkpt lat="34.9575303" lon="32.8346343"><ele>1343.8</ele><time>2015-04-29T07:56:46.0000000+00:00</time></trkpt><trkpt lat="34.9575791" lon="32.8345869"><ele>1343.3</ele><time>2015-04-29T07:56:49.0000000+00:00</time></trkpt><trkpt lat="34.9576158" lon="32.8345346"><ele>1342.7</ele><time>2015-04-29T07:56:52.0000000+00:00</time></trkpt><trkpt lat="34.9576328" lon="32.834474"><ele>1344.1</ele><time>2015-04-29T07:56:55.0000000+00:00</time></trkpt><trkpt lat="34.9576263" lon="32.8344088"><ele>1344.7</ele><time>2015-04-29T07:56:58.0000000+00:00</time></trkpt><trkpt lat="34.9576018" lon="32.8343482"><ele>1344.8</ele><time>2015-04-29T07:57:01.0000000+00:00</time></trkpt><trkpt lat="34.9575726" lon="32.8342915"><ele>1345.5</ele><time>2015-04-29T07:57:04.0000000+00:00</time></trkpt><trkpt lat="34.9575385" lon="32.8342408"><ele>1346.2</ele><time>2015-04-29T07:57:07.0000000+00:00</time></trkpt><trkpt lat="34.957498" lon="32.8342052"><ele>1347.4</ele><time>2015-04-29T07:57:10.0000000+00:00</time></trkpt><trkpt lat="34.9574502" lon="32.8341798"><ele>1347.7</ele><time>2015-04-29T07:57:13.0000000+00:00</time></trkpt><trkpt lat="34.9574" lon="32.8341615"><ele>1347.8</ele><time>2015-04-29T07:57:16.0000000+00:00</time></trkpt><trkpt lat="34.957347" lon="32.8341601"><ele>1348.9</ele><time>2015-04-29T07:57:19.0000000+00:00</time></trkpt><trkpt lat="34.9572949" lon="32.8341635"><ele>1349.5</ele><time>2015-04-29T07:57:22.0000000+00:00</time></trkpt><trkpt lat="34.9572449" lon="32.8341748"><ele>1351.4</ele><time>2015-04-29T07:57:25.0000000+00:00</time></trkpt><trkpt lat="34.9571952" lon="32.8341701"><ele>1351.2</ele><time>2015-04-29T07:57:28.0000000+00:00</time></trkpt><trkpt lat="34.9571393" lon="32.8341654"><ele>1351.7</ele><time>2015-04-29T07:57:31.0000000+00:00</time></trkpt><trkpt lat="34.9570865" lon="32.8341549"><ele>1353.1</ele><time>2015-04-29T07:57:34.0000000+00:00</time></trkpt><trkpt lat="34.9570373" lon="32.8341372"><ele>1353.7</ele><time>2015-04-29T07:57:37.0000000+00:00</time></trkpt><trkpt lat="34.9569918" lon="32.8341095"><ele>1353.8</ele><time>2015-04-29T07:57:40.0000000+00:00</time></trkpt><trkpt lat="34.9569499" lon="32.8340723"><ele>1352.1</ele><time>2015-04-29T07:57:43.0000000+00:00</time></trkpt><trkpt lat="34.9569016" lon="32.8340526"><ele>1353.3</ele><time>2015-04-29T07:57:46.0000000+00:00</time></trkpt><trkpt lat="34.9568513" lon="32.8340256"><ele>1353.7</ele><time>2015-04-29T07:57:49.0000000+00:00</time></trkpt><trkpt lat="34.9567969" lon="32.834003"><ele>1354.5</ele><time>2015-04-29T07:57:52.0000000+00:00</time></trkpt><trkpt lat="34.9567476" lon="32.833976"><ele>1356.9</ele><time>2015-04-29T07:57:55.0000000+00:00</time></trkpt><trkpt lat="34.9567034" lon="32.833951"><ele>1358.2</ele><time>2015-04-29T07:57:58.0000000+00:00</time></trkpt><trkpt lat="34.9566457" lon="32.8339314"><ele>1359.9</ele><time>2015-04-29T07:58:02.0000000+00:00</time></trkpt><trkpt lat="34.9566006" lon="32.8339156"><ele>1360.2</ele><time>2015-04-29T07:58:05.0000000+00:00</time></trkpt><trkpt lat="34.9565578" lon="32.833893"><ele>1360.3</ele><time>2015-04-29T07:58:08.0000000+00:00</time></trkpt><trkpt lat="34.9565087" lon="32.8338884"><ele>1360.7</ele><time>2015-04-29T07:58:11.0000000+00:00</time></trkpt><trkpt lat="34.9564558" lon="32.8338744"><ele>1361.9</ele><time>2015-04-29T07:58:14.0000000+00:00</time></trkpt><trkpt lat="34.9564009" lon="32.8338608"><ele>1361.9</ele><time>2015-04-29T07:58:17.0000000+00:00</time></trkpt><trkpt lat="34.956345" lon="32.8338548"><ele>1361.4</ele><time>2015-04-29T07:58:20.0000000+00:00</time></trkpt><trkpt lat="34.9562914" lon="32.8338539"><ele>1361.7</ele><time>2015-04-29T07:58:23.0000000+00:00</time></trkpt><trkpt lat="34.9562405" lon="32.8338585"><ele>1362.5</ele><time>2015-04-29T07:58:26.0000000+00:00</time></trkpt><trkpt lat="34.956189" lon="32.8338721"><ele>1362.2</ele><time>2015-04-29T07:58:29.0000000+00:00</time></trkpt><trkpt lat="34.9561384" lon="32.8338879"><ele>1363.2</ele><time>2015-04-29T07:58:32.0000000+00:00</time></trkpt><trkpt lat="34.9560936" lon="32.8339202"><ele>1363.7</ele><time>2015-04-29T07:58:35.0000000+00:00</time></trkpt><trkpt lat="34.9560414" lon="32.8339461"><ele>1363.8</ele><time>2015-04-29T07:58:38.0000000+00:00</time></trkpt><trkpt lat="34.9559952" lon="32.8339792"><ele>1363.8</ele><time>2015-04-29T07:58:41.0000000+00:00</time></trkpt><trkpt lat="34.9559487" lon="32.8340122"><ele>1365.0</ele><time>2015-04-29T07:58:44.0000000+00:00</time></trkpt><trkpt lat="34.9558998" lon="32.8340487"><ele>1364.9</ele><time>2015-04-29T07:58:47.0000000+00:00</time></trkpt><trkpt lat="34.9558496" lon="32.8340883"><ele>1365.4</ele><time>2015-04-29T07:58:50.0000000+00:00</time></trkpt><trkpt lat="34.955812" lon="32.8341376"><ele>1366.5</ele><time>2015-04-29T07:58:53.0000000+00:00</time></trkpt><trkpt lat="34.9557721" lon="32.8341653"><ele>1366.7</ele><time>2015-04-29T07:58:56.0000000+00:00</time></trkpt><trkpt lat="34.9557285" lon="32.8342153"><ele>1367.1</ele><time>2015-04-29T07:59:00.0000000+00:00</time></trkpt><trkpt lat="34.9556839" lon="32.8342408"><ele>1367.7</ele><time>2015-04-29T07:59:03.0000000+00:00</time></trkpt><trkpt lat="34.9556419" lon="32.8342743"><ele>1367.1</ele><time>2015-04-29T07:59:06.0000000+00:00</time></trkpt><trkpt lat="34.9555991" lon="32.834295"><ele>1367.7</ele><time>2015-04-29T07:59:09.0000000+00:00</time></trkpt><trkpt lat="34.9555564" lon="32.8343305"><ele>1368.5</ele><time>2015-04-29T07:59:12.0000000+00:00</time></trkpt><trkpt lat="34.9555158" lon="32.8343746"><ele>1367.9</ele><time>2015-04-29T07:59:15.0000000+00:00</time></trkpt><trkpt lat="34.9554769" lon="32.8344117"><ele>1369.0</ele><time>2015-04-29T07:59:18.0000000+00:00</time></trkpt><trkpt lat="34.955437" lon="32.8344483"><ele>1368.8</ele><time>2015-04-29T07:59:21.0000000+00:00</time></trkpt><trkpt lat="34.9553907" lon="32.8344748"><ele>1369.5</ele><time>2015-04-29T07:59:24.0000000+00:00</time></trkpt><trkpt lat="34.9553406" lon="32.8345025"><ele>1369.7</ele><time>2015-04-29T07:59:27.0000000+00:00</time></trkpt><trkpt lat="34.9552975" lon="32.8345367"><ele>1368.9</ele><time>2015-04-29T07:59:30.0000000+00:00</time></trkpt><trkpt lat="34.9552634" lon="32.8345751"><ele>1368.8</ele><time>2015-04-29T07:59:33.0000000+00:00</time></trkpt><trkpt lat="34.9552211" lon="32.8345995"><ele>1369.6</ele><time>2015-04-29T07:59:36.0000000+00:00</time></trkpt><trkpt lat="34.9551707" lon="32.8346389"><ele>1369.3</ele><time>2015-04-29T07:59:40.0000000+00:00</time></trkpt><trkpt lat="34.9551312" lon="32.8346701"><ele>1370.2</ele><time>2015-04-29T07:59:43.0000000+00:00</time></trkpt><trkpt lat="34.9550805" lon="32.8347012"><ele>1371.9</ele><time>2015-04-29T07:59:46.0000000+00:00</time></trkpt><trkpt lat="34.9550295" lon="32.8347399"><ele>1372.0</ele><time>2015-04-29T07:59:49.0000000+00:00</time></trkpt><trkpt lat="34.954983" lon="32.8347783"><ele>1372.7</ele><time>2015-04-29T07:59:52.0000000+00:00</time></trkpt><trkpt lat="34.9549338" lon="32.8348205"><ele>1372.3</ele><time>2015-04-29T07:59:55.0000000+00:00</time></trkpt><trkpt lat="34.9548757" lon="32.8348583"><ele>1372.7</ele><time>2015-04-29T07:59:58.0000000+00:00</time></trkpt><trkpt lat="34.9548124" lon="32.8348871"><ele>1372.8</ele><time>2015-04-29T08:00:01.0000000+00:00</time></trkpt><trkpt lat="34.9547539" lon="32.8349213"><ele>1373.6</ele><time>2015-04-29T08:00:04.0000000+00:00</time></trkpt><trkpt lat="34.9546968" lon="32.834954"><ele>1373.0</ele><time>2015-04-29T08:00:07.0000000+00:00</time></trkpt><trkpt lat="34.9546359" lon="32.8349732"><ele>1372.8</ele><time>2015-04-29T08:00:10.0000000+00:00</time></trkpt><trkpt lat="34.9545797" lon="32.8349796"><ele>1373.6</ele><time>2015-04-29T08:00:13.0000000+00:00</time></trkpt><trkpt lat="34.9545219" lon="32.8349769"><ele>1374.2</ele><time>2015-04-29T08:00:16.0000000+00:00</time></trkpt><trkpt lat="34.9544628" lon="32.8349767"><ele>1374.7</ele><time>2015-04-29T08:00:19.0000000+00:00</time></trkpt><trkpt lat="34.9544026" lon="32.8349814"><ele>1375.3</ele><time>2015-04-29T08:00:22.0000000+00:00</time></trkpt><trkpt lat="34.9543413" lon="32.834976"><ele>1376.8</ele><time>2015-04-29T08:00:25.0000000+00:00</time></trkpt><trkpt lat="34.9542829" lon="32.8349637"><ele>1376.4</ele><time>2015-04-29T08:00:28.0000000+00:00</time></trkpt><trkpt lat="34.9542289" lon="32.8349437"><ele>1377.6</ele><time>2015-04-29T08:00:31.0000000+00:00</time></trkpt><trkpt lat="34.9541742" lon="32.8349324"><ele>1377.7</ele><time>2015-04-29T08:00:34.0000000+00:00</time></trkpt><trkpt lat="34.9541184" lon="32.8349272"><ele>1378.1</ele><time>2015-04-29T08:00:37.0000000+00:00</time></trkpt><trkpt lat="34.9540665" lon="32.8349022"><ele>1377.3</ele><time>2015-04-29T08:00:40.0000000+00:00</time></trkpt><trkpt lat="34.9540166" lon="32.8348665"><ele>1374.7</ele><time>2015-04-29T08:00:43.0000000+00:00</time></trkpt><trkpt lat="34.9539645" lon="32.8348443"><ele>1376.4</ele><time>2015-04-29T08:00:46.0000000+00:00</time></trkpt><trkpt lat="34.9539156" lon="32.8348147"><ele>1374.8</ele><time>2015-04-29T08:00:49.0000000+00:00</time></trkpt><trkpt lat="34.9538766" lon="32.8347704"><ele>1376.6</ele><time>2015-04-29T08:00:52.0000000+00:00</time></trkpt><trkpt lat="34.9538275" lon="32.8347348"><ele>1377.5</ele><time>2015-04-29T08:00:55.0000000+00:00</time></trkpt><trkpt lat="34.9537737" lon="32.834686"><ele>1379.2</ele><time>2015-04-29T08:00:58.0000000+00:00</time></trkpt><trkpt lat="34.9537515" lon="32.8346279"><ele>1380.1</ele><time>2015-04-29T08:01:00.0000000+00:00</time></trkpt><trkpt lat="34.953731" lon="32.8345695"><ele>1379.9</ele><time>2015-04-29T08:01:02.0000000+00:00</time></trkpt><trkpt lat="34.9537131" lon="32.8345168"><ele>1380.3</ele><time>2015-04-29T08:01:04.0000000+00:00</time></trkpt><trkpt lat="34.9537026" lon="32.8344449"><ele>1380.7</ele><time>2015-04-29T08:01:07.0000000+00:00</time></trkpt><trkpt lat="34.9536828" lon="32.8343804"><ele>1381.5</ele><time>2015-04-29T08:01:10.0000000+00:00</time></trkpt><trkpt lat="34.9536702" lon="32.8343189"><ele>1382.1</ele><time>2015-04-29T08:01:13.0000000+00:00</time></trkpt><trkpt lat="34.9536532" lon="32.8342615"><ele>1381.3</ele><time>2015-04-29T08:01:16.0000000+00:00</time></trkpt><trkpt lat="34.9536337" lon="32.8342022"><ele>1380.8</ele><time>2015-04-29T08:01:19.0000000+00:00</time></trkpt><trkpt lat="34.9536109" lon="32.8341367"><ele>1382.0</ele><time>2015-04-29T08:01:22.0000000+00:00</time></trkpt><trkpt lat="34.9535894" lon="32.8340754"><ele>1383.8</ele><time>2015-04-29T08:01:25.0000000+00:00</time></trkpt><trkpt lat="34.9535785" lon="32.8340114"><ele>1384.1</ele><time>2015-04-29T08:01:29.0000000+00:00</time></trkpt><trkpt lat="34.9535539" lon="32.8339586"><ele>1385.6</ele><time>2015-04-29T08:01:33.0000000+00:00</time></trkpt><trkpt lat="34.9535161" lon="32.8339258"><ele>1384.9</ele><time>2015-04-29T08:01:36.0000000+00:00</time></trkpt><trkpt lat="34.9534611" lon="32.8338938"><ele>1385.3</ele><time>2015-04-29T08:01:40.0000000+00:00</time></trkpt><trkpt lat="34.9534184" lon="32.8338609"><ele>1384.8</ele><time>2015-04-29T08:01:43.0000000+00:00</time></trkpt><trkpt lat="34.9533783" lon="32.8338312"><ele>1383.9</ele><time>2015-04-29T08:01:46.0000000+00:00</time></trkpt><trkpt lat="34.9533362" lon="32.8338103"><ele>1381.5</ele><time>2015-04-29T08:01:49.0000000+00:00</time></trkpt><trkpt lat="34.9532802" lon="32.8337875"><ele>1381.5</ele><time>2015-04-29T08:01:53.0000000+00:00</time></trkpt><trkpt lat="34.9532372" lon="32.833771"><ele>1381.5</ele><time>2015-04-29T08:01:56.0000000+00:00</time></trkpt><trkpt lat="34.953178" lon="32.8337544"><ele>1381.5</ele><time>2015-04-29T08:02:00.0000000+00:00</time></trkpt><trkpt lat="34.9531305" lon="32.833752"><ele>1382.0</ele><time>2015-04-29T08:02:03.0000000+00:00</time></trkpt><trkpt lat="34.9530802" lon="32.8337403"><ele>1384.3</ele><time>2015-04-29T08:02:06.0000000+00:00</time></trkpt><trkpt lat="34.9530326" lon="32.8337317"><ele>1383.8</ele><time>2015-04-29T08:02:09.0000000+00:00</time></trkpt><trkpt lat="34.9529832" lon="32.8337203"><ele>1385.4</ele><time>2015-04-29T08:02:12.0000000+00:00</time></trkpt><trkpt lat="34.9529326" lon="32.8337121"><ele>1385.7</ele><time>2015-04-29T08:02:15.0000000+00:00</time></trkpt><trkpt lat="34.9528833" lon="32.8337125"><ele>1385.9</ele><time>2015-04-29T08:02:18.0000000+00:00</time></trkpt><trkpt lat="34.952831" lon="32.8337086"><ele>1384.0</ele><time>2015-04-29T08:02:21.0000000+00:00</time></trkpt><trkpt lat="34.952783" lon="32.8336966"><ele>1384.7</ele><time>2015-04-29T08:02:24.0000000+00:00</time></trkpt><trkpt lat="34.952728" lon="32.833684"><ele>1386.4</ele><time>2015-04-29T08:02:28.0000000+00:00</time></trkpt><trkpt lat="34.9526824" lon="32.8336466"><ele>1387.3</ele><time>2015-04-29T08:02:32.0000000+00:00</time></trkpt><trkpt lat="34.9526558" lon="32.833584"><ele>1387.2</ele><time>2015-04-29T08:02:36.0000000+00:00</time></trkpt><trkpt lat="34.9526121" lon="32.8335384"><ele>1390.4</ele><time>2015-04-29T08:02:40.0000000+00:00</time></trkpt><trkpt lat="34.9525946" lon="32.8334782"><ele>1393.1</ele><time>2015-04-29T08:02:44.0000000+00:00</time></trkpt><trkpt lat="34.9525946" lon="32.833408"><ele>1392.8</ele><time>2015-04-29T08:02:48.0000000+00:00</time></trkpt><trkpt lat="34.9525895" lon="32.8333352"><ele>1394.5</ele><time>2015-04-29T08:02:52.0000000+00:00</time></trkpt><trkpt lat="34.9525757" lon="32.8332825"><ele>1394.6</ele><time>2015-04-29T08:02:55.0000000+00:00</time></trkpt><trkpt lat="34.9525468" lon="32.8332378"><ele>1395.6</ele><time>2015-04-29T08:02:58.0000000+00:00</time></trkpt><trkpt lat="34.9525582" lon="32.8331641"><ele>1396.6</ele><time>2015-04-29T08:03:02.0000000+00:00</time></trkpt><trkpt lat="34.9525849" lon="32.8331083"><ele>1396.7</ele><time>2015-04-29T08:03:05.0000000+00:00</time></trkpt><trkpt lat="34.9526048" lon="32.8330512"><ele>1397.3</ele><time>2015-04-29T08:03:08.0000000+00:00</time></trkpt><trkpt lat="34.9525911" lon="32.8329974"><ele>1396.6</ele><time>2015-04-29T08:03:14.0000000+00:00</time></trkpt><trkpt lat="34.9525469" lon="32.8330179"><ele>1393.5</ele><time>2015-04-29T08:05:03.0000000+00:00</time></trkpt><trkpt lat="34.9524988" lon="32.8330522"><ele>1395.1</ele><time>2015-04-29T08:05:27.0000000+00:00</time></trkpt><trkpt lat="34.9524477" lon="32.833069"><ele>1393.7</ele><time>2015-04-29T08:05:30.0000000+00:00</time></trkpt><trkpt lat="34.952398" lon="32.8330765"><ele>1394.5</ele><time>2015-04-29T08:05:33.0000000+00:00</time></trkpt><trkpt lat="34.9523427" lon="32.8330908"><ele>1395.2</ele><time>2015-04-29T08:05:37.0000000+00:00</time></trkpt><trkpt lat="34.9522957" lon="32.8331025"><ele>1396.6</ele><time>2015-04-29T08:05:41.0000000+00:00</time></trkpt><trkpt lat="34.9522488" lon="32.8331252"><ele>1399.8</ele><time>2015-04-29T08:05:45.0000000+00:00</time></trkpt><trkpt lat="34.9521997" lon="32.8331653"><ele>1399.5</ele><time>2015-04-29T08:05:49.0000000+00:00</time></trkpt><trkpt lat="34.9521476" lon="32.8331982"><ele>1399.0</ele><time>2015-04-29T08:05:53.0000000+00:00</time></trkpt><trkpt lat="34.9521089" lon="32.83323"><ele>1397.9</ele><time>2015-04-29T08:05:56.0000000+00:00</time></trkpt><trkpt lat="34.9520533" lon="32.8332553"><ele>1397.4</ele><time>2015-04-29T08:06:00.0000000+00:00</time></trkpt><trkpt lat="34.9520043" lon="32.8332691"><ele>1398.0</ele><time>2015-04-29T08:06:03.0000000+00:00</time></trkpt><trkpt lat="34.9519555" lon="32.8332782"><ele>1399.7</ele><time>2015-04-29T08:06:06.0000000+00:00</time></trkpt><trkpt lat="34.9519099" lon="32.833272"><ele>1400.6</ele><time>2015-04-29T08:06:09.0000000+00:00</time></trkpt><trkpt lat="34.9518512" lon="32.8332666"><ele>1400.0</ele><time>2015-04-29T08:06:13.0000000+00:00</time></trkpt><trkpt lat="34.9517915" lon="32.8332693"><ele>1400.2</ele><time>2015-04-29T08:06:17.0000000+00:00</time></trkpt><trkpt lat="34.9517462" lon="32.8332538"><ele>1400.3</ele><time>2015-04-29T08:06:20.0000000+00:00</time></trkpt><trkpt lat="34.951701" lon="32.8332502"><ele>1400.7</ele><time>2015-04-29T08:06:23.0000000+00:00</time></trkpt><trkpt lat="34.9516556" lon="32.8332452"><ele>1399.1</ele><time>2015-04-29T08:06:26.0000000+00:00</time></trkpt><trkpt lat="34.9516104" lon="32.8332538"><ele>1400.8</ele><time>2015-04-29T08:06:29.0000000+00:00</time></trkpt><trkpt lat="34.9515609" lon="32.8332683"><ele>1400.8</ele><time>2015-04-29T08:06:32.0000000+00:00</time></trkpt><trkpt lat="34.9515107" lon="32.833278"><ele>1401.5</ele><time>2015-04-29T08:06:35.0000000+00:00</time></trkpt><trkpt lat="34.951455" lon="32.8332878"><ele>1402.5</ele><time>2015-04-29T08:06:38.0000000+00:00</time></trkpt><trkpt lat="34.9514047" lon="32.8332939"><ele>1403.6</ele><time>2015-04-29T08:06:41.0000000+00:00</time></trkpt><trkpt lat="34.9513605" lon="32.8333053"><ele>1404.6</ele><time>2015-04-29T08:06:44.0000000+00:00</time></trkpt><trkpt lat="34.9513056" lon="32.8333265"><ele>1405.3</ele><time>2015-04-29T08:06:48.0000000+00:00</time></trkpt><trkpt lat="34.951268" lon="32.8333619"><ele>1405.7</ele><time>2015-04-29T08:06:51.0000000+00:00</time></trkpt><trkpt lat="34.9512244" lon="32.8333865"><ele>1406.6</ele><time>2015-04-29T08:06:54.0000000+00:00</time></trkpt><trkpt lat="34.9511666" lon="32.8334016"><ele>1406.9</ele><time>2015-04-29T08:06:57.0000000+00:00</time></trkpt><trkpt lat="34.9511141" lon="32.8334406"><ele>1407.2</ele><time>2015-04-29T08:07:00.0000000+00:00</time></trkpt><trkpt lat="34.9510609" lon="32.8334762"><ele>1408.4</ele><time>2015-04-29T08:07:03.0000000+00:00</time></trkpt><trkpt lat="34.9510179" lon="32.8334998"><ele>1409.7</ele><time>2015-04-29T08:07:05.0000000+00:00</time></trkpt><trkpt lat="34.9509756" lon="32.8335219"><ele>1410.5</ele><time>2015-04-29T08:07:07.0000000+00:00</time></trkpt><trkpt lat="34.9509162" lon="32.8335469"><ele>1409.4</ele><time>2015-04-29T08:07:10.0000000+00:00</time></trkpt><trkpt lat="34.9508669" lon="32.8335834"><ele>1408.1</ele><time>2015-04-29T08:07:13.0000000+00:00</time></trkpt><trkpt lat="34.9508157" lon="32.8336104"><ele>1406.9</ele><time>2015-04-29T08:07:16.0000000+00:00</time></trkpt><trkpt lat="34.9507473" lon="32.8336076"><ele>1406.2</ele><time>2015-04-29T08:07:19.0000000+00:00</time></trkpt><trkpt lat="34.9506943" lon="32.8335895"><ele>1405.4</ele><time>2015-04-29T08:07:21.0000000+00:00</time></trkpt><trkpt lat="34.9506301" lon="32.8335556"><ele>1405.2</ele><time>2015-04-29T08:07:23.0000000+00:00</time></trkpt><trkpt lat="34.9505693" lon="32.833512"><ele>1405.4</ele><time>2015-04-29T08:07:25.0000000+00:00</time></trkpt><trkpt lat="34.9505124" lon="32.8334671"><ele>1405.4</ele><time>2015-04-29T08:07:27.0000000+00:00</time></trkpt><trkpt lat="34.9504573" lon="32.8334105"><ele>1405.7</ele><time>2015-04-29T08:07:29.0000000+00:00</time></trkpt><trkpt lat="34.9504075" lon="32.8333441"><ele>1408.2</ele><time>2015-04-29T08:07:31.0000000+00:00</time></trkpt><trkpt lat="34.9503561" lon="32.833274"><ele>1409.4</ele><time>2015-04-29T08:07:33.0000000+00:00</time></trkpt><trkpt lat="34.9503065" lon="32.83321"><ele>1410.2</ele><time>2015-04-29T08:07:35.0000000+00:00</time></trkpt><trkpt lat="34.95026" lon="32.8331448"><ele>1409.9</ele><time>2015-04-29T08:07:37.0000000+00:00</time></trkpt><trkpt lat="34.9502222" lon="32.8330896"><ele>1408.5</ele><time>2015-04-29T08:07:39.0000000+00:00</time></trkpt><trkpt lat="34.9501946" lon="32.8330342"><ele>1409.2</ele><time>2015-04-29T08:07:41.0000000+00:00</time></trkpt><trkpt lat="34.950172" lon="32.8329831"><ele>1408.9</ele><time>2015-04-29T08:07:43.0000000+00:00</time></trkpt><trkpt lat="34.950146" lon="32.8329378"><ele>1409.5</ele><time>2015-04-29T08:07:45.0000000+00:00</time></trkpt><trkpt lat="34.9501276" lon="32.8328857"><ele>1410.2</ele><time>2015-04-29T08:07:47.0000000+00:00</time></trkpt><trkpt lat="34.950108" lon="32.8328317"><ele>1411.1</ele><time>2015-04-29T08:07:49.0000000+00:00</time></trkpt><trkpt lat="34.9500851" lon="32.8327767"><ele>1411.9</ele><time>2015-04-29T08:07:51.0000000+00:00</time></trkpt><trkpt lat="34.9500573" lon="32.8327188"><ele>1413.3</ele><time>2015-04-29T08:07:53.0000000+00:00</time></trkpt><trkpt lat="34.9500344" lon="32.8326626"><ele>1414.9</ele><time>2015-04-29T08:07:55.0000000+00:00</time></trkpt><trkpt lat="34.9499973" lon="32.8326281"><ele>1416.3</ele><time>2015-04-29T08:07:57.0000000+00:00</time></trkpt><trkpt lat="34.9499453" lon="32.8326381"><ele>1420.4</ele><time>2015-04-29T08:08:01.0000000+00:00</time></trkpt><trkpt lat="34.9499197" lon="32.8326903"><ele>1421.7</ele><time>2015-04-29T08:08:06.0000000+00:00</time></trkpt><trkpt lat="34.9499645" lon="32.8326955"><ele>1417.9</ele><time>2015-04-29T08:08:21.0000000+00:00</time></trkpt><trkpt lat="34.9499138" lon="32.8327036"><ele>1413.3</ele><time>2015-04-29T08:09:22.0000000+00:00</time></trkpt><trkpt lat="34.9498664" lon="32.8326678"><ele>1412.6</ele><time>2015-04-29T08:09:35.0000000+00:00</time></trkpt><trkpt lat="34.9498169" lon="32.8326254"><ele>1410.2</ele><time>2015-04-29T08:09:39.0000000+00:00</time></trkpt><trkpt lat="34.9497565" lon="32.8326524"><ele>1408.2</ele><time>2015-04-29T08:09:42.0000000+00:00</time></trkpt><trkpt lat="34.9497224" lon="32.8326915"><ele>1407.9</ele><time>2015-04-29T08:09:44.0000000+00:00</time></trkpt><trkpt lat="34.9496741" lon="32.8327448"><ele>1407.4</ele><time>2015-04-29T08:09:47.0000000+00:00</time></trkpt><trkpt lat="34.9496271" lon="32.8328008"><ele>1408.5</ele><time>2015-04-29T08:09:50.0000000+00:00</time></trkpt><trkpt lat="34.9495746" lon="32.832849"><ele>1407.9</ele><time>2015-04-29T08:09:53.0000000+00:00</time></trkpt><trkpt lat="34.9495138" lon="32.8328823"><ele>1408.0</ele><time>2015-04-29T08:09:56.0000000+00:00</time></trkpt><trkpt lat="34.9494729" lon="32.8329275"><ele>1409.5</ele><time>2015-04-29T08:09:59.0000000+00:00</time></trkpt><trkpt lat="34.9495164" lon="32.83295"><ele>1406.3</ele><time>2015-04-29T08:12:00.0000000+00:00</time></trkpt><trkpt lat="34.9495631" lon="32.832929"><ele>1405.8</ele><time>2015-04-29T08:12:03.0000000+00:00</time></trkpt><trkpt lat="34.949599" lon="32.832881"><ele>1406.5</ele><time>2015-04-29T08:12:05.0000000+00:00</time></trkpt><trkpt lat="34.9496241" lon="32.8328255"><ele>1406.0</ele><time>2015-04-29T08:12:07.0000000+00:00</time></trkpt><trkpt lat="34.9496513" lon="32.8327713"><ele>1405.6</ele><time>2015-04-29T08:12:09.0000000+00:00</time></trkpt><trkpt lat="34.9496852" lon="32.8327252"><ele>1405.0</ele><time>2015-04-29T08:12:11.0000000+00:00</time></trkpt><trkpt lat="34.949716" lon="32.8326847"><ele>1404.1</ele><time>2015-04-29T08:12:13.0000000+00:00</time></trkpt><trkpt lat="34.9497574" lon="32.8326463"><ele>1403.0</ele><time>2015-04-29T08:12:17.0000000+00:00</time></trkpt><trkpt lat="34.9498084" lon="32.8326149"><ele>1402.8</ele><time>2015-04-29T08:13:03.0000000+00:00</time></trkpt><trkpt lat="34.9498565" lon="32.8325954"><ele>1402.8</ele><time>2015-04-29T08:13:05.0000000+00:00</time></trkpt><trkpt lat="34.9499108" lon="32.8326121"><ele>1403.3</ele><time>2015-04-29T08:13:07.0000000+00:00</time></trkpt><trkpt lat="34.9499501" lon="32.8326694"><ele>1403.6</ele><time>2015-04-29T08:13:09.0000000+00:00</time></trkpt><trkpt lat="34.9499742" lon="32.8327368"><ele>1403.5</ele><time>2015-04-29T08:13:11.0000000+00:00</time></trkpt><trkpt lat="34.9500045" lon="32.832797"><ele>1403.2</ele><time>2015-04-29T08:13:13.0000000+00:00</time></trkpt><trkpt lat="34.9500344" lon="32.8328542"><ele>1403.1</ele><time>2015-04-29T08:13:15.0000000+00:00</time></trkpt><trkpt lat="34.9500638" lon="32.8329133"><ele>1402.8</ele><time>2015-04-29T08:13:18.0000000+00:00</time></trkpt><trkpt lat="34.9500857" lon="32.8329663"><ele>1403.6</ele><time>2015-04-29T08:13:21.0000000+00:00</time></trkpt><trkpt lat="34.9501085" lon="32.8330185"><ele>1403.9</ele><time>2015-04-29T08:13:24.0000000+00:00</time></trkpt><trkpt lat="34.9501313" lon="32.8330705"><ele>1403.8</ele><time>2015-04-29T08:13:27.0000000+00:00</time></trkpt><trkpt lat="34.9501547" lon="32.8331356"><ele>1404.2</ele><time>2015-04-29T08:13:31.0000000+00:00</time></trkpt><trkpt lat="34.9501764" lon="32.8331842"><ele>1405.2</ele><time>2015-04-29T08:13:34.0000000+00:00</time></trkpt><trkpt lat="34.9502038" lon="32.8332486"><ele>1404.9</ele><time>2015-04-29T08:13:38.0000000+00:00</time></trkpt><trkpt lat="34.9502282" lon="32.8333013"><ele>1402.3</ele><time>2015-04-29T08:13:41.0000000+00:00</time></trkpt><trkpt lat="34.9502533" lon="32.8333648"><ele>1400.7</ele><time>2015-04-29T08:13:44.0000000+00:00</time></trkpt><trkpt lat="34.9502734" lon="32.8334247"><ele>1400.8</ele><time>2015-04-29T08:13:47.0000000+00:00</time></trkpt><trkpt lat="34.9502955" lon="32.8334801"><ele>1400.4</ele><time>2015-04-29T08:13:50.0000000+00:00</time></trkpt><trkpt lat="34.9503091" lon="32.8335335"><ele>1401.6</ele><time>2015-04-29T08:13:53.0000000+00:00</time></trkpt><trkpt lat="34.9503124" lon="32.8336038"><ele>1406.0</ele><time>2015-04-29T08:13:56.0000000+00:00</time></trkpt><trkpt lat="34.9503135" lon="32.8336728"><ele>1409.4</ele><time>2015-04-29T08:13:59.0000000+00:00</time></trkpt><trkpt lat="34.950303" lon="32.8337373"><ele>1410.3</ele><time>2015-04-29T08:14:02.0000000+00:00</time></trkpt><trkpt lat="34.9502952" lon="32.8338017"><ele>1411.2</ele><time>2015-04-29T08:14:05.0000000+00:00</time></trkpt><trkpt lat="34.9502819" lon="32.8338652"><ele>1414.6</ele><time>2015-04-29T08:14:08.0000000+00:00</time></trkpt><trkpt lat="34.9502793" lon="32.8339323"><ele>1415.1</ele><time>2015-04-29T08:14:11.0000000+00:00</time></trkpt><trkpt lat="34.9502648" lon="32.8339951"><ele>1415.6</ele><time>2015-04-29T08:14:14.0000000+00:00</time></trkpt><trkpt lat="34.9502459" lon="32.8340511"><ele>1416.6</ele><time>2015-04-29T08:14:17.0000000+00:00</time></trkpt><trkpt lat="34.9502171" lon="32.8340938"><ele>1416.2</ele><time>2015-04-29T08:14:20.0000000+00:00</time></trkpt><trkpt lat="34.9501825" lon="32.8341493"><ele>1418.6</ele><time>2015-04-29T08:14:23.0000000+00:00</time></trkpt><trkpt lat="34.9501384" lon="32.8341959"><ele>1422.9</ele><time>2015-04-29T08:14:26.0000000+00:00</time></trkpt><trkpt lat="34.9501003" lon="32.8342504"><ele>1425.4</ele><time>2015-04-29T08:14:29.0000000+00:00</time></trkpt><trkpt lat="34.9500788" lon="32.8343179"><ele>1428.5</ele><time>2015-04-29T08:14:32.0000000+00:00</time></trkpt><trkpt lat="34.9500609" lon="32.8343896"><ele>1429.9</ele><time>2015-04-29T08:14:35.0000000+00:00</time></trkpt><trkpt lat="34.9500385" lon="32.8344624"><ele>1430.7</ele><time>2015-04-29T08:14:38.0000000+00:00</time></trkpt><trkpt lat="34.9500202" lon="32.8345287"><ele>1430.0</ele><time>2015-04-29T08:14:41.0000000+00:00</time></trkpt><trkpt lat="34.9500054" lon="32.8345912"><ele>1426.0</ele><time>2015-04-29T08:14:44.0000000+00:00</time></trkpt><trkpt lat="34.9499522" lon="32.834624"><ele>1420.5</ele><time>2015-04-29T08:14:48.0000000+00:00</time></trkpt><trkpt lat="34.9499269" lon="32.8346907"><ele>1418.5</ele><time>2015-04-29T08:14:52.0000000+00:00</time></trkpt><trkpt lat="34.9499002" lon="32.8347518"><ele>1417.1</ele><time>2015-04-29T08:14:56.0000000+00:00</time></trkpt><trkpt lat="34.9498976" lon="32.8348136"><ele>1417.4</ele><time>2015-04-29T08:14:59.0000000+00:00</time></trkpt><trkpt lat="34.949897" lon="32.8348733"><ele>1419.0</ele><time>2015-04-29T08:15:02.0000000+00:00</time></trkpt><trkpt lat="34.9498902" lon="32.834931"><ele>1420.4</ele><time>2015-04-29T08:15:05.0000000+00:00</time></trkpt><trkpt lat="34.9498905" lon="32.83499"><ele>1421.6</ele><time>2015-04-29T08:15:08.0000000+00:00</time></trkpt><trkpt lat="34.9498859" lon="32.8350501"><ele>1423.9</ele><time>2015-04-29T08:15:11.0000000+00:00</time></trkpt><trkpt lat="34.9498825" lon="32.8351071"><ele>1423.8</ele><time>2015-04-29T08:15:14.0000000+00:00</time></trkpt><trkpt lat="34.9498634" lon="32.8351585"><ele>1425.8</ele><time>2015-04-29T08:15:17.0000000+00:00</time></trkpt><trkpt lat="34.9498269" lon="32.8352268"><ele>1433.9</ele><time>2015-04-29T08:15:20.0000000+00:00</time></trkpt><trkpt lat="34.9498083" lon="32.8352773"><ele>1436.4</ele><time>2015-04-29T08:15:23.0000000+00:00</time></trkpt><trkpt lat="34.9498019" lon="32.8353336"><ele>1432.3</ele><time>2015-04-29T08:15:36.0000000+00:00</time></trkpt><trkpt lat="34.9497739" lon="32.8353891"><ele>1433.3</ele><time>2015-04-29T08:15:39.0000000+00:00</time></trkpt><trkpt lat="34.9497441" lon="32.8354344"><ele>1435.7</ele><time>2015-04-29T08:15:41.0000000+00:00</time></trkpt><trkpt lat="34.9497094" lon="32.8354876"><ele>1436.5</ele><time>2015-04-29T08:15:43.0000000+00:00</time></trkpt><trkpt lat="34.9496759" lon="32.8355381"><ele>1436.2</ele><time>2015-04-29T08:15:45.0000000+00:00</time></trkpt><trkpt lat="34.9496292" lon="32.8355975"><ele>1436.1</ele><time>2015-04-29T08:15:48.0000000+00:00</time></trkpt><trkpt lat="34.9495997" lon="32.8356427"><ele>1435.6</ele><time>2015-04-29T08:15:50.0000000+00:00</time></trkpt><trkpt lat="34.9495712" lon="32.8356898"><ele>1434.5</ele><time>2015-04-29T08:15:52.0000000+00:00</time></trkpt><trkpt lat="34.949553" lon="32.8357636"><ele>1432.9</ele><time>2015-04-29T08:15:55.0000000+00:00</time></trkpt><trkpt lat="34.9495563" lon="32.8358437"><ele>1430.2</ele><time>2015-04-29T08:15:58.0000000+00:00</time></trkpt><trkpt lat="34.949555" lon="32.8359016"><ele>1431.4</ele><time>2015-04-29T08:16:00.0000000+00:00</time></trkpt><trkpt lat="34.9495489" lon="32.8359671"><ele>1430.9</ele><time>2015-04-29T08:16:02.0000000+00:00</time></trkpt><trkpt lat="34.9495543" lon="32.8360339"><ele>1429.8</ele><time>2015-04-29T08:16:04.0000000+00:00</time></trkpt><trkpt lat="34.9495658" lon="32.8361032"><ele>1429.0</ele><time>2015-04-29T08:16:06.0000000+00:00</time></trkpt><trkpt lat="34.9495786" lon="32.8361803"><ele>1428.3</ele><time>2015-04-29T08:16:08.0000000+00:00</time></trkpt><trkpt lat="34.9495955" lon="32.8362612"><ele>1427.9</ele><time>2015-04-29T08:16:10.0000000+00:00</time></trkpt><trkpt lat="34.9496109" lon="32.8363207"><ele>1427.8</ele><time>2015-04-29T08:16:11.0000000+00:00</time></trkpt><trkpt lat="34.9496406" lon="32.8364213"><ele>1428.3</ele><time>2015-04-29T08:16:13.0000000+00:00</time></trkpt><trkpt lat="34.9496634" lon="32.8365219"><ele>1429.9</ele><time>2015-04-29T08:16:15.0000000+00:00</time></trkpt><trkpt lat="34.9496806" lon="32.8366232"><ele>1429.5</ele><time>2015-04-29T08:16:17.0000000+00:00</time></trkpt><trkpt lat="34.949703" lon="32.8367165"><ele>1427.5</ele><time>2015-04-29T08:16:19.0000000+00:00</time></trkpt><trkpt lat="34.9497196" lon="32.8368217"><ele>1426.9</ele><time>2015-04-29T08:16:21.0000000+00:00</time></trkpt><trkpt lat="34.9497124" lon="32.8369168"><ele>1424.8</ele><time>2015-04-29T08:16:23.0000000+00:00</time></trkpt><trkpt lat="34.9496704" lon="32.8369626"><ele>1424.8</ele><time>2015-04-29T08:16:24.0000000+00:00</time></trkpt><trkpt lat="34.9495979" lon="32.8370267"><ele>1425.0</ele><time>2015-04-29T08:16:26.0000000+00:00</time></trkpt><trkpt lat="34.9495184" lon="32.8370744"><ele>1426.6</ele><time>2015-04-29T08:16:28.0000000+00:00</time></trkpt><trkpt lat="34.9494411" lon="32.8371224"><ele>1428.2</ele><time>2015-04-29T08:16:30.0000000+00:00</time></trkpt><trkpt lat="34.9493624" lon="32.8371756"><ele>1427.4</ele><time>2015-04-29T08:16:32.0000000+00:00</time></trkpt><trkpt lat="34.9492826" lon="32.8372141"><ele>1428.1</ele><time>2015-04-29T08:16:33.0000000+00:00</time></trkpt><trkpt lat="34.9492005" lon="32.8372632"><ele>1428.1</ele><time>2015-04-29T08:16:35.0000000+00:00</time></trkpt><trkpt lat="34.9491514" lon="32.8372834"><ele>1427.9</ele><time>2015-04-29T08:16:36.0000000+00:00</time></trkpt><trkpt lat="34.9490981" lon="32.8372966"><ele>1427.8</ele><time>2015-04-29T08:16:37.0000000+00:00</time></trkpt><trkpt lat="34.9490423" lon="32.8373084"><ele>1427.8</ele><time>2015-04-29T08:16:38.0000000+00:00</time></trkpt><trkpt lat="34.9489972" lon="32.8373119"><ele>1427.3</ele><time>2015-04-29T08:16:39.0000000+00:00</time></trkpt><trkpt lat="34.9489351" lon="32.8372511"><ele>1426.9</ele><time>2015-04-29T08:16:41.0000000+00:00</time></trkpt><trkpt lat="34.9489083" lon="32.837171"><ele>1429.0</ele><time>2015-04-29T08:16:43.0000000+00:00</time></trkpt><trkpt lat="34.9489009" lon="32.8370937"><ele>1431.1</ele><time>2015-04-29T08:16:45.0000000+00:00</time></trkpt><trkpt lat="34.9488801" lon="32.8370097"><ele>1430.8</ele><time>2015-04-29T08:16:47.0000000+00:00</time></trkpt><trkpt lat="34.9488436" lon="32.8369503"><ele>1430.8</ele><time>2015-04-29T08:16:49.0000000+00:00</time></trkpt><trkpt lat="34.9487896" lon="32.8369132"><ele>1432.8</ele><time>2015-04-29T08:16:51.0000000+00:00</time></trkpt><trkpt lat="34.9487348" lon="32.8368783"><ele>1432.0</ele><time>2015-04-29T08:16:53.0000000+00:00</time></trkpt><trkpt lat="34.9486768" lon="32.8368468"><ele>1431.1</ele><time>2015-04-29T08:16:55.0000000+00:00</time></trkpt><trkpt lat="34.9486124" lon="32.8368113"><ele>1429.6</ele><time>2015-04-29T08:16:57.0000000+00:00</time></trkpt><trkpt lat="34.9485478" lon="32.8367697"><ele>1428.5</ele><time>2015-04-29T08:16:59.0000000+00:00</time></trkpt><trkpt lat="34.948477" lon="32.8367166"><ele>1426.7</ele><time>2015-04-29T08:17:01.0000000+00:00</time></trkpt><trkpt lat="34.9484195" lon="32.8366807"><ele>1426.7</ele><time>2015-04-29T08:17:02.0000000+00:00</time></trkpt><trkpt lat="34.948375" lon="32.8366536"><ele>1426.2</ele><time>2015-04-29T08:17:03.0000000+00:00</time></trkpt><trkpt lat="34.9483205" lon="32.8366215"><ele>1426.0</ele><time>2015-04-29T08:17:04.0000000+00:00</time></trkpt><trkpt lat="34.9482845" lon="32.8365818"><ele>1425.9</ele><time>2015-04-29T08:17:05.0000000+00:00</time></trkpt><trkpt lat="34.9482408" lon="32.8365445"><ele>1425.8</ele><time>2015-04-29T08:17:06.0000000+00:00</time></trkpt><trkpt lat="34.9481961" lon="32.8365068"><ele>1426.8</ele><time>2015-04-29T08:17:07.0000000+00:00</time></trkpt><trkpt lat="34.948153" lon="32.8364689"><ele>1428.3</ele><time>2015-04-29T08:17:08.0000000+00:00</time></trkpt><trkpt lat="34.9481126" lon="32.8364269"><ele>1429.5</ele><time>2015-04-29T08:17:09.0000000+00:00</time></trkpt><trkpt lat="34.9480444" lon="32.8363665"><ele>1430.5</ele><time>2015-04-29T08:17:11.0000000+00:00</time></trkpt><trkpt lat="34.9479916" lon="32.8363301"><ele>1430.6</ele><time>2015-04-29T08:17:12.0000000+00:00</time></trkpt><trkpt lat="34.9479157" lon="32.8363074"><ele>1433.5</ele><time>2015-04-29T08:17:14.0000000+00:00</time></trkpt><trkpt lat="34.9478599" lon="32.8362806"><ele>1436.2</ele><time>2015-04-29T08:17:16.0000000+00:00</time></trkpt><trkpt lat="34.9478169" lon="32.83626"><ele>1433.3</ele><time>2015-04-29T08:17:20.0000000+00:00</time></trkpt><trkpt lat="34.9477694" lon="32.83627"><ele>1432.0</ele><time>2015-04-29T08:17:23.0000000+00:00</time></trkpt><trkpt lat="34.947722" lon="32.836304"><ele>1432.3</ele><time>2015-04-29T08:17:26.0000000+00:00</time></trkpt><trkpt lat="34.9476867" lon="32.8363426"><ele>1431.9</ele><time>2015-04-29T08:17:28.0000000+00:00</time></trkpt><trkpt lat="34.9476332" lon="32.8363866"><ele>1429.3</ele><time>2015-04-29T08:17:30.0000000+00:00</time></trkpt><trkpt lat="34.9475668" lon="32.8364489"><ele>1428.4</ele><time>2015-04-29T08:17:32.0000000+00:00</time></trkpt><trkpt lat="34.9474982" lon="32.8365122"><ele>1430.2</ele><time>2015-04-29T08:17:34.0000000+00:00</time></trkpt><trkpt lat="34.9473913" lon="32.8365742"><ele>1430.1</ele><time>2015-04-29T08:17:36.0000000+00:00</time></trkpt><trkpt lat="34.947338" lon="32.8365906"><ele>1428.9</ele><time>2015-04-29T08:17:37.0000000+00:00</time></trkpt><trkpt lat="34.9472932" lon="32.8366068"><ele>1428.9</ele><time>2015-04-29T08:17:38.0000000+00:00</time></trkpt><trkpt lat="34.9472142" lon="32.8366306"><ele>1429.5</ele><time>2015-04-29T08:17:40.0000000+00:00</time></trkpt><trkpt lat="34.9471472" lon="32.836656"><ele>1428.2</ele><time>2015-04-29T08:17:42.0000000+00:00</time></trkpt><trkpt lat="34.9470936" lon="32.8367278"><ele>1427.9</ele><time>2015-04-29T08:17:44.0000000+00:00</time></trkpt><trkpt lat="34.9470644" lon="32.8367883"><ele>1427.8</ele><time>2015-04-29T08:17:45.0000000+00:00</time></trkpt><trkpt lat="34.9470241" lon="32.8368607"><ele>1427.8</ele><time>2015-04-29T08:17:46.0000000+00:00</time></trkpt><trkpt lat="34.9469784" lon="32.8369256"><ele>1427.3</ele><time>2015-04-29T08:17:47.0000000+00:00</time></trkpt><trkpt lat="34.9469434" lon="32.8369925"><ele>1427.5</ele><time>2015-04-29T08:17:48.0000000+00:00</time></trkpt><trkpt lat="34.9468925" lon="32.8370585"><ele>1427.6</ele><time>2015-04-29T08:17:49.0000000+00:00</time></trkpt><trkpt lat="34.946833" lon="32.8371103"><ele>1428.2</ele><time>2015-04-29T08:17:50.0000000+00:00</time></trkpt><trkpt lat="34.9467812" lon="32.8371707"><ele>1428.0</ele><time>2015-04-29T08:17:51.0000000+00:00</time></trkpt><trkpt lat="34.9467317" lon="32.8372283"><ele>1428.4</ele><time>2015-04-29T08:17:52.0000000+00:00</time></trkpt><trkpt lat="34.9466756" lon="32.837279"><ele>1427.6</ele><time>2015-04-29T08:17:53.0000000+00:00</time></trkpt><trkpt lat="34.9466177" lon="32.8373382"><ele>1426.7</ele><time>2015-04-29T08:17:54.0000000+00:00</time></trkpt><trkpt lat="34.9465622" lon="32.8373854"><ele>1424.7</ele><time>2015-04-29T08:17:55.0000000+00:00</time></trkpt><trkpt lat="34.9464919" lon="32.837448"><ele>1422.7</ele><time>2015-04-29T08:17:56.0000000+00:00</time></trkpt><trkpt lat="34.9464245" lon="32.8374973"><ele>1421.3</ele><time>2015-04-29T08:17:57.0000000+00:00</time></trkpt><trkpt lat="34.9463519" lon="32.8375384"><ele>1420.0</ele><time>2015-04-29T08:17:58.0000000+00:00</time></trkpt><trkpt lat="34.9462751" lon="32.8375633"><ele>1419.4</ele><time>2015-04-29T08:17:59.0000000+00:00</time></trkpt><trkpt lat="34.9462022" lon="32.837594"><ele>1418.6</ele><time>2015-04-29T08:18:00.0000000+00:00</time></trkpt><trkpt lat="34.9461237" lon="32.8376054"><ele>1418.2</ele><time>2015-04-29T08:18:01.0000000+00:00</time></trkpt><trkpt lat="34.9460587" lon="32.8376473"><ele>1417.5</ele><time>2015-04-29T08:18:02.0000000+00:00</time></trkpt><trkpt lat="34.9459986" lon="32.8376792"><ele>1417.1</ele><time>2015-04-29T08:18:03.0000000+00:00</time></trkpt><trkpt lat="34.9459524" lon="32.8377232"><ele>1416.9</ele><time>2015-04-29T08:18:04.0000000+00:00</time></trkpt><trkpt lat="34.9459058" lon="32.8377506"><ele>1417.4</ele><time>2015-04-29T08:18:05.0000000+00:00</time></trkpt><trkpt lat="34.9458444" lon="32.8377916"><ele>1419.2</ele><time>2015-04-29T08:18:07.0000000+00:00</time></trkpt><trkpt lat="34.9458245" lon="32.8378503"><ele>1414.1</ele><time>2015-04-29T08:18:42.0000000+00:00</time></trkpt><trkpt lat="34.9457918" lon="32.8378963"><ele>1412.4</ele><time>2015-04-29T08:18:45.0000000+00:00</time></trkpt><trkpt lat="34.9457693" lon="32.8379555"><ele>1413.7</ele><time>2015-04-29T08:18:47.0000000+00:00</time></trkpt><trkpt lat="34.9457371" lon="32.8380197"><ele>1415.2</ele><time>2015-04-29T08:18:49.0000000+00:00</time></trkpt><trkpt lat="34.9457093" lon="32.838087"><ele>1416.9</ele><time>2015-04-29T08:18:51.0000000+00:00</time></trkpt><trkpt lat="34.9456806" lon="32.8381453"><ele>1418.8</ele><time>2015-04-29T08:18:53.0000000+00:00</time></trkpt><trkpt lat="34.9456454" lon="32.8381883"><ele>1422.3</ele><time>2015-04-29T08:18:56.0000000+00:00</time></trkpt><trkpt lat="34.9456807" lon="32.83813"><ele>1424.3</ele><time>2015-04-29T08:19:11.0000000+00:00</time></trkpt><trkpt lat="34.94571" lon="32.8380816"><ele>1424.1</ele><time>2015-04-29T08:19:13.0000000+00:00</time></trkpt><trkpt lat="34.9457374" lon="32.8380273"><ele>1423.9</ele><time>2015-04-29T08:19:15.0000000+00:00</time></trkpt><trkpt lat="34.9457652" lon="32.8379735"><ele>1424.5</ele><time>2015-04-29T08:19:17.0000000+00:00</time></trkpt><trkpt lat="34.9458023" lon="32.8379268"><ele>1423.7</ele><time>2015-04-29T08:19:19.0000000+00:00</time></trkpt><trkpt lat="34.9458472" lon="32.8378757"><ele>1423.0</ele><time>2015-04-29T08:19:21.0000000+00:00</time></trkpt><trkpt lat="34.9459064" lon="32.8378209"><ele>1421.6</ele><time>2015-04-29T08:19:23.0000000+00:00</time></trkpt><trkpt lat="34.9459859" lon="32.837762"><ele>1420.2</ele><time>2015-04-29T08:19:24.0000000+00:00</time></trkpt><trkpt lat="34.9460298" lon="32.8377426"><ele>1419.0</ele><time>2015-04-29T08:19:25.0000000+00:00</time></trkpt><trkpt lat="34.9460714" lon="32.8377025"><ele>1417.9</ele><time>2015-04-29T08:19:26.0000000+00:00</time></trkpt><trkpt lat="34.9461128" lon="32.8376726"><ele>1416.8</ele><time>2015-04-29T08:19:27.0000000+00:00</time></trkpt><trkpt lat="34.9461635" lon="32.8376464"><ele>1417.3</ele><time>2015-04-29T08:19:28.0000000+00:00</time></trkpt><trkpt lat="34.9462121" lon="32.8376401"><ele>1418.0</ele><time>2015-04-29T08:19:29.0000000+00:00</time></trkpt><trkpt lat="34.9462782" lon="32.8376139"><ele>1418.6</ele><time>2015-04-29T08:19:31.0000000+00:00</time></trkpt><trkpt lat="34.9463226" lon="32.8376004"><ele>1422.5</ele><time>2015-04-29T08:19:36.0000000+00:00</time></trkpt><trkpt lat="34.9462756" lon="32.8376141"><ele>1426.8</ele><time>2015-04-29T08:19:53.0000000+00:00</time></trkpt><trkpt lat="34.9462527" lon="32.837667"><ele>1428.8</ele><time>2015-04-29T08:19:59.0000000+00:00</time></trkpt><trkpt lat="34.9462177" lon="32.8377031"><ele>1429.6</ele><time>2015-04-29T08:20:05.0000000+00:00</time></trkpt><trkpt lat="34.9461936" lon="32.8377542"><ele>1432.9</ele><time>2015-04-29T08:20:20.0000000+00:00</time></trkpt><trkpt lat="34.9461828" lon="32.8378131"><ele>1433.0</ele><time>2015-04-29T08:20:25.0000000+00:00</time></trkpt><trkpt lat="34.9461728" lon="32.8378678"><ele>1431.8</ele><time>2015-04-29T08:20:31.0000000+00:00</time></trkpt><trkpt lat="34.9461738" lon="32.8379227"><ele>1431.1</ele><time>2015-04-29T08:20:40.0000000+00:00</time></trkpt><trkpt lat="34.9461841" lon="32.8379771"><ele>1432.9</ele><time>2015-04-29T08:20:56.0000000+00:00</time></trkpt><trkpt lat="34.9461802" lon="32.8380354"><ele>1433.8</ele><time>2015-04-29T08:21:06.0000000+00:00</time></trkpt><trkpt lat="34.9461583" lon="32.8380848"><ele>1436.8</ele><time>2015-04-29T08:21:14.0000000+00:00</time></trkpt><trkpt lat="34.9461616" lon="32.8381447"><ele>1439.4</ele><time>2015-04-29T08:21:23.0000000+00:00</time></trkpt><trkpt lat="34.9461544" lon="32.8381992"><ele>1440.3</ele><time>2015-04-29T08:21:31.0000000+00:00</time></trkpt><trkpt lat="34.9461471" lon="32.8382534"><ele>1442.0</ele><time>2015-04-29T08:21:39.0000000+00:00</time></trkpt><trkpt lat="34.946131" lon="32.8383106"><ele>1443.3</ele><time>2015-04-29T08:21:46.0000000+00:00</time></trkpt><trkpt lat="34.9460969" lon="32.8383599"><ele>1443.0</ele><time>2015-04-29T08:21:52.0000000+00:00</time></trkpt><trkpt lat="34.9460784" lon="32.8384192"><ele>1440.9</ele><time>2015-04-29T08:22:05.0000000+00:00</time></trkpt><trkpt lat="34.9460401" lon="32.8384518"><ele>1441.7</ele><time>2015-04-29T08:22:16.0000000+00:00</time></trkpt><trkpt lat="34.9459951" lon="32.8384962"><ele>1441.3</ele><time>2015-04-29T08:22:20.0000000+00:00</time></trkpt><trkpt lat="34.9459383" lon="32.8385429"><ele>1439.8</ele><time>2015-04-29T08:22:23.0000000+00:00</time></trkpt><trkpt lat="34.9458895" lon="32.8385686"><ele>1441.5</ele><time>2015-04-29T08:22:25.0000000+00:00</time></trkpt><trkpt lat="34.9458376" lon="32.8385955"><ele>1443.7</ele><time>2015-04-29T08:22:27.0000000+00:00</time></trkpt><trkpt lat="34.9457893" lon="32.8386334"><ele>1444.5</ele><time>2015-04-29T08:22:29.0000000+00:00</time></trkpt><trkpt lat="34.9457423" lon="32.8386761"><ele>1444.2</ele><time>2015-04-29T08:22:31.0000000+00:00</time></trkpt><trkpt lat="34.9456958" lon="32.8387176"><ele>1444.1</ele><time>2015-04-29T08:22:33.0000000+00:00</time></trkpt><trkpt lat="34.945652" lon="32.8387489"><ele>1444.4</ele><time>2015-04-29T08:22:35.0000000+00:00</time></trkpt><trkpt lat="34.945609" lon="32.8387705"><ele>1444.4</ele><time>2015-04-29T08:22:37.0000000+00:00</time></trkpt><trkpt lat="34.9455607" lon="32.8388233"><ele>1443.6</ele><time>2015-04-29T08:22:40.0000000+00:00</time></trkpt><trkpt lat="34.9455183" lon="32.8388422"><ele>1442.5</ele><time>2015-04-29T08:22:42.0000000+00:00</time></trkpt><trkpt lat="34.9454706" lon="32.8388667"><ele>1441.2</ele><time>2015-04-29T08:22:44.0000000+00:00</time></trkpt><trkpt lat="34.9454338" lon="32.8389111"><ele>1440.9</ele><time>2015-04-29T08:22:46.0000000+00:00</time></trkpt><trkpt lat="34.9453925" lon="32.8389525"><ele>1440.8</ele><time>2015-04-29T08:22:48.0000000+00:00</time></trkpt><trkpt lat="34.9453438" lon="32.8389761"><ele>1441.0</ele><time>2015-04-29T08:22:50.0000000+00:00</time></trkpt><trkpt lat="34.9452942" lon="32.8389714"><ele>1440.1</ele><time>2015-04-29T08:22:52.0000000+00:00</time></trkpt><trkpt lat="34.9452623" lon="32.8389269"><ele>1438.0</ele><time>2015-04-29T08:23:02.0000000+00:00</time></trkpt><trkpt lat="34.9452235" lon="32.8388696"><ele>1431.0</ele><time>2015-04-29T08:23:10.0000000+00:00</time></trkpt><trkpt lat="34.9451789" lon="32.8388224"><ele>1430.6</ele><time>2015-04-29T08:23:12.0000000+00:00</time></trkpt><trkpt lat="34.9451286" lon="32.8387837"><ele>1431.7</ele><time>2015-04-29T08:23:14.0000000+00:00</time></trkpt><trkpt lat="34.9450842" lon="32.8387448"><ele>1433.0</ele><time>2015-04-29T08:23:16.0000000+00:00</time></trkpt><trkpt lat="34.9450374" lon="32.8387088"><ele>1433.8</ele><time>2015-04-29T08:23:18.0000000+00:00</time></trkpt><trkpt lat="34.9449794" lon="32.838684"><ele>1432.0</ele><time>2015-04-29T08:23:20.0000000+00:00</time></trkpt><trkpt lat="34.9449068" lon="32.8386819"><ele>1429.8</ele><time>2015-04-29T08:23:22.0000000+00:00</time></trkpt><trkpt lat="34.9448344" lon="32.8387026"><ele>1427.5</ele><time>2015-04-29T08:23:24.0000000+00:00</time></trkpt><trkpt lat="34.9447788" lon="32.8387252"><ele>1426.5</ele><time>2015-04-29T08:23:26.0000000+00:00</time></trkpt><trkpt lat="34.9447201" lon="32.8387354"><ele>1429.2</ele><time>2015-04-29T08:23:28.0000000+00:00</time></trkpt><trkpt lat="34.944661" lon="32.8387432"><ele>1431.6</ele><time>2015-04-29T08:23:30.0000000+00:00</time></trkpt><trkpt lat="34.9446055" lon="32.8387656"><ele>1433.7</ele><time>2015-04-29T08:23:32.0000000+00:00</time></trkpt><trkpt lat="34.9445471" lon="32.8387957"><ele>1433.3</ele><time>2015-04-29T08:23:34.0000000+00:00</time></trkpt><trkpt lat="34.9444941" lon="32.8388198"><ele>1433.0</ele><time>2015-04-29T08:23:35.0000000+00:00</time></trkpt><trkpt lat="34.944417" lon="32.8388136"><ele>1433.1</ele><time>2015-04-29T08:23:37.0000000+00:00</time></trkpt><trkpt lat="34.944347" lon="32.8388258"><ele>1433.1</ele><time>2015-04-29T08:23:39.0000000+00:00</time></trkpt><trkpt lat="34.9442689" lon="32.8388429"><ele>1432.6</ele><time>2015-04-29T08:23:41.0000000+00:00</time></trkpt><trkpt lat="34.9442006" lon="32.8388828"><ele>1434.0</ele><time>2015-04-29T08:23:43.0000000+00:00</time></trkpt><trkpt lat="34.9441192" lon="32.8389181"><ele>1434.6</ele><time>2015-04-29T08:23:45.0000000+00:00</time></trkpt><trkpt lat="34.9440392" lon="32.8389455"><ele>1435.5</ele><time>2015-04-29T08:23:47.0000000+00:00</time></trkpt><trkpt lat="34.9439624" lon="32.8389479"><ele>1435.9</ele><time>2015-04-29T08:23:49.0000000+00:00</time></trkpt><trkpt lat="34.9438974" lon="32.8389381"><ele>1434.1</ele><time>2015-04-29T08:23:51.0000000+00:00</time></trkpt><trkpt lat="34.9438381" lon="32.8389338"><ele>1434.6</ele><time>2015-04-29T08:23:53.0000000+00:00</time></trkpt><trkpt lat="34.9437876" lon="32.8389484"><ele>1436.2</ele><time>2015-04-29T08:23:55.0000000+00:00</time></trkpt><trkpt lat="34.9437346" lon="32.8389743"><ele>1436.6</ele><time>2015-04-29T08:23:57.0000000+00:00</time></trkpt><trkpt lat="34.9436788" lon="32.838993"><ele>1436.0</ele><time>2015-04-29T08:23:59.0000000+00:00</time></trkpt><trkpt lat="34.9436191" lon="32.8390253"><ele>1436.3</ele><time>2015-04-29T08:24:01.0000000+00:00</time></trkpt><trkpt lat="34.9435595" lon="32.8390468"><ele>1437.4</ele><time>2015-04-29T08:24:03.0000000+00:00</time></trkpt><trkpt lat="34.9434977" lon="32.8390595"><ele>1437.2</ele><time>2015-04-29T08:24:05.0000000+00:00</time></trkpt><trkpt lat="34.9434393" lon="32.839075"><ele>1436.4</ele><time>2015-04-29T08:24:07.0000000+00:00</time></trkpt><trkpt lat="34.9433825" lon="32.8391018"><ele>1436.7</ele><time>2015-04-29T08:24:09.0000000+00:00</time></trkpt><trkpt lat="34.9433268" lon="32.8391265"><ele>1436.7</ele><time>2015-04-29T08:24:11.0000000+00:00</time></trkpt><trkpt lat="34.9432685" lon="32.839133"><ele>1436.0</ele><time>2015-04-29T08:24:13.0000000+00:00</time></trkpt><trkpt lat="34.9432108" lon="32.839115"><ele>1434.3</ele><time>2015-04-29T08:24:15.0000000+00:00</time></trkpt><trkpt lat="34.9431565" lon="32.8391081"><ele>1432.7</ele><time>2015-04-29T08:24:17.0000000+00:00</time></trkpt><trkpt lat="34.9430967" lon="32.8391072"><ele>1433.3</ele><time>2015-04-29T08:24:20.0000000+00:00</time></trkpt><trkpt lat="34.9430359" lon="32.8391016"><ele>1433.7</ele><time>2015-04-29T08:24:23.0000000+00:00</time></trkpt><trkpt lat="34.9429775" lon="32.8391325"><ele>1435.9</ele><time>2015-04-29T08:24:26.0000000+00:00</time></trkpt><trkpt lat="34.9429347" lon="32.8391708"><ele>1438.2</ele><time>2015-04-29T08:24:29.0000000+00:00</time></trkpt><trkpt lat="34.9429098" lon="32.8392189"><ele>1439.5</ele><time>2015-04-29T08:24:33.0000000+00:00</time></trkpt><trkpt lat="34.9428714" lon="32.8392731"><ele>1441.4</ele><time>2015-04-29T08:24:37.0000000+00:00</time></trkpt><trkpt lat="34.942843" lon="32.8393367"><ele>1443.2</ele><time>2015-04-29T08:24:41.0000000+00:00</time></trkpt><trkpt lat="34.9428152" lon="32.8393849"><ele>1443.7</ele><time>2015-04-29T08:24:44.0000000+00:00</time></trkpt><trkpt lat="34.9427941" lon="32.839444"><ele>1441.9</ele><time>2015-04-29T08:24:48.0000000+00:00</time></trkpt><trkpt lat="34.9427867" lon="32.8395057"><ele>1441.1</ele><time>2015-04-29T08:24:52.0000000+00:00</time></trkpt><trkpt lat="34.9427776" lon="32.8395728"><ele>1444.0</ele><time>2015-04-29T08:24:56.0000000+00:00</time></trkpt><trkpt lat="34.9427809" lon="32.8396427"><ele>1444.1</ele><time>2015-04-29T08:25:00.0000000+00:00</time></trkpt><trkpt lat="34.9427703" lon="32.8397137"><ele>1446.9</ele><time>2015-04-29T08:25:04.0000000+00:00</time></trkpt><trkpt lat="34.9427704" lon="32.8397792"><ele>1448.9</ele><time>2015-04-29T08:25:08.0000000+00:00</time></trkpt><trkpt lat="34.9427418" lon="32.8398374"><ele>1453.0</ele><time>2015-04-29T08:25:12.0000000+00:00</time></trkpt><trkpt lat="34.942728" lon="32.8399065"><ele>1452.8</ele><time>2015-04-29T08:25:16.0000000+00:00</time></trkpt><trkpt lat="34.9427164" lon="32.8399681"><ele>1450.3</ele><time>2015-04-29T08:25:19.0000000+00:00</time></trkpt><trkpt lat="34.9426965" lon="32.8400274"><ele>1448.5</ele><time>2015-04-29T08:25:22.0000000+00:00</time></trkpt><trkpt lat="34.9426788" lon="32.8400805"><ele>1448.4</ele><time>2015-04-29T08:25:25.0000000+00:00</time></trkpt><trkpt lat="34.9426586" lon="32.8401505"><ele>1451.2</ele><time>2015-04-29T08:25:29.0000000+00:00</time></trkpt><trkpt lat="34.942634" lon="32.8402092"><ele>1457.7</ele><time>2015-04-29T08:25:32.0000000+00:00</time></trkpt><trkpt lat="34.9425937" lon="32.8402571"><ele>1459.6</ele><time>2015-04-29T08:25:35.0000000+00:00</time></trkpt><trkpt lat="34.9425449" lon="32.8402945"><ele>1459.4</ele><time>2015-04-29T08:25:38.0000000+00:00</time></trkpt><trkpt lat="34.9424995" lon="32.8403235"><ele>1457.8</ele><time>2015-04-29T08:25:41.0000000+00:00</time></trkpt><trkpt lat="34.9424595" lon="32.8403517"><ele>1457.5</ele><time>2015-04-29T08:25:44.0000000+00:00</time></trkpt><trkpt lat="34.942411" lon="32.8403875"><ele>1458.5</ele><time>2015-04-29T08:25:48.0000000+00:00</time></trkpt><trkpt lat="34.9423767" lon="32.8404423"><ele>1457.1</ele><time>2015-04-29T08:25:52.0000000+00:00</time></trkpt><trkpt lat="34.9423413" lon="32.8404779"><ele>1457.9</ele><time>2015-04-29T08:25:55.0000000+00:00</time></trkpt><trkpt lat="34.9422969" lon="32.8405202"><ele>1458.3</ele><time>2015-04-29T08:25:59.0000000+00:00</time></trkpt><trkpt lat="34.942252" lon="32.8405588"><ele>1459.1</ele><time>2015-04-29T08:26:03.0000000+00:00</time></trkpt><trkpt lat="34.9422095" lon="32.8406012"><ele>1460.2</ele><time>2015-04-29T08:26:07.0000000+00:00</time></trkpt><trkpt lat="34.9421776" lon="32.8406559"><ele>1459.1</ele><time>2015-04-29T08:26:11.0000000+00:00</time></trkpt><trkpt lat="34.9421413" lon="32.8406915"><ele>1460.9</ele><time>2015-04-29T08:26:14.0000000+00:00</time></trkpt><trkpt lat="34.9420978" lon="32.8407193"><ele>1462.9</ele><time>2015-04-29T08:26:17.0000000+00:00</time></trkpt><trkpt lat="34.9420515" lon="32.8407482"><ele>1464.6</ele><time>2015-04-29T08:26:21.0000000+00:00</time></trkpt><trkpt lat="34.9419976" lon="32.840764"><ele>1464.8</ele><time>2015-04-29T08:26:25.0000000+00:00</time></trkpt><trkpt lat="34.9419414" lon="32.8407718"><ele>1464.0</ele><time>2015-04-29T08:26:29.0000000+00:00</time></trkpt><trkpt lat="34.9418827" lon="32.8407816"><ele>1463.0</ele><time>2015-04-29T08:26:33.0000000+00:00</time></trkpt><trkpt lat="34.9418261" lon="32.840793"><ele>1463.0</ele><time>2015-04-29T08:26:37.0000000+00:00</time></trkpt><trkpt lat="34.9417733" lon="32.8408227"><ele>1460.7</ele><time>2015-04-29T08:26:41.0000000+00:00</time></trkpt><trkpt lat="34.9417144" lon="32.840813"><ele>1458.5</ele><time>2015-04-29T08:26:45.0000000+00:00</time></trkpt><trkpt lat="34.9416656" lon="32.8408166"><ele>1459.2</ele><time>2015-04-29T08:26:48.0000000+00:00</time></trkpt><trkpt lat="34.9416152" lon="32.840825"><ele>1458.8</ele><time>2015-04-29T08:26:51.0000000+00:00</time></trkpt><trkpt lat="34.9415619" lon="32.8408259"><ele>1460.1</ele><time>2015-04-29T08:26:54.0000000+00:00</time></trkpt><trkpt lat="34.941515" lon="32.8408361"><ele>1460.2</ele><time>2015-04-29T08:26:57.0000000+00:00</time></trkpt><trkpt lat="34.9414657" lon="32.8408677"><ele>1460.7</ele><time>2015-04-29T08:27:00.0000000+00:00</time></trkpt><trkpt lat="34.9414211" lon="32.8409067"><ele>1459.8</ele><time>2015-04-29T08:27:03.0000000+00:00</time></trkpt><trkpt lat="34.9413797" lon="32.8409532"><ele>1459.4</ele><time>2015-04-29T08:27:06.0000000+00:00</time></trkpt><trkpt lat="34.9413559" lon="32.84101"><ele>1460.7</ele><time>2015-04-29T08:27:09.0000000+00:00</time></trkpt><trkpt lat="34.9413428" lon="32.8410787"><ele>1459.9</ele><time>2015-04-29T08:27:12.0000000+00:00</time></trkpt><trkpt lat="34.941344" lon="32.8411338"><ele>1459.5</ele><time>2015-04-29T08:27:14.0000000+00:00</time></trkpt><trkpt lat="34.9413504" lon="32.8411884"><ele>1459.7</ele><time>2015-04-29T08:27:16.0000000+00:00</time></trkpt><trkpt lat="34.9413733" lon="32.8412538"><ele>1459.3</ele><time>2015-04-29T08:27:19.0000000+00:00</time></trkpt><trkpt lat="34.94139" lon="32.8413059"><ele>1460.1</ele><time>2015-04-29T08:27:22.0000000+00:00</time></trkpt><trkpt lat="34.9414022" lon="32.8413706"><ele>1460.6</ele><time>2015-04-29T08:27:25.0000000+00:00</time></trkpt><trkpt lat="34.9414149" lon="32.8414436"><ele>1461.7</ele><time>2015-04-29T08:27:28.0000000+00:00</time></trkpt><trkpt lat="34.9414277" lon="32.8415101"><ele>1463.1</ele><time>2015-04-29T08:27:31.0000000+00:00</time></trkpt><trkpt lat="34.9414364" lon="32.8415781"><ele>1468.6</ele><time>2015-04-29T08:27:34.0000000+00:00</time></trkpt><trkpt lat="34.94144" lon="32.8416464"><ele>1469.2</ele><time>2015-04-29T08:27:37.0000000+00:00</time></trkpt><trkpt lat="34.941462" lon="32.8417167"><ele>1470.1</ele><time>2015-04-29T08:27:40.0000000+00:00</time></trkpt><trkpt lat="34.941486" lon="32.841786"><ele>1472.1</ele><time>2015-04-29T08:27:43.0000000+00:00</time></trkpt><trkpt lat="34.9414994" lon="32.8418494"><ele>1472.8</ele><time>2015-04-29T08:27:46.0000000+00:00</time></trkpt><trkpt lat="34.9415193" lon="32.8419176"><ele>1474.6</ele><time>2015-04-29T08:27:49.0000000+00:00</time></trkpt><trkpt lat="34.9415367" lon="32.8419975"><ele>1472.0</ele><time>2015-04-29T08:27:52.0000000+00:00</time></trkpt><trkpt lat="34.9415598" lon="32.8420668"><ele>1470.0</ele><time>2015-04-29T08:27:55.0000000+00:00</time></trkpt><trkpt lat="34.9415694" lon="32.8421296"><ele>1469.2</ele><time>2015-04-29T08:27:58.0000000+00:00</time></trkpt><trkpt lat="34.9415625" lon="32.842197"><ele>1469.1</ele><time>2015-04-29T08:28:01.0000000+00:00</time></trkpt><trkpt lat="34.941543" lon="32.8422703"><ele>1467.3</ele><time>2015-04-29T08:28:04.0000000+00:00</time></trkpt><trkpt lat="34.9415152" lon="32.8423357"><ele>1465.1</ele><time>2015-04-29T08:28:07.0000000+00:00</time></trkpt><trkpt lat="34.9414928" lon="32.8424035"><ele>1466.2</ele><time>2015-04-29T08:28:10.0000000+00:00</time></trkpt><trkpt lat="34.9414866" lon="32.8424584"><ele>1465.9</ele><time>2015-04-29T08:28:12.0000000+00:00</time></trkpt><trkpt lat="34.9414826" lon="32.8425164"><ele>1465.8</ele><time>2015-04-29T08:28:14.0000000+00:00</time></trkpt><trkpt lat="34.9414778" lon="32.8425748"><ele>1464.0</ele><time>2015-04-29T08:28:16.0000000+00:00</time></trkpt><trkpt lat="34.9414716" lon="32.8426399"><ele>1467.3</ele><time>2015-04-29T08:28:18.0000000+00:00</time></trkpt><trkpt lat="34.9414732" lon="32.8427019"><ele>1468.7</ele><time>2015-04-29T08:28:20.0000000+00:00</time></trkpt><trkpt lat="34.9414727" lon="32.8427578"><ele>1470.7</ele><time>2015-04-29T08:28:22.0000000+00:00</time></trkpt><trkpt lat="34.9414677" lon="32.8428356"><ele>1471.6</ele><time>2015-04-29T08:28:25.0000000+00:00</time></trkpt><trkpt lat="34.941459" lon="32.8429116"><ele>1469.7</ele><time>2015-04-29T08:28:28.0000000+00:00</time></trkpt><trkpt lat="34.9414525" lon="32.8429729"><ele>1470.3</ele><time>2015-04-29T08:28:31.0000000+00:00</time></trkpt><trkpt lat="34.9414544" lon="32.8430278"><ele>1469.4</ele><time>2015-04-29T08:28:44.0000000+00:00</time></trkpt><trkpt lat="34.9413955" lon="32.8430409"><ele>1467.2</ele><time>2015-04-29T08:28:58.0000000+00:00</time></trkpt><trkpt lat="34.9413454" lon="32.8430534"><ele>1467.7</ele><time>2015-04-29T08:29:01.0000000+00:00</time></trkpt><trkpt lat="34.9412992" lon="32.8430594"><ele>1466.3</ele><time>2015-04-29T08:29:18.0000000+00:00</time></trkpt><trkpt lat="34.9412466" lon="32.8430304"><ele>1467.7</ele><time>2015-04-29T08:29:23.0000000+00:00</time></trkpt><trkpt lat="34.9412084" lon="32.8429855"><ele>1469.0</ele><time>2015-04-29T08:29:26.0000000+00:00</time></trkpt><trkpt lat="34.9411663" lon="32.8429417"><ele>1471.4</ele><time>2015-04-29T08:29:29.0000000+00:00</time></trkpt><trkpt lat="34.9411294" lon="32.842909"><ele>1473.9</ele><time>2015-04-29T08:29:31.0000000+00:00</time></trkpt><trkpt lat="34.9410857" lon="32.842871"><ele>1475.1</ele><time>2015-04-29T08:29:33.0000000+00:00</time></trkpt><trkpt lat="34.9410442" lon="32.8428327"><ele>1475.1</ele><time>2015-04-29T08:29:35.0000000+00:00</time></trkpt><trkpt lat="34.9410026" lon="32.8427887"><ele>1474.6</ele><time>2015-04-29T08:29:37.0000000+00:00</time></trkpt><trkpt lat="34.94096" lon="32.8427577"><ele>1472.7</ele><time>2015-04-29T08:29:39.0000000+00:00</time></trkpt><trkpt lat="34.9409132" lon="32.8427345"><ele>1471.0</ele><time>2015-04-29T08:29:41.0000000+00:00</time></trkpt><trkpt lat="34.9408686" lon="32.8427007"><ele>1470.3</ele><time>2015-04-29T08:29:43.0000000+00:00</time></trkpt><trkpt lat="34.9408185" lon="32.8426694"><ele>1470.2</ele><time>2015-04-29T08:29:45.0000000+00:00</time></trkpt><trkpt lat="34.9407683" lon="32.8426556"><ele>1467.9</ele><time>2015-04-29T08:29:47.0000000+00:00</time></trkpt><trkpt lat="34.9407165" lon="32.8426431"><ele>1464.5</ele><time>2015-04-29T08:29:49.0000000+00:00</time></trkpt><trkpt lat="34.9406722" lon="32.8426294"><ele>1461.2</ele><time>2015-04-29T08:29:51.0000000+00:00</time></trkpt><trkpt lat="34.9406245" lon="32.842607"><ele>1459.9</ele><time>2015-04-29T08:29:53.0000000+00:00</time></trkpt><trkpt lat="34.9405763" lon="32.8425693"><ele>1458.3</ele><time>2015-04-29T08:29:55.0000000+00:00</time></trkpt><trkpt lat="34.9405183" lon="32.8425208"><ele>1458.6</ele><time>2015-04-29T08:29:57.0000000+00:00</time></trkpt><trkpt lat="34.9404498" lon="32.8424709"><ele>1459.0</ele><time>2015-04-29T08:29:59.0000000+00:00</time></trkpt><trkpt lat="34.9403765" lon="32.8424354"><ele>1456.8</ele><time>2015-04-29T08:30:01.0000000+00:00</time></trkpt><trkpt lat="34.9403021" lon="32.8424254"><ele>1454.8</ele><time>2015-04-29T08:30:03.0000000+00:00</time></trkpt><trkpt lat="34.9402311" lon="32.842444"><ele>1453.3</ele><time>2015-04-29T08:30:05.0000000+00:00</time></trkpt><trkpt lat="34.9401673" lon="32.8424707"><ele>1453.6</ele><time>2015-04-29T08:30:07.0000000+00:00</time></trkpt><trkpt lat="34.9401126" lon="32.8425184"><ele>1452.5</ele><time>2015-04-29T08:30:09.0000000+00:00</time></trkpt><trkpt lat="34.9400607" lon="32.842578"><ele>1452.7</ele><time>2015-04-29T08:30:11.0000000+00:00</time></trkpt><trkpt lat="34.9399963" lon="32.8426395"><ele>1451.2</ele><time>2015-04-29T08:30:13.0000000+00:00</time></trkpt><trkpt lat="34.9399282" lon="32.8426995"><ele>1451.1</ele><time>2015-04-29T08:30:15.0000000+00:00</time></trkpt><trkpt lat="34.9398886" lon="32.8427291"><ele>1451.5</ele><time>2015-04-29T08:30:16.0000000+00:00</time></trkpt><trkpt lat="34.9398124" lon="32.8427692"><ele>1451.6</ele><time>2015-04-29T08:30:17.0000000+00:00</time></trkpt><trkpt lat="34.9397615" lon="32.8427694"><ele>1452.2</ele><time>2015-04-29T08:30:18.0000000+00:00</time></trkpt><trkpt lat="34.9397067" lon="32.8427564"><ele>1452.5</ele><time>2015-04-29T08:30:19.0000000+00:00</time></trkpt><trkpt lat="34.9396509" lon="32.8427498"><ele>1452.6</ele><time>2015-04-29T08:30:20.0000000+00:00</time></trkpt><trkpt lat="34.9395746" lon="32.8427446"><ele>1452.7</ele><time>2015-04-29T08:30:22.0000000+00:00</time></trkpt><trkpt lat="34.9394845" lon="32.8427472"><ele>1453.0</ele><time>2015-04-29T08:30:24.0000000+00:00</time></trkpt><trkpt lat="34.9394362" lon="32.8427731"><ele>1452.9</ele><time>2015-04-29T08:30:25.0000000+00:00</time></trkpt><trkpt lat="34.9393867" lon="32.8427834"><ele>1453.3</ele><time>2015-04-29T08:30:26.0000000+00:00</time></trkpt><trkpt lat="34.9393146" lon="32.8428418"><ele>1454.2</ele><time>2015-04-29T08:30:28.0000000+00:00</time></trkpt><trkpt lat="34.9392671" lon="32.8428566"><ele>1454.5</ele><time>2015-04-29T08:30:29.0000000+00:00</time></trkpt><trkpt lat="34.9392205" lon="32.8428562"><ele>1454.1</ele><time>2015-04-29T08:30:30.0000000+00:00</time></trkpt><trkpt lat="34.9391755" lon="32.8428406"><ele>1452.4</ele><time>2015-04-29T08:30:31.0000000+00:00</time></trkpt><trkpt lat="34.9391336" lon="32.842815"><ele>1452.1</ele><time>2015-04-29T08:30:32.0000000+00:00</time></trkpt><trkpt lat="34.9390805" lon="32.8427536"><ele>1453.1</ele><time>2015-04-29T08:30:34.0000000+00:00</time></trkpt><trkpt lat="34.939039" lon="32.8426915"><ele>1453.6</ele><time>2015-04-29T08:30:36.0000000+00:00</time></trkpt><trkpt lat="34.9389824" lon="32.84265"><ele>1454.5</ele><time>2015-04-29T08:30:38.0000000+00:00</time></trkpt><trkpt lat="34.9389289" lon="32.8425993"><ele>1454.7</ele><time>2015-04-29T08:30:40.0000000+00:00</time></trkpt><trkpt lat="34.9388701" lon="32.842529"><ele>1456.2</ele><time>2015-04-29T08:30:42.0000000+00:00</time></trkpt><trkpt lat="34.9388218" lon="32.8424782"><ele>1457.0</ele><time>2015-04-29T08:30:43.0000000+00:00</time></trkpt><trkpt lat="34.9387814" lon="32.8424373"><ele>1456.4</ele><time>2015-04-29T08:30:44.0000000+00:00</time></trkpt><trkpt lat="34.9387443" lon="32.8423912"><ele>1454.6</ele><time>2015-04-29T08:30:45.0000000+00:00</time></trkpt><trkpt lat="34.9386691" lon="32.8423285"><ele>1451.5</ele><time>2015-04-29T08:30:47.0000000+00:00</time></trkpt><trkpt lat="34.9385933" lon="32.8422849"><ele>1450.4</ele><time>2015-04-29T08:30:49.0000000+00:00</time></trkpt><trkpt lat="34.9385191" lon="32.8422632"><ele>1449.7</ele><time>2015-04-29T08:30:51.0000000+00:00</time></trkpt><trkpt lat="34.9384485" lon="32.8422592"><ele>1448.2</ele><time>2015-04-29T08:30:53.0000000+00:00</time></trkpt><trkpt lat="34.9383837" lon="32.8422584"><ele>1446.4</ele><time>2015-04-29T08:30:55.0000000+00:00</time></trkpt><trkpt lat="34.938326" lon="32.8422872"><ele>1444.2</ele><time>2015-04-29T08:30:58.0000000+00:00</time></trkpt><trkpt lat="34.9382648" lon="32.8423227"><ele>1442.2</ele><time>2015-04-29T08:31:01.0000000+00:00</time></trkpt><trkpt lat="34.9382188" lon="32.8423631"><ele>1441.6</ele><time>2015-04-29T08:31:03.0000000+00:00</time></trkpt><trkpt lat="34.9381621" lon="32.8424205"><ele>1441.0</ele><time>2015-04-29T08:31:05.0000000+00:00</time></trkpt><trkpt lat="34.9380968" lon="32.8424908"><ele>1440.9</ele><time>2015-04-29T08:31:06.0000000+00:00</time></trkpt><trkpt lat="34.9380174" lon="32.8425708"><ele>1440.0</ele><time>2015-04-29T08:31:08.0000000+00:00</time></trkpt><trkpt lat="34.9379742" lon="32.8426014"><ele>1439.9</ele><time>2015-04-29T08:31:09.0000000+00:00</time></trkpt><trkpt lat="34.9379243" lon="32.8426298"><ele>1439.3</ele><time>2015-04-29T08:31:10.0000000+00:00</time></trkpt><trkpt lat="34.9378766" lon="32.8426335"><ele>1438.0</ele><time>2015-04-29T08:31:11.0000000+00:00</time></trkpt><trkpt lat="34.9378246" lon="32.8426299"><ele>1437.9</ele><time>2015-04-29T08:31:12.0000000+00:00</time></trkpt><trkpt lat="34.9377789" lon="32.842612"><ele>1437.3</ele><time>2015-04-29T08:31:13.0000000+00:00</time></trkpt><trkpt lat="34.9376949" lon="32.8425895"><ele>1436.2</ele><time>2015-04-29T08:31:15.0000000+00:00</time></trkpt><trkpt lat="34.9376539" lon="32.8425575"><ele>1435.5</ele><time>2015-04-29T08:31:16.0000000+00:00</time></trkpt><trkpt lat="34.9376197" lon="32.8425173"><ele>1434.6</ele><time>2015-04-29T08:31:17.0000000+00:00</time></trkpt><trkpt lat="34.9375919" lon="32.8424697"><ele>1435.2</ele><time>2015-04-29T08:31:18.0000000+00:00</time></trkpt><trkpt lat="34.937549" lon="32.8423811"><ele>1436.6</ele><time>2015-04-29T08:31:20.0000000+00:00</time></trkpt><trkpt lat="34.9375357" lon="32.8423147"><ele>1438.2</ele><time>2015-04-29T08:31:22.0000000+00:00</time></trkpt><trkpt lat="34.9375288" lon="32.842242"><ele>1438.0</ele><time>2015-04-29T08:31:23.0000000+00:00</time></trkpt><trkpt lat="34.9375283" lon="32.8421817"><ele>1437.9</ele><time>2015-04-29T08:31:24.0000000+00:00</time></trkpt><trkpt lat="34.9374911" lon="32.8420928"><ele>1437.8</ele><time>2015-04-29T08:31:26.0000000+00:00</time></trkpt><trkpt lat="34.937483" lon="32.8420172"><ele>1436.8</ele><time>2015-04-29T08:31:27.0000000+00:00</time></trkpt><trkpt lat="34.9374813" lon="32.8419609"><ele>1436.8</ele><time>2015-04-29T08:31:28.0000000+00:00</time></trkpt><trkpt lat="34.937456" lon="32.8419096"><ele>1436.3</ele><time>2015-04-29T08:31:29.0000000+00:00</time></trkpt><trkpt lat="34.937446" lon="32.8418497"><ele>1435.5</ele><time>2015-04-29T08:31:30.0000000+00:00</time></trkpt><trkpt lat="34.937445" lon="32.8417857"><ele>1436.6</ele><time>2015-04-29T08:31:31.0000000+00:00</time></trkpt><trkpt lat="34.9374253" lon="32.8417354"><ele>1437.2</ele><time>2015-04-29T08:31:32.0000000+00:00</time></trkpt><trkpt lat="34.9373983" lon="32.841637"><ele>1437.1</ele><time>2015-04-29T08:31:34.0000000+00:00</time></trkpt><trkpt lat="34.9373753" lon="32.8415578"><ele>1437.4</ele><time>2015-04-29T08:31:35.0000000+00:00</time></trkpt><trkpt lat="34.9373511" lon="32.84147"><ele>1439.1</ele><time>2015-04-29T08:31:36.0000000+00:00</time></trkpt><trkpt lat="34.9373261" lon="32.8413947"><ele>1439.9</ele><time>2015-04-29T08:31:37.0000000+00:00</time></trkpt><trkpt lat="34.9373026" lon="32.8413184"><ele>1439.8</ele><time>2015-04-29T08:31:38.0000000+00:00</time></trkpt><trkpt lat="34.9372754" lon="32.8412573"><ele>1438.8</ele><time>2015-04-29T08:31:39.0000000+00:00</time></trkpt><trkpt lat="34.9372361" lon="32.8411694"><ele>1438.3</ele><time>2015-04-29T08:31:40.0000000+00:00</time></trkpt><trkpt lat="34.9371993" lon="32.8411013"><ele>1438.5</ele><time>2015-04-29T08:31:41.0000000+00:00</time></trkpt><trkpt lat="34.9371556" lon="32.8410239"><ele>1439.1</ele><time>2015-04-29T08:31:42.0000000+00:00</time></trkpt><trkpt lat="34.9370946" lon="32.8409796"><ele>1439.5</ele><time>2015-04-29T08:31:43.0000000+00:00</time></trkpt><trkpt lat="34.9370423" lon="32.8409314"><ele>1438.6</ele><time>2015-04-29T08:31:44.0000000+00:00</time></trkpt><trkpt lat="34.9369892" lon="32.840891"><ele>1438.2</ele><time>2015-04-29T08:31:45.0000000+00:00</time></trkpt><trkpt lat="34.9369424" lon="32.8408598"><ele>1438.0</ele><time>2015-04-29T08:31:46.0000000+00:00</time></trkpt><trkpt lat="34.9368752" lon="32.8408216"><ele>1441.1</ele><time>2015-04-29T08:31:48.0000000+00:00</time></trkpt><trkpt lat="34.9368276" lon="32.8407773"><ele>1441.8</ele><time>2015-04-29T08:31:50.0000000+00:00</time></trkpt><trkpt lat="34.9367858" lon="32.8407534"><ele>1442.0</ele><time>2015-04-29T08:31:52.0000000+00:00</time></trkpt><trkpt lat="34.9367533" lon="32.8407108"><ele>1440.0</ele><time>2015-04-29T08:31:55.0000000+00:00</time></trkpt><trkpt lat="34.9367154" lon="32.8406713"><ele>1440.3</ele><time>2015-04-29T08:31:57.0000000+00:00</time></trkpt><trkpt lat="34.9366702" lon="32.8406348"><ele>1441.2</ele><time>2015-04-29T08:31:59.0000000+00:00</time></trkpt><trkpt lat="34.9366238" lon="32.8405848"><ele>1440.4</ele><time>2015-04-29T08:32:01.0000000+00:00</time></trkpt><trkpt lat="34.9365802" lon="32.8405299"><ele>1440.2</ele><time>2015-04-29T08:32:03.0000000+00:00</time></trkpt><trkpt lat="34.9365343" lon="32.8404817"><ele>1439.9</ele><time>2015-04-29T08:32:05.0000000+00:00</time></trkpt><trkpt lat="34.9364825" lon="32.8404476"><ele>1439.8</ele><time>2015-04-29T08:32:07.0000000+00:00</time></trkpt><trkpt lat="34.9364286" lon="32.8404099"><ele>1438.5</ele><time>2015-04-29T08:32:09.0000000+00:00</time></trkpt><trkpt lat="34.9363785" lon="32.8403659"><ele>1437.2</ele><time>2015-04-29T08:32:11.0000000+00:00</time></trkpt><trkpt lat="34.9363341" lon="32.8403159"><ele>1436.9</ele><time>2015-04-29T08:32:13.0000000+00:00</time></trkpt><trkpt lat="34.9362958" lon="32.8402692"><ele>1436.3</ele><time>2015-04-29T08:32:15.0000000+00:00</time></trkpt><trkpt lat="34.936258" lon="32.8402287"><ele>1436.9</ele><time>2015-04-29T08:32:17.0000000+00:00</time></trkpt><trkpt lat="34.9362224" lon="32.8401896"><ele>1437.3</ele><time>2015-04-29T08:32:19.0000000+00:00</time></trkpt><trkpt lat="34.9361932" lon="32.8401466"><ele>1437.4</ele><time>2015-04-29T08:32:21.0000000+00:00</time></trkpt><trkpt lat="34.9361618" lon="32.8401041"><ele>1437.9</ele><time>2015-04-29T08:32:23.0000000+00:00</time></trkpt><trkpt lat="34.9361198" lon="32.8400544"><ele>1438.1</ele><time>2015-04-29T08:32:25.0000000+00:00</time></trkpt><trkpt lat="34.9360708" lon="32.8400106"><ele>1440.8</ele><time>2015-04-29T08:32:27.0000000+00:00</time></trkpt><trkpt lat="34.936018" lon="32.8399692"><ele>1440.5</ele><time>2015-04-29T08:32:29.0000000+00:00</time></trkpt><trkpt lat="34.9359676" lon="32.8399315"><ele>1440.2</ele><time>2015-04-29T08:32:31.0000000+00:00</time></trkpt><trkpt lat="34.9359134" lon="32.8399029"><ele>1440.9</ele><time>2015-04-29T08:32:33.0000000+00:00</time></trkpt><trkpt lat="34.9358634" lon="32.8398687"><ele>1443.0</ele><time>2015-04-29T08:32:35.0000000+00:00</time></trkpt><trkpt lat="34.9358182" lon="32.8398326"><ele>1443.1</ele><time>2015-04-29T08:32:37.0000000+00:00</time></trkpt><trkpt lat="34.9357768" lon="32.8397934"><ele>1442.6</ele><time>2015-04-29T08:32:39.0000000+00:00</time></trkpt><trkpt lat="34.9357339" lon="32.8397588"><ele>1442.0</ele><time>2015-04-29T08:32:41.0000000+00:00</time></trkpt><trkpt lat="34.9356823" lon="32.8397356"><ele>1441.1</ele><time>2015-04-29T08:32:43.0000000+00:00</time></trkpt><trkpt lat="34.9356312" lon="32.8397222"><ele>1440.3</ele><time>2015-04-29T08:32:45.0000000+00:00</time></trkpt><trkpt lat="34.9355776" lon="32.8397157"><ele>1439.4</ele><time>2015-04-29T08:32:47.0000000+00:00</time></trkpt><trkpt lat="34.9355284" lon="32.8397066"><ele>1438.4</ele><time>2015-04-29T08:32:49.0000000+00:00</time></trkpt><trkpt lat="34.935479" lon="32.8396973"><ele>1438.4</ele><time>2015-04-29T08:32:51.0000000+00:00</time></trkpt><trkpt lat="34.9354249" lon="32.8396808"><ele>1439.7</ele><time>2015-04-29T08:32:53.0000000+00:00</time></trkpt><trkpt lat="34.9353728" lon="32.8396709"><ele>1439.2</ele><time>2015-04-29T08:32:55.0000000+00:00</time></trkpt><trkpt lat="34.9353225" lon="32.8396618"><ele>1438.1</ele><time>2015-04-29T08:32:57.0000000+00:00</time></trkpt><trkpt lat="34.9352585" lon="32.8396424"><ele>1440.2</ele><time>2015-04-29T08:33:00.0000000+00:00</time></trkpt><trkpt lat="34.9351991" lon="32.8396082"><ele>1441.3</ele><time>2015-04-29T08:33:03.0000000+00:00</time></trkpt><trkpt lat="34.9351372" lon="32.8395945"><ele>1442.6</ele><time>2015-04-29T08:33:06.0000000+00:00</time></trkpt><trkpt lat="34.9350864" lon="32.8396083"><ele>1441.0</ele><time>2015-04-29T08:33:09.0000000+00:00</time></trkpt><trkpt lat="34.9350563" lon="32.8396602"><ele>1440.8</ele><time>2015-04-29T08:33:13.0000000+00:00</time></trkpt><trkpt lat="34.935048" lon="32.8397181"><ele>1441.6</ele><time>2015-04-29T08:33:16.0000000+00:00</time></trkpt><trkpt lat="34.9350393" lon="32.8397862"><ele>1443.4</ele><time>2015-04-29T08:33:19.0000000+00:00</time></trkpt><trkpt lat="34.9350118" lon="32.8398489"><ele>1444.8</ele><time>2015-04-29T08:33:22.0000000+00:00</time></trkpt><trkpt lat="34.9349755" lon="32.8399176"><ele>1444.6</ele><time>2015-04-29T08:33:25.0000000+00:00</time></trkpt><trkpt lat="34.934944" lon="32.8399632"><ele>1445.0</ele><time>2015-04-29T08:33:27.0000000+00:00</time></trkpt><trkpt lat="34.934903" lon="32.8400062"><ele>1445.3</ele><time>2015-04-29T08:33:29.0000000+00:00</time></trkpt><trkpt lat="34.9348686" lon="32.8400567"><ele>1445.7</ele><time>2015-04-29T08:33:31.0000000+00:00</time></trkpt><trkpt lat="34.934835" lon="32.8401109"><ele>1445.5</ele><time>2015-04-29T08:33:33.0000000+00:00</time></trkpt><trkpt lat="34.9347984" lon="32.8401573"><ele>1446.4</ele><time>2015-04-29T08:33:35.0000000+00:00</time></trkpt><trkpt lat="34.9347626" lon="32.840207"><ele>1446.7</ele><time>2015-04-29T08:33:37.0000000+00:00</time></trkpt><trkpt lat="34.9347316" lon="32.8402487"><ele>1446.2</ele><time>2015-04-29T08:33:39.0000000+00:00</time></trkpt><trkpt lat="34.93468" lon="32.8402943"><ele>1444.9</ele><time>2015-04-29T08:33:42.0000000+00:00</time></trkpt><trkpt lat="34.934635" lon="32.8403354"><ele>1445.9</ele><time>2015-04-29T08:33:45.0000000+00:00</time></trkpt><trkpt lat="34.9345984" lon="32.8403758"><ele>1445.8</ele><time>2015-04-29T08:33:48.0000000+00:00</time></trkpt><trkpt lat="34.9345493" lon="32.8404057"><ele>1446.3</ele><time>2015-04-29T08:33:52.0000000+00:00</time></trkpt><trkpt lat="34.9345056" lon="32.8404404"><ele>1453.0</ele><time>2015-04-29T08:35:07.0000000+00:00</time></trkpt><trkpt lat="34.934455" lon="32.8404997"><ele>1452.8</ele><time>2015-04-29T08:35:09.0000000+00:00</time></trkpt><trkpt lat="34.9344091" lon="32.8405641"><ele>1453.0</ele><time>2015-04-29T08:35:11.0000000+00:00</time></trkpt><trkpt lat="34.9343684" lon="32.8406225"><ele>1453.6</ele><time>2015-04-29T08:35:13.0000000+00:00</time></trkpt><trkpt lat="34.9343306" lon="32.8406675"><ele>1455.2</ele><time>2015-04-29T08:35:15.0000000+00:00</time></trkpt><trkpt lat="34.9342952" lon="32.8407048"><ele>1456.4</ele><time>2015-04-29T08:35:17.0000000+00:00</time></trkpt><trkpt lat="34.9342485" lon="32.8407358"><ele>1455.4</ele><time>2015-04-29T08:35:19.0000000+00:00</time></trkpt><trkpt lat="34.9341976" lon="32.8407557"><ele>1454.2</ele><time>2015-04-29T08:35:21.0000000+00:00</time></trkpt><trkpt lat="34.934144" lon="32.8407602"><ele>1451.9</ele><time>2015-04-29T08:35:23.0000000+00:00</time></trkpt><trkpt lat="34.9340924" lon="32.8407298"><ele>1451.0</ele><time>2015-04-29T08:35:25.0000000+00:00</time></trkpt><trkpt lat="34.934041" lon="32.8406882"><ele>1451.6</ele><time>2015-04-29T08:35:27.0000000+00:00</time></trkpt><trkpt lat="34.9339818" lon="32.8406623"><ele>1450.2</ele><time>2015-04-29T08:35:29.0000000+00:00</time></trkpt><trkpt lat="34.9339227" lon="32.8406638"><ele>1449.4</ele><time>2015-04-29T08:35:31.0000000+00:00</time></trkpt><trkpt lat="34.9338685" lon="32.8406922"><ele>1448.2</ele><time>2015-04-29T08:35:33.0000000+00:00</time></trkpt><trkpt lat="34.9338245" lon="32.8407334"><ele>1448.4</ele><time>2015-04-29T08:35:35.0000000+00:00</time></trkpt><trkpt lat="34.9337777" lon="32.8407804"><ele>1448.4</ele><time>2015-04-29T08:35:37.0000000+00:00</time></trkpt><trkpt lat="34.9337237" lon="32.8408209"><ele>1449.2</ele><time>2015-04-29T08:35:39.0000000+00:00</time></trkpt><trkpt lat="34.9336623" lon="32.8408406"><ele>1449.4</ele><time>2015-04-29T08:35:41.0000000+00:00</time></trkpt><trkpt lat="34.9336045" lon="32.8408352"><ele>1448.2</ele><time>2015-04-29T08:35:43.0000000+00:00</time></trkpt><trkpt lat="34.9335475" lon="32.8408117"><ele>1450.1</ele><time>2015-04-29T08:35:45.0000000+00:00</time></trkpt><trkpt lat="34.9334943" lon="32.8407842"><ele>1450.1</ele><time>2015-04-29T08:35:47.0000000+00:00</time></trkpt><trkpt lat="34.9334353" lon="32.8407561"><ele>1449.1</ele><time>2015-04-29T08:35:49.0000000+00:00</time></trkpt><trkpt lat="34.933376" lon="32.8407324"><ele>1449.8</ele><time>2015-04-29T08:35:51.0000000+00:00</time></trkpt><trkpt lat="34.9333088" lon="32.8407122"><ele>1451.0</ele><time>2015-04-29T08:35:53.0000000+00:00</time></trkpt><trkpt lat="34.9332426" lon="32.8407022"><ele>1451.1</ele><time>2015-04-29T08:35:55.0000000+00:00</time></trkpt><trkpt lat="34.933171" lon="32.8407006"><ele>1450.8</ele><time>2015-04-29T08:35:57.0000000+00:00</time></trkpt><trkpt lat="34.9330945" lon="32.8407031"><ele>1448.8</ele><time>2015-04-29T08:35:59.0000000+00:00</time></trkpt><trkpt lat="34.933049" lon="32.8407093"><ele>1448.3</ele><time>2015-04-29T08:36:00.0000000+00:00</time></trkpt><trkpt lat="34.9330021" lon="32.8407192"><ele>1448.0</ele><time>2015-04-29T08:36:01.0000000+00:00</time></trkpt><trkpt lat="34.9329549" lon="32.840729"><ele>1448.4</ele><time>2015-04-29T08:36:02.0000000+00:00</time></trkpt><trkpt lat="34.9329106" lon="32.8407449"><ele>1448.1</ele><time>2015-04-29T08:36:03.0000000+00:00</time></trkpt><trkpt lat="34.9328654" lon="32.8407667"><ele>1447.4</ele><time>2015-04-29T08:36:04.0000000+00:00</time></trkpt><trkpt lat="34.9327879" lon="32.8408127"><ele>1447.9</ele><time>2015-04-29T08:36:06.0000000+00:00</time></trkpt><trkpt lat="34.9327112" lon="32.8408604"><ele>1448.3</ele><time>2015-04-29T08:36:08.0000000+00:00</time></trkpt><trkpt lat="34.93263" lon="32.840917"><ele>1450.4</ele><time>2015-04-29T08:36:10.0000000+00:00</time></trkpt><trkpt lat="34.9325899" lon="32.8409662"><ele>1450.1</ele><time>2015-04-29T08:36:11.0000000+00:00</time></trkpt><trkpt lat="34.9325503" lon="32.8410016"><ele>1449.4</ele><time>2015-04-29T08:36:12.0000000+00:00</time></trkpt><trkpt lat="34.932506" lon="32.8410498"><ele>1448.1</ele><time>2015-04-29T08:36:13.0000000+00:00</time></trkpt><trkpt lat="34.93247" lon="32.8410884"><ele>1447.4</ele><time>2015-04-29T08:36:14.0000000+00:00</time></trkpt><trkpt lat="34.9324221" lon="32.8411202"><ele>1447.6</ele><time>2015-04-29T08:36:15.0000000+00:00</time></trkpt><trkpt lat="34.9323834" lon="32.8411576"><ele>1447.2</ele><time>2015-04-29T08:36:16.0000000+00:00</time></trkpt><trkpt lat="34.9323451" lon="32.8411931"><ele>1446.5</ele><time>2015-04-29T08:36:17.0000000+00:00</time></trkpt><trkpt lat="34.9323136" lon="32.8412347"><ele>1446.1</ele><time>2015-04-29T08:36:18.0000000+00:00</time></trkpt><trkpt lat="34.9322819" lon="32.841277"><ele>1446.4</ele><time>2015-04-29T08:36:19.0000000+00:00</time></trkpt><trkpt lat="34.9322544" lon="32.8413469"><ele>1447.1</ele><time>2015-04-29T08:36:20.0000000+00:00</time></trkpt><trkpt lat="34.9322333" lon="32.841407"><ele>1447.4</ele><time>2015-04-29T08:36:21.0000000+00:00</time></trkpt><trkpt lat="34.9322128" lon="32.841464"><ele>1448.1</ele><time>2015-04-29T08:36:22.0000000+00:00</time></trkpt><trkpt lat="34.9322103" lon="32.8415249"><ele>1447.9</ele><time>2015-04-29T08:36:23.0000000+00:00</time></trkpt><trkpt lat="34.9322164" lon="32.8416005"><ele>1447.8</ele><time>2015-04-29T08:36:24.0000000+00:00</time></trkpt><trkpt lat="34.932208" lon="32.8416707"><ele>1447.3</ele><time>2015-04-29T08:36:25.0000000+00:00</time></trkpt><trkpt lat="34.9322033" lon="32.8417532"><ele>1446.4</ele><time>2015-04-29T08:36:27.0000000+00:00</time></trkpt><trkpt lat="34.9321962" lon="32.8418421"><ele>1445.9</ele><time>2015-04-29T08:36:29.0000000+00:00</time></trkpt><trkpt lat="34.9321508" lon="32.8419494"><ele>1445.3</ele><time>2015-04-29T08:36:31.0000000+00:00</time></trkpt><trkpt lat="34.9321155" lon="32.8420267"><ele>1444.9</ele><time>2015-04-29T08:36:33.0000000+00:00</time></trkpt><trkpt lat="34.9320806" lon="32.8421186"><ele>1445.5</ele><time>2015-04-29T08:36:35.0000000+00:00</time></trkpt><trkpt lat="34.9320719" lon="32.8421741"><ele>1445.7</ele><time>2015-04-29T08:36:36.0000000+00:00</time></trkpt><trkpt lat="34.932065" lon="32.8422367"><ele>1445.2</ele><time>2015-04-29T08:36:37.0000000+00:00</time></trkpt><trkpt lat="34.9320625" lon="32.8422993"><ele>1444.0</ele><time>2015-04-29T08:36:38.0000000+00:00</time></trkpt><trkpt lat="34.9320506" lon="32.8423726"><ele>1442.9</ele><time>2015-04-29T08:36:39.0000000+00:00</time></trkpt><trkpt lat="34.9320345" lon="32.8424518"><ele>1442.8</ele><time>2015-04-29T08:36:40.0000000+00:00</time></trkpt><trkpt lat="34.9320117" lon="32.8425199"><ele>1442.3</ele><time>2015-04-29T08:36:41.0000000+00:00</time></trkpt><trkpt lat="34.9319725" lon="32.8426345"><ele>1442.1</ele><time>2015-04-29T08:36:43.0000000+00:00</time></trkpt><trkpt lat="34.9319507" lon="32.8426994"><ele>1442.1</ele><time>2015-04-29T08:36:45.0000000+00:00</time></trkpt><trkpt lat="34.9318955" lon="32.8427241"><ele>1443.4</ele><time>2015-04-29T08:36:49.0000000+00:00</time></trkpt><trkpt lat="34.9318468" lon="32.8427076"><ele>1446.3</ele><time>2015-04-29T08:36:52.0000000+00:00</time></trkpt><trkpt lat="34.9318015" lon="32.8426896"><ele>1447.6</ele><time>2015-04-29T08:36:55.0000000+00:00</time></trkpt><trkpt lat="34.93177" lon="32.8426304"><ele>1448.7</ele><time>2015-04-29T08:36:59.0000000+00:00</time></trkpt><trkpt lat="34.9317652" lon="32.8426853"><ele>1447.0</ele><time>2015-04-29T08:37:20.0000000+00:00</time></trkpt><trkpt lat="34.9317624" lon="32.8426284"><ele>1435.0</ele><time>2015-04-29T08:43:07.0000000+00:00</time></trkpt><trkpt lat="34.9317232" lon="32.8425887"><ele>1435.8</ele><time>2015-04-29T08:43:13.0000000+00:00</time></trkpt><trkpt lat="34.9316797" lon="32.8425464"><ele>1435.5</ele><time>2015-04-29T08:43:16.0000000+00:00</time></trkpt><trkpt lat="34.9316177" lon="32.8424977"><ele>1439.0</ele><time>2015-04-29T08:43:18.0000000+00:00</time></trkpt><trkpt lat="34.9315536" lon="32.8424396"><ele>1437.6</ele><time>2015-04-29T08:43:20.0000000+00:00</time></trkpt><trkpt lat="34.931494" lon="32.8423681"><ele>1437.0</ele><time>2015-04-29T08:43:22.0000000+00:00</time></trkpt><trkpt lat="34.9314426" lon="32.8422789"><ele>1437.3</ele><time>2015-04-29T08:43:24.0000000+00:00</time></trkpt><trkpt lat="34.9314183" lon="32.8422247"><ele>1438.5</ele><time>2015-04-29T08:43:25.0000000+00:00</time></trkpt><trkpt lat="34.9313926" lon="32.8421717"><ele>1439.2</ele><time>2015-04-29T08:43:26.0000000+00:00</time></trkpt><trkpt lat="34.9313651" lon="32.8421219"><ele>1438.5</ele><time>2015-04-29T08:43:27.0000000+00:00</time></trkpt><trkpt lat="34.9313332" lon="32.8420735"><ele>1437.6</ele><time>2015-04-29T08:43:28.0000000+00:00</time></trkpt><trkpt lat="34.9312964" lon="32.8420303"><ele>1437.2</ele><time>2015-04-29T08:43:29.0000000+00:00</time></trkpt><trkpt lat="34.9312212" lon="32.8419458"><ele>1437.0</ele><time>2015-04-29T08:43:30.0000000+00:00</time></trkpt><trkpt lat="34.931185" lon="32.8419095"><ele>1437.4</ele><time>2015-04-29T08:43:31.0000000+00:00</time></trkpt><trkpt lat="34.9311332" lon="32.8418543"><ele>1437.7</ele><time>2015-04-29T08:43:33.0000000+00:00</time></trkpt><trkpt lat="34.9310533" lon="32.8418012"><ele>1434.0</ele><time>2015-04-29T08:43:35.0000000+00:00</time></trkpt><trkpt lat="34.9310152" lon="32.8417602"><ele>1432.9</ele><time>2015-04-29T08:43:36.0000000+00:00</time></trkpt><trkpt lat="34.9309727" lon="32.8417241"><ele>1432.8</ele><time>2015-04-29T08:43:37.0000000+00:00</time></trkpt><trkpt lat="34.9309241" lon="32.8417092"><ele>1433.8</ele><time>2015-04-29T08:43:38.0000000+00:00</time></trkpt><trkpt lat="34.9308523" lon="32.8416274"><ele>1434.3</ele><time>2015-04-29T08:43:40.0000000+00:00</time></trkpt><trkpt lat="34.9307959" lon="32.8415948"><ele>1435.0</ele><time>2015-04-29T08:43:41.0000000+00:00</time></trkpt><trkpt lat="34.9307485" lon="32.8415668"><ele>1435.9</ele><time>2015-04-29T08:43:42.0000000+00:00</time></trkpt><trkpt lat="34.9306985" lon="32.8415495"><ele>1436.3</ele><time>2015-04-29T08:43:43.0000000+00:00</time></trkpt><trkpt lat="34.9306169" lon="32.8415507"><ele>1433.7</ele><time>2015-04-29T08:43:45.0000000+00:00</time></trkpt><trkpt lat="34.9305355" lon="32.8415879"><ele>1431.0</ele><time>2015-04-29T08:43:47.0000000+00:00</time></trkpt><trkpt lat="34.930483" lon="32.8415974"><ele>1429.4</ele><time>2015-04-29T08:43:48.0000000+00:00</time></trkpt><trkpt lat="34.9304321" lon="32.8416248"><ele>1427.1</ele><time>2015-04-29T08:43:49.0000000+00:00</time></trkpt><trkpt lat="34.9303584" lon="32.8416008"><ele>1426.3</ele><time>2015-04-29T08:43:51.0000000+00:00</time></trkpt><trkpt lat="34.9302783" lon="32.841573"><ele>1425.7</ele><time>2015-04-29T08:43:53.0000000+00:00</time></trkpt><trkpt lat="34.9301974" lon="32.8415538"><ele>1425.5</ele><time>2015-04-29T08:43:55.0000000+00:00</time></trkpt><trkpt lat="34.9301262" lon="32.8415964"><ele>1424.4</ele><time>2015-04-29T08:43:57.0000000+00:00</time></trkpt><trkpt lat="34.9300784" lon="32.8416181"><ele>1423.2</ele><time>2015-04-29T08:43:59.0000000+00:00</time></trkpt><trkpt lat="34.9300551" lon="32.8416753"><ele>1421.6</ele><time>2015-04-29T08:44:01.0000000+00:00</time></trkpt><trkpt lat="34.9300014" lon="32.8416768"><ele>1423.7</ele><time>2015-04-29T08:44:06.0000000+00:00</time></trkpt><trkpt lat="34.9299675" lon="32.841638"><ele>1427.8</ele><time>2015-04-29T08:44:12.0000000+00:00</time></trkpt><trkpt lat="34.9299513" lon="32.8415818"><ele>1429.2</ele><time>2015-04-29T08:44:18.0000000+00:00</time></trkpt><trkpt lat="34.9299471" lon="32.8415238"><ele>1430.6</ele><time>2015-04-29T08:44:20.0000000+00:00</time></trkpt><trkpt lat="34.9299534" lon="32.8414557"><ele>1433.2</ele><time>2015-04-29T08:44:22.0000000+00:00</time></trkpt><trkpt lat="34.9299702" lon="32.8413884"><ele>1432.9</ele><time>2015-04-29T08:44:24.0000000+00:00</time></trkpt><trkpt lat="34.929984" lon="32.8413208"><ele>1431.0</ele><time>2015-04-29T08:44:26.0000000+00:00</time></trkpt><trkpt lat="34.9299875" lon="32.841244"><ele>1432.6</ele><time>2015-04-29T08:44:28.0000000+00:00</time></trkpt><trkpt lat="34.929984" lon="32.8411622"><ele>1434.2</ele><time>2015-04-29T08:44:30.0000000+00:00</time></trkpt><trkpt lat="34.9299702" lon="32.8410773"><ele>1435.6</ele><time>2015-04-29T08:44:32.0000000+00:00</time></trkpt><trkpt lat="34.929934" lon="32.8410018"><ele>1438.5</ele><time>2015-04-29T08:44:34.0000000+00:00</time></trkpt><trkpt lat="34.9298843" lon="32.8409334"><ele>1440.4</ele><time>2015-04-29T08:44:36.0000000+00:00</time></trkpt><trkpt lat="34.9298373" lon="32.8408701"><ele>1441.4</ele><time>2015-04-29T08:44:38.0000000+00:00</time></trkpt><trkpt lat="34.9298025" lon="32.8407909"><ele>1441.9</ele><time>2015-04-29T08:44:40.0000000+00:00</time></trkpt><trkpt lat="34.9297914" lon="32.8406967"><ele>1440.8</ele><time>2015-04-29T08:44:42.0000000+00:00</time></trkpt><trkpt lat="34.9298094" lon="32.8406051"><ele>1439.0</ele><time>2015-04-29T08:44:44.0000000+00:00</time></trkpt><trkpt lat="34.9298511" lon="32.840531"><ele>1437.1</ele><time>2015-04-29T08:44:46.0000000+00:00</time></trkpt><trkpt lat="34.9299028" lon="32.8404683"><ele>1435.3</ele><time>2015-04-29T08:44:48.0000000+00:00</time></trkpt><trkpt lat="34.9299508" lon="32.8403997"><ele>1433.4</ele><time>2015-04-29T08:44:50.0000000+00:00</time></trkpt><trkpt lat="34.9299918" lon="32.8403231"><ele>1432.4</ele><time>2015-04-29T08:44:52.0000000+00:00</time></trkpt><trkpt lat="34.9300047" lon="32.8402316"><ele>1431.4</ele><time>2015-04-29T08:44:54.0000000+00:00</time></trkpt><trkpt lat="34.9300021" lon="32.8401446"><ele>1428.9</ele><time>2015-04-29T08:44:56.0000000+00:00</time></trkpt><trkpt lat="34.9299984" lon="32.8400629"><ele>1428.1</ele><time>2015-04-29T08:44:58.0000000+00:00</time></trkpt><trkpt lat="34.9299996" lon="32.8399879"><ele>1427.3</ele><time>2015-04-29T08:45:00.0000000+00:00</time></trkpt><trkpt lat="34.9300102" lon="32.8399136"><ele>1427.9</ele><time>2015-04-29T08:45:02.0000000+00:00</time></trkpt><trkpt lat="34.9300149" lon="32.8398376"><ele>1429.1</ele><time>2015-04-29T08:45:04.0000000+00:00</time></trkpt><trkpt lat="34.930015" lon="32.8397674"><ele>1431.6</ele><time>2015-04-29T08:45:06.0000000+00:00</time></trkpt><trkpt lat="34.9300061" lon="32.839708"><ele>1432.7</ele><time>2015-04-29T08:45:08.0000000+00:00</time></trkpt><trkpt lat="34.9299914" lon="32.8396524"><ele>1431.5</ele><time>2015-04-29T08:45:10.0000000+00:00</time></trkpt><trkpt lat="34.9299569" lon="32.8395828"><ele>1431.0</ele><time>2015-04-29T08:45:13.0000000+00:00</time></trkpt><trkpt lat="34.9299169" lon="32.839522"><ele>1432.4</ele><time>2015-04-29T08:45:16.0000000+00:00</time></trkpt><trkpt lat="34.9298813" lon="32.8394791"><ele>1434.2</ele><time>2015-04-29T08:45:18.0000000+00:00</time></trkpt><trkpt lat="34.9298614" lon="32.8394195"><ele>1436.1</ele><time>2015-04-29T08:45:20.0000000+00:00</time></trkpt><trkpt lat="34.9298533" lon="32.8393543"><ele>1434.6</ele><time>2015-04-29T08:45:22.0000000+00:00</time></trkpt><trkpt lat="34.9298524" lon="32.8392892"><ele>1432.5</ele><time>2015-04-29T08:45:24.0000000+00:00</time></trkpt><trkpt lat="34.929854" lon="32.8392278"><ele>1432.2</ele><time>2015-04-29T08:45:26.0000000+00:00</time></trkpt><trkpt lat="34.9298581" lon="32.8391684"><ele>1432.9</ele><time>2015-04-29T08:45:28.0000000+00:00</time></trkpt><trkpt lat="34.9298748" lon="32.839096"><ele>1432.0</ele><time>2015-04-29T08:45:31.0000000+00:00</time></trkpt><trkpt lat="34.9298854" lon="32.8390191"><ele>1431.3</ele><time>2015-04-29T08:45:34.0000000+00:00</time></trkpt><trkpt lat="34.9298878" lon="32.8389593"><ele>1431.4</ele><time>2015-04-29T08:45:36.0000000+00:00</time></trkpt><trkpt lat="34.9298855" lon="32.838894"><ele>1432.7</ele><time>2015-04-29T08:45:38.0000000+00:00</time></trkpt><trkpt lat="34.9298748" lon="32.8388314"><ele>1433.5</ele><time>2015-04-29T08:45:40.0000000+00:00</time></trkpt><trkpt lat="34.9298862" lon="32.8387483"><ele>1433.9</ele><time>2015-04-29T08:45:43.0000000+00:00</time></trkpt><trkpt lat="34.9298974" lon="32.8386836"><ele>1432.0</ele><time>2015-04-29T08:45:45.0000000+00:00</time></trkpt><trkpt lat="34.9299156" lon="32.8386147"><ele>1432.1</ele><time>2015-04-29T08:45:47.0000000+00:00</time></trkpt><trkpt lat="34.9299474" lon="32.8385556"><ele>1433.1</ele><time>2015-04-29T08:45:49.0000000+00:00</time></trkpt><trkpt lat="34.929978" lon="32.8385026"><ele>1433.3</ele><time>2015-04-29T08:45:51.0000000+00:00</time></trkpt><trkpt lat="34.930006" lon="32.8384554"><ele>1433.2</ele><time>2015-04-29T08:45:53.0000000+00:00</time></trkpt><trkpt lat="34.9300228" lon="32.8384023"><ele>1432.9</ele><time>2015-04-29T08:45:55.0000000+00:00</time></trkpt><trkpt lat="34.9300234" lon="32.8383302"><ele>1432.9</ele><time>2015-04-29T08:45:58.0000000+00:00</time></trkpt><trkpt lat="34.9300219" lon="32.8382741"><ele>1433.3</ele><time>2015-04-29T08:46:00.0000000+00:00</time></trkpt><trkpt lat="34.9300174" lon="32.8382109"><ele>1433.4</ele><time>2015-04-29T08:46:02.0000000+00:00</time></trkpt><trkpt lat="34.9300078" lon="32.838134"><ele>1433.7</ele><time>2015-04-29T08:46:04.0000000+00:00</time></trkpt><trkpt lat="34.9299854" lon="32.8380484"><ele>1433.5</ele><time>2015-04-29T08:46:06.0000000+00:00</time></trkpt><trkpt lat="34.9299456" lon="32.8379586"><ele>1433.2</ele><time>2015-04-29T08:46:08.0000000+00:00</time></trkpt><trkpt lat="34.9299222" lon="32.8379074"><ele>1433.5</ele><time>2015-04-29T08:46:09.0000000+00:00</time></trkpt><trkpt lat="34.9298987" lon="32.8378581"><ele>1433.1</ele><time>2015-04-29T08:46:10.0000000+00:00</time></trkpt><trkpt lat="34.929874" lon="32.8378094"><ele>1432.4</ele><time>2015-04-29T08:46:11.0000000+00:00</time></trkpt><trkpt lat="34.929846" lon="32.8377507"><ele>1433.1</ele><time>2015-04-29T08:46:12.0000000+00:00</time></trkpt><trkpt lat="34.929785" lon="32.8376292"><ele>1433.4</ele><time>2015-04-29T08:46:13.0000000+00:00</time></trkpt><trkpt lat="34.9297491" lon="32.8375782"><ele>1433.6</ele><time>2015-04-29T08:46:14.0000000+00:00</time></trkpt><trkpt lat="34.9296962" lon="32.8375363"><ele>1434.2</ele><time>2015-04-29T08:46:15.0000000+00:00</time></trkpt><trkpt lat="34.9296427" lon="32.8374993"><ele>1434.5</ele><time>2015-04-29T08:46:16.0000000+00:00</time></trkpt><trkpt lat="34.9296129" lon="32.8374549"><ele>1435.1</ele><time>2015-04-29T08:46:17.0000000+00:00</time></trkpt><trkpt lat="34.9295741" lon="32.8374089"><ele>1434.9</ele><time>2015-04-29T08:46:18.0000000+00:00</time></trkpt><trkpt lat="34.9295315" lon="32.8373597"><ele>1435.4</ele><time>2015-04-29T08:46:19.0000000+00:00</time></trkpt><trkpt lat="34.9295093" lon="32.8373017"><ele>1436.1</ele><time>2015-04-29T08:46:20.0000000+00:00</time></trkpt><trkpt lat="34.9294786" lon="32.8371795"><ele>1436.8</ele><time>2015-04-29T08:46:22.0000000+00:00</time></trkpt><trkpt lat="34.9294519" lon="32.8371011"><ele>1437.3</ele><time>2015-04-29T08:46:23.0000000+00:00</time></trkpt><trkpt lat="34.9294368" lon="32.8370433"><ele>1437.5</ele><time>2015-04-29T08:46:24.0000000+00:00</time></trkpt><trkpt lat="34.9294306" lon="32.8369782"><ele>1438.1</ele><time>2015-04-29T08:46:25.0000000+00:00</time></trkpt><trkpt lat="34.9294265" lon="32.8369061"><ele>1438.0</ele><time>2015-04-29T08:46:26.0000000+00:00</time></trkpt><trkpt lat="34.9294318" lon="32.8368173"><ele>1437.3</ele><time>2015-04-29T08:46:28.0000000+00:00</time></trkpt><trkpt lat="34.9294493" lon="32.8366986"><ele>1431.7</ele><time>2015-04-29T08:46:30.0000000+00:00</time></trkpt><trkpt lat="34.9294402" lon="32.8366235"><ele>1430.2</ele><time>2015-04-29T08:46:31.0000000+00:00</time></trkpt><trkpt lat="34.9293873" lon="32.8365209"><ele>1427.6</ele><time>2015-04-29T08:46:33.0000000+00:00</time></trkpt><trkpt lat="34.929346" lon="32.8364746"><ele>1428.2</ele><time>2015-04-29T08:46:34.0000000+00:00</time></trkpt><trkpt lat="34.9292976" lon="32.8364375"><ele>1428.0</ele><time>2015-04-29T08:46:35.0000000+00:00</time></trkpt><trkpt lat="34.9292549" lon="32.8364092"><ele>1427.4</ele><time>2015-04-29T08:46:36.0000000+00:00</time></trkpt><trkpt lat="34.9292094" lon="32.8363805"><ele>1427.6</ele><time>2015-04-29T08:46:37.0000000+00:00</time></trkpt><trkpt lat="34.9291457" lon="32.8363643"><ele>1427.7</ele><time>2015-04-29T08:46:39.0000000+00:00</time></trkpt><trkpt lat="34.9290887" lon="32.8363573"><ele>1427.8</ele><time>2015-04-29T08:46:41.0000000+00:00</time></trkpt><trkpt lat="34.9290323" lon="32.8363338"><ele>1428.9</ele><time>2015-04-29T08:46:44.0000000+00:00</time></trkpt><trkpt lat="34.9289849" lon="32.8363217"><ele>1427.0</ele><time>2015-04-29T08:46:46.0000000+00:00</time></trkpt><trkpt lat="34.9289242" lon="32.836311"><ele>1425.1</ele><time>2015-04-29T08:46:48.0000000+00:00</time></trkpt><trkpt lat="34.928848" lon="32.8362985"><ele>1424.3</ele><time>2015-04-29T08:46:50.0000000+00:00</time></trkpt><trkpt lat="34.9287692" lon="32.8362798"><ele>1424.6</ele><time>2015-04-29T08:46:51.0000000+00:00</time></trkpt><trkpt lat="34.9287072" lon="32.8362698"><ele>1424.7</ele><time>2015-04-29T08:46:52.0000000+00:00</time></trkpt><trkpt lat="34.9286527" lon="32.8362587"><ele>1423.2</ele><time>2015-04-29T08:46:53.0000000+00:00</time></trkpt><trkpt lat="34.9285982" lon="32.8362383"><ele>1422.0</ele><time>2015-04-29T08:46:54.0000000+00:00</time></trkpt><trkpt lat="34.9285422" lon="32.8362298"><ele>1420.9</ele><time>2015-04-29T08:46:55.0000000+00:00</time></trkpt><trkpt lat="34.9284846" lon="32.836212"><ele>1420.3</ele><time>2015-04-29T08:46:56.0000000+00:00</time></trkpt><trkpt lat="34.9284361" lon="32.8362051"><ele>1420.0</ele><time>2015-04-29T08:46:57.0000000+00:00</time></trkpt><trkpt lat="34.9283826" lon="32.8362089"><ele>1419.4</ele><time>2015-04-29T08:46:58.0000000+00:00</time></trkpt><trkpt lat="34.9283315" lon="32.83622"><ele>1418.6</ele><time>2015-04-29T08:46:59.0000000+00:00</time></trkpt><trkpt lat="34.9282479" lon="32.8362465"><ele>1417.2</ele><time>2015-04-29T08:47:01.0000000+00:00</time></trkpt><trkpt lat="34.9281812" lon="32.8362955"><ele>1416.4</ele><time>2015-04-29T08:47:03.0000000+00:00</time></trkpt><trkpt lat="34.9281427" lon="32.836343"><ele>1415.6</ele><time>2015-04-29T08:47:04.0000000+00:00</time></trkpt><trkpt lat="34.9280767" lon="32.836434"><ele>1413.2</ele><time>2015-04-29T08:47:06.0000000+00:00</time></trkpt><trkpt lat="34.9280497" lon="32.8364792"><ele>1412.5</ele><time>2015-04-29T08:47:07.0000000+00:00</time></trkpt><trkpt lat="34.9280112" lon="32.8365364"><ele>1412.1</ele><time>2015-04-29T08:47:08.0000000+00:00</time></trkpt><trkpt lat="34.9279703" lon="32.8365939"><ele>1411.9</ele><time>2015-04-29T08:47:09.0000000+00:00</time></trkpt><trkpt lat="34.9279319" lon="32.8366461"><ele>1412.4</ele><time>2015-04-29T08:47:10.0000000+00:00</time></trkpt><trkpt lat="34.9278979" lon="32.8366907"><ele>1412.1</ele><time>2015-04-29T08:47:11.0000000+00:00</time></trkpt><trkpt lat="34.9278613" lon="32.8367289"><ele>1412.4</ele><time>2015-04-29T08:47:12.0000000+00:00</time></trkpt><trkpt lat="34.9278347" lon="32.8367828"><ele>1412.6</ele><time>2015-04-29T08:47:13.0000000+00:00</time></trkpt><trkpt lat="34.9277898" lon="32.8368299"><ele>1412.2</ele><time>2015-04-29T08:47:14.0000000+00:00</time></trkpt><trkpt lat="34.9277429" lon="32.8368486"><ele>1412.0</ele><time>2015-04-29T08:47:15.0000000+00:00</time></trkpt><trkpt lat="34.9276701" lon="32.8368691"><ele>1411.4</ele><time>2015-04-29T08:47:16.0000000+00:00</time></trkpt><trkpt lat="34.9276077" lon="32.8368623"><ele>1411.1</ele><time>2015-04-29T08:47:17.0000000+00:00</time></trkpt><trkpt lat="34.9275455" lon="32.8368656"><ele>1410.9</ele><time>2015-04-29T08:47:18.0000000+00:00</time></trkpt><trkpt lat="34.9274956" lon="32.836852"><ele>1410.3</ele><time>2015-04-29T08:47:19.0000000+00:00</time></trkpt><trkpt lat="34.9274358" lon="32.8368593"><ele>1410.6</ele><time>2015-04-29T08:47:20.0000000+00:00</time></trkpt><trkpt lat="34.9274017" lon="32.8368174"><ele>1409.7</ele><time>2015-04-29T08:47:21.0000000+00:00</time></trkpt><trkpt lat="34.9273378" lon="32.8367935"><ele>1408.7</ele><time>2015-04-29T08:47:22.0000000+00:00</time></trkpt><trkpt lat="34.9272866" lon="32.8367777"><ele>1408.2</ele><time>2015-04-29T08:47:23.0000000+00:00</time></trkpt><trkpt lat="34.9272287" lon="32.8367476"><ele>1407.5</ele><time>2015-04-29T08:47:24.0000000+00:00</time></trkpt><trkpt lat="34.9271766" lon="32.8367197"><ele>1407.6</ele><time>2015-04-29T08:47:25.0000000+00:00</time></trkpt><trkpt lat="34.9271113" lon="32.8367074"><ele>1407.7</ele><time>2015-04-29T08:47:26.0000000+00:00</time></trkpt><trkpt lat="34.9270337" lon="32.8366767"><ele>1405.7</ele><time>2015-04-29T08:47:28.0000000+00:00</time></trkpt><trkpt lat="34.9269784" lon="32.8366596"><ele>1404.3</ele><time>2015-04-29T08:47:30.0000000+00:00</time></trkpt><trkpt lat="34.9269309" lon="32.8366463"><ele>1403.1</ele><time>2015-04-29T08:47:33.0000000+00:00</time></trkpt><trkpt lat="34.926898" lon="32.8365784"><ele>1402.1</ele><time>2015-04-29T08:48:05.0000000+00:00</time></trkpt><trkpt lat="34.926851" lon="32.8365302"><ele>1400.6</ele><time>2015-04-29T08:48:07.0000000+00:00</time></trkpt><trkpt lat="34.9267804" lon="32.8364797"><ele>1399.7</ele><time>2015-04-29T08:48:09.0000000+00:00</time></trkpt><trkpt lat="34.9266811" lon="32.8364092"><ele>1399.5</ele><time>2015-04-29T08:48:11.0000000+00:00</time></trkpt><trkpt lat="34.926635" lon="32.8363712"><ele>1400.1</ele><time>2015-04-29T08:48:12.0000000+00:00</time></trkpt><trkpt lat="34.9265661" lon="32.8363133"><ele>1399.6</ele><time>2015-04-29T08:48:14.0000000+00:00</time></trkpt><trkpt lat="34.9265064" lon="32.8362673"><ele>1399.7</ele><time>2015-04-29T08:48:16.0000000+00:00</time></trkpt><trkpt lat="34.9264556" lon="32.8362366"><ele>1400.3</ele><time>2015-04-29T08:48:18.0000000+00:00</time></trkpt><trkpt lat="34.9264239" lon="32.8361953"><ele>1397.4</ele><time>2015-04-29T08:48:25.0000000+00:00</time></trkpt><trkpt lat="34.9264722" lon="32.8361812"><ele>1400.0</ele><time>2015-04-29T08:48:31.0000000+00:00</time></trkpt><trkpt lat="34.9265216" lon="32.836176"><ele>1399.6</ele><time>2015-04-29T08:48:33.0000000+00:00</time></trkpt><trkpt lat="34.9265832" lon="32.8361624"><ele>1398.5</ele><time>2015-04-29T08:48:35.0000000+00:00</time></trkpt><trkpt lat="34.9266562" lon="32.8361418"><ele>1398.4</ele><time>2015-04-29T08:48:37.0000000+00:00</time></trkpt><trkpt lat="34.9267368" lon="32.8361191"><ele>1396.7</ele><time>2015-04-29T08:48:39.0000000+00:00</time></trkpt><trkpt lat="34.9268122" lon="32.8360902"><ele>1392.0</ele><time>2015-04-29T08:48:41.0000000+00:00</time></trkpt><trkpt lat="34.9268838" lon="32.8360541"><ele>1388.6</ele><time>2015-04-29T08:48:43.0000000+00:00</time></trkpt><trkpt lat="34.9269574" lon="32.83601"><ele>1385.7</ele><time>2015-04-29T08:48:45.0000000+00:00</time></trkpt><trkpt lat="34.9270196" lon="32.8359672"><ele>1385.0</ele><time>2015-04-29T08:48:47.0000000+00:00</time></trkpt><trkpt lat="34.9270802" lon="32.8359316"><ele>1383.1</ele><time>2015-04-29T08:48:49.0000000+00:00</time></trkpt><trkpt lat="34.9271629" lon="32.8358919"><ele>1380.8</ele><time>2015-04-29T08:48:51.0000000+00:00</time></trkpt><trkpt lat="34.9272115" lon="32.8358706"><ele>1380.8</ele><time>2015-04-29T08:48:52.0000000+00:00</time></trkpt><trkpt lat="34.9272641" lon="32.835857"><ele>1380.8</ele><time>2015-04-29T08:48:53.0000000+00:00</time></trkpt><trkpt lat="34.9273075" lon="32.8358102"><ele>1380.3</ele><time>2015-04-29T08:48:54.0000000+00:00</time></trkpt><trkpt lat="34.9273459" lon="32.835759"><ele>1379.5</ele><time>2015-04-29T08:48:55.0000000+00:00</time></trkpt><trkpt lat="34.9273837" lon="32.8357069"><ele>1378.1</ele><time>2015-04-29T08:48:56.0000000+00:00</time></trkpt><trkpt lat="34.927432" lon="32.8356426"><ele>1376.6</ele><time>2015-04-29T08:48:58.0000000+00:00</time></trkpt><trkpt lat="34.9274049" lon="32.8355799"><ele>1374.5</ele><time>2015-04-29T08:49:01.0000000+00:00</time></trkpt><trkpt lat="34.9273388" lon="32.835507"><ele>1373.2</ele><time>2015-04-29T08:49:03.0000000+00:00</time></trkpt><trkpt lat="34.9273026" lon="32.8354473"><ele>1373.5</ele><time>2015-04-29T08:49:04.0000000+00:00</time></trkpt><trkpt lat="34.9272522" lon="32.8354052"><ele>1373.6</ele><time>2015-04-29T08:49:05.0000000+00:00</time></trkpt><trkpt lat="34.9272058" lon="32.8353658"><ele>1374.2</ele><time>2015-04-29T08:49:06.0000000+00:00</time></trkpt><trkpt lat="34.9271648" lon="32.8352979"><ele>1373.0</ele><time>2015-04-29T08:49:07.0000000+00:00</time></trkpt><trkpt lat="34.9271048" lon="32.8352512"><ele>1372.4</ele><time>2015-04-29T08:49:08.0000000+00:00</time></trkpt><trkpt lat="34.9270538" lon="32.835209"><ele>1371.6</ele><time>2015-04-29T08:49:09.0000000+00:00</time></trkpt><trkpt lat="34.9270169" lon="32.835172"><ele>1371.2</ele><time>2015-04-29T08:49:10.0000000+00:00</time></trkpt><trkpt lat="34.9269726" lon="32.8351239"><ele>1370.0</ele><time>2015-04-29T08:49:11.0000000+00:00</time></trkpt><trkpt lat="34.9269352" lon="32.8350914"><ele>1368.9</ele><time>2015-04-29T08:49:12.0000000+00:00</time></trkpt><trkpt lat="34.9268911" lon="32.8350417"><ele>1368.8</ele><time>2015-04-29T08:49:13.0000000+00:00</time></trkpt><trkpt lat="34.9268587" lon="32.8349871"><ele>1368.8</ele><time>2015-04-29T08:49:14.0000000+00:00</time></trkpt><trkpt lat="34.926816" lon="32.8349352"><ele>1368.8</ele><time>2015-04-29T08:49:15.0000000+00:00</time></trkpt><trkpt lat="34.9267727" lon="32.834893"><ele>1368.8</ele><time>2015-04-29T08:49:16.0000000+00:00</time></trkpt><trkpt lat="34.9267227" lon="32.8348285"><ele>1367.3</ele><time>2015-04-29T08:49:18.0000000+00:00</time></trkpt><trkpt lat="34.9266652" lon="32.8347676"><ele>1367.4</ele><time>2015-04-29T08:49:20.0000000+00:00</time></trkpt><trkpt lat="34.9266909" lon="32.8347148"><ele>1367.4</ele><time>2015-04-29T08:49:22.0000000+00:00</time></trkpt><trkpt lat="34.9267523" lon="32.8346758"><ele>1366.7</ele><time>2015-04-29T08:49:24.0000000+00:00</time></trkpt><trkpt lat="34.9268064" lon="32.8346635"><ele>1367.2</ele><time>2015-04-29T08:49:25.0000000+00:00</time></trkpt><trkpt lat="34.9268764" lon="32.8346588"><ele>1366.0</ele><time>2015-04-29T08:49:26.0000000+00:00</time></trkpt><trkpt lat="34.9269323" lon="32.8346566"><ele>1364.9</ele><time>2015-04-29T08:49:27.0000000+00:00</time></trkpt><trkpt lat="34.9269905" lon="32.8346555"><ele>1363.3</ele><time>2015-04-29T08:49:28.0000000+00:00</time></trkpt><trkpt lat="34.9270358" lon="32.8346465"><ele>1361.5</ele><time>2015-04-29T08:49:29.0000000+00:00</time></trkpt><trkpt lat="34.9270913" lon="32.8346438"><ele>1360.2</ele><time>2015-04-29T08:49:30.0000000+00:00</time></trkpt><trkpt lat="34.9271445" lon="32.8346398"><ele>1359.5</ele><time>2015-04-29T08:49:31.0000000+00:00</time></trkpt><trkpt lat="34.9272021" lon="32.8345939"><ele>1358.2</ele><time>2015-04-29T08:49:33.0000000+00:00</time></trkpt><trkpt lat="34.9271848" lon="32.8345352"><ele>1355.1</ele><time>2015-04-29T08:49:35.0000000+00:00</time></trkpt><trkpt lat="34.927143" lon="32.834444"><ele>1354.1</ele><time>2015-04-29T08:49:37.0000000+00:00</time></trkpt><trkpt lat="34.9270814" lon="32.8343725"><ele>1354.1</ele><time>2015-04-29T08:49:39.0000000+00:00</time></trkpt><trkpt lat="34.92705" lon="32.8343317"><ele>1354.4</ele><time>2015-04-29T08:49:40.0000000+00:00</time></trkpt><trkpt lat="34.9270131" lon="32.8342965"><ele>1354.6</ele><time>2015-04-29T08:49:41.0000000+00:00</time></trkpt><trkpt lat="34.9269602" lon="32.8342443"><ele>1354.7</ele><time>2015-04-29T08:49:42.0000000+00:00</time></trkpt><trkpt lat="34.9269261" lon="32.8342077"><ele>1354.7</ele><time>2015-04-29T08:49:43.0000000+00:00</time></trkpt><trkpt lat="34.9268778" lon="32.8341753"><ele>1354.2</ele><time>2015-04-29T08:49:44.0000000+00:00</time></trkpt><trkpt lat="34.9268686" lon="32.8341084"><ele>1350.6</ele><time>2015-04-29T08:49:46.0000000+00:00</time></trkpt><trkpt lat="34.9269133" lon="32.8340384"><ele>1347.2</ele><time>2015-04-29T08:49:48.0000000+00:00</time></trkpt><trkpt lat="34.926966" lon="32.8339901"><ele>1341.6</ele><time>2015-04-29T08:49:50.0000000+00:00</time></trkpt><trkpt lat="34.9270117" lon="32.8339179"><ele>1339.0</ele><time>2015-04-29T08:49:52.0000000+00:00</time></trkpt><trkpt lat="34.9270274" lon="32.8338458"><ele>1338.4</ele><time>2015-04-29T08:49:53.0000000+00:00</time></trkpt><trkpt lat="34.9270486" lon="32.8337766"><ele>1337.6</ele><time>2015-04-29T08:49:54.0000000+00:00</time></trkpt><trkpt lat="34.9270703" lon="32.8337124"><ele>1336.7</ele><time>2015-04-29T08:49:55.0000000+00:00</time></trkpt><trkpt lat="34.9270825" lon="32.8336431"><ele>1336.2</ele><time>2015-04-29T08:49:56.0000000+00:00</time></trkpt><trkpt lat="34.9271043" lon="32.8335854"><ele>1335.0</ele><time>2015-04-29T08:49:57.0000000+00:00</time></trkpt><trkpt lat="34.9271285" lon="32.8335096"><ele>1333.9</ele><time>2015-04-29T08:49:58.0000000+00:00</time></trkpt><trkpt lat="34.9271422" lon="32.8334564"><ele>1332.3</ele><time>2015-04-29T08:49:59.0000000+00:00</time></trkpt><trkpt lat="34.927161" lon="32.8333885"><ele>1331.5</ele><time>2015-04-29T08:50:00.0000000+00:00</time></trkpt><trkpt lat="34.9271632" lon="32.8332861"><ele>1331.2</ele><time>2015-04-29T08:50:02.0000000+00:00</time></trkpt><trkpt lat="34.9271547" lon="32.8331699"><ele>1330.6</ele><time>2015-04-29T08:50:04.0000000+00:00</time></trkpt><trkpt lat="34.9271538" lon="32.8330962"><ele>1331.2</ele><time>2015-04-29T08:50:05.0000000+00:00</time></trkpt><trkpt lat="34.9271455" lon="32.8330195"><ele>1331.5</ele><time>2015-04-29T08:50:06.0000000+00:00</time></trkpt><trkpt lat="34.9271605" lon="32.8329454"><ele>1331.6</ele><time>2015-04-29T08:50:07.0000000+00:00</time></trkpt><trkpt lat="34.9271686" lon="32.832855"><ele>1330.7</ele><time>2015-04-29T08:50:09.0000000+00:00</time></trkpt><trkpt lat="34.927162" lon="32.8327892"><ele>1329.7</ele><time>2015-04-29T08:50:10.0000000+00:00</time></trkpt><trkpt lat="34.9271609" lon="32.8327226"><ele>1329.8</ele><time>2015-04-29T08:50:11.0000000+00:00</time></trkpt><trkpt lat="34.9271674" lon="32.8326579"><ele>1329.3</ele><time>2015-04-29T08:50:12.0000000+00:00</time></trkpt><trkpt lat="34.9271787" lon="32.8325818"><ele>1327.6</ele><time>2015-04-29T08:50:14.0000000+00:00</time></trkpt><trkpt lat="34.927149" lon="32.8325351"><ele>1330.9</ele><time>2015-04-29T08:50:29.0000000+00:00</time></trkpt><trkpt lat="34.9271194" lon="32.8324808"><ele>1328.7</ele><time>2015-04-29T08:50:32.0000000+00:00</time></trkpt><trkpt lat="34.9270854" lon="32.8324406"><ele>1329.4</ele><time>2015-04-29T08:50:35.0000000+00:00</time></trkpt><trkpt lat="34.9270671" lon="32.8323893"><ele>1328.4</ele><time>2015-04-29T08:50:37.0000000+00:00</time></trkpt><trkpt lat="34.9270509" lon="32.832318"><ele>1325.7</ele><time>2015-04-29T08:50:40.0000000+00:00</time></trkpt><trkpt lat="34.9270368" lon="32.8322482"><ele>1323.9</ele><time>2015-04-29T08:50:44.0000000+00:00</time></trkpt><trkpt lat="34.9270114" lon="32.8321907"><ele>1326.2</ele><time>2015-04-29T08:50:48.0000000+00:00</time></trkpt><trkpt lat="34.926989" lon="32.832142"><ele>1327.6</ele><time>2015-04-29T08:50:51.0000000+00:00</time></trkpt><trkpt lat="34.9269745" lon="32.8320773"><ele>1327.4</ele><time>2015-04-29T08:50:54.0000000+00:00</time></trkpt><trkpt lat="34.9269489" lon="32.832031"><ele>1326.2</ele><time>2015-04-29T08:50:56.0000000+00:00</time></trkpt><trkpt lat="34.9269026" lon="32.831987"><ele>1326.6</ele><time>2015-04-29T08:50:58.0000000+00:00</time></trkpt><trkpt lat="34.9268414" lon="32.8319145"><ele>1328.0</ele><time>2015-04-29T08:51:00.0000000+00:00</time></trkpt><trkpt lat="34.9268024" lon="32.8318671"><ele>1326.9</ele><time>2015-04-29T08:51:01.0000000+00:00</time></trkpt><trkpt lat="34.9267115" lon="32.8317862"><ele>1324.8</ele><time>2015-04-29T08:51:02.0000000+00:00</time></trkpt><trkpt lat="34.9266644" lon="32.8317469"><ele>1323.8</ele><time>2015-04-29T08:51:03.0000000+00:00</time></trkpt><trkpt lat="34.9266203" lon="32.8316809"><ele>1322.8</ele><time>2015-04-29T08:51:04.0000000+00:00</time></trkpt><trkpt lat="34.9265721" lon="32.8316399"><ele>1323.3</ele><time>2015-04-29T08:51:05.0000000+00:00</time></trkpt><trkpt lat="34.9265209" lon="32.8315955"><ele>1323.0</ele><time>2015-04-29T08:51:06.0000000+00:00</time></trkpt><trkpt lat="34.9264607" lon="32.8315601"><ele>1322.9</ele><time>2015-04-29T08:51:07.0000000+00:00</time></trkpt><trkpt lat="34.9264" lon="32.8315391"><ele>1323.3</ele><time>2015-04-29T08:51:08.0000000+00:00</time></trkpt><trkpt lat="34.9263427" lon="32.8315205"><ele>1324.0</ele><time>2015-04-29T08:51:09.0000000+00:00</time></trkpt><trkpt lat="34.9262795" lon="32.8314942"><ele>1324.4</ele><time>2015-04-29T08:51:10.0000000+00:00</time></trkpt><trkpt lat="34.9262179" lon="32.8314671"><ele>1324.6</ele><time>2015-04-29T08:51:11.0000000+00:00</time></trkpt><trkpt lat="34.9261466" lon="32.8314511"><ele>1324.7</ele><time>2015-04-29T08:51:12.0000000+00:00</time></trkpt><trkpt lat="34.9260788" lon="32.8314301"><ele>1324.7</ele><time>2015-04-29T08:51:13.0000000+00:00</time></trkpt><trkpt lat="34.9260054" lon="32.8314098"><ele>1324.7</ele><time>2015-04-29T08:51:14.0000000+00:00</time></trkpt><trkpt lat="34.925928" lon="32.8313947"><ele>1324.3</ele><time>2015-04-29T08:51:15.0000000+00:00</time></trkpt><trkpt lat="34.9258572" lon="32.8313596"><ele>1324.0</ele><time>2015-04-29T08:51:16.0000000+00:00</time></trkpt><trkpt lat="34.9257984" lon="32.8313213"><ele>1323.9</ele><time>2015-04-29T08:51:17.0000000+00:00</time></trkpt><trkpt lat="34.9257463" lon="32.8312861"><ele>1323.8</ele><time>2015-04-29T08:51:18.0000000+00:00</time></trkpt><trkpt lat="34.925693" lon="32.8312311"><ele>1323.3</ele><time>2015-04-29T08:51:19.0000000+00:00</time></trkpt><trkpt lat="34.9256429" lon="32.8311837"><ele>1322.5</ele><time>2015-04-29T08:51:20.0000000+00:00</time></trkpt><trkpt lat="34.9255892" lon="32.8311312"><ele>1322.1</ele><time>2015-04-29T08:51:21.0000000+00:00</time></trkpt><trkpt lat="34.9255351" lon="32.8311024"><ele>1322.5</ele><time>2015-04-29T08:51:22.0000000+00:00</time></trkpt><trkpt lat="34.9254816" lon="32.8310812"><ele>1322.6</ele><time>2015-04-29T08:51:23.0000000+00:00</time></trkpt><trkpt lat="34.9254296" lon="32.8310769"><ele>1322.2</ele><time>2015-04-29T08:51:24.0000000+00:00</time></trkpt><trkpt lat="34.9253779" lon="32.8310923"><ele>1321.0</ele><time>2015-04-29T08:51:25.0000000+00:00</time></trkpt><trkpt lat="34.9253268" lon="32.8311317"><ele>1320.4</ele><time>2015-04-29T08:51:26.0000000+00:00</time></trkpt><trkpt lat="34.9252633" lon="32.8311963"><ele>1319.9</ele><time>2015-04-29T08:51:28.0000000+00:00</time></trkpt><trkpt lat="34.9252332" lon="32.8312382"><ele>1319.8</ele><time>2015-04-29T08:51:29.0000000+00:00</time></trkpt><trkpt lat="34.9251961" lon="32.8312815"><ele>1315.3</ele><time>2015-04-29T08:51:31.0000000+00:00</time></trkpt><trkpt lat="34.9251343" lon="32.8313552"><ele>1312.6</ele><time>2015-04-29T08:51:33.0000000+00:00</time></trkpt><trkpt lat="34.9250914" lon="32.8314043"><ele>1312.2</ele><time>2015-04-29T08:51:35.0000000+00:00</time></trkpt><trkpt lat="34.9250259" lon="32.8314555"><ele>1310.4</ele><time>2015-04-29T08:51:37.0000000+00:00</time></trkpt><trkpt lat="34.9249599" lon="32.8314976"><ele>1310.2</ele><time>2015-04-29T08:51:39.0000000+00:00</time></trkpt><trkpt lat="34.9248916" lon="32.8315344"><ele>1313.1</ele><time>2015-04-29T08:51:41.0000000+00:00</time></trkpt><trkpt lat="34.9248247" lon="32.8315624"><ele>1314.9</ele><time>2015-04-29T08:51:43.0000000+00:00</time></trkpt><trkpt lat="34.9247561" lon="32.8315768"><ele>1316.3</ele><time>2015-04-29T08:51:45.0000000+00:00</time></trkpt><trkpt lat="34.9246917" lon="32.8315897"><ele>1317.1</ele><time>2015-04-29T08:51:47.0000000+00:00</time></trkpt><trkpt lat="34.9246242" lon="32.8316054"><ele>1318.6</ele><time>2015-04-29T08:51:49.0000000+00:00</time></trkpt><trkpt lat="34.9245626" lon="32.8316145"><ele>1319.2</ele><time>2015-04-29T08:51:51.0000000+00:00</time></trkpt><trkpt lat="34.9244999" lon="32.8316228"><ele>1319.9</ele><time>2015-04-29T08:51:53.0000000+00:00</time></trkpt><trkpt lat="34.9244461" lon="32.8316404"><ele>1319.0</ele><time>2015-04-29T08:51:55.0000000+00:00</time></trkpt><trkpt lat="34.924397" lon="32.8316822"><ele>1319.6</ele><time>2015-04-29T08:51:57.0000000+00:00</time></trkpt><trkpt lat="34.9243514" lon="32.8317263"><ele>1319.7</ele><time>2015-04-29T08:51:59.0000000+00:00</time></trkpt><trkpt lat="34.9243107" lon="32.8317783"><ele>1319.5</ele><time>2015-04-29T08:52:01.0000000+00:00</time></trkpt><trkpt lat="34.924275" lon="32.8318328"><ele>1321.4</ele><time>2015-04-29T08:52:03.0000000+00:00</time></trkpt><trkpt lat="34.9242471" lon="32.8318949"><ele>1323.4</ele><time>2015-04-29T08:52:05.0000000+00:00</time></trkpt><trkpt lat="34.9242398" lon="32.8319598"><ele>1324.2</ele><time>2015-04-29T08:52:07.0000000+00:00</time></trkpt><trkpt lat="34.9242377" lon="32.8320236"><ele>1326.1</ele><time>2015-04-29T08:52:09.0000000+00:00</time></trkpt><trkpt lat="34.9242396" lon="32.8320814"><ele>1326.1</ele><time>2015-04-29T08:52:11.0000000+00:00</time></trkpt><trkpt lat="34.9242574" lon="32.832136"><ele>1325.3</ele><time>2015-04-29T08:52:14.0000000+00:00</time></trkpt><trkpt lat="34.9242622" lon="32.832208"><ele>1325.7</ele><time>2015-04-29T08:52:17.0000000+00:00</time></trkpt><trkpt lat="34.9242644" lon="32.8322874"><ele>1326.4</ele><time>2015-04-29T08:52:20.0000000+00:00</time></trkpt><trkpt lat="34.9242854" lon="32.8323636"><ele>1327.6</ele><time>2015-04-29T08:52:23.0000000+00:00</time></trkpt><trkpt lat="34.9243015" lon="32.8324155"><ele>1330.0</ele><time>2015-04-29T08:52:25.0000000+00:00</time></trkpt><trkpt lat="34.9243238" lon="32.8324666"><ele>1330.8</ele><time>2015-04-29T08:52:27.0000000+00:00</time></trkpt><trkpt lat="34.924351" lon="32.8325208"><ele>1330.3</ele><time>2015-04-29T08:52:29.0000000+00:00</time></trkpt><trkpt lat="34.924378" lon="32.832577"><ele>1329.6</ele><time>2015-04-29T08:52:31.0000000+00:00</time></trkpt><trkpt lat="34.9244077" lon="32.8326325"><ele>1329.7</ele><time>2015-04-29T08:52:33.0000000+00:00</time></trkpt><trkpt lat="34.9244366" lon="32.8326846"><ele>1328.3</ele><time>2015-04-29T08:52:35.0000000+00:00</time></trkpt><trkpt lat="34.9244495" lon="32.8327581"><ele>1324.6</ele><time>2015-04-29T08:52:37.0000000+00:00</time></trkpt><trkpt lat="34.9244585" lon="32.8328318"><ele>1323.5</ele><time>2015-04-29T08:52:39.0000000+00:00</time></trkpt><trkpt lat="34.924463" lon="32.8329013"><ele>1323.2</ele><time>2015-04-29T08:52:41.0000000+00:00</time></trkpt><trkpt lat="34.9244564" lon="32.8329691"><ele>1323.6</ele><time>2015-04-29T08:52:43.0000000+00:00</time></trkpt><trkpt lat="34.9244398" lon="32.833037"><ele>1325.0</ele><time>2015-04-29T08:52:45.0000000+00:00</time></trkpt><trkpt lat="34.9244265" lon="32.8330921"><ele>1325.6</ele><time>2015-04-29T08:52:47.0000000+00:00</time></trkpt><trkpt lat="34.9243984" lon="32.8331625"><ele>1328.4</ele><time>2015-04-29T08:52:50.0000000+00:00</time></trkpt><trkpt lat="34.9243692" lon="32.8332221"><ele>1330.5</ele><time>2015-04-29T08:52:53.0000000+00:00</time></trkpt><trkpt lat="34.9243318" lon="32.8332772"><ele>1332.0</ele><time>2015-04-29T08:52:56.0000000+00:00</time></trkpt><trkpt lat="34.9242889" lon="32.833336"><ele>1330.7</ele><time>2015-04-29T08:52:59.0000000+00:00</time></trkpt><trkpt lat="34.9242533" lon="32.8333729"><ele>1330.0</ele><time>2015-04-29T08:53:01.0000000+00:00</time></trkpt><trkpt lat="34.9242028" lon="32.8334227"><ele>1329.3</ele><time>2015-04-29T08:53:04.0000000+00:00</time></trkpt><trkpt lat="34.9241648" lon="32.8334538"><ele>1328.9</ele><time>2015-04-29T08:53:06.0000000+00:00</time></trkpt><trkpt lat="34.9241245" lon="32.8334897"><ele>1328.8</ele><time>2015-04-29T08:53:08.0000000+00:00</time></trkpt><trkpt lat="34.9240864" lon="32.8335289"><ele>1328.3</ele><time>2015-04-29T08:53:10.0000000+00:00</time></trkpt><trkpt lat="34.9240502" lon="32.8335682"><ele>1329.1</ele><time>2015-04-29T08:53:12.0000000+00:00</time></trkpt><trkpt lat="34.924012" lon="32.8336073"><ele>1330.4</ele><time>2015-04-29T08:53:14.0000000+00:00</time></trkpt><trkpt lat="34.9239731" lon="32.8336491"><ele>1330.2</ele><time>2015-04-29T08:53:16.0000000+00:00</time></trkpt><trkpt lat="34.9239309" lon="32.8336916"><ele>1329.9</ele><time>2015-04-29T08:53:18.0000000+00:00</time></trkpt><trkpt lat="34.9238846" lon="32.8337322"><ele>1331.0</ele><time>2015-04-29T08:53:20.0000000+00:00</time></trkpt><trkpt lat="34.9238403" lon="32.8337788"><ele>1331.6</ele><time>2015-04-29T08:53:22.0000000+00:00</time></trkpt><trkpt lat="34.9237944" lon="32.8338246"><ele>1331.7</ele><time>2015-04-29T08:53:24.0000000+00:00</time></trkpt><trkpt lat="34.9237477" lon="32.833871"><ele>1331.5</ele><time>2015-04-29T08:53:26.0000000+00:00</time></trkpt><trkpt lat="34.9237022" lon="32.833919"><ele>1331.2</ele><time>2015-04-29T08:53:28.0000000+00:00</time></trkpt><trkpt lat="34.9236572" lon="32.833968"><ele>1331.6</ele><time>2015-04-29T08:53:30.0000000+00:00</time></trkpt><trkpt lat="34.923611" lon="32.8340175"><ele>1332.2</ele><time>2015-04-29T08:53:32.0000000+00:00</time></trkpt><trkpt lat="34.9235659" lon="32.8340702"><ele>1333.1</ele><time>2015-04-29T08:53:34.0000000+00:00</time></trkpt><trkpt lat="34.9235207" lon="32.834123"><ele>1334.4</ele><time>2015-04-29T08:53:36.0000000+00:00</time></trkpt><trkpt lat="34.9234744" lon="32.8341764"><ele>1335.2</ele><time>2015-04-29T08:53:38.0000000+00:00</time></trkpt><trkpt lat="34.9234322" lon="32.8342331"><ele>1334.9</ele><time>2015-04-29T08:53:40.0000000+00:00</time></trkpt><trkpt lat="34.9233898" lon="32.8342882"><ele>1334.8</ele><time>2015-04-29T08:53:42.0000000+00:00</time></trkpt><trkpt lat="34.9233479" lon="32.8343409"><ele>1335.0</ele><time>2015-04-29T08:53:44.0000000+00:00</time></trkpt><trkpt lat="34.9233074" lon="32.8343991"><ele>1335.1</ele><time>2015-04-29T08:53:46.0000000+00:00</time></trkpt><trkpt lat="34.9232704" lon="32.8344581"><ele>1335.6</ele><time>2015-04-29T08:53:48.0000000+00:00</time></trkpt><trkpt lat="34.9232332" lon="32.8345129"><ele>1334.5</ele><time>2015-04-29T08:53:50.0000000+00:00</time></trkpt><trkpt lat="34.9231975" lon="32.8345673"><ele>1333.9</ele><time>2015-04-29T08:53:52.0000000+00:00</time></trkpt><trkpt lat="34.9231474" lon="32.8346124"><ele>1335.1</ele><time>2015-04-29T08:53:54.0000000+00:00</time></trkpt><trkpt lat="34.9230881" lon="32.8346416"><ele>1334.8</ele><time>2015-04-29T08:53:56.0000000+00:00</time></trkpt><trkpt lat="34.923032" lon="32.834661"><ele>1334.5</ele><time>2015-04-29T08:53:58.0000000+00:00</time></trkpt><trkpt lat="34.9229843" lon="32.8346603"><ele>1334.0</ele><time>2015-04-29T08:54:00.0000000+00:00</time></trkpt><trkpt lat="34.9229345" lon="32.834651"><ele>1334.5</ele><time>2015-04-29T08:54:03.0000000+00:00</time></trkpt><trkpt lat="34.9228884" lon="32.8346431"><ele>1336.1</ele><time>2015-04-29T08:54:06.0000000+00:00</time></trkpt><trkpt lat="34.922842" lon="32.8346468"><ele>1338.5</ele><time>2015-04-29T08:54:29.0000000+00:00</time></trkpt><trkpt lat="34.9227959" lon="32.8346359"><ele>1336.6</ele><time>2015-04-29T08:54:32.0000000+00:00</time></trkpt><trkpt lat="34.9227487" lon="32.8346197"><ele>1335.5</ele><time>2015-04-29T08:54:34.0000000+00:00</time></trkpt><trkpt lat="34.9226947" lon="32.8346054"><ele>1335.4</ele><time>2015-04-29T08:54:36.0000000+00:00</time></trkpt><trkpt lat="34.9226413" lon="32.834583"><ele>1336.2</ele><time>2015-04-29T08:54:38.0000000+00:00</time></trkpt><trkpt lat="34.9225884" lon="32.8345617"><ele>1335.9</ele><time>2015-04-29T08:54:40.0000000+00:00</time></trkpt><trkpt lat="34.9225359" lon="32.8345498"><ele>1334.8</ele><time>2015-04-29T08:54:42.0000000+00:00</time></trkpt><trkpt lat="34.9224834" lon="32.8345313"><ele>1334.5</ele><time>2015-04-29T08:54:44.0000000+00:00</time></trkpt><trkpt lat="34.9224342" lon="32.8345094"><ele>1335.5</ele><time>2015-04-29T08:54:46.0000000+00:00</time></trkpt><trkpt lat="34.9223816" lon="32.8344946"><ele>1335.9</ele><time>2015-04-29T08:54:48.0000000+00:00</time></trkpt><trkpt lat="34.9223325" lon="32.8344701"><ele>1335.8</ele><time>2015-04-29T08:54:50.0000000+00:00</time></trkpt><trkpt lat="34.9222829" lon="32.8344306"><ele>1336.3</ele><time>2015-04-29T08:54:52.0000000+00:00</time></trkpt><trkpt lat="34.9222379" lon="32.8343786"><ele>1337.9</ele><time>2015-04-29T08:54:54.0000000+00:00</time></trkpt><trkpt lat="34.9221934" lon="32.8343244"><ele>1339.3</ele><time>2015-04-29T08:54:56.0000000+00:00</time></trkpt><trkpt lat="34.9221547" lon="32.8342638"><ele>1339.4</ele><time>2015-04-29T08:54:58.0000000+00:00</time></trkpt><trkpt lat="34.9221188" lon="32.8342012"><ele>1340.9</ele><time>2015-04-29T08:55:00.0000000+00:00</time></trkpt><trkpt lat="34.9220841" lon="32.8341366"><ele>1341.6</ele><time>2015-04-29T08:55:02.0000000+00:00</time></trkpt><trkpt lat="34.9220498" lon="32.8340677"><ele>1342.5</ele><time>2015-04-29T08:55:04.0000000+00:00</time></trkpt><trkpt lat="34.9220171" lon="32.8339961"><ele>1342.2</ele><time>2015-04-29T08:55:06.0000000+00:00</time></trkpt><trkpt lat="34.9219895" lon="32.8339267"><ele>1343.4</ele><time>2015-04-29T08:55:08.0000000+00:00</time></trkpt><trkpt lat="34.9219652" lon="32.8338638"><ele>1342.9</ele><time>2015-04-29T08:55:10.0000000+00:00</time></trkpt><trkpt lat="34.9219378" lon="32.8337988"><ele>1344.1</ele><time>2015-04-29T08:55:12.0000000+00:00</time></trkpt><trkpt lat="34.9219083" lon="32.8337383"><ele>1345.1</ele><time>2015-04-29T08:55:14.0000000+00:00</time></trkpt><trkpt lat="34.9218779" lon="32.8336798"><ele>1346.6</ele><time>2015-04-29T08:55:16.0000000+00:00</time></trkpt><trkpt lat="34.921844" lon="32.8336168"><ele>1348.5</ele><time>2015-04-29T08:55:18.0000000+00:00</time></trkpt><trkpt lat="34.9218058" lon="32.833555"><ele>1349.9</ele><time>2015-04-29T08:55:20.0000000+00:00</time></trkpt><trkpt lat="34.921772" lon="32.8334924"><ele>1350.6</ele><time>2015-04-29T08:55:22.0000000+00:00</time></trkpt><trkpt lat="34.9217376" lon="32.8334371"><ele>1352.7</ele><time>2015-04-29T08:55:24.0000000+00:00</time></trkpt><trkpt lat="34.9217035" lon="32.8333867"><ele>1353.5</ele><time>2015-04-29T08:55:26.0000000+00:00</time></trkpt><trkpt lat="34.9216791" lon="32.8333374"><ele>1354.2</ele><time>2015-04-29T08:55:28.0000000+00:00</time></trkpt><trkpt lat="34.9216428" lon="32.8333049"><ele>1354.9</ele><time>2015-04-29T08:55:30.0000000+00:00</time></trkpt><trkpt lat="34.9216096" lon="32.833262"><ele>1354.8</ele><time>2015-04-29T08:55:32.0000000+00:00</time></trkpt><trkpt lat="34.9215816" lon="32.8332168"><ele>1355.8</ele><time>2015-04-29T08:55:34.0000000+00:00</time></trkpt><trkpt lat="34.9215474" lon="32.8331783"><ele>1355.3</ele><time>2015-04-29T08:55:36.0000000+00:00</time></trkpt><trkpt lat="34.9215096" lon="32.8331481"><ele>1356.1</ele><time>2015-04-29T08:55:38.0000000+00:00</time></trkpt><trkpt lat="34.9214764" lon="32.8331083"><ele>1353.9</ele><time>2015-04-29T08:55:40.0000000+00:00</time></trkpt><trkpt lat="34.9214425" lon="32.8330701"><ele>1353.8</ele><time>2015-04-29T08:55:42.0000000+00:00</time></trkpt><trkpt lat="34.9214073" lon="32.8330313"><ele>1353.8</ele><time>2015-04-29T08:55:44.0000000+00:00</time></trkpt><trkpt lat="34.9213706" lon="32.8329969"><ele>1353.8</ele><time>2015-04-29T08:55:46.0000000+00:00</time></trkpt><trkpt lat="34.9213338" lon="32.8329596"><ele>1351.0</ele><time>2015-04-29T08:55:48.0000000+00:00</time></trkpt><trkpt lat="34.9212933" lon="32.8329245"><ele>1348.6</ele><time>2015-04-29T08:55:50.0000000+00:00</time></trkpt><trkpt lat="34.921249" lon="32.8328888"><ele>1348.0</ele><time>2015-04-29T08:55:52.0000000+00:00</time></trkpt><trkpt lat="34.9212055" lon="32.8328448"><ele>1348.3</ele><time>2015-04-29T08:55:54.0000000+00:00</time></trkpt><trkpt lat="34.9211626" lon="32.8328035"><ele>1349.2</ele><time>2015-04-29T08:55:56.0000000+00:00</time></trkpt><trkpt lat="34.9211265" lon="32.8327647"><ele>1351.1</ele><time>2015-04-29T08:55:58.0000000+00:00</time></trkpt><trkpt lat="34.9210814" lon="32.8327039"><ele>1352.1</ele><time>2015-04-29T08:56:01.0000000+00:00</time></trkpt><trkpt lat="34.9210495" lon="32.8326593"><ele>1353.8</ele><time>2015-04-29T08:56:03.0000000+00:00</time></trkpt><trkpt lat="34.9210194" lon="32.832606"><ele>1354.5</ele><time>2015-04-29T08:56:05.0000000+00:00</time></trkpt><trkpt lat="34.920991" lon="32.8325557"><ele>1354.7</ele><time>2015-04-29T08:56:07.0000000+00:00</time></trkpt><trkpt lat="34.9209602" lon="32.832504"><ele>1357.3</ele><time>2015-04-29T08:56:09.0000000+00:00</time></trkpt><trkpt lat="34.9209258" lon="32.8324584"><ele>1358.9</ele><time>2015-04-29T08:56:11.0000000+00:00</time></trkpt><trkpt lat="34.9208907" lon="32.8324073"><ele>1360.0</ele><time>2015-04-29T08:56:13.0000000+00:00</time></trkpt><trkpt lat="34.920855" lon="32.8323532"><ele>1358.3</ele><time>2015-04-29T08:56:15.0000000+00:00</time></trkpt><trkpt lat="34.9208208" lon="32.8322893"><ele>1356.9</ele><time>2015-04-29T08:56:17.0000000+00:00</time></trkpt><trkpt lat="34.9207867" lon="32.8322242"><ele>1356.6</ele><time>2015-04-29T08:56:19.0000000+00:00</time></trkpt><trkpt lat="34.9207454" lon="32.8321701"><ele>1355.2</ele><time>2015-04-29T08:56:21.0000000+00:00</time></trkpt><trkpt lat="34.9206984" lon="32.8321228"><ele>1354.6</ele><time>2015-04-29T08:56:23.0000000+00:00</time></trkpt><trkpt lat="34.9206484" lon="32.8320756"><ele>1355.2</ele><time>2015-04-29T08:56:25.0000000+00:00</time></trkpt><trkpt lat="34.9206019" lon="32.8320238"><ele>1356.1</ele><time>2015-04-29T08:56:27.0000000+00:00</time></trkpt><trkpt lat="34.9205624" lon="32.8319807"><ele>1355.9</ele><time>2015-04-29T08:56:29.0000000+00:00</time></trkpt><trkpt lat="34.9205228" lon="32.8319461"><ele>1355.8</ele><time>2015-04-29T08:56:31.0000000+00:00</time></trkpt><trkpt lat="34.9204673" lon="32.8319064"><ele>1358.4</ele><time>2015-04-29T08:56:34.0000000+00:00</time></trkpt><trkpt lat="34.920428" lon="32.831874"><ele>1358.7</ele><time>2015-04-29T08:56:36.0000000+00:00</time></trkpt><trkpt lat="34.9203863" lon="32.8318449"><ele>1358.2</ele><time>2015-04-29T08:56:38.0000000+00:00</time></trkpt><trkpt lat="34.9203418" lon="32.8318206"><ele>1358.4</ele><time>2015-04-29T08:56:40.0000000+00:00</time></trkpt><trkpt lat="34.9203021" lon="32.831787"><ele>1358.7</ele><time>2015-04-29T08:56:42.0000000+00:00</time></trkpt><trkpt lat="34.9202622" lon="32.8317504"><ele>1360.2</ele><time>2015-04-29T08:56:44.0000000+00:00</time></trkpt><trkpt lat="34.9202221" lon="32.8317135"><ele>1361.4</ele><time>2015-04-29T08:56:46.0000000+00:00</time></trkpt><trkpt lat="34.9201828" lon="32.8316719"><ele>1361.7</ele><time>2015-04-29T08:56:48.0000000+00:00</time></trkpt><trkpt lat="34.9201499" lon="32.8316179"><ele>1360.7</ele><time>2015-04-29T08:56:50.0000000+00:00</time></trkpt><trkpt lat="34.9201191" lon="32.8315623"><ele>1360.8</ele><time>2015-04-29T08:56:52.0000000+00:00</time></trkpt><trkpt lat="34.9200861" lon="32.8315092"><ele>1361.8</ele><time>2015-04-29T08:56:54.0000000+00:00</time></trkpt><trkpt lat="34.9200456" lon="32.8314592"><ele>1363.0</ele><time>2015-04-29T08:56:56.0000000+00:00</time></trkpt><trkpt lat="34.9200037" lon="32.8314132"><ele>1363.3</ele><time>2015-04-29T08:56:58.0000000+00:00</time></trkpt><trkpt lat="34.9199598" lon="32.8313712"><ele>1362.4</ele><time>2015-04-29T08:57:00.0000000+00:00</time></trkpt><trkpt lat="34.9199084" lon="32.8313457"><ele>1360.9</ele><time>2015-04-29T08:57:02.0000000+00:00</time></trkpt><trkpt lat="34.9198518" lon="32.8313317"><ele>1361.6</ele><time>2015-04-29T08:57:04.0000000+00:00</time></trkpt><trkpt lat="34.919798" lon="32.8313266"><ele>1362.5</ele><time>2015-04-29T08:57:06.0000000+00:00</time></trkpt><trkpt lat="34.9197415" lon="32.8313124"><ele>1363.2</ele><time>2015-04-29T08:57:09.0000000+00:00</time></trkpt><trkpt lat="34.9196912" lon="32.8313262"><ele>1362.2</ele><time>2015-04-29T08:59:29.0000000+00:00</time></trkpt><trkpt lat="34.9196651" lon="32.831387"><ele>1360.1</ele><time>2015-04-29T08:59:32.0000000+00:00</time></trkpt><trkpt lat="34.9196427" lon="32.8314426"><ele>1360.6</ele><time>2015-04-29T08:59:34.0000000+00:00</time></trkpt><trkpt lat="34.919623" lon="32.8314948"><ele>1360.7</ele><time>2015-04-29T08:59:36.0000000+00:00</time></trkpt><trkpt lat="34.9196023" lon="32.8315644"><ele>1361.3</ele><time>2015-04-29T08:59:39.0000000+00:00</time></trkpt><trkpt lat="34.9195956" lon="32.8316361"><ele>1361.3</ele><time>2015-04-29T08:59:42.0000000+00:00</time></trkpt><trkpt lat="34.9195864" lon="32.831712"><ele>1363.0</ele><time>2015-04-29T08:59:45.0000000+00:00</time></trkpt><trkpt lat="34.9195884" lon="32.8317723"><ele>1363.6</ele><time>2015-04-29T08:59:47.0000000+00:00</time></trkpt><trkpt lat="34.9195987" lon="32.8318507"><ele>1363.5</ele><time>2015-04-29T08:59:49.0000000+00:00</time></trkpt><trkpt lat="34.9196046" lon="32.8319305"><ele>1363.7</ele><time>2015-04-29T08:59:51.0000000+00:00</time></trkpt><trkpt lat="34.919603" lon="32.832012"><ele>1363.7</ele><time>2015-04-29T08:59:53.0000000+00:00</time></trkpt><trkpt lat="34.919594" lon="32.8320829"><ele>1365.3</ele><time>2015-04-29T08:59:55.0000000+00:00</time></trkpt><trkpt lat="34.9195878" lon="32.8321478"><ele>1365.6</ele><time>2015-04-29T08:59:57.0000000+00:00</time></trkpt><trkpt lat="34.9195802" lon="32.8322051"><ele>1366.2</ele><time>2015-04-29T08:59:59.0000000+00:00</time></trkpt><trkpt lat="34.919559" lon="32.8322556"><ele>1366.6</ele><time>2015-04-29T09:00:01.0000000+00:00</time></trkpt><trkpt lat="34.9195398" lon="32.8323095"><ele>1367.5</ele><time>2015-04-29T09:00:03.0000000+00:00</time></trkpt><trkpt lat="34.9195269" lon="32.8323711"><ele>1367.4</ele><time>2015-04-29T09:00:05.0000000+00:00</time></trkpt><trkpt lat="34.9195086" lon="32.832433"><ele>1366.9</ele><time>2015-04-29T09:00:07.0000000+00:00</time></trkpt><trkpt lat="34.9194821" lon="32.832495"><ele>1366.3</ele><time>2015-04-29T09:00:09.0000000+00:00</time></trkpt><trkpt lat="34.9194491" lon="32.8325576"><ele>1366.9</ele><time>2015-04-29T09:00:11.0000000+00:00</time></trkpt><trkpt lat="34.9194109" lon="32.832623"><ele>1368.3</ele><time>2015-04-29T09:00:13.0000000+00:00</time></trkpt><trkpt lat="34.9193714" lon="32.8326775"><ele>1369.4</ele><time>2015-04-29T09:00:15.0000000+00:00</time></trkpt><trkpt lat="34.9193345" lon="32.8327317"><ele>1370.4</ele><time>2015-04-29T09:00:17.0000000+00:00</time></trkpt><trkpt lat="34.9193061" lon="32.8327894"><ele>1370.4</ele><time>2015-04-29T09:00:19.0000000+00:00</time></trkpt><trkpt lat="34.9192826" lon="32.8328521"><ele>1370.2</ele><time>2015-04-29T09:00:21.0000000+00:00</time></trkpt><trkpt lat="34.919249" lon="32.8329101"><ele>1370.6</ele><time>2015-04-29T09:00:23.0000000+00:00</time></trkpt><trkpt lat="34.9192009" lon="32.8329618"><ele>1370.2</ele><time>2015-04-29T09:00:25.0000000+00:00</time></trkpt><trkpt lat="34.9191387" lon="32.833"><ele>1370.4</ele><time>2015-04-29T09:00:27.0000000+00:00</time></trkpt><trkpt lat="34.9190717" lon="32.8330304"><ele>1370.7</ele><time>2015-04-29T09:00:29.0000000+00:00</time></trkpt><trkpt lat="34.9190084" lon="32.8330485"><ele>1370.2</ele><time>2015-04-29T09:00:31.0000000+00:00</time></trkpt><trkpt lat="34.9189424" lon="32.8330562"><ele>1369.4</ele><time>2015-04-29T09:00:33.0000000+00:00</time></trkpt><trkpt lat="34.9188792" lon="32.8330535"><ele>1368.9</ele><time>2015-04-29T09:00:35.0000000+00:00</time></trkpt><trkpt lat="34.9188088" lon="32.8330516"><ele>1368.3</ele><time>2015-04-29T09:00:37.0000000+00:00</time></trkpt><trkpt lat="34.9187402" lon="32.8330596"><ele>1368.6</ele><time>2015-04-29T09:00:39.0000000+00:00</time></trkpt><trkpt lat="34.9186708" lon="32.8330805"><ele>1368.7</ele><time>2015-04-29T09:00:41.0000000+00:00</time></trkpt><trkpt lat="34.9186103" lon="32.8331031"><ele>1368.3</ele><time>2015-04-29T09:00:43.0000000+00:00</time></trkpt><trkpt lat="34.9185547" lon="32.8331354"><ele>1367.9</ele><time>2015-04-29T09:00:45.0000000+00:00</time></trkpt><trkpt lat="34.9185068" lon="32.8331672"><ele>1367.8</ele><time>2015-04-29T09:00:47.0000000+00:00</time></trkpt><trkpt lat="34.9184541" lon="32.8331826"><ele>1369.3</ele><time>2015-04-29T09:00:49.0000000+00:00</time></trkpt><trkpt lat="34.9183969" lon="32.8331809"><ele>1370.4</ele><time>2015-04-29T09:00:51.0000000+00:00</time></trkpt><trkpt lat="34.9183353" lon="32.8331624"><ele>1372.7</ele><time>2015-04-29T09:00:53.0000000+00:00</time></trkpt><trkpt lat="34.9182907" lon="32.8331462"><ele>1373.5</ele><time>2015-04-29T09:00:55.0000000+00:00</time></trkpt><trkpt lat="34.9182406" lon="32.8331226"><ele>1371.2</ele><time>2015-04-29T09:00:59.0000000+00:00</time></trkpt><trkpt lat="34.9181974" lon="32.8330949"><ele>1370.5</ele><time>2015-04-29T09:01:02.0000000+00:00</time></trkpt><trkpt lat="34.9181697" lon="32.8330513"><ele>1370.2</ele><time>2015-04-29T09:01:04.0000000+00:00</time></trkpt><trkpt lat="34.9181421" lon="32.832998"><ele>1369.9</ele><time>2015-04-29T09:01:06.0000000+00:00</time></trkpt><trkpt lat="34.9181122" lon="32.8329436"><ele>1370.3</ele><time>2015-04-29T09:01:08.0000000+00:00</time></trkpt><trkpt lat="34.9180799" lon="32.8328856"><ele>1371.9</ele><time>2015-04-29T09:01:10.0000000+00:00</time></trkpt><trkpt lat="34.9180435" lon="32.8328302"><ele>1374.0</ele><time>2015-04-29T09:01:12.0000000+00:00</time></trkpt><trkpt lat="34.9180089" lon="32.8327725"><ele>1374.8</ele><time>2015-04-29T09:01:14.0000000+00:00</time></trkpt><trkpt lat="34.9179717" lon="32.8327143"><ele>1376.0</ele><time>2015-04-29T09:01:16.0000000+00:00</time></trkpt><trkpt lat="34.9179254" lon="32.8326648"><ele>1377.8</ele><time>2015-04-29T09:01:18.0000000+00:00</time></trkpt><trkpt lat="34.9178719" lon="32.8326306"><ele>1378.0</ele><time>2015-04-29T09:01:20.0000000+00:00</time></trkpt><trkpt lat="34.9178145" lon="32.8326089"><ele>1379.8</ele><time>2015-04-29T09:01:22.0000000+00:00</time></trkpt><trkpt lat="34.9177573" lon="32.8325989"><ele>1381.0</ele><time>2015-04-29T09:01:24.0000000+00:00</time></trkpt><trkpt lat="34.9177019" lon="32.8326124"><ele>1381.6</ele><time>2015-04-29T09:01:26.0000000+00:00</time></trkpt><trkpt lat="34.9176526" lon="32.83265"><ele>1381.2</ele><time>2015-04-29T09:01:28.0000000+00:00</time></trkpt><trkpt lat="34.917607" lon="32.8326971"><ele>1380.4</ele><time>2015-04-29T09:01:30.0000000+00:00</time></trkpt><trkpt lat="34.9175609" lon="32.8327488"><ele>1378.9</ele><time>2015-04-29T09:01:32.0000000+00:00</time></trkpt><trkpt lat="34.9175129" lon="32.8327974"><ele>1378.8</ele><time>2015-04-29T09:01:34.0000000+00:00</time></trkpt><trkpt lat="34.9174559" lon="32.832838"><ele>1377.8</ele><time>2015-04-29T09:01:36.0000000+00:00</time></trkpt><trkpt lat="34.9173986" lon="32.8328759"><ele>1377.8</ele><time>2015-04-29T09:01:38.0000000+00:00</time></trkpt><trkpt lat="34.9173387" lon="32.8329125"><ele>1378.5</ele><time>2015-04-29T09:01:40.0000000+00:00</time></trkpt><trkpt lat="34.9172732" lon="32.8329424"><ele>1378.7</ele><time>2015-04-29T09:01:42.0000000+00:00</time></trkpt><trkpt lat="34.9172074" lon="32.8329588"><ele>1380.0</ele><time>2015-04-29T09:01:44.0000000+00:00</time></trkpt><trkpt lat="34.9171422" lon="32.8329628"><ele>1379.8</ele><time>2015-04-29T09:01:46.0000000+00:00</time></trkpt><trkpt lat="34.9170762" lon="32.8329699"><ele>1378.3</ele><time>2015-04-29T09:01:48.0000000+00:00</time></trkpt><trkpt lat="34.9170094" lon="32.8329845"><ele>1378.1</ele><time>2015-04-29T09:01:50.0000000+00:00</time></trkpt><trkpt lat="34.9169401" lon="32.8329898"><ele>1379.4</ele><time>2015-04-29T09:01:52.0000000+00:00</time></trkpt><trkpt lat="34.9168645" lon="32.8329912"><ele>1379.2</ele><time>2015-04-29T09:01:54.0000000+00:00</time></trkpt><trkpt lat="34.9167893" lon="32.8329962"><ele>1378.4</ele><time>2015-04-29T09:01:56.0000000+00:00</time></trkpt><trkpt lat="34.9167153" lon="32.8329932"><ele>1377.2</ele><time>2015-04-29T09:01:58.0000000+00:00</time></trkpt><trkpt lat="34.9166403" lon="32.8329836"><ele>1378.1</ele><time>2015-04-29T09:02:00.0000000+00:00</time></trkpt><trkpt lat="34.916571" lon="32.8329682"><ele>1377.9</ele><time>2015-04-29T09:02:02.0000000+00:00</time></trkpt><trkpt lat="34.916508" lon="32.832959"><ele>1377.8</ele><time>2015-04-29T09:02:04.0000000+00:00</time></trkpt><trkpt lat="34.9164476" lon="32.8329439"><ele>1376.8</ele><time>2015-04-29T09:02:06.0000000+00:00</time></trkpt><trkpt lat="34.9163939" lon="32.8329079"><ele>1375.5</ele><time>2015-04-29T09:02:08.0000000+00:00</time></trkpt><trkpt lat="34.916344" lon="32.8328636"><ele>1375.7</ele><time>2015-04-29T09:02:10.0000000+00:00</time></trkpt><trkpt lat="34.916291" lon="32.8328192"><ele>1377.0</ele><time>2015-04-29T09:02:12.0000000+00:00</time></trkpt><trkpt lat="34.9162424" lon="32.8327647"><ele>1378.3</ele><time>2015-04-29T09:02:14.0000000+00:00</time></trkpt><trkpt lat="34.9161963" lon="32.8327041"><ele>1379.7</ele><time>2015-04-29T09:02:16.0000000+00:00</time></trkpt><trkpt lat="34.9161499" lon="32.8326422"><ele>1380.5</ele><time>2015-04-29T09:02:18.0000000+00:00</time></trkpt><trkpt lat="34.9161028" lon="32.8325854"><ele>1381.2</ele><time>2015-04-29T09:02:20.0000000+00:00</time></trkpt><trkpt lat="34.9160595" lon="32.8325314"><ele>1381.6</ele><time>2015-04-29T09:02:22.0000000+00:00</time></trkpt><trkpt lat="34.9160155" lon="32.8324738"><ele>1381.2</ele><time>2015-04-29T09:02:24.0000000+00:00</time></trkpt><trkpt lat="34.9159682" lon="32.8324166"><ele>1382.1</ele><time>2015-04-29T09:02:26.0000000+00:00</time></trkpt><trkpt lat="34.9159203" lon="32.8323602"><ele>1383.4</ele><time>2015-04-29T09:02:28.0000000+00:00</time></trkpt><trkpt lat="34.9158751" lon="32.8323002"><ele>1383.7</ele><time>2015-04-29T09:02:30.0000000+00:00</time></trkpt><trkpt lat="34.9158345" lon="32.8322358"><ele>1385.7</ele><time>2015-04-29T09:02:32.0000000+00:00</time></trkpt><trkpt lat="34.9157922" lon="32.8321766"><ele>1386.8</ele><time>2015-04-29T09:02:34.0000000+00:00</time></trkpt><trkpt lat="34.9157445" lon="32.8321198"><ele>1388.0</ele><time>2015-04-29T09:02:36.0000000+00:00</time></trkpt><trkpt lat="34.9157026" lon="32.8320568"><ele>1387.6</ele><time>2015-04-29T09:02:38.0000000+00:00</time></trkpt><trkpt lat="34.9156609" lon="32.8320018"><ele>1389.2</ele><time>2015-04-29T09:02:40.0000000+00:00</time></trkpt><trkpt lat="34.9156339" lon="32.831955"><ele>1390.6</ele><time>2015-04-29T09:02:42.0000000+00:00</time></trkpt><trkpt lat="34.9156153" lon="32.831904"><ele>1391.5</ele><time>2015-04-29T09:02:44.0000000+00:00</time></trkpt><trkpt lat="34.9155952" lon="32.8318464"><ele>1392.4</ele><time>2015-04-29T09:02:46.0000000+00:00</time></trkpt><trkpt lat="34.9155739" lon="32.831784"><ele>1392.7</ele><time>2015-04-29T09:02:48.0000000+00:00</time></trkpt><trkpt lat="34.9155555" lon="32.8317136"><ele>1393.7</ele><time>2015-04-29T09:02:50.0000000+00:00</time></trkpt><trkpt lat="34.9155405" lon="32.83164"><ele>1395.3</ele><time>2015-04-29T09:02:52.0000000+00:00</time></trkpt><trkpt lat="34.9155385" lon="32.831559"><ele>1396.9</ele><time>2015-04-29T09:02:54.0000000+00:00</time></trkpt><trkpt lat="34.9155437" lon="32.8314748"><ele>1397.8</ele><time>2015-04-29T09:02:56.0000000+00:00</time></trkpt><trkpt lat="34.9155518" lon="32.8313916"><ele>1397.8</ele><time>2015-04-29T09:02:58.0000000+00:00</time></trkpt><trkpt lat="34.915564" lon="32.8313221"><ele>1397.0</ele><time>2015-04-29T09:03:00.0000000+00:00</time></trkpt><trkpt lat="34.9155797" lon="32.8312637"><ele>1396.7</ele><time>2015-04-29T09:03:03.0000000+00:00</time></trkpt><trkpt lat="34.9156006" lon="32.8312099"><ele>1396.8</ele><time>2015-04-29T09:03:08.0000000+00:00</time></trkpt><trkpt lat="34.9156204" lon="32.8312658"><ele>1396.3</ele><time>2015-04-29T09:03:11.0000000+00:00</time></trkpt><trkpt lat="34.9155771" lon="32.8313112"><ele>1397.5</ele><time>2015-04-29T09:03:14.0000000+00:00</time></trkpt><trkpt lat="34.9155405" lon="32.831278"><ele>1395.2</ele><time>2015-04-29T09:03:27.0000000+00:00</time></trkpt><trkpt lat="34.9155654" lon="32.8312104"><ele>1395.0</ele><time>2015-04-29T09:03:32.0000000+00:00</time></trkpt><trkpt lat="34.9155674" lon="32.8311448"><ele>1395.6</ele><time>2015-04-29T09:03:34.0000000+00:00</time></trkpt><trkpt lat="34.915569" lon="32.8310674"><ele>1396.2</ele><time>2015-04-29T09:03:36.0000000+00:00</time></trkpt><trkpt lat="34.9155695" lon="32.8309909"><ele>1395.9</ele><time>2015-04-29T09:03:38.0000000+00:00</time></trkpt><trkpt lat="34.915565" lon="32.8309267"><ele>1396.3</ele><time>2015-04-29T09:03:40.0000000+00:00</time></trkpt><trkpt lat="34.9155574" lon="32.8308674"><ele>1396.4</ele><time>2015-04-29T09:03:42.0000000+00:00</time></trkpt><trkpt lat="34.9155542" lon="32.8308035"><ele>1395.4</ele><time>2015-04-29T09:03:44.0000000+00:00</time></trkpt><trkpt lat="34.9155489" lon="32.8307337"><ele>1394.2</ele><time>2015-04-29T09:03:46.0000000+00:00</time></trkpt><trkpt lat="34.9155393" lon="32.8306612"><ele>1393.9</ele><time>2015-04-29T09:03:48.0000000+00:00</time></trkpt><trkpt lat="34.9155252" lon="32.8305812"><ele>1393.8</ele><time>2015-04-29T09:03:50.0000000+00:00</time></trkpt><trkpt lat="34.9155153" lon="32.830494"><ele>1392.3</ele><time>2015-04-29T09:03:52.0000000+00:00</time></trkpt><trkpt lat="34.9155104" lon="32.8304056"><ele>1393.1</ele><time>2015-04-29T09:03:54.0000000+00:00</time></trkpt><trkpt lat="34.9155066" lon="32.8303172"><ele>1394.4</ele><time>2015-04-29T09:03:56.0000000+00:00</time></trkpt><trkpt lat="34.9154978" lon="32.830231"><ele>1395.2</ele><time>2015-04-29T09:03:58.0000000+00:00</time></trkpt><trkpt lat="34.9154864" lon="32.8301549"><ele>1395.6</ele><time>2015-04-29T09:04:00.0000000+00:00</time></trkpt><trkpt lat="34.9154764" lon="32.8300912"><ele>1395.7</ele><time>2015-04-29T09:04:02.0000000+00:00</time></trkpt><trkpt lat="34.9154821" lon="32.8300324"><ele>1396.3</ele><time>2015-04-29T09:04:04.0000000+00:00</time></trkpt><trkpt lat="34.9154885" lon="32.8299524"><ele>1399.3</ele><time>2015-04-29T09:04:07.0000000+00:00</time></trkpt><trkpt lat="34.9154854" lon="32.8298956"><ele>1399.7</ele><time>2015-04-29T09:04:09.0000000+00:00</time></trkpt><trkpt lat="34.9154768" lon="32.8298157"><ele>1398.9</ele><time>2015-04-29T09:04:12.0000000+00:00</time></trkpt><trkpt lat="34.9154679" lon="32.829752"><ele>1399.8</ele><time>2015-04-29T09:04:20.0000000+00:00</time></trkpt><trkpt lat="34.9154209" lon="32.8297422"><ele>1397.9</ele><time>2015-04-29T09:16:19.0000000+00:00</time></trkpt><trkpt lat="34.9153653" lon="32.8297713"><ele>1397.8</ele><time>2015-04-29T09:16:22.0000000+00:00</time></trkpt><trkpt lat="34.9153234" lon="32.8298023"><ele>1397.5</ele><time>2015-04-29T09:16:24.0000000+00:00</time></trkpt><trkpt lat="34.915271" lon="32.8298476"><ele>1398.1</ele><time>2015-04-29T09:16:27.0000000+00:00</time></trkpt><trkpt lat="34.9152306" lon="32.8299071"><ele>1398.7</ele><time>2015-04-29T09:16:30.0000000+00:00</time></trkpt><trkpt lat="34.9152037" lon="32.8299538"><ele>1399.5</ele><time>2015-04-29T09:16:32.0000000+00:00</time></trkpt><trkpt lat="34.9151787" lon="32.8300011"><ele>1400.4</ele><time>2015-04-29T09:16:34.0000000+00:00</time></trkpt><trkpt lat="34.9151523" lon="32.8300473"><ele>1400.2</ele><time>2015-04-29T09:16:36.0000000+00:00</time></trkpt><trkpt lat="34.9151181" lon="32.830085"><ele>1399.9</ele><time>2015-04-29T09:16:38.0000000+00:00</time></trkpt><trkpt lat="34.9150789" lon="32.830118"><ele>1399.8</ele><time>2015-04-29T09:16:40.0000000+00:00</time></trkpt><trkpt lat="34.9150381" lon="32.8301518"><ele>1399.8</ele><time>2015-04-29T09:16:42.0000000+00:00</time></trkpt><trkpt lat="34.9149946" lon="32.8301854"><ele>1399.0</ele><time>2015-04-29T09:16:44.0000000+00:00</time></trkpt><trkpt lat="34.9149539" lon="32.8302241"><ele>1399.6</ele><time>2015-04-29T09:16:46.0000000+00:00</time></trkpt><trkpt lat="34.9149178" lon="32.8302687"><ele>1400.2</ele><time>2015-04-29T09:16:48.0000000+00:00</time></trkpt><trkpt lat="34.9148809" lon="32.8303131"><ele>1401.1</ele><time>2015-04-29T09:16:50.0000000+00:00</time></trkpt><trkpt lat="34.9148436" lon="32.8303573"><ele>1402.4</ele><time>2015-04-29T09:16:52.0000000+00:00</time></trkpt><trkpt lat="34.914811" lon="32.8304088"><ele>1402.9</ele><time>2015-04-29T09:16:54.0000000+00:00</time></trkpt><trkpt lat="34.914784" lon="32.8304665"><ele>1402.3</ele><time>2015-04-29T09:16:56.0000000+00:00</time></trkpt><trkpt lat="34.9147566" lon="32.8305275"><ele>1402.6</ele><time>2015-04-29T09:16:58.0000000+00:00</time></trkpt><trkpt lat="34.9147249" lon="32.8305935"><ele>1402.0</ele><time>2015-04-29T09:17:00.0000000+00:00</time></trkpt><trkpt lat="34.9146937" lon="32.8306607"><ele>1401.6</ele><time>2015-04-29T09:17:02.0000000+00:00</time></trkpt><trkpt lat="34.9146651" lon="32.8307318"><ele>1401.2</ele><time>2015-04-29T09:17:04.0000000+00:00</time></trkpt><trkpt lat="34.9146451" lon="32.8308069"><ele>1400.4</ele><time>2015-04-29T09:17:06.0000000+00:00</time></trkpt><trkpt lat="34.9146332" lon="32.8308844"><ele>1399.9</ele><time>2015-04-29T09:17:08.0000000+00:00</time></trkpt><trkpt lat="34.9146263" lon="32.8309623"><ele>1399.6</ele><time>2015-04-29T09:17:10.0000000+00:00</time></trkpt><trkpt lat="34.9146304" lon="32.831042"><ele>1400.5</ele><time>2015-04-29T09:17:12.0000000+00:00</time></trkpt><trkpt lat="34.9146478" lon="32.8311269"><ele>1400.7</ele><time>2015-04-29T09:17:14.0000000+00:00</time></trkpt><trkpt lat="34.914674" lon="32.8312333"><ele>1400.0</ele><time>2015-04-29T09:17:16.0000000+00:00</time></trkpt><trkpt lat="34.9146884" lon="32.831319"><ele>1399.4</ele><time>2015-04-29T09:17:17.0000000+00:00</time></trkpt><trkpt lat="34.9146966" lon="32.8313781"><ele>1399.1</ele><time>2015-04-29T09:17:18.0000000+00:00</time></trkpt><trkpt lat="34.9147075" lon="32.831441"><ele>1399.9</ele><time>2015-04-29T09:17:19.0000000+00:00</time></trkpt><trkpt lat="34.9147156" lon="32.8315012"><ele>1400.8</ele><time>2015-04-29T09:17:20.0000000+00:00</time></trkpt><trkpt lat="34.9147095" lon="32.831574"><ele>1400.8</ele><time>2015-04-29T09:17:21.0000000+00:00</time></trkpt><trkpt lat="34.9147055" lon="32.8316395"><ele>1401.3</ele><time>2015-04-29T09:17:22.0000000+00:00</time></trkpt><trkpt lat="34.9146887" lon="32.8317125"><ele>1401.5</ele><time>2015-04-29T09:17:23.0000000+00:00</time></trkpt><trkpt lat="34.9146601" lon="32.8317946"><ele>1401.6</ele><time>2015-04-29T09:17:24.0000000+00:00</time></trkpt><trkpt lat="34.9146168" lon="32.8318642"><ele>1401.7</ele><time>2015-04-29T09:17:25.0000000+00:00</time></trkpt><trkpt lat="34.9145801" lon="32.8319389"><ele>1401.2</ele><time>2015-04-29T09:17:26.0000000+00:00</time></trkpt><trkpt lat="34.9145466" lon="32.8320072"><ele>1400.5</ele><time>2015-04-29T09:17:27.0000000+00:00</time></trkpt><trkpt lat="34.9145083" lon="32.8320903"><ele>1400.1</ele><time>2015-04-29T09:17:28.0000000+00:00</time></trkpt><trkpt lat="34.9144621" lon="32.8321676"><ele>1399.9</ele><time>2015-04-29T09:17:29.0000000+00:00</time></trkpt><trkpt lat="34.9144181" lon="32.8322545"><ele>1399.9</ele><time>2015-04-29T09:17:30.0000000+00:00</time></trkpt><trkpt lat="34.9143668" lon="32.8323355"><ele>1399.3</ele><time>2015-04-29T09:17:31.0000000+00:00</time></trkpt><trkpt lat="34.9143101" lon="32.8324289"><ele>1399.0</ele><time>2015-04-29T09:17:32.0000000+00:00</time></trkpt><trkpt lat="34.9142569" lon="32.832517"><ele>1397.9</ele><time>2015-04-29T09:17:33.0000000+00:00</time></trkpt><trkpt lat="34.914208" lon="32.8326189"><ele>1396.8</ele><time>2015-04-29T09:17:34.0000000+00:00</time></trkpt><trkpt lat="34.9141607" lon="32.8327062"><ele>1395.8</ele><time>2015-04-29T09:17:35.0000000+00:00</time></trkpt><trkpt lat="34.9141093" lon="32.8328025"><ele>1395.3</ele><time>2015-04-29T09:17:36.0000000+00:00</time></trkpt><trkpt lat="34.9140825" lon="32.8328701"><ele>1394.0</ele><time>2015-04-29T09:17:37.0000000+00:00</time></trkpt><trkpt lat="34.9140344" lon="32.8329256"><ele>1392.4</ele><time>2015-04-29T09:17:38.0000000+00:00</time></trkpt><trkpt lat="34.9139641" lon="32.8329734"><ele>1391.6</ele><time>2015-04-29T09:17:39.0000000+00:00</time></trkpt><trkpt lat="34.9138745" lon="32.833003"><ele>1391.7</ele><time>2015-04-29T09:17:40.0000000+00:00</time></trkpt><trkpt lat="34.9137946" lon="32.8330277"><ele>1390.7</ele><time>2015-04-29T09:17:41.0000000+00:00</time></trkpt><trkpt lat="34.9137213" lon="32.8330449"><ele>1389.7</ele><time>2015-04-29T09:17:42.0000000+00:00</time></trkpt><trkpt lat="34.9136377" lon="32.8330377"><ele>1388.8</ele><time>2015-04-29T09:17:43.0000000+00:00</time></trkpt><trkpt lat="34.9135519" lon="32.8330308"><ele>1388.8</ele><time>2015-04-29T09:17:44.0000000+00:00</time></trkpt><trkpt lat="34.9134697" lon="32.8330336"><ele>1389.8</ele><time>2015-04-29T09:17:45.0000000+00:00</time></trkpt><trkpt lat="34.9133795" lon="32.833039"><ele>1390.3</ele><time>2015-04-29T09:17:46.0000000+00:00</time></trkpt><trkpt lat="34.9132832" lon="32.8330446"><ele>1389.5</ele><time>2015-04-29T09:17:47.0000000+00:00</time></trkpt><trkpt lat="34.9131889" lon="32.8330673"><ele>1389.1</ele><time>2015-04-29T09:17:48.0000000+00:00</time></trkpt><trkpt lat="34.9130904" lon="32.8330963"><ele>1388.0</ele><time>2015-04-29T09:17:49.0000000+00:00</time></trkpt><trkpt lat="34.9129936" lon="32.8330944"><ele>1387.9</ele><time>2015-04-29T09:17:50.0000000+00:00</time></trkpt><trkpt lat="34.9129019" lon="32.8330924"><ele>1387.3</ele><time>2015-04-29T09:17:51.0000000+00:00</time></trkpt><trkpt lat="34.9127971" lon="32.8330689"><ele>1387.0</ele><time>2015-04-29T09:17:52.0000000+00:00</time></trkpt><trkpt lat="34.9127043" lon="32.8330278"><ele>1386.9</ele><time>2015-04-29T09:17:53.0000000+00:00</time></trkpt><trkpt lat="34.9126201" lon="32.8330017"><ele>1385.8</ele><time>2015-04-29T09:17:54.0000000+00:00</time></trkpt><trkpt lat="34.9125228" lon="32.8329512"><ele>1384.8</ele><time>2015-04-29T09:17:55.0000000+00:00</time></trkpt><trkpt lat="34.9124285" lon="32.8329011"><ele>1384.8</ele><time>2015-04-29T09:17:56.0000000+00:00</time></trkpt><trkpt lat="34.9123269" lon="32.8328578"><ele>1383.8</ele><time>2015-04-29T09:17:57.0000000+00:00</time></trkpt><trkpt lat="34.9122334" lon="32.8328274"><ele>1382.8</ele><time>2015-04-29T09:17:58.0000000+00:00</time></trkpt><trkpt lat="34.9121325" lon="32.8327834"><ele>1382.3</ele><time>2015-04-29T09:17:59.0000000+00:00</time></trkpt><trkpt lat="34.9120458" lon="32.8327214"><ele>1381.5</ele><time>2015-04-29T09:18:00.0000000+00:00</time></trkpt><trkpt lat="34.911972" lon="32.8326606"><ele>1381.6</ele><time>2015-04-29T09:18:01.0000000+00:00</time></trkpt><trkpt lat="34.9119042" lon="32.832585"><ele>1381.7</ele><time>2015-04-29T09:18:02.0000000+00:00</time></trkpt><trkpt lat="34.9118345" lon="32.8325227"><ele>1380.7</ele><time>2015-04-29T09:18:03.0000000+00:00</time></trkpt><trkpt lat="34.9117641" lon="32.832461"><ele>1379.7</ele><time>2015-04-29T09:18:04.0000000+00:00</time></trkpt><trkpt lat="34.9117006" lon="32.8323962"><ele>1379.3</ele><time>2015-04-29T09:18:05.0000000+00:00</time></trkpt><trkpt lat="34.9116455" lon="32.8323529"><ele>1378.5</ele><time>2015-04-29T09:18:06.0000000+00:00</time></trkpt><trkpt lat="34.9115815" lon="32.8323338"><ele>1378.1</ele><time>2015-04-29T09:18:07.0000000+00:00</time></trkpt><trkpt lat="34.9115108" lon="32.8323438"><ele>1377.0</ele><time>2015-04-29T09:18:08.0000000+00:00</time></trkpt><trkpt lat="34.9114473" lon="32.8323766"><ele>1375.9</ele><time>2015-04-29T09:18:09.0000000+00:00</time></trkpt><trkpt lat="34.9113821" lon="32.8324267"><ele>1374.8</ele><time>2015-04-29T09:18:10.0000000+00:00</time></trkpt><trkpt lat="34.9113281" lon="32.8324917"><ele>1373.8</ele><time>2015-04-29T09:18:11.0000000+00:00</time></trkpt><trkpt lat="34.9112768" lon="32.8325652"><ele>1372.8</ele><time>2015-04-29T09:18:12.0000000+00:00</time></trkpt><trkpt lat="34.9112291" lon="32.8326483"><ele>1371.8</ele><time>2015-04-29T09:18:13.0000000+00:00</time></trkpt><trkpt lat="34.9111809" lon="32.8327418"><ele>1371.8</ele><time>2015-04-29T09:18:14.0000000+00:00</time></trkpt><trkpt lat="34.9111469" lon="32.8328219"><ele>1371.3</ele><time>2015-04-29T09:18:15.0000000+00:00</time></trkpt><trkpt lat="34.9110968" lon="32.832914"><ele>1370.5</ele><time>2015-04-29T09:18:16.0000000+00:00</time></trkpt><trkpt lat="34.9110524" lon="32.8330069"><ele>1370.1</ele><time>2015-04-29T09:18:17.0000000+00:00</time></trkpt><trkpt lat="34.9110051" lon="32.8330854"><ele>1370.0</ele><time>2015-04-29T09:18:18.0000000+00:00</time></trkpt><trkpt lat="34.9109542" lon="32.833176"><ele>1369.9</ele><time>2015-04-29T09:18:19.0000000+00:00</time></trkpt><trkpt lat="34.9109" lon="32.8332505"><ele>1369.3</ele><time>2015-04-29T09:18:20.0000000+00:00</time></trkpt><trkpt lat="34.9108416" lon="32.8333263"><ele>1369.0</ele><time>2015-04-29T09:18:21.0000000+00:00</time></trkpt><trkpt lat="34.9107756" lon="32.8333883"><ele>1368.9</ele><time>2015-04-29T09:18:22.0000000+00:00</time></trkpt><trkpt lat="34.9107051" lon="32.8334502"><ele>1369.3</ele><time>2015-04-29T09:18:23.0000000+00:00</time></trkpt><trkpt lat="34.9106378" lon="32.8335192"><ele>1369.0</ele><time>2015-04-29T09:18:24.0000000+00:00</time></trkpt><trkpt lat="34.9105651" lon="32.8335849"><ele>1367.9</ele><time>2015-04-29T09:18:25.0000000+00:00</time></trkpt><trkpt lat="34.9104886" lon="32.8336492"><ele>1367.8</ele><time>2015-04-29T09:18:26.0000000+00:00</time></trkpt><trkpt lat="34.9104233" lon="32.8337147"><ele>1367.3</ele><time>2015-04-29T09:18:27.0000000+00:00</time></trkpt><trkpt lat="34.910347" lon="32.8337756"><ele>1367.5</ele><time>2015-04-29T09:18:28.0000000+00:00</time></trkpt><trkpt lat="34.9102826" lon="32.8338489"><ele>1367.6</ele><time>2015-04-29T09:18:29.0000000+00:00</time></trkpt><trkpt lat="34.9102172" lon="32.8339097"><ele>1367.7</ele><time>2015-04-29T09:18:30.0000000+00:00</time></trkpt><trkpt lat="34.9101667" lon="32.8339722"><ele>1368.2</ele><time>2015-04-29T09:18:31.0000000+00:00</time></trkpt><trkpt lat="34.9101397" lon="32.8340522"><ele>1368.5</ele><time>2015-04-29T09:18:32.0000000+00:00</time></trkpt><trkpt lat="34.9101324" lon="32.8341285"><ele>1368.1</ele><time>2015-04-29T09:18:33.0000000+00:00</time></trkpt><trkpt lat="34.9101371" lon="32.8342117"><ele>1367.9</ele><time>2015-04-29T09:18:34.0000000+00:00</time></trkpt><trkpt lat="34.9101642" lon="32.8342836"><ele>1367.4</ele><time>2015-04-29T09:18:35.0000000+00:00</time></trkpt><trkpt lat="34.9102045" lon="32.8343723"><ele>1367.6</ele><time>2015-04-29T09:18:36.0000000+00:00</time></trkpt><trkpt lat="34.9102408" lon="32.8344475"><ele>1367.2</ele><time>2015-04-29T09:18:37.0000000+00:00</time></trkpt><trkpt lat="34.9102807" lon="32.8345077"><ele>1367.0</ele><time>2015-04-29T09:18:38.0000000+00:00</time></trkpt><trkpt lat="34.9103079" lon="32.8345806"><ele>1366.9</ele><time>2015-04-29T09:18:39.0000000+00:00</time></trkpt><trkpt lat="34.9103252" lon="32.8346719"><ele>1367.3</ele><time>2015-04-29T09:18:40.0000000+00:00</time></trkpt><trkpt lat="34.9103372" lon="32.8347667"><ele>1367.0</ele><time>2015-04-29T09:18:41.0000000+00:00</time></trkpt><trkpt lat="34.9103284" lon="32.83487"><ele>1366.9</ele><time>2015-04-29T09:18:42.0000000+00:00</time></trkpt><trkpt lat="34.9103071" lon="32.8349549"><ele>1366.8</ele><time>2015-04-29T09:18:43.0000000+00:00</time></trkpt><trkpt lat="34.9102691" lon="32.8350486"><ele>1366.8</ele><time>2015-04-29T09:18:44.0000000+00:00</time></trkpt><trkpt lat="34.9102449" lon="32.8351498"><ele>1366.3</ele><time>2015-04-29T09:18:45.0000000+00:00</time></trkpt><trkpt lat="34.9102213" lon="32.8352458"><ele>1366.5</ele><time>2015-04-29T09:18:46.0000000+00:00</time></trkpt><trkpt lat="34.9101848" lon="32.8353451"><ele>1366.1</ele><time>2015-04-29T09:18:47.0000000+00:00</time></trkpt><trkpt lat="34.9101457" lon="32.8354559"><ele>1367.0</ele><time>2015-04-29T09:18:48.0000000+00:00</time></trkpt><trkpt lat="34.9101036" lon="32.8355583"><ele>1366.4</ele><time>2015-04-29T09:18:49.0000000+00:00</time></trkpt><trkpt lat="34.9100536" lon="32.8356495"><ele>1365.6</ele><time>2015-04-29T09:18:50.0000000+00:00</time></trkpt><trkpt lat="34.9100133" lon="32.8357669"><ele>1365.2</ele><time>2015-04-29T09:18:51.0000000+00:00</time></trkpt><trkpt lat="34.9099861" lon="32.8358646"><ele>1365.0</ele><time>2015-04-29T09:18:52.0000000+00:00</time></trkpt><trkpt lat="34.9099962" lon="32.8359555"><ele>1362.9</ele><time>2015-04-29T09:18:53.0000000+00:00</time></trkpt><trkpt lat="34.9100266" lon="32.8360419"><ele>1360.3</ele><time>2015-04-29T09:18:54.0000000+00:00</time></trkpt><trkpt lat="34.9100732" lon="32.8360812"><ele>1359.0</ele><time>2015-04-29T09:18:55.0000000+00:00</time></trkpt><trkpt lat="34.9101398" lon="32.8361107"><ele>1357.9</ele><time>2015-04-29T09:18:56.0000000+00:00</time></trkpt><trkpt lat="34.9102238" lon="32.8361181"><ele>1356.8</ele><time>2015-04-29T09:18:57.0000000+00:00</time></trkpt><trkpt lat="34.910308" lon="32.8361306"><ele>1355.8</ele><time>2015-04-29T09:18:58.0000000+00:00</time></trkpt><trkpt lat="34.9103918" lon="32.8361417"><ele>1355.3</ele><time>2015-04-29T09:18:59.0000000+00:00</time></trkpt><trkpt lat="34.9104753" lon="32.8361562"><ele>1355.0</ele><time>2015-04-29T09:19:00.0000000+00:00</time></trkpt><trkpt lat="34.9105395" lon="32.8361752"><ele>1354.4</ele><time>2015-04-29T09:19:01.0000000+00:00</time></trkpt><trkpt lat="34.9106065" lon="32.8361799"><ele>1353.6</ele><time>2015-04-29T09:19:02.0000000+00:00</time></trkpt><trkpt lat="34.9106742" lon="32.8361829"><ele>1353.2</ele><time>2015-04-29T09:19:03.0000000+00:00</time></trkpt><trkpt lat="34.9107416" lon="32.8361742"><ele>1352.5</ele><time>2015-04-29T09:19:04.0000000+00:00</time></trkpt><trkpt lat="34.9108093" lon="32.8361664"><ele>1352.1</ele><time>2015-04-29T09:19:05.0000000+00:00</time></trkpt><trkpt lat="34.9108757" lon="32.8361414"><ele>1351.9</ele><time>2015-04-29T09:19:06.0000000+00:00</time></trkpt><trkpt lat="34.9109522" lon="32.8361212"><ele>1351.4</ele><time>2015-04-29T09:19:07.0000000+00:00</time></trkpt><trkpt lat="34.9110398" lon="32.8361232"><ele>1350.1</ele><time>2015-04-29T09:19:08.0000000+00:00</time></trkpt><trkpt lat="34.9111195" lon="32.8361378"><ele>1349.9</ele><time>2015-04-29T09:19:09.0000000+00:00</time></trkpt><trkpt lat="34.9112073" lon="32.8361487"><ele>1350.3</ele><time>2015-04-29T09:19:10.0000000+00:00</time></trkpt><trkpt lat="34.9113001" lon="32.8361758"><ele>1350.6</ele><time>2015-04-29T09:19:11.0000000+00:00</time></trkpt><trkpt lat="34.9113917" lon="32.8362104"><ele>1350.7</ele><time>2015-04-29T09:19:12.0000000+00:00</time></trkpt><trkpt lat="34.9114811" lon="32.8362326"><ele>1350.2</ele><time>2015-04-29T09:19:13.0000000+00:00</time></trkpt><trkpt lat="34.9115734" lon="32.8362467"><ele>1350.0</ele><time>2015-04-29T09:19:14.0000000+00:00</time></trkpt><trkpt lat="34.9116665" lon="32.8362508"><ele>1349.4</ele><time>2015-04-29T09:19:15.0000000+00:00</time></trkpt><trkpt lat="34.9117522" lon="32.8362278"><ele>1349.1</ele><time>2015-04-29T09:19:16.0000000+00:00</time></trkpt><trkpt lat="34.9118413" lon="32.8362162"><ele>1348.9</ele><time>2015-04-29T09:19:17.0000000+00:00</time></trkpt><trkpt lat="34.9119352" lon="32.8362176"><ele>1348.3</ele><time>2015-04-29T09:19:18.0000000+00:00</time></trkpt><trkpt lat="34.9120222" lon="32.8362376"><ele>1348.1</ele><time>2015-04-29T09:19:19.0000000+00:00</time></trkpt><trkpt lat="34.9120921" lon="32.8362995"><ele>1347.4</ele><time>2015-04-29T09:19:20.0000000+00:00</time></trkpt><trkpt lat="34.9121296" lon="32.8363621"><ele>1346.6</ele><time>2015-04-29T09:19:21.0000000+00:00</time></trkpt><trkpt lat="34.9121679" lon="32.8364518"><ele>1345.7</ele><time>2015-04-29T09:19:22.0000000+00:00</time></trkpt><trkpt lat="34.9121846" lon="32.8365415"><ele>1345.2</ele><time>2015-04-29T09:19:23.0000000+00:00</time></trkpt><trkpt lat="34.9121978" lon="32.8366431"><ele>1345.0</ele><time>2015-04-29T09:19:24.0000000+00:00</time></trkpt><trkpt lat="34.9122049" lon="32.8367404"><ele>1344.9</ele><time>2015-04-29T09:19:25.0000000+00:00</time></trkpt><trkpt lat="34.9122148" lon="32.8368369"><ele>1344.8</ele><time>2015-04-29T09:19:26.0000000+00:00</time></trkpt><trkpt lat="34.9122264" lon="32.8369249"><ele>1344.8</ele><time>2015-04-29T09:19:27.0000000+00:00</time></trkpt><trkpt lat="34.9122376" lon="32.8369957"><ele>1344.3</ele><time>2015-04-29T09:19:28.0000000+00:00</time></trkpt><trkpt lat="34.9122495" lon="32.8370524"><ele>1343.0</ele><time>2015-04-29T09:19:29.0000000+00:00</time></trkpt><trkpt lat="34.91226" lon="32.8371272"><ele>1339.8</ele><time>2015-04-29T09:19:31.0000000+00:00</time></trkpt><trkpt lat="34.9122359" lon="32.8371826"><ele>1338.3</ele><time>2015-04-29T09:19:33.0000000+00:00</time></trkpt><trkpt lat="34.9122254" lon="32.8372395"><ele>1333.3</ele><time>2015-04-29T09:19:40.0000000+00:00</time></trkpt><trkpt lat="34.9121795" lon="32.8372668"><ele>1335.1</ele><time>2015-04-29T09:21:02.0000000+00:00</time></trkpt><trkpt lat="34.9121487" lon="32.8372104"><ele>1337.3</ele><time>2015-04-29T09:23:55.0000000+00:00</time></trkpt><trkpt lat="34.9121309" lon="32.8371495"><ele>1337.1</ele><time>2015-04-29T09:23:57.0000000+00:00</time></trkpt><trkpt lat="34.9121044" lon="32.8370572"><ele>1336.9</ele><time>2015-04-29T09:23:59.0000000+00:00</time></trkpt><trkpt lat="34.9120894" lon="32.8369596"><ele>1335.5</ele><time>2015-04-29T09:24:01.0000000+00:00</time></trkpt><trkpt lat="34.9120759" lon="32.8368636"><ele>1335.0</ele><time>2015-04-29T09:24:03.0000000+00:00</time></trkpt><trkpt lat="34.9120378" lon="32.8367435"><ele>1334.6</ele><time>2015-04-29T09:24:05.0000000+00:00</time></trkpt><trkpt lat="34.9119951" lon="32.8366535"><ele>1333.5</ele><time>2015-04-29T09:24:07.0000000+00:00</time></trkpt><trkpt lat="34.9119672" lon="32.8366025"><ele>1333.1</ele><time>2015-04-29T09:24:08.0000000+00:00</time></trkpt><trkpt lat="34.9118958" lon="32.8365707"><ele>1332.1</ele><time>2015-04-29T09:24:10.0000000+00:00</time></trkpt><trkpt lat="34.9118218" lon="32.8365954"><ele>1331.8</ele><time>2015-04-29T09:24:12.0000000+00:00</time></trkpt><trkpt lat="34.9117483" lon="32.8366236"><ele>1332.0</ele><time>2015-04-29T09:24:14.0000000+00:00</time></trkpt><trkpt lat="34.9116689" lon="32.8366323"><ele>1331.1</ele><time>2015-04-29T09:24:16.0000000+00:00</time></trkpt><trkpt lat="34.9116148" lon="32.8366419"><ele>1330.4</ele><time>2015-04-29T09:24:17.0000000+00:00</time></trkpt><trkpt lat="34.9115606" lon="32.8366597"><ele>1329.6</ele><time>2015-04-29T09:24:18.0000000+00:00</time></trkpt><trkpt lat="34.9115062" lon="32.8366801"><ele>1328.7</ele><time>2015-04-29T09:24:19.0000000+00:00</time></trkpt><trkpt lat="34.9114423" lon="32.8366946"><ele>1328.2</ele><time>2015-04-29T09:24:20.0000000+00:00</time></trkpt><trkpt lat="34.9113761" lon="32.8367067"><ele>1328.0</ele><time>2015-04-29T09:24:21.0000000+00:00</time></trkpt><trkpt lat="34.9113287" lon="32.8366712"><ele>1325.9</ele><time>2015-04-29T09:24:22.0000000+00:00</time></trkpt><trkpt lat="34.9112768" lon="32.836672"><ele>1324.3</ele><time>2015-04-29T09:24:23.0000000+00:00</time></trkpt><trkpt lat="34.9112258" lon="32.8367279"><ele>1323.5</ele><time>2015-04-29T09:24:24.0000000+00:00</time></trkpt><trkpt lat="34.9111839" lon="32.8367694"><ele>1323.2</ele><time>2015-04-29T09:24:25.0000000+00:00</time></trkpt><trkpt lat="34.9111445" lon="32.8368114"><ele>1322.5</ele><time>2015-04-29T09:24:26.0000000+00:00</time></trkpt><trkpt lat="34.9111112" lon="32.8368571"><ele>1321.6</ele><time>2015-04-29T09:24:27.0000000+00:00</time></trkpt><trkpt lat="34.9110747" lon="32.8369069"><ele>1320.2</ele><time>2015-04-29T09:24:28.0000000+00:00</time></trkpt><trkpt lat="34.9110384" lon="32.8369545"><ele>1319.0</ele><time>2015-04-29T09:24:29.0000000+00:00</time></trkpt><trkpt lat="34.9109679" lon="32.837014"><ele>1316.6</ele><time>2015-04-29T09:24:31.0000000+00:00</time></trkpt><trkpt lat="34.9109284" lon="32.8370433"><ele>1315.7</ele><time>2015-04-29T09:24:32.0000000+00:00</time></trkpt><trkpt lat="34.9108773" lon="32.83705"><ele>1314.7</ele><time>2015-04-29T09:24:33.0000000+00:00</time></trkpt><trkpt lat="34.9108102" lon="32.8370847"><ele>1315.2</ele><time>2015-04-29T09:24:34.0000000+00:00</time></trkpt><trkpt lat="34.9107551" lon="32.8370784"><ele>1315.0</ele><time>2015-04-29T09:24:35.0000000+00:00</time></trkpt><trkpt lat="34.9106996" lon="32.8370627"><ele>1313.9</ele><time>2015-04-29T09:24:36.0000000+00:00</time></trkpt><trkpt lat="34.9106259" lon="32.8370339"><ele>1313.3</ele><time>2015-04-29T09:24:37.0000000+00:00</time></trkpt><trkpt lat="34.9105652" lon="32.8370227"><ele>1313.5</ele><time>2015-04-29T09:24:38.0000000+00:00</time></trkpt><trkpt lat="34.9105127" lon="32.8370104"><ele>1313.7</ele><time>2015-04-29T09:24:39.0000000+00:00</time></trkpt><trkpt lat="34.9104662" lon="32.8369961"><ele>1313.2</ele><time>2015-04-29T09:24:40.0000000+00:00</time></trkpt><trkpt lat="34.9104041" lon="32.8369696"><ele>1312.4</ele><time>2015-04-29T09:24:42.0000000+00:00</time></trkpt><trkpt lat="34.9103546" lon="32.8369772"><ele>1311.9</ele><time>2015-04-29T09:24:44.0000000+00:00</time></trkpt><trkpt lat="34.9102972" lon="32.8369895"><ele>1311.8</ele><time>2015-04-29T09:24:47.0000000+00:00</time></trkpt><trkpt lat="34.9102506" lon="32.8370083"><ele>1310.4</ele><time>2015-04-29T09:24:50.0000000+00:00</time></trkpt><trkpt lat="34.9102136" lon="32.8370413"><ele>1310.2</ele><time>2015-04-29T09:24:52.0000000+00:00</time></trkpt><trkpt lat="34.9101605" lon="32.8371005"><ele>1310.6</ele><time>2015-04-29T09:24:54.0000000+00:00</time></trkpt><trkpt lat="34.9101303" lon="32.8371415"><ele>1311.2</ele><time>2015-04-29T09:24:55.0000000+00:00</time></trkpt><trkpt lat="34.9100834" lon="32.837253"><ele>1311.0</ele><time>2015-04-29T09:24:56.0000000+00:00</time></trkpt><trkpt lat="34.910054" lon="32.8373056"><ele>1310.4</ele><time>2015-04-29T09:24:57.0000000+00:00</time></trkpt><trkpt lat="34.9100127" lon="32.8373546"><ele>1310.1</ele><time>2015-04-29T09:24:58.0000000+00:00</time></trkpt><trkpt lat="34.9099642" lon="32.8373978"><ele>1309.9</ele><time>2015-04-29T09:24:59.0000000+00:00</time></trkpt><trkpt lat="34.9098781" lon="32.8374158"><ele>1306.8</ele><time>2015-04-29T09:25:00.0000000+00:00</time></trkpt><trkpt lat="34.909822" lon="32.8374559"><ele>1305.8</ele><time>2015-04-29T09:25:01.0000000+00:00</time></trkpt><trkpt lat="34.909743" lon="32.8374912"><ele>1304.3</ele><time>2015-04-29T09:25:02.0000000+00:00</time></trkpt><trkpt lat="34.9096776" lon="32.8375326"><ele>1303.5</ele><time>2015-04-29T09:25:03.0000000+00:00</time></trkpt><trkpt lat="34.9096216" lon="32.8375439"><ele>1302.6</ele><time>2015-04-29T09:25:04.0000000+00:00</time></trkpt><trkpt lat="34.9095584" lon="32.8375704"><ele>1302.2</ele><time>2015-04-29T09:25:05.0000000+00:00</time></trkpt><trkpt lat="34.9095055" lon="32.837595"><ele>1301.5</ele><time>2015-04-29T09:25:06.0000000+00:00</time></trkpt><trkpt lat="34.9094436" lon="32.8376358"><ele>1302.1</ele><time>2015-04-29T09:25:07.0000000+00:00</time></trkpt><trkpt lat="34.9093944" lon="32.8376646"><ele>1302.4</ele><time>2015-04-29T09:25:08.0000000+00:00</time></trkpt><trkpt lat="34.9093242" lon="32.8377064"><ele>1303.1</ele><time>2015-04-29T09:25:09.0000000+00:00</time></trkpt><trkpt lat="34.909268" lon="32.8377048"><ele>1303.4</ele><time>2015-04-29T09:25:10.0000000+00:00</time></trkpt><trkpt lat="34.9092117" lon="32.8376941"><ele>1303.4</ele><time>2015-04-29T09:25:12.0000000+00:00</time></trkpt><trkpt lat="34.9091548" lon="32.8376741"><ele>1302.3</ele><time>2015-04-29T09:25:15.0000000+00:00</time></trkpt><trkpt lat="34.9091167" lon="32.8376434"><ele>1299.9</ele><time>2015-04-29T09:25:21.0000000+00:00</time></trkpt><trkpt lat="34.9091736" lon="32.8376621"><ele>1298.8</ele><time>2015-04-29T09:25:44.0000000+00:00</time></trkpt><trkpt lat="34.9092286" lon="32.8376849"><ele>1300.3</ele><time>2015-04-29T09:25:46.0000000+00:00</time></trkpt><trkpt lat="34.9092947" lon="32.8376965"><ele>1300.1</ele><time>2015-04-29T09:25:48.0000000+00:00</time></trkpt><trkpt lat="34.9093621" lon="32.8376978"><ele>1300.6</ele><time>2015-04-29T09:25:50.0000000+00:00</time></trkpt><trkpt lat="34.9094323" lon="32.8376888"><ele>1301.0</ele><time>2015-04-29T09:25:52.0000000+00:00</time></trkpt><trkpt lat="34.909516" lon="32.8376765"><ele>1300.8</ele><time>2015-04-29T09:25:54.0000000+00:00</time></trkpt><trkpt lat="34.9096056" lon="32.8376496"><ele>1300.8</ele><time>2015-04-29T09:25:56.0000000+00:00</time></trkpt><trkpt lat="34.9096512" lon="32.837637"><ele>1300.8</ele><time>2015-04-29T09:25:57.0000000+00:00</time></trkpt><trkpt lat="34.9096959" lon="32.837625"><ele>1300.3</ele><time>2015-04-29T09:25:58.0000000+00:00</time></trkpt><trkpt lat="34.9097772" lon="32.8376048"><ele>1301.4</ele><time>2015-04-29T09:26:00.0000000+00:00</time></trkpt><trkpt lat="34.9098418" lon="32.8375836"><ele>1301.2</ele><time>2015-04-29T09:26:02.0000000+00:00</time></trkpt><trkpt lat="34.9098867" lon="32.837564"><ele>1301.6</ele><time>2015-04-29T09:26:04.0000000+00:00</time></trkpt><trkpt lat="34.9099411" lon="32.8375466"><ele>1302.4</ele><time>2015-04-29T09:26:07.0000000+00:00</time></trkpt><trkpt lat="34.909993" lon="32.8375304"><ele>1301.1</ele><time>2015-04-29T09:26:10.0000000+00:00</time></trkpt><trkpt lat="34.9100372" lon="32.8375026"><ele>1300.3</ele><time>2015-04-29T09:26:13.0000000+00:00</time></trkpt><trkpt lat="34.9100786" lon="32.837471"><ele>1299.8</ele><time>2015-04-29T09:26:16.0000000+00:00</time></trkpt><trkpt lat="34.9101204" lon="32.8374213"><ele>1301.3</ele><time>2015-04-29T09:26:19.0000000+00:00</time></trkpt><trkpt lat="34.9101667" lon="32.8373773"><ele>1302.2</ele><time>2015-04-29T09:26:22.0000000+00:00</time></trkpt><trkpt lat="34.9102189" lon="32.8373532"><ele>1303.6</ele><time>2015-04-29T09:26:25.0000000+00:00</time></trkpt><trkpt lat="34.9102659" lon="32.8373242"><ele>1303.7</ele><time>2015-04-29T09:26:28.0000000+00:00</time></trkpt><trkpt lat="34.9103081" lon="32.8373046"><ele>1303.8</ele><time>2015-04-29T09:26:31.0000000+00:00</time></trkpt><trkpt lat="34.9103543" lon="32.8372875"><ele>1305.5</ele><time>2015-04-29T09:26:34.0000000+00:00</time></trkpt><trkpt lat="34.9104093" lon="32.8372797"><ele>1305.7</ele><time>2015-04-29T09:26:38.0000000+00:00</time></trkpt><trkpt lat="34.9104608" lon="32.8372781"><ele>1306.7</ele><time>2015-04-29T09:26:42.0000000+00:00</time></trkpt><trkpt lat="34.9105138" lon="32.8372931"><ele>1309.8</ele><time>2015-04-29T09:26:47.0000000+00:00</time></trkpt><trkpt lat="34.9105613" lon="32.8372922"><ele>1311.0</ele><time>2015-04-29T09:26:51.0000000+00:00</time></trkpt><trkpt lat="34.9106045" lon="32.8373094"><ele>1314.4</ele><time>2015-04-29T09:26:55.0000000+00:00</time></trkpt><trkpt lat="34.9106509" lon="32.8373058"><ele>1313.5</ele><time>2015-04-29T09:26:58.0000000+00:00</time></trkpt><trkpt lat="34.9107043" lon="32.8373027"><ele>1313.7</ele><time>2015-04-29T09:27:01.0000000+00:00</time></trkpt><trkpt lat="34.9107506" lon="32.8372936"><ele>1313.8</ele><time>2015-04-29T09:27:03.0000000+00:00</time></trkpt><trkpt lat="34.9108098" lon="32.8372713"><ele>1314.6</ele><time>2015-04-29T09:27:06.0000000+00:00</time></trkpt><trkpt lat="34.910856" lon="32.8372622"><ele>1313.7</ele><time>2015-04-29T09:27:08.0000000+00:00</time></trkpt><trkpt lat="34.910915" lon="32.8372471"><ele>1312.3</ele><time>2015-04-29T09:27:10.0000000+00:00</time></trkpt><trkpt lat="34.9109673" lon="32.8372263"><ele>1311.9</ele><time>2015-04-29T09:27:12.0000000+00:00</time></trkpt><trkpt lat="34.9110212" lon="32.8371997"><ele>1312.0</ele><time>2015-04-29T09:27:14.0000000+00:00</time></trkpt><trkpt lat="34.9110787" lon="32.8371621"><ele>1311.8</ele><time>2015-04-29T09:27:16.0000000+00:00</time></trkpt><trkpt lat="34.9111246" lon="32.8371221"><ele>1312.3</ele><time>2015-04-29T09:27:18.0000000+00:00</time></trkpt><trkpt lat="34.9111647" lon="32.8370836"><ele>1312.6</ele><time>2015-04-29T09:27:20.0000000+00:00</time></trkpt><trkpt lat="34.9112148" lon="32.8370488"><ele>1312.7</ele><time>2015-04-29T09:27:22.0000000+00:00</time></trkpt><trkpt lat="34.9112705" lon="32.837027"><ele>1313.0</ele><time>2015-04-29T09:27:24.0000000+00:00</time></trkpt><trkpt lat="34.911323" lon="32.8370175"><ele>1312.8</ele><time>2015-04-29T09:27:26.0000000+00:00</time></trkpt><trkpt lat="34.9113771" lon="32.8370074"><ele>1312.8</ele><time>2015-04-29T09:27:29.0000000+00:00</time></trkpt><trkpt lat="34.9114338" lon="32.8370129"><ele>1310.9</ele><time>2015-04-29T09:27:32.0000000+00:00</time></trkpt><trkpt lat="34.9114817" lon="32.8370266"><ele>1311.8</ele><time>2015-04-29T09:27:34.0000000+00:00</time></trkpt><trkpt lat="34.9115352" lon="32.8370631"><ele>1313.0</ele><time>2015-04-29T09:27:36.0000000+00:00</time></trkpt><trkpt lat="34.9115887" lon="32.8371126"><ele>1313.6</ele><time>2015-04-29T09:27:38.0000000+00:00</time></trkpt><trkpt lat="34.911635" lon="32.8371636"><ele>1313.0</ele><time>2015-04-29T09:27:40.0000000+00:00</time></trkpt><trkpt lat="34.911671" lon="32.8372259"><ele>1313.3</ele><time>2015-04-29T09:27:42.0000000+00:00</time></trkpt><trkpt lat="34.9116935" lon="32.8372998"><ele>1313.7</ele><time>2015-04-29T09:27:44.0000000+00:00</time></trkpt><trkpt lat="34.911713" lon="32.8373772"><ele>1314.5</ele><time>2015-04-29T09:27:46.0000000+00:00</time></trkpt><trkpt lat="34.9117399" lon="32.8374556"><ele>1314.7</ele><time>2015-04-29T09:27:48.0000000+00:00</time></trkpt><trkpt lat="34.911778" lon="32.8375316"><ele>1314.2</ele><time>2015-04-29T09:27:50.0000000+00:00</time></trkpt><trkpt lat="34.9118129" lon="32.8376211"><ele>1313.9</ele><time>2015-04-29T09:27:52.0000000+00:00</time></trkpt><trkpt lat="34.9118536" lon="32.8377107"><ele>1313.8</ele><time>2015-04-29T09:27:53.0000000+00:00</time></trkpt><trkpt lat="34.9118926" lon="32.8377451"><ele>1314.3</ele><time>2015-04-29T09:27:54.0000000+00:00</time></trkpt><trkpt lat="34.911941" lon="32.83777"><ele>1314.5</ele><time>2015-04-29T09:27:55.0000000+00:00</time></trkpt><trkpt lat="34.9120081" lon="32.8377924"><ele>1314.6</ele><time>2015-04-29T09:27:56.0000000+00:00</time></trkpt><trkpt lat="34.9120763" lon="32.837813"><ele>1314.2</ele><time>2015-04-29T09:27:57.0000000+00:00</time></trkpt><trkpt lat="34.9121394" lon="32.8378321"><ele>1314.5</ele><time>2015-04-29T09:27:58.0000000+00:00</time></trkpt><trkpt lat="34.9122095" lon="32.8378616"><ele>1313.1</ele><time>2015-04-29T09:27:59.0000000+00:00</time></trkpt><trkpt lat="34.912286" lon="32.8378847"><ele>1312.4</ele><time>2015-04-29T09:28:00.0000000+00:00</time></trkpt><trkpt lat="34.9123737" lon="32.8379014"><ele>1312.1</ele><time>2015-04-29T09:28:01.0000000+00:00</time></trkpt><trkpt lat="34.9124504" lon="32.8379202"><ele>1312.4</ele><time>2015-04-29T09:28:02.0000000+00:00</time></trkpt><trkpt lat="34.9125283" lon="32.8379358"><ele>1312.6</ele><time>2015-04-29T09:28:03.0000000+00:00</time></trkpt><trkpt lat="34.9126039" lon="32.8379579"><ele>1313.2</ele><time>2015-04-29T09:28:04.0000000+00:00</time></trkpt><trkpt lat="34.9126796" lon="32.8379528"><ele>1313.5</ele><time>2015-04-29T09:28:05.0000000+00:00</time></trkpt><trkpt lat="34.9127499" lon="32.83796"><ele>1313.6</ele><time>2015-04-29T09:28:06.0000000+00:00</time></trkpt><trkpt lat="34.9128145" lon="32.8379696"><ele>1313.2</ele><time>2015-04-29T09:28:07.0000000+00:00</time></trkpt><trkpt lat="34.9128805" lon="32.8379728"><ele>1313.0</ele><time>2015-04-29T09:28:08.0000000+00:00</time></trkpt><trkpt lat="34.9129417" lon="32.8379754"><ele>1312.9</ele><time>2015-04-29T09:28:09.0000000+00:00</time></trkpt><trkpt lat="34.9129924" lon="32.837969"><ele>1312.8</ele><time>2015-04-29T09:28:10.0000000+00:00</time></trkpt><trkpt lat="34.9130585" lon="32.8379954"><ele>1314.0</ele><time>2015-04-29T09:28:12.0000000+00:00</time></trkpt><trkpt lat="34.9131151" lon="32.8380139"><ele>1315.6</ele><time>2015-04-29T09:28:14.0000000+00:00</time></trkpt><trkpt lat="34.9131692" lon="32.8380404"><ele>1317.2</ele><time>2015-04-29T09:28:16.0000000+00:00</time></trkpt><trkpt lat="34.9132318" lon="32.8380454"><ele>1317.8</ele><time>2015-04-29T09:28:19.0000000+00:00</time></trkpt><trkpt lat="34.9132796" lon="32.8380457"><ele>1318.0</ele><time>2015-04-29T09:28:22.0000000+00:00</time></trkpt><trkpt lat="34.9133259" lon="32.8380417"><ele>1317.9</ele><time>2015-04-29T09:28:25.0000000+00:00</time></trkpt><trkpt lat="34.9132688" lon="32.8380656"><ele>1317.5</ele><time>2015-04-29T09:28:34.0000000+00:00</time></trkpt><trkpt lat="34.9132134" lon="32.8380514"><ele>1316.9</ele><time>2015-04-29T09:28:36.0000000+00:00</time></trkpt><trkpt lat="34.913157" lon="32.8380405"><ele>1316.9</ele><time>2015-04-29T09:28:39.0000000+00:00</time></trkpt><trkpt lat="34.9131115" lon="32.8380253"><ele>1317.8</ele><time>2015-04-29T09:28:42.0000000+00:00</time></trkpt><trkpt lat="34.9130598" lon="32.8380159"><ele>1318.5</ele><time>2015-04-29T09:28:45.0000000+00:00</time></trkpt><trkpt lat="34.9130123" lon="32.8380129"><ele>1318.7</ele><time>2015-04-29T09:28:47.0000000+00:00</time></trkpt><trkpt lat="34.9129389" lon="32.8380147"><ele>1319.0</ele><time>2015-04-29T09:28:49.0000000+00:00</time></trkpt><trkpt lat="34.9128576" lon="32.8380148"><ele>1318.1</ele><time>2015-04-29T09:28:51.0000000+00:00</time></trkpt><trkpt lat="34.912777" lon="32.838013"><ele>1317.4</ele><time>2015-04-29T09:28:52.0000000+00:00</time></trkpt><trkpt lat="34.9127216" lon="32.8380092"><ele>1316.6</ele><time>2015-04-29T09:28:53.0000000+00:00</time></trkpt><trkpt lat="34.9126671" lon="32.8379981"><ele>1315.7</ele><time>2015-04-29T09:28:54.0000000+00:00</time></trkpt><trkpt lat="34.9126065" lon="32.8379881"><ele>1314.7</ele><time>2015-04-29T09:28:55.0000000+00:00</time></trkpt><trkpt lat="34.9125323" lon="32.8379793"><ele>1314.7</ele><time>2015-04-29T09:28:56.0000000+00:00</time></trkpt><trkpt lat="34.9124603" lon="32.8379638"><ele>1313.8</ele><time>2015-04-29T09:28:57.0000000+00:00</time></trkpt><trkpt lat="34.9123814" lon="32.8379529"><ele>1312.8</ele><time>2015-04-29T09:28:58.0000000+00:00</time></trkpt><trkpt lat="34.9123148" lon="32.8379354"><ele>1311.8</ele><time>2015-04-29T09:28:59.0000000+00:00</time></trkpt><trkpt lat="34.9122389" lon="32.8379237"><ele>1311.3</ele><time>2015-04-29T09:29:00.0000000+00:00</time></trkpt><trkpt lat="34.912169" lon="32.8379119"><ele>1311.0</ele><time>2015-04-29T09:29:01.0000000+00:00</time></trkpt><trkpt lat="34.9121055" lon="32.8378883"><ele>1310.4</ele><time>2015-04-29T09:29:02.0000000+00:00</time></trkpt><trkpt lat="34.9120498" lon="32.837861"><ele>1310.1</ele><time>2015-04-29T09:29:03.0000000+00:00</time></trkpt><trkpt lat="34.9119988" lon="32.8378424"><ele>1311.4</ele><time>2015-04-29T09:29:04.0000000+00:00</time></trkpt><trkpt lat="34.9119554" lon="32.8378177"><ele>1312.1</ele><time>2015-04-29T09:29:05.0000000+00:00</time></trkpt><trkpt lat="34.9119114" lon="32.8377792"><ele>1312.4</ele><time>2015-04-29T09:29:06.0000000+00:00</time></trkpt><trkpt lat="34.9118767" lon="32.8377303"><ele>1312.6</ele><time>2015-04-29T09:29:07.0000000+00:00</time></trkpt><trkpt lat="34.9118524" lon="32.8376748"><ele>1312.7</ele><time>2015-04-29T09:29:08.0000000+00:00</time></trkpt><trkpt lat="34.9118276" lon="32.8376217"><ele>1312.2</ele><time>2015-04-29T09:29:09.0000000+00:00</time></trkpt><trkpt lat="34.911798" lon="32.8375524"><ele>1311.6</ele><time>2015-04-29T09:29:11.0000000+00:00</time></trkpt><trkpt lat="34.9117966" lon="32.837495"><ele>1313.2</ele><time>2015-04-29T09:29:13.0000000+00:00</time></trkpt><trkpt lat="34.9117763" lon="32.8374215"><ele>1313.9</ele><time>2015-04-29T09:29:15.0000000+00:00</time></trkpt><trkpt lat="34.9117559" lon="32.8373562"><ele>1313.8</ele><time>2015-04-29T09:29:17.0000000+00:00</time></trkpt><trkpt lat="34.9117209" lon="32.8372884"><ele>1314.8</ele><time>2015-04-29T09:29:19.0000000+00:00</time></trkpt><trkpt lat="34.9116906" lon="32.8372162"><ele>1315.3</ele><time>2015-04-29T09:29:21.0000000+00:00</time></trkpt><trkpt lat="34.9116482" lon="32.8371526"><ele>1316.6</ele><time>2015-04-29T09:29:23.0000000+00:00</time></trkpt><trkpt lat="34.9115807" lon="32.8370959"><ele>1319.5</ele><time>2015-04-29T09:29:25.0000000+00:00</time></trkpt><trkpt lat="34.911505" lon="32.8370858"><ele>1321.1</ele><time>2015-04-29T09:29:26.0000000+00:00</time></trkpt><trkpt lat="34.9114268" lon="32.8370581"><ele>1322.9</ele><time>2015-04-29T09:29:28.0000000+00:00</time></trkpt><trkpt lat="34.911359" lon="32.8370418"><ele>1322.3</ele><time>2015-04-29T09:29:30.0000000+00:00</time></trkpt><trkpt lat="34.9113002" lon="32.8370394"><ele>1321.4</ele><time>2015-04-29T09:29:32.0000000+00:00</time></trkpt><trkpt lat="34.911243" lon="32.8370495"><ele>1319.7</ele><time>2015-04-29T09:29:34.0000000+00:00</time></trkpt><trkpt lat="34.9111975" lon="32.837081"><ele>1317.7</ele><time>2015-04-29T09:29:36.0000000+00:00</time></trkpt><trkpt lat="34.9111429" lon="32.8371197"><ele>1317.5</ele><time>2015-04-29T09:29:38.0000000+00:00</time></trkpt><trkpt lat="34.9110886" lon="32.8371729"><ele>1317.7</ele><time>2015-04-29T09:29:40.0000000+00:00</time></trkpt><trkpt lat="34.9110226" lon="32.837223"><ele>1318.5</ele><time>2015-04-29T09:29:42.0000000+00:00</time></trkpt><trkpt lat="34.9109425" lon="32.837252"><ele>1317.2</ele><time>2015-04-29T09:29:44.0000000+00:00</time></trkpt><trkpt lat="34.9108573" lon="32.8372671"><ele>1317.1</ele><time>2015-04-29T09:29:46.0000000+00:00</time></trkpt><trkpt lat="34.9107327" lon="32.8372971"><ele>1317.1</ele><time>2015-04-29T09:29:48.0000000+00:00</time></trkpt><trkpt lat="34.9106818" lon="32.837303"><ele>1316.4</ele><time>2015-04-29T09:29:49.0000000+00:00</time></trkpt><trkpt lat="34.9106365" lon="32.8372989"><ele>1315.1</ele><time>2015-04-29T09:29:50.0000000+00:00</time></trkpt><trkpt lat="34.9105837" lon="32.837283"><ele>1314.4</ele><time>2015-04-29T09:29:51.0000000+00:00</time></trkpt><trkpt lat="34.9105235" lon="32.8372756"><ele>1314.6</ele><time>2015-04-29T09:29:52.0000000+00:00</time></trkpt><trkpt lat="34.9104582" lon="32.8372767"><ele>1313.7</ele><time>2015-04-29T09:29:53.0000000+00:00</time></trkpt><trkpt lat="34.9104028" lon="32.8372673"><ele>1312.7</ele><time>2015-04-29T09:29:54.0000000+00:00</time></trkpt><trkpt lat="34.9103397" lon="32.8372822"><ele>1312.2</ele><time>2015-04-29T09:29:55.0000000+00:00</time></trkpt><trkpt lat="34.9102821" lon="32.8373069"><ele>1311.5</ele><time>2015-04-29T09:29:56.0000000+00:00</time></trkpt><trkpt lat="34.9102182" lon="32.8373395"><ele>1311.6</ele><time>2015-04-29T09:29:57.0000000+00:00</time></trkpt><trkpt lat="34.9101599" lon="32.837373"><ele>1311.2</ele><time>2015-04-29T09:29:58.0000000+00:00</time></trkpt><trkpt lat="34.9100998" lon="32.8374035"><ele>1311.0</ele><time>2015-04-29T09:29:59.0000000+00:00</time></trkpt><trkpt lat="34.9100694" lon="32.8374554"><ele>1309.9</ele><time>2015-04-29T09:30:00.0000000+00:00</time></trkpt><trkpt lat="34.910018" lon="32.8374896"><ele>1308.3</ele><time>2015-04-29T09:30:01.0000000+00:00</time></trkpt><trkpt lat="34.9099515" lon="32.8375258"><ele>1307.0</ele><time>2015-04-29T09:30:02.0000000+00:00</time></trkpt><trkpt lat="34.909894" lon="32.8375522"><ele>1305.9</ele><time>2015-04-29T09:30:03.0000000+00:00</time></trkpt><trkpt lat="34.9098276" lon="32.8375947"><ele>1305.3</ele><time>2015-04-29T09:30:04.0000000+00:00</time></trkpt><trkpt lat="34.9097603" lon="32.837635"><ele>1305.0</ele><time>2015-04-29T09:30:05.0000000+00:00</time></trkpt><trkpt lat="34.9096967" lon="32.8376635"><ele>1304.4</ele><time>2015-04-29T09:30:06.0000000+00:00</time></trkpt><trkpt lat="34.9096237" lon="32.837688"><ele>1304.1</ele><time>2015-04-29T09:30:07.0000000+00:00</time></trkpt><trkpt lat="34.9095607" lon="32.8377225"><ele>1305.4</ele><time>2015-04-29T09:30:08.0000000+00:00</time></trkpt><trkpt lat="34.9095075" lon="32.8377425"><ele>1305.6</ele><time>2015-04-29T09:30:09.0000000+00:00</time></trkpt><trkpt lat="34.9094485" lon="32.8377659"><ele>1305.7</ele><time>2015-04-29T09:30:10.0000000+00:00</time></trkpt><trkpt lat="34.9093881" lon="32.8377711"><ele>1306.2</ele><time>2015-04-29T09:30:11.0000000+00:00</time></trkpt><trkpt lat="34.9093285" lon="32.8377747"><ele>1306.0</ele><time>2015-04-29T09:30:12.0000000+00:00</time></trkpt><trkpt lat="34.9092479" lon="32.8377762"><ele>1306.6</ele><time>2015-04-29T09:30:14.0000000+00:00</time></trkpt><trkpt lat="34.9092006" lon="32.8377656"><ele>1306.5</ele><time>2015-04-29T09:30:17.0000000+00:00</time></trkpt><trkpt lat="34.9091628" lon="32.8377329"><ele>1305.0</ele><time>2015-04-29T09:30:33.0000000+00:00</time></trkpt><trkpt lat="34.9091962" lon="32.8376897"><ele>1297.2</ele><time>2015-04-29T09:31:21.0000000+00:00</time></trkpt><trkpt lat="34.9091562" lon="32.8376328"><ele>1296.3</ele><time>2015-04-29T09:31:28.0000000+00:00</time></trkpt><trkpt lat="34.9091082" lon="32.8375881"><ele>1295.6</ele><time>2015-04-29T09:31:30.0000000+00:00</time></trkpt><trkpt lat="34.9090364" lon="32.837531"><ele>1295.0</ele><time>2015-04-29T09:31:32.0000000+00:00</time></trkpt><trkpt lat="34.9089656" lon="32.8374876"><ele>1294.9</ele><time>2015-04-29T09:31:33.0000000+00:00</time></trkpt><trkpt lat="34.9089202" lon="32.8374613"><ele>1294.8</ele><time>2015-04-29T09:31:34.0000000+00:00</time></trkpt><trkpt lat="34.9088839" lon="32.8374256"><ele>1294.8</ele><time>2015-04-29T09:31:35.0000000+00:00</time></trkpt><trkpt lat="34.9088458" lon="32.8373858"><ele>1294.3</ele><time>2015-04-29T09:31:36.0000000+00:00</time></trkpt><trkpt lat="34.9088023" lon="32.8372927"><ele>1293.4</ele><time>2015-04-29T09:31:38.0000000+00:00</time></trkpt><trkpt lat="34.9087989" lon="32.8372355"><ele>1293.1</ele><time>2015-04-29T09:31:39.0000000+00:00</time></trkpt><trkpt lat="34.9088009" lon="32.8371725"><ele>1292.9</ele><time>2015-04-29T09:31:40.0000000+00:00</time></trkpt><trkpt lat="34.9088044" lon="32.8371156"><ele>1292.8</ele><time>2015-04-29T09:31:41.0000000+00:00</time></trkpt><trkpt lat="34.9087982" lon="32.837055"><ele>1293.3</ele><time>2015-04-29T09:31:42.0000000+00:00</time></trkpt><trkpt lat="34.9088044" lon="32.8369958"><ele>1293.0</ele><time>2015-04-29T09:31:43.0000000+00:00</time></trkpt><trkpt lat="34.9087984" lon="32.8369295"><ele>1292.4</ele><time>2015-04-29T09:31:44.0000000+00:00</time></trkpt><trkpt lat="34.9087831" lon="32.8368662"><ele>1292.1</ele><time>2015-04-29T09:31:45.0000000+00:00</time></trkpt><trkpt lat="34.908774" lon="32.8367964"><ele>1291.4</ele><time>2015-04-29T09:31:46.0000000+00:00</time></trkpt><trkpt lat="34.9087534" lon="32.8367249"><ele>1291.1</ele><time>2015-04-29T09:31:47.0000000+00:00</time></trkpt><trkpt lat="34.9087156" lon="32.8366542"><ele>1291.4</ele><time>2015-04-29T09:31:48.0000000+00:00</time></trkpt><trkpt lat="34.9086894" lon="32.8365824"><ele>1291.6</ele><time>2015-04-29T09:31:49.0000000+00:00</time></trkpt><trkpt lat="34.9086715" lon="32.8365137"><ele>1291.7</ele><time>2015-04-29T09:31:50.0000000+00:00</time></trkpt><trkpt lat="34.9086531" lon="32.836441"><ele>1291.2</ele><time>2015-04-29T09:31:51.0000000+00:00</time></trkpt><trkpt lat="34.9086403" lon="32.836361"><ele>1291.0</ele><time>2015-04-29T09:31:52.0000000+00:00</time></trkpt><trkpt lat="34.9086264" lon="32.8362887"><ele>1290.4</ele><time>2015-04-29T09:31:53.0000000+00:00</time></trkpt><trkpt lat="34.9086121" lon="32.8362146"><ele>1290.6</ele><time>2015-04-29T09:31:54.0000000+00:00</time></trkpt><trkpt lat="34.908629" lon="32.8361348"><ele>1290.7</ele><time>2015-04-29T09:31:55.0000000+00:00</time></trkpt><trkpt lat="34.9086538" lon="32.8360754"><ele>1290.2</ele><time>2015-04-29T09:31:56.0000000+00:00</time></trkpt><trkpt lat="34.9086674" lon="32.836015"><ele>1289.0</ele><time>2015-04-29T09:31:57.0000000+00:00</time></trkpt><trkpt lat="34.9086774" lon="32.8359546"><ele>1288.4</ele><time>2015-04-29T09:31:58.0000000+00:00</time></trkpt><trkpt lat="34.9086828" lon="32.8358912"><ele>1287.6</ele><time>2015-04-29T09:31:59.0000000+00:00</time></trkpt><trkpt lat="34.9086691" lon="32.8357934"><ele>1286.5</ele><time>2015-04-29T09:32:01.0000000+00:00</time></trkpt><trkpt lat="34.9085948" lon="32.8357267"><ele>1285.4</ele><time>2015-04-29T09:32:03.0000000+00:00</time></trkpt><trkpt lat="34.9085402" lon="32.8357033"><ele>1284.1</ele><time>2015-04-29T09:32:04.0000000+00:00</time></trkpt><trkpt lat="34.9084849" lon="32.8356882"><ele>1282.9</ele><time>2015-04-29T09:32:05.0000000+00:00</time></trkpt><trkpt lat="34.9084326" lon="32.8356786"><ele>1282.3</ele><time>2015-04-29T09:32:06.0000000+00:00</time></trkpt><trkpt lat="34.9083812" lon="32.835668"><ele>1282.6</ele><time>2015-04-29T09:32:07.0000000+00:00</time></trkpt><trkpt lat="34.9083276" lon="32.8356613"><ele>1282.2</ele><time>2015-04-29T09:32:08.0000000+00:00</time></trkpt><trkpt lat="34.9082748" lon="32.83564"><ele>1282.5</ele><time>2015-04-29T09:32:09.0000000+00:00</time></trkpt><trkpt lat="34.9082307" lon="32.8356085"><ele>1282.1</ele><time>2015-04-29T09:32:10.0000000+00:00</time></trkpt><trkpt lat="34.9081913" lon="32.8355814"><ele>1282.4</ele><time>2015-04-29T09:32:11.0000000+00:00</time></trkpt><trkpt lat="34.9081491" lon="32.8355426"><ele>1282.1</ele><time>2015-04-29T09:32:12.0000000+00:00</time></trkpt><trkpt lat="34.9080991" lon="32.8354979"><ele>1281.9</ele><time>2015-04-29T09:32:13.0000000+00:00</time></trkpt><trkpt lat="34.9080489" lon="32.8354687"><ele>1281.8</ele><time>2015-04-29T09:32:14.0000000+00:00</time></trkpt><trkpt lat="34.9079973" lon="32.8354448"><ele>1281.8</ele><time>2015-04-29T09:32:15.0000000+00:00</time></trkpt><trkpt lat="34.9079509" lon="32.8354032"><ele>1281.3</ele><time>2015-04-29T09:32:16.0000000+00:00</time></trkpt><trkpt lat="34.9079043" lon="32.8353738"><ele>1281.0</ele><time>2015-04-29T09:32:17.0000000+00:00</time></trkpt><trkpt lat="34.9078617" lon="32.835331"><ele>1280.9</ele><time>2015-04-29T09:32:18.0000000+00:00</time></trkpt><trkpt lat="34.9078147" lon="32.8352862"><ele>1281.3</ele><time>2015-04-29T09:32:19.0000000+00:00</time></trkpt><trkpt lat="34.9077767" lon="32.835226"><ele>1281.0</ele><time>2015-04-29T09:32:20.0000000+00:00</time></trkpt><trkpt lat="34.9077354" lon="32.835178"><ele>1279.9</ele><time>2015-04-29T09:32:21.0000000+00:00</time></trkpt><trkpt lat="34.90768" lon="32.8351506"><ele>1279.8</ele><time>2015-04-29T09:32:22.0000000+00:00</time></trkpt><trkpt lat="34.9076273" lon="32.8351197"><ele>1279.8</ele><time>2015-04-29T09:32:23.0000000+00:00</time></trkpt><trkpt lat="34.907578" lon="32.8350754"><ele>1279.3</ele><time>2015-04-29T09:32:24.0000000+00:00</time></trkpt><trkpt lat="34.907543" lon="32.8350279"><ele>1278.0</ele><time>2015-04-29T09:32:25.0000000+00:00</time></trkpt><trkpt lat="34.9075093" lon="32.8349696"><ele>1276.4</ele><time>2015-04-29T09:32:26.0000000+00:00</time></trkpt><trkpt lat="34.9074789" lon="32.8349208"><ele>1275.6</ele><time>2015-04-29T09:32:27.0000000+00:00</time></trkpt><trkpt lat="34.907458" lon="32.8348623"><ele>1275.2</ele><time>2015-04-29T09:32:28.0000000+00:00</time></trkpt><trkpt lat="34.9074532" lon="32.8348057"><ele>1274.5</ele><time>2015-04-29T09:32:29.0000000+00:00</time></trkpt><trkpt lat="34.907448" lon="32.8347406"><ele>1274.6</ele><time>2015-04-29T09:32:30.0000000+00:00</time></trkpt><trkpt lat="34.9074362" lon="32.8346675"><ele>1274.2</ele><time>2015-04-29T09:32:31.0000000+00:00</time></trkpt><trkpt lat="34.9074175" lon="32.8345896"><ele>1274.0</ele><time>2015-04-29T09:32:32.0000000+00:00</time></trkpt><trkpt lat="34.9073967" lon="32.8345095"><ele>1273.4</ele><time>2015-04-29T09:32:33.0000000+00:00</time></trkpt><trkpt lat="34.907389" lon="32.8344214"><ele>1272.6</ele><time>2015-04-29T09:32:34.0000000+00:00</time></trkpt><trkpt lat="34.9073918" lon="32.834345"><ele>1272.2</ele><time>2015-04-29T09:32:35.0000000+00:00</time></trkpt><trkpt lat="34.9074075" lon="32.8342634"><ele>1272.0</ele><time>2015-04-29T09:32:36.0000000+00:00</time></trkpt><trkpt lat="34.9074301" lon="32.8341875"><ele>1271.4</ele><time>2015-04-29T09:32:37.0000000+00:00</time></trkpt><trkpt lat="34.9074473" lon="32.8341082"><ele>1270.6</ele><time>2015-04-29T09:32:38.0000000+00:00</time></trkpt><trkpt lat="34.9074744" lon="32.8340439"><ele>1269.2</ele><time>2015-04-29T09:32:39.0000000+00:00</time></trkpt><trkpt lat="34.9074864" lon="32.8339891"><ele>1268.0</ele><time>2015-04-29T09:32:40.0000000+00:00</time></trkpt><trkpt lat="34.9074934" lon="32.8338902"><ele>1267.8</ele><time>2015-04-29T09:32:42.0000000+00:00</time></trkpt><trkpt lat="34.907481" lon="32.8337741"><ele>1267.0</ele><time>2015-04-29T09:32:44.0000000+00:00</time></trkpt><trkpt lat="34.9074753" lon="32.8337127"><ele>1266.4</ele><time>2015-04-29T09:32:45.0000000+00:00</time></trkpt><trkpt lat="34.9074618" lon="32.8336472"><ele>1265.6</ele><time>2015-04-29T09:32:46.0000000+00:00</time></trkpt><trkpt lat="34.9074352" lon="32.8335734"><ele>1264.7</ele><time>2015-04-29T09:32:47.0000000+00:00</time></trkpt><trkpt lat="34.907397" lon="32.8335018"><ele>1263.7</ele><time>2015-04-29T09:32:48.0000000+00:00</time></trkpt><trkpt lat="34.9073568" lon="32.8334409"><ele>1262.7</ele><time>2015-04-29T09:32:49.0000000+00:00</time></trkpt><trkpt lat="34.9073101" lon="32.8333938"><ele>1262.3</ele><time>2015-04-29T09:32:50.0000000+00:00</time></trkpt><trkpt lat="34.9072676" lon="32.833332"><ele>1262.0</ele><time>2015-04-29T09:32:51.0000000+00:00</time></trkpt><trkpt lat="34.9072434" lon="32.8332723"><ele>1261.9</ele><time>2015-04-29T09:32:52.0000000+00:00</time></trkpt><trkpt lat="34.9072318" lon="32.833208"><ele>1261.3</ele><time>2015-04-29T09:32:53.0000000+00:00</time></trkpt><trkpt lat="34.9072304" lon="32.8331376"><ele>1261.0</ele><time>2015-04-29T09:32:54.0000000+00:00</time></trkpt><trkpt lat="34.9072341" lon="32.8330692"><ele>1260.4</ele><time>2015-04-29T09:32:55.0000000+00:00</time></trkpt><trkpt lat="34.9072588" lon="32.8330035"><ele>1259.6</ele><time>2015-04-29T09:32:56.0000000+00:00</time></trkpt><trkpt lat="34.9072956" lon="32.8329458"><ele>1259.2</ele><time>2015-04-29T09:32:57.0000000+00:00</time></trkpt><trkpt lat="34.907324" lon="32.8328845"><ele>1259.0</ele><time>2015-04-29T09:32:58.0000000+00:00</time></trkpt><trkpt lat="34.9073386" lon="32.8328188"><ele>1258.4</ele><time>2015-04-29T09:32:59.0000000+00:00</time></trkpt><trkpt lat="34.9073345" lon="32.8327384"><ele>1258.1</ele><time>2015-04-29T09:33:00.0000000+00:00</time></trkpt><trkpt lat="34.9073243" lon="32.8326759"><ele>1257.9</ele><time>2015-04-29T09:33:01.0000000+00:00</time></trkpt><trkpt lat="34.9072655" lon="32.8325988"><ele>1256.8</ele><time>2015-04-29T09:33:03.0000000+00:00</time></trkpt><trkpt lat="34.9071885" lon="32.8325586"><ele>1256.3</ele><time>2015-04-29T09:33:04.0000000+00:00</time></trkpt><trkpt lat="34.9071386" lon="32.8325183"><ele>1255.0</ele><time>2015-04-29T09:33:05.0000000+00:00</time></trkpt><trkpt lat="34.9070752" lon="32.832484"><ele>1254.4</ele><time>2015-04-29T09:33:06.0000000+00:00</time></trkpt><trkpt lat="34.907021" lon="32.8324645"><ele>1253.6</ele><time>2015-04-29T09:33:07.0000000+00:00</time></trkpt><trkpt lat="34.9069298" lon="32.8324138"><ele>1253.2</ele><time>2015-04-29T09:33:09.0000000+00:00</time></trkpt><trkpt lat="34.9068856" lon="32.8323867"><ele>1253.5</ele><time>2015-04-29T09:33:10.0000000+00:00</time></trkpt><trkpt lat="34.9068464" lon="32.8323533"><ele>1253.1</ele><time>2015-04-29T09:33:11.0000000+00:00</time></trkpt><trkpt lat="34.906828" lon="32.8322808"><ele>1253.1</ele><time>2015-04-29T09:33:13.0000000+00:00</time></trkpt><trkpt lat="34.906841" lon="32.8322018"><ele>1249.8</ele><time>2015-04-29T09:33:17.0000000+00:00</time></trkpt><trkpt lat="34.9068856" lon="32.8321602"><ele>1249.1</ele><time>2015-04-29T09:33:21.0000000+00:00</time></trkpt><trkpt lat="34.9069477" lon="32.8320964"><ele>1247.2</ele><time>2015-04-29T09:33:24.0000000+00:00</time></trkpt><trkpt lat="34.907007" lon="32.8320266"><ele>1246.6</ele><time>2015-04-29T09:33:26.0000000+00:00</time></trkpt><trkpt lat="34.9070654" lon="32.8319437"><ele>1245.0</ele><time>2015-04-29T09:33:28.0000000+00:00</time></trkpt><trkpt lat="34.9071208" lon="32.8318602"><ele>1243.3</ele><time>2015-04-29T09:33:30.0000000+00:00</time></trkpt><trkpt lat="34.9071878" lon="32.8318041"><ele>1241.7</ele><time>2015-04-29T09:33:32.0000000+00:00</time></trkpt><trkpt lat="34.9072659" lon="32.8317912"><ele>1241.0</ele><time>2015-04-29T09:33:34.0000000+00:00</time></trkpt><trkpt lat="34.9073335" lon="32.8317936"><ele>1241.3</ele><time>2015-04-29T09:33:36.0000000+00:00</time></trkpt><trkpt lat="34.9073921" lon="32.8317843"><ele>1241.6</ele><time>2015-04-29T09:33:39.0000000+00:00</time></trkpt><trkpt lat="34.9074411" lon="32.8317599"><ele>1241.4</ele><time>2015-04-29T09:33:42.0000000+00:00</time></trkpt><trkpt lat="34.9074909" lon="32.8317318"><ele>1243.1</ele><time>2015-04-29T09:33:45.0000000+00:00</time></trkpt><trkpt lat="34.907536" lon="32.8316938"><ele>1241.9</ele><time>2015-04-29T09:33:49.0000000+00:00</time></trkpt><trkpt lat="34.9075823" lon="32.8316625"><ele>1239.5</ele><time>2015-04-29T09:33:53.0000000+00:00</time></trkpt><trkpt lat="34.9076223" lon="32.8316148"><ele>1238.9</ele><time>2015-04-29T09:33:56.0000000+00:00</time></trkpt><trkpt lat="34.9077008" lon="32.8315328"><ele>1237.5</ele><time>2015-04-29T09:33:58.0000000+00:00</time></trkpt><trkpt lat="34.9077411" lon="32.8314975"><ele>1237.7</ele><time>2015-04-29T09:33:59.0000000+00:00</time></trkpt><trkpt lat="34.907783" lon="32.8314648"><ele>1237.7</ele><time>2015-04-29T09:34:00.0000000+00:00</time></trkpt><trkpt lat="34.9078232" lon="32.8314287"><ele>1238.2</ele><time>2015-04-29T09:34:01.0000000+00:00</time></trkpt><trkpt lat="34.9078672" lon="32.8314009"><ele>1238.0</ele><time>2015-04-29T09:34:02.0000000+00:00</time></trkpt><trkpt lat="34.9079209" lon="32.8313682"><ele>1237.9</ele><time>2015-04-29T09:34:03.0000000+00:00</time></trkpt><trkpt lat="34.9079865" lon="32.8313441"><ele>1236.8</ele><time>2015-04-29T09:34:04.0000000+00:00</time></trkpt><trkpt lat="34.9080531" lon="32.8313268"><ele>1235.8</ele><time>2015-04-29T09:34:05.0000000+00:00</time></trkpt><trkpt lat="34.9081192" lon="32.8312982"><ele>1235.8</ele><time>2015-04-29T09:34:06.0000000+00:00</time></trkpt><trkpt lat="34.9081798" lon="32.831282"><ele>1235.3</ele><time>2015-04-29T09:34:07.0000000+00:00</time></trkpt><trkpt lat="34.9082478" lon="32.8312826"><ele>1234.5</ele><time>2015-04-29T09:34:08.0000000+00:00</time></trkpt><trkpt lat="34.9083025" lon="32.8312723"><ele>1233.6</ele><time>2015-04-29T09:34:09.0000000+00:00</time></trkpt><trkpt lat="34.9083559" lon="32.8312578"><ele>1233.2</ele><time>2015-04-29T09:34:10.0000000+00:00</time></trkpt><trkpt lat="34.9084293" lon="32.8312373"><ele>1232.6</ele><time>2015-04-29T09:34:12.0000000+00:00</time></trkpt><trkpt lat="34.9084777" lon="32.8311675"><ele>1233.0</ele><time>2015-04-29T09:34:14.0000000+00:00</time></trkpt><trkpt lat="34.9085131" lon="32.831086"><ele>1231.1</ele><time>2015-04-29T09:34:16.0000000+00:00</time></trkpt><trkpt lat="34.9084783" lon="32.8309818"><ele>1230.1</ele><time>2015-04-29T09:34:18.0000000+00:00</time></trkpt><trkpt lat="34.9084445" lon="32.8309355"><ele>1229.9</ele><time>2015-04-29T09:34:19.0000000+00:00</time></trkpt><trkpt lat="34.9083985" lon="32.8308894"><ele>1229.8</ele><time>2015-04-29T09:34:20.0000000+00:00</time></trkpt><trkpt lat="34.9083466" lon="32.8308492"><ele>1229.8</ele><time>2015-04-29T09:34:21.0000000+00:00</time></trkpt><trkpt lat="34.9082951" lon="32.830812"><ele>1229.3</ele><time>2015-04-29T09:34:22.0000000+00:00</time></trkpt><trkpt lat="34.9082478" lon="32.8307781"><ele>1228.5</ele><time>2015-04-29T09:34:23.0000000+00:00</time></trkpt><trkpt lat="34.9082035" lon="32.8307314"><ele>1227.6</ele><time>2015-04-29T09:34:24.0000000+00:00</time></trkpt><trkpt lat="34.9081619" lon="32.8306808"><ele>1226.7</ele><time>2015-04-29T09:34:25.0000000+00:00</time></trkpt><trkpt lat="34.9081208" lon="32.8306254"><ele>1225.7</ele><time>2015-04-29T09:34:26.0000000+00:00</time></trkpt><trkpt lat="34.9080897" lon="32.8305734"><ele>1225.2</ele><time>2015-04-29T09:34:27.0000000+00:00</time></trkpt><trkpt lat="34.9080504" lon="32.8305319"><ele>1225.5</ele><time>2015-04-29T09:34:28.0000000+00:00</time></trkpt><trkpt lat="34.908014" lon="32.8304426"><ele>1225.0</ele><time>2015-04-29T09:34:30.0000000+00:00</time></trkpt><trkpt lat="34.9079977" lon="32.8303479"><ele>1223.6</ele><time>2015-04-29T09:34:32.0000000+00:00</time></trkpt><trkpt lat="34.9079992" lon="32.830253"><ele>1223.0</ele><time>2015-04-29T09:34:34.0000000+00:00</time></trkpt><trkpt lat="34.9080261" lon="32.830168"><ele>1221.6</ele><time>2015-04-29T09:34:36.0000000+00:00</time></trkpt><trkpt lat="34.9080571" lon="32.8300663"><ele>1219.7</ele><time>2015-04-29T09:34:38.0000000+00:00</time></trkpt><trkpt lat="34.9080765" lon="32.8300034"><ele>1219.2</ele><time>2015-04-29T09:34:39.0000000+00:00</time></trkpt><trkpt lat="34.9080952" lon="32.829934"><ele>1219.0</ele><time>2015-04-29T09:34:40.0000000+00:00</time></trkpt><trkpt lat="34.9081283" lon="32.8298566"><ele>1218.9</ele><time>2015-04-29T09:34:41.0000000+00:00</time></trkpt><trkpt lat="34.9081724" lon="32.8297753"><ele>1217.8</ele><time>2015-04-29T09:34:42.0000000+00:00</time></trkpt><trkpt lat="34.9082114" lon="32.8297006"><ele>1217.3</ele><time>2015-04-29T09:34:43.0000000+00:00</time></trkpt><trkpt lat="34.9082607" lon="32.8296198"><ele>1216.5</ele><time>2015-04-29T09:34:44.0000000+00:00</time></trkpt><trkpt lat="34.908315" lon="32.8295356"><ele>1216.1</ele><time>2015-04-29T09:34:45.0000000+00:00</time></trkpt><trkpt lat="34.9083724" lon="32.829452"><ele>1215.5</ele><time>2015-04-29T09:34:46.0000000+00:00</time></trkpt><trkpt lat="34.90843" lon="32.8293595"><ele>1215.1</ele><time>2015-04-29T09:34:47.0000000+00:00</time></trkpt><trkpt lat="34.9084908" lon="32.8292652"><ele>1214.4</ele><time>2015-04-29T09:34:48.0000000+00:00</time></trkpt><trkpt lat="34.908543" lon="32.829191"><ele>1213.1</ele><time>2015-04-29T09:34:49.0000000+00:00</time></trkpt><trkpt lat="34.9085844" lon="32.8291162"><ele>1212.4</ele><time>2015-04-29T09:34:50.0000000+00:00</time></trkpt><trkpt lat="34.9086134" lon="32.8290491"><ele>1211.6</ele><time>2015-04-29T09:34:51.0000000+00:00</time></trkpt><trkpt lat="34.9086202" lon="32.8289837"><ele>1211.2</ele><time>2015-04-29T09:34:52.0000000+00:00</time></trkpt><trkpt lat="34.9086131" lon="32.8289243"><ele>1211.0</ele><time>2015-04-29T09:34:53.0000000+00:00</time></trkpt><trkpt lat="34.9085889" lon="32.8288645"><ele>1210.4</ele><time>2015-04-29T09:34:54.0000000+00:00</time></trkpt><trkpt lat="34.9085409" lon="32.8288273"><ele>1210.1</ele><time>2015-04-29T09:34:55.0000000+00:00</time></trkpt><trkpt lat="34.9084816" lon="32.8288024"><ele>1209.9</ele><time>2015-04-29T09:34:56.0000000+00:00</time></trkpt><trkpt lat="34.908431" lon="32.8287797"><ele>1209.3</ele><time>2015-04-29T09:34:57.0000000+00:00</time></trkpt><trkpt lat="34.9083783" lon="32.8287425"><ele>1208.6</ele><time>2015-04-29T09:34:58.0000000+00:00</time></trkpt><trkpt lat="34.9083392" lon="32.8287004"><ele>1208.2</ele><time>2015-04-29T09:34:59.0000000+00:00</time></trkpt><trkpt lat="34.9083092" lon="32.8286448"><ele>1208.5</ele><time>2015-04-29T09:35:00.0000000+00:00</time></trkpt><trkpt lat="34.9083018" lon="32.828589"><ele>1208.1</ele><time>2015-04-29T09:35:01.0000000+00:00</time></trkpt><trkpt lat="34.9082976" lon="32.828531"><ele>1207.9</ele><time>2015-04-29T09:35:02.0000000+00:00</time></trkpt><trkpt lat="34.9083011" lon="32.8284445"><ele>1207.1</ele><time>2015-04-29T09:35:04.0000000+00:00</time></trkpt><trkpt lat="34.908271" lon="32.828399"><ele>1206.1</ele><time>2015-04-29T09:35:07.0000000+00:00</time></trkpt><trkpt lat="34.9082258" lon="32.8283901"><ele>1205.9</ele><time>2015-04-29T09:35:10.0000000+00:00</time></trkpt><trkpt lat="34.9082152" lon="32.8284502"><ele>1205.3</ele><time>2015-04-29T09:35:17.0000000+00:00</time></trkpt><trkpt lat="34.9081994" lon="32.8285104"><ele>1203.2</ele><time>2015-04-29T09:35:20.0000000+00:00</time></trkpt><trkpt lat="34.908182" lon="32.8286067"><ele>1202.4</ele><time>2015-04-29T09:35:22.0000000+00:00</time></trkpt><trkpt lat="34.9081771" lon="32.8287092"><ele>1202.4</ele><time>2015-04-29T09:35:24.0000000+00:00</time></trkpt><trkpt lat="34.9081965" lon="32.8287946"><ele>1201.9</ele><time>2015-04-29T09:35:26.0000000+00:00</time></trkpt><trkpt lat="34.9082325" lon="32.8288653"><ele>1200.8</ele><time>2015-04-29T09:35:28.0000000+00:00</time></trkpt><trkpt lat="34.9082707" lon="32.8289411"><ele>1200.0</ele><time>2015-04-29T09:35:30.0000000+00:00</time></trkpt><trkpt lat="34.9082775" lon="32.8290298"><ele>1199.1</ele><time>2015-04-29T09:35:32.0000000+00:00</time></trkpt><trkpt lat="34.9082411" lon="32.8291151"><ele>1197.6</ele><time>2015-04-29T09:35:34.0000000+00:00</time></trkpt><trkpt lat="34.9081441" lon="32.8292158"><ele>1197.2</ele><time>2015-04-29T09:35:36.0000000+00:00</time></trkpt><trkpt lat="34.9080867" lon="32.8293081"><ele>1194.9</ele><time>2015-04-29T09:35:38.0000000+00:00</time></trkpt><trkpt lat="34.9080137" lon="32.8293791"><ele>1192.8</ele><time>2015-04-29T09:35:40.0000000+00:00</time></trkpt><trkpt lat="34.907976" lon="32.8294138"><ele>1192.8</ele><time>2015-04-29T09:35:41.0000000+00:00</time></trkpt><trkpt lat="34.9079179" lon="32.8294862"><ele>1192.8</ele><time>2015-04-29T09:35:43.0000000+00:00</time></trkpt><trkpt lat="34.9078715" lon="32.8295679"><ele>1192.8</ele><time>2015-04-29T09:35:45.0000000+00:00</time></trkpt><trkpt lat="34.9078456" lon="32.8296144"><ele>1191.8</ele><time>2015-04-29T09:35:46.0000000+00:00</time></trkpt><trkpt lat="34.9078122" lon="32.8296598"><ele>1190.8</ele><time>2015-04-29T09:35:47.0000000+00:00</time></trkpt><trkpt lat="34.9077663" lon="32.829712"><ele>1190.8</ele><time>2015-04-29T09:35:48.0000000+00:00</time></trkpt><trkpt lat="34.9077096" lon="32.8297531"><ele>1189.8</ele><time>2015-04-29T09:35:49.0000000+00:00</time></trkpt><trkpt lat="34.9076543" lon="32.8298081"><ele>1188.8</ele><time>2015-04-29T09:35:50.0000000+00:00</time></trkpt><trkpt lat="34.9076004" lon="32.8298475"><ele>1187.8</ele><time>2015-04-29T09:35:51.0000000+00:00</time></trkpt><trkpt lat="34.9075543" lon="32.8298856"><ele>1186.8</ele><time>2015-04-29T09:35:52.0000000+00:00</time></trkpt><trkpt lat="34.9075132" lon="32.8299233"><ele>1185.3</ele><time>2015-04-29T09:35:53.0000000+00:00</time></trkpt><trkpt lat="34.9074914" lon="32.8300265"><ele>1182.4</ele><time>2015-04-29T09:35:55.0000000+00:00</time></trkpt><trkpt lat="34.9074837" lon="32.8300831"><ele>1181.6</ele><time>2015-04-29T09:35:56.0000000+00:00</time></trkpt><trkpt lat="34.9074848" lon="32.8301443"><ele>1180.7</ele><time>2015-04-29T09:35:57.0000000+00:00</time></trkpt><trkpt lat="34.9074811" lon="32.8302456"><ele>1180.2</ele><time>2015-04-29T09:35:59.0000000+00:00</time></trkpt><trkpt lat="34.9074595" lon="32.8303416"><ele>1180.4</ele><time>2015-04-29T09:36:01.0000000+00:00</time></trkpt><trkpt lat="34.907428" lon="32.830415"><ele>1180.7</ele><time>2015-04-29T09:36:03.0000000+00:00</time></trkpt><trkpt lat="34.9073717" lon="32.8304352"><ele>1181.0</ele><time>2015-04-29T09:36:05.0000000+00:00</time></trkpt><trkpt lat="34.907286" lon="32.8304362"><ele>1180.8</ele><time>2015-04-29T09:36:07.0000000+00:00</time></trkpt><trkpt lat="34.9072309" lon="32.8304194"><ele>1180.3</ele><time>2015-04-29T09:36:08.0000000+00:00</time></trkpt><trkpt lat="34.9071784" lon="32.8303966"><ele>1180.5</ele><time>2015-04-29T09:36:09.0000000+00:00</time></trkpt><trkpt lat="34.9071264" lon="32.8303802"><ele>1180.6</ele><time>2015-04-29T09:36:10.0000000+00:00</time></trkpt><trkpt lat="34.9070746" lon="32.8303684"><ele>1180.2</ele><time>2015-04-29T09:36:11.0000000+00:00</time></trkpt><trkpt lat="34.9069894" lon="32.8303668"><ele>1179.9</ele><time>2015-04-29T09:36:13.0000000+00:00</time></trkpt><trkpt lat="34.906918" lon="32.8303895"><ele>1178.5</ele><time>2015-04-29T09:36:15.0000000+00:00</time></trkpt><trkpt lat="34.9068378" lon="32.830402"><ele>1177.7</ele><time>2015-04-29T09:36:17.0000000+00:00</time></trkpt><trkpt lat="34.90679" lon="32.83041"><ele>1177.7</ele><time>2015-04-29T09:36:18.0000000+00:00</time></trkpt><trkpt lat="34.9067308" lon="32.8304345"><ele>1177.8</ele><time>2015-04-29T09:36:19.0000000+00:00</time></trkpt><trkpt lat="34.9066705" lon="32.8304562"><ele>1177.3</ele><time>2015-04-29T09:36:20.0000000+00:00</time></trkpt><trkpt lat="34.9066178" lon="32.8304663"><ele>1178.0</ele><time>2015-04-29T09:36:21.0000000+00:00</time></trkpt><trkpt lat="34.906551" lon="32.8305061"><ele>1176.9</ele><time>2015-04-29T09:36:22.0000000+00:00</time></trkpt><trkpt lat="34.906503" lon="32.8304941"><ele>1176.3</ele><time>2015-04-29T09:36:23.0000000+00:00</time></trkpt><trkpt lat="34.90641" lon="32.8304551"><ele>1173.2</ele><time>2015-04-29T09:36:25.0000000+00:00</time></trkpt><trkpt lat="34.9063687" lon="32.8304059"><ele>1172.0</ele><time>2015-04-29T09:36:26.0000000+00:00</time></trkpt><trkpt lat="34.9063098" lon="32.8303415"><ele>1170.9</ele><time>2015-04-29T09:36:27.0000000+00:00</time></trkpt><trkpt lat="34.9062401" lon="32.8302817"><ele>1169.8</ele><time>2015-04-29T09:36:28.0000000+00:00</time></trkpt><trkpt lat="34.906183" lon="32.8302169"><ele>1169.3</ele><time>2015-04-29T09:36:29.0000000+00:00</time></trkpt><trkpt lat="34.9061061" lon="32.8301606"><ele>1169.5</ele><time>2015-04-29T09:36:30.0000000+00:00</time></trkpt><trkpt lat="34.906017" lon="32.8301008"><ele>1169.1</ele><time>2015-04-29T09:36:31.0000000+00:00</time></trkpt><trkpt lat="34.905937" lon="32.830048"><ele>1169.5</ele><time>2015-04-29T09:36:32.0000000+00:00</time></trkpt><trkpt lat="34.9058693" lon="32.8299973"><ele>1168.6</ele><time>2015-04-29T09:36:33.0000000+00:00</time></trkpt><trkpt lat="34.9058121" lon="32.8299481"><ele>1167.7</ele><time>2015-04-29T09:36:34.0000000+00:00</time></trkpt><trkpt lat="34.9057754" lon="32.8298857"><ele>1166.2</ele><time>2015-04-29T09:36:35.0000000+00:00</time></trkpt><trkpt lat="34.9057259" lon="32.8298255"><ele>1164.5</ele><time>2015-04-29T09:36:36.0000000+00:00</time></trkpt><trkpt lat="34.9056859" lon="32.8297742"><ele>1163.1</ele><time>2015-04-29T09:36:37.0000000+00:00</time></trkpt><trkpt lat="34.9056109" lon="32.829725"><ele>1161.9</ele><time>2015-04-29T09:36:39.0000000+00:00</time></trkpt><trkpt lat="34.9055561" lon="32.8297256"><ele>1160.5</ele><time>2015-04-29T09:36:41.0000000+00:00</time></trkpt><trkpt lat="34.9055284" lon="32.8297921"><ele>1160.0</ele><time>2015-04-29T09:36:43.0000000+00:00</time></trkpt><trkpt lat="34.905488" lon="32.8299012"><ele>1159.6</ele><time>2015-04-29T09:36:45.0000000+00:00</time></trkpt><trkpt lat="34.9054623" lon="32.829969"><ele>1159.2</ele><time>2015-04-29T09:36:46.0000000+00:00</time></trkpt><trkpt lat="34.9054302" lon="32.8300408"><ele>1158.5</ele><time>2015-04-29T09:36:47.0000000+00:00</time></trkpt><trkpt lat="34.9054065" lon="32.8301109"><ele>1157.6</ele><time>2015-04-29T09:36:48.0000000+00:00</time></trkpt><trkpt lat="34.9053728" lon="32.8301844"><ele>1156.2</ele><time>2015-04-29T09:36:49.0000000+00:00</time></trkpt><trkpt lat="34.9053427" lon="32.8302443"><ele>1155.0</ele><time>2015-04-29T09:36:50.0000000+00:00</time></trkpt><trkpt lat="34.9053123" lon="32.8302874"><ele>1153.9</ele><time>2015-04-29T09:36:51.0000000+00:00</time></trkpt><trkpt lat="34.9052743" lon="32.8303438"><ele>1152.8</ele><time>2015-04-29T09:36:52.0000000+00:00</time></trkpt><trkpt lat="34.905233" lon="32.8303947"><ele>1151.8</ele><time>2015-04-29T09:36:53.0000000+00:00</time></trkpt><trkpt lat="34.9051923" lon="32.83043"><ele>1150.8</ele><time>2015-04-29T09:36:54.0000000+00:00</time></trkpt><trkpt lat="34.9051373" lon="32.8304534"><ele>1149.8</ele><time>2015-04-29T09:36:55.0000000+00:00</time></trkpt><trkpt lat="34.9050672" lon="32.8304775"><ele>1148.8</ele><time>2015-04-29T09:36:56.0000000+00:00</time></trkpt><trkpt lat="34.9050037" lon="32.8304971"><ele>1147.3</ele><time>2015-04-29T09:36:57.0000000+00:00</time></trkpt><trkpt lat="34.9049425" lon="32.8305171"><ele>1147.0</ele><time>2015-04-29T09:36:58.0000000+00:00</time></trkpt><trkpt lat="34.9048811" lon="32.8305436"><ele>1145.9</ele><time>2015-04-29T09:36:59.0000000+00:00</time></trkpt><trkpt lat="34.9048099" lon="32.83057"><ele>1145.8</ele><time>2015-04-29T09:37:00.0000000+00:00</time></trkpt><trkpt lat="34.9047483" lon="32.8305999"><ele>1145.3</ele><time>2015-04-29T09:37:01.0000000+00:00</time></trkpt><trkpt lat="34.904685" lon="32.8306358"><ele>1145.0</ele><time>2015-04-29T09:37:02.0000000+00:00</time></trkpt><trkpt lat="34.9046381" lon="32.8306809"><ele>1144.4</ele><time>2015-04-29T09:37:03.0000000+00:00</time></trkpt><trkpt lat="34.9045898" lon="32.8307288"><ele>1144.6</ele><time>2015-04-29T09:37:04.0000000+00:00</time></trkpt><trkpt lat="34.9045518" lon="32.8308057"><ele>1143.7</ele><time>2015-04-29T09:37:05.0000000+00:00</time></trkpt><trkpt lat="34.9045327" lon="32.8308843"><ele>1142.2</ele><time>2015-04-29T09:37:06.0000000+00:00</time></trkpt><trkpt lat="34.9045116" lon="32.830956"><ele>1141.5</ele><time>2015-04-29T09:37:07.0000000+00:00</time></trkpt><trkpt lat="34.9044946" lon="32.8310448"><ele>1141.1</ele><time>2015-04-29T09:37:08.0000000+00:00</time></trkpt><trkpt lat="34.9044824" lon="32.8311291"><ele>1140.9</ele><time>2015-04-29T09:37:09.0000000+00:00</time></trkpt><trkpt lat="34.904447" lon="32.8312089"><ele>1141.4</ele><time>2015-04-29T09:37:10.0000000+00:00</time></trkpt><trkpt lat="34.904397" lon="32.8312777"><ele>1140.6</ele><time>2015-04-29T09:37:11.0000000+00:00</time></trkpt><trkpt lat="34.9043465" lon="32.8313348"><ele>1140.7</ele><time>2015-04-29T09:37:12.0000000+00:00</time></trkpt><trkpt lat="34.9042843" lon="32.8313693"><ele>1140.7</ele><time>2015-04-29T09:37:13.0000000+00:00</time></trkpt><trkpt lat="34.9042343" lon="32.8314098"><ele>1140.7</ele><time>2015-04-29T09:37:14.0000000+00:00</time></trkpt><trkpt lat="34.9041931" lon="32.8314494"><ele>1140.8</ele><time>2015-04-29T09:37:15.0000000+00:00</time></trkpt><trkpt lat="34.9041558" lon="32.8314816"><ele>1140.3</ele><time>2015-04-29T09:37:16.0000000+00:00</time></trkpt><trkpt lat="34.9041252" lon="32.8315305"><ele>1140.0</ele><time>2015-04-29T09:37:17.0000000+00:00</time></trkpt><trkpt lat="34.904109" lon="32.8315928"><ele>1139.4</ele><time>2015-04-29T09:37:18.0000000+00:00</time></trkpt><trkpt lat="34.904086" lon="32.8316554"><ele>1138.1</ele><time>2015-04-29T09:37:19.0000000+00:00</time></trkpt><trkpt lat="34.9040679" lon="32.8317227"><ele>1137.4</ele><time>2015-04-29T09:37:20.0000000+00:00</time></trkpt><trkpt lat="34.9040413" lon="32.8317955"><ele>1137.1</ele><time>2015-04-29T09:37:21.0000000+00:00</time></trkpt><trkpt lat="34.9040244" lon="32.8318569"><ele>1137.4</ele><time>2015-04-29T09:37:22.0000000+00:00</time></trkpt><trkpt lat="34.9040257" lon="32.8319752"><ele>1137.2</ele><time>2015-04-29T09:37:24.0000000+00:00</time></trkpt><trkpt lat="34.9040421" lon="32.832033"><ele>1137.0</ele><time>2015-04-29T09:37:25.0000000+00:00</time></trkpt><trkpt lat="34.9040681" lon="32.83209"><ele>1136.4</ele><time>2015-04-29T09:37:26.0000000+00:00</time></trkpt><trkpt lat="34.9041004" lon="32.8321542"><ele>1136.1</ele><time>2015-04-29T09:37:27.0000000+00:00</time></trkpt><trkpt lat="34.9041341" lon="32.8322373"><ele>1135.4</ele><time>2015-04-29T09:37:28.0000000+00:00</time></trkpt><trkpt lat="34.9041682" lon="32.8323111"><ele>1134.6</ele><time>2015-04-29T09:37:29.0000000+00:00</time></trkpt><trkpt lat="34.9041953" lon="32.8323754"><ele>1133.7</ele><time>2015-04-29T09:37:30.0000000+00:00</time></trkpt><trkpt lat="34.9042242" lon="32.832435"><ele>1133.2</ele><time>2015-04-29T09:37:31.0000000+00:00</time></trkpt><trkpt lat="34.9042385" lon="32.8325032"><ele>1133.5</ele><time>2015-04-29T09:37:32.0000000+00:00</time></trkpt><trkpt lat="34.9042447" lon="32.8325904"><ele>1133.1</ele><time>2015-04-29T09:37:33.0000000+00:00</time></trkpt><trkpt lat="34.9042505" lon="32.8326722"><ele>1132.4</ele><time>2015-04-29T09:37:34.0000000+00:00</time></trkpt><trkpt lat="34.9042602" lon="32.8327621"><ele>1132.1</ele><time>2015-04-29T09:37:35.0000000+00:00</time></trkpt><trkpt lat="34.9042819" lon="32.8328253"><ele>1131.4</ele><time>2015-04-29T09:37:36.0000000+00:00</time></trkpt><trkpt lat="34.9043035" lon="32.8328829"><ele>1130.6</ele><time>2015-04-29T09:37:37.0000000+00:00</time></trkpt><trkpt lat="34.9043382" lon="32.8329254"><ele>1130.2</ele><time>2015-04-29T09:37:38.0000000+00:00</time></trkpt><trkpt lat="34.9044084" lon="32.8329913"><ele>1130.1</ele><time>2015-04-29T09:37:40.0000000+00:00</time></trkpt><trkpt lat="34.9044427" lon="32.8330696"><ele>1128.4</ele><time>2015-04-29T09:37:42.0000000+00:00</time></trkpt><trkpt lat="34.904439" lon="32.8331811"><ele>1126.7</ele><time>2015-04-29T09:37:44.0000000+00:00</time></trkpt><trkpt lat="34.9044253" lon="32.8332339"><ele>1126.7</ele><time>2015-04-29T09:37:45.0000000+00:00</time></trkpt><trkpt lat="34.9044338" lon="32.8333424"><ele>1126.8</ele><time>2015-04-29T09:37:47.0000000+00:00</time></trkpt><trkpt lat="34.9044471" lon="32.8334489"><ele>1126.0</ele><time>2015-04-29T09:37:49.0000000+00:00</time></trkpt><trkpt lat="34.904469" lon="32.833499"><ele>1125.9</ele><time>2015-04-29T09:37:50.0000000+00:00</time></trkpt><trkpt lat="34.9044937" lon="32.8335541"><ele>1126.3</ele><time>2015-04-29T09:37:51.0000000+00:00</time></trkpt><trkpt lat="34.9045213" lon="32.8336079"><ele>1126.5</ele><time>2015-04-29T09:37:52.0000000+00:00</time></trkpt><trkpt lat="34.9045492" lon="32.833662"><ele>1126.7</ele><time>2015-04-29T09:37:53.0000000+00:00</time></trkpt><trkpt lat="34.9045712" lon="32.8337206"><ele>1126.2</ele><time>2015-04-29T09:37:54.0000000+00:00</time></trkpt><trkpt lat="34.904578" lon="32.8337855"><ele>1126.5</ele><time>2015-04-29T09:37:55.0000000+00:00</time></trkpt><trkpt lat="34.9045688" lon="32.8338454"><ele>1126.6</ele><time>2015-04-29T09:37:56.0000000+00:00</time></trkpt><trkpt lat="34.9045597" lon="32.8339018"><ele>1126.7</ele><time>2015-04-29T09:37:57.0000000+00:00</time></trkpt><trkpt lat="34.9045606" lon="32.8340062"><ele>1126.5</ele><time>2015-04-29T09:37:59.0000000+00:00</time></trkpt><trkpt lat="34.9045564" lon="32.8340695"><ele>1126.1</ele><time>2015-04-29T09:38:00.0000000+00:00</time></trkpt><trkpt lat="34.9045574" lon="32.8341358"><ele>1126.4</ele><time>2015-04-29T09:38:01.0000000+00:00</time></trkpt><trkpt lat="34.9045469" lon="32.8341986"><ele>1126.7</ele><time>2015-04-29T09:38:03.0000000+00:00</time></trkpt><trkpt lat="34.9045001" lon="32.8342357"><ele>1126.9</ele><time>2015-04-29T09:38:07.0000000+00:00</time></trkpt><trkpt lat="34.9044955" lon="32.83418"><ele>1130.0</ele><time>2015-04-29T09:45:25.0000000+00:00</time></trkpt><trkpt lat="34.9045348" lon="32.8341382"><ele>1127.7</ele><time>2015-04-29T09:45:31.0000000+00:00</time></trkpt><trkpt lat="34.9045498" lon="32.8340695"><ele>1128.4</ele><time>2015-04-29T09:45:35.0000000+00:00</time></trkpt><trkpt lat="34.9045394" lon="32.833993"><ele>1128.4</ele><time>2015-04-29T09:45:37.0000000+00:00</time></trkpt><trkpt lat="34.9045318" lon="32.833914"><ele>1128.7</ele><time>2015-04-29T09:45:39.0000000+00:00</time></trkpt><trkpt lat="34.9045385" lon="32.8338351"><ele>1128.0</ele><time>2015-04-29T09:45:41.0000000+00:00</time></trkpt><trkpt lat="34.9045567" lon="32.833751"><ele>1126.6</ele><time>2015-04-29T09:45:43.0000000+00:00</time></trkpt><trkpt lat="34.9045581" lon="32.8336928"><ele>1126.2</ele><time>2015-04-29T09:45:44.0000000+00:00</time></trkpt><trkpt lat="34.9045351" lon="32.8336063"><ele>1125.6</ele><time>2015-04-29T09:45:46.0000000+00:00</time></trkpt><trkpt lat="34.9044971" lon="32.8335381"><ele>1126.2</ele><time>2015-04-29T09:45:48.0000000+00:00</time></trkpt><trkpt lat="34.9044578" lon="32.8334734"><ele>1126.6</ele><time>2015-04-29T09:45:50.0000000+00:00</time></trkpt><trkpt lat="34.9044206" lon="32.8334137"><ele>1127.5</ele><time>2015-04-29T09:45:52.0000000+00:00</time></trkpt><trkpt lat="34.9044011" lon="32.833362"><ele>1127.7</ele><time>2015-04-29T09:45:54.0000000+00:00</time></trkpt><trkpt lat="34.9043976" lon="32.8332887"><ele>1127.8</ele><time>2015-04-29T09:45:57.0000000+00:00</time></trkpt><trkpt lat="34.9044104" lon="32.8332176"><ele>1127.8</ele><time>2015-04-29T09:46:00.0000000+00:00</time></trkpt><trkpt lat="34.9044325" lon="32.8331466"><ele>1127.6</ele><time>2015-04-29T09:46:03.0000000+00:00</time></trkpt><trkpt lat="34.9044436" lon="32.8330663"><ele>1128.5</ele><time>2015-04-29T09:46:06.0000000+00:00</time></trkpt><trkpt lat="34.9044415" lon="32.833011"><ele>1128.2</ele><time>2015-04-29T09:46:08.0000000+00:00</time></trkpt><trkpt lat="34.9044019" lon="32.8329493"><ele>1130.1</ele><time>2015-04-29T09:46:11.0000000+00:00</time></trkpt><trkpt lat="34.9043521" lon="32.8329328"><ele>1130.8</ele><time>2015-04-29T09:46:13.0000000+00:00</time></trkpt><trkpt lat="34.9043078" lon="32.8329006"><ele>1130.8</ele><time>2015-04-29T09:46:15.0000000+00:00</time></trkpt><trkpt lat="34.9042779" lon="32.8328456"><ele>1129.5</ele><time>2015-04-29T09:46:17.0000000+00:00</time></trkpt><trkpt lat="34.9042697" lon="32.8327812"><ele>1128.5</ele><time>2015-04-29T09:46:19.0000000+00:00</time></trkpt><trkpt lat="34.9042664" lon="32.83271"><ele>1128.7</ele><time>2015-04-29T09:46:21.0000000+00:00</time></trkpt><trkpt lat="34.9042652" lon="32.8326386"><ele>1128.7</ele><time>2015-04-29T09:46:23.0000000+00:00</time></trkpt><trkpt lat="34.9042639" lon="32.8325716"><ele>1130.0</ele><time>2015-04-29T09:46:25.0000000+00:00</time></trkpt><trkpt lat="34.904256" lon="32.8325071"><ele>1130.8</ele><time>2015-04-29T09:46:27.0000000+00:00</time></trkpt><trkpt lat="34.9042478" lon="32.8324466"><ele>1131.5</ele><time>2015-04-29T09:46:29.0000000+00:00</time></trkpt><trkpt lat="34.9042376" lon="32.8323754"><ele>1131.0</ele><time>2015-04-29T09:46:32.0000000+00:00</time></trkpt><trkpt lat="34.9042242" lon="32.832306"><ele>1129.4</ele><time>2015-04-29T09:46:36.0000000+00:00</time></trkpt><trkpt lat="34.9042073" lon="32.8322509"><ele>1128.8</ele><time>2015-04-29T09:46:39.0000000+00:00</time></trkpt><trkpt lat="34.9041779" lon="32.8321948"><ele>1128.7</ele><time>2015-04-29T09:46:42.0000000+00:00</time></trkpt><trkpt lat="34.9041432" lon="32.8321384"><ele>1129.6</ele><time>2015-04-29T09:46:45.0000000+00:00</time></trkpt><trkpt lat="34.9041207" lon="32.8320719"><ele>1129.2</ele><time>2015-04-29T09:46:48.0000000+00:00</time></trkpt><trkpt lat="34.9041024" lon="32.8320057"><ele>1127.2</ele><time>2015-04-29T09:46:51.0000000+00:00</time></trkpt><trkpt lat="34.9040819" lon="32.831941"><ele>1127.6</ele><time>2015-04-29T09:46:54.0000000+00:00</time></trkpt><trkpt lat="34.9040708" lon="32.8318765"><ele>1129.0</ele><time>2015-04-29T09:46:57.0000000+00:00</time></trkpt><trkpt lat="34.9040756" lon="32.8318144"><ele>1130.4</ele><time>2015-04-29T09:47:00.0000000+00:00</time></trkpt><trkpt lat="34.904095" lon="32.8317519"><ele>1132.5</ele><time>2015-04-29T09:47:03.0000000+00:00</time></trkpt><trkpt lat="34.9041164" lon="32.8316844"><ele>1134.4</ele><time>2015-04-29T09:47:06.0000000+00:00</time></trkpt><trkpt lat="34.9041373" lon="32.8316195"><ele>1135.5</ele><time>2015-04-29T09:47:09.0000000+00:00</time></trkpt><trkpt lat="34.9041629" lon="32.8315567"><ele>1137.1</ele><time>2015-04-29T09:47:12.0000000+00:00</time></trkpt><trkpt lat="34.9041943" lon="32.8314877"><ele>1137.7</ele><time>2015-04-29T09:47:15.0000000+00:00</time></trkpt><trkpt lat="34.9042257" lon="32.8314478"><ele>1137.7</ele><time>2015-04-29T09:47:17.0000000+00:00</time></trkpt><trkpt lat="34.9042662" lon="32.8314171"><ele>1138.3</ele><time>2015-04-29T09:47:19.0000000+00:00</time></trkpt><trkpt lat="34.9043114" lon="32.8313856"><ele>1139.1</ele><time>2015-04-29T09:47:21.0000000+00:00</time></trkpt><trkpt lat="34.9043549" lon="32.8313552"><ele>1140.4</ele><time>2015-04-29T09:47:23.0000000+00:00</time></trkpt><trkpt lat="34.9044037" lon="32.8313257"><ele>1140.7</ele><time>2015-04-29T09:47:25.0000000+00:00</time></trkpt><trkpt lat="34.9044461" lon="32.8312805"><ele>1141.2</ele><time>2015-04-29T09:47:27.0000000+00:00</time></trkpt><trkpt lat="34.9044754" lon="32.8312217"><ele>1142.4</ele><time>2015-04-29T09:47:29.0000000+00:00</time></trkpt><trkpt lat="34.9044929" lon="32.8311588"><ele>1144.2</ele><time>2015-04-29T09:47:31.0000000+00:00</time></trkpt><trkpt lat="34.9045112" lon="32.831094"><ele>1142.6</ele><time>2015-04-29T09:47:33.0000000+00:00</time></trkpt><trkpt lat="34.9045223" lon="32.8310305"><ele>1142.5</ele><time>2015-04-29T09:47:35.0000000+00:00</time></trkpt><trkpt lat="34.9045318" lon="32.830968"><ele>1142.7</ele><time>2015-04-29T09:47:37.0000000+00:00</time></trkpt><trkpt lat="34.9045413" lon="32.8309104"><ele>1143.5</ele><time>2015-04-29T09:47:39.0000000+00:00</time></trkpt><trkpt lat="34.904551" lon="32.830855"><ele>1145.2</ele><time>2015-04-29T09:47:41.0000000+00:00</time></trkpt><trkpt lat="34.9045665" lon="32.8307754"><ele>1146.9</ele><time>2015-04-29T09:47:44.0000000+00:00</time></trkpt><trkpt lat="34.9045826" lon="32.830723"><ele>1147.6</ele><time>2015-04-29T09:47:46.0000000+00:00</time></trkpt><trkpt lat="34.9046144" lon="32.8306774"><ele>1147.5</ele><time>2015-04-29T09:47:48.0000000+00:00</time></trkpt><trkpt lat="34.904657" lon="32.8306453"><ele>1147.9</ele><time>2015-04-29T09:47:50.0000000+00:00</time></trkpt><trkpt lat="34.9047197" lon="32.8306231"><ele>1147.7</ele><time>2015-04-29T09:47:53.0000000+00:00</time></trkpt><trkpt lat="34.9047756" lon="32.830588"><ele>1149.0</ele><time>2015-04-29T09:47:56.0000000+00:00</time></trkpt><trkpt lat="34.9048271" lon="32.8305581"><ele>1148.4</ele><time>2015-04-29T09:47:59.0000000+00:00</time></trkpt><trkpt lat="34.9048816" lon="32.8305307"><ele>1148.6</ele><time>2015-04-29T09:48:02.0000000+00:00</time></trkpt><trkpt lat="34.9049231" lon="32.8305084"><ele>1148.7</ele><time>2015-04-29T09:48:04.0000000+00:00</time></trkpt><trkpt lat="34.9049674" lon="32.8304952"><ele>1149.3</ele><time>2015-04-29T09:48:06.0000000+00:00</time></trkpt><trkpt lat="34.9050328" lon="32.8304771"><ele>1150.1</ele><time>2015-04-29T09:48:09.0000000+00:00</time></trkpt><trkpt lat="34.905098" lon="32.8304665"><ele>1150.7</ele><time>2015-04-29T09:48:12.0000000+00:00</time></trkpt><trkpt lat="34.9051416" lon="32.8304518"><ele>1150.7</ele><time>2015-04-29T09:48:14.0000000+00:00</time></trkpt><trkpt lat="34.9052017" lon="32.8304296"><ele>1152.1</ele><time>2015-04-29T09:48:17.0000000+00:00</time></trkpt><trkpt lat="34.9052568" lon="32.8304011"><ele>1152.2</ele><time>2015-04-29T09:48:20.0000000+00:00</time></trkpt><trkpt lat="34.9052978" lon="32.8303571"><ele>1152.7</ele><time>2015-04-29T09:48:23.0000000+00:00</time></trkpt><trkpt lat="34.9053311" lon="32.8303023"><ele>1154.4</ele><time>2015-04-29T09:48:26.0000000+00:00</time></trkpt><trkpt lat="34.9053501" lon="32.830244"><ele>1155.8</ele><time>2015-04-29T09:48:29.0000000+00:00</time></trkpt><trkpt lat="34.9053695" lon="32.8301945"><ele>1155.3</ele><time>2015-04-29T09:48:32.0000000+00:00</time></trkpt><trkpt lat="34.9053952" lon="32.8301468"><ele>1156.1</ele><time>2015-04-29T09:48:35.0000000+00:00</time></trkpt><trkpt lat="34.9054215" lon="32.8300906"><ele>1156.7</ele><time>2015-04-29T09:48:38.0000000+00:00</time></trkpt><trkpt lat="34.9054468" lon="32.8300359"><ele>1157.5</ele><time>2015-04-29T09:48:41.0000000+00:00</time></trkpt><trkpt lat="34.9054685" lon="32.829978"><ele>1157.9</ele><time>2015-04-29T09:48:44.0000000+00:00</time></trkpt><trkpt lat="34.9054937" lon="32.8299264"><ele>1157.7</ele><time>2015-04-29T09:48:47.0000000+00:00</time></trkpt><trkpt lat="34.905513" lon="32.8298666"><ele>1158.6</ele><time>2015-04-29T09:48:50.0000000+00:00</time></trkpt><trkpt lat="34.9055279" lon="32.8298099"><ele>1159.1</ele><time>2015-04-29T09:48:53.0000000+00:00</time></trkpt><trkpt lat="34.9055443" lon="32.8297573"><ele>1159.9</ele><time>2015-04-29T09:48:56.0000000+00:00</time></trkpt><trkpt lat="34.9055576" lon="32.8296879"><ele>1160.7</ele><time>2015-04-29T09:49:00.0000000+00:00</time></trkpt><trkpt lat="34.9055564" lon="32.8296224"><ele>1161.6</ele><time>2015-04-29T09:49:04.0000000+00:00</time></trkpt><trkpt lat="34.9055583" lon="32.8295625"><ele>1161.8</ele><time>2015-04-29T09:49:08.0000000+00:00</time></trkpt><trkpt lat="34.9055592" lon="32.8296306"><ele>1158.0</ele><time>2015-04-29T09:51:48.0000000+00:00</time></trkpt><trkpt lat="34.9055681" lon="32.8296877"><ele>1156.8</ele><time>2015-04-29T09:51:52.0000000+00:00</time></trkpt><trkpt lat="34.9055445" lon="32.8296322"><ele>1161.6</ele><time>2015-04-29T09:52:19.0000000+00:00</time></trkpt><trkpt lat="34.9055883" lon="32.8295848"><ele>1160.2</ele><time>2015-04-29T09:52:23.0000000+00:00</time></trkpt><trkpt lat="34.9056537" lon="32.8296034"><ele>1160.2</ele><time>2015-04-29T09:52:26.0000000+00:00</time></trkpt><trkpt lat="34.905706" lon="32.8296476"><ele>1158.9</ele><time>2015-04-29T09:52:28.0000000+00:00</time></trkpt><trkpt lat="34.9057534" lon="32.8297079"><ele>1157.5</ele><time>2015-04-29T09:52:30.0000000+00:00</time></trkpt><trkpt lat="34.9057898" lon="32.8297708"><ele>1156.2</ele><time>2015-04-29T09:52:32.0000000+00:00</time></trkpt><trkpt lat="34.9058337" lon="32.8298132"><ele>1157.4</ele><time>2015-04-29T09:52:34.0000000+00:00</time></trkpt><trkpt lat="34.9058998" lon="32.8298323"><ele>1156.9</ele><time>2015-04-29T09:52:36.0000000+00:00</time></trkpt><trkpt lat="34.9059672" lon="32.8298458"><ele>1156.1</ele><time>2015-04-29T09:52:38.0000000+00:00</time></trkpt><trkpt lat="34.9060667" lon="32.8298389"><ele>1155.4</ele><time>2015-04-29T09:52:39.0000000+00:00</time></trkpt><trkpt lat="34.9061243" lon="32.8298386"><ele>1154.6</ele><time>2015-04-29T09:52:40.0000000+00:00</time></trkpt><trkpt lat="34.9062117" lon="32.8298425"><ele>1153.2</ele><time>2015-04-29T09:52:42.0000000+00:00</time></trkpt><trkpt lat="34.9062975" lon="32.8298192"><ele>1152.9</ele><time>2015-04-29T09:52:44.0000000+00:00</time></trkpt><trkpt lat="34.9063422" lon="32.8298094"><ele>1152.3</ele><time>2015-04-29T09:52:45.0000000+00:00</time></trkpt><trkpt lat="34.9064146" lon="32.8297997"><ele>1149.2</ele><time>2015-04-29T09:52:47.0000000+00:00</time></trkpt><trkpt lat="34.9064901" lon="32.8297603"><ele>1147.4</ele><time>2015-04-29T09:52:49.0000000+00:00</time></trkpt><trkpt lat="34.9065458" lon="32.8296881"><ele>1146.4</ele><time>2015-04-29T09:52:51.0000000+00:00</time></trkpt><trkpt lat="34.9065713" lon="32.829576"><ele>1145.2</ele><time>2015-04-29T09:52:53.0000000+00:00</time></trkpt><trkpt lat="34.9065895" lon="32.8295255"><ele>1145.0</ele><time>2015-04-29T09:52:54.0000000+00:00</time></trkpt><trkpt lat="34.9066339" lon="32.8294302"><ele>1144.3</ele><time>2015-04-29T09:52:56.0000000+00:00</time></trkpt><trkpt lat="34.9066391" lon="32.8293213"><ele>1143.2</ele><time>2015-04-29T09:52:58.0000000+00:00</time></trkpt><trkpt lat="34.9066302" lon="32.8292648"><ele>1143.0</ele><time>2015-04-29T09:52:59.0000000+00:00</time></trkpt><trkpt lat="34.906607" lon="32.8292059"><ele>1142.4</ele><time>2015-04-29T09:53:00.0000000+00:00</time></trkpt><trkpt lat="34.9065894" lon="32.8291498"><ele>1142.1</ele><time>2015-04-29T09:53:01.0000000+00:00</time></trkpt><trkpt lat="34.9065658" lon="32.8290842"><ele>1142.4</ele><time>2015-04-29T09:53:02.0000000+00:00</time></trkpt><trkpt lat="34.9065456" lon="32.829026"><ele>1142.1</ele><time>2015-04-29T09:53:03.0000000+00:00</time></trkpt><trkpt lat="34.906534" lon="32.8289604"><ele>1141.9</ele><time>2015-04-29T09:53:04.0000000+00:00</time></trkpt><trkpt lat="34.9065214" lon="32.8288982"><ele>1141.8</ele><time>2015-04-29T09:53:05.0000000+00:00</time></trkpt><trkpt lat="34.9065271" lon="32.8288329"><ele>1141.8</ele><time>2015-04-29T09:53:06.0000000+00:00</time></trkpt><trkpt lat="34.9065521" lon="32.8287825"><ele>1141.3</ele><time>2015-04-29T09:53:07.0000000+00:00</time></trkpt><trkpt lat="34.9065848" lon="32.828739"><ele>1140.0</ele><time>2015-04-29T09:53:08.0000000+00:00</time></trkpt><trkpt lat="34.9066404" lon="32.8286935"><ele>1138.9</ele><time>2015-04-29T09:53:09.0000000+00:00</time></trkpt><trkpt lat="34.906699" lon="32.8286469"><ele>1138.3</ele><time>2015-04-29T09:53:10.0000000+00:00</time></trkpt><trkpt lat="34.906761" lon="32.8286069"><ele>1137.5</ele><time>2015-04-29T09:53:11.0000000+00:00</time></trkpt><trkpt lat="34.906807" lon="32.828578"><ele>1136.2</ele><time>2015-04-29T09:53:12.0000000+00:00</time></trkpt><trkpt lat="34.9068558" lon="32.8285387"><ele>1135.0</ele><time>2015-04-29T09:53:13.0000000+00:00</time></trkpt><trkpt lat="34.9069247" lon="32.8284755"><ele>1132.6</ele><time>2015-04-29T09:53:15.0000000+00:00</time></trkpt><trkpt lat="34.9069462" lon="32.8283769"><ele>1131.5</ele><time>2015-04-29T09:53:17.0000000+00:00</time></trkpt><trkpt lat="34.9069014" lon="32.828295"><ele>1129.9</ele><time>2015-04-29T09:53:19.0000000+00:00</time></trkpt><trkpt lat="34.9068637" lon="32.8282603"><ele>1128.9</ele><time>2015-04-29T09:53:20.0000000+00:00</time></trkpt><trkpt lat="34.9068014" lon="32.8281815"><ele>1128.3</ele><time>2015-04-29T09:53:22.0000000+00:00</time></trkpt><trkpt lat="34.9067874" lon="32.8281285"><ele>1127.5</ele><time>2015-04-29T09:53:23.0000000+00:00</time></trkpt><trkpt lat="34.9067901" lon="32.828052"><ele>1127.0</ele><time>2015-04-29T09:53:25.0000000+00:00</time></trkpt><trkpt lat="34.90684" lon="32.8279728"><ele>1126.6</ele><time>2015-04-29T09:53:27.0000000+00:00</time></trkpt><trkpt lat="34.9068661" lon="32.8279245"><ele>1127.2</ele><time>2015-04-29T09:53:28.0000000+00:00</time></trkpt><trkpt lat="34.9068872" lon="32.827837"><ele>1126.9</ele><time>2015-04-29T09:53:30.0000000+00:00</time></trkpt><trkpt lat="34.9068429" lon="32.8277578"><ele>1126.3</ele><time>2015-04-29T09:53:32.0000000+00:00</time></trkpt><trkpt lat="34.9068091" lon="32.8277184"><ele>1125.5</ele><time>2015-04-29T09:53:33.0000000+00:00</time></trkpt><trkpt lat="34.9067713" lon="32.8276748"><ele>1124.6</ele><time>2015-04-29T09:53:34.0000000+00:00</time></trkpt><trkpt lat="34.9067374" lon="32.8276238"><ele>1123.7</ele><time>2015-04-29T09:53:35.0000000+00:00</time></trkpt><trkpt lat="34.9066922" lon="32.8275656"><ele>1123.2</ele><time>2015-04-29T09:53:36.0000000+00:00</time></trkpt><trkpt lat="34.9066513" lon="32.8275075"><ele>1122.0</ele><time>2015-04-29T09:53:37.0000000+00:00</time></trkpt><trkpt lat="34.9066131" lon="32.8274454"><ele>1121.4</ele><time>2015-04-29T09:53:38.0000000+00:00</time></trkpt><trkpt lat="34.9065775" lon="32.8273827"><ele>1121.1</ele><time>2015-04-29T09:53:39.0000000+00:00</time></trkpt><trkpt lat="34.906542" lon="32.8273184"><ele>1120.4</ele><time>2015-04-29T09:53:40.0000000+00:00</time></trkpt><trkpt lat="34.9064982" lon="32.8272545"><ele>1120.6</ele><time>2015-04-29T09:53:41.0000000+00:00</time></trkpt><trkpt lat="34.9064556" lon="32.8271978"><ele>1120.2</ele><time>2015-04-29T09:53:42.0000000+00:00</time></trkpt><trkpt lat="34.9064182" lon="32.8271351"><ele>1120.0</ele><time>2015-04-29T09:53:43.0000000+00:00</time></trkpt><trkpt lat="34.9063863" lon="32.82708"><ele>1119.4</ele><time>2015-04-29T09:53:44.0000000+00:00</time></trkpt><trkpt lat="34.906355" lon="32.8270353"><ele>1119.1</ele><time>2015-04-29T09:53:45.0000000+00:00</time></trkpt><trkpt lat="34.9063249" lon="32.8269277"><ele>1118.1</ele><time>2015-04-29T09:53:47.0000000+00:00</time></trkpt><trkpt lat="34.9063117" lon="32.8268687"><ele>1117.4</ele><time>2015-04-29T09:53:48.0000000+00:00</time></trkpt><trkpt lat="34.9063046" lon="32.826803"><ele>1117.6</ele><time>2015-04-29T09:53:49.0000000+00:00</time></trkpt><trkpt lat="34.9063055" lon="32.8267327"><ele>1117.2</ele><time>2015-04-29T09:53:50.0000000+00:00</time></trkpt><trkpt lat="34.9063187" lon="32.8266688"><ele>1116.5</ele><time>2015-04-29T09:53:51.0000000+00:00</time></trkpt><trkpt lat="34.9063256" lon="32.8266028"><ele>1115.6</ele><time>2015-04-29T09:53:52.0000000+00:00</time></trkpt><trkpt lat="34.9063368" lon="32.8265351"><ele>1114.7</ele><time>2015-04-29T09:53:53.0000000+00:00</time></trkpt><trkpt lat="34.9063317" lon="32.8264561"><ele>1113.7</ele><time>2015-04-29T09:53:54.0000000+00:00</time></trkpt><trkpt lat="34.9063181" lon="32.8263813"><ele>1113.2</ele><time>2015-04-29T09:53:55.0000000+00:00</time></trkpt><trkpt lat="34.9062992" lon="32.8263165"><ele>1113.0</ele><time>2015-04-29T09:53:56.0000000+00:00</time></trkpt><trkpt lat="34.9062849" lon="32.8262559"><ele>1112.4</ele><time>2015-04-29T09:53:57.0000000+00:00</time></trkpt><trkpt lat="34.9062596" lon="32.8261754"><ele>1112.1</ele><time>2015-04-29T09:53:58.0000000+00:00</time></trkpt><trkpt lat="34.9062362" lon="32.826103"><ele>1112.4</ele><time>2015-04-29T09:53:59.0000000+00:00</time></trkpt><trkpt lat="34.906178" lon="32.8260327"><ele>1113.1</ele><time>2015-04-29T09:54:00.0000000+00:00</time></trkpt><trkpt lat="34.9061538" lon="32.8259712"><ele>1112.9</ele><time>2015-04-29T09:54:01.0000000+00:00</time></trkpt><trkpt lat="34.9061098" lon="32.8258956"><ele>1112.8</ele><time>2015-04-29T09:54:02.0000000+00:00</time></trkpt><trkpt lat="34.9060714" lon="32.825833"><ele>1112.3</ele><time>2015-04-29T09:54:03.0000000+00:00</time></trkpt><trkpt lat="34.9060262" lon="32.8257712"><ele>1112.0</ele><time>2015-04-29T09:54:04.0000000+00:00</time></trkpt><trkpt lat="34.9059751" lon="32.8257295"><ele>1111.4</ele><time>2015-04-29T09:54:05.0000000+00:00</time></trkpt><trkpt lat="34.9059161" lon="32.8257072"><ele>1111.6</ele><time>2015-04-29T09:54:06.0000000+00:00</time></trkpt><trkpt lat="34.9058554" lon="32.8256946"><ele>1111.2</ele><time>2015-04-29T09:54:07.0000000+00:00</time></trkpt><trkpt lat="34.9057811" lon="32.8256899"><ele>1111.5</ele><time>2015-04-29T09:54:08.0000000+00:00</time></trkpt><trkpt lat="34.905722" lon="32.8256606"><ele>1111.6</ele><time>2015-04-29T09:54:09.0000000+00:00</time></trkpt><trkpt lat="34.905672" lon="32.8256202"><ele>1111.2</ele><time>2015-04-29T09:54:10.0000000+00:00</time></trkpt><trkpt lat="34.9056154" lon="32.8255894"><ele>1111.0</ele><time>2015-04-29T09:54:11.0000000+00:00</time></trkpt><trkpt lat="34.9055556" lon="32.8255589"><ele>1110.9</ele><time>2015-04-29T09:54:12.0000000+00:00</time></trkpt><trkpt lat="34.9054782" lon="32.8255405"><ele>1111.3</ele><time>2015-04-29T09:54:13.0000000+00:00</time></trkpt><trkpt lat="34.905409" lon="32.8255208"><ele>1111.5</ele><time>2015-04-29T09:54:14.0000000+00:00</time></trkpt><trkpt lat="34.9053374" lon="32.8255153"><ele>1111.7</ele><time>2015-04-29T09:54:15.0000000+00:00</time></trkpt><trkpt lat="34.9052838" lon="32.8255107"><ele>1110.7</ele><time>2015-04-29T09:54:16.0000000+00:00</time></trkpt><trkpt lat="34.9052346" lon="32.8255251"><ele>1110.2</ele><time>2015-04-29T09:54:17.0000000+00:00</time></trkpt><trkpt lat="34.9051854" lon="32.8255403"><ele>1109.5</ele><time>2015-04-29T09:54:18.0000000+00:00</time></trkpt><trkpt lat="34.9051216" lon="32.8255394"><ele>1108.9</ele><time>2015-04-29T09:54:20.0000000+00:00</time></trkpt><trkpt lat="34.9050726" lon="32.8255196"><ele>1109.0</ele><time>2015-04-29T09:54:36.0000000+00:00</time></trkpt><trkpt lat="34.9050247" lon="32.8254678"><ele>1108.6</ele><time>2015-04-29T09:54:38.0000000+00:00</time></trkpt><trkpt lat="34.9049625" lon="32.8254008"><ele>1106.7</ele><time>2015-04-29T09:54:40.0000000+00:00</time></trkpt><trkpt lat="34.9049266" lon="32.8253621"><ele>1105.2</ele><time>2015-04-29T09:54:41.0000000+00:00</time></trkpt><trkpt lat="34.9048817" lon="32.8253227"><ele>1104.0</ele><time>2015-04-29T09:54:42.0000000+00:00</time></trkpt><trkpt lat="34.9048383" lon="32.8252792"><ele>1102.9</ele><time>2015-04-29T09:54:43.0000000+00:00</time></trkpt><trkpt lat="34.9047851" lon="32.8252603"><ele>1101.8</ele><time>2015-04-29T09:54:44.0000000+00:00</time></trkpt><trkpt lat="34.9047277" lon="32.8252512"><ele>1100.8</ele><time>2015-04-29T09:54:45.0000000+00:00</time></trkpt><trkpt lat="34.904682" lon="32.8252446"><ele>1099.8</ele><time>2015-04-29T09:54:46.0000000+00:00</time></trkpt><trkpt lat="34.9046084" lon="32.8252202"><ele>1098.5</ele><time>2015-04-29T09:54:48.0000000+00:00</time></trkpt><trkpt lat="34.9045581" lon="32.8251648"><ele>1097.5</ele><time>2015-04-29T09:54:50.0000000+00:00</time></trkpt><trkpt lat="34.9045651" lon="32.8250953"><ele>1095.7</ele><time>2015-04-29T09:54:52.0000000+00:00</time></trkpt><trkpt lat="34.9046008" lon="32.825012"><ele>1093.7</ele><time>2015-04-29T09:54:54.0000000+00:00</time></trkpt><trkpt lat="34.9046556" lon="32.8249377"><ele>1091.8</ele><time>2015-04-29T09:54:56.0000000+00:00</time></trkpt><trkpt lat="34.904693" lon="32.8249001"><ele>1090.8</ele><time>2015-04-29T09:54:57.0000000+00:00</time></trkpt><trkpt lat="34.9047327" lon="32.8248535"><ele>1089.8</ele><time>2015-04-29T09:54:58.0000000+00:00</time></trkpt><trkpt lat="34.90477" lon="32.8248033"><ele>1089.8</ele><time>2015-04-29T09:54:59.0000000+00:00</time></trkpt><trkpt lat="34.9047958" lon="32.8247471"><ele>1089.3</ele><time>2015-04-29T09:55:00.0000000+00:00</time></trkpt><trkpt lat="34.9048261" lon="32.82468"><ele>1089.0</ele><time>2015-04-29T09:55:01.0000000+00:00</time></trkpt><trkpt lat="34.9048534" lon="32.8246135"><ele>1089.4</ele><time>2015-04-29T09:55:02.0000000+00:00</time></trkpt><trkpt lat="34.904884" lon="32.8245523"><ele>1089.1</ele><time>2015-04-29T09:55:03.0000000+00:00</time></trkpt><trkpt lat="34.9049082" lon="32.824486"><ele>1088.9</ele><time>2015-04-29T09:55:04.0000000+00:00</time></trkpt><trkpt lat="34.904931" lon="32.824414"><ele>1088.8</ele><time>2015-04-29T09:55:05.0000000+00:00</time></trkpt><trkpt lat="34.9049553" lon="32.8243604"><ele>1088.8</ele><time>2015-04-29T09:55:06.0000000+00:00</time></trkpt><trkpt lat="34.9049754" lon="32.8243028"><ele>1088.3</ele><time>2015-04-29T09:55:07.0000000+00:00</time></trkpt><trkpt lat="34.9049838" lon="32.8242315"><ele>1088.0</ele><time>2015-04-29T09:55:08.0000000+00:00</time></trkpt><trkpt lat="34.9049983" lon="32.824173"><ele>1087.4</ele><time>2015-04-29T09:55:09.0000000+00:00</time></trkpt><trkpt lat="34.9050037" lon="32.8241128"><ele>1086.6</ele><time>2015-04-29T09:55:10.0000000+00:00</time></trkpt><trkpt lat="34.9050075" lon="32.824044"><ele>1085.7</ele><time>2015-04-29T09:55:11.0000000+00:00</time></trkpt><trkpt lat="34.9050092" lon="32.8239795"><ele>1085.7</ele><time>2015-04-29T09:55:12.0000000+00:00</time></trkpt><trkpt lat="34.9049846" lon="32.8238857"><ele>1083.8</ele><time>2015-04-29T09:55:14.0000000+00:00</time></trkpt><trkpt lat="34.9049112" lon="32.823821"><ele>1082.3</ele><time>2015-04-29T09:55:16.0000000+00:00</time></trkpt><trkpt lat="34.9048458" lon="32.8237953"><ele>1080.1</ele><time>2015-04-29T09:55:18.0000000+00:00</time></trkpt><trkpt lat="34.9047951" lon="32.8237466"><ele>1077.9</ele><time>2015-04-29T09:55:20.0000000+00:00</time></trkpt><trkpt lat="34.9047846" lon="32.8236894"><ele>1076.8</ele><time>2015-04-29T09:55:21.0000000+00:00</time></trkpt><trkpt lat="34.9048006" lon="32.8235857"><ele>1075.0</ele><time>2015-04-29T09:55:23.0000000+00:00</time></trkpt><trkpt lat="34.904833" lon="32.8234851"><ele>1074.1</ele><time>2015-04-29T09:55:25.0000000+00:00</time></trkpt><trkpt lat="34.9048425" lon="32.8233893"><ele>1073.6</ele><time>2015-04-29T09:55:27.0000000+00:00</time></trkpt><trkpt lat="34.9047995" lon="32.8233236"><ele>1073.0</ele><time>2015-04-29T09:55:29.0000000+00:00</time></trkpt><trkpt lat="34.9047247" lon="32.8233194"><ele>1071.6</ele><time>2015-04-29T09:55:31.0000000+00:00</time></trkpt><trkpt lat="34.9046634" lon="32.823324"><ele>1070.7</ele><time>2015-04-29T09:55:32.0000000+00:00</time></trkpt><trkpt lat="34.9046161" lon="32.8233422"><ele>1070.2</ele><time>2015-04-29T09:55:33.0000000+00:00</time></trkpt><trkpt lat="34.9045584" lon="32.8233359"><ele>1069.5</ele><time>2015-04-29T09:55:34.0000000+00:00</time></trkpt><trkpt lat="34.9045028" lon="32.8233281"><ele>1068.6</ele><time>2015-04-29T09:55:35.0000000+00:00</time></trkpt><trkpt lat="34.9044562" lon="32.8233188"><ele>1067.7</ele><time>2015-04-29T09:55:36.0000000+00:00</time></trkpt><trkpt lat="34.9044046" lon="32.823315"><ele>1066.7</ele><time>2015-04-29T09:55:37.0000000+00:00</time></trkpt><trkpt lat="34.90435" lon="32.8233095"><ele>1066.2</ele><time>2015-04-29T09:55:38.0000000+00:00</time></trkpt><trkpt lat="34.9042967" lon="32.8233157"><ele>1066.0</ele><time>2015-04-29T09:55:39.0000000+00:00</time></trkpt><trkpt lat="34.904246" lon="32.8232804"><ele>1065.4</ele><time>2015-04-29T09:55:40.0000000+00:00</time></trkpt><trkpt lat="34.904188" lon="32.8232657"><ele>1065.1</ele><time>2015-04-29T09:55:41.0000000+00:00</time></trkpt><trkpt lat="34.9041319" lon="32.8232302"><ele>1064.4</ele><time>2015-04-29T09:55:42.0000000+00:00</time></trkpt><trkpt lat="34.9040852" lon="32.8231963"><ele>1063.6</ele><time>2015-04-29T09:55:43.0000000+00:00</time></trkpt><trkpt lat="34.9040334" lon="32.8231498"><ele>1062.2</ele><time>2015-04-29T09:55:44.0000000+00:00</time></trkpt><trkpt lat="34.9039928" lon="32.8230957"><ele>1061.0</ele><time>2015-04-29T09:55:45.0000000+00:00</time></trkpt><trkpt lat="34.9039602" lon="32.8230349"><ele>1059.4</ele><time>2015-04-29T09:55:46.0000000+00:00</time></trkpt><trkpt lat="34.9039217" lon="32.8229793"><ele>1058.6</ele><time>2015-04-29T09:55:47.0000000+00:00</time></trkpt><trkpt lat="34.9038855" lon="32.8229222"><ele>1058.2</ele><time>2015-04-29T09:55:48.0000000+00:00</time></trkpt><trkpt lat="34.9038478" lon="32.8228387"><ele>1055.4</ele><time>2015-04-29T09:55:50.0000000+00:00</time></trkpt><trkpt lat="34.9037972" lon="32.8227848"><ele>1052.6</ele><time>2015-04-29T09:55:53.0000000+00:00</time></trkpt><trkpt lat="34.903754" lon="32.8228153"><ele>1051.8</ele><time>2015-04-29T09:55:58.0000000+00:00</time></trkpt><trkpt lat="34.9037855" lon="32.822858"><ele>1052.3</ele><time>2015-04-29T09:56:01.0000000+00:00</time></trkpt><trkpt lat="34.9038174" lon="32.8229181"><ele>1052.7</ele><time>2015-04-29T09:56:05.0000000+00:00</time></trkpt><trkpt lat="34.9038439" lon="32.8229699"><ele>1051.0</ele><time>2015-04-29T09:56:12.0000000+00:00</time></trkpt><trkpt lat="34.9038789" lon="32.8230394"><ele>1049.5</ele><time>2015-04-29T09:56:15.0000000+00:00</time></trkpt><trkpt lat="34.9039096" lon="32.8231066"><ele>1048.7</ele><time>2015-04-29T09:56:17.0000000+00:00</time></trkpt><trkpt lat="34.9039361" lon="32.823179"><ele>1048.8</ele><time>2015-04-29T09:56:19.0000000+00:00</time></trkpt><trkpt lat="34.9039654" lon="32.8232559"><ele>1047.5</ele><time>2015-04-29T09:56:21.0000000+00:00</time></trkpt><trkpt lat="34.904003" lon="32.8233208"><ele>1045.7</ele><time>2015-04-29T09:56:23.0000000+00:00</time></trkpt><trkpt lat="34.9040452" lon="32.8233862"><ele>1045.0</ele><time>2015-04-29T09:56:25.0000000+00:00</time></trkpt><trkpt lat="34.9040835" lon="32.8234575"><ele>1044.8</ele><time>2015-04-29T09:56:27.0000000+00:00</time></trkpt><trkpt lat="34.9041125" lon="32.8235393"><ele>1044.3</ele><time>2015-04-29T09:56:29.0000000+00:00</time></trkpt><trkpt lat="34.9041535" lon="32.8236075"><ele>1043.6</ele><time>2015-04-29T09:56:31.0000000+00:00</time></trkpt><trkpt lat="34.9042227" lon="32.8236473"><ele>1043.0</ele><time>2015-04-29T09:56:33.0000000+00:00</time></trkpt><trkpt lat="34.9042644" lon="32.8236698"><ele>1042.4</ele><time>2015-04-29T09:56:34.0000000+00:00</time></trkpt><trkpt lat="34.9043249" lon="32.8237357"><ele>1042.1</ele><time>2015-04-29T09:56:35.0000000+00:00</time></trkpt><trkpt lat="34.9043525" lon="32.8237912"><ele>1041.9</ele><time>2015-04-29T09:56:36.0000000+00:00</time></trkpt><trkpt lat="34.9043674" lon="32.8238496"><ele>1041.3</ele><time>2015-04-29T09:56:37.0000000+00:00</time></trkpt><trkpt lat="34.9043716" lon="32.8239161"><ele>1040.1</ele><time>2015-04-29T09:56:38.0000000+00:00</time></trkpt><trkpt lat="34.9043651" lon="32.8239867"><ele>1038.9</ele><time>2015-04-29T09:56:39.0000000+00:00</time></trkpt><trkpt lat="34.904344" lon="32.8240617"><ele>1038.8</ele><time>2015-04-29T09:56:40.0000000+00:00</time></trkpt><trkpt lat="34.904312" lon="32.8241322"><ele>1039.3</ele><time>2015-04-29T09:56:41.0000000+00:00</time></trkpt><trkpt lat="34.9042667" lon="32.8241812"><ele>1039.5</ele><time>2015-04-29T09:56:42.0000000+00:00</time></trkpt><trkpt lat="34.9042238" lon="32.8242291"><ele>1039.6</ele><time>2015-04-29T09:56:43.0000000+00:00</time></trkpt><trkpt lat="34.9041862" lon="32.8242831"><ele>1039.2</ele><time>2015-04-29T09:56:44.0000000+00:00</time></trkpt><trkpt lat="34.9041531" lon="32.8243298"><ele>1039.0</ele><time>2015-04-29T09:56:45.0000000+00:00</time></trkpt><trkpt lat="34.9041197" lon="32.8243716"><ele>1038.4</ele><time>2015-04-29T09:56:46.0000000+00:00</time></trkpt><trkpt lat="34.9040736" lon="32.8244126"><ele>1038.1</ele><time>2015-04-29T09:56:47.0000000+00:00</time></trkpt><trkpt lat="34.9040302" lon="32.8244655"><ele>1037.9</ele><time>2015-04-29T09:56:48.0000000+00:00</time></trkpt><trkpt lat="34.9039801" lon="32.8245237"><ele>1038.3</ele><time>2015-04-29T09:56:49.0000000+00:00</time></trkpt><trkpt lat="34.9039393" lon="32.8245803"><ele>1038.1</ele><time>2015-04-29T09:56:50.0000000+00:00</time></trkpt><trkpt lat="34.9039044" lon="32.824639"><ele>1037.4</ele><time>2015-04-29T09:56:51.0000000+00:00</time></trkpt><trkpt lat="34.903863" lon="32.8247154"><ele>1038.1</ele><time>2015-04-29T09:56:52.0000000+00:00</time></trkpt><trkpt lat="34.9038217" lon="32.8247669"><ele>1038.4</ele><time>2015-04-29T09:56:53.0000000+00:00</time></trkpt><trkpt lat="34.903784" lon="32.824817"><ele>1038.6</ele><time>2015-04-29T09:56:54.0000000+00:00</time></trkpt><trkpt lat="34.9037558" lon="32.8248611"><ele>1038.7</ele><time>2015-04-29T09:56:55.0000000+00:00</time></trkpt><trkpt lat="34.9037166" lon="32.824941"><ele>1038.5</ele><time>2015-04-29T09:56:57.0000000+00:00</time></trkpt><trkpt lat="34.9036919" lon="32.8249938"><ele>1037.9</ele><time>2015-04-29T09:56:59.0000000+00:00</time></trkpt><trkpt lat="34.9036711" lon="32.825053"><ele>1037.3</ele><time>2015-04-29T09:57:02.0000000+00:00</time></trkpt><trkpt lat="34.9036501" lon="32.8251241"><ele>1037.0</ele><time>2015-04-29T09:57:05.0000000+00:00</time></trkpt><trkpt lat="34.9036351" lon="32.8251844"><ele>1036.1</ele><time>2015-04-29T09:57:07.0000000+00:00</time></trkpt><trkpt lat="34.9036058" lon="32.8253149"><ele>1034.6</ele><time>2015-04-29T09:57:09.0000000+00:00</time></trkpt><trkpt lat="34.9035915" lon="32.8253898"><ele>1033.7</ele><time>2015-04-29T09:57:10.0000000+00:00</time></trkpt><trkpt lat="34.9035802" lon="32.8254579"><ele>1032.7</ele><time>2015-04-29T09:57:11.0000000+00:00</time></trkpt><trkpt lat="34.9035696" lon="32.8255289"><ele>1031.2</ele><time>2015-04-29T09:57:12.0000000+00:00</time></trkpt><trkpt lat="34.9035617" lon="32.8255967"><ele>1030.0</ele><time>2015-04-29T09:57:13.0000000+00:00</time></trkpt><trkpt lat="34.9035547" lon="32.8256639"><ele>1029.4</ele><time>2015-04-29T09:57:14.0000000+00:00</time></trkpt><trkpt lat="34.9035469" lon="32.8257255"><ele>1028.6</ele><time>2015-04-29T09:57:15.0000000+00:00</time></trkpt><trkpt lat="34.9035218" lon="32.8258126"><ele>1027.2</ele><time>2015-04-29T09:57:17.0000000+00:00</time></trkpt><trkpt lat="34.9034744" lon="32.8258205"><ele>1025.6</ele><time>2015-04-29T09:57:19.0000000+00:00</time></trkpt><trkpt lat="34.9034461" lon="32.8257568"><ele>1025.0</ele><time>2015-04-29T09:57:21.0000000+00:00</time></trkpt><trkpt lat="34.9034404" lon="32.8256759"><ele>1024.1</ele><time>2015-04-29T09:57:23.0000000+00:00</time></trkpt><trkpt lat="34.9034342" lon="32.8256105"><ele>1022.6</ele><time>2015-04-29T09:57:25.0000000+00:00</time></trkpt><trkpt lat="34.9034245" lon="32.8255265"><ele>1021.2</ele><time>2015-04-29T09:57:27.0000000+00:00</time></trkpt><trkpt lat="34.9034175" lon="32.8254388"><ele>1020.5</ele><time>2015-04-29T09:57:28.0000000+00:00</time></trkpt><trkpt lat="34.9034069" lon="32.8253686"><ele>1019.6</ele><time>2015-04-29T09:57:29.0000000+00:00</time></trkpt><trkpt lat="34.9034163" lon="32.8252863"><ele>1018.7</ele><time>2015-04-29T09:57:30.0000000+00:00</time></trkpt><trkpt lat="34.9034165" lon="32.8252126"><ele>1018.2</ele><time>2015-04-29T09:57:31.0000000+00:00</time></trkpt><trkpt lat="34.9034221" lon="32.8251264"><ele>1017.5</ele><time>2015-04-29T09:57:32.0000000+00:00</time></trkpt><trkpt lat="34.9034239" lon="32.8250594"><ele>1017.1</ele><time>2015-04-29T09:57:33.0000000+00:00</time></trkpt><trkpt lat="34.9034181" lon="32.8249838"><ele>1016.4</ele><time>2015-04-29T09:57:34.0000000+00:00</time></trkpt><trkpt lat="34.9034126" lon="32.8249147"><ele>1016.6</ele><time>2015-04-29T09:57:35.0000000+00:00</time></trkpt><trkpt lat="34.9034098" lon="32.8248414"><ele>1016.2</ele><time>2015-04-29T09:57:36.0000000+00:00</time></trkpt><trkpt lat="34.9034111" lon="32.824757"><ele>1015.5</ele><time>2015-04-29T09:57:37.0000000+00:00</time></trkpt><trkpt lat="34.9034239" lon="32.8246904"><ele>1014.1</ele><time>2015-04-29T09:57:38.0000000+00:00</time></trkpt><trkpt lat="34.9034173" lon="32.8246204"><ele>1013.4</ele><time>2015-04-29T09:57:39.0000000+00:00</time></trkpt><trkpt lat="34.9034026" lon="32.8245598"><ele>1012.6</ele><time>2015-04-29T09:57:40.0000000+00:00</time></trkpt><trkpt lat="34.9033617" lon="32.8244978"><ele>1010.7</ele><time>2015-04-29T09:57:42.0000000+00:00</time></trkpt><trkpt lat="34.9032925" lon="32.8245225"><ele>1009.3</ele><time>2015-04-29T09:57:44.0000000+00:00</time></trkpt><trkpt lat="34.9032596" lon="32.8246267"><ele>1006.9</ele><time>2015-04-29T09:57:46.0000000+00:00</time></trkpt><trkpt lat="34.9032452" lon="32.8246828"><ele>1005.8</ele><time>2015-04-29T09:57:47.0000000+00:00</time></trkpt><trkpt lat="34.903225" lon="32.8247553"><ele>1004.8</ele><time>2015-04-29T09:57:48.0000000+00:00</time></trkpt><trkpt lat="34.9032047" lon="32.8248248"><ele>1003.8</ele><time>2015-04-29T09:57:49.0000000+00:00</time></trkpt><trkpt lat="34.9031747" lon="32.8248966"><ele>1003.3</ele><time>2015-04-29T09:57:50.0000000+00:00</time></trkpt><trkpt lat="34.9031588" lon="32.8249539"><ele>1003.0</ele><time>2015-04-29T09:57:51.0000000+00:00</time></trkpt><trkpt lat="34.9031094" lon="32.8250272"><ele>1002.3</ele><time>2015-04-29T09:57:53.0000000+00:00</time></trkpt><trkpt lat="34.9030821" lon="32.8250738"><ele>1001.9</ele><time>2015-04-29T09:57:55.0000000+00:00</time></trkpt><trkpt lat="34.9030566" lon="32.8251228"><ele>1001.9</ele><time>2015-04-29T09:57:58.0000000+00:00</time></trkpt><trkpt lat="34.9030345" lon="32.8251927"><ele>1001.3</ele><time>2015-04-29T09:58:00.0000000+00:00</time></trkpt><trkpt lat="34.903015" lon="32.8252864"><ele>1000.6</ele><time>2015-04-29T09:58:02.0000000+00:00</time></trkpt><trkpt lat="34.9029919" lon="32.825343"><ele>1000.7</ele><time>2015-04-29T09:58:03.0000000+00:00</time></trkpt><trkpt lat="34.9029613" lon="32.825406"><ele>1000.7</ele><time>2015-04-29T09:58:04.0000000+00:00</time></trkpt><trkpt lat="34.9029238" lon="32.8254742"><ele>1001.8</ele><time>2015-04-29T09:58:05.0000000+00:00</time></trkpt><trkpt lat="34.902906" lon="32.825537"><ele>1001.8</ele><time>2015-04-29T09:58:06.0000000+00:00</time></trkpt><trkpt lat="34.9028906" lon="32.8256072"><ele>1000.8</ele><time>2015-04-29T09:58:07.0000000+00:00</time></trkpt><trkpt lat="34.9028668" lon="32.8256719"><ele>1000.8</ele><time>2015-04-29T09:58:08.0000000+00:00</time></trkpt><trkpt lat="34.9028468" lon="32.825733"><ele>1000.3</ele><time>2015-04-29T09:58:09.0000000+00:00</time></trkpt><trkpt lat="34.9028345" lon="32.8258156"><ele>999.5</ele><time>2015-04-29T09:58:10.0000000+00:00</time></trkpt><trkpt lat="34.9028312" lon="32.8259041"><ele>998.6</ele><time>2015-04-29T09:58:11.0000000+00:00</time></trkpt><trkpt lat="34.9028434" lon="32.825981"><ele>997.7</ele><time>2015-04-29T09:58:12.0000000+00:00</time></trkpt><trkpt lat="34.9028498" lon="32.8260537"><ele>997.2</ele><time>2015-04-29T09:58:13.0000000+00:00</time></trkpt><trkpt lat="34.90288" lon="32.8261198"><ele>996.5</ele><time>2015-04-29T09:58:14.0000000+00:00</time></trkpt><trkpt lat="34.9029231" lon="32.8261857"><ele>995.6</ele><time>2015-04-29T09:58:15.0000000+00:00</time></trkpt><trkpt lat="34.9029752" lon="32.8262469"><ele>995.7</ele><time>2015-04-29T09:58:16.0000000+00:00</time></trkpt><trkpt lat="34.9030226" lon="32.8262991"><ele>996.2</ele><time>2015-04-29T09:58:17.0000000+00:00</time></trkpt><trkpt lat="34.9030573" lon="32.8263437"><ele>996.5</ele><time>2015-04-29T09:58:18.0000000+00:00</time></trkpt><trkpt lat="34.903081" lon="32.8263915"><ele>996.1</ele><time>2015-04-29T09:58:19.0000000+00:00</time></trkpt><trkpt lat="34.903101" lon="32.8264463"><ele>994.9</ele><time>2015-04-29T09:58:20.0000000+00:00</time></trkpt><trkpt lat="34.9031169" lon="32.826504"><ele>993.9</ele><time>2015-04-29T09:58:21.0000000+00:00</time></trkpt><trkpt lat="34.9031271" lon="32.8265658"><ele>993.3</ele><time>2015-04-29T09:58:22.0000000+00:00</time></trkpt><trkpt lat="34.903132" lon="32.8266278"><ele>993.0</ele><time>2015-04-29T09:58:23.0000000+00:00</time></trkpt><trkpt lat="34.9031114" lon="32.8266877"><ele>992.9</ele><time>2015-04-29T09:58:24.0000000+00:00</time></trkpt><trkpt lat="34.9030774" lon="32.8267335"><ele>992.3</ele><time>2015-04-29T09:58:25.0000000+00:00</time></trkpt><trkpt lat="34.9030284" lon="32.8267615"><ele>991.5</ele><time>2015-04-29T09:58:26.0000000+00:00</time></trkpt><trkpt lat="34.9029772" lon="32.8267871"><ele>991.2</ele><time>2015-04-29T09:58:27.0000000+00:00</time></trkpt><trkpt lat="34.9029318" lon="32.8268089"><ele>990.5</ele><time>2015-04-29T09:58:28.0000000+00:00</time></trkpt><trkpt lat="34.9028807" lon="32.8268273"><ele>989.1</ele><time>2015-04-29T09:58:29.0000000+00:00</time></trkpt><trkpt lat="34.9027932" lon="32.8268783"><ele>987.4</ele><time>2015-04-29T09:58:31.0000000+00:00</time></trkpt><trkpt lat="34.9027394" lon="32.8269115"><ele>986.6</ele><time>2015-04-29T09:58:32.0000000+00:00</time></trkpt><trkpt lat="34.9026509" lon="32.8269585"><ele>986.0</ele><time>2015-04-29T09:58:34.0000000+00:00</time></trkpt><trkpt lat="34.9025956" lon="32.8269944"><ele>985.4</ele><time>2015-04-29T09:58:35.0000000+00:00</time></trkpt><trkpt lat="34.9025378" lon="32.8270433"><ele>984.6</ele><time>2015-04-29T09:58:36.0000000+00:00</time></trkpt><trkpt lat="34.9024879" lon="32.8270776"><ele>983.7</ele><time>2015-04-29T09:58:37.0000000+00:00</time></trkpt><trkpt lat="34.9024295" lon="32.8271278"><ele>983.2</ele><time>2015-04-29T09:58:38.0000000+00:00</time></trkpt><trkpt lat="34.9023784" lon="32.8271744"><ele>982.5</ele><time>2015-04-29T09:58:39.0000000+00:00</time></trkpt><trkpt lat="34.9023246" lon="32.8272321"><ele>981.6</ele><time>2015-04-29T09:58:40.0000000+00:00</time></trkpt><trkpt lat="34.9022705" lon="32.8272879"><ele>981.2</ele><time>2015-04-29T09:58:41.0000000+00:00</time></trkpt><trkpt lat="34.9022079" lon="32.8273166"><ele>980.5</ele><time>2015-04-29T09:58:42.0000000+00:00</time></trkpt><trkpt lat="34.9021412" lon="32.8273404"><ele>980.1</ele><time>2015-04-29T09:58:43.0000000+00:00</time></trkpt><trkpt lat="34.9020673" lon="32.8273706"><ele>979.4</ele><time>2015-04-29T09:58:44.0000000+00:00</time></trkpt><trkpt lat="34.9020023" lon="32.8274013"><ele>979.1</ele><time>2015-04-29T09:58:45.0000000+00:00</time></trkpt><trkpt lat="34.9019368" lon="32.8274275"><ele>978.9</ele><time>2015-04-29T09:58:46.0000000+00:00</time></trkpt><trkpt lat="34.901864" lon="32.8274436"><ele>978.3</ele><time>2015-04-29T09:58:47.0000000+00:00</time></trkpt><trkpt lat="34.9018054" lon="32.8274717"><ele>977.6</ele><time>2015-04-29T09:58:48.0000000+00:00</time></trkpt><trkpt lat="34.9017519" lon="32.8275081"><ele>977.2</ele><time>2015-04-29T09:58:49.0000000+00:00</time></trkpt><trkpt lat="34.9017109" lon="32.8275518"><ele>976.5</ele><time>2015-04-29T09:58:50.0000000+00:00</time></trkpt><trkpt lat="34.9016667" lon="32.8276349"><ele>974.4</ele><time>2015-04-29T09:58:52.0000000+00:00</time></trkpt><trkpt lat="34.9016684" lon="32.8276956"><ele>974.6</ele><time>2015-04-29T09:58:53.0000000+00:00</time></trkpt><trkpt lat="34.9016727" lon="32.8277555"><ele>973.7</ele><time>2015-04-29T09:58:54.0000000+00:00</time></trkpt><trkpt lat="34.9016743" lon="32.8278133"><ele>973.2</ele><time>2015-04-29T09:58:55.0000000+00:00</time></trkpt><trkpt lat="34.9016491" lon="32.827866"><ele>973.0</ele><time>2015-04-29T09:58:56.0000000+00:00</time></trkpt><trkpt lat="34.9015989" lon="32.8279184"><ele>971.6</ele><time>2015-04-29T09:58:58.0000000+00:00</time></trkpt><trkpt lat="34.9015464" lon="32.8279484"><ele>970.2</ele><time>2015-04-29T09:59:00.0000000+00:00</time></trkpt><trkpt lat="34.9014975" lon="32.8279693"><ele>969.0</ele><time>2015-04-29T09:59:01.0000000+00:00</time></trkpt><trkpt lat="34.901425" lon="32.8279237"><ele>966.6</ele><time>2015-04-29T09:59:03.0000000+00:00</time></trkpt><trkpt lat="34.9013828" lon="32.8278885"><ele>965.7</ele><time>2015-04-29T09:59:04.0000000+00:00</time></trkpt><trkpt lat="34.9013317" lon="32.8278506"><ele>965.2</ele><time>2015-04-29T09:59:05.0000000+00:00</time></trkpt><trkpt lat="34.9012626" lon="32.8278062"><ele>964.0</ele><time>2015-04-29T09:59:06.0000000+00:00</time></trkpt><trkpt lat="34.9012147" lon="32.8277578"><ele>963.4</ele><time>2015-04-29T09:59:07.0000000+00:00</time></trkpt><trkpt lat="34.9011588" lon="32.8277126"><ele>962.6</ele><time>2015-04-29T09:59:08.0000000+00:00</time></trkpt><trkpt lat="34.9011089" lon="32.8276562"><ele>962.2</ele><time>2015-04-29T09:59:09.0000000+00:00</time></trkpt><trkpt lat="34.9010642" lon="32.8275971"><ele>962.0</ele><time>2015-04-29T09:59:10.0000000+00:00</time></trkpt><trkpt lat="34.9010106" lon="32.8275443"><ele>962.4</ele><time>2015-04-29T09:59:11.0000000+00:00</time></trkpt><trkpt lat="34.9009742" lon="32.82749"><ele>961.6</ele><time>2015-04-29T09:59:12.0000000+00:00</time></trkpt><trkpt lat="34.9009203" lon="32.8274498"><ele>960.7</ele><time>2015-04-29T09:59:13.0000000+00:00</time></trkpt><trkpt lat="34.9008716" lon="32.8274207"><ele>960.2</ele><time>2015-04-29T09:59:14.0000000+00:00</time></trkpt><trkpt lat="34.9008193" lon="32.8274139"><ele>960.0</ele><time>2015-04-29T09:59:15.0000000+00:00</time></trkpt><trkpt lat="34.9007344" lon="32.8274439"><ele>958.6</ele><time>2015-04-29T09:59:17.0000000+00:00</time></trkpt><trkpt lat="34.9007012" lon="32.8274964"><ele>958.2</ele><time>2015-04-29T09:59:18.0000000+00:00</time></trkpt><trkpt lat="34.9006562" lon="32.8275533"><ele>958.0</ele><time>2015-04-29T09:59:19.0000000+00:00</time></trkpt><trkpt lat="34.9006093" lon="32.8276104"><ele>957.9</ele><time>2015-04-29T09:59:20.0000000+00:00</time></trkpt><trkpt lat="34.9005588" lon="32.8276574"><ele>957.8</ele><time>2015-04-29T09:59:21.0000000+00:00</time></trkpt><trkpt lat="34.9005024" lon="32.8276822"><ele>957.8</ele><time>2015-04-29T09:59:22.0000000+00:00</time></trkpt><trkpt lat="34.9004358" lon="32.8277051"><ele>957.3</ele><time>2015-04-29T09:59:23.0000000+00:00</time></trkpt><trkpt lat="34.90037" lon="32.8277257"><ele>956.5</ele><time>2015-04-29T09:59:24.0000000+00:00</time></trkpt><trkpt lat="34.9003042" lon="32.82773"><ele>955.1</ele><time>2015-04-29T09:59:25.0000000+00:00</time></trkpt><trkpt lat="34.9002474" lon="32.8277244"><ele>954.0</ele><time>2015-04-29T09:59:26.0000000+00:00</time></trkpt><trkpt lat="34.9001966" lon="32.8277147"><ele>953.4</ele><time>2015-04-29T09:59:27.0000000+00:00</time></trkpt><trkpt lat="34.9001548" lon="32.8276497"><ele>952.6</ele><time>2015-04-29T09:59:28.0000000+00:00</time></trkpt><trkpt lat="34.900121" lon="32.8275924"><ele>951.7</ele><time>2015-04-29T09:59:29.0000000+00:00</time></trkpt><trkpt lat="34.9000993" lon="32.8275309"><ele>950.7</ele><time>2015-04-29T09:59:30.0000000+00:00</time></trkpt><trkpt lat="34.9000745" lon="32.8274658"><ele>949.2</ele><time>2015-04-29T09:59:31.0000000+00:00</time></trkpt><trkpt lat="34.9000482" lon="32.8274193"><ele>948.0</ele><time>2015-04-29T09:59:32.0000000+00:00</time></trkpt><trkpt lat="34.8999928" lon="32.827353"><ele>946.8</ele><time>2015-04-29T09:59:34.0000000+00:00</time></trkpt><trkpt lat="34.8999394" lon="32.8272833"><ele>946.3</ele><time>2015-04-29T09:59:36.0000000+00:00</time></trkpt><trkpt lat="34.8998703" lon="32.8272107"><ele>944.6</ele><time>2015-04-29T09:59:38.0000000+00:00</time></trkpt><trkpt lat="34.8998385" lon="32.8271704"><ele>944.7</ele><time>2015-04-29T09:59:39.0000000+00:00</time></trkpt><trkpt lat="34.899783" lon="32.8271423"><ele>943.7</ele><time>2015-04-29T09:59:40.0000000+00:00</time></trkpt><trkpt lat="34.8997398" lon="32.8270955"><ele>942.7</ele><time>2015-04-29T09:59:41.0000000+00:00</time></trkpt><trkpt lat="34.8997018" lon="32.8270424"><ele>942.8</ele><time>2015-04-29T09:59:42.0000000+00:00</time></trkpt><trkpt lat="34.8996132" lon="32.8269936"><ele>942.8</ele><time>2015-04-29T09:59:44.0000000+00:00</time></trkpt><trkpt lat="34.899532" lon="32.8270243"><ele>942.3</ele><time>2015-04-29T09:59:46.0000000+00:00</time></trkpt><trkpt lat="34.8994903" lon="32.8271368"><ele>940.6</ele><time>2015-04-29T09:59:48.0000000+00:00</time></trkpt><trkpt lat="34.8994568" lon="32.8271774"><ele>940.2</ele><time>2015-04-29T09:59:49.0000000+00:00</time></trkpt><trkpt lat="34.8994124" lon="32.8272279"><ele>939.0</ele><time>2015-04-29T09:59:50.0000000+00:00</time></trkpt><trkpt lat="34.8993683" lon="32.8272658"><ele>938.9</ele><time>2015-04-29T09:59:51.0000000+00:00</time></trkpt><trkpt lat="34.8993216" lon="32.8272949"><ele>937.8</ele><time>2015-04-29T09:59:52.0000000+00:00</time></trkpt><trkpt lat="34.899267" lon="32.8273262"><ele>937.3</ele><time>2015-04-29T09:59:53.0000000+00:00</time></trkpt><trkpt lat="34.8992192" lon="32.8273221"><ele>936.5</ele><time>2015-04-29T09:59:54.0000000+00:00</time></trkpt><trkpt lat="34.8991684" lon="32.8273088"><ele>936.1</ele><time>2015-04-29T09:59:55.0000000+00:00</time></trkpt><trkpt lat="34.8991" lon="32.827276"><ele>934.6</ele><time>2015-04-29T09:59:57.0000000+00:00</time></trkpt><trkpt lat="34.8990568" lon="32.8272238"><ele>932.5</ele><time>2015-04-29T09:59:59.0000000+00:00</time></trkpt><trkpt lat="34.8989936" lon="32.8271897"><ele>930.7</ele><time>2015-04-29T10:00:01.0000000+00:00</time></trkpt><trkpt lat="34.8989582" lon="32.8271442"><ele>929.0</ele><time>2015-04-29T10:00:03.0000000+00:00</time></trkpt><trkpt lat="34.898882" lon="32.8271173"><ele>926.3</ele><time>2015-04-29T10:00:05.0000000+00:00</time></trkpt><trkpt lat="34.8988394" lon="32.8270927"><ele>925.0</ele><time>2015-04-29T10:00:06.0000000+00:00</time></trkpt><trkpt lat="34.8987975" lon="32.8270117"><ele>924.4</ele><time>2015-04-29T10:00:07.0000000+00:00</time></trkpt><trkpt lat="34.8987564" lon="32.8269459"><ele>923.6</ele><time>2015-04-29T10:00:08.0000000+00:00</time></trkpt><trkpt lat="34.8987127" lon="32.8268682"><ele>923.2</ele><time>2015-04-29T10:00:09.0000000+00:00</time></trkpt><trkpt lat="34.898674" lon="32.8267842"><ele>923.0</ele><time>2015-04-29T10:00:10.0000000+00:00</time></trkpt><trkpt lat="34.8986334" lon="32.8266909"><ele>923.4</ele><time>2015-04-29T10:00:11.0000000+00:00</time></trkpt><trkpt lat="34.8985757" lon="32.8266283"><ele>922.1</ele><time>2015-04-29T10:00:12.0000000+00:00</time></trkpt><trkpt lat="34.8985218" lon="32.8265611"><ele>921.4</ele><time>2015-04-29T10:00:13.0000000+00:00</time></trkpt><trkpt lat="34.8984726" lon="32.8265023"><ele>920.1</ele><time>2015-04-29T10:00:14.0000000+00:00</time></trkpt><trkpt lat="34.8984196" lon="32.8264584"><ele>919.4</ele><time>2015-04-29T10:00:15.0000000+00:00</time></trkpt><trkpt lat="34.8983459" lon="32.8264166"><ele>918.1</ele><time>2015-04-29T10:00:16.0000000+00:00</time></trkpt><trkpt lat="34.8982682" lon="32.8263971"><ele>917.4</ele><time>2015-04-29T10:00:17.0000000+00:00</time></trkpt><trkpt lat="34.8981933" lon="32.8263828"><ele>917.1</ele><time>2015-04-29T10:00:18.0000000+00:00</time></trkpt><trkpt lat="34.8981292" lon="32.8263766"><ele>916.9</ele><time>2015-04-29T10:00:19.0000000+00:00</time></trkpt><trkpt lat="34.8980715" lon="32.8263729"><ele>915.8</ele><time>2015-04-29T10:00:20.0000000+00:00</time></trkpt><trkpt lat="34.8980216" lon="32.8263866"><ele>914.8</ele><time>2015-04-29T10:00:21.0000000+00:00</time></trkpt><trkpt lat="34.8979767" lon="32.826418"><ele>914.3</ele><time>2015-04-29T10:00:22.0000000+00:00</time></trkpt><trkpt lat="34.8979382" lon="32.8264668"><ele>913.5</ele><time>2015-04-29T10:00:23.0000000+00:00</time></trkpt><trkpt lat="34.8979144" lon="32.8265342"><ele>912.6</ele><time>2015-04-29T10:00:24.0000000+00:00</time></trkpt><trkpt lat="34.8979055" lon="32.8266068"><ele>911.2</ele><time>2015-04-29T10:00:25.0000000+00:00</time></trkpt><trkpt lat="34.8979128" lon="32.8266789"><ele>910.5</ele><time>2015-04-29T10:00:26.0000000+00:00</time></trkpt><trkpt lat="34.8979234" lon="32.826755"><ele>910.1</ele><time>2015-04-29T10:00:27.0000000+00:00</time></trkpt><trkpt lat="34.8979279" lon="32.8268397"><ele>909.4</ele><time>2015-04-29T10:00:28.0000000+00:00</time></trkpt><trkpt lat="34.8979239" lon="32.8269252"><ele>909.6</ele><time>2015-04-29T10:00:29.0000000+00:00</time></trkpt><trkpt lat="34.8979121" lon="32.8269888"><ele>909.2</ele><time>2015-04-29T10:00:30.0000000+00:00</time></trkpt><trkpt lat="34.8978857" lon="32.8270684"><ele>909.0</ele><time>2015-04-29T10:00:31.0000000+00:00</time></trkpt><trkpt lat="34.8978522" lon="32.8271241"><ele>908.9</ele><time>2015-04-29T10:00:32.0000000+00:00</time></trkpt><trkpt lat="34.8978123" lon="32.827181"><ele>909.3</ele><time>2015-04-29T10:00:33.0000000+00:00</time></trkpt><trkpt lat="34.8977714" lon="32.8272332"><ele>909.5</ele><time>2015-04-29T10:00:34.0000000+00:00</time></trkpt><trkpt lat="34.8977309" lon="32.827275"><ele>909.7</ele><time>2015-04-29T10:00:35.0000000+00:00</time></trkpt><trkpt lat="34.8976754" lon="32.827312"><ele>909.2</ele><time>2015-04-29T10:00:36.0000000+00:00</time></trkpt><trkpt lat="34.8976223" lon="32.8273594"><ele>908.5</ele><time>2015-04-29T10:00:37.0000000+00:00</time></trkpt><trkpt lat="34.8975829" lon="32.8274192"><ele>908.1</ele><time>2015-04-29T10:00:38.0000000+00:00</time></trkpt><trkpt lat="34.8975629" lon="32.8274792"><ele>907.4</ele><time>2015-04-29T10:00:39.0000000+00:00</time></trkpt><trkpt lat="34.8975714" lon="32.8275455"><ele>907.1</ele><time>2015-04-29T10:00:40.0000000+00:00</time></trkpt><trkpt lat="34.897582" lon="32.8276121"><ele>906.9</ele><time>2015-04-29T10:00:41.0000000+00:00</time></trkpt><trkpt lat="34.8975822" lon="32.8276794"><ele>906.4</ele><time>2015-04-29T10:00:42.0000000+00:00</time></trkpt><trkpt lat="34.8975919" lon="32.8277531"><ele>905.1</ele><time>2015-04-29T10:00:43.0000000+00:00</time></trkpt><trkpt lat="34.8976016" lon="32.8278294"><ele>904.9</ele><time>2015-04-29T10:00:44.0000000+00:00</time></trkpt><trkpt lat="34.8976056" lon="32.8278974"><ele>904.8</ele><time>2015-04-29T10:00:45.0000000+00:00</time></trkpt><trkpt lat="34.8975796" lon="32.8279477"><ele>904.8</ele><time>2015-04-29T10:00:46.0000000+00:00</time></trkpt><trkpt lat="34.8975053" lon="32.8279961"><ele>904.3</ele><time>2015-04-29T10:00:48.0000000+00:00</time></trkpt><trkpt lat="34.897432" lon="32.8280173"><ele>903.9</ele><time>2015-04-29T10:00:50.0000000+00:00</time></trkpt><trkpt lat="34.897357" lon="32.8280194"><ele>904.5</ele><time>2015-04-29T10:00:52.0000000+00:00</time></trkpt><trkpt lat="34.8972931" lon="32.8280134"><ele>904.5</ele><time>2015-04-29T10:00:54.0000000+00:00</time></trkpt><trkpt lat="34.8972172" lon="32.828026"><ele>904.2</ele><time>2015-04-29T10:00:56.0000000+00:00</time></trkpt><trkpt lat="34.8971483" lon="32.8280204"><ele>903.9</ele><time>2015-04-29T10:00:58.0000000+00:00</time></trkpt><trkpt lat="34.8970785" lon="32.8279975"><ele>903.8</ele><time>2015-04-29T10:01:00.0000000+00:00</time></trkpt><trkpt lat="34.8970062" lon="32.8279647"><ele>904.5</ele><time>2015-04-29T10:01:02.0000000+00:00</time></trkpt><trkpt lat="34.8969335" lon="32.8279315"><ele>905.5</ele><time>2015-04-29T10:01:04.0000000+00:00</time></trkpt><trkpt lat="34.8968624" lon="32.8279235"><ele>904.4</ele><time>2015-04-29T10:01:06.0000000+00:00</time></trkpt><trkpt lat="34.8968007" lon="32.8279532"><ele>904.7</ele><time>2015-04-29T10:01:08.0000000+00:00</time></trkpt><trkpt lat="34.8967588" lon="32.8280105"><ele>904.7</ele><time>2015-04-29T10:01:10.0000000+00:00</time></trkpt><trkpt lat="34.8967399" lon="32.8280874"><ele>906.3</ele><time>2015-04-29T10:01:12.0000000+00:00</time></trkpt><trkpt lat="34.8967316" lon="32.828176"><ele>905.4</ele><time>2015-04-29T10:01:14.0000000+00:00</time></trkpt><trkpt lat="34.8967443" lon="32.8282496"><ele>905.1</ele><time>2015-04-29T10:01:15.0000000+00:00</time></trkpt><trkpt lat="34.8967243" lon="32.8283428"><ele>904.1</ele><time>2015-04-29T10:01:17.0000000+00:00</time></trkpt><trkpt lat="34.8966998" lon="32.8283982"><ele>904.4</ele><time>2015-04-29T10:01:18.0000000+00:00</time></trkpt><trkpt lat="34.8966618" lon="32.8284337"><ele>904.1</ele><time>2015-04-29T10:01:19.0000000+00:00</time></trkpt><trkpt lat="34.8965971" lon="32.8284372"><ele>902.6</ele><time>2015-04-29T10:01:21.0000000+00:00</time></trkpt><trkpt lat="34.896528" lon="32.8283909"><ele>902.0</ele><time>2015-04-29T10:01:23.0000000+00:00</time></trkpt><trkpt lat="34.8964672" lon="32.8283286"><ele>900.8</ele><time>2015-04-29T10:01:25.0000000+00:00</time></trkpt><trkpt lat="34.896394" lon="32.8282914"><ele>900.5</ele><time>2015-04-29T10:01:27.0000000+00:00</time></trkpt><trkpt lat="34.8963512" lon="32.8282688"><ele>900.1</ele><time>2015-04-29T10:01:28.0000000+00:00</time></trkpt><trkpt lat="34.8963049" lon="32.8282539"><ele>900.0</ele><time>2015-04-29T10:01:29.0000000+00:00</time></trkpt><trkpt lat="34.896251" lon="32.8282367"><ele>900.4</ele><time>2015-04-29T10:01:30.0000000+00:00</time></trkpt><trkpt lat="34.8961684" lon="32.8282186"><ele>900.2</ele><time>2015-04-29T10:01:32.0000000+00:00</time></trkpt><trkpt lat="34.8960827" lon="32.8282267"><ele>901.1</ele><time>2015-04-29T10:01:34.0000000+00:00</time></trkpt><trkpt lat="34.8959984" lon="32.8282696"><ele>901.6</ele><time>2015-04-29T10:01:36.0000000+00:00</time></trkpt><trkpt lat="34.8959529" lon="32.8283059"><ele>901.2</ele><time>2015-04-29T10:01:37.0000000+00:00</time></trkpt><trkpt lat="34.8959198" lon="32.8283594"><ele>900.5</ele><time>2015-04-29T10:01:38.0000000+00:00</time></trkpt><trkpt lat="34.8958939" lon="32.8284094"><ele>900.1</ele><time>2015-04-29T10:01:39.0000000+00:00</time></trkpt><trkpt lat="34.8958645" lon="32.8284571"><ele>899.9</ele><time>2015-04-29T10:01:40.0000000+00:00</time></trkpt><trkpt lat="34.8957984" lon="32.8285275"><ele>899.8</ele><time>2015-04-29T10:01:42.0000000+00:00</time></trkpt><trkpt lat="34.8957342" lon="32.8285609"><ele>900.3</ele><time>2015-04-29T10:01:44.0000000+00:00</time></trkpt><trkpt lat="34.8956697" lon="32.8285641"><ele>899.9</ele><time>2015-04-29T10:01:46.0000000+00:00</time></trkpt><trkpt lat="34.8956002" lon="32.8285601"><ele>900.5</ele><time>2015-04-29T10:01:48.0000000+00:00</time></trkpt><trkpt lat="34.8955331" lon="32.8285596"><ele>900.7</ele><time>2015-04-29T10:01:50.0000000+00:00</time></trkpt><trkpt lat="34.8954664" lon="32.8285867"><ele>900.8</ele><time>2015-04-29T10:01:52.0000000+00:00</time></trkpt><trkpt lat="34.8954116" lon="32.8286196"><ele>900.8</ele><time>2015-04-29T10:01:54.0000000+00:00</time></trkpt><trkpt lat="34.8953732" lon="32.8286732"><ele>900.0</ele><time>2015-04-29T10:01:56.0000000+00:00</time></trkpt><trkpt lat="34.895349" lon="32.8287412"><ele>899.3</ele><time>2015-04-29T10:01:58.0000000+00:00</time></trkpt><trkpt lat="34.8953343" lon="32.8288166"><ele>898.9</ele><time>2015-04-29T10:02:00.0000000+00:00</time></trkpt><trkpt lat="34.8953264" lon="32.8289062"><ele>898.3</ele><time>2015-04-29T10:02:02.0000000+00:00</time></trkpt><trkpt lat="34.895319" lon="32.8289931"><ele>898.0</ele><time>2015-04-29T10:02:03.0000000+00:00</time></trkpt><trkpt lat="34.8953092" lon="32.8290475"><ele>897.4</ele><time>2015-04-29T10:02:04.0000000+00:00</time></trkpt><trkpt lat="34.895302" lon="32.8291037"><ele>897.6</ele><time>2015-04-29T10:02:05.0000000+00:00</time></trkpt><trkpt lat="34.8953047" lon="32.8291634"><ele>897.7</ele><time>2015-04-29T10:02:06.0000000+00:00</time></trkpt><trkpt lat="34.8952981" lon="32.8292232"><ele>897.2</ele><time>2015-04-29T10:02:07.0000000+00:00</time></trkpt><trkpt lat="34.8952913" lon="32.8292853"><ele>897.0</ele><time>2015-04-29T10:02:08.0000000+00:00</time></trkpt><trkpt lat="34.8952883" lon="32.8293538"><ele>896.9</ele><time>2015-04-29T10:02:09.0000000+00:00</time></trkpt><trkpt lat="34.8952776" lon="32.8294204"><ele>896.8</ele><time>2015-04-29T10:02:10.0000000+00:00</time></trkpt><trkpt lat="34.895267" lon="32.8294865"><ele>896.8</ele><time>2015-04-29T10:02:11.0000000+00:00</time></trkpt><trkpt lat="34.8952568" lon="32.8295594"><ele>896.8</ele><time>2015-04-29T10:02:12.0000000+00:00</time></trkpt><trkpt lat="34.895255" lon="32.8296242"><ele>896.3</ele><time>2015-04-29T10:02:13.0000000+00:00</time></trkpt><trkpt lat="34.8952442" lon="32.829698"><ele>896.5</ele><time>2015-04-29T10:02:14.0000000+00:00</time></trkpt><trkpt lat="34.8952258" lon="32.8297633"><ele>896.1</ele><time>2015-04-29T10:02:15.0000000+00:00</time></trkpt><trkpt lat="34.8951996" lon="32.8298275"><ele>896.0</ele><time>2015-04-29T10:02:16.0000000+00:00</time></trkpt><trkpt lat="34.8951555" lon="32.8299016"><ele>896.4</ele><time>2015-04-29T10:02:17.0000000+00:00</time></trkpt><trkpt lat="34.8951183" lon="32.8299677"><ele>896.1</ele><time>2015-04-29T10:02:18.0000000+00:00</time></trkpt><trkpt lat="34.8950753" lon="32.8300457"><ele>895.9</ele><time>2015-04-29T10:02:19.0000000+00:00</time></trkpt><trkpt lat="34.8950354" lon="32.8301262"><ele>895.3</ele><time>2015-04-29T10:02:20.0000000+00:00</time></trkpt><trkpt lat="34.8949972" lon="32.8301928"><ele>895.6</ele><time>2015-04-29T10:02:21.0000000+00:00</time></trkpt><trkpt lat="34.8949692" lon="32.8302392"><ele>895.7</ele><time>2015-04-29T10:02:22.0000000+00:00</time></trkpt><trkpt lat="34.8949337" lon="32.8302856"><ele>895.2</ele><time>2015-04-29T10:02:24.0000000+00:00</time></trkpt><trkpt lat="34.8949017" lon="32.8303265"><ele>895.6</ele><time>2015-04-29T10:02:26.0000000+00:00</time></trkpt><trkpt lat="34.8948619" lon="32.8303628"><ele>895.2</ele><time>2015-04-29T10:02:29.0000000+00:00</time></trkpt><trkpt lat="34.8948148" lon="32.8303608"><ele>896.4</ele><time>2015-04-29T10:02:31.0000000+00:00</time></trkpt><trkpt lat="34.8947628" lon="32.8303378"><ele>895.8</ele><time>2015-04-29T10:02:34.0000000+00:00</time></trkpt><trkpt lat="34.8947215" lon="32.8303648"><ele>895.5</ele><time>2015-04-29T10:02:38.0000000+00:00</time></trkpt><trkpt lat="34.8947022" lon="32.8304146"><ele>897.3</ele><time>2015-04-29T10:02:57.0000000+00:00</time></trkpt><trkpt lat="34.8946794" lon="32.8304676"><ele>896.4</ele><time>2015-04-29T10:02:59.0000000+00:00</time></trkpt><trkpt lat="34.8946586" lon="32.8305178"><ele>896.1</ele><time>2015-04-29T10:03:00.0000000+00:00</time></trkpt><trkpt lat="34.8946248" lon="32.8306197"><ele>895.9</ele><time>2015-04-29T10:03:01.0000000+00:00</time></trkpt><trkpt lat="34.8946048" lon="32.8306825"><ele>895.8</ele><time>2015-04-29T10:03:02.0000000+00:00</time></trkpt><trkpt lat="34.8945855" lon="32.8307446"><ele>895.8</ele><time>2015-04-29T10:03:03.0000000+00:00</time></trkpt><trkpt lat="34.8945664" lon="32.830813"><ele>895.8</ele><time>2015-04-29T10:03:04.0000000+00:00</time></trkpt><trkpt lat="34.8945532" lon="32.830881"><ele>895.8</ele><time>2015-04-29T10:03:05.0000000+00:00</time></trkpt><trkpt lat="34.8945446" lon="32.8309424"><ele>895.8</ele><time>2015-04-29T10:03:06.0000000+00:00</time></trkpt><trkpt lat="34.8945379" lon="32.8310015"><ele>895.8</ele><time>2015-04-29T10:03:07.0000000+00:00</time></trkpt><trkpt lat="34.8945281" lon="32.8310592"><ele>895.8</ele><time>2015-04-29T10:03:08.0000000+00:00</time></trkpt><trkpt lat="34.894518" lon="32.8311603"><ele>895.0</ele><time>2015-04-29T10:03:10.0000000+00:00</time></trkpt><trkpt lat="34.894499" lon="32.8312463"><ele>895.3</ele><time>2015-04-29T10:03:12.0000000+00:00</time></trkpt><trkpt lat="34.8944829" lon="32.8313235"><ele>895.7</ele><time>2015-04-29T10:03:14.0000000+00:00</time></trkpt><trkpt lat="34.8944568" lon="32.8314068"><ele>895.7</ele><time>2015-04-29T10:03:16.0000000+00:00</time></trkpt><trkpt lat="34.894433" lon="32.8314824"><ele>895.8</ele><time>2015-04-29T10:03:18.0000000+00:00</time></trkpt><trkpt lat="34.8944188" lon="32.8315551"><ele>895.3</ele><time>2015-04-29T10:03:20.0000000+00:00</time></trkpt><trkpt lat="34.8944045" lon="32.8316297"><ele>895.6</ele><time>2015-04-29T10:03:22.0000000+00:00</time></trkpt><trkpt lat="34.8943876" lon="32.8316945"><ele>895.7</ele><time>2015-04-29T10:03:24.0000000+00:00</time></trkpt><trkpt lat="34.8943775" lon="32.8317531"><ele>895.8</ele><time>2015-04-29T10:03:26.0000000+00:00</time></trkpt><trkpt lat="34.8943629" lon="32.8318127"><ele>895.5</ele><time>2015-04-29T10:03:28.0000000+00:00</time></trkpt><trkpt lat="34.8943435" lon="32.8318716"><ele>896.5</ele><time>2015-04-29T10:03:30.0000000+00:00</time></trkpt><trkpt lat="34.8943275" lon="32.8319311"><ele>896.7</ele><time>2015-04-29T10:03:32.0000000+00:00</time></trkpt><trkpt lat="34.8943257" lon="32.8319912"><ele>896.0</ele><time>2015-04-29T10:03:34.0000000+00:00</time></trkpt><trkpt lat="34.8943337" lon="32.8320552"><ele>895.8</ele><time>2015-04-29T10:03:36.0000000+00:00</time></trkpt><trkpt lat="34.8943496" lon="32.8321207"><ele>896.3</ele><time>2015-04-29T10:03:38.0000000+00:00</time></trkpt><trkpt lat="34.8943737" lon="32.832188"><ele>896.6</ele><time>2015-04-29T10:03:40.0000000+00:00</time></trkpt><trkpt lat="34.8944004" lon="32.8322531"><ele>897.2</ele><time>2015-04-29T10:03:42.0000000+00:00</time></trkpt><trkpt lat="34.8944204" lon="32.8323129"><ele>897.6</ele><time>2015-04-29T10:03:44.0000000+00:00</time></trkpt><trkpt lat="34.8944369" lon="32.8323716"><ele>897.7</ele><time>2015-04-29T10:03:46.0000000+00:00</time></trkpt><trkpt lat="34.8944512" lon="32.8324323"><ele>897.8</ele><time>2015-04-29T10:03:48.0000000+00:00</time></trkpt><trkpt lat="34.8944622" lon="32.8324967"><ele>899.3</ele><time>2015-04-29T10:03:50.0000000+00:00</time></trkpt><trkpt lat="34.8944695" lon="32.8325588"><ele>900.4</ele><time>2015-04-29T10:03:52.0000000+00:00</time></trkpt><trkpt lat="34.8944623" lon="32.8326229"><ele>899.2</ele><time>2015-04-29T10:03:54.0000000+00:00</time></trkpt><trkpt lat="34.8944456" lon="32.8326829"><ele>898.1</ele><time>2015-04-29T10:03:56.0000000+00:00</time></trkpt><trkpt lat="34.8944259" lon="32.8327368"><ele>897.6</ele><time>2015-04-29T10:03:58.0000000+00:00</time></trkpt><trkpt lat="34.8943959" lon="32.8327944"><ele>899.4</ele><time>2015-04-29T10:04:01.0000000+00:00</time></trkpt><trkpt lat="34.8943541" lon="32.8328507"><ele>899.3</ele><time>2015-04-29T10:04:04.0000000+00:00</time></trkpt><trkpt lat="34.8943226" lon="32.8329127"><ele>899.0</ele><time>2015-04-29T10:04:07.0000000+00:00</time></trkpt><trkpt lat="34.894304" lon="32.8329784"><ele>898.3</ele><time>2015-04-29T10:04:10.0000000+00:00</time></trkpt><trkpt lat="34.8942754" lon="32.833045"><ele>897.7</ele><time>2015-04-29T10:04:13.0000000+00:00</time></trkpt><trkpt lat="34.8942504" lon="32.8331099"><ele>897.8</ele><time>2015-04-29T10:04:16.0000000+00:00</time></trkpt><trkpt lat="34.8942274" lon="32.8331641"><ele>897.5</ele><time>2015-04-29T10:04:19.0000000+00:00</time></trkpt><trkpt lat="34.8941841" lon="32.8332175"><ele>897.7</ele><time>2015-04-29T10:04:22.0000000+00:00</time></trkpt><trkpt lat="34.8941483" lon="32.8332507"><ele>897.8</ele><time>2015-04-29T10:04:24.0000000+00:00</time></trkpt><trkpt lat="34.8941021" lon="32.8332684"><ele>898.8</ele><time>2015-04-29T10:04:26.0000000+00:00</time></trkpt><trkpt lat="34.8940528" lon="32.8332802"><ele>900.3</ele><time>2015-04-29T10:04:28.0000000+00:00</time></trkpt><trkpt lat="34.8940017" lon="32.8332944"><ele>900.6</ele><time>2015-04-29T10:04:30.0000000+00:00</time></trkpt><trkpt lat="34.8939445" lon="32.8332964"><ele>901.5</ele><time>2015-04-29T10:04:32.0000000+00:00</time></trkpt><trkpt lat="34.8938761" lon="32.8332909"><ele>902.2</ele><time>2015-04-29T10:04:34.0000000+00:00</time></trkpt><trkpt lat="34.8938046" lon="32.8332856"><ele>901.9</ele><time>2015-04-29T10:04:36.0000000+00:00</time></trkpt><trkpt lat="34.8937337" lon="32.8332786"><ele>901.8</ele><time>2015-04-29T10:04:38.0000000+00:00</time></trkpt><trkpt lat="34.893665" lon="32.833264"><ele>901.8</ele><time>2015-04-29T10:04:40.0000000+00:00</time></trkpt><trkpt lat="34.8936022" lon="32.8332484"><ele>902.3</ele><time>2015-04-29T10:04:42.0000000+00:00</time></trkpt><trkpt lat="34.8935426" lon="32.8332301"><ele>903.4</ele><time>2015-04-29T10:04:44.0000000+00:00</time></trkpt><trkpt lat="34.8934826" lon="32.833233"><ele>903.7</ele><time>2015-04-29T10:04:46.0000000+00:00</time></trkpt><trkpt lat="34.8934283" lon="32.8332664"><ele>903.7</ele><time>2015-04-29T10:04:48.0000000+00:00</time></trkpt><trkpt lat="34.8933942" lon="32.8333339"><ele>904.3</ele><time>2015-04-29T10:04:50.0000000+00:00</time></trkpt><trkpt lat="34.8933774" lon="32.8334211"><ele>904.6</ele><time>2015-04-29T10:04:52.0000000+00:00</time></trkpt><trkpt lat="34.8933717" lon="32.8335125"><ele>904.7</ele><time>2015-04-29T10:04:54.0000000+00:00</time></trkpt><trkpt lat="34.8933686" lon="32.8335956"><ele>905.5</ele><time>2015-04-29T10:04:56.0000000+00:00</time></trkpt><trkpt lat="34.8933667" lon="32.8336901"><ele>905.0</ele><time>2015-04-29T10:04:58.0000000+00:00</time></trkpt><trkpt lat="34.8933612" lon="32.8337774"><ele>904.8</ele><time>2015-04-29T10:05:00.0000000+00:00</time></trkpt><trkpt lat="34.8933458" lon="32.8338657"><ele>905.5</ele><time>2015-04-29T10:05:02.0000000+00:00</time></trkpt><trkpt lat="34.8933351" lon="32.8339535"><ele>907.0</ele><time>2015-04-29T10:05:04.0000000+00:00</time></trkpt><trkpt lat="34.8933229" lon="32.83404"><ele>908.1</ele><time>2015-04-29T10:05:06.0000000+00:00</time></trkpt><trkpt lat="34.8933058" lon="32.834122"><ele>908.8</ele><time>2015-04-29T10:05:08.0000000+00:00</time></trkpt><trkpt lat="34.8932826" lon="32.8341978"><ele>910.0</ele><time>2015-04-29T10:05:10.0000000+00:00</time></trkpt><trkpt lat="34.893258" lon="32.8342734"><ele>910.6</ele><time>2015-04-29T10:05:12.0000000+00:00</time></trkpt><trkpt lat="34.8932465" lon="32.8343474"><ele>911.5</ele><time>2015-04-29T10:05:14.0000000+00:00</time></trkpt><trkpt lat="34.8932409" lon="32.8344233"><ele>911.7</ele><time>2015-04-29T10:05:16.0000000+00:00</time></trkpt><trkpt lat="34.8932369" lon="32.8345025"><ele>912.7</ele><time>2015-04-29T10:05:18.0000000+00:00</time></trkpt><trkpt lat="34.8932468" lon="32.8345878"><ele>913.0</ele><time>2015-04-29T10:05:20.0000000+00:00</time></trkpt><trkpt lat="34.8932697" lon="32.8346653"><ele>912.3</ele><time>2015-04-29T10:05:22.0000000+00:00</time></trkpt><trkpt lat="34.8933107" lon="32.8347295"><ele>912.7</ele><time>2015-04-29T10:05:24.0000000+00:00</time></trkpt><trkpt lat="34.8933576" lon="32.8347953"><ele>912.0</ele><time>2015-04-29T10:05:26.0000000+00:00</time></trkpt><trkpt lat="34.893406" lon="32.834863"><ele>911.8</ele><time>2015-04-29T10:05:28.0000000+00:00</time></trkpt><trkpt lat="34.8934657" lon="32.8349205"><ele>911.8</ele><time>2015-04-29T10:05:30.0000000+00:00</time></trkpt><trkpt lat="34.893537" lon="32.8349667"><ele>911.8</ele><time>2015-04-29T10:05:32.0000000+00:00</time></trkpt><trkpt lat="34.8936197" lon="32.8349988"><ele>911.3</ele><time>2015-04-29T10:05:33.0000000+00:00</time></trkpt><trkpt lat="34.8936684" lon="32.8350234"><ele>910.5</ele><time>2015-04-29T10:05:34.0000000+00:00</time></trkpt><trkpt lat="34.8937214" lon="32.8350371"><ele>910.1</ele><time>2015-04-29T10:05:35.0000000+00:00</time></trkpt><trkpt lat="34.8937792" lon="32.8350604"><ele>909.5</ele><time>2015-04-29T10:05:36.0000000+00:00</time></trkpt><trkpt lat="34.8938451" lon="32.8351036"><ele>910.1</ele><time>2015-04-29T10:05:37.0000000+00:00</time></trkpt><trkpt lat="34.8939051" lon="32.835154"><ele>910.4</ele><time>2015-04-29T10:05:38.0000000+00:00</time></trkpt><trkpt lat="34.8939456" lon="32.8352155"><ele>910.1</ele><time>2015-04-29T10:05:39.0000000+00:00</time></trkpt><trkpt lat="34.8939828" lon="32.8352925"><ele>909.9</ele><time>2015-04-29T10:05:40.0000000+00:00</time></trkpt><trkpt lat="34.8940267" lon="32.8353483"><ele>909.3</ele><time>2015-04-29T10:05:41.0000000+00:00</time></trkpt><trkpt lat="34.8940566" lon="32.8354126"><ele>908.6</ele><time>2015-04-29T10:05:42.0000000+00:00</time></trkpt><trkpt lat="34.8940917" lon="32.8354822"><ele>907.7</ele><time>2015-04-29T10:05:43.0000000+00:00</time></trkpt><trkpt lat="34.8941282" lon="32.8355372"><ele>907.2</ele><time>2015-04-29T10:05:44.0000000+00:00</time></trkpt><trkpt lat="34.894177" lon="32.8355924"><ele>906.5</ele><time>2015-04-29T10:05:45.0000000+00:00</time></trkpt><trkpt lat="34.8942302" lon="32.8356305"><ele>906.1</ele><time>2015-04-29T10:05:46.0000000+00:00</time></trkpt><trkpt lat="34.8942853" lon="32.8356677"><ele>905.4</ele><time>2015-04-29T10:05:47.0000000+00:00</time></trkpt><trkpt lat="34.894348" lon="32.8357029"><ele>905.1</ele><time>2015-04-29T10:05:48.0000000+00:00</time></trkpt><trkpt lat="34.8944058" lon="32.8357358"><ele>904.9</ele><time>2015-04-29T10:05:49.0000000+00:00</time></trkpt><trkpt lat="34.8944572" lon="32.8357648"><ele>904.4</ele><time>2015-04-29T10:05:50.0000000+00:00</time></trkpt><trkpt lat="34.8945123" lon="32.835786"><ele>904.1</ele><time>2015-04-29T10:05:51.0000000+00:00</time></trkpt><trkpt lat="34.8945708" lon="32.8358128"><ele>904.4</ele><time>2015-04-29T10:05:52.0000000+00:00</time></trkpt><trkpt lat="34.894626" lon="32.8358483"><ele>904.1</ele><time>2015-04-29T10:05:53.0000000+00:00</time></trkpt><trkpt lat="34.8946819" lon="32.8358698"><ele>903.9</ele><time>2015-04-29T10:05:54.0000000+00:00</time></trkpt><trkpt lat="34.894737" lon="32.835901"><ele>903.8</ele><time>2015-04-29T10:05:55.0000000+00:00</time></trkpt><trkpt lat="34.8948019" lon="32.8359088"><ele>902.8</ele><time>2015-04-29T10:05:56.0000000+00:00</time></trkpt><trkpt lat="34.894859" lon="32.8359018"><ele>902.3</ele><time>2015-04-29T10:05:57.0000000+00:00</time></trkpt><trkpt lat="34.8949047" lon="32.8358576"><ele>902.0</ele><time>2015-04-29T10:05:58.0000000+00:00</time></trkpt><trkpt lat="34.8949517" lon="32.8358248"><ele>901.9</ele><time>2015-04-29T10:05:59.0000000+00:00</time></trkpt><trkpt lat="34.8950001" lon="32.8357941"><ele>901.8</ele><time>2015-04-29T10:06:00.0000000+00:00</time></trkpt><trkpt lat="34.895048" lon="32.8357755"><ele>901.8</ele><time>2015-04-29T10:06:01.0000000+00:00</time></trkpt><trkpt lat="34.8950952" lon="32.8357636"><ele>901.8</ele><time>2015-04-29T10:06:02.0000000+00:00</time></trkpt><trkpt lat="34.8951519" lon="32.8357661"><ele>901.8</ele><time>2015-04-29T10:06:03.0000000+00:00</time></trkpt><trkpt lat="34.8951989" lon="32.8357728"><ele>902.3</ele><time>2015-04-29T10:06:04.0000000+00:00</time></trkpt><trkpt lat="34.8952392" lon="32.8358054"><ele>902.0</ele><time>2015-04-29T10:06:05.0000000+00:00</time></trkpt><trkpt lat="34.8952743" lon="32.835883"><ele>902.6</ele><time>2015-04-29T10:06:07.0000000+00:00</time></trkpt><trkpt lat="34.8952976" lon="32.835967"><ele>902.7</ele><time>2015-04-29T10:06:09.0000000+00:00</time></trkpt><trkpt lat="34.895281" lon="32.8360269"><ele>902.7</ele><time>2015-04-29T10:06:13.0000000+00:00</time></trkpt><trkpt lat="34.895238" lon="32.8359995"><ele>901.3</ele><time>2015-04-29T10:06:26.0000000+00:00</time></trkpt><trkpt lat="34.8952148" lon="32.8360491"><ele>891.9</ele><time>2015-04-29T10:08:15.0000000+00:00</time></trkpt><trkpt lat="34.8951728" lon="32.8360736"><ele>899.2</ele><time>2015-04-29T10:08:56.0000000+00:00</time></trkpt><trkpt lat="34.8952149" lon="32.8360464"><ele>903.1</ele><time>2015-04-29T10:16:55.0000000+00:00</time></trkpt><trkpt lat="34.8952046" lon="32.8361054"><ele>906.9</ele><time>2015-04-29T10:26:31.0000000+00:00</time></trkpt><trkpt lat="34.895178" lon="32.836157"><ele>905.3</ele><time>2015-04-29T10:26:41.0000000+00:00</time></trkpt><trkpt lat="34.895143" lon="32.8362038"><ele>905.8</ele><time>2015-04-29T10:26:46.0000000+00:00</time></trkpt><trkpt lat="34.8951009" lon="32.8362491"><ele>905.5</ele><time>2015-04-29T10:26:50.0000000+00:00</time></trkpt><trkpt lat="34.8950647" lon="32.8362968"><ele>905.7</ele><time>2015-04-29T10:26:53.0000000+00:00</time></trkpt><trkpt lat="34.8950297" lon="32.8363374"><ele>904.9</ele><time>2015-04-29T10:26:56.0000000+00:00</time></trkpt><trkpt lat="34.8949812" lon="32.8363587"><ele>904.6</ele><time>2015-04-29T10:27:00.0000000+00:00</time></trkpt><trkpt lat="34.8949868" lon="32.836304"><ele>909.0</ele><time>2015-04-29T10:27:15.0000000+00:00</time></trkpt><trkpt lat="34.8950373" lon="32.8362709"><ele>907.6</ele><time>2015-04-29T10:27:26.0000000+00:00</time></trkpt><trkpt lat="34.8950784" lon="32.8362289"><ele>906.4</ele><time>2015-04-29T10:27:30.0000000+00:00</time></trkpt><trkpt lat="34.8951155" lon="32.8361828"><ele>906.2</ele><time>2015-04-29T10:27:34.0000000+00:00</time></trkpt><trkpt lat="34.8951548" lon="32.8361313"><ele>905.8</ele><time>2015-04-29T10:27:38.0000000+00:00</time></trkpt><trkpt lat="34.895193" lon="32.8360931"><ele>906.5</ele><time>2015-04-29T10:27:42.0000000+00:00</time></trkpt><trkpt lat="34.8952339" lon="32.8360568"><ele>903.6</ele><time>2015-04-29T10:27:47.0000000+00:00</time></trkpt><trkpt lat="34.8952311" lon="32.8359963"><ele>907.4</ele><time>2015-04-29T10:29:18.0000000+00:00</time></trkpt><trkpt lat="34.8952284" lon="32.8359337"><ele>906.3</ele><time>2015-04-29T10:29:23.0000000+00:00</time></trkpt><trkpt lat="34.8952288" lon="32.8358733"><ele>902.3</ele><time>2015-04-29T10:29:40.0000000+00:00</time></trkpt><trkpt lat="34.8952681" lon="32.8359011"><ele>899.0</ele><time>2015-04-29T10:29:56.0000000+00:00</time></trkpt><trkpt lat="34.8952696" lon="32.8359603"><ele>895.6</ele><time>2015-04-29T10:30:03.0000000+00:00</time></trkpt><trkpt lat="34.8952623" lon="32.836016"><ele>896.2</ele><time>2015-04-29T10:30:09.0000000+00:00</time></trkpt><trkpt lat="34.895304" lon="32.8360485"><ele>905.3</ele><time>2015-04-29T10:32:25.0000000+00:00</time></trkpt><trkpt lat="34.8953552" lon="32.8360696"><ele>904.9</ele><time>2015-04-29T10:32:33.0000000+00:00</time></trkpt><trkpt lat="34.8954036" lon="32.8360777"><ele>905.7</ele><time>2015-04-29T10:32:37.0000000+00:00</time></trkpt><trkpt lat="34.8954538" lon="32.8361006"><ele>906.8</ele><time>2015-04-29T10:32:41.0000000+00:00</time></trkpt><trkpt lat="34.8954903" lon="32.8361334"><ele>907.8</ele><time>2015-04-29T10:32:45.0000000+00:00</time></trkpt><trkpt lat="34.8955249" lon="32.8361753"><ele>909.0</ele><time>2015-04-29T10:32:56.0000000+00:00</time></trkpt><trkpt lat="34.8955721" lon="32.8361729"><ele>907.6</ele><time>2015-04-29T10:35:17.0000000+00:00</time></trkpt><trkpt lat="34.8956186" lon="32.8361859"><ele>906.7</ele><time>2015-04-29T10:35:34.0000000+00:00</time></trkpt><trkpt lat="34.8955659" lon="32.8361624"><ele>910.3</ele><time>2015-04-29T10:41:22.0000000+00:00</time></trkpt><trkpt lat="34.8955144" lon="32.836155"><ele>910.5</ele><time>2015-04-29T10:41:26.0000000+00:00</time></trkpt><trkpt lat="34.8954651" lon="32.8361375"><ele>911.4</ele><time>2015-04-29T10:41:30.0000000+00:00</time></trkpt><trkpt lat="34.8954192" lon="32.836119"><ele>912.9</ele><time>2015-04-29T10:41:34.0000000+00:00</time></trkpt><trkpt lat="34.8953774" lon="32.8360878"><ele>914.4</ele><time>2015-04-29T10:41:39.0000000+00:00</time></trkpt><trkpt lat="34.89542" lon="32.8361091"><ele>911.1</ele><time>2015-04-29T10:41:51.0000000+00:00</time></trkpt><trkpt lat="34.8954694" lon="32.83613"><ele>909.8</ele><time>2015-04-29T10:41:56.0000000+00:00</time></trkpt><trkpt lat="34.8955148" lon="32.836157"><ele>908.8</ele><time>2015-04-29T10:42:01.0000000+00:00</time></trkpt><trkpt lat="34.8955568" lon="32.8361847"><ele>908.6</ele><time>2015-04-29T10:42:05.0000000+00:00</time></trkpt><trkpt lat="34.8956011" lon="32.8361987"><ele>912.0</ele><time>2015-04-29T10:42:24.0000000+00:00</time></trkpt><trkpt lat="34.8955573" lon="32.8361748"><ele>906.9</ele><time>2015-04-29T10:44:00.0000000+00:00</time></trkpt><trkpt lat="34.8955148" lon="32.83614"><ele>906.2</ele><time>2015-04-29T10:44:06.0000000+00:00</time></trkpt><trkpt lat="34.8954714" lon="32.836102"><ele>907.9</ele><time>2015-04-29T10:44:12.0000000+00:00</time></trkpt><trkpt lat="34.8954192" lon="32.8360971"><ele>911.3</ele><time>2015-04-29T10:44:16.0000000+00:00</time></trkpt><trkpt lat="34.8953611" lon="32.8360827"><ele>913.9</ele><time>2015-04-29T10:44:20.0000000+00:00</time></trkpt><trkpt lat="34.8953067" lon="32.8360735"><ele>915.5</ele><time>2015-04-29T10:44:24.0000000+00:00</time></trkpt><trkpt lat="34.8952566" lon="32.8360683"><ele>915.0</ele><time>2015-04-29T10:44:28.0000000+00:00</time></trkpt><trkpt lat="34.8952089" lon="32.8360588"><ele>912.1</ele><time>2015-04-29T10:44:34.0000000+00:00</time></trkpt><trkpt lat="34.8952081" lon="32.8361146"><ele>911.1</ele><time>2015-04-29T10:46:23.0000000+00:00</time></trkpt><trkpt lat="34.8951751" lon="32.8361584"><ele>911.2</ele><time>2015-04-29T10:46:27.0000000+00:00</time></trkpt><trkpt lat="34.8951387" lon="32.836208"><ele>909.8</ele><time>2015-04-29T10:46:31.0000000+00:00</time></trkpt><trkpt lat="34.89511" lon="32.8362634"><ele>909.2</ele><time>2015-04-29T10:46:35.0000000+00:00</time></trkpt><trkpt lat="34.8950785" lon="32.8363139"><ele>909.3</ele><time>2015-04-29T10:46:39.0000000+00:00</time></trkpt><trkpt lat="34.8950376" lon="32.8363521"><ele>910.1</ele><time>2015-04-29T10:46:43.0000000+00:00</time></trkpt><trkpt lat="34.894988" lon="32.8363844"><ele>909.0</ele><time>2015-04-29T10:46:47.0000000+00:00</time></trkpt><trkpt lat="34.8949439" lon="32.8364318"><ele>908.8</ele><time>2015-04-29T10:46:51.0000000+00:00</time></trkpt><trkpt lat="34.8949006" lon="32.836473"><ele>908.3</ele><time>2015-04-29T10:46:55.0000000+00:00</time></trkpt><trkpt lat="34.8948535" lon="32.83648"><ele>907.8</ele><time>2015-04-29T10:46:59.0000000+00:00</time></trkpt><trkpt lat="34.8948083" lon="32.8364674"><ele>905.6</ele><time>2015-04-29T10:47:03.0000000+00:00</time></trkpt><trkpt lat="34.8947518" lon="32.8364576"><ele>907.1</ele><time>2015-04-29T10:47:07.0000000+00:00</time></trkpt><trkpt lat="34.8946958" lon="32.8364455"><ele>906.5</ele><time>2015-04-29T10:47:11.0000000+00:00</time></trkpt><trkpt lat="34.8946461" lon="32.8364466"><ele>905.1</ele><time>2015-04-29T10:47:15.0000000+00:00</time></trkpt><trkpt lat="34.8945914" lon="32.8364416"><ele>905.5</ele><time>2015-04-29T10:47:19.0000000+00:00</time></trkpt><trkpt lat="34.894532" lon="32.8364351"><ele>903.9</ele><time>2015-04-29T10:47:23.0000000+00:00</time></trkpt><trkpt lat="34.8944796" lon="32.8364241"><ele>904.5</ele><time>2015-04-29T10:47:26.0000000+00:00</time></trkpt><trkpt lat="34.8944249" lon="32.8364173"><ele>905.0</ele><time>2015-04-29T10:47:29.0000000+00:00</time></trkpt><trkpt lat="34.8943699" lon="32.8364213"><ele>907.0</ele><time>2015-04-29T10:47:33.0000000+00:00</time></trkpt><trkpt lat="34.8943233" lon="32.8364164"><ele>908.5</ele><time>2015-04-29T10:47:37.0000000+00:00</time></trkpt><trkpt lat="34.8942673" lon="32.8364054"><ele>911.1</ele><time>2015-04-29T10:47:41.0000000+00:00</time></trkpt><trkpt lat="34.894219" lon="32.8363961"><ele>911.6</ele><time>2015-04-29T10:47:44.0000000+00:00</time></trkpt><trkpt lat="34.8941671" lon="32.8363919"><ele>910.9</ele><time>2015-04-29T10:47:47.0000000+00:00</time></trkpt><trkpt lat="34.8941189" lon="32.8363884"><ele>911.0</ele><time>2015-04-29T10:47:50.0000000+00:00</time></trkpt><trkpt lat="34.8940763" lon="32.8364078"><ele>908.8</ele><time>2015-04-29T10:47:53.0000000+00:00</time></trkpt><trkpt lat="34.894034" lon="32.8364354"><ele>908.9</ele><time>2015-04-29T10:47:56.0000000+00:00</time></trkpt><trkpt lat="34.8939831" lon="32.8364405"><ele>908.3</ele><time>2015-04-29T10:47:59.0000000+00:00</time></trkpt><trkpt lat="34.8939375" lon="32.8364664"><ele>904.2</ele><time>2015-04-29T10:48:03.0000000+00:00</time></trkpt><trkpt lat="34.8939138" lon="32.8365194"><ele>906.5</ele><time>2015-04-29T10:48:08.0000000+00:00</time></trkpt><trkpt lat="34.8939055" lon="32.8365852"><ele>909.2</ele><time>2015-04-29T10:48:13.0000000+00:00</time></trkpt><trkpt lat="34.8939222" lon="32.8366418"><ele>911.2</ele><time>2015-04-29T10:48:17.0000000+00:00</time></trkpt><trkpt lat="34.8939423" lon="32.8367007"><ele>911.2</ele><time>2015-04-29T10:48:21.0000000+00:00</time></trkpt><trkpt lat="34.89397" lon="32.8367607"><ele>912.2</ele><time>2015-04-29T10:48:25.0000000+00:00</time></trkpt><trkpt lat="34.8939938" lon="32.8368256"><ele>913.7</ele><time>2015-04-29T10:48:29.0000000+00:00</time></trkpt><trkpt lat="34.8940112" lon="32.8368762"><ele>915.3</ele><time>2015-04-29T10:48:32.0000000+00:00</time></trkpt><trkpt lat="34.8940351" lon="32.836931"><ele>913.6</ele><time>2015-04-29T10:48:35.0000000+00:00</time></trkpt><trkpt lat="34.894052" lon="32.8369914"><ele>912.4</ele><time>2015-04-29T10:48:38.0000000+00:00</time></trkpt><trkpt lat="34.8940763" lon="32.8370568"><ele>912.5</ele><time>2015-04-29T10:48:41.0000000+00:00</time></trkpt><trkpt lat="34.8940949" lon="32.8371073"><ele>913.9</ele><time>2015-04-29T10:48:43.0000000+00:00</time></trkpt><trkpt lat="34.8941121" lon="32.837163"><ele>915.3</ele><time>2015-04-29T10:48:45.0000000+00:00</time></trkpt><trkpt lat="34.8941286" lon="32.8372253"><ele>914.4</ele><time>2015-04-29T10:48:47.0000000+00:00</time></trkpt><trkpt lat="34.8941337" lon="32.8372966"><ele>913.4</ele><time>2015-04-29T10:48:49.0000000+00:00</time></trkpt><trkpt lat="34.8941162" lon="32.8373676"><ele>913.7</ele><time>2015-04-29T10:48:51.0000000+00:00</time></trkpt><trkpt lat="34.8940766" lon="32.8374218"><ele>913.7</ele><time>2015-04-29T10:48:53.0000000+00:00</time></trkpt><trkpt lat="34.8940184" lon="32.8374358"><ele>913.8</ele><time>2015-04-29T10:48:55.0000000+00:00</time></trkpt><trkpt lat="34.8939566" lon="32.8374361"><ele>913.8</ele><time>2015-04-29T10:48:57.0000000+00:00</time></trkpt><trkpt lat="34.8938976" lon="32.837424"><ele>913.0</ele><time>2015-04-29T10:48:59.0000000+00:00</time></trkpt><trkpt lat="34.8938358" lon="32.8373921"><ele>913.3</ele><time>2015-04-29T10:49:01.0000000+00:00</time></trkpt><trkpt lat="34.8937708" lon="32.8373663"><ele>913.7</ele><time>2015-04-29T10:49:03.0000000+00:00</time></trkpt><trkpt lat="34.8937012" lon="32.83735"><ele>914.2</ele><time>2015-04-29T10:49:05.0000000+00:00</time></trkpt><trkpt lat="34.8936372" lon="32.8373422"><ele>914.4</ele><time>2015-04-29T10:49:07.0000000+00:00</time></trkpt><trkpt lat="34.8935915" lon="32.8373456"><ele>913.6</ele><time>2015-04-29T10:49:08.0000000+00:00</time></trkpt><trkpt lat="34.8935258" lon="32.8373354"><ele>910.5</ele><time>2015-04-29T10:49:10.0000000+00:00</time></trkpt><trkpt lat="34.8934747" lon="32.8372863"><ele>909.2</ele><time>2015-04-29T10:49:12.0000000+00:00</time></trkpt><trkpt lat="34.8934354" lon="32.8372201"><ele>908.9</ele><time>2015-04-29T10:49:14.0000000+00:00</time></trkpt><trkpt lat="34.8933996" lon="32.83715"><ele>909.5</ele><time>2015-04-29T10:49:16.0000000+00:00</time></trkpt><trkpt lat="34.8933691" lon="32.8370834"><ele>909.2</ele><time>2015-04-29T10:49:18.0000000+00:00</time></trkpt><trkpt lat="34.8933375" lon="32.8370215"><ele>910.4</ele><time>2015-04-29T10:49:20.0000000+00:00</time></trkpt><trkpt lat="34.893302" lon="32.8369654"><ele>911.9</ele><time>2015-04-29T10:49:22.0000000+00:00</time></trkpt><trkpt lat="34.8932746" lon="32.8369153"><ele>911.8</ele><time>2015-04-29T10:49:24.0000000+00:00</time></trkpt><trkpt lat="34.8932478" lon="32.8368707"><ele>912.5</ele><time>2015-04-29T10:49:26.0000000+00:00</time></trkpt><trkpt lat="34.8932153" lon="32.8368162"><ele>914.0</ele><time>2015-04-29T10:49:29.0000000+00:00</time></trkpt><trkpt lat="34.8931696" lon="32.836768"><ele>913.3</ele><time>2015-04-29T10:49:32.0000000+00:00</time></trkpt><trkpt lat="34.8931333" lon="32.8367239"><ele>914.4</ele><time>2015-04-29T10:49:34.0000000+00:00</time></trkpt><trkpt lat="34.8930972" lon="32.8366699"><ele>914.7</ele><time>2015-04-29T10:49:36.0000000+00:00</time></trkpt><trkpt lat="34.8930652" lon="32.8366115"><ele>916.2</ele><time>2015-04-29T10:49:38.0000000+00:00</time></trkpt><trkpt lat="34.8930419" lon="32.8365515"><ele>917.0</ele><time>2015-04-29T10:49:39.0000000+00:00</time></trkpt><trkpt lat="34.8930105" lon="32.8364508"><ele>916.6</ele><time>2015-04-29T10:49:41.0000000+00:00</time></trkpt><trkpt lat="34.892977" lon="32.8363526"><ele>916.7</ele><time>2015-04-29T10:49:43.0000000+00:00</time></trkpt><trkpt lat="34.8929284" lon="32.8362559"><ele>917.5</ele><time>2015-04-29T10:49:45.0000000+00:00</time></trkpt><trkpt lat="34.8928396" lon="32.8361523"><ele>918.9</ele><time>2015-04-29T10:49:47.0000000+00:00</time></trkpt><trkpt lat="34.8927929" lon="32.8360821"><ele>918.8</ele><time>2015-04-29T10:49:49.0000000+00:00</time></trkpt><trkpt lat="34.8927243" lon="32.8360444"><ele>918.8</ele><time>2015-04-29T10:49:51.0000000+00:00</time></trkpt><trkpt lat="34.892661" lon="32.8360377"><ele>918.0</ele><time>2015-04-29T10:49:53.0000000+00:00</time></trkpt><trkpt lat="34.892591" lon="32.8360514"><ele>917.8</ele><time>2015-04-29T10:49:55.0000000+00:00</time></trkpt><trkpt lat="34.8925258" lon="32.8360924"><ele>917.3</ele><time>2015-04-29T10:49:57.0000000+00:00</time></trkpt><trkpt lat="34.8924745" lon="32.8361414"><ele>916.9</ele><time>2015-04-29T10:49:59.0000000+00:00</time></trkpt><trkpt lat="34.8924473" lon="32.8362068"><ele>915.5</ele><time>2015-04-29T10:50:01.0000000+00:00</time></trkpt><trkpt lat="34.8924294" lon="32.8362755"><ele>914.2</ele><time>2015-04-29T10:50:03.0000000+00:00</time></trkpt><trkpt lat="34.8924317" lon="32.8363541"><ele>914.1</ele><time>2015-04-29T10:50:05.0000000+00:00</time></trkpt><trkpt lat="34.892453" lon="32.8364164"><ele>914.4</ele><time>2015-04-29T10:50:07.0000000+00:00</time></trkpt><trkpt lat="34.8924611" lon="32.8364728"><ele>916.7</ele><time>2015-04-29T10:50:09.0000000+00:00</time></trkpt><trkpt lat="34.8924571" lon="32.8365296"><ele>917.5</ele><time>2015-04-29T10:50:11.0000000+00:00</time></trkpt><trkpt lat="34.8924624" lon="32.8366056"><ele>917.0</ele><time>2015-04-29T10:50:14.0000000+00:00</time></trkpt><trkpt lat="34.8924704" lon="32.8366715"><ele>916.0</ele><time>2015-04-29T10:50:17.0000000+00:00</time></trkpt><trkpt lat="34.8924958" lon="32.8367227"><ele>915.3</ele><time>2015-04-29T10:50:21.0000000+00:00</time></trkpt><trkpt lat="34.8925426" lon="32.8367625"><ele>915.1</ele><time>2015-04-29T10:50:25.0000000+00:00</time></trkpt><trkpt lat="34.8925905" lon="32.8367907"><ele>912.3</ele><time>2015-04-29T10:50:28.0000000+00:00</time></trkpt><trkpt lat="34.8926136" lon="32.8368386"><ele>912.0</ele><time>2015-04-29T10:50:31.0000000+00:00</time></trkpt><trkpt lat="34.8926147" lon="32.8369115"><ele>914.5</ele><time>2015-04-29T10:50:35.0000000+00:00</time></trkpt><trkpt lat="34.8926002" lon="32.8369746"><ele>915.9</ele><time>2015-04-29T10:50:39.0000000+00:00</time></trkpt><trkpt lat="34.8925601" lon="32.8370102"><ele>916.9</ele><time>2015-04-29T10:50:43.0000000+00:00</time></trkpt><trkpt lat="34.8925215" lon="32.837059"><ele>916.3</ele><time>2015-04-29T10:50:49.0000000+00:00</time></trkpt><trkpt lat="34.892501" lon="32.8371168"><ele>920.9</ele><time>2015-04-29T10:50:53.0000000+00:00</time></trkpt><trkpt lat="34.8924564" lon="32.8370974"><ele>922.8</ele><time>2015-04-29T10:50:58.0000000+00:00</time></trkpt><trkpt lat="34.8925082" lon="32.8371093"><ele>929.0</ele><time>2015-04-29T10:51:25.0000000+00:00</time></trkpt><trkpt lat="34.8925539" lon="32.8371057"><ele>928.7</ele><time>2015-04-29T10:51:29.0000000+00:00</time></trkpt><trkpt lat="34.8926042" lon="32.8370898"><ele>931.8</ele><time>2015-04-29T10:51:33.0000000+00:00</time></trkpt><trkpt lat="34.8926493" lon="32.8371234"><ele>931.6</ele><time>2015-04-29T10:51:37.0000000+00:00</time></trkpt><trkpt lat="34.8926065" lon="32.8370791"><ele>930.8</ele><time>2015-04-29T10:51:55.0000000+00:00</time></trkpt><trkpt lat="34.8925588" lon="32.8370795"><ele>929.9</ele><time>2015-04-29T10:51:58.0000000+00:00</time></trkpt><trkpt lat="34.892504" lon="32.8370757"><ele>927.0</ele><time>2015-04-29T10:52:02.0000000+00:00</time></trkpt><trkpt lat="34.8924565" lon="32.8370866"><ele>929.4</ele><time>2015-04-29T10:52:08.0000000+00:00</time></trkpt><trkpt lat="34.8923996" lon="32.8370691"><ele>929.9</ele><time>2015-04-29T10:52:12.0000000+00:00</time></trkpt><trkpt lat="34.8923565" lon="32.837051"><ele>927.7</ele><time>2015-04-29T10:52:15.0000000+00:00</time></trkpt><trkpt lat="34.8923" lon="32.8370567"><ele>925.9</ele><time>2015-04-29T10:52:19.0000000+00:00</time></trkpt><trkpt lat="34.8922597" lon="32.837084"><ele>926.5</ele><time>2015-04-29T10:52:22.0000000+00:00</time></trkpt><trkpt lat="34.8922224" lon="32.8371405"><ele>926.8</ele><time>2015-04-29T10:52:26.0000000+00:00</time></trkpt><trkpt lat="34.8922071" lon="32.8371957"><ele>924.3</ele><time>2015-04-29T10:52:29.0000000+00:00</time></trkpt><trkpt lat="34.8921917" lon="32.8372575"><ele>923.8</ele><time>2015-04-29T10:52:32.0000000+00:00</time></trkpt><trkpt lat="34.8921641" lon="32.8373306"><ele>926.4</ele><time>2015-04-29T10:52:35.0000000+00:00</time></trkpt><trkpt lat="34.8921578" lon="32.8373942"><ele>926.4</ele><time>2015-04-29T10:52:37.0000000+00:00</time></trkpt><trkpt lat="34.8921682" lon="32.8374507"><ele>925.9</ele><time>2015-04-29T10:52:39.0000000+00:00</time></trkpt><trkpt lat="34.892188" lon="32.8375044"><ele>924.1</ele><time>2015-04-29T10:52:41.0000000+00:00</time></trkpt><trkpt lat="34.8922014" lon="32.8375579"><ele>924.3</ele><time>2015-04-29T10:52:43.0000000+00:00</time></trkpt><trkpt lat="34.8922044" lon="32.8376157"><ele>926.2</ele><time>2015-04-29T10:52:45.0000000+00:00</time></trkpt><trkpt lat="34.8922114" lon="32.8376703"><ele>926.1</ele><time>2015-04-29T10:52:47.0000000+00:00</time></trkpt><trkpt lat="34.8922208" lon="32.8377267"><ele>926.1</ele><time>2015-04-29T10:52:49.0000000+00:00</time></trkpt><trkpt lat="34.8922249" lon="32.8378071"><ele>925.8</ele><time>2015-04-29T10:52:52.0000000+00:00</time></trkpt><trkpt lat="34.892218" lon="32.8378874"><ele>926.5</ele><time>2015-04-29T10:52:55.0000000+00:00</time></trkpt><trkpt lat="34.8922106" lon="32.83796"><ele>927.5</ele><time>2015-04-29T10:52:58.0000000+00:00</time></trkpt><trkpt lat="34.8921896" lon="32.8380304"><ele>928.5</ele><time>2015-04-29T10:53:01.0000000+00:00</time></trkpt><trkpt lat="34.8921788" lon="32.8381019"><ele>930.0</ele><time>2015-04-29T10:53:04.0000000+00:00</time></trkpt><trkpt lat="34.8921646" lon="32.8381715"><ele>932.8</ele><time>2015-04-29T10:53:07.0000000+00:00</time></trkpt><trkpt lat="34.892165" lon="32.8382316"><ele>934.3</ele><time>2015-04-29T10:53:10.0000000+00:00</time></trkpt><trkpt lat="34.8921716" lon="32.8383025"><ele>933.9</ele><time>2015-04-29T10:53:14.0000000+00:00</time></trkpt><trkpt lat="34.8921813" lon="32.838358"><ele>932.9</ele><time>2015-04-29T10:53:17.0000000+00:00</time></trkpt><trkpt lat="34.8921962" lon="32.8384265"><ele>932.6</ele><time>2015-04-29T10:53:21.0000000+00:00</time></trkpt><trkpt lat="34.8921885" lon="32.8384866"><ele>931.8</ele><time>2015-04-29T10:53:25.0000000+00:00</time></trkpt><trkpt lat="34.8922394" lon="32.838505"><ele>926.6</ele><time>2015-04-29T10:53:35.0000000+00:00</time></trkpt><trkpt lat="34.8922739" lon="32.8384556"><ele>927.2</ele><time>2015-04-29T10:53:39.0000000+00:00</time></trkpt><trkpt lat="34.8923009" lon="32.8384062"><ele>929.5</ele><time>2015-04-29T10:53:43.0000000+00:00</time></trkpt><trkpt lat="34.8922818" lon="32.838339"><ele>931.6</ele><time>2015-04-29T10:53:47.0000000+00:00</time></trkpt><trkpt lat="34.892263" lon="32.8382843"><ele>932.1</ele><time>2015-04-29T10:53:50.0000000+00:00</time></trkpt><trkpt lat="34.8922526" lon="32.838221"><ele>932.4</ele><time>2015-04-29T10:53:54.0000000+00:00</time></trkpt><trkpt lat="34.8922585" lon="32.8381578"><ele>932.9</ele><time>2015-04-29T10:53:58.0000000+00:00</time></trkpt><trkpt lat="34.8923081" lon="32.8381365"><ele>932.8</ele><time>2015-04-29T10:54:35.0000000+00:00</time></trkpt><trkpt lat="34.8923597" lon="32.8381594"><ele>933.7</ele><time>2015-04-29T10:54:39.0000000+00:00</time></trkpt><trkpt lat="34.8923742" lon="32.838213"><ele>934.5</ele><time>2015-04-29T10:54:42.0000000+00:00</time></trkpt><trkpt lat="34.8923798" lon="32.8382732"><ele>934.7</ele><time>2015-04-29T10:54:45.0000000+00:00</time></trkpt><trkpt lat="34.8923866" lon="32.8383321"><ele>934.8</ele><time>2015-04-29T10:54:48.0000000+00:00</time></trkpt><trkpt lat="34.8924015" lon="32.8383978"><ele>939.9</ele><time>2015-04-29T10:54:52.0000000+00:00</time></trkpt><trkpt lat="34.8924038" lon="32.8384641"><ele>941.6</ele><time>2015-04-29T10:54:56.0000000+00:00</time></trkpt><trkpt lat="34.8924078" lon="32.8385312"><ele>941.4</ele><time>2015-04-29T10:55:00.0000000+00:00</time></trkpt><trkpt lat="34.892402" lon="32.8385958"><ele>942.5</ele><time>2015-04-29T10:55:04.0000000+00:00</time></trkpt><trkpt lat="34.8924001" lon="32.8386682"><ele>941.1</ele><time>2015-04-29T10:55:08.0000000+00:00</time></trkpt><trkpt lat="34.8923947" lon="32.8387349"><ele>941.6</ele><time>2015-04-29T10:55:11.0000000+00:00</time></trkpt><trkpt lat="34.892384" lon="32.8387924"><ele>942.5</ele><time>2015-04-29T10:55:14.0000000+00:00</time></trkpt><trkpt lat="34.8923752" lon="32.8388522"><ele>944.2</ele><time>2015-04-29T10:55:17.0000000+00:00</time></trkpt><trkpt lat="34.8923663" lon="32.8389182"><ele>943.3</ele><time>2015-04-29T10:55:20.0000000+00:00</time></trkpt><trkpt lat="34.8923519" lon="32.838986"><ele>943.2</ele><time>2015-04-29T10:55:23.0000000+00:00</time></trkpt><trkpt lat="34.8923302" lon="32.8390474"><ele>942.8</ele><time>2015-04-29T10:55:26.0000000+00:00</time></trkpt><trkpt lat="34.8923042" lon="32.8390978"><ele>943.3</ele><time>2015-04-29T10:55:29.0000000+00:00</time></trkpt><trkpt lat="34.8922708" lon="32.8391557"><ele>941.7</ele><time>2015-04-29T10:55:33.0000000+00:00</time></trkpt><trkpt lat="34.8922342" lon="32.8392072"><ele>942.2</ele><time>2015-04-29T10:55:37.0000000+00:00</time></trkpt><trkpt lat="34.8921762" lon="32.8392311"><ele>943.5</ele><time>2015-04-29T10:55:41.0000000+00:00</time></trkpt><trkpt lat="34.8921282" lon="32.8392487"><ele>943.2</ele><time>2015-04-29T10:55:44.0000000+00:00</time></trkpt><trkpt lat="34.8920793" lon="32.8392526"><ele>941.4</ele><time>2015-04-29T10:55:47.0000000+00:00</time></trkpt><trkpt lat="34.8920254" lon="32.8392471"><ele>942.6</ele><time>2015-04-29T10:55:50.0000000+00:00</time></trkpt><trkpt lat="34.8919736" lon="32.8392461"><ele>943.9</ele><time>2015-04-29T10:55:53.0000000+00:00</time></trkpt><trkpt lat="34.8919287" lon="32.8392284"><ele>945.2</ele><time>2015-04-29T10:55:56.0000000+00:00</time></trkpt><trkpt lat="34.8918915" lon="32.8391968"><ele>945.2</ele><time>2015-04-29T10:55:59.0000000+00:00</time></trkpt><trkpt lat="34.8918612" lon="32.8391559"><ele>944.7</ele><time>2015-04-29T10:56:02.0000000+00:00</time></trkpt><trkpt lat="34.8918438" lon="32.839101"><ele>944.3</ele><time>2015-04-29T10:56:05.0000000+00:00</time></trkpt><trkpt lat="34.8918345" lon="32.839037"><ele>944.7</ele><time>2015-04-29T10:56:08.0000000+00:00</time></trkpt><trkpt lat="34.8918147" lon="32.8389712"><ele>944.8</ele><time>2015-04-29T10:56:11.0000000+00:00</time></trkpt><trkpt lat="34.8917941" lon="32.8388983"><ele>945.3</ele><time>2015-04-29T10:56:14.0000000+00:00</time></trkpt><trkpt lat="34.891763" lon="32.8388289"><ele>944.5</ele><time>2015-04-29T10:56:17.0000000+00:00</time></trkpt><trkpt lat="34.8917341" lon="32.8387652"><ele>944.7</ele><time>2015-04-29T10:56:20.0000000+00:00</time></trkpt><trkpt lat="34.891702" lon="32.8387082"><ele>944.5</ele><time>2015-04-29T10:56:23.0000000+00:00</time></trkpt><trkpt lat="34.8916672" lon="32.838649"><ele>947.1</ele><time>2015-04-29T10:56:26.0000000+00:00</time></trkpt><trkpt lat="34.8916288" lon="32.8386026"><ele>949.3</ele><time>2015-04-29T10:56:29.0000000+00:00</time></trkpt><trkpt lat="34.8915915" lon="32.8385582"><ele>949.5</ele><time>2015-04-29T10:56:32.0000000+00:00</time></trkpt><trkpt lat="34.8915616" lon="32.8385122"><ele>949.2</ele><time>2015-04-29T10:56:35.0000000+00:00</time></trkpt><trkpt lat="34.8915266" lon="32.8384752"><ele>947.8</ele><time>2015-04-29T10:56:38.0000000+00:00</time></trkpt><trkpt lat="34.8914887" lon="32.8384394"><ele>948.5</ele><time>2015-04-29T10:56:41.0000000+00:00</time></trkpt><trkpt lat="34.8914395" lon="32.8384257"><ele>950.4</ele><time>2015-04-29T10:56:45.0000000+00:00</time></trkpt><trkpt lat="34.8913879" lon="32.8384418"><ele>950.3</ele><time>2015-04-29T10:56:50.0000000+00:00</time></trkpt><trkpt lat="34.8913377" lon="32.8384728"><ele>951.4</ele><time>2015-04-29T10:56:54.0000000+00:00</time></trkpt><trkpt lat="34.8912868" lon="32.8385087"><ele>952.4</ele><time>2015-04-29T10:56:58.0000000+00:00</time></trkpt><trkpt lat="34.8912471" lon="32.8385358"><ele>954.3</ele><time>2015-04-29T10:57:01.0000000+00:00</time></trkpt><trkpt lat="34.8912126" lon="32.8385718"><ele>956.0</ele><time>2015-04-29T10:57:04.0000000+00:00</time></trkpt><trkpt lat="34.8911765" lon="32.8386118"><ele>956.7</ele><time>2015-04-29T10:57:07.0000000+00:00</time></trkpt><trkpt lat="34.8911382" lon="32.838656"><ele>957.0</ele><time>2015-04-29T10:57:10.0000000+00:00</time></trkpt><trkpt lat="34.8910954" lon="32.8386978"><ele>957.9</ele><time>2015-04-29T10:57:13.0000000+00:00</time></trkpt><trkpt lat="34.8910515" lon="32.8387355"><ele>958.4</ele><time>2015-04-29T10:57:16.0000000+00:00</time></trkpt><trkpt lat="34.8910068" lon="32.838773"><ele>960.3</ele><time>2015-04-29T10:57:19.0000000+00:00</time></trkpt><trkpt lat="34.8909536" lon="32.8388114"><ele>960.8</ele><time>2015-04-29T10:57:22.0000000+00:00</time></trkpt><trkpt lat="34.8909056" lon="32.8388492"><ele>960.3</ele><time>2015-04-29T10:57:25.0000000+00:00</time></trkpt><trkpt lat="34.8908564" lon="32.8388774"><ele>960.6</ele><time>2015-04-29T10:57:28.0000000+00:00</time></trkpt><trkpt lat="34.8908034" lon="32.8389074"><ele>960.5</ele><time>2015-04-29T10:57:31.0000000+00:00</time></trkpt><trkpt lat="34.8907466" lon="32.8389305"><ele>959.5</ele><time>2015-04-29T10:57:34.0000000+00:00</time></trkpt><trkpt lat="34.890688" lon="32.8389368"><ele>960.6</ele><time>2015-04-29T10:57:37.0000000+00:00</time></trkpt><trkpt lat="34.8906243" lon="32.8389334"><ele>962.9</ele><time>2015-04-29T10:57:40.0000000+00:00</time></trkpt><trkpt lat="34.890558" lon="32.8389375"><ele>963.7</ele><time>2015-04-29T10:57:43.0000000+00:00</time></trkpt><trkpt lat="34.8904954" lon="32.8389447"><ele>964.3</ele><time>2015-04-29T10:57:46.0000000+00:00</time></trkpt><trkpt lat="34.890436" lon="32.8389577"><ele>965.5</ele><time>2015-04-29T10:57:49.0000000+00:00</time></trkpt><trkpt lat="34.8903852" lon="32.8389958"><ele>964.6</ele><time>2015-04-29T10:57:52.0000000+00:00</time></trkpt><trkpt lat="34.8903424" lon="32.8390359"><ele>964.7</ele><time>2015-04-29T10:57:55.0000000+00:00</time></trkpt><trkpt lat="34.890318" lon="32.8390953"><ele>964.8</ele><time>2015-04-29T10:57:58.0000000+00:00</time></trkpt><trkpt lat="34.8903002" lon="32.8391572"><ele>964.0</ele><time>2015-04-29T10:58:01.0000000+00:00</time></trkpt><trkpt lat="34.890279" lon="32.8392116"><ele>965.9</ele><time>2015-04-29T10:58:04.0000000+00:00</time></trkpt><trkpt lat="34.8902429" lon="32.8392552"><ele>966.4</ele><time>2015-04-29T10:58:07.0000000+00:00</time></trkpt><trkpt lat="34.8901966" lon="32.8392723"><ele>966.8</ele><time>2015-04-29T10:58:10.0000000+00:00</time></trkpt><trkpt lat="34.8901368" lon="32.8392665"><ele>966.8</ele><time>2015-04-29T10:58:13.0000000+00:00</time></trkpt><trkpt lat="34.8900732" lon="32.8392492"><ele>965.9</ele><time>2015-04-29T10:58:16.0000000+00:00</time></trkpt><trkpt lat="34.8900107" lon="32.839228"><ele>966.3</ele><time>2015-04-29T10:58:19.0000000+00:00</time></trkpt><trkpt lat="34.8899526" lon="32.8392132"><ele>966.7</ele><time>2015-04-29T10:58:22.0000000+00:00</time></trkpt><trkpt lat="34.8899026" lon="32.8391871"><ele>967.3</ele><time>2015-04-29T10:58:25.0000000+00:00</time></trkpt><trkpt lat="34.8898635" lon="32.8391478"><ele>966.7</ele><time>2015-04-29T10:58:28.0000000+00:00</time></trkpt><trkpt lat="34.8898158" lon="32.83912"><ele>967.6</ele><time>2015-04-29T10:58:31.0000000+00:00</time></trkpt><trkpt lat="34.8897634" lon="32.8391061"><ele>968.0</ele><time>2015-04-29T10:58:34.0000000+00:00</time></trkpt><trkpt lat="34.8897174" lon="32.8390871"><ele>969.4</ele><time>2015-04-29T10:58:37.0000000+00:00</time></trkpt><trkpt lat="34.889668" lon="32.8390615"><ele>970.3</ele><time>2015-04-29T10:58:41.0000000+00:00</time></trkpt><trkpt lat="34.8896239" lon="32.8390371"><ele>972.1</ele><time>2015-04-29T10:58:45.0000000+00:00</time></trkpt><trkpt lat="34.8895798" lon="32.8390121"><ele>971.8</ele><time>2015-04-29T10:58:49.0000000+00:00</time></trkpt><trkpt lat="34.889531" lon="32.8389821"><ele>972.0</ele><time>2015-04-29T10:58:53.0000000+00:00</time></trkpt><trkpt lat="34.8894768" lon="32.8389636"><ele>972.7</ele><time>2015-04-29T10:58:57.0000000+00:00</time></trkpt><trkpt lat="34.8894192" lon="32.8389492"><ele>972.8</ele><time>2015-04-29T10:59:01.0000000+00:00</time></trkpt><trkpt lat="34.8893666" lon="32.838942"><ele>974.9</ele><time>2015-04-29T10:59:05.0000000+00:00</time></trkpt><trkpt lat="34.8893137" lon="32.8389266"><ele>974.8</ele><time>2015-04-29T10:59:09.0000000+00:00</time></trkpt><trkpt lat="34.8892578" lon="32.8389163"><ele>974.7</ele><time>2015-04-29T10:59:13.0000000+00:00</time></trkpt><trkpt lat="34.8892034" lon="32.8389156"><ele>977.3</ele><time>2015-04-29T10:59:17.0000000+00:00</time></trkpt><trkpt lat="34.8891606" lon="32.8388987"><ele>977.2</ele><time>2015-04-29T10:59:20.0000000+00:00</time></trkpt><trkpt lat="34.8891155" lon="32.8388906"><ele>976.7</ele><time>2015-04-29T10:59:23.0000000+00:00</time></trkpt><trkpt lat="34.889061" lon="32.8388968"><ele>977.5</ele><time>2015-04-29T10:59:27.0000000+00:00</time></trkpt><trkpt lat="34.889016" lon="32.8389008"><ele>976.8</ele><time>2015-04-29T10:59:31.0000000+00:00</time></trkpt><trkpt lat="34.8889606" lon="32.8389077"><ele>976.8</ele><time>2015-04-29T10:59:35.0000000+00:00</time></trkpt><trkpt lat="34.8889137" lon="32.8389057"><ele>976.8</ele><time>2015-04-29T10:59:38.0000000+00:00</time></trkpt><trkpt lat="34.8888569" lon="32.8389296"><ele>976.8</ele><time>2015-04-29T10:59:41.0000000+00:00</time></trkpt><trkpt lat="34.8888058" lon="32.8389596"><ele>977.5</ele><time>2015-04-29T10:59:44.0000000+00:00</time></trkpt><trkpt lat="34.888764" lon="32.8389896"><ele>977.7</ele><time>2015-04-29T10:59:47.0000000+00:00</time></trkpt><trkpt lat="34.8887187" lon="32.8390358"><ele>978.5</ele><time>2015-04-29T10:59:51.0000000+00:00</time></trkpt><trkpt lat="34.8886848" lon="32.8390758"><ele>979.5</ele><time>2015-04-29T10:59:54.0000000+00:00</time></trkpt><trkpt lat="34.8886536" lon="32.8391187"><ele>980.2</ele><time>2015-04-29T10:59:57.0000000+00:00</time></trkpt><trkpt lat="34.8886166" lon="32.8391738"><ele>980.7</ele><time>2015-04-29T11:00:01.0000000+00:00</time></trkpt><trkpt lat="34.8885795" lon="32.8392219"><ele>981.3</ele><time>2015-04-29T11:00:05.0000000+00:00</time></trkpt><trkpt lat="34.8885501" lon="32.839271"><ele>982.3</ele><time>2015-04-29T11:00:12.0000000+00:00</time></trkpt><trkpt lat="34.8885084" lon="32.8393155"><ele>983.7</ele><time>2015-04-29T11:00:17.0000000+00:00</time></trkpt><trkpt lat="34.8884654" lon="32.8393542"><ele>984.7</ele><time>2015-04-29T11:00:21.0000000+00:00</time></trkpt><trkpt lat="34.8884176" lon="32.8393816"><ele>985.7</ele><time>2015-04-29T11:00:25.0000000+00:00</time></trkpt><trkpt lat="34.888371" lon="32.8394042"><ele>985.8</ele><time>2015-04-29T11:00:28.0000000+00:00</time></trkpt><trkpt lat="34.888327" lon="32.8394199"><ele>986.5</ele><time>2015-04-29T11:00:30.0000000+00:00</time></trkpt><trkpt lat="34.8882706" lon="32.8394239"><ele>987.2</ele><time>2015-04-29T11:00:33.0000000+00:00</time></trkpt><trkpt lat="34.8882147" lon="32.8394074"><ele>988.2</ele><time>2015-04-29T11:00:36.0000000+00:00</time></trkpt><trkpt lat="34.8881691" lon="32.8393932"><ele>988.7</ele><time>2015-04-29T11:00:40.0000000+00:00</time></trkpt><trkpt lat="34.8881136" lon="32.839374"><ele>989.6</ele><time>2015-04-29T11:00:43.0000000+00:00</time></trkpt><trkpt lat="34.8880579" lon="32.8393521"><ele>990.0</ele><time>2015-04-29T11:00:46.0000000+00:00</time></trkpt><trkpt lat="34.8880065" lon="32.8393206"><ele>989.8</ele><time>2015-04-29T11:00:51.0000000+00:00</time></trkpt><trkpt lat="34.8879468" lon="32.8392907"><ele>989.8</ele><time>2015-04-29T11:00:54.0000000+00:00</time></trkpt><trkpt lat="34.8878905" lon="32.839267"><ele>989.8</ele><time>2015-04-29T11:00:56.0000000+00:00</time></trkpt><trkpt lat="34.8878335" lon="32.839251"><ele>990.0</ele><time>2015-04-29T11:00:58.0000000+00:00</time></trkpt><trkpt lat="34.8877769" lon="32.8392369"><ele>989.8</ele><time>2015-04-29T11:01:00.0000000+00:00</time></trkpt><trkpt lat="34.8877189" lon="32.8392218"><ele>989.8</ele><time>2015-04-29T11:01:02.0000000+00:00</time></trkpt><trkpt lat="34.8876569" lon="32.8392135"><ele>989.0</ele><time>2015-04-29T11:01:04.0000000+00:00</time></trkpt><trkpt lat="34.8875808" lon="32.8392178"><ele>988.1</ele><time>2015-04-29T11:01:06.0000000+00:00</time></trkpt><trkpt lat="34.8875024" lon="32.8392337"><ele>987.9</ele><time>2015-04-29T11:01:07.0000000+00:00</time></trkpt><trkpt lat="34.887452" lon="32.8392382"><ele>987.8</ele><time>2015-04-29T11:01:08.0000000+00:00</time></trkpt><trkpt lat="34.88735" lon="32.839242"><ele>987.0</ele><time>2015-04-29T11:01:10.0000000+00:00</time></trkpt><trkpt lat="34.8873002" lon="32.8392521"><ele>986.9</ele><time>2015-04-29T11:01:11.0000000+00:00</time></trkpt><trkpt lat="34.8872649" lon="32.8392905"><ele>986.8</ele><time>2015-04-29T11:01:12.0000000+00:00</time></trkpt><trkpt lat="34.8872149" lon="32.8393181"><ele>986.3</ele><time>2015-04-29T11:01:13.0000000+00:00</time></trkpt><trkpt lat="34.8871652" lon="32.8393384"><ele>986.0</ele><time>2015-04-29T11:01:14.0000000+00:00</time></trkpt><trkpt lat="34.8871168" lon="32.8393585"><ele>985.4</ele><time>2015-04-29T11:01:15.0000000+00:00</time></trkpt><trkpt lat="34.8870663" lon="32.8393795"><ele>985.1</ele><time>2015-04-29T11:01:16.0000000+00:00</time></trkpt><trkpt lat="34.8870128" lon="32.8393994"><ele>984.4</ele><time>2015-04-29T11:01:17.0000000+00:00</time></trkpt><trkpt lat="34.8869593" lon="32.839416"><ele>984.1</ele><time>2015-04-29T11:01:18.0000000+00:00</time></trkpt><trkpt lat="34.886902" lon="32.8394299"><ele>983.9</ele><time>2015-04-29T11:01:19.0000000+00:00</time></trkpt><trkpt lat="34.8868447" lon="32.839456"><ele>984.3</ele><time>2015-04-29T11:01:20.0000000+00:00</time></trkpt><trkpt lat="34.8867838" lon="32.8394744"><ele>984.1</ele><time>2015-04-29T11:01:21.0000000+00:00</time></trkpt><trkpt lat="34.8867188" lon="32.8394914"><ele>983.4</ele><time>2015-04-29T11:01:22.0000000+00:00</time></trkpt><trkpt lat="34.8866522" lon="32.8395139"><ele>982.6</ele><time>2015-04-29T11:01:23.0000000+00:00</time></trkpt><trkpt lat="34.8865816" lon="32.8395315"><ele>981.7</ele><time>2015-04-29T11:01:24.0000000+00:00</time></trkpt><trkpt lat="34.8865045" lon="32.8395554"><ele>980.2</ele><time>2015-04-29T11:01:25.0000000+00:00</time></trkpt><trkpt lat="34.8864273" lon="32.8395863"><ele>979.5</ele><time>2015-04-29T11:01:26.0000000+00:00</time></trkpt><trkpt lat="34.8863538" lon="32.8396277"><ele>978.6</ele><time>2015-04-29T11:01:27.0000000+00:00</time></trkpt><trkpt lat="34.8862722" lon="32.8396581"><ele>978.2</ele><time>2015-04-29T11:01:28.0000000+00:00</time></trkpt><trkpt lat="34.8861873" lon="32.8396903"><ele>978.0</ele><time>2015-04-29T11:01:29.0000000+00:00</time></trkpt><trkpt lat="34.8861111" lon="32.8397255"><ele>976.9</ele><time>2015-04-29T11:01:30.0000000+00:00</time></trkpt><trkpt lat="34.8860263" lon="32.8397606"><ele>975.8</ele><time>2015-04-29T11:01:31.0000000+00:00</time></trkpt><trkpt lat="34.885937" lon="32.839791"><ele>975.3</ele><time>2015-04-29T11:01:32.0000000+00:00</time></trkpt><trkpt lat="34.8858504" lon="32.8398308"><ele>975.0</ele><time>2015-04-29T11:01:33.0000000+00:00</time></trkpt><trkpt lat="34.8857504" lon="32.8398571"><ele>974.4</ele><time>2015-04-29T11:01:34.0000000+00:00</time></trkpt><trkpt lat="34.8856669" lon="32.8398875"><ele>974.1</ele><time>2015-04-29T11:01:35.0000000+00:00</time></trkpt><trkpt lat="34.8855658" lon="32.8399188"><ele>973.9</ele><time>2015-04-29T11:01:36.0000000+00:00</time></trkpt><trkpt lat="34.8854737" lon="32.8399386"><ele>973.8</ele><time>2015-04-29T11:01:37.0000000+00:00</time></trkpt><trkpt lat="34.8853816" lon="32.8399546"><ele>973.3</ele><time>2015-04-29T11:01:38.0000000+00:00</time></trkpt><trkpt lat="34.8852903" lon="32.839969"><ele>973.0</ele><time>2015-04-29T11:01:39.0000000+00:00</time></trkpt><trkpt lat="34.8852038" lon="32.8399904"><ele>972.4</ele><time>2015-04-29T11:01:40.0000000+00:00</time></trkpt><trkpt lat="34.8851102" lon="32.8399942"><ele>971.6</ele><time>2015-04-29T11:01:41.0000000+00:00</time></trkpt><trkpt lat="34.8850173" lon="32.8400076"><ele>971.2</ele><time>2015-04-29T11:01:42.0000000+00:00</time></trkpt><trkpt lat="34.8849335" lon="32.84001"><ele>969.5</ele><time>2015-04-29T11:01:43.0000000+00:00</time></trkpt><trkpt lat="34.8848417" lon="32.8400282"><ele>968.6</ele><time>2015-04-29T11:01:44.0000000+00:00</time></trkpt><trkpt lat="34.8847413" lon="32.8400426"><ele>968.7</ele><time>2015-04-29T11:01:45.0000000+00:00</time></trkpt><trkpt lat="34.8846397" lon="32.8400648"><ele>969.2</ele><time>2015-04-29T11:01:46.0000000+00:00</time></trkpt><trkpt lat="34.884548" lon="32.8400952"><ele>969.0</ele><time>2015-04-29T11:01:47.0000000+00:00</time></trkpt><trkpt lat="34.884453" lon="32.8401348"><ele>967.9</ele><time>2015-04-29T11:01:48.0000000+00:00</time></trkpt><trkpt lat="34.8843605" lon="32.8401908"><ele>967.8</ele><time>2015-04-29T11:01:49.0000000+00:00</time></trkpt><trkpt lat="34.8842704" lon="32.8402578"><ele>967.3</ele><time>2015-04-29T11:01:50.0000000+00:00</time></trkpt><trkpt lat="34.8841848" lon="32.8403331"><ele>966.5</ele><time>2015-04-29T11:01:51.0000000+00:00</time></trkpt><trkpt lat="34.8840971" lon="32.8404127"><ele>966.1</ele><time>2015-04-29T11:01:52.0000000+00:00</time></trkpt><trkpt lat="34.8840215" lon="32.8404897"><ele>965.5</ele><time>2015-04-29T11:01:53.0000000+00:00</time></trkpt><trkpt lat="34.8839408" lon="32.8405885"><ele>964.1</ele><time>2015-04-29T11:01:54.0000000+00:00</time></trkpt><trkpt lat="34.8838512" lon="32.8406837"><ele>962.9</ele><time>2015-04-29T11:01:55.0000000+00:00</time></trkpt><trkpt lat="34.8837574" lon="32.8407708"><ele>961.9</ele><time>2015-04-29T11:01:56.0000000+00:00</time></trkpt><trkpt lat="34.8836668" lon="32.8408654"><ele>960.3</ele><time>2015-04-29T11:01:57.0000000+00:00</time></trkpt><trkpt lat="34.8835704" lon="32.8409666"><ele>959.0</ele><time>2015-04-29T11:01:58.0000000+00:00</time></trkpt><trkpt lat="34.8834826" lon="32.8410466"><ele>957.9</ele><time>2015-04-29T11:01:59.0000000+00:00</time></trkpt><trkpt lat="34.8833911" lon="32.8411182"><ele>956.8</ele><time>2015-04-29T11:02:00.0000000+00:00</time></trkpt><trkpt lat="34.8832936" lon="32.8411915"><ele>955.8</ele><time>2015-04-29T11:02:01.0000000+00:00</time></trkpt><trkpt lat="34.8831802" lon="32.8412128"><ele>954.3</ele><time>2015-04-29T11:02:02.0000000+00:00</time></trkpt><trkpt lat="34.8830704" lon="32.8412313"><ele>953.5</ele><time>2015-04-29T11:02:03.0000000+00:00</time></trkpt><trkpt lat="34.882957" lon="32.8412422"><ele>952.6</ele><time>2015-04-29T11:02:04.0000000+00:00</time></trkpt><trkpt lat="34.8828482" lon="32.8412395"><ele>951.7</ele><time>2015-04-29T11:02:05.0000000+00:00</time></trkpt><trkpt lat="34.882749" lon="32.8412316"><ele>950.7</ele><time>2015-04-29T11:02:06.0000000+00:00</time></trkpt><trkpt lat="34.8826445" lon="32.8412167"><ele>949.7</ele><time>2015-04-29T11:02:07.0000000+00:00</time></trkpt><trkpt lat="34.882554" lon="32.8411805"><ele>948.8</ele><time>2015-04-29T11:02:08.0000000+00:00</time></trkpt><trkpt lat="34.8824635" lon="32.8411457"><ele>947.3</ele><time>2015-04-29T11:02:09.0000000+00:00</time></trkpt><trkpt lat="34.8823741" lon="32.8411228"><ele>946.0</ele><time>2015-04-29T11:02:10.0000000+00:00</time></trkpt><trkpt lat="34.88228" lon="32.8411137"><ele>944.9</ele><time>2015-04-29T11:02:11.0000000+00:00</time></trkpt><trkpt lat="34.8821825" lon="32.8411206"><ele>943.8</ele><time>2015-04-29T11:02:12.0000000+00:00</time></trkpt><trkpt lat="34.8820779" lon="32.841128"><ele>943.3</ele><time>2015-04-29T11:02:13.0000000+00:00</time></trkpt><trkpt lat="34.8819774" lon="32.84113"><ele>942.5</ele><time>2015-04-29T11:02:14.0000000+00:00</time></trkpt><trkpt lat="34.8818686" lon="32.8411465"><ele>942.1</ele><time>2015-04-29T11:02:15.0000000+00:00</time></trkpt><trkpt lat="34.881765" lon="32.8411621"><ele>941.5</ele><time>2015-04-29T11:02:16.0000000+00:00</time></trkpt><trkpt lat="34.8816609" lon="32.8411764"><ele>940.6</ele><time>2015-04-29T11:02:17.0000000+00:00</time></trkpt><trkpt lat="34.8815603" lon="32.841189"><ele>939.7</ele><time>2015-04-29T11:02:18.0000000+00:00</time></trkpt><trkpt lat="34.8814783" lon="32.8411989"><ele>939.2</ele><time>2015-04-29T11:02:19.0000000+00:00</time></trkpt><trkpt lat="34.8813933" lon="32.8412033"><ele>939.0</ele><time>2015-04-29T11:02:20.0000000+00:00</time></trkpt><trkpt lat="34.8813227" lon="32.8411978"><ele>937.9</ele><time>2015-04-29T11:02:21.0000000+00:00</time></trkpt><trkpt lat="34.8812506" lon="32.8412048"><ele>936.8</ele><time>2015-04-29T11:02:22.0000000+00:00</time></trkpt><trkpt lat="34.8811825" lon="32.8412135"><ele>935.8</ele><time>2015-04-29T11:02:23.0000000+00:00</time></trkpt><trkpt lat="34.8811161" lon="32.8412234"><ele>934.8</ele><time>2015-04-29T11:02:24.0000000+00:00</time></trkpt><trkpt lat="34.8810715" lon="32.8412536"><ele>934.8</ele><time>2015-04-29T11:02:25.0000000+00:00</time></trkpt><trkpt lat="34.8810215" lon="32.8412804"><ele>934.8</ele><time>2015-04-29T11:02:26.0000000+00:00</time></trkpt><trkpt lat="34.8809812" lon="32.8413234"><ele>934.3</ele><time>2015-04-29T11:02:27.0000000+00:00</time></trkpt><trkpt lat="34.8809363" lon="32.8413533"><ele>933.5</ele><time>2015-04-29T11:02:28.0000000+00:00</time></trkpt><trkpt lat="34.880867" lon="32.8413883"><ele>932.5</ele><time>2015-04-29T11:02:30.0000000+00:00</time></trkpt><trkpt lat="34.8808305" lon="32.8414214"><ele>933.1</ele><time>2015-04-29T11:02:31.0000000+00:00</time></trkpt><trkpt lat="34.880785" lon="32.841441"><ele>933.9</ele><time>2015-04-29T11:02:32.0000000+00:00</time></trkpt><trkpt lat="34.8807106" lon="32.8414821"><ele>934.3</ele><time>2015-04-29T11:02:34.0000000+00:00</time></trkpt><trkpt lat="34.8806208" lon="32.8414972"><ele>933.4</ele><time>2015-04-29T11:02:36.0000000+00:00</time></trkpt><trkpt lat="34.8805735" lon="32.8415097"><ele>933.1</ele><time>2015-04-29T11:02:37.0000000+00:00</time></trkpt><trkpt lat="34.8805104" lon="32.8415597"><ele>932.3</ele><time>2015-04-29T11:02:39.0000000+00:00</time></trkpt><trkpt lat="34.8804634" lon="32.8415982"><ele>931.7</ele><time>2015-04-29T11:02:41.0000000+00:00</time></trkpt><trkpt lat="34.8804265" lon="32.8416622"><ele>932.2</ele><time>2015-04-29T11:02:43.0000000+00:00</time></trkpt><trkpt lat="34.8803442" lon="32.8416434"><ele>932.6</ele><time>2015-04-29T11:02:45.0000000+00:00</time></trkpt><trkpt lat="34.8802864" lon="32.8416255"><ele>932.7</ele><time>2015-04-29T11:02:47.0000000+00:00</time></trkpt><trkpt lat="34.8802483" lon="32.8415957"><ele>933.0</ele><time>2015-04-29T11:02:49.0000000+00:00</time></trkpt><trkpt lat="34.8801866" lon="32.8415825"><ele>932.0</ele><time>2015-04-29T11:02:52.0000000+00:00</time></trkpt><trkpt lat="34.8801464" lon="32.8416175"><ele>930.1</ele><time>2015-04-29T11:02:54.0000000+00:00</time></trkpt><trkpt lat="34.8800846" lon="32.8416739"><ele>930.6</ele><time>2015-04-29T11:02:56.0000000+00:00</time></trkpt><trkpt lat="34.8800142" lon="32.8417394"><ele>930.5</ele><time>2015-04-29T11:02:58.0000000+00:00</time></trkpt><trkpt lat="34.8799449" lon="32.8418041"><ele>930.4</ele><time>2015-04-29T11:03:00.0000000+00:00</time></trkpt><trkpt lat="34.8798913" lon="32.8418705"><ele>929.9</ele><time>2015-04-29T11:03:02.0000000+00:00</time></trkpt><trkpt lat="34.8798594" lon="32.841946"><ele>928.8</ele><time>2015-04-29T11:03:04.0000000+00:00</time></trkpt><trkpt lat="34.8798554" lon="32.8420198"><ele>926.5</ele><time>2015-04-29T11:03:06.0000000+00:00</time></trkpt><trkpt lat="34.8798874" lon="32.8420694"><ele>928.4</ele><time>2015-04-29T11:03:17.0000000+00:00</time></trkpt><trkpt lat="34.8798528" lon="32.8421291"><ele>927.5</ele><time>2015-04-29T11:16:59.0000000+00:00</time></trkpt><trkpt lat="34.8798379" lon="32.8422023"><ele>927.7</ele><time>2015-04-29T11:17:02.0000000+00:00</time></trkpt><trkpt lat="34.8798475" lon="32.8422745"><ele>928.3</ele><time>2015-04-29T11:17:05.0000000+00:00</time></trkpt><trkpt lat="34.879856" lon="32.8423509"><ele>927.8</ele><time>2015-04-29T11:17:08.0000000+00:00</time></trkpt><trkpt lat="34.8798592" lon="32.8424316"><ele>927.8</ele><time>2015-04-29T11:17:11.0000000+00:00</time></trkpt><trkpt lat="34.8798624" lon="32.8425063"><ele>928.5</ele><time>2015-04-29T11:17:14.0000000+00:00</time></trkpt><trkpt lat="34.8798701" lon="32.8425794"><ele>928.7</ele><time>2015-04-29T11:17:17.0000000+00:00</time></trkpt><trkpt lat="34.8798804" lon="32.8426514"><ele>928.8</ele><time>2015-04-29T11:17:20.0000000+00:00</time></trkpt><trkpt lat="34.8798985" lon="32.8427174"><ele>928.1</ele><time>2015-04-29T11:17:23.0000000+00:00</time></trkpt><trkpt lat="34.8799229" lon="32.842773"><ele>927.8</ele><time>2015-04-29T11:17:26.0000000+00:00</time></trkpt><trkpt lat="34.8799448" lon="32.8428262"><ele>928.6</ele><time>2015-04-29T11:17:29.0000000+00:00</time></trkpt><trkpt lat="34.8799613" lon="32.8428896"><ele>927.9</ele><time>2015-04-29T11:17:32.0000000+00:00</time></trkpt><trkpt lat="34.879974" lon="32.8429544"><ele>927.8</ele><time>2015-04-29T11:17:35.0000000+00:00</time></trkpt><trkpt lat="34.8799911" lon="32.8430132"><ele>928.1</ele><time>2015-04-29T11:17:38.0000000+00:00</time></trkpt><trkpt lat="34.8800194" lon="32.8430647"><ele>928.3</ele><time>2015-04-29T11:17:41.0000000+00:00</time></trkpt><trkpt lat="34.8800441" lon="32.843121"><ele>929.5</ele><time>2015-04-29T11:17:44.0000000+00:00</time></trkpt><trkpt lat="34.8800748" lon="32.8431812"><ele>931.9</ele><time>2015-04-29T11:17:47.0000000+00:00</time></trkpt><trkpt lat="34.8801014" lon="32.8432527"><ele>935.2</ele><time>2015-04-29T11:17:50.0000000+00:00</time></trkpt><trkpt lat="34.880129" lon="32.8433228"><ele>935.7</ele><time>2015-04-29T11:17:53.0000000+00:00</time></trkpt><trkpt lat="34.8801684" lon="32.8433826"><ele>936.1</ele><time>2015-04-29T11:17:56.0000000+00:00</time></trkpt><trkpt lat="34.8802069" lon="32.8434439"><ele>934.9</ele><time>2015-04-29T11:17:59.0000000+00:00</time></trkpt><trkpt lat="34.8802412" lon="32.8435036"><ele>933.5</ele><time>2015-04-29T11:18:02.0000000+00:00</time></trkpt><trkpt lat="34.8802644" lon="32.8435638"><ele>934.0</ele><time>2015-04-29T11:18:05.0000000+00:00</time></trkpt><trkpt lat="34.8802988" lon="32.8436102"><ele>933.0</ele><time>2015-04-29T11:18:08.0000000+00:00</time></trkpt><trkpt lat="34.8803343" lon="32.8436597"><ele>932.7</ele><time>2015-04-29T11:18:11.0000000+00:00</time></trkpt><trkpt lat="34.8803644" lon="32.8437172"><ele>931.9</ele><time>2015-04-29T11:18:14.0000000+00:00</time></trkpt><trkpt lat="34.8803996" lon="32.8437692"><ele>932.0</ele><time>2015-04-29T11:18:17.0000000+00:00</time></trkpt><trkpt lat="34.8804419" lon="32.8438129"><ele>932.0</ele><time>2015-04-29T11:18:20.0000000+00:00</time></trkpt><trkpt lat="34.8804725" lon="32.843867"><ele>932.3</ele><time>2015-04-29T11:18:23.0000000+00:00</time></trkpt><trkpt lat="34.8804939" lon="32.8439285"><ele>933.0</ele><time>2015-04-29T11:18:26.0000000+00:00</time></trkpt><trkpt lat="34.8805161" lon="32.8439961"><ele>933.5</ele><time>2015-04-29T11:18:29.0000000+00:00</time></trkpt><trkpt lat="34.8805301" lon="32.8440701"><ele>934.6</ele><time>2015-04-29T11:18:32.0000000+00:00</time></trkpt><trkpt lat="34.880547" lon="32.8441426"><ele>935.6</ele><time>2015-04-29T11:18:35.0000000+00:00</time></trkpt><trkpt lat="34.8805588" lon="32.8442126"><ele>936.6</ele><time>2015-04-29T11:18:38.0000000+00:00</time></trkpt><trkpt lat="34.8805654" lon="32.8442874"><ele>937.5</ele><time>2015-04-29T11:18:41.0000000+00:00</time></trkpt><trkpt lat="34.880555" lon="32.8443608"><ele>939.1</ele><time>2015-04-29T11:18:44.0000000+00:00</time></trkpt><trkpt lat="34.8805433" lon="32.844433"><ele>939.8</ele><time>2015-04-29T11:18:47.0000000+00:00</time></trkpt><trkpt lat="34.8805344" lon="32.8445053"><ele>940.3</ele><time>2015-04-29T11:18:50.0000000+00:00</time></trkpt><trkpt lat="34.8805293" lon="32.8445838"><ele>940.0</ele><time>2015-04-29T11:18:53.0000000+00:00</time></trkpt><trkpt lat="34.8805342" lon="32.8446585"><ele>939.8</ele><time>2015-04-29T11:18:56.0000000+00:00</time></trkpt><trkpt lat="34.8805341" lon="32.8447286"><ele>940.5</ele><time>2015-04-29T11:18:59.0000000+00:00</time></trkpt><trkpt lat="34.8805295" lon="32.844792"><ele>939.9</ele><time>2015-04-29T11:19:02.0000000+00:00</time></trkpt><trkpt lat="34.8805369" lon="32.844848"><ele>938.5</ele><time>2015-04-29T11:19:05.0000000+00:00</time></trkpt><trkpt lat="34.8805502" lon="32.8449045"><ele>937.7</ele><time>2015-04-29T11:19:08.0000000+00:00</time></trkpt><trkpt lat="34.8805475" lon="32.8449628"><ele>938.5</ele><time>2015-04-29T11:19:11.0000000+00:00</time></trkpt><trkpt lat="34.880552" lon="32.8450247"><ele>940.4</ele><time>2015-04-29T11:19:14.0000000+00:00</time></trkpt><trkpt lat="34.8805672" lon="32.8450965"><ele>941.7</ele><time>2015-04-29T11:19:17.0000000+00:00</time></trkpt><trkpt lat="34.8805811" lon="32.8451637"><ele>944.6</ele><time>2015-04-29T11:19:20.0000000+00:00</time></trkpt><trkpt lat="34.8806095" lon="32.8452188"><ele>944.7</ele><time>2015-04-29T11:19:23.0000000+00:00</time></trkpt><trkpt lat="34.8806328" lon="32.8452762"><ele>942.6</ele><time>2015-04-29T11:19:27.0000000+00:00</time></trkpt><trkpt lat="34.8806591" lon="32.8453391"><ele>944.0</ele><time>2015-04-29T11:19:31.0000000+00:00</time></trkpt><trkpt lat="34.8806787" lon="32.845409"><ele>945.6</ele><time>2015-04-29T11:19:35.0000000+00:00</time></trkpt><trkpt lat="34.8807044" lon="32.8454693"><ele>946.5</ele><time>2015-04-29T11:19:38.0000000+00:00</time></trkpt><trkpt lat="34.8807353" lon="32.8455264"><ele>947.2</ele><time>2015-04-29T11:19:41.0000000+00:00</time></trkpt><trkpt lat="34.8807639" lon="32.8455787"><ele>947.7</ele><time>2015-04-29T11:19:44.0000000+00:00</time></trkpt><trkpt lat="34.8807903" lon="32.8456353"><ele>948.3</ele><time>2015-04-29T11:19:47.0000000+00:00</time></trkpt><trkpt lat="34.8808169" lon="32.8456981"><ele>948.7</ele><time>2015-04-29T11:19:50.0000000+00:00</time></trkpt><trkpt lat="34.8808483" lon="32.8457565"><ele>949.6</ele><time>2015-04-29T11:19:53.0000000+00:00</time></trkpt><trkpt lat="34.8808834" lon="32.8458159"><ele>949.7</ele><time>2015-04-29T11:19:56.0000000+00:00</time></trkpt><trkpt lat="34.8809124" lon="32.8458781"><ele>950.5</ele><time>2015-04-29T11:19:59.0000000+00:00</time></trkpt><trkpt lat="34.880942" lon="32.8459407"><ele>951.5</ele><time>2015-04-29T11:20:02.0000000+00:00</time></trkpt><trkpt lat="34.880969" lon="32.8460085"><ele>952.5</ele><time>2015-04-29T11:20:05.0000000+00:00</time></trkpt><trkpt lat="34.8809915" lon="32.8460759"><ele>952.7</ele><time>2015-04-29T11:20:08.0000000+00:00</time></trkpt><trkpt lat="34.8810114" lon="32.8461359"><ele>953.5</ele><time>2015-04-29T11:20:11.0000000+00:00</time></trkpt><trkpt lat="34.8810266" lon="32.8461947"><ele>953.7</ele><time>2015-04-29T11:20:14.0000000+00:00</time></trkpt><trkpt lat="34.8810381" lon="32.8462585"><ele>953.8</ele><time>2015-04-29T11:20:17.0000000+00:00</time></trkpt><trkpt lat="34.8810446" lon="32.8463133"><ele>954.5</ele><time>2015-04-29T11:20:20.0000000+00:00</time></trkpt><trkpt lat="34.8810404" lon="32.8463827"><ele>955.7</ele><time>2015-04-29T11:20:24.0000000+00:00</time></trkpt><trkpt lat="34.8810426" lon="32.8464379"><ele>956.6</ele><time>2015-04-29T11:20:27.0000000+00:00</time></trkpt><trkpt lat="34.8810418" lon="32.8464948"><ele>957.2</ele><time>2015-04-29T11:20:30.0000000+00:00</time></trkpt><trkpt lat="34.8810423" lon="32.8465497"><ele>957.7</ele><time>2015-04-29T11:20:33.0000000+00:00</time></trkpt><trkpt lat="34.881039" lon="32.8466214"><ele>957.8</ele><time>2015-04-29T11:20:37.0000000+00:00</time></trkpt><trkpt lat="34.8810393" lon="32.8466922"><ele>957.8</ele><time>2015-04-29T11:20:41.0000000+00:00</time></trkpt><trkpt lat="34.8810356" lon="32.8467482"><ele>957.8</ele><time>2015-04-29T11:20:44.0000000+00:00</time></trkpt><trkpt lat="34.881029" lon="32.8468038"><ele>958.6</ele><time>2015-04-29T11:20:47.0000000+00:00</time></trkpt><trkpt lat="34.8810224" lon="32.8468596"><ele>958.7</ele><time>2015-04-29T11:20:50.0000000+00:00</time></trkpt><trkpt lat="34.8810155" lon="32.8469158"><ele>958.8</ele><time>2015-04-29T11:20:53.0000000+00:00</time></trkpt><trkpt lat="34.881012" lon="32.8469856"><ele>958.8</ele><time>2015-04-29T11:20:57.0000000+00:00</time></trkpt><trkpt lat="34.8810075" lon="32.8470517"><ele>958.4</ele><time>2015-04-29T11:21:01.0000000+00:00</time></trkpt><trkpt lat="34.8810052" lon="32.8471168"><ele>958.7</ele><time>2015-04-29T11:21:05.0000000+00:00</time></trkpt><trkpt lat="34.8810032" lon="32.8471806"><ele>960.6</ele><time>2015-04-29T11:21:10.0000000+00:00</time></trkpt><trkpt lat="34.8810042" lon="32.8472451"><ele>960.8</ele><time>2015-04-29T11:21:14.0000000+00:00</time></trkpt><trkpt lat="34.8810026" lon="32.8473005"><ele>960.5</ele><time>2015-04-29T11:21:17.0000000+00:00</time></trkpt><trkpt lat="34.8809987" lon="32.8473628"><ele>960.7</ele><time>2015-04-29T11:21:20.0000000+00:00</time></trkpt><trkpt lat="34.8810063" lon="32.8474259"><ele>960.5</ele><time>2015-04-29T11:21:23.0000000+00:00</time></trkpt><trkpt lat="34.8810115" lon="32.8474927"><ele>960.7</ele><time>2015-04-29T11:21:26.0000000+00:00</time></trkpt><trkpt lat="34.8810214" lon="32.8475593"><ele>961.5</ele><time>2015-04-29T11:21:29.0000000+00:00</time></trkpt><trkpt lat="34.8810354" lon="32.8476228"><ele>961.7</ele><time>2015-04-29T11:21:32.0000000+00:00</time></trkpt><trkpt lat="34.8810421" lon="32.8476879"><ele>962.5</ele><time>2015-04-29T11:21:35.0000000+00:00</time></trkpt><trkpt lat="34.881054" lon="32.8477496"><ele>962.4</ele><time>2015-04-29T11:21:38.0000000+00:00</time></trkpt><trkpt lat="34.8810638" lon="32.847814"><ele>963.5</ele><time>2015-04-29T11:21:41.0000000+00:00</time></trkpt><trkpt lat="34.8810707" lon="32.847882"><ele>964.6</ele><time>2015-04-29T11:21:44.0000000+00:00</time></trkpt><trkpt lat="34.8810842" lon="32.8479476"><ele>964.7</ele><time>2015-04-29T11:21:47.0000000+00:00</time></trkpt><trkpt lat="34.8810896" lon="32.8480138"><ele>965.5</ele><time>2015-04-29T11:21:50.0000000+00:00</time></trkpt><trkpt lat="34.8811032" lon="32.8480786"><ele>965.6</ele><time>2015-04-29T11:21:53.0000000+00:00</time></trkpt><trkpt lat="34.8811084" lon="32.8481448"><ele>966.5</ele><time>2015-04-29T11:21:56.0000000+00:00</time></trkpt><trkpt lat="34.8811135" lon="32.8482082"><ele>966.7</ele><time>2015-04-29T11:21:59.0000000+00:00</time></trkpt><trkpt lat="34.8811118" lon="32.8482731"><ele>967.6</ele><time>2015-04-29T11:22:02.0000000+00:00</time></trkpt><trkpt lat="34.8811189" lon="32.8483343"><ele>968.2</ele><time>2015-04-29T11:22:05.0000000+00:00</time></trkpt><trkpt lat="34.8811313" lon="32.8484109"><ele>968.7</ele><time>2015-04-29T11:22:10.0000000+00:00</time></trkpt><trkpt lat="34.8811323" lon="32.8484738"><ele>969.5</ele><time>2015-04-29T11:22:12.0000000+00:00</time></trkpt><trkpt lat="34.8811365" lon="32.8485301"><ele>970.4</ele><time>2015-04-29T11:22:14.0000000+00:00</time></trkpt><trkpt lat="34.8811399" lon="32.8485849"><ele>970.7</ele><time>2015-04-29T11:22:16.0000000+00:00</time></trkpt><trkpt lat="34.8811403" lon="32.8486408"><ele>971.6</ele><time>2015-04-29T11:22:19.0000000+00:00</time></trkpt><trkpt lat="34.8811331" lon="32.8487078"><ele>971.8</ele><time>2015-04-29T11:22:23.0000000+00:00</time></trkpt><trkpt lat="34.8811312" lon="32.8487651"><ele>972.3</ele><time>2015-04-29T11:22:25.0000000+00:00</time></trkpt><trkpt lat="34.8811288" lon="32.8488244"><ele>972.6</ele><time>2015-04-29T11:22:27.0000000+00:00</time></trkpt><trkpt lat="34.8811267" lon="32.8489034"><ele>972.7</ele><time>2015-04-29T11:22:30.0000000+00:00</time></trkpt><trkpt lat="34.8811192" lon="32.8489848"><ele>972.8</ele><time>2015-04-29T11:22:33.0000000+00:00</time></trkpt><trkpt lat="34.8811181" lon="32.849041"><ele>972.8</ele><time>2015-04-29T11:22:35.0000000+00:00</time></trkpt><trkpt lat="34.8811036" lon="32.8491184"><ele>972.8</ele><time>2015-04-29T11:22:38.0000000+00:00</time></trkpt><trkpt lat="34.8811164" lon="32.8491853"><ele>972.0</ele><time>2015-04-29T11:22:42.0000000+00:00</time></trkpt><trkpt lat="34.8811152" lon="32.8492452"><ele>972.5</ele><time>2015-04-29T11:22:45.0000000+00:00</time></trkpt><trkpt lat="34.8811182" lon="32.8493017"><ele>972.7</ele><time>2015-04-29T11:22:47.0000000+00:00</time></trkpt><trkpt lat="34.8811235" lon="32.8493642"><ele>972.0</ele><time>2015-04-29T11:22:49.0000000+00:00</time></trkpt><trkpt lat="34.8811228" lon="32.8494259"><ele>971.9</ele><time>2015-04-29T11:22:51.0000000+00:00</time></trkpt><trkpt lat="34.8811197" lon="32.8494884"><ele>972.5</ele><time>2015-04-29T11:22:53.0000000+00:00</time></trkpt><trkpt lat="34.8811188" lon="32.8495519"><ele>972.7</ele><time>2015-04-29T11:22:55.0000000+00:00</time></trkpt><trkpt lat="34.8811252" lon="32.8496139"><ele>973.5</ele><time>2015-04-29T11:22:57.0000000+00:00</time></trkpt><trkpt lat="34.881131" lon="32.8496718"><ele>973.7</ele><time>2015-04-29T11:22:59.0000000+00:00</time></trkpt><trkpt lat="34.8811308" lon="32.8497275"><ele>974.2</ele><time>2015-04-29T11:23:01.0000000+00:00</time></trkpt><trkpt lat="34.88113" lon="32.8497972"><ele>974.7</ele><time>2015-04-29T11:23:04.0000000+00:00</time></trkpt><trkpt lat="34.8811332" lon="32.849858"><ele>975.6</ele><time>2015-04-29T11:23:07.0000000+00:00</time></trkpt><trkpt lat="34.8811414" lon="32.8499232"><ele>976.4</ele><time>2015-04-29T11:23:10.0000000+00:00</time></trkpt><trkpt lat="34.8811552" lon="32.8499876"><ele>977.2</ele><time>2015-04-29T11:23:13.0000000+00:00</time></trkpt><trkpt lat="34.8811644" lon="32.8500537"><ele>978.2</ele><time>2015-04-29T11:23:16.0000000+00:00</time></trkpt><trkpt lat="34.8811732" lon="32.8501143"><ele>978.7</ele><time>2015-04-29T11:23:19.0000000+00:00</time></trkpt><trkpt lat="34.8811936" lon="32.8501712"><ele>979.0</ele><time>2015-04-29T11:23:22.0000000+00:00</time></trkpt><trkpt lat="34.8812185" lon="32.850233"><ele>979.7</ele><time>2015-04-29T11:23:25.0000000+00:00</time></trkpt><trkpt lat="34.8812425" lon="32.8503004"><ele>980.6</ele><time>2015-04-29T11:23:28.0000000+00:00</time></trkpt><trkpt lat="34.881254" lon="32.8503698"><ele>980.7</ele><time>2015-04-29T11:23:31.0000000+00:00</time></trkpt><trkpt lat="34.8812658" lon="32.8504335"><ele>981.5</ele><time>2015-04-29T11:23:34.0000000+00:00</time></trkpt><trkpt lat="34.8812837" lon="32.850493"><ele>981.6</ele><time>2015-04-29T11:23:37.0000000+00:00</time></trkpt><trkpt lat="34.8813035" lon="32.8505577"><ele>981.7</ele><time>2015-04-29T11:23:40.0000000+00:00</time></trkpt><trkpt lat="34.8813193" lon="32.8506186"><ele>982.3</ele><time>2015-04-29T11:23:42.0000000+00:00</time></trkpt><trkpt lat="34.8813305" lon="32.8506946"><ele>982.7</ele><time>2015-04-29T11:23:45.0000000+00:00</time></trkpt><trkpt lat="34.8813344" lon="32.8507569"><ele>983.3</ele><time>2015-04-29T11:23:48.0000000+00:00</time></trkpt><trkpt lat="34.8813459" lon="32.8508271"><ele>983.7</ele><time>2015-04-29T11:23:51.0000000+00:00</time></trkpt><trkpt lat="34.8813575" lon="32.8508999"><ele>983.8</ele><time>2015-04-29T11:23:54.0000000+00:00</time></trkpt><trkpt lat="34.881364" lon="32.8509733"><ele>984.6</ele><time>2015-04-29T11:23:57.0000000+00:00</time></trkpt><trkpt lat="34.8813632" lon="32.8510432"><ele>985.2</ele><time>2015-04-29T11:24:00.0000000+00:00</time></trkpt><trkpt lat="34.8813605" lon="32.85111"><ele>985.6</ele><time>2015-04-29T11:24:03.0000000+00:00</time></trkpt><trkpt lat="34.881361" lon="32.8511748"><ele>985.8</ele><time>2015-04-29T11:24:07.0000000+00:00</time></trkpt><trkpt lat="34.881353" lon="32.8512519"><ele>987.1</ele><time>2015-04-29T11:24:10.0000000+00:00</time></trkpt><trkpt lat="34.8813486" lon="32.85131"><ele>987.6</ele><time>2015-04-29T11:24:12.0000000+00:00</time></trkpt><trkpt lat="34.8813424" lon="32.851365"><ele>988.2</ele><time>2015-04-29T11:24:14.0000000+00:00</time></trkpt><trkpt lat="34.881336" lon="32.8514265"><ele>988.6</ele><time>2015-04-29T11:24:16.0000000+00:00</time></trkpt><trkpt lat="34.8813268" lon="32.8514854"><ele>988.7</ele><time>2015-04-29T11:24:18.0000000+00:00</time></trkpt><trkpt lat="34.8813166" lon="32.8515419"><ele>989.3</ele><time>2015-04-29T11:24:20.0000000+00:00</time></trkpt><trkpt lat="34.8813132" lon="32.8516011"><ele>989.1</ele><time>2015-04-29T11:24:22.0000000+00:00</time></trkpt><trkpt lat="34.8813078" lon="32.8516604"><ele>989.4</ele><time>2015-04-29T11:24:24.0000000+00:00</time></trkpt><trkpt lat="34.8812886" lon="32.8517379"><ele>989.0</ele><time>2015-04-29T11:24:27.0000000+00:00</time></trkpt><trkpt lat="34.8812764" lon="32.8517923"><ele>989.6</ele><time>2015-04-29T11:24:29.0000000+00:00</time></trkpt><trkpt lat="34.8812633" lon="32.8518469"><ele>989.7</ele><time>2015-04-29T11:24:31.0000000+00:00</time></trkpt><trkpt lat="34.8812488" lon="32.8519023"><ele>989.8</ele><time>2015-04-29T11:24:33.0000000+00:00</time></trkpt><trkpt lat="34.8812325" lon="32.8519593"><ele>990.5</ele><time>2015-04-29T11:24:35.0000000+00:00</time></trkpt><trkpt lat="34.8812122" lon="32.852026"><ele>990.2</ele><time>2015-04-29T11:24:37.0000000+00:00</time></trkpt><trkpt lat="34.8811908" lon="32.85209"><ele>990.4</ele><time>2015-04-29T11:24:39.0000000+00:00</time></trkpt><trkpt lat="34.8811718" lon="32.8521464"><ele>990.2</ele><time>2015-04-29T11:24:41.0000000+00:00</time></trkpt><trkpt lat="34.8811501" lon="32.8522013"><ele>989.9</ele><time>2015-04-29T11:24:43.0000000+00:00</time></trkpt><trkpt lat="34.8811292" lon="32.8522568"><ele>989.8</ele><time>2015-04-29T11:24:45.0000000+00:00</time></trkpt><trkpt lat="34.8811102" lon="32.8523083"><ele>989.8</ele><time>2015-04-29T11:24:47.0000000+00:00</time></trkpt><trkpt lat="34.8810934" lon="32.8523596"><ele>989.8</ele><time>2015-04-29T11:24:49.0000000+00:00</time></trkpt><trkpt lat="34.8810787" lon="32.8524148"><ele>990.3</ele><time>2015-04-29T11:24:51.0000000+00:00</time></trkpt><trkpt lat="34.881061" lon="32.8524727"><ele>990.6</ele><time>2015-04-29T11:24:53.0000000+00:00</time></trkpt><trkpt lat="34.8810418" lon="32.8525434"><ele>991.2</ele><time>2015-04-29T11:24:55.0000000+00:00</time></trkpt><trkpt lat="34.8810232" lon="32.8526249"><ele>991.6</ele><time>2015-04-29T11:24:57.0000000+00:00</time></trkpt><trkpt lat="34.8810117" lon="32.8526965"><ele>991.7</ele><time>2015-04-29T11:24:59.0000000+00:00</time></trkpt><trkpt lat="34.8810034" lon="32.8527565"><ele>991.8</ele><time>2015-04-29T11:25:01.0000000+00:00</time></trkpt><trkpt lat="34.8809917" lon="32.8528207"><ele>992.5</ele><time>2015-04-29T11:25:03.0000000+00:00</time></trkpt><trkpt lat="34.8809779" lon="32.8528864"><ele>993.2</ele><time>2015-04-29T11:25:05.0000000+00:00</time></trkpt><trkpt lat="34.8809628" lon="32.8529498"><ele>993.6</ele><time>2015-04-29T11:25:07.0000000+00:00</time></trkpt><trkpt lat="34.8809461" lon="32.8530106"><ele>994.2</ele><time>2015-04-29T11:25:09.0000000+00:00</time></trkpt><trkpt lat="34.8809325" lon="32.8530716"><ele>994.6</ele><time>2015-04-29T11:25:11.0000000+00:00</time></trkpt><trkpt lat="34.8809179" lon="32.8531339"><ele>995.5</ele><time>2015-04-29T11:25:13.0000000+00:00</time></trkpt><trkpt lat="34.8809021" lon="32.8531966"><ele>995.7</ele><time>2015-04-29T11:25:15.0000000+00:00</time></trkpt><trkpt lat="34.8808843" lon="32.8532555"><ele>996.5</ele><time>2015-04-29T11:25:17.0000000+00:00</time></trkpt><trkpt lat="34.8808661" lon="32.8533136"><ele>997.4</ele><time>2015-04-29T11:25:19.0000000+00:00</time></trkpt><trkpt lat="34.8808556" lon="32.8533765"><ele>998.4</ele><time>2015-04-29T11:25:21.0000000+00:00</time></trkpt><trkpt lat="34.880841" lon="32.8534333"><ele>998.7</ele><time>2015-04-29T11:25:23.0000000+00:00</time></trkpt><trkpt lat="34.8808271" lon="32.8534873"><ele>998.7</ele><time>2015-04-29T11:25:25.0000000+00:00</time></trkpt><trkpt lat="34.8808193" lon="32.8535452"><ele>998.8</ele><time>2015-04-29T11:25:27.0000000+00:00</time></trkpt><trkpt lat="34.8808066" lon="32.8536063"><ele>999.5</ele><time>2015-04-29T11:25:29.0000000+00:00</time></trkpt><trkpt lat="34.8807943" lon="32.8536697"><ele>999.7</ele><time>2015-04-29T11:25:31.0000000+00:00</time></trkpt><trkpt lat="34.8807798" lon="32.853733"><ele>999.7</ele><time>2015-04-29T11:25:33.0000000+00:00</time></trkpt><trkpt lat="34.8807621" lon="32.8537946"><ele>1000.5</ele><time>2015-04-29T11:25:35.0000000+00:00</time></trkpt><trkpt lat="34.8807519" lon="32.8538565"><ele>1001.2</ele><time>2015-04-29T11:25:37.0000000+00:00</time></trkpt><trkpt lat="34.8807484" lon="32.8539143"><ele>1000.9</ele><time>2015-04-29T11:25:39.0000000+00:00</time></trkpt><trkpt lat="34.8807457" lon="32.8539772"><ele>1001.4</ele><time>2015-04-29T11:25:42.0000000+00:00</time></trkpt><trkpt lat="34.8807604" lon="32.8540502"><ele>1001.6</ele><time>2015-04-29T11:25:45.0000000+00:00</time></trkpt><trkpt lat="34.8807755" lon="32.8541021"><ele>1002.2</ele><time>2015-04-29T11:25:47.0000000+00:00</time></trkpt><trkpt lat="34.8808003" lon="32.8541744"><ele>1002.7</ele><time>2015-04-29T11:25:50.0000000+00:00</time></trkpt><trkpt lat="34.8808273" lon="32.8542269"><ele>1002.8</ele><time>2015-04-29T11:25:53.0000000+00:00</time></trkpt><trkpt lat="34.8808683" lon="32.8542831"><ele>1003.5</ele><time>2015-04-29T11:25:56.0000000+00:00</time></trkpt><trkpt lat="34.8809012" lon="32.8543278"><ele>1003.7</ele><time>2015-04-29T11:25:58.0000000+00:00</time></trkpt><trkpt lat="34.8809347" lon="32.8543699"><ele>1004.2</ele><time>2015-04-29T11:26:00.0000000+00:00</time></trkpt><trkpt lat="34.8809676" lon="32.8544085"><ele>1004.4</ele><time>2015-04-29T11:26:02.0000000+00:00</time></trkpt><trkpt lat="34.8810152" lon="32.8544644"><ele>1004.7</ele><time>2015-04-29T11:26:05.0000000+00:00</time></trkpt><trkpt lat="34.8810571" lon="32.8545233"><ele>1004.8</ele><time>2015-04-29T11:26:08.0000000+00:00</time></trkpt><trkpt lat="34.8810972" lon="32.8545805"><ele>1006.1</ele><time>2015-04-29T11:26:11.0000000+00:00</time></trkpt><trkpt lat="34.8811373" lon="32.8546376"><ele>1006.7</ele><time>2015-04-29T11:26:14.0000000+00:00</time></trkpt><trkpt lat="34.8811764" lon="32.854696"><ele>1006.8</ele><time>2015-04-29T11:26:17.0000000+00:00</time></trkpt><trkpt lat="34.881216" lon="32.8547516"><ele>1006.8</ele><time>2015-04-29T11:26:20.0000000+00:00</time></trkpt><trkpt lat="34.8812531" lon="32.8548087"><ele>1007.6</ele><time>2015-04-29T11:26:23.0000000+00:00</time></trkpt><trkpt lat="34.8812862" lon="32.8548715"><ele>1007.7</ele><time>2015-04-29T11:26:26.0000000+00:00</time></trkpt><trkpt lat="34.8813297" lon="32.8549254"><ele>1009.1</ele><time>2015-04-29T11:26:29.0000000+00:00</time></trkpt><trkpt lat="34.8813695" lon="32.8549774"><ele>1009.7</ele><time>2015-04-29T11:26:32.0000000+00:00</time></trkpt><trkpt lat="34.8814069" lon="32.855034"><ele>1010.0</ele><time>2015-04-29T11:26:35.0000000+00:00</time></trkpt><trkpt lat="34.8814503" lon="32.8550941"><ele>1010.7</ele><time>2015-04-29T11:26:38.0000000+00:00</time></trkpt><trkpt lat="34.8814917" lon="32.8551565"><ele>1011.6</ele><time>2015-04-29T11:26:41.0000000+00:00</time></trkpt><trkpt lat="34.8815308" lon="32.8552162"><ele>1012.5</ele><time>2015-04-29T11:26:44.0000000+00:00</time></trkpt><trkpt lat="34.881571" lon="32.8552699"><ele>1012.7</ele><time>2015-04-29T11:26:47.0000000+00:00</time></trkpt><trkpt lat="34.8816103" lon="32.8553196"><ele>1012.8</ele><time>2015-04-29T11:26:50.0000000+00:00</time></trkpt><trkpt lat="34.8816413" lon="32.8553659"><ele>1013.3</ele><time>2015-04-29T11:26:53.0000000+00:00</time></trkpt><trkpt lat="34.8816791" lon="32.8554079"><ele>1013.6</ele><time>2015-04-29T11:26:56.0000000+00:00</time></trkpt><trkpt lat="34.8817218" lon="32.8554631"><ele>1013.7</ele><time>2015-04-29T11:26:59.0000000+00:00</time></trkpt><trkpt lat="34.8817537" lon="32.8555216"><ele>1013.8</ele><time>2015-04-29T11:27:03.0000000+00:00</time></trkpt><trkpt lat="34.8817903" lon="32.8555687"><ele>1014.5</ele><time>2015-04-29T11:27:06.0000000+00:00</time></trkpt><trkpt lat="34.8818365" lon="32.8556281"><ele>1015.0</ele><time>2015-04-29T11:27:09.0000000+00:00</time></trkpt><trkpt lat="34.8818704" lon="32.8556908"><ele>1015.7</ele><time>2015-04-29T11:27:12.0000000+00:00</time></trkpt><trkpt lat="34.8819061" lon="32.8557643"><ele>1015.8</ele><time>2015-04-29T11:27:15.0000000+00:00</time></trkpt><trkpt lat="34.8819293" lon="32.8558224"><ele>1016.3</ele><time>2015-04-29T11:27:17.0000000+00:00</time></trkpt><trkpt lat="34.8819509" lon="32.8558848"><ele>1016.6</ele><time>2015-04-29T11:27:19.0000000+00:00</time></trkpt><trkpt lat="34.8819666" lon="32.8559464"><ele>1016.7</ele><time>2015-04-29T11:27:21.0000000+00:00</time></trkpt><trkpt lat="34.8819789" lon="32.8560079"><ele>1017.3</ele><time>2015-04-29T11:27:23.0000000+00:00</time></trkpt><trkpt lat="34.8819874" lon="32.8560691"><ele>1017.6</ele><time>2015-04-29T11:27:25.0000000+00:00</time></trkpt><trkpt lat="34.8819952" lon="32.8561309"><ele>1017.7</ele><time>2015-04-29T11:27:27.0000000+00:00</time></trkpt><trkpt lat="34.8820044" lon="32.8561929"><ele>1017.8</ele><time>2015-04-29T11:27:29.0000000+00:00</time></trkpt><trkpt lat="34.8820119" lon="32.8562544"><ele>1018.3</ele><time>2015-04-29T11:27:31.0000000+00:00</time></trkpt><trkpt lat="34.8820166" lon="32.8563166"><ele>1018.6</ele><time>2015-04-29T11:27:33.0000000+00:00</time></trkpt><trkpt lat="34.8820129" lon="32.8563784"><ele>1018.7</ele><time>2015-04-29T11:27:35.0000000+00:00</time></trkpt><trkpt lat="34.8820122" lon="32.8564412"><ele>1018.8</ele><time>2015-04-29T11:27:37.0000000+00:00</time></trkpt><trkpt lat="34.8820121" lon="32.8565073"><ele>1019.5</ele><time>2015-04-29T11:27:39.0000000+00:00</time></trkpt><trkpt lat="34.8820081" lon="32.856582"><ele>1020.2</ele><time>2015-04-29T11:27:41.0000000+00:00</time></trkpt><trkpt lat="34.8820017" lon="32.8566507"><ele>1020.6</ele><time>2015-04-29T11:27:43.0000000+00:00</time></trkpt><trkpt lat="34.8820025" lon="32.8567179"><ele>1020.7</ele><time>2015-04-29T11:27:45.0000000+00:00</time></trkpt><trkpt lat="34.881998" lon="32.856783"><ele>1020.8</ele><time>2015-04-29T11:27:47.0000000+00:00</time></trkpt><trkpt lat="34.8819925" lon="32.8568444"><ele>1020.8</ele><time>2015-04-29T11:27:49.0000000+00:00</time></trkpt><trkpt lat="34.8819914" lon="32.856904"><ele>1020.8</ele><time>2015-04-29T11:27:51.0000000+00:00</time></trkpt><trkpt lat="34.881986" lon="32.8569827"><ele>1020.8</ele><time>2015-04-29T11:27:54.0000000+00:00</time></trkpt><trkpt lat="34.8819842" lon="32.8570597"><ele>1020.8</ele><time>2015-04-29T11:27:57.0000000+00:00</time></trkpt><trkpt lat="34.8819872" lon="32.857141"><ele>1020.8</ele><time>2015-04-29T11:28:00.0000000+00:00</time></trkpt><trkpt lat="34.8819885" lon="32.8571968"><ele>1021.3</ele><time>2015-04-29T11:28:02.0000000+00:00</time></trkpt><trkpt lat="34.881985" lon="32.8572532"><ele>1021.6</ele><time>2015-04-29T11:28:04.0000000+00:00</time></trkpt><trkpt lat="34.8819848" lon="32.8573129"><ele>1021.7</ele><time>2015-04-29T11:28:06.0000000+00:00</time></trkpt><trkpt lat="34.8819847" lon="32.8573755"><ele>1022.5</ele><time>2015-04-29T11:28:08.0000000+00:00</time></trkpt><trkpt lat="34.8819803" lon="32.857439"><ele>1022.7</ele><time>2015-04-29T11:28:10.0000000+00:00</time></trkpt><trkpt lat="34.8819688" lon="32.8575021"><ele>1022.7</ele><time>2015-04-29T11:28:12.0000000+00:00</time></trkpt><trkpt lat="34.8819472" lon="32.8575617"><ele>1021.3</ele><time>2015-04-29T11:28:14.0000000+00:00</time></trkpt><trkpt lat="34.8819116" lon="32.8576187"><ele>1020.6</ele><time>2015-04-29T11:28:16.0000000+00:00</time></trkpt><trkpt lat="34.8818861" lon="32.8576859"><ele>1020.0</ele><time>2015-04-29T11:28:18.0000000+00:00</time></trkpt><trkpt lat="34.8818652" lon="32.8577536"><ele>1019.8</ele><time>2015-04-29T11:28:20.0000000+00:00</time></trkpt><trkpt lat="34.8818416" lon="32.8578189"><ele>1019.8</ele><time>2015-04-29T11:28:22.0000000+00:00</time></trkpt><trkpt lat="34.8818146" lon="32.8578831"><ele>1020.5</ele><time>2015-04-29T11:28:24.0000000+00:00</time></trkpt><trkpt lat="34.8817907" lon="32.857948"><ele>1021.2</ele><time>2015-04-29T11:28:26.0000000+00:00</time></trkpt><trkpt lat="34.8817724" lon="32.8580151"><ele>1022.1</ele><time>2015-04-29T11:28:28.0000000+00:00</time></trkpt><trkpt lat="34.8817526" lon="32.858082"><ele>1022.6</ele><time>2015-04-29T11:28:30.0000000+00:00</time></trkpt><trkpt lat="34.8817323" lon="32.8581497"><ele>1023.5</ele><time>2015-04-29T11:28:32.0000000+00:00</time></trkpt><trkpt lat="34.8817116" lon="32.858219"><ele>1023.7</ele><time>2015-04-29T11:28:34.0000000+00:00</time></trkpt><trkpt lat="34.881691" lon="32.8582876"><ele>1023.7</ele><time>2015-04-29T11:28:36.0000000+00:00</time></trkpt><trkpt lat="34.8816691" lon="32.8583507"><ele>1023.8</ele><time>2015-04-29T11:28:38.0000000+00:00</time></trkpt><trkpt lat="34.8816493" lon="32.858413"><ele>1024.3</ele><time>2015-04-29T11:28:40.0000000+00:00</time></trkpt><trkpt lat="34.8816312" lon="32.8584764"><ele>1024.6</ele><time>2015-04-29T11:28:42.0000000+00:00</time></trkpt><trkpt lat="34.8816116" lon="32.858537"><ele>1024.7</ele><time>2015-04-29T11:28:44.0000000+00:00</time></trkpt><trkpt lat="34.8815905" lon="32.8585951"><ele>1024.8</ele><time>2015-04-29T11:28:46.0000000+00:00</time></trkpt><trkpt lat="34.8815788" lon="32.8586587"><ele>1025.3</ele><time>2015-04-29T11:28:48.0000000+00:00</time></trkpt><trkpt lat="34.881569" lon="32.8587236"><ele>1026.1</ele><time>2015-04-29T11:28:50.0000000+00:00</time></trkpt><trkpt lat="34.881564" lon="32.8587891"><ele>1026.6</ele><time>2015-04-29T11:28:52.0000000+00:00</time></trkpt><trkpt lat="34.8815649" lon="32.8588519"><ele>1027.5</ele><time>2015-04-29T11:28:54.0000000+00:00</time></trkpt><trkpt lat="34.8815656" lon="32.8589297"><ele>1028.5</ele><time>2015-04-29T11:28:57.0000000+00:00</time></trkpt><trkpt lat="34.8815737" lon="32.8590095"><ele>1028.7</ele><time>2015-04-29T11:29:00.0000000+00:00</time></trkpt><trkpt lat="34.8815881" lon="32.8590622"><ele>1029.5</ele><time>2015-04-29T11:29:02.0000000+00:00</time></trkpt><trkpt lat="34.8816122" lon="32.8591332"><ele>1029.7</ele><time>2015-04-29T11:29:05.0000000+00:00</time></trkpt><trkpt lat="34.8816356" lon="32.8591839"><ele>1028.9</ele><time>2015-04-29T11:29:08.0000000+00:00</time></trkpt><trkpt lat="34.8816623" lon="32.8592408"><ele>1029.3</ele><time>2015-04-29T11:29:11.0000000+00:00</time></trkpt><trkpt lat="34.881699" lon="32.8592981"><ele>1030.2</ele><time>2015-04-29T11:29:14.0000000+00:00</time></trkpt><trkpt lat="34.8817433" lon="32.8593517"><ele>1030.7</ele><time>2015-04-29T11:29:17.0000000+00:00</time></trkpt><trkpt lat="34.8817846" lon="32.8594042"><ele>1030.8</ele><time>2015-04-29T11:29:20.0000000+00:00</time></trkpt><trkpt lat="34.8818325" lon="32.8594418"><ele>1030.8</ele><time>2015-04-29T11:29:25.0000000+00:00</time></trkpt><trkpt lat="34.8818764" lon="32.8594717"><ele>1031.6</ele><time>2015-04-29T11:29:29.0000000+00:00</time></trkpt><trkpt lat="34.8819265" lon="32.8594963"><ele>1032.0</ele><time>2015-04-29T11:29:32.0000000+00:00</time></trkpt><trkpt lat="34.881986" lon="32.8595174"><ele>1032.7</ele><time>2015-04-29T11:29:35.0000000+00:00</time></trkpt><trkpt lat="34.8820436" lon="32.8595402"><ele>1033.5</ele><time>2015-04-29T11:29:38.0000000+00:00</time></trkpt><trkpt lat="34.8820911" lon="32.859562"><ele>1033.7</ele><time>2015-04-29T11:29:41.0000000+00:00</time></trkpt><trkpt lat="34.8821398" lon="32.8595755"><ele>1034.7</ele><time>2015-04-29T11:29:46.0000000+00:00</time></trkpt><trkpt lat="34.8821905" lon="32.8595977"><ele>1034.9</ele><time>2015-04-29T11:29:50.0000000+00:00</time></trkpt><trkpt lat="34.88224" lon="32.8596194"><ele>1035.5</ele><time>2015-04-29T11:29:53.0000000+00:00</time></trkpt><trkpt lat="34.8822967" lon="32.8596494"><ele>1036.5</ele><time>2015-04-29T11:29:56.0000000+00:00</time></trkpt><trkpt lat="34.8823476" lon="32.8596912"><ele>1036.7</ele><time>2015-04-29T11:29:59.0000000+00:00</time></trkpt><trkpt lat="34.882393" lon="32.8597442"><ele>1037.3</ele><time>2015-04-29T11:30:02.0000000+00:00</time></trkpt><trkpt lat="34.8824379" lon="32.859801"><ele>1037.7</ele><time>2015-04-29T11:30:05.0000000+00:00</time></trkpt><trkpt lat="34.8824667" lon="32.8598574"><ele>1038.3</ele><time>2015-04-29T11:30:08.0000000+00:00</time></trkpt><trkpt lat="34.8824912" lon="32.8599066"><ele>1038.5</ele><time>2015-04-29T11:30:11.0000000+00:00</time></trkpt><trkpt lat="34.8825168" lon="32.8599605"><ele>1036.0</ele><time>2015-04-29T11:30:17.0000000+00:00</time></trkpt><trkpt lat="34.8825609" lon="32.8599754"><ele>1035.6</ele><time>2015-04-29T11:30:21.0000000+00:00</time></trkpt><trkpt lat="34.8826058" lon="32.8599614"><ele>1037.4</ele><time>2015-04-29T11:30:24.0000000+00:00</time></trkpt><trkpt lat="34.8826697" lon="32.8599261"><ele>1039.2</ele><time>2015-04-29T11:30:27.0000000+00:00</time></trkpt><trkpt lat="34.8827236" lon="32.8599075"><ele>1039.6</ele><time>2015-04-29T11:30:29.0000000+00:00</time></trkpt><trkpt lat="34.8827745" lon="32.8598935"><ele>1040.2</ele><time>2015-04-29T11:30:31.0000000+00:00</time></trkpt><trkpt lat="34.8828346" lon="32.8598761"><ele>1040.2</ele><time>2015-04-29T11:30:34.0000000+00:00</time></trkpt><trkpt lat="34.8828825" lon="32.8598672"><ele>1039.7</ele><time>2015-04-29T11:30:37.0000000+00:00</time></trkpt><trkpt lat="34.8829315" lon="32.8598559"><ele>1041.0</ele><time>2015-04-29T11:30:40.0000000+00:00</time></trkpt><trkpt lat="34.8829879" lon="32.8598438"><ele>1042.0</ele><time>2015-04-29T11:30:43.0000000+00:00</time></trkpt><trkpt lat="34.8830518" lon="32.859812"><ele>1042.1</ele><time>2015-04-29T11:30:46.0000000+00:00</time></trkpt><trkpt lat="34.8830947" lon="32.8597915"><ele>1041.8</ele><time>2015-04-29T11:30:48.0000000+00:00</time></trkpt><trkpt lat="34.8831523" lon="32.8597614"><ele>1040.0</ele><time>2015-04-29T11:30:50.0000000+00:00</time></trkpt><trkpt lat="34.88321" lon="32.859737"><ele>1039.6</ele><time>2015-04-29T11:30:52.0000000+00:00</time></trkpt><trkpt lat="34.8832656" lon="32.8597129"><ele>1039.7</ele><time>2015-04-29T11:30:54.0000000+00:00</time></trkpt><trkpt lat="34.8833165" lon="32.8596884"><ele>1039.8</ele><time>2015-04-29T11:30:56.0000000+00:00</time></trkpt><trkpt lat="34.8833596" lon="32.8596654"><ele>1040.3</ele><time>2015-04-29T11:30:58.0000000+00:00</time></trkpt><trkpt lat="34.8834165" lon="32.8596374"><ele>1041.2</ele><time>2015-04-29T11:31:01.0000000+00:00</time></trkpt><trkpt lat="34.883459" lon="32.8596685"><ele>1040.3</ele><time>2015-04-29T11:31:06.0000000+00:00</time></trkpt><trkpt lat="34.8834575" lon="32.8597356"><ele>1039.9</ele><time>2015-04-29T11:31:10.0000000+00:00</time></trkpt><trkpt lat="34.8834533" lon="32.8597922"><ele>1040.5</ele><time>2015-04-29T11:31:23.0000000+00:00</time></trkpt><trkpt lat="34.8835008" lon="32.8598208"><ele>1041.2</ele><time>2015-04-29T11:31:32.0000000+00:00</time></trkpt><trkpt lat="34.8835197" lon="32.859879"><ele>1043.1</ele><time>2015-04-29T11:31:36.0000000+00:00</time></trkpt><trkpt lat="34.8835357" lon="32.8599401"><ele>1043.7</ele><time>2015-04-29T11:31:39.0000000+00:00</time></trkpt><trkpt lat="34.8835672" lon="32.8600074"><ele>1045.5</ele><time>2015-04-29T11:31:42.0000000+00:00</time></trkpt><trkpt lat="34.8835995" lon="32.8600677"><ele>1047.6</ele><time>2015-04-29T11:31:45.0000000+00:00</time></trkpt><trkpt lat="34.8836289" lon="32.8601231"><ele>1048.5</ele><time>2015-04-29T11:31:48.0000000+00:00</time></trkpt><trkpt lat="34.8836444" lon="32.8601798"><ele>1050.5</ele><time>2015-04-29T11:31:51.0000000+00:00</time></trkpt><trkpt lat="34.8836308" lon="32.8602325"><ele>1052.9</ele><time>2015-04-29T11:32:02.0000000+00:00</time></trkpt><trkpt lat="34.8836693" lon="32.8602855"><ele>1052.2</ele><time>2015-04-29T11:32:31.0000000+00:00</time></trkpt><trkpt lat="34.8836926" lon="32.8603489"><ele>1053.1</ele><time>2015-04-29T11:32:34.0000000+00:00</time></trkpt><trkpt lat="34.8837073" lon="32.8604269"><ele>1053.7</ele><time>2015-04-29T11:32:37.0000000+00:00</time></trkpt><trkpt lat="34.8837129" lon="32.8604964"><ele>1053.8</ele><time>2015-04-29T11:32:40.0000000+00:00</time></trkpt><trkpt lat="34.8837362" lon="32.8605464"><ele>1053.8</ele><time>2015-04-29T11:32:43.0000000+00:00</time></trkpt><trkpt lat="34.8837672" lon="32.8605954"><ele>1052.8</ele><time>2015-04-29T11:32:48.0000000+00:00</time></trkpt><trkpt lat="34.883801" lon="32.8606369"><ele>1052.8</ele><time>2015-04-29T11:32:52.0000000+00:00</time></trkpt><trkpt lat="34.8838353" lon="32.860675"><ele>1052.8</ele><time>2015-04-29T11:32:56.0000000+00:00</time></trkpt><trkpt lat="34.8838725" lon="32.8607206"><ele>1051.8</ele><time>2015-04-29T11:33:01.0000000+00:00</time></trkpt><trkpt lat="34.883913" lon="32.860752"><ele>1051.7</ele><time>2015-04-29T11:33:06.0000000+00:00</time></trkpt><trkpt lat="34.8839518" lon="32.8607939"><ele>1053.0</ele><time>2015-04-29T11:33:11.0000000+00:00</time></trkpt><trkpt lat="34.8839924" lon="32.8608317"><ele>1052.3</ele><time>2015-04-29T11:33:15.0000000+00:00</time></trkpt><trkpt lat="34.8840272" lon="32.8608802"><ele>1052.1</ele><time>2015-04-29T11:33:19.0000000+00:00</time></trkpt><trkpt lat="34.8840695" lon="32.8609315"><ele>1052.3</ele><time>2015-04-29T11:33:23.0000000+00:00</time></trkpt><trkpt lat="34.884104" lon="32.8609669"><ele>1052.7</ele><time>2015-04-29T11:33:26.0000000+00:00</time></trkpt><trkpt lat="34.8841355" lon="32.8610248"><ele>1053.6</ele><time>2015-04-29T11:33:30.0000000+00:00</time></trkpt><trkpt lat="34.8841648" lon="32.8610781"><ele>1055.2</ele><time>2015-04-29T11:33:34.0000000+00:00</time></trkpt><trkpt lat="34.8841857" lon="32.8611338"><ele>1057.1</ele><time>2015-04-29T11:33:38.0000000+00:00</time></trkpt><trkpt lat="34.8842068" lon="32.8611884"><ele>1057.7</ele><time>2015-04-29T11:33:42.0000000+00:00</time></trkpt><trkpt lat="34.8842317" lon="32.8612456"><ele>1058.4</ele><time>2015-04-29T11:33:46.0000000+00:00</time></trkpt><trkpt lat="34.8842619" lon="32.8613134"><ele>1058.7</ele><time>2015-04-29T11:33:50.0000000+00:00</time></trkpt><trkpt lat="34.884299" lon="32.8613669"><ele>1058.8</ele><time>2015-04-29T11:33:53.0000000+00:00</time></trkpt><trkpt lat="34.8843322" lon="32.8614135"><ele>1058.8</ele><time>2015-04-29T11:33:56.0000000+00:00</time></trkpt><trkpt lat="34.8843678" lon="32.8614709"><ele>1060.5</ele><time>2015-04-29T11:34:00.0000000+00:00</time></trkpt><trkpt lat="34.884398" lon="32.8615236"><ele>1062.4</ele><time>2015-04-29T11:34:04.0000000+00:00</time></trkpt><trkpt lat="34.8844402" lon="32.8615604"><ele>1063.3</ele><time>2015-04-29T11:34:08.0000000+00:00</time></trkpt><trkpt lat="34.8844859" lon="32.861604"><ele>1063.7</ele><time>2015-04-29T11:34:12.0000000+00:00</time></trkpt><trkpt lat="34.8845218" lon="32.8616483"><ele>1064.6</ele><time>2015-04-29T11:34:15.0000000+00:00</time></trkpt><trkpt lat="34.8845534" lon="32.8616934"><ele>1065.2</ele><time>2015-04-29T11:34:18.0000000+00:00</time></trkpt><trkpt lat="34.8845839" lon="32.8617383"><ele>1066.2</ele><time>2015-04-29T11:34:21.0000000+00:00</time></trkpt><trkpt lat="34.8846179" lon="32.861785"><ele>1066.7</ele><time>2015-04-29T11:34:24.0000000+00:00</time></trkpt><trkpt lat="34.8846513" lon="32.8618301"><ele>1067.6</ele><time>2015-04-29T11:34:27.0000000+00:00</time></trkpt><trkpt lat="34.8846812" lon="32.8618757"><ele>1067.5</ele><time>2015-04-29T11:34:30.0000000+00:00</time></trkpt><trkpt lat="34.8847241" lon="32.8619251"><ele>1068.4</ele><time>2015-04-29T11:34:34.0000000+00:00</time></trkpt><trkpt lat="34.8847649" lon="32.8619624"><ele>1069.6</ele><time>2015-04-29T11:34:37.0000000+00:00</time></trkpt><trkpt lat="34.8847997" lon="32.8619997"><ele>1070.5</ele><time>2015-04-29T11:34:39.0000000+00:00</time></trkpt><trkpt lat="34.8848396" lon="32.862057"><ele>1071.0</ele><time>2015-04-29T11:34:42.0000000+00:00</time></trkpt><trkpt lat="34.8848676" lon="32.862113"><ele>1070.3</ele><time>2015-04-29T11:34:45.0000000+00:00</time></trkpt><trkpt lat="34.8848913" lon="32.8621737"><ele>1069.8</ele><time>2015-04-29T11:34:49.0000000+00:00</time></trkpt><trkpt lat="34.8849026" lon="32.8622319"><ele>1070.5</ele><time>2015-04-29T11:34:52.0000000+00:00</time></trkpt><trkpt lat="34.8849075" lon="32.8622929"><ele>1070.7</ele><time>2015-04-29T11:34:55.0000000+00:00</time></trkpt><trkpt lat="34.8849132" lon="32.8623624"><ele>1070.6</ele><time>2015-04-29T11:34:59.0000000+00:00</time></trkpt><trkpt lat="34.8849166" lon="32.8624185"><ele>1070.6</ele><time>2015-04-29T11:35:02.0000000+00:00</time></trkpt><trkpt lat="34.8849219" lon="32.8624835"><ele>1071.2</ele><time>2015-04-29T11:35:05.0000000+00:00</time></trkpt><trkpt lat="34.8849234" lon="32.8625694"><ele>1071.7</ele><time>2015-04-29T11:35:08.0000000+00:00</time></trkpt><trkpt lat="34.8849242" lon="32.8626259"><ele>1071.5</ele><time>2015-04-29T11:35:10.0000000+00:00</time></trkpt><trkpt lat="34.8849347" lon="32.8627019"><ele>1072.2</ele><time>2015-04-29T11:35:13.0000000+00:00</time></trkpt><trkpt lat="34.8849566" lon="32.8627767"><ele>1072.7</ele><time>2015-04-29T11:35:16.0000000+00:00</time></trkpt><trkpt lat="34.8849657" lon="32.8628408"><ele>1074.6</ele><time>2015-04-29T11:35:38.0000000+00:00</time></trkpt><trkpt lat="34.8849861" lon="32.8629086"><ele>1074.0</ele><time>2015-04-29T11:35:41.0000000+00:00</time></trkpt><trkpt lat="34.8850035" lon="32.8629823"><ele>1073.8</ele><time>2015-04-29T11:35:43.0000000+00:00</time></trkpt><trkpt lat="34.885009" lon="32.8630562"><ele>1073.8</ele><time>2015-04-29T11:35:45.0000000+00:00</time></trkpt><trkpt lat="34.884993" lon="32.8631237"><ele>1073.8</ele><time>2015-04-29T11:35:47.0000000+00:00</time></trkpt><trkpt lat="34.8849698" lon="32.8631876"><ele>1073.8</ele><time>2015-04-29T11:35:49.0000000+00:00</time></trkpt><trkpt lat="34.8849502" lon="32.8632478"><ele>1072.5</ele><time>2015-04-29T11:35:51.0000000+00:00</time></trkpt><trkpt lat="34.8849268" lon="32.8633118"><ele>1072.0</ele><time>2015-04-29T11:35:53.0000000+00:00</time></trkpt><trkpt lat="34.8849013" lon="32.8633671"><ele>1071.8</ele><time>2015-04-29T11:35:55.0000000+00:00</time></trkpt><trkpt lat="34.8848995" lon="32.8634268"><ele>1072.1</ele><time>2015-04-29T11:35:59.0000000+00:00</time></trkpt><trkpt lat="34.8849566" lon="32.8634282"><ele>1072.2</ele><time>2015-04-29T11:36:03.0000000+00:00</time></trkpt><trkpt lat="34.8850036" lon="32.8634514"><ele>1071.0</ele><time>2015-04-29T11:36:07.0000000+00:00</time></trkpt><trkpt lat="34.8850639" lon="32.8634515"><ele>1070.8</ele><time>2015-04-29T11:36:11.0000000+00:00</time></trkpt><trkpt lat="34.8851145" lon="32.863455"><ele>1072.4</ele><time>2015-04-29T11:36:14.0000000+00:00</time></trkpt><trkpt lat="34.8851637" lon="32.863466"><ele>1072.7</ele><time>2015-04-29T11:36:17.0000000+00:00</time></trkpt><trkpt lat="34.8852112" lon="32.8634789"><ele>1073.6</ele><time>2015-04-29T11:36:20.0000000+00:00</time></trkpt><trkpt lat="34.8852566" lon="32.8634951"><ele>1074.6</ele><time>2015-04-29T11:36:23.0000000+00:00</time></trkpt><trkpt lat="34.885302" lon="32.8635181"><ele>1074.7</ele><time>2015-04-29T11:36:26.0000000+00:00</time></trkpt><trkpt lat="34.8853441" lon="32.8635435"><ele>1074.8</ele><time>2015-04-29T11:36:29.0000000+00:00</time></trkpt><trkpt lat="34.8853863" lon="32.8635672"><ele>1074.8</ele><time>2015-04-29T11:36:32.0000000+00:00</time></trkpt><trkpt lat="34.885433" lon="32.8635789"><ele>1075.3</ele><time>2015-04-29T11:36:35.0000000+00:00</time></trkpt><trkpt lat="34.8854779" lon="32.8636021"><ele>1075.7</ele><time>2015-04-29T11:36:38.0000000+00:00</time></trkpt><trkpt lat="34.8855206" lon="32.8636203"><ele>1075.8</ele><time>2015-04-29T11:36:41.0000000+00:00</time></trkpt><trkpt lat="34.8855637" lon="32.8636366"><ele>1076.3</ele><time>2015-04-29T11:36:44.0000000+00:00</time></trkpt><trkpt lat="34.8856187" lon="32.863658"><ele>1076.8</ele><time>2015-04-29T11:36:48.0000000+00:00</time></trkpt><trkpt lat="34.8856726" lon="32.8636853"><ele>1077.7</ele><time>2015-04-29T11:36:52.0000000+00:00</time></trkpt><trkpt lat="34.8857169" lon="32.8636974"><ele>1077.6</ele><time>2015-04-29T11:36:55.0000000+00:00</time></trkpt><trkpt lat="34.8857628" lon="32.8637007"><ele>1077.6</ele><time>2015-04-29T11:36:58.0000000+00:00</time></trkpt><trkpt lat="34.8858123" lon="32.8637161"><ele>1079.1</ele><time>2015-04-29T11:37:01.0000000+00:00</time></trkpt><trkpt lat="34.885862" lon="32.8637262"><ele>1079.7</ele><time>2015-04-29T11:37:04.0000000+00:00</time></trkpt><trkpt lat="34.8859152" lon="32.8637405"><ele>1080.4</ele><time>2015-04-29T11:37:07.0000000+00:00</time></trkpt><trkpt lat="34.8859633" lon="32.8637526"><ele>1081.2</ele><time>2015-04-29T11:37:10.0000000+00:00</time></trkpt><trkpt lat="34.8860072" lon="32.8637666"><ele>1082.9</ele><time>2015-04-29T11:37:13.0000000+00:00</time></trkpt><trkpt lat="34.8860496" lon="32.8637858"><ele>1083.7</ele><time>2015-04-29T11:37:16.0000000+00:00</time></trkpt><trkpt lat="34.8861043" lon="32.8638107"><ele>1083.6</ele><time>2015-04-29T11:37:20.0000000+00:00</time></trkpt><trkpt lat="34.8861575" lon="32.8638352"><ele>1085.0</ele><time>2015-04-29T11:37:24.0000000+00:00</time></trkpt><trkpt lat="34.8862092" lon="32.8638582"><ele>1086.0</ele><time>2015-04-29T11:37:28.0000000+00:00</time></trkpt><trkpt lat="34.886254" lon="32.8638631"><ele>1087.2</ele><time>2015-04-29T11:37:35.0000000+00:00</time></trkpt><trkpt lat="34.8862992" lon="32.8638702"><ele>1088.7</ele><time>2015-04-29T11:37:40.0000000+00:00</time></trkpt><trkpt lat="34.8863526" lon="32.8638612"><ele>1086.9</ele><time>2015-04-29T11:37:45.0000000+00:00</time></trkpt><trkpt lat="34.8864016" lon="32.8638738"><ele>1086.8</ele><time>2015-04-29T11:37:49.0000000+00:00</time></trkpt><trkpt lat="34.8864588" lon="32.863886"><ele>1088.2</ele><time>2015-04-29T11:37:54.0000000+00:00</time></trkpt><trkpt lat="34.8865064" lon="32.8638968"><ele>1088.7</ele><time>2015-04-29T11:37:58.0000000+00:00</time></trkpt><trkpt lat="34.8865557" lon="32.8638997"><ele>1089.1</ele><time>2015-04-29T11:38:02.0000000+00:00</time></trkpt><trkpt lat="34.8866047" lon="32.8639086"><ele>1089.7</ele><time>2015-04-29T11:38:06.0000000+00:00</time></trkpt><trkpt lat="34.886657" lon="32.8639099"><ele>1090.7</ele><time>2015-04-29T11:38:10.0000000+00:00</time></trkpt><trkpt lat="34.8867059" lon="32.8639167"><ele>1091.5</ele><time>2015-04-29T11:38:14.0000000+00:00</time></trkpt><trkpt lat="34.886758" lon="32.8639317"><ele>1091.4</ele><time>2015-04-29T11:38:18.0000000+00:00</time></trkpt><trkpt lat="34.8868067" lon="32.8639424"><ele>1091.7</ele><time>2015-04-29T11:38:22.0000000+00:00</time></trkpt><trkpt lat="34.886862" lon="32.8639491"><ele>1092.6</ele><time>2015-04-29T11:38:26.0000000+00:00</time></trkpt><trkpt lat="34.886918" lon="32.8639505"><ele>1092.6</ele><time>2015-04-29T11:38:29.0000000+00:00</time></trkpt><trkpt lat="34.8869726" lon="32.8639437"><ele>1093.5</ele><time>2015-04-29T11:38:32.0000000+00:00</time></trkpt><trkpt lat="34.8870244" lon="32.8639378"><ele>1094.7</ele><time>2015-04-29T11:38:36.0000000+00:00</time></trkpt><trkpt lat="34.8870655" lon="32.8639599"><ele>1095.0</ele><time>2015-04-29T11:38:39.0000000+00:00</time></trkpt><trkpt lat="34.8871161" lon="32.8639752"><ele>1095.2</ele><time>2015-04-29T11:38:42.0000000+00:00</time></trkpt><trkpt lat="34.8871672" lon="32.8639853"><ele>1095.3</ele><time>2015-04-29T11:38:45.0000000+00:00</time></trkpt><trkpt lat="34.8872197" lon="32.8639854"><ele>1096.7</ele><time>2015-04-29T11:38:50.0000000+00:00</time></trkpt><trkpt lat="34.8872662" lon="32.8640017"><ele>1097.5</ele><time>2015-04-29T11:38:54.0000000+00:00</time></trkpt><trkpt lat="34.8873416" lon="32.8640219"><ele>1098.6</ele><time>2015-04-29T11:38:58.0000000+00:00</time></trkpt><trkpt lat="34.8873936" lon="32.8640127"><ele>1099.4</ele><time>2015-04-29T11:39:01.0000000+00:00</time></trkpt><trkpt lat="34.8874494" lon="32.8640038"><ele>1098.6</ele><time>2015-04-29T11:39:05.0000000+00:00</time></trkpt><trkpt lat="34.8874983" lon="32.8640017"><ele>1097.9</ele><time>2015-04-29T11:39:08.0000000+00:00</time></trkpt><trkpt lat="34.8875503" lon="32.8639957"><ele>1096.3</ele><time>2015-04-29T11:39:11.0000000+00:00</time></trkpt><trkpt lat="34.8876047" lon="32.8640014"><ele>1096.3</ele><time>2015-04-29T11:39:14.0000000+00:00</time></trkpt><trkpt lat="34.8876542" lon="32.8640177"><ele>1097.5</ele><time>2015-04-29T11:39:17.0000000+00:00</time></trkpt><trkpt lat="34.8877134" lon="32.8640348"><ele>1097.5</ele><time>2015-04-29T11:39:20.0000000+00:00</time></trkpt><trkpt lat="34.887758" lon="32.8640564"><ele>1097.7</ele><time>2015-04-29T11:39:22.0000000+00:00</time></trkpt><trkpt lat="34.8878017" lon="32.864087"><ele>1099.0</ele><time>2015-04-29T11:39:24.0000000+00:00</time></trkpt><trkpt lat="34.8878415" lon="32.8641218"><ele>1099.8</ele><time>2015-04-29T11:39:26.0000000+00:00</time></trkpt><trkpt lat="34.88788" lon="32.8641647"><ele>1099.8</ele><time>2015-04-29T11:39:30.0000000+00:00</time></trkpt><trkpt lat="34.8879214" lon="32.8642144"><ele>1100.6</ele><time>2015-04-29T11:39:34.0000000+00:00</time></trkpt><trkpt lat="34.8879626" lon="32.8642445"><ele>1100.7</ele><time>2015-04-29T11:39:37.0000000+00:00</time></trkpt><trkpt lat="34.8880124" lon="32.864282"><ele>1101.3</ele><time>2015-04-29T11:39:41.0000000+00:00</time></trkpt><trkpt lat="34.8880592" lon="32.8643223"><ele>1101.2</ele><time>2015-04-29T11:39:45.0000000+00:00</time></trkpt><trkpt lat="34.8881072" lon="32.8643604"><ele>1102.2</ele><time>2015-04-29T11:39:49.0000000+00:00</time></trkpt><trkpt lat="34.8881551" lon="32.8643977"><ele>1103.0</ele><time>2015-04-29T11:39:53.0000000+00:00</time></trkpt><trkpt lat="34.8881975" lon="32.8644237"><ele>1104.0</ele><time>2015-04-29T11:39:58.0000000+00:00</time></trkpt><trkpt lat="34.8882485" lon="32.8644379"><ele>1104.0</ele><time>2015-04-29T11:40:05.0000000+00:00</time></trkpt><trkpt lat="34.8882994" lon="32.8644434"><ele>1105.0</ele><time>2015-04-29T11:40:10.0000000+00:00</time></trkpt><trkpt lat="34.8883468" lon="32.8644503"><ele>1104.3</ele><time>2015-04-29T11:40:31.0000000+00:00</time></trkpt><trkpt lat="34.8883838" lon="32.8644843"><ele>1103.0</ele><time>2015-04-29T11:40:36.0000000+00:00</time></trkpt><trkpt lat="34.8884293" lon="32.8644904"><ele>1103.7</ele><time>2015-04-29T11:40:40.0000000+00:00</time></trkpt><trkpt lat="34.8884744" lon="32.8644893"><ele>1103.9</ele><time>2015-04-29T11:40:44.0000000+00:00</time></trkpt><trkpt lat="34.8885204" lon="32.8645008"><ele>1103.9</ele><time>2015-04-29T11:40:48.0000000+00:00</time></trkpt><trkpt lat="34.8885654" lon="32.864523"><ele>1106.0</ele><time>2015-04-29T11:40:52.0000000+00:00</time></trkpt><trkpt lat="34.8886191" lon="32.8645258"><ele>1106.9</ele><time>2015-04-29T11:40:57.0000000+00:00</time></trkpt><trkpt lat="34.8886699" lon="32.8645483"><ele>1106.4</ele><time>2015-04-29T11:41:03.0000000+00:00</time></trkpt><trkpt lat="34.8887056" lon="32.8645899"><ele>1107.6</ele><time>2015-04-29T11:41:07.0000000+00:00</time></trkpt><trkpt lat="34.8887422" lon="32.8646345"><ele>1108.0</ele><time>2015-04-29T11:41:11.0000000+00:00</time></trkpt><trkpt lat="34.8887794" lon="32.864681"><ele>1108.7</ele><time>2015-04-29T11:41:14.0000000+00:00</time></trkpt><trkpt lat="34.8888071" lon="32.8647382"><ele>1108.6</ele><time>2015-04-29T11:41:17.0000000+00:00</time></trkpt><trkpt lat="34.888838" lon="32.8647837"><ele>1112.0</ele><time>2015-04-29T11:41:25.0000000+00:00</time></trkpt><trkpt lat="34.8888683" lon="32.8648371"><ele>1111.8</ele><time>2015-04-29T11:41:30.0000000+00:00</time></trkpt><trkpt lat="34.8888513" lon="32.8647783"><ele>1115.2</ele><time>2015-04-29T11:41:43.0000000+00:00</time></trkpt><trkpt lat="34.8888142" lon="32.8648165"><ele>1114.0</ele><time>2015-04-29T11:42:38.0000000+00:00</time></trkpt><trkpt lat="34.8888077" lon="32.8648728"><ele>1115.3</ele><time>2015-04-29T11:42:44.0000000+00:00</time></trkpt><trkpt lat="34.8888494" lon="32.8649269"><ele>1115.2</ele><time>2015-04-29T11:42:47.0000000+00:00</time></trkpt><trkpt lat="34.8888878" lon="32.8649732"><ele>1113.6</ele><time>2015-04-29T11:42:50.0000000+00:00</time></trkpt><trkpt lat="34.8889212" lon="32.8650249"><ele>1112.7</ele><time>2015-04-29T11:42:53.0000000+00:00</time></trkpt><trkpt lat="34.8889556" lon="32.8650678"><ele>1113.6</ele><time>2015-04-29T11:42:56.0000000+00:00</time></trkpt><trkpt lat="34.8889929" lon="32.8651111"><ele>1115.0</ele><time>2015-04-29T11:43:01.0000000+00:00</time></trkpt><trkpt lat="34.8890312" lon="32.8651532"><ele>1116.3</ele><time>2015-04-29T11:43:07.0000000+00:00</time></trkpt><trkpt lat="34.8890811" lon="32.8651694"><ele>1116.8</ele><time>2015-04-29T11:43:13.0000000+00:00</time></trkpt><trkpt lat="34.8891309" lon="32.8651934"><ele>1117.7</ele><time>2015-04-29T11:43:19.0000000+00:00</time></trkpt><trkpt lat="34.889176" lon="32.8652226"><ele>1118.5</ele><time>2015-04-29T11:43:23.0000000+00:00</time></trkpt><trkpt lat="34.8892235" lon="32.8652484"><ele>1119.5</ele><time>2015-04-29T11:43:26.0000000+00:00</time></trkpt><trkpt lat="34.8892679" lon="32.865266"><ele>1120.6</ele><time>2015-04-29T11:43:29.0000000+00:00</time></trkpt><trkpt lat="34.889306" lon="32.865301"><ele>1122.0</ele><time>2015-04-29T11:43:33.0000000+00:00</time></trkpt><trkpt lat="34.8893513" lon="32.8653364"><ele>1124.2</ele><time>2015-04-29T11:43:38.0000000+00:00</time></trkpt><trkpt lat="34.8894025" lon="32.8653566"><ele>1123.9</ele><time>2015-04-29T11:43:42.0000000+00:00</time></trkpt><trkpt lat="34.8894548" lon="32.8653865"><ele>1123.4</ele><time>2015-04-29T11:43:46.0000000+00:00</time></trkpt><trkpt lat="34.8894982" lon="32.8654195"><ele>1123.0</ele><time>2015-04-29T11:43:50.0000000+00:00</time></trkpt><trkpt lat="34.8895436" lon="32.8654489"><ele>1123.5</ele><time>2015-04-29T11:43:54.0000000+00:00</time></trkpt><trkpt lat="34.8895958" lon="32.8654847"><ele>1124.7</ele><time>2015-04-29T11:43:58.0000000+00:00</time></trkpt><trkpt lat="34.8896423" lon="32.8655147"><ele>1125.1</ele><time>2015-04-29T11:44:01.0000000+00:00</time></trkpt><trkpt lat="34.8896926" lon="32.8655387"><ele>1124.2</ele><time>2015-04-29T11:44:04.0000000+00:00</time></trkpt><trkpt lat="34.8897348" lon="32.8655678"><ele>1123.8</ele><time>2015-04-29T11:44:07.0000000+00:00</time></trkpt><trkpt lat="34.8897781" lon="32.8655967"><ele>1123.8</ele><time>2015-04-29T11:44:10.0000000+00:00</time></trkpt><trkpt lat="34.8898219" lon="32.8656453"><ele>1124.4</ele><time>2015-04-29T11:44:14.0000000+00:00</time></trkpt><trkpt lat="34.8898677" lon="32.8656934"><ele>1124.7</ele><time>2015-04-29T11:44:18.0000000+00:00</time></trkpt><trkpt lat="34.8899028" lon="32.865728"><ele>1124.8</ele><time>2015-04-29T11:44:36.0000000+00:00</time></trkpt><trkpt lat="34.8899481" lon="32.8657272"><ele>1123.0</ele><time>2015-04-29T11:45:20.0000000+00:00</time></trkpt><trkpt lat="34.8899802" lon="32.8657669"><ele>1125.2</ele><time>2015-04-29T11:45:27.0000000+00:00</time></trkpt><trkpt lat="34.8899837" lon="32.865823"><ele>1127.7</ele><time>2015-04-29T11:45:52.0000000+00:00</time></trkpt><trkpt lat="34.8899404" lon="32.8658451"><ele>1128.3</ele><time>2015-04-29T11:53:57.0000000+00:00</time></trkpt><trkpt lat="34.8898972" lon="32.8658264"><ele>1128.6</ele><time>2015-04-29T11:53:59.0000000+00:00</time></trkpt><trkpt lat="34.8898433" lon="32.8657938"><ele>1129.5</ele><time>2015-04-29T11:54:01.0000000+00:00</time></trkpt><trkpt lat="34.8897929" lon="32.8657602"><ele>1128.9</ele><time>2015-04-29T11:54:03.0000000+00:00</time></trkpt><trkpt lat="34.8897462" lon="32.8657368"><ele>1127.1</ele><time>2015-04-29T11:54:07.0000000+00:00</time></trkpt><trkpt lat="34.8897896" lon="32.8657018"><ele>1123.9</ele><time>2015-04-29T11:55:45.0000000+00:00</time></trkpt><trkpt lat="34.8898447" lon="32.8657258"><ele>1122.6</ele><time>2015-04-29T11:55:49.0000000+00:00</time></trkpt><trkpt lat="34.8898821" lon="32.8657604"><ele>1123.4</ele><time>2015-04-29T11:55:52.0000000+00:00</time></trkpt><trkpt lat="34.889922" lon="32.8657905"><ele>1124.1</ele><time>2015-04-29T11:55:55.0000000+00:00</time></trkpt><trkpt lat="34.8899659" lon="32.8658128"><ele>1124.7</ele><time>2015-04-29T11:55:58.0000000+00:00</time></trkpt><trkpt lat="34.890015" lon="32.8658531"><ele>1124.3</ele><time>2015-04-29T11:56:02.0000000+00:00</time></trkpt><trkpt lat="34.8900518" lon="32.8658865"><ele>1124.7</ele><time>2015-04-29T11:56:05.0000000+00:00</time></trkpt><trkpt lat="34.8900926" lon="32.8659196"><ele>1126.0</ele><time>2015-04-29T11:56:08.0000000+00:00</time></trkpt><trkpt lat="34.8901413" lon="32.8659624"><ele>1127.2</ele><time>2015-04-29T11:56:12.0000000+00:00</time></trkpt><trkpt lat="34.8901956" lon="32.8659758"><ele>1124.3</ele><time>2015-04-29T11:56:16.0000000+00:00</time></trkpt><trkpt lat="34.8902442" lon="32.8659865"><ele>1122.9</ele><time>2015-04-29T11:56:20.0000000+00:00</time></trkpt><trkpt lat="34.8902927" lon="32.8660078"><ele>1123.3</ele><time>2015-04-29T11:56:24.0000000+00:00</time></trkpt><trkpt lat="34.8903412" lon="32.866053"><ele>1125.4</ele><time>2015-04-29T11:56:28.0000000+00:00</time></trkpt><trkpt lat="34.8903851" lon="32.8660837"><ele>1127.3</ele><time>2015-04-29T11:56:31.0000000+00:00</time></trkpt><trkpt lat="34.8904311" lon="32.86612"><ele>1129.5</ele><time>2015-04-29T11:56:34.0000000+00:00</time></trkpt><trkpt lat="34.8904776" lon="32.8661517"><ele>1130.2</ele><time>2015-04-29T11:56:37.0000000+00:00</time></trkpt><trkpt lat="34.8905193" lon="32.8661847"><ele>1131.6</ele><time>2015-04-29T11:56:40.0000000+00:00</time></trkpt><trkpt lat="34.8905595" lon="32.8662132"><ele>1132.6</ele><time>2015-04-29T11:56:43.0000000+00:00</time></trkpt><trkpt lat="34.8906076" lon="32.8662522"><ele>1132.0</ele><time>2015-04-29T11:56:47.0000000+00:00</time></trkpt><trkpt lat="34.890652" lon="32.8662879"><ele>1132.3</ele><time>2015-04-29T11:56:51.0000000+00:00</time></trkpt><trkpt lat="34.8907006" lon="32.8663214"><ele>1133.9</ele><time>2015-04-29T11:56:55.0000000+00:00</time></trkpt><trkpt lat="34.8907569" lon="32.8663433"><ele>1132.8</ele><time>2015-04-29T11:56:59.0000000+00:00</time></trkpt><trkpt lat="34.8908049" lon="32.8663548"><ele>1132.3</ele><time>2015-04-29T11:57:02.0000000+00:00</time></trkpt><trkpt lat="34.8908434" lon="32.8663914"><ele>1132.6</ele><time>2015-04-29T11:57:05.0000000+00:00</time></trkpt><trkpt lat="34.890878" lon="32.8664327"><ele>1131.7</ele><time>2015-04-29T11:57:08.0000000+00:00</time></trkpt><trkpt lat="34.8909217" lon="32.8664637"><ele>1133.9</ele><time>2015-04-29T11:57:11.0000000+00:00</time></trkpt><trkpt lat="34.8909638" lon="32.866499"><ele>1135.4</ele><time>2015-04-29T11:57:14.0000000+00:00</time></trkpt><trkpt lat="34.8910027" lon="32.8665353"><ele>1136.2</ele><time>2015-04-29T11:57:17.0000000+00:00</time></trkpt><trkpt lat="34.8910462" lon="32.8665711"><ele>1136.7</ele><time>2015-04-29T11:57:20.0000000+00:00</time></trkpt><trkpt lat="34.8910888" lon="32.8666099"><ele>1138.4</ele><time>2015-04-29T11:57:23.0000000+00:00</time></trkpt><trkpt lat="34.8911346" lon="32.8666524"><ele>1141.1</ele><time>2015-04-29T11:57:26.0000000+00:00</time></trkpt><trkpt lat="34.89118" lon="32.8666873"><ele>1142.4</ele><time>2015-04-29T11:57:29.0000000+00:00</time></trkpt><trkpt lat="34.8912238" lon="32.8667139"><ele>1142.7</ele><time>2015-04-29T11:57:32.0000000+00:00</time></trkpt><trkpt lat="34.8912692" lon="32.866735"><ele>1141.1</ele><time>2015-04-29T11:57:37.0000000+00:00</time></trkpt><trkpt lat="34.8913126" lon="32.8667504"><ele>1141.5</ele><time>2015-04-29T11:57:41.0000000+00:00</time></trkpt><trkpt lat="34.8913608" lon="32.8667707"><ele>1142.5</ele><time>2015-04-29T11:57:44.0000000+00:00</time></trkpt><trkpt lat="34.8914157" lon="32.8667894"><ele>1145.2</ele><time>2015-04-29T11:57:47.0000000+00:00</time></trkpt><trkpt lat="34.891461" lon="32.8668014"><ele>1147.3</ele><time>2015-04-29T11:57:50.0000000+00:00</time></trkpt><trkpt lat="34.8915164" lon="32.8668155"><ele>1146.9</ele><time>2015-04-29T11:57:54.0000000+00:00</time></trkpt><trkpt lat="34.891572" lon="32.866833"><ele>1147.7</ele><time>2015-04-29T11:57:58.0000000+00:00</time></trkpt><trkpt lat="34.8916194" lon="32.8668632"><ele>1147.3</ele><time>2015-04-29T11:58:02.0000000+00:00</time></trkpt><trkpt lat="34.8916644" lon="32.866892"><ele>1146.9</ele><time>2015-04-29T11:58:07.0000000+00:00</time></trkpt><trkpt lat="34.8917089" lon="32.8669219"><ele>1146.3</ele><time>2015-04-29T11:58:11.0000000+00:00</time></trkpt><trkpt lat="34.8917472" lon="32.8669547"><ele>1148.6</ele><time>2015-04-29T11:58:14.0000000+00:00</time></trkpt><trkpt lat="34.8917883" lon="32.8669972"><ele>1148.0</ele><time>2015-04-29T11:58:18.0000000+00:00</time></trkpt><trkpt lat="34.8918212" lon="32.8670354"><ele>1147.0</ele><time>2015-04-29T11:58:21.0000000+00:00</time></trkpt><trkpt lat="34.8918557" lon="32.8670712"><ele>1146.0</ele><time>2015-04-29T11:58:24.0000000+00:00</time></trkpt><trkpt lat="34.8918965" lon="32.8671008"><ele>1147.1</ele><time>2015-04-29T11:58:27.0000000+00:00</time></trkpt><trkpt lat="34.8919341" lon="32.867139"><ele>1147.6</ele><time>2015-04-29T11:58:30.0000000+00:00</time></trkpt><trkpt lat="34.8919847" lon="32.8671756"><ele>1146.8</ele><time>2015-04-29T11:58:34.0000000+00:00</time></trkpt><trkpt lat="34.8920246" lon="32.8672187"><ele>1144.8</ele><time>2015-04-29T11:58:38.0000000+00:00</time></trkpt><trkpt lat="34.8920746" lon="32.8672583"><ele>1147.0</ele><time>2015-04-29T11:58:42.0000000+00:00</time></trkpt><trkpt lat="34.8921111" lon="32.8672969"><ele>1149.6</ele><time>2015-04-29T11:58:53.0000000+00:00</time></trkpt><trkpt lat="34.8921564" lon="32.867323"><ele>1152.5</ele><time>2015-04-29T11:59:02.0000000+00:00</time></trkpt><trkpt lat="34.8921692" lon="32.8673814"><ele>1140.6</ele><time>2015-04-29T11:59:23.0000000+00:00</time></trkpt><trkpt lat="34.8922263" lon="32.8674039"><ele>1142.8</ele><time>2015-04-29T11:59:40.0000000+00:00</time></trkpt><trkpt lat="34.8922785" lon="32.8674183"><ele>1142.8</ele><time>2015-04-29T11:59:43.0000000+00:00</time></trkpt><trkpt lat="34.8923362" lon="32.8674345"><ele>1142.8</ele><time>2015-04-29T11:59:46.0000000+00:00</time></trkpt><trkpt lat="34.892388" lon="32.8674584"><ele>1142.8</ele><time>2015-04-29T11:59:49.0000000+00:00</time></trkpt><trkpt lat="34.8924396" lon="32.8674564"><ele>1143.7</ele><time>2015-04-29T11:59:53.0000000+00:00</time></trkpt><trkpt lat="34.8924848" lon="32.8674462"><ele>1144.7</ele><time>2015-04-29T11:59:59.0000000+00:00</time></trkpt><trkpt lat="34.8924374" lon="32.8674604"><ele>1145.4</ele><time>2015-04-29T12:00:07.0000000+00:00</time></trkpt><trkpt lat="34.8923908" lon="32.8674186"><ele>1146.5</ele><time>2015-04-29T12:00:10.0000000+00:00</time></trkpt><trkpt lat="34.8923405" lon="32.8673867"><ele>1147.5</ele><time>2015-04-29T12:00:13.0000000+00:00</time></trkpt><trkpt lat="34.8922904" lon="32.8673548"><ele>1147.0</ele><time>2015-04-29T12:00:16.0000000+00:00</time></trkpt><trkpt lat="34.8922405" lon="32.86732"><ele>1146.3</ele><time>2015-04-29T12:00:19.0000000+00:00</time></trkpt><trkpt lat="34.8921801" lon="32.867296"><ele>1146.1</ele><time>2015-04-29T12:00:22.0000000+00:00</time></trkpt><trkpt lat="34.8921005" lon="32.867249"><ele>1147.1</ele><time>2015-04-29T12:00:24.0000000+00:00</time></trkpt><trkpt lat="34.8920641" lon="32.8672134"><ele>1147.4</ele><time>2015-04-29T12:00:25.0000000+00:00</time></trkpt><trkpt lat="34.8920309" lon="32.8671716"><ele>1147.6</ele><time>2015-04-29T12:00:26.0000000+00:00</time></trkpt><trkpt lat="34.8920049" lon="32.8670936"><ele>1147.7</ele><time>2015-04-29T12:00:27.0000000+00:00</time></trkpt><trkpt lat="34.8919803" lon="32.8670335"><ele>1147.2</ele><time>2015-04-29T12:00:28.0000000+00:00</time></trkpt><trkpt lat="34.8919485" lon="32.8669494"><ele>1148.1</ele><time>2015-04-29T12:00:30.0000000+00:00</time></trkpt><trkpt lat="34.8919356" lon="32.8668718"><ele>1149.6</ele><time>2015-04-29T12:00:32.0000000+00:00</time></trkpt><trkpt lat="34.8919442" lon="32.8668101"><ele>1150.5</ele><time>2015-04-29T12:00:34.0000000+00:00</time></trkpt><trkpt lat="34.8919648" lon="32.8667594"><ele>1151.9</ele><time>2015-04-29T12:00:36.0000000+00:00</time></trkpt><trkpt lat="34.891982" lon="32.8667016"><ele>1153.6</ele><time>2015-04-29T12:00:38.0000000+00:00</time></trkpt><trkpt lat="34.8920021" lon="32.8666505"><ele>1155.0</ele><time>2015-04-29T12:00:40.0000000+00:00</time></trkpt><trkpt lat="34.8920384" lon="32.8665867"><ele>1154.8</ele><time>2015-04-29T12:00:43.0000000+00:00</time></trkpt><trkpt lat="34.8920837" lon="32.8665413"><ele>1154.8</ele><time>2015-04-29T12:00:46.0000000+00:00</time></trkpt><trkpt lat="34.8921388" lon="32.8665152"><ele>1156.9</ele><time>2015-04-29T12:00:49.0000000+00:00</time></trkpt><trkpt lat="34.8921821" lon="32.8664715"><ele>1152.7</ele><time>2015-04-29T12:00:55.0000000+00:00</time></trkpt><trkpt lat="34.8922247" lon="32.866444"><ele>1151.5</ele><time>2015-04-29T12:00:57.0000000+00:00</time></trkpt><trkpt lat="34.8922679" lon="32.8664093"><ele>1150.2</ele><time>2015-04-29T12:00:59.0000000+00:00</time></trkpt><trkpt lat="34.8923106" lon="32.8663674"><ele>1149.1</ele><time>2015-04-29T12:01:01.0000000+00:00</time></trkpt><trkpt lat="34.8923531" lon="32.8663373"><ele>1147.6</ele><time>2015-04-29T12:01:03.0000000+00:00</time></trkpt><trkpt lat="34.8923926" lon="32.8662865"><ele>1144.0</ele><time>2015-04-29T12:01:06.0000000+00:00</time></trkpt><trkpt lat="34.8924191" lon="32.866222"><ele>1143.4</ele><time>2015-04-29T12:01:09.0000000+00:00</time></trkpt><trkpt lat="34.8924517" lon="32.8661566"><ele>1145.8</ele><time>2015-04-29T12:01:12.0000000+00:00</time></trkpt><trkpt lat="34.8924696" lon="32.8660894"><ele>1147.0</ele><time>2015-04-29T12:01:15.0000000+00:00</time></trkpt><trkpt lat="34.8924906" lon="32.8660315"><ele>1149.8</ele><time>2015-04-29T12:01:18.0000000+00:00</time></trkpt><trkpt lat="34.8924964" lon="32.865962"><ele>1150.6</ele><time>2015-04-29T12:01:22.0000000+00:00</time></trkpt><trkpt lat="34.8924973" lon="32.8658979"><ele>1152.1</ele><time>2015-04-29T12:01:26.0000000+00:00</time></trkpt><trkpt lat="34.8924893" lon="32.8658439"><ele>1149.9</ele><time>2015-04-29T12:01:31.0000000+00:00</time></trkpt><trkpt lat="34.8925242" lon="32.8657997"><ele>1148.5</ele><time>2015-04-29T12:01:49.0000000+00:00</time></trkpt><trkpt lat="34.8925839" lon="32.8658106"><ele>1150.5</ele><time>2015-04-29T12:01:51.0000000+00:00</time></trkpt><trkpt lat="34.8926397" lon="32.8658526"><ele>1151.4</ele><time>2015-04-29T12:01:53.0000000+00:00</time></trkpt><trkpt lat="34.892674" lon="32.8659057"><ele>1151.7</ele><time>2015-04-29T12:01:55.0000000+00:00</time></trkpt><trkpt lat="34.8926703" lon="32.8659701"><ele>1151.2</ele><time>2015-04-29T12:01:57.0000000+00:00</time></trkpt><trkpt lat="34.8926508" lon="32.8660307"><ele>1152.1</ele><time>2015-04-29T12:01:59.0000000+00:00</time></trkpt><trkpt lat="34.8926267" lon="32.8660878"><ele>1154.4</ele><time>2015-04-29T12:02:01.0000000+00:00</time></trkpt><trkpt lat="34.8925891" lon="32.8661386"><ele>1155.2</ele><time>2015-04-29T12:02:05.0000000+00:00</time></trkpt><trkpt lat="34.8925603" lon="32.8661914"><ele>1153.9</ele><time>2015-04-29T12:02:08.0000000+00:00</time></trkpt><trkpt lat="34.8925303" lon="32.8662474"><ele>1153.3</ele><time>2015-04-29T12:02:11.0000000+00:00</time></trkpt><trkpt lat="34.892502" lon="32.8663119"><ele>1153.6</ele><time>2015-04-29T12:02:14.0000000+00:00</time></trkpt><trkpt lat="34.8924667" lon="32.866374"><ele>1154.6</ele><time>2015-04-29T12:02:17.0000000+00:00</time></trkpt><trkpt lat="34.8924229" lon="32.8664191"><ele>1156.9</ele><time>2015-04-29T12:02:20.0000000+00:00</time></trkpt><trkpt lat="34.8923877" lon="32.8664669"><ele>1155.5</ele><time>2015-04-29T12:02:23.0000000+00:00</time></trkpt><trkpt lat="34.892379" lon="32.8665253"><ele>1155.6</ele><time>2015-04-29T12:02:26.0000000+00:00</time></trkpt><trkpt lat="34.8923589" lon="32.8665781"><ele>1155.9</ele><time>2015-04-29T12:02:30.0000000+00:00</time></trkpt><trkpt lat="34.8923393" lon="32.8666415"><ele>1156.7</ele><time>2015-04-29T12:02:34.0000000+00:00</time></trkpt><trkpt lat="34.8923327" lon="32.8666988"><ele>1158.0</ele><time>2015-04-29T12:02:37.0000000+00:00</time></trkpt><trkpt lat="34.8923411" lon="32.8667594"><ele>1158.7</ele><time>2015-04-29T12:02:40.0000000+00:00</time></trkpt><trkpt lat="34.8923566" lon="32.8668174"><ele>1160.3</ele><time>2015-04-29T12:02:43.0000000+00:00</time></trkpt><trkpt lat="34.8923906" lon="32.8668616"><ele>1162.1</ele><time>2015-04-29T12:02:46.0000000+00:00</time></trkpt><trkpt lat="34.8924285" lon="32.8668952"><ele>1163.4</ele><time>2015-04-29T12:02:49.0000000+00:00</time></trkpt><trkpt lat="34.8924735" lon="32.8669127"><ele>1164.5</ele><time>2015-04-29T12:02:52.0000000+00:00</time></trkpt><trkpt lat="34.892521" lon="32.8669311"><ele>1165.5</ele><time>2015-04-29T12:02:55.0000000+00:00</time></trkpt><trkpt lat="34.8925702" lon="32.8669568"><ele>1166.5</ele><time>2015-04-29T12:02:58.0000000+00:00</time></trkpt><trkpt lat="34.8926202" lon="32.8669809"><ele>1167.6</ele><time>2015-04-29T12:03:01.0000000+00:00</time></trkpt><trkpt lat="34.892671" lon="32.8670008"><ele>1168.5</ele><time>2015-04-29T12:03:04.0000000+00:00</time></trkpt><trkpt lat="34.8927302" lon="32.8670046"><ele>1169.5</ele><time>2015-04-29T12:03:07.0000000+00:00</time></trkpt><trkpt lat="34.892792" lon="32.8670112"><ele>1171.4</ele><time>2015-04-29T12:03:10.0000000+00:00</time></trkpt><trkpt lat="34.892849" lon="32.8670002"><ele>1171.0</ele><time>2015-04-29T12:03:13.0000000+00:00</time></trkpt><trkpt lat="34.8929026" lon="32.8669797"><ele>1171.0</ele><time>2015-04-29T12:03:16.0000000+00:00</time></trkpt><trkpt lat="34.8929574" lon="32.8669864"><ele>1170.5</ele><time>2015-04-29T12:03:19.0000000+00:00</time></trkpt><trkpt lat="34.8930176" lon="32.866974"><ele>1171.6</ele><time>2015-04-29T12:03:23.0000000+00:00</time></trkpt><trkpt lat="34.8930724" lon="32.8669832"><ele>1173.0</ele><time>2015-04-29T12:03:25.0000000+00:00</time></trkpt><trkpt lat="34.8931189" lon="32.8669917"><ele>1173.6</ele><time>2015-04-29T12:03:27.0000000+00:00</time></trkpt><trkpt lat="34.893171" lon="32.8669884"><ele>1172.9</ele><time>2015-04-29T12:03:31.0000000+00:00</time></trkpt><trkpt lat="34.8932205" lon="32.8669869"><ele>1171.3</ele><time>2015-04-29T12:03:35.0000000+00:00</time></trkpt><trkpt lat="34.8932792" lon="32.8669894"><ele>1172.6</ele><time>2015-04-29T12:03:39.0000000+00:00</time></trkpt><trkpt lat="34.8933313" lon="32.8669937"><ele>1173.5</ele><time>2015-04-29T12:03:42.0000000+00:00</time></trkpt><trkpt lat="34.8933976" lon="32.8670062"><ele>1172.4</ele><time>2015-04-29T12:03:45.0000000+00:00</time></trkpt><trkpt lat="34.8934539" lon="32.8670168"><ele>1172.4</ele><time>2015-04-29T12:03:47.0000000+00:00</time></trkpt><trkpt lat="34.8935083" lon="32.8670323"><ele>1172.2</ele><time>2015-04-29T12:03:49.0000000+00:00</time></trkpt><trkpt lat="34.8935629" lon="32.8670514"><ele>1172.6</ele><time>2015-04-29T12:03:51.0000000+00:00</time></trkpt><trkpt lat="34.8936218" lon="32.8670728"><ele>1174.0</ele><time>2015-04-29T12:03:53.0000000+00:00</time></trkpt><trkpt lat="34.8936864" lon="32.8670973"><ele>1174.6</ele><time>2015-04-29T12:03:55.0000000+00:00</time></trkpt><trkpt lat="34.8937605" lon="32.8671207"><ele>1175.0</ele><time>2015-04-29T12:03:57.0000000+00:00</time></trkpt><trkpt lat="34.89381" lon="32.867132"><ele>1175.4</ele><time>2015-04-29T12:03:58.0000000+00:00</time></trkpt><trkpt lat="34.8938773" lon="32.8671406"><ele>1176.1</ele><time>2015-04-29T12:03:59.0000000+00:00</time></trkpt><trkpt lat="34.8939584" lon="32.867168"><ele>1177.1</ele><time>2015-04-29T12:04:01.0000000+00:00</time></trkpt><trkpt lat="34.894039" lon="32.8671863"><ele>1177.6</ele><time>2015-04-29T12:04:03.0000000+00:00</time></trkpt><trkpt lat="34.8941161" lon="32.8672122"><ele>1177.5</ele><time>2015-04-29T12:04:05.0000000+00:00</time></trkpt><trkpt lat="34.8942036" lon="32.8672156"><ele>1177.9</ele><time>2015-04-29T12:04:07.0000000+00:00</time></trkpt><trkpt lat="34.8942777" lon="32.8672409"><ele>1176.8</ele><time>2015-04-29T12:04:09.0000000+00:00</time></trkpt><trkpt lat="34.8943368" lon="32.8672698"><ele>1176.5</ele><time>2015-04-29T12:04:11.0000000+00:00</time></trkpt><trkpt lat="34.8943911" lon="32.8672835"><ele>1178.0</ele><time>2015-04-29T12:04:13.0000000+00:00</time></trkpt><trkpt lat="34.8944494" lon="32.8672937"><ele>1178.6</ele><time>2015-04-29T12:04:15.0000000+00:00</time></trkpt><trkpt lat="34.8945083" lon="32.8673119"><ele>1180.0</ele><time>2015-04-29T12:04:17.0000000+00:00</time></trkpt><trkpt lat="34.8945605" lon="32.8673295"><ele>1181.3</ele><time>2015-04-29T12:04:19.0000000+00:00</time></trkpt><trkpt lat="34.8946067" lon="32.8673518"><ele>1177.9</ele><time>2015-04-29T12:04:24.0000000+00:00</time></trkpt><trkpt lat="34.8946686" lon="32.8673703"><ele>1180.4</ele><time>2015-04-29T12:04:27.0000000+00:00</time></trkpt><trkpt lat="34.8947232" lon="32.8674004"><ele>1183.6</ele><time>2015-04-29T12:04:30.0000000+00:00</time></trkpt><trkpt lat="34.8947669" lon="32.8674293"><ele>1185.4</ele><time>2015-04-29T12:04:33.0000000+00:00</time></trkpt><trkpt lat="34.8948087" lon="32.8674709"><ele>1189.1</ele><time>2015-04-29T12:04:36.0000000+00:00</time></trkpt><trkpt lat="34.8948468" lon="32.867514"><ele>1190.2</ele><time>2015-04-29T12:04:39.0000000+00:00</time></trkpt><trkpt lat="34.8948841" lon="32.8675615"><ele>1192.7</ele><time>2015-04-29T12:04:42.0000000+00:00</time></trkpt><trkpt lat="34.8949129" lon="32.8676157"><ele>1194.0</ele><time>2015-04-29T12:04:46.0000000+00:00</time></trkpt><trkpt lat="34.894946" lon="32.8676622"><ele>1195.8</ele><time>2015-04-29T12:04:50.0000000+00:00</time></trkpt><trkpt lat="34.8949826" lon="32.8677056"><ele>1194.8</ele><time>2015-04-29T12:04:54.0000000+00:00</time></trkpt><trkpt lat="34.8950144" lon="32.8677622"><ele>1196.1</ele><time>2015-04-29T12:04:59.0000000+00:00</time></trkpt><trkpt lat="34.8950426" lon="32.8678202"><ele>1194.9</ele><time>2015-04-29T12:05:03.0000000+00:00</time></trkpt><trkpt lat="34.8950791" lon="32.8678645"><ele>1195.3</ele><time>2015-04-29T12:05:07.0000000+00:00</time></trkpt><trkpt lat="34.8951221" lon="32.8679039"><ele>1193.8</ele><time>2015-04-29T12:05:11.0000000+00:00</time></trkpt><trkpt lat="34.895159" lon="32.8679421"><ele>1194.5</ele><time>2015-04-29T12:05:15.0000000+00:00</time></trkpt><trkpt lat="34.895176" lon="32.8679994"><ele>1197.7</ele><time>2015-04-29T12:05:20.0000000+00:00</time></trkpt><trkpt lat="34.8952099" lon="32.8680441"><ele>1200.1</ele><time>2015-04-29T12:05:25.0000000+00:00</time></trkpt><trkpt lat="34.8952418" lon="32.8680828"><ele>1201.2</ele><time>2015-04-29T12:05:29.0000000+00:00</time></trkpt><trkpt lat="34.8952745" lon="32.8681235"><ele>1201.2</ele><time>2015-04-29T12:05:33.0000000+00:00</time></trkpt><trkpt lat="34.8953071" lon="32.8681726"><ele>1198.6</ele><time>2015-04-29T12:05:37.0000000+00:00</time></trkpt><trkpt lat="34.8953456" lon="32.8682103"><ele>1198.2</ele><time>2015-04-29T12:05:41.0000000+00:00</time></trkpt><trkpt lat="34.8953851" lon="32.8682371"><ele>1199.7</ele><time>2015-04-29T12:05:45.0000000+00:00</time></trkpt><trkpt lat="34.8954229" lon="32.8682703"><ele>1200.1</ele><time>2015-04-29T12:05:49.0000000+00:00</time></trkpt><trkpt lat="34.8954635" lon="32.8683109"><ele>1202.0</ele><time>2015-04-29T12:05:55.0000000+00:00</time></trkpt><trkpt lat="34.8954891" lon="32.8683661"><ele>1199.2</ele><time>2015-04-29T12:06:00.0000000+00:00</time></trkpt><trkpt lat="34.8955109" lon="32.8684188"><ele>1197.8</ele><time>2015-04-29T12:06:03.0000000+00:00</time></trkpt><trkpt lat="34.8955322" lon="32.8684735"><ele>1196.3</ele><time>2015-04-29T12:06:07.0000000+00:00</time></trkpt><trkpt lat="34.8955614" lon="32.8685307"><ele>1194.7</ele><time>2015-04-29T12:06:11.0000000+00:00</time></trkpt><trkpt lat="34.8956029" lon="32.8685702"><ele>1196.4</ele><time>2015-04-29T12:06:15.0000000+00:00</time></trkpt><trkpt lat="34.8956482" lon="32.8685923"><ele>1196.6</ele><time>2015-04-29T12:06:19.0000000+00:00</time></trkpt><trkpt lat="34.8956944" lon="32.8686191"><ele>1197.1</ele><time>2015-04-29T12:06:23.0000000+00:00</time></trkpt><trkpt lat="34.8957222" lon="32.8686907"><ele>1194.3</ele><time>2015-04-29T12:06:41.0000000+00:00</time></trkpt><trkpt lat="34.8957444" lon="32.8687462"><ele>1195.7</ele><time>2015-04-29T12:06:43.0000000+00:00</time></trkpt><trkpt lat="34.8957598" lon="32.8688044"><ele>1197.0</ele><time>2015-04-29T12:06:45.0000000+00:00</time></trkpt><trkpt lat="34.8957765" lon="32.8688653"><ele>1197.6</ele><time>2015-04-29T12:06:47.0000000+00:00</time></trkpt><trkpt lat="34.8957967" lon="32.8689276"><ele>1199.7</ele><time>2015-04-29T12:06:49.0000000+00:00</time></trkpt><trkpt lat="34.8958357" lon="32.8689829"><ele>1201.9</ele><time>2015-04-29T12:06:52.0000000+00:00</time></trkpt><trkpt lat="34.8958734" lon="32.869016"><ele>1203.0</ele><time>2015-04-29T12:06:55.0000000+00:00</time></trkpt><trkpt lat="34.8959143" lon="32.869052"><ele>1204.0</ele><time>2015-04-29T12:06:58.0000000+00:00</time></trkpt><trkpt lat="34.8959508" lon="32.8690917"><ele>1205.9</ele><time>2015-04-29T12:07:01.0000000+00:00</time></trkpt><trkpt lat="34.8959568" lon="32.8691462"><ele>1204.0</ele><time>2015-04-29T12:07:04.0000000+00:00</time></trkpt><trkpt lat="34.8959403" lon="32.8691974"><ele>1204.8</ele><time>2015-04-29T12:07:10.0000000+00:00</time></trkpt><trkpt lat="34.8959349" lon="32.8691348"><ele>1203.5</ele><time>2015-04-29T12:12:30.0000000+00:00</time></trkpt><trkpt lat="34.895922" lon="32.8690538"><ele>1204.5</ele><time>2015-04-29T12:12:32.0000000+00:00</time></trkpt><trkpt lat="34.8958882" lon="32.8689894"><ele>1205.2</ele><time>2015-04-29T12:12:34.0000000+00:00</time></trkpt><trkpt lat="34.895836" lon="32.8689396"><ele>1204.4</ele><time>2015-04-29T12:12:36.0000000+00:00</time></trkpt><trkpt lat="34.8957958" lon="32.8688761"><ele>1204.2</ele><time>2015-04-29T12:12:38.0000000+00:00</time></trkpt><trkpt lat="34.8957913" lon="32.8688019"><ele>1203.9</ele><time>2015-04-29T12:12:40.0000000+00:00</time></trkpt><trkpt lat="34.8957936" lon="32.8687416"><ele>1202.5</ele><time>2015-04-29T12:12:42.0000000+00:00</time></trkpt><trkpt lat="34.8957982" lon="32.8686802"><ele>1202.7</ele><time>2015-04-29T12:12:44.0000000+00:00</time></trkpt><trkpt lat="34.8957964" lon="32.868616"><ele>1202.8</ele><time>2015-04-29T12:12:46.0000000+00:00</time></trkpt><trkpt lat="34.8958018" lon="32.8685522"><ele>1202.8</ele><time>2015-04-29T12:12:48.0000000+00:00</time></trkpt><trkpt lat="34.8958402" lon="32.8685075"><ele>1202.8</ele><time>2015-04-29T12:12:50.0000000+00:00</time></trkpt><trkpt lat="34.8958931" lon="32.8684934"><ele>1202.8</ele><time>2015-04-29T12:12:52.0000000+00:00</time></trkpt><trkpt lat="34.895944" lon="32.8684786"><ele>1204.0</ele><time>2015-04-29T12:12:54.0000000+00:00</time></trkpt><trkpt lat="34.8959959" lon="32.8684703"><ele>1205.8</ele><time>2015-04-29T12:12:56.0000000+00:00</time></trkpt><trkpt lat="34.8960488" lon="32.8684674"><ele>1207.8</ele><time>2015-04-29T12:12:58.0000000+00:00</time></trkpt><trkpt lat="34.8960978" lon="32.868471"><ele>1209.0</ele><time>2015-04-29T12:13:00.0000000+00:00</time></trkpt><trkpt lat="34.8961458" lon="32.8684794"><ele>1209.8</ele><time>2015-04-29T12:13:02.0000000+00:00</time></trkpt><trkpt lat="34.8961908" lon="32.8684872"><ele>1210.3</ele><time>2015-04-29T12:13:04.0000000+00:00</time></trkpt><trkpt lat="34.8962347" lon="32.8685141"><ele>1212.7</ele><time>2015-04-29T12:13:07.0000000+00:00</time></trkpt><trkpt lat="34.896261" lon="32.8685636"><ele>1215.3</ele><time>2015-04-29T12:13:10.0000000+00:00</time></trkpt><trkpt lat="34.8963186" lon="32.8686046"><ele>1216.5</ele><time>2015-04-29T12:13:13.0000000+00:00</time></trkpt><trkpt lat="34.8963786" lon="32.8686312"><ele>1215.4</ele><time>2015-04-29T12:13:15.0000000+00:00</time></trkpt><trkpt lat="34.8964191" lon="32.8686634"><ele>1215.3</ele><time>2015-04-29T12:13:20.0000000+00:00</time></trkpt><trkpt lat="34.8964535" lon="32.8686993"><ele>1216.6</ele><time>2015-04-29T12:13:42.0000000+00:00</time></trkpt><trkpt lat="34.8964085" lon="32.8686656"><ele>1216.9</ele><time>2015-04-29T12:13:50.0000000+00:00</time></trkpt><trkpt lat="34.8963626" lon="32.8686508"><ele>1216.3</ele><time>2015-04-29T12:13:52.0000000+00:00</time></trkpt><trkpt lat="34.8963432" lon="32.8685987"><ele>1214.8</ele><time>2015-04-29T12:13:55.0000000+00:00</time></trkpt><trkpt lat="34.896409" lon="32.8685921"><ele>1213.1</ele><time>2015-04-29T12:13:59.0000000+00:00</time></trkpt><trkpt lat="34.8964833" lon="32.8686167"><ele>1213.6</ele><time>2015-04-29T12:14:01.0000000+00:00</time></trkpt><trkpt lat="34.8965412" lon="32.8686416"><ele>1213.7</ele><time>2015-04-29T12:14:03.0000000+00:00</time></trkpt><trkpt lat="34.896584" lon="32.8686707"><ele>1213.0</ele><time>2015-04-29T12:14:05.0000000+00:00</time></trkpt><trkpt lat="34.8966208" lon="32.868727"><ele>1213.2</ele><time>2015-04-29T12:14:08.0000000+00:00</time></trkpt><trkpt lat="34.8966854" lon="32.8687398"><ele>1215.3</ele><time>2015-04-29T12:14:11.0000000+00:00</time></trkpt><trkpt lat="34.8967319" lon="32.8687387"><ele>1217.2</ele><time>2015-04-29T12:14:13.0000000+00:00</time></trkpt><trkpt lat="34.8967905" lon="32.868753"><ele>1218.1</ele><time>2015-04-29T12:14:16.0000000+00:00</time></trkpt><trkpt lat="34.8968465" lon="32.8687756"><ele>1218.7</ele><time>2015-04-29T12:14:19.0000000+00:00</time></trkpt><trkpt lat="34.8968928" lon="32.8687754"><ele>1222.3</ele><time>2015-04-29T12:14:33.0000000+00:00</time></trkpt><trkpt lat="34.8968399" lon="32.8687782"><ele>1222.5</ele><time>2015-04-29T12:14:52.0000000+00:00</time></trkpt><trkpt lat="34.8967737" lon="32.8687599"><ele>1222.6</ele><time>2015-04-29T12:14:55.0000000+00:00</time></trkpt><trkpt lat="34.8967221" lon="32.8687314"><ele>1222.7</ele><time>2015-04-29T12:14:57.0000000+00:00</time></trkpt><trkpt lat="34.8966702" lon="32.8686992"><ele>1221.5</ele><time>2015-04-29T12:14:59.0000000+00:00</time></trkpt><trkpt lat="34.8966178" lon="32.8686511"><ele>1220.4</ele><time>2015-04-29T12:15:01.0000000+00:00</time></trkpt><trkpt lat="34.8965534" lon="32.8685934"><ele>1219.4</ele><time>2015-04-29T12:15:03.0000000+00:00</time></trkpt><trkpt lat="34.8965115" lon="32.8685712"><ele>1218.1</ele><time>2015-04-29T12:15:04.0000000+00:00</time></trkpt><trkpt lat="34.8964282" lon="32.8685391"><ele>1216.8</ele><time>2015-04-29T12:15:06.0000000+00:00</time></trkpt><trkpt lat="34.8963398" lon="32.868518"><ele>1213.3</ele><time>2015-04-29T12:15:08.0000000+00:00</time></trkpt><trkpt lat="34.8962936" lon="32.8685117"><ele>1212.0</ele><time>2015-04-29T12:15:09.0000000+00:00</time></trkpt><trkpt lat="34.8962461" lon="32.8685083"><ele>1210.4</ele><time>2015-04-29T12:15:10.0000000+00:00</time></trkpt><trkpt lat="34.8961991" lon="32.8685096"><ele>1210.1</ele><time>2015-04-29T12:15:11.0000000+00:00</time></trkpt><trkpt lat="34.896127" lon="32.8685321"><ele>1209.9</ele><time>2015-04-29T12:15:12.0000000+00:00</time></trkpt><trkpt lat="34.8960615" lon="32.868521"><ele>1208.3</ele><time>2015-04-29T12:15:14.0000000+00:00</time></trkpt><trkpt lat="34.8959987" lon="32.8684952"><ele>1206.6</ele><time>2015-04-29T12:15:16.0000000+00:00</time></trkpt><trkpt lat="34.8959523" lon="32.8685189"><ele>1206.2</ele><time>2015-04-29T12:15:17.0000000+00:00</time></trkpt><trkpt lat="34.8958768" lon="32.8685638"><ele>1205.9</ele><time>2015-04-29T12:15:19.0000000+00:00</time></trkpt><trkpt lat="34.895805" lon="32.8686033"><ele>1205.8</ele><time>2015-04-29T12:15:21.0000000+00:00</time></trkpt><trkpt lat="34.8957782" lon="32.868696"><ele>1205.3</ele><time>2015-04-29T12:15:23.0000000+00:00</time></trkpt><trkpt lat="34.8957705" lon="32.8687957"><ele>1202.1</ele><time>2015-04-29T12:15:25.0000000+00:00</time></trkpt><trkpt lat="34.895779" lon="32.8688924"><ele>1202.4</ele><time>2015-04-29T12:15:27.0000000+00:00</time></trkpt><trkpt lat="34.8958159" lon="32.868945"><ele>1202.6</ele><time>2015-04-29T12:15:28.0000000+00:00</time></trkpt><trkpt lat="34.8958517" lon="32.8689817"><ele>1202.7</ele><time>2015-04-29T12:15:29.0000000+00:00</time></trkpt><trkpt lat="34.8959092" lon="32.8690556"><ele>1205.0</ele><time>2015-04-29T12:15:31.0000000+00:00</time></trkpt><trkpt lat="34.8959584" lon="32.8690961"><ele>1209.1</ele><time>2015-04-29T12:15:33.0000000+00:00</time></trkpt><trkpt lat="34.8959838" lon="32.8691444"><ele>1211.1</ele><time>2015-04-29T12:15:35.0000000+00:00</time></trkpt><trkpt lat="34.8959398" lon="32.8692024"><ele>1211.2</ele><time>2015-04-29T12:15:38.0000000+00:00</time></trkpt><trkpt lat="34.8958941" lon="32.8692078"><ele>1211.8</ele><time>2015-04-29T12:16:07.0000000+00:00</time></trkpt><trkpt lat="34.8958508" lon="32.8691896"><ele>1215.6</ele><time>2015-04-29T12:16:43.0000000+00:00</time></trkpt><trkpt lat="34.8958198" lon="32.8692449"><ele>1213.6</ele><time>2015-04-29T12:18:47.0000000+00:00</time></trkpt><trkpt lat="34.8957836" lon="32.8692889"><ele>1212.4</ele><time>2015-04-29T12:18:50.0000000+00:00</time></trkpt><trkpt lat="34.8957425" lon="32.869319"><ele>1210.2</ele><time>2015-04-29T12:18:53.0000000+00:00</time></trkpt><trkpt lat="34.8956952" lon="32.8693429"><ele>1209.7</ele><time>2015-04-29T12:18:56.0000000+00:00</time></trkpt><trkpt lat="34.8956564" lon="32.8693779"><ele>1209.1</ele><time>2015-04-29T12:18:59.0000000+00:00</time></trkpt><trkpt lat="34.8956203" lon="32.8694203"><ele>1208.6</ele><time>2015-04-29T12:19:02.0000000+00:00</time></trkpt><trkpt lat="34.8955725" lon="32.869449"><ele>1208.0</ele><time>2015-04-29T12:19:05.0000000+00:00</time></trkpt><trkpt lat="34.8955268" lon="32.8694906"><ele>1206.7</ele><time>2015-04-29T12:19:08.0000000+00:00</time></trkpt><trkpt lat="34.8954744" lon="32.8695212"><ele>1205.9</ele><time>2015-04-29T12:19:11.0000000+00:00</time></trkpt><trkpt lat="34.8954252" lon="32.8695516"><ele>1206.5</ele><time>2015-04-29T12:19:14.0000000+00:00</time></trkpt><trkpt lat="34.8953768" lon="32.8695866"><ele>1207.2</ele><time>2015-04-29T12:19:17.0000000+00:00</time></trkpt><trkpt lat="34.8953248" lon="32.8696166"><ele>1207.7</ele><time>2015-04-29T12:19:20.0000000+00:00</time></trkpt><trkpt lat="34.8952635" lon="32.8696438"><ele>1208.5</ele><time>2015-04-29T12:19:23.0000000+00:00</time></trkpt><trkpt lat="34.8951984" lon="32.8696612"><ele>1209.4</ele><time>2015-04-29T12:19:26.0000000+00:00</time></trkpt><trkpt lat="34.8951519" lon="32.8696673"><ele>1208.9</ele><time>2015-04-29T12:19:28.0000000+00:00</time></trkpt><trkpt lat="34.8951067" lon="32.8696692"><ele>1209.1</ele><time>2015-04-29T12:19:30.0000000+00:00</time></trkpt><trkpt lat="34.8950613" lon="32.8696657"><ele>1208.6</ele><time>2015-04-29T12:19:32.0000000+00:00</time></trkpt><trkpt lat="34.8949978" lon="32.8696506"><ele>1207.5</ele><time>2015-04-29T12:19:35.0000000+00:00</time></trkpt><trkpt lat="34.8949407" lon="32.8696245"><ele>1206.9</ele><time>2015-04-29T12:19:38.0000000+00:00</time></trkpt><trkpt lat="34.8948922" lon="32.8695924"><ele>1206.8</ele><time>2015-04-29T12:19:41.0000000+00:00</time></trkpt><trkpt lat="34.8948472" lon="32.8695465"><ele>1207.6</ele><time>2015-04-29T12:19:44.0000000+00:00</time></trkpt><trkpt lat="34.8948054" lon="32.8695018"><ele>1206.9</ele><time>2015-04-29T12:19:47.0000000+00:00</time></trkpt><trkpt lat="34.8947585" lon="32.869458"><ele>1206.8</ele><time>2015-04-29T12:19:50.0000000+00:00</time></trkpt><trkpt lat="34.894712" lon="32.8694073"><ele>1206.8</ele><time>2015-04-29T12:19:53.0000000+00:00</time></trkpt><trkpt lat="34.8946579" lon="32.8693618"><ele>1206.8</ele><time>2015-04-29T12:19:56.0000000+00:00</time></trkpt><trkpt lat="34.8946068" lon="32.8693209"><ele>1208.3</ele><time>2015-04-29T12:19:59.0000000+00:00</time></trkpt><trkpt lat="34.8945553" lon="32.8692827"><ele>1208.3</ele><time>2015-04-29T12:20:02.0000000+00:00</time></trkpt><trkpt lat="34.8945054" lon="32.8692339"><ele>1208.7</ele><time>2015-04-29T12:20:05.0000000+00:00</time></trkpt><trkpt lat="34.8944557" lon="32.8691876"><ele>1208.3</ele><time>2015-04-29T12:20:08.0000000+00:00</time></trkpt><trkpt lat="34.8944106" lon="32.8691404"><ele>1208.7</ele><time>2015-04-29T12:20:11.0000000+00:00</time></trkpt><trkpt lat="34.8943662" lon="32.8690908"><ele>1209.0</ele><time>2015-04-29T12:20:14.0000000+00:00</time></trkpt><trkpt lat="34.8943143" lon="32.8690547"><ele>1210.3</ele><time>2015-04-29T12:20:17.0000000+00:00</time></trkpt><trkpt lat="34.8942578" lon="32.8690263"><ele>1211.6</ele><time>2015-04-29T12:20:20.0000000+00:00</time></trkpt><trkpt lat="34.8941883" lon="32.8690209"><ele>1212.5</ele><time>2015-04-29T12:20:23.0000000+00:00</time></trkpt><trkpt lat="34.8941387" lon="32.8690314"><ele>1212.2</ele><time>2015-04-29T12:20:25.0000000+00:00</time></trkpt><trkpt lat="34.8940731" lon="32.8690523"><ele>1211.8</ele><time>2015-04-29T12:20:28.0000000+00:00</time></trkpt><trkpt lat="34.8940234" lon="32.8690681"><ele>1213.0</ele><time>2015-04-29T12:20:30.0000000+00:00</time></trkpt><trkpt lat="34.8939642" lon="32.8690902"><ele>1213.6</ele><time>2015-04-29T12:20:32.0000000+00:00</time></trkpt><trkpt lat="34.8939058" lon="32.8691059"><ele>1213.7</ele><time>2015-04-29T12:20:34.0000000+00:00</time></trkpt><trkpt lat="34.8938542" lon="32.8691252"><ele>1214.3</ele><time>2015-04-29T12:20:36.0000000+00:00</time></trkpt><trkpt lat="34.8938021" lon="32.8691514"><ele>1214.1</ele><time>2015-04-29T12:20:38.0000000+00:00</time></trkpt><trkpt lat="34.8937625" lon="32.8691957"><ele>1212.6</ele><time>2015-04-29T12:20:40.0000000+00:00</time></trkpt><trkpt lat="34.8937239" lon="32.8692464"><ele>1211.2</ele><time>2015-04-29T12:20:42.0000000+00:00</time></trkpt><trkpt lat="34.8936713" lon="32.8692948"><ele>1210.9</ele><time>2015-04-29T12:20:44.0000000+00:00</time></trkpt><trkpt lat="34.8936167" lon="32.8693414"><ele>1211.5</ele><time>2015-04-29T12:20:46.0000000+00:00</time></trkpt><trkpt lat="34.893568" lon="32.8693914"><ele>1213.5</ele><time>2015-04-29T12:20:48.0000000+00:00</time></trkpt><trkpt lat="34.8935201" lon="32.8694473"><ele>1215.7</ele><time>2015-04-29T12:20:50.0000000+00:00</time></trkpt><trkpt lat="34.8934816" lon="32.8695022"><ele>1215.7</ele><time>2015-04-29T12:20:52.0000000+00:00</time></trkpt><trkpt lat="34.8934558" lon="32.8695672"><ele>1215.5</ele><time>2015-04-29T12:20:54.0000000+00:00</time></trkpt><trkpt lat="34.8934297" lon="32.8696313"><ele>1216.2</ele><time>2015-04-29T12:20:56.0000000+00:00</time></trkpt><trkpt lat="34.8934099" lon="32.8696997"><ele>1215.9</ele><time>2015-04-29T12:20:58.0000000+00:00</time></trkpt><trkpt lat="34.8933931" lon="32.8697835"><ele>1215.3</ele><time>2015-04-29T12:21:00.0000000+00:00</time></trkpt><trkpt lat="34.8933638" lon="32.8698681"><ele>1214.9</ele><time>2015-04-29T12:21:02.0000000+00:00</time></trkpt><trkpt lat="34.893325" lon="32.8699424"><ele>1214.8</ele><time>2015-04-29T12:21:04.0000000+00:00</time></trkpt><trkpt lat="34.893286" lon="32.8700104"><ele>1215.3</ele><time>2015-04-29T12:21:06.0000000+00:00</time></trkpt><trkpt lat="34.8932292" lon="32.8700733"><ele>1214.9</ele><time>2015-04-29T12:21:08.0000000+00:00</time></trkpt><trkpt lat="34.8931726" lon="32.8701355"><ele>1214.0</ele><time>2015-04-29T12:21:10.0000000+00:00</time></trkpt><trkpt lat="34.8931065" lon="32.8701955"><ele>1215.6</ele><time>2015-04-29T12:21:12.0000000+00:00</time></trkpt><trkpt lat="34.8930323" lon="32.8702455"><ele>1216.2</ele><time>2015-04-29T12:21:13.0000000+00:00</time></trkpt><trkpt lat="34.8930101" lon="32.8702949"><ele>1216.0</ele><time>2015-04-29T12:21:14.0000000+00:00</time></trkpt><trkpt lat="34.8929263" lon="32.8703758"><ele>1215.8</ele><time>2015-04-29T12:21:16.0000000+00:00</time></trkpt><trkpt lat="34.8929015" lon="32.8704288"><ele>1215.3</ele><time>2015-04-29T12:21:17.0000000+00:00</time></trkpt><trkpt lat="34.8928518" lon="32.8704676"><ele>1214.5</ele><time>2015-04-29T12:21:18.0000000+00:00</time></trkpt><trkpt lat="34.8927675" lon="32.8705429"><ele>1214.0</ele><time>2015-04-29T12:21:20.0000000+00:00</time></trkpt><trkpt lat="34.8927048" lon="32.8705937"><ele>1214.3</ele><time>2015-04-29T12:21:22.0000000+00:00</time></trkpt><trkpt lat="34.8926492" lon="32.8706149"><ele>1216.7</ele><time>2015-04-29T12:21:24.0000000+00:00</time></trkpt><trkpt lat="34.8926019" lon="32.8706207"><ele>1217.2</ele><time>2015-04-29T12:21:25.0000000+00:00</time></trkpt><trkpt lat="34.8925116" lon="32.8706099"><ele>1217.6</ele><time>2015-04-29T12:21:27.0000000+00:00</time></trkpt><trkpt lat="34.8924462" lon="32.8705829"><ele>1219.0</ele><time>2015-04-29T12:21:29.0000000+00:00</time></trkpt><trkpt lat="34.8923893" lon="32.8705312"><ele>1218.8</ele><time>2015-04-29T12:21:31.0000000+00:00</time></trkpt><trkpt lat="34.8923308" lon="32.8704937"><ele>1218.8</ele><time>2015-04-29T12:21:33.0000000+00:00</time></trkpt><trkpt lat="34.8922651" lon="32.8704737"><ele>1217.3</ele><time>2015-04-29T12:21:35.0000000+00:00</time></trkpt><trkpt lat="34.892206" lon="32.8704682"><ele>1216.6</ele><time>2015-04-29T12:21:37.0000000+00:00</time></trkpt><trkpt lat="34.8921524" lon="32.8704891"><ele>1217.5</ele><time>2015-04-29T12:21:39.0000000+00:00</time></trkpt><trkpt lat="34.8920976" lon="32.8705213"><ele>1217.7</ele><time>2015-04-29T12:21:41.0000000+00:00</time></trkpt><trkpt lat="34.892051" lon="32.870574"><ele>1217.2</ele><time>2015-04-29T12:21:43.0000000+00:00</time></trkpt><trkpt lat="34.8920157" lon="32.8706394"><ele>1216.9</ele><time>2015-04-29T12:21:45.0000000+00:00</time></trkpt><trkpt lat="34.8919901" lon="32.8707027"><ele>1216.8</ele><time>2015-04-29T12:21:47.0000000+00:00</time></trkpt><trkpt lat="34.8919708" lon="32.8707694"><ele>1217.3</ele><time>2015-04-29T12:21:49.0000000+00:00</time></trkpt><trkpt lat="34.8919544" lon="32.8708392"><ele>1217.1</ele><time>2015-04-29T12:21:51.0000000+00:00</time></trkpt><trkpt lat="34.891944" lon="32.8709154"><ele>1217.1</ele><time>2015-04-29T12:21:53.0000000+00:00</time></trkpt><trkpt lat="34.89194" lon="32.8709922"><ele>1217.6</ele><time>2015-04-29T12:21:55.0000000+00:00</time></trkpt><trkpt lat="34.8919389" lon="32.8710797"><ele>1218.2</ele><time>2015-04-29T12:21:57.0000000+00:00</time></trkpt><trkpt lat="34.8919414" lon="32.8711348"><ele>1218.5</ele><time>2015-04-29T12:21:58.0000000+00:00</time></trkpt><trkpt lat="34.8919581" lon="32.8712419"><ele>1218.7</ele><time>2015-04-29T12:22:00.0000000+00:00</time></trkpt><trkpt lat="34.891969" lon="32.8712981"><ele>1218.2</ele><time>2015-04-29T12:22:01.0000000+00:00</time></trkpt><trkpt lat="34.8919918" lon="32.87138"><ele>1217.5</ele><time>2015-04-29T12:22:02.0000000+00:00</time></trkpt><trkpt lat="34.8920034" lon="32.8714338"><ele>1216.1</ele><time>2015-04-29T12:22:03.0000000+00:00</time></trkpt><trkpt lat="34.8920216" lon="32.8715005"><ele>1215.4</ele><time>2015-04-29T12:22:04.0000000+00:00</time></trkpt><trkpt lat="34.8920415" lon="32.8715596"><ele>1215.1</ele><time>2015-04-29T12:22:05.0000000+00:00</time></trkpt><trkpt lat="34.8920508" lon="32.8716176"><ele>1214.4</ele><time>2015-04-29T12:22:06.0000000+00:00</time></trkpt><trkpt lat="34.892057" lon="32.8716898"><ele>1215.1</ele><time>2015-04-29T12:22:07.0000000+00:00</time></trkpt><trkpt lat="34.8920427" lon="32.8717598"><ele>1215.4</ele><time>2015-04-29T12:22:08.0000000+00:00</time></trkpt><trkpt lat="34.8920165" lon="32.8718193"><ele>1215.6</ele><time>2015-04-29T12:22:09.0000000+00:00</time></trkpt><trkpt lat="34.8919591" lon="32.8718599"><ele>1215.7</ele><time>2015-04-29T12:22:10.0000000+00:00</time></trkpt><trkpt lat="34.891916" lon="32.8718845"><ele>1215.2</ele><time>2015-04-29T12:22:11.0000000+00:00</time></trkpt><trkpt lat="34.8918654" lon="32.8719042"><ele>1215.0</ele><time>2015-04-29T12:22:12.0000000+00:00</time></trkpt><trkpt lat="34.8918016" lon="32.871898"><ele>1214.9</ele><time>2015-04-29T12:22:13.0000000+00:00</time></trkpt><trkpt lat="34.8917424" lon="32.8718907"><ele>1214.3</ele><time>2015-04-29T12:22:14.0000000+00:00</time></trkpt><trkpt lat="34.8916791" lon="32.8718676"><ele>1213.5</ele><time>2015-04-29T12:22:15.0000000+00:00</time></trkpt><trkpt lat="34.8916304" lon="32.8718454"><ele>1212.2</ele><time>2015-04-29T12:22:16.0000000+00:00</time></trkpt><trkpt lat="34.8915511" lon="32.8718039"><ele>1212.4</ele><time>2015-04-29T12:22:18.0000000+00:00</time></trkpt><trkpt lat="34.8914813" lon="32.8717696"><ele>1211.4</ele><time>2015-04-29T12:22:20.0000000+00:00</time></trkpt><trkpt lat="34.8914346" lon="32.8717592"><ele>1210.6</ele><time>2015-04-29T12:22:21.0000000+00:00</time></trkpt><trkpt lat="34.891383" lon="32.8717489"><ele>1210.2</ele><time>2015-04-29T12:22:22.0000000+00:00</time></trkpt><trkpt lat="34.8913322" lon="32.8717378"><ele>1210.0</ele><time>2015-04-29T12:22:23.0000000+00:00</time></trkpt><trkpt lat="34.8912303" lon="32.8717063"><ele>1209.3</ele><time>2015-04-29T12:22:25.0000000+00:00</time></trkpt><trkpt lat="34.8911824" lon="32.8717047"><ele>1208.9</ele><time>2015-04-29T12:22:27.0000000+00:00</time></trkpt><trkpt lat="34.8911156" lon="32.8717194"><ele>1209.3</ele><time>2015-04-29T12:22:30.0000000+00:00</time></trkpt><trkpt lat="34.8910367" lon="32.8717455"><ele>1208.4</ele><time>2015-04-29T12:22:32.0000000+00:00</time></trkpt><trkpt lat="34.8909662" lon="32.871775"><ele>1208.2</ele><time>2015-04-29T12:22:34.0000000+00:00</time></trkpt><trkpt lat="34.8908935" lon="32.871822"><ele>1208.6</ele><time>2015-04-29T12:22:36.0000000+00:00</time></trkpt><trkpt lat="34.890823" lon="32.871863"><ele>1209.2</ele><time>2015-04-29T12:22:38.0000000+00:00</time></trkpt><trkpt lat="34.8907768" lon="32.8718901"><ele>1208.9</ele><time>2015-04-29T12:22:40.0000000+00:00</time></trkpt><trkpt lat="34.8907721" lon="32.8719472"><ele>1210.8</ele><time>2015-04-29T12:23:11.0000000+00:00</time></trkpt><trkpt lat="34.8907844" lon="32.8720282"><ele>1210.3</ele><time>2015-04-29T12:23:14.0000000+00:00</time></trkpt><trkpt lat="34.8908056" lon="32.8720828"><ele>1209.9</ele><time>2015-04-29T12:23:16.0000000+00:00</time></trkpt><trkpt lat="34.8908256" lon="32.872153"><ele>1210.3</ele><time>2015-04-29T12:23:18.0000000+00:00</time></trkpt><trkpt lat="34.8908628" lon="32.8722207"><ele>1208.6</ele><time>2015-04-29T12:23:20.0000000+00:00</time></trkpt><trkpt lat="34.8909285" lon="32.8723068"><ele>1208.5</ele><time>2015-04-29T12:23:22.0000000+00:00</time></trkpt><trkpt lat="34.8909699" lon="32.8723658"><ele>1208.7</ele><time>2015-04-29T12:23:24.0000000+00:00</time></trkpt><trkpt lat="34.8909978" lon="32.8724172"><ele>1209.2</ele><time>2015-04-29T12:23:25.0000000+00:00</time></trkpt><trkpt lat="34.8910396" lon="32.8724985"><ele>1208.9</ele><time>2015-04-29T12:23:27.0000000+00:00</time></trkpt><trkpt lat="34.8910352" lon="32.8726231"><ele>1206.8</ele><time>2015-04-29T12:23:29.0000000+00:00</time></trkpt><trkpt lat="34.8910735" lon="32.8727308"><ele>1206.8</ele><time>2015-04-29T12:23:31.0000000+00:00</time></trkpt><trkpt lat="34.8910855" lon="32.8727845"><ele>1205.8</ele><time>2015-04-29T12:23:32.0000000+00:00</time></trkpt><trkpt lat="34.8910786" lon="32.8728612"><ele>1203.8</ele><time>2015-04-29T12:23:33.0000000+00:00</time></trkpt><trkpt lat="34.8910718" lon="32.8729348"><ele>1204.3</ele><time>2015-04-29T12:23:34.0000000+00:00</time></trkpt><trkpt lat="34.8910651" lon="32.8729944"><ele>1204.0</ele><time>2015-04-29T12:23:35.0000000+00:00</time></trkpt><trkpt lat="34.891046" lon="32.8730648"><ele>1202.9</ele><time>2015-04-29T12:23:36.0000000+00:00</time></trkpt><trkpt lat="34.8910378" lon="32.8731319"><ele>1202.3</ele><time>2015-04-29T12:23:37.0000000+00:00</time></trkpt><trkpt lat="34.8910058" lon="32.8732062"><ele>1203.5</ele><time>2015-04-29T12:23:38.0000000+00:00</time></trkpt><trkpt lat="34.8909895" lon="32.8732782"><ele>1204.7</ele><time>2015-04-29T12:23:39.0000000+00:00</time></trkpt><trkpt lat="34.8909831" lon="32.8733421"><ele>1204.7</ele><time>2015-04-29T12:23:40.0000000+00:00</time></trkpt><trkpt lat="34.8909581" lon="32.873415"><ele>1205.2</ele><time>2015-04-29T12:23:41.0000000+00:00</time></trkpt><trkpt lat="34.8909363" lon="32.8734866"><ele>1206.0</ele><time>2015-04-29T12:23:42.0000000+00:00</time></trkpt><trkpt lat="34.8909417" lon="32.8735531"><ele>1205.9</ele><time>2015-04-29T12:23:43.0000000+00:00</time></trkpt><trkpt lat="34.8909434" lon="32.8736212"><ele>1205.3</ele><time>2015-04-29T12:23:44.0000000+00:00</time></trkpt><trkpt lat="34.890918" lon="32.8736949"><ele>1205.5</ele><time>2015-04-29T12:23:45.0000000+00:00</time></trkpt><trkpt lat="34.8909058" lon="32.8737496"><ele>1205.2</ele><time>2015-04-29T12:23:46.0000000+00:00</time></trkpt><trkpt lat="34.8908999" lon="32.8738072"><ele>1205.5</ele><time>2015-04-29T12:23:47.0000000+00:00</time></trkpt><trkpt lat="34.8908791" lon="32.8738746"><ele>1205.6</ele><time>2015-04-29T12:23:48.0000000+00:00</time></trkpt><trkpt lat="34.8908338" lon="32.8739316"><ele>1205.7</ele><time>2015-04-29T12:23:49.0000000+00:00</time></trkpt><trkpt lat="34.8908061" lon="32.8739913"><ele>1206.2</ele><time>2015-04-29T12:23:50.0000000+00:00</time></trkpt><trkpt lat="34.8907733" lon="32.8740576"><ele>1205.5</ele><time>2015-04-29T12:23:51.0000000+00:00</time></trkpt><trkpt lat="34.8907267" lon="32.87416"><ele>1203.9</ele><time>2015-04-29T12:23:53.0000000+00:00</time></trkpt><trkpt lat="34.8907036" lon="32.874213"><ele>1204.9</ele><time>2015-04-29T12:23:54.0000000+00:00</time></trkpt><trkpt lat="34.8906886" lon="32.8743184"><ele>1205.5</ele><time>2015-04-29T12:23:56.0000000+00:00</time></trkpt><trkpt lat="34.8906841" lon="32.8743737"><ele>1205.7</ele><time>2015-04-29T12:23:57.0000000+00:00</time></trkpt><trkpt lat="34.8907062" lon="32.8744754"><ele>1205.7</ele><time>2015-04-29T12:23:59.0000000+00:00</time></trkpt><trkpt lat="34.8907551" lon="32.8745556"><ele>1205.0</ele><time>2015-04-29T12:24:01.0000000+00:00</time></trkpt><trkpt lat="34.8907995" lon="32.8745989"><ele>1204.9</ele><time>2015-04-29T12:24:02.0000000+00:00</time></trkpt><trkpt lat="34.8908331" lon="32.8746406"><ele>1204.8</ele><time>2015-04-29T12:24:03.0000000+00:00</time></trkpt><trkpt lat="34.8908603" lon="32.874711"><ele>1204.8</ele><time>2015-04-29T12:24:04.0000000+00:00</time></trkpt><trkpt lat="34.89089" lon="32.8747663"><ele>1204.8</ele><time>2015-04-29T12:24:05.0000000+00:00</time></trkpt><trkpt lat="34.8909066" lon="32.8748246"><ele>1203.8</ele><time>2015-04-29T12:24:06.0000000+00:00</time></trkpt><trkpt lat="34.890932" lon="32.8748723"><ele>1202.8</ele><time>2015-04-29T12:24:07.0000000+00:00</time></trkpt><trkpt lat="34.8909723" lon="32.8749074"><ele>1202.3</ele><time>2015-04-29T12:24:08.0000000+00:00</time></trkpt><trkpt lat="34.8910055" lon="32.8749646"><ele>1203.0</ele><time>2015-04-29T12:24:09.0000000+00:00</time></trkpt><trkpt lat="34.8910405" lon="32.8750533"><ele>1204.1</ele><time>2015-04-29T12:24:11.0000000+00:00</time></trkpt><trkpt lat="34.8910479" lon="32.8751448"><ele>1205.8</ele><time>2015-04-29T12:24:13.0000000+00:00</time></trkpt><trkpt lat="34.8909506" lon="32.8752419"><ele>1206.8</ele><time>2015-04-29T12:24:15.0000000+00:00</time></trkpt><trkpt lat="34.8909089" lon="32.8752721"><ele>1207.3</ele><time>2015-04-29T12:24:16.0000000+00:00</time></trkpt><trkpt lat="34.8908296" lon="32.875275"><ele>1208.1</ele><time>2015-04-29T12:24:18.0000000+00:00</time></trkpt><trkpt lat="34.8907532" lon="32.8752648"><ele>1208.6</ele><time>2015-04-29T12:24:20.0000000+00:00</time></trkpt><trkpt lat="34.8906801" lon="32.8752731"><ele>1210.2</ele><time>2015-04-29T12:24:22.0000000+00:00</time></trkpt><trkpt lat="34.8906032" lon="32.8752787"><ele>1209.9</ele><time>2015-04-29T12:24:24.0000000+00:00</time></trkpt><trkpt lat="34.8905323" lon="32.8753258"><ele>1211.3</ele><time>2015-04-29T12:24:25.0000000+00:00</time></trkpt><trkpt lat="34.8904646" lon="32.8753241"><ele>1213.4</ele><time>2015-04-29T12:24:27.0000000+00:00</time></trkpt><trkpt lat="34.8903715" lon="32.8753547"><ele>1212.2</ele><time>2015-04-29T12:24:29.0000000+00:00</time></trkpt><trkpt lat="34.8903049" lon="32.8753868"><ele>1210.1</ele><time>2015-04-29T12:24:31.0000000+00:00</time></trkpt><trkpt lat="34.8902465" lon="32.875427"><ele>1209.1</ele><time>2015-04-29T12:24:33.0000000+00:00</time></trkpt><trkpt lat="34.8902013" lon="32.8754975"><ele>1208.1</ele><time>2015-04-29T12:24:35.0000000+00:00</time></trkpt><trkpt lat="34.8901736" lon="32.8755658"><ele>1209.1</ele><time>2015-04-29T12:24:37.0000000+00:00</time></trkpt><trkpt lat="34.8901505" lon="32.875646"><ele>1208.1</ele><time>2015-04-29T12:24:39.0000000+00:00</time></trkpt><trkpt lat="34.890131" lon="32.8757268"><ele>1208.3</ele><time>2015-04-29T12:24:41.0000000+00:00</time></trkpt><trkpt lat="34.8901175" lon="32.8758092"><ele>1208.4</ele><time>2015-04-29T12:24:43.0000000+00:00</time></trkpt><trkpt lat="34.8901178" lon="32.8758935"><ele>1205.7</ele><time>2015-04-29T12:24:45.0000000+00:00</time></trkpt><trkpt lat="34.890107" lon="32.8759744"><ele>1206.5</ele><time>2015-04-29T12:24:47.0000000+00:00</time></trkpt><trkpt lat="34.8900682" lon="32.8760438"><ele>1207.2</ele><time>2015-04-29T12:24:49.0000000+00:00</time></trkpt><trkpt lat="34.8900219" lon="32.8761029"><ele>1206.1</ele><time>2015-04-29T12:24:51.0000000+00:00</time></trkpt><trkpt lat="34.8899777" lon="32.8761633"><ele>1206.1</ele><time>2015-04-29T12:24:53.0000000+00:00</time></trkpt><trkpt lat="34.8899229" lon="32.876218"><ele>1205.3</ele><time>2015-04-29T12:24:55.0000000+00:00</time></trkpt><trkpt lat="34.8898518" lon="32.8762619"><ele>1205.6</ele><time>2015-04-29T12:24:56.0000000+00:00</time></trkpt><trkpt lat="34.8898086" lon="32.8762912"><ele>1205.2</ele><time>2015-04-29T12:24:57.0000000+00:00</time></trkpt><trkpt lat="34.8897633" lon="32.8763079"><ele>1206.5</ele><time>2015-04-29T12:24:58.0000000+00:00</time></trkpt><trkpt lat="34.8897206" lon="32.8763287"><ele>1208.1</ele><time>2015-04-29T12:24:59.0000000+00:00</time></trkpt><trkpt lat="34.8896707" lon="32.8763501"><ele>1208.9</ele><time>2015-04-29T12:25:00.0000000+00:00</time></trkpt><trkpt lat="34.8896185" lon="32.876359"><ele>1208.4</ele><time>2015-04-29T12:25:01.0000000+00:00</time></trkpt><trkpt lat="34.889563" lon="32.8763785"><ele>1208.6</ele><time>2015-04-29T12:25:02.0000000+00:00</time></trkpt><trkpt lat="34.8895131" lon="32.8763952"><ele>1208.7</ele><time>2015-04-29T12:25:03.0000000+00:00</time></trkpt><trkpt lat="34.8894568" lon="32.8764202"><ele>1208.2</ele><time>2015-04-29T12:25:04.0000000+00:00</time></trkpt><trkpt lat="34.8894175" lon="32.876453"><ele>1207.5</ele><time>2015-04-29T12:25:05.0000000+00:00</time></trkpt><trkpt lat="34.8893732" lon="32.8765438"><ele>1205.7</ele><time>2015-04-29T12:25:07.0000000+00:00</time></trkpt><trkpt lat="34.8893597" lon="32.8766331"><ele>1205.0</ele><time>2015-04-29T12:25:09.0000000+00:00</time></trkpt><trkpt lat="34.8893783" lon="32.8766966"><ele>1204.8</ele><time>2015-04-29T12:25:11.0000000+00:00</time></trkpt><trkpt lat="34.8893896" lon="32.8767499"><ele>1205.3</ele><time>2015-04-29T12:25:19.0000000+00:00</time></trkpt><trkpt lat="34.8894346" lon="32.8767771"><ele>1204.3</ele><time>2015-04-29T12:25:27.0000000+00:00</time></trkpt><trkpt lat="34.8894797" lon="32.8768064"><ele>1203.9</ele><time>2015-04-29T12:25:29.0000000+00:00</time></trkpt><trkpt lat="34.8895328" lon="32.8768432"><ele>1203.0</ele><time>2015-04-29T12:25:31.0000000+00:00</time></trkpt><trkpt lat="34.8895963" lon="32.8768806"><ele>1203.3</ele><time>2015-04-29T12:25:33.0000000+00:00</time></trkpt><trkpt lat="34.8896782" lon="32.8769134"><ele>1203.4</ele><time>2015-04-29T12:25:35.0000000+00:00</time></trkpt><trkpt lat="34.8898204" lon="32.8769176"><ele>1203.2</ele><time>2015-04-29T12:25:37.0000000+00:00</time></trkpt><trkpt lat="34.8898682" lon="32.8769316"><ele>1203.0</ele><time>2015-04-29T12:25:38.0000000+00:00</time></trkpt><trkpt lat="34.8899202" lon="32.8769455"><ele>1202.4</ele><time>2015-04-29T12:25:39.0000000+00:00</time></trkpt><trkpt lat="34.8899655" lon="32.876953"><ele>1201.1</ele><time>2015-04-29T12:25:40.0000000+00:00</time></trkpt><trkpt lat="34.8900109" lon="32.8769714"><ele>1200.4</ele><time>2015-04-29T12:25:41.0000000+00:00</time></trkpt><trkpt lat="34.8900794" lon="32.87701"><ele>1201.2</ele><time>2015-04-29T12:25:43.0000000+00:00</time></trkpt><trkpt lat="34.890083" lon="32.8770694"><ele>1204.1</ele><time>2015-04-29T12:25:45.0000000+00:00</time></trkpt><trkpt lat="34.8901197" lon="32.8771437"><ele>1205.4</ele><time>2015-04-29T12:25:46.0000000+00:00</time></trkpt><trkpt lat="34.8901419" lon="32.8771933"><ele>1206.6</ele><time>2015-04-29T12:25:47.0000000+00:00</time></trkpt><trkpt lat="34.8901545" lon="32.8772651"><ele>1206.2</ele><time>2015-04-29T12:25:48.0000000+00:00</time></trkpt><trkpt lat="34.890202" lon="32.8773506"><ele>1205.0</ele><time>2015-04-29T12:25:49.0000000+00:00</time></trkpt><trkpt lat="34.8902143" lon="32.8774308"><ele>1203.9</ele><time>2015-04-29T12:25:50.0000000+00:00</time></trkpt><trkpt lat="34.8902245" lon="32.8774995"><ele>1202.8</ele><time>2015-04-29T12:25:51.0000000+00:00</time></trkpt><trkpt lat="34.8901864" lon="32.8775673"><ele>1200.8</ele><time>2015-04-29T12:25:52.0000000+00:00</time></trkpt><trkpt lat="34.8901423" lon="32.8776277"><ele>1198.8</ele><time>2015-04-29T12:25:53.0000000+00:00</time></trkpt><trkpt lat="34.8900889" lon="32.8776915"><ele>1197.8</ele><time>2015-04-29T12:25:54.0000000+00:00</time></trkpt><trkpt lat="34.890045" lon="32.8777368"><ele>1196.8</ele><time>2015-04-29T12:25:55.0000000+00:00</time></trkpt><trkpt lat="34.8900182" lon="32.8777882"><ele>1195.8</ele><time>2015-04-29T12:25:56.0000000+00:00</time></trkpt><trkpt lat="34.8900036" lon="32.8778457"><ele>1195.8</ele><time>2015-04-29T12:25:57.0000000+00:00</time></trkpt><trkpt lat="34.8900065" lon="32.877916"><ele>1194.8</ele><time>2015-04-29T12:25:58.0000000+00:00</time></trkpt><trkpt lat="34.8900063" lon="32.8779838"><ele>1193.8</ele><time>2015-04-29T12:25:59.0000000+00:00</time></trkpt><trkpt lat="34.8900174" lon="32.8780567"><ele>1193.3</ele><time>2015-04-29T12:26:00.0000000+00:00</time></trkpt><trkpt lat="34.8900363" lon="32.8781393"><ele>1193.0</ele><time>2015-04-29T12:26:01.0000000+00:00</time></trkpt><trkpt lat="34.8900526" lon="32.8782282"><ele>1191.9</ele><time>2015-04-29T12:26:02.0000000+00:00</time></trkpt><trkpt lat="34.8900558" lon="32.8783133"><ele>1191.8</ele><time>2015-04-29T12:26:03.0000000+00:00</time></trkpt><trkpt lat="34.8900607" lon="32.8784005"><ele>1192.3</ele><time>2015-04-29T12:26:04.0000000+00:00</time></trkpt><trkpt lat="34.890056" lon="32.8784701"><ele>1192.5</ele><time>2015-04-29T12:26:05.0000000+00:00</time></trkpt><trkpt lat="34.890048" lon="32.8785445"><ele>1192.1</ele><time>2015-04-29T12:26:06.0000000+00:00</time></trkpt><trkpt lat="34.8900366" lon="32.878606"><ele>1192.0</ele><time>2015-04-29T12:26:07.0000000+00:00</time></trkpt><trkpt lat="34.8900399" lon="32.8786931"><ele>1191.9</ele><time>2015-04-29T12:26:08.0000000+00:00</time></trkpt><trkpt lat="34.890039" lon="32.8787768"><ele>1191.8</ele><time>2015-04-29T12:26:09.0000000+00:00</time></trkpt><trkpt lat="34.8900299" lon="32.8788743"><ele>1191.3</ele><time>2015-04-29T12:26:10.0000000+00:00</time></trkpt><trkpt lat="34.8900216" lon="32.8789687"><ele>1191.0</ele><time>2015-04-29T12:26:11.0000000+00:00</time></trkpt><trkpt lat="34.8900206" lon="32.8790744"><ele>1190.9</ele><time>2015-04-29T12:26:12.0000000+00:00</time></trkpt><trkpt lat="34.8900269" lon="32.8791456"><ele>1191.8</ele><time>2015-04-29T12:26:13.0000000+00:00</time></trkpt><trkpt lat="34.8900373" lon="32.8792089"><ele>1191.8</ele><time>2015-04-29T12:26:14.0000000+00:00</time></trkpt><trkpt lat="34.8900536" lon="32.8792685"><ele>1191.3</ele><time>2015-04-29T12:26:15.0000000+00:00</time></trkpt><trkpt lat="34.8901004" lon="32.8793499"><ele>1189.4</ele><time>2015-04-29T12:26:17.0000000+00:00</time></trkpt><trkpt lat="34.8901445" lon="32.8794351"><ele>1187.4</ele><time>2015-04-29T12:26:19.0000000+00:00</time></trkpt><trkpt lat="34.8901805" lon="32.8794809"><ele>1187.1</ele><time>2015-04-29T12:26:20.0000000+00:00</time></trkpt><trkpt lat="34.89023" lon="32.8795154"><ele>1186.9</ele><time>2015-04-29T12:26:21.0000000+00:00</time></trkpt><trkpt lat="34.8902967" lon="32.8795502"><ele>1186.8</ele><time>2015-04-29T12:26:22.0000000+00:00</time></trkpt><trkpt lat="34.8903614" lon="32.8795748"><ele>1187.8</ele><time>2015-04-29T12:26:23.0000000+00:00</time></trkpt><trkpt lat="34.8904122" lon="32.8796093"><ele>1188.3</ele><time>2015-04-29T12:26:24.0000000+00:00</time></trkpt><trkpt lat="34.8904612" lon="32.8796415"><ele>1189.0</ele><time>2015-04-29T12:26:25.0000000+00:00</time></trkpt><trkpt lat="34.8905139" lon="32.8796781"><ele>1188.9</ele><time>2015-04-29T12:26:26.0000000+00:00</time></trkpt><trkpt lat="34.8905632" lon="32.8797162"><ele>1188.3</ele><time>2015-04-29T12:26:27.0000000+00:00</time></trkpt><trkpt lat="34.8906159" lon="32.8797589"><ele>1188.0</ele><time>2015-04-29T12:26:28.0000000+00:00</time></trkpt><trkpt lat="34.8906358" lon="32.8798594"><ele>1188.9</ele><time>2015-04-29T12:26:29.0000000+00:00</time></trkpt><trkpt lat="34.8906767" lon="32.8799358"><ele>1188.3</ele><time>2015-04-29T12:26:30.0000000+00:00</time></trkpt><trkpt lat="34.890704" lon="32.880012"><ele>1188.1</ele><time>2015-04-29T12:26:31.0000000+00:00</time></trkpt><trkpt lat="34.8907054" lon="32.8801187"><ele>1186.9</ele><time>2015-04-29T12:26:32.0000000+00:00</time></trkpt><trkpt lat="34.8906777" lon="32.8802228"><ele>1185.8</ele><time>2015-04-29T12:26:33.0000000+00:00</time></trkpt><trkpt lat="34.8906682" lon="32.8803235"><ele>1185.3</ele><time>2015-04-29T12:26:34.0000000+00:00</time></trkpt><trkpt lat="34.8906475" lon="32.8804176"><ele>1184.0</ele><time>2015-04-29T12:26:35.0000000+00:00</time></trkpt><trkpt lat="34.8906173" lon="32.8805081"><ele>1182.4</ele><time>2015-04-29T12:26:36.0000000+00:00</time></trkpt><trkpt lat="34.8905945" lon="32.880599"><ele>1181.6</ele><time>2015-04-29T12:26:37.0000000+00:00</time></trkpt><trkpt lat="34.8905645" lon="32.880694"><ele>1180.7</ele><time>2015-04-29T12:26:38.0000000+00:00</time></trkpt><trkpt lat="34.8905273" lon="32.8807876"><ele>1179.7</ele><time>2015-04-29T12:26:39.0000000+00:00</time></trkpt><trkpt lat="34.8905029" lon="32.8808773"><ele>1179.2</ele><time>2015-04-29T12:26:40.0000000+00:00</time></trkpt><trkpt lat="34.8904797" lon="32.880949"><ele>1178.5</ele><time>2015-04-29T12:26:41.0000000+00:00</time></trkpt><trkpt lat="34.8904474" lon="32.8810171"><ele>1178.1</ele><time>2015-04-29T12:26:42.0000000+00:00</time></trkpt><trkpt lat="34.8904328" lon="32.881075"><ele>1177.4</ele><time>2015-04-29T12:26:43.0000000+00:00</time></trkpt><trkpt lat="34.89041" lon="32.881138"><ele>1177.1</ele><time>2015-04-29T12:26:44.0000000+00:00</time></trkpt><trkpt lat="34.8903972" lon="32.8812045"><ele>1176.4</ele><time>2015-04-29T12:26:45.0000000+00:00</time></trkpt><trkpt lat="34.8903904" lon="32.8812682"><ele>1175.6</ele><time>2015-04-29T12:26:46.0000000+00:00</time></trkpt><trkpt lat="34.8903844" lon="32.8813689"><ele>1174.7</ele><time>2015-04-29T12:26:48.0000000+00:00</time></trkpt><trkpt lat="34.8903951" lon="32.8814294"><ele>1174.8</ele><time>2015-04-29T12:26:50.0000000+00:00</time></trkpt><trkpt lat="34.8903852" lon="32.8813625"><ele>1174.7</ele><time>2015-04-29T12:27:18.0000000+00:00</time></trkpt><trkpt lat="34.8903775" lon="32.881303"><ele>1174.8</ele><time>2015-04-29T12:27:21.0000000+00:00</time></trkpt><trkpt lat="34.890385" lon="32.8812456"><ele>1174.8</ele><time>2015-04-29T12:27:24.0000000+00:00</time></trkpt><trkpt lat="34.8903996" lon="32.8811742"><ele>1175.5</ele><time>2015-04-29T12:27:27.0000000+00:00</time></trkpt><trkpt lat="34.8904136" lon="32.8811023"><ele>1175.2</ele><time>2015-04-29T12:27:30.0000000+00:00</time></trkpt><trkpt lat="34.8904448" lon="32.8810572"><ele>1175.7</ele><time>2015-04-29T12:27:33.0000000+00:00</time></trkpt><trkpt lat="34.8904527" lon="32.8809859"><ele>1175.8</ele><time>2015-04-29T12:27:37.0000000+00:00</time></trkpt><trkpt lat="34.8904525" lon="32.8810573"><ele>1175.8</ele><time>2015-04-29T12:27:44.0000000+00:00</time></trkpt><trkpt lat="34.8904105" lon="32.8811333"><ele>1175.0</ele><time>2015-04-29T12:27:46.0000000+00:00</time></trkpt><trkpt lat="34.8903813" lon="32.8812366"><ele>1174.1</ele><time>2015-04-29T12:27:48.0000000+00:00</time></trkpt><trkpt lat="34.8903746" lon="32.8812977"><ele>1173.9</ele><time>2015-04-29T12:27:49.0000000+00:00</time></trkpt><trkpt lat="34.8903862" lon="32.8813839"><ele>1173.3</ele><time>2015-04-29T12:27:50.0000000+00:00</time></trkpt><trkpt lat="34.8903905" lon="32.8814466"><ele>1173.1</ele><time>2015-04-29T12:27:51.0000000+00:00</time></trkpt><trkpt lat="34.8904104" lon="32.881513"><ele>1172.9</ele><time>2015-04-29T12:27:52.0000000+00:00</time></trkpt><trkpt lat="34.8904356" lon="32.881571"><ele>1172.3</ele><time>2015-04-29T12:27:53.0000000+00:00</time></trkpt><trkpt lat="34.8904678" lon="32.8816203"><ele>1172.1</ele><time>2015-04-29T12:27:54.0000000+00:00</time></trkpt><trkpt lat="34.8905054" lon="32.8816672"><ele>1171.9</ele><time>2015-04-29T12:27:55.0000000+00:00</time></trkpt><trkpt lat="34.8905437" lon="32.8817039"><ele>1171.8</ele><time>2015-04-29T12:27:56.0000000+00:00</time></trkpt><trkpt lat="34.8906015" lon="32.8817391"><ele>1171.3</ele><time>2015-04-29T12:27:58.0000000+00:00</time></trkpt><trkpt lat="34.8906257" lon="32.8817861"><ele>1176.5</ele><time>2015-04-29T12:31:26.0000000+00:00</time></trkpt><trkpt lat="34.8906637" lon="32.8818192"><ele>1177.0</ele><time>2015-04-29T12:31:28.0000000+00:00</time></trkpt><trkpt lat="34.8907067" lon="32.8818504"><ele>1176.8</ele><time>2015-04-29T12:31:30.0000000+00:00</time></trkpt><trkpt lat="34.8907703" lon="32.8818913"><ele>1175.8</ele><time>2015-04-29T12:31:32.0000000+00:00</time></trkpt><trkpt lat="34.8908291" lon="32.8819268"><ele>1176.3</ele><time>2015-04-29T12:31:33.0000000+00:00</time></trkpt><trkpt lat="34.8908981" lon="32.8819596"><ele>1176.9</ele><time>2015-04-29T12:31:35.0000000+00:00</time></trkpt><trkpt lat="34.89098" lon="32.8819736"><ele>1177.0</ele><time>2015-04-29T12:31:37.0000000+00:00</time></trkpt><trkpt lat="34.8910514" lon="32.8819888"><ele>1176.3</ele><time>2015-04-29T12:31:39.0000000+00:00</time></trkpt><trkpt lat="34.8911195" lon="32.8820055"><ele>1175.4</ele><time>2015-04-29T12:31:41.0000000+00:00</time></trkpt><trkpt lat="34.8911906" lon="32.8819941"><ele>1173.4</ele><time>2015-04-29T12:31:43.0000000+00:00</time></trkpt><trkpt lat="34.8912718" lon="32.8819858"><ele>1171.9</ele><time>2015-04-29T12:31:45.0000000+00:00</time></trkpt><trkpt lat="34.8913393" lon="32.8819715"><ele>1171.3</ele><time>2015-04-29T12:31:46.0000000+00:00</time></trkpt><trkpt lat="34.8914244" lon="32.8819706"><ele>1170.4</ele><time>2015-04-29T12:31:48.0000000+00:00</time></trkpt><trkpt lat="34.8914762" lon="32.881963"><ele>1169.1</ele><time>2015-04-29T12:31:49.0000000+00:00</time></trkpt><trkpt lat="34.8915224" lon="32.8819607"><ele>1167.9</ele><time>2015-04-29T12:31:50.0000000+00:00</time></trkpt><trkpt lat="34.8915663" lon="32.8819477"><ele>1166.8</ele><time>2015-04-29T12:31:51.0000000+00:00</time></trkpt><trkpt lat="34.8916218" lon="32.8819233"><ele>1166.3</ele><time>2015-04-29T12:31:52.0000000+00:00</time></trkpt><trkpt lat="34.891677" lon="32.8819174"><ele>1166.5</ele><time>2015-04-29T12:31:53.0000000+00:00</time></trkpt><trkpt lat="34.8917464" lon="32.8818923"><ele>1165.7</ele><time>2015-04-29T12:31:54.0000000+00:00</time></trkpt><trkpt lat="34.8917918" lon="32.8818935"><ele>1165.7</ele><time>2015-04-29T12:31:55.0000000+00:00</time></trkpt><trkpt lat="34.8918474" lon="32.881889"><ele>1166.2</ele><time>2015-04-29T12:31:56.0000000+00:00</time></trkpt><trkpt lat="34.8919132" lon="32.8818868"><ele>1167.0</ele><time>2015-04-29T12:31:57.0000000+00:00</time></trkpt><trkpt lat="34.8919653" lon="32.8818796"><ele>1167.4</ele><time>2015-04-29T12:31:58.0000000+00:00</time></trkpt><trkpt lat="34.8920392" lon="32.8818818"><ele>1168.1</ele><time>2015-04-29T12:31:59.0000000+00:00</time></trkpt><trkpt lat="34.892104" lon="32.8818779"><ele>1167.9</ele><time>2015-04-29T12:32:00.0000000+00:00</time></trkpt><trkpt lat="34.892195" lon="32.8818727"><ele>1168.8</ele><time>2015-04-29T12:32:01.0000000+00:00</time></trkpt><trkpt lat="34.8922588" lon="32.8818826"><ele>1168.8</ele><time>2015-04-29T12:32:02.0000000+00:00</time></trkpt><trkpt lat="34.8923325" lon="32.8818806"><ele>1168.8</ele><time>2015-04-29T12:32:03.0000000+00:00</time></trkpt><trkpt lat="34.8924132" lon="32.881881"><ele>1168.8</ele><time>2015-04-29T12:32:04.0000000+00:00</time></trkpt><trkpt lat="34.8924876" lon="32.8818811"><ele>1168.3</ele><time>2015-04-29T12:32:05.0000000+00:00</time></trkpt><trkpt lat="34.8925604" lon="32.8818909"><ele>1168.0</ele><time>2015-04-29T12:32:06.0000000+00:00</time></trkpt><trkpt lat="34.8926323" lon="32.881899"><ele>1167.4</ele><time>2015-04-29T12:32:07.0000000+00:00</time></trkpt><trkpt lat="34.8927107" lon="32.8819659"><ele>1166.2</ele><time>2015-04-29T12:32:09.0000000+00:00</time></trkpt><trkpt lat="34.8927408" lon="32.8820113"><ele>1166.0</ele><time>2015-04-29T12:32:10.0000000+00:00</time></trkpt><trkpt lat="34.8927661" lon="32.8820709"><ele>1165.9</ele><time>2015-04-29T12:32:11.0000000+00:00</time></trkpt><trkpt lat="34.892759" lon="32.8821347"><ele>1165.8</ele><time>2015-04-29T12:32:12.0000000+00:00</time></trkpt><trkpt lat="34.8927529" lon="32.882234"><ele>1164.8</ele><time>2015-04-29T12:32:14.0000000+00:00</time></trkpt><trkpt lat="34.8927509" lon="32.8823226"><ele>1163.5</ele><time>2015-04-29T12:32:16.0000000+00:00</time></trkpt><trkpt lat="34.8927476" lon="32.8824032"><ele>1161.2</ele><time>2015-04-29T12:32:18.0000000+00:00</time></trkpt><trkpt lat="34.8927431" lon="32.8824643"><ele>1160.5</ele><time>2015-04-29T12:32:19.0000000+00:00</time></trkpt><trkpt lat="34.8927171" lon="32.8825697"><ele>1160.9</ele><time>2015-04-29T12:32:21.0000000+00:00</time></trkpt><trkpt lat="34.8926986" lon="32.8826229"><ele>1161.4</ele><time>2015-04-29T12:32:22.0000000+00:00</time></trkpt><trkpt lat="34.8926585" lon="32.8827034"><ele>1161.7</ele><time>2015-04-29T12:32:24.0000000+00:00</time></trkpt><trkpt lat="34.8926288" lon="32.8827795"><ele>1160.5</ele><time>2015-04-29T12:32:26.0000000+00:00</time></trkpt><trkpt lat="34.8926052" lon="32.8828612"><ele>1160.7</ele><time>2015-04-29T12:32:28.0000000+00:00</time></trkpt><trkpt lat="34.8925926" lon="32.882934"><ele>1160.0</ele><time>2015-04-29T12:32:30.0000000+00:00</time></trkpt><trkpt lat="34.8925805" lon="32.8830016"><ele>1159.8</ele><time>2015-04-29T12:32:32.0000000+00:00</time></trkpt><trkpt lat="34.8925591" lon="32.883056"><ele>1159.0</ele><time>2015-04-29T12:32:34.0000000+00:00</time></trkpt><trkpt lat="34.8925494" lon="32.8831117"><ele>1158.8</ele><time>2015-04-29T12:32:36.0000000+00:00</time></trkpt><trkpt lat="34.8925488" lon="32.8831674"><ele>1159.6</ele><time>2015-04-29T12:32:39.0000000+00:00</time></trkpt><trkpt lat="34.8925751" lon="32.8832281"><ele>1159.8</ele><time>2015-04-29T12:32:43.0000000+00:00</time></trkpt><trkpt lat="34.8926013" lon="32.8832752"><ele>1159.8</ele><time>2015-04-29T12:32:46.0000000+00:00</time></trkpt><trkpt lat="34.8926337" lon="32.8833286"><ele>1161.0</ele><time>2015-04-29T12:32:50.0000000+00:00</time></trkpt><trkpt lat="34.8926607" lon="32.8833736"><ele>1163.1</ele><time>2015-04-29T12:32:55.0000000+00:00</time></trkpt><trkpt lat="34.8927035" lon="32.8833975"><ele>1163.7</ele><time>2015-04-29T12:32:59.0000000+00:00</time></trkpt><trkpt lat="34.8927447" lon="32.8834291"><ele>1163.4</ele><time>2015-04-29T12:33:02.0000000+00:00</time></trkpt><trkpt lat="34.8928038" lon="32.8834508"><ele>1162.3</ele><time>2015-04-29T12:33:05.0000000+00:00</time></trkpt><trkpt lat="34.8928526" lon="32.8834698"><ele>1160.7</ele><time>2015-04-29T12:33:07.0000000+00:00</time></trkpt><trkpt lat="34.8929185" lon="32.8835074"><ele>1158.0</ele><time>2015-04-29T12:33:09.0000000+00:00</time></trkpt><trkpt lat="34.8929696" lon="32.883553"><ele>1155.1</ele><time>2015-04-29T12:33:11.0000000+00:00</time></trkpt><trkpt lat="34.8930136" lon="32.8835833"><ele>1153.8</ele><time>2015-04-29T12:33:13.0000000+00:00</time></trkpt><trkpt lat="34.8930498" lon="32.8836282"><ele>1155.7</ele><time>2015-04-29T12:33:17.0000000+00:00</time></trkpt><trkpt lat="34.893043" lon="32.8836898"><ele>1163.1</ele><time>2015-04-29T12:34:00.0000000+00:00</time></trkpt><trkpt lat="34.8930358" lon="32.8837468"><ele>1162.6</ele><time>2015-04-29T12:34:02.0000000+00:00</time></trkpt><trkpt lat="34.893018" lon="32.8838192"><ele>1160.0</ele><time>2015-04-29T12:34:04.0000000+00:00</time></trkpt><trkpt lat="34.8929954" lon="32.8838859"><ele>1156.3</ele><time>2015-04-29T12:34:06.0000000+00:00</time></trkpt><trkpt lat="34.89294" lon="32.8839475"><ele>1153.4</ele><time>2015-04-29T12:34:08.0000000+00:00</time></trkpt><trkpt lat="34.8928757" lon="32.8840051"><ele>1151.4</ele><time>2015-04-29T12:34:10.0000000+00:00</time></trkpt><trkpt lat="34.8928131" lon="32.8840644"><ele>1151.9</ele><time>2015-04-29T12:34:12.0000000+00:00</time></trkpt><trkpt lat="34.8927635" lon="32.8841396"><ele>1153.1</ele><time>2015-04-29T12:34:14.0000000+00:00</time></trkpt><trkpt lat="34.8927178" lon="32.8842148"><ele>1154.1</ele><time>2015-04-29T12:34:16.0000000+00:00</time></trkpt><trkpt lat="34.8926832" lon="32.8842794"><ele>1154.1</ele><time>2015-04-29T12:34:18.0000000+00:00</time></trkpt><trkpt lat="34.8926398" lon="32.8843404"><ele>1153.8</ele><time>2015-04-29T12:34:20.0000000+00:00</time></trkpt><trkpt lat="34.8925963" lon="32.8844046"><ele>1154.3</ele><time>2015-04-29T12:34:22.0000000+00:00</time></trkpt><trkpt lat="34.8925556" lon="32.8844674"><ele>1154.6</ele><time>2015-04-29T12:34:24.0000000+00:00</time></trkpt><trkpt lat="34.8925192" lon="32.8845257"><ele>1154.2</ele><time>2015-04-29T12:34:26.0000000+00:00</time></trkpt><trkpt lat="34.8924812" lon="32.8845803"><ele>1153.1</ele><time>2015-04-29T12:34:29.0000000+00:00</time></trkpt><trkpt lat="34.8924542" lon="32.8846377"><ele>1153.7</ele><time>2015-04-29T12:34:32.0000000+00:00</time></trkpt><trkpt lat="34.8924173" lon="32.8846691"><ele>1159.8</ele><time>2015-04-29T12:36:23.0000000+00:00</time></trkpt><trkpt lat="34.892369" lon="32.8846716"><ele>1157.1</ele><time>2015-04-29T12:37:30.0000000+00:00</time></trkpt><trkpt lat="34.8923284" lon="32.8847154"><ele>1156.4</ele><time>2015-04-29T12:37:32.0000000+00:00</time></trkpt><trkpt lat="34.8922856" lon="32.8847596"><ele>1155.9</ele><time>2015-04-29T12:37:34.0000000+00:00</time></trkpt><trkpt lat="34.8922448" lon="32.8848291"><ele>1156.8</ele><time>2015-04-29T12:37:36.0000000+00:00</time></trkpt><trkpt lat="34.8922088" lon="32.8848973"><ele>1157.0</ele><time>2015-04-29T12:37:38.0000000+00:00</time></trkpt><trkpt lat="34.8921744" lon="32.8849638"><ele>1157.3</ele><time>2015-04-29T12:37:40.0000000+00:00</time></trkpt><trkpt lat="34.8921239" lon="32.8850309"><ele>1158.1</ele><time>2015-04-29T12:37:52.0000000+00:00</time></trkpt><trkpt lat="34.8920922" lon="32.885111"><ele>1157.8</ele><time>2015-04-29T12:37:54.0000000+00:00</time></trkpt><trkpt lat="34.8920663" lon="32.8851894"><ele>1158.0</ele><time>2015-04-29T12:37:56.0000000+00:00</time></trkpt><trkpt lat="34.8920472" lon="32.8852698"><ele>1158.8</ele><time>2015-04-29T12:37:58.0000000+00:00</time></trkpt><trkpt lat="34.8920318" lon="32.8853608"><ele>1159.0</ele><time>2015-04-29T12:38:00.0000000+00:00</time></trkpt><trkpt lat="34.8920239" lon="32.8854555"><ele>1159.6</ele><time>2015-04-29T12:38:02.0000000+00:00</time></trkpt><trkpt lat="34.8920215" lon="32.8855566"><ele>1159.7</ele><time>2015-04-29T12:38:04.0000000+00:00</time></trkpt><trkpt lat="34.8920087" lon="32.8856508"><ele>1160.2</ele><time>2015-04-29T12:38:05.0000000+00:00</time></trkpt><trkpt lat="34.8920206" lon="32.8857449"><ele>1159.4</ele><time>2015-04-29T12:38:07.0000000+00:00</time></trkpt><trkpt lat="34.8920583" lon="32.8857905"><ele>1160.9</ele><time>2015-04-29T12:38:09.0000000+00:00</time></trkpt><trkpt lat="34.8920806" lon="32.8858547"><ele>1163.5</ele><time>2015-04-29T12:38:13.0000000+00:00</time></trkpt><trkpt lat="34.8921093" lon="32.8858972"><ele>1156.7</ele><time>2015-04-29T12:39:02.0000000+00:00</time></trkpt><trkpt lat="34.8921469" lon="32.8859612"><ele>1155.8</ele><time>2015-04-29T12:39:05.0000000+00:00</time></trkpt><trkpt lat="34.8921889" lon="32.8860304"><ele>1155.4</ele><time>2015-04-29T12:39:08.0000000+00:00</time></trkpt><trkpt lat="34.8922165" lon="32.8860878"><ele>1156.4</ele><time>2015-04-29T12:39:10.0000000+00:00</time></trkpt><trkpt lat="34.8922157" lon="32.8861704"><ele>1156.2</ele><time>2015-04-29T12:39:12.0000000+00:00</time></trkpt><trkpt lat="34.8921988" lon="32.8862535"><ele>1156.4</ele><time>2015-04-29T12:39:14.0000000+00:00</time></trkpt><trkpt lat="34.8921808" lon="32.886325"><ele>1157.4</ele><time>2015-04-29T12:39:16.0000000+00:00</time></trkpt><trkpt lat="34.8921328" lon="32.8864018"><ele>1158.7</ele><time>2015-04-29T12:39:18.0000000+00:00</time></trkpt><trkpt lat="34.8920857" lon="32.8864775"><ele>1156.2</ele><time>2015-04-29T12:39:20.0000000+00:00</time></trkpt><trkpt lat="34.8920484" lon="32.8865386"><ele>1155.9</ele><time>2015-04-29T12:39:22.0000000+00:00</time></trkpt><trkpt lat="34.8920142" lon="32.8866265"><ele>1156.3</ele><time>2015-04-29T12:39:24.0000000+00:00</time></trkpt><trkpt lat="34.8919845" lon="32.8867008"><ele>1159.4</ele><time>2015-04-29T12:39:26.0000000+00:00</time></trkpt><trkpt lat="34.8919438" lon="32.8867659"><ele>1158.9</ele><time>2015-04-29T12:39:28.0000000+00:00</time></trkpt><trkpt lat="34.8918977" lon="32.8868177"><ele>1160.1</ele><time>2015-04-29T12:39:30.0000000+00:00</time></trkpt><trkpt lat="34.8918445" lon="32.8868643"><ele>1161.3</ele><time>2015-04-29T12:39:32.0000000+00:00</time></trkpt><trkpt lat="34.8917895" lon="32.8868914"><ele>1163.9</ele><time>2015-04-29T12:39:34.0000000+00:00</time></trkpt><trkpt lat="34.8917338" lon="32.8868975"><ele>1165.1</ele><time>2015-04-29T12:39:36.0000000+00:00</time></trkpt><trkpt lat="34.891686" lon="32.8868847"><ele>1166.3</ele><time>2015-04-29T12:39:38.0000000+00:00</time></trkpt><trkpt lat="34.891638" lon="32.8868674"><ele>1166.7</ele><time>2015-04-29T12:39:40.0000000+00:00</time></trkpt><trkpt lat="34.8915793" lon="32.886861"><ele>1161.0</ele><time>2015-04-29T12:39:42.0000000+00:00</time></trkpt><trkpt lat="34.8915181" lon="32.886834"><ele>1157.8</ele><time>2015-04-29T12:39:44.0000000+00:00</time></trkpt><trkpt lat="34.8914502" lon="32.8867963"><ele>1154.3</ele><time>2015-04-29T12:39:46.0000000+00:00</time></trkpt><trkpt lat="34.8913812" lon="32.8867552"><ele>1151.9</ele><time>2015-04-29T12:39:48.0000000+00:00</time></trkpt><trkpt lat="34.8912981" lon="32.8867191"><ele>1149.3</ele><time>2015-04-29T12:39:50.0000000+00:00</time></trkpt><trkpt lat="34.8912095" lon="32.8866897"><ele>1145.6</ele><time>2015-04-29T12:39:52.0000000+00:00</time></trkpt><trkpt lat="34.8911536" lon="32.8866926"><ele>1144.2</ele><time>2015-04-29T12:39:53.0000000+00:00</time></trkpt><trkpt lat="34.8911037" lon="32.8866901"><ele>1144.0</ele><time>2015-04-29T12:39:54.0000000+00:00</time></trkpt><trkpt lat="34.8910552" lon="32.8866952"><ele>1143.4</ele><time>2015-04-29T12:39:55.0000000+00:00</time></trkpt><trkpt lat="34.891009" lon="32.8867006"><ele>1142.6</ele><time>2015-04-29T12:39:56.0000000+00:00</time></trkpt><trkpt lat="34.890961" lon="32.8867062"><ele>1142.7</ele><time>2015-04-29T12:39:57.0000000+00:00</time></trkpt><trkpt lat="34.8908867" lon="32.8867522"><ele>1142.7</ele><time>2015-04-29T12:39:59.0000000+00:00</time></trkpt><trkpt lat="34.890851" lon="32.8868394"><ele>1142.5</ele><time>2015-04-29T12:40:01.0000000+00:00</time></trkpt><trkpt lat="34.8908548" lon="32.8869368"><ele>1142.7</ele><time>2015-04-29T12:40:03.0000000+00:00</time></trkpt><trkpt lat="34.8908664" lon="32.887038"><ele>1142.7</ele><time>2015-04-29T12:40:05.0000000+00:00</time></trkpt><trkpt lat="34.8908859" lon="32.8870884"><ele>1143.3</ele><time>2015-04-29T12:40:06.0000000+00:00</time></trkpt><trkpt lat="34.8909139" lon="32.8871337"><ele>1144.5</ele><time>2015-04-29T12:40:07.0000000+00:00</time></trkpt><trkpt lat="34.8909378" lon="32.8871829"><ele>1145.1</ele><time>2015-04-29T12:40:08.0000000+00:00</time></trkpt><trkpt lat="34.8910006" lon="32.8872475"><ele>1146.6</ele><time>2015-04-29T12:40:10.0000000+00:00</time></trkpt><trkpt lat="34.8910602" lon="32.887313"><ele>1146.7</ele><time>2015-04-29T12:40:12.0000000+00:00</time></trkpt><trkpt lat="34.8911107" lon="32.8873913"><ele>1147.5</ele><time>2015-04-29T12:40:14.0000000+00:00</time></trkpt><trkpt lat="34.8911324" lon="32.8874408"><ele>1147.1</ele><time>2015-04-29T12:40:15.0000000+00:00</time></trkpt><trkpt lat="34.8911373" lon="32.8875386"><ele>1147.4</ele><time>2015-04-29T12:40:17.0000000+00:00</time></trkpt><trkpt lat="34.8911327" lon="32.8876446"><ele>1146.9</ele><time>2015-04-29T12:40:19.0000000+00:00</time></trkpt><trkpt lat="34.8911294" lon="32.887711"><ele>1146.8</ele><time>2015-04-29T12:40:20.0000000+00:00</time></trkpt><trkpt lat="34.8911134" lon="32.8877687"><ele>1146.8</ele><time>2015-04-29T12:40:21.0000000+00:00</time></trkpt><trkpt lat="34.8910911" lon="32.8878204"><ele>1145.8</ele><time>2015-04-29T12:40:22.0000000+00:00</time></trkpt><trkpt lat="34.8910786" lon="32.8878747"><ele>1145.8</ele><time>2015-04-29T12:40:23.0000000+00:00</time></trkpt><trkpt lat="34.8910476" lon="32.8879364"><ele>1146.8</ele><time>2015-04-29T12:40:24.0000000+00:00</time></trkpt><trkpt lat="34.8910078" lon="32.8879768"><ele>1146.8</ele><time>2015-04-29T12:40:25.0000000+00:00</time></trkpt><trkpt lat="34.890965" lon="32.8880141"><ele>1147.3</ele><time>2015-04-29T12:40:26.0000000+00:00</time></trkpt><trkpt lat="34.890919" lon="32.8880448"><ele>1148.0</ele><time>2015-04-29T12:40:27.0000000+00:00</time></trkpt><trkpt lat="34.8908638" lon="32.8880728"><ele>1148.9</ele><time>2015-04-29T12:40:28.0000000+00:00</time></trkpt><trkpt lat="34.8907865" lon="32.8881162"><ele>1149.0</ele><time>2015-04-29T12:40:30.0000000+00:00</time></trkpt><trkpt lat="34.8907169" lon="32.8881663"><ele>1149.8</ele><time>2015-04-29T12:40:32.0000000+00:00</time></trkpt><trkpt lat="34.8906582" lon="32.888242"><ele>1150.3</ele><time>2015-04-29T12:40:34.0000000+00:00</time></trkpt><trkpt lat="34.8906195" lon="32.8883323"><ele>1150.6</ele><time>2015-04-29T12:40:36.0000000+00:00</time></trkpt><trkpt lat="34.8906269" lon="32.8883943"><ele>1150.7</ele><time>2015-04-29T12:40:37.0000000+00:00</time></trkpt><trkpt lat="34.8906381" lon="32.8885034"><ele>1150.7</ele><time>2015-04-29T12:40:39.0000000+00:00</time></trkpt><trkpt lat="34.8906723" lon="32.8886129"><ele>1151.5</ele><time>2015-04-29T12:40:41.0000000+00:00</time></trkpt><trkpt lat="34.8906727" lon="32.8886752"><ele>1151.1</ele><time>2015-04-29T12:40:42.0000000+00:00</time></trkpt><trkpt lat="34.8906682" lon="32.8887754"><ele>1151.6</ele><time>2015-04-29T12:40:44.0000000+00:00</time></trkpt><trkpt lat="34.8906479" lon="32.8888722"><ele>1152.2</ele><time>2015-04-29T12:40:46.0000000+00:00</time></trkpt><trkpt lat="34.8906119" lon="32.8889676"><ele>1152.4</ele><time>2015-04-29T12:40:48.0000000+00:00</time></trkpt><trkpt lat="34.8905875" lon="32.8890143"><ele>1153.1</ele><time>2015-04-29T12:40:49.0000000+00:00</time></trkpt><trkpt lat="34.8905664" lon="32.8890654"><ele>1153.4</ele><time>2015-04-29T12:40:50.0000000+00:00</time></trkpt><trkpt lat="34.890544" lon="32.8891187"><ele>1153.1</ele><time>2015-04-29T12:40:51.0000000+00:00</time></trkpt><trkpt lat="34.8905144" lon="32.8891675"><ele>1152.9</ele><time>2015-04-29T12:40:52.0000000+00:00</time></trkpt><trkpt lat="34.8904773" lon="32.8892134"><ele>1153.3</ele><time>2015-04-29T12:40:53.0000000+00:00</time></trkpt><trkpt lat="34.8904361" lon="32.8892558"><ele>1153.6</ele><time>2015-04-29T12:40:54.0000000+00:00</time></trkpt><trkpt lat="34.8904105" lon="32.8893045"><ele>1153.7</ele><time>2015-04-29T12:40:55.0000000+00:00</time></trkpt><trkpt lat="34.8903803" lon="32.8893545"><ele>1153.7</ele><time>2015-04-29T12:40:56.0000000+00:00</time></trkpt><trkpt lat="34.8903508" lon="32.8894069"><ele>1154.2</ele><time>2015-04-29T12:40:57.0000000+00:00</time></trkpt><trkpt lat="34.8903219" lon="32.8895098"><ele>1155.4</ele><time>2015-04-29T12:40:59.0000000+00:00</time></trkpt><trkpt lat="34.8903102" lon="32.8896138"><ele>1155.7</ele><time>2015-04-29T12:41:01.0000000+00:00</time></trkpt><trkpt lat="34.8903236" lon="32.8896714"><ele>1155.7</ele><time>2015-04-29T12:41:02.0000000+00:00</time></trkpt><trkpt lat="34.8903372" lon="32.8897314"><ele>1155.7</ele><time>2015-04-29T12:41:03.0000000+00:00</time></trkpt><trkpt lat="34.8903598" lon="32.8897934"><ele>1155.8</ele><time>2015-04-29T12:41:04.0000000+00:00</time></trkpt><trkpt lat="34.8903966" lon="32.8898418"><ele>1155.8</ele><time>2015-04-29T12:41:05.0000000+00:00</time></trkpt><trkpt lat="34.8904405" lon="32.8898909"><ele>1155.8</ele><time>2015-04-29T12:41:06.0000000+00:00</time></trkpt><trkpt lat="34.8904907" lon="32.8899266"><ele>1155.3</ele><time>2015-04-29T12:41:07.0000000+00:00</time></trkpt><trkpt lat="34.8905411" lon="32.8899657"><ele>1155.5</ele><time>2015-04-29T12:41:08.0000000+00:00</time></trkpt><trkpt lat="34.8905866" lon="32.8900102"><ele>1155.1</ele><time>2015-04-29T12:41:09.0000000+00:00</time></trkpt><trkpt lat="34.8906286" lon="32.8900649"><ele>1155.0</ele><time>2015-04-29T12:41:10.0000000+00:00</time></trkpt><trkpt lat="34.8906632" lon="32.8901192"><ele>1154.9</ele><time>2015-04-29T12:41:11.0000000+00:00</time></trkpt><trkpt lat="34.8906936" lon="32.8901883"><ele>1154.8</ele><time>2015-04-29T12:41:12.0000000+00:00</time></trkpt><trkpt lat="34.8907124" lon="32.8902554"><ele>1154.8</ele><time>2015-04-29T12:41:13.0000000+00:00</time></trkpt><trkpt lat="34.8907248" lon="32.890317"><ele>1154.8</ele><time>2015-04-29T12:41:14.0000000+00:00</time></trkpt><trkpt lat="34.8907337" lon="32.8903708"><ele>1154.8</ele><time>2015-04-29T12:41:15.0000000+00:00</time></trkpt><trkpt lat="34.8907445" lon="32.8904302"><ele>1154.8</ele><time>2015-04-29T12:41:16.0000000+00:00</time></trkpt><trkpt lat="34.890743" lon="32.8905336"><ele>1154.8</ele><time>2015-04-29T12:41:18.0000000+00:00</time></trkpt><trkpt lat="34.8907639" lon="32.8906123"><ele>1154.8</ele><time>2015-04-29T12:41:20.0000000+00:00</time></trkpt><trkpt lat="34.890791" lon="32.8906747"><ele>1154.0</ele><time>2015-04-29T12:41:22.0000000+00:00</time></trkpt><trkpt lat="34.8908293" lon="32.890706"><ele>1155.1</ele><time>2015-04-29T12:41:24.0000000+00:00</time></trkpt><trkpt lat="34.8908728" lon="32.8907426"><ele>1156.3</ele><time>2015-04-29T12:41:26.0000000+00:00</time></trkpt><trkpt lat="34.8909263" lon="32.890768"><ele>1157.2</ele><time>2015-04-29T12:41:28.0000000+00:00</time></trkpt><trkpt lat="34.8909818" lon="32.8908038"><ele>1156.9</ele><time>2015-04-29T12:41:30.0000000+00:00</time></trkpt><trkpt lat="34.8910212" lon="32.8908316"><ele>1156.3</ele><time>2015-04-29T12:41:31.0000000+00:00</time></trkpt><trkpt lat="34.891102" lon="32.8908766"><ele>1157.2</ele><time>2015-04-29T12:41:33.0000000+00:00</time></trkpt><trkpt lat="34.8911948" lon="32.8909211"><ele>1157.6</ele><time>2015-04-29T12:41:35.0000000+00:00</time></trkpt><trkpt lat="34.891244" lon="32.8909339"><ele>1158.2</ele><time>2015-04-29T12:41:36.0000000+00:00</time></trkpt><trkpt lat="34.8912966" lon="32.8909426"><ele>1158.5</ele><time>2015-04-29T12:41:37.0000000+00:00</time></trkpt><trkpt lat="34.8913471" lon="32.8909538"><ele>1159.1</ele><time>2015-04-29T12:41:38.0000000+00:00</time></trkpt><trkpt lat="34.8913962" lon="32.8909629"><ele>1159.4</ele><time>2015-04-29T12:41:39.0000000+00:00</time></trkpt><trkpt lat="34.8914454" lon="32.890967"><ele>1159.6</ele><time>2015-04-29T12:41:40.0000000+00:00</time></trkpt><trkpt lat="34.8915377" lon="32.8909704"><ele>1159.0</ele><time>2015-04-29T12:41:42.0000000+00:00</time></trkpt><trkpt lat="34.8916203" lon="32.8909784"><ele>1159.6</ele><time>2015-04-29T12:41:44.0000000+00:00</time></trkpt><trkpt lat="34.8917062" lon="32.890988"><ele>1159.5</ele><time>2015-04-29T12:41:46.0000000+00:00</time></trkpt><trkpt lat="34.8917519" lon="32.8909919"><ele>1159.6</ele><time>2015-04-29T12:41:47.0000000+00:00</time></trkpt><trkpt lat="34.891802" lon="32.8909998"><ele>1159.7</ele><time>2015-04-29T12:41:48.0000000+00:00</time></trkpt><trkpt lat="34.8918531" lon="32.8910077"><ele>1159.7</ele><time>2015-04-29T12:41:49.0000000+00:00</time></trkpt><trkpt lat="34.891905" lon="32.8910257"><ele>1159.7</ele><time>2015-04-29T12:41:50.0000000+00:00</time></trkpt><trkpt lat="34.8919512" lon="32.8910427"><ele>1159.8</ele><time>2015-04-29T12:41:51.0000000+00:00</time></trkpt><trkpt lat="34.8919998" lon="32.8910769"><ele>1159.8</ele><time>2015-04-29T12:41:52.0000000+00:00</time></trkpt><trkpt lat="34.8920326" lon="32.8911163"><ele>1159.8</ele><time>2015-04-29T12:41:53.0000000+00:00</time></trkpt><trkpt lat="34.892089" lon="32.8911877"><ele>1159.0</ele><time>2015-04-29T12:41:55.0000000+00:00</time></trkpt><trkpt lat="34.8921358" lon="32.8912588"><ele>1158.8</ele><time>2015-04-29T12:41:57.0000000+00:00</time></trkpt><trkpt lat="34.8921898" lon="32.8913265"><ele>1159.3</ele><time>2015-04-29T12:41:59.0000000+00:00</time></trkpt><trkpt lat="34.8922479" lon="32.8913816"><ele>1159.6</ele><time>2015-04-29T12:42:01.0000000+00:00</time></trkpt><trkpt lat="34.8923149" lon="32.8914166"><ele>1159.0</ele><time>2015-04-29T12:42:03.0000000+00:00</time></trkpt><trkpt lat="34.8923932" lon="32.891436"><ele>1158.8</ele><time>2015-04-29T12:42:05.0000000+00:00</time></trkpt><trkpt lat="34.8924672" lon="32.8914533"><ele>1158.3</ele><time>2015-04-29T12:42:07.0000000+00:00</time></trkpt><trkpt lat="34.8925455" lon="32.8914534"><ele>1157.1</ele><time>2015-04-29T12:42:09.0000000+00:00</time></trkpt><trkpt lat="34.8926229" lon="32.891441"><ele>1156.9</ele><time>2015-04-29T12:42:11.0000000+00:00</time></trkpt><trkpt lat="34.8926691" lon="32.8914344"><ele>1156.8</ele><time>2015-04-29T12:42:12.0000000+00:00</time></trkpt><trkpt lat="34.8927153" lon="32.8914143"><ele>1156.8</ele><time>2015-04-29T12:42:13.0000000+00:00</time></trkpt><trkpt lat="34.8927602" lon="32.8914001"><ele>1156.8</ele><time>2015-04-29T12:42:14.0000000+00:00</time></trkpt><trkpt lat="34.892856" lon="32.891401"><ele>1157.3</ele><time>2015-04-29T12:42:16.0000000+00:00</time></trkpt><trkpt lat="34.8929471" lon="32.8914026"><ele>1158.4</ele><time>2015-04-29T12:42:18.0000000+00:00</time></trkpt><trkpt lat="34.8929929" lon="32.8914034"><ele>1159.1</ele><time>2015-04-29T12:42:19.0000000+00:00</time></trkpt><trkpt lat="34.8930405" lon="32.8914037"><ele>1159.4</ele><time>2015-04-29T12:42:20.0000000+00:00</time></trkpt><trkpt lat="34.893086" lon="32.8914047"><ele>1160.1</ele><time>2015-04-29T12:42:21.0000000+00:00</time></trkpt><trkpt lat="34.8931312" lon="32.8913974"><ele>1159.9</ele><time>2015-04-29T12:42:22.0000000+00:00</time></trkpt><trkpt lat="34.8932118" lon="32.891399"><ele>1159.8</ele><time>2015-04-29T12:42:24.0000000+00:00</time></trkpt><trkpt lat="34.8932571" lon="32.8914016"><ele>1159.8</ele><time>2015-04-29T12:42:25.0000000+00:00</time></trkpt><trkpt lat="34.8933409" lon="32.8914077"><ele>1159.8</ele><time>2015-04-29T12:42:27.0000000+00:00</time></trkpt><trkpt lat="34.8934302" lon="32.8914114"><ele>1159.8</ele><time>2015-04-29T12:42:29.0000000+00:00</time></trkpt><trkpt lat="34.8935088" lon="32.8914072"><ele>1160.3</ele><time>2015-04-29T12:42:31.0000000+00:00</time></trkpt><trkpt lat="34.8935952" lon="32.89139"><ele>1159.9</ele><time>2015-04-29T12:42:33.0000000+00:00</time></trkpt><trkpt lat="34.8936754" lon="32.8913694"><ele>1160.0</ele><time>2015-04-29T12:42:35.0000000+00:00</time></trkpt><trkpt lat="34.893757" lon="32.8913566"><ele>1159.8</ele><time>2015-04-29T12:42:37.0000000+00:00</time></trkpt><trkpt lat="34.8938313" lon="32.8913852"><ele>1159.3</ele><time>2015-04-29T12:42:39.0000000+00:00</time></trkpt><trkpt lat="34.8938837" lon="32.8914461"><ele>1158.9</ele><time>2015-04-29T12:42:41.0000000+00:00</time></trkpt><trkpt lat="34.89393" lon="32.8915145"><ele>1158.8</ele><time>2015-04-29T12:42:43.0000000+00:00</time></trkpt><trkpt lat="34.893978" lon="32.891584"><ele>1158.8</ele><time>2015-04-29T12:42:45.0000000+00:00</time></trkpt><trkpt lat="34.8940204" lon="32.8916488"><ele>1158.8</ele><time>2015-04-29T12:42:47.0000000+00:00</time></trkpt><trkpt lat="34.8940497" lon="32.8917133"><ele>1158.8</ele><time>2015-04-29T12:42:49.0000000+00:00</time></trkpt><trkpt lat="34.8940779" lon="32.8917822"><ele>1159.3</ele><time>2015-04-29T12:42:51.0000000+00:00</time></trkpt><trkpt lat="34.8941071" lon="32.8918622"><ele>1158.4</ele><time>2015-04-29T12:42:53.0000000+00:00</time></trkpt><trkpt lat="34.8941331" lon="32.8919604"><ele>1158.2</ele><time>2015-04-29T12:42:55.0000000+00:00</time></trkpt><trkpt lat="34.8941441" lon="32.8920182"><ele>1158.0</ele><time>2015-04-29T12:42:56.0000000+00:00</time></trkpt><trkpt lat="34.8941548" lon="32.8920754"><ele>1157.9</ele><time>2015-04-29T12:42:57.0000000+00:00</time></trkpt><trkpt lat="34.894163" lon="32.8921614"><ele>1157.8</ele><time>2015-04-29T12:42:58.0000000+00:00</time></trkpt><trkpt lat="34.8941797" lon="32.8922209"><ele>1157.8</ele><time>2015-04-29T12:42:59.0000000+00:00</time></trkpt><trkpt lat="34.8941825" lon="32.8922849"><ele>1157.8</ele><time>2015-04-29T12:43:00.0000000+00:00</time></trkpt><trkpt lat="34.8941908" lon="32.8923414"><ele>1158.3</ele><time>2015-04-29T12:43:01.0000000+00:00</time></trkpt><trkpt lat="34.8942067" lon="32.8923977"><ele>1158.0</ele><time>2015-04-29T12:43:02.0000000+00:00</time></trkpt><trkpt lat="34.8942186" lon="32.8925096"><ele>1156.6</ele><time>2015-04-29T12:43:04.0000000+00:00</time></trkpt><trkpt lat="34.894231" lon="32.8925681"><ele>1156.2</ele><time>2015-04-29T12:43:05.0000000+00:00</time></trkpt><trkpt lat="34.8942387" lon="32.8926305"><ele>1155.0</ele><time>2015-04-29T12:43:06.0000000+00:00</time></trkpt><trkpt lat="34.8942436" lon="32.8927449"><ele>1153.6</ele><time>2015-04-29T12:43:08.0000000+00:00</time></trkpt><trkpt lat="34.8942319" lon="32.8928003"><ele>1153.2</ele><time>2015-04-29T12:43:09.0000000+00:00</time></trkpt><trkpt lat="34.8942036" lon="32.8929135"><ele>1152.9</ele><time>2015-04-29T12:43:11.0000000+00:00</time></trkpt><trkpt lat="34.8941865" lon="32.8929713"><ele>1152.3</ele><time>2015-04-29T12:43:12.0000000+00:00</time></trkpt><trkpt lat="34.8941668" lon="32.8930307"><ele>1152.0</ele><time>2015-04-29T12:43:13.0000000+00:00</time></trkpt><trkpt lat="34.8941491" lon="32.8930907"><ele>1151.4</ele><time>2015-04-29T12:43:14.0000000+00:00</time></trkpt><trkpt lat="34.8941121" lon="32.893195"><ele>1150.7</ele><time>2015-04-29T12:43:16.0000000+00:00</time></trkpt><trkpt lat="34.8940493" lon="32.8932766"><ele>1150.7</ele><time>2015-04-29T12:43:18.0000000+00:00</time></trkpt><trkpt lat="34.8940182" lon="32.893318"><ele>1150.3</ele><time>2015-04-29T12:43:19.0000000+00:00</time></trkpt><trkpt lat="34.8939585" lon="32.8933805"><ele>1149.9</ele><time>2015-04-29T12:43:21.0000000+00:00</time></trkpt><trkpt lat="34.8939179" lon="32.8934175"><ele>1149.8</ele><time>2015-04-29T12:43:23.0000000+00:00</time></trkpt><trkpt lat="34.8938869" lon="32.8934602"><ele>1149.0</ele><time>2015-04-29T12:43:25.0000000+00:00</time></trkpt><trkpt lat="34.893836" lon="32.8935108"><ele>1148.8</ele><time>2015-04-29T12:43:27.0000000+00:00</time></trkpt><trkpt lat="34.8937802" lon="32.893562"><ele>1148.8</ele><time>2015-04-29T12:43:29.0000000+00:00</time></trkpt><trkpt lat="34.8937338" lon="32.8936187"><ele>1148.0</ele><time>2015-04-29T12:43:31.0000000+00:00</time></trkpt><trkpt lat="34.8936765" lon="32.893686"><ele>1147.8</ele><time>2015-04-29T12:43:33.0000000+00:00</time></trkpt><trkpt lat="34.893645" lon="32.8937272"><ele>1147.8</ele><time>2015-04-29T12:43:34.0000000+00:00</time></trkpt><trkpt lat="34.8936166" lon="32.89378"><ele>1148.3</ele><time>2015-04-29T12:43:35.0000000+00:00</time></trkpt><trkpt lat="34.893603" lon="32.8938344"><ele>1148.0</ele><time>2015-04-29T12:43:36.0000000+00:00</time></trkpt><trkpt lat="34.8935869" lon="32.8938903"><ele>1147.9</ele><time>2015-04-29T12:43:37.0000000+00:00</time></trkpt><trkpt lat="34.8935853" lon="32.8939573"><ele>1147.8</ele><time>2015-04-29T12:43:38.0000000+00:00</time></trkpt><trkpt lat="34.8935796" lon="32.8940251"><ele>1147.8</ele><time>2015-04-29T12:43:39.0000000+00:00</time></trkpt><trkpt lat="34.8935862" lon="32.8940944"><ele>1148.3</ele><time>2015-04-29T12:43:40.0000000+00:00</time></trkpt><trkpt lat="34.8936082" lon="32.894152"><ele>1148.5</ele><time>2015-04-29T12:43:41.0000000+00:00</time></trkpt><trkpt lat="34.8936402" lon="32.894206"><ele>1148.6</ele><time>2015-04-29T12:43:42.0000000+00:00</time></trkpt><trkpt lat="34.8936787" lon="32.8942505"><ele>1148.7</ele><time>2015-04-29T12:43:43.0000000+00:00</time></trkpt><trkpt lat="34.8937241" lon="32.8942905"><ele>1148.7</ele><time>2015-04-29T12:43:44.0000000+00:00</time></trkpt><trkpt lat="34.8937716" lon="32.8943247"><ele>1148.2</ele><time>2015-04-29T12:43:45.0000000+00:00</time></trkpt><trkpt lat="34.8938309" lon="32.8943411"><ele>1148.0</ele><time>2015-04-29T12:43:46.0000000+00:00</time></trkpt><trkpt lat="34.8938792" lon="32.8943589"><ele>1147.9</ele><time>2015-04-29T12:43:47.0000000+00:00</time></trkpt><trkpt lat="34.8939356" lon="32.8943823"><ele>1148.3</ele><time>2015-04-29T12:43:48.0000000+00:00</time></trkpt><trkpt lat="34.89399" lon="32.8944052"><ele>1148.5</ele><time>2015-04-29T12:43:49.0000000+00:00</time></trkpt><trkpt lat="34.8940454" lon="32.8944259"><ele>1148.7</ele><time>2015-04-29T12:43:50.0000000+00:00</time></trkpt><trkpt lat="34.894093" lon="32.8944376"><ele>1148.7</ele><time>2015-04-29T12:43:51.0000000+00:00</time></trkpt><trkpt lat="34.8941437" lon="32.8944601"><ele>1149.2</ele><time>2015-04-29T12:43:52.0000000+00:00</time></trkpt><trkpt lat="34.8941796" lon="32.8945026"><ele>1149.0</ele><time>2015-04-29T12:43:53.0000000+00:00</time></trkpt><trkpt lat="34.8942128" lon="32.8945458"><ele>1148.9</ele><time>2015-04-29T12:43:54.0000000+00:00</time></trkpt><trkpt lat="34.8942421" lon="32.8945952"><ele>1148.3</ele><time>2015-04-29T12:43:55.0000000+00:00</time></trkpt><trkpt lat="34.8942508" lon="32.8946621"><ele>1148.0</ele><time>2015-04-29T12:43:56.0000000+00:00</time></trkpt><trkpt lat="34.8942431" lon="32.8947333"><ele>1147.9</ele><time>2015-04-29T12:43:57.0000000+00:00</time></trkpt><trkpt lat="34.8942317" lon="32.8947993"><ele>1147.8</ele><time>2015-04-29T12:43:58.0000000+00:00</time></trkpt><trkpt lat="34.8942058" lon="32.894848"><ele>1147.3</ele><time>2015-04-29T12:43:59.0000000+00:00</time></trkpt><trkpt lat="34.8941724" lon="32.8949318"><ele>1146.1</ele><time>2015-04-29T12:44:01.0000000+00:00</time></trkpt><trkpt lat="34.8941452" lon="32.8950321"><ele>1146.6</ele><time>2015-04-29T12:44:03.0000000+00:00</time></trkpt><trkpt lat="34.8941326" lon="32.8950904"><ele>1146.2</ele><time>2015-04-29T12:44:04.0000000+00:00</time></trkpt><trkpt lat="34.894117" lon="32.8951419"><ele>1145.5</ele><time>2015-04-29T12:44:05.0000000+00:00</time></trkpt><trkpt lat="34.8941059" lon="32.8951977"><ele>1144.6</ele><time>2015-04-29T12:44:06.0000000+00:00</time></trkpt><trkpt lat="34.8940973" lon="32.8952518"><ele>1144.2</ele><time>2015-04-29T12:44:07.0000000+00:00</time></trkpt><trkpt lat="34.8940855" lon="32.8953114"><ele>1144.0</ele><time>2015-04-29T12:44:08.0000000+00:00</time></trkpt><trkpt lat="34.8940715" lon="32.8953702"><ele>1143.9</ele><time>2015-04-29T12:44:09.0000000+00:00</time></trkpt><trkpt lat="34.894058" lon="32.8954305"><ele>1143.8</ele><time>2015-04-29T12:44:10.0000000+00:00</time></trkpt><trkpt lat="34.8940508" lon="32.8954875"><ele>1144.3</ele><time>2015-04-29T12:44:11.0000000+00:00</time></trkpt><trkpt lat="34.8940401" lon="32.8955548"><ele>1144.5</ele><time>2015-04-29T12:44:12.0000000+00:00</time></trkpt><trkpt lat="34.8940366" lon="32.8956228"><ele>1145.1</ele><time>2015-04-29T12:44:13.0000000+00:00</time></trkpt><trkpt lat="34.8940265" lon="32.8956875"><ele>1145.0</ele><time>2015-04-29T12:44:14.0000000+00:00</time></trkpt><trkpt lat="34.8940165" lon="32.895752"><ele>1144.9</ele><time>2015-04-29T12:44:15.0000000+00:00</time></trkpt><trkpt lat="34.8939924" lon="32.8958221"><ele>1144.8</ele><time>2015-04-29T12:44:16.0000000+00:00</time></trkpt><trkpt lat="34.8939687" lon="32.8958854"><ele>1144.3</ele><time>2015-04-29T12:44:17.0000000+00:00</time></trkpt><trkpt lat="34.8939306" lon="32.8959442"><ele>1143.5</ele><time>2015-04-29T12:44:18.0000000+00:00</time></trkpt><trkpt lat="34.8938913" lon="32.8960026"><ele>1142.6</ele><time>2015-04-29T12:44:19.0000000+00:00</time></trkpt><trkpt lat="34.8938419" lon="32.8960605"><ele>1142.2</ele><time>2015-04-29T12:44:20.0000000+00:00</time></trkpt><trkpt lat="34.8937952" lon="32.8961177"><ele>1142.0</ele><time>2015-04-29T12:44:21.0000000+00:00</time></trkpt><trkpt lat="34.8937498" lon="32.8961766"><ele>1141.9</ele><time>2015-04-29T12:44:22.0000000+00:00</time></trkpt><trkpt lat="34.8937078" lon="32.8962365"><ele>1141.8</ele><time>2015-04-29T12:44:23.0000000+00:00</time></trkpt><trkpt lat="34.8936722" lon="32.8963001"><ele>1141.8</ele><time>2015-04-29T12:44:24.0000000+00:00</time></trkpt><trkpt lat="34.8936338" lon="32.8963726"><ele>1141.8</ele><time>2015-04-29T12:44:25.0000000+00:00</time></trkpt><trkpt lat="34.8936126" lon="32.8964518"><ele>1141.8</ele><time>2015-04-29T12:44:26.0000000+00:00</time></trkpt><trkpt lat="34.8936001" lon="32.8965231"><ele>1141.8</ele><time>2015-04-29T12:44:27.0000000+00:00</time></trkpt><trkpt lat="34.893583" lon="32.8966093"><ele>1141.8</ele><time>2015-04-29T12:44:28.0000000+00:00</time></trkpt><trkpt lat="34.8935682" lon="32.8966955"><ele>1141.8</ele><time>2015-04-29T12:44:29.0000000+00:00</time></trkpt><trkpt lat="34.8935574" lon="32.8967864"><ele>1141.8</ele><time>2015-04-29T12:44:30.0000000+00:00</time></trkpt><trkpt lat="34.8935434" lon="32.8968694"><ele>1141.3</ele><time>2015-04-29T12:44:31.0000000+00:00</time></trkpt><trkpt lat="34.8935248" lon="32.8969585"><ele>1141.0</ele><time>2015-04-29T12:44:32.0000000+00:00</time></trkpt><trkpt lat="34.8935028" lon="32.8970338"><ele>1140.4</ele><time>2015-04-29T12:44:33.0000000+00:00</time></trkpt><trkpt lat="34.8934617" lon="32.8971026"><ele>1140.1</ele><time>2015-04-29T12:44:34.0000000+00:00</time></trkpt><trkpt lat="34.8934248" lon="32.8971624"><ele>1139.4</ele><time>2015-04-29T12:44:35.0000000+00:00</time></trkpt><trkpt lat="34.8933777" lon="32.8972189"><ele>1138.6</ele><time>2015-04-29T12:44:36.0000000+00:00</time></trkpt><trkpt lat="34.8933182" lon="32.897262"><ele>1137.7</ele><time>2015-04-29T12:44:37.0000000+00:00</time></trkpt><trkpt lat="34.8932625" lon="32.8973048"><ele>1137.2</ele><time>2015-04-29T12:44:38.0000000+00:00</time></trkpt><trkpt lat="34.8932089" lon="32.8973366"><ele>1137.0</ele><time>2015-04-29T12:44:39.0000000+00:00</time></trkpt><trkpt lat="34.893147" lon="32.8973724"><ele>1136.4</ele><time>2015-04-29T12:44:40.0000000+00:00</time></trkpt><trkpt lat="34.893087" lon="32.8974002"><ele>1136.1</ele><time>2015-04-29T12:44:41.0000000+00:00</time></trkpt><trkpt lat="34.893032" lon="32.8974323"><ele>1135.9</ele><time>2015-04-29T12:44:42.0000000+00:00</time></trkpt><trkpt lat="34.8929916" lon="32.8974631"><ele>1135.3</ele><time>2015-04-29T12:44:43.0000000+00:00</time></trkpt><trkpt lat="34.8929509" lon="32.897509"><ele>1135.6</ele><time>2015-04-29T12:44:44.0000000+00:00</time></trkpt><trkpt lat="34.8929241" lon="32.8975617"><ele>1135.2</ele><time>2015-04-29T12:44:45.0000000+00:00</time></trkpt><trkpt lat="34.8929067" lon="32.8976167"><ele>1135.0</ele><time>2015-04-29T12:44:46.0000000+00:00</time></trkpt><trkpt lat="34.8929142" lon="32.8977191"><ele>1135.3</ele><time>2015-04-29T12:44:48.0000000+00:00</time></trkpt><trkpt lat="34.8929724" lon="32.8977888"><ele>1135.7</ele><time>2015-04-29T12:44:50.0000000+00:00</time></trkpt><trkpt lat="34.8930124" lon="32.897817"><ele>1135.7</ele><time>2015-04-29T12:44:51.0000000+00:00</time></trkpt><trkpt lat="34.8930554" lon="32.8978514"><ele>1135.7</ele><time>2015-04-29T12:44:52.0000000+00:00</time></trkpt><trkpt lat="34.8930982" lon="32.8978806"><ele>1135.3</ele><time>2015-04-29T12:44:53.0000000+00:00</time></trkpt><trkpt lat="34.8931447" lon="32.8979206"><ele>1135.5</ele><time>2015-04-29T12:44:54.0000000+00:00</time></trkpt><trkpt lat="34.8931941" lon="32.897957"><ele>1135.1</ele><time>2015-04-29T12:44:55.0000000+00:00</time></trkpt><trkpt lat="34.8932274" lon="32.8980116"><ele>1135.0</ele><time>2015-04-29T12:44:56.0000000+00:00</time></trkpt><trkpt lat="34.8932394" lon="32.8980761"><ele>1134.9</ele><time>2015-04-29T12:44:57.0000000+00:00</time></trkpt><trkpt lat="34.8932496" lon="32.8981411"><ele>1134.8</ele><time>2015-04-29T12:44:58.0000000+00:00</time></trkpt><trkpt lat="34.8932621" lon="32.8982006"><ele>1134.8</ele><time>2015-04-29T12:44:59.0000000+00:00</time></trkpt><trkpt lat="34.893267" lon="32.8982705"><ele>1134.8</ele><time>2015-04-29T12:45:00.0000000+00:00</time></trkpt><trkpt lat="34.8932776" lon="32.898332"><ele>1134.3</ele><time>2015-04-29T12:45:01.0000000+00:00</time></trkpt><trkpt lat="34.8932836" lon="32.8983932"><ele>1134.0</ele><time>2015-04-29T12:45:02.0000000+00:00</time></trkpt><trkpt lat="34.8933029" lon="32.8984445"><ele>1133.9</ele><time>2015-04-29T12:45:03.0000000+00:00</time></trkpt><trkpt lat="34.8933353" lon="32.898501"><ele>1133.8</ele><time>2015-04-29T12:45:04.0000000+00:00</time></trkpt><trkpt lat="34.8933691" lon="32.8985469"><ele>1133.8</ele><time>2015-04-29T12:45:05.0000000+00:00</time></trkpt><trkpt lat="34.8933845" lon="32.8986096"><ele>1133.8</ele><time>2015-04-29T12:45:06.0000000+00:00</time></trkpt><trkpt lat="34.8933997" lon="32.8986631"><ele>1133.3</ele><time>2015-04-29T12:45:07.0000000+00:00</time></trkpt><trkpt lat="34.8934091" lon="32.8987272"><ele>1132.5</ele><time>2015-04-29T12:45:08.0000000+00:00</time></trkpt><trkpt lat="34.8934065" lon="32.898786"><ele>1132.1</ele><time>2015-04-29T12:45:09.0000000+00:00</time></trkpt><trkpt lat="34.8933586" lon="32.8988753"><ele>1131.6</ele><time>2015-04-29T12:45:11.0000000+00:00</time></trkpt><trkpt lat="34.8933377" lon="32.898924"><ele>1131.7</ele><time>2015-04-29T12:45:12.0000000+00:00</time></trkpt><trkpt lat="34.8932734" lon="32.8990032"><ele>1131.0</ele><time>2015-04-29T12:45:14.0000000+00:00</time></trkpt><trkpt lat="34.8932166" lon="32.899078"><ele>1130.3</ele><time>2015-04-29T12:45:16.0000000+00:00</time></trkpt><trkpt lat="34.8931836" lon="32.8991163"><ele>1130.5</ele><time>2015-04-29T12:45:17.0000000+00:00</time></trkpt><trkpt lat="34.8931266" lon="32.8991837"><ele>1130.0</ele><time>2015-04-29T12:45:19.0000000+00:00</time></trkpt><trkpt lat="34.8930843" lon="32.8992152"><ele>1129.9</ele><time>2015-04-29T12:45:20.0000000+00:00</time></trkpt><trkpt lat="34.8930133" lon="32.8992721"><ele>1128.5</ele><time>2015-04-29T12:45:22.0000000+00:00</time></trkpt><trkpt lat="34.892964" lon="32.8993615"><ele>1128.0</ele><time>2015-04-29T12:45:24.0000000+00:00</time></trkpt><trkpt lat="34.8929406" lon="32.8994692"><ele>1127.8</ele><time>2015-04-29T12:45:26.0000000+00:00</time></trkpt><trkpt lat="34.8929373" lon="32.899524"><ele>1128.3</ele><time>2015-04-29T12:45:27.0000000+00:00</time></trkpt><trkpt lat="34.8929277" lon="32.8995815"><ele>1128.5</ele><time>2015-04-29T12:45:28.0000000+00:00</time></trkpt><trkpt lat="34.8929254" lon="32.8996371"><ele>1128.6</ele><time>2015-04-29T12:45:29.0000000+00:00</time></trkpt><trkpt lat="34.8929392" lon="32.8996907"><ele>1128.7</ele><time>2015-04-29T12:45:30.0000000+00:00</time></trkpt><trkpt lat="34.8930027" lon="32.899785"><ele>1128.3</ele><time>2015-04-29T12:45:32.0000000+00:00</time></trkpt><trkpt lat="34.8930329" lon="32.8998394"><ele>1128.0</ele><time>2015-04-29T12:45:33.0000000+00:00</time></trkpt><trkpt lat="34.8930684" lon="32.8998781"><ele>1127.9</ele><time>2015-04-29T12:45:34.0000000+00:00</time></trkpt><trkpt lat="34.8931077" lon="32.8999158"><ele>1127.8</ele><time>2015-04-29T12:45:35.0000000+00:00</time></trkpt><trkpt lat="34.8931374" lon="32.8999588"><ele>1127.3</ele><time>2015-04-29T12:45:36.0000000+00:00</time></trkpt><trkpt lat="34.8931598" lon="32.9000202"><ele>1126.5</ele><time>2015-04-29T12:45:37.0000000+00:00</time></trkpt><trkpt lat="34.8931765" lon="32.9000722"><ele>1125.6</ele><time>2015-04-29T12:45:38.0000000+00:00</time></trkpt><trkpt lat="34.8931823" lon="32.9001333"><ele>1125.2</ele><time>2015-04-29T12:45:39.0000000+00:00</time></trkpt><trkpt lat="34.8931722" lon="32.9001954"><ele>1124.5</ele><time>2015-04-29T12:45:40.0000000+00:00</time></trkpt><trkpt lat="34.89316" lon="32.9002524"><ele>1123.6</ele><time>2015-04-29T12:45:41.0000000+00:00</time></trkpt><trkpt lat="34.8931254" lon="32.9003056"><ele>1123.7</ele><time>2015-04-29T12:45:42.0000000+00:00</time></trkpt><trkpt lat="34.8930944" lon="32.9003563"><ele>1123.7</ele><time>2015-04-29T12:45:43.0000000+00:00</time></trkpt><trkpt lat="34.8930755" lon="32.9004078"><ele>1122.7</ele><time>2015-04-29T12:45:44.0000000+00:00</time></trkpt><trkpt lat="34.893048" lon="32.9004569"><ele>1121.8</ele><time>2015-04-29T12:45:45.0000000+00:00</time></trkpt><trkpt lat="34.8930156" lon="32.9005072"><ele>1121.3</ele><time>2015-04-29T12:45:46.0000000+00:00</time></trkpt><trkpt lat="34.8929831" lon="32.9005545"><ele>1121.0</ele><time>2015-04-29T12:45:47.0000000+00:00</time></trkpt><trkpt lat="34.8929431" lon="32.9005969"><ele>1121.4</ele><time>2015-04-29T12:45:48.0000000+00:00</time></trkpt><trkpt lat="34.8928957" lon="32.900639"><ele>1122.1</ele><time>2015-04-29T12:45:49.0000000+00:00</time></trkpt><trkpt lat="34.8928415" lon="32.9006686"><ele>1122.4</ele><time>2015-04-29T12:45:50.0000000+00:00</time></trkpt><trkpt lat="34.8927891" lon="32.9006906"><ele>1122.6</ele><time>2015-04-29T12:45:51.0000000+00:00</time></trkpt><trkpt lat="34.8927328" lon="32.9007192"><ele>1122.7</ele><time>2015-04-29T12:45:52.0000000+00:00</time></trkpt><trkpt lat="34.8926818" lon="32.9007407"><ele>1123.2</ele><time>2015-04-29T12:45:53.0000000+00:00</time></trkpt><trkpt lat="34.8926287" lon="32.9007641"><ele>1123.0</ele><time>2015-04-29T12:45:54.0000000+00:00</time></trkpt><trkpt lat="34.8925848" lon="32.900781"><ele>1121.9</ele><time>2015-04-29T12:45:55.0000000+00:00</time></trkpt><trkpt lat="34.8925387" lon="32.9008126"><ele>1121.3</ele><time>2015-04-29T12:45:56.0000000+00:00</time></trkpt><trkpt lat="34.8924947" lon="32.9008348"><ele>1121.0</ele><time>2015-04-29T12:45:57.0000000+00:00</time></trkpt><trkpt lat="34.8924205" lon="32.9008975"><ele>1120.1</ele><time>2015-04-29T12:45:59.0000000+00:00</time></trkpt><trkpt lat="34.8923811" lon="32.9009315"><ele>1119.4</ele><time>2015-04-29T12:46:00.0000000+00:00</time></trkpt><trkpt lat="34.892337" lon="32.9009668"><ele>1118.6</ele><time>2015-04-29T12:46:01.0000000+00:00</time></trkpt><trkpt lat="34.8922929" lon="32.9009975"><ele>1118.2</ele><time>2015-04-29T12:46:02.0000000+00:00</time></trkpt><trkpt lat="34.8922502" lon="32.9010242"><ele>1118.0</ele><time>2015-04-29T12:46:03.0000000+00:00</time></trkpt><trkpt lat="34.8921853" lon="32.9010924"><ele>1117.1</ele><time>2015-04-29T12:46:05.0000000+00:00</time></trkpt><trkpt lat="34.8921239" lon="32.9011587"><ele>1117.6</ele><time>2015-04-29T12:46:07.0000000+00:00</time></trkpt><trkpt lat="34.8920872" lon="32.9011924"><ele>1117.2</ele><time>2015-04-29T12:46:08.0000000+00:00</time></trkpt><trkpt lat="34.8920226" lon="32.9012515"><ele>1116.4</ele><time>2015-04-29T12:46:10.0000000+00:00</time></trkpt><trkpt lat="34.8919439" lon="32.9012845"><ele>1115.4</ele><time>2015-04-29T12:46:12.0000000+00:00</time></trkpt><trkpt lat="34.891867" lon="32.90131"><ele>1115.2</ele><time>2015-04-29T12:46:14.0000000+00:00</time></trkpt><trkpt lat="34.8917916" lon="32.9013279"><ele>1114.1</ele><time>2015-04-29T12:46:16.0000000+00:00</time></trkpt><trkpt lat="34.8917182" lon="32.9013587"><ele>1113.6</ele><time>2015-04-29T12:46:18.0000000+00:00</time></trkpt><trkpt lat="34.891654" lon="32.9014106"><ele>1113.0</ele><time>2015-04-29T12:46:20.0000000+00:00</time></trkpt><trkpt lat="34.8916078" lon="32.90147"><ele>1112.1</ele><time>2015-04-29T12:46:22.0000000+00:00</time></trkpt><trkpt lat="34.8915811" lon="32.9015192"><ele>1111.8</ele><time>2015-04-29T12:46:24.0000000+00:00</time></trkpt><trkpt lat="34.8915684" lon="32.9015802"><ele>1111.8</ele><time>2015-04-29T12:46:26.0000000+00:00</time></trkpt><trkpt lat="34.8915606" lon="32.9016399"><ele>1111.3</ele><time>2015-04-29T12:46:28.0000000+00:00</time></trkpt><trkpt lat="34.8915677" lon="32.9016989"><ele>1110.1</ele><time>2015-04-29T12:46:30.0000000+00:00</time></trkpt><trkpt lat="34.8915725" lon="32.9017603"><ele>1109.6</ele><time>2015-04-29T12:46:32.0000000+00:00</time></trkpt><trkpt lat="34.8915775" lon="32.9018201"><ele>1109.0</ele><time>2015-04-29T12:46:34.0000000+00:00</time></trkpt><trkpt lat="34.8915806" lon="32.9018795"><ele>1110.1</ele><time>2015-04-29T12:46:36.0000000+00:00</time></trkpt><trkpt lat="34.8915612" lon="32.9019488"><ele>1109.3</ele><time>2015-04-29T12:46:38.0000000+00:00</time></trkpt><trkpt lat="34.8915371" lon="32.902025"><ele>1108.9</ele><time>2015-04-29T12:46:40.0000000+00:00</time></trkpt><trkpt lat="34.8915053" lon="32.9020859"><ele>1108.1</ele><time>2015-04-29T12:46:42.0000000+00:00</time></trkpt><trkpt lat="34.8914745" lon="32.9021326"><ele>1107.1</ele><time>2015-04-29T12:46:44.0000000+00:00</time></trkpt><trkpt lat="34.8914408" lon="32.9021852"><ele>1106.8</ele><time>2015-04-29T12:46:46.0000000+00:00</time></trkpt><trkpt lat="34.8914022" lon="32.902257"><ele>1106.8</ele><time>2015-04-29T12:46:48.0000000+00:00</time></trkpt><trkpt lat="34.8913643" lon="32.902358"><ele>1106.0</ele><time>2015-04-29T12:46:50.0000000+00:00</time></trkpt><trkpt lat="34.8913435" lon="32.9024263"><ele>1105.9</ele><time>2015-04-29T12:46:51.0000000+00:00</time></trkpt><trkpt lat="34.8913254" lon="32.9024977"><ele>1105.8</ele><time>2015-04-29T12:46:52.0000000+00:00</time></trkpt><trkpt lat="34.891306" lon="32.9025695"><ele>1105.8</ele><time>2015-04-29T12:46:53.0000000+00:00</time></trkpt><trkpt lat="34.8912837" lon="32.9026346"><ele>1105.3</ele><time>2015-04-29T12:46:54.0000000+00:00</time></trkpt><trkpt lat="34.8912577" lon="32.9026957"><ele>1105.0</ele><time>2015-04-29T12:46:55.0000000+00:00</time></trkpt><trkpt lat="34.891236" lon="32.9027561"><ele>1104.9</ele><time>2015-04-29T12:46:56.0000000+00:00</time></trkpt><trkpt lat="34.8912075" lon="32.9028088"><ele>1105.3</ele><time>2015-04-29T12:46:57.0000000+00:00</time></trkpt><trkpt lat="34.8911724" lon="32.9028713"><ele>1105.0</ele><time>2015-04-29T12:46:58.0000000+00:00</time></trkpt><trkpt lat="34.8911309" lon="32.9029276"><ele>1104.4</ele><time>2015-04-29T12:46:59.0000000+00:00</time></trkpt><trkpt lat="34.8910757" lon="32.902978"><ele>1103.6</ele><time>2015-04-29T12:47:00.0000000+00:00</time></trkpt><trkpt lat="34.8910161" lon="32.9030103"><ele>1102.7</ele><time>2015-04-29T12:47:01.0000000+00:00</time></trkpt><trkpt lat="34.890952" lon="32.9030435"><ele>1101.7</ele><time>2015-04-29T12:47:02.0000000+00:00</time></trkpt><trkpt lat="34.8908931" lon="32.9030656"><ele>1100.7</ele><time>2015-04-29T12:47:03.0000000+00:00</time></trkpt><trkpt lat="34.8908224" lon="32.9030846"><ele>1099.8</ele><time>2015-04-29T12:47:04.0000000+00:00</time></trkpt><trkpt lat="34.8907574" lon="32.9031114"><ele>1098.8</ele><time>2015-04-29T12:47:05.0000000+00:00</time></trkpt><trkpt lat="34.8906916" lon="32.9031441"><ele>1097.8</ele><time>2015-04-29T12:47:06.0000000+00:00</time></trkpt><trkpt lat="34.890627" lon="32.9031805"><ele>1096.8</ele><time>2015-04-29T12:47:07.0000000+00:00</time></trkpt><trkpt lat="34.8905548" lon="32.903225"><ele>1095.8</ele><time>2015-04-29T12:47:08.0000000+00:00</time></trkpt><trkpt lat="34.8904847" lon="32.903259"><ele>1095.3</ele><time>2015-04-29T12:47:09.0000000+00:00</time></trkpt><trkpt lat="34.8904064" lon="32.9032939"><ele>1095.0</ele><time>2015-04-29T12:47:10.0000000+00:00</time></trkpt><trkpt lat="34.890335" lon="32.9033223"><ele>1094.9</ele><time>2015-04-29T12:47:11.0000000+00:00</time></trkpt><trkpt lat="34.8902571" lon="32.9033576"><ele>1094.8</ele><time>2015-04-29T12:47:12.0000000+00:00</time></trkpt><trkpt lat="34.8901862" lon="32.9034066"><ele>1094.8</ele><time>2015-04-29T12:47:13.0000000+00:00</time></trkpt><trkpt lat="34.8901115" lon="32.9034479"><ele>1094.3</ele><time>2015-04-29T12:47:14.0000000+00:00</time></trkpt><trkpt lat="34.8900368" lon="32.9034711"><ele>1093.5</ele><time>2015-04-29T12:47:15.0000000+00:00</time></trkpt><trkpt lat="34.889957" lon="32.9034913"><ele>1093.1</ele><time>2015-04-29T12:47:16.0000000+00:00</time></trkpt><trkpt lat="34.8898796" lon="32.9034978"><ele>1093.0</ele><time>2015-04-29T12:47:17.0000000+00:00</time></trkpt><trkpt lat="34.8898032" lon="32.9035066"><ele>1092.4</ele><time>2015-04-29T12:47:18.0000000+00:00</time></trkpt><trkpt lat="34.8897295" lon="32.9035167"><ele>1091.6</ele><time>2015-04-29T12:47:19.0000000+00:00</time></trkpt><trkpt lat="34.8896511" lon="32.9035031"><ele>1090.7</ele><time>2015-04-29T12:47:20.0000000+00:00</time></trkpt><trkpt lat="34.889566" lon="32.9035014"><ele>1090.2</ele><time>2015-04-29T12:47:21.0000000+00:00</time></trkpt><trkpt lat="34.8894916" lon="32.9035111"><ele>1089.5</ele><time>2015-04-29T12:47:22.0000000+00:00</time></trkpt><trkpt lat="34.8894257" lon="32.9035168"><ele>1088.6</ele><time>2015-04-29T12:47:23.0000000+00:00</time></trkpt><trkpt lat="34.8893535" lon="32.9035242"><ele>1088.2</ele><time>2015-04-29T12:47:24.0000000+00:00</time></trkpt><trkpt lat="34.8892983" lon="32.9035659"><ele>1087.0</ele><time>2015-04-29T12:47:25.0000000+00:00</time></trkpt><trkpt lat="34.8892388" lon="32.9036084"><ele>1086.4</ele><time>2015-04-29T12:47:26.0000000+00:00</time></trkpt><trkpt lat="34.8891778" lon="32.9036581"><ele>1085.1</ele><time>2015-04-29T12:47:27.0000000+00:00</time></trkpt><trkpt lat="34.8891205" lon="32.9037288"><ele>1084.9</ele><time>2015-04-29T12:47:28.0000000+00:00</time></trkpt><trkpt lat="34.8890638" lon="32.9038046"><ele>1084.8</ele><time>2015-04-29T12:47:29.0000000+00:00</time></trkpt><trkpt lat="34.8890041" lon="32.9038709"><ele>1084.3</ele><time>2015-04-29T12:47:30.0000000+00:00</time></trkpt><trkpt lat="34.8889347" lon="32.9039293"><ele>1083.5</ele><time>2015-04-29T12:47:31.0000000+00:00</time></trkpt><trkpt lat="34.8888687" lon="32.9039962"><ele>1083.1</ele><time>2015-04-29T12:47:32.0000000+00:00</time></trkpt><trkpt lat="34.888798" lon="32.9040501"><ele>1082.5</ele><time>2015-04-29T12:47:33.0000000+00:00</time></trkpt><trkpt lat="34.888757" lon="32.9041029"><ele>1082.6</ele><time>2015-04-29T12:47:34.0000000+00:00</time></trkpt><trkpt lat="34.8886947" lon="32.9041822"><ele>1082.7</ele><time>2015-04-29T12:47:36.0000000+00:00</time></trkpt><trkpt lat="34.8886748" lon="32.904132"><ele>1091.2</ele><time>2015-04-29T12:49:37.0000000+00:00</time></trkpt><trkpt lat="34.888714" lon="32.9042006"><ele>1096.4</ele><time>2015-04-29T12:50:18.0000000+00:00</time></trkpt><trkpt lat="34.888759" lon="32.9042763"><ele>1095.4</ele><time>2015-04-29T12:50:20.0000000+00:00</time></trkpt><trkpt lat="34.8887909" lon="32.9043254"><ele>1096.1</ele><time>2015-04-29T12:50:21.0000000+00:00</time></trkpt><trkpt lat="34.8888556" lon="32.9044105"><ele>1095.9</ele><time>2015-04-29T12:50:22.0000000+00:00</time></trkpt><trkpt lat="34.8888885" lon="32.9044633"><ele>1095.3</ele><time>2015-04-29T12:50:23.0000000+00:00</time></trkpt><trkpt lat="34.8889284" lon="32.9045204"><ele>1094.6</ele><time>2015-04-29T12:50:24.0000000+00:00</time></trkpt><trkpt lat="34.888958" lon="32.904588"><ele>1094.2</ele><time>2015-04-29T12:50:25.0000000+00:00</time></trkpt><trkpt lat="34.8889831" lon="32.9046502"><ele>1093.0</ele><time>2015-04-29T12:50:26.0000000+00:00</time></trkpt><trkpt lat="34.889009" lon="32.9047144"><ele>1092.4</ele><time>2015-04-29T12:50:27.0000000+00:00</time></trkpt><trkpt lat="34.8890352" lon="32.9047724"><ele>1091.6</ele><time>2015-04-29T12:50:28.0000000+00:00</time></trkpt><trkpt lat="34.8890622" lon="32.9048506"><ele>1091.7</ele><time>2015-04-29T12:50:29.0000000+00:00</time></trkpt><trkpt lat="34.8891056" lon="32.904951"><ele>1091.0</ele><time>2015-04-29T12:50:31.0000000+00:00</time></trkpt><trkpt lat="34.8891393" lon="32.9050044"><ele>1090.9</ele><time>2015-04-29T12:50:32.0000000+00:00</time></trkpt><trkpt lat="34.8891888" lon="32.9050478"><ele>1090.3</ele><time>2015-04-29T12:50:33.0000000+00:00</time></trkpt><trkpt lat="34.889239" lon="32.9050717"><ele>1090.0</ele><time>2015-04-29T12:50:34.0000000+00:00</time></trkpt><trkpt lat="34.8892954" lon="32.9050779"><ele>1089.4</ele><time>2015-04-29T12:50:35.0000000+00:00</time></trkpt><trkpt lat="34.8893469" lon="32.9050479"><ele>1088.6</ele><time>2015-04-29T12:50:36.0000000+00:00</time></trkpt><trkpt lat="34.889393" lon="32.9050109"><ele>1088.2</ele><time>2015-04-29T12:50:37.0000000+00:00</time></trkpt><trkpt lat="34.8894426" lon="32.9049294"><ele>1087.5</ele><time>2015-04-29T12:50:38.0000000+00:00</time></trkpt><trkpt lat="34.8895002" lon="32.9048547"><ele>1087.1</ele><time>2015-04-29T12:50:39.0000000+00:00</time></trkpt><trkpt lat="34.8895572" lon="32.9047738"><ele>1086.4</ele><time>2015-04-29T12:50:40.0000000+00:00</time></trkpt><trkpt lat="34.8896145" lon="32.90472"><ele>1086.1</ele><time>2015-04-29T12:50:41.0000000+00:00</time></trkpt><trkpt lat="34.8896771" lon="32.9046747"><ele>1085.9</ele><time>2015-04-29T12:50:42.0000000+00:00</time></trkpt><trkpt lat="34.889749" lon="32.9047181"><ele>1085.3</ele><time>2015-04-29T12:50:43.0000000+00:00</time></trkpt><trkpt lat="34.8898186" lon="32.9047274"><ele>1085.1</ele><time>2015-04-29T12:50:44.0000000+00:00</time></trkpt><trkpt lat="34.8898973" lon="32.9047694"><ele>1085.9</ele><time>2015-04-29T12:50:45.0000000+00:00</time></trkpt><trkpt lat="34.8899723" lon="32.9047911"><ele>1085.8</ele><time>2015-04-29T12:50:46.0000000+00:00</time></trkpt><trkpt lat="34.8900454" lon="32.9048131"><ele>1085.3</ele><time>2015-04-29T12:50:47.0000000+00:00</time></trkpt><trkpt lat="34.8901472" lon="32.9048244"><ele>1084.5</ele><time>2015-04-29T12:50:48.0000000+00:00</time></trkpt><trkpt lat="34.8902413" lon="32.9048241"><ele>1084.1</ele><time>2015-04-29T12:50:49.0000000+00:00</time></trkpt><trkpt lat="34.8903372" lon="32.9048208"><ele>1084.0</ele><time>2015-04-29T12:50:50.0000000+00:00</time></trkpt><trkpt lat="34.890428" lon="32.9048409"><ele>1083.9</ele><time>2015-04-29T12:50:51.0000000+00:00</time></trkpt><trkpt lat="34.8904998" lon="32.9048816"><ele>1082.8</ele><time>2015-04-29T12:50:52.0000000+00:00</time></trkpt><trkpt lat="34.8905532" lon="32.904927"><ele>1082.3</ele><time>2015-04-29T12:50:53.0000000+00:00</time></trkpt><trkpt lat="34.8905814" lon="32.9049877"><ele>1081.5</ele><time>2015-04-29T12:50:54.0000000+00:00</time></trkpt><trkpt lat="34.8906122" lon="32.9050433"><ele>1080.6</ele><time>2015-04-29T12:50:55.0000000+00:00</time></trkpt><trkpt lat="34.8906475" lon="32.9051178"><ele>1080.7</ele><time>2015-04-29T12:50:56.0000000+00:00</time></trkpt><trkpt lat="34.8906824" lon="32.9051912"><ele>1080.7</ele><time>2015-04-29T12:50:57.0000000+00:00</time></trkpt><trkpt lat="34.8907098" lon="32.9052755"><ele>1081.8</ele><time>2015-04-29T12:50:58.0000000+00:00</time></trkpt><trkpt lat="34.8907381" lon="32.9053584"><ele>1081.8</ele><time>2015-04-29T12:50:59.0000000+00:00</time></trkpt><trkpt lat="34.8907484" lon="32.9054572"><ele>1080.3</ele><time>2015-04-29T12:51:00.0000000+00:00</time></trkpt><trkpt lat="34.8907572" lon="32.9055665"><ele>1080.0</ele><time>2015-04-29T12:51:01.0000000+00:00</time></trkpt><trkpt lat="34.8907494" lon="32.9056725"><ele>1079.4</ele><time>2015-04-29T12:51:02.0000000+00:00</time></trkpt><trkpt lat="34.8907528" lon="32.9057725"><ele>1078.6</ele><time>2015-04-29T12:51:03.0000000+00:00</time></trkpt><trkpt lat="34.8907706" lon="32.9058839"><ele>1077.7</ele><time>2015-04-29T12:51:04.0000000+00:00</time></trkpt><trkpt lat="34.8908029" lon="32.9059826"><ele>1076.7</ele><time>2015-04-29T12:51:05.0000000+00:00</time></trkpt><trkpt lat="34.890863" lon="32.906077"><ele>1076.2</ele><time>2015-04-29T12:51:06.0000000+00:00</time></trkpt><trkpt lat="34.8909182" lon="32.9061544"><ele>1076.0</ele><time>2015-04-29T12:51:07.0000000+00:00</time></trkpt><trkpt lat="34.89099" lon="32.9062241"><ele>1075.4</ele><time>2015-04-29T12:51:08.0000000+00:00</time></trkpt><trkpt lat="34.8910823" lon="32.9062384"><ele>1075.1</ele><time>2015-04-29T12:51:09.0000000+00:00</time></trkpt><trkpt lat="34.8911704" lon="32.9062283"><ele>1074.4</ele><time>2015-04-29T12:51:10.0000000+00:00</time></trkpt><trkpt lat="34.8912716" lon="32.9062079"><ele>1073.6</ele><time>2015-04-29T12:51:11.0000000+00:00</time></trkpt><trkpt lat="34.891369" lon="32.9061412"><ele>1073.2</ele><time>2015-04-29T12:51:12.0000000+00:00</time></trkpt><trkpt lat="34.8914643" lon="32.9060694"><ele>1072.5</ele><time>2015-04-29T12:51:13.0000000+00:00</time></trkpt><trkpt lat="34.8915635" lon="32.9060052"><ele>1070.6</ele><time>2015-04-29T12:51:14.0000000+00:00</time></trkpt><trkpt lat="34.8916567" lon="32.9059412"><ele>1069.7</ele><time>2015-04-29T12:51:15.0000000+00:00</time></trkpt><trkpt lat="34.8917473" lon="32.9058761"><ele>1068.7</ele><time>2015-04-29T12:51:16.0000000+00:00</time></trkpt><trkpt lat="34.8918294" lon="32.9058068"><ele>1067.7</ele><time>2015-04-29T12:51:17.0000000+00:00</time></trkpt><trkpt lat="34.8918961" lon="32.905722"><ele>1066.3</ele><time>2015-04-29T12:51:18.0000000+00:00</time></trkpt><trkpt lat="34.8919394" lon="32.9056304"><ele>1064.5</ele><time>2015-04-29T12:51:19.0000000+00:00</time></trkpt><trkpt lat="34.8919675" lon="32.9055216"><ele>1063.6</ele><time>2015-04-29T12:51:20.0000000+00:00</time></trkpt><trkpt lat="34.8919851" lon="32.9054056"><ele>1063.7</ele><time>2015-04-29T12:51:21.0000000+00:00</time></trkpt><trkpt lat="34.8919831" lon="32.9052929"><ele>1062.7</ele><time>2015-04-29T12:51:22.0000000+00:00</time></trkpt><trkpt lat="34.8919816" lon="32.9051746"><ele>1061.7</ele><time>2015-04-29T12:51:23.0000000+00:00</time></trkpt><trkpt lat="34.8919875" lon="32.9050657"><ele>1060.3</ele><time>2015-04-29T12:51:24.0000000+00:00</time></trkpt><trkpt lat="34.892011" lon="32.904974"><ele>1059.0</ele><time>2015-04-29T12:51:25.0000000+00:00</time></trkpt><trkpt lat="34.8920486" lon="32.9048834"><ele>1058.4</ele><time>2015-04-29T12:51:26.0000000+00:00</time></trkpt><trkpt lat="34.8921062" lon="32.904836"><ele>1057.6</ele><time>2015-04-29T12:51:27.0000000+00:00</time></trkpt><trkpt lat="34.892171" lon="32.9047988"><ele>1057.2</ele><time>2015-04-29T12:51:28.0000000+00:00</time></trkpt><trkpt lat="34.8922398" lon="32.9047706"><ele>1056.5</ele><time>2015-04-29T12:51:29.0000000+00:00</time></trkpt><trkpt lat="34.89232" lon="32.9047862"><ele>1055.6</ele><time>2015-04-29T12:51:30.0000000+00:00</time></trkpt><trkpt lat="34.8923904" lon="32.9047906"><ele>1054.2</ele><time>2015-04-29T12:51:31.0000000+00:00</time></trkpt><trkpt lat="34.8924725" lon="32.9048054"><ele>1053.5</ele><time>2015-04-29T12:51:32.0000000+00:00</time></trkpt><trkpt lat="34.8925538" lon="32.9048134"><ele>1052.6</ele><time>2015-04-29T12:51:33.0000000+00:00</time></trkpt><trkpt lat="34.8926615" lon="32.9048262"><ele>1051.2</ele><time>2015-04-29T12:51:34.0000000+00:00</time></trkpt><trkpt lat="34.8927501" lon="32.9048404"><ele>1050.0</ele><time>2015-04-29T12:51:35.0000000+00:00</time></trkpt><trkpt lat="34.8928527" lon="32.9048518"><ele>1048.9</ele><time>2015-04-29T12:51:36.0000000+00:00</time></trkpt><trkpt lat="34.8929651" lon="32.9048591"><ele>1048.8</ele><time>2015-04-29T12:51:37.0000000+00:00</time></trkpt><trkpt lat="34.8930789" lon="32.9048856"><ele>1047.3</ele><time>2015-04-29T12:51:38.0000000+00:00</time></trkpt><trkpt lat="34.893176" lon="32.9049033"><ele>1046.5</ele><time>2015-04-29T12:51:39.0000000+00:00</time></trkpt><trkpt lat="34.8932689" lon="32.9049222"><ele>1046.6</ele><time>2015-04-29T12:51:40.0000000+00:00</time></trkpt><trkpt lat="34.8933687" lon="32.9049235"><ele>1045.7</ele><time>2015-04-29T12:51:41.0000000+00:00</time></trkpt><trkpt lat="34.893469" lon="32.9049353"><ele>1044.7</ele><time>2015-04-29T12:51:42.0000000+00:00</time></trkpt><trkpt lat="34.8935775" lon="32.9049348"><ele>1044.8</ele><time>2015-04-29T12:51:43.0000000+00:00</time></trkpt><trkpt lat="34.8936854" lon="32.9049376"><ele>1044.3</ele><time>2015-04-29T12:51:44.0000000+00:00</time></trkpt><trkpt lat="34.8938036" lon="32.9049417"><ele>1042.5</ele><time>2015-04-29T12:51:45.0000000+00:00</time></trkpt><trkpt lat="34.8939064" lon="32.904941"><ele>1042.1</ele><time>2015-04-29T12:51:46.0000000+00:00</time></trkpt><trkpt lat="34.8940095" lon="32.9049433"><ele>1042.0</ele><time>2015-04-29T12:51:47.0000000+00:00</time></trkpt><trkpt lat="34.8941173" lon="32.9049524"><ele>1042.4</ele><time>2015-04-29T12:51:48.0000000+00:00</time></trkpt><trkpt lat="34.8942401" lon="32.9050047"><ele>1043.6</ele><time>2015-04-29T12:51:49.0000000+00:00</time></trkpt><trkpt lat="34.894345" lon="32.9050496"><ele>1043.2</ele><time>2015-04-29T12:51:50.0000000+00:00</time></trkpt><trkpt lat="34.8944415" lon="32.9050951"><ele>1043.0</ele><time>2015-04-29T12:51:51.0000000+00:00</time></trkpt><trkpt lat="34.8945358" lon="32.9051429"><ele>1041.9</ele><time>2015-04-29T12:51:52.0000000+00:00</time></trkpt><trkpt lat="34.8946212" lon="32.9051909"><ele>1041.3</ele><time>2015-04-29T12:51:53.0000000+00:00</time></trkpt><trkpt lat="34.8947043" lon="32.9052093"><ele>1041.0</ele><time>2015-04-29T12:51:54.0000000+00:00</time></trkpt><trkpt lat="34.8947722" lon="32.9052385"><ele>1039.9</ele><time>2015-04-29T12:51:55.0000000+00:00</time></trkpt><trkpt lat="34.8948364" lon="32.9052629"><ele>1038.8</ele><time>2015-04-29T12:51:56.0000000+00:00</time></trkpt><trkpt lat="34.8948815" lon="32.9052845"><ele>1037.8</ele><time>2015-04-29T12:51:57.0000000+00:00</time></trkpt><trkpt lat="34.8949355" lon="32.9052972"><ele>1035.8</ele><time>2015-04-29T12:51:59.0000000+00:00</time></trkpt><trkpt lat="34.8949808" lon="32.9053322"><ele>1025.2</ele><time>2015-04-29T12:52:15.0000000+00:00</time></trkpt><trkpt lat="34.8950012" lon="32.905383"><ele>1019.1</ele><time>2015-04-29T12:52:25.0000000+00:00</time></trkpt><trkpt lat="34.8949498" lon="32.9053577"><ele>1021.7</ele><time>2015-04-29T12:53:00.0000000+00:00</time></trkpt><trkpt lat="34.8949591" lon="32.9053036"><ele>1022.7</ele><time>2015-04-29T12:53:04.0000000+00:00</time></trkpt><trkpt lat="34.8950061" lon="32.9052934"><ele>1022.3</ele><time>2015-04-29T12:53:07.0000000+00:00</time></trkpt><trkpt lat="34.8950498" lon="32.9053455"><ele>1023.2</ele><time>2015-04-29T12:53:10.0000000+00:00</time></trkpt><trkpt lat="34.8950552" lon="32.9054101"><ele>1022.1</ele><time>2015-04-29T12:53:14.0000000+00:00</time></trkpt><trkpt lat="34.8950372" lon="32.9054988"><ele>1023.9</ele><time>2015-04-29T12:53:17.0000000+00:00</time></trkpt><trkpt lat="34.8950175" lon="32.9055737"><ele>1025.6</ele><time>2015-04-29T12:53:19.0000000+00:00</time></trkpt><trkpt lat="34.8949917" lon="32.9056514"><ele>1025.2</ele><time>2015-04-29T12:53:21.0000000+00:00</time></trkpt><trkpt lat="34.8949651" lon="32.9057161"><ele>1025.4</ele><time>2015-04-29T12:53:23.0000000+00:00</time></trkpt><trkpt lat="34.8949337" lon="32.9057578"><ele>1024.2</ele><time>2015-04-29T12:53:25.0000000+00:00</time></trkpt><trkpt lat="34.8948696" lon="32.9057863"><ele>1023.4</ele><time>2015-04-29T12:53:28.0000000+00:00</time></trkpt><trkpt lat="34.8948168" lon="32.9058123"><ele>1025.2</ele><time>2015-04-29T12:53:30.0000000+00:00</time></trkpt><trkpt lat="34.8947473" lon="32.9058552"><ele>1026.4</ele><time>2015-04-29T12:53:32.0000000+00:00</time></trkpt><trkpt lat="34.8946787" lon="32.9058965"><ele>1027.2</ele><time>2015-04-29T12:53:34.0000000+00:00</time></trkpt><trkpt lat="34.894612" lon="32.905939"><ele>1024.4</ele><time>2015-04-29T12:53:36.0000000+00:00</time></trkpt><trkpt lat="34.8945617" lon="32.905974"><ele>1021.9</ele><time>2015-04-29T12:53:38.0000000+00:00</time></trkpt><trkpt lat="34.8945073" lon="32.9060124"><ele>1021.6</ele><time>2015-04-29T12:53:40.0000000+00:00</time></trkpt><trkpt lat="34.8944424" lon="32.9060602"><ele>1024.2</ele><time>2015-04-29T12:53:42.0000000+00:00</time></trkpt><trkpt lat="34.8943818" lon="32.9061103"><ele>1024.6</ele><time>2015-04-29T12:53:44.0000000+00:00</time></trkpt><trkpt lat="34.8943298" lon="32.9061762"><ele>1025.5</ele><time>2015-04-29T12:53:46.0000000+00:00</time></trkpt><trkpt lat="34.8942774" lon="32.9062435"><ele>1025.2</ele><time>2015-04-29T12:53:48.0000000+00:00</time></trkpt><trkpt lat="34.8942308" lon="32.9063108"><ele>1024.6</ele><time>2015-04-29T12:53:50.0000000+00:00</time></trkpt><trkpt lat="34.8941834" lon="32.90638"><ele>1024.7</ele><time>2015-04-29T12:53:52.0000000+00:00</time></trkpt><trkpt lat="34.8941315" lon="32.9064505"><ele>1026.0</ele><time>2015-04-29T12:53:54.0000000+00:00</time></trkpt><trkpt lat="34.8940885" lon="32.9065334"><ele>1027.1</ele><time>2015-04-29T12:53:56.0000000+00:00</time></trkpt><trkpt lat="34.8940745" lon="32.906631"><ele>1027.8</ele><time>2015-04-29T12:53:58.0000000+00:00</time></trkpt><trkpt lat="34.8941012" lon="32.9067187"><ele>1027.8</ele><time>2015-04-29T12:54:00.0000000+00:00</time></trkpt><trkpt lat="34.8941477" lon="32.9067725"><ele>1028.3</ele><time>2015-04-29T12:54:02.0000000+00:00</time></trkpt><trkpt lat="34.8942163" lon="32.9068034"><ele>1029.1</ele><time>2015-04-29T12:54:04.0000000+00:00</time></trkpt><trkpt lat="34.894298" lon="32.9068245"><ele>1028.9</ele><time>2015-04-29T12:54:06.0000000+00:00</time></trkpt><trkpt lat="34.8943783" lon="32.9068436"><ele>1029.5</ele><time>2015-04-29T12:54:08.0000000+00:00</time></trkpt><trkpt lat="34.8944492" lon="32.9068698"><ele>1029.7</ele><time>2015-04-29T12:54:10.0000000+00:00</time></trkpt><trkpt lat="34.8945173" lon="32.906906"><ele>1031.0</ele><time>2015-04-29T12:54:12.0000000+00:00</time></trkpt><trkpt lat="34.8945803" lon="32.9069568"><ele>1031.3</ele><time>2015-04-29T12:54:14.0000000+00:00</time></trkpt><trkpt lat="34.8946324" lon="32.90703"><ele>1031.4</ele><time>2015-04-29T12:54:16.0000000+00:00</time></trkpt><trkpt lat="34.8946737" lon="32.9071163"><ele>1030.9</ele><time>2015-04-29T12:54:18.0000000+00:00</time></trkpt><trkpt lat="34.8947051" lon="32.9072066"><ele>1030.8</ele><time>2015-04-29T12:54:20.0000000+00:00</time></trkpt><trkpt lat="34.894737" lon="32.9072943"><ele>1030.8</ele><time>2015-04-29T12:54:22.0000000+00:00</time></trkpt><trkpt lat="34.8947671" lon="32.9073864"><ele>1029.5</ele><time>2015-04-29T12:54:24.0000000+00:00</time></trkpt><trkpt lat="34.894797" lon="32.9074787"><ele>1029.0</ele><time>2015-04-29T12:54:26.0000000+00:00</time></trkpt><trkpt lat="34.894824" lon="32.9075689"><ele>1029.6</ele><time>2015-04-29T12:54:28.0000000+00:00</time></trkpt><trkpt lat="34.894843" lon="32.9076496"><ele>1030.2</ele><time>2015-04-29T12:54:30.0000000+00:00</time></trkpt><trkpt lat="34.8948555" lon="32.9077282"><ele>1028.6</ele><time>2015-04-29T12:54:32.0000000+00:00</time></trkpt><trkpt lat="34.8948486" lon="32.9078088"><ele>1028.5</ele><time>2015-04-29T12:54:34.0000000+00:00</time></trkpt><trkpt lat="34.8948304" lon="32.9078809"><ele>1029.4</ele><time>2015-04-29T12:54:36.0000000+00:00</time></trkpt><trkpt lat="34.8948025" lon="32.9079468"><ele>1029.7</ele><time>2015-04-29T12:54:38.0000000+00:00</time></trkpt><trkpt lat="34.8947729" lon="32.908014"><ele>1029.5</ele><time>2015-04-29T12:54:40.0000000+00:00</time></trkpt><trkpt lat="34.8947426" lon="32.90809"><ele>1030.2</ele><time>2015-04-29T12:54:42.0000000+00:00</time></trkpt><trkpt lat="34.8947162" lon="32.9081739"><ele>1030.6</ele><time>2015-04-29T12:54:44.0000000+00:00</time></trkpt><trkpt lat="34.8947059" lon="32.9082616"><ele>1032.0</ele><time>2015-04-29T12:54:46.0000000+00:00</time></trkpt><trkpt lat="34.8947205" lon="32.9083488"><ele>1032.6</ele><time>2015-04-29T12:54:48.0000000+00:00</time></trkpt><trkpt lat="34.8947621" lon="32.908426"><ele>1032.7</ele><time>2015-04-29T12:54:50.0000000+00:00</time></trkpt><trkpt lat="34.8948196" lon="32.9084899"><ele>1032.8</ele><time>2015-04-29T12:54:52.0000000+00:00</time></trkpt><trkpt lat="34.8948842" lon="32.9085475"><ele>1032.8</ele><time>2015-04-29T12:54:54.0000000+00:00</time></trkpt><trkpt lat="34.8949224" lon="32.9085802"><ele>1032.3</ele><time>2015-04-29T12:54:55.0000000+00:00</time></trkpt><trkpt lat="34.8949812" lon="32.9085996"><ele>1033.0</ele><time>2015-04-29T12:54:56.0000000+00:00</time></trkpt><trkpt lat="34.8950507" lon="32.9086588"><ele>1034.1</ele><time>2015-04-29T12:54:58.0000000+00:00</time></trkpt><trkpt lat="34.8950914" lon="32.9086836"><ele>1034.4</ele><time>2015-04-29T12:54:59.0000000+00:00</time></trkpt><trkpt lat="34.8951289" lon="32.90872"><ele>1034.6</ele><time>2015-04-29T12:55:00.0000000+00:00</time></trkpt><trkpt lat="34.895179" lon="32.9087602"><ele>1035.2</ele><time>2015-04-29T12:55:01.0000000+00:00</time></trkpt><trkpt lat="34.8952111" lon="32.9088037"><ele>1034.5</ele><time>2015-04-29T12:55:02.0000000+00:00</time></trkpt><trkpt lat="34.8952525" lon="32.9088399"><ele>1035.1</ele><time>2015-04-29T12:55:03.0000000+00:00</time></trkpt><trkpt lat="34.8952937" lon="32.9088842"><ele>1035.4</ele><time>2015-04-29T12:55:04.0000000+00:00</time></trkpt><trkpt lat="34.8953462" lon="32.9089201"><ele>1036.6</ele><time>2015-04-29T12:55:05.0000000+00:00</time></trkpt><trkpt lat="34.8953894" lon="32.9089684"><ele>1037.2</ele><time>2015-04-29T12:55:06.0000000+00:00</time></trkpt><trkpt lat="34.8954358" lon="32.9090115"><ele>1037.5</ele><time>2015-04-29T12:55:07.0000000+00:00</time></trkpt><trkpt lat="34.8954892" lon="32.9090166"><ele>1038.1</ele><time>2015-04-29T12:55:08.0000000+00:00</time></trkpt><trkpt lat="34.8955313" lon="32.9090562"><ele>1038.9</ele><time>2015-04-29T12:55:09.0000000+00:00</time></trkpt><trkpt lat="34.8955642" lon="32.9091118"><ele>1038.9</ele><time>2015-04-29T12:55:10.0000000+00:00</time></trkpt><trkpt lat="34.8955944" lon="32.9091763"><ele>1038.8</ele><time>2015-04-29T12:55:11.0000000+00:00</time></trkpt><trkpt lat="34.8955992" lon="32.9092362"><ele>1039.3</ele><time>2015-04-29T12:55:12.0000000+00:00</time></trkpt><trkpt lat="34.8955834" lon="32.9093127"><ele>1039.0</ele><time>2015-04-29T12:55:13.0000000+00:00</time></trkpt><trkpt lat="34.8956028" lon="32.9093787"><ele>1038.9</ele><time>2015-04-29T12:55:14.0000000+00:00</time></trkpt><trkpt lat="34.8956014" lon="32.90944"><ele>1038.8</ele><time>2015-04-29T12:55:15.0000000+00:00</time></trkpt><trkpt lat="34.8955854" lon="32.909514"><ele>1038.8</ele><time>2015-04-29T12:55:16.0000000+00:00</time></trkpt><trkpt lat="34.8955735" lon="32.9096066"><ele>1042.0</ele><time>2015-04-29T12:55:18.0000000+00:00</time></trkpt><trkpt lat="34.8955732" lon="32.9096634"><ele>1046.6</ele><time>2015-04-29T12:55:20.0000000+00:00</time></trkpt><trkpt lat="34.8955548" lon="32.9097141"><ele>1050.2</ele><time>2015-04-29T12:55:22.0000000+00:00</time></trkpt><trkpt lat="34.8955269" lon="32.9097622"><ele>1054.6</ele><time>2015-04-29T12:55:30.0000000+00:00</time></trkpt><trkpt lat="34.895547" lon="32.9098132"><ele>1049.1</ele><time>2015-04-29T12:55:47.0000000+00:00</time></trkpt><trkpt lat="34.8955756" lon="32.9098678"><ele>1052.3</ele><time>2015-04-29T12:55:50.0000000+00:00</time></trkpt><trkpt lat="34.8956145" lon="32.9099425"><ele>1054.4</ele><time>2015-04-29T12:55:52.0000000+00:00</time></trkpt><trkpt lat="34.8956436" lon="32.9100434"><ele>1055.4</ele><time>2015-04-29T12:55:54.0000000+00:00</time></trkpt><trkpt lat="34.8956592" lon="32.9101506"><ele>1055.2</ele><time>2015-04-29T12:55:56.0000000+00:00</time></trkpt><trkpt lat="34.8955828" lon="32.9102734"><ele>1056.6</ele><time>2015-04-29T12:55:58.0000000+00:00</time></trkpt><trkpt lat="34.895546" lon="32.9103156"><ele>1056.7</ele><time>2015-04-29T12:55:59.0000000+00:00</time></trkpt><trkpt lat="34.8954739" lon="32.9103421"><ele>1057.2</ele><time>2015-04-29T12:56:01.0000000+00:00</time></trkpt><trkpt lat="34.8953914" lon="32.9103738"><ele>1058.1</ele><time>2015-04-29T12:56:03.0000000+00:00</time></trkpt><trkpt lat="34.8953216" lon="32.9104086"><ele>1057.4</ele><time>2015-04-29T12:56:05.0000000+00:00</time></trkpt><trkpt lat="34.8952599" lon="32.910419"><ele>1056.9</ele><time>2015-04-29T12:56:07.0000000+00:00</time></trkpt><trkpt lat="34.8952033" lon="32.9104456"><ele>1053.8</ele><time>2015-04-29T12:56:09.0000000+00:00</time></trkpt><trkpt lat="34.8951607" lon="32.9104651"><ele>1050.3</ele><time>2015-04-29T12:56:11.0000000+00:00</time></trkpt><trkpt lat="34.8951147" lon="32.9105085"><ele>1045.7</ele><time>2015-04-29T12:56:14.0000000+00:00</time></trkpt><trkpt lat="34.8950645" lon="32.9105574"><ele>1045.3</ele><time>2015-04-29T12:56:17.0000000+00:00</time></trkpt><trkpt lat="34.8950284" lon="32.9105942"><ele>1045.9</ele><time>2015-04-29T12:56:19.0000000+00:00</time></trkpt><trkpt lat="34.8949998" lon="32.9106437"><ele>1046.0</ele><time>2015-04-29T12:56:21.0000000+00:00</time></trkpt><trkpt lat="34.8949688" lon="32.91071"><ele>1046.1</ele><time>2015-04-29T12:56:24.0000000+00:00</time></trkpt><trkpt lat="34.8949624" lon="32.9107648"><ele>1045.6</ele><time>2015-04-29T12:56:26.0000000+00:00</time></trkpt><trkpt lat="34.8949492" lon="32.9108202"><ele>1045.5</ele><time>2015-04-29T12:56:28.0000000+00:00</time></trkpt><trkpt lat="34.8949293" lon="32.9108728"><ele>1042.4</ele><time>2015-04-29T12:56:30.0000000+00:00</time></trkpt><trkpt lat="34.894907" lon="32.9109325"><ele>1039.2</ele><time>2015-04-29T12:56:32.0000000+00:00</time></trkpt><trkpt lat="34.8948861" lon="32.9109926"><ele>1037.4</ele><time>2015-04-29T12:56:34.0000000+00:00</time></trkpt><trkpt lat="34.8948554" lon="32.9110548"><ele>1035.2</ele><time>2015-04-29T12:56:36.0000000+00:00</time></trkpt><trkpt lat="34.8948146" lon="32.9111277"><ele>1035.9</ele><time>2015-04-29T12:56:38.0000000+00:00</time></trkpt><trkpt lat="34.8947763" lon="32.9112017"><ele>1036.5</ele><time>2015-04-29T12:56:40.0000000+00:00</time></trkpt><trkpt lat="34.8947374" lon="32.9112762"><ele>1037.7</ele><time>2015-04-29T12:56:42.0000000+00:00</time></trkpt><trkpt lat="34.8946918" lon="32.9113296"><ele>1038.3</ele><time>2015-04-29T12:56:44.0000000+00:00</time></trkpt><trkpt lat="34.8946367" lon="32.9113715"><ele>1039.1</ele><time>2015-04-29T12:56:46.0000000+00:00</time></trkpt><trkpt lat="34.8945835" lon="32.9114049"><ele>1039.6</ele><time>2015-04-29T12:56:48.0000000+00:00</time></trkpt><trkpt lat="34.8945287" lon="32.9114188"><ele>1042.0</ele><time>2015-04-29T12:56:50.0000000+00:00</time></trkpt><trkpt lat="34.894469" lon="32.9114319"><ele>1045.2</ele><time>2015-04-29T12:56:53.0000000+00:00</time></trkpt><trkpt lat="34.8944158" lon="32.9114442"><ele>1045.8</ele><time>2015-04-29T12:56:56.0000000+00:00</time></trkpt><trkpt lat="34.8943686" lon="32.9114341"><ele>1049.1</ele><time>2015-04-29T12:56:59.0000000+00:00</time></trkpt><trkpt lat="34.8943173" lon="32.91144"><ele>1049.2</ele><time>2015-04-29T12:57:02.0000000+00:00</time></trkpt><trkpt lat="34.8942636" lon="32.9114414"><ele>1047.4</ele><time>2015-04-29T12:57:05.0000000+00:00</time></trkpt><trkpt lat="34.8942079" lon="32.9114348"><ele>1043.7</ele><time>2015-04-29T12:57:08.0000000+00:00</time></trkpt><trkpt lat="34.8941541" lon="32.9114246"><ele>1040.9</ele><time>2015-04-29T12:57:11.0000000+00:00</time></trkpt><trkpt lat="34.8940984" lon="32.9114067"><ele>1038.3</ele><time>2015-04-29T12:57:14.0000000+00:00</time></trkpt><trkpt lat="34.8940415" lon="32.9113914"><ele>1035.6</ele><time>2015-04-29T12:57:17.0000000+00:00</time></trkpt><trkpt lat="34.8939822" lon="32.9113794"><ele>1034.2</ele><time>2015-04-29T12:57:20.0000000+00:00</time></trkpt><trkpt lat="34.8939235" lon="32.9113721"><ele>1034.3</ele><time>2015-04-29T12:57:23.0000000+00:00</time></trkpt><trkpt lat="34.8938617" lon="32.9113645"><ele>1035.5</ele><time>2015-04-29T12:57:26.0000000+00:00</time></trkpt><trkpt lat="34.8937952" lon="32.9113699"><ele>1036.6</ele><time>2015-04-29T12:57:29.0000000+00:00</time></trkpt><trkpt lat="34.8937494" lon="32.911376"><ele>1036.2</ele><time>2015-04-29T12:57:31.0000000+00:00</time></trkpt><trkpt lat="34.8937042" lon="32.9113833"><ele>1036.6</ele><time>2015-04-29T12:57:33.0000000+00:00</time></trkpt><trkpt lat="34.8936369" lon="32.9113859"><ele>1037.2</ele><time>2015-04-29T12:57:36.0000000+00:00</time></trkpt><trkpt lat="34.8935707" lon="32.9113831"><ele>1038.5</ele><time>2015-04-29T12:57:39.0000000+00:00</time></trkpt><trkpt lat="34.893504" lon="32.9113831"><ele>1038.7</ele><time>2015-04-29T12:57:42.0000000+00:00</time></trkpt><trkpt lat="34.893443" lon="32.9113878"><ele>1039.6</ele><time>2015-04-29T12:57:45.0000000+00:00</time></trkpt><trkpt lat="34.893395" lon="32.9113974"><ele>1039.7</ele><time>2015-04-29T12:57:48.0000000+00:00</time></trkpt><trkpt lat="34.8933336" lon="32.9114072"><ele>1040.3</ele><time>2015-04-29T12:57:51.0000000+00:00</time></trkpt><trkpt lat="34.8932733" lon="32.9114495"><ele>1040.7</ele><time>2015-04-29T12:57:54.0000000+00:00</time></trkpt><trkpt lat="34.8932472" lon="32.9115163"><ele>1042.0</ele><time>2015-04-29T12:57:56.0000000+00:00</time></trkpt><trkpt lat="34.8932483" lon="32.911587"><ele>1043.1</ele><time>2015-04-29T12:57:58.0000000+00:00</time></trkpt><trkpt lat="34.893273" lon="32.9116583"><ele>1043.6</ele><time>2015-04-29T12:58:00.0000000+00:00</time></trkpt><trkpt lat="34.893327" lon="32.9117222"><ele>1043.7</ele><time>2015-04-29T12:58:02.0000000+00:00</time></trkpt><trkpt lat="34.8933899" lon="32.9117656"><ele>1044.5</ele><time>2015-04-29T12:58:04.0000000+00:00</time></trkpt><trkpt lat="34.8934477" lon="32.9117976"><ele>1045.4</ele><time>2015-04-29T12:58:06.0000000+00:00</time></trkpt><trkpt lat="34.8935037" lon="32.9118313"><ele>1046.2</ele><time>2015-04-29T12:58:08.0000000+00:00</time></trkpt><trkpt lat="34.8935545" lon="32.9118761"><ele>1046.6</ele><time>2015-04-29T12:58:10.0000000+00:00</time></trkpt><trkpt lat="34.8935964" lon="32.911935"><ele>1047.5</ele><time>2015-04-29T12:58:12.0000000+00:00</time></trkpt><trkpt lat="34.8936276" lon="32.9120052"><ele>1048.4</ele><time>2015-04-29T12:58:14.0000000+00:00</time></trkpt><trkpt lat="34.8936436" lon="32.9120874"><ele>1050.2</ele><time>2015-04-29T12:58:16.0000000+00:00</time></trkpt><trkpt lat="34.8936569" lon="32.9121756"><ele>1051.4</ele><time>2015-04-29T12:58:18.0000000+00:00</time></trkpt><trkpt lat="34.893664" lon="32.9122325"><ele>1051.6</ele><time>2015-04-29T12:58:19.0000000+00:00</time></trkpt><trkpt lat="34.8936748" lon="32.9123356"><ele>1052.0</ele><time>2015-04-29T12:58:21.0000000+00:00</time></trkpt><trkpt lat="34.8936845" lon="32.9124178"><ele>1051.8</ele><time>2015-04-29T12:58:23.0000000+00:00</time></trkpt><trkpt lat="34.8936964" lon="32.9124944"><ele>1052.5</ele><time>2015-04-29T12:58:25.0000000+00:00</time></trkpt><trkpt lat="34.893703" lon="32.9125726"><ele>1053.0</ele><time>2015-04-29T12:58:27.0000000+00:00</time></trkpt><trkpt lat="34.8937045" lon="32.9126517"><ele>1052.8</ele><time>2015-04-29T12:58:29.0000000+00:00</time></trkpt><trkpt lat="34.8936964" lon="32.9127298"><ele>1052.8</ele><time>2015-04-29T12:58:31.0000000+00:00</time></trkpt><trkpt lat="34.893684" lon="32.9128018"><ele>1052.5</ele><time>2015-04-29T12:58:33.0000000+00:00</time></trkpt><trkpt lat="34.8936759" lon="32.9128708"><ele>1052.2</ele><time>2015-04-29T12:58:35.0000000+00:00</time></trkpt><trkpt lat="34.8936628" lon="32.9129366"><ele>1052.4</ele><time>2015-04-29T12:58:37.0000000+00:00</time></trkpt><trkpt lat="34.8936437" lon="32.9129999"><ele>1053.9</ele><time>2015-04-29T12:58:39.0000000+00:00</time></trkpt><trkpt lat="34.8936174" lon="32.9130617"><ele>1054.1</ele><time>2015-04-29T12:58:41.0000000+00:00</time></trkpt><trkpt lat="34.8935812" lon="32.9131171"><ele>1055.1</ele><time>2015-04-29T12:58:43.0000000+00:00</time></trkpt><trkpt lat="34.8935377" lon="32.9131641"><ele>1055.3</ele><time>2015-04-29T12:58:45.0000000+00:00</time></trkpt><trkpt lat="34.8934823" lon="32.9132062"><ele>1056.4</ele><time>2015-04-29T12:58:47.0000000+00:00</time></trkpt><trkpt lat="34.8934222" lon="32.913245"><ele>1054.9</ele><time>2015-04-29T12:58:49.0000000+00:00</time></trkpt><trkpt lat="34.8933645" lon="32.9132746"><ele>1053.3</ele><time>2015-04-29T12:58:51.0000000+00:00</time></trkpt><trkpt lat="34.8932995" lon="32.9132858"><ele>1050.2</ele><time>2015-04-29T12:58:54.0000000+00:00</time></trkpt><trkpt lat="34.8932517" lon="32.9132942"><ele>1047.9</ele><time>2015-04-29T12:58:56.0000000+00:00</time></trkpt><trkpt lat="34.8931998" lon="32.9132922"><ele>1046.5</ele><time>2015-04-29T12:58:58.0000000+00:00</time></trkpt><trkpt lat="34.893147" lon="32.9132882"><ele>1045.5</ele><time>2015-04-29T12:59:00.0000000+00:00</time></trkpt><trkpt lat="34.8930952" lon="32.9132864"><ele>1043.2</ele><time>2015-04-29T12:59:02.0000000+00:00</time></trkpt><trkpt lat="34.893047" lon="32.9132908"><ele>1041.4</ele><time>2015-04-29T12:59:04.0000000+00:00</time></trkpt><trkpt lat="34.8929999" lon="32.9132854"><ele>1040.6</ele><time>2015-04-29T12:59:07.0000000+00:00</time></trkpt><trkpt lat="34.8929469" lon="32.9132819"><ele>1042.3</ele><time>2015-04-29T12:59:11.0000000+00:00</time></trkpt><trkpt lat="34.8928909" lon="32.9132776"><ele>1043.5</ele><time>2015-04-29T12:59:14.0000000+00:00</time></trkpt><trkpt lat="34.8928389" lon="32.9133001"><ele>1044.5</ele><time>2015-04-29T12:59:17.0000000+00:00</time></trkpt><trkpt lat="34.8927925" lon="32.9133365"><ele>1045.5</ele><time>2015-04-29T12:59:20.0000000+00:00</time></trkpt><trkpt lat="34.8927559" lon="32.9133896"><ele>1047.9</ele><time>2015-04-29T12:59:23.0000000+00:00</time></trkpt><trkpt lat="34.8927375" lon="32.9134719"><ele>1049.5</ele><time>2015-04-29T12:59:26.0000000+00:00</time></trkpt><trkpt lat="34.8927424" lon="32.9135362"><ele>1049.7</ele><time>2015-04-29T12:59:28.0000000+00:00</time></trkpt><trkpt lat="34.892757" lon="32.9136062"><ele>1050.3</ele><time>2015-04-29T12:59:30.0000000+00:00</time></trkpt><trkpt lat="34.8927734" lon="32.913693"><ele>1051.1</ele><time>2015-04-29T12:59:32.0000000+00:00</time></trkpt><trkpt lat="34.8927987" lon="32.9137718"><ele>1052.4</ele><time>2015-04-29T12:59:34.0000000+00:00</time></trkpt><trkpt lat="34.8928278" lon="32.9138342"><ele>1053.2</ele><time>2015-04-29T12:59:36.0000000+00:00</time></trkpt><trkpt lat="34.8928604" lon="32.9138919"><ele>1054.1</ele><time>2015-04-29T12:59:38.0000000+00:00</time></trkpt><trkpt lat="34.8928953" lon="32.9139497"><ele>1055.1</ele><time>2015-04-29T12:59:40.0000000+00:00</time></trkpt><trkpt lat="34.8929363" lon="32.914001"><ele>1056.1</ele><time>2015-04-29T12:59:42.0000000+00:00</time></trkpt><trkpt lat="34.8929888" lon="32.9140349"><ele>1056.6</ele><time>2015-04-29T12:59:44.0000000+00:00</time></trkpt><trkpt lat="34.8930487" lon="32.9140527"><ele>1056.7</ele><time>2015-04-29T12:59:46.0000000+00:00</time></trkpt><trkpt lat="34.8931073" lon="32.914066"><ele>1056.8</ele><time>2015-04-29T12:59:48.0000000+00:00</time></trkpt><trkpt lat="34.893161" lon="32.9140787"><ele>1057.3</ele><time>2015-04-29T12:59:50.0000000+00:00</time></trkpt><trkpt lat="34.8932119" lon="32.9140929"><ele>1057.9</ele><time>2015-04-29T12:59:52.0000000+00:00</time></trkpt><trkpt lat="34.8932631" lon="32.9141041"><ele>1058.8</ele><time>2015-04-29T12:59:54.0000000+00:00</time></trkpt><trkpt lat="34.893314" lon="32.9141239"><ele>1060.3</ele><time>2015-04-29T12:59:56.0000000+00:00</time></trkpt><trkpt lat="34.8933681" lon="32.9141422"><ele>1061.1</ele><time>2015-04-29T12:59:58.0000000+00:00</time></trkpt><trkpt lat="34.8934253" lon="32.9141622"><ele>1062.4</ele><time>2015-04-29T13:00:00.0000000+00:00</time></trkpt><trkpt lat="34.8934786" lon="32.9141911"><ele>1063.4</ele><time>2015-04-29T13:00:02.0000000+00:00</time></trkpt><trkpt lat="34.8935342" lon="32.9142289"><ele>1066.4</ele><time>2015-04-29T13:00:04.0000000+00:00</time></trkpt><trkpt lat="34.8935827" lon="32.9142661"><ele>1069.4</ele><time>2015-04-29T13:00:06.0000000+00:00</time></trkpt><trkpt lat="34.8936186" lon="32.9143093"><ele>1071.9</ele><time>2015-04-29T13:00:08.0000000+00:00</time></trkpt><trkpt lat="34.893651" lon="32.914371"><ele>1076.2</ele><time>2015-04-29T13:00:11.0000000+00:00</time></trkpt><trkpt lat="34.8936707" lon="32.9144242"><ele>1078.9</ele><time>2015-04-29T13:00:13.0000000+00:00</time></trkpt><trkpt lat="34.8936957" lon="32.9144794"><ele>1083.8</ele><time>2015-04-29T13:00:15.0000000+00:00</time></trkpt><trkpt lat="34.893726" lon="32.9145436"><ele>1087.3</ele><time>2015-04-29T13:00:17.0000000+00:00</time></trkpt><trkpt lat="34.8937511" lon="32.9146126"><ele>1091.9</ele><time>2015-04-29T13:00:19.0000000+00:00</time></trkpt><trkpt lat="34.8937768" lon="32.914684"><ele>1094.5</ele><time>2015-04-29T13:00:21.0000000+00:00</time></trkpt><trkpt lat="34.8937981" lon="32.9147583"><ele>1095.7</ele><time>2015-04-29T13:00:23.0000000+00:00</time></trkpt><trkpt lat="34.8938201" lon="32.9148388"><ele>1096.8</ele><time>2015-04-29T13:00:25.0000000+00:00</time></trkpt><trkpt lat="34.8938391" lon="32.914918"><ele>1098.0</ele><time>2015-04-29T13:00:27.0000000+00:00</time></trkpt><trkpt lat="34.8938356" lon="32.9150061"><ele>1099.1</ele><time>2015-04-29T13:00:29.0000000+00:00</time></trkpt><trkpt lat="34.89382" lon="32.9150836"><ele>1098.6</ele><time>2015-04-29T13:00:31.0000000+00:00</time></trkpt><trkpt lat="34.8938096" lon="32.9151608"><ele>1098.0</ele><time>2015-04-29T13:00:33.0000000+00:00</time></trkpt><trkpt lat="34.8938102" lon="32.9152449"><ele>1095.8</ele><time>2015-04-29T13:00:35.0000000+00:00</time></trkpt><trkpt lat="34.8938002" lon="32.9153262"><ele>1094.8</ele><time>2015-04-29T13:00:37.0000000+00:00</time></trkpt><trkpt lat="34.8937925" lon="32.9154069"><ele>1095.8</ele><time>2015-04-29T13:00:39.0000000+00:00</time></trkpt><trkpt lat="34.8937848" lon="32.9154868"><ele>1097.5</ele><time>2015-04-29T13:00:41.0000000+00:00</time></trkpt><trkpt lat="34.8937756" lon="32.9155642"><ele>1096.5</ele><time>2015-04-29T13:00:43.0000000+00:00</time></trkpt><trkpt lat="34.8937624" lon="32.915647"><ele>1095.4</ele><time>2015-04-29T13:00:45.0000000+00:00</time></trkpt><trkpt lat="34.8937364" lon="32.915727"><ele>1095.2</ele><time>2015-04-29T13:00:47.0000000+00:00</time></trkpt><trkpt lat="34.8937079" lon="32.9158088"><ele>1098.1</ele><time>2015-04-29T13:00:49.0000000+00:00</time></trkpt><trkpt lat="34.8936786" lon="32.9158844"><ele>1098.9</ele><time>2015-04-29T13:00:51.0000000+00:00</time></trkpt><trkpt lat="34.8936481" lon="32.9159603"><ele>1097.8</ele><time>2015-04-29T13:00:53.0000000+00:00</time></trkpt><trkpt lat="34.8936167" lon="32.9160331"><ele>1097.3</ele><time>2015-04-29T13:00:55.0000000+00:00</time></trkpt><trkpt lat="34.893584" lon="32.9161075"><ele>1096.9</ele><time>2015-04-29T13:00:57.0000000+00:00</time></trkpt><trkpt lat="34.8935542" lon="32.9161811"><ele>1095.5</ele><time>2015-04-29T13:00:59.0000000+00:00</time></trkpt><trkpt lat="34.8935225" lon="32.9162503"><ele>1094.5</ele><time>2015-04-29T13:01:01.0000000+00:00</time></trkpt><trkpt lat="34.8935" lon="32.9163219"><ele>1093.2</ele><time>2015-04-29T13:01:03.0000000+00:00</time></trkpt><trkpt lat="34.8934791" lon="32.9163993"><ele>1091.9</ele><time>2015-04-29T13:01:05.0000000+00:00</time></trkpt><trkpt lat="34.8934648" lon="32.9164809"><ele>1090.3</ele><time>2015-04-29T13:01:07.0000000+00:00</time></trkpt><trkpt lat="34.8934528" lon="32.9165623"><ele>1089.1</ele><time>2015-04-29T13:01:09.0000000+00:00</time></trkpt><trkpt lat="34.8934465" lon="32.9166397"><ele>1087.6</ele><time>2015-04-29T13:01:11.0000000+00:00</time></trkpt><trkpt lat="34.8934568" lon="32.9167145"><ele>1086.0</ele><time>2015-04-29T13:01:13.0000000+00:00</time></trkpt><trkpt lat="34.8934828" lon="32.9167863"><ele>1085.6</ele><time>2015-04-29T13:01:15.0000000+00:00</time></trkpt><trkpt lat="34.8935165" lon="32.9168567"><ele>1086.0</ele><time>2015-04-29T13:01:17.0000000+00:00</time></trkpt><trkpt lat="34.8935549" lon="32.9169222"><ele>1086.6</ele><time>2015-04-29T13:01:19.0000000+00:00</time></trkpt><trkpt lat="34.8935978" lon="32.9169844"><ele>1087.2</ele><time>2015-04-29T13:01:21.0000000+00:00</time></trkpt><trkpt lat="34.893649" lon="32.9170362"><ele>1088.9</ele><time>2015-04-29T13:01:23.0000000+00:00</time></trkpt><trkpt lat="34.8937079" lon="32.9170906"><ele>1090.8</ele><time>2015-04-29T13:01:25.0000000+00:00</time></trkpt><trkpt lat="34.8937671" lon="32.9171473"><ele>1091.0</ele><time>2015-04-29T13:01:27.0000000+00:00</time></trkpt><trkpt lat="34.8938242" lon="32.9172135"><ele>1090.1</ele><time>2015-04-29T13:01:29.0000000+00:00</time></trkpt><trkpt lat="34.893872" lon="32.9172839"><ele>1089.1</ele><time>2015-04-29T13:01:31.0000000+00:00</time></trkpt><trkpt lat="34.8939046" lon="32.9173675"><ele>1088.1</ele><time>2015-04-29T13:01:33.0000000+00:00</time></trkpt><trkpt lat="34.8939074" lon="32.9174579"><ele>1087.3</ele><time>2015-04-29T13:01:35.0000000+00:00</time></trkpt><trkpt lat="34.8938884" lon="32.9175424"><ele>1086.9</ele><time>2015-04-29T13:01:37.0000000+00:00</time></trkpt><trkpt lat="34.8938688" lon="32.9176139"><ele>1086.3</ele><time>2015-04-29T13:01:39.0000000+00:00</time></trkpt><trkpt lat="34.8938527" lon="32.9176821"><ele>1085.4</ele><time>2015-04-29T13:01:41.0000000+00:00</time></trkpt><trkpt lat="34.8938336" lon="32.9177441"><ele>1084.4</ele><time>2015-04-29T13:01:43.0000000+00:00</time></trkpt><trkpt lat="34.8938016" lon="32.9177946"><ele>1083.9</ele><time>2015-04-29T13:01:45.0000000+00:00</time></trkpt><trkpt lat="34.8938551" lon="32.9178082"><ele>1085.4</ele><time>2015-04-29T13:02:03.0000000+00:00</time></trkpt><trkpt lat="34.8939004" lon="32.9178315"><ele>1085.8</ele><time>2015-04-29T13:02:06.0000000+00:00</time></trkpt><trkpt lat="34.8939432" lon="32.917874"><ele>1086.0</ele><time>2015-04-29T13:02:11.0000000+00:00</time></trkpt><trkpt lat="34.8939975" lon="32.9179214"><ele>1085.8</ele><time>2015-04-29T13:02:13.0000000+00:00</time></trkpt><trkpt lat="34.8940328" lon="32.9179578"><ele>1085.8</ele><time>2015-04-29T13:02:14.0000000+00:00</time></trkpt><trkpt lat="34.8940755" lon="32.9180276"><ele>1085.8</ele><time>2015-04-29T13:02:15.0000000+00:00</time></trkpt><trkpt lat="34.8941046" lon="32.9180853"><ele>1085.8</ele><time>2015-04-29T13:02:16.0000000+00:00</time></trkpt><trkpt lat="34.8941338" lon="32.9181429"><ele>1085.3</ele><time>2015-04-29T13:02:17.0000000+00:00</time></trkpt><trkpt lat="34.8941598" lon="32.91821"><ele>1085.0</ele><time>2015-04-29T13:02:18.0000000+00:00</time></trkpt><trkpt lat="34.8941928" lon="32.9182554"><ele>1084.4</ele><time>2015-04-29T13:02:19.0000000+00:00</time></trkpt><trkpt lat="34.8942298" lon="32.9183198"><ele>1084.1</ele><time>2015-04-29T13:02:20.0000000+00:00</time></trkpt><trkpt lat="34.8942639" lon="32.9183852"><ele>1083.9</ele><time>2015-04-29T13:02:21.0000000+00:00</time></trkpt><trkpt lat="34.8943086" lon="32.91845"><ele>1083.8</ele><time>2015-04-29T13:02:22.0000000+00:00</time></trkpt><trkpt lat="34.8943564" lon="32.918512"><ele>1084.8</ele><time>2015-04-29T13:02:23.0000000+00:00</time></trkpt><trkpt lat="34.8944094" lon="32.9185771"><ele>1085.3</ele><time>2015-04-29T13:02:24.0000000+00:00</time></trkpt><trkpt lat="34.8944644" lon="32.9186255"><ele>1085.5</ele><time>2015-04-29T13:02:25.0000000+00:00</time></trkpt><trkpt lat="34.8945223" lon="32.9186691"><ele>1085.6</ele><time>2015-04-29T13:02:26.0000000+00:00</time></trkpt><trkpt lat="34.8945855" lon="32.9186927"><ele>1085.7</ele><time>2015-04-29T13:02:27.0000000+00:00</time></trkpt><trkpt lat="34.8946516" lon="32.9186965"><ele>1086.2</ele><time>2015-04-29T13:02:28.0000000+00:00</time></trkpt><trkpt lat="34.8947176" lon="32.9186806"><ele>1086.5</ele><time>2015-04-29T13:02:29.0000000+00:00</time></trkpt><trkpt lat="34.8947962" lon="32.918662"><ele>1087.1</ele><time>2015-04-29T13:02:30.0000000+00:00</time></trkpt><trkpt lat="34.8948686" lon="32.9186396"><ele>1086.9</ele><time>2015-04-29T13:02:31.0000000+00:00</time></trkpt><trkpt lat="34.8949481" lon="32.9186163"><ele>1086.9</ele><time>2015-04-29T13:02:32.0000000+00:00</time></trkpt><trkpt lat="34.8950271" lon="32.9186119"><ele>1086.8</ele><time>2015-04-29T13:02:33.0000000+00:00</time></trkpt><trkpt lat="34.8951046" lon="32.9186311"><ele>1087.3</ele><time>2015-04-29T13:02:34.0000000+00:00</time></trkpt><trkpt lat="34.8951931" lon="32.9186422"><ele>1087.5</ele><time>2015-04-29T13:02:35.0000000+00:00</time></trkpt><trkpt lat="34.8952782" lon="32.9186641"><ele>1087.6</ele><time>2015-04-29T13:02:36.0000000+00:00</time></trkpt><trkpt lat="34.8953512" lon="32.9186592"><ele>1088.2</ele><time>2015-04-29T13:02:37.0000000+00:00</time></trkpt><trkpt lat="34.8954317" lon="32.9186426"><ele>1088.5</ele><time>2015-04-29T13:02:38.0000000+00:00</time></trkpt><trkpt lat="34.8955035" lon="32.9186446"><ele>1088.1</ele><time>2015-04-29T13:02:39.0000000+00:00</time></trkpt><trkpt lat="34.8955773" lon="32.9186542"><ele>1087.9</ele><time>2015-04-29T13:02:40.0000000+00:00</time></trkpt><trkpt lat="34.8956489" lon="32.9186863"><ele>1087.9</ele><time>2015-04-29T13:02:41.0000000+00:00</time></trkpt><trkpt lat="34.8957134" lon="32.9187443"><ele>1087.8</ele><time>2015-04-29T13:02:42.0000000+00:00</time></trkpt><trkpt lat="34.8957471" lon="32.9188054"><ele>1087.8</ele><time>2015-04-29T13:02:43.0000000+00:00</time></trkpt><trkpt lat="34.8957752" lon="32.9188768"><ele>1086.8</ele><time>2015-04-29T13:02:44.0000000+00:00</time></trkpt><trkpt lat="34.895783" lon="32.9189664"><ele>1086.8</ele><time>2015-04-29T13:02:45.0000000+00:00</time></trkpt><trkpt lat="34.8957885" lon="32.9190468"><ele>1086.8</ele><time>2015-04-29T13:02:46.0000000+00:00</time></trkpt><trkpt lat="34.8957811" lon="32.9191218"><ele>1087.3</ele><time>2015-04-29T13:02:47.0000000+00:00</time></trkpt><trkpt lat="34.8957751" lon="32.9192021"><ele>1087.0</ele><time>2015-04-29T13:02:48.0000000+00:00</time></trkpt><trkpt lat="34.8957873" lon="32.9192743"><ele>1086.9</ele><time>2015-04-29T13:02:49.0000000+00:00</time></trkpt><trkpt lat="34.8958049" lon="32.9193586"><ele>1086.8</ele><time>2015-04-29T13:02:50.0000000+00:00</time></trkpt><trkpt lat="34.8958497" lon="32.9194185"><ele>1086.3</ele><time>2015-04-29T13:02:51.0000000+00:00</time></trkpt><trkpt lat="34.8958976" lon="32.9194683"><ele>1086.0</ele><time>2015-04-29T13:02:52.0000000+00:00</time></trkpt><trkpt lat="34.895953" lon="32.9195181"><ele>1085.4</ele><time>2015-04-29T13:02:53.0000000+00:00</time></trkpt><trkpt lat="34.896014" lon="32.9195522"><ele>1085.1</ele><time>2015-04-29T13:02:54.0000000+00:00</time></trkpt><trkpt lat="34.8960748" lon="32.9195852"><ele>1084.4</ele><time>2015-04-29T13:02:55.0000000+00:00</time></trkpt><trkpt lat="34.8961366" lon="32.9196215"><ele>1084.1</ele><time>2015-04-29T13:02:56.0000000+00:00</time></trkpt><trkpt lat="34.8961936" lon="32.9196621"><ele>1084.4</ele><time>2015-04-29T13:02:57.0000000+00:00</time></trkpt><trkpt lat="34.8962447" lon="32.9197054"><ele>1085.1</ele><time>2015-04-29T13:02:58.0000000+00:00</time></trkpt><trkpt lat="34.8962886" lon="32.9197616"><ele>1084.9</ele><time>2015-04-29T13:02:59.0000000+00:00</time></trkpt><trkpt lat="34.8963301" lon="32.9198266"><ele>1084.3</ele><time>2015-04-29T13:03:00.0000000+00:00</time></trkpt><trkpt lat="34.8963605" lon="32.9199027"><ele>1084.6</ele><time>2015-04-29T13:03:01.0000000+00:00</time></trkpt><trkpt lat="34.8963785" lon="32.9199661"><ele>1084.2</ele><time>2015-04-29T13:03:02.0000000+00:00</time></trkpt><trkpt lat="34.8963913" lon="32.9200381"><ele>1084.0</ele><time>2015-04-29T13:03:03.0000000+00:00</time></trkpt><trkpt lat="34.8964058" lon="32.9201156"><ele>1083.9</ele><time>2015-04-29T13:03:04.0000000+00:00</time></trkpt><trkpt lat="34.8964143" lon="32.9201947"><ele>1083.8</ele><time>2015-04-29T13:03:05.0000000+00:00</time></trkpt><trkpt lat="34.8964221" lon="32.9202573"><ele>1083.8</ele><time>2015-04-29T13:03:06.0000000+00:00</time></trkpt><trkpt lat="34.8964297" lon="32.9203301"><ele>1084.3</ele><time>2015-04-29T13:03:07.0000000+00:00</time></trkpt><trkpt lat="34.8964494" lon="32.9203975"><ele>1084.0</ele><time>2015-04-29T13:03:08.0000000+00:00</time></trkpt><trkpt lat="34.896451" lon="32.9204784"><ele>1083.9</ele><time>2015-04-29T13:03:09.0000000+00:00</time></trkpt><trkpt lat="34.8964568" lon="32.9205555"><ele>1083.8</ele><time>2015-04-29T13:03:10.0000000+00:00</time></trkpt><trkpt lat="34.8964615" lon="32.9206226"><ele>1083.8</ele><time>2015-04-29T13:03:11.0000000+00:00</time></trkpt><trkpt lat="34.8964626" lon="32.9206975"><ele>1083.8</ele><time>2015-04-29T13:03:12.0000000+00:00</time></trkpt><trkpt lat="34.8964534" lon="32.920774"><ele>1084.3</ele><time>2015-04-29T13:03:13.0000000+00:00</time></trkpt><trkpt lat="34.8964347" lon="32.92084"><ele>1085.0</ele><time>2015-04-29T13:03:14.0000000+00:00</time></trkpt><trkpt lat="34.8964134" lon="32.9209079"><ele>1085.4</ele><time>2015-04-29T13:03:15.0000000+00:00</time></trkpt><trkpt lat="34.8963796" lon="32.920968"><ele>1085.1</ele><time>2015-04-29T13:03:16.0000000+00:00</time></trkpt><trkpt lat="34.8963495" lon="32.9210304"><ele>1084.9</ele><time>2015-04-29T13:03:17.0000000+00:00</time></trkpt><trkpt lat="34.8963175" lon="32.9210878"><ele>1084.3</ele><time>2015-04-29T13:03:18.0000000+00:00</time></trkpt><trkpt lat="34.8962898" lon="32.9211374"><ele>1083.1</ele><time>2015-04-29T13:03:19.0000000+00:00</time></trkpt><trkpt lat="34.8962668" lon="32.9211953"><ele>1081.9</ele><time>2015-04-29T13:03:20.0000000+00:00</time></trkpt><trkpt lat="34.8962677" lon="32.9212523"><ele>1080.8</ele><time>2015-04-29T13:03:21.0000000+00:00</time></trkpt><trkpt lat="34.8962787" lon="32.9213067"><ele>1080.3</ele><time>2015-04-29T13:03:22.0000000+00:00</time></trkpt><trkpt lat="34.8962996" lon="32.921361"><ele>1079.0</ele><time>2015-04-29T13:03:23.0000000+00:00</time></trkpt><trkpt lat="34.8963408" lon="32.9214012"><ele>1078.4</ele><time>2015-04-29T13:03:24.0000000+00:00</time></trkpt><trkpt lat="34.8963721" lon="32.9214647"><ele>1078.6</ele><time>2015-04-29T13:03:25.0000000+00:00</time></trkpt><trkpt lat="34.8964113" lon="32.9215172"><ele>1078.7</ele><time>2015-04-29T13:03:26.0000000+00:00</time></trkpt><trkpt lat="34.8964576" lon="32.9215626"><ele>1078.2</ele><time>2015-04-29T13:03:27.0000000+00:00</time></trkpt><trkpt lat="34.8965034" lon="32.9216304"><ele>1078.0</ele><time>2015-04-29T13:03:28.0000000+00:00</time></trkpt><trkpt lat="34.8965412" lon="32.921698"><ele>1077.9</ele><time>2015-04-29T13:03:29.0000000+00:00</time></trkpt><trkpt lat="34.8965893" lon="32.9217805"><ele>1077.8</ele><time>2015-04-29T13:03:30.0000000+00:00</time></trkpt><trkpt lat="34.8966367" lon="32.9218518"><ele>1077.3</ele><time>2015-04-29T13:03:31.0000000+00:00</time></trkpt><trkpt lat="34.896699" lon="32.9219211"><ele>1077.0</ele><time>2015-04-29T13:03:32.0000000+00:00</time></trkpt><trkpt lat="34.8967643" lon="32.9219588"><ele>1077.4</ele><time>2015-04-29T13:03:33.0000000+00:00</time></trkpt><trkpt lat="34.8968359" lon="32.9219703"><ele>1077.1</ele><time>2015-04-29T13:03:34.0000000+00:00</time></trkpt><trkpt lat="34.8969118" lon="32.9219595"><ele>1077.4</ele><time>2015-04-29T13:03:35.0000000+00:00</time></trkpt><trkpt lat="34.8969976" lon="32.9219227"><ele>1076.6</ele><time>2015-04-29T13:03:36.0000000+00:00</time></trkpt><trkpt lat="34.8970703" lon="32.9218757"><ele>1076.2</ele><time>2015-04-29T13:03:37.0000000+00:00</time></trkpt><trkpt lat="34.8971441" lon="32.9218195"><ele>1075.5</ele><time>2015-04-29T13:03:38.0000000+00:00</time></trkpt><trkpt lat="34.8972139" lon="32.9217789"><ele>1075.1</ele><time>2015-04-29T13:03:39.0000000+00:00</time></trkpt><trkpt lat="34.897291" lon="32.9217462"><ele>1074.4</ele><time>2015-04-29T13:03:40.0000000+00:00</time></trkpt><trkpt lat="34.8973671" lon="32.9217152"><ele>1073.6</ele><time>2015-04-29T13:03:41.0000000+00:00</time></trkpt><trkpt lat="34.8974503" lon="32.9216854"><ele>1073.2</ele><time>2015-04-29T13:03:42.0000000+00:00</time></trkpt><trkpt lat="34.8975273" lon="32.9216443"><ele>1072.5</ele><time>2015-04-29T13:03:43.0000000+00:00</time></trkpt><trkpt lat="34.8975909" lon="32.9215703"><ele>1072.1</ele><time>2015-04-29T13:03:44.0000000+00:00</time></trkpt><trkpt lat="34.8976593" lon="32.9214728"><ele>1071.9</ele><time>2015-04-29T13:03:45.0000000+00:00</time></trkpt><trkpt lat="34.8977154" lon="32.921377"><ele>1070.9</ele><time>2015-04-29T13:03:46.0000000+00:00</time></trkpt><trkpt lat="34.8977657" lon="32.9212732"><ele>1069.8</ele><time>2015-04-29T13:03:47.0000000+00:00</time></trkpt><trkpt lat="34.8978156" lon="32.921171"><ele>1068.8</ele><time>2015-04-29T13:03:48.0000000+00:00</time></trkpt><trkpt lat="34.8978724" lon="32.9210609"><ele>1067.8</ele><time>2015-04-29T13:03:49.0000000+00:00</time></trkpt><trkpt lat="34.8979372" lon="32.920974"><ele>1067.3</ele><time>2015-04-29T13:03:50.0000000+00:00</time></trkpt><trkpt lat="34.8980156" lon="32.9208663"><ele>1066.0</ele><time>2015-04-29T13:03:51.0000000+00:00</time></trkpt><trkpt lat="34.8980974" lon="32.9207794"><ele>1064.4</ele><time>2015-04-29T13:03:52.0000000+00:00</time></trkpt><trkpt lat="34.8981799" lon="32.9206966"><ele>1063.1</ele><time>2015-04-29T13:03:53.0000000+00:00</time></trkpt><trkpt lat="34.8982501" lon="32.9206198"><ele>1061.9</ele><time>2015-04-29T13:03:54.0000000+00:00</time></trkpt><trkpt lat="34.8983151" lon="32.9205305"><ele>1060.3</ele><time>2015-04-29T13:03:55.0000000+00:00</time></trkpt><trkpt lat="34.8983748" lon="32.9204338"><ele>1059.6</ele><time>2015-04-29T13:03:56.0000000+00:00</time></trkpt><trkpt lat="34.8984198" lon="32.9202959"><ele>1058.7</ele><time>2015-04-29T13:03:57.0000000+00:00</time></trkpt><trkpt lat="34.8984588" lon="32.9202082"><ele>1057.2</ele><time>2015-04-29T13:03:58.0000000+00:00</time></trkpt><trkpt lat="34.8985008" lon="32.9201239"><ele>1056.5</ele><time>2015-04-29T13:03:59.0000000+00:00</time></trkpt><trkpt lat="34.8985471" lon="32.9200635"><ele>1055.6</ele><time>2015-04-29T13:04:00.0000000+00:00</time></trkpt><trkpt lat="34.8985943" lon="32.9200275"><ele>1054.7</ele><time>2015-04-29T13:04:01.0000000+00:00</time></trkpt><trkpt lat="34.8986461" lon="32.9199982"><ele>1054.2</ele><time>2015-04-29T13:04:02.0000000+00:00</time></trkpt><trkpt lat="34.8987452" lon="32.9200478"><ele>1053.4</ele><time>2015-04-29T13:04:04.0000000+00:00</time></trkpt><trkpt lat="34.8987851" lon="32.9200841"><ele>1052.6</ele><time>2015-04-29T13:04:05.0000000+00:00</time></trkpt><trkpt lat="34.8988356" lon="32.920118"><ele>1051.7</ele><time>2015-04-29T13:04:06.0000000+00:00</time></trkpt><trkpt lat="34.8988796" lon="32.9201637"><ele>1051.7</ele><time>2015-04-29T13:04:07.0000000+00:00</time></trkpt><trkpt lat="34.8989325" lon="32.9202329"><ele>1050.7</ele><time>2015-04-29T13:04:08.0000000+00:00</time></trkpt><trkpt lat="34.8989787" lon="32.9203057"><ele>1050.3</ele><time>2015-04-29T13:04:09.0000000+00:00</time></trkpt><trkpt lat="34.8990224" lon="32.9203894"><ele>1049.5</ele><time>2015-04-29T13:04:10.0000000+00:00</time></trkpt><trkpt lat="34.8990797" lon="32.920467"><ele>1049.1</ele><time>2015-04-29T13:04:11.0000000+00:00</time></trkpt><trkpt lat="34.8991245" lon="32.9205562"><ele>1048.5</ele><time>2015-04-29T13:04:12.0000000+00:00</time></trkpt><trkpt lat="34.8991682" lon="32.9206355"><ele>1047.6</ele><time>2015-04-29T13:04:13.0000000+00:00</time></trkpt><trkpt lat="34.8992319" lon="32.9207028"><ele>1046.7</ele><time>2015-04-29T13:04:14.0000000+00:00</time></trkpt><trkpt lat="34.8993" lon="32.9207808"><ele>1046.7</ele><time>2015-04-29T13:04:15.0000000+00:00</time></trkpt><trkpt lat="34.8993563" lon="32.9208533"><ele>1047.2</ele><time>2015-04-29T13:04:16.0000000+00:00</time></trkpt><trkpt lat="34.8994103" lon="32.9209255"><ele>1048.0</ele><time>2015-04-29T13:04:17.0000000+00:00</time></trkpt><trkpt lat="34.8994662" lon="32.9209987"><ele>1047.9</ele><time>2015-04-29T13:04:18.0000000+00:00</time></trkpt><trkpt lat="34.8995189" lon="32.9210842"><ele>1047.3</ele><time>2015-04-29T13:04:19.0000000+00:00</time></trkpt><trkpt lat="34.8995797" lon="32.9211636"><ele>1046.5</ele><time>2015-04-29T13:04:20.0000000+00:00</time></trkpt><trkpt lat="34.8996302" lon="32.9212438"><ele>1046.7</ele><time>2015-04-29T13:04:21.0000000+00:00</time></trkpt><trkpt lat="34.899678" lon="32.9213335"><ele>1046.2</ele><time>2015-04-29T13:04:22.0000000+00:00</time></trkpt><trkpt lat="34.8997315" lon="32.9214185"><ele>1045.5</ele><time>2015-04-29T13:04:23.0000000+00:00</time></trkpt><trkpt lat="34.8997782" lon="32.9214972"><ele>1045.6</ele><time>2015-04-29T13:04:24.0000000+00:00</time></trkpt><trkpt lat="34.8998227" lon="32.9215741"><ele>1046.2</ele><time>2015-04-29T13:04:25.0000000+00:00</time></trkpt><trkpt lat="34.8998527" lon="32.9216511"><ele>1046.5</ele><time>2015-04-29T13:04:26.0000000+00:00</time></trkpt><trkpt lat="34.8998828" lon="32.9217222"><ele>1046.6</ele><time>2015-04-29T13:04:27.0000000+00:00</time></trkpt><trkpt lat="34.8999124" lon="32.9217988"><ele>1046.7</ele><time>2015-04-29T13:04:28.0000000+00:00</time></trkpt><trkpt lat="34.8999305" lon="32.9218649"><ele>1047.2</ele><time>2015-04-29T13:04:29.0000000+00:00</time></trkpt><trkpt lat="34.8999445" lon="32.9219214"><ele>1048.0</ele><time>2015-04-29T13:04:30.0000000+00:00</time></trkpt><trkpt lat="34.8999633" lon="32.9219728"><ele>1048.4</ele><time>2015-04-29T13:04:31.0000000+00:00</time></trkpt><trkpt lat="34.8999746" lon="32.922038"><ele>1048.1</ele><time>2015-04-29T13:04:32.0000000+00:00</time></trkpt><trkpt lat="34.8999906" lon="32.9220967"><ele>1048.9</ele><time>2015-04-29T13:04:33.0000000+00:00</time></trkpt><trkpt lat="34.9000003" lon="32.9221556"><ele>1048.3</ele><time>2015-04-29T13:04:34.0000000+00:00</time></trkpt><trkpt lat="34.9000458" lon="32.9222368"><ele>1049.9</ele><time>2015-04-29T13:04:36.0000000+00:00</time></trkpt><trkpt lat="34.9000578" lon="32.9223364"><ele>1050.8</ele><time>2015-04-29T13:04:37.0000000+00:00</time></trkpt><trkpt lat="34.9000791" lon="32.9224139"><ele>1055.4</ele><time>2015-04-29T13:04:41.0000000+00:00</time></trkpt><trkpt lat="34.9000806" lon="32.9224735"><ele>1055.7</ele><time>2015-04-29T13:04:43.0000000+00:00</time></trkpt><trkpt lat="34.9000805" lon="32.9225507"><ele>1058.8</ele><time>2015-04-29T13:04:46.0000000+00:00</time></trkpt><trkpt lat="34.9000884" lon="32.9226184"><ele>1060.5</ele><time>2015-04-29T13:04:49.0000000+00:00</time></trkpt><trkpt lat="34.9000822" lon="32.9226751"><ele>1061.4</ele><time>2015-04-29T13:04:52.0000000+00:00</time></trkpt><trkpt lat="34.9000953" lon="32.9227295"><ele>1059.9</ele><time>2015-04-29T13:04:56.0000000+00:00</time></trkpt><trkpt lat="34.9001032" lon="32.9227944"><ele>1056.2</ele><time>2015-04-29T13:05:00.0000000+00:00</time></trkpt><trkpt lat="34.9001119" lon="32.9228483"><ele>1053.6</ele><time>2015-04-29T13:05:03.0000000+00:00</time></trkpt><trkpt lat="34.9001214" lon="32.9229038"><ele>1054.1</ele><time>2015-04-29T13:05:06.0000000+00:00</time></trkpt><trkpt lat="34.9001344" lon="32.9229692"><ele>1052.5</ele><time>2015-04-29T13:05:10.0000000+00:00</time></trkpt><trkpt lat="34.9001415" lon="32.9230362"><ele>1050.4</ele><time>2015-04-29T13:05:14.0000000+00:00</time></trkpt><trkpt lat="34.9001564" lon="32.9230944"><ele>1048.9</ele><time>2015-04-29T13:05:18.0000000+00:00</time></trkpt><trkpt lat="34.9001695" lon="32.923149"><ele>1051.4</ele><time>2015-04-29T13:05:22.0000000+00:00</time></trkpt><trkpt lat="34.9001764" lon="32.9232032"><ele>1052.6</ele><time>2015-04-29T13:05:26.0000000+00:00</time></trkpt><trkpt lat="34.90018" lon="32.9232705"><ele>1050.1</ele><time>2015-04-29T13:05:31.0000000+00:00</time></trkpt><trkpt lat="34.9001878" lon="32.9233293"><ele>1049.6</ele><time>2015-04-29T13:05:35.0000000+00:00</time></trkpt><trkpt lat="34.9002017" lon="32.9233987"><ele>1048.1</ele><time>2015-04-29T13:05:39.0000000+00:00</time></trkpt><trkpt lat="34.9002058" lon="32.9234556"><ele>1047.8</ele><time>2015-04-29T13:05:42.0000000+00:00</time></trkpt><trkpt lat="34.9002208" lon="32.9235161"><ele>1050.1</ele><time>2015-04-29T13:05:45.0000000+00:00</time></trkpt><trkpt lat="34.9002439" lon="32.9235708"><ele>1050.8</ele><time>2015-04-29T13:05:48.0000000+00:00</time></trkpt><trkpt lat="34.9002645" lon="32.9236211"><ele>1049.9</ele><time>2015-04-29T13:05:51.0000000+00:00</time></trkpt><trkpt lat="34.9002826" lon="32.9236765"><ele>1049.5</ele><time>2015-04-29T13:05:54.0000000+00:00</time></trkpt><trkpt lat="34.9002975" lon="32.9237394"><ele>1049.9</ele><time>2015-04-29T13:05:57.0000000+00:00</time></trkpt><trkpt lat="34.9003154" lon="32.923805"><ele>1050.5</ele><time>2015-04-29T13:06:00.0000000+00:00</time></trkpt><trkpt lat="34.9003333" lon="32.9238744"><ele>1052.0</ele><time>2015-04-29T13:06:03.0000000+00:00</time></trkpt><trkpt lat="34.9003704" lon="32.9239409"><ele>1054.4</ele><time>2015-04-29T13:06:06.0000000+00:00</time></trkpt><trkpt lat="34.9004038" lon="32.924001"><ele>1055.9</ele><time>2015-04-29T13:06:08.0000000+00:00</time></trkpt><trkpt lat="34.9004405" lon="32.9240632"><ele>1057.6</ele><time>2015-04-29T13:06:10.0000000+00:00</time></trkpt><trkpt lat="34.9004811" lon="32.9241224"><ele>1058.2</ele><time>2015-04-29T13:06:12.0000000+00:00</time></trkpt><trkpt lat="34.9005214" lon="32.9241805"><ele>1059.1</ele><time>2015-04-29T13:06:14.0000000+00:00</time></trkpt><trkpt lat="34.9005584" lon="32.9242367"><ele>1059.4</ele><time>2015-04-29T13:06:16.0000000+00:00</time></trkpt><trkpt lat="34.9005983" lon="32.9242881"><ele>1059.4</ele><time>2015-04-29T13:06:18.0000000+00:00</time></trkpt><trkpt lat="34.9006262" lon="32.9243506"><ele>1060.9</ele><time>2015-04-29T13:06:20.0000000+00:00</time></trkpt><trkpt lat="34.9006442" lon="32.9244158"><ele>1061.6</ele><time>2015-04-29T13:06:22.0000000+00:00</time></trkpt><trkpt lat="34.9006524" lon="32.9244812"><ele>1063.0</ele><time>2015-04-29T13:06:24.0000000+00:00</time></trkpt><trkpt lat="34.9006516" lon="32.9245477"><ele>1064.6</ele><time>2015-04-29T13:06:26.0000000+00:00</time></trkpt><trkpt lat="34.9006406" lon="32.9246156"><ele>1067.0</ele><time>2015-04-29T13:06:28.0000000+00:00</time></trkpt><trkpt lat="34.9006297" lon="32.9246803"><ele>1066.3</ele><time>2015-04-29T13:06:30.0000000+00:00</time></trkpt><trkpt lat="34.9006157" lon="32.9247455"><ele>1067.2</ele><time>2015-04-29T13:06:32.0000000+00:00</time></trkpt><trkpt lat="34.9005977" lon="32.9248046"><ele>1067.6</ele><time>2015-04-29T13:06:34.0000000+00:00</time></trkpt><trkpt lat="34.9005824" lon="32.9248624"><ele>1067.5</ele><time>2015-04-29T13:06:36.0000000+00:00</time></trkpt><trkpt lat="34.900563" lon="32.9249357"><ele>1067.9</ele><time>2015-04-29T13:06:39.0000000+00:00</time></trkpt><trkpt lat="34.900541" lon="32.9249904"><ele>1067.0</ele><time>2015-04-29T13:06:43.0000000+00:00</time></trkpt><trkpt lat="34.9005163" lon="32.9250521"><ele>1068.0</ele><time>2015-04-29T13:06:47.0000000+00:00</time></trkpt><trkpt lat="34.9004823" lon="32.9251076"><ele>1069.2</ele><time>2015-04-29T13:06:50.0000000+00:00</time></trkpt><trkpt lat="34.9004449" lon="32.9251733"><ele>1070.1</ele><time>2015-04-29T13:06:53.0000000+00:00</time></trkpt><trkpt lat="34.900423" lon="32.9252224"><ele>1069.8</ele><time>2015-04-29T13:06:55.0000000+00:00</time></trkpt><trkpt lat="34.9004013" lon="32.925278"><ele>1069.8</ele><time>2015-04-29T13:06:57.0000000+00:00</time></trkpt><trkpt lat="34.9003855" lon="32.9253315"><ele>1070.5</ele><time>2015-04-29T13:06:59.0000000+00:00</time></trkpt><trkpt lat="34.900378" lon="32.9254064"><ele>1069.1</ele><time>2015-04-29T13:07:02.0000000+00:00</time></trkpt><trkpt lat="34.9003894" lon="32.9254831"><ele>1068.7</ele><time>2015-04-29T13:07:05.0000000+00:00</time></trkpt><trkpt lat="34.9004082" lon="32.9255614"><ele>1069.8</ele><time>2015-04-29T13:07:08.0000000+00:00</time></trkpt><trkpt lat="34.9004305" lon="32.9256124"><ele>1070.3</ele><time>2015-04-29T13:07:10.0000000+00:00</time></trkpt><trkpt lat="34.9004627" lon="32.9256594"><ele>1069.6</ele><time>2015-04-29T13:07:12.0000000+00:00</time></trkpt><trkpt lat="34.900496" lon="32.9257039"><ele>1069.7</ele><time>2015-04-29T13:07:14.0000000+00:00</time></trkpt><trkpt lat="34.9005288" lon="32.9257499"><ele>1070.5</ele><time>2015-04-29T13:07:16.0000000+00:00</time></trkpt><trkpt lat="34.9005627" lon="32.9257999"><ele>1071.2</ele><time>2015-04-29T13:07:18.0000000+00:00</time></trkpt><trkpt lat="34.9006009" lon="32.9258468"><ele>1070.9</ele><time>2015-04-29T13:07:20.0000000+00:00</time></trkpt><trkpt lat="34.9006394" lon="32.9258899"><ele>1070.5</ele><time>2015-04-29T13:07:22.0000000+00:00</time></trkpt><trkpt lat="34.900676" lon="32.9259302"><ele>1071.5</ele><time>2015-04-29T13:07:24.0000000+00:00</time></trkpt><trkpt lat="34.9007094" lon="32.9259715"><ele>1071.2</ele><time>2015-04-29T13:07:26.0000000+00:00</time></trkpt><trkpt lat="34.9007447" lon="32.9260103"><ele>1071.1</ele><time>2015-04-29T13:07:28.0000000+00:00</time></trkpt><trkpt lat="34.9007796" lon="32.926045"><ele>1071.6</ele><time>2015-04-29T13:07:30.0000000+00:00</time></trkpt><trkpt lat="34.9008294" lon="32.9260963"><ele>1071.7</ele><time>2015-04-29T13:07:33.0000000+00:00</time></trkpt><trkpt lat="34.9008743" lon="32.9261414"><ele>1071.1</ele><time>2015-04-29T13:07:36.0000000+00:00</time></trkpt><trkpt lat="34.9009113" lon="32.9261937"><ele>1071.9</ele><time>2015-04-29T13:07:39.0000000+00:00</time></trkpt><trkpt lat="34.9009572" lon="32.9262391"><ele>1072.9</ele><time>2015-04-29T13:07:42.0000000+00:00</time></trkpt><trkpt lat="34.9009978" lon="32.9262914"><ele>1074.4</ele><time>2015-04-29T13:07:45.0000000+00:00</time></trkpt><trkpt lat="34.9010462" lon="32.9263439"><ele>1073.6</ele><time>2015-04-29T13:07:48.0000000+00:00</time></trkpt><trkpt lat="34.9011004" lon="32.926389"><ele>1073.9</ele><time>2015-04-29T13:07:51.0000000+00:00</time></trkpt><trkpt lat="34.9011345" lon="32.9264283"><ele>1073.3</ele><time>2015-04-29T13:07:53.0000000+00:00</time></trkpt><trkpt lat="34.9011696" lon="32.9264639"><ele>1072.4</ele><time>2015-04-29T13:07:55.0000000+00:00</time></trkpt><trkpt lat="34.9012086" lon="32.9265018"><ele>1072.7</ele><time>2015-04-29T13:07:57.0000000+00:00</time></trkpt><trkpt lat="34.9012466" lon="32.9265426"><ele>1073.5</ele><time>2015-04-29T13:07:59.0000000+00:00</time></trkpt><trkpt lat="34.9012841" lon="32.9265843"><ele>1073.7</ele><time>2015-04-29T13:08:01.0000000+00:00</time></trkpt><trkpt lat="34.9013228" lon="32.9266275"><ele>1073.7</ele><time>2015-04-29T13:08:03.0000000+00:00</time></trkpt><trkpt lat="34.9013657" lon="32.9266746"><ele>1074.5</ele><time>2015-04-29T13:08:05.0000000+00:00</time></trkpt><trkpt lat="34.9014127" lon="32.9267143"><ele>1073.5</ele><time>2015-04-29T13:08:07.0000000+00:00</time></trkpt><trkpt lat="34.9014671" lon="32.9267524"><ele>1073.2</ele><time>2015-04-29T13:08:09.0000000+00:00</time></trkpt><trkpt lat="34.9015315" lon="32.926797"><ele>1073.6</ele><time>2015-04-29T13:08:11.0000000+00:00</time></trkpt><trkpt lat="34.9015958" lon="32.9268447"><ele>1073.0</ele><time>2015-04-29T13:08:13.0000000+00:00</time></trkpt><trkpt lat="34.9016608" lon="32.9268846"><ele>1073.6</ele><time>2015-04-29T13:08:15.0000000+00:00</time></trkpt><trkpt lat="34.9017298" lon="32.9269311"><ele>1073.7</ele><time>2015-04-29T13:08:17.0000000+00:00</time></trkpt><trkpt lat="34.9017851" lon="32.9269836"><ele>1073.2</ele><time>2015-04-29T13:08:18.0000000+00:00</time></trkpt><trkpt lat="34.9018207" lon="32.9270292"><ele>1073.5</ele><time>2015-04-29T13:08:19.0000000+00:00</time></trkpt><trkpt lat="34.9018668" lon="32.9270867"><ele>1073.6</ele><time>2015-04-29T13:08:20.0000000+00:00</time></trkpt><trkpt lat="34.9019083" lon="32.9271489"><ele>1073.7</ele><time>2015-04-29T13:08:21.0000000+00:00</time></trkpt><trkpt lat="34.9019532" lon="32.9272089"><ele>1073.7</ele><time>2015-04-29T13:08:22.0000000+00:00</time></trkpt><trkpt lat="34.902007" lon="32.927268"><ele>1073.7</ele><time>2015-04-29T13:08:23.0000000+00:00</time></trkpt><trkpt lat="34.9020528" lon="32.9273467"><ele>1072.8</ele><time>2015-04-29T13:08:24.0000000+00:00</time></trkpt><trkpt lat="34.9020778" lon="32.9274357"><ele>1072.3</ele><time>2015-04-29T13:08:25.0000000+00:00</time></trkpt><trkpt lat="34.9020832" lon="32.9275355"><ele>1073.0</ele><time>2015-04-29T13:08:26.0000000+00:00</time></trkpt><trkpt lat="34.9020657" lon="32.927643"><ele>1074.4</ele><time>2015-04-29T13:08:27.0000000+00:00</time></trkpt><trkpt lat="34.9020276" lon="32.9277315"><ele>1075.6</ele><time>2015-04-29T13:08:28.0000000+00:00</time></trkpt><trkpt lat="34.9019773" lon="32.9278164"><ele>1076.2</ele><time>2015-04-29T13:08:29.0000000+00:00</time></trkpt><trkpt lat="34.901919" lon="32.9278933"><ele>1078.0</ele><time>2015-04-29T13:08:30.0000000+00:00</time></trkpt><trkpt lat="34.9018536" lon="32.9279405"><ele>1078.9</ele><time>2015-04-29T13:08:31.0000000+00:00</time></trkpt><trkpt lat="34.9017809" lon="32.9279773"><ele>1079.3</ele><time>2015-04-29T13:08:32.0000000+00:00</time></trkpt><trkpt lat="34.9017221" lon="32.9280215"><ele>1080.0</ele><time>2015-04-29T13:08:33.0000000+00:00</time></trkpt><trkpt lat="34.9016756" lon="32.9280824"><ele>1080.4</ele><time>2015-04-29T13:08:34.0000000+00:00</time></trkpt><trkpt lat="34.901632" lon="32.928141"><ele>1080.1</ele><time>2015-04-29T13:08:35.0000000+00:00</time></trkpt><trkpt lat="34.9015827" lon="32.928208"><ele>1078.9</ele><time>2015-04-29T13:08:36.0000000+00:00</time></trkpt><trkpt lat="34.901545" lon="32.9282839"><ele>1078.8</ele><time>2015-04-29T13:08:37.0000000+00:00</time></trkpt><trkpt lat="34.9015232" lon="32.9283522"><ele>1079.3</ele><time>2015-04-29T13:08:38.0000000+00:00</time></trkpt><trkpt lat="34.9015025" lon="32.9284221"><ele>1079.5</ele><time>2015-04-29T13:08:39.0000000+00:00</time></trkpt><trkpt lat="34.9014984" lon="32.928493"><ele>1079.2</ele><time>2015-04-29T13:08:40.0000000+00:00</time></trkpt><trkpt lat="34.9015121" lon="32.9285467"><ele>1079.5</ele><time>2015-04-29T13:08:41.0000000+00:00</time></trkpt><trkpt lat="34.9015285" lon="32.928606"><ele>1079.1</ele><time>2015-04-29T13:08:42.0000000+00:00</time></trkpt><trkpt lat="34.9015562" lon="32.9286959"><ele>1080.4</ele><time>2015-04-29T13:08:44.0000000+00:00</time></trkpt><trkpt lat="34.9016124" lon="32.9287629"><ele>1079.2</ele><time>2015-04-29T13:08:46.0000000+00:00</time></trkpt><trkpt lat="34.9016702" lon="32.9288385"><ele>1077.9</ele><time>2015-04-29T13:08:48.0000000+00:00</time></trkpt><trkpt lat="34.9017045" lon="32.9288792"><ele>1076.8</ele><time>2015-04-29T13:08:49.0000000+00:00</time></trkpt><trkpt lat="34.9017408" lon="32.9289185"><ele>1075.8</ele><time>2015-04-29T13:08:50.0000000+00:00</time></trkpt><trkpt lat="34.9017973" lon="32.9289494"><ele>1074.8</ele><time>2015-04-29T13:08:51.0000000+00:00</time></trkpt><trkpt lat="34.9018586" lon="32.9289758"><ele>1073.8</ele><time>2015-04-29T13:08:52.0000000+00:00</time></trkpt><trkpt lat="34.9019228" lon="32.9290088"><ele>1072.8</ele><time>2015-04-29T13:08:53.0000000+00:00</time></trkpt><trkpt lat="34.9019843" lon="32.9290399"><ele>1071.8</ele><time>2015-04-29T13:08:54.0000000+00:00</time></trkpt><trkpt lat="34.9020485" lon="32.9290763"><ele>1071.8</ele><time>2015-04-29T13:08:55.0000000+00:00</time></trkpt><trkpt lat="34.9021308" lon="32.9290838"><ele>1071.3</ele><time>2015-04-29T13:08:56.0000000+00:00</time></trkpt><trkpt lat="34.9022074" lon="32.9290654"><ele>1071.0</ele><time>2015-04-29T13:08:57.0000000+00:00</time></trkpt><trkpt lat="34.902295" lon="32.9290374"><ele>1069.9</ele><time>2015-04-29T13:08:58.0000000+00:00</time></trkpt><trkpt lat="34.9023785" lon="32.9289975"><ele>1068.8</ele><time>2015-04-29T13:08:59.0000000+00:00</time></trkpt><trkpt lat="34.9024845" lon="32.928943"><ele>1068.3</ele><time>2015-04-29T13:09:00.0000000+00:00</time></trkpt><trkpt lat="34.9025755" lon="32.928879"><ele>1068.0</ele><time>2015-04-29T13:09:01.0000000+00:00</time></trkpt><trkpt lat="34.9026554" lon="32.9288169"><ele>1067.9</ele><time>2015-04-29T13:09:02.0000000+00:00</time></trkpt><trkpt lat="34.9027315" lon="32.9287604"><ele>1067.8</ele><time>2015-04-29T13:09:03.0000000+00:00</time></trkpt><trkpt lat="34.9028318" lon="32.9287304"><ele>1067.8</ele><time>2015-04-29T13:09:04.0000000+00:00</time></trkpt><trkpt lat="34.902929" lon="32.9287404"><ele>1067.3</ele><time>2015-04-29T13:09:05.0000000+00:00</time></trkpt><trkpt lat="34.9030254" lon="32.9287656"><ele>1068.5</ele><time>2015-04-29T13:09:06.0000000+00:00</time></trkpt><trkpt lat="34.903108" lon="32.9288164"><ele>1070.1</ele><time>2015-04-29T13:09:07.0000000+00:00</time></trkpt><trkpt lat="34.903191" lon="32.9288699"><ele>1071.0</ele><time>2015-04-29T13:09:08.0000000+00:00</time></trkpt><trkpt lat="34.9032761" lon="32.9289086"><ele>1071.4</ele><time>2015-04-29T13:09:09.0000000+00:00</time></trkpt><trkpt lat="34.9033619" lon="32.9289128"><ele>1071.6</ele><time>2015-04-29T13:09:10.0000000+00:00</time></trkpt><trkpt lat="34.9034553" lon="32.9289139"><ele>1071.7</ele><time>2015-04-29T13:09:11.0000000+00:00</time></trkpt><trkpt lat="34.9035557" lon="32.9288958"><ele>1071.2</ele><time>2015-04-29T13:09:12.0000000+00:00</time></trkpt><trkpt lat="34.9036418" lon="32.9288614"><ele>1072.0</ele><time>2015-04-29T13:09:13.0000000+00:00</time></trkpt><trkpt lat="34.9037251" lon="32.928833"><ele>1072.4</ele><time>2015-04-29T13:09:14.0000000+00:00</time></trkpt><trkpt lat="34.9038177" lon="32.92882"><ele>1071.6</ele><time>2015-04-29T13:09:15.0000000+00:00</time></trkpt><trkpt lat="34.9039139" lon="32.9288465"><ele>1071.7</ele><time>2015-04-29T13:09:16.0000000+00:00</time></trkpt><trkpt lat="34.9040048" lon="32.92887"><ele>1071.2</ele><time>2015-04-29T13:09:17.0000000+00:00</time></trkpt><trkpt lat="34.9040945" lon="32.9289224"><ele>1070.5</ele><time>2015-04-29T13:09:18.0000000+00:00</time></trkpt><trkpt lat="34.9041666" lon="32.9289729"><ele>1069.6</ele><time>2015-04-29T13:09:19.0000000+00:00</time></trkpt><trkpt lat="34.9042105" lon="32.9290389"><ele>1068.7</ele><time>2015-04-29T13:09:20.0000000+00:00</time></trkpt><trkpt lat="34.9042376" lon="32.9291127"><ele>1067.7</ele><time>2015-04-29T13:09:21.0000000+00:00</time></trkpt><trkpt lat="34.9042074" lon="32.9291729"><ele>1066.2</ele><time>2015-04-29T13:09:22.0000000+00:00</time></trkpt><trkpt lat="34.9041797" lon="32.9292381"><ele>1065.0</ele><time>2015-04-29T13:09:23.0000000+00:00</time></trkpt><trkpt lat="34.9041508" lon="32.9293021"><ele>1063.9</ele><time>2015-04-29T13:09:24.0000000+00:00</time></trkpt><trkpt lat="34.9041078" lon="32.9293708"><ele>1062.8</ele><time>2015-04-29T13:09:25.0000000+00:00</time></trkpt><trkpt lat="34.9040792" lon="32.9294449"><ele>1061.8</ele><time>2015-04-29T13:09:26.0000000+00:00</time></trkpt><trkpt lat="34.9040508" lon="32.9295094"><ele>1061.8</ele><time>2015-04-29T13:09:27.0000000+00:00</time></trkpt><trkpt lat="34.9040274" lon="32.9295805"><ele>1061.8</ele><time>2015-04-29T13:09:28.0000000+00:00</time></trkpt><trkpt lat="34.9039988" lon="32.9296467"><ele>1060.8</ele><time>2015-04-29T13:09:29.0000000+00:00</time></trkpt><trkpt lat="34.9039696" lon="32.9297124"><ele>1059.8</ele><time>2015-04-29T13:09:30.0000000+00:00</time></trkpt><trkpt lat="34.9039382" lon="32.9297872"><ele>1058.3</ele><time>2015-04-29T13:09:31.0000000+00:00</time></trkpt><trkpt lat="34.9039018" lon="32.9298559"><ele>1057.5</ele><time>2015-04-29T13:09:32.0000000+00:00</time></trkpt><trkpt lat="34.9038649" lon="32.9299246"><ele>1057.1</ele><time>2015-04-29T13:09:33.0000000+00:00</time></trkpt><trkpt lat="34.9038206" lon="32.9299922"><ele>1057.0</ele><time>2015-04-29T13:09:34.0000000+00:00</time></trkpt><trkpt lat="34.9037849" lon="32.930064"><ele>1056.9</ele><time>2015-04-29T13:09:35.0000000+00:00</time></trkpt><trkpt lat="34.9037446" lon="32.9301477"><ele>1057.3</ele><time>2015-04-29T13:09:36.0000000+00:00</time></trkpt><trkpt lat="34.9037329" lon="32.9302345"><ele>1056.0</ele><time>2015-04-29T13:09:37.0000000+00:00</time></trkpt><trkpt lat="34.9037342" lon="32.9303308"><ele>1055.4</ele><time>2015-04-29T13:09:38.0000000+00:00</time></trkpt><trkpt lat="34.9037534" lon="32.9304059"><ele>1055.1</ele><time>2015-04-29T13:09:39.0000000+00:00</time></trkpt><trkpt lat="34.9037913" lon="32.9304906"><ele>1053.9</ele><time>2015-04-29T13:09:40.0000000+00:00</time></trkpt><trkpt lat="34.9038391" lon="32.9305659"><ele>1053.3</ele><time>2015-04-29T13:09:41.0000000+00:00</time></trkpt><trkpt lat="34.9038775" lon="32.9306365"><ele>1053.6</ele><time>2015-04-29T13:09:42.0000000+00:00</time></trkpt><trkpt lat="34.9039217" lon="32.930708"><ele>1053.7</ele><time>2015-04-29T13:09:43.0000000+00:00</time></trkpt><trkpt lat="34.9039732" lon="32.9307694"><ele>1053.2</ele><time>2015-04-29T13:09:44.0000000+00:00</time></trkpt><trkpt lat="34.9040182" lon="32.9308454"><ele>1053.0</ele><time>2015-04-29T13:09:45.0000000+00:00</time></trkpt><trkpt lat="34.9040696" lon="32.9309123"><ele>1052.4</ele><time>2015-04-29T13:09:46.0000000+00:00</time></trkpt><trkpt lat="34.9041109" lon="32.9309714"><ele>1052.1</ele><time>2015-04-29T13:09:47.0000000+00:00</time></trkpt><trkpt lat="34.9041527" lon="32.9310318"><ele>1051.9</ele><time>2015-04-29T13:09:48.0000000+00:00</time></trkpt><trkpt lat="34.9042113" lon="32.9310857"><ele>1052.3</ele><time>2015-04-29T13:09:49.0000000+00:00</time></trkpt><trkpt lat="34.9042674" lon="32.9311474"><ele>1053.6</ele><time>2015-04-29T13:09:50.0000000+00:00</time></trkpt><trkpt lat="34.9043283" lon="32.9311983"><ele>1053.7</ele><time>2015-04-29T13:09:51.0000000+00:00</time></trkpt><trkpt lat="34.9043971" lon="32.931238"><ele>1052.7</ele><time>2015-04-29T13:09:52.0000000+00:00</time></trkpt><trkpt lat="34.9044601" lon="32.9312673"><ele>1052.2</ele><time>2015-04-29T13:09:53.0000000+00:00</time></trkpt><trkpt lat="34.9045213" lon="32.9312851"><ele>1052.5</ele><time>2015-04-29T13:09:54.0000000+00:00</time></trkpt><trkpt lat="34.9045871" lon="32.9312918"><ele>1052.6</ele><time>2015-04-29T13:09:55.0000000+00:00</time></trkpt><trkpt lat="34.9046542" lon="32.9312978"><ele>1053.2</ele><time>2015-04-29T13:09:56.0000000+00:00</time></trkpt><trkpt lat="34.9047191" lon="32.9313079"><ele>1053.5</ele><time>2015-04-29T13:09:57.0000000+00:00</time></trkpt><trkpt lat="34.9047852" lon="32.9313134"><ele>1053.1</ele><time>2015-04-29T13:09:58.0000000+00:00</time></trkpt><trkpt lat="34.9048456" lon="32.9313328"><ele>1052.9</ele><time>2015-04-29T13:09:59.0000000+00:00</time></trkpt><trkpt lat="34.90491" lon="32.9313499"><ele>1052.9</ele><time>2015-04-29T13:10:00.0000000+00:00</time></trkpt><trkpt lat="34.9049711" lon="32.93137"><ele>1051.8</ele><time>2015-04-29T13:10:01.0000000+00:00</time></trkpt><trkpt lat="34.9050318" lon="32.9313903"><ele>1051.3</ele><time>2015-04-29T13:10:02.0000000+00:00</time></trkpt><trkpt lat="34.90509" lon="32.931408"><ele>1051.5</ele><time>2015-04-29T13:10:03.0000000+00:00</time></trkpt><trkpt lat="34.905146" lon="32.9314076"><ele>1051.1</ele><time>2015-04-29T13:10:04.0000000+00:00</time></trkpt><trkpt lat="34.9051992" lon="32.9314003"><ele>1051.0</ele><time>2015-04-29T13:10:05.0000000+00:00</time></trkpt><trkpt lat="34.9052598" lon="32.9313967"><ele>1049.9</ele><time>2015-04-29T13:10:06.0000000+00:00</time></trkpt><trkpt lat="34.9053118" lon="32.9313926"><ele>1050.3</ele><time>2015-04-29T13:10:07.0000000+00:00</time></trkpt><trkpt lat="34.9053675" lon="32.9313806"><ele>1051.0</ele><time>2015-04-29T13:10:08.0000000+00:00</time></trkpt><trkpt lat="34.9054204" lon="32.931373"><ele>1050.9</ele><time>2015-04-29T13:10:09.0000000+00:00</time></trkpt><trkpt lat="34.9054744" lon="32.9313686"><ele>1051.3</ele><time>2015-04-29T13:10:10.0000000+00:00</time></trkpt><trkpt lat="34.9055269" lon="32.9313723"><ele>1052.5</ele><time>2015-04-29T13:10:11.0000000+00:00</time></trkpt><trkpt lat="34.9055694" lon="32.931395"><ele>1052.7</ele><time>2015-04-29T13:10:12.0000000+00:00</time></trkpt><trkpt lat="34.9056269" lon="32.9314648"><ele>1054.0</ele><time>2015-04-29T13:10:14.0000000+00:00</time></trkpt><trkpt lat="34.9056427" lon="32.9315725"><ele>1053.8</ele><time>2015-04-29T13:10:16.0000000+00:00</time></trkpt><trkpt lat="34.9056352" lon="32.9316695"><ele>1053.5</ele><time>2015-04-29T13:10:18.0000000+00:00</time></trkpt><trkpt lat="34.9056207" lon="32.9317751"><ele>1053.0</ele><time>2015-04-29T13:10:20.0000000+00:00</time></trkpt><trkpt lat="34.9056018" lon="32.9318708"><ele>1053.8</ele><time>2015-04-29T13:10:22.0000000+00:00</time></trkpt><trkpt lat="34.9055806" lon="32.9319576"><ele>1052.5</ele><time>2015-04-29T13:10:24.0000000+00:00</time></trkpt><trkpt lat="34.9055597" lon="32.9320485"><ele>1054.0</ele><time>2015-04-29T13:10:26.0000000+00:00</time></trkpt><trkpt lat="34.9055376" lon="32.9321443"><ele>1055.3</ele><time>2015-04-29T13:10:28.0000000+00:00</time></trkpt><trkpt lat="34.9055222" lon="32.9322414"><ele>1056.2</ele><time>2015-04-29T13:10:30.0000000+00:00</time></trkpt><trkpt lat="34.9055178" lon="32.932339"><ele>1055.9</ele><time>2015-04-29T13:10:32.0000000+00:00</time></trkpt><trkpt lat="34.9055405" lon="32.9324318"><ele>1056.5</ele><time>2015-04-29T13:10:34.0000000+00:00</time></trkpt><trkpt lat="34.9055729" lon="32.9325237"><ele>1056.2</ele><time>2015-04-29T13:10:36.0000000+00:00</time></trkpt><trkpt lat="34.9056042" lon="32.9326112"><ele>1055.6</ele><time>2015-04-29T13:10:38.0000000+00:00</time></trkpt><trkpt lat="34.9056359" lon="32.9326976"><ele>1058.0</ele><time>2015-04-29T13:10:40.0000000+00:00</time></trkpt><trkpt lat="34.9056657" lon="32.9327815"><ele>1058.6</ele><time>2015-04-29T13:10:42.0000000+00:00</time></trkpt><trkpt lat="34.9056946" lon="32.9328658"><ele>1056.5</ele><time>2015-04-29T13:10:44.0000000+00:00</time></trkpt><trkpt lat="34.9057188" lon="32.9329475"><ele>1055.9</ele><time>2015-04-29T13:10:46.0000000+00:00</time></trkpt><trkpt lat="34.9057329" lon="32.9330224"><ele>1055.8</ele><time>2015-04-29T13:10:48.0000000+00:00</time></trkpt><trkpt lat="34.9057505" lon="32.9330794"><ele>1055.3</ele><time>2015-04-29T13:10:50.0000000+00:00</time></trkpt><trkpt lat="34.9057795" lon="32.9331491"><ele>1054.3</ele><time>2015-04-29T13:10:53.0000000+00:00</time></trkpt><trkpt lat="34.9058038" lon="32.9332201"><ele>1054.1</ele><time>2015-04-29T13:10:56.0000000+00:00</time></trkpt><trkpt lat="34.9058274" lon="32.933272"><ele>1053.8</ele><time>2015-04-29T13:10:58.0000000+00:00</time></trkpt><trkpt lat="34.9058424" lon="32.933354"><ele>1055.3</ele><time>2015-04-29T13:11:00.0000000+00:00</time></trkpt><trkpt lat="34.9058559" lon="32.9334414"><ele>1055.6</ele><time>2015-04-29T13:11:02.0000000+00:00</time></trkpt><trkpt lat="34.9058774" lon="32.933533"><ele>1053.7</ele><time>2015-04-29T13:11:04.0000000+00:00</time></trkpt><trkpt lat="34.9058991" lon="32.9336185"><ele>1052.0</ele><time>2015-04-29T13:11:06.0000000+00:00</time></trkpt><trkpt lat="34.9059144" lon="32.9336985"><ele>1052.6</ele><time>2015-04-29T13:11:08.0000000+00:00</time></trkpt><trkpt lat="34.9059234" lon="32.9337624"><ele>1054.2</ele><time>2015-04-29T13:11:10.0000000+00:00</time></trkpt><trkpt lat="34.9059304" lon="32.933842"><ele>1053.4</ele><time>2015-04-29T13:11:13.0000000+00:00</time></trkpt><trkpt lat="34.9059304" lon="32.9339052"><ele>1052.4</ele><time>2015-04-29T13:11:15.0000000+00:00</time></trkpt><trkpt lat="34.9059374" lon="32.9339798"><ele>1053.9</ele><time>2015-04-29T13:11:17.0000000+00:00</time></trkpt><trkpt lat="34.9059515" lon="32.9340594"><ele>1056.6</ele><time>2015-04-29T13:11:19.0000000+00:00</time></trkpt><trkpt lat="34.9059685" lon="32.9341435"><ele>1057.7</ele><time>2015-04-29T13:11:21.0000000+00:00</time></trkpt><trkpt lat="34.905997" lon="32.9342208"><ele>1059.3</ele><time>2015-04-29T13:11:23.0000000+00:00</time></trkpt><trkpt lat="34.9060398" lon="32.9342868"><ele>1058.4</ele><time>2015-04-29T13:11:25.0000000+00:00</time></trkpt><trkpt lat="34.9060934" lon="32.9343387"><ele>1058.7</ele><time>2015-04-29T13:11:27.0000000+00:00</time></trkpt><trkpt lat="34.9061554" lon="32.9343843"><ele>1059.5</ele><time>2015-04-29T13:11:29.0000000+00:00</time></trkpt><trkpt lat="34.9062251" lon="32.9344208"><ele>1059.2</ele><time>2015-04-29T13:11:31.0000000+00:00</time></trkpt><trkpt lat="34.9062975" lon="32.9344447"><ele>1058.9</ele><time>2015-04-29T13:11:33.0000000+00:00</time></trkpt><trkpt lat="34.9063762" lon="32.9344761"><ele>1058.8</ele><time>2015-04-29T13:11:35.0000000+00:00</time></trkpt><trkpt lat="34.9064195" lon="32.9344982"><ele>1059.3</ele><time>2015-04-29T13:11:36.0000000+00:00</time></trkpt><trkpt lat="34.9064701" lon="32.9345424"><ele>1060.0</ele><time>2015-04-29T13:11:37.0000000+00:00</time></trkpt><trkpt lat="34.9065251" lon="32.9345967"><ele>1060.1</ele><time>2015-04-29T13:11:39.0000000+00:00</time></trkpt><trkpt lat="34.9065836" lon="32.9346409"><ele>1060.1</ele><time>2015-04-29T13:11:41.0000000+00:00</time></trkpt><trkpt lat="34.9066428" lon="32.934697"><ele>1059.1</ele><time>2015-04-29T13:11:43.0000000+00:00</time></trkpt><trkpt lat="34.9066786" lon="32.9347324"><ele>1058.9</ele><time>2015-04-29T13:11:44.0000000+00:00</time></trkpt><trkpt lat="34.9067488" lon="32.9347932"><ele>1058.6</ele><time>2015-04-29T13:11:46.0000000+00:00</time></trkpt><trkpt lat="34.906829" lon="32.9348322"><ele>1059.2</ele><time>2015-04-29T13:11:48.0000000+00:00</time></trkpt><trkpt lat="34.9069181" lon="32.9348416"><ele>1059.6</ele><time>2015-04-29T13:11:50.0000000+00:00</time></trkpt><trkpt lat="34.9070116" lon="32.9348227"><ele>1061.0</ele><time>2015-04-29T13:11:52.0000000+00:00</time></trkpt><trkpt lat="34.90706" lon="32.9348091"><ele>1061.4</ele><time>2015-04-29T13:11:53.0000000+00:00</time></trkpt><trkpt lat="34.9071057" lon="32.934801"><ele>1062.1</ele><time>2015-04-29T13:11:54.0000000+00:00</time></trkpt><trkpt lat="34.9071569" lon="32.9347844"><ele>1061.9</ele><time>2015-04-29T13:11:55.0000000+00:00</time></trkpt><trkpt lat="34.9072085" lon="32.9347782"><ele>1061.8</ele><time>2015-04-29T13:11:56.0000000+00:00</time></trkpt><trkpt lat="34.9072608" lon="32.9347811"><ele>1062.3</ele><time>2015-04-29T13:11:57.0000000+00:00</time></trkpt><trkpt lat="34.9073134" lon="32.9347808"><ele>1062.5</ele><time>2015-04-29T13:11:58.0000000+00:00</time></trkpt><trkpt lat="34.9073768" lon="32.9347689"><ele>1062.1</ele><time>2015-04-29T13:11:59.0000000+00:00</time></trkpt><trkpt lat="34.907451" lon="32.9347573"><ele>1061.5</ele><time>2015-04-29T13:12:00.0000000+00:00</time></trkpt><trkpt lat="34.9075042" lon="32.9347509"><ele>1061.6</ele><time>2015-04-29T13:12:01.0000000+00:00</time></trkpt><trkpt lat="34.9075625" lon="32.9347513"><ele>1061.2</ele><time>2015-04-29T13:12:02.0000000+00:00</time></trkpt><trkpt lat="34.9076669" lon="32.9347755"><ele>1060.9</ele><time>2015-04-29T13:12:04.0000000+00:00</time></trkpt><trkpt lat="34.9077201" lon="32.9347885"><ele>1060.8</ele><time>2015-04-29T13:12:05.0000000+00:00</time></trkpt><trkpt lat="34.9077792" lon="32.9347987"><ele>1060.8</ele><time>2015-04-29T13:12:06.0000000+00:00</time></trkpt><trkpt lat="34.9078399" lon="32.9348109"><ele>1060.8</ele><time>2015-04-29T13:12:07.0000000+00:00</time></trkpt><trkpt lat="34.9079087" lon="32.9348191"><ele>1060.8</ele><time>2015-04-29T13:12:08.0000000+00:00</time></trkpt><trkpt lat="34.9079648" lon="32.9348337"><ele>1060.8</ele><time>2015-04-29T13:12:09.0000000+00:00</time></trkpt><trkpt lat="34.9080284" lon="32.9348431"><ele>1060.3</ele><time>2015-04-29T13:12:10.0000000+00:00</time></trkpt><trkpt lat="34.9081037" lon="32.9348283"><ele>1059.0</ele><time>2015-04-29T13:12:11.0000000+00:00</time></trkpt><trkpt lat="34.9081777" lon="32.9348216"><ele>1057.9</ele><time>2015-04-29T13:12:12.0000000+00:00</time></trkpt><trkpt lat="34.9082508" lon="32.9348327"><ele>1056.8</ele><time>2015-04-29T13:12:13.0000000+00:00</time></trkpt><trkpt lat="34.9083212" lon="32.9348345"><ele>1056.3</ele><time>2015-04-29T13:12:14.0000000+00:00</time></trkpt><trkpt lat="34.9083976" lon="32.9348252"><ele>1057.5</ele><time>2015-04-29T13:12:15.0000000+00:00</time></trkpt><trkpt lat="34.9084722" lon="32.9348128"><ele>1058.1</ele><time>2015-04-29T13:12:16.0000000+00:00</time></trkpt><trkpt lat="34.9085477" lon="32.9347936"><ele>1058.5</ele><time>2015-04-29T13:12:17.0000000+00:00</time></trkpt><trkpt lat="34.9086217" lon="32.9347846"><ele>1057.6</ele><time>2015-04-29T13:12:18.0000000+00:00</time></trkpt><trkpt lat="34.9087061" lon="32.93478"><ele>1056.7</ele><time>2015-04-29T13:12:19.0000000+00:00</time></trkpt><trkpt lat="34.9087883" lon="32.9348196"><ele>1055.7</ele><time>2015-04-29T13:12:20.0000000+00:00</time></trkpt><trkpt lat="34.908847" lon="32.9348724"><ele>1054.2</ele><time>2015-04-29T13:12:21.0000000+00:00</time></trkpt><trkpt lat="34.9088764" lon="32.9349485"><ele>1053.0</ele><time>2015-04-29T13:12:22.0000000+00:00</time></trkpt><trkpt lat="34.9089034" lon="32.9350462"><ele>1052.9</ele><time>2015-04-29T13:12:23.0000000+00:00</time></trkpt><trkpt lat="34.9089145" lon="32.9351358"><ele>1051.8</ele><time>2015-04-29T13:12:24.0000000+00:00</time></trkpt><trkpt lat="34.9089114" lon="32.9352172"><ele>1051.3</ele><time>2015-04-29T13:12:25.0000000+00:00</time></trkpt><trkpt lat="34.9088941" lon="32.9353015"><ele>1050.5</ele><time>2015-04-29T13:12:26.0000000+00:00</time></trkpt><trkpt lat="34.9088787" lon="32.9353862"><ele>1050.1</ele><time>2015-04-29T13:12:27.0000000+00:00</time></trkpt><trkpt lat="34.9088814" lon="32.9354598"><ele>1050.5</ele><time>2015-04-29T13:12:28.0000000+00:00</time></trkpt><trkpt lat="34.9088801" lon="32.9355439"><ele>1050.6</ele><time>2015-04-29T13:12:29.0000000+00:00</time></trkpt><trkpt lat="34.9089114" lon="32.9356115"><ele>1049.7</ele><time>2015-04-29T13:12:30.0000000+00:00</time></trkpt><trkpt lat="34.908962" lon="32.9356762"><ele>1049.7</ele><time>2015-04-29T13:12:31.0000000+00:00</time></trkpt><trkpt lat="34.9090259" lon="32.9357287"><ele>1050.2</ele><time>2015-04-29T13:12:32.0000000+00:00</time></trkpt><trkpt lat="34.9090925" lon="32.9357668"><ele>1050.0</ele><time>2015-04-29T13:12:33.0000000+00:00</time></trkpt><trkpt lat="34.9091582" lon="32.9358105"><ele>1048.9</ele><time>2015-04-29T13:12:34.0000000+00:00</time></trkpt><trkpt lat="34.909221" lon="32.9358646"><ele>1047.3</ele><time>2015-04-29T13:12:35.0000000+00:00</time></trkpt><trkpt lat="34.9092806" lon="32.9359282"><ele>1046.5</ele><time>2015-04-29T13:12:36.0000000+00:00</time></trkpt><trkpt lat="34.9093349" lon="32.9359915"><ele>1045.2</ele><time>2015-04-29T13:12:37.0000000+00:00</time></trkpt><trkpt lat="34.9093899" lon="32.9360674"><ele>1045.0</ele><time>2015-04-29T13:12:38.0000000+00:00</time></trkpt><trkpt lat="34.9094456" lon="32.9361422"><ele>1044.9</ele><time>2015-04-29T13:12:39.0000000+00:00</time></trkpt><trkpt lat="34.9095115" lon="32.9362021"><ele>1044.3</ele><time>2015-04-29T13:12:40.0000000+00:00</time></trkpt><trkpt lat="34.9095871" lon="32.9362402"><ele>1045.0</ele><time>2015-04-29T13:12:41.0000000+00:00</time></trkpt><trkpt lat="34.9096702" lon="32.9362734"><ele>1044.9</ele><time>2015-04-29T13:12:42.0000000+00:00</time></trkpt><trkpt lat="34.9097643" lon="32.9362986"><ele>1044.8</ele><time>2015-04-29T13:12:43.0000000+00:00</time></trkpt><trkpt lat="34.9098484" lon="32.9363183"><ele>1045.3</ele><time>2015-04-29T13:12:44.0000000+00:00</time></trkpt><trkpt lat="34.9099394" lon="32.9363279"><ele>1044.5</ele><time>2015-04-29T13:12:45.0000000+00:00</time></trkpt><trkpt lat="34.9100361" lon="32.936334"><ele>1043.6</ele><time>2015-04-29T13:12:46.0000000+00:00</time></trkpt><trkpt lat="34.9101331" lon="32.9363518"><ele>1042.7</ele><time>2015-04-29T13:12:47.0000000+00:00</time></trkpt><trkpt lat="34.9102293" lon="32.9363894"><ele>1042.7</ele><time>2015-04-29T13:12:48.0000000+00:00</time></trkpt><trkpt lat="34.9103236" lon="32.9364533"><ele>1042.8</ele><time>2015-04-29T13:12:49.0000000+00:00</time></trkpt><trkpt lat="34.9104054" lon="32.9365131"><ele>1042.3</ele><time>2015-04-29T13:12:50.0000000+00:00</time></trkpt><trkpt lat="34.9104948" lon="32.9365882"><ele>1041.5</ele><time>2015-04-29T13:12:51.0000000+00:00</time></trkpt><trkpt lat="34.9105804" lon="32.9366709"><ele>1041.1</ele><time>2015-04-29T13:12:52.0000000+00:00</time></trkpt><trkpt lat="34.910671" lon="32.9367556"><ele>1040.5</ele><time>2015-04-29T13:12:53.0000000+00:00</time></trkpt><trkpt lat="34.9107453" lon="32.9368566"><ele>1039.6</ele><time>2015-04-29T13:12:54.0000000+00:00</time></trkpt><trkpt lat="34.91082" lon="32.9369604"><ele>1038.7</ele><time>2015-04-29T13:12:55.0000000+00:00</time></trkpt><trkpt lat="34.9108883" lon="32.9370702"><ele>1037.7</ele><time>2015-04-29T13:12:56.0000000+00:00</time></trkpt><trkpt lat="34.9109579" lon="32.9371898"><ele>1036.7</ele><time>2015-04-29T13:12:57.0000000+00:00</time></trkpt><trkpt lat="34.9110202" lon="32.937306"><ele>1035.8</ele><time>2015-04-29T13:12:58.0000000+00:00</time></trkpt><trkpt lat="34.9110647" lon="32.9374344"><ele>1035.8</ele><time>2015-04-29T13:12:59.0000000+00:00</time></trkpt><trkpt lat="34.9111125" lon="32.9375635"><ele>1035.3</ele><time>2015-04-29T13:13:00.0000000+00:00</time></trkpt><trkpt lat="34.9111512" lon="32.9376939"><ele>1034.5</ele><time>2015-04-29T13:13:01.0000000+00:00</time></trkpt><trkpt lat="34.9111843" lon="32.9378263"><ele>1034.1</ele><time>2015-04-29T13:13:02.0000000+00:00</time></trkpt><trkpt lat="34.9112141" lon="32.937971"><ele>1033.5</ele><time>2015-04-29T13:13:03.0000000+00:00</time></trkpt><trkpt lat="34.9112408" lon="32.9381238"><ele>1032.1</ele><time>2015-04-29T13:13:04.0000000+00:00</time></trkpt><trkpt lat="34.9112451" lon="32.9382722"><ele>1031.4</ele><time>2015-04-29T13:13:05.0000000+00:00</time></trkpt><trkpt lat="34.9112335" lon="32.9384227"><ele>1031.6</ele><time>2015-04-29T13:13:06.0000000+00:00</time></trkpt><trkpt lat="34.9112185" lon="32.938567"><ele>1032.2</ele><time>2015-04-29T13:13:07.0000000+00:00</time></trkpt><trkpt lat="34.911212" lon="32.9387281"><ele>1031.5</ele><time>2015-04-29T13:13:08.0000000+00:00</time></trkpt><trkpt lat="34.9112012" lon="32.9388716"><ele>1030.1</ele><time>2015-04-29T13:13:09.0000000+00:00</time></trkpt><trkpt lat="34.9111932" lon="32.9390147"><ele>1028.4</ele><time>2015-04-29T13:13:10.0000000+00:00</time></trkpt><trkpt lat="34.9111911" lon="32.9391498"><ele>1026.6</ele><time>2015-04-29T13:13:11.0000000+00:00</time></trkpt><trkpt lat="34.911182" lon="32.9392948"><ele>1025.2</ele><time>2015-04-29T13:13:12.0000000+00:00</time></trkpt><trkpt lat="34.9111793" lon="32.9394213"><ele>1024.0</ele><time>2015-04-29T13:13:13.0000000+00:00</time></trkpt><trkpt lat="34.911176" lon="32.9395425"><ele>1021.9</ele><time>2015-04-29T13:13:14.0000000+00:00</time></trkpt><trkpt lat="34.9111948" lon="32.9396713"><ele>1020.8</ele><time>2015-04-29T13:13:15.0000000+00:00</time></trkpt><trkpt lat="34.9112298" lon="32.9397733"><ele>1019.8</ele><time>2015-04-29T13:13:16.0000000+00:00</time></trkpt><trkpt lat="34.9112752" lon="32.939866"><ele>1018.8</ele><time>2015-04-29T13:13:17.0000000+00:00</time></trkpt><trkpt lat="34.9113182" lon="32.9399229"><ele>1018.3</ele><time>2015-04-29T13:13:18.0000000+00:00</time></trkpt><trkpt lat="34.9113815" lon="32.9399454"><ele>1017.5</ele><time>2015-04-29T13:13:19.0000000+00:00</time></trkpt><trkpt lat="34.9114522" lon="32.9399282"><ele>1015.1</ele><time>2015-04-29T13:13:20.0000000+00:00</time></trkpt><trkpt lat="34.9115248" lon="32.9399041"><ele>1013.5</ele><time>2015-04-29T13:13:21.0000000+00:00</time></trkpt><trkpt lat="34.9115954" lon="32.939877"><ele>1012.6</ele><time>2015-04-29T13:13:22.0000000+00:00</time></trkpt><trkpt lat="34.9116648" lon="32.939858"><ele>1013.2</ele><time>2015-04-29T13:13:23.0000000+00:00</time></trkpt><trkpt lat="34.9117477" lon="32.9398282"><ele>1013.0</ele><time>2015-04-29T13:13:24.0000000+00:00</time></trkpt><trkpt lat="34.9118294" lon="32.9397945"><ele>1013.4</ele><time>2015-04-29T13:13:25.0000000+00:00</time></trkpt><trkpt lat="34.9119086" lon="32.9397498"><ele>1013.6</ele><time>2015-04-29T13:13:26.0000000+00:00</time></trkpt><trkpt lat="34.9119882" lon="32.9396997"><ele>1013.7</ele><time>2015-04-29T13:13:27.0000000+00:00</time></trkpt><trkpt lat="34.9120578" lon="32.9396307"><ele>1013.2</ele><time>2015-04-29T13:13:28.0000000+00:00</time></trkpt><trkpt lat="34.9121226" lon="32.939561"><ele>1013.0</ele><time>2015-04-29T13:13:29.0000000+00:00</time></trkpt><trkpt lat="34.912184" lon="32.9394822"><ele>1012.9</ele><time>2015-04-29T13:13:30.0000000+00:00</time></trkpt><trkpt lat="34.9122307" lon="32.9393873"><ele>1012.3</ele><time>2015-04-29T13:13:31.0000000+00:00</time></trkpt><trkpt lat="34.9122748" lon="32.9392724"><ele>1011.5</ele><time>2015-04-29T13:13:32.0000000+00:00</time></trkpt><trkpt lat="34.9122988" lon="32.9391576"><ele>1010.7</ele><time>2015-04-29T13:13:33.0000000+00:00</time></trkpt><trkpt lat="34.9123309" lon="32.9390468"><ele>1010.2</ele><time>2015-04-29T13:13:34.0000000+00:00</time></trkpt><trkpt lat="34.9123807" lon="32.9389309"><ele>1010.0</ele><time>2015-04-29T13:13:35.0000000+00:00</time></trkpt><trkpt lat="34.9124409" lon="32.9388174"><ele>1009.9</ele><time>2015-04-29T13:13:36.0000000+00:00</time></trkpt><trkpt lat="34.9125029" lon="32.9387221"><ele>1009.3</ele><time>2015-04-29T13:13:37.0000000+00:00</time></trkpt><trkpt lat="34.9125856" lon="32.9386595"><ele>1008.5</ele><time>2015-04-29T13:13:38.0000000+00:00</time></trkpt><trkpt lat="34.9126506" lon="32.9386102"><ele>1007.7</ele><time>2015-04-29T13:13:39.0000000+00:00</time></trkpt><trkpt lat="34.9127162" lon="32.938589"><ele>1006.7</ele><time>2015-04-29T13:13:40.0000000+00:00</time></trkpt><trkpt lat="34.9127758" lon="32.9385935"><ele>1006.2</ele><time>2015-04-29T13:13:41.0000000+00:00</time></trkpt><trkpt lat="34.9128319" lon="32.9386275"><ele>1005.5</ele><time>2015-04-29T13:13:42.0000000+00:00</time></trkpt><trkpt lat="34.912873" lon="32.9386619"><ele>1005.1</ele><time>2015-04-29T13:13:43.0000000+00:00</time></trkpt><trkpt lat="34.9129186" lon="32.9386798"><ele>1004.9</ele><time>2015-04-29T13:13:44.0000000+00:00</time></trkpt><trkpt lat="34.9129574" lon="32.9387213"><ele>1004.9</ele><time>2015-04-29T13:13:45.0000000+00:00</time></trkpt><trkpt lat="34.9130138" lon="32.9387745"><ele>1004.5</ele><time>2015-04-29T13:13:48.0000000+00:00</time></trkpt><trkpt lat="34.913065" lon="32.9388034"><ele>1004.7</ele><time>2015-04-29T13:13:51.0000000+00:00</time></trkpt><trkpt lat="34.9131197" lon="32.9388068"><ele>1005.3</ele><time>2015-04-29T13:13:53.0000000+00:00</time></trkpt><trkpt lat="34.9131883" lon="32.9387964"><ele>1006.1</ele><time>2015-04-29T13:13:55.0000000+00:00</time></trkpt><trkpt lat="34.9132804" lon="32.9387914"><ele>1006.4</ele><time>2015-04-29T13:13:57.0000000+00:00</time></trkpt><trkpt lat="34.9133341" lon="32.9387834"><ele>1006.6</ele><time>2015-04-29T13:13:58.0000000+00:00</time></trkpt><trkpt lat="34.9133892" lon="32.9387807"><ele>1007.2</ele><time>2015-04-29T13:13:59.0000000+00:00</time></trkpt><trkpt lat="34.9134431" lon="32.9387783"><ele>1007.5</ele><time>2015-04-29T13:14:00.0000000+00:00</time></trkpt><trkpt lat="34.9134986" lon="32.9387958"><ele>1008.1</ele><time>2015-04-29T13:14:01.0000000+00:00</time></trkpt><trkpt lat="34.9135628" lon="32.9388169"><ele>1007.4</ele><time>2015-04-29T13:14:02.0000000+00:00</time></trkpt><trkpt lat="34.9136282" lon="32.9388466"><ele>1007.1</ele><time>2015-04-29T13:14:03.0000000+00:00</time></trkpt><trkpt lat="34.9136986" lon="32.9388733"><ele>1006.4</ele><time>2015-04-29T13:14:04.0000000+00:00</time></trkpt><trkpt lat="34.9137608" lon="32.9389017"><ele>1006.1</ele><time>2015-04-29T13:14:05.0000000+00:00</time></trkpt><trkpt lat="34.9138199" lon="32.9389282"><ele>1006.4</ele><time>2015-04-29T13:14:06.0000000+00:00</time></trkpt><trkpt lat="34.9138786" lon="32.9389512"><ele>1007.6</ele><time>2015-04-29T13:14:07.0000000+00:00</time></trkpt><trkpt lat="34.913939" lon="32.9389592"><ele>1008.2</ele><time>2015-04-29T13:14:08.0000000+00:00</time></trkpt><trkpt lat="34.9139931" lon="32.9389532"><ele>1008.5</ele><time>2015-04-29T13:14:09.0000000+00:00</time></trkpt><trkpt lat="34.9140515" lon="32.9389168"><ele>1008.1</ele><time>2015-04-29T13:14:10.0000000+00:00</time></trkpt><trkpt lat="34.9141051" lon="32.9388649"><ele>1007.4</ele><time>2015-04-29T13:14:11.0000000+00:00</time></trkpt><trkpt lat="34.9141619" lon="32.9388095"><ele>1006.6</ele><time>2015-04-29T13:14:12.0000000+00:00</time></trkpt><trkpt lat="34.9142186" lon="32.9387531"><ele>1005.7</ele><time>2015-04-29T13:14:13.0000000+00:00</time></trkpt><trkpt lat="34.9142745" lon="32.938696"><ele>1005.2</ele><time>2015-04-29T13:14:14.0000000+00:00</time></trkpt><trkpt lat="34.914339" lon="32.9386605"><ele>1004.0</ele><time>2015-04-29T13:14:15.0000000+00:00</time></trkpt><trkpt lat="34.9144006" lon="32.938613"><ele>1002.9</ele><time>2015-04-29T13:14:16.0000000+00:00</time></trkpt><trkpt lat="34.9144671" lon="32.9385909"><ele>1002.3</ele><time>2015-04-29T13:14:17.0000000+00:00</time></trkpt><trkpt lat="34.9145354" lon="32.938573"><ele>1001.5</ele><time>2015-04-29T13:14:18.0000000+00:00</time></trkpt><trkpt lat="34.914588" lon="32.9385444"><ele>1001.7</ele><time>2015-04-29T13:14:19.0000000+00:00</time></trkpt><trkpt lat="34.9146443" lon="32.9385143"><ele>1001.7</ele><time>2015-04-29T13:14:20.0000000+00:00</time></trkpt><trkpt lat="34.9146508" lon="32.9384405"><ele>1001.7</ele><time>2015-04-29T13:14:21.0000000+00:00</time></trkpt><trkpt lat="34.9146653" lon="32.9383831"><ele>1000.8</ele><time>2015-04-29T13:14:22.0000000+00:00</time></trkpt><trkpt lat="34.9146663" lon="32.9383166"><ele>1000.3</ele><time>2015-04-29T13:14:23.0000000+00:00</time></trkpt><trkpt lat="34.9146264" lon="32.9382518"><ele>1000.5</ele><time>2015-04-29T13:14:24.0000000+00:00</time></trkpt><trkpt lat="34.914615" lon="32.9381808"><ele>999.6</ele><time>2015-04-29T13:14:25.0000000+00:00</time></trkpt><trkpt lat="34.9146061" lon="32.9380902"><ele>998.7</ele><time>2015-04-29T13:14:26.0000000+00:00</time></trkpt><trkpt lat="34.9146195" lon="32.9380181"><ele>996.7</ele><time>2015-04-29T13:14:27.0000000+00:00</time></trkpt><trkpt lat="34.914628" lon="32.9379452"><ele>995.2</ele><time>2015-04-29T13:14:28.0000000+00:00</time></trkpt><trkpt lat="34.9146581" lon="32.9378713"><ele>994.0</ele><time>2015-04-29T13:14:29.0000000+00:00</time></trkpt><trkpt lat="34.9147006" lon="32.937822"><ele>993.4</ele><time>2015-04-29T13:14:30.0000000+00:00</time></trkpt><trkpt lat="34.9147446" lon="32.9377558"><ele>992.6</ele><time>2015-04-29T13:14:31.0000000+00:00</time></trkpt><trkpt lat="34.9147805" lon="32.9376905"><ele>991.2</ele><time>2015-04-29T13:14:32.0000000+00:00</time></trkpt><trkpt lat="34.9148059" lon="32.9376065"><ele>989.5</ele><time>2015-04-29T13:14:33.0000000+00:00</time></trkpt><trkpt lat="34.9148197" lon="32.9375241"><ele>988.6</ele><time>2015-04-29T13:14:34.0000000+00:00</time></trkpt><trkpt lat="34.9147964" lon="32.937438"><ele>986.7</ele><time>2015-04-29T13:14:35.0000000+00:00</time></trkpt><trkpt lat="34.9148108" lon="32.9373634"><ele>986.2</ele><time>2015-04-29T13:14:36.0000000+00:00</time></trkpt><trkpt lat="34.9148353" lon="32.937304"><ele>985.5</ele><time>2015-04-29T13:14:37.0000000+00:00</time></trkpt><trkpt lat="34.9148594" lon="32.9372542"><ele>984.6</ele><time>2015-04-29T13:14:38.0000000+00:00</time></trkpt><trkpt lat="34.9149048" lon="32.9372141"><ele>984.2</ele><time>2015-04-29T13:14:39.0000000+00:00</time></trkpt><trkpt lat="34.9149449" lon="32.9371854"><ele>984.0</ele><time>2015-04-29T13:14:40.0000000+00:00</time></trkpt><trkpt lat="34.914988" lon="32.9371663"><ele>983.9</ele><time>2015-04-29T13:14:41.0000000+00:00</time></trkpt><trkpt lat="34.9150332" lon="32.9371427"><ele>983.8</ele><time>2015-04-29T13:14:42.0000000+00:00</time></trkpt><trkpt lat="34.91511" lon="32.9371044"><ele>984.3</ele><time>2015-04-29T13:14:44.0000000+00:00</time></trkpt><trkpt lat="34.91516" lon="32.93708"><ele>983.5</ele><time>2015-04-29T13:14:45.0000000+00:00</time></trkpt><trkpt lat="34.915213" lon="32.9370766"><ele>982.6</ele><time>2015-04-29T13:14:46.0000000+00:00</time></trkpt><trkpt lat="34.9152646" lon="32.9370794"><ele>983.2</ele><time>2015-04-29T13:14:47.0000000+00:00</time></trkpt><trkpt lat="34.9153146" lon="32.9370883"><ele>985.0</ele><time>2015-04-29T13:14:48.0000000+00:00</time></trkpt><trkpt lat="34.9153599" lon="32.9370854"><ele>986.9</ele><time>2015-04-29T13:14:51.0000000+00:00</time></trkpt><trkpt lat="34.9154151" lon="32.9370841"><ele>985.8</ele><time>2015-04-29T13:15:09.0000000+00:00</time></trkpt><trkpt lat="34.9154722" lon="32.9370418"><ele>983.8</ele><time>2015-04-29T13:15:11.0000000+00:00</time></trkpt><trkpt lat="34.9155398" lon="32.9369447"><ele>981.0</ele><time>2015-04-29T13:15:13.0000000+00:00</time></trkpt><trkpt lat="34.9155594" lon="32.9368706"><ele>980.4</ele><time>2015-04-29T13:15:14.0000000+00:00</time></trkpt><trkpt lat="34.9155819" lon="32.9367997"><ele>979.6</ele><time>2015-04-29T13:15:15.0000000+00:00</time></trkpt><trkpt lat="34.9156037" lon="32.9367271"><ele>979.2</ele><time>2015-04-29T13:15:16.0000000+00:00</time></trkpt><trkpt lat="34.915637" lon="32.9366612"><ele>979.0</ele><time>2015-04-29T13:15:17.0000000+00:00</time></trkpt><trkpt lat="34.9156694" lon="32.9366176"><ele>978.4</ele><time>2015-04-29T13:15:18.0000000+00:00</time></trkpt><trkpt lat="34.915739" lon="32.9365891"><ele>978.4</ele><time>2015-04-29T13:15:20.0000000+00:00</time></trkpt><trkpt lat="34.9158202" lon="32.9366079"><ele>977.7</ele><time>2015-04-29T13:15:22.0000000+00:00</time></trkpt><trkpt lat="34.9158793" lon="32.9366349"><ele>977.0</ele><time>2015-04-29T13:15:24.0000000+00:00</time></trkpt><trkpt lat="34.9159393" lon="32.9367014"><ele>976.1</ele><time>2015-04-29T13:15:26.0000000+00:00</time></trkpt><trkpt lat="34.9159823" lon="32.9367762"><ele>976.6</ele><time>2015-04-29T13:15:28.0000000+00:00</time></trkpt><trkpt lat="34.9160258" lon="32.9368421"><ele>975.0</ele><time>2015-04-29T13:15:30.0000000+00:00</time></trkpt><trkpt lat="34.9160741" lon="32.9369154"><ele>976.8</ele><time>2015-04-29T13:15:32.0000000+00:00</time></trkpt><trkpt lat="34.9161196" lon="32.9369805"><ele>976.3</ele><time>2015-04-29T13:15:34.0000000+00:00</time></trkpt><trkpt lat="34.9161748" lon="32.9370353"><ele>975.4</ele><time>2015-04-29T13:15:36.0000000+00:00</time></trkpt><trkpt lat="34.916232" lon="32.9370818"><ele>975.9</ele><time>2015-04-29T13:15:38.0000000+00:00</time></trkpt><trkpt lat="34.9162882" lon="32.9371292"><ele>976.1</ele><time>2015-04-29T13:15:40.0000000+00:00</time></trkpt><trkpt lat="34.9163394" lon="32.9371776"><ele>975.8</ele><time>2015-04-29T13:15:42.0000000+00:00</time></trkpt><trkpt lat="34.9163926" lon="32.9372298"><ele>976.8</ele><time>2015-04-29T13:15:44.0000000+00:00</time></trkpt><trkpt lat="34.9164532" lon="32.9372761"><ele>978.0</ele><time>2015-04-29T13:15:46.0000000+00:00</time></trkpt><trkpt lat="34.9165301" lon="32.9372869"><ele>977.8</ele><time>2015-04-29T13:15:48.0000000+00:00</time></trkpt><trkpt lat="34.9165926" lon="32.9372593"><ele>977.8</ele><time>2015-04-29T13:15:49.0000000+00:00</time></trkpt><trkpt lat="34.9166377" lon="32.9372333"><ele>978.3</ele><time>2015-04-29T13:15:50.0000000+00:00</time></trkpt><trkpt lat="34.9166789" lon="32.937211"><ele>978.0</ele><time>2015-04-29T13:15:51.0000000+00:00</time></trkpt><trkpt lat="34.9167353" lon="32.9371914"><ele>977.4</ele><time>2015-04-29T13:15:52.0000000+00:00</time></trkpt><trkpt lat="34.9168291" lon="32.9371455"><ele>976.9</ele><time>2015-04-29T13:15:54.0000000+00:00</time></trkpt><trkpt lat="34.9168874" lon="32.9371315"><ele>978.8</ele><time>2015-04-29T13:15:55.0000000+00:00</time></trkpt><trkpt lat="34.9169368" lon="32.9371143"><ele>980.3</ele><time>2015-04-29T13:15:56.0000000+00:00</time></trkpt><trkpt lat="34.9169909" lon="32.9370844"><ele>981.0</ele><time>2015-04-29T13:15:57.0000000+00:00</time></trkpt><trkpt lat="34.9170445" lon="32.9370553"><ele>981.4</ele><time>2015-04-29T13:15:58.0000000+00:00</time></trkpt><trkpt lat="34.9171303" lon="32.937026"><ele>983.2</ele><time>2015-04-29T13:16:00.0000000+00:00</time></trkpt><trkpt lat="34.9171927" lon="32.9370177"><ele>983.9</ele><time>2015-04-29T13:16:02.0000000+00:00</time></trkpt><trkpt lat="34.9172402" lon="32.937003"><ele>983.5</ele><time>2015-04-29T13:16:05.0000000+00:00</time></trkpt><trkpt lat="34.9172852" lon="32.9369872"><ele>984.4</ele><time>2015-04-29T13:16:08.0000000+00:00</time></trkpt><trkpt lat="34.9173268" lon="32.9370258"><ele>991.2</ele><time>2015-04-29T13:16:58.0000000+00:00</time></trkpt><trkpt lat="34.9173874" lon="32.9370346"><ele>990.1</ele><time>2015-04-29T13:17:02.0000000+00:00</time></trkpt><trkpt lat="34.91745" lon="32.9370335"><ele>988.1</ele><time>2015-04-29T13:17:05.0000000+00:00</time></trkpt><trkpt lat="34.9175121" lon="32.9370348"><ele>987.8</ele><time>2015-04-29T13:17:08.0000000+00:00</time></trkpt><trkpt lat="34.9175654" lon="32.93704"><ele>988.0</ele><time>2015-04-29T13:17:11.0000000+00:00</time></trkpt><trkpt lat="34.9175131" lon="32.9370596"><ele>986.2</ele><time>2015-04-29T13:17:16.0000000+00:00</time></trkpt><trkpt lat="34.9174469" lon="32.9370406"><ele>986.7</ele><time>2015-04-29T13:17:19.0000000+00:00</time></trkpt><trkpt lat="34.9174002" lon="32.9370004"><ele>987.0</ele><time>2015-04-29T13:17:21.0000000+00:00</time></trkpt><trkpt lat="34.9173811" lon="32.9369409"><ele>987.3</ele><time>2015-04-29T13:17:23.0000000+00:00</time></trkpt><trkpt lat="34.9173881" lon="32.9368834"><ele>986.9</ele><time>2015-04-29T13:17:25.0000000+00:00</time></trkpt><trkpt lat="34.917405" lon="32.9368183"><ele>984.0</ele><time>2015-04-29T13:17:28.0000000+00:00</time></trkpt><trkpt lat="34.9174251" lon="32.9367669"><ele>980.3</ele><time>2015-04-29T13:17:31.0000000+00:00</time></trkpt><trkpt lat="34.9174551" lon="32.9367236"><ele>979.1</ele><time>2015-04-29T13:17:34.0000000+00:00</time></trkpt><trkpt lat="34.9174901" lon="32.9366734"><ele>979.5</ele><time>2015-04-29T13:17:38.0000000+00:00</time></trkpt><trkpt lat="34.9175177" lon="32.9366269"><ele>980.3</ele><time>2015-04-29T13:17:42.0000000+00:00</time></trkpt><trkpt lat="34.9175524" lon="32.9365871"><ele>982.0</ele><time>2015-04-29T13:17:46.0000000+00:00</time></trkpt><trkpt lat="34.9175788" lon="32.9365392"><ele>982.8</ele><time>2015-04-29T13:17:50.0000000+00:00</time></trkpt><trkpt lat="34.9176188" lon="32.9364917"><ele>984.1</ele><time>2015-04-29T13:17:55.0000000+00:00</time></trkpt><trkpt lat="34.9176526" lon="32.9364384"><ele>987.9</ele><time>2015-04-29T13:18:00.0000000+00:00</time></trkpt><trkpt lat="34.9176839" lon="32.936395"><ele>989.6</ele><time>2015-04-29T13:18:04.0000000+00:00</time></trkpt><trkpt lat="34.9177172" lon="32.9363471"><ele>989.8</ele><time>2015-04-29T13:18:08.0000000+00:00</time></trkpt><trkpt lat="34.9177473" lon="32.9363037"><ele>990.6</ele><time>2015-04-29T13:18:12.0000000+00:00</time></trkpt><trkpt lat="34.9177831" lon="32.9362618"><ele>989.4</ele><time>2015-04-29T13:18:16.0000000+00:00</time></trkpt><trkpt lat="34.9178233" lon="32.9362151"><ele>991.6</ele><time>2015-04-29T13:18:20.0000000+00:00</time></trkpt><trkpt lat="34.9178688" lon="32.9361697"><ele>992.8</ele><time>2015-04-29T13:18:24.0000000+00:00</time></trkpt><trkpt lat="34.9179109" lon="32.9361217"><ele>992.8</ele><time>2015-04-29T13:18:28.0000000+00:00</time></trkpt><trkpt lat="34.9179527" lon="32.9360729"><ele>991.9</ele><time>2015-04-29T13:18:32.0000000+00:00</time></trkpt><trkpt lat="34.9179931" lon="32.9360227"><ele>992.0</ele><time>2015-04-29T13:18:36.0000000+00:00</time></trkpt><trkpt lat="34.9180378" lon="32.9359816"><ele>991.8</ele><time>2015-04-29T13:18:40.0000000+00:00</time></trkpt><trkpt lat="34.9180767" lon="32.935933"><ele>989.9</ele><time>2015-04-29T13:18:44.0000000+00:00</time></trkpt><trkpt lat="34.9181099" lon="32.9358879"><ele>990.6</ele><time>2015-04-29T13:18:48.0000000+00:00</time></trkpt><trkpt lat="34.9181439" lon="32.9358329"><ele>990.1</ele><time>2015-04-29T13:18:52.0000000+00:00</time></trkpt><trkpt lat="34.9181778" lon="32.9357805"><ele>991.9</ele><time>2015-04-29T13:18:56.0000000+00:00</time></trkpt><trkpt lat="34.9182133" lon="32.9357355"><ele>995.0</ele><time>2015-04-29T13:19:00.0000000+00:00</time></trkpt><trkpt lat="34.9182507" lon="32.9356852"><ele>998.4</ele><time>2015-04-29T13:19:04.0000000+00:00</time></trkpt><trkpt lat="34.9182793" lon="32.93564"><ele>1001.0</ele><time>2015-04-29T13:19:07.0000000+00:00</time></trkpt><trkpt lat="34.9183087" lon="32.9355968"><ele>1002.2</ele><time>2015-04-29T13:19:10.0000000+00:00</time></trkpt><trkpt lat="34.9183415" lon="32.935559"><ele>1003.2</ele><time>2015-04-29T13:19:13.0000000+00:00</time></trkpt><trkpt lat="34.9183687" lon="32.935511"><ele>1005.2</ele><time>2015-04-29T13:19:16.0000000+00:00</time></trkpt><trkpt lat="34.9184141" lon="32.9354648"><ele>1009.6</ele><time>2015-04-29T13:19:20.0000000+00:00</time></trkpt><trkpt lat="34.9184615" lon="32.9354205"><ele>1011.3</ele><time>2015-04-29T13:19:24.0000000+00:00</time></trkpt><trkpt lat="34.9184981" lon="32.9353867"><ele>1012.0</ele><time>2015-04-29T13:19:27.0000000+00:00</time></trkpt><trkpt lat="34.918532" lon="32.9353466"><ele>1009.0</ele><time>2015-04-29T13:19:30.0000000+00:00</time></trkpt><trkpt lat="34.918561" lon="32.9353017"><ele>1008.9</ele><time>2015-04-29T13:19:33.0000000+00:00</time></trkpt><trkpt lat="34.9185937" lon="32.9352607"><ele>1010.0</ele><time>2015-04-29T13:19:36.0000000+00:00</time></trkpt><trkpt lat="34.9186324" lon="32.9352059"><ele>1006.8</ele><time>2015-04-29T13:19:40.0000000+00:00</time></trkpt><trkpt lat="34.9186599" lon="32.9351583"><ele>1006.6</ele><time>2015-04-29T13:19:43.0000000+00:00</time></trkpt><trkpt lat="34.9186921" lon="32.9351155"><ele>1006.4</ele><time>2015-04-29T13:19:46.0000000+00:00</time></trkpt><trkpt lat="34.9187278" lon="32.9350786"><ele>1003.5</ele><time>2015-04-29T13:19:49.0000000+00:00</time></trkpt><trkpt lat="34.918762" lon="32.9350381"><ele>1002.0</ele><time>2015-04-29T13:19:52.0000000+00:00</time></trkpt><trkpt lat="34.9187936" lon="32.9349943"><ele>1003.8</ele><time>2015-04-29T13:19:55.0000000+00:00</time></trkpt><trkpt lat="34.918836" lon="32.9349506"><ele>1005.5</ele><time>2015-04-29T13:19:58.0000000+00:00</time></trkpt><trkpt lat="34.9188821" lon="32.9349184"><ele>1005.2</ele><time>2015-04-29T13:20:01.0000000+00:00</time></trkpt><trkpt lat="34.9189366" lon="32.9348837"><ele>1005.6</ele><time>2015-04-29T13:20:04.0000000+00:00</time></trkpt><trkpt lat="34.9189881" lon="32.9348319"><ele>1004.5</ele><time>2015-04-29T13:20:07.0000000+00:00</time></trkpt><trkpt lat="34.9190289" lon="32.9347833"><ele>1000.9</ele><time>2015-04-29T13:20:10.0000000+00:00</time></trkpt><trkpt lat="34.919068" lon="32.9348147"><ele>995.4</ele><time>2015-04-29T13:20:23.0000000+00:00</time></trkpt><trkpt lat="34.9190478" lon="32.9348659"><ele>999.3</ele><time>2015-04-29T13:20:32.0000000+00:00</time></trkpt><trkpt lat="34.919005" lon="32.934888"><ele>1003.3</ele><time>2015-04-29T13:21:33.0000000+00:00</time></trkpt><trkpt lat="34.9190477" lon="32.9348699"><ele>991.8</ele><time>2015-04-29T13:25:13.0000000+00:00</time></trkpt><trkpt lat="34.9191345" lon="32.9349433"><ele>963.8</ele><time>2015-04-29T13:49:45.0000000+00:00</time></trkpt><trkpt lat="34.9190897" lon="32.9349102"><ele>972.3</ele><time>2015-04-29T13:49:47.0000000+00:00</time></trkpt><trkpt lat="34.9190572" lon="32.9348718"><ele>980.4</ele><time>2015-04-29T13:50:01.0000000+00:00</time></trkpt><trkpt lat="34.9190207" lon="32.9348313"><ele>992.0</ele><time>2015-04-29T13:50:46.0000000+00:00</time></trkpt><trkpt lat="34.9190325" lon="32.9347778"><ele>999.0</ele><time>2015-04-29T13:52:59.0000000+00:00</time></trkpt><trkpt lat="34.9190874" lon="32.9347478"><ele>997.8</ele><time>2015-04-29T13:53:04.0000000+00:00</time></trkpt><trkpt lat="34.9191269" lon="32.9347033"><ele>997.3</ele><time>2015-04-29T13:53:06.0000000+00:00</time></trkpt><trkpt lat="34.9191686" lon="32.9346736"><ele>997.4</ele><time>2015-04-29T13:53:08.0000000+00:00</time></trkpt><trkpt lat="34.9192228" lon="32.9346495"><ele>997.7</ele><time>2015-04-29T13:53:11.0000000+00:00</time></trkpt><trkpt lat="34.9192768" lon="32.9346235"><ele>997.8</ele><time>2015-04-29T13:53:14.0000000+00:00</time></trkpt><trkpt lat="34.9193381" lon="32.9345986"><ele>997.3</ele><time>2015-04-29T13:53:17.0000000+00:00</time></trkpt><trkpt lat="34.9193837" lon="32.9345805"><ele>997.4</ele><time>2015-04-29T13:53:19.0000000+00:00</time></trkpt><trkpt lat="34.9194314" lon="32.9345644"><ele>997.7</ele><time>2015-04-29T13:53:21.0000000+00:00</time></trkpt><trkpt lat="34.9194837" lon="32.934546"><ele>997.0</ele><time>2015-04-29T13:53:23.0000000+00:00</time></trkpt><trkpt lat="34.9195366" lon="32.9345259"><ele>996.1</ele><time>2015-04-29T13:53:25.0000000+00:00</time></trkpt><trkpt lat="34.9195844" lon="32.9345084"><ele>995.8</ele><time>2015-04-29T13:53:27.0000000+00:00</time></trkpt><trkpt lat="34.9196326" lon="32.9344847"><ele>996.8</ele><time>2015-04-29T13:53:29.0000000+00:00</time></trkpt><trkpt lat="34.9196876" lon="32.9344628"><ele>997.0</ele><time>2015-04-29T13:53:31.0000000+00:00</time></trkpt><trkpt lat="34.9197666" lon="32.9344468"><ele>996.1</ele><time>2015-04-29T13:53:33.0000000+00:00</time></trkpt><trkpt lat="34.9198462" lon="32.9344473"><ele>995.6</ele><time>2015-04-29T13:53:35.0000000+00:00</time></trkpt><trkpt lat="34.919928" lon="32.9344657"><ele>997.0</ele><time>2015-04-29T13:53:37.0000000+00:00</time></trkpt><trkpt lat="34.9200121" lon="32.9345107"><ele>996.8</ele><time>2015-04-29T13:53:39.0000000+00:00</time></trkpt><trkpt lat="34.920071" lon="32.9345606"><ele>996.8</ele><time>2015-04-29T13:53:40.0000000+00:00</time></trkpt><trkpt lat="34.9201108" lon="32.9345949"><ele>996.8</ele><time>2015-04-29T13:53:41.0000000+00:00</time></trkpt><trkpt lat="34.9201572" lon="32.9346275"><ele>996.3</ele><time>2015-04-29T13:53:42.0000000+00:00</time></trkpt><trkpt lat="34.9202006" lon="32.9346632"><ele>996.5</ele><time>2015-04-29T13:53:43.0000000+00:00</time></trkpt><trkpt lat="34.9202427" lon="32.9346982"><ele>997.1</ele><time>2015-04-29T13:53:44.0000000+00:00</time></trkpt><trkpt lat="34.920302" lon="32.9347485"><ele>997.9</ele><time>2015-04-29T13:53:46.0000000+00:00</time></trkpt><trkpt lat="34.9203638" lon="32.9348142"><ele>997.8</ele><time>2015-04-29T13:53:48.0000000+00:00</time></trkpt><trkpt lat="34.9204278" lon="32.9348778"><ele>997.0</ele><time>2015-04-29T13:53:50.0000000+00:00</time></trkpt><trkpt lat="34.9204842" lon="32.9349315"><ele>996.1</ele><time>2015-04-29T13:53:52.0000000+00:00</time></trkpt><trkpt lat="34.9205425" lon="32.934996"><ele>995.8</ele><time>2015-04-29T13:53:54.0000000+00:00</time></trkpt><trkpt lat="34.9205884" lon="32.9350653"><ele>997.0</ele><time>2015-04-29T13:53:56.0000000+00:00</time></trkpt><trkpt lat="34.9206196" lon="32.935136"><ele>997.3</ele><time>2015-04-29T13:53:58.0000000+00:00</time></trkpt><trkpt lat="34.9206251" lon="32.9352124"><ele>998.3</ele><time>2015-04-29T13:54:01.0000000+00:00</time></trkpt><trkpt lat="34.920636" lon="32.9352935"><ele>999.0</ele><time>2015-04-29T13:54:04.0000000+00:00</time></trkpt><trkpt lat="34.9206408" lon="32.9353542"><ele>998.3</ele><time>2015-04-29T13:54:06.0000000+00:00</time></trkpt><trkpt lat="34.9206412" lon="32.9354162"><ele>998.4</ele><time>2015-04-29T13:54:08.0000000+00:00</time></trkpt><trkpt lat="34.920645" lon="32.9354767"><ele>998.2</ele><time>2015-04-29T13:54:10.0000000+00:00</time></trkpt><trkpt lat="34.9206509" lon="32.9355344"><ele>997.9</ele><time>2015-04-29T13:54:12.0000000+00:00</time></trkpt><trkpt lat="34.9206633" lon="32.9355887"><ele>997.8</ele><time>2015-04-29T13:54:14.0000000+00:00</time></trkpt><trkpt lat="34.9206865" lon="32.9356402"><ele>996.8</ele><time>2015-04-29T13:54:16.0000000+00:00</time></trkpt><trkpt lat="34.9207186" lon="32.9356828"><ele>996.0</ele><time>2015-04-29T13:54:18.0000000+00:00</time></trkpt><trkpt lat="34.920767" lon="32.9357112"><ele>996.3</ele><time>2015-04-29T13:54:21.0000000+00:00</time></trkpt><trkpt lat="34.9208122" lon="32.9357367"><ele>996.0</ele><time>2015-04-29T13:54:24.0000000+00:00</time></trkpt><trkpt lat="34.9208573" lon="32.935753"><ele>996.5</ele><time>2015-04-29T13:54:27.0000000+00:00</time></trkpt><trkpt lat="34.9209084" lon="32.9357556"><ele>996.7</ele><time>2015-04-29T13:54:30.0000000+00:00</time></trkpt><trkpt lat="34.9209653" lon="32.9357442"><ele>998.6</ele><time>2015-04-29T13:54:34.0000000+00:00</time></trkpt><trkpt lat="34.9210197" lon="32.9357619"><ele>1000.4</ele><time>2015-04-29T13:54:38.0000000+00:00</time></trkpt><trkpt lat="34.9210704" lon="32.9357687"><ele>1002.9</ele><time>2015-04-29T13:54:42.0000000+00:00</time></trkpt><trkpt lat="34.9211152" lon="32.9357548"><ele>1001.5</ele><time>2015-04-29T13:54:45.0000000+00:00</time></trkpt><trkpt lat="34.9211613" lon="32.935757"><ele>1002.2</ele><time>2015-04-29T13:54:48.0000000+00:00</time></trkpt><trkpt lat="34.9212074" lon="32.9357593"><ele>1002.7</ele><time>2015-04-29T13:54:51.0000000+00:00</time></trkpt><trkpt lat="34.9212522" lon="32.9357648"><ele>1002.5</ele><time>2015-04-29T13:54:54.0000000+00:00</time></trkpt><trkpt lat="34.9212973" lon="32.935779"><ele>1003.2</ele><time>2015-04-29T13:54:57.0000000+00:00</time></trkpt><trkpt lat="34.9213455" lon="32.9358023"><ele>1005.0</ele><time>2015-04-29T13:55:01.0000000+00:00</time></trkpt><trkpt lat="34.9213966" lon="32.9358297"><ele>1006.0</ele><time>2015-04-29T13:55:05.0000000+00:00</time></trkpt><trkpt lat="34.9214378" lon="32.9358524"><ele>1006.7</ele><time>2015-04-29T13:55:08.0000000+00:00</time></trkpt><trkpt lat="34.9214911" lon="32.9358808"><ele>1006.6</ele><time>2015-04-29T13:55:12.0000000+00:00</time></trkpt><trkpt lat="34.9215415" lon="32.9359099"><ele>1006.1</ele><time>2015-04-29T13:55:16.0000000+00:00</time></trkpt><trkpt lat="34.9215863" lon="32.9359266"><ele>1005.8</ele><time>2015-04-29T13:55:19.0000000+00:00</time></trkpt><trkpt lat="34.9216313" lon="32.9359572"><ele>1006.5</ele><time>2015-04-29T13:55:22.0000000+00:00</time></trkpt><trkpt lat="34.9216746" lon="32.9359875"><ele>1007.6</ele><time>2015-04-29T13:55:25.0000000+00:00</time></trkpt><trkpt lat="34.9217192" lon="32.9360113"><ele>1007.7</ele><time>2015-04-29T13:55:28.0000000+00:00</time></trkpt><trkpt lat="34.9217615" lon="32.9360408"><ele>1008.5</ele><time>2015-04-29T13:55:31.0000000+00:00</time></trkpt><trkpt lat="34.9218065" lon="32.936069"><ele>1008.7</ele><time>2015-04-29T13:55:34.0000000+00:00</time></trkpt><trkpt lat="34.9218506" lon="32.936095"><ele>1008.8</ele><time>2015-04-29T13:55:37.0000000+00:00</time></trkpt><trkpt lat="34.9219034" lon="32.9361208"><ele>1010.1</ele><time>2015-04-29T13:55:40.0000000+00:00</time></trkpt><trkpt lat="34.9219539" lon="32.9361481"><ele>1011.6</ele><time>2015-04-29T13:55:43.0000000+00:00</time></trkpt><trkpt lat="34.9220082" lon="32.9361734"><ele>1012.6</ele><time>2015-04-29T13:55:46.0000000+00:00</time></trkpt><trkpt lat="34.922061" lon="32.9361978"><ele>1013.0</ele><time>2015-04-29T13:55:49.0000000+00:00</time></trkpt><trkpt lat="34.9221124" lon="32.9362197"><ele>1014.2</ele><time>2015-04-29T13:55:52.0000000+00:00</time></trkpt><trkpt lat="34.9221636" lon="32.9362303"><ele>1013.8</ele><time>2015-04-29T13:55:55.0000000+00:00</time></trkpt><trkpt lat="34.9222092" lon="32.9362358"><ele>1014.1</ele><time>2015-04-29T13:55:58.0000000+00:00</time></trkpt><trkpt lat="34.9222629" lon="32.9362454"><ele>1014.7</ele><time>2015-04-29T13:56:02.0000000+00:00</time></trkpt><trkpt lat="34.9223186" lon="32.9362502"><ele>1014.8</ele><time>2015-04-29T13:56:07.0000000+00:00</time></trkpt><trkpt lat="34.9223703" lon="32.9362471"><ele>1014.8</ele><time>2015-04-29T13:56:11.0000000+00:00</time></trkpt><trkpt lat="34.9224248" lon="32.9362329"><ele>1014.3</ele><time>2015-04-29T13:56:15.0000000+00:00</time></trkpt><trkpt lat="34.9224768" lon="32.9362199"><ele>1013.6</ele><time>2015-04-29T13:56:19.0000000+00:00</time></trkpt><trkpt lat="34.9225296" lon="32.9361982"><ele>1015.0</ele><time>2015-04-29T13:56:24.0000000+00:00</time></trkpt><trkpt lat="34.9225782" lon="32.9361691"><ele>1016.1</ele><time>2015-04-29T13:56:29.0000000+00:00</time></trkpt><trkpt lat="34.9226188" lon="32.9361421"><ele>1015.8</ele><time>2015-04-29T13:56:33.0000000+00:00</time></trkpt><trkpt lat="34.9226549" lon="32.9361017"><ele>1015.8</ele><time>2015-04-29T13:56:37.0000000+00:00</time></trkpt><trkpt lat="34.9226942" lon="32.9360655"><ele>1016.7</ele><time>2015-04-29T13:56:41.0000000+00:00</time></trkpt><trkpt lat="34.9227278" lon="32.9360234"><ele>1017.5</ele><time>2015-04-29T13:56:45.0000000+00:00</time></trkpt><trkpt lat="34.9227557" lon="32.9359748"><ele>1017.7</ele><time>2015-04-29T13:56:49.0000000+00:00</time></trkpt><trkpt lat="34.9227933" lon="32.935935"><ele>1017.8</ele><time>2015-04-29T13:56:53.0000000+00:00</time></trkpt><trkpt lat="34.9228278" lon="32.9358959"><ele>1019.2</ele><time>2015-04-29T13:56:57.0000000+00:00</time></trkpt><trkpt lat="34.9228676" lon="32.9358539"><ele>1020.6</ele><time>2015-04-29T13:57:01.0000000+00:00</time></trkpt><trkpt lat="34.9229068" lon="32.9358114"><ele>1021.5</ele><time>2015-04-29T13:57:05.0000000+00:00</time></trkpt><trkpt lat="34.9229437" lon="32.9357688"><ele>1022.7</ele><time>2015-04-29T13:57:09.0000000+00:00</time></trkpt><trkpt lat="34.9229783" lon="32.935726"><ele>1022.7</ele><time>2015-04-29T13:57:13.0000000+00:00</time></trkpt><trkpt lat="34.9230168" lon="32.9356953"><ele>1022.8</ele><time>2015-04-29T13:57:17.0000000+00:00</time></trkpt><trkpt lat="34.9230562" lon="32.9356561"><ele>1023.6</ele><time>2015-04-29T13:57:22.0000000+00:00</time></trkpt><trkpt lat="34.9230893" lon="32.9356102"><ele>1026.4</ele><time>2015-04-29T13:57:28.0000000+00:00</time></trkpt><trkpt lat="34.9231311" lon="32.93557"><ele>1028.5</ele><time>2015-04-29T13:57:35.0000000+00:00</time></trkpt><trkpt lat="34.9231686" lon="32.935527"><ele>1029.7</ele><time>2015-04-29T13:57:40.0000000+00:00</time></trkpt><trkpt lat="34.9232002" lon="32.9354868"><ele>1029.7</ele><time>2015-04-29T13:57:44.0000000+00:00</time></trkpt><trkpt lat="34.9232426" lon="32.935461"><ele>1028.6</ele><time>2015-04-29T13:57:48.0000000+00:00</time></trkpt><trkpt lat="34.9232974" lon="32.9354424"><ele>1027.9</ele><time>2015-04-29T13:57:52.0000000+00:00</time></trkpt><trkpt lat="34.9233456" lon="32.9354184"><ele>1028.6</ele><time>2015-04-29T13:57:56.0000000+00:00</time></trkpt><trkpt lat="34.9233917" lon="32.9353918"><ele>1030.5</ele><time>2015-04-29T13:58:00.0000000+00:00</time></trkpt><trkpt lat="34.923437" lon="32.9353659"><ele>1031.6</ele><time>2015-04-29T13:58:04.0000000+00:00</time></trkpt><trkpt lat="34.9234799" lon="32.935349"><ele>1031.8</ele><time>2015-04-29T13:58:08.0000000+00:00</time></trkpt><trkpt lat="34.9235254" lon="32.9353266"><ele>1034.1</ele><time>2015-04-29T13:58:13.0000000+00:00</time></trkpt><trkpt lat="34.9235792" lon="32.9353236"><ele>1035.6</ele><time>2015-04-29T13:58:18.0000000+00:00</time></trkpt><trkpt lat="34.923621" lon="32.9353"><ele>1035.1</ele><time>2015-04-29T13:58:22.0000000+00:00</time></trkpt><trkpt lat="34.9236601" lon="32.9352688"><ele>1034.3</ele><time>2015-04-29T13:58:26.0000000+00:00</time></trkpt><trkpt lat="34.9237109" lon="32.9352454"><ele>1034.5</ele><time>2015-04-29T13:58:31.0000000+00:00</time></trkpt><trkpt lat="34.9237606" lon="32.9352183"><ele>1035.5</ele><time>2015-04-29T13:58:36.0000000+00:00</time></trkpt><trkpt lat="34.9238059" lon="32.9351968"><ele>1036.2</ele><time>2015-04-29T13:58:40.0000000+00:00</time></trkpt><trkpt lat="34.9238518" lon="32.9351723"><ele>1036.0</ele><time>2015-04-29T13:58:44.0000000+00:00</time></trkpt><trkpt lat="34.9238972" lon="32.9351454"><ele>1036.2</ele><time>2015-04-29T13:58:48.0000000+00:00</time></trkpt><trkpt lat="34.9239442" lon="32.9351209"><ele>1036.5</ele><time>2015-04-29T13:58:52.0000000+00:00</time></trkpt><trkpt lat="34.9239968" lon="32.9351042"><ele>1036.8</ele><time>2015-04-29T13:58:56.0000000+00:00</time></trkpt><trkpt lat="34.9240488" lon="32.9350842"><ele>1036.4</ele><time>2015-04-29T13:59:00.0000000+00:00</time></trkpt><trkpt lat="34.9240896" lon="32.9350512"><ele>1037.5</ele><time>2015-04-29T13:59:04.0000000+00:00</time></trkpt><trkpt lat="34.9241449" lon="32.935036"><ele>1037.5</ele><time>2015-04-29T13:59:08.0000000+00:00</time></trkpt><trkpt lat="34.9242014" lon="32.935015"><ele>1038.2</ele><time>2015-04-29T13:59:12.0000000+00:00</time></trkpt><trkpt lat="34.9242553" lon="32.9349887"><ele>1038.7</ele><time>2015-04-29T13:59:16.0000000+00:00</time></trkpt><trkpt lat="34.9243056" lon="32.9349657"><ele>1038.3</ele><time>2015-04-29T13:59:20.0000000+00:00</time></trkpt><trkpt lat="34.9243523" lon="32.9349437"><ele>1038.5</ele><time>2015-04-29T13:59:24.0000000+00:00</time></trkpt><trkpt lat="34.9243991" lon="32.9349236"><ele>1038.0</ele><time>2015-04-29T13:59:28.0000000+00:00</time></trkpt><trkpt lat="34.9244465" lon="32.9349045"><ele>1039.0</ele><time>2015-04-29T13:59:32.0000000+00:00</time></trkpt><trkpt lat="34.9244916" lon="32.9348777"><ele>1037.7</ele><time>2015-04-29T13:59:36.0000000+00:00</time></trkpt><trkpt lat="34.9245373" lon="32.9348549"><ele>1037.9</ele><time>2015-04-29T13:59:40.0000000+00:00</time></trkpt><trkpt lat="34.9245838" lon="32.9348363"><ele>1038.7</ele><time>2015-04-29T13:59:44.0000000+00:00</time></trkpt><trkpt lat="34.9246302" lon="32.9348034"><ele>1039.3</ele><time>2015-04-29T13:59:49.0000000+00:00</time></trkpt><trkpt lat="34.9246745" lon="32.9347801"><ele>1039.8</ele><time>2015-04-29T13:59:53.0000000+00:00</time></trkpt><trkpt lat="34.9247322" lon="32.9347785"><ele>1041.3</ele><time>2015-04-29T13:59:57.0000000+00:00</time></trkpt><trkpt lat="34.9247868" lon="32.9347608"><ele>1041.9</ele><time>2015-04-29T14:00:01.0000000+00:00</time></trkpt><trkpt lat="34.9248392" lon="32.9347409"><ele>1041.0</ele><time>2015-04-29T14:00:05.0000000+00:00</time></trkpt><trkpt lat="34.9248919" lon="32.9347193"><ele>1041.3</ele><time>2015-04-29T14:00:09.0000000+00:00</time></trkpt><trkpt lat="34.9249479" lon="32.9346973"><ele>1042.6</ele><time>2015-04-29T14:00:13.0000000+00:00</time></trkpt><trkpt lat="34.9250042" lon="32.9346821"><ele>1042.9</ele><time>2015-04-29T14:00:17.0000000+00:00</time></trkpt><trkpt lat="34.9250604" lon="32.9346698"><ele>1042.0</ele><time>2015-04-29T14:00:21.0000000+00:00</time></trkpt><trkpt lat="34.9251057" lon="32.9346436"><ele>1041.9</ele><time>2015-04-29T14:00:25.0000000+00:00</time></trkpt><trkpt lat="34.9251527" lon="32.9346264"><ele>1042.7</ele><time>2015-04-29T14:00:29.0000000+00:00</time></trkpt><trkpt lat="34.9252027" lon="32.9346285"><ele>1042.0</ele><time>2015-04-29T14:00:33.0000000+00:00</time></trkpt><trkpt lat="34.9252498" lon="32.9346009"><ele>1042.8</ele><time>2015-04-29T14:00:37.0000000+00:00</time></trkpt><trkpt lat="34.9252982" lon="32.9345776"><ele>1043.6</ele><time>2015-04-29T14:00:41.0000000+00:00</time></trkpt><trkpt lat="34.9253493" lon="32.9345679"><ele>1044.7</ele><time>2015-04-29T14:00:45.0000000+00:00</time></trkpt><trkpt lat="34.9254049" lon="32.9345495"><ele>1044.3</ele><time>2015-04-29T14:00:49.0000000+00:00</time></trkpt><trkpt lat="34.9254605" lon="32.9345283"><ele>1044.6</ele><time>2015-04-29T14:00:53.0000000+00:00</time></trkpt><trkpt lat="34.9255144" lon="32.9345157"><ele>1044.4</ele><time>2015-04-29T14:00:57.0000000+00:00</time></trkpt><trkpt lat="34.925566" lon="32.9345049"><ele>1045.2</ele><time>2015-04-29T14:01:01.0000000+00:00</time></trkpt><trkpt lat="34.9256154" lon="32.9344977"><ele>1045.7</ele><time>2015-04-29T14:01:05.0000000+00:00</time></trkpt><trkpt lat="34.9256624" lon="32.9344824"><ele>1045.8</ele><time>2015-04-29T14:01:09.0000000+00:00</time></trkpt><trkpt lat="34.9257108" lon="32.9344674"><ele>1045.8</ele><time>2015-04-29T14:01:13.0000000+00:00</time></trkpt><trkpt lat="34.9257626" lon="32.9344568"><ele>1046.6</ele><time>2015-04-29T14:01:17.0000000+00:00</time></trkpt><trkpt lat="34.9258199" lon="32.9344436"><ele>1046.4</ele><time>2015-04-29T14:01:21.0000000+00:00</time></trkpt><trkpt lat="34.9258648" lon="32.9344374"><ele>1046.7</ele><time>2015-04-29T14:01:24.0000000+00:00</time></trkpt><trkpt lat="34.9259101" lon="32.934418"><ele>1046.8</ele><time>2015-04-29T14:01:27.0000000+00:00</time></trkpt><trkpt lat="34.9259552" lon="32.9344029"><ele>1047.6</ele><time>2015-04-29T14:01:30.0000000+00:00</time></trkpt><trkpt lat="34.9260134" lon="32.9343886"><ele>1047.7</ele><time>2015-04-29T14:01:34.0000000+00:00</time></trkpt><trkpt lat="34.9260687" lon="32.9343748"><ele>1049.1</ele><time>2015-04-29T14:01:38.0000000+00:00</time></trkpt><trkpt lat="34.926122" lon="32.9343704"><ele>1050.5</ele><time>2015-04-29T14:01:42.0000000+00:00</time></trkpt><trkpt lat="34.9261736" lon="32.9343602"><ele>1052.4</ele><time>2015-04-29T14:01:46.0000000+00:00</time></trkpt><trkpt lat="34.926227" lon="32.9343561"><ele>1053.7</ele><time>2015-04-29T14:01:50.0000000+00:00</time></trkpt><trkpt lat="34.9262855" lon="32.9343562"><ele>1054.4</ele><time>2015-04-29T14:01:54.0000000+00:00</time></trkpt><trkpt lat="34.9263406" lon="32.9343595"><ele>1056.2</ele><time>2015-04-29T14:01:58.0000000+00:00</time></trkpt><trkpt lat="34.926392" lon="32.9343565"><ele>1056.7</ele><time>2015-04-29T14:02:02.0000000+00:00</time></trkpt><trkpt lat="34.9264445" lon="32.934369"><ele>1057.5</ele><time>2015-04-29T14:02:06.0000000+00:00</time></trkpt><trkpt lat="34.9264993" lon="32.9343774"><ele>1057.7</ele><time>2015-04-29T14:02:10.0000000+00:00</time></trkpt><trkpt lat="34.9265535" lon="32.9343956"><ele>1058.6</ele><time>2015-04-29T14:02:14.0000000+00:00</time></trkpt><trkpt lat="34.9266108" lon="32.9343915"><ele>1057.8</ele><time>2015-04-29T14:02:18.0000000+00:00</time></trkpt><trkpt lat="34.9266578" lon="32.9344042"><ele>1058.4</ele><time>2015-04-29T14:02:21.0000000+00:00</time></trkpt><trkpt lat="34.9267049" lon="32.9344162"><ele>1058.7</ele><time>2015-04-29T14:02:24.0000000+00:00</time></trkpt><trkpt lat="34.9267519" lon="32.9344244"><ele>1059.5</ele><time>2015-04-29T14:02:27.0000000+00:00</time></trkpt><trkpt lat="34.9267976" lon="32.9344379"><ele>1060.5</ele><time>2015-04-29T14:02:30.0000000+00:00</time></trkpt><trkpt lat="34.9268467" lon="32.9344417"><ele>1060.7</ele><time>2015-04-29T14:02:33.0000000+00:00</time></trkpt><trkpt lat="34.9268984" lon="32.934441"><ele>1060.8</ele><time>2015-04-29T14:02:36.0000000+00:00</time></trkpt><trkpt lat="34.9269484" lon="32.9344415"><ele>1060.8</ele><time>2015-04-29T14:02:39.0000000+00:00</time></trkpt><trkpt lat="34.9269972" lon="32.9344516"><ele>1060.8</ele><time>2015-04-29T14:02:42.0000000+00:00</time></trkpt><trkpt lat="34.9270523" lon="32.9344628"><ele>1061.7</ele><time>2015-04-29T14:02:46.0000000+00:00</time></trkpt><trkpt lat="34.9271048" lon="32.9344714"><ele>1061.8</ele><time>2015-04-29T14:02:50.0000000+00:00</time></trkpt><trkpt lat="34.9271606" lon="32.9344799"><ele>1062.7</ele><time>2015-04-29T14:02:54.0000000+00:00</time></trkpt><trkpt lat="34.9272151" lon="32.9344868"><ele>1062.8</ele><time>2015-04-29T14:02:58.0000000+00:00</time></trkpt><trkpt lat="34.9272692" lon="32.9344957"><ele>1063.7</ele><time>2015-04-29T14:03:02.0000000+00:00</time></trkpt><trkpt lat="34.9273174" lon="32.9345025"><ele>1063.3</ele><time>2015-04-29T14:03:05.0000000+00:00</time></trkpt><trkpt lat="34.927365" lon="32.9345147"><ele>1063.7</ele><time>2015-04-29T14:03:08.0000000+00:00</time></trkpt><trkpt lat="34.9274132" lon="32.9345163"><ele>1064.3</ele><time>2015-04-29T14:03:11.0000000+00:00</time></trkpt><trkpt lat="34.9274631" lon="32.934525"><ele>1064.7</ele><time>2015-04-29T14:03:14.0000000+00:00</time></trkpt><trkpt lat="34.9275122" lon="32.9345331"><ele>1065.3</ele><time>2015-04-29T14:03:17.0000000+00:00</time></trkpt><trkpt lat="34.9275591" lon="32.934546"><ele>1066.2</ele><time>2015-04-29T14:03:20.0000000+00:00</time></trkpt><trkpt lat="34.9276172" lon="32.9345539"><ele>1068.0</ele><time>2015-04-29T14:03:24.0000000+00:00</time></trkpt><trkpt lat="34.9276744" lon="32.9345672"><ele>1070.3</ele><time>2015-04-29T14:03:28.0000000+00:00</time></trkpt><trkpt lat="34.9277233" lon="32.9345783"><ele>1071.5</ele><time>2015-04-29T14:03:32.0000000+00:00</time></trkpt><trkpt lat="34.9277711" lon="32.9346102"><ele>1075.6</ele><time>2015-04-29T14:03:38.0000000+00:00</time></trkpt><trkpt lat="34.9278202" lon="32.9346318"><ele>1076.5</ele><time>2015-04-29T14:03:42.0000000+00:00</time></trkpt><trkpt lat="34.9278764" lon="32.9346418"><ele>1076.1</ele><time>2015-04-29T14:03:46.0000000+00:00</time></trkpt><trkpt lat="34.9279278" lon="32.9346594"><ele>1074.1</ele><time>2015-04-29T14:03:50.0000000+00:00</time></trkpt><trkpt lat="34.9279837" lon="32.9346746"><ele>1073.0</ele><time>2015-04-29T14:03:54.0000000+00:00</time></trkpt><trkpt lat="34.9280232" lon="32.9347008"><ele>1071.9</ele><time>2015-04-29T14:03:57.0000000+00:00</time></trkpt><trkpt lat="34.9280711" lon="32.9347167"><ele>1073.0</ele><time>2015-04-29T14:04:01.0000000+00:00</time></trkpt><trkpt lat="34.9281192" lon="32.9347445"><ele>1074.5</ele><time>2015-04-29T14:04:05.0000000+00:00</time></trkpt><trkpt lat="34.9281612" lon="32.9347676"><ele>1074.0</ele><time>2015-04-29T14:04:08.0000000+00:00</time></trkpt><trkpt lat="34.9282096" lon="32.9348021"><ele>1072.8</ele><time>2015-04-29T14:04:12.0000000+00:00</time></trkpt><trkpt lat="34.9282562" lon="32.9348306"><ele>1072.2</ele><time>2015-04-29T14:04:16.0000000+00:00</time></trkpt><trkpt lat="34.9283073" lon="32.9348565"><ele>1072.7</ele><time>2015-04-29T14:04:20.0000000+00:00</time></trkpt><trkpt lat="34.9283512" lon="32.9348791"><ele>1072.3</ele><time>2015-04-29T14:04:23.0000000+00:00</time></trkpt><trkpt lat="34.9283961" lon="32.934902"><ele>1071.8</ele><time>2015-04-29T14:04:26.0000000+00:00</time></trkpt><trkpt lat="34.9284426" lon="32.9349212"><ele>1071.8</ele><time>2015-04-29T14:04:29.0000000+00:00</time></trkpt><trkpt lat="34.9284898" lon="32.9349438"><ele>1071.8</ele><time>2015-04-29T14:04:32.0000000+00:00</time></trkpt><trkpt lat="34.92854" lon="32.9349717"><ele>1071.8</ele><time>2015-04-29T14:04:35.0000000+00:00</time></trkpt><trkpt lat="34.9285903" lon="32.9350016"><ele>1071.8</ele><time>2015-04-29T14:04:38.0000000+00:00</time></trkpt><trkpt lat="34.928644" lon="32.9350264"><ele>1072.0</ele><time>2015-04-29T14:04:41.0000000+00:00</time></trkpt><trkpt lat="34.9286906" lon="32.9350533"><ele>1073.3</ele><time>2015-04-29T14:04:44.0000000+00:00</time></trkpt><trkpt lat="34.9287379" lon="32.9350753"><ele>1073.7</ele><time>2015-04-29T14:04:47.0000000+00:00</time></trkpt><trkpt lat="34.9287978" lon="32.9350957"><ele>1073.8</ele><time>2015-04-29T14:04:50.0000000+00:00</time></trkpt><trkpt lat="34.9288604" lon="32.9351169"><ele>1073.6</ele><time>2015-04-29T14:04:53.0000000+00:00</time></trkpt><trkpt lat="34.9289145" lon="32.9351405"><ele>1074.5</ele><time>2015-04-29T14:04:56.0000000+00:00</time></trkpt><trkpt lat="34.9289645" lon="32.9351539"><ele>1074.1</ele><time>2015-04-29T14:04:59.0000000+00:00</time></trkpt><trkpt lat="34.9290096" lon="32.9351667"><ele>1074.7</ele><time>2015-04-29T14:05:02.0000000+00:00</time></trkpt><trkpt lat="34.9290688" lon="32.9351808"><ele>1074.3</ele><time>2015-04-29T14:05:06.0000000+00:00</time></trkpt><trkpt lat="34.9291144" lon="32.9351997"><ele>1075.2</ele><time>2015-04-29T14:05:09.0000000+00:00</time></trkpt><trkpt lat="34.9291642" lon="32.9352144"><ele>1075.7</ele><time>2015-04-29T14:05:12.0000000+00:00</time></trkpt><trkpt lat="34.9292142" lon="32.9352307"><ele>1076.6</ele><time>2015-04-29T14:05:15.0000000+00:00</time></trkpt><trkpt lat="34.9292615" lon="32.9352425"><ele>1077.1</ele><time>2015-04-29T14:05:18.0000000+00:00</time></trkpt><trkpt lat="34.9293073" lon="32.935252"><ele>1077.6</ele><time>2015-04-29T14:05:21.0000000+00:00</time></trkpt><trkpt lat="34.929354" lon="32.9352671"><ele>1078.3</ele><time>2015-04-29T14:05:26.0000000+00:00</time></trkpt><trkpt lat="34.9294027" lon="32.9352862"><ele>1079.1</ele><time>2015-04-29T14:05:30.0000000+00:00</time></trkpt><trkpt lat="34.9294597" lon="32.935292"><ele>1078.9</ele><time>2015-04-29T14:05:34.0000000+00:00</time></trkpt><trkpt lat="34.9295107" lon="32.9352934"><ele>1078.8</ele><time>2015-04-29T14:05:38.0000000+00:00</time></trkpt><trkpt lat="34.9295668" lon="32.935297"><ele>1078.8</ele><time>2015-04-29T14:05:42.0000000+00:00</time></trkpt><trkpt lat="34.9296213" lon="32.9353007"><ele>1078.8</ele><time>2015-04-29T14:05:46.0000000+00:00</time></trkpt><trkpt lat="34.9296771" lon="32.9353115"><ele>1079.5</ele><time>2015-04-29T14:05:50.0000000+00:00</time></trkpt><trkpt lat="34.9297326" lon="32.935308"><ele>1079.8</ele><time>2015-04-29T14:05:55.0000000+00:00</time></trkpt><trkpt lat="34.9297887" lon="32.9353049"><ele>1081.2</ele><time>2015-04-29T14:05:59.0000000+00:00</time></trkpt><trkpt lat="34.9298458" lon="32.9353035"><ele>1082.6</ele><time>2015-04-29T14:06:03.0000000+00:00</time></trkpt><trkpt lat="34.929894" lon="32.935307"><ele>1082.7</ele><time>2015-04-29T14:06:06.0000000+00:00</time></trkpt><trkpt lat="34.9299418" lon="32.9352994"><ele>1082.3</ele><time>2015-04-29T14:06:09.0000000+00:00</time></trkpt><trkpt lat="34.9299891" lon="32.9352907"><ele>1082.7</ele><time>2015-04-29T14:06:14.0000000+00:00</time></trkpt><trkpt lat="34.9300364" lon="32.9352903"><ele>1082.9</ele><time>2015-04-29T14:06:18.0000000+00:00</time></trkpt><trkpt lat="34.9300914" lon="32.9352993"><ele>1084.2</ele><time>2015-04-29T14:06:22.0000000+00:00</time></trkpt><trkpt lat="34.9301486" lon="32.9353051"><ele>1086.1</ele><time>2015-04-29T14:06:26.0000000+00:00</time></trkpt><trkpt lat="34.9301969" lon="32.9353051"><ele>1086.0</ele><time>2015-04-29T14:06:30.0000000+00:00</time></trkpt><trkpt lat="34.9302532" lon="32.9352925"><ele>1084.6</ele><time>2015-04-29T14:06:35.0000000+00:00</time></trkpt><trkpt lat="34.9303091" lon="32.9352813"><ele>1084.6</ele><time>2015-04-29T14:06:39.0000000+00:00</time></trkpt><trkpt lat="34.9303566" lon="32.9352788"><ele>1085.5</ele><time>2015-04-29T14:06:42.0000000+00:00</time></trkpt><trkpt lat="34.9304063" lon="32.9352707"><ele>1085.7</ele><time>2015-04-29T14:06:45.0000000+00:00</time></trkpt><trkpt lat="34.9304546" lon="32.935269"><ele>1085.0</ele><time>2015-04-29T14:06:48.0000000+00:00</time></trkpt><trkpt lat="34.9305042" lon="32.9352686"><ele>1085.3</ele><time>2015-04-29T14:06:51.0000000+00:00</time></trkpt><trkpt lat="34.9305537" lon="32.9352636"><ele>1086.5</ele><time>2015-04-29T14:06:54.0000000+00:00</time></trkpt><trkpt lat="34.9306017" lon="32.9352521"><ele>1086.9</ele><time>2015-04-29T14:06:57.0000000+00:00</time></trkpt><trkpt lat="34.9306481" lon="32.9352323"><ele>1087.3</ele><time>2015-04-29T14:07:00.0000000+00:00</time></trkpt><trkpt lat="34.9307013" lon="32.9352254"><ele>1087.6</ele><time>2015-04-29T14:07:03.0000000+00:00</time></trkpt><trkpt lat="34.9307535" lon="32.9352156"><ele>1088.5</ele><time>2015-04-29T14:07:06.0000000+00:00</time></trkpt><trkpt lat="34.9308064" lon="32.935211"><ele>1088.2</ele><time>2015-04-29T14:07:09.0000000+00:00</time></trkpt><trkpt lat="34.9308601" lon="32.9352022"><ele>1089.2</ele><time>2015-04-29T14:07:12.0000000+00:00</time></trkpt><trkpt lat="34.9309071" lon="32.9351928"><ele>1090.4</ele><time>2015-04-29T14:07:15.0000000+00:00</time></trkpt><trkpt lat="34.9309631" lon="32.9351843"><ele>1089.8</ele><time>2015-04-29T14:07:19.0000000+00:00</time></trkpt><trkpt lat="34.9310204" lon="32.9351665"><ele>1090.3</ele><time>2015-04-29T14:07:23.0000000+00:00</time></trkpt><trkpt lat="34.9310757" lon="32.9351499"><ele>1089.8</ele><time>2015-04-29T14:07:27.0000000+00:00</time></trkpt><trkpt lat="34.9311303" lon="32.9351309"><ele>1089.8</ele><time>2015-04-29T14:07:31.0000000+00:00</time></trkpt><trkpt lat="34.9311842" lon="32.9351124"><ele>1089.3</ele><time>2015-04-29T14:07:35.0000000+00:00</time></trkpt><trkpt lat="34.9312394" lon="32.9350931"><ele>1090.2</ele><time>2015-04-29T14:07:39.0000000+00:00</time></trkpt><trkpt lat="34.9312866" lon="32.9350688"><ele>1089.8</ele><time>2015-04-29T14:07:42.0000000+00:00</time></trkpt><trkpt lat="34.9313366" lon="32.9350437"><ele>1090.5</ele><time>2015-04-29T14:07:45.0000000+00:00</time></trkpt><trkpt lat="34.9313886" lon="32.9350279"><ele>1091.6</ele><time>2015-04-29T14:07:48.0000000+00:00</time></trkpt><trkpt lat="34.9314413" lon="32.9350174"><ele>1091.6</ele><time>2015-04-29T14:07:51.0000000+00:00</time></trkpt><trkpt lat="34.9314954" lon="32.9349958"><ele>1092.7</ele><time>2015-04-29T14:07:56.0000000+00:00</time></trkpt><trkpt lat="34.9315381" lon="32.9349715"><ele>1092.5</ele><time>2015-04-29T14:07:59.0000000+00:00</time></trkpt><trkpt lat="34.9315841" lon="32.9349489"><ele>1093.6</ele><time>2015-04-29T14:08:03.0000000+00:00</time></trkpt><trkpt lat="34.9316387" lon="32.9349194"><ele>1094.5</ele><time>2015-04-29T14:08:07.0000000+00:00</time></trkpt><trkpt lat="34.9316827" lon="32.9348977"><ele>1094.5</ele><time>2015-04-29T14:08:10.0000000+00:00</time></trkpt><trkpt lat="34.9317249" lon="32.934871"><ele>1094.7</ele><time>2015-04-29T14:08:13.0000000+00:00</time></trkpt><trkpt lat="34.9317692" lon="32.9348469"><ele>1094.8</ele><time>2015-04-29T14:08:16.0000000+00:00</time></trkpt><trkpt lat="34.9318117" lon="32.9348233"><ele>1095.3</ele><time>2015-04-29T14:08:19.0000000+00:00</time></trkpt><trkpt lat="34.9318497" lon="32.9347915"><ele>1096.2</ele><time>2015-04-29T14:08:22.0000000+00:00</time></trkpt><trkpt lat="34.9318985" lon="32.9347585"><ele>1097.6</ele><time>2015-04-29T14:08:26.0000000+00:00</time></trkpt><trkpt lat="34.9319464" lon="32.9347295"><ele>1099.4</ele><time>2015-04-29T14:08:30.0000000+00:00</time></trkpt><trkpt lat="34.9320006" lon="32.9346972"><ele>1099.5</ele><time>2015-04-29T14:08:34.0000000+00:00</time></trkpt><trkpt lat="34.9320458" lon="32.9346787"><ele>1101.0</ele><time>2015-04-29T14:08:37.0000000+00:00</time></trkpt><trkpt lat="34.9320977" lon="32.9346431"><ele>1102.6</ele><time>2015-04-29T14:08:41.0000000+00:00</time></trkpt><trkpt lat="34.9321369" lon="32.9346124"><ele>1103.5</ele><time>2015-04-29T14:08:44.0000000+00:00</time></trkpt><trkpt lat="34.932179" lon="32.9345881"><ele>1105.4</ele><time>2015-04-29T14:08:47.0000000+00:00</time></trkpt><trkpt lat="34.9322154" lon="32.9345485"><ele>1104.8</ele><time>2015-04-29T14:08:50.0000000+00:00</time></trkpt><trkpt lat="34.9322547" lon="32.934515"><ele>1104.9</ele><time>2015-04-29T14:08:53.0000000+00:00</time></trkpt><trkpt lat="34.9322986" lon="32.9344926"><ele>1107.3</ele><time>2015-04-29T14:08:56.0000000+00:00</time></trkpt><trkpt lat="34.9323387" lon="32.9344674"><ele>1108.6</ele><time>2015-04-29T14:08:59.0000000+00:00</time></trkpt><trkpt lat="34.9323858" lon="32.9344409"><ele>1110.7</ele><time>2015-04-29T14:09:03.0000000+00:00</time></trkpt><trkpt lat="34.9324252" lon="32.934397"><ele>1111.3</ele><time>2015-04-29T14:09:07.0000000+00:00</time></trkpt><trkpt lat="34.9324655" lon="32.934371"><ele>1112.2</ele><time>2015-04-29T14:09:10.0000000+00:00</time></trkpt><trkpt lat="34.9325025" lon="32.9343383"><ele>1113.4</ele><time>2015-04-29T14:09:13.0000000+00:00</time></trkpt><trkpt lat="34.9325444" lon="32.934296"><ele>1116.1</ele><time>2015-04-29T14:09:17.0000000+00:00</time></trkpt><trkpt lat="34.9325895" lon="32.9342509"><ele>1114.2</ele><time>2015-04-29T14:09:21.0000000+00:00</time></trkpt><trkpt lat="34.9326279" lon="32.9342206"><ele>1113.3</ele><time>2015-04-29T14:09:24.0000000+00:00</time></trkpt><trkpt lat="34.9326629" lon="32.9341789"><ele>1112.1</ele><time>2015-04-29T14:09:27.0000000+00:00</time></trkpt><trkpt lat="34.9326967" lon="32.934135"><ele>1111.3</ele><time>2015-04-29T14:09:30.0000000+00:00</time></trkpt><trkpt lat="34.9327256" lon="32.9340911"><ele>1110.0</ele><time>2015-04-29T14:09:33.0000000+00:00</time></trkpt><trkpt lat="34.9327617" lon="32.9340546"><ele>1110.0</ele><time>2015-04-29T14:09:36.0000000+00:00</time></trkpt><trkpt lat="34.9328159" lon="32.9340239"><ele>1110.3</ele><time>2015-04-29T14:09:40.0000000+00:00</time></trkpt><trkpt lat="34.9328593" lon="32.9339719"><ele>1109.7</ele><time>2015-04-29T14:09:44.0000000+00:00</time></trkpt><trkpt lat="34.9328945" lon="32.9339318"><ele>1108.9</ele><time>2015-04-29T14:09:47.0000000+00:00</time></trkpt><trkpt lat="34.9329408" lon="32.9338952"><ele>1108.9</ele><time>2015-04-29T14:09:50.0000000+00:00</time></trkpt><trkpt lat="34.9329803" lon="32.9338572"><ele>1108.4</ele><time>2015-04-29T14:09:53.0000000+00:00</time></trkpt><trkpt lat="34.9330225" lon="32.9338231"><ele>1108.2</ele><time>2015-04-29T14:09:56.0000000+00:00</time></trkpt><trkpt lat="34.9330572" lon="32.9337776"><ele>1107.1</ele><time>2015-04-29T14:09:59.0000000+00:00</time></trkpt><trkpt lat="34.933092" lon="32.9337301"><ele>1106.7</ele><time>2015-04-29T14:10:02.0000000+00:00</time></trkpt><trkpt lat="34.9331277" lon="32.9336828"><ele>1107.4</ele><time>2015-04-29T14:10:06.0000000+00:00</time></trkpt><trkpt lat="34.9331642" lon="32.9336436"><ele>1108.7</ele><time>2015-04-29T14:10:10.0000000+00:00</time></trkpt><trkpt lat="34.9332035" lon="32.9336049"><ele>1109.7</ele><time>2015-04-29T14:10:14.0000000+00:00</time></trkpt><trkpt lat="34.9332466" lon="32.933567"><ele>1110.6</ele><time>2015-04-29T14:10:18.0000000+00:00</time></trkpt><trkpt lat="34.9332848" lon="32.9335231"><ele>1111.2</ele><time>2015-04-29T14:10:22.0000000+00:00</time></trkpt><trkpt lat="34.9333296" lon="32.9334818"><ele>1111.3</ele><time>2015-04-29T14:10:26.0000000+00:00</time></trkpt><trkpt lat="34.9333741" lon="32.9334359"><ele>1112.6</ele><time>2015-04-29T14:10:30.0000000+00:00</time></trkpt><trkpt lat="34.9334066" lon="32.9333966"><ele>1112.7</ele><time>2015-04-29T14:10:33.0000000+00:00</time></trkpt><trkpt lat="34.9334426" lon="32.933359"><ele>1112.6</ele><time>2015-04-29T14:10:36.0000000+00:00</time></trkpt><trkpt lat="34.9334822" lon="32.9333269"><ele>1112.2</ele><time>2015-04-29T14:10:39.0000000+00:00</time></trkpt><trkpt lat="34.9335254" lon="32.9332808"><ele>1112.7</ele><time>2015-04-29T14:10:43.0000000+00:00</time></trkpt><trkpt lat="34.9335646" lon="32.9332392"><ele>1114.5</ele><time>2015-04-29T14:10:47.0000000+00:00</time></trkpt><trkpt lat="34.9336032" lon="32.9332037"><ele>1114.7</ele><time>2015-04-29T14:10:51.0000000+00:00</time></trkpt><trkpt lat="34.9336426" lon="32.9331739"><ele>1116.5</ele><time>2015-04-29T14:10:55.0000000+00:00</time></trkpt><trkpt lat="34.9336881" lon="32.9331418"><ele>1116.8</ele><time>2015-04-29T14:11:01.0000000+00:00</time></trkpt><trkpt lat="34.9337325" lon="32.9331183"><ele>1117.5</ele><time>2015-04-29T14:11:05.0000000+00:00</time></trkpt><trkpt lat="34.9337783" lon="32.9330877"><ele>1117.9</ele><time>2015-04-29T14:11:10.0000000+00:00</time></trkpt><trkpt lat="34.9338212" lon="32.9330545"><ele>1119.9</ele><time>2015-04-29T14:11:15.0000000+00:00</time></trkpt><trkpt lat="34.9338623" lon="32.9330192"><ele>1120.9</ele><time>2015-04-29T14:11:22.0000000+00:00</time></trkpt><trkpt lat="34.9339057" lon="32.9329989"><ele>1121.7</ele><time>2015-04-29T14:11:27.0000000+00:00</time></trkpt><trkpt lat="34.9339524" lon="32.9329743"><ele>1122.6</ele><time>2015-04-29T14:11:32.0000000+00:00</time></trkpt><trkpt lat="34.9339963" lon="32.9329541"><ele>1122.8</ele><time>2015-04-29T14:11:36.0000000+00:00</time></trkpt><trkpt lat="34.9340407" lon="32.9329324"><ele>1124.0</ele><time>2015-04-29T14:11:40.0000000+00:00</time></trkpt><trkpt lat="34.934093" lon="32.932912"><ele>1124.0</ele><time>2015-04-29T14:11:45.0000000+00:00</time></trkpt><trkpt lat="34.9341378" lon="32.9328924"><ele>1123.8</ele><time>2015-04-29T14:11:49.0000000+00:00</time></trkpt><trkpt lat="34.9341854" lon="32.9328821"><ele>1123.7</ele><time>2015-04-29T14:11:53.0000000+00:00</time></trkpt><trkpt lat="34.9342347" lon="32.9328657"><ele>1123.8</ele><time>2015-04-29T14:11:57.0000000+00:00</time></trkpt><trkpt lat="34.9342856" lon="32.9328523"><ele>1123.8</ele><time>2015-04-29T14:12:01.0000000+00:00</time></trkpt><trkpt lat="34.9343381" lon="32.9328436"><ele>1122.3</ele><time>2015-04-29T14:12:05.0000000+00:00</time></trkpt><trkpt lat="34.9343845" lon="32.932849"><ele>1122.3</ele><time>2015-04-29T14:12:09.0000000+00:00</time></trkpt><trkpt lat="34.934432" lon="32.9328484"><ele>1122.0</ele><time>2015-04-29T14:12:13.0000000+00:00</time></trkpt><trkpt lat="34.9344773" lon="32.9328494"><ele>1121.0</ele><time>2015-04-29T14:12:17.0000000+00:00</time></trkpt><trkpt lat="34.9345237" lon="32.9328459"><ele>1120.4</ele><time>2015-04-29T14:12:21.0000000+00:00</time></trkpt><trkpt lat="34.9345736" lon="32.9328421"><ele>1121.2</ele><time>2015-04-29T14:12:26.0000000+00:00</time></trkpt><trkpt lat="34.9346288" lon="32.9328442"><ele>1121.7</ele><time>2015-04-29T14:12:31.0000000+00:00</time></trkpt><trkpt lat="34.9346763" lon="32.9328512"><ele>1122.7</ele><time>2015-04-29T14:12:35.0000000+00:00</time></trkpt><trkpt lat="34.9347229" lon="32.9328569"><ele>1123.6</ele><time>2015-04-29T14:12:39.0000000+00:00</time></trkpt><trkpt lat="34.9347704" lon="32.9328651"><ele>1124.7</ele><time>2015-04-29T14:12:43.0000000+00:00</time></trkpt><trkpt lat="34.9348193" lon="32.9328836"><ele>1125.7</ele><time>2015-04-29T14:12:47.0000000+00:00</time></trkpt><trkpt lat="34.934868" lon="32.9328833"><ele>1125.8</ele><time>2015-04-29T14:12:51.0000000+00:00</time></trkpt><trkpt lat="34.9349144" lon="32.9328856"><ele>1126.0</ele><time>2015-04-29T14:12:55.0000000+00:00</time></trkpt><trkpt lat="34.9349604" lon="32.9328883"><ele>1126.7</ele><time>2015-04-29T14:12:59.0000000+00:00</time></trkpt><trkpt lat="34.9350054" lon="32.9328854"><ele>1127.6</ele><time>2015-04-29T14:13:03.0000000+00:00</time></trkpt><trkpt lat="34.9350608" lon="32.9328828"><ele>1128.6</ele><time>2015-04-29T14:13:08.0000000+00:00</time></trkpt><trkpt lat="34.9351098" lon="32.9328732"><ele>1128.8</ele><time>2015-04-29T14:13:12.0000000+00:00</time></trkpt><trkpt lat="34.9351576" lon="32.9328706"><ele>1129.6</ele><time>2015-04-29T14:13:16.0000000+00:00</time></trkpt><trkpt lat="34.9352036" lon="32.9328659"><ele>1128.8</ele><time>2015-04-29T14:13:20.0000000+00:00</time></trkpt><trkpt lat="34.9352521" lon="32.9328594"><ele>1127.9</ele><time>2015-04-29T14:13:24.0000000+00:00</time></trkpt><trkpt lat="34.9353031" lon="32.9328593"><ele>1128.3</ele><time>2015-04-29T14:13:28.0000000+00:00</time></trkpt><trkpt lat="34.9353557" lon="32.9328627"><ele>1128.0</ele><time>2015-04-29T14:13:32.0000000+00:00</time></trkpt><trkpt lat="34.935405" lon="32.9328532"><ele>1128.7</ele><time>2015-04-29T14:13:36.0000000+00:00</time></trkpt><trkpt lat="34.935454" lon="32.9328368"><ele>1128.9</ele><time>2015-04-29T14:13:40.0000000+00:00</time></trkpt><trkpt lat="34.9355011" lon="32.9328222"><ele>1128.8</ele><time>2015-04-29T14:13:44.0000000+00:00</time></trkpt><trkpt lat="34.9355466" lon="32.9328056"><ele>1130.5</ele><time>2015-04-29T14:13:48.0000000+00:00</time></trkpt><trkpt lat="34.9355947" lon="32.9327789"><ele>1131.5</ele><time>2015-04-29T14:13:52.0000000+00:00</time></trkpt><trkpt lat="34.9356466" lon="32.9327476"><ele>1131.2</ele><time>2015-04-29T14:13:56.0000000+00:00</time></trkpt><trkpt lat="34.9356908" lon="32.9327344"><ele>1131.7</ele><time>2015-04-29T14:13:59.0000000+00:00</time></trkpt><trkpt lat="34.9357443" lon="32.9327142"><ele>1131.8</ele><time>2015-04-29T14:14:03.0000000+00:00</time></trkpt><trkpt lat="34.9357875" lon="32.9326895"><ele>1131.8</ele><time>2015-04-29T14:14:07.0000000+00:00</time></trkpt><trkpt lat="34.9358357" lon="32.9326724"><ele>1132.3</ele><time>2015-04-29T14:14:11.0000000+00:00</time></trkpt><trkpt lat="34.9358878" lon="32.932657"><ele>1133.2</ele><time>2015-04-29T14:14:15.0000000+00:00</time></trkpt><trkpt lat="34.9359446" lon="32.9326493"><ele>1133.2</ele><time>2015-04-29T14:14:19.0000000+00:00</time></trkpt><trkpt lat="34.9359997" lon="32.9326378"><ele>1133.7</ele><time>2015-04-29T14:14:23.0000000+00:00</time></trkpt><trkpt lat="34.9360466" lon="32.9326092"><ele>1133.5</ele><time>2015-04-29T14:14:27.0000000+00:00</time></trkpt><trkpt lat="34.9360912" lon="32.9325983"><ele>1134.6</ele><time>2015-04-29T14:14:31.0000000+00:00</time></trkpt><trkpt lat="34.9361426" lon="32.9325784"><ele>1134.8</ele><time>2015-04-29T14:14:36.0000000+00:00</time></trkpt><trkpt lat="34.9361881" lon="32.9325628"><ele>1134.5</ele><time>2015-04-29T14:14:40.0000000+00:00</time></trkpt><trkpt lat="34.9362348" lon="32.9325481"><ele>1134.7</ele><time>2015-04-29T14:14:44.0000000+00:00</time></trkpt><trkpt lat="34.9362795" lon="32.9325315"><ele>1135.6</ele><time>2015-04-29T14:14:48.0000000+00:00</time></trkpt><trkpt lat="34.9363326" lon="32.9325193"><ele>1137.4</ele><time>2015-04-29T14:14:53.0000000+00:00</time></trkpt><trkpt lat="34.9363771" lon="32.9325098"><ele>1139.1</ele><time>2015-04-29T14:14:57.0000000+00:00</time></trkpt><trkpt lat="34.9364341" lon="32.932491"><ele>1140.0</ele><time>2015-04-29T14:15:25.0000000+00:00</time></trkpt><trkpt lat="34.9364855" lon="32.9324588"><ele>1141.3</ele><time>2015-04-29T14:15:28.0000000+00:00</time></trkpt><trkpt lat="34.9365367" lon="32.9324411"><ele>1140.0</ele><time>2015-04-29T14:15:31.0000000+00:00</time></trkpt><trkpt lat="34.9365812" lon="32.9324292"><ele>1140.3</ele><time>2015-04-29T14:15:34.0000000+00:00</time></trkpt><trkpt lat="34.93663" lon="32.9324343"><ele>1141.5</ele><time>2015-04-29T14:15:37.0000000+00:00</time></trkpt><trkpt lat="34.9366864" lon="32.9324174"><ele>1143.2</ele><time>2015-04-29T14:15:41.0000000+00:00</time></trkpt><trkpt lat="34.9367402" lon="32.9324054"><ele>1143.7</ele><time>2015-04-29T14:15:45.0000000+00:00</time></trkpt><trkpt lat="34.936794" lon="32.9324054"><ele>1145.5</ele><time>2015-04-29T14:15:49.0000000+00:00</time></trkpt><trkpt lat="34.9368416" lon="32.9323955"><ele>1149.3</ele><time>2015-04-29T14:15:53.0000000+00:00</time></trkpt><trkpt lat="34.9368906" lon="32.9323792"><ele>1152.6</ele><time>2015-04-29T14:15:57.0000000+00:00</time></trkpt><trkpt lat="34.9369406" lon="32.9323707"><ele>1155.4</ele><time>2015-04-29T14:16:01.0000000+00:00</time></trkpt><trkpt lat="34.9369888" lon="32.9323498"><ele>1155.7</ele><time>2015-04-29T14:16:05.0000000+00:00</time></trkpt><trkpt lat="34.9370391" lon="32.9323297"><ele>1155.3</ele><time>2015-04-29T14:16:09.0000000+00:00</time></trkpt><trkpt lat="34.9370878" lon="32.9323157"><ele>1154.7</ele><time>2015-04-29T14:16:13.0000000+00:00</time></trkpt><trkpt lat="34.9371326" lon="32.932304"><ele>1155.0</ele><time>2015-04-29T14:16:17.0000000+00:00</time></trkpt><trkpt lat="34.9371754" lon="32.9322867"><ele>1156.0</ele><time>2015-04-29T14:16:21.0000000+00:00</time></trkpt><trkpt lat="34.9372237" lon="32.9322729"><ele>1157.7</ele><time>2015-04-29T14:16:26.0000000+00:00</time></trkpt><trkpt lat="34.9372758" lon="32.9322514"><ele>1156.9</ele><time>2015-04-29T14:16:31.0000000+00:00</time></trkpt><trkpt lat="34.9373251" lon="32.9322356"><ele>1154.0</ele><time>2015-04-29T14:16:36.0000000+00:00</time></trkpt><trkpt lat="34.9373686" lon="32.9322022"><ele>1153.7</ele><time>2015-04-29T14:16:42.0000000+00:00</time></trkpt><trkpt lat="34.9374077" lon="32.9321744"><ele>1153.1</ele><time>2015-04-29T14:16:47.0000000+00:00</time></trkpt><trkpt lat="34.9374601" lon="32.9321524"><ele>1152.9</ele><time>2015-04-29T14:16:52.0000000+00:00</time></trkpt><trkpt lat="34.9375151" lon="32.932135"><ele>1152.8</ele><time>2015-04-29T14:16:57.0000000+00:00</time></trkpt><trkpt lat="34.9375679" lon="32.9321151"><ele>1153.0</ele><time>2015-04-29T14:17:01.0000000+00:00</time></trkpt><trkpt lat="34.9376189" lon="32.9320849"><ele>1151.3</ele><time>2015-04-29T14:17:05.0000000+00:00</time></trkpt><trkpt lat="34.9376722" lon="32.932067"><ele>1150.4</ele><time>2015-04-29T14:17:09.0000000+00:00</time></trkpt><trkpt lat="34.9377156" lon="32.9320493"><ele>1150.0</ele><time>2015-04-29T14:17:12.0000000+00:00</time></trkpt><trkpt lat="34.937775" lon="32.9320296"><ele>1149.3</ele><time>2015-04-29T14:17:15.0000000+00:00</time></trkpt><trkpt lat="34.9378244" lon="32.9320044"><ele>1148.0</ele><time>2015-04-29T14:17:18.0000000+00:00</time></trkpt><trkpt lat="34.9378708" lon="32.9319854"><ele>1147.8</ele><time>2015-04-29T14:17:21.0000000+00:00</time></trkpt><trkpt lat="34.9379232" lon="32.9319797"><ele>1148.5</ele><time>2015-04-29T14:17:24.0000000+00:00</time></trkpt><trkpt lat="34.9379752" lon="32.9319685"><ele>1149.0</ele><time>2015-04-29T14:17:27.0000000+00:00</time></trkpt><trkpt lat="34.9380255" lon="32.9319491"><ele>1149.4</ele><time>2015-04-29T14:17:30.0000000+00:00</time></trkpt><trkpt lat="34.9380734" lon="32.9319289"><ele>1149.7</ele><time>2015-04-29T14:17:33.0000000+00:00</time></trkpt><trkpt lat="34.9381265" lon="32.9319023"><ele>1152.8</ele><time>2015-04-29T14:17:37.0000000+00:00</time></trkpt><trkpt lat="34.9381828" lon="32.9318794"><ele>1152.1</ele><time>2015-04-29T14:17:41.0000000+00:00</time></trkpt><trkpt lat="34.93823" lon="32.9318611"><ele>1150.9</ele><time>2015-04-29T14:17:44.0000000+00:00</time></trkpt><trkpt lat="34.9382776" lon="32.931842"><ele>1151.9</ele><time>2015-04-29T14:17:47.0000000+00:00</time></trkpt><trkpt lat="34.9383258" lon="32.9318326"><ele>1153.2</ele><time>2015-04-29T14:17:50.0000000+00:00</time></trkpt><trkpt lat="34.9383716" lon="32.9318254"><ele>1154.6</ele><time>2015-04-29T14:17:53.0000000+00:00</time></trkpt><trkpt lat="34.9384168" lon="32.9318132"><ele>1155.5</ele><time>2015-04-29T14:17:56.0000000+00:00</time></trkpt><trkpt lat="34.9384702" lon="32.9317845"><ele>1156.7</ele><time>2015-04-29T14:18:00.0000000+00:00</time></trkpt><trkpt lat="34.9385246" lon="32.9317639"><ele>1158.4</ele><time>2015-04-29T14:18:04.0000000+00:00</time></trkpt><trkpt lat="34.9385772" lon="32.931749"><ele>1159.4</ele><time>2015-04-29T14:18:08.0000000+00:00</time></trkpt><trkpt lat="34.9386313" lon="32.9317395"><ele>1160.6</ele><time>2015-04-29T14:18:12.0000000+00:00</time></trkpt><trkpt lat="34.9386876" lon="32.9317266"><ele>1161.3</ele><time>2015-04-29T14:18:16.0000000+00:00</time></trkpt><trkpt lat="34.938746" lon="32.9317078"><ele>1161.2</ele><time>2015-04-29T14:18:20.0000000+00:00</time></trkpt><trkpt lat="34.9388022" lon="32.931692"><ele>1161.3</ele><time>2015-04-29T14:18:24.0000000+00:00</time></trkpt><trkpt lat="34.9388549" lon="32.9316788"><ele>1161.8</ele><time>2015-04-29T14:18:29.0000000+00:00</time></trkpt><trkpt lat="34.938895" lon="32.9316502"><ele>1162.3</ele><time>2015-04-29T14:18:33.0000000+00:00</time></trkpt><trkpt lat="34.9389413" lon="32.9316362"><ele>1162.7</ele><time>2015-04-29T14:18:37.0000000+00:00</time></trkpt><trkpt lat="34.9389878" lon="32.9316197"><ele>1163.0</ele><time>2015-04-29T14:18:41.0000000+00:00</time></trkpt><trkpt lat="34.9390409" lon="32.9316047"><ele>1163.3</ele><time>2015-04-29T14:18:45.0000000+00:00</time></trkpt><trkpt lat="34.9390927" lon="32.931585"><ele>1164.5</ele><time>2015-04-29T14:18:49.0000000+00:00</time></trkpt><trkpt lat="34.9391441" lon="32.9315565"><ele>1164.7</ele><time>2015-04-29T14:18:53.0000000+00:00</time></trkpt><trkpt lat="34.9391935" lon="32.9315435"><ele>1165.4</ele><time>2015-04-29T14:18:57.0000000+00:00</time></trkpt><trkpt lat="34.9392407" lon="32.931526"><ele>1165.7</ele><time>2015-04-29T14:19:01.0000000+00:00</time></trkpt><trkpt lat="34.9392901" lon="32.931506"><ele>1166.6</ele><time>2015-04-29T14:19:05.0000000+00:00</time></trkpt><trkpt lat="34.93934" lon="32.9314852"><ele>1166.5</ele><time>2015-04-29T14:19:09.0000000+00:00</time></trkpt><trkpt lat="34.939383" lon="32.9314585"><ele>1167.6</ele><time>2015-04-29T14:19:13.0000000+00:00</time></trkpt><trkpt lat="34.9394315" lon="32.9314418"><ele>1168.3</ele><time>2015-04-29T14:19:17.0000000+00:00</time></trkpt><trkpt lat="34.9394793" lon="32.931426"><ele>1168.7</ele><time>2015-04-29T14:19:21.0000000+00:00</time></trkpt><trkpt lat="34.9395212" lon="32.9313928"><ele>1169.4</ele><time>2015-04-29T14:19:25.0000000+00:00</time></trkpt><trkpt lat="34.9395609" lon="32.9313615"><ele>1169.0</ele><time>2015-04-29T14:19:29.0000000+00:00</time></trkpt><trkpt lat="34.9396084" lon="32.9313419"><ele>1169.7</ele><time>2015-04-29T14:19:33.0000000+00:00</time></trkpt><trkpt lat="34.9396567" lon="32.9313258"><ele>1170.9</ele><time>2015-04-29T14:19:37.0000000+00:00</time></trkpt><trkpt lat="34.9397076" lon="32.9313084"><ele>1171.3</ele><time>2015-04-29T14:19:42.0000000+00:00</time></trkpt><trkpt lat="34.9397587" lon="32.9312886"><ele>1172.7</ele><time>2015-04-29T14:19:47.0000000+00:00</time></trkpt><trkpt lat="34.9398109" lon="32.9312636"><ele>1171.8</ele><time>2015-04-29T14:19:52.0000000+00:00</time></trkpt><trkpt lat="34.9398526" lon="32.9312328"><ele>1171.8</ele><time>2015-04-29T14:19:56.0000000+00:00</time></trkpt><trkpt lat="34.9398968" lon="32.9311956"><ele>1172.6</ele><time>2015-04-29T14:20:00.0000000+00:00</time></trkpt><trkpt lat="34.9399429" lon="32.9311617"><ele>1173.6</ele><time>2015-04-29T14:20:04.0000000+00:00</time></trkpt><trkpt lat="34.9399891" lon="32.9311289"><ele>1175.1</ele><time>2015-04-29T14:20:08.0000000+00:00</time></trkpt><trkpt lat="34.9400304" lon="32.9310942"><ele>1176.2</ele><time>2015-04-29T14:20:12.0000000+00:00</time></trkpt><trkpt lat="34.9400706" lon="32.931065"><ele>1177.2</ele><time>2015-04-29T14:20:16.0000000+00:00</time></trkpt><trkpt lat="34.9401168" lon="32.931042"><ele>1178.2</ele><time>2015-04-29T14:20:20.0000000+00:00</time></trkpt><trkpt lat="34.9401636" lon="32.9310152"><ele>1178.7</ele><time>2015-04-29T14:20:24.0000000+00:00</time></trkpt><trkpt lat="34.9402136" lon="32.9309802"><ele>1179.5</ele><time>2015-04-29T14:20:28.0000000+00:00</time></trkpt><trkpt lat="34.9402704" lon="32.9309575"><ele>1180.7</ele><time>2015-04-29T14:20:32.0000000+00:00</time></trkpt><trkpt lat="34.9403152" lon="32.9309693"><ele>1179.7</ele><time>2015-04-29T14:22:15.0000000+00:00</time></trkpt><trkpt lat="34.940352" lon="32.9310021"><ele>1185.0</ele><time>2015-04-29T14:24:44.0000000+00:00</time></trkpt><trkpt lat="34.9403819" lon="32.9309485"><ele>1181.1</ele><time>2015-04-29T14:24:50.0000000+00:00</time></trkpt><trkpt lat="34.9404215" lon="32.9308994"><ele>1179.9</ele><time>2015-04-29T14:24:54.0000000+00:00</time></trkpt><trkpt lat="34.9404702" lon="32.9308638"><ele>1180.6</ele><time>2015-04-29T14:24:58.0000000+00:00</time></trkpt><trkpt lat="34.9405144" lon="32.9308405"><ele>1181.5</ele><time>2015-04-29T14:25:01.0000000+00:00</time></trkpt><trkpt lat="34.9405615" lon="32.9308196"><ele>1182.6</ele><time>2015-04-29T14:25:04.0000000+00:00</time></trkpt><trkpt lat="34.9406076" lon="32.9307887"><ele>1181.9</ele><time>2015-04-29T14:25:07.0000000+00:00</time></trkpt><trkpt lat="34.9406509" lon="32.9307544"><ele>1181.9</ele><time>2015-04-29T14:25:10.0000000+00:00</time></trkpt><trkpt lat="34.9406991" lon="32.9307348"><ele>1181.8</ele><time>2015-04-29T14:25:13.0000000+00:00</time></trkpt><trkpt lat="34.9407458" lon="32.9307202"><ele>1182.5</ele><time>2015-04-29T14:25:16.0000000+00:00</time></trkpt><trkpt lat="34.9407998" lon="32.9307088"><ele>1184.6</ele><time>2015-04-29T14:25:20.0000000+00:00</time></trkpt><trkpt lat="34.9408508" lon="32.9306833"><ele>1186.4</ele><time>2015-04-29T14:25:24.0000000+00:00</time></trkpt><trkpt lat="34.9409076" lon="32.9306606"><ele>1186.7</ele><time>2015-04-29T14:25:28.0000000+00:00</time></trkpt><trkpt lat="34.9409496" lon="32.9306378"><ele>1187.3</ele><time>2015-04-29T14:25:31.0000000+00:00</time></trkpt><trkpt lat="34.940995" lon="32.9306137"><ele>1187.2</ele><time>2015-04-29T14:25:34.0000000+00:00</time></trkpt><trkpt lat="34.9410384" lon="32.9305862"><ele>1187.6</ele><time>2015-04-29T14:25:37.0000000+00:00</time></trkpt><trkpt lat="34.941087" lon="32.9305628"><ele>1186.5</ele><time>2015-04-29T14:25:40.0000000+00:00</time></trkpt><trkpt lat="34.9411322" lon="32.9305429"><ele>1185.7</ele><time>2015-04-29T14:25:43.0000000+00:00</time></trkpt><trkpt lat="34.9411804" lon="32.9305352"><ele>1186.9</ele><time>2015-04-29T14:25:47.0000000+00:00</time></trkpt><trkpt lat="34.9412397" lon="32.9305286"><ele>1189.0</ele><time>2015-04-29T14:25:52.0000000+00:00</time></trkpt><trkpt lat="34.9412875" lon="32.9305076"><ele>1188.0</ele><time>2015-04-29T14:25:55.0000000+00:00</time></trkpt><trkpt lat="34.9413438" lon="32.9304912"><ele>1187.8</ele><time>2015-04-29T14:25:58.0000000+00:00</time></trkpt><trkpt lat="34.9414004" lon="32.9304812"><ele>1187.8</ele><time>2015-04-29T14:26:01.0000000+00:00</time></trkpt><trkpt lat="34.9414473" lon="32.9304775"><ele>1188.3</ele><time>2015-04-29T14:26:03.0000000+00:00</time></trkpt><trkpt lat="34.9415015" lon="32.9304668"><ele>1188.6</ele><time>2015-04-29T14:26:06.0000000+00:00</time></trkpt><trkpt lat="34.941549" lon="32.9304527"><ele>1189.0</ele><time>2015-04-29T14:26:09.0000000+00:00</time></trkpt><trkpt lat="34.9416042" lon="32.9304412"><ele>1186.8</ele><time>2015-04-29T14:26:13.0000000+00:00</time></trkpt><trkpt lat="34.9416517" lon="32.9304284"><ele>1185.8</ele><time>2015-04-29T14:26:17.0000000+00:00</time></trkpt><trkpt lat="34.941709" lon="32.9304263"><ele>1187.1</ele><time>2015-04-29T14:26:21.0000000+00:00</time></trkpt><trkpt lat="34.9417555" lon="32.9304298"><ele>1187.7</ele><time>2015-04-29T14:26:24.0000000+00:00</time></trkpt><trkpt lat="34.9418145" lon="32.9304224"><ele>1189.8</ele><time>2015-04-29T14:26:28.0000000+00:00</time></trkpt><trkpt lat="34.9418623" lon="32.9304277"><ele>1191.4</ele><time>2015-04-29T14:26:31.0000000+00:00</time></trkpt><trkpt lat="34.9419218" lon="32.9304384"><ele>1191.7</ele><time>2015-04-29T14:26:34.0000000+00:00</time></trkpt><trkpt lat="34.9419702" lon="32.9304413"><ele>1190.8</ele><time>2015-04-29T14:26:36.0000000+00:00</time></trkpt><trkpt lat="34.9420181" lon="32.9304499"><ele>1190.0</ele><time>2015-04-29T14:26:38.0000000+00:00</time></trkpt><trkpt lat="34.942074" lon="32.9304612"><ele>1190.2</ele><time>2015-04-29T14:26:41.0000000+00:00</time></trkpt><trkpt lat="34.9421207" lon="32.9304603"><ele>1190.7</ele><time>2015-04-29T14:26:44.0000000+00:00</time></trkpt><trkpt lat="34.942172" lon="32.9304458"><ele>1189.9</ele><time>2015-04-29T14:26:49.0000000+00:00</time></trkpt><trkpt lat="34.9422175" lon="32.9304201"><ele>1190.2</ele><time>2015-04-29T14:26:53.0000000+00:00</time></trkpt><trkpt lat="34.942259" lon="32.9303973"><ele>1188.2</ele><time>2015-04-29T14:27:05.0000000+00:00</time></trkpt><trkpt lat="34.9423084" lon="32.9303837"><ele>1187.3</ele><time>2015-04-29T14:27:08.0000000+00:00</time></trkpt><trkpt lat="34.9423868" lon="32.9303968"><ele>1187.4</ele><time>2015-04-29T14:27:10.0000000+00:00</time></trkpt><trkpt lat="34.942437" lon="32.930408"><ele>1187.6</ele><time>2015-04-29T14:27:11.0000000+00:00</time></trkpt><trkpt lat="34.9425116" lon="32.9304246"><ele>1187.7</ele><time>2015-04-29T14:27:12.0000000+00:00</time></trkpt><trkpt lat="34.942577" lon="32.9304176"><ele>1187.7</ele><time>2015-04-29T14:27:13.0000000+00:00</time></trkpt><trkpt lat="34.9426382" lon="32.9303908"><ele>1187.7</ele><time>2015-04-29T14:27:14.0000000+00:00</time></trkpt><trkpt lat="34.9426874" lon="32.9303477"><ele>1187.8</ele><time>2015-04-29T14:27:15.0000000+00:00</time></trkpt><trkpt lat="34.9427317" lon="32.9302869"><ele>1188.3</ele><time>2015-04-29T14:27:16.0000000+00:00</time></trkpt><trkpt lat="34.9427504" lon="32.9302017"><ele>1188.5</ele><time>2015-04-29T14:27:17.0000000+00:00</time></trkpt><trkpt lat="34.9427534" lon="32.9301132"><ele>1188.6</ele><time>2015-04-29T14:27:18.0000000+00:00</time></trkpt><trkpt lat="34.9427517" lon="32.9300246"><ele>1189.2</ele><time>2015-04-29T14:27:19.0000000+00:00</time></trkpt><trkpt lat="34.9427573" lon="32.9299232"><ele>1189.0</ele><time>2015-04-29T14:27:20.0000000+00:00</time></trkpt><trkpt lat="34.9427399" lon="32.9298129"><ele>1188.4</ele><time>2015-04-29T14:27:21.0000000+00:00</time></trkpt><trkpt lat="34.9427316" lon="32.9297057"><ele>1187.6</ele><time>2015-04-29T14:27:22.0000000+00:00</time></trkpt><trkpt lat="34.9427185" lon="32.9296032"><ele>1187.2</ele><time>2015-04-29T14:27:23.0000000+00:00</time></trkpt><trkpt lat="34.9427124" lon="32.9295014"><ele>1186.5</ele><time>2015-04-29T14:27:24.0000000+00:00</time></trkpt><trkpt lat="34.9427149" lon="32.9294027"><ele>1186.1</ele><time>2015-04-29T14:27:25.0000000+00:00</time></trkpt><trkpt lat="34.9427278" lon="32.9293089"><ele>1185.4</ele><time>2015-04-29T14:27:26.0000000+00:00</time></trkpt><trkpt lat="34.9427384" lon="32.9292192"><ele>1184.6</ele><time>2015-04-29T14:27:27.0000000+00:00</time></trkpt><trkpt lat="34.942774" lon="32.9291388"><ele>1183.7</ele><time>2015-04-29T14:27:28.0000000+00:00</time></trkpt><trkpt lat="34.9428245" lon="32.92906"><ele>1182.7</ele><time>2015-04-29T14:27:29.0000000+00:00</time></trkpt><trkpt lat="34.9428857" lon="32.9289968"><ele>1182.2</ele><time>2015-04-29T14:27:30.0000000+00:00</time></trkpt><trkpt lat="34.942956" lon="32.9289506"><ele>1182.0</ele><time>2015-04-29T14:27:31.0000000+00:00</time></trkpt><trkpt lat="34.9430434" lon="32.9288954"><ele>1182.4</ele><time>2015-04-29T14:27:32.0000000+00:00</time></trkpt><trkpt lat="34.9431348" lon="32.9288554"><ele>1182.1</ele><time>2015-04-29T14:27:33.0000000+00:00</time></trkpt><trkpt lat="34.9432287" lon="32.9288135"><ele>1181.9</ele><time>2015-04-29T14:27:34.0000000+00:00</time></trkpt><trkpt lat="34.9433146" lon="32.9287574"><ele>1181.3</ele><time>2015-04-29T14:27:35.0000000+00:00</time></trkpt><trkpt lat="34.9434109" lon="32.9286996"><ele>1181.6</ele><time>2015-04-29T14:27:36.0000000+00:00</time></trkpt><trkpt lat="34.943498" lon="32.9286569"><ele>1181.7</ele><time>2015-04-29T14:27:37.0000000+00:00</time></trkpt><trkpt lat="34.9435972" lon="32.9286123"><ele>1181.7</ele><time>2015-04-29T14:27:38.0000000+00:00</time></trkpt><trkpt lat="34.9436991" lon="32.9285671"><ele>1181.2</ele><time>2015-04-29T14:27:39.0000000+00:00</time></trkpt><trkpt lat="34.9438057" lon="32.9285152"><ele>1181.0</ele><time>2015-04-29T14:27:40.0000000+00:00</time></trkpt><trkpt lat="34.943893" lon="32.9284396"><ele>1180.4</ele><time>2015-04-29T14:27:41.0000000+00:00</time></trkpt><trkpt lat="34.9439903" lon="32.9283774"><ele>1180.1</ele><time>2015-04-29T14:27:42.0000000+00:00</time></trkpt><trkpt lat="34.9440823" lon="32.9283067"><ele>1179.4</ele><time>2015-04-29T14:27:43.0000000+00:00</time></trkpt><trkpt lat="34.9441985" lon="32.9282335"><ele>1178.1</ele><time>2015-04-29T14:27:44.0000000+00:00</time></trkpt><trkpt lat="34.9443016" lon="32.9281538"><ele>1176.9</ele><time>2015-04-29T14:27:45.0000000+00:00</time></trkpt><trkpt lat="34.9444129" lon="32.9280778"><ele>1175.8</ele><time>2015-04-29T14:27:46.0000000+00:00</time></trkpt><trkpt lat="34.9445131" lon="32.9279922"><ele>1175.3</ele><time>2015-04-29T14:27:47.0000000+00:00</time></trkpt><trkpt lat="34.9446031" lon="32.9278697"><ele>1173.0</ele><time>2015-04-29T14:27:48.0000000+00:00</time></trkpt><trkpt lat="34.9446946" lon="32.9277465"><ele>1170.9</ele><time>2015-04-29T14:27:49.0000000+00:00</time></trkpt><trkpt lat="34.9447836" lon="32.927622"><ele>1168.8</ele><time>2015-04-29T14:27:50.0000000+00:00</time></trkpt><trkpt lat="34.9448619" lon="32.9275038"><ele>1167.3</ele><time>2015-04-29T14:27:51.0000000+00:00</time></trkpt><trkpt lat="34.944953" lon="32.9273644"><ele>1165.5</ele><time>2015-04-29T14:27:52.0000000+00:00</time></trkpt><trkpt lat="34.9450249" lon="32.927231"><ele>1164.1</ele><time>2015-04-29T14:27:53.0000000+00:00</time></trkpt><trkpt lat="34.9450938" lon="32.9270956"><ele>1163.5</ele><time>2015-04-29T14:27:54.0000000+00:00</time></trkpt><trkpt lat="34.945148" lon="32.9269558"><ele>1162.6</ele><time>2015-04-29T14:27:55.0000000+00:00</time></trkpt><trkpt lat="34.9452182" lon="32.9268118"><ele>1161.7</ele><time>2015-04-29T14:27:56.0000000+00:00</time></trkpt><trkpt lat="34.9452754" lon="32.926677"><ele>1160.7</ele><time>2015-04-29T14:27:57.0000000+00:00</time></trkpt><trkpt lat="34.9453486" lon="32.9265596"><ele>1160.2</ele><time>2015-04-29T14:27:58.0000000+00:00</time></trkpt><trkpt lat="34.9454231" lon="32.9264482"><ele>1159.5</ele><time>2015-04-29T14:27:59.0000000+00:00</time></trkpt><trkpt lat="34.945509" lon="32.9263361"><ele>1159.1</ele><time>2015-04-29T14:28:00.0000000+00:00</time></trkpt><trkpt lat="34.9456157" lon="32.9262539"><ele>1159.0</ele><time>2015-04-29T14:28:01.0000000+00:00</time></trkpt><trkpt lat="34.9457149" lon="32.9261792"><ele>1158.9</ele><time>2015-04-29T14:28:02.0000000+00:00</time></trkpt><trkpt lat="34.945814" lon="32.9261189"><ele>1158.3</ele><time>2015-04-29T14:28:03.0000000+00:00</time></trkpt><trkpt lat="34.9459397" lon="32.9261066"><ele>1158.5</ele><time>2015-04-29T14:28:04.0000000+00:00</time></trkpt><trkpt lat="34.9460569" lon="32.9261173"><ele>1158.7</ele><time>2015-04-29T14:28:05.0000000+00:00</time></trkpt><trkpt lat="34.9461706" lon="32.9261474"><ele>1158.7</ele><time>2015-04-29T14:28:06.0000000+00:00</time></trkpt><trkpt lat="34.9462999" lon="32.9262006"><ele>1158.2</ele><time>2015-04-29T14:28:07.0000000+00:00</time></trkpt><trkpt lat="34.9463716" lon="32.9262809"><ele>1157.5</ele><time>2015-04-29T14:28:08.0000000+00:00</time></trkpt><trkpt lat="34.9464432" lon="32.9263607"><ele>1157.6</ele><time>2015-04-29T14:28:09.0000000+00:00</time></trkpt><trkpt lat="34.9464875" lon="32.9264426"><ele>1156.7</ele><time>2015-04-29T14:28:10.0000000+00:00</time></trkpt><trkpt lat="34.9465328" lon="32.926551"><ele>1155.7</ele><time>2015-04-29T14:28:11.0000000+00:00</time></trkpt><trkpt lat="34.9465516" lon="32.9266593"><ele>1155.2</ele><time>2015-04-29T14:28:12.0000000+00:00</time></trkpt><trkpt lat="34.946526" lon="32.9267339"><ele>1152.5</ele><time>2015-04-29T14:28:13.0000000+00:00</time></trkpt><trkpt lat="34.9465183" lon="32.9268401"><ele>1150.6</ele><time>2015-04-29T14:28:14.0000000+00:00</time></trkpt><trkpt lat="34.946509" lon="32.9269548"><ele>1149.7</ele><time>2015-04-29T14:28:15.0000000+00:00</time></trkpt><trkpt lat="34.9464789" lon="32.9270708"><ele>1149.2</ele><time>2015-04-29T14:28:16.0000000+00:00</time></trkpt><trkpt lat="34.9464429" lon="32.9271822"><ele>1149.0</ele><time>2015-04-29T14:28:17.0000000+00:00</time></trkpt><trkpt lat="34.9464081" lon="32.9272924"><ele>1148.9</ele><time>2015-04-29T14:28:18.0000000+00:00</time></trkpt><trkpt lat="34.9463705" lon="32.9274085"><ele>1148.3</ele><time>2015-04-29T14:28:19.0000000+00:00</time></trkpt><trkpt lat="34.9463211" lon="32.9275126"><ele>1146.5</ele><time>2015-04-29T14:28:20.0000000+00:00</time></trkpt><trkpt lat="34.9462695" lon="32.9276292"><ele>1145.2</ele><time>2015-04-29T14:28:21.0000000+00:00</time></trkpt><trkpt lat="34.946227" lon="32.9277514"><ele>1144.5</ele><time>2015-04-29T14:28:22.0000000+00:00</time></trkpt><trkpt lat="34.9461895" lon="32.9278702"><ele>1143.6</ele><time>2015-04-29T14:28:23.0000000+00:00</time></trkpt><trkpt lat="34.9461445" lon="32.9279926"><ele>1143.2</ele><time>2015-04-29T14:28:24.0000000+00:00</time></trkpt><trkpt lat="34.9461017" lon="32.9281014"><ele>1142.5</ele><time>2015-04-29T14:28:25.0000000+00:00</time></trkpt><trkpt lat="34.9460564" lon="32.9282091"><ele>1142.1</ele><time>2015-04-29T14:28:26.0000000+00:00</time></trkpt><trkpt lat="34.9460066" lon="32.9283098"><ele>1141.9</ele><time>2015-04-29T14:28:27.0000000+00:00</time></trkpt><trkpt lat="34.9459752" lon="32.9283894"><ele>1141.4</ele><time>2015-04-29T14:28:28.0000000+00:00</time></trkpt><trkpt lat="34.9459519" lon="32.9284636"><ele>1140.6</ele><time>2015-04-29T14:28:29.0000000+00:00</time></trkpt><trkpt lat="34.945929" lon="32.9285146"><ele>1137.9</ele><time>2015-04-29T14:28:33.0000000+00:00</time></trkpt><trkpt lat="34.9458989" lon="32.928577"><ele>1138.1</ele><time>2015-04-29T14:28:56.0000000+00:00</time></trkpt><trkpt lat="34.9458798" lon="32.9286562"><ele>1137.9</ele><time>2015-04-29T14:28:58.0000000+00:00</time></trkpt><trkpt lat="34.9458548" lon="32.9287326"><ele>1137.0</ele><time>2015-04-29T14:29:00.0000000+00:00</time></trkpt><trkpt lat="34.9458398" lon="32.9288278"><ele>1136.3</ele><time>2015-04-29T14:29:02.0000000+00:00</time></trkpt><trkpt lat="34.945842" lon="32.9288963"><ele>1135.5</ele><time>2015-04-29T14:29:03.0000000+00:00</time></trkpt><trkpt lat="34.9458856" lon="32.9290001"><ele>1134.2</ele><time>2015-04-29T14:29:04.0000000+00:00</time></trkpt><trkpt lat="34.9459148" lon="32.9290865"><ele>1133.5</ele><time>2015-04-29T14:29:05.0000000+00:00</time></trkpt><trkpt lat="34.9459332" lon="32.9291606"><ele>1133.1</ele><time>2015-04-29T14:29:06.0000000+00:00</time></trkpt><trkpt lat="34.9459641" lon="32.9292353"><ele>1132.4</ele><time>2015-04-29T14:29:07.0000000+00:00</time></trkpt><trkpt lat="34.9459717" lon="32.9293067"><ele>1130.6</ele><time>2015-04-29T14:29:08.0000000+00:00</time></trkpt><trkpt lat="34.9460231" lon="32.9293961"><ele>1128.7</ele><time>2015-04-29T14:29:09.0000000+00:00</time></trkpt><trkpt lat="34.9460745" lon="32.9294748"><ele>1127.7</ele><time>2015-04-29T14:29:10.0000000+00:00</time></trkpt><trkpt lat="34.9461257" lon="32.9295444"><ele>1127.2</ele><time>2015-04-29T14:29:11.0000000+00:00</time></trkpt><trkpt lat="34.9462059" lon="32.9296113"><ele>1127.5</ele><time>2015-04-29T14:29:12.0000000+00:00</time></trkpt><trkpt lat="34.9462803" lon="32.9296729"><ele>1127.6</ele><time>2015-04-29T14:29:13.0000000+00:00</time></trkpt><trkpt lat="34.9463675" lon="32.9297208"><ele>1127.2</ele><time>2015-04-29T14:29:14.0000000+00:00</time></trkpt><trkpt lat="34.9464466" lon="32.9297633"><ele>1126.5</ele><time>2015-04-29T14:29:15.0000000+00:00</time></trkpt><trkpt lat="34.9465438" lon="32.9297994"><ele>1126.1</ele><time>2015-04-29T14:29:16.0000000+00:00</time></trkpt><trkpt lat="34.9466406" lon="32.9298014"><ele>1125.9</ele><time>2015-04-29T14:29:17.0000000+00:00</time></trkpt><trkpt lat="34.9467241" lon="32.9297999"><ele>1124.9</ele><time>2015-04-29T14:29:18.0000000+00:00</time></trkpt><trkpt lat="34.9468235" lon="32.929804"><ele>1124.3</ele><time>2015-04-29T14:29:19.0000000+00:00</time></trkpt><trkpt lat="34.9469143" lon="32.9297999"><ele>1124.0</ele><time>2015-04-29T14:29:20.0000000+00:00</time></trkpt><trkpt lat="34.9469968" lon="32.9297937"><ele>1122.9</ele><time>2015-04-29T14:29:21.0000000+00:00</time></trkpt><trkpt lat="34.9470568" lon="32.9297493"><ele>1121.8</ele><time>2015-04-29T14:29:22.0000000+00:00</time></trkpt><trkpt lat="34.9471071" lon="32.9296948"><ele>1120.8</ele><time>2015-04-29T14:29:23.0000000+00:00</time></trkpt><trkpt lat="34.9471779" lon="32.9296477"><ele>1120.3</ele><time>2015-04-29T14:29:24.0000000+00:00</time></trkpt><trkpt lat="34.9472646" lon="32.9296152"><ele>1120.0</ele><time>2015-04-29T14:29:25.0000000+00:00</time></trkpt><trkpt lat="34.9473521" lon="32.9295703"><ele>1119.9</ele><time>2015-04-29T14:29:26.0000000+00:00</time></trkpt><trkpt lat="34.9474521" lon="32.9295418"><ele>1119.8</ele><time>2015-04-29T14:29:27.0000000+00:00</time></trkpt><trkpt lat="34.9475414" lon="32.9294841"><ele>1119.3</ele><time>2015-04-29T14:29:28.0000000+00:00</time></trkpt><trkpt lat="34.9476381" lon="32.9294384"><ele>1118.5</ele><time>2015-04-29T14:29:29.0000000+00:00</time></trkpt><trkpt lat="34.9477387" lon="32.9293946"><ele>1118.1</ele><time>2015-04-29T14:29:30.0000000+00:00</time></trkpt><trkpt lat="34.9478403" lon="32.9293473"><ele>1118.0</ele><time>2015-04-29T14:29:31.0000000+00:00</time></trkpt><trkpt lat="34.94796" lon="32.9293121"><ele>1117.4</ele><time>2015-04-29T14:29:32.0000000+00:00</time></trkpt><trkpt lat="34.9480566" lon="32.929246"><ele>1116.6</ele><time>2015-04-29T14:29:33.0000000+00:00</time></trkpt><trkpt lat="34.9481615" lon="32.9291861"><ele>1115.7</ele><time>2015-04-29T14:29:34.0000000+00:00</time></trkpt><trkpt lat="34.948268" lon="32.9291242"><ele>1114.7</ele><time>2015-04-29T14:29:35.0000000+00:00</time></trkpt><trkpt lat="34.9483705" lon="32.9290462"><ele>1114.2</ele><time>2015-04-29T14:29:36.0000000+00:00</time></trkpt><trkpt lat="34.948478" lon="32.9289711"><ele>1113.5</ele><time>2015-04-29T14:29:37.0000000+00:00</time></trkpt><trkpt lat="34.9485951" lon="32.9289019"><ele>1113.1</ele><time>2015-04-29T14:29:38.0000000+00:00</time></trkpt><trkpt lat="34.9486907" lon="32.9288174"><ele>1111.9</ele><time>2015-04-29T14:29:39.0000000+00:00</time></trkpt><trkpt lat="34.9488006" lon="32.928732"><ele>1111.4</ele><time>2015-04-29T14:29:40.0000000+00:00</time></trkpt><trkpt lat="34.9489032" lon="32.9286268"><ele>1110.1</ele><time>2015-04-29T14:29:41.0000000+00:00</time></trkpt><trkpt lat="34.948994" lon="32.9285168"><ele>1108.9</ele><time>2015-04-29T14:29:42.0000000+00:00</time></trkpt><trkpt lat="34.9490916" lon="32.9284"><ele>1107.3</ele><time>2015-04-29T14:29:43.0000000+00:00</time></trkpt><trkpt lat="34.9491847" lon="32.9282792"><ele>1105.6</ele><time>2015-04-29T14:29:44.0000000+00:00</time></trkpt><trkpt lat="34.9492668" lon="32.9281625"><ele>1104.7</ele><time>2015-04-29T14:29:45.0000000+00:00</time></trkpt><trkpt lat="34.9493628" lon="32.9280349"><ele>1104.2</ele><time>2015-04-29T14:29:46.0000000+00:00</time></trkpt><trkpt lat="34.9494594" lon="32.927927"><ele>1103.5</ele><time>2015-04-29T14:29:47.0000000+00:00</time></trkpt><trkpt lat="34.9495469" lon="32.9277993"><ele>1102.6</ele><time>2015-04-29T14:29:48.0000000+00:00</time></trkpt><trkpt lat="34.9495865" lon="32.9276488"><ele>1100.7</ele><time>2015-04-29T14:29:49.0000000+00:00</time></trkpt><trkpt lat="34.9496629" lon="32.9275182"><ele>1099.7</ele><time>2015-04-29T14:29:50.0000000+00:00</time></trkpt><trkpt lat="34.9497328" lon="32.9273925"><ele>1098.2</ele><time>2015-04-29T14:29:51.0000000+00:00</time></trkpt><trkpt lat="34.949803" lon="32.9272435"><ele>1096.5</ele><time>2015-04-29T14:29:52.0000000+00:00</time></trkpt><trkpt lat="34.9498628" lon="32.927104"><ele>1095.6</ele><time>2015-04-29T14:29:53.0000000+00:00</time></trkpt><trkpt lat="34.9499324" lon="32.9269682"><ele>1095.2</ele><time>2015-04-29T14:29:54.0000000+00:00</time></trkpt><trkpt lat="34.9500029" lon="32.926842"><ele>1094.5</ele><time>2015-04-29T14:29:55.0000000+00:00</time></trkpt><trkpt lat="34.9500704" lon="32.9267294"><ele>1093.1</ele><time>2015-04-29T14:29:56.0000000+00:00</time></trkpt><trkpt lat="34.9501285" lon="32.9266223"><ele>1092.4</ele><time>2015-04-29T14:29:57.0000000+00:00</time></trkpt><trkpt lat="34.9501855" lon="32.9265012"><ele>1092.1</ele><time>2015-04-29T14:29:58.0000000+00:00</time></trkpt><trkpt lat="34.9502503" lon="32.9263856"><ele>1091.9</ele><time>2015-04-29T14:29:59.0000000+00:00</time></trkpt><trkpt lat="34.950322" lon="32.9262602"><ele>1090.8</ele><time>2015-04-29T14:30:00.0000000+00:00</time></trkpt><trkpt lat="34.9503796" lon="32.9261447"><ele>1090.3</ele><time>2015-04-29T14:30:01.0000000+00:00</time></trkpt><trkpt lat="34.9504664" lon="32.9260467"><ele>1090.0</ele><time>2015-04-29T14:30:02.0000000+00:00</time></trkpt><trkpt lat="34.9505557" lon="32.9259551"><ele>1089.4</ele><time>2015-04-29T14:30:03.0000000+00:00</time></trkpt><trkpt lat="34.9506695" lon="32.9258638"><ele>1089.6</ele><time>2015-04-29T14:30:04.0000000+00:00</time></trkpt><trkpt lat="34.950766" lon="32.925786"><ele>1089.7</ele><time>2015-04-29T14:30:05.0000000+00:00</time></trkpt><trkpt lat="34.9508739" lon="32.9257214"><ele>1089.2</ele><time>2015-04-29T14:30:06.0000000+00:00</time></trkpt><trkpt lat="34.9509954" lon="32.9256799"><ele>1089.0</ele><time>2015-04-29T14:30:07.0000000+00:00</time></trkpt><trkpt lat="34.9511107" lon="32.9256323"><ele>1088.4</ele><time>2015-04-29T14:30:08.0000000+00:00</time></trkpt><trkpt lat="34.951212" lon="32.9255954"><ele>1087.6</ele><time>2015-04-29T14:30:09.0000000+00:00</time></trkpt><trkpt lat="34.9513232" lon="32.9256068"><ele>1086.2</ele><time>2015-04-29T14:30:10.0000000+00:00</time></trkpt><trkpt lat="34.9514185" lon="32.9256111"><ele>1084.5</ele><time>2015-04-29T14:30:11.0000000+00:00</time></trkpt><trkpt lat="34.9515143" lon="32.9256428"><ele>1083.6</ele><time>2015-04-29T14:30:12.0000000+00:00</time></trkpt><trkpt lat="34.9515905" lon="32.9256708"><ele>1083.2</ele><time>2015-04-29T14:30:13.0000000+00:00</time></trkpt><trkpt lat="34.951666" lon="32.9257148"><ele>1081.5</ele><time>2015-04-29T14:30:14.0000000+00:00</time></trkpt><trkpt lat="34.9517142" lon="32.9257402"><ele>1080.6</ele><time>2015-04-29T14:30:15.0000000+00:00</time></trkpt><trkpt lat="34.9517686" lon="32.9257275"><ele>1077.0</ele><time>2015-04-29T14:30:17.0000000+00:00</time></trkpt><trkpt lat="34.9517845" lon="32.9256754"><ele>1070.9</ele><time>2015-04-29T14:30:22.0000000+00:00</time></trkpt><trkpt lat="34.951798" lon="32.9256201"><ele>1065.0</ele><time>2015-04-29T14:31:08.0000000+00:00</time></trkpt><trkpt lat="34.9518166" lon="32.9255491"><ele>1063.8</ele><time>2015-04-29T14:31:12.0000000+00:00</time></trkpt><trkpt lat="34.9518099" lon="32.9254737"><ele>1064.3</ele><time>2015-04-29T14:31:15.0000000+00:00</time></trkpt><trkpt lat="34.9517903" lon="32.9254098"><ele>1063.6</ele><time>2015-04-29T14:31:18.0000000+00:00</time></trkpt><trkpt lat="34.9517782" lon="32.9253418"><ele>1064.2</ele><time>2015-04-29T14:31:21.0000000+00:00</time></trkpt><trkpt lat="34.9517774" lon="32.925281"><ele>1064.6</ele><time>2015-04-29T14:31:23.0000000+00:00</time></trkpt><trkpt lat="34.9517958" lon="32.9252207"><ele>1064.2</ele><time>2015-04-29T14:31:25.0000000+00:00</time></trkpt><trkpt lat="34.9518441" lon="32.9251742"><ele>1064.7</ele><time>2015-04-29T14:31:28.0000000+00:00</time></trkpt><trkpt lat="34.9519094" lon="32.9251616"><ele>1065.6</ele><time>2015-04-29T14:31:31.0000000+00:00</time></trkpt><trkpt lat="34.9519743" lon="32.9251571"><ele>1066.5</ele><time>2015-04-29T14:31:33.0000000+00:00</time></trkpt><trkpt lat="34.9520383" lon="32.9251473"><ele>1066.2</ele><time>2015-04-29T14:31:35.0000000+00:00</time></trkpt><trkpt lat="34.9520956" lon="32.9251403"><ele>1065.6</ele><time>2015-04-29T14:31:37.0000000+00:00</time></trkpt><trkpt lat="34.9521434" lon="32.9251112"><ele>1065.7</ele><time>2015-04-29T14:31:40.0000000+00:00</time></trkpt><trkpt lat="34.9521802" lon="32.9250742"><ele>1065.0</ele><time>2015-04-29T14:31:42.0000000+00:00</time></trkpt><trkpt lat="34.9522261" lon="32.9250128"><ele>1064.8</ele><time>2015-04-29T14:31:44.0000000+00:00</time></trkpt><trkpt lat="34.95227" lon="32.9249547"><ele>1064.3</ele><time>2015-04-29T14:31:46.0000000+00:00</time></trkpt><trkpt lat="34.9523047" lon="32.9248958"><ele>1063.9</ele><time>2015-04-29T14:31:48.0000000+00:00</time></trkpt><trkpt lat="34.9523346" lon="32.9248484"><ele>1063.8</ele><time>2015-04-29T14:31:50.0000000+00:00</time></trkpt><trkpt lat="34.9523558" lon="32.9247918"><ele>1063.8</ele><time>2015-04-29T14:31:52.0000000+00:00</time></trkpt><trkpt lat="34.9523536" lon="32.9247291"><ele>1064.3</ele><time>2015-04-29T14:31:54.0000000+00:00</time></trkpt><trkpt lat="34.9523358" lon="32.9246677"><ele>1064.1</ele><time>2015-04-29T14:31:56.0000000+00:00</time></trkpt><trkpt lat="34.9522924" lon="32.9246068"><ele>1064.6</ele><time>2015-04-29T14:31:58.0000000+00:00</time></trkpt><trkpt lat="34.9522507" lon="32.9245406"><ele>1064.5</ele><time>2015-04-29T14:32:00.0000000+00:00</time></trkpt><trkpt lat="34.9522237" lon="32.9244713"><ele>1063.9</ele><time>2015-04-29T14:32:02.0000000+00:00</time></trkpt><trkpt lat="34.9522192" lon="32.9243971"><ele>1064.1</ele><time>2015-04-29T14:32:04.0000000+00:00</time></trkpt><trkpt lat="34.9522354" lon="32.924323"><ele>1063.8</ele><time>2015-04-29T14:32:06.0000000+00:00</time></trkpt><trkpt lat="34.9522672" lon="32.9242594"><ele>1063.5</ele><time>2015-04-29T14:32:08.0000000+00:00</time></trkpt><trkpt lat="34.9523045" lon="32.9242059"><ele>1063.7</ele><time>2015-04-29T14:32:10.0000000+00:00</time></trkpt><trkpt lat="34.9523366" lon="32.9241489"><ele>1064.3</ele><time>2015-04-29T14:32:12.0000000+00:00</time></trkpt><trkpt lat="34.9523438" lon="32.9240801"><ele>1064.6</ele><time>2015-04-29T14:32:14.0000000+00:00</time></trkpt><trkpt lat="34.952348" lon="32.9240064"><ele>1064.2</ele><time>2015-04-29T14:32:16.0000000+00:00</time></trkpt><trkpt lat="34.9523576" lon="32.9239212"><ele>1063.9</ele><time>2015-04-29T14:32:18.0000000+00:00</time></trkpt><trkpt lat="34.9523706" lon="32.9238302"><ele>1063.8</ele><time>2015-04-29T14:32:20.0000000+00:00</time></trkpt><trkpt lat="34.9523845" lon="32.9237426"><ele>1064.3</ele><time>2015-04-29T14:32:22.0000000+00:00</time></trkpt><trkpt lat="34.9523918" lon="32.9236641"><ele>1063.9</ele><time>2015-04-29T14:32:24.0000000+00:00</time></trkpt><trkpt lat="34.9523965" lon="32.9235977"><ele>1065.2</ele><time>2015-04-29T14:32:27.0000000+00:00</time></trkpt><trkpt lat="34.9524041" lon="32.9235182"><ele>1064.2</ele><time>2015-04-29T14:32:30.0000000+00:00</time></trkpt><trkpt lat="34.9524336" lon="32.923447"><ele>1063.8</ele><time>2015-04-29T14:32:33.0000000+00:00</time></trkpt><trkpt lat="34.952483" lon="32.9233964"><ele>1064.3</ele><time>2015-04-29T14:32:36.0000000+00:00</time></trkpt><trkpt lat="34.952537" lon="32.9233633"><ele>1065.0</ele><time>2015-04-29T14:32:39.0000000+00:00</time></trkpt><trkpt lat="34.9526012" lon="32.9233594"><ele>1065.3</ele><time>2015-04-29T14:32:42.0000000+00:00</time></trkpt><trkpt lat="34.952657" lon="32.9233703"><ele>1066.1</ele><time>2015-04-29T14:32:44.0000000+00:00</time></trkpt><trkpt lat="34.9527136" lon="32.9233955"><ele>1067.9</ele><time>2015-04-29T14:32:46.0000000+00:00</time></trkpt><trkpt lat="34.9527665" lon="32.923427"><ele>1069.0</ele><time>2015-04-29T14:32:48.0000000+00:00</time></trkpt><trkpt lat="34.9528175" lon="32.9234611"><ele>1068.8</ele><time>2015-04-29T14:32:50.0000000+00:00</time></trkpt><trkpt lat="34.9528638" lon="32.9234931"><ele>1066.3</ele><time>2015-04-29T14:32:53.0000000+00:00</time></trkpt><trkpt lat="34.9529212" lon="32.9235012"><ele>1064.8</ele><time>2015-04-29T14:32:56.0000000+00:00</time></trkpt><trkpt lat="34.9529791" lon="32.9234718"><ele>1064.4</ele><time>2015-04-29T14:32:59.0000000+00:00</time></trkpt><trkpt lat="34.9530263" lon="32.9234298"><ele>1064.2</ele><time>2015-04-29T14:33:01.0000000+00:00</time></trkpt><trkpt lat="34.9530944" lon="32.9233547"><ele>1063.4</ele><time>2015-04-29T14:33:03.0000000+00:00</time></trkpt><trkpt lat="34.9531327" lon="32.9233153"><ele>1064.6</ele><time>2015-04-29T14:33:04.0000000+00:00</time></trkpt><trkpt lat="34.9531808" lon="32.9232674"><ele>1065.2</ele><time>2015-04-29T14:33:05.0000000+00:00</time></trkpt><trkpt lat="34.9532544" lon="32.9232322"><ele>1066.4</ele><time>2015-04-29T14:33:07.0000000+00:00</time></trkpt><trkpt lat="34.9533246" lon="32.9231986"><ele>1067.4</ele><time>2015-04-29T14:33:09.0000000+00:00</time></trkpt><trkpt lat="34.9533863" lon="32.9231667"><ele>1067.7</ele><time>2015-04-29T14:33:11.0000000+00:00</time></trkpt><trkpt lat="34.9534464" lon="32.9231444"><ele>1067.0</ele><time>2015-04-29T14:33:13.0000000+00:00</time></trkpt><trkpt lat="34.9535133" lon="32.9231224"><ele>1066.8</ele><time>2015-04-29T14:33:15.0000000+00:00</time></trkpt><trkpt lat="34.9535652" lon="32.9230892"><ele>1067.0</ele><time>2015-04-29T14:33:17.0000000+00:00</time></trkpt><trkpt lat="34.9536089" lon="32.9230464"><ele>1066.1</ele><time>2015-04-29T14:33:19.0000000+00:00</time></trkpt><trkpt lat="34.9536475" lon="32.9229848"><ele>1066.1</ele><time>2015-04-29T14:33:21.0000000+00:00</time></trkpt><trkpt lat="34.9536644" lon="32.9229034"><ele>1065.8</ele><time>2015-04-29T14:33:23.0000000+00:00</time></trkpt><trkpt lat="34.9536608" lon="32.9228192"><ele>1065.8</ele><time>2015-04-29T14:33:25.0000000+00:00</time></trkpt><trkpt lat="34.9536394" lon="32.9227465"><ele>1065.8</ele><time>2015-04-29T14:33:27.0000000+00:00</time></trkpt><trkpt lat="34.9536118" lon="32.9226742"><ele>1066.3</ele><time>2015-04-29T14:33:29.0000000+00:00</time></trkpt><trkpt lat="34.9535747" lon="32.922597"><ele>1065.9</ele><time>2015-04-29T14:33:31.0000000+00:00</time></trkpt><trkpt lat="34.9535318" lon="32.9225088"><ele>1065.3</ele><time>2015-04-29T14:33:33.0000000+00:00</time></trkpt><trkpt lat="34.9534853" lon="32.9224314"><ele>1065.6</ele><time>2015-04-29T14:33:35.0000000+00:00</time></trkpt><trkpt lat="34.9534116" lon="32.9223891"><ele>1065.7</ele><time>2015-04-29T14:33:37.0000000+00:00</time></trkpt><trkpt lat="34.9533266" lon="32.9223762"><ele>1065.8</ele><time>2015-04-29T14:33:39.0000000+00:00</time></trkpt><trkpt lat="34.9532816" lon="32.9223722"><ele>1065.3</ele><time>2015-04-29T14:33:40.0000000+00:00</time></trkpt><trkpt lat="34.95319" lon="32.922356"><ele>1064.9</ele><time>2015-04-29T14:33:42.0000000+00:00</time></trkpt><trkpt lat="34.9531138" lon="32.9223093"><ele>1065.8</ele><time>2015-04-29T14:33:44.0000000+00:00</time></trkpt><trkpt lat="34.9530831" lon="32.9222233"><ele>1066.5</ele><time>2015-04-29T14:33:46.0000000+00:00</time></trkpt><trkpt lat="34.9531732" lon="32.9221267"><ele>1066.0</ele><time>2015-04-29T14:33:48.0000000+00:00</time></trkpt><trkpt lat="34.953235" lon="32.9220893"><ele>1065.6</ele><time>2015-04-29T14:33:50.0000000+00:00</time></trkpt><trkpt lat="34.9532876" lon="32.9220349"><ele>1064.0</ele><time>2015-04-29T14:33:52.0000000+00:00</time></trkpt><trkpt lat="34.9533426" lon="32.9219678"><ele>1062.6</ele><time>2015-04-29T14:33:54.0000000+00:00</time></trkpt><trkpt lat="34.9533907" lon="32.921899"><ele>1060.7</ele><time>2015-04-29T14:33:56.0000000+00:00</time></trkpt><trkpt lat="34.9534376" lon="32.9218326"><ele>1060.3</ele><time>2015-04-29T14:33:58.0000000+00:00</time></trkpt><trkpt lat="34.9534693" lon="32.9217626"><ele>1059.4</ele><time>2015-04-29T14:34:00.0000000+00:00</time></trkpt><trkpt lat="34.9534695" lon="32.9216806"><ele>1058.9</ele><time>2015-04-29T14:34:02.0000000+00:00</time></trkpt><trkpt lat="34.9534344" lon="32.921603"><ele>1059.6</ele><time>2015-04-29T14:34:04.0000000+00:00</time></trkpt><trkpt lat="34.9533732" lon="32.9215427"><ele>1059.7</ele><time>2015-04-29T14:34:06.0000000+00:00</time></trkpt><trkpt lat="34.9533077" lon="32.9214766"><ele>1059.8</ele><time>2015-04-29T14:34:08.0000000+00:00</time></trkpt><trkpt lat="34.9532701" lon="32.9213912"><ele>1059.8</ele><time>2015-04-29T14:34:10.0000000+00:00</time></trkpt><trkpt lat="34.9532587" lon="32.9212992"><ele>1059.3</ele><time>2015-04-29T14:34:12.0000000+00:00</time></trkpt><trkpt lat="34.9532475" lon="32.9212094"><ele>1059.1</ele><time>2015-04-29T14:34:14.0000000+00:00</time></trkpt><trkpt lat="34.9532185" lon="32.9211241"><ele>1058.9</ele><time>2015-04-29T14:34:16.0000000+00:00</time></trkpt><trkpt lat="34.9531739" lon="32.9210532"><ele>1059.0</ele><time>2015-04-29T14:34:18.0000000+00:00</time></trkpt><trkpt lat="34.9531497" lon="32.9209647"><ele>1059.6</ele><time>2015-04-29T14:34:20.0000000+00:00</time></trkpt><trkpt lat="34.9531878" lon="32.9208866"><ele>1059.7</ele><time>2015-04-29T14:34:21.0000000+00:00</time></trkpt><trkpt lat="34.953213" lon="32.9208329"><ele>1059.7</ele><time>2015-04-29T14:34:22.0000000+00:00</time></trkpt><trkpt lat="34.9532727" lon="32.9207463"><ele>1059.0</ele><time>2015-04-29T14:34:24.0000000+00:00</time></trkpt><trkpt lat="34.9532954" lon="32.9206969"><ele>1058.9</ele><time>2015-04-29T14:34:25.0000000+00:00</time></trkpt><trkpt lat="34.953356" lon="32.9206192"><ele>1058.5</ele><time>2015-04-29T14:34:27.0000000+00:00</time></trkpt><trkpt lat="34.9533908" lon="32.9205715"><ele>1058.7</ele><time>2015-04-29T14:34:28.0000000+00:00</time></trkpt><trkpt lat="34.9534368" lon="32.9205377"><ele>1058.7</ele><time>2015-04-29T14:34:29.0000000+00:00</time></trkpt><trkpt lat="34.9534731" lon="32.920498"><ele>1058.7</ele><time>2015-04-29T14:34:30.0000000+00:00</time></trkpt><trkpt lat="34.953533" lon="32.9203953"><ele>1059.0</ele><time>2015-04-29T14:34:32.0000000+00:00</time></trkpt><trkpt lat="34.9535709" lon="32.9203415"><ele>1058.4</ele><time>2015-04-29T14:34:33.0000000+00:00</time></trkpt><trkpt lat="34.9535967" lon="32.9202811"><ele>1058.1</ele><time>2015-04-29T14:34:34.0000000+00:00</time></trkpt><trkpt lat="34.9536202" lon="32.9202245"><ele>1058.4</ele><time>2015-04-29T14:34:35.0000000+00:00</time></trkpt><trkpt lat="34.9536388" lon="32.9201578"><ele>1058.6</ele><time>2015-04-29T14:34:36.0000000+00:00</time></trkpt><trkpt lat="34.9536543" lon="32.9200964"><ele>1059.2</ele><time>2015-04-29T14:34:37.0000000+00:00</time></trkpt><trkpt lat="34.9536575" lon="32.9200363"><ele>1059.5</ele><time>2015-04-29T14:34:38.0000000+00:00</time></trkpt><trkpt lat="34.9536573" lon="32.9199381"><ele>1060.4</ele><time>2015-04-29T14:34:40.0000000+00:00</time></trkpt><trkpt lat="34.9536544" lon="32.9198763"><ele>1060.6</ele><time>2015-04-29T14:34:41.0000000+00:00</time></trkpt><trkpt lat="34.9536471" lon="32.919815"><ele>1060.2</ele><time>2015-04-29T14:34:42.0000000+00:00</time></trkpt><trkpt lat="34.9536292" lon="32.9197545"><ele>1059.5</ele><time>2015-04-29T14:34:43.0000000+00:00</time></trkpt><trkpt lat="34.9536099" lon="32.9196911"><ele>1059.1</ele><time>2015-04-29T14:34:44.0000000+00:00</time></trkpt><trkpt lat="34.9535805" lon="32.9196222"><ele>1057.9</ele><time>2015-04-29T14:34:45.0000000+00:00</time></trkpt><trkpt lat="34.953555" lon="32.9195664"><ele>1057.4</ele><time>2015-04-29T14:34:46.0000000+00:00</time></trkpt><trkpt lat="34.9535234" lon="32.9195115"><ele>1056.1</ele><time>2015-04-29T14:34:47.0000000+00:00</time></trkpt><trkpt lat="34.9534774" lon="32.9194312"><ele>1055.6</ele><time>2015-04-29T14:34:49.0000000+00:00</time></trkpt><trkpt lat="34.9534495" lon="32.9193639"><ele>1056.5</ele><time>2015-04-29T14:34:51.0000000+00:00</time></trkpt><trkpt lat="34.9534666" lon="32.9192948"><ele>1055.9</ele><time>2015-04-29T14:34:53.0000000+00:00</time></trkpt><trkpt lat="34.953477" lon="32.9193526"><ele>1063.8</ele><time>2015-04-29T14:35:18.0000000+00:00</time></trkpt><trkpt lat="34.9534745" lon="32.9194155"><ele>1065.9</ele><time>2015-04-29T14:35:21.0000000+00:00</time></trkpt><trkpt lat="34.9534541" lon="32.919353"><ele>1067.1</ele><time>2015-04-29T14:35:25.0000000+00:00</time></trkpt><trkpt lat="34.9534817" lon="32.9192617"><ele>1066.4</ele><time>2015-04-29T14:35:27.0000000+00:00</time></trkpt><trkpt lat="34.9535248" lon="32.9191888"><ele>1065.1</ele><time>2015-04-29T14:35:28.0000000+00:00</time></trkpt><trkpt lat="34.9535944" lon="32.9191742"><ele>1063.3</ele><time>2015-04-29T14:35:30.0000000+00:00</time></trkpt><trkpt lat="34.9536154" lon="32.9192326"><ele>1065.2</ele><time>2015-04-29T14:35:32.0000000+00:00</time></trkpt><trkpt lat="34.9535841" lon="32.919182"><ele>1056.8</ele><time>2015-04-29T14:35:41.0000000+00:00</time></trkpt><trkpt lat="34.9536072" lon="32.9192442"><ele>1050.8</ele><time>2015-04-29T14:44:06.0000000+00:00</time></trkpt><trkpt lat="34.9536555" lon="32.9193017"><ele>1050.8</ele><time>2015-04-29T14:44:08.0000000+00:00</time></trkpt><trkpt lat="34.9537069" lon="32.9193588"><ele>1051.3</ele><time>2015-04-29T14:44:10.0000000+00:00</time></trkpt><trkpt lat="34.9537572" lon="32.9194182"><ele>1052.1</ele><time>2015-04-29T14:44:12.0000000+00:00</time></trkpt><trkpt lat="34.953807" lon="32.9194802"><ele>1052.6</ele><time>2015-04-29T14:44:14.0000000+00:00</time></trkpt><trkpt lat="34.9538692" lon="32.9195403"><ele>1052.7</ele><time>2015-04-29T14:44:16.0000000+00:00</time></trkpt><trkpt lat="34.953947" lon="32.9195885"><ele>1052.8</ele><time>2015-04-29T14:44:18.0000000+00:00</time></trkpt><trkpt lat="34.9540333" lon="32.9196264"><ele>1053.5</ele><time>2015-04-29T14:44:20.0000000+00:00</time></trkpt><trkpt lat="34.9540751" lon="32.9196533"><ele>1053.6</ele><time>2015-04-29T14:44:21.0000000+00:00</time></trkpt><trkpt lat="34.9541144" lon="32.9196854"><ele>1054.2</ele><time>2015-04-29T14:44:22.0000000+00:00</time></trkpt><trkpt lat="34.9541494" lon="32.9197236"><ele>1054.5</ele><time>2015-04-29T14:44:23.0000000+00:00</time></trkpt><trkpt lat="34.9541843" lon="32.9197665"><ele>1054.6</ele><time>2015-04-29T14:44:24.0000000+00:00</time></trkpt><trkpt lat="34.9542075" lon="32.9198213"><ele>1056.7</ele><time>2015-04-29T14:44:25.0000000+00:00</time></trkpt><trkpt lat="34.9542189" lon="32.9198792"><ele>1056.7</ele><time>2015-04-29T14:44:26.0000000+00:00</time></trkpt><trkpt lat="34.9542026" lon="32.9199766"><ele>1056.7</ele><time>2015-04-29T14:44:27.0000000+00:00</time></trkpt><trkpt lat="34.9542152" lon="32.920092"><ele>1054.8</ele><time>2015-04-29T14:44:29.0000000+00:00</time></trkpt><trkpt lat="34.9542124" lon="32.9201574"><ele>1053.8</ele><time>2015-04-29T14:44:30.0000000+00:00</time></trkpt><trkpt lat="34.9542092" lon="32.9202187"><ele>1052.3</ele><time>2015-04-29T14:44:31.0000000+00:00</time></trkpt><trkpt lat="34.9542075" lon="32.9202913"><ele>1052.0</ele><time>2015-04-29T14:44:32.0000000+00:00</time></trkpt><trkpt lat="34.9542008" lon="32.9203501"><ele>1051.4</ele><time>2015-04-29T14:44:33.0000000+00:00</time></trkpt><trkpt lat="34.954193" lon="32.9204124"><ele>1051.1</ele><time>2015-04-29T14:44:34.0000000+00:00</time></trkpt><trkpt lat="34.9541802" lon="32.9204727"><ele>1051.4</ele><time>2015-04-29T14:44:35.0000000+00:00</time></trkpt><trkpt lat="34.9541829" lon="32.9205452"><ele>1052.1</ele><time>2015-04-29T14:44:36.0000000+00:00</time></trkpt><trkpt lat="34.9541595" lon="32.9206144"><ele>1052.4</ele><time>2015-04-29T14:44:37.0000000+00:00</time></trkpt><trkpt lat="34.9541381" lon="32.9206747"><ele>1049.9</ele><time>2015-04-29T14:44:39.0000000+00:00</time></trkpt><trkpt lat="34.9541626" lon="32.9207334"><ele>1049.8</ele><time>2015-04-29T14:44:40.0000000+00:00</time></trkpt><trkpt lat="34.9541962" lon="32.920788"><ele>1050.8</ele><time>2015-04-29T14:44:41.0000000+00:00</time></trkpt><trkpt lat="34.9542325" lon="32.9208362"><ele>1050.8</ele><time>2015-04-29T14:44:42.0000000+00:00</time></trkpt><trkpt lat="34.9542765" lon="32.9208823"><ele>1051.8</ele><time>2015-04-29T14:44:43.0000000+00:00</time></trkpt><trkpt lat="34.9543388" lon="32.9209215"><ele>1052.3</ele><time>2015-04-29T14:44:44.0000000+00:00</time></trkpt><trkpt lat="34.9544001" lon="32.9209546"><ele>1052.5</ele><time>2015-04-29T14:44:45.0000000+00:00</time></trkpt><trkpt lat="34.9544652" lon="32.9209846"><ele>1052.6</ele><time>2015-04-29T14:44:46.0000000+00:00</time></trkpt><trkpt lat="34.9545272" lon="32.9210072"><ele>1053.2</ele><time>2015-04-29T14:44:47.0000000+00:00</time></trkpt><trkpt lat="34.9545996" lon="32.9210584"><ele>1053.0</ele><time>2015-04-29T14:44:48.0000000+00:00</time></trkpt><trkpt lat="34.9546549" lon="32.921088"><ele>1052.4</ele><time>2015-04-29T14:44:49.0000000+00:00</time></trkpt><trkpt lat="34.9547196" lon="32.9211278"><ele>1052.1</ele><time>2015-04-29T14:44:50.0000000+00:00</time></trkpt><trkpt lat="34.9547892" lon="32.921161"><ele>1051.4</ele><time>2015-04-29T14:44:51.0000000+00:00</time></trkpt><trkpt lat="34.954869" lon="32.921186"><ele>1051.6</ele><time>2015-04-29T14:44:52.0000000+00:00</time></trkpt><trkpt lat="34.954917" lon="32.9211614"><ele>1048.7</ele><time>2015-04-29T14:44:53.0000000+00:00</time></trkpt><trkpt lat="34.9549897" lon="32.9211715"><ele>1046.7</ele><time>2015-04-29T14:44:54.0000000+00:00</time></trkpt><trkpt lat="34.9550546" lon="32.9211657"><ele>1044.7</ele><time>2015-04-29T14:44:55.0000000+00:00</time></trkpt><trkpt lat="34.9551382" lon="32.9211903"><ele>1043.3</ele><time>2015-04-29T14:44:56.0000000+00:00</time></trkpt><trkpt lat="34.955214" lon="32.9212193"><ele>1042.5</ele><time>2015-04-29T14:44:57.0000000+00:00</time></trkpt><trkpt lat="34.9552854" lon="32.9212566"><ele>1042.6</ele><time>2015-04-29T14:44:58.0000000+00:00</time></trkpt><trkpt lat="34.9553582" lon="32.9212761"><ele>1042.7</ele><time>2015-04-29T14:44:59.0000000+00:00</time></trkpt><trkpt lat="34.9554505" lon="32.9213183"><ele>1042.2</ele><time>2015-04-29T14:45:00.0000000+00:00</time></trkpt><trkpt lat="34.9555237" lon="32.9213584"><ele>1041.5</ele><time>2015-04-29T14:45:01.0000000+00:00</time></trkpt><trkpt lat="34.9555802" lon="32.9214226"><ele>1041.6</ele><time>2015-04-29T14:45:02.0000000+00:00</time></trkpt><trkpt lat="34.9556135" lon="32.9214828"><ele>1040.7</ele><time>2015-04-29T14:45:03.0000000+00:00</time></trkpt><trkpt lat="34.9556471" lon="32.92154"><ele>1038.7</ele><time>2015-04-29T14:45:04.0000000+00:00</time></trkpt><trkpt lat="34.9556852" lon="32.921623"><ele>1037.2</ele><time>2015-04-29T14:45:05.0000000+00:00</time></trkpt><trkpt lat="34.955722" lon="32.9216991"><ele>1035.5</ele><time>2015-04-29T14:45:06.0000000+00:00</time></trkpt><trkpt lat="34.9557691" lon="32.921782"><ele>1034.6</ele><time>2015-04-29T14:45:07.0000000+00:00</time></trkpt><trkpt lat="34.9558174" lon="32.9218683"><ele>1033.7</ele><time>2015-04-29T14:45:08.0000000+00:00</time></trkpt><trkpt lat="34.9558567" lon="32.9219378"><ele>1032.2</ele><time>2015-04-29T14:45:09.0000000+00:00</time></trkpt><trkpt lat="34.9559007" lon="32.922005"><ele>1031.0</ele><time>2015-04-29T14:45:10.0000000+00:00</time></trkpt><trkpt lat="34.9559404" lon="32.9220662"><ele>1030.4</ele><time>2015-04-29T14:45:11.0000000+00:00</time></trkpt><trkpt lat="34.9559895" lon="32.9221316"><ele>1030.1</ele><time>2015-04-29T14:45:12.0000000+00:00</time></trkpt><trkpt lat="34.9560429" lon="32.9221954"><ele>1029.9</ele><time>2015-04-29T14:45:13.0000000+00:00</time></trkpt><trkpt lat="34.9561027" lon="32.9222465"><ele>1029.8</ele><time>2015-04-29T14:45:14.0000000+00:00</time></trkpt><trkpt lat="34.9561651" lon="32.9222905"><ele>1029.8</ele><time>2015-04-29T14:45:15.0000000+00:00</time></trkpt><trkpt lat="34.9562388" lon="32.9223315"><ele>1029.8</ele><time>2015-04-29T14:45:16.0000000+00:00</time></trkpt><trkpt lat="34.9563192" lon="32.9223633"><ele>1030.3</ele><time>2015-04-29T14:45:17.0000000+00:00</time></trkpt><trkpt lat="34.9564005" lon="32.9223784"><ele>1030.0</ele><time>2015-04-29T14:45:18.0000000+00:00</time></trkpt><trkpt lat="34.9564757" lon="32.9223911"><ele>1029.9</ele><time>2015-04-29T14:45:19.0000000+00:00</time></trkpt><trkpt lat="34.9565562" lon="32.9224057"><ele>1029.8</ele><time>2015-04-29T14:45:20.0000000+00:00</time></trkpt><trkpt lat="34.9566388" lon="32.9224027"><ele>1029.3</ele><time>2015-04-29T14:45:21.0000000+00:00</time></trkpt><trkpt lat="34.9567054" lon="32.9223784"><ele>1029.0</ele><time>2015-04-29T14:45:22.0000000+00:00</time></trkpt><trkpt lat="34.9567736" lon="32.9223591"><ele>1029.4</ele><time>2015-04-29T14:45:23.0000000+00:00</time></trkpt><trkpt lat="34.9568478" lon="32.9223116"><ele>1029.1</ele><time>2015-04-29T14:45:24.0000000+00:00</time></trkpt><trkpt lat="34.9569232" lon="32.9222794"><ele>1028.9</ele><time>2015-04-29T14:45:25.0000000+00:00</time></trkpt><trkpt lat="34.9569962" lon="32.9222337"><ele>1029.3</ele><time>2015-04-29T14:45:26.0000000+00:00</time></trkpt><trkpt lat="34.9570644" lon="32.9221855"><ele>1029.6</ele><time>2015-04-29T14:45:27.0000000+00:00</time></trkpt><trkpt lat="34.9571272" lon="32.92212"><ele>1028.2</ele><time>2015-04-29T14:45:28.0000000+00:00</time></trkpt><trkpt lat="34.9571968" lon="32.9220902"><ele>1027.5</ele><time>2015-04-29T14:45:29.0000000+00:00</time></trkpt><trkpt lat="34.9572648" lon="32.9220594"><ele>1026.6</ele><time>2015-04-29T14:45:30.0000000+00:00</time></trkpt><trkpt lat="34.9573348" lon="32.9220394"><ele>1026.7</ele><time>2015-04-29T14:45:31.0000000+00:00</time></trkpt><trkpt lat="34.9574094" lon="32.9220363"><ele>1026.7</ele><time>2015-04-29T14:45:32.0000000+00:00</time></trkpt><trkpt lat="34.9574803" lon="32.9220209"><ele>1026.7</ele><time>2015-04-29T14:45:33.0000000+00:00</time></trkpt><trkpt lat="34.9575376" lon="32.9220101"><ele>1025.8</ele><time>2015-04-29T14:45:34.0000000+00:00</time></trkpt><trkpt lat="34.9576046" lon="32.9220146"><ele>1025.3</ele><time>2015-04-29T14:45:35.0000000+00:00</time></trkpt><trkpt lat="34.9576754" lon="32.9219938"><ele>1025.0</ele><time>2015-04-29T14:45:36.0000000+00:00</time></trkpt><trkpt lat="34.9577433" lon="32.9219694"><ele>1024.4</ele><time>2015-04-29T14:45:37.0000000+00:00</time></trkpt><trkpt lat="34.9578197" lon="32.9219455"><ele>1024.1</ele><time>2015-04-29T14:45:38.0000000+00:00</time></trkpt><trkpt lat="34.9578961" lon="32.9219277"><ele>1023.9</ele><time>2015-04-29T14:45:39.0000000+00:00</time></trkpt><trkpt lat="34.9579646" lon="32.921895"><ele>1024.3</ele><time>2015-04-29T14:45:40.0000000+00:00</time></trkpt><trkpt lat="34.9580443" lon="32.9218648"><ele>1024.6</ele><time>2015-04-29T14:45:41.0000000+00:00</time></trkpt><trkpt lat="34.9581091" lon="32.9218213"><ele>1025.2</ele><time>2015-04-29T14:45:42.0000000+00:00</time></trkpt><trkpt lat="34.9581596" lon="32.921756"><ele>1025.0</ele><time>2015-04-29T14:45:43.0000000+00:00</time></trkpt><trkpt lat="34.9582306" lon="32.9217161"><ele>1025.9</ele><time>2015-04-29T14:45:44.0000000+00:00</time></trkpt><trkpt lat="34.9582886" lon="32.9216849"><ele>1026.3</ele><time>2015-04-29T14:45:45.0000000+00:00</time></trkpt><trkpt lat="34.9583269" lon="32.9216435"><ele>1026.0</ele><time>2015-04-29T14:45:46.0000000+00:00</time></trkpt><trkpt lat="34.958367" lon="32.9216076"><ele>1024.8</ele><time>2015-04-29T14:45:48.0000000+00:00</time></trkpt><trkpt lat="34.9584106" lon="32.9215744"><ele>1023.5</ele><time>2015-04-29T14:45:53.0000000+00:00</time></trkpt><trkpt lat="34.9584576" lon="32.9215331"><ele>1024.6</ele><time>2015-04-29T14:45:56.0000000+00:00</time></trkpt><trkpt lat="34.9585161" lon="32.9214889"><ele>1025.5</ele><time>2015-04-29T14:45:58.0000000+00:00</time></trkpt><trkpt lat="34.9585871" lon="32.9214295"><ele>1022.4</ele><time>2015-04-29T14:46:00.0000000+00:00</time></trkpt><trkpt lat="34.958614" lon="32.9213812"><ele>1021.1</ele><time>2015-04-29T14:46:01.0000000+00:00</time></trkpt><trkpt lat="34.9586617" lon="32.9213579"><ele>1020.4</ele><time>2015-04-29T14:46:02.0000000+00:00</time></trkpt><trkpt lat="34.9587173" lon="32.921323"><ele>1019.6</ele><time>2015-04-29T14:46:03.0000000+00:00</time></trkpt><trkpt lat="34.9587701" lon="32.9213054"><ele>1020.2</ele><time>2015-04-29T14:46:04.0000000+00:00</time></trkpt><trkpt lat="34.9587967" lon="32.9212535"><ele>1018.5</ele><time>2015-04-29T14:46:05.0000000+00:00</time></trkpt><trkpt lat="34.9588516" lon="32.9212316"><ele>1017.6</ele><time>2015-04-29T14:46:06.0000000+00:00</time></trkpt><trkpt lat="34.958895" lon="32.9211996"><ele>1017.2</ele><time>2015-04-29T14:46:07.0000000+00:00</time></trkpt><trkpt lat="34.958956" lon="32.9211394"><ele>1017.0</ele><time>2015-04-29T14:46:08.0000000+00:00</time></trkpt><trkpt lat="34.9590114" lon="32.9210911"><ele>1016.9</ele><time>2015-04-29T14:46:09.0000000+00:00</time></trkpt><trkpt lat="34.9590539" lon="32.921039"><ele>1017.3</ele><time>2015-04-29T14:46:10.0000000+00:00</time></trkpt><trkpt lat="34.9591017" lon="32.9209834"><ele>1017.5</ele><time>2015-04-29T14:46:11.0000000+00:00</time></trkpt><trkpt lat="34.9591479" lon="32.9209312"><ele>1017.7</ele><time>2015-04-29T14:46:12.0000000+00:00</time></trkpt><trkpt lat="34.9591996" lon="32.9208801"><ele>1018.7</ele><time>2015-04-29T14:46:13.0000000+00:00</time></trkpt><trkpt lat="34.9592436" lon="32.9208458"><ele>1019.2</ele><time>2015-04-29T14:46:14.0000000+00:00</time></trkpt><trkpt lat="34.9592831" lon="32.9208143"><ele>1019.5</ele><time>2015-04-29T14:46:15.0000000+00:00</time></trkpt><trkpt lat="34.9593341" lon="32.9208045"><ele>1019.6</ele><time>2015-04-29T14:46:16.0000000+00:00</time></trkpt><trkpt lat="34.9593874" lon="32.9208375"><ele>1019.7</ele><time>2015-04-29T14:46:17.0000000+00:00</time></trkpt><trkpt lat="34.9594319" lon="32.9208717"><ele>1019.7</ele><time>2015-04-29T14:46:18.0000000+00:00</time></trkpt><trkpt lat="34.9594788" lon="32.920924"><ele>1019.7</ele><time>2015-04-29T14:46:19.0000000+00:00</time></trkpt><trkpt lat="34.9595059" lon="32.9209896"><ele>1019.8</ele><time>2015-04-29T14:46:20.0000000+00:00</time></trkpt><trkpt lat="34.9595264" lon="32.9210455"><ele>1019.3</ele><time>2015-04-29T14:46:21.0000000+00:00</time></trkpt><trkpt lat="34.9595294" lon="32.9211274"><ele>1015.6</ele><time>2015-04-29T14:46:23.0000000+00:00</time></trkpt><trkpt lat="34.9595578" lon="32.9211975"><ele>1013.0</ele><time>2015-04-29T14:46:25.0000000+00:00</time></trkpt><trkpt lat="34.9596008" lon="32.9212579"><ele>1013.3</ele><time>2015-04-29T14:46:27.0000000+00:00</time></trkpt><trkpt lat="34.959664" lon="32.9212985"><ele>1013.7</ele><time>2015-04-29T14:46:29.0000000+00:00</time></trkpt><trkpt lat="34.9597371" lon="32.9213316"><ele>1012.5</ele><time>2015-04-29T14:46:31.0000000+00:00</time></trkpt><trkpt lat="34.9597874" lon="32.9213418"><ele>1012.1</ele><time>2015-04-29T14:46:32.0000000+00:00</time></trkpt><trkpt lat="34.9598341" lon="32.9213485"><ele>1011.9</ele><time>2015-04-29T14:46:33.0000000+00:00</time></trkpt><trkpt lat="34.9598858" lon="32.9213486"><ele>1011.9</ele><time>2015-04-29T14:46:34.0000000+00:00</time></trkpt><trkpt lat="34.9599461" lon="32.9213597"><ele>1011.3</ele><time>2015-04-29T14:46:35.0000000+00:00</time></trkpt><trkpt lat="34.9600051" lon="32.9213683"><ele>1010.5</ele><time>2015-04-29T14:46:36.0000000+00:00</time></trkpt><trkpt lat="34.9600647" lon="32.9213702"><ele>1009.7</ele><time>2015-04-29T14:46:37.0000000+00:00</time></trkpt><trkpt lat="34.9601236" lon="32.9213746"><ele>1009.2</ele><time>2015-04-29T14:46:38.0000000+00:00</time></trkpt><trkpt lat="34.9601795" lon="32.9213687"><ele>1009.0</ele><time>2015-04-29T14:46:39.0000000+00:00</time></trkpt><trkpt lat="34.9602557" lon="32.9213866"><ele>1008.9</ele><time>2015-04-29T14:46:40.0000000+00:00</time></trkpt><trkpt lat="34.9603175" lon="32.9213992"><ele>1008.8</ele><time>2015-04-29T14:46:41.0000000+00:00</time></trkpt><trkpt lat="34.9603699" lon="32.921412"><ele>1009.3</ele><time>2015-04-29T14:46:42.0000000+00:00</time></trkpt><trkpt lat="34.9604151" lon="32.9214064"><ele>1009.5</ele><time>2015-04-29T14:46:43.0000000+00:00</time></trkpt><trkpt lat="34.9604653" lon="32.9213948"><ele>1009.1</ele><time>2015-04-29T14:46:44.0000000+00:00</time></trkpt><trkpt lat="34.9605093" lon="32.9213764"><ele>1009.5</ele><time>2015-04-29T14:46:45.0000000+00:00</time></trkpt><trkpt lat="34.9605546" lon="32.9212871"><ele>1007.7</ele><time>2015-04-29T14:46:47.0000000+00:00</time></trkpt><trkpt lat="34.9605861" lon="32.9212422"><ele>1007.7</ele><time>2015-04-29T14:46:48.0000000+00:00</time></trkpt><trkpt lat="34.9606104" lon="32.9211867"><ele>1006.2</ele><time>2015-04-29T14:46:49.0000000+00:00</time></trkpt><trkpt lat="34.9606771" lon="32.9211446"><ele>1002.9</ele><time>2015-04-29T14:46:51.0000000+00:00</time></trkpt><trkpt lat="34.9607344" lon="32.9211613"><ele>1001.8</ele><time>2015-04-29T14:46:52.0000000+00:00</time></trkpt><trkpt lat="34.9607769" lon="32.9211792"><ele>1001.3</ele><time>2015-04-29T14:46:53.0000000+00:00</time></trkpt><trkpt lat="34.9608228" lon="32.9211893"><ele>1001.5</ele><time>2015-04-29T14:46:54.0000000+00:00</time></trkpt><trkpt lat="34.9609157" lon="32.9211969"><ele>1001.7</ele><time>2015-04-29T14:46:56.0000000+00:00</time></trkpt><trkpt lat="34.9609992" lon="32.921159"><ele>1001.3</ele><time>2015-04-29T14:46:58.0000000+00:00</time></trkpt><trkpt lat="34.9610837" lon="32.9211218"><ele>1001.4</ele><time>2015-04-29T14:47:00.0000000+00:00</time></trkpt><trkpt lat="34.961124" lon="32.9210933"><ele>1001.6</ele><time>2015-04-29T14:47:01.0000000+00:00</time></trkpt><trkpt lat="34.9611728" lon="32.9210535"><ele>1001.7</ele><time>2015-04-29T14:47:02.0000000+00:00</time></trkpt><trkpt lat="34.9612147" lon="32.921024"><ele>1001.7</ele><time>2015-04-29T14:47:03.0000000+00:00</time></trkpt><trkpt lat="34.9612615" lon="32.9209994"><ele>1002.7</ele><time>2015-04-29T14:47:04.0000000+00:00</time></trkpt><trkpt lat="34.9613193" lon="32.9209773"><ele>1003.8</ele><time>2015-04-29T14:47:05.0000000+00:00</time></trkpt><trkpt lat="34.9613728" lon="32.920958"><ele>1004.3</ele><time>2015-04-29T14:47:06.0000000+00:00</time></trkpt><trkpt lat="34.9614319" lon="32.9209338"><ele>1004.5</ele><time>2015-04-29T14:47:07.0000000+00:00</time></trkpt><trkpt lat="34.9614862" lon="32.9208951"><ele>1003.6</ele><time>2015-04-29T14:47:08.0000000+00:00</time></trkpt><trkpt lat="34.9615327" lon="32.9208465"><ele>1002.7</ele><time>2015-04-29T14:47:09.0000000+00:00</time></trkpt><trkpt lat="34.9615898" lon="32.9208015"><ele>1002.2</ele><time>2015-04-29T14:47:10.0000000+00:00</time></trkpt><trkpt lat="34.9616388" lon="32.92075"><ele>1002.0</ele><time>2015-04-29T14:47:11.0000000+00:00</time></trkpt><trkpt lat="34.9616868" lon="32.920691"><ele>1001.4</ele><time>2015-04-29T14:47:12.0000000+00:00</time></trkpt><trkpt lat="34.9617327" lon="32.9206449"><ele>1000.6</ele><time>2015-04-29T14:47:13.0000000+00:00</time></trkpt><trkpt lat="34.9617884" lon="32.920616"><ele>1000.2</ele><time>2015-04-29T14:47:14.0000000+00:00</time></trkpt><trkpt lat="34.9618536" lon="32.9205251"><ele>998.9</ele><time>2015-04-29T14:47:16.0000000+00:00</time></trkpt><trkpt lat="34.9618852" lon="32.9204642"><ele>998.3</ele><time>2015-04-29T14:47:17.0000000+00:00</time></trkpt><trkpt lat="34.9619053" lon="32.9204011"><ele>998.0</ele><time>2015-04-29T14:47:18.0000000+00:00</time></trkpt><trkpt lat="34.9619194" lon="32.920339"><ele>997.9</ele><time>2015-04-29T14:47:19.0000000+00:00</time></trkpt><trkpt lat="34.9619427" lon="32.9202835"><ele>997.8</ele><time>2015-04-29T14:47:20.0000000+00:00</time></trkpt><trkpt lat="34.9620054" lon="32.9202143"><ele>996.5</ele><time>2015-04-29T14:47:22.0000000+00:00</time></trkpt><trkpt lat="34.9620784" lon="32.9201972"><ele>995.5</ele><time>2015-04-29T14:47:24.0000000+00:00</time></trkpt><trkpt lat="34.9621339" lon="32.9202066"><ele>995.2</ele><time>2015-04-29T14:47:26.0000000+00:00</time></trkpt><trkpt lat="34.9621951" lon="32.9202332"><ele>996.2</ele><time>2015-04-29T14:47:29.0000000+00:00</time></trkpt><trkpt lat="34.962257" lon="32.9202156"><ele>995.9</ele><time>2015-04-29T14:47:32.0000000+00:00</time></trkpt><trkpt lat="34.9622971" lon="32.9201729"><ele>994.3</ele><time>2015-04-29T14:47:34.0000000+00:00</time></trkpt><trkpt lat="34.9623354" lon="32.9200974"><ele>995.2</ele><time>2015-04-29T14:47:36.0000000+00:00</time></trkpt><trkpt lat="34.9623502" lon="32.9199983"><ele>993.9</ele><time>2015-04-29T14:47:38.0000000+00:00</time></trkpt><trkpt lat="34.9623341" lon="32.9198953"><ele>992.8</ele><time>2015-04-29T14:47:40.0000000+00:00</time></trkpt><trkpt lat="34.9622942" lon="32.9197991"><ele>991.3</ele><time>2015-04-29T14:47:42.0000000+00:00</time></trkpt><trkpt lat="34.9622409" lon="32.9196745"><ele>991.1</ele><time>2015-04-29T14:47:44.0000000+00:00</time></trkpt><trkpt lat="34.9622528" lon="32.9196147"><ele>991.5</ele><time>2015-04-29T14:47:45.0000000+00:00</time></trkpt><trkpt lat="34.9622667" lon="32.9195514"><ele>991.1</ele><time>2015-04-29T14:47:46.0000000+00:00</time></trkpt><trkpt lat="34.9622819" lon="32.9194994"><ele>990.9</ele><time>2015-04-29T14:47:47.0000000+00:00</time></trkpt><trkpt lat="34.9622974" lon="32.9194326"><ele>990.9</ele><time>2015-04-29T14:47:48.0000000+00:00</time></trkpt><trkpt lat="34.9623234" lon="32.9193758"><ele>990.3</ele><time>2015-04-29T14:47:49.0000000+00:00</time></trkpt><trkpt lat="34.9623553" lon="32.919318"><ele>990.0</ele><time>2015-04-29T14:47:50.0000000+00:00</time></trkpt><trkpt lat="34.9623841" lon="32.9192617"><ele>989.9</ele><time>2015-04-29T14:47:51.0000000+00:00</time></trkpt><trkpt lat="34.9623936" lon="32.9192069"><ele>989.3</ele><time>2015-04-29T14:47:52.0000000+00:00</time></trkpt><trkpt lat="34.9624257" lon="32.9191153"><ele>988.9</ele><time>2015-04-29T14:47:54.0000000+00:00</time></trkpt><trkpt lat="34.9624922" lon="32.9190485"><ele>989.6</ele><time>2015-04-29T14:47:56.0000000+00:00</time></trkpt><trkpt lat="34.962571" lon="32.9190284"><ele>989.7</ele><time>2015-04-29T14:47:58.0000000+00:00</time></trkpt><trkpt lat="34.9626173" lon="32.9190775"><ele>990.2</ele><time>2015-04-29T14:47:59.0000000+00:00</time></trkpt><trkpt lat="34.9626593" lon="32.9191165"><ele>990.5</ele><time>2015-04-29T14:48:00.0000000+00:00</time></trkpt><trkpt lat="34.9626996" lon="32.9191698"><ele>990.6</ele><time>2015-04-29T14:48:01.0000000+00:00</time></trkpt><trkpt lat="34.9627428" lon="32.9192164"><ele>990.7</ele><time>2015-04-29T14:48:02.0000000+00:00</time></trkpt><trkpt lat="34.9627891" lon="32.9192484"><ele>991.2</ele><time>2015-04-29T14:48:03.0000000+00:00</time></trkpt><trkpt lat="34.9628371" lon="32.9192683"><ele>991.5</ele><time>2015-04-29T14:48:04.0000000+00:00</time></trkpt><trkpt lat="34.9628897" lon="32.9192707"><ele>991.6</ele><time>2015-04-29T14:48:05.0000000+00:00</time></trkpt><trkpt lat="34.9629658" lon="32.9192316"><ele>991.0</ele><time>2015-04-29T14:48:07.0000000+00:00</time></trkpt><trkpt lat="34.963012" lon="32.9191927"><ele>990.4</ele><time>2015-04-29T14:48:08.0000000+00:00</time></trkpt><trkpt lat="34.9630378" lon="32.9191379"><ele>989.6</ele><time>2015-04-29T14:48:09.0000000+00:00</time></trkpt><trkpt lat="34.9630755" lon="32.9190897"><ele>988.7</ele><time>2015-04-29T14:48:10.0000000+00:00</time></trkpt><trkpt lat="34.9631003" lon="32.9190342"><ele>988.2</ele><time>2015-04-29T14:48:11.0000000+00:00</time></trkpt><trkpt lat="34.9631314" lon="32.9189802"><ele>987.5</ele><time>2015-04-29T14:48:12.0000000+00:00</time></trkpt><trkpt lat="34.9631626" lon="32.9189218"><ele>986.6</ele><time>2015-04-29T14:48:13.0000000+00:00</time></trkpt><trkpt lat="34.9632003" lon="32.9188781"><ele>986.2</ele><time>2015-04-29T14:48:14.0000000+00:00</time></trkpt><trkpt lat="34.9632806" lon="32.9188162"><ele>985.9</ele><time>2015-04-29T14:48:16.0000000+00:00</time></trkpt><trkpt lat="34.9633286" lon="32.9188233"><ele>986.3</ele><time>2015-04-29T14:48:17.0000000+00:00</time></trkpt><trkpt lat="34.9633928" lon="32.918851"><ele>987.5</ele><time>2015-04-29T14:48:18.0000000+00:00</time></trkpt><trkpt lat="34.9634444" lon="32.9188608"><ele>988.2</ele><time>2015-04-29T14:48:19.0000000+00:00</time></trkpt><trkpt lat="34.9634832" lon="32.9188941"><ele>989.0</ele><time>2015-04-29T14:48:20.0000000+00:00</time></trkpt><trkpt lat="34.9635215" lon="32.9189277"><ele>988.9</ele><time>2015-04-29T14:48:21.0000000+00:00</time></trkpt><trkpt lat="34.9635689" lon="32.9189736"><ele>988.8</ele><time>2015-04-29T14:48:22.0000000+00:00</time></trkpt><trkpt lat="34.963612" lon="32.9190114"><ele>988.8</ele><time>2015-04-29T14:48:23.0000000+00:00</time></trkpt><trkpt lat="34.9636565" lon="32.9190404"><ele>988.3</ele><time>2015-04-29T14:48:24.0000000+00:00</time></trkpt><trkpt lat="34.9636978" lon="32.9190624"><ele>988.0</ele><time>2015-04-29T14:48:25.0000000+00:00</time></trkpt><trkpt lat="34.963754" lon="32.9190784"><ele>987.3</ele><time>2015-04-29T14:48:27.0000000+00:00</time></trkpt><trkpt lat="34.9638398" lon="32.9190505"><ele>986.9</ele><time>2015-04-29T14:48:29.0000000+00:00</time></trkpt><trkpt lat="34.9639107" lon="32.9189966"><ele>985.8</ele><time>2015-04-29T14:48:31.0000000+00:00</time></trkpt><trkpt lat="34.963961" lon="32.9189769"><ele>985.3</ele><time>2015-04-29T14:48:32.0000000+00:00</time></trkpt><trkpt lat="34.9640213" lon="32.9189594"><ele>985.0</ele><time>2015-04-29T14:48:33.0000000+00:00</time></trkpt><trkpt lat="34.9640754" lon="32.918934"><ele>984.4</ele><time>2015-04-29T14:48:34.0000000+00:00</time></trkpt><trkpt lat="34.9641282" lon="32.9189245"><ele>984.6</ele><time>2015-04-29T14:48:35.0000000+00:00</time></trkpt><trkpt lat="34.964173" lon="32.9189154"><ele>984.7</ele><time>2015-04-29T14:48:36.0000000+00:00</time></trkpt><trkpt lat="34.9642643" lon="32.9189331"><ele>985.5</ele><time>2015-04-29T14:48:38.0000000+00:00</time></trkpt><trkpt lat="34.9643424" lon="32.9189244"><ele>984.2</ele><time>2015-04-29T14:48:40.0000000+00:00</time></trkpt><trkpt lat="34.964406" lon="32.9188842"><ele>982.1</ele><time>2015-04-29T14:48:42.0000000+00:00</time></trkpt><trkpt lat="34.964469" lon="32.9188326"><ele>980.4</ele><time>2015-04-29T14:48:44.0000000+00:00</time></trkpt><trkpt lat="34.9645317" lon="32.9187674"><ele>979.2</ele><time>2015-04-29T14:48:46.0000000+00:00</time></trkpt><trkpt lat="34.9645811" lon="32.9186911"><ele>978.9</ele><time>2015-04-29T14:48:48.0000000+00:00</time></trkpt><trkpt lat="34.964607" lon="32.9186013"><ele>978.3</ele><time>2015-04-29T14:48:50.0000000+00:00</time></trkpt><trkpt lat="34.9645988" lon="32.9185091"><ele>978.1</ele><time>2015-04-29T14:48:52.0000000+00:00</time></trkpt><trkpt lat="34.9645709" lon="32.9184607"><ele>977.9</ele><time>2015-04-29T14:48:54.0000000+00:00</time></trkpt><trkpt lat="34.9645466" lon="32.9184075"><ele>977.8</ele><time>2015-04-29T14:48:57.0000000+00:00</time></trkpt><trkpt lat="34.9645457" lon="32.9183392"><ele>976.8</ele><time>2015-04-29T14:49:00.0000000+00:00</time></trkpt><trkpt lat="34.96456" lon="32.9182827"><ele>976.8</ele><time>2015-04-29T14:49:02.0000000+00:00</time></trkpt><trkpt lat="34.9645842" lon="32.9182153"><ele>976.8</ele><time>2015-04-29T14:49:04.0000000+00:00</time></trkpt><trkpt lat="34.9646095" lon="32.9181425"><ele>975.5</ele><time>2015-04-29T14:49:06.0000000+00:00</time></trkpt><trkpt lat="34.9646395" lon="32.9180689"><ele>975.0</ele><time>2015-04-29T14:49:08.0000000+00:00</time></trkpt><trkpt lat="34.9646758" lon="32.9179983"><ele>975.1</ele><time>2015-04-29T14:49:10.0000000+00:00</time></trkpt><trkpt lat="34.9647046" lon="32.9179253"><ele>974.8</ele><time>2015-04-29T14:49:12.0000000+00:00</time></trkpt><trkpt lat="34.964719" lon="32.9178495"><ele>974.8</ele><time>2015-04-29T14:49:14.0000000+00:00</time></trkpt><trkpt lat="34.9647284" lon="32.9177776"><ele>976.0</ele><time>2015-04-29T14:49:16.0000000+00:00</time></trkpt><trkpt lat="34.9647235" lon="32.9177049"><ele>975.8</ele><time>2015-04-29T14:49:18.0000000+00:00</time></trkpt><trkpt lat="34.9647009" lon="32.9176343"><ele>975.3</ele><time>2015-04-29T14:49:20.0000000+00:00</time></trkpt><trkpt lat="34.9646724" lon="32.9175672"><ele>976.1</ele><time>2015-04-29T14:49:22.0000000+00:00</time></trkpt><trkpt lat="34.9646391" lon="32.9175016"><ele>975.9</ele><time>2015-04-29T14:49:24.0000000+00:00</time></trkpt><trkpt lat="34.964604" lon="32.9174367"><ele>976.3</ele><time>2015-04-29T14:49:26.0000000+00:00</time></trkpt><trkpt lat="34.9645688" lon="32.9173768"><ele>976.6</ele><time>2015-04-29T14:49:28.0000000+00:00</time></trkpt><trkpt lat="34.9645343" lon="32.9173192"><ele>976.7</ele><time>2015-04-29T14:49:30.0000000+00:00</time></trkpt><trkpt lat="34.9644935" lon="32.9172677"><ele>976.8</ele><time>2015-04-29T14:49:32.0000000+00:00</time></trkpt><trkpt lat="34.9644435" lon="32.9172353"><ele>977.3</ele><time>2015-04-29T14:49:34.0000000+00:00</time></trkpt><trkpt lat="34.9643889" lon="32.9172263"><ele>977.6</ele><time>2015-04-29T14:49:36.0000000+00:00</time></trkpt><trkpt lat="34.9643311" lon="32.9172339"><ele>977.0</ele><time>2015-04-29T14:49:38.0000000+00:00</time></trkpt><trkpt lat="34.9642647" lon="32.9172385"><ele>975.6</ele><time>2015-04-29T14:49:40.0000000+00:00</time></trkpt><trkpt lat="34.964186" lon="32.9172366"><ele>974.7</ele><time>2015-04-29T14:49:42.0000000+00:00</time></trkpt><trkpt lat="34.9641138" lon="32.9172348"><ele>974.8</ele><time>2015-04-29T14:49:44.0000000+00:00</time></trkpt><trkpt lat="34.9640547" lon="32.9172127"><ele>974.8</ele><time>2015-04-29T14:49:46.0000000+00:00</time></trkpt><trkpt lat="34.9640043" lon="32.9171702"><ele>974.3</ele><time>2015-04-29T14:49:48.0000000+00:00</time></trkpt><trkpt lat="34.9639737" lon="32.9170966"><ele>973.9</ele><time>2015-04-29T14:49:50.0000000+00:00</time></trkpt><trkpt lat="34.9639643" lon="32.9170034"><ele>974.5</ele><time>2015-04-29T14:49:52.0000000+00:00</time></trkpt><trkpt lat="34.963959" lon="32.9169138"><ele>976.0</ele><time>2015-04-29T14:49:54.0000000+00:00</time></trkpt><trkpt lat="34.9639377" lon="32.9168351"><ele>976.6</ele><time>2015-04-29T14:49:56.0000000+00:00</time></trkpt><trkpt lat="34.9638963" lon="32.916767"><ele>976.2</ele><time>2015-04-29T14:49:58.0000000+00:00</time></trkpt><trkpt lat="34.9638404" lon="32.9167111"><ele>976.6</ele><time>2015-04-29T14:50:00.0000000+00:00</time></trkpt><trkpt lat="34.9637859" lon="32.9166515"><ele>976.7</ele><time>2015-04-29T14:50:02.0000000+00:00</time></trkpt><trkpt lat="34.9637547" lon="32.9165657"><ele>975.8</ele><time>2015-04-29T14:50:04.0000000+00:00</time></trkpt><trkpt lat="34.9637706" lon="32.9164785"><ele>976.5</ele><time>2015-04-29T14:50:06.0000000+00:00</time></trkpt><trkpt lat="34.9638034" lon="32.9164197"><ele>977.2</ele><time>2015-04-29T14:50:08.0000000+00:00</time></trkpt><trkpt lat="34.9638247" lon="32.9163652"><ele>977.6</ele><time>2015-04-29T14:50:10.0000000+00:00</time></trkpt><trkpt lat="34.963812" lon="32.916302"><ele>977.7</ele><time>2015-04-29T14:50:12.0000000+00:00</time></trkpt><trkpt lat="34.9637743" lon="32.9162444"><ele>977.8</ele><time>2015-04-29T14:50:14.0000000+00:00</time></trkpt><trkpt lat="34.963721" lon="32.9162097"><ele>978.5</ele><time>2015-04-29T14:50:16.0000000+00:00</time></trkpt><trkpt lat="34.9636678" lon="32.9161808"><ele>978.7</ele><time>2015-04-29T14:50:18.0000000+00:00</time></trkpt><trkpt lat="34.9636229" lon="32.9161458"><ele>980.0</ele><time>2015-04-29T14:50:20.0000000+00:00</time></trkpt><trkpt lat="34.9635965" lon="32.9160952"><ele>981.4</ele><time>2015-04-29T14:50:23.0000000+00:00</time></trkpt><trkpt lat="34.9636052" lon="32.9160287"><ele>981.0</ele><time>2015-04-29T14:50:26.0000000+00:00</time></trkpt><trkpt lat="34.963623" lon="32.9159651"><ele>981.6</ele><time>2015-04-29T14:50:28.0000000+00:00</time></trkpt><trkpt lat="34.9636524" lon="32.9159036"><ele>980.7</ele><time>2015-04-29T14:50:30.0000000+00:00</time></trkpt><trkpt lat="34.9636882" lon="32.9158415"><ele>981.3</ele><time>2015-04-29T14:50:32.0000000+00:00</time></trkpt><trkpt lat="34.9637247" lon="32.91578"><ele>981.6</ele><time>2015-04-29T14:50:34.0000000+00:00</time></trkpt><trkpt lat="34.9637648" lon="32.9157222"><ele>982.2</ele><time>2015-04-29T14:50:36.0000000+00:00</time></trkpt><trkpt lat="34.9638094" lon="32.9156716"><ele>982.4</ele><time>2015-04-29T14:50:38.0000000+00:00</time></trkpt><trkpt lat="34.9638715" lon="32.9156413"><ele>982.7</ele><time>2015-04-29T14:50:40.0000000+00:00</time></trkpt><trkpt lat="34.9639408" lon="32.915616"><ele>982.2</ele><time>2015-04-29T14:50:42.0000000+00:00</time></trkpt><trkpt lat="34.9640167" lon="32.9155952"><ele>981.9</ele><time>2015-04-29T14:50:44.0000000+00:00</time></trkpt><trkpt lat="34.9641003" lon="32.915586"><ele>981.8</ele><time>2015-04-29T14:50:46.0000000+00:00</time></trkpt><trkpt lat="34.9641783" lon="32.915579"><ele>981.3</ele><time>2015-04-29T14:50:48.0000000+00:00</time></trkpt><trkpt lat="34.9642574" lon="32.9155491"><ele>981.4</ele><time>2015-04-29T14:50:50.0000000+00:00</time></trkpt><trkpt lat="34.9643376" lon="32.9155086"><ele>980.7</ele><time>2015-04-29T14:50:52.0000000+00:00</time></trkpt><trkpt lat="34.9644155" lon="32.9154685"><ele>980.0</ele><time>2015-04-29T14:50:54.0000000+00:00</time></trkpt><trkpt lat="34.9644908" lon="32.9154356"><ele>979.8</ele><time>2015-04-29T14:50:56.0000000+00:00</time></trkpt><trkpt lat="34.9645693" lon="32.9154119"><ele>979.8</ele><time>2015-04-29T14:50:58.0000000+00:00</time></trkpt><trkpt lat="34.9646553" lon="32.9154279"><ele>980.5</ele><time>2015-04-29T14:51:00.0000000+00:00</time></trkpt><trkpt lat="34.9647304" lon="32.9154664"><ele>979.7</ele><time>2015-04-29T14:51:02.0000000+00:00</time></trkpt><trkpt lat="34.9647881" lon="32.9155056"><ele>980.7</ele><time>2015-04-29T14:51:04.0000000+00:00</time></trkpt><trkpt lat="34.9648487" lon="32.9155375"><ele>980.8</ele><time>2015-04-29T14:51:06.0000000+00:00</time></trkpt><trkpt lat="34.9649245" lon="32.915549"><ele>981.3</ele><time>2015-04-29T14:51:08.0000000+00:00</time></trkpt><trkpt lat="34.9649913" lon="32.9155101"><ele>980.4</ele><time>2015-04-29T14:51:10.0000000+00:00</time></trkpt><trkpt lat="34.9650575" lon="32.9153969"><ele>979.2</ele><time>2015-04-29T14:51:12.0000000+00:00</time></trkpt><trkpt lat="34.9650917" lon="32.9153588"><ele>979.0</ele><time>2015-04-29T14:51:13.0000000+00:00</time></trkpt><trkpt lat="34.9651266" lon="32.9153148"><ele>978.9</ele><time>2015-04-29T14:51:14.0000000+00:00</time></trkpt><trkpt lat="34.9651679" lon="32.9152813"><ele>978.8</ele><time>2015-04-29T14:51:15.0000000+00:00</time></trkpt><trkpt lat="34.9652099" lon="32.915241"><ele>979.3</ele><time>2015-04-29T14:51:16.0000000+00:00</time></trkpt><trkpt lat="34.9652543" lon="32.9152078"><ele>979.5</ele><time>2015-04-29T14:51:17.0000000+00:00</time></trkpt><trkpt lat="34.9653367" lon="32.915172"><ele>979.7</ele><time>2015-04-29T14:51:19.0000000+00:00</time></trkpt><trkpt lat="34.9654235" lon="32.9151339"><ele>979.8</ele><time>2015-04-29T14:51:21.0000000+00:00</time></trkpt><trkpt lat="34.9654745" lon="32.9151147"><ele>979.8</ele><time>2015-04-29T14:51:23.0000000+00:00</time></trkpt><trkpt lat="34.9655242" lon="32.9150708"><ele>980.5</ele><time>2015-04-29T14:51:26.0000000+00:00</time></trkpt><trkpt lat="34.9655433" lon="32.9150194"><ele>980.0</ele><time>2015-04-29T14:51:28.0000000+00:00</time></trkpt><trkpt lat="34.9655509" lon="32.9149557"><ele>980.3</ele><time>2015-04-29T14:51:30.0000000+00:00</time></trkpt><trkpt lat="34.9655595" lon="32.9148813"><ele>980.7</ele><time>2015-04-29T14:51:32.0000000+00:00</time></trkpt><trkpt lat="34.9655762" lon="32.9147852"><ele>980.2</ele><time>2015-04-29T14:51:34.0000000+00:00</time></trkpt><trkpt lat="34.9656004" lon="32.9146939"><ele>979.9</ele><time>2015-04-29T14:51:36.0000000+00:00</time></trkpt><trkpt lat="34.9656124" lon="32.9145996"><ele>979.8</ele><time>2015-04-29T14:51:38.0000000+00:00</time></trkpt><trkpt lat="34.9655916" lon="32.9145041"><ele>979.3</ele><time>2015-04-29T14:51:40.0000000+00:00</time></trkpt><trkpt lat="34.9655551" lon="32.9144114"><ele>978.9</ele><time>2015-04-29T14:51:42.0000000+00:00</time></trkpt><trkpt lat="34.9655283" lon="32.9143261"><ele>978.3</ele><time>2015-04-29T14:51:44.0000000+00:00</time></trkpt><trkpt lat="34.9655418" lon="32.9142526"><ele>978.1</ele><time>2015-04-29T14:51:46.0000000+00:00</time></trkpt><trkpt lat="34.9655849" lon="32.9141868"><ele>977.9</ele><time>2015-04-29T14:51:48.0000000+00:00</time></trkpt><trkpt lat="34.9656307" lon="32.9141189"><ele>977.8</ele><time>2015-04-29T14:51:50.0000000+00:00</time></trkpt><trkpt lat="34.9656518" lon="32.91404"><ele>978.3</ele><time>2015-04-29T14:51:52.0000000+00:00</time></trkpt><trkpt lat="34.965638" lon="32.9139644"><ele>979.9</ele><time>2015-04-29T14:51:54.0000000+00:00</time></trkpt><trkpt lat="34.9656049" lon="32.913893"><ele>979.8</ele><time>2015-04-29T14:51:56.0000000+00:00</time></trkpt><trkpt lat="34.965555" lon="32.9138152"><ele>979.8</ele><time>2015-04-29T14:51:58.0000000+00:00</time></trkpt><trkpt lat="34.9654973" lon="32.9137278"><ele>979.3</ele><time>2015-04-29T14:52:00.0000000+00:00</time></trkpt><trkpt lat="34.9654709" lon="32.9136825"><ele>979.0</ele><time>2015-04-29T14:52:01.0000000+00:00</time></trkpt><trkpt lat="34.9654485" lon="32.9136334"><ele>978.9</ele><time>2015-04-29T14:52:02.0000000+00:00</time></trkpt><trkpt lat="34.9654172" lon="32.9135357"><ele>978.0</ele><time>2015-04-29T14:52:04.0000000+00:00</time></trkpt><trkpt lat="34.9653995" lon="32.9134401"><ele>977.8</ele><time>2015-04-29T14:52:06.0000000+00:00</time></trkpt><trkpt lat="34.9654069" lon="32.9133579"><ele>977.3</ele><time>2015-04-29T14:52:08.0000000+00:00</time></trkpt><trkpt lat="34.9654437" lon="32.9132775"><ele>976.9</ele><time>2015-04-29T14:52:10.0000000+00:00</time></trkpt><trkpt lat="34.9655058" lon="32.913224"><ele>977.5</ele><time>2015-04-29T14:52:12.0000000+00:00</time></trkpt><trkpt lat="34.9655831" lon="32.9132014"><ele>977.5</ele><time>2015-04-29T14:52:14.0000000+00:00</time></trkpt><trkpt lat="34.9656576" lon="32.9131891"><ele>976.9</ele><time>2015-04-29T14:52:16.0000000+00:00</time></trkpt><trkpt lat="34.9657347" lon="32.9131975"><ele>977.3</ele><time>2015-04-29T14:52:18.0000000+00:00</time></trkpt><trkpt lat="34.9658111" lon="32.9132022"><ele>978.2</ele><time>2015-04-29T14:52:20.0000000+00:00</time></trkpt><trkpt lat="34.9658853" lon="32.9131891"><ele>980.1</ele><time>2015-04-29T14:52:22.0000000+00:00</time></trkpt><trkpt lat="34.9659618" lon="32.9131804"><ele>980.6</ele><time>2015-04-29T14:52:24.0000000+00:00</time></trkpt><trkpt lat="34.9660452" lon="32.9131739"><ele>980.2</ele><time>2015-04-29T14:52:26.0000000+00:00</time></trkpt><trkpt lat="34.9661327" lon="32.9131762"><ele>980.6</ele><time>2015-04-29T14:52:28.0000000+00:00</time></trkpt><trkpt lat="34.9662123" lon="32.9131639"><ele>980.7</ele><time>2015-04-29T14:52:30.0000000+00:00</time></trkpt><trkpt lat="34.9662651" lon="32.9131144"><ele>980.8</ele><time>2015-04-29T14:52:32.0000000+00:00</time></trkpt><trkpt lat="34.9662952" lon="32.9130481"><ele>981.0</ele><time>2015-04-29T14:52:34.0000000+00:00</time></trkpt><trkpt lat="34.9663236" lon="32.9129756"><ele>980.8</ele><time>2015-04-29T14:52:36.0000000+00:00</time></trkpt><trkpt lat="34.9663601" lon="32.9128979"><ele>980.3</ele><time>2015-04-29T14:52:38.0000000+00:00</time></trkpt><trkpt lat="34.9663881" lon="32.9128118"><ele>979.9</ele><time>2015-04-29T14:52:40.0000000+00:00</time></trkpt><trkpt lat="34.9663958" lon="32.9127177"><ele>980.3</ele><time>2015-04-29T14:52:42.0000000+00:00</time></trkpt><trkpt lat="34.9663775" lon="32.9126214"><ele>980.6</ele><time>2015-04-29T14:52:44.0000000+00:00</time></trkpt><trkpt lat="34.9663486" lon="32.9125242"><ele>980.7</ele><time>2015-04-29T14:52:46.0000000+00:00</time></trkpt><trkpt lat="34.9663263" lon="32.9124276"><ele>980.8</ele><time>2015-04-29T14:52:48.0000000+00:00</time></trkpt><trkpt lat="34.96631" lon="32.9123326"><ele>980.8</ele><time>2015-04-29T14:52:50.0000000+00:00</time></trkpt><trkpt lat="34.966298" lon="32.9122408"><ele>980.3</ele><time>2015-04-29T14:52:52.0000000+00:00</time></trkpt><trkpt lat="34.9662759" lon="32.9121557"><ele>981.1</ele><time>2015-04-29T14:52:54.0000000+00:00</time></trkpt><trkpt lat="34.9662409" lon="32.9120779"><ele>981.4</ele><time>2015-04-29T14:52:56.0000000+00:00</time></trkpt><trkpt lat="34.9661905" lon="32.9120149"><ele>981.7</ele><time>2015-04-29T14:52:58.0000000+00:00</time></trkpt><trkpt lat="34.9661356" lon="32.9119548"><ele>981.2</ele><time>2015-04-29T14:53:00.0000000+00:00</time></trkpt><trkpt lat="34.9660846" lon="32.9118907"><ele>980.4</ele><time>2015-04-29T14:53:02.0000000+00:00</time></trkpt><trkpt lat="34.9660694" lon="32.9118133"><ele>978.7</ele><time>2015-04-29T14:53:04.0000000+00:00</time></trkpt><trkpt lat="34.9660794" lon="32.9117422"><ele>977.7</ele><time>2015-04-29T14:53:06.0000000+00:00</time></trkpt><trkpt lat="34.9661002" lon="32.9116733"><ele>977.0</ele><time>2015-04-29T14:53:08.0000000+00:00</time></trkpt><trkpt lat="34.9661481" lon="32.9116065"><ele>976.8</ele><time>2015-04-29T14:53:10.0000000+00:00</time></trkpt><trkpt lat="34.9662159" lon="32.9115424"><ele>978.3</ele><time>2015-04-29T14:53:12.0000000+00:00</time></trkpt><trkpt lat="34.9662862" lon="32.911488"><ele>979.9</ele><time>2015-04-29T14:53:14.0000000+00:00</time></trkpt><trkpt lat="34.9663409" lon="32.9114324"><ele>980.5</ele><time>2015-04-29T14:53:16.0000000+00:00</time></trkpt><trkpt lat="34.9663809" lon="32.9113644"><ele>980.7</ele><time>2015-04-29T14:53:18.0000000+00:00</time></trkpt><trkpt lat="34.9664038" lon="32.911275"><ele>981.5</ele><time>2015-04-29T14:53:20.0000000+00:00</time></trkpt><trkpt lat="34.9664059" lon="32.911173"><ele>981.2</ele><time>2015-04-29T14:53:22.0000000+00:00</time></trkpt><trkpt lat="34.966379" lon="32.9110714"><ele>980.1</ele><time>2015-04-29T14:53:24.0000000+00:00</time></trkpt><trkpt lat="34.96636" lon="32.911021"><ele>979.9</ele><time>2015-04-29T14:53:25.0000000+00:00</time></trkpt><trkpt lat="34.9663417" lon="32.9109705"><ele>979.9</ele><time>2015-04-29T14:53:26.0000000+00:00</time></trkpt><trkpt lat="34.9663242" lon="32.9108653"><ele>979.8</ele><time>2015-04-29T14:53:28.0000000+00:00</time></trkpt><trkpt lat="34.9663491" lon="32.9107704"><ele>980.5</ele><time>2015-04-29T14:53:30.0000000+00:00</time></trkpt><trkpt lat="34.9663881" lon="32.9106834"><ele>981.5</ele><time>2015-04-29T14:53:32.0000000+00:00</time></trkpt><trkpt lat="34.966405" lon="32.9105968"><ele>982.4</ele><time>2015-04-29T14:53:34.0000000+00:00</time></trkpt><trkpt lat="34.9663969" lon="32.9105217"><ele>983.4</ele><time>2015-04-29T14:53:36.0000000+00:00</time></trkpt><trkpt lat="34.9663801" lon="32.9104321"><ele>983.7</ele><time>2015-04-29T14:53:38.0000000+00:00</time></trkpt><trkpt lat="34.9663716" lon="32.9103392"><ele>984.5</ele><time>2015-04-29T14:53:40.0000000+00:00</time></trkpt><trkpt lat="34.9663966" lon="32.9102563"><ele>984.2</ele><time>2015-04-29T14:53:42.0000000+00:00</time></trkpt><trkpt lat="34.9664566" lon="32.910213"><ele>983.1</ele><time>2015-04-29T14:53:44.0000000+00:00</time></trkpt><trkpt lat="34.9665391" lon="32.9102077"><ele>983.9</ele><time>2015-04-29T14:53:46.0000000+00:00</time></trkpt><trkpt lat="34.9666206" lon="32.9102127"><ele>984.5</ele><time>2015-04-29T14:53:48.0000000+00:00</time></trkpt><trkpt lat="34.9667074" lon="32.9102242"><ele>983.5</ele><time>2015-04-29T14:53:50.0000000+00:00</time></trkpt><trkpt lat="34.9667893" lon="32.9102716"><ele>982.7</ele><time>2015-04-29T14:53:52.0000000+00:00</time></trkpt><trkpt lat="34.966857" lon="32.9103386"><ele>984.0</ele><time>2015-04-29T14:53:54.0000000+00:00</time></trkpt><trkpt lat="34.9669226" lon="32.9104034"><ele>985.3</ele><time>2015-04-29T14:53:56.0000000+00:00</time></trkpt><trkpt lat="34.9669643" lon="32.9104745"><ele>986.0</ele><time>2015-04-29T14:53:57.0000000+00:00</time></trkpt><trkpt lat="34.9670108" lon="32.910512"><ele>987.4</ele><time>2015-04-29T14:53:58.0000000+00:00</time></trkpt><trkpt lat="34.9670799" lon="32.9105634"><ele>988.2</ele><time>2015-04-29T14:54:00.0000000+00:00</time></trkpt><trkpt lat="34.9671187" lon="32.9106004"><ele>989.5</ele><time>2015-04-29T14:54:01.0000000+00:00</time></trkpt><trkpt lat="34.9671567" lon="32.9106352"><ele>990.6</ele><time>2015-04-29T14:54:02.0000000+00:00</time></trkpt><trkpt lat="34.9672062" lon="32.9107129"><ele>990.7</ele><time>2015-04-29T14:54:04.0000000+00:00</time></trkpt><trkpt lat="34.9672379" lon="32.910753"><ele>991.2</ele><time>2015-04-29T14:54:05.0000000+00:00</time></trkpt><trkpt lat="34.9672884" lon="32.9108379"><ele>992.4</ele><time>2015-04-29T14:54:07.0000000+00:00</time></trkpt><trkpt lat="34.9673336" lon="32.9109338"><ele>994.2</ele><time>2015-04-29T14:54:09.0000000+00:00</time></trkpt><trkpt lat="34.9673559" lon="32.9109933"><ele>994.1</ele><time>2015-04-29T14:54:11.0000000+00:00</time></trkpt><trkpt lat="34.9673994" lon="32.911076"><ele>992.4</ele><time>2015-04-29T14:54:13.0000000+00:00</time></trkpt><trkpt lat="34.9674258" lon="32.9111652"><ele>991.2</ele><time>2015-04-29T14:54:15.0000000+00:00</time></trkpt><trkpt lat="34.9674452" lon="32.9112543"><ele>988.6</ele><time>2015-04-29T14:54:17.0000000+00:00</time></trkpt><trkpt lat="34.9674763" lon="32.9113372"><ele>988.0</ele><time>2015-04-29T14:54:19.0000000+00:00</time></trkpt><trkpt lat="34.9675306" lon="32.9114067"><ele>988.3</ele><time>2015-04-29T14:54:21.0000000+00:00</time></trkpt><trkpt lat="34.9675909" lon="32.9114573"><ele>988.7</ele><time>2015-04-29T14:54:23.0000000+00:00</time></trkpt><trkpt lat="34.9676612" lon="32.9114956"><ele>989.5</ele><time>2015-04-29T14:54:25.0000000+00:00</time></trkpt><trkpt lat="34.967735" lon="32.9114831"><ele>989.4</ele><time>2015-04-29T14:54:27.0000000+00:00</time></trkpt><trkpt lat="34.9677912" lon="32.9114034"><ele>988.9</ele><time>2015-04-29T14:54:29.0000000+00:00</time></trkpt><trkpt lat="34.9678119" lon="32.9113535"><ele>988.9</ele><time>2015-04-29T14:54:30.0000000+00:00</time></trkpt><trkpt lat="34.9678271" lon="32.9112591"><ele>988.8</ele><time>2015-04-29T14:54:31.0000000+00:00</time></trkpt><trkpt lat="34.9678513" lon="32.9111586"><ele>988.5</ele><time>2015-04-29T14:54:33.0000000+00:00</time></trkpt><trkpt lat="34.9678725" lon="32.9110601"><ele>988.7</ele><time>2015-04-29T14:54:35.0000000+00:00</time></trkpt><trkpt lat="34.9678829" lon="32.9109696"><ele>988.5</ele><time>2015-04-29T14:54:37.0000000+00:00</time></trkpt><trkpt lat="34.9679012" lon="32.9108774"><ele>988.2</ele><time>2015-04-29T14:54:39.0000000+00:00</time></trkpt><trkpt lat="34.9679285" lon="32.9107895"><ele>988.1</ele><time>2015-04-29T14:54:41.0000000+00:00</time></trkpt><trkpt lat="34.9679806" lon="32.9107185"><ele>987.9</ele><time>2015-04-29T14:54:43.0000000+00:00</time></trkpt><trkpt lat="34.968031" lon="32.9106404"><ele>987.8</ele><time>2015-04-29T14:54:45.0000000+00:00</time></trkpt><trkpt lat="34.968068" lon="32.9105579"><ele>988.5</ele><time>2015-04-29T14:54:47.0000000+00:00</time></trkpt><trkpt lat="34.9681001" lon="32.9104648"><ele>988.7</ele><time>2015-04-29T14:54:49.0000000+00:00</time></trkpt><trkpt lat="34.9681194" lon="32.9104134"><ele>989.2</ele><time>2015-04-29T14:54:50.0000000+00:00</time></trkpt><trkpt lat="34.9681549" lon="32.9103154"><ele>989.6</ele><time>2015-04-29T14:54:52.0000000+00:00</time></trkpt><trkpt lat="34.9681834" lon="32.9102302"><ele>989.7</ele><time>2015-04-29T14:54:54.0000000+00:00</time></trkpt><trkpt lat="34.9682016" lon="32.9101429"><ele>988.3</ele><time>2015-04-29T14:54:56.0000000+00:00</time></trkpt><trkpt lat="34.9682162" lon="32.9100536"><ele>987.9</ele><time>2015-04-29T14:54:58.0000000+00:00</time></trkpt><trkpt lat="34.9682165" lon="32.9099586"><ele>986.5</ele><time>2015-04-29T14:55:00.0000000+00:00</time></trkpt><trkpt lat="34.9682183" lon="32.9098622"><ele>986.7</ele><time>2015-04-29T14:55:02.0000000+00:00</time></trkpt><trkpt lat="34.9682217" lon="32.9097612"><ele>986.8</ele><time>2015-04-29T14:55:04.0000000+00:00</time></trkpt><trkpt lat="34.9682386" lon="32.9096636"><ele>986.8</ele><time>2015-04-29T14:55:06.0000000+00:00</time></trkpt><trkpt lat="34.9683014" lon="32.9095939"><ele>985.8</ele><time>2015-04-29T14:55:08.0000000+00:00</time></trkpt><trkpt lat="34.9683829" lon="32.909587"><ele>985.8</ele><time>2015-04-29T14:55:10.0000000+00:00</time></trkpt><trkpt lat="34.9684481" lon="32.9096356"><ele>987.8</ele><time>2015-04-29T14:55:12.0000000+00:00</time></trkpt><trkpt lat="34.9685029" lon="32.9096784"><ele>987.8</ele><time>2015-04-29T14:55:14.0000000+00:00</time></trkpt><trkpt lat="34.9685586" lon="32.909706"><ele>988.3</ele><time>2015-04-29T14:55:16.0000000+00:00</time></trkpt><trkpt lat="34.9686071" lon="32.9097241"><ele>989.4</ele><time>2015-04-29T14:55:18.0000000+00:00</time></trkpt><trkpt lat="34.9686675" lon="32.9097199"><ele>990.2</ele><time>2015-04-29T14:55:21.0000000+00:00</time></trkpt><trkpt lat="34.9687186" lon="32.9096993"><ele>990.7</ele><time>2015-04-29T14:55:24.0000000+00:00</time></trkpt><trkpt lat="34.9687706" lon="32.9096776"><ele>990.8</ele><time>2015-04-29T14:55:27.0000000+00:00</time></trkpt><trkpt lat="34.9688198" lon="32.9096513"><ele>989.4</ele><time>2015-04-29T14:55:30.0000000+00:00</time></trkpt><trkpt lat="34.9688651" lon="32.9096002"><ele>988.8</ele><time>2015-04-29T14:55:33.0000000+00:00</time></trkpt><trkpt lat="34.9688977" lon="32.9095442"><ele>988.8</ele><time>2015-04-29T14:55:35.0000000+00:00</time></trkpt><trkpt lat="34.9689318" lon="32.9094745"><ele>988.3</ele><time>2015-04-29T14:55:37.0000000+00:00</time></trkpt><trkpt lat="34.9689652" lon="32.9094068"><ele>988.1</ele><time>2015-04-29T14:55:39.0000000+00:00</time></trkpt><trkpt lat="34.9690049" lon="32.9093524"><ele>987.9</ele><time>2015-04-29T14:55:41.0000000+00:00</time></trkpt><trkpt lat="34.9690542" lon="32.9093232"><ele>987.8</ele><time>2015-04-29T14:55:45.0000000+00:00</time></trkpt><trkpt lat="34.9690623" lon="32.9093776"><ele>984.8</ele><time>2015-04-29T14:57:11.0000000+00:00</time></trkpt><trkpt lat="34.96909" lon="32.9093134"><ele>985.3</ele><time>2015-04-29T14:58:20.0000000+00:00</time></trkpt><trkpt lat="34.9691076" lon="32.909245"><ele>984.9</ele><time>2015-04-29T14:58:22.0000000+00:00</time></trkpt><trkpt lat="34.9691189" lon="32.9091616"><ele>984.8</ele><time>2015-04-29T14:58:24.0000000+00:00</time></trkpt><trkpt lat="34.9691221" lon="32.9090808"><ele>984.8</ele><time>2015-04-29T14:58:26.0000000+00:00</time></trkpt><trkpt lat="34.9691047" lon="32.9089843"><ele>984.8</ele><time>2015-04-29T14:58:28.0000000+00:00</time></trkpt><trkpt lat="34.969082" lon="32.9088942"><ele>985.5</ele><time>2015-04-29T14:58:30.0000000+00:00</time></trkpt><trkpt lat="34.9690836" lon="32.908796"><ele>984.7</ele><time>2015-04-29T14:58:32.0000000+00:00</time></trkpt><trkpt lat="34.969108" lon="32.9087062"><ele>985.5</ele><time>2015-04-29T14:58:34.0000000+00:00</time></trkpt><trkpt lat="34.9691686" lon="32.9086363"><ele>987.7</ele><time>2015-04-29T14:58:36.0000000+00:00</time></trkpt><trkpt lat="34.9692339" lon="32.9085804"><ele>989.0</ele><time>2015-04-29T14:58:38.0000000+00:00</time></trkpt><trkpt lat="34.9692944" lon="32.9085135"><ele>990.8</ele><time>2015-04-29T14:58:40.0000000+00:00</time></trkpt><trkpt lat="34.9693628" lon="32.9084578"><ele>992.8</ele><time>2015-04-29T14:58:42.0000000+00:00</time></trkpt><trkpt lat="34.9694294" lon="32.9084114"><ele>992.8</ele><time>2015-04-29T14:58:44.0000000+00:00</time></trkpt><trkpt lat="34.9695023" lon="32.9083719"><ele>995.8</ele><time>2015-04-29T14:58:46.0000000+00:00</time></trkpt><trkpt lat="34.9695741" lon="32.9083792"><ele>996.3</ele><time>2015-04-29T14:58:48.0000000+00:00</time></trkpt><trkpt lat="34.9696277" lon="32.9083998"><ele>995.4</ele><time>2015-04-29T14:58:50.0000000+00:00</time></trkpt><trkpt lat="34.9696838" lon="32.9084342"><ele>995.7</ele><time>2015-04-29T14:58:53.0000000+00:00</time></trkpt><trkpt lat="34.9697359" lon="32.9084452"><ele>996.3</ele><time>2015-04-29T14:58:56.0000000+00:00</time></trkpt><trkpt lat="34.9697772" lon="32.9084108"><ele>998.3</ele><time>2015-04-29T14:58:59.0000000+00:00</time></trkpt><trkpt lat="34.9697633" lon="32.9083442"><ele>999.6</ele><time>2015-04-29T15:01:46.0000000+00:00</time></trkpt><trkpt lat="34.9697362" lon="32.908299"><ele>999.7</ele><time>2015-04-29T15:01:49.0000000+00:00</time></trkpt><trkpt lat="34.9697126" lon="32.9082434"><ele>997.0</ele><time>2015-04-29T15:01:53.0000000+00:00</time></trkpt><trkpt lat="34.9696812" lon="32.908182"><ele>994.5</ele><time>2015-04-29T15:01:57.0000000+00:00</time></trkpt><trkpt lat="34.9696343" lon="32.9081224"><ele>993.9</ele><time>2015-04-29T15:02:00.0000000+00:00</time></trkpt><trkpt lat="34.9695783" lon="32.9080892"><ele>994.3</ele><time>2015-04-29T15:02:03.0000000+00:00</time></trkpt><trkpt lat="34.9695344" lon="32.9080606"><ele>994.2</ele><time>2015-04-29T15:02:06.0000000+00:00</time></trkpt><trkpt lat="34.9694865" lon="32.9080159"><ele>996.1</ele><time>2015-04-29T15:02:09.0000000+00:00</time></trkpt><trkpt lat="34.9694583" lon="32.9079703"><ele>996.6</ele><time>2015-04-29T15:02:11.0000000+00:00</time></trkpt><trkpt lat="34.969429" lon="32.9079154"><ele>996.7</ele><time>2015-04-29T15:02:13.0000000+00:00</time></trkpt><trkpt lat="34.9693959" lon="32.9078589"><ele>996.3</ele><time>2015-04-29T15:02:15.0000000+00:00</time></trkpt><trkpt lat="34.9693622" lon="32.9077974"><ele>995.9</ele><time>2015-04-29T15:02:17.0000000+00:00</time></trkpt><trkpt lat="34.9693439" lon="32.9077318"><ele>995.5</ele><time>2015-04-29T15:02:19.0000000+00:00</time></trkpt><trkpt lat="34.9693469" lon="32.9076605"><ele>995.5</ele><time>2015-04-29T15:02:21.0000000+00:00</time></trkpt><trkpt lat="34.9693744" lon="32.9075941"><ele>995.2</ele><time>2015-04-29T15:02:23.0000000+00:00</time></trkpt><trkpt lat="34.9694169" lon="32.9075324"><ele>993.9</ele><time>2015-04-29T15:02:25.0000000+00:00</time></trkpt><trkpt lat="34.9694585" lon="32.9074724"><ele>993.0</ele><time>2015-04-29T15:02:27.0000000+00:00</time></trkpt><trkpt lat="34.9694962" lon="32.9073866"><ele>992.3</ele><time>2015-04-29T15:02:29.0000000+00:00</time></trkpt><trkpt lat="34.9695268" lon="32.9072938"><ele>992.7</ele><time>2015-04-29T15:02:31.0000000+00:00</time></trkpt><trkpt lat="34.9695507" lon="32.9072071"><ele>992.7</ele><time>2015-04-29T15:02:33.0000000+00:00</time></trkpt><trkpt lat="34.9695703" lon="32.9071547"><ele>993.3</ele><time>2015-04-29T15:02:34.0000000+00:00</time></trkpt><trkpt lat="34.9696355" lon="32.9070892"><ele>996.1</ele><time>2015-04-29T15:02:36.0000000+00:00</time></trkpt><trkpt lat="34.9697157" lon="32.9070622"><ele>998.1</ele><time>2015-04-29T15:02:38.0000000+00:00</time></trkpt><trkpt lat="34.9698003" lon="32.9070455"><ele>999.9</ele><time>2015-04-29T15:02:40.0000000+00:00</time></trkpt><trkpt lat="34.9698803" lon="32.9070203"><ele>999.3</ele><time>2015-04-29T15:02:42.0000000+00:00</time></trkpt><trkpt lat="34.9699519" lon="32.9069673"><ele>997.9</ele><time>2015-04-29T15:02:44.0000000+00:00</time></trkpt><trkpt lat="34.9700168" lon="32.906908"><ele>997.5</ele><time>2015-04-29T15:02:46.0000000+00:00</time></trkpt><trkpt lat="34.970095" lon="32.9068731"><ele>997.0</ele><time>2015-04-29T15:02:48.0000000+00:00</time></trkpt><trkpt lat="34.9701684" lon="32.9068467"><ele>997.3</ele><time>2015-04-29T15:02:50.0000000+00:00</time></trkpt><trkpt lat="34.9702389" lon="32.906815"><ele>998.4</ele><time>2015-04-29T15:02:52.0000000+00:00</time></trkpt><trkpt lat="34.9703027" lon="32.9067721"><ele>998.9</ele><time>2015-04-29T15:02:54.0000000+00:00</time></trkpt><trkpt lat="34.9703566" lon="32.9067021"><ele>998.6</ele><time>2015-04-29T15:02:56.0000000+00:00</time></trkpt><trkpt lat="34.9704188" lon="32.9065991"><ele>1000.5</ele><time>2015-04-29T15:02:58.0000000+00:00</time></trkpt><trkpt lat="34.9704581" lon="32.9065234"><ele>999.2</ele><time>2015-04-29T15:03:00.0000000+00:00</time></trkpt><trkpt lat="34.9704852" lon="32.9064678"><ele>998.5</ele><time>2015-04-29T15:03:01.0000000+00:00</time></trkpt><trkpt lat="34.9704982" lon="32.9064094"><ele>998.6</ele><time>2015-04-29T15:03:02.0000000+00:00</time></trkpt><trkpt lat="34.9705436" lon="32.9063194"><ele>997.5</ele><time>2015-04-29T15:03:04.0000000+00:00</time></trkpt><trkpt lat="34.9705614" lon="32.9062429"><ele>996.9</ele><time>2015-04-29T15:03:06.0000000+00:00</time></trkpt><trkpt lat="34.9705454" lon="32.9061834"><ele>997.6</ele><time>2015-04-29T15:03:08.0000000+00:00</time></trkpt><trkpt lat="34.9704839" lon="32.9061514"><ele>996.7</ele><time>2015-04-29T15:03:10.0000000+00:00</time></trkpt><trkpt lat="34.9704156" lon="32.9061438"><ele>995.0</ele><time>2015-04-29T15:03:12.0000000+00:00</time></trkpt><trkpt lat="34.9703407" lon="32.9061328"><ele>992.6</ele><time>2015-04-29T15:03:14.0000000+00:00</time></trkpt><trkpt lat="34.9702658" lon="32.9061147"><ele>990.5</ele><time>2015-04-29T15:03:16.0000000+00:00</time></trkpt><trkpt lat="34.970191" lon="32.9060837"><ele>990.4</ele><time>2015-04-29T15:03:18.0000000+00:00</time></trkpt><trkpt lat="34.9701125" lon="32.9060661"><ele>990.7</ele><time>2015-04-29T15:03:20.0000000+00:00</time></trkpt><trkpt lat="34.9700564" lon="32.9060654"><ele>990.7</ele><time>2015-04-29T15:03:21.0000000+00:00</time></trkpt><trkpt lat="34.9699765" lon="32.906056"><ele>990.8</ele><time>2015-04-29T15:03:23.0000000+00:00</time></trkpt><trkpt lat="34.9699251" lon="32.905978"><ele>990.0</ele><time>2015-04-29T15:03:25.0000000+00:00</time></trkpt><trkpt lat="34.9699194" lon="32.9059152"><ele>989.3</ele><time>2015-04-29T15:03:27.0000000+00:00</time></trkpt><trkpt lat="34.9699624" lon="32.9058411"><ele>989.2</ele><time>2015-04-29T15:03:29.0000000+00:00</time></trkpt><trkpt lat="34.9700014" lon="32.9057938"><ele>989.0</ele><time>2015-04-29T15:03:30.0000000+00:00</time></trkpt><trkpt lat="34.9700646" lon="32.9057431"><ele>988.3</ele><time>2015-04-29T15:03:32.0000000+00:00</time></trkpt><trkpt lat="34.9701302" lon="32.9056856"><ele>986.7</ele><time>2015-04-29T15:03:34.0000000+00:00</time></trkpt><trkpt lat="34.9701802" lon="32.9056114"><ele>986.0</ele><time>2015-04-29T15:03:36.0000000+00:00</time></trkpt><trkpt lat="34.9701843" lon="32.9055189"><ele>987.1</ele><time>2015-04-29T15:03:38.0000000+00:00</time></trkpt><trkpt lat="34.970159" lon="32.9054273"><ele>987.6</ele><time>2015-04-29T15:03:40.0000000+00:00</time></trkpt><trkpt lat="34.9701268" lon="32.905344"><ele>987.7</ele><time>2015-04-29T15:03:42.0000000+00:00</time></trkpt><trkpt lat="34.9701036" lon="32.9052561"><ele>987.0</ele><time>2015-04-29T15:03:44.0000000+00:00</time></trkpt><trkpt lat="34.9701247" lon="32.9051754"><ele>986.8</ele><time>2015-04-29T15:03:46.0000000+00:00</time></trkpt><trkpt lat="34.9701845" lon="32.9051427"><ele>986.3</ele><time>2015-04-29T15:03:48.0000000+00:00</time></trkpt><trkpt lat="34.9702602" lon="32.9051718"><ele>986.4</ele><time>2015-04-29T15:03:50.0000000+00:00</time></trkpt><trkpt lat="34.9703436" lon="32.905199"><ele>987.2</ele><time>2015-04-29T15:03:52.0000000+00:00</time></trkpt><trkpt lat="34.9703943" lon="32.9052054"><ele>987.0</ele><time>2015-04-29T15:03:53.0000000+00:00</time></trkpt><trkpt lat="34.9704567" lon="32.9051871"><ele>986.4</ele><time>2015-04-29T15:03:54.0000000+00:00</time></trkpt><trkpt lat="34.9705017" lon="32.9051734"><ele>986.6</ele><time>2015-04-29T15:03:55.0000000+00:00</time></trkpt><trkpt lat="34.9705461" lon="32.9051518"><ele>987.2</ele><time>2015-04-29T15:03:56.0000000+00:00</time></trkpt><trkpt lat="34.9706281" lon="32.905089"><ele>987.6</ele><time>2015-04-29T15:03:58.0000000+00:00</time></trkpt><trkpt lat="34.9706698" lon="32.9050551"><ele>987.7</ele><time>2015-04-29T15:03:59.0000000+00:00</time></trkpt><trkpt lat="34.970719" lon="32.9050165"><ele>987.7</ele><time>2015-04-29T15:04:00.0000000+00:00</time></trkpt><trkpt lat="34.9707563" lon="32.9049724"><ele>987.7</ele><time>2015-04-29T15:04:01.0000000+00:00</time></trkpt><trkpt lat="34.9708002" lon="32.9048957"><ele>986.5</ele><time>2015-04-29T15:04:03.0000000+00:00</time></trkpt><trkpt lat="34.9708092" lon="32.9048066"><ele>986.7</ele><time>2015-04-29T15:04:05.0000000+00:00</time></trkpt><trkpt lat="34.9708012" lon="32.9047054"><ele>986.7</ele><time>2015-04-29T15:04:07.0000000+00:00</time></trkpt><trkpt lat="34.9707948" lon="32.904648"><ele>986.8</ele><time>2015-04-29T15:04:08.0000000+00:00</time></trkpt><trkpt lat="34.9708031" lon="32.9045922"><ele>986.8</ele><time>2015-04-29T15:04:09.0000000+00:00</time></trkpt><trkpt lat="34.970803" lon="32.9045307"><ele>986.8</ele><time>2015-04-29T15:04:10.0000000+00:00</time></trkpt><trkpt lat="34.9708096" lon="32.9044722"><ele>986.8</ele><time>2015-04-29T15:04:11.0000000+00:00</time></trkpt><trkpt lat="34.9708299" lon="32.9043642"><ele>986.3</ele><time>2015-04-29T15:04:13.0000000+00:00</time></trkpt><trkpt lat="34.970847" lon="32.9042602"><ele>985.9</ele><time>2015-04-29T15:04:15.0000000+00:00</time></trkpt><trkpt lat="34.9708579" lon="32.9042008"><ele>985.8</ele><time>2015-04-29T15:04:16.0000000+00:00</time></trkpt><trkpt lat="34.9708781" lon="32.9041459"><ele>985.3</ele><time>2015-04-29T15:04:17.0000000+00:00</time></trkpt><trkpt lat="34.9709164" lon="32.9041006"><ele>985.5</ele><time>2015-04-29T15:04:18.0000000+00:00</time></trkpt><trkpt lat="34.9709618" lon="32.9040701"><ele>985.1</ele><time>2015-04-29T15:04:19.0000000+00:00</time></trkpt><trkpt lat="34.9710168" lon="32.9040498"><ele>985.5</ele><time>2015-04-29T15:04:20.0000000+00:00</time></trkpt><trkpt lat="34.9710661" lon="32.9040418"><ele>985.6</ele><time>2015-04-29T15:04:21.0000000+00:00</time></trkpt><trkpt lat="34.9711198" lon="32.9040306"><ele>986.2</ele><time>2015-04-29T15:04:22.0000000+00:00</time></trkpt><trkpt lat="34.971168" lon="32.9040204"><ele>986.5</ele><time>2015-04-29T15:04:23.0000000+00:00</time></trkpt><trkpt lat="34.9712019" lon="32.9039802"><ele>986.6</ele><time>2015-04-29T15:04:24.0000000+00:00</time></trkpt><trkpt lat="34.971238" lon="32.9039398"><ele>986.7</ele><time>2015-04-29T15:04:25.0000000+00:00</time></trkpt><trkpt lat="34.9712586" lon="32.9038864"><ele>986.7</ele><time>2015-04-29T15:04:26.0000000+00:00</time></trkpt><trkpt lat="34.9712788" lon="32.9038279"><ele>986.2</ele><time>2015-04-29T15:04:27.0000000+00:00</time></trkpt><trkpt lat="34.9712894" lon="32.9037714"><ele>986.0</ele><time>2015-04-29T15:04:28.0000000+00:00</time></trkpt><trkpt lat="34.9712855" lon="32.9037039"><ele>985.4</ele><time>2015-04-29T15:04:29.0000000+00:00</time></trkpt><trkpt lat="34.9712714" lon="32.9036458"><ele>986.1</ele><time>2015-04-29T15:04:30.0000000+00:00</time></trkpt><trkpt lat="34.9712299" lon="32.9035676"><ele>986.6</ele><time>2015-04-29T15:04:32.0000000+00:00</time></trkpt><trkpt lat="34.9711469" lon="32.9035574"><ele>986.0</ele><time>2015-04-29T15:04:34.0000000+00:00</time></trkpt><trkpt lat="34.9711016" lon="32.9035565"><ele>985.9</ele><time>2015-04-29T15:04:35.0000000+00:00</time></trkpt><trkpt lat="34.9710531" lon="32.9035442"><ele>985.8</ele><time>2015-04-29T15:04:36.0000000+00:00</time></trkpt><trkpt lat="34.9710048" lon="32.9035172"><ele>985.8</ele><time>2015-04-29T15:04:37.0000000+00:00</time></trkpt><trkpt lat="34.9709595" lon="32.9034706"><ele>985.8</ele><time>2015-04-29T15:04:38.0000000+00:00</time></trkpt><trkpt lat="34.9709378" lon="32.9034057"><ele>985.8</ele><time>2015-04-29T15:04:39.0000000+00:00</time></trkpt><trkpt lat="34.9709243" lon="32.9033367"><ele>985.8</ele><time>2015-04-29T15:04:40.0000000+00:00</time></trkpt><trkpt lat="34.9709068" lon="32.9032664"><ele>985.3</ele><time>2015-04-29T15:04:41.0000000+00:00</time></trkpt><trkpt lat="34.9708976" lon="32.9032082"><ele>985.0</ele><time>2015-04-29T15:04:42.0000000+00:00</time></trkpt><trkpt lat="34.9708758" lon="32.9031486"><ele>984.9</ele><time>2015-04-29T15:04:43.0000000+00:00</time></trkpt><trkpt lat="34.9708125" lon="32.9030571"><ele>984.5</ele><time>2015-04-29T15:04:45.0000000+00:00</time></trkpt><trkpt lat="34.9707099" lon="32.9030318"><ele>983.5</ele><time>2015-04-29T15:04:47.0000000+00:00</time></trkpt><trkpt lat="34.9706546" lon="32.9030312"><ele>983.1</ele><time>2015-04-29T15:04:48.0000000+00:00</time></trkpt><trkpt lat="34.9706076" lon="32.9030303"><ele>982.4</ele><time>2015-04-29T15:04:49.0000000+00:00</time></trkpt><trkpt lat="34.9705314" lon="32.9029964"><ele>981.9</ele><time>2015-04-29T15:04:51.0000000+00:00</time></trkpt><trkpt lat="34.9704934" lon="32.9029419"><ele>981.8</ele><time>2015-04-29T15:04:52.0000000+00:00</time></trkpt><trkpt lat="34.9704703" lon="32.9028825"><ele>981.3</ele><time>2015-04-29T15:04:53.0000000+00:00</time></trkpt><trkpt lat="34.9704671" lon="32.9028233"><ele>981.5</ele><time>2015-04-29T15:04:54.0000000+00:00</time></trkpt><trkpt lat="34.970474" lon="32.9027649"><ele>981.7</ele><time>2015-04-29T15:04:55.0000000+00:00</time></trkpt><trkpt lat="34.9704854" lon="32.9027077"><ele>981.7</ele><time>2015-04-29T15:04:56.0000000+00:00</time></trkpt><trkpt lat="34.9705186" lon="32.9026078"><ele>981.3</ele><time>2015-04-29T15:04:58.0000000+00:00</time></trkpt><trkpt lat="34.9705457" lon="32.9025207"><ele>978.9</ele><time>2015-04-29T15:05:00.0000000+00:00</time></trkpt><trkpt lat="34.9705743" lon="32.9024751"><ele>978.3</ele><time>2015-04-29T15:05:01.0000000+00:00</time></trkpt><trkpt lat="34.9706122" lon="32.9023848"><ele>977.9</ele><time>2015-04-29T15:05:03.0000000+00:00</time></trkpt><trkpt lat="34.970615" lon="32.9022781"><ele>978.3</ele><time>2015-04-29T15:05:05.0000000+00:00</time></trkpt><trkpt lat="34.9705962" lon="32.9021747"><ele>979.1</ele><time>2015-04-29T15:05:07.0000000+00:00</time></trkpt><trkpt lat="34.9705567" lon="32.9021424"><ele>979.0</ele><time>2015-04-29T15:05:08.0000000+00:00</time></trkpt><trkpt lat="34.9704927" lon="32.9020949"><ele>978.6</ele><time>2015-04-29T15:05:10.0000000+00:00</time></trkpt><trkpt lat="34.9704514" lon="32.9020417"><ele>977.7</ele><time>2015-04-29T15:05:11.0000000+00:00</time></trkpt><trkpt lat="34.9704" lon="32.9020033"><ele>977.2</ele><time>2015-04-29T15:05:12.0000000+00:00</time></trkpt><trkpt lat="34.9703583" lon="32.9019687"><ele>977.0</ele><time>2015-04-29T15:05:13.0000000+00:00</time></trkpt><trkpt lat="34.9703321" lon="32.9019201"><ele>977.9</ele><time>2015-04-29T15:05:14.0000000+00:00</time></trkpt><trkpt lat="34.9702982" lon="32.9018661"><ele>978.3</ele><time>2015-04-29T15:05:15.0000000+00:00</time></trkpt><trkpt lat="34.9703022" lon="32.9017984"><ele>978.5</ele><time>2015-04-29T15:05:16.0000000+00:00</time></trkpt><trkpt lat="34.9703184" lon="32.9016859"><ele>978.2</ele><time>2015-04-29T15:05:18.0000000+00:00</time></trkpt><trkpt lat="34.9703573" lon="32.9016271"><ele>977.5</ele><time>2015-04-29T15:05:19.0000000+00:00</time></trkpt><trkpt lat="34.9703938" lon="32.901579"><ele>977.6</ele><time>2015-04-29T15:05:20.0000000+00:00</time></trkpt><trkpt lat="34.9704577" lon="32.901553"><ele>978.2</ele><time>2015-04-29T15:05:21.0000000+00:00</time></trkpt><trkpt lat="34.9705107" lon="32.9015524"><ele>978.0</ele><time>2015-04-29T15:05:22.0000000+00:00</time></trkpt><trkpt lat="34.970561" lon="32.9015476"><ele>978.9</ele><time>2015-04-29T15:05:23.0000000+00:00</time></trkpt><trkpt lat="34.9706589" lon="32.9015357"><ele>978.8</ele><time>2015-04-29T15:05:25.0000000+00:00</time></trkpt><trkpt lat="34.9707122" lon="32.9015252"><ele>979.3</ele><time>2015-04-29T15:05:26.0000000+00:00</time></trkpt><trkpt lat="34.9707776" lon="32.901514"><ele>978.5</ele><time>2015-04-29T15:05:27.0000000+00:00</time></trkpt><trkpt lat="34.9708302" lon="32.901496"><ele>978.1</ele><time>2015-04-29T15:05:28.0000000+00:00</time></trkpt><trkpt lat="34.9708826" lon="32.9014947"><ele>978.0</ele><time>2015-04-29T15:05:29.0000000+00:00</time></trkpt><trkpt lat="34.9709336" lon="32.9014754"><ele>977.9</ele><time>2015-04-29T15:05:30.0000000+00:00</time></trkpt><trkpt lat="34.9709961" lon="32.9014716"><ele>977.3</ele><time>2015-04-29T15:05:31.0000000+00:00</time></trkpt><trkpt lat="34.9710588" lon="32.9014752"><ele>976.5</ele><time>2015-04-29T15:05:32.0000000+00:00</time></trkpt><trkpt lat="34.97112" lon="32.9014962"><ele>976.2</ele><time>2015-04-29T15:05:33.0000000+00:00</time></trkpt><trkpt lat="34.971167" lon="32.901534"><ele>976.0</ele><time>2015-04-29T15:05:34.0000000+00:00</time></trkpt><trkpt lat="34.9712148" lon="32.9015622"><ele>975.9</ele><time>2015-04-29T15:05:35.0000000+00:00</time></trkpt><trkpt lat="34.971271" lon="32.9015823"><ele>976.3</ele><time>2015-04-29T15:05:36.0000000+00:00</time></trkpt><trkpt lat="34.9713264" lon="32.9015948"><ele>976.5</ele><time>2015-04-29T15:05:37.0000000+00:00</time></trkpt><trkpt lat="34.9713739" lon="32.9016049"><ele>976.7</ele><time>2015-04-29T15:05:38.0000000+00:00</time></trkpt><trkpt lat="34.9714185" lon="32.9015937"><ele>976.2</ele><time>2015-04-29T15:05:39.0000000+00:00</time></trkpt><trkpt lat="34.9714574" lon="32.9015587"><ele>975.5</ele><time>2015-04-29T15:05:40.0000000+00:00</time></trkpt><trkpt lat="34.971506" lon="32.9014683"><ele>974.2</ele><time>2015-04-29T15:05:42.0000000+00:00</time></trkpt><trkpt lat="34.9715321" lon="32.9013689"><ele>973.4</ele><time>2015-04-29T15:05:44.0000000+00:00</time></trkpt><trkpt lat="34.9715234" lon="32.9013091"><ele>973.1</ele><time>2015-04-29T15:05:45.0000000+00:00</time></trkpt><trkpt lat="34.9714877" lon="32.9012088"><ele>972.1</ele><time>2015-04-29T15:05:47.0000000+00:00</time></trkpt><trkpt lat="34.9714587" lon="32.9011644"><ele>971.9</ele><time>2015-04-29T15:05:48.0000000+00:00</time></trkpt><trkpt lat="34.9714232" lon="32.901124"><ele>972.3</ele><time>2015-04-29T15:05:49.0000000+00:00</time></trkpt><trkpt lat="34.971384" lon="32.9010841"><ele>972.1</ele><time>2015-04-29T15:05:50.0000000+00:00</time></trkpt><trkpt lat="34.9713414" lon="32.9010443"><ele>971.9</ele><time>2015-04-29T15:05:51.0000000+00:00</time></trkpt><trkpt lat="34.9713003" lon="32.9009898"><ele>971.8</ele><time>2015-04-29T15:05:52.0000000+00:00</time></trkpt><trkpt lat="34.9712621" lon="32.9009378"><ele>972.3</ele><time>2015-04-29T15:05:53.0000000+00:00</time></trkpt><trkpt lat="34.9712244" lon="32.9008948"><ele>972.5</ele><time>2015-04-29T15:05:54.0000000+00:00</time></trkpt><trkpt lat="34.9712015" lon="32.9008445"><ele>972.6</ele><time>2015-04-29T15:05:55.0000000+00:00</time></trkpt><trkpt lat="34.9712025" lon="32.9007316"><ele>972.0</ele><time>2015-04-29T15:05:57.0000000+00:00</time></trkpt><trkpt lat="34.9712158" lon="32.900674"><ele>971.9</ele><time>2015-04-29T15:05:58.0000000+00:00</time></trkpt><trkpt lat="34.9712336" lon="32.9006209"><ele>971.3</ele><time>2015-04-29T15:05:59.0000000+00:00</time></trkpt><trkpt lat="34.9712509" lon="32.9005678"><ele>971.0</ele><time>2015-04-29T15:06:00.0000000+00:00</time></trkpt><trkpt lat="34.9712783" lon="32.900457"><ele>971.1</ele><time>2015-04-29T15:06:02.0000000+00:00</time></trkpt><trkpt lat="34.9713046" lon="32.9003982"><ele>970.9</ele><time>2015-04-29T15:06:03.0000000+00:00</time></trkpt><trkpt lat="34.9713354" lon="32.9003474"><ele>970.3</ele><time>2015-04-29T15:06:04.0000000+00:00</time></trkpt><trkpt lat="34.971381" lon="32.9003131"><ele>969.6</ele><time>2015-04-29T15:06:05.0000000+00:00</time></trkpt><trkpt lat="34.9714244" lon="32.9002725"><ele>969.7</ele><time>2015-04-29T15:06:06.0000000+00:00</time></trkpt><trkpt lat="34.9714676" lon="32.9002375"><ele>969.2</ele><time>2015-04-29T15:06:07.0000000+00:00</time></trkpt><trkpt lat="34.9715288" lon="32.9001938"><ele>968.9</ele><time>2015-04-29T15:06:09.0000000+00:00</time></trkpt><trkpt lat="34.9715678" lon="32.9001547"><ele>968.0</ele><time>2015-04-29T15:06:12.0000000+00:00</time></trkpt><trkpt lat="34.9715914" lon="32.9001008"><ele>968.5</ele><time>2015-04-29T15:06:16.0000000+00:00</time></trkpt><trkpt lat="34.9715668" lon="32.9000474"><ele>970.0</ele><time>2015-04-29T15:07:10.0000000+00:00</time></trkpt><trkpt lat="34.9715276" lon="32.9000146"><ele>971.3</ele><time>2015-04-29T15:07:12.0000000+00:00</time></trkpt><trkpt lat="34.9714783" lon="32.8999717"><ele>970.4</ele><time>2015-04-29T15:07:14.0000000+00:00</time></trkpt><trkpt lat="34.9714285" lon="32.8999328"><ele>969.9</ele><time>2015-04-29T15:07:16.0000000+00:00</time></trkpt><trkpt lat="34.9713765" lon="32.8999085"><ele>968.6</ele><time>2015-04-29T15:07:18.0000000+00:00</time></trkpt><trkpt lat="34.9713231" lon="32.8998932"><ele>968.5</ele><time>2015-04-29T15:07:20.0000000+00:00</time></trkpt><trkpt lat="34.971272" lon="32.8998809"><ele>968.2</ele><time>2015-04-29T15:07:22.0000000+00:00</time></trkpt><trkpt lat="34.97122" lon="32.8998642"><ele>968.4</ele><time>2015-04-29T15:07:24.0000000+00:00</time></trkpt><trkpt lat="34.9711692" lon="32.8998412"><ele>967.9</ele><time>2015-04-29T15:07:26.0000000+00:00</time></trkpt><trkpt lat="34.9711209" lon="32.8998136"><ele>967.1</ele><time>2015-04-29T15:07:28.0000000+00:00</time></trkpt><trkpt lat="34.9710783" lon="32.8997542"><ele>968.1</ele><time>2015-04-29T15:07:30.0000000+00:00</time></trkpt><trkpt lat="34.9710683" lon="32.8996639"><ele>968.3</ele><time>2015-04-29T15:07:32.0000000+00:00</time></trkpt><trkpt lat="34.9710852" lon="32.8995641"><ele>967.9</ele><time>2015-04-29T15:07:34.0000000+00:00</time></trkpt><trkpt lat="34.9711106" lon="32.8994576"><ele>967.3</ele><time>2015-04-29T15:07:36.0000000+00:00</time></trkpt><trkpt lat="34.9711254" lon="32.8994048"><ele>966.0</ele><time>2015-04-29T15:07:37.0000000+00:00</time></trkpt><trkpt lat="34.9711529" lon="32.899358"><ele>966.4</ele><time>2015-04-29T15:07:38.0000000+00:00</time></trkpt><trkpt lat="34.9712677" lon="32.8992579"><ele>967.4</ele><time>2015-04-29T15:07:40.0000000+00:00</time></trkpt><trkpt lat="34.9713536" lon="32.8992025"><ele>967.7</ele><time>2015-04-29T15:07:42.0000000+00:00</time></trkpt><trkpt lat="34.9714294" lon="32.899224"><ele>969.0</ele><time>2015-04-29T15:07:44.0000000+00:00</time></trkpt><trkpt lat="34.9714808" lon="32.8992346"><ele>968.4</ele><time>2015-04-29T15:07:45.0000000+00:00</time></trkpt><trkpt lat="34.9715239" lon="32.8992536"><ele>968.1</ele><time>2015-04-29T15:07:46.0000000+00:00</time></trkpt><trkpt lat="34.9716044" lon="32.899233"><ele>967.3</ele><time>2015-04-29T15:07:48.0000000+00:00</time></trkpt><trkpt lat="34.9716848" lon="32.8992138"><ele>967.7</ele><time>2015-04-29T15:07:50.0000000+00:00</time></trkpt><trkpt lat="34.9717542" lon="32.899171"><ele>968.5</ele><time>2015-04-29T15:07:52.0000000+00:00</time></trkpt><trkpt lat="34.9718267" lon="32.8991095"><ele>967.9</ele><time>2015-04-29T15:07:54.0000000+00:00</time></trkpt><trkpt lat="34.9718958" lon="32.899058"><ele>968.1</ele><time>2015-04-29T15:07:56.0000000+00:00</time></trkpt><trkpt lat="34.9719615" lon="32.8990045"><ele>966.3</ele><time>2015-04-29T15:07:58.0000000+00:00</time></trkpt><trkpt lat="34.972022" lon="32.8989412"><ele>965.4</ele><time>2015-04-29T15:08:00.0000000+00:00</time></trkpt><trkpt lat="34.9720709" lon="32.8988631"><ele>965.4</ele><time>2015-04-29T15:08:02.0000000+00:00</time></trkpt><trkpt lat="34.9721087" lon="32.8987785"><ele>964.9</ele><time>2015-04-29T15:08:04.0000000+00:00</time></trkpt><trkpt lat="34.9721299" lon="32.8987078"><ele>964.1</ele><time>2015-04-29T15:08:06.0000000+00:00</time></trkpt><trkpt lat="34.9721489" lon="32.8986541"><ele>961.3</ele><time>2015-04-29T15:08:31.0000000+00:00</time></trkpt><trkpt lat="34.9721478" lon="32.8985681"><ele>961.2</ele><time>2015-04-29T15:08:34.0000000+00:00</time></trkpt><trkpt lat="34.9721338" lon="32.8984884"><ele>960.1</ele><time>2015-04-29T15:08:36.0000000+00:00</time></trkpt><trkpt lat="34.9720943" lon="32.898401"><ele>958.9</ele><time>2015-04-29T15:08:38.0000000+00:00</time></trkpt><trkpt lat="34.9720468" lon="32.8983211"><ele>958.3</ele><time>2015-04-29T15:08:39.0000000+00:00</time></trkpt><trkpt lat="34.9720013" lon="32.8982347"><ele>957.2</ele><time>2015-04-29T15:08:41.0000000+00:00</time></trkpt><trkpt lat="34.971984" lon="32.8981802"><ele>958.0</ele><time>2015-04-29T15:08:42.0000000+00:00</time></trkpt><trkpt lat="34.9719521" lon="32.8980765"><ele>957.8</ele><time>2015-04-29T15:08:44.0000000+00:00</time></trkpt><trkpt lat="34.9718988" lon="32.8980012"><ele>958.5</ele><time>2015-04-29T15:08:46.0000000+00:00</time></trkpt><trkpt lat="34.971871" lon="32.89791"><ele>959.5</ele><time>2015-04-29T15:08:48.0000000+00:00</time></trkpt><trkpt lat="34.9718751" lon="32.8978123"><ele>958.2</ele><time>2015-04-29T15:08:50.0000000+00:00</time></trkpt><trkpt lat="34.9719275" lon="32.8977921"><ele>959.0</ele><time>2015-04-29T15:08:51.0000000+00:00</time></trkpt><trkpt lat="34.9719958" lon="32.8977512"><ele>959.8</ele><time>2015-04-29T15:08:53.0000000+00:00</time></trkpt><trkpt lat="34.9720585" lon="32.8977198"><ele>959.3</ele><time>2015-04-29T15:08:55.0000000+00:00</time></trkpt><trkpt lat="34.9721208" lon="32.8976724"><ele>961.1</ele><time>2015-04-29T15:08:57.0000000+00:00</time></trkpt><trkpt lat="34.9721937" lon="32.8976376"><ele>960.6</ele><time>2015-04-29T15:08:59.0000000+00:00</time></trkpt><trkpt lat="34.9722558" lon="32.8976114"><ele>960.2</ele><time>2015-04-29T15:09:00.0000000+00:00</time></trkpt><trkpt lat="34.972299" lon="32.8975893"><ele>960.0</ele><time>2015-04-29T15:09:01.0000000+00:00</time></trkpt><trkpt lat="34.972361" lon="32.8975508"><ele>960.1</ele><time>2015-04-29T15:09:03.0000000+00:00</time></trkpt><trkpt lat="34.9724029" lon="32.8975291"><ele>959.4</ele><time>2015-04-29T15:09:04.0000000+00:00</time></trkpt><trkpt lat="34.9724803" lon="32.8975229"><ele>958.2</ele><time>2015-04-29T15:09:06.0000000+00:00</time></trkpt><trkpt lat="34.9725618" lon="32.8975009"><ele>956.6</ele><time>2015-04-29T15:09:08.0000000+00:00</time></trkpt><trkpt lat="34.9726453" lon="32.8974643"><ele>956.0</ele><time>2015-04-29T15:09:10.0000000+00:00</time></trkpt><trkpt lat="34.9726856" lon="32.8974342"><ele>955.4</ele><time>2015-04-29T15:09:11.0000000+00:00</time></trkpt><trkpt lat="34.9727212" lon="32.8973931"><ele>955.1</ele><time>2015-04-29T15:09:12.0000000+00:00</time></trkpt><trkpt lat="34.9727541" lon="32.8973379"><ele>954.4</ele><time>2015-04-29T15:09:13.0000000+00:00</time></trkpt><trkpt lat="34.972787" lon="32.8972849"><ele>954.1</ele><time>2015-04-29T15:09:14.0000000+00:00</time></trkpt><trkpt lat="34.9728182" lon="32.8972282"><ele>953.4</ele><time>2015-04-29T15:09:15.0000000+00:00</time></trkpt><trkpt lat="34.9728501" lon="32.897164"><ele>952.6</ele><time>2015-04-29T15:09:16.0000000+00:00</time></trkpt><trkpt lat="34.9728935" lon="32.8971083"><ele>952.2</ele><time>2015-04-29T15:09:17.0000000+00:00</time></trkpt><trkpt lat="34.9729334" lon="32.8970532"><ele>952.0</ele><time>2015-04-29T15:09:18.0000000+00:00</time></trkpt><trkpt lat="34.9729724" lon="32.8970107"><ele>952.4</ele><time>2015-04-29T15:09:19.0000000+00:00</time></trkpt><trkpt lat="34.9730208" lon="32.896963"><ele>952.6</ele><time>2015-04-29T15:09:20.0000000+00:00</time></trkpt><trkpt lat="34.9730542" lon="32.8969106"><ele>953.2</ele><time>2015-04-29T15:09:21.0000000+00:00</time></trkpt><trkpt lat="34.9730831" lon="32.8968546"><ele>953.5</ele><time>2015-04-29T15:09:22.0000000+00:00</time></trkpt><trkpt lat="34.9731032" lon="32.8967508"><ele>953.7</ele><time>2015-04-29T15:09:24.0000000+00:00</time></trkpt><trkpt lat="34.9731042" lon="32.8966576"><ele>953.7</ele><time>2015-04-29T15:09:26.0000000+00:00</time></trkpt><trkpt lat="34.9730994" lon="32.8965564"><ele>954.5</ele><time>2015-04-29T15:09:28.0000000+00:00</time></trkpt><trkpt lat="34.9730786" lon="32.8964789"><ele>954.7</ele><time>2015-04-29T15:09:30.0000000+00:00</time></trkpt><trkpt lat="34.9730404" lon="32.8964209"><ele>954.2</ele><time>2015-04-29T15:09:32.0000000+00:00</time></trkpt><trkpt lat="34.9729826" lon="32.8963589"><ele>955.4</ele><time>2015-04-29T15:09:34.0000000+00:00</time></trkpt><trkpt lat="34.9729228" lon="32.8963058"><ele>955.7</ele><time>2015-04-29T15:09:36.0000000+00:00</time></trkpt><trkpt lat="34.972863" lon="32.8962402"><ele>957.0</ele><time>2015-04-29T15:09:38.0000000+00:00</time></trkpt><trkpt lat="34.9728322" lon="32.8961935"><ele>957.9</ele><time>2015-04-29T15:09:39.0000000+00:00</time></trkpt><trkpt lat="34.9728042" lon="32.896124"><ele>958.8</ele><time>2015-04-29T15:09:40.0000000+00:00</time></trkpt><trkpt lat="34.9727709" lon="32.896025"><ele>959.5</ele><time>2015-04-29T15:09:42.0000000+00:00</time></trkpt><trkpt lat="34.9727738" lon="32.8959362"><ele>959.0</ele><time>2015-04-29T15:09:44.0000000+00:00</time></trkpt><trkpt lat="34.9727882" lon="32.895856"><ele>958.8</ele><time>2015-04-29T15:09:46.0000000+00:00</time></trkpt><trkpt lat="34.9728026" lon="32.8957827"><ele>958.3</ele><time>2015-04-29T15:09:48.0000000+00:00</time></trkpt><trkpt lat="34.9728242" lon="32.8957127"><ele>958.6</ele><time>2015-04-29T15:09:50.0000000+00:00</time></trkpt><trkpt lat="34.9728406" lon="32.8956576"><ele>958.0</ele><time>2015-04-29T15:09:52.0000000+00:00</time></trkpt><trkpt lat="34.9728504" lon="32.8955905"><ele>958.7</ele><time>2015-04-29T15:09:55.0000000+00:00</time></trkpt><trkpt lat="34.9728629" lon="32.8955211"><ele>958.8</ele><time>2015-04-29T15:09:58.0000000+00:00</time></trkpt><trkpt lat="34.9728746" lon="32.8954474"><ele>959.3</ele><time>2015-04-29T15:10:01.0000000+00:00</time></trkpt><trkpt lat="34.9728871" lon="32.8953678"><ele>959.7</ele><time>2015-04-29T15:10:04.0000000+00:00</time></trkpt><trkpt lat="34.9728884" lon="32.8953124"><ele>959.7</ele><time>2015-04-29T15:10:06.0000000+00:00</time></trkpt><trkpt lat="34.9728977" lon="32.8952555"><ele>959.5</ele><time>2015-04-29T15:10:08.0000000+00:00</time></trkpt><trkpt lat="34.9729159" lon="32.895197"><ele>959.7</ele><time>2015-04-29T15:10:10.0000000+00:00</time></trkpt><trkpt lat="34.9729469" lon="32.895136"><ele>959.0</ele><time>2015-04-29T15:10:12.0000000+00:00</time></trkpt><trkpt lat="34.9729879" lon="32.8950927"><ele>958.1</ele><time>2015-04-29T15:10:14.0000000+00:00</time></trkpt><trkpt lat="34.9730339" lon="32.8950538"><ele>957.8</ele><time>2015-04-29T15:10:16.0000000+00:00</time></trkpt><trkpt lat="34.9730833" lon="32.895019"><ele>959.0</ele><time>2015-04-29T15:10:18.0000000+00:00</time></trkpt><trkpt lat="34.973137" lon="32.8949873"><ele>959.6</ele><time>2015-04-29T15:10:20.0000000+00:00</time></trkpt><trkpt lat="34.973185" lon="32.8949516"><ele>959.7</ele><time>2015-04-29T15:10:22.0000000+00:00</time></trkpt><trkpt lat="34.9732294" lon="32.8949122"><ele>959.8</ele><time>2015-04-29T15:10:24.0000000+00:00</time></trkpt><trkpt lat="34.9732572" lon="32.8948599"><ele>959.8</ele><time>2015-04-29T15:10:26.0000000+00:00</time></trkpt><trkpt lat="34.973257" lon="32.894797"><ele>960.3</ele><time>2015-04-29T15:10:28.0000000+00:00</time></trkpt><trkpt lat="34.973238" lon="32.8947228"><ele>960.7</ele><time>2015-04-29T15:10:31.0000000+00:00</time></trkpt><trkpt lat="34.9732159" lon="32.8946742"><ele>960.7</ele><time>2015-04-29T15:10:33.0000000+00:00</time></trkpt><trkpt lat="34.9731926" lon="32.8946226"><ele>961.5</ele><time>2015-04-29T15:10:35.0000000+00:00</time></trkpt><trkpt lat="34.9731696" lon="32.8945634"><ele>963.0</ele><time>2015-04-29T15:10:37.0000000+00:00</time></trkpt><trkpt lat="34.9731488" lon="32.8945024"><ele>964.8</ele><time>2015-04-29T15:10:39.0000000+00:00</time></trkpt><trkpt lat="34.9731267" lon="32.8944435"><ele>966.0</ele><time>2015-04-29T15:10:41.0000000+00:00</time></trkpt><trkpt lat="34.9731079" lon="32.8943821"><ele>965.8</ele><time>2015-04-29T15:10:45.0000000+00:00</time></trkpt><trkpt lat="34.9731093" lon="32.8943077"><ele>964.9</ele><time>2015-04-29T15:10:48.0000000+00:00</time></trkpt><trkpt lat="34.9731215" lon="32.8942385"><ele>964.3</ele><time>2015-04-29T15:10:50.0000000+00:00</time></trkpt><trkpt lat="34.9731433" lon="32.8941732"><ele>964.1</ele><time>2015-04-29T15:10:52.0000000+00:00</time></trkpt><trkpt lat="34.9731742" lon="32.8941166"><ele>963.9</ele><time>2015-04-29T15:10:54.0000000+00:00</time></trkpt><trkpt lat="34.973206" lon="32.8940638"><ele>963.8</ele><time>2015-04-29T15:10:56.0000000+00:00</time></trkpt><trkpt lat="34.9732375" lon="32.8940091"><ele>963.5</ele><time>2015-04-29T15:10:58.0000000+00:00</time></trkpt><trkpt lat="34.9732699" lon="32.8939529"><ele>963.5</ele><time>2015-04-29T15:11:00.0000000+00:00</time></trkpt><trkpt lat="34.9733009" lon="32.8938954"><ele>963.7</ele><time>2015-04-29T15:11:02.0000000+00:00</time></trkpt><trkpt lat="34.9733309" lon="32.8938394"><ele>963.7</ele><time>2015-04-29T15:11:04.0000000+00:00</time></trkpt><trkpt lat="34.9733579" lon="32.8937818"><ele>963.8</ele><time>2015-04-29T15:11:06.0000000+00:00</time></trkpt><trkpt lat="34.973367" lon="32.8937208"><ele>964.5</ele><time>2015-04-29T15:11:08.0000000+00:00</time></trkpt><trkpt lat="34.9733386" lon="32.8936698"><ele>963.8</ele><time>2015-04-29T15:11:12.0000000+00:00</time></trkpt><trkpt lat="34.973289" lon="32.8936823"><ele>963.3</ele><time>2015-04-29T15:11:15.0000000+00:00</time></trkpt><trkpt lat="34.9732339" lon="32.8937024"><ele>962.8</ele><time>2015-04-29T15:11:18.0000000+00:00</time></trkpt><trkpt lat="34.9731916" lon="32.8937286"><ele>962.5</ele><time>2015-04-29T15:11:54.0000000+00:00</time></trkpt><trkpt lat="34.9731478" lon="32.8937515"><ele>962.9</ele><time>2015-04-29T15:11:57.0000000+00:00</time></trkpt><trkpt lat="34.9730882" lon="32.8937678"><ele>961.2</ele><time>2015-04-29T15:12:00.0000000+00:00</time></trkpt><trkpt lat="34.9730346" lon="32.8937879"><ele>961.9</ele><time>2015-04-29T15:12:26.0000000+00:00</time></trkpt><trkpt lat="34.9729767" lon="32.8938203"><ele>961.3</ele><time>2015-04-29T15:12:28.0000000+00:00</time></trkpt><trkpt lat="34.9729211" lon="32.8938642"><ele>960.9</ele><time>2015-04-29T15:12:30.0000000+00:00</time></trkpt><trkpt lat="34.9728679" lon="32.89391"><ele>960.3</ele><time>2015-04-29T15:12:32.0000000+00:00</time></trkpt><trkpt lat="34.9728134" lon="32.8939474"><ele>959.1</ele><time>2015-04-29T15:12:34.0000000+00:00</time></trkpt><trkpt lat="34.972748" lon="32.8939653"><ele>958.9</ele><time>2015-04-29T15:12:36.0000000+00:00</time></trkpt><trkpt lat="34.9726774" lon="32.8939743"><ele>959.5</ele><time>2015-04-29T15:12:38.0000000+00:00</time></trkpt><trkpt lat="34.9726036" lon="32.8939771"><ele>959.7</ele><time>2015-04-29T15:12:40.0000000+00:00</time></trkpt><trkpt lat="34.9725293" lon="32.8939677"><ele>959.3</ele><time>2015-04-29T15:12:42.0000000+00:00</time></trkpt><trkpt lat="34.9724482" lon="32.8939567"><ele>958.1</ele><time>2015-04-29T15:12:44.0000000+00:00</time></trkpt><trkpt lat="34.9723209" lon="32.8939341"><ele>957.9</ele><time>2015-04-29T15:12:46.0000000+00:00</time></trkpt><trkpt lat="34.9722347" lon="32.8939326"><ele>957.0</ele><time>2015-04-29T15:12:48.0000000+00:00</time></trkpt><trkpt lat="34.9721653" lon="32.8939475"><ele>956.6</ele><time>2015-04-29T15:12:50.0000000+00:00</time></trkpt><trkpt lat="34.9721107" lon="32.8939849"><ele>956.0</ele><time>2015-04-29T15:12:52.0000000+00:00</time></trkpt><trkpt lat="34.9720496" lon="32.8940201"><ele>955.3</ele><time>2015-04-29T15:12:54.0000000+00:00</time></trkpt><trkpt lat="34.9719973" lon="32.8940941"><ele>953.9</ele><time>2015-04-29T15:12:56.0000000+00:00</time></trkpt><trkpt lat="34.9719367" lon="32.8941603"><ele>951.0</ele><time>2015-04-29T15:12:58.0000000+00:00</time></trkpt><trkpt lat="34.9718763" lon="32.8942168"><ele>949.1</ele><time>2015-04-29T15:13:00.0000000+00:00</time></trkpt><trkpt lat="34.9718127" lon="32.8942522"><ele>948.8</ele><time>2015-04-29T15:13:02.0000000+00:00</time></trkpt><trkpt lat="34.9717472" lon="32.8942796"><ele>949.5</ele><time>2015-04-29T15:13:04.0000000+00:00</time></trkpt><trkpt lat="34.9716845" lon="32.8942873"><ele>950.5</ele><time>2015-04-29T15:13:06.0000000+00:00</time></trkpt><trkpt lat="34.9716192" lon="32.8942954"><ele>950.9</ele><time>2015-04-29T15:13:08.0000000+00:00</time></trkpt><trkpt lat="34.9715516" lon="32.8943235"><ele>949.8</ele><time>2015-04-29T15:13:10.0000000+00:00</time></trkpt><trkpt lat="34.9714839" lon="32.894363"><ele>948.3</ele><time>2015-04-29T15:13:12.0000000+00:00</time></trkpt><trkpt lat="34.9714226" lon="32.8944092"><ele>946.6</ele><time>2015-04-29T15:13:14.0000000+00:00</time></trkpt><trkpt lat="34.9713515" lon="32.8944414"><ele>945.0</ele><time>2015-04-29T15:13:16.0000000+00:00</time></trkpt><trkpt lat="34.9712812" lon="32.8944504"><ele>944.1</ele><time>2015-04-29T15:13:18.0000000+00:00</time></trkpt><trkpt lat="34.9712394" lon="32.8943786"><ele>942.6</ele><time>2015-04-29T15:13:20.0000000+00:00</time></trkpt><trkpt lat="34.9712231" lon="32.894289"><ele>941.0</ele><time>2015-04-29T15:13:22.0000000+00:00</time></trkpt><trkpt lat="34.971244" lon="32.8942052"><ele>939.4</ele><time>2015-04-29T15:13:23.0000000+00:00</time></trkpt><trkpt lat="34.9712468" lon="32.8941471"><ele>938.1</ele><time>2015-04-29T15:13:24.0000000+00:00</time></trkpt><trkpt lat="34.9712682" lon="32.8940794"><ele>936.9</ele><time>2015-04-29T15:13:25.0000000+00:00</time></trkpt><trkpt lat="34.9712767" lon="32.8940154"><ele>936.3</ele><time>2015-04-29T15:13:26.0000000+00:00</time></trkpt><trkpt lat="34.9712739" lon="32.8939465"><ele>935.1</ele><time>2015-04-29T15:13:27.0000000+00:00</time></trkpt><trkpt lat="34.9712738" lon="32.8938805"><ele>934.9</ele><time>2015-04-29T15:13:28.0000000+00:00</time></trkpt><trkpt lat="34.9712735" lon="32.8938203"><ele>934.8</ele><time>2015-04-29T15:13:29.0000000+00:00</time></trkpt><trkpt lat="34.9712636" lon="32.8937358"><ele>933.5</ele><time>2015-04-29T15:13:31.0000000+00:00</time></trkpt><trkpt lat="34.9712246" lon="32.8936676"><ele>933.0</ele><time>2015-04-29T15:13:33.0000000+00:00</time></trkpt><trkpt lat="34.9711827" lon="32.8936109"><ele>932.1</ele><time>2015-04-29T15:13:35.0000000+00:00</time></trkpt><trkpt lat="34.971165" lon="32.8935472"><ele>931.1</ele><time>2015-04-29T15:13:37.0000000+00:00</time></trkpt><trkpt lat="34.9712069" lon="32.8934974"><ele>929.1</ele><time>2015-04-29T15:13:41.0000000+00:00</time></trkpt><trkpt lat="34.9712665" lon="32.8935377"><ele>928.3</ele><time>2015-04-29T15:13:44.0000000+00:00</time></trkpt><trkpt lat="34.9713036" lon="32.89358"><ele>927.2</ele><time>2015-04-29T15:13:46.0000000+00:00</time></trkpt><trkpt lat="34.9713438" lon="32.8936278"><ele>926.9</ele><time>2015-04-29T15:13:48.0000000+00:00</time></trkpt><trkpt lat="34.9713734" lon="32.8936818"><ele>926.0</ele><time>2015-04-29T15:13:50.0000000+00:00</time></trkpt><trkpt lat="34.971394" lon="32.8937385"><ele>925.6</ele><time>2015-04-29T15:13:52.0000000+00:00</time></trkpt><trkpt lat="34.9714356" lon="32.8937803"><ele>927.2</ele><time>2015-04-29T15:13:54.0000000+00:00</time></trkpt><trkpt lat="34.9715053" lon="32.8937897"><ele>928.1</ele><time>2015-04-29T15:13:56.0000000+00:00</time></trkpt><trkpt lat="34.9715766" lon="32.8937366"><ele>928.6</ele><time>2015-04-29T15:13:58.0000000+00:00</time></trkpt><trkpt lat="34.9716227" lon="32.8936486"><ele>929.2</ele><time>2015-04-29T15:13:59.0000000+00:00</time></trkpt><trkpt lat="34.9716522" lon="32.8936066"><ele>929.0</ele><time>2015-04-29T15:14:00.0000000+00:00</time></trkpt><trkpt lat="34.9716887" lon="32.8935553"><ele>928.9</ele><time>2015-04-29T15:14:01.0000000+00:00</time></trkpt><trkpt lat="34.9717282" lon="32.8935073"><ele>928.8</ele><time>2015-04-29T15:14:02.0000000+00:00</time></trkpt><trkpt lat="34.9717622" lon="32.893444"><ele>929.3</ele><time>2015-04-29T15:14:03.0000000+00:00</time></trkpt><trkpt lat="34.9717984" lon="32.8933916"><ele>929.5</ele><time>2015-04-29T15:14:04.0000000+00:00</time></trkpt><trkpt lat="34.9718436" lon="32.8933495"><ele>929.6</ele><time>2015-04-29T15:14:05.0000000+00:00</time></trkpt><trkpt lat="34.9718889" lon="32.8933089"><ele>929.2</ele><time>2015-04-29T15:14:06.0000000+00:00</time></trkpt><trkpt lat="34.9719392" lon="32.893276"><ele>929.0</ele><time>2015-04-29T15:14:07.0000000+00:00</time></trkpt><trkpt lat="34.9719989" lon="32.8932316"><ele>929.4</ele><time>2015-04-29T15:14:08.0000000+00:00</time></trkpt><trkpt lat="34.9720502" lon="32.893194"><ele>929.6</ele><time>2015-04-29T15:14:09.0000000+00:00</time></trkpt><trkpt lat="34.9721121" lon="32.8931591"><ele>929.7</ele><time>2015-04-29T15:14:11.0000000+00:00</time></trkpt><trkpt lat="34.9721673" lon="32.8931364"><ele>928.3</ele><time>2015-04-29T15:14:13.0000000+00:00</time></trkpt><trkpt lat="34.9722162" lon="32.8931278"><ele>926.9</ele><time>2015-04-29T15:14:15.0000000+00:00</time></trkpt><trkpt lat="34.9722862" lon="32.8931015"><ele>924.5</ele><time>2015-04-29T15:14:17.0000000+00:00</time></trkpt><trkpt lat="34.9723324" lon="32.8930946"><ele>923.2</ele><time>2015-04-29T15:14:18.0000000+00:00</time></trkpt><trkpt lat="34.9723804" lon="32.8930676"><ele>922.0</ele><time>2015-04-29T15:14:19.0000000+00:00</time></trkpt><trkpt lat="34.9724238" lon="32.8930339"><ele>920.4</ele><time>2015-04-29T15:14:20.0000000+00:00</time></trkpt><trkpt lat="34.9724613" lon="32.8930007"><ele>919.6</ele><time>2015-04-29T15:14:21.0000000+00:00</time></trkpt><trkpt lat="34.9724748" lon="32.8929444"><ele>918.7</ele><time>2015-04-29T15:14:22.0000000+00:00</time></trkpt><trkpt lat="34.9724754" lon="32.8928674"><ele>916.5</ele><time>2015-04-29T15:14:24.0000000+00:00</time></trkpt><trkpt lat="34.9724227" lon="32.8927966"><ele>915.9</ele><time>2015-04-29T15:14:26.0000000+00:00</time></trkpt><trkpt lat="34.9723626" lon="32.8927378"><ele>915.1</ele><time>2015-04-29T15:14:28.0000000+00:00</time></trkpt><trkpt lat="34.9722944" lon="32.8926791"><ele>914.1</ele><time>2015-04-29T15:14:30.0000000+00:00</time></trkpt><trkpt lat="34.9722317" lon="32.8926122"><ele>912.6</ele><time>2015-04-29T15:14:32.0000000+00:00</time></trkpt><trkpt lat="34.9721939" lon="32.8925546"><ele>910.0</ele><time>2015-04-29T15:14:34.0000000+00:00</time></trkpt><trkpt lat="34.9721752" lon="32.8924906"><ele>907.3</ele><time>2015-04-29T15:14:36.0000000+00:00</time></trkpt><trkpt lat="34.9721921" lon="32.8924056"><ele>905.4</ele><time>2015-04-29T15:14:38.0000000+00:00</time></trkpt><trkpt lat="34.9722527" lon="32.8923228"><ele>905.1</ele><time>2015-04-29T15:14:39.0000000+00:00</time></trkpt><trkpt lat="34.9722797" lon="32.8922509"><ele>904.4</ele><time>2015-04-29T15:14:40.0000000+00:00</time></trkpt><trkpt lat="34.9723037" lon="32.8921946"><ele>904.1</ele><time>2015-04-29T15:14:41.0000000+00:00</time></trkpt><trkpt lat="34.9723413" lon="32.8921532"><ele>903.4</ele><time>2015-04-29T15:14:42.0000000+00:00</time></trkpt><trkpt lat="34.972387" lon="32.8921199"><ele>903.6</ele><time>2015-04-29T15:14:43.0000000+00:00</time></trkpt><trkpt lat="34.9724297" lon="32.892093"><ele>903.7</ele><time>2015-04-29T15:14:44.0000000+00:00</time></trkpt><trkpt lat="34.9724783" lon="32.8920957"><ele>903.2</ele><time>2015-04-29T15:14:45.0000000+00:00</time></trkpt><trkpt lat="34.9725318" lon="32.8921275"><ele>902.5</ele><time>2015-04-29T15:14:46.0000000+00:00</time></trkpt><trkpt lat="34.972589" lon="32.8921343"><ele>902.1</ele><time>2015-04-29T15:14:47.0000000+00:00</time></trkpt><trkpt lat="34.9726344" lon="32.892143"><ele>901.9</ele><time>2015-04-29T15:14:48.0000000+00:00</time></trkpt><trkpt lat="34.9726847" lon="32.8921213"><ele>901.9</ele><time>2015-04-29T15:14:49.0000000+00:00</time></trkpt><trkpt lat="34.9727358" lon="32.8920699"><ele>900.8</ele><time>2015-04-29T15:14:50.0000000+00:00</time></trkpt><trkpt lat="34.9727809" lon="32.8920185"><ele>900.3</ele><time>2015-04-29T15:14:51.0000000+00:00</time></trkpt><trkpt lat="34.9728149" lon="32.8919716"><ele>900.0</ele><time>2015-04-29T15:14:52.0000000+00:00</time></trkpt><trkpt lat="34.9728508" lon="32.8919008"><ele>899.4</ele><time>2015-04-29T15:14:53.0000000+00:00</time></trkpt><trkpt lat="34.9728744" lon="32.8918428"><ele>899.1</ele><time>2015-04-29T15:14:54.0000000+00:00</time></trkpt><trkpt lat="34.9729084" lon="32.8917762"><ele>898.9</ele><time>2015-04-29T15:14:55.0000000+00:00</time></trkpt><trkpt lat="34.9729274" lon="32.8916991"><ele>898.3</ele><time>2015-04-29T15:14:56.0000000+00:00</time></trkpt><trkpt lat="34.972962" lon="32.8915887"><ele>896.4</ele><time>2015-04-29T15:14:58.0000000+00:00</time></trkpt><trkpt lat="34.9730013" lon="32.8915226"><ele>895.6</ele><time>2015-04-29T15:14:59.0000000+00:00</time></trkpt><trkpt lat="34.9730438" lon="32.8914617"><ele>894.7</ele><time>2015-04-29T15:15:00.0000000+00:00</time></trkpt><trkpt lat="34.9730927" lon="32.8914035"><ele>893.2</ele><time>2015-04-29T15:15:01.0000000+00:00</time></trkpt><trkpt lat="34.9731435" lon="32.8913535"><ele>892.5</ele><time>2015-04-29T15:15:02.0000000+00:00</time></trkpt><trkpt lat="34.9731802" lon="32.8912877"><ele>892.6</ele><time>2015-04-29T15:15:03.0000000+00:00</time></trkpt><trkpt lat="34.9732314" lon="32.8912102"><ele>892.7</ele><time>2015-04-29T15:15:04.0000000+00:00</time></trkpt><trkpt lat="34.9732657" lon="32.891134"><ele>893.2</ele><time>2015-04-29T15:15:05.0000000+00:00</time></trkpt><trkpt lat="34.9732974" lon="32.8910617"><ele>893.5</ele><time>2015-04-29T15:15:06.0000000+00:00</time></trkpt><trkpt lat="34.9733279" lon="32.8909979"><ele>893.6</ele><time>2015-04-29T15:15:07.0000000+00:00</time></trkpt><trkpt lat="34.9733756" lon="32.8908857"><ele>892.5</ele><time>2015-04-29T15:15:09.0000000+00:00</time></trkpt><trkpt lat="34.9733851" lon="32.8908314"><ele>891.6</ele><time>2015-04-29T15:15:10.0000000+00:00</time></trkpt><trkpt lat="34.9733986" lon="32.8907727"><ele>890.7</ele><time>2015-04-29T15:15:11.0000000+00:00</time></trkpt><trkpt lat="34.9734065" lon="32.8907053"><ele>889.2</ele><time>2015-04-29T15:15:12.0000000+00:00</time></trkpt><trkpt lat="34.9734253" lon="32.8906425"><ele>888.0</ele><time>2015-04-29T15:15:13.0000000+00:00</time></trkpt><trkpt lat="34.9734546" lon="32.8905661"><ele>887.4</ele><time>2015-04-29T15:15:14.0000000+00:00</time></trkpt><trkpt lat="34.9734838" lon="32.890499"><ele>887.1</ele><time>2015-04-29T15:15:15.0000000+00:00</time></trkpt><trkpt lat="34.9735058" lon="32.8904387"><ele>886.9</ele><time>2015-04-29T15:15:16.0000000+00:00</time></trkpt><trkpt lat="34.9735373" lon="32.8903618"><ele>887.3</ele><time>2015-04-29T15:15:17.0000000+00:00</time></trkpt><trkpt lat="34.9735726" lon="32.8902939"><ele>887.6</ele><time>2015-04-29T15:15:18.0000000+00:00</time></trkpt><trkpt lat="34.9736181" lon="32.8902349"><ele>886.7</ele><time>2015-04-29T15:15:19.0000000+00:00</time></trkpt><trkpt lat="34.9736523" lon="32.8901615"><ele>885.2</ele><time>2015-04-29T15:15:20.0000000+00:00</time></trkpt><trkpt lat="34.9736888" lon="32.8900957"><ele>884.0</ele><time>2015-04-29T15:15:21.0000000+00:00</time></trkpt><trkpt lat="34.9737256" lon="32.890035"><ele>882.4</ele><time>2015-04-29T15:15:22.0000000+00:00</time></trkpt><trkpt lat="34.9737545" lon="32.8899736"><ele>881.1</ele><time>2015-04-29T15:15:23.0000000+00:00</time></trkpt><trkpt lat="34.97378" lon="32.889914"><ele>879.4</ele><time>2015-04-29T15:15:24.0000000+00:00</time></trkpt><trkpt lat="34.9738086" lon="32.8898659"><ele>878.6</ele><time>2015-04-29T15:15:25.0000000+00:00</time></trkpt><trkpt lat="34.9738464" lon="32.8898264"><ele>877.7</ele><time>2015-04-29T15:15:26.0000000+00:00</time></trkpt><trkpt lat="34.9738926" lon="32.8897907"><ele>876.7</ele><time>2015-04-29T15:15:27.0000000+00:00</time></trkpt><trkpt lat="34.9739534" lon="32.8897242"><ele>875.7</ele><time>2015-04-29T15:15:28.0000000+00:00</time></trkpt><trkpt lat="34.973994" lon="32.8896641"><ele>874.8</ele><time>2015-04-29T15:15:29.0000000+00:00</time></trkpt><trkpt lat="34.9740384" lon="32.8896156"><ele>873.8</ele><time>2015-04-29T15:15:30.0000000+00:00</time></trkpt><trkpt lat="34.9740861" lon="32.8895755"><ele>872.8</ele><time>2015-04-29T15:15:31.0000000+00:00</time></trkpt><trkpt lat="34.9741394" lon="32.8895496"><ele>871.3</ele><time>2015-04-29T15:15:32.0000000+00:00</time></trkpt><trkpt lat="34.9741849" lon="32.8894997"><ele>870.0</ele><time>2015-04-29T15:15:33.0000000+00:00</time></trkpt><trkpt lat="34.974241" lon="32.889474"><ele>868.9</ele><time>2015-04-29T15:15:34.0000000+00:00</time></trkpt><trkpt lat="34.974291" lon="32.8894539"><ele>868.3</ele><time>2015-04-29T15:15:35.0000000+00:00</time></trkpt><trkpt lat="34.9743363" lon="32.8894364"><ele>868.0</ele><time>2015-04-29T15:15:36.0000000+00:00</time></trkpt><trkpt lat="34.9743965" lon="32.8894344"><ele>867.4</ele><time>2015-04-29T15:15:37.0000000+00:00</time></trkpt><trkpt lat="34.9744509" lon="32.8894523"><ele>867.6</ele><time>2015-04-29T15:15:38.0000000+00:00</time></trkpt><trkpt lat="34.9744978" lon="32.8894748"><ele>867.7</ele><time>2015-04-29T15:15:39.0000000+00:00</time></trkpt><trkpt lat="34.974561" lon="32.8895428"><ele>866.7</ele><time>2015-04-29T15:15:40.0000000+00:00</time></trkpt><trkpt lat="34.974622" lon="32.8896183"><ele>865.7</ele><time>2015-04-29T15:15:41.0000000+00:00</time></trkpt><trkpt lat="34.9746764" lon="32.8896871"><ele>864.8</ele><time>2015-04-29T15:15:42.0000000+00:00</time></trkpt><trkpt lat="34.9747244" lon="32.8897563"><ele>864.3</ele><time>2015-04-29T15:15:43.0000000+00:00</time></trkpt><trkpt lat="34.9747796" lon="32.8898252"><ele>863.5</ele><time>2015-04-29T15:15:44.0000000+00:00</time></trkpt><trkpt lat="34.9748282" lon="32.8899009"><ele>863.1</ele><time>2015-04-29T15:15:45.0000000+00:00</time></trkpt><trkpt lat="34.9748859" lon="32.8899606"><ele>862.0</ele><time>2015-04-29T15:15:46.0000000+00:00</time></trkpt><trkpt lat="34.9749407" lon="32.890019"><ele>860.9</ele><time>2015-04-29T15:15:47.0000000+00:00</time></trkpt><trkpt lat="34.9749976" lon="32.890068"><ele>859.8</ele><time>2015-04-29T15:15:48.0000000+00:00</time></trkpt><trkpt lat="34.9750703" lon="32.8901056"><ele>858.8</ele><time>2015-04-29T15:15:49.0000000+00:00</time></trkpt><trkpt lat="34.9751386" lon="32.8901416"><ele>857.3</ele><time>2015-04-29T15:15:50.0000000+00:00</time></trkpt><trkpt lat="34.9752024" lon="32.890178"><ele>856.0</ele><time>2015-04-29T15:15:51.0000000+00:00</time></trkpt><trkpt lat="34.975261" lon="32.8902068"><ele>854.4</ele><time>2015-04-29T15:15:52.0000000+00:00</time></trkpt><trkpt lat="34.9753182" lon="32.8902409"><ele>853.1</ele><time>2015-04-29T15:15:53.0000000+00:00</time></trkpt><trkpt lat="34.9753764" lon="32.8902879"><ele>852.9</ele><time>2015-04-29T15:15:54.0000000+00:00</time></trkpt><trkpt lat="34.9754321" lon="32.8903474"><ele>852.3</ele><time>2015-04-29T15:15:55.0000000+00:00</time></trkpt><trkpt lat="34.9754958" lon="32.8904126"><ele>851.6</ele><time>2015-04-29T15:15:56.0000000+00:00</time></trkpt><trkpt lat="34.975545" lon="32.8904654"><ele>851.2</ele><time>2015-04-29T15:15:57.0000000+00:00</time></trkpt><trkpt lat="34.97559" lon="32.8905192"><ele>850.5</ele><time>2015-04-29T15:15:58.0000000+00:00</time></trkpt><trkpt lat="34.9756406" lon="32.8905635"><ele>849.6</ele><time>2015-04-29T15:15:59.0000000+00:00</time></trkpt><trkpt lat="34.975704" lon="32.8905933"><ele>848.7</ele><time>2015-04-29T15:16:00.0000000+00:00</time></trkpt><trkpt lat="34.975765" lon="32.8906133"><ele>847.7</ele><time>2015-04-29T15:16:01.0000000+00:00</time></trkpt><trkpt lat="34.9758294" lon="32.890611"><ele>847.2</ele><time>2015-04-29T15:16:02.0000000+00:00</time></trkpt><trkpt lat="34.9758877" lon="32.8905501"><ele>846.9</ele><time>2015-04-29T15:16:04.0000000+00:00</time></trkpt><trkpt lat="34.9759374" lon="32.8904779"><ele>848.0</ele><time>2015-04-29T15:16:06.0000000+00:00</time></trkpt><trkpt lat="34.9759717" lon="32.8904341"><ele>847.9</ele><time>2015-04-29T15:16:07.0000000+00:00</time></trkpt><trkpt lat="34.9760024" lon="32.890393"><ele>847.8</ele><time>2015-04-29T15:16:08.0000000+00:00</time></trkpt><trkpt lat="34.9760421" lon="32.8903097"><ele>847.8</ele><time>2015-04-29T15:16:10.0000000+00:00</time></trkpt><trkpt lat="34.9760789" lon="32.8902766"><ele>847.8</ele><time>2015-04-29T15:16:11.0000000+00:00</time></trkpt><trkpt lat="34.9761247" lon="32.8902645"><ele>846.3</ele><time>2015-04-29T15:16:12.0000000+00:00</time></trkpt><trkpt lat="34.9761748" lon="32.8902544"><ele>845.0</ele><time>2015-04-29T15:16:13.0000000+00:00</time></trkpt><trkpt lat="34.9762241" lon="32.8902657"><ele>844.4</ele><time>2015-04-29T15:16:14.0000000+00:00</time></trkpt><trkpt lat="34.9762814" lon="32.8902852"><ele>844.1</ele><time>2015-04-29T15:16:15.0000000+00:00</time></trkpt><trkpt lat="34.9763608" lon="32.8903397"><ele>843.8</ele><time>2015-04-29T15:16:17.0000000+00:00</time></trkpt><trkpt lat="34.976428" lon="32.8903993"><ele>842.5</ele><time>2015-04-29T15:16:19.0000000+00:00</time></trkpt><trkpt lat="34.9764627" lon="32.8904349"><ele>841.6</ele><time>2015-04-29T15:16:20.0000000+00:00</time></trkpt><trkpt lat="34.976499" lon="32.8904684"><ele>840.2</ele><time>2015-04-29T15:16:21.0000000+00:00</time></trkpt><trkpt lat="34.9765816" lon="32.8905255"><ele>837.9</ele><time>2015-04-29T15:16:23.0000000+00:00</time></trkpt><trkpt lat="34.9766375" lon="32.8905503"><ele>837.3</ele><time>2015-04-29T15:16:24.0000000+00:00</time></trkpt><trkpt lat="34.9766907" lon="32.8905788"><ele>836.5</ele><time>2015-04-29T15:16:25.0000000+00:00</time></trkpt><trkpt lat="34.976754" lon="32.890611"><ele>836.2</ele><time>2015-04-29T15:16:26.0000000+00:00</time></trkpt><trkpt lat="34.9768151" lon="32.890634"><ele>836.0</ele><time>2015-04-29T15:16:27.0000000+00:00</time></trkpt><trkpt lat="34.9768929" lon="32.8906592"><ele>835.4</ele><time>2015-04-29T15:16:28.0000000+00:00</time></trkpt><trkpt lat="34.9769783" lon="32.8906792"><ele>834.6</ele><time>2015-04-29T15:16:29.0000000+00:00</time></trkpt><trkpt lat="34.9770549" lon="32.8906966"><ele>834.2</ele><time>2015-04-29T15:16:30.0000000+00:00</time></trkpt><trkpt lat="34.9771214" lon="32.8907197"><ele>834.0</ele><time>2015-04-29T15:16:31.0000000+00:00</time></trkpt><trkpt lat="34.9771844" lon="32.890736"><ele>832.9</ele><time>2015-04-29T15:16:32.0000000+00:00</time></trkpt><trkpt lat="34.9772342" lon="32.8907385"><ele>832.3</ele><time>2015-04-29T15:16:33.0000000+00:00</time></trkpt><trkpt lat="34.9772791" lon="32.8907144"><ele>831.5</ele><time>2015-04-29T15:16:34.0000000+00:00</time></trkpt><trkpt lat="34.9773213" lon="32.8906705"><ele>831.2</ele><time>2015-04-29T15:16:35.0000000+00:00</time></trkpt><trkpt lat="34.9773641" lon="32.8906052"><ele>830.5</ele><time>2015-04-29T15:16:36.0000000+00:00</time></trkpt><trkpt lat="34.9773983" lon="32.8905425"><ele>829.1</ele><time>2015-04-29T15:16:37.0000000+00:00</time></trkpt><trkpt lat="34.9774298" lon="32.8904734"><ele>827.4</ele><time>2015-04-29T15:16:38.0000000+00:00</time></trkpt><trkpt lat="34.9774692" lon="32.8904089"><ele>826.1</ele><time>2015-04-29T15:16:39.0000000+00:00</time></trkpt><trkpt lat="34.9775135" lon="32.890354"><ele>824.9</ele><time>2015-04-29T15:16:40.0000000+00:00</time></trkpt><trkpt lat="34.9775634" lon="32.8903229"><ele>824.3</ele><time>2015-04-29T15:16:41.0000000+00:00</time></trkpt><trkpt lat="34.9776109" lon="32.8902998"><ele>823.1</ele><time>2015-04-29T15:16:42.0000000+00:00</time></trkpt><trkpt lat="34.9776682" lon="32.8902371"><ele>822.1</ele><time>2015-04-29T15:16:44.0000000+00:00</time></trkpt><trkpt lat="34.9777017" lon="32.8901869"><ele>821.3</ele><time>2015-04-29T15:16:46.0000000+00:00</time></trkpt><trkpt lat="34.9776935" lon="32.8901329"><ele>822.8</ele><time>2015-04-29T15:17:18.0000000+00:00</time></trkpt><trkpt lat="34.977733" lon="32.8900981"><ele>822.5</ele><time>2015-04-29T15:17:24.0000000+00:00</time></trkpt><trkpt lat="34.9777728" lon="32.8900626"><ele>821.4</ele><time>2015-04-29T15:17:27.0000000+00:00</time></trkpt><trkpt lat="34.9778264" lon="32.8900038"><ele>819.6</ele><time>2015-04-29T15:17:30.0000000+00:00</time></trkpt><trkpt lat="34.9778901" lon="32.8899562"><ele>817.7</ele><time>2015-04-29T15:17:32.0000000+00:00</time></trkpt><trkpt lat="34.9779694" lon="32.8899338"><ele>814.8</ele><time>2015-04-29T15:17:34.0000000+00:00</time></trkpt><trkpt lat="34.9780548" lon="32.8899227"><ele>813.5</ele><time>2015-04-29T15:17:36.0000000+00:00</time></trkpt><trkpt lat="34.97813" lon="32.8899427"><ele>812.1</ele><time>2015-04-29T15:17:37.0000000+00:00</time></trkpt><trkpt lat="34.9781776" lon="32.8899517"><ele>810.5</ele><time>2015-04-29T15:17:38.0000000+00:00</time></trkpt><trkpt lat="34.9782267" lon="32.8899581"><ele>809.6</ele><time>2015-04-29T15:17:39.0000000+00:00</time></trkpt><trkpt lat="34.9782755" lon="32.8899786"><ele>807.7</ele><time>2015-04-29T15:17:40.0000000+00:00</time></trkpt><trkpt lat="34.9783546" lon="32.8900132"><ele>806.0</ele><time>2015-04-29T15:17:42.0000000+00:00</time></trkpt><trkpt lat="34.9784334" lon="32.89005"><ele>805.1</ele><time>2015-04-29T15:17:44.0000000+00:00</time></trkpt><trkpt lat="34.9784793" lon="32.8900735"><ele>804.9</ele><time>2015-04-29T15:17:45.0000000+00:00</time></trkpt><trkpt lat="34.9785692" lon="32.8901013"><ele>804.8</ele><time>2015-04-29T15:17:47.0000000+00:00</time></trkpt><trkpt lat="34.9786207" lon="32.8901133"><ele>804.8</ele><time>2015-04-29T15:17:48.0000000+00:00</time></trkpt><trkpt lat="34.9787015" lon="32.8901384"><ele>805.5</ele><time>2015-04-29T15:17:50.0000000+00:00</time></trkpt><trkpt lat="34.9787726" lon="32.8901614"><ele>805.0</ele><time>2015-04-29T15:17:52.0000000+00:00</time></trkpt><trkpt lat="34.978811" lon="32.8901224"><ele>806.0</ele><time>2015-04-29T15:17:55.0000000+00:00</time></trkpt><trkpt lat="34.9788362" lon="32.8900674"><ele>804.6</ele><time>2015-04-29T15:17:57.0000000+00:00</time></trkpt><trkpt lat="34.9788454" lon="32.8899995"><ele>803.4</ele><time>2015-04-29T15:18:00.0000000+00:00</time></trkpt><trkpt lat="34.9788498" lon="32.8899381"><ele>803.0</ele><time>2015-04-29T15:18:03.0000000+00:00</time></trkpt><trkpt lat="34.9788642" lon="32.8898681"><ele>801.6</ele><time>2015-04-29T15:18:07.0000000+00:00</time></trkpt><trkpt lat="34.9788942" lon="32.8898206"><ele>801.7</ele><time>2015-04-29T15:18:10.0000000+00:00</time></trkpt><trkpt lat="34.9789304" lon="32.889773"><ele>801.9</ele><time>2015-04-29T15:18:13.0000000+00:00</time></trkpt><trkpt lat="34.9789438" lon="32.8897136"><ele>802.6</ele><time>2015-04-29T15:18:17.0000000+00:00</time></trkpt><trkpt lat="34.97899" lon="32.8897124"><ele>807.3</ele><time>2015-04-29T15:18:32.0000000+00:00</time></trkpt><trkpt lat="34.9790255" lon="32.8896668"><ele>808.6</ele><time>2015-04-29T15:18:36.0000000+00:00</time></trkpt><trkpt lat="34.9790539" lon="32.8896163"><ele>810.2</ele><time>2015-04-29T15:18:39.0000000+00:00</time></trkpt><trkpt lat="34.9790807" lon="32.889569"><ele>810.5</ele><time>2015-04-29T15:18:42.0000000+00:00</time></trkpt><trkpt lat="34.9791003" lon="32.889514"><ele>810.0</ele><time>2015-04-29T15:18:45.0000000+00:00</time></trkpt><trkpt lat="34.9791192" lon="32.8894548"><ele>807.2</ele><time>2015-04-29T15:18:49.0000000+00:00</time></trkpt><trkpt lat="34.9791195" lon="32.8893998"><ele>806.3</ele><time>2015-04-29T15:18:54.0000000+00:00</time></trkpt><trkpt lat="34.9791171" lon="32.8893368"><ele>806.8</ele><time>2015-04-29T15:19:00.0000000+00:00</time></trkpt><trkpt lat="34.9790812" lon="32.8892989"><ele>806.8</ele><time>2015-04-29T15:19:04.0000000+00:00</time></trkpt><trkpt lat="34.9790415" lon="32.8892656"><ele>806.8</ele><time>2015-04-29T15:19:08.0000000+00:00</time></trkpt><trkpt lat="34.9790046" lon="32.8892299"><ele>808.1</ele><time>2015-04-29T15:19:12.0000000+00:00</time></trkpt><trkpt lat="34.9789613" lon="32.8892005"><ele>809.6</ele><time>2015-04-29T15:19:16.0000000+00:00</time></trkpt><trkpt lat="34.9789132" lon="32.8891629"><ele>808.8</ele><time>2015-04-29T15:19:20.0000000+00:00</time></trkpt><trkpt lat="34.9788659" lon="32.8891389"><ele>809.3</ele><time>2015-04-29T15:19:24.0000000+00:00</time></trkpt><trkpt lat="34.9788182" lon="32.8891104"><ele>808.8</ele><time>2015-04-29T15:19:29.0000000+00:00</time></trkpt><trkpt lat="34.9787812" lon="32.8890667"><ele>809.0</ele><time>2015-04-29T15:19:34.0000000+00:00</time></trkpt><trkpt lat="34.978746" lon="32.8890282"><ele>813.0</ele><time>2015-04-29T15:19:38.0000000+00:00</time></trkpt><trkpt lat="34.9787034" lon="32.8890025"><ele>816.3</ele><time>2015-04-29T15:19:42.0000000+00:00</time></trkpt><trkpt lat="34.9786899" lon="32.8889398"><ele>816.9</ele><time>2015-04-29T15:20:31.0000000+00:00</time></trkpt><trkpt lat="34.9786444" lon="32.8889002"><ele>817.5</ele><time>2015-04-29T15:20:35.0000000+00:00</time></trkpt><trkpt lat="34.9785915" lon="32.8888748"><ele>816.8</ele><time>2015-04-29T15:20:39.0000000+00:00</time></trkpt><trkpt lat="34.9785484" lon="32.8888292"><ele>817.5</ele><time>2015-04-29T15:20:43.0000000+00:00</time></trkpt><trkpt lat="34.9785032" lon="32.8887921"><ele>817.0</ele><time>2015-04-29T15:20:47.0000000+00:00</time></trkpt><trkpt lat="34.9784658" lon="32.8887446"><ele>816.1</ele><time>2015-04-29T15:20:51.0000000+00:00</time></trkpt><trkpt lat="34.9784327" lon="32.8886912"><ele>815.8</ele><time>2015-04-29T15:20:55.0000000+00:00</time></trkpt><trkpt lat="34.9783967" lon="32.8886403"><ele>815.8</ele><time>2015-04-29T15:20:59.0000000+00:00</time></trkpt><trkpt lat="34.9783787" lon="32.8885757"><ele>816.6</ele><time>2015-04-29T15:21:03.0000000+00:00</time></trkpt><trkpt lat="34.9783665" lon="32.8885103"><ele>817.3</ele><time>2015-04-29T15:21:07.0000000+00:00</time></trkpt><trkpt lat="34.9783588" lon="32.8884444"><ele>817.7</ele><time>2015-04-29T15:21:11.0000000+00:00</time></trkpt><trkpt lat="34.9783531" lon="32.8883831"><ele>818.0</ele><time>2015-04-29T15:21:15.0000000+00:00</time></trkpt><trkpt lat="34.9783484" lon="32.8883208"><ele>816.8</ele><time>2015-04-29T15:21:19.0000000+00:00</time></trkpt><trkpt lat="34.9783353" lon="32.8882582"><ele>817.5</ele><time>2015-04-29T15:21:23.0000000+00:00</time></trkpt><trkpt lat="34.9783281" lon="32.8881966"><ele>816.9</ele><time>2015-04-29T15:21:27.0000000+00:00</time></trkpt><trkpt lat="34.978319" lon="32.8881367"><ele>818.1</ele><time>2015-04-29T15:21:31.0000000+00:00</time></trkpt><trkpt lat="34.978316" lon="32.8880715"><ele>817.9</ele><time>2015-04-29T15:21:35.0000000+00:00</time></trkpt><trkpt lat="34.978312" lon="32.8880068"><ele>817.8</ele><time>2015-04-29T15:21:39.0000000+00:00</time></trkpt><trkpt lat="34.9783018" lon="32.8879451"><ele>819.5</ele><time>2015-04-29T15:21:43.0000000+00:00</time></trkpt><trkpt lat="34.9782772" lon="32.887893"><ele>819.5</ele><time>2015-04-29T15:21:47.0000000+00:00</time></trkpt><trkpt lat="34.9782438" lon="32.8878404"><ele>818.8</ele><time>2015-04-29T15:21:52.0000000+00:00</time></trkpt><trkpt lat="34.9782432" lon="32.8877762"><ele>818.7</ele><time>2015-04-29T15:21:58.0000000+00:00</time></trkpt><trkpt lat="34.9782225" lon="32.8877152"><ele>820.2</ele><time>2015-04-29T15:22:03.0000000+00:00</time></trkpt><trkpt lat="34.9781688" lon="32.8877078"><ele>819.8</ele><time>2015-04-29T15:22:08.0000000+00:00</time></trkpt><trkpt lat="34.9781203" lon="32.887712"><ele>819.8</ele><time>2015-04-29T15:22:13.0000000+00:00</time></trkpt><trkpt lat="34.9780703" lon="32.8877311"><ele>820.7</ele><time>2015-04-29T15:22:18.0000000+00:00</time></trkpt><trkpt lat="34.978028" lon="32.8877722"><ele>821.3</ele><time>2015-04-29T15:22:23.0000000+00:00</time></trkpt><trkpt lat="34.9779961" lon="32.8878116"><ele>822.2</ele><time>2015-04-29T15:22:27.0000000+00:00</time></trkpt><trkpt lat="34.9779608" lon="32.8878474"><ele>822.7</ele><time>2015-04-29T15:22:31.0000000+00:00</time></trkpt><trkpt lat="34.9779337" lon="32.8878939"><ele>822.8</ele><time>2015-04-29T15:22:35.0000000+00:00</time></trkpt><trkpt lat="34.9778986" lon="32.8879477"><ele>822.8</ele><time>2015-04-29T15:22:40.0000000+00:00</time></trkpt><trkpt lat="34.9778775" lon="32.8879971"><ele>822.8</ele><time>2015-04-29T15:22:44.0000000+00:00</time></trkpt><trkpt lat="34.9778507" lon="32.888049"><ele>823.6</ele><time>2015-04-29T15:22:48.0000000+00:00</time></trkpt><trkpt lat="34.977828" lon="32.8881034"><ele>824.3</ele><time>2015-04-29T15:22:52.0000000+00:00</time></trkpt><trkpt lat="34.9777953" lon="32.8881524"><ele>824.7</ele><time>2015-04-29T15:22:56.0000000+00:00</time></trkpt><trkpt lat="34.9777638" lon="32.8882041"><ele>824.8</ele><time>2015-04-29T15:23:00.0000000+00:00</time></trkpt><trkpt lat="34.9777237" lon="32.8882429"><ele>825.6</ele><time>2015-04-29T15:23:04.0000000+00:00</time></trkpt><trkpt lat="34.9776815" lon="32.8882783"><ele>826.6</ele><time>2015-04-29T15:23:08.0000000+00:00</time></trkpt><trkpt lat="34.9776375" lon="32.8883048"><ele>828.2</ele><time>2015-04-29T15:23:12.0000000+00:00</time></trkpt><trkpt lat="34.9775838" lon="32.8883156"><ele>828.2</ele><time>2015-04-29T15:23:17.0000000+00:00</time></trkpt><trkpt lat="34.9775373" lon="32.8883226"><ele>828.6</ele><time>2015-04-29T15:23:21.0000000+00:00</time></trkpt><trkpt lat="34.9774915" lon="32.8883367"><ele>828.3</ele><time>2015-04-29T15:23:25.0000000+00:00</time></trkpt><trkpt lat="34.9774427" lon="32.8883396"><ele>829.7</ele><time>2015-04-29T15:23:29.0000000+00:00</time></trkpt><trkpt lat="34.977391" lon="32.8883448"><ele>830.3</ele><time>2015-04-29T15:23:33.0000000+00:00</time></trkpt><trkpt lat="34.9773365" lon="32.888344"><ele>831.7</ele><time>2015-04-29T15:23:37.0000000+00:00</time></trkpt><trkpt lat="34.9772852" lon="32.8883479"><ele>832.8</ele><time>2015-04-29T15:23:41.0000000+00:00</time></trkpt><trkpt lat="34.9772348" lon="32.8883655"><ele>832.8</ele><time>2015-04-29T15:23:45.0000000+00:00</time></trkpt><trkpt lat="34.9771923" lon="32.8883861"><ele>833.6</ele><time>2015-04-29T15:23:49.0000000+00:00</time></trkpt><trkpt lat="34.9771495" lon="32.8884224"><ele>834.0</ele><time>2015-04-29T15:23:53.0000000+00:00</time></trkpt><trkpt lat="34.9771091" lon="32.8884513"><ele>834.2</ele><time>2015-04-29T15:23:57.0000000+00:00</time></trkpt><trkpt lat="34.9770688" lon="32.8884821"><ele>834.3</ele><time>2015-04-29T15:24:01.0000000+00:00</time></trkpt><trkpt lat="34.9770305" lon="32.8885243"><ele>835.7</ele><time>2015-04-29T15:24:06.0000000+00:00</time></trkpt><trkpt lat="34.9769979" lon="32.8885669"><ele>837.4</ele><time>2015-04-29T15:24:10.0000000+00:00</time></trkpt><trkpt lat="34.976964" lon="32.8886045"><ele>836.4</ele><time>2015-04-29T15:24:14.0000000+00:00</time></trkpt><trkpt lat="34.9769131" lon="32.8886306"><ele>837.6</ele><time>2015-04-29T15:24:18.0000000+00:00</time></trkpt><trkpt lat="34.976874" lon="32.8886639"><ele>841.1</ele><time>2015-04-29T15:24:22.0000000+00:00</time></trkpt><trkpt lat="34.9768316" lon="32.8886965"><ele>841.1</ele><time>2015-04-29T15:24:26.0000000+00:00</time></trkpt><trkpt lat="34.9767915" lon="32.8887398"><ele>841.3</ele><time>2015-04-29T15:24:30.0000000+00:00</time></trkpt><trkpt lat="34.9767478" lon="32.8887807"><ele>842.7</ele><time>2015-04-29T15:24:34.0000000+00:00</time></trkpt><trkpt lat="34.9767036" lon="32.8888261"><ele>841.4</ele><time>2015-04-29T15:24:38.0000000+00:00</time></trkpt><trkpt lat="34.9766661" lon="32.888857"><ele>841.7</ele><time>2015-04-29T15:24:41.0000000+00:00</time></trkpt><trkpt lat="34.9766218" lon="32.8888729"><ele>841.5</ele><time>2015-04-29T15:24:44.0000000+00:00</time></trkpt><trkpt lat="34.9765735" lon="32.888876"><ele>841.2</ele><time>2015-04-29T15:24:47.0000000+00:00</time></trkpt><trkpt lat="34.9765182" lon="32.8888835"><ele>842.9</ele><time>2015-04-29T15:24:51.0000000+00:00</time></trkpt><trkpt lat="34.9764725" lon="32.8888903"><ele>843.4</ele><time>2015-04-29T15:24:54.0000000+00:00</time></trkpt><trkpt lat="34.9764246" lon="32.8888978"><ele>842.1</ele><time>2015-04-29T15:24:57.0000000+00:00</time></trkpt><trkpt lat="34.9763763" lon="32.8889018"><ele>841.9</ele><time>2015-04-29T15:25:00.0000000+00:00</time></trkpt><trkpt lat="34.9763252" lon="32.8888895"><ele>843.4</ele><time>2015-04-29T15:25:03.0000000+00:00</time></trkpt><trkpt lat="34.9762786" lon="32.888877"><ele>843.7</ele><time>2015-04-29T15:25:06.0000000+00:00</time></trkpt><trkpt lat="34.976233" lon="32.8888585"><ele>844.3</ele><time>2015-04-29T15:25:09.0000000+00:00</time></trkpt><trkpt lat="34.9761888" lon="32.8888403"><ele>845.5</ele><time>2015-04-29T15:25:12.0000000+00:00</time></trkpt><trkpt lat="34.9761443" lon="32.8888284"><ele>846.5</ele><time>2015-04-29T15:25:15.0000000+00:00</time></trkpt><trkpt lat="34.976093" lon="32.888804"><ele>846.7</ele><time>2015-04-29T15:25:19.0000000+00:00</time></trkpt><trkpt lat="34.9760413" lon="32.8887865"><ele>847.3</ele><time>2015-04-29T15:25:23.0000000+00:00</time></trkpt><trkpt lat="34.9759906" lon="32.8887726"><ele>846.7</ele><time>2015-04-29T15:25:27.0000000+00:00</time></trkpt><trkpt lat="34.9759395" lon="32.8887435"><ele>845.8</ele><time>2015-04-29T15:25:31.0000000+00:00</time></trkpt><trkpt lat="34.9758872" lon="32.888732"><ele>845.2</ele><time>2015-04-29T15:25:35.0000000+00:00</time></trkpt><trkpt lat="34.9758384" lon="32.8887106"><ele>844.9</ele><time>2015-04-29T15:25:39.0000000+00:00</time></trkpt><trkpt lat="34.9757836" lon="32.888685"><ele>844.3</ele><time>2015-04-29T15:25:43.0000000+00:00</time></trkpt><trkpt lat="34.9757346" lon="32.8886603"><ele>845.5</ele><time>2015-04-29T15:25:47.0000000+00:00</time></trkpt><trkpt lat="34.975712" lon="32.8886086"><ele>845.7</ele><time>2015-04-29T15:25:50.0000000+00:00</time></trkpt><trkpt lat="34.9757052" lon="32.8885495"><ele>846.0</ele><time>2015-04-29T15:25:53.0000000+00:00</time></trkpt><trkpt lat="34.9757096" lon="32.8884929"><ele>847.9</ele><time>2015-04-29T15:25:56.0000000+00:00</time></trkpt><trkpt lat="34.9757362" lon="32.888441"><ele>850.7</ele><time>2015-04-29T15:25:59.0000000+00:00</time></trkpt><trkpt lat="34.9757612" lon="32.8883935"><ele>852.4</ele><time>2015-04-29T15:26:02.0000000+00:00</time></trkpt><trkpt lat="34.975794" lon="32.8883406"><ele>852.7</ele><time>2015-04-29T15:26:06.0000000+00:00</time></trkpt><trkpt lat="34.975844" lon="32.8883527"><ele>852.4</ele><time>2015-04-29T15:26:09.0000000+00:00</time></trkpt><trkpt lat="34.9758944" lon="32.8883609"><ele>852.3</ele><time>2015-04-29T15:26:12.0000000+00:00</time></trkpt><trkpt lat="34.9759436" lon="32.8883807"><ele>852.2</ele><time>2015-04-29T15:26:15.0000000+00:00</time></trkpt><trkpt lat="34.9759908" lon="32.8884101"><ele>852.6</ele><time>2015-04-29T15:26:18.0000000+00:00</time></trkpt><trkpt lat="34.9760415" lon="32.8884342"><ele>852.6</ele><time>2015-04-29T15:26:21.0000000+00:00</time></trkpt><trkpt lat="34.9760897" lon="32.8884623"><ele>852.9</ele><time>2015-04-29T15:26:24.0000000+00:00</time></trkpt><trkpt lat="34.9761355" lon="32.888488"><ele>852.8</ele><time>2015-04-29T15:26:27.0000000+00:00</time></trkpt><trkpt lat="34.976181" lon="32.8885159"><ele>852.0</ele><time>2015-04-29T15:26:30.0000000+00:00</time></trkpt><trkpt lat="34.9762219" lon="32.8885578"><ele>851.8</ele><time>2015-04-29T15:26:33.0000000+00:00</time></trkpt><trkpt lat="34.9762611" lon="32.8885955"><ele>851.8</ele><time>2015-04-29T15:26:36.0000000+00:00</time></trkpt><trkpt lat="34.9763048" lon="32.8886096"><ele>852.6</ele><time>2015-04-29T15:26:39.0000000+00:00</time></trkpt><trkpt lat="34.9763524" lon="32.8886159"><ele>852.0</ele><time>2015-04-29T15:26:42.0000000+00:00</time></trkpt><trkpt lat="34.9763981" lon="32.888614"><ele>853.0</ele><time>2015-04-29T15:26:45.0000000+00:00</time></trkpt><trkpt lat="34.9764456" lon="32.888601"><ele>854.5</ele><time>2015-04-29T15:26:48.0000000+00:00</time></trkpt><trkpt lat="34.9764903" lon="32.8885938"><ele>851.4</ele><time>2015-04-29T15:26:51.0000000+00:00</time></trkpt><trkpt lat="34.9765373" lon="32.8885546"><ele>849.7</ele><time>2015-04-29T15:26:55.0000000+00:00</time></trkpt><trkpt lat="34.9765712" lon="32.8885106"><ele>850.4</ele><time>2015-04-29T15:26:59.0000000+00:00</time></trkpt><trkpt lat="34.9766075" lon="32.8884652"><ele>851.5</ele><time>2015-04-29T15:27:04.0000000+00:00</time></trkpt><trkpt lat="34.9766387" lon="32.888412"><ele>850.5</ele><time>2015-04-29T15:27:09.0000000+00:00</time></trkpt><trkpt lat="34.9766663" lon="32.8883682"><ele>849.8</ele><time>2015-04-29T15:27:13.0000000+00:00</time></trkpt><trkpt lat="34.9766928" lon="32.8883132"><ele>849.4</ele><time>2015-04-29T15:27:18.0000000+00:00</time></trkpt><trkpt lat="34.9767097" lon="32.8882568"><ele>850.2</ele><time>2015-04-29T15:27:22.0000000+00:00</time></trkpt><trkpt lat="34.9767338" lon="32.8882038"><ele>851.1</ele><time>2015-04-29T15:27:26.0000000+00:00</time></trkpt><trkpt lat="34.9767568" lon="32.8881472"><ele>850.3</ele><time>2015-04-29T15:27:30.0000000+00:00</time></trkpt><trkpt lat="34.9767642" lon="32.8880795"><ele>850.3</ele><time>2015-04-29T15:27:34.0000000+00:00</time></trkpt><trkpt lat="34.9767806" lon="32.8880157"><ele>851.5</ele><time>2015-04-29T15:27:38.0000000+00:00</time></trkpt><trkpt lat="34.9768009" lon="32.8879521"><ele>853.2</ele><time>2015-04-29T15:27:42.0000000+00:00</time></trkpt><trkpt lat="34.9768214" lon="32.8878895"><ele>854.9</ele><time>2015-04-29T15:27:46.0000000+00:00</time></trkpt><trkpt lat="34.9768434" lon="32.8878278"><ele>854.0</ele><time>2015-04-29T15:27:51.0000000+00:00</time></trkpt><trkpt lat="34.9768593" lon="32.8877673"><ele>856.2</ele><time>2015-04-29T15:27:56.0000000+00:00</time></trkpt><trkpt lat="34.9768836" lon="32.8877202"><ele>856.9</ele><time>2015-04-29T15:28:00.0000000+00:00</time></trkpt><trkpt lat="34.9769117" lon="32.8876771"><ele>857.3</ele><time>2015-04-29T15:28:04.0000000+00:00</time></trkpt><trkpt lat="34.9769332" lon="32.8876244"><ele>858.4</ele><time>2015-04-29T15:28:08.0000000+00:00</time></trkpt><trkpt lat="34.9769522" lon="32.8875659"><ele>857.7</ele><time>2015-04-29T15:28:12.0000000+00:00</time></trkpt><trkpt lat="34.9769699" lon="32.8875124"><ele>857.8</ele><time>2015-04-29T15:28:16.0000000+00:00</time></trkpt><trkpt lat="34.9769909" lon="32.887459"><ele>859.2</ele><time>2015-04-29T15:28:20.0000000+00:00</time></trkpt><trkpt lat="34.9770115" lon="32.887403"><ele>859.0</ele><time>2015-04-29T15:28:24.0000000+00:00</time></trkpt><trkpt lat="34.9770245" lon="32.887341"><ele>859.2</ele><time>2015-04-29T15:28:28.0000000+00:00</time></trkpt><trkpt lat="34.977053" lon="32.8872852"><ele>859.7</ele><time>2015-04-29T15:28:33.0000000+00:00</time></trkpt><trkpt lat="34.9770858" lon="32.8872452"><ele>857.4</ele><time>2015-04-29T15:28:37.0000000+00:00</time></trkpt><trkpt lat="34.9771053" lon="32.8871883"><ele>858.2</ele><time>2015-04-29T15:28:41.0000000+00:00</time></trkpt><trkpt lat="34.97713" lon="32.8871301"><ele>858.2</ele><time>2015-04-29T15:28:45.0000000+00:00</time></trkpt><trkpt lat="34.9771492" lon="32.8870632"><ele>857.7</ele><time>2015-04-29T15:28:49.0000000+00:00</time></trkpt><trkpt lat="34.9771665" lon="32.8870074"><ele>859.4</ele><time>2015-04-29T15:28:53.0000000+00:00</time></trkpt><trkpt lat="34.977189" lon="32.886947"><ele>860.7</ele><time>2015-04-29T15:28:57.0000000+00:00</time></trkpt><trkpt lat="34.9772071" lon="32.8868897"><ele>862.2</ele><time>2015-04-29T15:29:01.0000000+00:00</time></trkpt><trkpt lat="34.977228" lon="32.8868347"><ele>863.7</ele><time>2015-04-29T15:29:05.0000000+00:00</time></trkpt><trkpt lat="34.9772496" lon="32.8867832"><ele>862.9</ele><time>2015-04-29T15:29:09.0000000+00:00</time></trkpt><trkpt lat="34.9772762" lon="32.886737"><ele>862.3</ele><time>2015-04-29T15:29:13.0000000+00:00</time></trkpt><trkpt lat="34.9772978" lon="32.8866837"><ele>860.9</ele><time>2015-04-29T15:29:17.0000000+00:00</time></trkpt><trkpt lat="34.9773096" lon="32.8866224"><ele>861.5</ele><time>2015-04-29T15:29:21.0000000+00:00</time></trkpt><trkpt lat="34.9773306" lon="32.886561"><ele>862.7</ele><time>2015-04-29T15:29:25.0000000+00:00</time></trkpt><trkpt lat="34.9773523" lon="32.8864972"><ele>863.6</ele><time>2015-04-29T15:29:29.0000000+00:00</time></trkpt><trkpt lat="34.9773708" lon="32.8864457"><ele>863.4</ele><time>2015-04-29T15:29:32.0000000+00:00</time></trkpt><trkpt lat="34.9773868" lon="32.8863924"><ele>863.3</ele><time>2015-04-29T15:29:35.0000000+00:00</time></trkpt><trkpt lat="34.9774167" lon="32.8863304"><ele>865.1</ele><time>2015-04-29T15:29:39.0000000+00:00</time></trkpt><trkpt lat="34.9774378" lon="32.8862671"><ele>866.7</ele><time>2015-04-29T15:29:43.0000000+00:00</time></trkpt><trkpt lat="34.9774537" lon="32.8862099"><ele>868.2</ele><time>2015-04-29T15:29:49.0000000+00:00</time></trkpt><trkpt lat="34.9774669" lon="32.8861498"><ele>867.6</ele><time>2015-04-29T15:29:54.0000000+00:00</time></trkpt><trkpt lat="34.9774917" lon="32.8861004"><ele>868.5</ele><time>2015-04-29T15:29:58.0000000+00:00</time></trkpt><trkpt lat="34.9775092" lon="32.8860397"><ele>868.7</ele><time>2015-04-29T15:30:02.0000000+00:00</time></trkpt><trkpt lat="34.9775227" lon="32.8859656"><ele>868.8</ele><time>2015-04-29T15:30:05.0000000+00:00</time></trkpt><trkpt lat="34.9775413" lon="32.8859136"><ele>869.3</ele><time>2015-04-29T15:30:07.0000000+00:00</time></trkpt><trkpt lat="34.9775635" lon="32.885851"><ele>870.4</ele><time>2015-04-29T15:30:09.0000000+00:00</time></trkpt><trkpt lat="34.9775864" lon="32.8857894"><ele>870.7</ele><time>2015-04-29T15:30:11.0000000+00:00</time></trkpt><trkpt lat="34.9776073" lon="32.885727"><ele>871.0</ele><time>2015-04-29T15:30:13.0000000+00:00</time></trkpt><trkpt lat="34.9776262" lon="32.8856695"><ele>871.3</ele><time>2015-04-29T15:30:15.0000000+00:00</time></trkpt><trkpt lat="34.9776455" lon="32.8856119"><ele>871.7</ele><time>2015-04-29T15:30:17.0000000+00:00</time></trkpt><trkpt lat="34.9776705" lon="32.8855477"><ele>871.8</ele><time>2015-04-29T15:30:20.0000000+00:00</time></trkpt><trkpt lat="34.9776961" lon="32.8854968"><ele>872.6</ele><time>2015-04-29T15:30:23.0000000+00:00</time></trkpt><trkpt lat="34.9777205" lon="32.8854346"><ele>872.7</ele><time>2015-04-29T15:30:26.0000000+00:00</time></trkpt><trkpt lat="34.9777458" lon="32.8853854"><ele>873.2</ele><time>2015-04-29T15:30:31.0000000+00:00</time></trkpt><trkpt lat="34.9777798" lon="32.8853436"><ele>874.5</ele><time>2015-04-29T15:30:35.0000000+00:00</time></trkpt><trkpt lat="34.9778132" lon="32.8853005"><ele>876.4</ele><time>2015-04-29T15:30:39.0000000+00:00</time></trkpt><trkpt lat="34.9778488" lon="32.8852574"><ele>875.8</ele><time>2015-04-29T15:30:43.0000000+00:00</time></trkpt><trkpt lat="34.9779006" lon="32.8852451"><ele>875.0</ele><time>2015-04-29T15:30:47.0000000+00:00</time></trkpt><trkpt lat="34.9779504" lon="32.8852247"><ele>874.0</ele><time>2015-04-29T15:30:51.0000000+00:00</time></trkpt><trkpt lat="34.9780065" lon="32.8851997"><ele>874.9</ele><time>2015-04-29T15:30:55.0000000+00:00</time></trkpt><trkpt lat="34.9780582" lon="32.8851894"><ele>874.9</ele><time>2015-04-29T15:30:58.0000000+00:00</time></trkpt><trkpt lat="34.9781126" lon="32.8851871"><ele>876.0</ele><time>2015-04-29T15:31:01.0000000+00:00</time></trkpt><trkpt lat="34.9781669" lon="32.8851871"><ele>876.7</ele><time>2015-04-29T15:31:04.0000000+00:00</time></trkpt><trkpt lat="34.9782227" lon="32.885204"><ele>875.9</ele><time>2015-04-29T15:31:07.0000000+00:00</time></trkpt><trkpt lat="34.9782817" lon="32.885236"><ele>875.5</ele><time>2015-04-29T15:31:10.0000000+00:00</time></trkpt><trkpt lat="34.978321" lon="32.8852648"><ele>875.7</ele><time>2015-04-29T15:31:12.0000000+00:00</time></trkpt><trkpt lat="34.9783698" lon="32.8853132"><ele>877.1</ele><time>2015-04-29T15:31:15.0000000+00:00</time></trkpt><trkpt lat="34.978417" lon="32.8853642"><ele>878.2</ele><time>2015-04-29T15:31:18.0000000+00:00</time></trkpt><trkpt lat="34.9784621" lon="32.8854192"><ele>878.7</ele><time>2015-04-29T15:31:21.0000000+00:00</time></trkpt><trkpt lat="34.9784958" lon="32.8854798"><ele>879.3</ele><time>2015-04-29T15:31:24.0000000+00:00</time></trkpt><trkpt lat="34.9785391" lon="32.8855298"><ele>879.7</ele><time>2015-04-29T15:31:27.0000000+00:00</time></trkpt><trkpt lat="34.9785821" lon="32.8855797"><ele>880.5</ele><time>2015-04-29T15:31:30.0000000+00:00</time></trkpt><trkpt lat="34.9786126" lon="32.8856229"><ele>879.9</ele><time>2015-04-29T15:31:33.0000000+00:00</time></trkpt><trkpt lat="34.9786536" lon="32.8856729"><ele>880.5</ele><time>2015-04-29T15:31:37.0000000+00:00</time></trkpt><trkpt lat="34.9786912" lon="32.885713"><ele>881.6</ele><time>2015-04-29T15:31:40.0000000+00:00</time></trkpt><trkpt lat="34.9787279" lon="32.885754"><ele>882.6</ele><time>2015-04-29T15:31:43.0000000+00:00</time></trkpt><trkpt lat="34.9787682" lon="32.8857954"><ele>884.9</ele><time>2015-04-29T15:31:46.0000000+00:00</time></trkpt><trkpt lat="34.9788344" lon="32.8858205"><ele>885.2</ele><time>2015-04-29T15:31:49.0000000+00:00</time></trkpt><trkpt lat="34.9788908" lon="32.8858314"><ele>884.9</ele><time>2015-04-29T15:31:51.0000000+00:00</time></trkpt><trkpt lat="34.9789539" lon="32.8858332"><ele>885.5</ele><time>2015-04-29T15:31:53.0000000+00:00</time></trkpt><trkpt lat="34.9790136" lon="32.8858183"><ele>885.7</ele><time>2015-04-29T15:31:55.0000000+00:00</time></trkpt><trkpt lat="34.9790714" lon="32.8857899"><ele>885.8</ele><time>2015-04-29T15:31:57.0000000+00:00</time></trkpt><trkpt lat="34.9791151" lon="32.8857573"><ele>886.3</ele><time>2015-04-29T15:31:59.0000000+00:00</time></trkpt><trkpt lat="34.979155" lon="32.8857011"><ele>887.2</ele><time>2015-04-29T15:32:03.0000000+00:00</time></trkpt><trkpt lat="34.9792025" lon="32.8856483"><ele>885.6</ele><time>2015-04-29T15:32:06.0000000+00:00</time></trkpt><trkpt lat="34.9792389" lon="32.8856007"><ele>886.2</ele><time>2015-04-29T15:32:08.0000000+00:00</time></trkpt><trkpt lat="34.979268" lon="32.8855557"><ele>887.1</ele><time>2015-04-29T15:32:10.0000000+00:00</time></trkpt><trkpt lat="34.9793108" lon="32.8855052"><ele>887.7</ele><time>2015-04-29T15:32:13.0000000+00:00</time></trkpt><trkpt lat="34.9793456" lon="32.8854655"><ele>888.3</ele><time>2015-04-29T15:32:16.0000000+00:00</time></trkpt><trkpt lat="34.9793873" lon="32.8854141"><ele>887.5</ele><time>2015-04-29T15:32:20.0000000+00:00</time></trkpt><trkpt lat="34.9794307" lon="32.8853672"><ele>888.3</ele><time>2015-04-29T15:32:24.0000000+00:00</time></trkpt><trkpt lat="34.9794619" lon="32.8853274"><ele>889.2</ele><time>2015-04-29T15:32:27.0000000+00:00</time></trkpt><trkpt lat="34.9794982" lon="32.8852686"><ele>890.2</ele><time>2015-04-29T15:32:31.0000000+00:00</time></trkpt><trkpt lat="34.9795504" lon="32.885252"><ele>887.4</ele><time>2015-04-29T15:32:46.0000000+00:00</time></trkpt><trkpt lat="34.979578" lon="32.8851979"><ele>887.4</ele><time>2015-04-29T15:32:50.0000000+00:00</time></trkpt><trkpt lat="34.979612" lon="32.8851446"><ele>886.8</ele><time>2015-04-29T15:32:53.0000000+00:00</time></trkpt><trkpt lat="34.9796633" lon="32.8851111"><ele>886.8</ele><time>2015-04-29T15:32:56.0000000+00:00</time></trkpt><trkpt lat="34.9797095" lon="32.8850793"><ele>887.0</ele><time>2015-04-29T15:32:59.0000000+00:00</time></trkpt><trkpt lat="34.9797541" lon="32.8850512"><ele>886.3</ele><time>2015-04-29T15:33:02.0000000+00:00</time></trkpt><trkpt lat="34.9798011" lon="32.885024"><ele>887.2</ele><time>2015-04-29T15:33:05.0000000+00:00</time></trkpt><trkpt lat="34.9798462" lon="32.8849883"><ele>887.7</ele><time>2015-04-29T15:33:08.0000000+00:00</time></trkpt><trkpt lat="34.9798909" lon="32.8849588"><ele>887.8</ele><time>2015-04-29T15:33:11.0000000+00:00</time></trkpt><trkpt lat="34.9799332" lon="32.8849276"><ele>889.1</ele><time>2015-04-29T15:33:14.0000000+00:00</time></trkpt><trkpt lat="34.9799775" lon="32.8849022"><ele>888.8</ele><time>2015-04-29T15:33:17.0000000+00:00</time></trkpt><trkpt lat="34.9800237" lon="32.8848766"><ele>889.5</ele><time>2015-04-29T15:33:20.0000000+00:00</time></trkpt><trkpt lat="34.9800614" lon="32.8848391"><ele>890.2</ele><time>2015-04-29T15:33:23.0000000+00:00</time></trkpt><trkpt lat="34.9800997" lon="32.8848014"><ele>890.7</ele><time>2015-04-29T15:33:26.0000000+00:00</time></trkpt><trkpt lat="34.9801408" lon="32.8847714"><ele>890.3</ele><time>2015-04-29T15:33:29.0000000+00:00</time></trkpt><trkpt lat="34.9801816" lon="32.8847443"><ele>890.5</ele><time>2015-04-29T15:33:32.0000000+00:00</time></trkpt><trkpt lat="34.9802284" lon="32.8847272"><ele>892.2</ele><time>2015-04-29T15:33:36.0000000+00:00</time></trkpt><trkpt lat="34.9802848" lon="32.8847081"><ele>892.2</ele><time>2015-04-29T15:33:40.0000000+00:00</time></trkpt><trkpt lat="34.9803407" lon="32.8846803"><ele>891.8</ele><time>2015-04-29T15:33:44.0000000+00:00</time></trkpt><trkpt lat="34.9803812" lon="32.8846541"><ele>893.5</ele><time>2015-04-29T15:33:47.0000000+00:00</time></trkpt><trkpt lat="34.980426" lon="32.8846288"><ele>895.7</ele><time>2015-04-29T15:33:50.0000000+00:00</time></trkpt><trkpt lat="34.9804769" lon="32.8846118"><ele>897.4</ele><time>2015-04-29T15:33:53.0000000+00:00</time></trkpt><trkpt lat="34.9805276" lon="32.8845952"><ele>899.0</ele><time>2015-04-29T15:33:56.0000000+00:00</time></trkpt><trkpt lat="34.9805812" lon="32.8845828"><ele>899.2</ele><time>2015-04-29T15:33:59.0000000+00:00</time></trkpt><trkpt lat="34.9806395" lon="32.8845742"><ele>900.4</ele><time>2015-04-29T15:34:02.0000000+00:00</time></trkpt><trkpt lat="34.9807005" lon="32.8845776"><ele>900.0</ele><time>2015-04-29T15:34:05.0000000+00:00</time></trkpt><trkpt lat="34.9807604" lon="32.8845889"><ele>900.7</ele><time>2015-04-29T15:34:08.0000000+00:00</time></trkpt><trkpt lat="34.9808184" lon="32.884597"><ele>900.5</ele><time>2015-04-29T15:34:11.0000000+00:00</time></trkpt><trkpt lat="34.9808728" lon="32.8846151"><ele>899.9</ele><time>2015-04-29T15:34:14.0000000+00:00</time></trkpt><trkpt lat="34.9809281" lon="32.884634"><ele>899.8</ele><time>2015-04-29T15:34:17.0000000+00:00</time></trkpt><trkpt lat="34.9809796" lon="32.88466"><ele>899.8</ele><time>2015-04-29T15:34:20.0000000+00:00</time></trkpt><trkpt lat="34.9810302" lon="32.8846864"><ele>900.5</ele><time>2015-04-29T15:34:23.0000000+00:00</time></trkpt><trkpt lat="34.9810782" lon="32.8847172"><ele>901.2</ele><time>2015-04-29T15:34:26.0000000+00:00</time></trkpt><trkpt lat="34.9811301" lon="32.8847478"><ele>902.4</ele><time>2015-04-29T15:34:29.0000000+00:00</time></trkpt><trkpt lat="34.9811785" lon="32.884784"><ele>902.7</ele><time>2015-04-29T15:34:32.0000000+00:00</time></trkpt><trkpt lat="34.9812251" lon="32.8848199"><ele>903.9</ele><time>2015-04-29T15:34:35.0000000+00:00</time></trkpt><trkpt lat="34.9812749" lon="32.8848526"><ele>904.5</ele><time>2015-04-29T15:34:38.0000000+00:00</time></trkpt><trkpt lat="34.9813246" lon="32.8848894"><ele>904.7</ele><time>2015-04-29T15:34:41.0000000+00:00</time></trkpt><trkpt lat="34.981374" lon="32.8849253"><ele>905.6</ele><time>2015-04-29T15:34:44.0000000+00:00</time></trkpt><trkpt lat="34.9814212" lon="32.8849619"><ele>906.5</ele><time>2015-04-29T15:34:47.0000000+00:00</time></trkpt><trkpt lat="34.9814707" lon="32.8849993"><ele>906.7</ele><time>2015-04-29T15:34:50.0000000+00:00</time></trkpt><trkpt lat="34.98152" lon="32.8850329"><ele>907.6</ele><time>2015-04-29T15:34:53.0000000+00:00</time></trkpt><trkpt lat="34.9815685" lon="32.8850646"><ele>909.1</ele><time>2015-04-29T15:34:56.0000000+00:00</time></trkpt><trkpt lat="34.9816165" lon="32.8850974"><ele>909.7</ele><time>2015-04-29T15:34:59.0000000+00:00</time></trkpt><trkpt lat="34.9816639" lon="32.8851256"><ele>910.6</ele><time>2015-04-29T15:35:02.0000000+00:00</time></trkpt><trkpt lat="34.9817127" lon="32.8851491"><ele>910.7</ele><time>2015-04-29T15:35:05.0000000+00:00</time></trkpt><trkpt lat="34.9817621" lon="32.8851726"><ele>910.8</ele><time>2015-04-29T15:35:08.0000000+00:00</time></trkpt><trkpt lat="34.981812" lon="32.8851887"><ele>910.8</ele><time>2015-04-29T15:35:11.0000000+00:00</time></trkpt><trkpt lat="34.9818677" lon="32.885211"><ele>910.8</ele><time>2015-04-29T15:35:15.0000000+00:00</time></trkpt><trkpt lat="34.9819188" lon="32.8852243"><ele>910.8</ele><time>2015-04-29T15:35:18.0000000+00:00</time></trkpt><trkpt lat="34.9819718" lon="32.8852344"><ele>910.8</ele><time>2015-04-29T15:35:21.0000000+00:00</time></trkpt><trkpt lat="34.9820271" lon="32.8852477"><ele>911.5</ele><time>2015-04-29T15:35:24.0000000+00:00</time></trkpt><trkpt lat="34.9820844" lon="32.8852596"><ele>911.7</ele><time>2015-04-29T15:35:27.0000000+00:00</time></trkpt><trkpt lat="34.982138" lon="32.8852723"><ele>911.8</ele><time>2015-04-29T15:35:30.0000000+00:00</time></trkpt><trkpt lat="34.9821851" lon="32.8852771"><ele>912.7</ele><time>2015-04-29T15:35:35.0000000+00:00</time></trkpt><trkpt lat="34.9822375" lon="32.8852832"><ele>913.7</ele><time>2015-04-29T15:35:39.0000000+00:00</time></trkpt><trkpt lat="34.982283" lon="32.8852887"><ele>914.6</ele><time>2015-04-29T15:35:43.0000000+00:00</time></trkpt><trkpt lat="34.9823359" lon="32.885304"><ele>914.7</ele><time>2015-04-29T15:35:46.0000000+00:00</time></trkpt><trkpt lat="34.982382" lon="32.8853152"><ele>914.8</ele><time>2015-04-29T15:35:49.0000000+00:00</time></trkpt><trkpt lat="34.9824384" lon="32.8853196"><ele>913.9</ele><time>2015-04-29T15:35:53.0000000+00:00</time></trkpt><trkpt lat="34.9824887" lon="32.8853301"><ele>913.8</ele><time>2015-04-29T15:35:56.0000000+00:00</time></trkpt><trkpt lat="34.9825338" lon="32.8853439"><ele>914.6</ele><time>2015-04-29T15:35:59.0000000+00:00</time></trkpt><trkpt lat="34.9825822" lon="32.885364"><ele>914.7</ele><time>2015-04-29T15:36:02.0000000+00:00</time></trkpt><trkpt lat="34.982638" lon="32.8853789"><ele>915.6</ele><time>2015-04-29T15:36:05.0000000+00:00</time></trkpt><trkpt lat="34.9826945" lon="32.8853786"><ele>915.7</ele><time>2015-04-29T15:36:08.0000000+00:00</time></trkpt><trkpt lat="34.9827466" lon="32.8853791"><ele>915.8</ele><time>2015-04-29T15:36:11.0000000+00:00</time></trkpt><trkpt lat="34.9827938" lon="32.885392"><ele>916.5</ele><time>2015-04-29T15:36:14.0000000+00:00</time></trkpt><trkpt lat="34.9828417" lon="32.8853969"><ele>916.7</ele><time>2015-04-29T15:36:17.0000000+00:00</time></trkpt><trkpt lat="34.9828885" lon="32.8854104"><ele>917.6</ele><time>2015-04-29T15:36:20.0000000+00:00</time></trkpt><trkpt lat="34.9829382" lon="32.8854054"><ele>917.7</ele><time>2015-04-29T15:36:23.0000000+00:00</time></trkpt><trkpt lat="34.9829912" lon="32.8854006"><ele>918.5</ele><time>2015-04-29T15:36:26.0000000+00:00</time></trkpt><trkpt lat="34.9830451" lon="32.8853891"><ele>918.7</ele><time>2015-04-29T15:36:29.0000000+00:00</time></trkpt><trkpt lat="34.9830917" lon="32.8853643"><ele>919.5</ele><time>2015-04-29T15:36:34.0000000+00:00</time></trkpt><trkpt lat="34.9831381" lon="32.8853309"><ele>920.6</ele><time>2015-04-29T15:36:37.0000000+00:00</time></trkpt><trkpt lat="34.9831797" lon="32.8852898"><ele>920.7</ele><time>2015-04-29T15:36:40.0000000+00:00</time></trkpt><trkpt lat="34.9832157" lon="32.8852497"><ele>919.9</ele><time>2015-04-29T15:36:43.0000000+00:00</time></trkpt><trkpt lat="34.9832518" lon="32.8852025"><ele>920.7</ele><time>2015-04-29T15:36:46.0000000+00:00</time></trkpt><trkpt lat="34.9832868" lon="32.8851479"><ele>921.3</ele><time>2015-04-29T15:36:49.0000000+00:00</time></trkpt><trkpt lat="34.983326" lon="32.8851049"><ele>921.7</ele><time>2015-04-29T15:36:52.0000000+00:00</time></trkpt><trkpt lat="34.9833559" lon="32.8850604"><ele>921.8</ele><time>2015-04-29T15:36:55.0000000+00:00</time></trkpt><trkpt lat="34.9833728" lon="32.885004"><ele>922.3</ele><time>2015-04-29T15:36:59.0000000+00:00</time></trkpt><trkpt lat="34.983387" lon="32.8849456"><ele>922.5</ele><time>2015-04-29T15:37:03.0000000+00:00</time></trkpt><trkpt lat="34.9833558" lon="32.8848965"><ele>920.5</ele><time>2015-04-29T15:45:13.0000000+00:00</time></trkpt><trkpt lat="34.983336" lon="32.8848444"><ele>921.2</ele><time>2015-04-29T15:45:18.0000000+00:00</time></trkpt><trkpt lat="34.9833076" lon="32.8847867"><ele>919.9</ele><time>2015-04-29T15:45:23.0000000+00:00</time></trkpt><trkpt lat="34.9832862" lon="32.8847348"><ele>917.9</ele><time>2015-04-29T15:45:28.0000000+00:00</time></trkpt><trkpt lat="34.9832532" lon="32.8846884"><ele>919.8</ele><time>2015-04-29T15:45:33.0000000+00:00</time></trkpt><trkpt lat="34.9832257" lon="32.8846416"><ele>921.6</ele><time>2015-04-29T15:45:37.0000000+00:00</time></trkpt><trkpt lat="34.9831929" lon="32.8845959"><ele>923.5</ele><time>2015-04-29T15:45:41.0000000+00:00</time></trkpt><trkpt lat="34.9831449" lon="32.884558"><ele>922.7</ele><time>2015-04-29T15:45:46.0000000+00:00</time></trkpt><trkpt lat="34.9831018" lon="32.8845278"><ele>921.7</ele><time>2015-04-29T15:45:50.0000000+00:00</time></trkpt><trkpt lat="34.983048" lon="32.884499"><ele>921.8</ele><time>2015-04-29T15:45:54.0000000+00:00</time></trkpt><trkpt lat="34.9829993" lon="32.8844735"><ele>922.4</ele><time>2015-04-29T15:45:58.0000000+00:00</time></trkpt><trkpt lat="34.9829482" lon="32.8844605"><ele>921.1</ele><time>2015-04-29T15:46:02.0000000+00:00</time></trkpt><trkpt lat="34.9829034" lon="32.8844261"><ele>921.8</ele><time>2015-04-29T15:46:06.0000000+00:00</time></trkpt><trkpt lat="34.9828537" lon="32.8843879"><ele>922.5</ele><time>2015-04-29T15:46:10.0000000+00:00</time></trkpt><trkpt lat="34.9827989" lon="32.8843678"><ele>922.7</ele><time>2015-04-29T15:46:14.0000000+00:00</time></trkpt><trkpt lat="34.9827438" lon="32.8843448"><ele>923.8</ele><time>2015-04-29T15:46:18.0000000+00:00</time></trkpt><trkpt lat="34.9826934" lon="32.8843288"><ele>920.7</ele><time>2015-04-29T15:46:22.0000000+00:00</time></trkpt><trkpt lat="34.982645" lon="32.8843061"><ele>919.4</ele><time>2015-04-29T15:46:26.0000000+00:00</time></trkpt><trkpt lat="34.9825916" lon="32.8842717"><ele>920.9</ele><time>2015-04-29T15:46:30.0000000+00:00</time></trkpt><trkpt lat="34.9825466" lon="32.8842434"><ele>922.8</ele><time>2015-04-29T15:46:33.0000000+00:00</time></trkpt><trkpt lat="34.9825056" lon="32.8842174"><ele>923.4</ele><time>2015-04-29T15:46:36.0000000+00:00</time></trkpt><trkpt lat="34.9824636" lon="32.884193"><ele>922.8</ele><time>2015-04-29T15:46:39.0000000+00:00</time></trkpt><trkpt lat="34.9824226" lon="32.8841662"><ele>921.9</ele><time>2015-04-29T15:46:42.0000000+00:00</time></trkpt><trkpt lat="34.9823791" lon="32.884134"><ele>922.7</ele><time>2015-04-29T15:46:45.0000000+00:00</time></trkpt><trkpt lat="34.9823352" lon="32.8840942"><ele>922.0</ele><time>2015-04-29T15:46:48.0000000+00:00</time></trkpt><trkpt lat="34.9822878" lon="32.8840575"><ele>923.4</ele><time>2015-04-29T15:46:51.0000000+00:00</time></trkpt><trkpt lat="34.9822536" lon="32.8840014"><ele>924.1</ele><time>2015-04-29T15:46:54.0000000+00:00</time></trkpt><trkpt lat="34.9822097" lon="32.8839558"><ele>923.8</ele><time>2015-04-29T15:46:57.0000000+00:00</time></trkpt><trkpt lat="34.9821603" lon="32.8839108"><ele>923.3</ele><time>2015-04-29T15:47:00.0000000+00:00</time></trkpt><trkpt lat="34.9821212" lon="32.8838603"><ele>923.5</ele><time>2015-04-29T15:47:03.0000000+00:00</time></trkpt><trkpt lat="34.9820994" lon="32.8838057"><ele>923.9</ele><time>2015-04-29T15:47:06.0000000+00:00</time></trkpt><trkpt lat="34.982072" lon="32.8837515"><ele>925.2</ele><time>2015-04-29T15:47:09.0000000+00:00</time></trkpt><trkpt lat="34.9820321" lon="32.8836992"><ele>927.2</ele><time>2015-04-29T15:47:12.0000000+00:00</time></trkpt><trkpt lat="34.981988" lon="32.8836494"><ele>929.1</ele><time>2015-04-29T15:47:15.0000000+00:00</time></trkpt><trkpt lat="34.9819515" lon="32.8836061"><ele>929.9</ele><time>2015-04-29T15:47:18.0000000+00:00</time></trkpt><trkpt lat="34.9819097" lon="32.8835738"><ele>928.2</ele><time>2015-04-29T15:47:21.0000000+00:00</time></trkpt><trkpt lat="34.981869" lon="32.8835415"><ele>926.9</ele><time>2015-04-29T15:47:24.0000000+00:00</time></trkpt><trkpt lat="34.9818313" lon="32.8835098"><ele>926.9</ele><time>2015-04-29T15:47:27.0000000+00:00</time></trkpt><trkpt lat="34.9817987" lon="32.8834684"><ele>927.7</ele><time>2015-04-29T15:47:30.0000000+00:00</time></trkpt><trkpt lat="34.9817588" lon="32.8834428"><ele>926.3</ele><time>2015-04-29T15:47:33.0000000+00:00</time></trkpt><trkpt lat="34.9817079" lon="32.883406"><ele>926.0</ele><time>2015-04-29T15:47:37.0000000+00:00</time></trkpt><trkpt lat="34.9816622" lon="32.8833719"><ele>926.1</ele><time>2015-04-29T15:47:40.0000000+00:00</time></trkpt><trkpt lat="34.9816188" lon="32.8833379"><ele>926.6</ele><time>2015-04-29T15:47:43.0000000+00:00</time></trkpt><trkpt lat="34.9815679" lon="32.8832982"><ele>928.0</ele><time>2015-04-29T15:47:47.0000000+00:00</time></trkpt><trkpt lat="34.9815304" lon="32.8832666"><ele>928.0</ele><time>2015-04-29T15:47:50.0000000+00:00</time></trkpt><trkpt lat="34.9814891" lon="32.8832358"><ele>929.0</ele><time>2015-04-29T15:47:53.0000000+00:00</time></trkpt><trkpt lat="34.9814471" lon="32.8831969"><ele>930.4</ele><time>2015-04-29T15:47:56.0000000+00:00</time></trkpt><trkpt lat="34.9814058" lon="32.8831581"><ele>930.7</ele><time>2015-04-29T15:47:59.0000000+00:00</time></trkpt><trkpt lat="34.9813686" lon="32.8831128"><ele>933.1</ele><time>2015-04-29T15:48:02.0000000+00:00</time></trkpt><trkpt lat="34.981333" lon="32.8830675"><ele>933.3</ele><time>2015-04-29T15:48:05.0000000+00:00</time></trkpt><trkpt lat="34.9812933" lon="32.8830232"><ele>932.6</ele><time>2015-04-29T15:48:08.0000000+00:00</time></trkpt><trkpt lat="34.9812626" lon="32.8829652"><ele>932.2</ele><time>2015-04-29T15:48:11.0000000+00:00</time></trkpt><trkpt lat="34.981217" lon="32.8829255"><ele>932.6</ele><time>2015-04-29T15:48:14.0000000+00:00</time></trkpt><trkpt lat="34.9811696" lon="32.8828906"><ele>932.4</ele><time>2015-04-29T15:48:17.0000000+00:00</time></trkpt><trkpt lat="34.9811379" lon="32.882842"><ele>929.6</ele><time>2015-04-29T15:48:20.0000000+00:00</time></trkpt><trkpt lat="34.9811006" lon="32.8827967"><ele>929.2</ele><time>2015-04-29T15:48:23.0000000+00:00</time></trkpt><trkpt lat="34.9810753" lon="32.8827428"><ele>930.9</ele><time>2015-04-29T15:48:26.0000000+00:00</time></trkpt><trkpt lat="34.9810559" lon="32.8826898"><ele>931.7</ele><time>2015-04-29T15:48:29.0000000+00:00</time></trkpt><trkpt lat="34.9810415" lon="32.8826373"><ele>932.6</ele><time>2015-04-29T15:48:32.0000000+00:00</time></trkpt><trkpt lat="34.9810502" lon="32.8825788"><ele>933.6</ele><time>2015-04-29T15:48:35.0000000+00:00</time></trkpt><trkpt lat="34.9810524" lon="32.8825195"><ele>933.7</ele><time>2015-04-29T15:48:38.0000000+00:00</time></trkpt><trkpt lat="34.9810457" lon="32.8824587"><ele>934.5</ele><time>2015-04-29T15:48:41.0000000+00:00</time></trkpt><trkpt lat="34.981043" lon="32.8823978"><ele>935.2</ele><time>2015-04-29T15:48:44.0000000+00:00</time></trkpt><trkpt lat="34.9810656" lon="32.8823396"><ele>933.1</ele><time>2015-04-29T15:48:47.0000000+00:00</time></trkpt><trkpt lat="34.9810901" lon="32.8822784"><ele>932.1</ele><time>2015-04-29T15:48:50.0000000+00:00</time></trkpt><trkpt lat="34.9811184" lon="32.8822227"><ele>931.9</ele><time>2015-04-29T15:48:53.0000000+00:00</time></trkpt><trkpt lat="34.9811515" lon="32.8821637"><ele>931.5</ele><time>2015-04-29T15:48:56.0000000+00:00</time></trkpt><trkpt lat="34.9811851" lon="32.8821127"><ele>932.6</ele><time>2015-04-29T15:48:59.0000000+00:00</time></trkpt><trkpt lat="34.9812214" lon="32.8820675"><ele>935.0</ele><time>2015-04-29T15:49:02.0000000+00:00</time></trkpt><trkpt lat="34.9812555" lon="32.8820262"><ele>936.2</ele><time>2015-04-29T15:49:05.0000000+00:00</time></trkpt><trkpt lat="34.9812792" lon="32.8819725"><ele>937.4</ele><time>2015-04-29T15:49:08.0000000+00:00</time></trkpt><trkpt lat="34.9813053" lon="32.8819215"><ele>939.3</ele><time>2015-04-29T15:49:11.0000000+00:00</time></trkpt><trkpt lat="34.98134" lon="32.881875"><ele>939.7</ele><time>2015-04-29T15:49:14.0000000+00:00</time></trkpt><trkpt lat="34.9813747" lon="32.8818256"><ele>941.8</ele><time>2015-04-29T15:49:17.0000000+00:00</time></trkpt><trkpt lat="34.9814087" lon="32.8817769"><ele>941.6</ele><time>2015-04-29T15:49:20.0000000+00:00</time></trkpt><trkpt lat="34.9814479" lon="32.8817377"><ele>942.5</ele><time>2015-04-29T15:49:23.0000000+00:00</time></trkpt><trkpt lat="34.9814857" lon="32.8817012"><ele>939.5</ele><time>2015-04-29T15:49:26.0000000+00:00</time></trkpt><trkpt lat="34.9815235" lon="32.8816657"><ele>937.0</ele><time>2015-04-29T15:49:29.0000000+00:00</time></trkpt><trkpt lat="34.9815581" lon="32.8816162"><ele>938.2</ele><time>2015-04-29T15:49:32.0000000+00:00</time></trkpt><trkpt lat="34.9815917" lon="32.8815676"><ele>938.6</ele><time>2015-04-29T15:49:35.0000000+00:00</time></trkpt><trkpt lat="34.9816237" lon="32.8815142"><ele>939.6</ele><time>2015-04-29T15:49:38.0000000+00:00</time></trkpt><trkpt lat="34.9816539" lon="32.8814623"><ele>940.2</ele><time>2015-04-29T15:49:41.0000000+00:00</time></trkpt><trkpt lat="34.9816925" lon="32.8814216"><ele>940.6</ele><time>2015-04-29T15:49:44.0000000+00:00</time></trkpt><trkpt lat="34.9817225" lon="32.8813799"><ele>942.1</ele><time>2015-04-29T15:49:47.0000000+00:00</time></trkpt><trkpt lat="34.9817548" lon="32.8813388"><ele>943.2</ele><time>2015-04-29T15:49:50.0000000+00:00</time></trkpt><trkpt lat="34.9817987" lon="32.8812874"><ele>945.0</ele><time>2015-04-29T15:49:54.0000000+00:00</time></trkpt><trkpt lat="34.9818367" lon="32.8812354"><ele>945.3</ele><time>2015-04-29T15:49:58.0000000+00:00</time></trkpt><trkpt lat="34.981877" lon="32.8811915"><ele>946.0</ele><time>2015-04-29T15:50:02.0000000+00:00</time></trkpt><trkpt lat="34.9819222" lon="32.8811456"><ele>947.2</ele><time>2015-04-29T15:50:06.0000000+00:00</time></trkpt><trkpt lat="34.9819646" lon="32.8811123"><ele>947.2</ele><time>2015-04-29T15:50:09.0000000+00:00</time></trkpt><trkpt lat="34.982013" lon="32.8810889"><ele>947.7</ele><time>2015-04-29T15:50:12.0000000+00:00</time></trkpt><trkpt lat="34.982056" lon="32.8810495"><ele>948.3</ele><time>2015-04-29T15:50:15.0000000+00:00</time></trkpt><trkpt lat="34.982095" lon="32.8810079"><ele>948.5</ele><time>2015-04-29T15:50:18.0000000+00:00</time></trkpt><trkpt lat="34.9821362" lon="32.8809685"><ele>949.0</ele><time>2015-04-29T15:50:21.0000000+00:00</time></trkpt><trkpt lat="34.9821734" lon="32.8809285"><ele>948.0</ele><time>2015-04-29T15:50:24.0000000+00:00</time></trkpt><trkpt lat="34.982213" lon="32.880886"><ele>947.4</ele><time>2015-04-29T15:50:28.0000000+00:00</time></trkpt><trkpt lat="34.9822509" lon="32.8808564"><ele>947.7</ele><time>2015-04-29T15:50:32.0000000+00:00</time></trkpt><trkpt lat="34.9822897" lon="32.8808154"><ele>947.8</ele><time>2015-04-29T15:50:36.0000000+00:00</time></trkpt><trkpt lat="34.982328" lon="32.8807688"><ele>948.5</ele><time>2015-04-29T15:50:40.0000000+00:00</time></trkpt><trkpt lat="34.982346" lon="32.8807142"><ele>949.3</ele><time>2015-04-29T15:50:44.0000000+00:00</time></trkpt><trkpt lat="34.982367" lon="32.8806466"><ele>950.2</ele><time>2015-04-29T15:50:48.0000000+00:00</time></trkpt><trkpt lat="34.9823909" lon="32.8805804"><ele>950.7</ele><time>2015-04-29T15:50:52.0000000+00:00</time></trkpt><trkpt lat="34.9824038" lon="32.8805116"><ele>951.7</ele><time>2015-04-29T15:50:56.0000000+00:00</time></trkpt><trkpt lat="34.9824179" lon="32.8804446"><ele>951.8</ele><time>2015-04-29T15:51:00.0000000+00:00</time></trkpt><trkpt lat="34.9824347" lon="32.8803749"><ele>952.3</ele><time>2015-04-29T15:51:04.0000000+00:00</time></trkpt><trkpt lat="34.9824365" lon="32.8803159"><ele>952.2</ele><time>2015-04-29T15:51:08.0000000+00:00</time></trkpt><trkpt lat="34.9824372" lon="32.8802525"><ele>949.8</ele><time>2015-04-29T15:51:12.0000000+00:00</time></trkpt><trkpt lat="34.9824457" lon="32.8801867"><ele>949.6</ele><time>2015-04-29T15:51:16.0000000+00:00</time></trkpt><trkpt lat="34.9824276" lon="32.8801324"><ele>950.6</ele><time>2015-04-29T15:51:19.0000000+00:00</time></trkpt><trkpt lat="34.9824074" lon="32.8800774"><ele>950.7</ele><time>2015-04-29T15:51:22.0000000+00:00</time></trkpt><trkpt lat="34.9823954" lon="32.8800222"><ele>951.6</ele><time>2015-04-29T15:51:25.0000000+00:00</time></trkpt><trkpt lat="34.982376" lon="32.879964"><ele>952.1</ele><time>2015-04-29T15:51:28.0000000+00:00</time></trkpt><trkpt lat="34.9823493" lon="32.879917"><ele>952.7</ele><time>2015-04-29T15:51:31.0000000+00:00</time></trkpt><trkpt lat="34.9823089" lon="32.8798746"><ele>952.8</ele><time>2015-04-29T15:51:35.0000000+00:00</time></trkpt><trkpt lat="34.982283" lon="32.8798207"><ele>953.5</ele><time>2015-04-29T15:51:39.0000000+00:00</time></trkpt><trkpt lat="34.9822547" lon="32.8797645"><ele>954.6</ele><time>2015-04-29T15:51:43.0000000+00:00</time></trkpt><trkpt lat="34.982212" lon="32.8797166"><ele>955.5</ele><time>2015-04-29T15:51:47.0000000+00:00</time></trkpt><trkpt lat="34.9821757" lon="32.8796681"><ele>956.4</ele><time>2015-04-29T15:51:51.0000000+00:00</time></trkpt><trkpt lat="34.9821543" lon="32.8796062"><ele>956.0</ele><time>2015-04-29T15:51:55.0000000+00:00</time></trkpt><trkpt lat="34.9821263" lon="32.8795425"><ele>955.8</ele><time>2015-04-29T15:51:59.0000000+00:00</time></trkpt><trkpt lat="34.9820927" lon="32.8795003"><ele>954.0</ele><time>2015-04-29T15:52:02.0000000+00:00</time></trkpt><trkpt lat="34.9820803" lon="32.8794337"><ele>954.1</ele><time>2015-04-29T15:52:06.0000000+00:00</time></trkpt><trkpt lat="34.9820845" lon="32.879361"><ele>955.2</ele><time>2015-04-29T15:52:10.0000000+00:00</time></trkpt><trkpt lat="34.9820918" lon="32.8792994"><ele>956.4</ele><time>2015-04-29T15:52:13.0000000+00:00</time></trkpt><trkpt lat="34.982097" lon="32.8792424"><ele>957.2</ele><time>2015-04-29T15:52:16.0000000+00:00</time></trkpt><trkpt lat="34.9821049" lon="32.879188"><ele>957.7</ele><time>2015-04-29T15:52:19.0000000+00:00</time></trkpt><trkpt lat="34.9821236" lon="32.8791314"><ele>958.5</ele><time>2015-04-29T15:52:23.0000000+00:00</time></trkpt><trkpt lat="34.9821534" lon="32.8790846"><ele>958.4</ele><time>2015-04-29T15:52:27.0000000+00:00</time></trkpt><trkpt lat="34.9821903" lon="32.8790451"><ele>960.1</ele><time>2015-04-29T15:52:31.0000000+00:00</time></trkpt><trkpt lat="34.9822252" lon="32.8789954"><ele>962.4</ele><time>2015-04-29T15:52:35.0000000+00:00</time></trkpt><trkpt lat="34.9822371" lon="32.8789413"><ele>963.1</ele><time>2015-04-29T15:52:38.0000000+00:00</time></trkpt><trkpt lat="34.9822592" lon="32.8788922"><ele>964.1</ele><time>2015-04-29T15:52:41.0000000+00:00</time></trkpt><trkpt lat="34.9822789" lon="32.8788241"><ele>963.8</ele><time>2015-04-29T15:52:45.0000000+00:00</time></trkpt><trkpt lat="34.9822873" lon="32.8787663"><ele>964.6</ele><time>2015-04-29T15:52:49.0000000+00:00</time></trkpt><trkpt lat="34.9823017" lon="32.8787036"><ele>964.8</ele><time>2015-04-29T15:52:53.0000000+00:00</time></trkpt><trkpt lat="34.9823114" lon="32.8786313"><ele>965.6</ele><time>2015-04-29T15:52:57.0000000+00:00</time></trkpt><trkpt lat="34.9822964" lon="32.8785795"><ele>966.2</ele><time>2015-04-29T15:53:00.0000000+00:00</time></trkpt><trkpt lat="34.9822726" lon="32.8785141"><ele>965.5</ele><time>2015-04-29T15:53:04.0000000+00:00</time></trkpt><trkpt lat="34.9822532" lon="32.8784574"><ele>963.4</ele><time>2015-04-29T15:53:08.0000000+00:00</time></trkpt><trkpt lat="34.9822257" lon="32.8784061"><ele>964.5</ele><time>2015-04-29T15:53:12.0000000+00:00</time></trkpt><trkpt lat="34.9822012" lon="32.878347"><ele>965.9</ele><time>2015-04-29T15:53:16.0000000+00:00</time></trkpt><trkpt lat="34.9821798" lon="32.8782869"><ele>969.6</ele><time>2015-04-29T15:53:20.0000000+00:00</time></trkpt><trkpt lat="34.9821601" lon="32.878231"><ele>969.7</ele><time>2015-04-29T15:53:25.0000000+00:00</time></trkpt><trkpt lat="34.982124" lon="32.8781894"><ele>968.5</ele><time>2015-04-29T15:53:29.0000000+00:00</time></trkpt><trkpt lat="34.9820961" lon="32.8781344"><ele>966.8</ele><time>2015-04-29T15:53:34.0000000+00:00</time></trkpt><trkpt lat="34.9820777" lon="32.8780803"><ele>965.1</ele><time>2015-04-29T15:53:38.0000000+00:00</time></trkpt><trkpt lat="34.9820533" lon="32.8780211"><ele>963.6</ele><time>2015-04-29T15:53:43.0000000+00:00</time></trkpt><trkpt lat="34.9820385" lon="32.877962"><ele>964.7</ele><time>2015-04-29T15:53:47.0000000+00:00</time></trkpt><trkpt lat="34.9820044" lon="32.8779176"><ele>965.1</ele><time>2015-04-29T15:53:51.0000000+00:00</time></trkpt><trkpt lat="34.9819775" lon="32.8778649"><ele>965.0</ele><time>2015-04-29T15:53:55.0000000+00:00</time></trkpt><trkpt lat="34.9819566" lon="32.8778099"><ele>965.1</ele><time>2015-04-29T15:53:59.0000000+00:00</time></trkpt><trkpt lat="34.9819341" lon="32.8777526"><ele>968.2</ele><time>2015-04-29T15:54:03.0000000+00:00</time></trkpt><trkpt lat="34.9819006" lon="32.8776957"><ele>969.4</ele><time>2015-04-29T15:54:07.0000000+00:00</time></trkpt><trkpt lat="34.9818766" lon="32.8776434"><ele>973.6</ele><time>2015-04-29T15:54:10.0000000+00:00</time></trkpt><trkpt lat="34.9818542" lon="32.8775822"><ele>974.7</ele><time>2015-04-29T15:54:13.0000000+00:00</time></trkpt><trkpt lat="34.9818282" lon="32.8775241"><ele>974.3</ele><time>2015-04-29T15:54:16.0000000+00:00</time></trkpt><trkpt lat="34.9817964" lon="32.8774673"><ele>974.0</ele><time>2015-04-29T15:54:19.0000000+00:00</time></trkpt><trkpt lat="34.9817643" lon="32.8773953"><ele>974.0</ele><time>2015-04-29T15:54:22.0000000+00:00</time></trkpt><trkpt lat="34.9817406" lon="32.8773406"><ele>974.6</ele><time>2015-04-29T15:54:24.0000000+00:00</time></trkpt><trkpt lat="34.9817173" lon="32.8772874"><ele>973.5</ele><time>2015-04-29T15:54:26.0000000+00:00</time></trkpt><trkpt lat="34.9816943" lon="32.877237"><ele>973.7</ele><time>2015-04-29T15:54:28.0000000+00:00</time></trkpt><trkpt lat="34.981676" lon="32.8771686"><ele>975.0</ele><time>2015-04-29T15:54:31.0000000+00:00</time></trkpt><trkpt lat="34.9816588" lon="32.8771073"><ele>975.6</ele><time>2015-04-29T15:54:35.0000000+00:00</time></trkpt><trkpt lat="34.9816239" lon="32.8770716"><ele>973.6</ele><time>2015-04-29T15:54:39.0000000+00:00</time></trkpt><trkpt lat="34.9816099" lon="32.8770032"><ele>973.2</ele><time>2015-04-29T15:54:44.0000000+00:00</time></trkpt><trkpt lat="34.9815966" lon="32.876945"><ele>973.7</ele><time>2015-04-29T15:54:48.0000000+00:00</time></trkpt><trkpt lat="34.9815854" lon="32.8768905"><ele>972.5</ele><time>2015-04-29T15:54:52.0000000+00:00</time></trkpt><trkpt lat="34.9816188" lon="32.8768522"><ele>973.0</ele><time>2015-04-29T15:55:04.0000000+00:00</time></trkpt><trkpt lat="34.9816179" lon="32.876792"><ele>975.0</ele><time>2015-04-29T15:55:08.0000000+00:00</time></trkpt><trkpt lat="34.9815953" lon="32.8767361"><ele>976.5</ele><time>2015-04-29T15:55:12.0000000+00:00</time></trkpt><trkpt lat="34.9815841" lon="32.8766694"><ele>978.9</ele><time>2015-04-29T15:55:16.0000000+00:00</time></trkpt><trkpt lat="34.9815742" lon="32.8766027"><ele>980.2</ele><time>2015-04-29T15:55:20.0000000+00:00</time></trkpt><trkpt lat="34.9815631" lon="32.8765356"><ele>979.9</ele><time>2015-04-29T15:55:24.0000000+00:00</time></trkpt><trkpt lat="34.9815574" lon="32.8764783"><ele>981.1</ele><time>2015-04-29T15:55:28.0000000+00:00</time></trkpt><trkpt lat="34.9815431" lon="32.8764258"><ele>980.0</ele><time>2015-04-29T15:55:32.0000000+00:00</time></trkpt><trkpt lat="34.9815394" lon="32.876365"><ele>979.8</ele><time>2015-04-29T15:55:36.0000000+00:00</time></trkpt><trkpt lat="34.9815393" lon="32.876309"><ele>979.3</ele><time>2015-04-29T15:55:40.0000000+00:00</time></trkpt><trkpt lat="34.9815205" lon="32.8762439"><ele>980.7</ele><time>2015-04-29T15:55:45.0000000+00:00</time></trkpt><trkpt lat="34.9815238" lon="32.8761868"><ele>981.7</ele><time>2015-04-29T15:55:49.0000000+00:00</time></trkpt><trkpt lat="34.9815162" lon="32.8761326"><ele>980.4</ele><time>2015-04-29T15:55:53.0000000+00:00</time></trkpt><trkpt lat="34.9815201" lon="32.876071"><ele>979.9</ele><time>2015-04-29T15:55:57.0000000+00:00</time></trkpt><trkpt lat="34.9815236" lon="32.8760162"><ele>981.5</ele><time>2015-04-29T15:56:00.0000000+00:00</time></trkpt><trkpt lat="34.9815204" lon="32.8759436"><ele>982.1</ele><time>2015-04-29T15:56:04.0000000+00:00</time></trkpt><trkpt lat="34.9815138" lon="32.8758709"><ele>981.9</ele><time>2015-04-29T15:56:08.0000000+00:00</time></trkpt><trkpt lat="34.9815088" lon="32.8758007"><ele>982.7</ele><time>2015-04-29T15:56:12.0000000+00:00</time></trkpt><trkpt lat="34.9815038" lon="32.8757348"><ele>983.3</ele><time>2015-04-29T15:56:16.0000000+00:00</time></trkpt><trkpt lat="34.9814949" lon="32.8756754"><ele>985.1</ele><time>2015-04-29T15:56:20.0000000+00:00</time></trkpt><trkpt lat="34.9815002" lon="32.8756188"><ele>987.2</ele><time>2015-04-29T15:56:24.0000000+00:00</time></trkpt><trkpt lat="34.981502" lon="32.8755551"><ele>986.5</ele><time>2015-04-29T15:56:29.0000000+00:00</time></trkpt><trkpt lat="34.98149" lon="32.875498"><ele>985.9</ele><time>2015-04-29T15:56:33.0000000+00:00</time></trkpt><trkpt lat="34.981486" lon="32.8754349"><ele>985.8</ele><time>2015-04-29T15:56:37.0000000+00:00</time></trkpt><trkpt lat="34.9814795" lon="32.8753754"><ele>988.1</ele><time>2015-04-29T15:56:41.0000000+00:00</time></trkpt><trkpt lat="34.9814758" lon="32.8753117"><ele>989.5</ele><time>2015-04-29T15:56:45.0000000+00:00</time></trkpt><trkpt lat="34.9814652" lon="32.8752555"><ele>988.2</ele><time>2015-04-29T15:56:49.0000000+00:00</time></trkpt><trkpt lat="34.9814649" lon="32.8751963"><ele>988.2</ele><time>2015-04-29T15:56:53.0000000+00:00</time></trkpt><trkpt lat="34.9814878" lon="32.8751369"><ele>987.5</ele><time>2015-04-29T15:56:57.0000000+00:00</time></trkpt><trkpt lat="34.9814994" lon="32.875077"><ele>988.5</ele><time>2015-04-29T15:57:01.0000000+00:00</time></trkpt><trkpt lat="34.9815089" lon="32.8750149"><ele>990.4</ele><time>2015-04-29T15:57:05.0000000+00:00</time></trkpt><trkpt lat="34.9815283" lon="32.8749568"><ele>991.6</ele><time>2015-04-29T15:57:09.0000000+00:00</time></trkpt><trkpt lat="34.9815444" lon="32.8748923"><ele>990.6</ele><time>2015-04-29T15:57:13.0000000+00:00</time></trkpt><trkpt lat="34.9815613" lon="32.8748344"><ele>991.7</ele><time>2015-04-29T15:57:17.0000000+00:00</time></trkpt><trkpt lat="34.9815901" lon="32.8747865"><ele>993.4</ele><time>2015-04-29T15:57:21.0000000+00:00</time></trkpt><trkpt lat="34.9816207" lon="32.87474"><ele>995.4</ele><time>2015-04-29T15:57:25.0000000+00:00</time></trkpt><trkpt lat="34.9816553" lon="32.8747002"><ele>997.4</ele><time>2015-04-29T15:57:29.0000000+00:00</time></trkpt><trkpt lat="34.9816987" lon="32.8746622"><ele>997.8</ele><time>2015-04-29T15:57:34.0000000+00:00</time></trkpt><trkpt lat="34.9817337" lon="32.8746246"><ele>996.8</ele><time>2015-04-29T15:57:38.0000000+00:00</time></trkpt><trkpt lat="34.9817724" lon="32.8745872"><ele>997.3</ele><time>2015-04-29T15:57:42.0000000+00:00</time></trkpt><trkpt lat="34.9818202" lon="32.874558"><ele>996.9</ele><time>2015-04-29T15:57:46.0000000+00:00</time></trkpt><trkpt lat="34.9818626" lon="32.874535"><ele>997.6</ele><time>2015-04-29T15:57:50.0000000+00:00</time></trkpt><trkpt lat="34.9819111" lon="32.8745182"><ele>998.3</ele><time>2015-04-29T15:57:55.0000000+00:00</time></trkpt><trkpt lat="34.9819606" lon="32.8745023"><ele>1001.8</ele><time>2015-04-29T15:58:00.0000000+00:00</time></trkpt><trkpt lat="34.9820099" lon="32.8745026"><ele>1001.6</ele><time>2015-04-29T15:58:04.0000000+00:00</time></trkpt><trkpt lat="34.982063" lon="32.874512"><ele>1002.4</ele><time>2015-04-29T15:58:09.0000000+00:00</time></trkpt><trkpt lat="34.9821074" lon="32.8745222"><ele>1002.7</ele><time>2015-04-29T15:58:13.0000000+00:00</time></trkpt><trkpt lat="34.9821618" lon="32.8745258"><ele>1001.1</ele><time>2015-04-29T15:58:17.0000000+00:00</time></trkpt><trkpt lat="34.9822124" lon="32.8745438"><ele>1001.7</ele><time>2015-04-29T15:58:21.0000000+00:00</time></trkpt><trkpt lat="34.9822559" lon="32.8745621"><ele>1001.6</ele><time>2015-04-29T15:58:25.0000000+00:00</time></trkpt><trkpt lat="34.9823046" lon="32.8745649"><ele>1000.8</ele><time>2015-04-29T15:58:30.0000000+00:00</time></trkpt><trkpt lat="34.9823571" lon="32.8745771"><ele>1000.6</ele><time>2015-04-29T15:58:35.0000000+00:00</time></trkpt><trkpt lat="34.9824056" lon="32.8745921"><ele>1000.0</ele><time>2015-04-29T15:58:40.0000000+00:00</time></trkpt><trkpt lat="34.9824496" lon="32.8745735"><ele>1000.7</ele><time>2015-04-29T15:58:44.0000000+00:00</time></trkpt><trkpt lat="34.9824958" lon="32.87457"><ele>999.8</ele><time>2015-04-29T15:58:48.0000000+00:00</time></trkpt><trkpt lat="34.9825377" lon="32.8745468"><ele>1001.3</ele><time>2015-04-29T15:58:52.0000000+00:00</time></trkpt><trkpt lat="34.9825858" lon="32.8745386"><ele>1002.2</ele><time>2015-04-29T15:58:56.0000000+00:00</time></trkpt><trkpt lat="34.9826395" lon="32.8745202"><ele>1004.6</ele><time>2015-04-29T15:59:01.0000000+00:00</time></trkpt><trkpt lat="34.9826849" lon="32.8744991"><ele>1005.0</ele><time>2015-04-29T15:59:06.0000000+00:00</time></trkpt><trkpt lat="34.9827313" lon="32.874469"><ele>1005.5</ele><time>2015-04-29T15:59:11.0000000+00:00</time></trkpt><trkpt lat="34.9827711" lon="32.8744217"><ele>1006.5</ele><time>2015-04-29T15:59:16.0000000+00:00</time></trkpt><trkpt lat="34.9828123" lon="32.8743835"><ele>1006.3</ele><time>2015-04-29T15:59:21.0000000+00:00</time></trkpt><trkpt lat="34.9828312" lon="32.8743236"><ele>1005.7</ele><time>2015-04-29T15:59:26.0000000+00:00</time></trkpt><trkpt lat="34.9828465" lon="32.8742707"><ele>1006.3</ele><time>2015-04-29T15:59:30.0000000+00:00</time></trkpt><trkpt lat="34.9828606" lon="32.8742087"><ele>1007.1</ele><time>2015-04-29T15:59:34.0000000+00:00</time></trkpt><trkpt lat="34.9828791" lon="32.8741515"><ele>1009.3</ele><time>2015-04-29T15:59:38.0000000+00:00</time></trkpt><trkpt lat="34.9828996" lon="32.8740945"><ele>1010.3</ele><time>2015-04-29T15:59:43.0000000+00:00</time></trkpt><trkpt lat="34.982907" lon="32.8740294"><ele>1010.7</ele><time>2015-04-29T15:59:48.0000000+00:00</time></trkpt><trkpt lat="34.9829145" lon="32.873965"><ele>1010.6</ele><time>2015-04-29T15:59:53.0000000+00:00</time></trkpt><trkpt lat="34.9829063" lon="32.873906"><ele>1011.7</ele><time>2015-04-29T15:59:57.0000000+00:00</time></trkpt><trkpt lat="34.9829019" lon="32.8738475"><ele>1011.8</ele><time>2015-04-29T16:00:01.0000000+00:00</time></trkpt><trkpt lat="34.9829016" lon="32.8737921"><ele>1011.5</ele><time>2015-04-29T16:00:05.0000000+00:00</time></trkpt><trkpt lat="34.9828984" lon="32.873731"><ele>1013.6</ele><time>2015-04-29T16:00:09.0000000+00:00</time></trkpt><trkpt lat="34.9828886" lon="32.8736691"><ele>1013.8</ele><time>2015-04-29T16:00:13.0000000+00:00</time></trkpt><trkpt lat="34.9828846" lon="32.8736065"><ele>1015.1</ele><time>2015-04-29T16:00:17.0000000+00:00</time></trkpt><trkpt lat="34.9828771" lon="32.8735374"><ele>1015.5</ele><time>2015-04-29T16:00:21.0000000+00:00</time></trkpt><trkpt lat="34.9828742" lon="32.8734678"><ele>1017.4</ele><time>2015-04-29T16:00:25.0000000+00:00</time></trkpt><trkpt lat="34.9828894" lon="32.8734106"><ele>1018.3</ele><time>2015-04-29T16:00:29.0000000+00:00</time></trkpt><trkpt lat="34.9828967" lon="32.8733539"><ele>1019.7</ele><time>2015-04-29T16:00:33.0000000+00:00</time></trkpt><trkpt lat="34.9829034" lon="32.8732922"><ele>1019.0</ele><time>2015-04-29T16:00:37.0000000+00:00</time></trkpt><trkpt lat="34.9829116" lon="32.8732309"><ele>1019.7</ele><time>2015-04-29T16:00:41.0000000+00:00</time></trkpt><trkpt lat="34.9829224" lon="32.8731767"><ele>1019.8</ele><time>2015-04-29T16:00:45.0000000+00:00</time></trkpt><trkpt lat="34.9829252" lon="32.873121"><ele>1019.3</ele><time>2015-04-29T16:00:49.0000000+00:00</time></trkpt><trkpt lat="34.9829296" lon="32.8730547"><ele>1017.8</ele><time>2015-04-29T16:00:54.0000000+00:00</time></trkpt><trkpt lat="34.9829338" lon="32.8729884"><ele>1019.0</ele><time>2015-04-29T16:00:59.0000000+00:00</time></trkpt><trkpt lat="34.9829529" lon="32.8729352"><ele>1018.7</ele><time>2015-04-29T16:01:03.0000000+00:00</time></trkpt><trkpt lat="34.9829785" lon="32.8728771"><ele>1018.8</ele><time>2015-04-29T16:01:07.0000000+00:00</time></trkpt><trkpt lat="34.983006" lon="32.8728265"><ele>1018.3</ele><time>2015-04-29T16:01:11.0000000+00:00</time></trkpt><trkpt lat="34.9830325" lon="32.8727746"><ele>1018.7</ele><time>2015-04-29T16:01:15.0000000+00:00</time></trkpt><trkpt lat="34.9830603" lon="32.8727211"><ele>1017.9</ele><time>2015-04-29T16:01:19.0000000+00:00</time></trkpt><trkpt lat="34.983078" lon="32.8726657"><ele>1017.8</ele><time>2015-04-29T16:01:23.0000000+00:00</time></trkpt><trkpt lat="34.9830842" lon="32.8725975"><ele>1018.5</ele><time>2015-04-29T16:01:28.0000000+00:00</time></trkpt><trkpt lat="34.9830782" lon="32.8725429"><ele>1019.4</ele><time>2015-04-29T16:01:32.0000000+00:00</time></trkpt><trkpt lat="34.9830711" lon="32.8724858"><ele>1020.4</ele><time>2015-04-29T16:01:36.0000000+00:00</time></trkpt><trkpt lat="34.9830545" lon="32.8724192"><ele>1022.1</ele><time>2015-04-29T16:01:40.0000000+00:00</time></trkpt><trkpt lat="34.9830346" lon="32.872358"><ele>1023.2</ele><time>2015-04-29T16:01:44.0000000+00:00</time></trkpt><trkpt lat="34.9829982" lon="32.8723114"><ele>1024.0</ele><time>2015-04-29T16:01:48.0000000+00:00</time></trkpt><trkpt lat="34.9829596" lon="32.8722723"><ele>1023.7</ele><time>2015-04-29T16:01:52.0000000+00:00</time></trkpt><trkpt lat="34.9829106" lon="32.8722466"><ele>1022.9</ele><time>2015-04-29T16:01:56.0000000+00:00</time></trkpt><trkpt lat="34.9828654" lon="32.8722138"><ele>1022.8</ele><time>2015-04-29T16:02:00.0000000+00:00</time></trkpt><trkpt lat="34.9828192" lon="32.8721822"><ele>1024.5</ele><time>2015-04-29T16:02:04.0000000+00:00</time></trkpt><trkpt lat="34.9827705" lon="32.872155"><ele>1023.5</ele><time>2015-04-29T16:02:08.0000000+00:00</time></trkpt><trkpt lat="34.9827513" lon="32.8721024"><ele>1025.7</ele><time>2015-04-29T16:10:15.0000000+00:00</time></trkpt><trkpt lat="34.9827012" lon="32.8720714"><ele>1027.6</ele><time>2015-04-29T16:10:20.0000000+00:00</time></trkpt><trkpt lat="34.9826681" lon="32.8720312"><ele>1029.4</ele><time>2015-04-29T16:10:24.0000000+00:00</time></trkpt><trkpt lat="34.9826532" lon="32.8719766"><ele>1029.7</ele><time>2015-04-29T16:10:28.0000000+00:00</time></trkpt><trkpt lat="34.9826291" lon="32.8719174"><ele>1029.8</ele><time>2015-04-29T16:10:33.0000000+00:00</time></trkpt><trkpt lat="34.9826003" lon="32.8718719"><ele>1030.5</ele><time>2015-04-29T16:10:37.0000000+00:00</time></trkpt><trkpt lat="34.9825912" lon="32.871808"><ele>1030.4</ele><time>2015-04-29T16:10:42.0000000+00:00</time></trkpt><trkpt lat="34.9825927" lon="32.8717518"><ele>1030.7</ele><time>2015-04-29T16:10:46.0000000+00:00</time></trkpt><trkpt lat="34.9825943" lon="32.8716933"><ele>1031.6</ele><time>2015-04-29T16:10:50.0000000+00:00</time></trkpt><trkpt lat="34.9825998" lon="32.8716351"><ele>1030.9</ele><time>2015-04-29T16:10:54.0000000+00:00</time></trkpt><trkpt lat="34.9826019" lon="32.8715796"><ele>1031.7</ele><time>2015-04-29T16:10:58.0000000+00:00</time></trkpt><trkpt lat="34.9826036" lon="32.871513"><ele>1031.8</ele><time>2015-04-29T16:11:03.0000000+00:00</time></trkpt><trkpt lat="34.9826233" lon="32.8714491"><ele>1032.5</ele><time>2015-04-29T16:11:08.0000000+00:00</time></trkpt><trkpt lat="34.9826344" lon="32.871383"><ele>1032.8</ele><time>2015-04-29T16:11:13.0000000+00:00</time></trkpt><trkpt lat="34.9826432" lon="32.871316"><ele>1033.3</ele><time>2015-04-29T16:11:18.0000000+00:00</time></trkpt><trkpt lat="34.9826712" lon="32.8712676"><ele>1034.6</ele><time>2015-04-29T16:11:22.0000000+00:00</time></trkpt><trkpt lat="34.9826828" lon="32.8712084"><ele>1034.8</ele><time>2015-04-29T16:11:26.0000000+00:00</time></trkpt><trkpt lat="34.9827" lon="32.8711534"><ele>1035.6</ele><time>2015-04-29T16:11:30.0000000+00:00</time></trkpt><trkpt lat="34.9827148" lon="32.8710976"><ele>1036.5</ele><time>2015-04-29T16:11:34.0000000+00:00</time></trkpt><trkpt lat="34.9827235" lon="32.8710393"><ele>1036.7</ele><time>2015-04-29T16:11:38.0000000+00:00</time></trkpt><trkpt lat="34.9827353" lon="32.8709827"><ele>1037.3</ele><time>2015-04-29T16:11:42.0000000+00:00</time></trkpt><trkpt lat="34.9827484" lon="32.8709278"><ele>1037.7</ele><time>2015-04-29T16:11:46.0000000+00:00</time></trkpt><trkpt lat="34.9827583" lon="32.8708702"><ele>1037.8</ele><time>2015-04-29T16:11:50.0000000+00:00</time></trkpt><trkpt lat="34.9827578" lon="32.8708094"><ele>1038.7</ele><time>2015-04-29T16:11:54.0000000+00:00</time></trkpt><trkpt lat="34.9827661" lon="32.8707476"><ele>1039.3</ele><time>2015-04-29T16:11:58.0000000+00:00</time></trkpt><trkpt lat="34.9827693" lon="32.8706904"><ele>1039.7</ele><time>2015-04-29T16:12:02.0000000+00:00</time></trkpt><trkpt lat="34.9827676" lon="32.8706326"><ele>1039.8</ele><time>2015-04-29T16:12:06.0000000+00:00</time></trkpt><trkpt lat="34.982773" lon="32.8705762"><ele>1040.3</ele><time>2015-04-29T16:12:10.0000000+00:00</time></trkpt><trkpt lat="34.9827854" lon="32.8705228"><ele>1040.7</ele><time>2015-04-29T16:12:14.0000000+00:00</time></trkpt><trkpt lat="34.982797" lon="32.8704621"><ele>1041.3</ele><time>2015-04-29T16:12:19.0000000+00:00</time></trkpt><trkpt lat="34.982828" lon="32.8704209"><ele>1042.2</ele><time>2015-04-29T16:12:23.0000000+00:00</time></trkpt><trkpt lat="34.9828278" lon="32.8703644"><ele>1041.8</ele><time>2015-04-29T16:12:27.0000000+00:00</time></trkpt><trkpt lat="34.9828772" lon="32.8703342"><ele>1041.8</ele><time>2015-04-29T16:12:32.0000000+00:00</time></trkpt><trkpt lat="34.9828954" lon="32.8702799"><ele>1041.8</ele><time>2015-04-29T16:12:36.0000000+00:00</time></trkpt><trkpt lat="34.9829172" lon="32.8702232"><ele>1041.8</ele><time>2015-04-29T16:12:40.0000000+00:00</time></trkpt><trkpt lat="34.9829442" lon="32.8701714"><ele>1042.3</ele><time>2015-04-29T16:12:44.0000000+00:00</time></trkpt><trkpt lat="34.9829827" lon="32.8701324"><ele>1042.7</ele><time>2015-04-29T16:12:48.0000000+00:00</time></trkpt><trkpt lat="34.9830184" lon="32.8700872"><ele>1043.5</ele><time>2015-04-29T16:12:52.0000000+00:00</time></trkpt><trkpt lat="34.9830494" lon="32.8700435"><ele>1043.7</ele><time>2015-04-29T16:12:56.0000000+00:00</time></trkpt><trkpt lat="34.9830902" lon="32.869997"><ele>1043.8</ele><time>2015-04-29T16:13:01.0000000+00:00</time></trkpt><trkpt lat="34.9831311" lon="32.8699569"><ele>1043.8</ele><time>2015-04-29T16:13:06.0000000+00:00</time></trkpt><trkpt lat="34.9831556" lon="32.8699039"><ele>1044.7</ele><time>2015-04-29T16:13:12.0000000+00:00</time></trkpt><trkpt lat="34.9831791" lon="32.8698481"><ele>1045.6</ele><time>2015-04-29T16:13:18.0000000+00:00</time></trkpt><trkpt lat="34.9832045" lon="32.8697982"><ele>1046.3</ele><time>2015-04-29T16:13:24.0000000+00:00</time></trkpt><trkpt lat="34.9832296" lon="32.8697454"><ele>1047.4</ele><time>2015-04-29T16:13:30.0000000+00:00</time></trkpt><trkpt lat="34.9832524" lon="32.8696917"><ele>1048.3</ele><time>2015-04-29T16:13:36.0000000+00:00</time></trkpt><trkpt lat="34.9832846" lon="32.8696456"><ele>1049.7</ele><time>2015-04-29T16:13:42.0000000+00:00</time></trkpt><trkpt lat="34.9832932" lon="32.8695836"><ele>1049.4</ele><time>2015-04-29T16:13:48.0000000+00:00</time></trkpt><trkpt lat="34.9833069" lon="32.869531"><ele>1049.8</ele><time>2015-04-29T16:13:53.0000000+00:00</time></trkpt><trkpt lat="34.9833325" lon="32.8694813"><ele>1050.7</ele><time>2015-04-29T16:13:58.0000000+00:00</time></trkpt><trkpt lat="34.9833525" lon="32.8694319"><ele>1051.3</ele><time>2015-04-29T16:14:03.0000000+00:00</time></trkpt><trkpt lat="34.9833626" lon="32.8693779"><ele>1050.8</ele><time>2015-04-29T16:14:08.0000000+00:00</time></trkpt><trkpt lat="34.9833814" lon="32.8693229"><ele>1051.7</ele><time>2015-04-29T16:14:13.0000000+00:00</time></trkpt><trkpt lat="34.9833967" lon="32.8692694"><ele>1051.8</ele><time>2015-04-29T16:14:18.0000000+00:00</time></trkpt><trkpt lat="34.9833964" lon="32.8692108"><ele>1052.0</ele><time>2015-04-29T16:14:23.0000000+00:00</time></trkpt><trkpt lat="34.9834054" lon="32.8691471"><ele>1053.0</ele><time>2015-04-29T16:14:29.0000000+00:00</time></trkpt><trkpt lat="34.9834022" lon="32.8690879"><ele>1052.8</ele><time>2015-04-29T16:14:34.0000000+00:00</time></trkpt><trkpt lat="34.9834017" lon="32.8690259"><ele>1053.4</ele><time>2015-04-29T16:14:39.0000000+00:00</time></trkpt><trkpt lat="34.9833816" lon="32.8689654"><ele>1053.8</ele><time>2015-04-29T16:14:44.0000000+00:00</time></trkpt><trkpt lat="34.9833661" lon="32.8689001"><ele>1054.6</ele><time>2015-04-29T16:14:54.0000000+00:00</time></trkpt><trkpt lat="34.9833478" lon="32.8688387"><ele>1054.8</ele><time>2015-04-29T16:14:58.0000000+00:00</time></trkpt><trkpt lat="34.9833315" lon="32.8687787"><ele>1055.7</ele><time>2015-04-29T16:15:02.0000000+00:00</time></trkpt><trkpt lat="34.9833103" lon="32.868723"><ele>1055.8</ele><time>2015-04-29T16:15:06.0000000+00:00</time></trkpt><trkpt lat="34.9832888" lon="32.8686693"><ele>1056.7</ele><time>2015-04-29T16:15:10.0000000+00:00</time></trkpt><trkpt lat="34.9832713" lon="32.8686163"><ele>1057.7</ele><time>2015-04-29T16:15:14.0000000+00:00</time></trkpt><trkpt lat="34.9832441" lon="32.8685668"><ele>1057.8</ele><time>2015-04-29T16:15:18.0000000+00:00</time></trkpt><trkpt lat="34.983218" lon="32.8685168"><ele>1058.5</ele><time>2015-04-29T16:15:22.0000000+00:00</time></trkpt><trkpt lat="34.9831944" lon="32.8684656"><ele>1058.7</ele><time>2015-04-29T16:15:26.0000000+00:00</time></trkpt><trkpt lat="34.9831702" lon="32.8684177"><ele>1058.8</ele><time>2015-04-29T16:15:30.0000000+00:00</time></trkpt><trkpt lat="34.9831391" lon="32.8683751"><ele>1059.6</ele><time>2015-04-29T16:15:34.0000000+00:00</time></trkpt><trkpt lat="34.9830967" lon="32.868331"><ele>1059.8</ele><time>2015-04-29T16:15:39.0000000+00:00</time></trkpt><trkpt lat="34.9830582" lon="32.8683017"><ele>1060.6</ele><time>2015-04-29T16:15:43.0000000+00:00</time></trkpt><trkpt lat="34.9830136" lon="32.8682794"><ele>1060.8</ele><time>2015-04-29T16:15:47.0000000+00:00</time></trkpt><trkpt lat="34.9829676" lon="32.868258"><ele>1061.3</ele><time>2015-04-29T16:15:51.0000000+00:00</time></trkpt><trkpt lat="34.9829229" lon="32.8682344"><ele>1061.7</ele><time>2015-04-29T16:15:55.0000000+00:00</time></trkpt><trkpt lat="34.9828757" lon="32.8682162"><ele>1062.7</ele><time>2015-04-29T16:15:59.0000000+00:00</time></trkpt><trkpt lat="34.9828314" lon="32.8681952"><ele>1063.2</ele><time>2015-04-29T16:16:03.0000000+00:00</time></trkpt><trkpt lat="34.9827854" lon="32.8681758"><ele>1063.7</ele><time>2015-04-29T16:16:07.0000000+00:00</time></trkpt><trkpt lat="34.982738" lon="32.8681537"><ele>1064.3</ele><time>2015-04-29T16:16:11.0000000+00:00</time></trkpt><trkpt lat="34.9826888" lon="32.868139"><ele>1065.6</ele><time>2015-04-29T16:16:15.0000000+00:00</time></trkpt><trkpt lat="34.9826419" lon="32.8681203"><ele>1066.3</ele><time>2015-04-29T16:16:19.0000000+00:00</time></trkpt><trkpt lat="34.982592" lon="32.8681129"><ele>1067.5</ele><time>2015-04-29T16:16:23.0000000+00:00</time></trkpt><trkpt lat="34.9825459" lon="32.8681029"><ele>1068.1</ele><time>2015-04-29T16:16:27.0000000+00:00</time></trkpt><trkpt lat="34.9824969" lon="32.8680971"><ele>1068.7</ele><time>2015-04-29T16:16:31.0000000+00:00</time></trkpt><trkpt lat="34.9824461" lon="32.8680866"><ele>1070.4</ele><time>2015-04-29T16:16:35.0000000+00:00</time></trkpt><trkpt lat="34.9823962" lon="32.8680698"><ele>1071.2</ele><time>2015-04-29T16:16:39.0000000+00:00</time></trkpt><trkpt lat="34.9823511" lon="32.8680511"><ele>1071.7</ele><time>2015-04-29T16:16:43.0000000+00:00</time></trkpt><trkpt lat="34.98231" lon="32.868022"><ele>1072.3</ele><time>2015-04-29T16:16:47.0000000+00:00</time></trkpt><trkpt lat="34.9822657" lon="32.8679981"><ele>1072.4</ele><time>2015-04-29T16:16:51.0000000+00:00</time></trkpt><trkpt lat="34.9822196" lon="32.8679834"><ele>1070.9</ele><time>2015-04-29T16:16:55.0000000+00:00</time></trkpt><trkpt lat="34.9821753" lon="32.8679617"><ele>1070.8</ele><time>2015-04-29T16:16:59.0000000+00:00</time></trkpt><trkpt lat="34.9821232" lon="32.8679363"><ele>1068.7</ele><time>2015-04-29T16:17:04.0000000+00:00</time></trkpt><trkpt lat="34.9820801" lon="32.8679079"><ele>1069.6</ele><time>2015-04-29T16:17:08.0000000+00:00</time></trkpt><trkpt lat="34.982042" lon="32.8678768"><ele>1069.8</ele><time>2015-04-29T16:17:12.0000000+00:00</time></trkpt><trkpt lat="34.9820017" lon="32.8678498"><ele>1069.8</ele><time>2015-04-29T16:17:16.0000000+00:00</time></trkpt><trkpt lat="34.9819648" lon="32.8678151"><ele>1071.4</ele><time>2015-04-29T16:17:20.0000000+00:00</time></trkpt><trkpt lat="34.9819241" lon="32.8677862"><ele>1071.7</ele><time>2015-04-29T16:17:24.0000000+00:00</time></trkpt><trkpt lat="34.9818815" lon="32.8677437"><ele>1072.0</ele><time>2015-04-29T16:17:29.0000000+00:00</time></trkpt><trkpt lat="34.981841" lon="32.8676999"><ele>1072.7</ele><time>2015-04-29T16:17:34.0000000+00:00</time></trkpt><trkpt lat="34.9818116" lon="32.8676466"><ele>1074.3</ele><time>2015-04-29T16:17:39.0000000+00:00</time></trkpt><trkpt lat="34.9817884" lon="32.8675896"><ele>1075.6</ele><time>2015-04-29T16:17:44.0000000+00:00</time></trkpt><trkpt lat="34.9817656" lon="32.8675304"><ele>1076.5</ele><time>2015-04-29T16:17:49.0000000+00:00</time></trkpt><trkpt lat="34.9817499" lon="32.8674644"><ele>1077.1</ele><time>2015-04-29T16:17:54.0000000+00:00</time></trkpt><trkpt lat="34.9817435" lon="32.867409"><ele>1078.9</ele><time>2015-04-29T16:18:01.0000000+00:00</time></trkpt><trkpt lat="34.9817635" lon="32.8673478"><ele>1078.8</ele><time>2015-04-29T16:18:05.0000000+00:00</time></trkpt><trkpt lat="34.9817682" lon="32.8672892"><ele>1078.0</ele><time>2015-04-29T16:18:08.0000000+00:00</time></trkpt><trkpt lat="34.9817675" lon="32.8672146"><ele>1078.7</ele><time>2015-04-29T16:18:12.0000000+00:00</time></trkpt><trkpt lat="34.9817787" lon="32.867154"><ele>1079.3</ele><time>2015-04-29T16:18:15.0000000+00:00</time></trkpt><trkpt lat="34.9818066" lon="32.8670943"><ele>1079.7</ele><time>2015-04-29T16:18:18.0000000+00:00</time></trkpt><trkpt lat="34.9818315" lon="32.8670361"><ele>1079.5</ele><time>2015-04-29T16:18:21.0000000+00:00</time></trkpt><trkpt lat="34.9818635" lon="32.8669796"><ele>1080.2</ele><time>2015-04-29T16:18:24.0000000+00:00</time></trkpt><trkpt lat="34.9818978" lon="32.866928"><ele>1080.1</ele><time>2015-04-29T16:18:27.0000000+00:00</time></trkpt><trkpt lat="34.9819288" lon="32.8668764"><ele>1079.8</ele><time>2015-04-29T16:18:30.0000000+00:00</time></trkpt><trkpt lat="34.9819638" lon="32.8668302"><ele>1079.0</ele><time>2015-04-29T16:18:33.0000000+00:00</time></trkpt><trkpt lat="34.9820012" lon="32.8667848"><ele>1079.7</ele><time>2015-04-29T16:18:36.0000000+00:00</time></trkpt><trkpt lat="34.9820405" lon="32.8667394"><ele>1080.5</ele><time>2015-04-29T16:18:39.0000000+00:00</time></trkpt><trkpt lat="34.9820804" lon="32.8666945"><ele>1080.7</ele><time>2015-04-29T16:18:42.0000000+00:00</time></trkpt><trkpt lat="34.9821194" lon="32.8666582"><ele>1080.3</ele><time>2015-04-29T16:18:45.0000000+00:00</time></trkpt><trkpt lat="34.9821567" lon="32.8666195"><ele>1080.7</ele><time>2015-04-29T16:18:48.0000000+00:00</time></trkpt><trkpt lat="34.9821924" lon="32.8665842"><ele>1080.4</ele><time>2015-04-29T16:18:51.0000000+00:00</time></trkpt><trkpt lat="34.9822229" lon="32.8665397"><ele>1080.7</ele><time>2015-04-29T16:18:54.0000000+00:00</time></trkpt><trkpt lat="34.9822574" lon="32.8665013"><ele>1080.9</ele><time>2015-04-29T16:18:57.0000000+00:00</time></trkpt><trkpt lat="34.9823008" lon="32.8664528"><ele>1080.0</ele><time>2015-04-29T16:19:01.0000000+00:00</time></trkpt><trkpt lat="34.9823366" lon="32.8664192"><ele>1079.9</ele><time>2015-04-29T16:19:04.0000000+00:00</time></trkpt><trkpt lat="34.9823823" lon="32.8663755"><ele>1080.7</ele><time>2015-04-29T16:19:08.0000000+00:00</time></trkpt><trkpt lat="34.9824275" lon="32.86633"><ele>1081.3</ele><time>2015-04-29T16:19:12.0000000+00:00</time></trkpt><trkpt lat="34.9824614" lon="32.8662928"><ele>1082.2</ele><time>2015-04-29T16:19:15.0000000+00:00</time></trkpt><trkpt lat="34.9824918" lon="32.8662509"><ele>1082.7</ele><time>2015-04-29T16:19:18.0000000+00:00</time></trkpt><trkpt lat="34.982534" lon="32.8661999"><ele>1083.7</ele><time>2015-04-29T16:19:22.0000000+00:00</time></trkpt><trkpt lat="34.9825716" lon="32.8661694"><ele>1083.8</ele><time>2015-04-29T16:19:25.0000000+00:00</time></trkpt><trkpt lat="34.9826176" lon="32.866124"><ele>1084.3</ele><time>2015-04-29T16:19:29.0000000+00:00</time></trkpt><trkpt lat="34.9826611" lon="32.8660788"><ele>1084.9</ele><time>2015-04-29T16:19:33.0000000+00:00</time></trkpt><trkpt lat="34.9827035" lon="32.8660308"><ele>1085.7</ele><time>2015-04-29T16:19:37.0000000+00:00</time></trkpt><trkpt lat="34.982742" lon="32.8659792"><ele>1086.5</ele><time>2015-04-29T16:19:41.0000000+00:00</time></trkpt><trkpt lat="34.9827744" lon="32.8659205"><ele>1086.7</ele><time>2015-04-29T16:19:45.0000000+00:00</time></trkpt><trkpt lat="34.9827954" lon="32.8658715"><ele>1086.8</ele><time>2015-04-29T16:19:48.0000000+00:00</time></trkpt><trkpt lat="34.9828144" lon="32.8658203"><ele>1087.6</ele><time>2015-04-29T16:19:51.0000000+00:00</time></trkpt><trkpt lat="34.9828365" lon="32.8657695"><ele>1087.8</ele><time>2015-04-29T16:19:55.0000000+00:00</time></trkpt><trkpt lat="34.9828692" lon="32.8657237"><ele>1088.7</ele><time>2015-04-29T16:19:59.0000000+00:00</time></trkpt><trkpt lat="34.982891" lon="32.8656692"><ele>1088.8</ele><time>2015-04-29T16:20:03.0000000+00:00</time></trkpt><trkpt lat="34.9829167" lon="32.865616"><ele>1089.3</ele><time>2015-04-29T16:20:07.0000000+00:00</time></trkpt><trkpt lat="34.9829473" lon="32.8655571"><ele>1090.2</ele><time>2015-04-29T16:20:12.0000000+00:00</time></trkpt><trkpt lat="34.9829758" lon="32.8655072"><ele>1090.7</ele><time>2015-04-29T16:20:16.0000000+00:00</time></trkpt><trkpt lat="34.9830142" lon="32.8654629"><ele>1091.3</ele><time>2015-04-29T16:20:22.0000000+00:00</time></trkpt><trkpt lat="34.9830302" lon="32.8654069"><ele>1092.5</ele><time>2015-04-29T16:20:27.0000000+00:00</time></trkpt><trkpt lat="34.9830601" lon="32.8653602"><ele>1092.7</ele><time>2015-04-29T16:20:32.0000000+00:00</time></trkpt><trkpt lat="34.9830802" lon="32.8653027"><ele>1092.8</ele><time>2015-04-29T16:20:37.0000000+00:00</time></trkpt><trkpt lat="34.9831117" lon="32.8652496"><ele>1092.8</ele><time>2015-04-29T16:20:42.0000000+00:00</time></trkpt><trkpt lat="34.9831368" lon="32.8651922"><ele>1092.8</ele><time>2015-04-29T16:20:47.0000000+00:00</time></trkpt><trkpt lat="34.9831532" lon="32.86513"><ele>1093.6</ele><time>2015-04-29T16:20:52.0000000+00:00</time></trkpt><trkpt lat="34.9831644" lon="32.8650635"><ele>1094.7</ele><time>2015-04-29T16:20:57.0000000+00:00</time></trkpt><trkpt lat="34.983168" lon="32.8650057"><ele>1095.7</ele><time>2015-04-29T16:21:01.0000000+00:00</time></trkpt><trkpt lat="34.983173" lon="32.8649427"><ele>1096.5</ele><time>2015-04-29T16:21:05.0000000+00:00</time></trkpt><trkpt lat="34.9831689" lon="32.8648776"><ele>1097.2</ele><time>2015-04-29T16:21:09.0000000+00:00</time></trkpt><trkpt lat="34.9831611" lon="32.8648152"><ele>1097.7</ele><time>2015-04-29T16:21:13.0000000+00:00</time></trkpt><trkpt lat="34.9831622" lon="32.8647552"><ele>1097.8</ele><time>2015-04-29T16:21:17.0000000+00:00</time></trkpt><trkpt lat="34.983143" lon="32.8646975"><ele>1099.5</ele><time>2015-04-29T16:21:21.0000000+00:00</time></trkpt><trkpt lat="34.9831284" lon="32.8646383"><ele>1099.0</ele><time>2015-04-29T16:21:25.0000000+00:00</time></trkpt><trkpt lat="34.9831158" lon="32.8645807"><ele>1100.5</ele><time>2015-04-29T16:21:29.0000000+00:00</time></trkpt><trkpt lat="34.9830958" lon="32.8645266"><ele>1101.5</ele><time>2015-04-29T16:21:33.0000000+00:00</time></trkpt><trkpt lat="34.9830945" lon="32.8644688"><ele>1100.9</ele><time>2015-04-29T16:21:38.0000000+00:00</time></trkpt><trkpt lat="34.9830672" lon="32.8644092"><ele>1101.6</ele><time>2015-04-29T16:21:44.0000000+00:00</time></trkpt><trkpt lat="34.9830588" lon="32.864349"><ele>1102.2</ele><time>2015-04-29T16:21:47.0000000+00:00</time></trkpt><trkpt lat="34.9830453" lon="32.8642856"><ele>1102.7</ele><time>2015-04-29T16:21:51.0000000+00:00</time></trkpt><trkpt lat="34.9830186" lon="32.8642333"><ele>1103.2</ele><time>2015-04-29T16:21:55.0000000+00:00</time></trkpt><trkpt lat="34.9830066" lon="32.8641764"><ele>1104.6</ele><time>2015-04-29T16:21:59.0000000+00:00</time></trkpt><trkpt lat="34.9829968" lon="32.8641176"><ele>1105.3</ele><time>2015-04-29T16:22:03.0000000+00:00</time></trkpt><trkpt lat="34.9829825" lon="32.864058"><ele>1106.2</ele><time>2015-04-29T16:22:07.0000000+00:00</time></trkpt><trkpt lat="34.9829578" lon="32.8640014"><ele>1106.7</ele><time>2015-04-29T16:22:11.0000000+00:00</time></trkpt><trkpt lat="34.9829398" lon="32.8639441"><ele>1107.6</ele><time>2015-04-29T16:22:15.0000000+00:00</time></trkpt><trkpt lat="34.9829396" lon="32.8638801"><ele>1108.6</ele><time>2015-04-29T16:22:19.0000000+00:00</time></trkpt><trkpt lat="34.9829362" lon="32.8638226"><ele>1109.0</ele><time>2015-04-29T16:22:23.0000000+00:00</time></trkpt><trkpt lat="34.9829164" lon="32.863771"><ele>1108.8</ele><time>2015-04-29T16:22:27.0000000+00:00</time></trkpt><trkpt lat="34.9828951" lon="32.8637121"><ele>1109.3</ele><time>2015-04-29T16:22:31.0000000+00:00</time></trkpt><trkpt lat="34.9828756" lon="32.8636573"><ele>1109.7</ele><time>2015-04-29T16:22:35.0000000+00:00</time></trkpt><trkpt lat="34.9828499" lon="32.8636011"><ele>1110.6</ele><time>2015-04-29T16:22:40.0000000+00:00</time></trkpt><trkpt lat="34.9828323" lon="32.8635483"><ele>1110.8</ele><time>2015-04-29T16:22:44.0000000+00:00</time></trkpt><trkpt lat="34.9828142" lon="32.8634946"><ele>1111.3</ele><time>2015-04-29T16:22:48.0000000+00:00</time></trkpt><trkpt lat="34.9827936" lon="32.8634386"><ele>1111.7</ele><time>2015-04-29T16:22:52.0000000+00:00</time></trkpt><trkpt lat="34.9827733" lon="32.8633808"><ele>1111.8</ele><time>2015-04-29T16:22:56.0000000+00:00</time></trkpt><trkpt lat="34.9827606" lon="32.8633232"><ele>1111.8</ele><time>2015-04-29T16:23:00.0000000+00:00</time></trkpt><trkpt lat="34.9827496" lon="32.863267"><ele>1111.8</ele><time>2015-04-29T16:23:04.0000000+00:00</time></trkpt><trkpt lat="34.9827467" lon="32.8632069"><ele>1111.8</ele><time>2015-04-29T16:23:08.0000000+00:00</time></trkpt><trkpt lat="34.9827426" lon="32.8631485"><ele>1111.8</ele><time>2015-04-29T16:23:12.0000000+00:00</time></trkpt><trkpt lat="34.9827362" lon="32.8630921"><ele>1111.8</ele><time>2015-04-29T16:23:16.0000000+00:00</time></trkpt><trkpt lat="34.9827363" lon="32.8630323"><ele>1112.6</ele><time>2015-04-29T16:23:20.0000000+00:00</time></trkpt><trkpt lat="34.9827312" lon="32.8629746"><ele>1112.8</ele><time>2015-04-29T16:23:24.0000000+00:00</time></trkpt><trkpt lat="34.982725" lon="32.8629132"><ele>1113.7</ele><time>2015-04-29T16:23:28.0000000+00:00</time></trkpt><trkpt lat="34.9827233" lon="32.8628493"><ele>1114.6</ele><time>2015-04-29T16:23:32.0000000+00:00</time></trkpt><trkpt lat="34.9827266" lon="32.8627842"><ele>1114.0</ele><time>2015-04-29T16:23:37.0000000+00:00</time></trkpt><trkpt lat="34.9827322" lon="32.8627176"><ele>1113.6</ele><time>2015-04-29T16:23:42.0000000+00:00</time></trkpt><trkpt lat="34.9827348" lon="32.8626626"><ele>1114.7</ele><time>2015-04-29T16:23:53.0000000+00:00</time></trkpt><trkpt lat="34.9827382" lon="32.8626077"><ele>1114.8</ele><time>2015-04-29T16:23:57.0000000+00:00</time></trkpt><trkpt lat="34.982737" lon="32.86255"><ele>1114.8</ele><time>2015-04-29T16:24:01.0000000+00:00</time></trkpt><trkpt lat="34.982742" lon="32.8624822"><ele>1115.5</ele><time>2015-04-29T16:24:05.0000000+00:00</time></trkpt><trkpt lat="34.9827528" lon="32.862419"><ele>1115.7</ele><time>2015-04-29T16:24:09.0000000+00:00</time></trkpt><trkpt lat="34.9827632" lon="32.8623625"><ele>1116.7</ele><time>2015-04-29T16:24:14.0000000+00:00</time></trkpt><trkpt lat="34.9827765" lon="32.8623048"><ele>1117.6</ele><time>2015-04-29T16:24:19.0000000+00:00</time></trkpt><trkpt lat="34.9827818" lon="32.8622486"><ele>1117.8</ele><time>2015-04-29T16:24:24.0000000+00:00</time></trkpt><trkpt lat="34.9827972" lon="32.8621887"><ele>1118.5</ele><time>2015-04-29T16:24:31.0000000+00:00</time></trkpt><trkpt lat="34.9828083" lon="32.8621318"><ele>1119.0</ele><time>2015-04-29T16:24:36.0000000+00:00</time></trkpt><trkpt lat="34.9828188" lon="32.8620725"><ele>1119.7</ele><time>2015-04-29T16:24:41.0000000+00:00</time></trkpt><trkpt lat="34.982815" lon="32.8620078"><ele>1119.8</ele><time>2015-04-29T16:24:46.0000000+00:00</time></trkpt><trkpt lat="34.9828267" lon="32.8619525"><ele>1120.6</ele><time>2015-04-29T16:24:50.0000000+00:00</time></trkpt><trkpt lat="34.9828406" lon="32.861892"><ele>1121.3</ele><time>2015-04-29T16:24:55.0000000+00:00</time></trkpt><trkpt lat="34.9828601" lon="32.8618302"><ele>1122.5</ele><time>2015-04-29T16:25:00.0000000+00:00</time></trkpt><trkpt lat="34.9828709" lon="32.8617667"><ele>1122.0</ele><time>2015-04-29T16:25:05.0000000+00:00</time></trkpt><trkpt lat="34.9828771" lon="32.8617072"><ele>1122.7</ele><time>2015-04-29T16:25:09.0000000+00:00</time></trkpt><trkpt lat="34.9828822" lon="32.8616485"><ele>1122.8</ele><time>2015-04-29T16:25:13.0000000+00:00</time></trkpt><trkpt lat="34.9828949" lon="32.861587"><ele>1122.8</ele><time>2015-04-29T16:25:17.0000000+00:00</time></trkpt><trkpt lat="34.9828924" lon="32.861528"><ele>1123.0</ele><time>2015-04-29T16:25:21.0000000+00:00</time></trkpt><trkpt lat="34.982893" lon="32.8614712"><ele>1123.5</ele><time>2015-04-29T16:25:25.0000000+00:00</time></trkpt><trkpt lat="34.9829014" lon="32.8614132"><ele>1124.7</ele><time>2015-04-29T16:25:34.0000000+00:00</time></trkpt><trkpt lat="34.9829093" lon="32.861359"><ele>1124.8</ele><time>2015-04-29T16:25:38.0000000+00:00</time></trkpt><trkpt lat="34.9829142" lon="32.8612946"><ele>1125.7</ele><time>2015-04-29T16:25:43.0000000+00:00</time></trkpt><trkpt lat="34.982921" lon="32.8612308"><ele>1125.8</ele><time>2015-04-29T16:25:48.0000000+00:00</time></trkpt><trkpt lat="34.9829215" lon="32.8611663"><ele>1126.5</ele><time>2015-04-29T16:25:53.0000000+00:00</time></trkpt><trkpt lat="34.9829226" lon="32.8611045"><ele>1126.8</ele><time>2015-04-29T16:25:58.0000000+00:00</time></trkpt><trkpt lat="34.9829238" lon="32.8610416"><ele>1127.7</ele><time>2015-04-29T16:26:03.0000000+00:00</time></trkpt><trkpt lat="34.9829248" lon="32.8609751"><ele>1127.8</ele><time>2015-04-29T16:26:12.0000000+00:00</time></trkpt><trkpt lat="34.9829298" lon="32.8609143"><ele>1128.6</ele><time>2015-04-29T16:26:17.0000000+00:00</time></trkpt><trkpt lat="34.9829296" lon="32.8608524"><ele>1129.3</ele><time>2015-04-29T16:26:22.0000000+00:00</time></trkpt><trkpt lat="34.982928" lon="32.8607881"><ele>1129.7</ele><time>2015-04-29T16:26:27.0000000+00:00</time></trkpt><trkpt lat="34.9829193" lon="32.8607223"><ele>1130.0</ele><time>2015-04-29T16:26:32.0000000+00:00</time></trkpt><trkpt lat="34.982923" lon="32.8606544"><ele>1131.0</ele><time>2015-04-29T16:26:37.0000000+00:00</time></trkpt><trkpt lat="34.9829308" lon="32.8605884"><ele>1130.8</ele><time>2015-04-29T16:26:42.0000000+00:00</time></trkpt><trkpt lat="34.9829289" lon="32.860533"><ele>1130.8</ele><time>2015-04-29T16:26:47.0000000+00:00</time></trkpt><trkpt lat="34.9829327" lon="32.8604733"><ele>1131.5</ele><time>2015-04-29T16:26:52.0000000+00:00</time></trkpt><trkpt lat="34.9829269" lon="32.8604134"><ele>1132.6</ele><time>2015-04-29T16:26:57.0000000+00:00</time></trkpt><trkpt lat="34.9829267" lon="32.8603465"><ele>1134.6</ele><time>2015-04-29T16:27:02.0000000+00:00</time></trkpt><trkpt lat="34.9829219" lon="32.8602834"><ele>1133.9</ele><time>2015-04-29T16:27:07.0000000+00:00</time></trkpt><trkpt lat="34.9829123" lon="32.8602176"><ele>1133.9</ele><time>2015-04-29T16:27:12.0000000+00:00</time></trkpt><trkpt lat="34.9829084" lon="32.8601605"><ele>1135.2</ele><time>2015-04-29T16:27:16.0000000+00:00</time></trkpt><trkpt lat="34.9829102" lon="32.8601002"><ele>1136.2</ele><time>2015-04-29T16:27:20.0000000+00:00</time></trkpt><trkpt lat="34.9829126" lon="32.8600334"><ele>1136.7</ele><time>2015-04-29T16:27:25.0000000+00:00</time></trkpt><trkpt lat="34.9829128" lon="32.8599732"><ele>1138.5</ele><time>2015-04-29T16:27:30.0000000+00:00</time></trkpt><trkpt lat="34.9829025" lon="32.8599166"><ele>1138.8</ele><time>2015-04-29T16:27:35.0000000+00:00</time></trkpt><trkpt lat="34.982899" lon="32.8598501"><ele>1140.6</ele><time>2015-04-29T16:27:40.0000000+00:00</time></trkpt><trkpt lat="34.9829052" lon="32.859788"><ele>1140.7</ele><time>2015-04-29T16:27:45.0000000+00:00</time></trkpt><trkpt lat="34.9828837" lon="32.8597318"><ele>1139.8</ele><time>2015-04-29T16:27:50.0000000+00:00</time></trkpt><trkpt lat="34.9828634" lon="32.8596767"><ele>1140.1</ele><time>2015-04-29T16:27:55.0000000+00:00</time></trkpt><trkpt lat="34.9828586" lon="32.8596122"><ele>1139.5</ele><time>2015-04-29T16:28:01.0000000+00:00</time></trkpt><trkpt lat="34.9828561" lon="32.8595552"><ele>1138.8</ele><time>2015-04-29T16:28:06.0000000+00:00</time></trkpt><trkpt lat="34.9828611" lon="32.8594924"><ele>1140.6</ele><time>2015-04-29T16:28:11.0000000+00:00</time></trkpt><trkpt lat="34.9828637" lon="32.8594289"><ele>1140.6</ele><time>2015-04-29T16:28:16.0000000+00:00</time></trkpt><trkpt lat="34.98286" lon="32.8593606"><ele>1141.6</ele><time>2015-04-29T16:28:21.0000000+00:00</time></trkpt><trkpt lat="34.9828602" lon="32.8593037"><ele>1142.5</ele><time>2015-04-29T16:28:25.0000000+00:00</time></trkpt><trkpt lat="34.9828509" lon="32.859249"><ele>1143.7</ele><time>2015-04-29T16:28:29.0000000+00:00</time></trkpt><trkpt lat="34.9828367" lon="32.8591876"><ele>1143.8</ele><time>2015-04-29T16:28:34.0000000+00:00</time></trkpt><trkpt lat="34.9828247" lon="32.8591292"><ele>1145.1</ele><time>2015-04-29T16:28:39.0000000+00:00</time></trkpt><trkpt lat="34.9828185" lon="32.8590689"><ele>1146.2</ele><time>2015-04-29T16:28:44.0000000+00:00</time></trkpt><trkpt lat="34.9828136" lon="32.8590084"><ele>1147.5</ele><time>2015-04-29T16:28:49.0000000+00:00</time></trkpt><trkpt lat="34.9828088" lon="32.8589471"><ele>1148.5</ele><time>2015-04-29T16:28:54.0000000+00:00</time></trkpt><trkpt lat="34.9827961" lon="32.8588889"><ele>1148.8</ele><time>2015-04-29T16:28:59.0000000+00:00</time></trkpt><trkpt lat="34.9827866" lon="32.8588275"><ele>1149.3</ele><time>2015-04-29T16:29:04.0000000+00:00</time></trkpt><trkpt lat="34.982768" lon="32.8587678"><ele>1149.7</ele><time>2015-04-29T16:29:09.0000000+00:00</time></trkpt><trkpt lat="34.9827584" lon="32.858713"><ele>1150.6</ele><time>2015-04-29T16:29:13.0000000+00:00</time></trkpt><trkpt lat="34.9827398" lon="32.8586566"><ele>1150.8</ele><time>2015-04-29T16:29:18.0000000+00:00</time></trkpt><trkpt lat="34.9827246" lon="32.8585934"><ele>1151.7</ele><time>2015-04-29T16:29:24.0000000+00:00</time></trkpt><trkpt lat="34.9827074" lon="32.858539"><ele>1151.8</ele><time>2015-04-29T16:29:29.0000000+00:00</time></trkpt><trkpt lat="34.9826994" lon="32.858477"><ele>1151.8</ele><time>2015-04-29T16:29:34.0000000+00:00</time></trkpt><trkpt lat="34.9826717" lon="32.8584199"><ele>1151.0</ele><time>2015-04-29T16:29:39.0000000+00:00</time></trkpt><trkpt lat="34.9826491" lon="32.8583659"><ele>1150.8</ele><time>2015-04-29T16:29:44.0000000+00:00</time></trkpt><trkpt lat="34.9826287" lon="32.8583063"><ele>1150.8</ele><time>2015-04-29T16:29:49.0000000+00:00</time></trkpt><trkpt lat="34.9826454" lon="32.8582486"><ele>1151.1</ele><time>2015-04-29T16:29:54.0000000+00:00</time></trkpt><trkpt lat="34.9826469" lon="32.8581936"><ele>1152.3</ele><time>2015-04-29T16:29:59.0000000+00:00</time></trkpt><trkpt lat="34.9826357" lon="32.8581327"><ele>1152.8</ele><time>2015-04-29T16:30:05.0000000+00:00</time></trkpt><trkpt lat="34.982616" lon="32.8580774"><ele>1154.3</ele><time>2015-04-29T16:31:57.0000000+00:00</time></trkpt><trkpt lat="34.9825912" lon="32.8580301"><ele>1154.5</ele><time>2015-04-29T16:32:02.0000000+00:00</time></trkpt><trkpt lat="34.982557" lon="32.8579797"><ele>1155.1</ele><time>2015-04-29T16:32:08.0000000+00:00</time></trkpt><trkpt lat="34.9825244" lon="32.8579373"><ele>1155.0</ele><time>2015-04-29T16:32:14.0000000+00:00</time></trkpt><trkpt lat="34.9824716" lon="32.8579454"><ele>1153.5</ele><time>2015-04-29T16:35:32.0000000+00:00</time></trkpt><trkpt lat="34.9824246" lon="32.8579563"><ele>1154.1</ele><time>2015-04-29T16:35:36.0000000+00:00</time></trkpt><trkpt lat="34.9823765" lon="32.8579406"><ele>1154.5</ele><time>2015-04-29T16:35:40.0000000+00:00</time></trkpt><trkpt lat="34.9823209" lon="32.8579168"><ele>1154.2</ele><time>2015-04-29T16:35:44.0000000+00:00</time></trkpt><trkpt lat="34.9822733" lon="32.8579052"><ele>1153.8</ele><time>2015-04-29T16:35:47.0000000+00:00</time></trkpt><trkpt lat="34.9822281" lon="32.8578886"><ele>1154.9</ele><time>2015-04-29T16:35:50.0000000+00:00</time></trkpt><trkpt lat="34.9821864" lon="32.8578613"><ele>1154.8</ele><time>2015-04-29T16:35:53.0000000+00:00</time></trkpt><trkpt lat="34.9821333" lon="32.8578476"><ele>1154.8</ele><time>2015-04-29T16:35:57.0000000+00:00</time></trkpt><trkpt lat="34.9820783" lon="32.8578286"><ele>1157.1</ele><time>2015-04-29T16:36:01.0000000+00:00</time></trkpt><trkpt lat="34.9820256" lon="32.8578137"><ele>1156.8</ele><time>2015-04-29T16:36:05.0000000+00:00</time></trkpt><trkpt lat="34.9819712" lon="32.8577941"><ele>1157.5</ele><time>2015-04-29T16:36:09.0000000+00:00</time></trkpt><trkpt lat="34.9819168" lon="32.8577733"><ele>1158.6</ele><time>2015-04-29T16:36:13.0000000+00:00</time></trkpt><trkpt lat="34.9818613" lon="32.857763"><ele>1158.8</ele><time>2015-04-29T16:36:17.0000000+00:00</time></trkpt><trkpt lat="34.9818115" lon="32.8577556"><ele>1158.0</ele><time>2015-04-29T16:36:21.0000000+00:00</time></trkpt><trkpt lat="34.9817606" lon="32.8577521"><ele>1158.0</ele><time>2015-04-29T16:36:26.0000000+00:00</time></trkpt><trkpt lat="34.9817089" lon="32.8577626"><ele>1157.6</ele><time>2015-04-29T16:36:31.0000000+00:00</time></trkpt><trkpt lat="34.9816692" lon="32.8577933"><ele>1157.8</ele><time>2015-04-29T16:36:35.0000000+00:00</time></trkpt><trkpt lat="34.9816217" lon="32.8578152"><ele>1157.4</ele><time>2015-04-29T16:36:39.0000000+00:00</time></trkpt><trkpt lat="34.9815679" lon="32.8578265"><ele>1158.7</ele><time>2015-04-29T16:36:43.0000000+00:00</time></trkpt><trkpt lat="34.9815129" lon="32.8578465"><ele>1159.5</ele><time>2015-04-29T16:36:47.0000000+00:00</time></trkpt><trkpt lat="34.9814652" lon="32.8578576"><ele>1159.7</ele><time>2015-04-29T16:36:50.0000000+00:00</time></trkpt><trkpt lat="34.9814098" lon="32.8578832"><ele>1159.8</ele><time>2015-04-29T16:36:54.0000000+00:00</time></trkpt><trkpt lat="34.9813663" lon="32.8578985"><ele>1158.9</ele><time>2015-04-29T16:36:57.0000000+00:00</time></trkpt><trkpt lat="34.9813156" lon="32.8579163"><ele>1158.4</ele><time>2015-04-29T16:37:01.0000000+00:00</time></trkpt><trkpt lat="34.9812594" lon="32.8579331"><ele>1159.5</ele><time>2015-04-29T16:37:05.0000000+00:00</time></trkpt><trkpt lat="34.9812095" lon="32.8579385"><ele>1160.6</ele><time>2015-04-29T16:37:08.0000000+00:00</time></trkpt><trkpt lat="34.9811603" lon="32.8579453"><ele>1161.2</ele><time>2015-04-29T16:37:11.0000000+00:00</time></trkpt><trkpt lat="34.981103" lon="32.8579384"><ele>1161.7</ele><time>2015-04-29T16:37:15.0000000+00:00</time></trkpt><trkpt lat="34.9810433" lon="32.8579308"><ele>1161.6</ele><time>2015-04-29T16:37:19.0000000+00:00</time></trkpt><trkpt lat="34.9809958" lon="32.8579269"><ele>1162.5</ele><time>2015-04-29T16:37:22.0000000+00:00</time></trkpt><trkpt lat="34.9809531" lon="32.8579061"><ele>1161.2</ele><time>2015-04-29T16:37:25.0000000+00:00</time></trkpt><trkpt lat="34.9809092" lon="32.8578597"><ele>1159.7</ele><time>2015-04-29T16:37:29.0000000+00:00</time></trkpt><trkpt lat="34.9808775" lon="32.8578203"><ele>1159.4</ele><time>2015-04-29T16:37:32.0000000+00:00</time></trkpt><trkpt lat="34.9808561" lon="32.8577708"><ele>1160.7</ele><time>2015-04-29T16:37:35.0000000+00:00</time></trkpt><trkpt lat="34.9808204" lon="32.8577252"><ele>1162.2</ele><time>2015-04-29T16:37:39.0000000+00:00</time></trkpt><trkpt lat="34.9807998" lon="32.8576749"><ele>1163.2</ele><time>2015-04-29T16:37:43.0000000+00:00</time></trkpt><trkpt lat="34.9807735" lon="32.8576233"><ele>1163.3</ele><time>2015-04-29T16:37:47.0000000+00:00</time></trkpt><trkpt lat="34.9807648" lon="32.8575634"><ele>1164.2</ele><time>2015-04-29T16:37:51.0000000+00:00</time></trkpt><trkpt lat="34.9807617" lon="32.8575011"><ele>1164.8</ele><time>2015-04-29T16:37:55.0000000+00:00</time></trkpt><trkpt lat="34.9807663" lon="32.8574456"><ele>1165.3</ele><time>2015-04-29T16:37:59.0000000+00:00</time></trkpt><trkpt lat="34.9807654" lon="32.8573846"><ele>1167.1</ele><time>2015-04-29T16:38:03.0000000+00:00</time></trkpt><trkpt lat="34.9807614" lon="32.8573242"><ele>1167.0</ele><time>2015-04-29T16:38:07.0000000+00:00</time></trkpt><trkpt lat="34.9807684" lon="32.8572619"><ele>1167.5</ele><time>2015-04-29T16:38:13.0000000+00:00</time></trkpt><trkpt lat="34.9807634" lon="32.8571959"><ele>1167.7</ele><time>2015-04-29T16:38:17.0000000+00:00</time></trkpt><trkpt lat="34.9807493" lon="32.8571416"><ele>1167.8</ele><time>2015-04-29T16:38:21.0000000+00:00</time></trkpt><trkpt lat="34.9807294" lon="32.8570803"><ele>1167.8</ele><time>2015-04-29T16:38:25.0000000+00:00</time></trkpt><trkpt lat="34.9807089" lon="32.8570246"><ele>1167.8</ele><time>2015-04-29T16:38:29.0000000+00:00</time></trkpt><trkpt lat="34.9806798" lon="32.8569707"><ele>1168.7</ele><time>2015-04-29T16:38:34.0000000+00:00</time></trkpt><trkpt lat="34.9806361" lon="32.8569281"><ele>1169.3</ele><time>2015-04-29T16:38:39.0000000+00:00</time></trkpt><trkpt lat="34.9805969" lon="32.8568958"><ele>1170.6</ele><time>2015-04-29T16:38:43.0000000+00:00</time></trkpt><trkpt lat="34.9805519" lon="32.8568719"><ele>1169.9</ele><time>2015-04-29T16:38:47.0000000+00:00</time></trkpt><trkpt lat="34.980499" lon="32.8568557"><ele>1170.3</ele><time>2015-04-29T16:38:51.0000000+00:00</time></trkpt><trkpt lat="34.9804523" lon="32.8568375"><ele>1170.7</ele><time>2015-04-29T16:38:56.0000000+00:00</time></trkpt><trkpt lat="34.9804087" lon="32.8568029"><ele>1171.1</ele><time>2015-04-29T16:39:01.0000000+00:00</time></trkpt><trkpt lat="34.9803727" lon="32.8567545"><ele>1173.4</ele><time>2015-04-29T16:39:06.0000000+00:00</time></trkpt><trkpt lat="34.9803448" lon="32.8566968"><ele>1174.6</ele><time>2015-04-29T16:39:11.0000000+00:00</time></trkpt><trkpt lat="34.9803172" lon="32.8566483"><ele>1175.5</ele><time>2015-04-29T16:39:15.0000000+00:00</time></trkpt><trkpt lat="34.9802932" lon="32.8566018"><ele>1175.4</ele><time>2015-04-29T16:39:18.0000000+00:00</time></trkpt><trkpt lat="34.9802699" lon="32.8565402"><ele>1175.2</ele><time>2015-04-29T16:39:22.0000000+00:00</time></trkpt><trkpt lat="34.9802436" lon="32.8564854"><ele>1175.7</ele><time>2015-04-29T16:39:26.0000000+00:00</time></trkpt><trkpt lat="34.9802155" lon="32.8564232"><ele>1175.8</ele><time>2015-04-29T16:39:30.0000000+00:00</time></trkpt><trkpt lat="34.9802016" lon="32.85637"><ele>1176.6</ele><time>2015-04-29T16:39:33.0000000+00:00</time></trkpt><trkpt lat="34.980176" lon="32.8563064"><ele>1176.8</ele><time>2015-04-29T16:39:37.0000000+00:00</time></trkpt><trkpt lat="34.9801498" lon="32.8562421"><ele>1177.5</ele><time>2015-04-29T16:39:41.0000000+00:00</time></trkpt><trkpt lat="34.9801181" lon="32.856184"><ele>1177.7</ele><time>2015-04-29T16:39:45.0000000+00:00</time></trkpt><trkpt lat="34.9800858" lon="32.8561388"><ele>1177.8</ele><time>2015-04-29T16:39:49.0000000+00:00</time></trkpt><trkpt lat="34.9800467" lon="32.8560957"><ele>1178.5</ele><time>2015-04-29T16:39:54.0000000+00:00</time></trkpt><trkpt lat="34.9800094" lon="32.8560625"><ele>1177.8</ele><time>2015-04-29T16:39:58.0000000+00:00</time></trkpt><trkpt lat="34.9799588" lon="32.8560416"><ele>1177.2</ele><time>2015-04-29T16:40:02.0000000+00:00</time></trkpt><trkpt lat="34.9799143" lon="32.8560187"><ele>1177.7</ele><time>2015-04-29T16:40:06.0000000+00:00</time></trkpt><trkpt lat="34.9798695" lon="32.8559811"><ele>1177.9</ele><time>2015-04-29T16:40:11.0000000+00:00</time></trkpt><trkpt lat="34.9798279" lon="32.8559498"><ele>1177.8</ele><time>2015-04-29T16:40:15.0000000+00:00</time></trkpt><trkpt lat="34.9797857" lon="32.8559138"><ele>1178.2</ele><time>2015-04-29T16:40:19.0000000+00:00</time></trkpt><trkpt lat="34.9797543" lon="32.8558606"><ele>1179.2</ele><time>2015-04-29T16:40:23.0000000+00:00</time></trkpt><trkpt lat="34.9797229" lon="32.8558059"><ele>1180.6</ele><time>2015-04-29T16:40:27.0000000+00:00</time></trkpt><trkpt lat="34.9796954" lon="32.8557443"><ele>1180.8</ele><time>2015-04-29T16:40:31.0000000+00:00</time></trkpt><trkpt lat="34.979676" lon="32.8556774"><ele>1182.5</ele><time>2015-04-29T16:40:35.0000000+00:00</time></trkpt><trkpt lat="34.9796648" lon="32.8556071"><ele>1183.2</ele><time>2015-04-29T16:40:39.0000000+00:00</time></trkpt><trkpt lat="34.9796437" lon="32.855541"><ele>1184.6</ele><time>2015-04-29T16:40:43.0000000+00:00</time></trkpt><trkpt lat="34.9796298" lon="32.8554744"><ele>1183.4</ele><time>2015-04-29T16:40:47.0000000+00:00</time></trkpt><trkpt lat="34.9796146" lon="32.8554044"><ele>1182.9</ele><time>2015-04-29T16:40:51.0000000+00:00</time></trkpt><trkpt lat="34.9795977" lon="32.8553516"><ele>1183.7</ele><time>2015-04-29T16:40:56.0000000+00:00</time></trkpt><trkpt lat="34.9795682" lon="32.8553013"><ele>1183.8</ele><time>2015-04-29T16:41:01.0000000+00:00</time></trkpt><trkpt lat="34.9795333" lon="32.855252"><ele>1182.8</ele><time>2015-04-29T16:41:05.0000000+00:00</time></trkpt><trkpt lat="34.9795009" lon="32.8551913"><ele>1181.6</ele><time>2015-04-29T16:41:09.0000000+00:00</time></trkpt><trkpt lat="34.9794606" lon="32.855143"><ele>1182.6</ele><time>2015-04-29T16:41:13.0000000+00:00</time></trkpt><trkpt lat="34.9794116" lon="32.8551192"><ele>1183.3</ele><time>2015-04-29T16:41:17.0000000+00:00</time></trkpt><trkpt lat="34.9793616" lon="32.8550957"><ele>1182.8</ele><time>2015-04-29T16:41:21.0000000+00:00</time></trkpt><trkpt lat="34.9793085" lon="32.8550633"><ele>1183.7</ele><time>2015-04-29T16:41:25.0000000+00:00</time></trkpt><trkpt lat="34.9792639" lon="32.8550456"><ele>1183.0</ele><time>2015-04-29T16:41:28.0000000+00:00</time></trkpt><trkpt lat="34.979217" lon="32.8550371"><ele>1183.0</ele><time>2015-04-29T16:41:31.0000000+00:00</time></trkpt><trkpt lat="34.9791679" lon="32.8550326"><ele>1182.8</ele><time>2015-04-29T16:41:34.0000000+00:00</time></trkpt><trkpt lat="34.9791199" lon="32.8550331"><ele>1182.8</ele><time>2015-04-29T16:41:37.0000000+00:00</time></trkpt><trkpt lat="34.9790634" lon="32.855033"><ele>1182.8</ele><time>2015-04-29T16:41:41.0000000+00:00</time></trkpt><trkpt lat="34.979004" lon="32.8550395"><ele>1182.7</ele><time>2015-04-29T16:41:45.0000000+00:00</time></trkpt><trkpt lat="34.9789526" lon="32.8550571"><ele>1182.8</ele><time>2015-04-29T16:41:49.0000000+00:00</time></trkpt><trkpt lat="34.9788998" lon="32.8550862"><ele>1184.7</ele><time>2015-04-29T16:42:30.0000000+00:00</time></trkpt><trkpt lat="34.978856" lon="32.8551096"><ele>1184.8</ele><time>2015-04-29T16:42:33.0000000+00:00</time></trkpt><trkpt lat="34.9788134" lon="32.8551441"><ele>1185.6</ele><time>2015-04-29T16:42:36.0000000+00:00</time></trkpt><trkpt lat="34.978777" lon="32.8551842"><ele>1185.0</ele><time>2015-04-29T16:42:39.0000000+00:00</time></trkpt><trkpt lat="34.9787411" lon="32.8552243"><ele>1185.7</ele><time>2015-04-29T16:42:42.0000000+00:00</time></trkpt><trkpt lat="34.978714" lon="32.8552812"><ele>1185.9</ele><time>2015-04-29T16:42:46.0000000+00:00</time></trkpt><trkpt lat="34.9786942" lon="32.8553349"><ele>1186.3</ele><time>2015-04-29T16:42:50.0000000+00:00</time></trkpt><trkpt lat="34.9786677" lon="32.8553992"><ele>1186.7</ele><time>2015-04-29T16:42:54.0000000+00:00</time></trkpt><trkpt lat="34.978646" lon="32.8554515"><ele>1187.5</ele><time>2015-04-29T16:42:57.0000000+00:00</time></trkpt><trkpt lat="34.9786302" lon="32.8555039"><ele>1187.1</ele><time>2015-04-29T16:43:00.0000000+00:00</time></trkpt><trkpt lat="34.9786183" lon="32.8555748"><ele>1187.4</ele><time>2015-04-29T16:43:04.0000000+00:00</time></trkpt><trkpt lat="34.9786105" lon="32.8556319"><ele>1187.2</ele><time>2015-04-29T16:43:07.0000000+00:00</time></trkpt><trkpt lat="34.9785983" lon="32.8556928"><ele>1188.3</ele><time>2015-04-29T16:43:10.0000000+00:00</time></trkpt><trkpt lat="34.9785802" lon="32.8557587"><ele>1190.5</ele><time>2015-04-29T16:43:14.0000000+00:00</time></trkpt><trkpt lat="34.9785696" lon="32.8558293"><ele>1192.9</ele><time>2015-04-29T16:43:18.0000000+00:00</time></trkpt><trkpt lat="34.9785713" lon="32.8558925"><ele>1194.4</ele><time>2015-04-29T16:43:21.0000000+00:00</time></trkpt><trkpt lat="34.9785776" lon="32.8559526"><ele>1192.8</ele><time>2015-04-29T16:43:24.0000000+00:00</time></trkpt><trkpt lat="34.9785862" lon="32.8560095"><ele>1191.4</ele><time>2015-04-29T16:43:27.0000000+00:00</time></trkpt><trkpt lat="34.9785867" lon="32.8560674"><ele>1192.5</ele><time>2015-04-29T16:43:30.0000000+00:00</time></trkpt><trkpt lat="34.9785873" lon="32.8561268"><ele>1192.0</ele><time>2015-04-29T16:43:33.0000000+00:00</time></trkpt><trkpt lat="34.9785889" lon="32.8561908"><ele>1190.9</ele><time>2015-04-29T16:43:36.0000000+00:00</time></trkpt><trkpt lat="34.9785771" lon="32.8562552"><ele>1189.4</ele><time>2015-04-29T16:43:39.0000000+00:00</time></trkpt><trkpt lat="34.9785528" lon="32.85631"><ele>1191.7</ele><time>2015-04-29T16:43:42.0000000+00:00</time></trkpt><trkpt lat="34.9785374" lon="32.8563628"><ele>1191.6</ele><time>2015-04-29T16:43:45.0000000+00:00</time></trkpt><trkpt lat="34.9785362" lon="32.8564328"><ele>1195.1</ele><time>2015-04-29T16:43:49.0000000+00:00</time></trkpt><trkpt lat="34.9785248" lon="32.8564869"><ele>1194.6</ele><time>2015-04-29T16:43:52.0000000+00:00</time></trkpt><trkpt lat="34.9785209" lon="32.8565429"><ele>1194.4</ele><time>2015-04-29T16:43:55.0000000+00:00</time></trkpt><trkpt lat="34.9785023" lon="32.856603"><ele>1195.6</ele><time>2015-04-29T16:43:59.0000000+00:00</time></trkpt><trkpt lat="34.9784705" lon="32.8566618"><ele>1194.1</ele><time>2015-04-29T16:44:03.0000000+00:00</time></trkpt><trkpt lat="34.9784262" lon="32.8567039"><ele>1196.4</ele><time>2015-04-29T16:44:06.0000000+00:00</time></trkpt><trkpt lat="34.9783768" lon="32.8567408"><ele>1196.7</ele><time>2015-04-29T16:44:09.0000000+00:00</time></trkpt><trkpt lat="34.9783292" lon="32.8567742"><ele>1199.1</ele><time>2015-04-29T16:44:12.0000000+00:00</time></trkpt><trkpt lat="34.9782724" lon="32.8568058"><ele>1196.3</ele><time>2015-04-29T16:44:15.0000000+00:00</time></trkpt><trkpt lat="34.9782207" lon="32.8568252"><ele>1196.3</ele><time>2015-04-29T16:44:18.0000000+00:00</time></trkpt><trkpt lat="34.9781664" lon="32.856832"><ele>1198.1</ele><time>2015-04-29T16:44:21.0000000+00:00</time></trkpt><trkpt lat="34.9781125" lon="32.8568247"><ele>1198.7</ele><time>2015-04-29T16:44:24.0000000+00:00</time></trkpt><trkpt lat="34.978063" lon="32.8568158"><ele>1200.1</ele><time>2015-04-29T16:44:27.0000000+00:00</time></trkpt><trkpt lat="34.9780145" lon="32.8568061"><ele>1199.9</ele><time>2015-04-29T16:44:30.0000000+00:00</time></trkpt><trkpt lat="34.9779709" lon="32.8567765"><ele>1200.9</ele><time>2015-04-29T16:44:33.0000000+00:00</time></trkpt><trkpt lat="34.9779287" lon="32.856745"><ele>1201.5</ele><time>2015-04-29T16:44:36.0000000+00:00</time></trkpt><trkpt lat="34.9778842" lon="32.8567124"><ele>1202.5</ele><time>2015-04-29T16:44:39.0000000+00:00</time></trkpt><trkpt lat="34.9778451" lon="32.8566844"><ele>1202.2</ele><time>2015-04-29T16:44:42.0000000+00:00</time></trkpt><trkpt lat="34.9778088" lon="32.8566436"><ele>1203.2</ele><time>2015-04-29T16:44:45.0000000+00:00</time></trkpt><trkpt lat="34.9777759" lon="32.8565992"><ele>1201.9</ele><time>2015-04-29T16:44:48.0000000+00:00</time></trkpt><trkpt lat="34.977729" lon="32.8565576"><ele>1203.2</ele><time>2015-04-29T16:44:52.0000000+00:00</time></trkpt><trkpt lat="34.9776892" lon="32.8565198"><ele>1203.5</ele><time>2015-04-29T16:44:56.0000000+00:00</time></trkpt><trkpt lat="34.9776514" lon="32.8564869"><ele>1202.2</ele><time>2015-04-29T16:45:07.0000000+00:00</time></trkpt><trkpt lat="34.9776068" lon="32.8564641"><ele>1200.9</ele><time>2015-04-29T16:45:11.0000000+00:00</time></trkpt><trkpt lat="34.9775584" lon="32.8564556"><ele>1200.8</ele><time>2015-04-29T16:45:15.0000000+00:00</time></trkpt><trkpt lat="34.9775147" lon="32.8564261"><ele>1201.8</ele><time>2015-04-29T16:45:19.0000000+00:00</time></trkpt><trkpt lat="34.9774676" lon="32.8564119"><ele>1202.4</ele><time>2015-04-29T16:45:24.0000000+00:00</time></trkpt><trkpt lat="34.9774288" lon="32.85644"><ele>1203.2</ele><time>2015-04-29T16:45:28.0000000+00:00</time></trkpt><trkpt lat="34.9773801" lon="32.8564512"><ele>1205.4</ele><time>2015-04-29T16:45:32.0000000+00:00</time></trkpt><trkpt lat="34.9773331" lon="32.8564664"><ele>1205.2</ele><time>2015-04-29T16:45:36.0000000+00:00</time></trkpt><trkpt lat="34.9772964" lon="32.8565129"><ele>1206.0</ele><time>2015-04-29T16:45:41.0000000+00:00</time></trkpt><trkpt lat="34.9772689" lon="32.8565613"><ele>1206.0</ele><time>2015-04-29T16:45:45.0000000+00:00</time></trkpt><trkpt lat="34.977233" lon="32.8566088"><ele>1204.8</ele><time>2015-04-29T16:45:50.0000000+00:00</time></trkpt><trkpt lat="34.9772104" lon="32.8566582"><ele>1204.0</ele><time>2015-04-29T16:45:55.0000000+00:00</time></trkpt><trkpt lat="34.9771766" lon="32.8566978"><ele>1204.6</ele><time>2015-04-29T16:46:00.0000000+00:00</time></trkpt><trkpt lat="34.9771633" lon="32.8567539"><ele>1204.3</ele><time>2015-04-29T16:46:05.0000000+00:00</time></trkpt><trkpt lat="34.9771394" lon="32.8568098"><ele>1206.0</ele><time>2015-04-29T16:46:10.0000000+00:00</time></trkpt><trkpt lat="34.9771214" lon="32.8568673"><ele>1207.7</ele><time>2015-04-29T16:46:15.0000000+00:00</time></trkpt><trkpt lat="34.9771087" lon="32.856933"><ele>1209.4</ele><time>2015-04-29T16:46:19.0000000+00:00</time></trkpt><trkpt lat="34.9770955" lon="32.8569937"><ele>1210.6</ele><time>2015-04-29T16:46:23.0000000+00:00</time></trkpt><trkpt lat="34.9770838" lon="32.8570522"><ele>1213.1</ele><time>2015-04-29T16:46:27.0000000+00:00</time></trkpt><trkpt lat="34.97707" lon="32.8571126"><ele>1213.9</ele><time>2015-04-29T16:46:31.0000000+00:00</time></trkpt><trkpt lat="34.9770607" lon="32.8571724"><ele>1213.8</ele><time>2015-04-29T16:46:35.0000000+00:00</time></trkpt><trkpt lat="34.9770489" lon="32.8572274"><ele>1213.8</ele><time>2015-04-29T16:46:39.0000000+00:00</time></trkpt><trkpt lat="34.9770581" lon="32.8572924"><ele>1212.9</ele><time>2015-04-29T16:46:44.0000000+00:00</time></trkpt><trkpt lat="34.9770533" lon="32.8573497"><ele>1212.5</ele><time>2015-04-29T16:46:48.0000000+00:00</time></trkpt><trkpt lat="34.9770328" lon="32.8574116"><ele>1213.7</ele><time>2015-04-29T16:46:53.0000000+00:00</time></trkpt><trkpt lat="34.9770226" lon="32.8574747"><ele>1215.0</ele><time>2015-04-29T16:46:58.0000000+00:00</time></trkpt><trkpt lat="34.977009" lon="32.8575339"><ele>1216.7</ele><time>2015-04-29T16:47:02.0000000+00:00</time></trkpt><trkpt lat="34.9769843" lon="32.8575938"><ele>1217.5</ele><time>2015-04-29T16:47:06.0000000+00:00</time></trkpt><trkpt lat="34.9769618" lon="32.857656"><ele>1217.7</ele><time>2015-04-29T16:47:10.0000000+00:00</time></trkpt><trkpt lat="34.9769584" lon="32.8577134"><ele>1218.3</ele><time>2015-04-29T16:47:13.0000000+00:00</time></trkpt><trkpt lat="34.9769578" lon="32.8577731"><ele>1220.3</ele><time>2015-04-29T16:47:16.0000000+00:00</time></trkpt><trkpt lat="34.9769465" lon="32.8578341"><ele>1219.7</ele><time>2015-04-29T16:47:20.0000000+00:00</time></trkpt><trkpt lat="34.9769418" lon="32.8578935"><ele>1220.3</ele><time>2015-04-29T16:47:24.0000000+00:00</time></trkpt><trkpt lat="34.9769271" lon="32.8579573"><ele>1221.2</ele><time>2015-04-29T16:47:28.0000000+00:00</time></trkpt><trkpt lat="34.9769103" lon="32.8580259"><ele>1220.5</ele><time>2015-04-29T16:47:32.0000000+00:00</time></trkpt><trkpt lat="34.9769083" lon="32.8580975"><ele>1222.3</ele><time>2015-04-29T16:47:36.0000000+00:00</time></trkpt><trkpt lat="34.9768948" lon="32.8581516"><ele>1222.8</ele><time>2015-04-29T16:47:39.0000000+00:00</time></trkpt><trkpt lat="34.9768652" lon="32.8582015"><ele>1223.5</ele><time>2015-04-29T16:47:42.0000000+00:00</time></trkpt><trkpt lat="34.9768349" lon="32.8582483"><ele>1224.5</ele><time>2015-04-29T16:47:45.0000000+00:00</time></trkpt><trkpt lat="34.9768049" lon="32.8582957"><ele>1223.2</ele><time>2015-04-29T16:47:48.0000000+00:00</time></trkpt><trkpt lat="34.9767678" lon="32.8583348"><ele>1223.7</ele><time>2015-04-29T16:47:51.0000000+00:00</time></trkpt><trkpt lat="34.9767208" lon="32.8583791"><ele>1222.5</ele><time>2015-04-29T16:47:54.0000000+00:00</time></trkpt><trkpt lat="34.976665" lon="32.8583966"><ele>1221.4</ele><time>2015-04-29T16:47:58.0000000+00:00</time></trkpt><trkpt lat="34.9766247" lon="32.8584229"><ele>1220.0</ele><time>2015-04-29T16:48:01.0000000+00:00</time></trkpt><trkpt lat="34.9765795" lon="32.8584634"><ele>1219.0</ele><time>2015-04-29T16:48:04.0000000+00:00</time></trkpt><trkpt lat="34.9765293" lon="32.8584986"><ele>1218.3</ele><time>2015-04-29T16:48:07.0000000+00:00</time></trkpt><trkpt lat="34.9764768" lon="32.8585215"><ele>1216.0</ele><time>2015-04-29T16:48:11.0000000+00:00</time></trkpt><trkpt lat="34.9764181" lon="32.8585177"><ele>1217.9</ele><time>2015-04-29T16:48:15.0000000+00:00</time></trkpt><trkpt lat="34.9763729" lon="32.8585045"><ele>1220.3</ele><time>2015-04-29T16:48:18.0000000+00:00</time></trkpt><trkpt lat="34.9763208" lon="32.8584965"><ele>1221.5</ele><time>2015-04-29T16:48:21.0000000+00:00</time></trkpt><trkpt lat="34.9762678" lon="32.8584835"><ele>1221.7</ele><time>2015-04-29T16:48:24.0000000+00:00</time></trkpt><trkpt lat="34.9762156" lon="32.8584615"><ele>1221.3</ele><time>2015-04-29T16:48:27.0000000+00:00</time></trkpt><trkpt lat="34.9761693" lon="32.8584391"><ele>1222.1</ele><time>2015-04-29T16:48:30.0000000+00:00</time></trkpt><trkpt lat="34.9761173" lon="32.8584122"><ele>1222.7</ele><time>2015-04-29T16:48:33.0000000+00:00</time></trkpt><trkpt lat="34.9760782" lon="32.8583748"><ele>1224.0</ele><time>2015-04-29T16:48:36.0000000+00:00</time></trkpt><trkpt lat="34.9760335" lon="32.8583479"><ele>1225.0</ele><time>2015-04-29T16:48:39.0000000+00:00</time></trkpt><trkpt lat="34.9759879" lon="32.8583124"><ele>1225.6</ele><time>2015-04-29T16:48:42.0000000+00:00</time></trkpt><trkpt lat="34.9759462" lon="32.8582674"><ele>1227.4</ele><time>2015-04-29T16:48:45.0000000+00:00</time></trkpt><trkpt lat="34.9759034" lon="32.858224"><ele>1227.3</ele><time>2015-04-29T16:48:48.0000000+00:00</time></trkpt><trkpt lat="34.9758568" lon="32.8581801"><ele>1229.2</ele><time>2015-04-29T16:48:51.0000000+00:00</time></trkpt><trkpt lat="34.9758064" lon="32.8581495"><ele>1229.6</ele><time>2015-04-29T16:48:54.0000000+00:00</time></trkpt><trkpt lat="34.9757615" lon="32.8581003"><ele>1231.2</ele><time>2015-04-29T16:48:57.0000000+00:00</time></trkpt><trkpt lat="34.9757141" lon="32.8580433"><ele>1231.1</ele><time>2015-04-29T16:49:00.0000000+00:00</time></trkpt><trkpt lat="34.9756713" lon="32.8580219"><ele>1230.8</ele><time>2015-04-29T16:49:02.0000000+00:00</time></trkpt><trkpt lat="34.9756173" lon="32.8580173"><ele>1230.8</ele><time>2015-04-29T16:49:05.0000000+00:00</time></trkpt><trkpt lat="34.9755641" lon="32.8580242"><ele>1231.0</ele><time>2015-04-29T16:49:09.0000000+00:00</time></trkpt><trkpt lat="34.9755099" lon="32.858007"><ele>1229.8</ele><time>2015-04-29T16:49:12.0000000+00:00</time></trkpt><trkpt lat="34.9754544" lon="32.8579873"><ele>1229.0</ele><time>2015-04-29T16:49:15.0000000+00:00</time></trkpt><trkpt lat="34.9753983" lon="32.8579704"><ele>1229.7</ele><time>2015-04-29T16:49:18.0000000+00:00</time></trkpt><trkpt lat="34.9753344" lon="32.8579636"><ele>1229.9</ele><time>2015-04-29T16:49:21.0000000+00:00</time></trkpt><trkpt lat="34.9752767" lon="32.8579635"><ele>1230.0</ele><time>2015-04-29T16:49:23.0000000+00:00</time></trkpt><trkpt lat="34.9752079" lon="32.8579582"><ele>1230.1</ele><time>2015-04-29T16:49:25.0000000+00:00</time></trkpt><trkpt lat="34.9751509" lon="32.8579558"><ele>1229.8</ele><time>2015-04-29T16:49:27.0000000+00:00</time></trkpt><trkpt lat="34.975094" lon="32.8579598"><ele>1230.7</ele><time>2015-04-29T16:49:30.0000000+00:00</time></trkpt><trkpt lat="34.975049" lon="32.8579631"><ele>1229.5</ele><time>2015-04-29T16:49:33.0000000+00:00</time></trkpt><trkpt lat="34.9749997" lon="32.8579588"><ele>1228.9</ele><time>2015-04-29T16:49:37.0000000+00:00</time></trkpt><trkpt lat="34.974947" lon="32.8579725"><ele>1228.6</ele><time>2015-04-29T16:49:41.0000000+00:00</time></trkpt><trkpt lat="34.9748998" lon="32.857986"><ele>1229.5</ele><time>2015-04-29T16:49:44.0000000+00:00</time></trkpt><trkpt lat="34.9748522" lon="32.8579819"><ele>1230.5</ele><time>2015-04-29T16:49:47.0000000+00:00</time></trkpt><trkpt lat="34.9748127" lon="32.8579513"><ele>1232.1</ele><time>2015-04-29T16:49:50.0000000+00:00</time></trkpt><trkpt lat="34.9747553" lon="32.85796"><ele>1234.5</ele><time>2015-04-29T16:49:54.0000000+00:00</time></trkpt><trkpt lat="34.9747232" lon="32.8580077"><ele>1235.1</ele><time>2015-04-29T16:55:53.0000000+00:00</time></trkpt><trkpt lat="34.9746946" lon="32.8580604"><ele>1235.5</ele><time>2015-04-29T16:55:57.0000000+00:00</time></trkpt><trkpt lat="34.9746591" lon="32.8580979"><ele>1235.3</ele><time>2015-04-29T16:56:01.0000000+00:00</time></trkpt><trkpt lat="34.9746101" lon="32.85814"><ele>1235.2</ele><time>2015-04-29T16:56:05.0000000+00:00</time></trkpt><trkpt lat="34.9745713" lon="32.8581828"><ele>1235.1</ele><time>2015-04-29T16:56:08.0000000+00:00</time></trkpt><trkpt lat="34.9745286" lon="32.8582219"><ele>1236.2</ele><time>2015-04-29T16:56:11.0000000+00:00</time></trkpt><trkpt lat="34.9744827" lon="32.8582526"><ele>1235.9</ele><time>2015-04-29T16:56:14.0000000+00:00</time></trkpt><trkpt lat="34.974437" lon="32.8582925"><ele>1235.0</ele><time>2015-04-29T16:56:17.0000000+00:00</time></trkpt><trkpt lat="34.9743844" lon="32.858332"><ele>1235.3</ele><time>2015-04-29T16:56:20.0000000+00:00</time></trkpt><trkpt lat="34.97433" lon="32.8583609"><ele>1235.1</ele><time>2015-04-29T16:56:23.0000000+00:00</time></trkpt><trkpt lat="34.9742707" lon="32.8583877"><ele>1236.2</ele><time>2015-04-29T16:56:26.0000000+00:00</time></trkpt><trkpt lat="34.974206" lon="32.8584038"><ele>1237.4</ele><time>2015-04-29T16:56:29.0000000+00:00</time></trkpt><trkpt lat="34.97415" lon="32.8584377"><ele>1237.8</ele><time>2015-04-29T16:56:32.0000000+00:00</time></trkpt><trkpt lat="34.9740949" lon="32.8584633"><ele>1238.9</ele><time>2015-04-29T16:56:35.0000000+00:00</time></trkpt><trkpt lat="34.9740443" lon="32.8584868"><ele>1237.2</ele><time>2015-04-29T16:56:38.0000000+00:00</time></trkpt><trkpt lat="34.9739878" lon="32.8585069"><ele>1236.9</ele><time>2015-04-29T16:56:41.0000000+00:00</time></trkpt><trkpt lat="34.9739372" lon="32.8585289"><ele>1236.3</ele><time>2015-04-29T16:56:44.0000000+00:00</time></trkpt><trkpt lat="34.9738852" lon="32.8585442"><ele>1235.0</ele><time>2015-04-29T16:56:47.0000000+00:00</time></trkpt><trkpt lat="34.9738322" lon="32.8585713"><ele>1235.5</ele><time>2015-04-29T16:56:50.0000000+00:00</time></trkpt><trkpt lat="34.9737845" lon="32.858606"><ele>1235.5</ele><time>2015-04-29T16:56:53.0000000+00:00</time></trkpt><trkpt lat="34.9737356" lon="32.8586432"><ele>1235.6</ele><time>2015-04-29T16:56:56.0000000+00:00</time></trkpt><trkpt lat="34.9736826" lon="32.8586619"><ele>1236.5</ele><time>2015-04-29T16:56:59.0000000+00:00</time></trkpt><trkpt lat="34.9736346" lon="32.8586727"><ele>1236.6</ele><time>2015-04-29T16:57:02.0000000+00:00</time></trkpt><trkpt lat="34.9735897" lon="32.8587146"><ele>1237.9</ele><time>2015-04-29T16:57:06.0000000+00:00</time></trkpt><trkpt lat="34.973541" lon="32.8587584"><ele>1236.2</ele><time>2015-04-29T16:57:10.0000000+00:00</time></trkpt><trkpt lat="34.9735028" lon="32.858798"><ele>1236.8</ele><time>2015-04-29T16:57:13.0000000+00:00</time></trkpt><trkpt lat="34.9734678" lon="32.8588449"><ele>1239.1</ele><time>2015-04-29T16:57:16.0000000+00:00</time></trkpt><trkpt lat="34.9734316" lon="32.8588863"><ele>1238.7</ele><time>2015-04-29T16:57:19.0000000+00:00</time></trkpt><trkpt lat="34.973389" lon="32.8589186"><ele>1240.4</ele><time>2015-04-29T16:57:22.0000000+00:00</time></trkpt><trkpt lat="34.9733466" lon="32.8589493"><ele>1242.1</ele><time>2015-04-29T16:57:25.0000000+00:00</time></trkpt><trkpt lat="34.9733144" lon="32.8589929"><ele>1242.6</ele><time>2015-04-29T16:57:28.0000000+00:00</time></trkpt><trkpt lat="34.9732864" lon="32.8590397"><ele>1243.6</ele><time>2015-04-29T16:57:31.0000000+00:00</time></trkpt><trkpt lat="34.973252" lon="32.8590873"><ele>1243.2</ele><time>2015-04-29T16:57:34.0000000+00:00</time></trkpt><trkpt lat="34.973235" lon="32.8591448"><ele>1245.0</ele><time>2015-04-29T16:57:37.0000000+00:00</time></trkpt><trkpt lat="34.9732189" lon="32.8592137"><ele>1245.4</ele><time>2015-04-29T16:57:40.0000000+00:00</time></trkpt><trkpt lat="34.9732055" lon="32.8592852"><ele>1245.3</ele><time>2015-04-29T16:57:43.0000000+00:00</time></trkpt><trkpt lat="34.9731949" lon="32.8593589"><ele>1245.7</ele><time>2015-04-29T16:57:46.0000000+00:00</time></trkpt><trkpt lat="34.9731891" lon="32.8594333"><ele>1246.9</ele><time>2015-04-29T16:57:49.0000000+00:00</time></trkpt><trkpt lat="34.9731925" lon="32.859513"><ele>1247.3</ele><time>2015-04-29T16:57:52.0000000+00:00</time></trkpt><trkpt lat="34.9731992" lon="32.8595919"><ele>1246.8</ele><time>2015-04-29T16:57:55.0000000+00:00</time></trkpt><trkpt lat="34.9732143" lon="32.8596682"><ele>1244.6</ele><time>2015-04-29T16:57:58.0000000+00:00</time></trkpt><trkpt lat="34.9732354" lon="32.8597364"><ele>1243.9</ele><time>2015-04-29T16:58:01.0000000+00:00</time></trkpt><trkpt lat="34.9732575" lon="32.8598128"><ele>1244.3</ele><time>2015-04-29T16:58:04.0000000+00:00</time></trkpt><trkpt lat="34.9732725" lon="32.8598704"><ele>1244.4</ele><time>2015-04-29T16:58:06.0000000+00:00</time></trkpt><trkpt lat="34.9732919" lon="32.8599297"><ele>1243.9</ele><time>2015-04-29T16:58:08.0000000+00:00</time></trkpt><trkpt lat="34.97332" lon="32.8599867"><ele>1242.6</ele><time>2015-04-29T16:58:10.0000000+00:00</time></trkpt><trkpt lat="34.9733546" lon="32.8600507"><ele>1241.2</ele><time>2015-04-29T16:58:12.0000000+00:00</time></trkpt><trkpt lat="34.9733842" lon="32.8601076"><ele>1240.9</ele><time>2015-04-29T16:58:14.0000000+00:00</time></trkpt><trkpt lat="34.9734033" lon="32.8601847"><ele>1242.2</ele><time>2015-04-29T16:58:17.0000000+00:00</time></trkpt><trkpt lat="34.97341" lon="32.8602417"><ele>1241.9</ele><time>2015-04-29T16:58:19.0000000+00:00</time></trkpt><trkpt lat="34.973422" lon="32.8603216"><ele>1241.5</ele><time>2015-04-29T16:58:22.0000000+00:00</time></trkpt><trkpt lat="34.9734225" lon="32.8603947"><ele>1242.4</ele><time>2015-04-29T16:58:25.0000000+00:00</time></trkpt><trkpt lat="34.9734298" lon="32.8604605"><ele>1242.6</ele><time>2015-04-29T16:58:28.0000000+00:00</time></trkpt><trkpt lat="34.9734417" lon="32.8605253"><ele>1240.7</ele><time>2015-04-29T16:58:31.0000000+00:00</time></trkpt><trkpt lat="34.973439" lon="32.860588"><ele>1242.0</ele><time>2015-04-29T16:58:34.0000000+00:00</time></trkpt><trkpt lat="34.9734308" lon="32.860653"><ele>1243.4</ele><time>2015-04-29T16:58:37.0000000+00:00</time></trkpt><trkpt lat="34.9734302" lon="32.8607161"><ele>1242.1</ele><time>2015-04-29T16:58:40.0000000+00:00</time></trkpt><trkpt lat="34.9734254" lon="32.8607895"><ele>1241.6</ele><time>2015-04-29T16:58:43.0000000+00:00</time></trkpt><trkpt lat="34.9734142" lon="32.8608659"><ele>1243.1</ele><time>2015-04-29T16:58:46.0000000+00:00</time></trkpt><trkpt lat="34.9734016" lon="32.860931"><ele>1243.9</ele><time>2015-04-29T16:58:49.0000000+00:00</time></trkpt><trkpt lat="34.9733962" lon="32.8610024"><ele>1243.8</ele><time>2015-04-29T16:58:52.0000000+00:00</time></trkpt><trkpt lat="34.9733961" lon="32.8610715"><ele>1244.4</ele><time>2015-04-29T16:58:55.0000000+00:00</time></trkpt><trkpt lat="34.9733998" lon="32.8611328"><ele>1245.1</ele><time>2015-04-29T16:58:58.0000000+00:00</time></trkpt><trkpt lat="34.9734079" lon="32.8611956"><ele>1244.9</ele><time>2015-04-29T16:59:01.0000000+00:00</time></trkpt><trkpt lat="34.9734119" lon="32.861266"><ele>1245.7</ele><time>2015-04-29T16:59:04.0000000+00:00</time></trkpt><trkpt lat="34.9734167" lon="32.8613346"><ele>1245.4</ele><time>2015-04-29T16:59:07.0000000+00:00</time></trkpt><trkpt lat="34.973418" lon="32.8613962"><ele>1244.0</ele><time>2015-04-29T16:59:10.0000000+00:00</time></trkpt><trkpt lat="34.9734017" lon="32.8614547"><ele>1245.0</ele><time>2015-04-29T16:59:13.0000000+00:00</time></trkpt><trkpt lat="34.9733794" lon="32.8615148"><ele>1247.0</ele><time>2015-04-29T16:59:16.0000000+00:00</time></trkpt><trkpt lat="34.9733515" lon="32.861576"><ele>1247.1</ele><time>2015-04-29T16:59:19.0000000+00:00</time></trkpt><trkpt lat="34.9733366" lon="32.8616422"><ele>1246.4</ele><time>2015-04-29T16:59:22.0000000+00:00</time></trkpt><trkpt lat="34.9733024" lon="32.8617003"><ele>1248.1</ele><time>2015-04-29T16:59:25.0000000+00:00</time></trkpt><trkpt lat="34.9732779" lon="32.8617642"><ele>1249.4</ele><time>2015-04-29T16:59:28.0000000+00:00</time></trkpt><trkpt lat="34.9732392" lon="32.8618243"><ele>1250.7</ele><time>2015-04-29T16:59:31.0000000+00:00</time></trkpt><trkpt lat="34.9732019" lon="32.861879"><ele>1249.4</ele><time>2015-04-29T16:59:34.0000000+00:00</time></trkpt><trkpt lat="34.9731674" lon="32.8619366"><ele>1248.8</ele><time>2015-04-29T16:59:37.0000000+00:00</time></trkpt><trkpt lat="34.9731285" lon="32.8619967"><ele>1250.9</ele><time>2015-04-29T16:59:40.0000000+00:00</time></trkpt><trkpt lat="34.9731022" lon="32.8620693"><ele>1250.3</ele><time>2015-04-29T16:59:43.0000000+00:00</time></trkpt><trkpt lat="34.9730811" lon="32.8621238"><ele>1249.1</ele><time>2015-04-29T16:59:45.0000000+00:00</time></trkpt><trkpt lat="34.9730516" lon="32.8621892"><ele>1249.4</ele><time>2015-04-29T16:59:47.0000000+00:00</time></trkpt><trkpt lat="34.9730174" lon="32.8622628"><ele>1250.4</ele><time>2015-04-29T16:59:49.0000000+00:00</time></trkpt><trkpt lat="34.9729935" lon="32.8623261"><ele>1251.2</ele><time>2015-04-29T16:59:51.0000000+00:00</time></trkpt><trkpt lat="34.9729692" lon="32.8623753"><ele>1251.6</ele><time>2015-04-29T16:59:53.0000000+00:00</time></trkpt><trkpt lat="34.9729641" lon="32.8624458"><ele>1252.2</ele><time>2015-04-29T16:59:56.0000000+00:00</time></trkpt><trkpt lat="34.9729827" lon="32.8625203"><ele>1254.3</ele><time>2015-04-29T16:59:59.0000000+00:00</time></trkpt><trkpt lat="34.9729955" lon="32.8625947"><ele>1254.7</ele><time>2015-04-29T17:00:02.0000000+00:00</time></trkpt><trkpt lat="34.973009" lon="32.8626619"><ele>1255.5</ele><time>2015-04-29T17:00:05.0000000+00:00</time></trkpt><trkpt lat="34.9730245" lon="32.8627286"><ele>1255.0</ele><time>2015-04-29T17:00:08.0000000+00:00</time></trkpt><trkpt lat="34.9730326" lon="32.8627993"><ele>1254.8</ele><time>2015-04-29T17:00:11.0000000+00:00</time></trkpt><trkpt lat="34.9730266" lon="32.8628782"><ele>1256.3</ele><time>2015-04-29T17:00:14.0000000+00:00</time></trkpt><trkpt lat="34.9730141" lon="32.8629572"><ele>1257.2</ele><time>2015-04-29T17:00:17.0000000+00:00</time></trkpt><trkpt lat="34.9730124" lon="32.8630335"><ele>1257.7</ele><time>2015-04-29T17:00:20.0000000+00:00</time></trkpt><trkpt lat="34.9729772" lon="32.8630985"><ele>1259.1</ele><time>2015-04-29T17:00:23.0000000+00:00</time></trkpt><trkpt lat="34.9729341" lon="32.8631555"><ele>1260.1</ele><time>2015-04-29T17:00:26.0000000+00:00</time></trkpt><trkpt lat="34.9728907" lon="32.863182"><ele>1260.3</ele><time>2015-04-29T17:00:29.0000000+00:00</time></trkpt><trkpt lat="34.9728499" lon="32.8632134"><ele>1260.6</ele><time>2015-04-29T17:00:32.0000000+00:00</time></trkpt><trkpt lat="34.9728147" lon="32.8632489"><ele>1260.0</ele><time>2015-04-29T17:00:35.0000000+00:00</time></trkpt><trkpt lat="34.9727703" lon="32.8632813"><ele>1256.8</ele><time>2015-04-29T17:00:39.0000000+00:00</time></trkpt><trkpt lat="34.9727097" lon="32.8632774"><ele>1255.5</ele><time>2015-04-29T17:00:43.0000000+00:00</time></trkpt><trkpt lat="34.9726468" lon="32.8632671"><ele>1256.9</ele><time>2015-04-29T17:00:46.0000000+00:00</time></trkpt><trkpt lat="34.9726013" lon="32.8632612"><ele>1258.0</ele><time>2015-04-29T17:00:48.0000000+00:00</time></trkpt><trkpt lat="34.9725576" lon="32.8632472"><ele>1259.3</ele><time>2015-04-29T17:00:50.0000000+00:00</time></trkpt><trkpt lat="34.9725138" lon="32.8632324"><ele>1259.7</ele><time>2015-04-29T17:00:52.0000000+00:00</time></trkpt><trkpt lat="34.9724708" lon="32.8632126"><ele>1259.7</ele><time>2015-04-29T17:00:54.0000000+00:00</time></trkpt><trkpt lat="34.9724273" lon="32.8631841"><ele>1261.8</ele><time>2015-04-29T17:00:56.0000000+00:00</time></trkpt><trkpt lat="34.9723716" lon="32.8631484"><ele>1263.5</ele><time>2015-04-29T17:00:59.0000000+00:00</time></trkpt><trkpt lat="34.9723214" lon="32.8631162"><ele>1263.0</ele><time>2015-04-29T17:01:02.0000000+00:00</time></trkpt><trkpt lat="34.9722774" lon="32.8630822"><ele>1263.0</ele><time>2015-04-29T17:01:05.0000000+00:00</time></trkpt><trkpt lat="34.9722343" lon="32.8630552"><ele>1263.3</ele><time>2015-04-29T17:01:08.0000000+00:00</time></trkpt><trkpt lat="34.9721928" lon="32.8630255"><ele>1264.2</ele><time>2015-04-29T17:01:11.0000000+00:00</time></trkpt><trkpt lat="34.9721419" lon="32.8630043"><ele>1265.8</ele><time>2015-04-29T17:01:14.0000000+00:00</time></trkpt><trkpt lat="34.9720864" lon="32.8629909"><ele>1267.9</ele><time>2015-04-29T17:01:17.0000000+00:00</time></trkpt><trkpt lat="34.9720257" lon="32.8629784"><ele>1270.8</ele><time>2015-04-29T17:01:20.0000000+00:00</time></trkpt><trkpt lat="34.9719773" lon="32.8629631"><ele>1272.3</ele><time>2015-04-29T17:01:23.0000000+00:00</time></trkpt><trkpt lat="34.9719152" lon="32.8629519"><ele>1271.2</ele><time>2015-04-29T17:01:27.0000000+00:00</time></trkpt><trkpt lat="34.9718662" lon="32.8629588"><ele>1269.4</ele><time>2015-04-29T17:01:30.0000000+00:00</time></trkpt><trkpt lat="34.9718133" lon="32.8629564"><ele>1268.4</ele><time>2015-04-29T17:01:33.0000000+00:00</time></trkpt><trkpt lat="34.971759" lon="32.8629449"><ele>1268.6</ele><time>2015-04-29T17:01:36.0000000+00:00</time></trkpt><trkpt lat="34.9717001" lon="32.8629003"><ele>1268.2</ele><time>2015-04-29T17:01:39.0000000+00:00</time></trkpt><trkpt lat="34.9716587" lon="32.8628424"><ele>1268.4</ele><time>2015-04-29T17:01:42.0000000+00:00</time></trkpt><trkpt lat="34.9716202" lon="32.8628083"><ele>1268.7</ele><time>2015-04-29T17:01:45.0000000+00:00</time></trkpt><trkpt lat="34.9715739" lon="32.8627996"><ele>1269.6</ele><time>2015-04-29T17:01:48.0000000+00:00</time></trkpt><trkpt lat="34.9715202" lon="32.8627634"><ele>1269.5</ele><time>2015-04-29T17:01:51.0000000+00:00</time></trkpt><trkpt lat="34.9714882" lon="32.8627078"><ele>1270.6</ele><time>2015-04-29T17:01:54.0000000+00:00</time></trkpt><trkpt lat="34.971468" lon="32.8626482"><ele>1270.7</ele><time>2015-04-29T17:01:57.0000000+00:00</time></trkpt><trkpt lat="34.9714486" lon="32.862584"><ele>1273.3</ele><time>2015-04-29T17:02:00.0000000+00:00</time></trkpt><trkpt lat="34.9714474" lon="32.8625138"><ele>1273.2</ele><time>2015-04-29T17:02:03.0000000+00:00</time></trkpt><trkpt lat="34.9714365" lon="32.8624356"><ele>1270.4</ele><time>2015-04-29T17:02:06.0000000+00:00</time></trkpt><trkpt lat="34.9714311" lon="32.8623808"><ele>1269.9</ele><time>2015-04-29T17:02:08.0000000+00:00</time></trkpt><trkpt lat="34.9714306" lon="32.8623053"><ele>1270.2</ele><time>2015-04-29T17:02:11.0000000+00:00</time></trkpt><trkpt lat="34.9714254" lon="32.8622387"><ele>1270.7</ele><time>2015-04-29T17:02:14.0000000+00:00</time></trkpt><trkpt lat="34.97141" lon="32.8621682"><ele>1270.1</ele><time>2015-04-29T17:02:17.0000000+00:00</time></trkpt><trkpt lat="34.9713961" lon="32.8621042"><ele>1269.4</ele><time>2015-04-29T17:02:20.0000000+00:00</time></trkpt><trkpt lat="34.9713852" lon="32.8620468"><ele>1269.0</ele><time>2015-04-29T17:02:23.0000000+00:00</time></trkpt><trkpt lat="34.9713563" lon="32.8620003"><ele>1269.4</ele><time>2015-04-29T17:02:26.0000000+00:00</time></trkpt><trkpt lat="34.9713143" lon="32.8619607"><ele>1269.3</ele><time>2015-04-29T17:02:29.0000000+00:00</time></trkpt><trkpt lat="34.9712608" lon="32.8619305"><ele>1269.5</ele><time>2015-04-29T17:02:32.0000000+00:00</time></trkpt><trkpt lat="34.9712" lon="32.8619136"><ele>1270.1</ele><time>2015-04-29T17:02:35.0000000+00:00</time></trkpt><trkpt lat="34.9711405" lon="32.8618918"><ele>1271.9</ele><time>2015-04-29T17:02:38.0000000+00:00</time></trkpt><trkpt lat="34.9710831" lon="32.8618708"><ele>1273.4</ele><time>2015-04-29T17:02:41.0000000+00:00</time></trkpt><trkpt lat="34.9710204" lon="32.8618565"><ele>1273.3</ele><time>2015-04-29T17:02:44.0000000+00:00</time></trkpt><trkpt lat="34.9709629" lon="32.8618316"><ele>1273.8</ele><time>2015-04-29T17:02:47.0000000+00:00</time></trkpt><trkpt lat="34.9709065" lon="32.8617971"><ele>1273.3</ele><time>2015-04-29T17:02:50.0000000+00:00</time></trkpt><trkpt lat="34.970846" lon="32.8617677"><ele>1273.5</ele><time>2015-04-29T17:02:53.0000000+00:00</time></trkpt><trkpt lat="34.9707922" lon="32.8617322"><ele>1274.9</ele><time>2015-04-29T17:02:56.0000000+00:00</time></trkpt><trkpt lat="34.9707452" lon="32.8616836"><ele>1276.2</ele><time>2015-04-29T17:02:59.0000000+00:00</time></trkpt><trkpt lat="34.9707121" lon="32.8616454"><ele>1276.1</ele><time>2015-04-29T17:03:01.0000000+00:00</time></trkpt><trkpt lat="34.970684" lon="32.8616014"><ele>1275.6</ele><time>2015-04-29T17:03:03.0000000+00:00</time></trkpt><trkpt lat="34.970659" lon="32.8615297"><ele>1275.4</ele><time>2015-04-29T17:03:06.0000000+00:00</time></trkpt><trkpt lat="34.9706262" lon="32.86146"><ele>1275.7</ele><time>2015-04-29T17:03:09.0000000+00:00</time></trkpt><trkpt lat="34.9706031" lon="32.8614125"><ele>1275.8</ele><time>2015-04-29T17:03:11.0000000+00:00</time></trkpt><trkpt lat="34.9705681" lon="32.8613452"><ele>1275.9</ele><time>2015-04-29T17:03:14.0000000+00:00</time></trkpt><trkpt lat="34.9705317" lon="32.8612765"><ele>1275.7</ele><time>2015-04-29T17:03:17.0000000+00:00</time></trkpt><trkpt lat="34.9705121" lon="32.8612266"><ele>1274.7</ele><time>2015-04-29T17:03:19.0000000+00:00</time></trkpt><trkpt lat="34.9704725" lon="32.8611623"><ele>1275.4</ele><time>2015-04-29T17:03:22.0000000+00:00</time></trkpt><trkpt lat="34.9704336" lon="32.8611018"><ele>1274.8</ele><time>2015-04-29T17:03:25.0000000+00:00</time></trkpt><trkpt lat="34.9703801" lon="32.8610708"><ele>1274.5</ele><time>2015-04-29T17:03:28.0000000+00:00</time></trkpt><trkpt lat="34.9703283" lon="32.8610537"><ele>1274.4</ele><time>2015-04-29T17:03:31.0000000+00:00</time></trkpt><trkpt lat="34.9702771" lon="32.8610579"><ele>1276.8</ele><time>2015-04-29T17:05:22.0000000+00:00</time></trkpt><trkpt lat="34.9702219" lon="32.8610563"><ele>1278.1</ele><time>2015-04-29T17:05:25.0000000+00:00</time></trkpt><trkpt lat="34.9701688" lon="32.8610618"><ele>1278.7</ele><time>2015-04-29T17:05:28.0000000+00:00</time></trkpt><trkpt lat="34.9701256" lon="32.8610799"><ele>1279.3</ele><time>2015-04-29T17:05:31.0000000+00:00</time></trkpt><trkpt lat="34.9700745" lon="32.8610919"><ele>1279.5</ele><time>2015-04-29T17:05:34.0000000+00:00</time></trkpt><trkpt lat="34.9700259" lon="32.8611002"><ele>1279.0</ele><time>2015-04-29T17:05:37.0000000+00:00</time></trkpt><trkpt lat="34.9699782" lon="32.8611024"><ele>1279.3</ele><time>2015-04-29T17:05:40.0000000+00:00</time></trkpt><trkpt lat="34.9699307" lon="32.8611181"><ele>1279.8</ele><time>2015-04-29T17:05:43.0000000+00:00</time></trkpt><trkpt lat="34.9698799" lon="32.8611251"><ele>1281.5</ele><time>2015-04-29T17:05:46.0000000+00:00</time></trkpt><trkpt lat="34.9698274" lon="32.861139"><ele>1281.7</ele><time>2015-04-29T17:05:49.0000000+00:00</time></trkpt><trkpt lat="34.969775" lon="32.8611456"><ele>1281.0</ele><time>2015-04-29T17:05:52.0000000+00:00</time></trkpt><trkpt lat="34.9697196" lon="32.8611613"><ele>1281.0</ele><time>2015-04-29T17:05:55.0000000+00:00</time></trkpt><trkpt lat="34.9696607" lon="32.861148"><ele>1281.7</ele><time>2015-04-29T17:05:58.0000000+00:00</time></trkpt><trkpt lat="34.9696086" lon="32.861125"><ele>1280.0</ele><time>2015-04-29T17:06:01.0000000+00:00</time></trkpt><trkpt lat="34.9695548" lon="32.8610945"><ele>1279.9</ele><time>2015-04-29T17:06:04.0000000+00:00</time></trkpt><trkpt lat="34.9694964" lon="32.8610525"><ele>1279.7</ele><time>2015-04-29T17:06:07.0000000+00:00</time></trkpt><trkpt lat="34.9694525" lon="32.8610204"><ele>1280.2</ele><time>2015-04-29T17:06:09.0000000+00:00</time></trkpt><trkpt lat="34.9694005" lon="32.8609796"><ele>1281.1</ele><time>2015-04-29T17:06:11.0000000+00:00</time></trkpt><trkpt lat="34.9693476" lon="32.8609351"><ele>1281.9</ele><time>2015-04-29T17:06:13.0000000+00:00</time></trkpt><trkpt lat="34.9692933" lon="32.8608967"><ele>1282.5</ele><time>2015-04-29T17:06:15.0000000+00:00</time></trkpt><trkpt lat="34.9692381" lon="32.8608682"><ele>1283.2</ele><time>2015-04-29T17:06:17.0000000+00:00</time></trkpt><trkpt lat="34.9691856" lon="32.8608434"><ele>1282.9</ele><time>2015-04-29T17:06:19.0000000+00:00</time></trkpt><trkpt lat="34.9691353" lon="32.860822"><ele>1282.8</ele><time>2015-04-29T17:06:21.0000000+00:00</time></trkpt><trkpt lat="34.9690699" lon="32.8608055"><ele>1281.9</ele><time>2015-04-29T17:06:24.0000000+00:00</time></trkpt><trkpt lat="34.9690072" lon="32.8607993"><ele>1281.8</ele><time>2015-04-29T17:06:27.0000000+00:00</time></trkpt><trkpt lat="34.9689436" lon="32.8607894"><ele>1281.8</ele><time>2015-04-29T17:06:30.0000000+00:00</time></trkpt><trkpt lat="34.9688812" lon="32.8607842"><ele>1281.8</ele><time>2015-04-29T17:06:33.0000000+00:00</time></trkpt><trkpt lat="34.9688233" lon="32.8607638"><ele>1281.4</ele><time>2015-04-29T17:06:36.0000000+00:00</time></trkpt><trkpt lat="34.9687817" lon="32.860743"><ele>1284.8</ele><time>2015-04-29T17:06:39.0000000+00:00</time></trkpt><trkpt lat="34.9687331" lon="32.8606899"><ele>1286.3</ele><time>2015-04-29T17:06:44.0000000+00:00</time></trkpt><trkpt lat="34.9686937" lon="32.860633"><ele>1286.6</ele><time>2015-04-29T17:06:47.0000000+00:00</time></trkpt><trkpt lat="34.9686671" lon="32.8605627"><ele>1286.2</ele><time>2015-04-29T17:06:50.0000000+00:00</time></trkpt><trkpt lat="34.9686535" lon="32.860496"><ele>1286.4</ele><time>2015-04-29T17:06:52.0000000+00:00</time></trkpt><trkpt lat="34.9686426" lon="32.8604144"><ele>1286.7</ele><time>2015-04-29T17:06:54.0000000+00:00</time></trkpt><trkpt lat="34.9686374" lon="32.8603176"><ele>1287.2</ele><time>2015-04-29T17:06:56.0000000+00:00</time></trkpt><trkpt lat="34.9686469" lon="32.860218"><ele>1287.6</ele><time>2015-04-29T17:06:58.0000000+00:00</time></trkpt><trkpt lat="34.9686611" lon="32.8601222"><ele>1288.2</ele><time>2015-04-29T17:07:00.0000000+00:00</time></trkpt><trkpt lat="34.9686815" lon="32.8600277"><ele>1289.4</ele><time>2015-04-29T17:07:02.0000000+00:00</time></trkpt><trkpt lat="34.9687027" lon="32.8599306"><ele>1287.9</ele><time>2015-04-29T17:07:04.0000000+00:00</time></trkpt><trkpt lat="34.9687153" lon="32.8598777"><ele>1288.3</ele><time>2015-04-29T17:07:05.0000000+00:00</time></trkpt><trkpt lat="34.9687385" lon="32.8597754"><ele>1287.9</ele><time>2015-04-29T17:07:07.0000000+00:00</time></trkpt><trkpt lat="34.9687503" lon="32.8597222"><ele>1287.8</ele><time>2015-04-29T17:07:08.0000000+00:00</time></trkpt><trkpt lat="34.968772" lon="32.8596099"><ele>1287.8</ele><time>2015-04-29T17:07:10.0000000+00:00</time></trkpt><trkpt lat="34.9687878" lon="32.859509"><ele>1287.3</ele><time>2015-04-29T17:07:12.0000000+00:00</time></trkpt><trkpt lat="34.9687997" lon="32.8594293"><ele>1287.1</ele><time>2015-04-29T17:07:14.0000000+00:00</time></trkpt><trkpt lat="34.9688057" lon="32.8593596"><ele>1287.6</ele><time>2015-04-29T17:07:16.0000000+00:00</time></trkpt><trkpt lat="34.9688181" lon="32.8592814"><ele>1288.2</ele><time>2015-04-29T17:07:18.0000000+00:00</time></trkpt><trkpt lat="34.9688236" lon="32.8591981"><ele>1288.6</ele><time>2015-04-29T17:07:20.0000000+00:00</time></trkpt><trkpt lat="34.9688251" lon="32.8591103"><ele>1288.7</ele><time>2015-04-29T17:07:22.0000000+00:00</time></trkpt><trkpt lat="34.9688307" lon="32.8590219"><ele>1290.0</ele><time>2015-04-29T17:07:24.0000000+00:00</time></trkpt><trkpt lat="34.9688259" lon="32.8589306"><ele>1291.1</ele><time>2015-04-29T17:07:26.0000000+00:00</time></trkpt><trkpt lat="34.9688166" lon="32.8588422"><ele>1290.1</ele><time>2015-04-29T17:07:28.0000000+00:00</time></trkpt><trkpt lat="34.9688247" lon="32.8587712"><ele>1290.6</ele><time>2015-04-29T17:07:30.0000000+00:00</time></trkpt><trkpt lat="34.9688297" lon="32.8586981"><ele>1291.5</ele><time>2015-04-29T17:07:32.0000000+00:00</time></trkpt><trkpt lat="34.9688312" lon="32.8586216"><ele>1292.9</ele><time>2015-04-29T17:07:34.0000000+00:00</time></trkpt><trkpt lat="34.9688293" lon="32.8585497"><ele>1294.3</ele><time>2015-04-29T17:07:36.0000000+00:00</time></trkpt><trkpt lat="34.9688194" lon="32.8584879"><ele>1294.4</ele><time>2015-04-29T17:07:38.0000000+00:00</time></trkpt><trkpt lat="34.968804" lon="32.8584248"><ele>1295.2</ele><time>2015-04-29T17:07:40.0000000+00:00</time></trkpt><trkpt lat="34.9687854" lon="32.8583506"><ele>1296.1</ele><time>2015-04-29T17:07:42.0000000+00:00</time></trkpt><trkpt lat="34.9687608" lon="32.858268"><ele>1296.1</ele><time>2015-04-29T17:07:44.0000000+00:00</time></trkpt><trkpt lat="34.9687346" lon="32.8581788"><ele>1295.3</ele><time>2015-04-29T17:07:46.0000000+00:00</time></trkpt><trkpt lat="34.9687083" lon="32.8580955"><ele>1295.4</ele><time>2015-04-29T17:07:48.0000000+00:00</time></trkpt><trkpt lat="34.9686779" lon="32.8580281"><ele>1295.7</ele><time>2015-04-29T17:07:50.0000000+00:00</time></trkpt><trkpt lat="34.968654" lon="32.8579619"><ele>1295.3</ele><time>2015-04-29T17:07:53.0000000+00:00</time></trkpt><trkpt lat="34.9686376" lon="32.857909"><ele>1295.9</ele><time>2015-04-29T17:07:55.0000000+00:00</time></trkpt><trkpt lat="34.9686077" lon="32.8578513"><ele>1297.0</ele><time>2015-04-29T17:07:57.0000000+00:00</time></trkpt><trkpt lat="34.9685781" lon="32.8577839"><ele>1295.6</ele><time>2015-04-29T17:07:59.0000000+00:00</time></trkpt><trkpt lat="34.9685482" lon="32.8577162"><ele>1296.5</ele><time>2015-04-29T17:08:01.0000000+00:00</time></trkpt><trkpt lat="34.9685152" lon="32.8576459"><ele>1297.4</ele><time>2015-04-29T17:08:03.0000000+00:00</time></trkpt><trkpt lat="34.9684869" lon="32.8575655"><ele>1297.2</ele><time>2015-04-29T17:08:05.0000000+00:00</time></trkpt><trkpt lat="34.9684633" lon="32.8574959"><ele>1297.1</ele><time>2015-04-29T17:08:07.0000000+00:00</time></trkpt><trkpt lat="34.9684416" lon="32.8574088"><ele>1297.4</ele><time>2015-04-29T17:08:09.0000000+00:00</time></trkpt><trkpt lat="34.9684228" lon="32.8573326"><ele>1296.7</ele><time>2015-04-29T17:08:11.0000000+00:00</time></trkpt><trkpt lat="34.968413" lon="32.8572597"><ele>1297.2</ele><time>2015-04-29T17:08:13.0000000+00:00</time></trkpt><trkpt lat="34.9684139" lon="32.8572035"><ele>1296.4</ele><time>2015-04-29T17:08:15.0000000+00:00</time></trkpt><trkpt lat="34.9684303" lon="32.8571389"><ele>1295.2</ele><time>2015-04-29T17:08:17.0000000+00:00</time></trkpt><trkpt lat="34.9684672" lon="32.8570767"><ele>1294.9</ele><time>2015-04-29T17:08:19.0000000+00:00</time></trkpt><trkpt lat="34.9685152" lon="32.857021"><ele>1294.8</ele><time>2015-04-29T17:08:21.0000000+00:00</time></trkpt><trkpt lat="34.9685572" lon="32.856964"><ele>1294.8</ele><time>2015-04-29T17:08:23.0000000+00:00</time></trkpt><trkpt lat="34.9686099" lon="32.8569152"><ele>1293.8</ele><time>2015-04-29T17:08:25.0000000+00:00</time></trkpt><trkpt lat="34.968667" lon="32.8568769"><ele>1294.3</ele><time>2015-04-29T17:08:27.0000000+00:00</time></trkpt><trkpt lat="34.9687308" lon="32.8568557"><ele>1295.1</ele><time>2015-04-29T17:08:29.0000000+00:00</time></trkpt><trkpt lat="34.9687982" lon="32.856843"><ele>1295.6</ele><time>2015-04-29T17:08:31.0000000+00:00</time></trkpt><trkpt lat="34.9688706" lon="32.8568292"><ele>1296.7</ele><time>2015-04-29T17:08:33.0000000+00:00</time></trkpt><trkpt lat="34.9689401" lon="32.8568134"><ele>1298.0</ele><time>2015-04-29T17:08:35.0000000+00:00</time></trkpt><trkpt lat="34.9690124" lon="32.8568024"><ele>1298.3</ele><time>2015-04-29T17:08:37.0000000+00:00</time></trkpt><trkpt lat="34.9690818" lon="32.8567879"><ele>1298.2</ele><time>2015-04-29T17:08:39.0000000+00:00</time></trkpt><trkpt lat="34.9691545" lon="32.8567637"><ele>1296.6</ele><time>2015-04-29T17:08:41.0000000+00:00</time></trkpt><trkpt lat="34.9692259" lon="32.8567323"><ele>1296.2</ele><time>2015-04-29T17:08:43.0000000+00:00</time></trkpt><trkpt lat="34.9692928" lon="32.8566899"><ele>1295.9</ele><time>2015-04-29T17:08:45.0000000+00:00</time></trkpt><trkpt lat="34.9693448" lon="32.8566314"><ele>1295.5</ele><time>2015-04-29T17:08:47.0000000+00:00</time></trkpt><trkpt lat="34.9693878" lon="32.8565591"><ele>1296.2</ele><time>2015-04-29T17:08:49.0000000+00:00</time></trkpt><trkpt lat="34.9694256" lon="32.8564834"><ele>1295.9</ele><time>2015-04-29T17:08:51.0000000+00:00</time></trkpt><trkpt lat="34.9694588" lon="32.8564032"><ele>1296.5</ele><time>2015-04-29T17:08:53.0000000+00:00</time></trkpt><trkpt lat="34.969479" lon="32.8563188"><ele>1296.2</ele><time>2015-04-29T17:08:55.0000000+00:00</time></trkpt><trkpt lat="34.9694997" lon="32.8562268"><ele>1296.4</ele><time>2015-04-29T17:08:57.0000000+00:00</time></trkpt><trkpt lat="34.969525" lon="32.8561423"><ele>1296.7</ele><time>2015-04-29T17:08:59.0000000+00:00</time></trkpt><trkpt lat="34.9695526" lon="32.8560631"><ele>1295.7</ele><time>2015-04-29T17:09:01.0000000+00:00</time></trkpt><trkpt lat="34.9695853" lon="32.8559908"><ele>1296.5</ele><time>2015-04-29T17:09:03.0000000+00:00</time></trkpt><trkpt lat="34.9696192" lon="32.8559135"><ele>1295.7</ele><time>2015-04-29T17:09:05.0000000+00:00</time></trkpt><trkpt lat="34.9696534" lon="32.8558368"><ele>1296.5</ele><time>2015-04-29T17:09:07.0000000+00:00</time></trkpt><trkpt lat="34.9696963" lon="32.8557634"><ele>1297.2</ele><time>2015-04-29T17:09:09.0000000+00:00</time></trkpt><trkpt lat="34.9697469" lon="32.8557089"><ele>1299.1</ele><time>2015-04-29T17:09:11.0000000+00:00</time></trkpt><trkpt lat="34.9697877" lon="32.8556527"><ele>1299.6</ele><time>2015-04-29T17:09:13.0000000+00:00</time></trkpt><trkpt lat="34.9698204" lon="32.855589"><ele>1300.2</ele><time>2015-04-29T17:09:15.0000000+00:00</time></trkpt><trkpt lat="34.9698485" lon="32.8555201"><ele>1300.6</ele><time>2015-04-29T17:09:17.0000000+00:00</time></trkpt><trkpt lat="34.9698735" lon="32.8554565"><ele>1299.7</ele><time>2015-04-29T17:09:19.0000000+00:00</time></trkpt><trkpt lat="34.9699003" lon="32.8553928"><ele>1299.8</ele><time>2015-04-29T17:09:21.0000000+00:00</time></trkpt><trkpt lat="34.9699167" lon="32.8553243"><ele>1299.5</ele><time>2015-04-29T17:09:23.0000000+00:00</time></trkpt><trkpt lat="34.9699393" lon="32.8552526"><ele>1301.0</ele><time>2015-04-29T17:09:25.0000000+00:00</time></trkpt><trkpt lat="34.9699578" lon="32.8551785"><ele>1301.6</ele><time>2015-04-29T17:09:27.0000000+00:00</time></trkpt><trkpt lat="34.9699767" lon="32.8551013"><ele>1302.5</ele><time>2015-04-29T17:09:29.0000000+00:00</time></trkpt><trkpt lat="34.9699873" lon="32.8550233"><ele>1303.2</ele><time>2015-04-29T17:09:31.0000000+00:00</time></trkpt><trkpt lat="34.9699895" lon="32.8549438"><ele>1302.9</ele><time>2015-04-29T17:09:33.0000000+00:00</time></trkpt><trkpt lat="34.9699862" lon="32.8548668"><ele>1303.5</ele><time>2015-04-29T17:09:35.0000000+00:00</time></trkpt><trkpt lat="34.9699722" lon="32.8547895"><ele>1304.2</ele><time>2015-04-29T17:09:37.0000000+00:00</time></trkpt><trkpt lat="34.9699476" lon="32.8547223"><ele>1305.1</ele><time>2015-04-29T17:09:39.0000000+00:00</time></trkpt><trkpt lat="34.9699101" lon="32.854658"><ele>1305.1</ele><time>2015-04-29T17:09:41.0000000+00:00</time></trkpt><trkpt lat="34.9698542" lon="32.8545942"><ele>1305.6</ele><time>2015-04-29T17:09:43.0000000+00:00</time></trkpt><trkpt lat="34.9698139" lon="32.8545598"><ele>1305.7</ele><time>2015-04-29T17:09:44.0000000+00:00</time></trkpt><trkpt lat="34.9697658" lon="32.8545397"><ele>1306.2</ele><time>2015-04-29T17:09:45.0000000+00:00</time></trkpt><trkpt lat="34.9696988" lon="32.8544872"><ele>1307.1</ele><time>2015-04-29T17:09:47.0000000+00:00</time></trkpt><trkpt lat="34.9696507" lon="32.8544644"><ele>1306.9</ele><time>2015-04-29T17:09:49.0000000+00:00</time></trkpt><trkpt lat="34.9695925" lon="32.8544333"><ele>1306.8</ele><time>2015-04-29T17:09:51.0000000+00:00</time></trkpt><trkpt lat="34.9695334" lon="32.8544026"><ele>1306.8</ele><time>2015-04-29T17:09:53.0000000+00:00</time></trkpt><trkpt lat="34.9694827" lon="32.8543725"><ele>1307.5</ele><time>2015-04-29T17:09:55.0000000+00:00</time></trkpt><trkpt lat="34.969424" lon="32.8543418"><ele>1307.7</ele><time>2015-04-29T17:09:57.0000000+00:00</time></trkpt><trkpt lat="34.9693731" lon="32.854308"><ele>1307.7</ele><time>2015-04-29T17:09:59.0000000+00:00</time></trkpt><trkpt lat="34.9693231" lon="32.854278"><ele>1307.3</ele><time>2015-04-29T17:10:01.0000000+00:00</time></trkpt><trkpt lat="34.9692728" lon="32.8542567"><ele>1306.9</ele><time>2015-04-29T17:10:03.0000000+00:00</time></trkpt><trkpt lat="34.9692172" lon="32.8542342"><ele>1307.3</ele><time>2015-04-29T17:10:05.0000000+00:00</time></trkpt><trkpt lat="34.9691629" lon="32.8542092"><ele>1307.1</ele><time>2015-04-29T17:10:07.0000000+00:00</time></trkpt><trkpt lat="34.9691111" lon="32.8541865"><ele>1306.9</ele><time>2015-04-29T17:10:09.0000000+00:00</time></trkpt><trkpt lat="34.9690649" lon="32.8541754"><ele>1306.8</ele><time>2015-04-29T17:10:11.0000000+00:00</time></trkpt><trkpt lat="34.9690095" lon="32.8541653"><ele>1307.5</ele><time>2015-04-29T17:10:13.0000000+00:00</time></trkpt><trkpt lat="34.9689516" lon="32.8541577"><ele>1307.7</ele><time>2015-04-29T17:10:15.0000000+00:00</time></trkpt><trkpt lat="34.9688968" lon="32.8541467"><ele>1307.7</ele><time>2015-04-29T17:10:17.0000000+00:00</time></trkpt><trkpt lat="34.9688487" lon="32.854135"><ele>1308.3</ele><time>2015-04-29T17:10:19.0000000+00:00</time></trkpt><trkpt lat="34.9688022" lon="32.8541149"><ele>1308.6</ele><time>2015-04-29T17:10:21.0000000+00:00</time></trkpt><trkpt lat="34.9687568" lon="32.8540938"><ele>1307.5</ele><time>2015-04-29T17:10:23.0000000+00:00</time></trkpt><trkpt lat="34.9687099" lon="32.8540728"><ele>1306.9</ele><time>2015-04-29T17:10:25.0000000+00:00</time></trkpt><trkpt lat="34.9686628" lon="32.8540457"><ele>1307.6</ele><time>2015-04-29T17:10:27.0000000+00:00</time></trkpt><trkpt lat="34.9686174" lon="32.8540075"><ele>1307.7</ele><time>2015-04-29T17:10:29.0000000+00:00</time></trkpt><trkpt lat="34.9685785" lon="32.8539571"><ele>1308.5</ele><time>2015-04-29T17:10:31.0000000+00:00</time></trkpt><trkpt lat="34.9685408" lon="32.8539016"><ele>1308.7</ele><time>2015-04-29T17:10:33.0000000+00:00</time></trkpt><trkpt lat="34.9685034" lon="32.8538501"><ele>1309.2</ele><time>2015-04-29T17:10:35.0000000+00:00</time></trkpt><trkpt lat="34.9684649" lon="32.853793"><ele>1310.1</ele><time>2015-04-29T17:10:37.0000000+00:00</time></trkpt><trkpt lat="34.9684298" lon="32.8537334"><ele>1310.9</ele><time>2015-04-29T17:10:39.0000000+00:00</time></trkpt><trkpt lat="34.9683842" lon="32.8536724"><ele>1310.3</ele><time>2015-04-29T17:10:41.0000000+00:00</time></trkpt><trkpt lat="34.9683416" lon="32.8536134"><ele>1310.4</ele><time>2015-04-29T17:10:43.0000000+00:00</time></trkpt><trkpt lat="34.9683008" lon="32.8535674"><ele>1311.4</ele><time>2015-04-29T17:10:45.0000000+00:00</time></trkpt><trkpt lat="34.9682488" lon="32.8535226"><ele>1311.7</ele><time>2015-04-29T17:10:48.0000000+00:00</time></trkpt><trkpt lat="34.9682092" lon="32.8534892"><ele>1311.8</ele><time>2015-04-29T17:10:51.0000000+00:00</time></trkpt><trkpt lat="34.9681584" lon="32.8534518"><ele>1310.9</ele><time>2015-04-29T17:10:54.0000000+00:00</time></trkpt><trkpt lat="34.9680998" lon="32.853406"><ele>1311.0</ele><time>2015-04-29T17:10:57.0000000+00:00</time></trkpt><trkpt lat="34.9680606" lon="32.8533756"><ele>1311.3</ele><time>2015-04-29T17:10:59.0000000+00:00</time></trkpt><trkpt lat="34.9680239" lon="32.853339"><ele>1312.2</ele><time>2015-04-29T17:11:01.0000000+00:00</time></trkpt><trkpt lat="34.9679938" lon="32.8532981"><ele>1312.6</ele><time>2015-04-29T17:11:03.0000000+00:00</time></trkpt><trkpt lat="34.9679738" lon="32.8532293"><ele>1314.2</ele><time>2015-04-29T17:11:06.0000000+00:00</time></trkpt><trkpt lat="34.967958" lon="32.8531561"><ele>1316.1</ele><time>2015-04-29T17:11:09.0000000+00:00</time></trkpt><trkpt lat="34.9679378" lon="32.8530732"><ele>1316.7</ele><time>2015-04-29T17:11:12.0000000+00:00</time></trkpt><trkpt lat="34.9679344" lon="32.8529854"><ele>1315.2</ele><time>2015-04-29T17:11:14.0000000+00:00</time></trkpt><trkpt lat="34.967945" lon="32.8529046"><ele>1314.6</ele><time>2015-04-29T17:11:16.0000000+00:00</time></trkpt><trkpt lat="34.9679626" lon="32.8528325"><ele>1315.5</ele><time>2015-04-29T17:11:18.0000000+00:00</time></trkpt><trkpt lat="34.9679994" lon="32.8527733"><ele>1315.9</ele><time>2015-04-29T17:11:20.0000000+00:00</time></trkpt><trkpt lat="34.9680345" lon="32.8527132"><ele>1314.6</ele><time>2015-04-29T17:11:22.0000000+00:00</time></trkpt><trkpt lat="34.9680717" lon="32.8526595"><ele>1313.5</ele><time>2015-04-29T17:11:24.0000000+00:00</time></trkpt><trkpt lat="34.9681111" lon="32.8526077"><ele>1312.9</ele><time>2015-04-29T17:11:26.0000000+00:00</time></trkpt><trkpt lat="34.9681576" lon="32.8525566"><ele>1314.1</ele><time>2015-04-29T17:11:28.0000000+00:00</time></trkpt><trkpt lat="34.9682141" lon="32.8525214"><ele>1314.6</ele><time>2015-04-29T17:11:30.0000000+00:00</time></trkpt><trkpt lat="34.9682707" lon="32.852489"><ele>1315.0</ele><time>2015-04-29T17:11:32.0000000+00:00</time></trkpt><trkpt lat="34.968309" lon="32.8524345"><ele>1315.3</ele><time>2015-04-29T17:11:34.0000000+00:00</time></trkpt><trkpt lat="34.9683472" lon="32.8523749"><ele>1315.2</ele><time>2015-04-29T17:11:36.0000000+00:00</time></trkpt><trkpt lat="34.9683867" lon="32.8523127"><ele>1315.1</ele><time>2015-04-29T17:11:38.0000000+00:00</time></trkpt><trkpt lat="34.9684286" lon="32.8522493"><ele>1314.9</ele><time>2015-04-29T17:11:40.0000000+00:00</time></trkpt><trkpt lat="34.9684654" lon="32.8521886"><ele>1314.8</ele><time>2015-04-29T17:11:42.0000000+00:00</time></trkpt><trkpt lat="34.9684839" lon="32.8521159"><ele>1313.8</ele><time>2015-04-29T17:11:44.0000000+00:00</time></trkpt><trkpt lat="34.9684839" lon="32.8520396"><ele>1313.8</ele><time>2015-04-29T17:11:46.0000000+00:00</time></trkpt><trkpt lat="34.9684758" lon="32.8519661"><ele>1314.5</ele><time>2015-04-29T17:11:48.0000000+00:00</time></trkpt><trkpt lat="34.9684457" lon="32.851897"><ele>1315.2</ele><time>2015-04-29T17:11:50.0000000+00:00</time></trkpt><trkpt lat="34.9684089" lon="32.8518321"><ele>1316.1</ele><time>2015-04-29T17:11:52.0000000+00:00</time></trkpt><trkpt lat="34.9683747" lon="32.8517684"><ele>1318.1</ele><time>2015-04-29T17:11:54.0000000+00:00</time></trkpt><trkpt lat="34.968337" lon="32.8517054"><ele>1318.6</ele><time>2015-04-29T17:11:56.0000000+00:00</time></trkpt><trkpt lat="34.9682966" lon="32.8516426"><ele>1318.7</ele><time>2015-04-29T17:11:58.0000000+00:00</time></trkpt><trkpt lat="34.9682602" lon="32.8515788"><ele>1318.8</ele><time>2015-04-29T17:12:00.0000000+00:00</time></trkpt><trkpt lat="34.9682232" lon="32.8515095"><ele>1319.8</ele><time>2015-04-29T17:12:02.0000000+00:00</time></trkpt><trkpt lat="34.9681816" lon="32.8514363"><ele>1320.3</ele><time>2015-04-29T17:12:04.0000000+00:00</time></trkpt><trkpt lat="34.96815" lon="32.8513625"><ele>1321.1</ele><time>2015-04-29T17:12:06.0000000+00:00</time></trkpt><trkpt lat="34.9681205" lon="32.8512882"><ele>1320.9</ele><time>2015-04-29T17:12:08.0000000+00:00</time></trkpt><trkpt lat="34.9680887" lon="32.8512278"><ele>1320.8</ele><time>2015-04-29T17:12:10.0000000+00:00</time></trkpt><trkpt lat="34.9680688" lon="32.8511638"><ele>1319.5</ele><time>2015-04-29T17:12:12.0000000+00:00</time></trkpt><trkpt lat="34.9680496" lon="32.8510921"><ele>1319.0</ele><time>2015-04-29T17:12:14.0000000+00:00</time></trkpt><trkpt lat="34.968037" lon="32.8510199"><ele>1319.1</ele><time>2015-04-29T17:12:16.0000000+00:00</time></trkpt><trkpt lat="34.9680254" lon="32.8509452"><ele>1319.3</ele><time>2015-04-29T17:12:18.0000000+00:00</time></trkpt><trkpt lat="34.968001" lon="32.8508597"><ele>1321.2</ele><time>2015-04-29T17:12:20.0000000+00:00</time></trkpt><trkpt lat="34.9679772" lon="32.8507739"><ele>1322.9</ele><time>2015-04-29T17:12:22.0000000+00:00</time></trkpt><trkpt lat="34.9679528" lon="32.8506913"><ele>1322.5</ele><time>2015-04-29T17:12:24.0000000+00:00</time></trkpt><trkpt lat="34.9679292" lon="32.8506127"><ele>1322.0</ele><time>2015-04-29T17:12:26.0000000+00:00</time></trkpt><trkpt lat="34.9679037" lon="32.8505325"><ele>1322.6</ele><time>2015-04-29T17:12:28.0000000+00:00</time></trkpt><trkpt lat="34.9678797" lon="32.8504466"><ele>1321.7</ele><time>2015-04-29T17:12:30.0000000+00:00</time></trkpt><trkpt lat="34.9678493" lon="32.8503598"><ele>1322.3</ele><time>2015-04-29T17:12:32.0000000+00:00</time></trkpt><trkpt lat="34.9678201" lon="32.8502697"><ele>1321.1</ele><time>2015-04-29T17:12:34.0000000+00:00</time></trkpt><trkpt lat="34.9677953" lon="32.8501732"><ele>1319.1</ele><time>2015-04-29T17:12:36.0000000+00:00</time></trkpt><trkpt lat="34.9677804" lon="32.8500825"><ele>1319.1</ele><time>2015-04-29T17:12:38.0000000+00:00</time></trkpt><trkpt lat="34.9677689" lon="32.8499986"><ele>1319.3</ele><time>2015-04-29T17:12:40.0000000+00:00</time></trkpt><trkpt lat="34.967752" lon="32.8499225"><ele>1320.9</ele><time>2015-04-29T17:12:42.0000000+00:00</time></trkpt><trkpt lat="34.9677255" lon="32.8498497"><ele>1322.3</ele><time>2015-04-29T17:12:44.0000000+00:00</time></trkpt><trkpt lat="34.9676982" lon="32.8497796"><ele>1322.1</ele><time>2015-04-29T17:12:46.0000000+00:00</time></trkpt><trkpt lat="34.9676618" lon="32.8497124"><ele>1321.9</ele><time>2015-04-29T17:12:48.0000000+00:00</time></trkpt><trkpt lat="34.9676147" lon="32.8496524"><ele>1321.8</ele><time>2015-04-29T17:12:50.0000000+00:00</time></trkpt><trkpt lat="34.9675624" lon="32.8495963"><ele>1322.3</ele><time>2015-04-29T17:12:52.0000000+00:00</time></trkpt><trkpt lat="34.9675134" lon="32.8495524"><ele>1323.6</ele><time>2015-04-29T17:12:54.0000000+00:00</time></trkpt><trkpt lat="34.9674588" lon="32.849553"><ele>1328.2</ele><time>2015-04-29T17:13:55.0000000+00:00</time></trkpt><trkpt lat="34.9674081" lon="32.8496089"><ele>1328.1</ele><time>2015-04-29T17:13:58.0000000+00:00</time></trkpt><trkpt lat="34.9673545" lon="32.8496733"><ele>1327.8</ele><time>2015-04-29T17:14:00.0000000+00:00</time></trkpt><trkpt lat="34.9673037" lon="32.8497446"><ele>1327.3</ele><time>2015-04-29T17:14:02.0000000+00:00</time></trkpt><trkpt lat="34.9672587" lon="32.8498313"><ele>1326.4</ele><time>2015-04-29T17:14:04.0000000+00:00</time></trkpt><trkpt lat="34.9672245" lon="32.8499178"><ele>1326.1</ele><time>2015-04-29T17:14:05.0000000+00:00</time></trkpt><trkpt lat="34.9671765" lon="32.8500111"><ele>1325.1</ele><time>2015-04-29T17:14:07.0000000+00:00</time></trkpt><trkpt lat="34.9671616" lon="32.8500737"><ele>1324.9</ele><time>2015-04-29T17:14:08.0000000+00:00</time></trkpt><trkpt lat="34.9671332" lon="32.8501933"><ele>1324.3</ele><time>2015-04-29T17:14:10.0000000+00:00</time></trkpt><trkpt lat="34.9671111" lon="32.8502552"><ele>1324.5</ele><time>2015-04-29T17:14:11.0000000+00:00</time></trkpt><trkpt lat="34.9670826" lon="32.8503239"><ele>1324.2</ele><time>2015-04-29T17:14:12.0000000+00:00</time></trkpt><trkpt lat="34.9670655" lon="32.8503907"><ele>1324.5</ele><time>2015-04-29T17:14:13.0000000+00:00</time></trkpt><trkpt lat="34.9670468" lon="32.8504588"><ele>1324.1</ele><time>2015-04-29T17:14:14.0000000+00:00</time></trkpt><trkpt lat="34.9670148" lon="32.8505128"><ele>1323.9</ele><time>2015-04-29T17:14:15.0000000+00:00</time></trkpt><trkpt lat="34.9669995" lon="32.8505743"><ele>1323.4</ele><time>2015-04-29T17:14:16.0000000+00:00</time></trkpt><trkpt lat="34.9669893" lon="32.8506454"><ele>1323.1</ele><time>2015-04-29T17:14:17.0000000+00:00</time></trkpt><trkpt lat="34.9669647" lon="32.850706"><ele>1322.9</ele><time>2015-04-29T17:14:18.0000000+00:00</time></trkpt><trkpt lat="34.9669457" lon="32.8507628"><ele>1322.3</ele><time>2015-04-29T17:14:19.0000000+00:00</time></trkpt><trkpt lat="34.9669202" lon="32.8508207"><ele>1321.6</ele><time>2015-04-29T17:14:20.0000000+00:00</time></trkpt><trkpt lat="34.9668958" lon="32.8508906"><ele>1321.2</ele><time>2015-04-29T17:14:21.0000000+00:00</time></trkpt><trkpt lat="34.9668854" lon="32.8509577"><ele>1320.5</ele><time>2015-04-29T17:14:22.0000000+00:00</time></trkpt><trkpt lat="34.9668739" lon="32.851024"><ele>1320.1</ele><time>2015-04-29T17:14:23.0000000+00:00</time></trkpt><trkpt lat="34.9668612" lon="32.8510825"><ele>1319.4</ele><time>2015-04-29T17:14:24.0000000+00:00</time></trkpt><trkpt lat="34.9668407" lon="32.8511478"><ele>1319.1</ele><time>2015-04-29T17:14:25.0000000+00:00</time></trkpt><trkpt lat="34.966821" lon="32.8512064"><ele>1318.4</ele><time>2015-04-29T17:14:26.0000000+00:00</time></trkpt><trkpt lat="34.9667959" lon="32.8512678"><ele>1317.6</ele><time>2015-04-29T17:14:27.0000000+00:00</time></trkpt><trkpt lat="34.9667766" lon="32.8513317"><ele>1316.7</ele><time>2015-04-29T17:14:28.0000000+00:00</time></trkpt><trkpt lat="34.9667449" lon="32.8513894"><ele>1316.2</ele><time>2015-04-29T17:14:29.0000000+00:00</time></trkpt><trkpt lat="34.9667231" lon="32.8514686"><ele>1316.5</ele><time>2015-04-29T17:14:30.0000000+00:00</time></trkpt><trkpt lat="34.9666951" lon="32.8515516"><ele>1316.6</ele><time>2015-04-29T17:14:31.0000000+00:00</time></trkpt><trkpt lat="34.9666461" lon="32.8516224"><ele>1316.7</ele><time>2015-04-29T17:14:32.0000000+00:00</time></trkpt><trkpt lat="34.9666027" lon="32.8516766"><ele>1317.2</ele><time>2015-04-29T17:14:33.0000000+00:00</time></trkpt><trkpt lat="34.9665706" lon="32.8517395"><ele>1317.5</ele><time>2015-04-29T17:14:34.0000000+00:00</time></trkpt><trkpt lat="34.9665327" lon="32.8517897"><ele>1317.1</ele><time>2015-04-29T17:14:35.0000000+00:00</time></trkpt><trkpt lat="34.9664843" lon="32.8518304"><ele>1316.9</ele><time>2015-04-29T17:14:36.0000000+00:00</time></trkpt><trkpt lat="34.96643" lon="32.8518694"><ele>1316.9</ele><time>2015-04-29T17:14:37.0000000+00:00</time></trkpt><trkpt lat="34.9663757" lon="32.851895"><ele>1316.8</ele><time>2015-04-29T17:14:38.0000000+00:00</time></trkpt><trkpt lat="34.9663134" lon="32.8519057"><ele>1316.3</ele><time>2015-04-29T17:14:39.0000000+00:00</time></trkpt><trkpt lat="34.9662611" lon="32.8519203"><ele>1316.0</ele><time>2015-04-29T17:14:40.0000000+00:00</time></trkpt><trkpt lat="34.9662066" lon="32.8519132"><ele>1316.4</ele><time>2015-04-29T17:14:41.0000000+00:00</time></trkpt><trkpt lat="34.9661457" lon="32.8518884"><ele>1316.1</ele><time>2015-04-29T17:14:42.0000000+00:00</time></trkpt><trkpt lat="34.9660854" lon="32.8518652"><ele>1316.4</ele><time>2015-04-29T17:14:43.0000000+00:00</time></trkpt><trkpt lat="34.9660262" lon="32.8518266"><ele>1317.1</ele><time>2015-04-29T17:14:44.0000000+00:00</time></trkpt><trkpt lat="34.9659701" lon="32.8517834"><ele>1316.9</ele><time>2015-04-29T17:14:45.0000000+00:00</time></trkpt><trkpt lat="34.9659171" lon="32.8517305"><ele>1317.8</ele><time>2015-04-29T17:14:46.0000000+00:00</time></trkpt><trkpt lat="34.9658638" lon="32.8516765"><ele>1318.3</ele><time>2015-04-29T17:14:47.0000000+00:00</time></trkpt><trkpt lat="34.9658312" lon="32.8515948"><ele>1319.0</ele><time>2015-04-29T17:14:48.0000000+00:00</time></trkpt><trkpt lat="34.9657982" lon="32.851535"><ele>1318.9</ele><time>2015-04-29T17:14:49.0000000+00:00</time></trkpt><trkpt lat="34.9657788" lon="32.8514489"><ele>1318.8</ele><time>2015-04-29T17:14:50.0000000+00:00</time></trkpt><trkpt lat="34.9657402" lon="32.851379"><ele>1318.8</ele><time>2015-04-29T17:14:51.0000000+00:00</time></trkpt><trkpt lat="34.9657042" lon="32.8513166"><ele>1318.8</ele><time>2015-04-29T17:14:52.0000000+00:00</time></trkpt><trkpt lat="34.9656644" lon="32.8512374"><ele>1319.8</ele><time>2015-04-29T17:14:53.0000000+00:00</time></trkpt><trkpt lat="34.9656387" lon="32.851167"><ele>1319.3</ele><time>2015-04-29T17:14:54.0000000+00:00</time></trkpt><trkpt lat="34.965595" lon="32.8511086"><ele>1319.0</ele><time>2015-04-29T17:14:55.0000000+00:00</time></trkpt><trkpt lat="34.9655598" lon="32.8510397"><ele>1318.9</ele><time>2015-04-29T17:14:56.0000000+00:00</time></trkpt><trkpt lat="34.9655225" lon="32.8509663"><ele>1318.8</ele><time>2015-04-29T17:14:57.0000000+00:00</time></trkpt><trkpt lat="34.9654716" lon="32.8509256"><ele>1319.3</ele><time>2015-04-29T17:14:58.0000000+00:00</time></trkpt><trkpt lat="34.9654123" lon="32.8508842"><ele>1319.5</ele><time>2015-04-29T17:14:59.0000000+00:00</time></trkpt><trkpt lat="34.9653581" lon="32.8508439"><ele>1319.1</ele><time>2015-04-29T17:15:00.0000000+00:00</time></trkpt><trkpt lat="34.9653066" lon="32.8508234"><ele>1319.0</ele><time>2015-04-29T17:15:01.0000000+00:00</time></trkpt><trkpt lat="34.9652428" lon="32.8508236"><ele>1318.9</ele><time>2015-04-29T17:15:02.0000000+00:00</time></trkpt><trkpt lat="34.9651778" lon="32.8508354"><ele>1318.3</ele><time>2015-04-29T17:15:03.0000000+00:00</time></trkpt><trkpt lat="34.9651068" lon="32.8508614"><ele>1318.0</ele><time>2015-04-29T17:15:04.0000000+00:00</time></trkpt><trkpt lat="34.9650455" lon="32.8508921"><ele>1318.4</ele><time>2015-04-29T17:15:05.0000000+00:00</time></trkpt><trkpt lat="34.9649865" lon="32.850921"><ele>1318.1</ele><time>2015-04-29T17:15:06.0000000+00:00</time></trkpt><trkpt lat="34.964925" lon="32.8509502"><ele>1318.4</ele><time>2015-04-29T17:15:07.0000000+00:00</time></trkpt><trkpt lat="34.9648789" lon="32.8509769"><ele>1318.6</ele><time>2015-04-29T17:15:08.0000000+00:00</time></trkpt><trkpt lat="34.9648161" lon="32.8509988"><ele>1319.2</ele><time>2015-04-29T17:15:09.0000000+00:00</time></trkpt><trkpt lat="34.964764" lon="32.8510016"><ele>1319.5</ele><time>2015-04-29T17:15:10.0000000+00:00</time></trkpt><trkpt lat="34.9647144" lon="32.8510007"><ele>1319.6</ele><time>2015-04-29T17:15:11.0000000+00:00</time></trkpt><trkpt lat="34.9646701" lon="32.8509901"><ele>1320.2</ele><time>2015-04-29T17:15:12.0000000+00:00</time></trkpt><trkpt lat="34.9646181" lon="32.8509724"><ele>1320.0</ele><time>2015-04-29T17:15:13.0000000+00:00</time></trkpt><trkpt lat="34.9645799" lon="32.8509313"><ele>1319.4</ele><time>2015-04-29T17:15:14.0000000+00:00</time></trkpt><trkpt lat="34.9645378" lon="32.8508947"><ele>1319.1</ele><time>2015-04-29T17:15:15.0000000+00:00</time></trkpt><trkpt lat="34.964497" lon="32.850855"><ele>1318.9</ele><time>2015-04-29T17:15:16.0000000+00:00</time></trkpt><trkpt lat="34.9644542" lon="32.8508051"><ele>1318.8</ele><time>2015-04-29T17:15:17.0000000+00:00</time></trkpt><trkpt lat="34.9644198" lon="32.8507455"><ele>1318.3</ele><time>2015-04-29T17:15:18.0000000+00:00</time></trkpt><trkpt lat="34.9643886" lon="32.8506837"><ele>1318.5</ele><time>2015-04-29T17:15:19.0000000+00:00</time></trkpt><trkpt lat="34.9643549" lon="32.8506218"><ele>1319.1</ele><time>2015-04-29T17:15:20.0000000+00:00</time></trkpt><trkpt lat="34.9643206" lon="32.8505423"><ele>1320.0</ele><time>2015-04-29T17:15:21.0000000+00:00</time></trkpt><trkpt lat="34.9642868" lon="32.8504913"><ele>1320.4</ele><time>2015-04-29T17:15:22.0000000+00:00</time></trkpt><trkpt lat="34.9642549" lon="32.8504443"><ele>1320.6</ele><time>2015-04-29T17:15:23.0000000+00:00</time></trkpt><trkpt lat="34.9642111" lon="32.8503908"><ele>1321.2</ele><time>2015-04-29T17:15:24.0000000+00:00</time></trkpt><trkpt lat="34.9641691" lon="32.8503354"><ele>1321.5</ele><time>2015-04-29T17:15:25.0000000+00:00</time></trkpt><trkpt lat="34.9641359" lon="32.8502878"><ele>1321.1</ele><time>2015-04-29T17:15:26.0000000+00:00</time></trkpt><trkpt lat="34.9640894" lon="32.8502477"><ele>1320.9</ele><time>2015-04-29T17:15:27.0000000+00:00</time></trkpt><trkpt lat="34.9640511" lon="32.8501816"><ele>1320.4</ele><time>2015-04-29T17:15:28.0000000+00:00</time></trkpt><trkpt lat="34.9640027" lon="32.8501504"><ele>1319.6</ele><time>2015-04-29T17:15:29.0000000+00:00</time></trkpt><trkpt lat="34.9639438" lon="32.8501206"><ele>1319.7</ele><time>2015-04-29T17:15:30.0000000+00:00</time></trkpt><trkpt lat="34.9638872" lon="32.8500796"><ele>1320.2</ele><time>2015-04-29T17:15:31.0000000+00:00</time></trkpt><trkpt lat="34.9638241" lon="32.8500506"><ele>1320.5</ele><time>2015-04-29T17:15:32.0000000+00:00</time></trkpt><trkpt lat="34.9637675" lon="32.8500143"><ele>1320.1</ele><time>2015-04-29T17:15:33.0000000+00:00</time></trkpt><trkpt lat="34.9637069" lon="32.8499975"><ele>1319.9</ele><time>2015-04-29T17:15:34.0000000+00:00</time></trkpt><trkpt lat="34.9636534" lon="32.8499809"><ele>1319.9</ele><time>2015-04-29T17:15:35.0000000+00:00</time></trkpt><trkpt lat="34.963593" lon="32.8499694"><ele>1319.8</ele><time>2015-04-29T17:15:36.0000000+00:00</time></trkpt><trkpt lat="34.9635344" lon="32.849949"><ele>1319.3</ele><time>2015-04-29T17:15:37.0000000+00:00</time></trkpt><trkpt lat="34.9634774" lon="32.8499344"><ele>1319.5</ele><time>2015-04-29T17:15:38.0000000+00:00</time></trkpt><trkpt lat="34.9634256" lon="32.849911"><ele>1319.6</ele><time>2015-04-29T17:15:39.0000000+00:00</time></trkpt><trkpt lat="34.9633605" lon="32.8498914"><ele>1319.7</ele><time>2015-04-29T17:15:40.0000000+00:00</time></trkpt><trkpt lat="34.9633009" lon="32.8498762"><ele>1319.7</ele><time>2015-04-29T17:15:41.0000000+00:00</time></trkpt><trkpt lat="34.9632389" lon="32.8498503"><ele>1319.3</ele><time>2015-04-29T17:15:42.0000000+00:00</time></trkpt><trkpt lat="34.9631821" lon="32.8498358"><ele>1319.0</ele><time>2015-04-29T17:15:43.0000000+00:00</time></trkpt><trkpt lat="34.9631302" lon="32.8498044"><ele>1318.9</ele><time>2015-04-29T17:15:44.0000000+00:00</time></trkpt><trkpt lat="34.9630784" lon="32.8497748"><ele>1318.8</ele><time>2015-04-29T17:15:45.0000000+00:00</time></trkpt><trkpt lat="34.9630302" lon="32.8497463"><ele>1318.8</ele><time>2015-04-29T17:15:46.0000000+00:00</time></trkpt><trkpt lat="34.9629816" lon="32.8497053"><ele>1318.8</ele><time>2015-04-29T17:15:47.0000000+00:00</time></trkpt><trkpt lat="34.9629237" lon="32.8496763"><ele>1317.8</ele><time>2015-04-29T17:15:48.0000000+00:00</time></trkpt><trkpt lat="34.9628643" lon="32.8496532"><ele>1317.3</ele><time>2015-04-29T17:15:49.0000000+00:00</time></trkpt><trkpt lat="34.9628042" lon="32.8496142"><ele>1317.0</ele><time>2015-04-29T17:15:50.0000000+00:00</time></trkpt><trkpt lat="34.962745" lon="32.8495778"><ele>1316.9</ele><time>2015-04-29T17:15:51.0000000+00:00</time></trkpt><trkpt lat="34.9626902" lon="32.8495273"><ele>1317.3</ele><time>2015-04-29T17:15:52.0000000+00:00</time></trkpt><trkpt lat="34.9626233" lon="32.8494847"><ele>1317.5</ele><time>2015-04-29T17:15:53.0000000+00:00</time></trkpt><trkpt lat="34.9625662" lon="32.8494417"><ele>1317.7</ele><time>2015-04-29T17:15:54.0000000+00:00</time></trkpt><trkpt lat="34.9625094" lon="32.8493725"><ele>1318.7</ele><time>2015-04-29T17:15:55.0000000+00:00</time></trkpt><trkpt lat="34.96246" lon="32.8493161"><ele>1318.7</ele><time>2015-04-29T17:15:56.0000000+00:00</time></trkpt><trkpt lat="34.9624173" lon="32.8492746"><ele>1318.3</ele><time>2015-04-29T17:15:57.0000000+00:00</time></trkpt><trkpt lat="34.9623744" lon="32.8492114"><ele>1317.0</ele><time>2015-04-29T17:15:58.0000000+00:00</time></trkpt><trkpt lat="34.9623114" lon="32.8491434"><ele>1316.9</ele><time>2015-04-29T17:15:59.0000000+00:00</time></trkpt><trkpt lat="34.9622569" lon="32.84908"><ele>1316.8</ele><time>2015-04-29T17:16:00.0000000+00:00</time></trkpt><trkpt lat="34.9622086" lon="32.849018"><ele>1316.8</ele><time>2015-04-29T17:16:01.0000000+00:00</time></trkpt><trkpt lat="34.9621607" lon="32.8489555"><ele>1316.3</ele><time>2015-04-29T17:16:02.0000000+00:00</time></trkpt><trkpt lat="34.9621225" lon="32.8488841"><ele>1315.5</ele><time>2015-04-29T17:16:03.0000000+00:00</time></trkpt><trkpt lat="34.9620826" lon="32.8488094"><ele>1315.1</ele><time>2015-04-29T17:16:04.0000000+00:00</time></trkpt><trkpt lat="34.9620417" lon="32.8487412"><ele>1314.5</ele><time>2015-04-29T17:16:05.0000000+00:00</time></trkpt><trkpt lat="34.9620007" lon="32.8486754"><ele>1314.1</ele><time>2015-04-29T17:16:06.0000000+00:00</time></trkpt><trkpt lat="34.9619598" lon="32.8486137"><ele>1314.4</ele><time>2015-04-29T17:16:07.0000000+00:00</time></trkpt><trkpt lat="34.9619282" lon="32.848539"><ele>1316.1</ele><time>2015-04-29T17:16:08.0000000+00:00</time></trkpt><trkpt lat="34.9619069" lon="32.8484761"><ele>1316.4</ele><time>2015-04-29T17:16:09.0000000+00:00</time></trkpt><trkpt lat="34.9618747" lon="32.8484129"><ele>1316.6</ele><time>2015-04-29T17:16:10.0000000+00:00</time></trkpt><trkpt lat="34.9618482" lon="32.8483489"><ele>1316.2</ele><time>2015-04-29T17:16:11.0000000+00:00</time></trkpt><trkpt lat="34.9618047" lon="32.8482842"><ele>1316.0</ele><time>2015-04-29T17:16:12.0000000+00:00</time></trkpt><trkpt lat="34.961759" lon="32.8482113"><ele>1316.9</ele><time>2015-04-29T17:16:13.0000000+00:00</time></trkpt><trkpt lat="34.9617213" lon="32.8481513"><ele>1317.3</ele><time>2015-04-29T17:16:14.0000000+00:00</time></trkpt><trkpt lat="34.961686" lon="32.8480911"><ele>1318.0</ele><time>2015-04-29T17:16:15.0000000+00:00</time></trkpt><trkpt lat="34.9616412" lon="32.8480184"><ele>1318.9</ele><time>2015-04-29T17:16:16.0000000+00:00</time></trkpt><trkpt lat="34.9616062" lon="32.8479401"><ele>1319.3</ele><time>2015-04-29T17:16:17.0000000+00:00</time></trkpt><trkpt lat="34.961571" lon="32.8478639"><ele>1320.0</ele><time>2015-04-29T17:16:18.0000000+00:00</time></trkpt><trkpt lat="34.9615326" lon="32.8477852"><ele>1320.4</ele><time>2015-04-29T17:16:19.0000000+00:00</time></trkpt><trkpt lat="34.9614998" lon="32.8477044"><ele>1320.6</ele><time>2015-04-29T17:16:20.0000000+00:00</time></trkpt><trkpt lat="34.9614649" lon="32.8476276"><ele>1320.2</ele><time>2015-04-29T17:16:21.0000000+00:00</time></trkpt><trkpt lat="34.9614307" lon="32.8475656"><ele>1319.5</ele><time>2015-04-29T17:16:22.0000000+00:00</time></trkpt><trkpt lat="34.9614031" lon="32.8474862"><ele>1319.1</ele><time>2015-04-29T17:16:23.0000000+00:00</time></trkpt><trkpt lat="34.9613866" lon="32.8474102"><ele>1318.4</ele><time>2015-04-29T17:16:24.0000000+00:00</time></trkpt><trkpt lat="34.9613739" lon="32.8473324"><ele>1317.6</ele><time>2015-04-29T17:16:25.0000000+00:00</time></trkpt><trkpt lat="34.9613742" lon="32.8472478"><ele>1316.7</ele><time>2015-04-29T17:16:26.0000000+00:00</time></trkpt><trkpt lat="34.9613808" lon="32.8471684"><ele>1316.2</ele><time>2015-04-29T17:16:27.0000000+00:00</time></trkpt><trkpt lat="34.9613903" lon="32.8470844"><ele>1316.5</ele><time>2015-04-29T17:16:28.0000000+00:00</time></trkpt><trkpt lat="34.9614108" lon="32.8469964"><ele>1316.6</ele><time>2015-04-29T17:16:29.0000000+00:00</time></trkpt><trkpt lat="34.9614296" lon="32.846911"><ele>1316.7</ele><time>2015-04-29T17:16:30.0000000+00:00</time></trkpt><trkpt lat="34.9614734" lon="32.8468471"><ele>1317.2</ele><time>2015-04-29T17:16:31.0000000+00:00</time></trkpt><trkpt lat="34.9615227" lon="32.8467832"><ele>1317.0</ele><time>2015-04-29T17:16:32.0000000+00:00</time></trkpt><trkpt lat="34.9616037" lon="32.8467334"><ele>1316.4</ele><time>2015-04-29T17:16:33.0000000+00:00</time></trkpt><trkpt lat="34.9616551" lon="32.8466744"><ele>1316.1</ele><time>2015-04-29T17:16:34.0000000+00:00</time></trkpt><trkpt lat="34.9617197" lon="32.8466253"><ele>1315.9</ele><time>2015-04-29T17:16:35.0000000+00:00</time></trkpt><trkpt lat="34.9617926" lon="32.8465828"><ele>1315.3</ele><time>2015-04-29T17:16:36.0000000+00:00</time></trkpt><trkpt lat="34.961869" lon="32.8465472"><ele>1315.1</ele><time>2015-04-29T17:16:37.0000000+00:00</time></trkpt><trkpt lat="34.9619297" lon="32.8465042"><ele>1315.4</ele><time>2015-04-29T17:16:38.0000000+00:00</time></trkpt><trkpt lat="34.9619788" lon="32.8464479"><ele>1315.6</ele><time>2015-04-29T17:16:39.0000000+00:00</time></trkpt><trkpt lat="34.9620551" lon="32.8464143"><ele>1315.7</ele><time>2015-04-29T17:16:40.0000000+00:00</time></trkpt><trkpt lat="34.962107" lon="32.8463584"><ele>1315.7</ele><time>2015-04-29T17:16:41.0000000+00:00</time></trkpt><trkpt lat="34.9621623" lon="32.8463034"><ele>1315.2</ele><time>2015-04-29T17:16:42.0000000+00:00</time></trkpt><trkpt lat="34.9622144" lon="32.8462395"><ele>1315.0</ele><time>2015-04-29T17:16:43.0000000+00:00</time></trkpt><trkpt lat="34.9622712" lon="32.8461742"><ele>1314.9</ele><time>2015-04-29T17:16:44.0000000+00:00</time></trkpt><trkpt lat="34.9623401" lon="32.846115"><ele>1314.3</ele><time>2015-04-29T17:16:45.0000000+00:00</time></trkpt><trkpt lat="34.9623963" lon="32.8460444"><ele>1313.5</ele><time>2015-04-29T17:16:46.0000000+00:00</time></trkpt><trkpt lat="34.9624273" lon="32.845961"><ele>1313.7</ele><time>2015-04-29T17:16:47.0000000+00:00</time></trkpt><trkpt lat="34.9624852" lon="32.845886"><ele>1313.7</ele><time>2015-04-29T17:16:48.0000000+00:00</time></trkpt><trkpt lat="34.9625271" lon="32.8458133"><ele>1313.7</ele><time>2015-04-29T17:16:49.0000000+00:00</time></trkpt><trkpt lat="34.9625826" lon="32.8457526"><ele>1313.8</ele><time>2015-04-29T17:16:50.0000000+00:00</time></trkpt><trkpt lat="34.9626403" lon="32.8456826"><ele>1313.8</ele><time>2015-04-29T17:16:51.0000000+00:00</time></trkpt><trkpt lat="34.9626837" lon="32.8456158"><ele>1314.3</ele><time>2015-04-29T17:16:52.0000000+00:00</time></trkpt><trkpt lat="34.9627356" lon="32.8455447"><ele>1314.0</ele><time>2015-04-29T17:16:53.0000000+00:00</time></trkpt><trkpt lat="34.962787" lon="32.845468"><ele>1313.9</ele><time>2015-04-29T17:16:54.0000000+00:00</time></trkpt><trkpt lat="34.9627995" lon="32.8453617"><ele>1313.3</ele><time>2015-04-29T17:16:55.0000000+00:00</time></trkpt><trkpt lat="34.9628192" lon="32.8452584"><ele>1313.0</ele><time>2015-04-29T17:16:56.0000000+00:00</time></trkpt><trkpt lat="34.962836" lon="32.845168"><ele>1312.9</ele><time>2015-04-29T17:16:57.0000000+00:00</time></trkpt><trkpt lat="34.9628349" lon="32.845068"><ele>1312.3</ele><time>2015-04-29T17:16:58.0000000+00:00</time></trkpt><trkpt lat="34.9628324" lon="32.8449745"><ele>1311.6</ele><time>2015-04-29T17:16:59.0000000+00:00</time></trkpt><trkpt lat="34.9628325" lon="32.8448952"><ele>1311.7</ele><time>2015-04-29T17:17:00.0000000+00:00</time></trkpt><trkpt lat="34.9628216" lon="32.8448134"><ele>1311.7</ele><time>2015-04-29T17:17:01.0000000+00:00</time></trkpt><trkpt lat="34.9628011" lon="32.8447378"><ele>1311.7</ele><time>2015-04-29T17:17:02.0000000+00:00</time></trkpt><trkpt lat="34.9627697" lon="32.8446638"><ele>1311.8</ele><time>2015-04-29T17:17:03.0000000+00:00</time></trkpt><trkpt lat="34.9627375" lon="32.8445914"><ele>1311.8</ele><time>2015-04-29T17:17:04.0000000+00:00</time></trkpt><trkpt lat="34.9626979" lon="32.844516"><ele>1311.3</ele><time>2015-04-29T17:17:05.0000000+00:00</time></trkpt><trkpt lat="34.9626659" lon="32.8444557"><ele>1310.5</ele><time>2015-04-29T17:17:06.0000000+00:00</time></trkpt><trkpt lat="34.9626338" lon="32.8443798"><ele>1310.1</ele><time>2015-04-29T17:17:07.0000000+00:00</time></trkpt><trkpt lat="34.9625961" lon="32.8443145"><ele>1310.0</ele><time>2015-04-29T17:17:08.0000000+00:00</time></trkpt><trkpt lat="34.962553" lon="32.8442394"><ele>1309.9</ele><time>2015-04-29T17:17:09.0000000+00:00</time></trkpt><trkpt lat="34.9625158" lon="32.8441589"><ele>1310.3</ele><time>2015-04-29T17:17:10.0000000+00:00</time></trkpt><trkpt lat="34.9624779" lon="32.8440925"><ele>1311.0</ele><time>2015-04-29T17:17:11.0000000+00:00</time></trkpt><trkpt lat="34.9624361" lon="32.8440348"><ele>1310.9</ele><time>2015-04-29T17:17:12.0000000+00:00</time></trkpt><trkpt lat="34.962391" lon="32.8439782"><ele>1310.3</ele><time>2015-04-29T17:17:13.0000000+00:00</time></trkpt><trkpt lat="34.9623567" lon="32.8439156"><ele>1309.5</ele><time>2015-04-29T17:17:14.0000000+00:00</time></trkpt><trkpt lat="34.9623166" lon="32.8438331"><ele>1309.2</ele><time>2015-04-29T17:17:15.0000000+00:00</time></trkpt><trkpt lat="34.9622628" lon="32.8437521"><ele>1310.0</ele><time>2015-04-29T17:17:16.0000000+00:00</time></trkpt><trkpt lat="34.9622137" lon="32.8436806"><ele>1310.4</ele><time>2015-04-29T17:17:17.0000000+00:00</time></trkpt><trkpt lat="34.962166" lon="32.8435848"><ele>1311.1</ele><time>2015-04-29T17:17:18.0000000+00:00</time></trkpt><trkpt lat="34.9621158" lon="32.8434997"><ele>1311.4</ele><time>2015-04-29T17:17:19.0000000+00:00</time></trkpt><trkpt lat="34.9620655" lon="32.8434165"><ele>1311.6</ele><time>2015-04-29T17:17:20.0000000+00:00</time></trkpt><trkpt lat="34.9620202" lon="32.8433433"><ele>1311.2</ele><time>2015-04-29T17:17:21.0000000+00:00</time></trkpt><trkpt lat="34.9619774" lon="32.8432701"><ele>1311.5</ele><time>2015-04-29T17:17:22.0000000+00:00</time></trkpt><trkpt lat="34.9619357" lon="32.8431998"><ele>1311.6</ele><time>2015-04-29T17:17:23.0000000+00:00</time></trkpt><trkpt lat="34.9619107" lon="32.8431185"><ele>1310.7</ele><time>2015-04-29T17:17:24.0000000+00:00</time></trkpt><trkpt lat="34.9618678" lon="32.8430603"><ele>1310.2</ele><time>2015-04-29T17:17:25.0000000+00:00</time></trkpt><trkpt lat="34.9618269" lon="32.8429988"><ele>1310.5</ele><time>2015-04-29T17:17:26.0000000+00:00</time></trkpt><trkpt lat="34.9617831" lon="32.8429408"><ele>1310.6</ele><time>2015-04-29T17:17:27.0000000+00:00</time></trkpt><trkpt lat="34.9617422" lon="32.8428847"><ele>1310.7</ele><time>2015-04-29T17:17:28.0000000+00:00</time></trkpt><trkpt lat="34.9616921" lon="32.8428396"><ele>1310.7</ele><time>2015-04-29T17:17:29.0000000+00:00</time></trkpt><trkpt lat="34.9616504" lon="32.8427939"><ele>1310.7</ele><time>2015-04-29T17:17:30.0000000+00:00</time></trkpt><trkpt lat="34.9616054" lon="32.8427542"><ele>1310.8</ele><time>2015-04-29T17:17:31.0000000+00:00</time></trkpt><trkpt lat="34.9615377" lon="32.8427105"><ele>1310.8</ele><time>2015-04-29T17:17:32.0000000+00:00</time></trkpt><trkpt lat="34.96148" lon="32.8426805"><ele>1310.8</ele><time>2015-04-29T17:17:33.0000000+00:00</time></trkpt><trkpt lat="34.9614195" lon="32.8426485"><ele>1310.8</ele><time>2015-04-29T17:17:34.0000000+00:00</time></trkpt><trkpt lat="34.9613593" lon="32.842636"><ele>1310.8</ele><time>2015-04-29T17:17:35.0000000+00:00</time></trkpt><trkpt lat="34.9612943" lon="32.8426172"><ele>1310.3</ele><time>2015-04-29T17:17:36.0000000+00:00</time></trkpt><trkpt lat="34.9612358" lon="32.842596"><ele>1311.0</ele><time>2015-04-29T17:17:37.0000000+00:00</time></trkpt><trkpt lat="34.9611776" lon="32.8425847"><ele>1311.4</ele><time>2015-04-29T17:17:38.0000000+00:00</time></trkpt><trkpt lat="34.9611102" lon="32.8425865"><ele>1311.6</ele><time>2015-04-29T17:17:39.0000000+00:00</time></trkpt><trkpt lat="34.9610465" lon="32.8425875"><ele>1311.2</ele><time>2015-04-29T17:17:40.0000000+00:00</time></trkpt><trkpt lat="34.9609781" lon="32.8425852"><ele>1310.5</ele><time>2015-04-29T17:17:41.0000000+00:00</time></trkpt><trkpt lat="34.9609132" lon="32.8425841"><ele>1310.6</ele><time>2015-04-29T17:17:42.0000000+00:00</time></trkpt><trkpt lat="34.9608487" lon="32.8425925"><ele>1310.2</ele><time>2015-04-29T17:17:43.0000000+00:00</time></trkpt><trkpt lat="34.9607698" lon="32.8425872"><ele>1310.5</ele><time>2015-04-29T17:17:44.0000000+00:00</time></trkpt><trkpt lat="34.9607" lon="32.8425796"><ele>1310.6</ele><time>2015-04-29T17:17:45.0000000+00:00</time></trkpt><trkpt lat="34.9606387" lon="32.8425814"><ele>1310.7</ele><time>2015-04-29T17:17:46.0000000+00:00</time></trkpt><trkpt lat="34.9605766" lon="32.8425872"><ele>1310.2</ele><time>2015-04-29T17:17:47.0000000+00:00</time></trkpt><trkpt lat="34.9605148" lon="32.8425881"><ele>1310.0</ele><time>2015-04-29T17:17:48.0000000+00:00</time></trkpt><trkpt lat="34.9604521" lon="32.842589"><ele>1309.4</ele><time>2015-04-29T17:17:49.0000000+00:00</time></trkpt><trkpt lat="34.9603824" lon="32.842585"><ele>1308.6</ele><time>2015-04-29T17:17:50.0000000+00:00</time></trkpt><trkpt lat="34.9603146" lon="32.8425874"><ele>1308.7</ele><time>2015-04-29T17:17:51.0000000+00:00</time></trkpt><trkpt lat="34.9602486" lon="32.8425842"><ele>1308.7</ele><time>2015-04-29T17:17:52.0000000+00:00</time></trkpt><trkpt lat="34.960177" lon="32.8425851"><ele>1309.2</ele><time>2015-04-29T17:17:53.0000000+00:00</time></trkpt><trkpt lat="34.9601058" lon="32.8425789"><ele>1309.5</ele><time>2015-04-29T17:17:54.0000000+00:00</time></trkpt><trkpt lat="34.9600357" lon="32.842577"><ele>1309.6</ele><time>2015-04-29T17:17:55.0000000+00:00</time></trkpt><trkpt lat="34.9599689" lon="32.8425882"><ele>1309.2</ele><time>2015-04-29T17:17:56.0000000+00:00</time></trkpt><trkpt lat="34.959901" lon="32.8425806"><ele>1308.5</ele><time>2015-04-29T17:17:57.0000000+00:00</time></trkpt><trkpt lat="34.9598362" lon="32.8425675"><ele>1308.6</ele><time>2015-04-29T17:17:58.0000000+00:00</time></trkpt><trkpt lat="34.959773" lon="32.8425557"><ele>1308.7</ele><time>2015-04-29T17:17:59.0000000+00:00</time></trkpt><trkpt lat="34.959718" lon="32.8425099"><ele>1308.2</ele><time>2015-04-29T17:18:00.0000000+00:00</time></trkpt><trkpt lat="34.9596556" lon="32.8424762"><ele>1308.0</ele><time>2015-04-29T17:18:01.0000000+00:00</time></trkpt><trkpt lat="34.9596003" lon="32.8424389"><ele>1307.9</ele><time>2015-04-29T17:18:02.0000000+00:00</time></trkpt><trkpt lat="34.9595458" lon="32.8423924"><ele>1308.3</ele><time>2015-04-29T17:18:03.0000000+00:00</time></trkpt><trkpt lat="34.959489" lon="32.8423425"><ele>1308.5</ele><time>2015-04-29T17:18:04.0000000+00:00</time></trkpt><trkpt lat="34.9594332" lon="32.8422934"><ele>1309.2</ele><time>2015-04-29T17:18:05.0000000+00:00</time></trkpt><trkpt lat="34.9593816" lon="32.8422424"><ele>1309.0</ele><time>2015-04-29T17:18:06.0000000+00:00</time></trkpt><trkpt lat="34.9593324" lon="32.8421808"><ele>1308.9</ele><time>2015-04-29T17:18:07.0000000+00:00</time></trkpt><trkpt lat="34.9592651" lon="32.8421226"><ele>1308.3</ele><time>2015-04-29T17:18:08.0000000+00:00</time></trkpt><trkpt lat="34.959207" lon="32.8420573"><ele>1308.5</ele><time>2015-04-29T17:18:09.0000000+00:00</time></trkpt><trkpt lat="34.9591524" lon="32.8420028"><ele>1308.2</ele><time>2015-04-29T17:18:10.0000000+00:00</time></trkpt><trkpt lat="34.9590964" lon="32.8419683"><ele>1308.0</ele><time>2015-04-29T17:18:11.0000000+00:00</time></trkpt><trkpt lat="34.959035" lon="32.8419059"><ele>1309.4</ele><time>2015-04-29T17:18:12.0000000+00:00</time></trkpt><trkpt lat="34.9589671" lon="32.8418625"><ele>1310.1</ele><time>2015-04-29T17:18:13.0000000+00:00</time></trkpt><trkpt lat="34.9589191" lon="32.8418184"><ele>1310.4</ele><time>2015-04-29T17:18:14.0000000+00:00</time></trkpt><trkpt lat="34.9588668" lon="32.8417697"><ele>1311.1</ele><time>2015-04-29T17:18:15.0000000+00:00</time></trkpt><trkpt lat="34.9588122" lon="32.8417078"><ele>1310.4</ele><time>2015-04-29T17:18:16.0000000+00:00</time></trkpt><trkpt lat="34.9587454" lon="32.8416546"><ele>1310.6</ele><time>2015-04-29T17:18:17.0000000+00:00</time></trkpt><trkpt lat="34.9586889" lon="32.8416258"><ele>1310.2</ele><time>2015-04-29T17:18:18.0000000+00:00</time></trkpt><trkpt lat="34.9586187" lon="32.8415778"><ele>1309.5</ele><time>2015-04-29T17:18:19.0000000+00:00</time></trkpt><trkpt lat="34.9585497" lon="32.8415397"><ele>1309.6</ele><time>2015-04-29T17:18:20.0000000+00:00</time></trkpt><trkpt lat="34.9584786" lon="32.8415121"><ele>1310.2</ele><time>2015-04-29T17:18:21.0000000+00:00</time></trkpt><trkpt lat="34.9584106" lon="32.8414923"><ele>1310.0</ele><time>2015-04-29T17:18:22.0000000+00:00</time></trkpt><trkpt lat="34.9583415" lon="32.8414711"><ele>1309.4</ele><time>2015-04-29T17:18:23.0000000+00:00</time></trkpt><trkpt lat="34.9582704" lon="32.8414531"><ele>1309.1</ele><time>2015-04-29T17:18:24.0000000+00:00</time></trkpt><trkpt lat="34.9581883" lon="32.8414256"><ele>1309.4</ele><time>2015-04-29T17:18:25.0000000+00:00</time></trkpt><trkpt lat="34.9581167" lon="32.8414109"><ele>1309.1</ele><time>2015-04-29T17:18:26.0000000+00:00</time></trkpt><trkpt lat="34.9580402" lon="32.8413866"><ele>1308.4</ele><time>2015-04-29T17:18:27.0000000+00:00</time></trkpt><trkpt lat="34.957981" lon="32.841389"><ele>1307.6</ele><time>2015-04-29T17:18:28.0000000+00:00</time></trkpt><trkpt lat="34.9579248" lon="32.8413645"><ele>1307.7</ele><time>2015-04-29T17:18:29.0000000+00:00</time></trkpt><trkpt lat="34.957872" lon="32.8413451"><ele>1308.2</ele><time>2015-04-29T17:18:30.0000000+00:00</time></trkpt><trkpt lat="34.9578238" lon="32.8413079"><ele>1308.0</ele><time>2015-04-29T17:18:31.0000000+00:00</time></trkpt><trkpt lat="34.9577828" lon="32.8412497"><ele>1307.4</ele><time>2015-04-29T17:18:32.0000000+00:00</time></trkpt><trkpt lat="34.9577481" lon="32.8411931"><ele>1307.1</ele><time>2015-04-29T17:18:33.0000000+00:00</time></trkpt><trkpt lat="34.9577338" lon="32.8411076"><ele>1307.3</ele><time>2015-04-29T17:18:35.0000000+00:00</time></trkpt><trkpt lat="34.9577338" lon="32.8410519"><ele>1307.6</ele><time>2015-04-29T17:18:36.0000000+00:00</time></trkpt><trkpt lat="34.957747" lon="32.8409502"><ele>1307.0</ele><time>2015-04-29T17:18:38.0000000+00:00</time></trkpt><trkpt lat="34.9577934" lon="32.8408791"><ele>1307.8</ele><time>2015-04-29T17:18:40.0000000+00:00</time></trkpt><trkpt lat="34.9578242" lon="32.8408333"><ele>1308.8</ele><time>2015-04-29T17:18:41.0000000+00:00</time></trkpt><trkpt lat="34.957858" lon="32.8407581"><ele>1307.5</ele><time>2015-04-29T17:18:43.0000000+00:00</time></trkpt><trkpt lat="34.9579129" lon="32.8406983"><ele>1305.7</ele><time>2015-04-29T17:18:45.0000000+00:00</time></trkpt><trkpt lat="34.9579546" lon="32.8406394"><ele>1304.2</ele><time>2015-04-29T17:18:47.0000000+00:00</time></trkpt><trkpt lat="34.9580222" lon="32.8405887"><ele>1304.4</ele><time>2015-04-29T17:18:49.0000000+00:00</time></trkpt><trkpt lat="34.9581013" lon="32.8405386"><ele>1304.7</ele><time>2015-04-29T17:18:51.0000000+00:00</time></trkpt><trkpt lat="34.958141" lon="32.8405104"><ele>1304.7</ele><time>2015-04-29T17:18:52.0000000+00:00</time></trkpt><trkpt lat="34.9582094" lon="32.8404884"><ele>1304.7</ele><time>2015-04-29T17:18:53.0000000+00:00</time></trkpt><trkpt lat="34.9582908" lon="32.8404536"><ele>1304.0</ele><time>2015-04-29T17:18:55.0000000+00:00</time></trkpt><trkpt lat="34.9583536" lon="32.8403816"><ele>1305.8</ele><time>2015-04-29T17:18:57.0000000+00:00</time></trkpt><trkpt lat="34.9583928" lon="32.8403458"><ele>1306.3</ele><time>2015-04-29T17:18:58.0000000+00:00</time></trkpt><trkpt lat="34.9584219" lon="32.8403033"><ele>1307.0</ele><time>2015-04-29T17:18:59.0000000+00:00</time></trkpt><trkpt lat="34.9584412" lon="32.8402529"><ele>1306.9</ele><time>2015-04-29T17:19:00.0000000+00:00</time></trkpt><trkpt lat="34.9584467" lon="32.8401965"><ele>1306.8</ele><time>2015-04-29T17:19:01.0000000+00:00</time></trkpt><trkpt lat="34.9584852" lon="32.8401109"><ele>1307.3</ele><time>2015-04-29T17:19:03.0000000+00:00</time></trkpt><trkpt lat="34.9585182" lon="32.8400369"><ele>1307.9</ele><time>2015-04-29T17:19:05.0000000+00:00</time></trkpt><trkpt lat="34.9585238" lon="32.8399584"><ele>1309.0</ele><time>2015-04-29T17:19:07.0000000+00:00</time></trkpt><trkpt lat="34.958501" lon="32.8398893"><ele>1309.6</ele><time>2015-04-29T17:19:09.0000000+00:00</time></trkpt><trkpt lat="34.9584629" lon="32.8398105"><ele>1309.5</ele><time>2015-04-29T17:19:11.0000000+00:00</time></trkpt><trkpt lat="34.9584373" lon="32.8397359"><ele>1310.9</ele><time>2015-04-29T17:19:13.0000000+00:00</time></trkpt><trkpt lat="34.9584179" lon="32.839655"><ele>1312.8</ele><time>2015-04-29T17:19:15.0000000+00:00</time></trkpt><trkpt lat="34.9583925" lon="32.8395815"><ele>1314.3</ele><time>2015-04-29T17:19:17.0000000+00:00</time></trkpt><trkpt lat="34.9583687" lon="32.8395186"><ele>1314.4</ele><time>2015-04-29T17:19:19.0000000+00:00</time></trkpt><trkpt lat="34.958343" lon="32.8394602"><ele>1315.4</ele><time>2015-04-29T17:19:21.0000000+00:00</time></trkpt><trkpt lat="34.9583167" lon="32.8394039"><ele>1314.9</ele><time>2015-04-29T17:19:23.0000000+00:00</time></trkpt><trkpt lat="34.9582854" lon="32.8393442"><ele>1314.8</ele><time>2015-04-29T17:19:25.0000000+00:00</time></trkpt><trkpt lat="34.9582553" lon="32.8392836"><ele>1315.5</ele><time>2015-04-29T17:19:27.0000000+00:00</time></trkpt><trkpt lat="34.9582221" lon="32.8392145"><ele>1317.0</ele><time>2015-04-29T17:19:29.0000000+00:00</time></trkpt><trkpt lat="34.9581869" lon="32.8391445"><ele>1318.1</ele><time>2015-04-29T17:19:31.0000000+00:00</time></trkpt><trkpt lat="34.9581501" lon="32.8390745"><ele>1318.1</ele><time>2015-04-29T17:19:33.0000000+00:00</time></trkpt><trkpt lat="34.9581154" lon="32.8390133"><ele>1317.8</ele><time>2015-04-29T17:19:35.0000000+00:00</time></trkpt><trkpt lat="34.9580787" lon="32.8389513"><ele>1318.5</ele><time>2015-04-29T17:19:37.0000000+00:00</time></trkpt><trkpt lat="34.958043" lon="32.838879"><ele>1318.7</ele><time>2015-04-29T17:19:39.0000000+00:00</time></trkpt><trkpt lat="34.9580124" lon="32.8388058"><ele>1319.3</ele><time>2015-04-29T17:19:41.0000000+00:00</time></trkpt><trkpt lat="34.9579818" lon="32.8387402"><ele>1318.9</ele><time>2015-04-29T17:19:43.0000000+00:00</time></trkpt><trkpt lat="34.9579473" lon="32.8386793"><ele>1320.0</ele><time>2015-04-29T17:19:45.0000000+00:00</time></trkpt><trkpt lat="34.9579185" lon="32.8386197"><ele>1321.3</ele><time>2015-04-29T17:19:47.0000000+00:00</time></trkpt><trkpt lat="34.957891" lon="32.8385618"><ele>1322.9</ele><time>2015-04-29T17:19:49.0000000+00:00</time></trkpt><trkpt lat="34.9578616" lon="32.8385074"><ele>1324.1</ele><time>2015-04-29T17:19:51.0000000+00:00</time></trkpt><trkpt lat="34.9578374" lon="32.838451"><ele>1325.3</ele><time>2015-04-29T17:19:53.0000000+00:00</time></trkpt><trkpt lat="34.9578164" lon="32.8383955"><ele>1325.7</ele><time>2015-04-29T17:19:55.0000000+00:00</time></trkpt><trkpt lat="34.9577983" lon="32.8383314"><ele>1326.5</ele><time>2015-04-29T17:19:57.0000000+00:00</time></trkpt><trkpt lat="34.9577805" lon="32.8382676"><ele>1326.7</ele><time>2015-04-29T17:19:59.0000000+00:00</time></trkpt><trkpt lat="34.9577566" lon="32.8382069"><ele>1326.0</ele><time>2015-04-29T17:20:01.0000000+00:00</time></trkpt><trkpt lat="34.9577338" lon="32.8381457"><ele>1326.3</ele><time>2015-04-29T17:20:03.0000000+00:00</time></trkpt><trkpt lat="34.9577184" lon="32.8380811"><ele>1325.2</ele><time>2015-04-29T17:20:05.0000000+00:00</time></trkpt><trkpt lat="34.9577177" lon="32.8380112"><ele>1325.1</ele><time>2015-04-29T17:20:07.0000000+00:00</time></trkpt><trkpt lat="34.9577201" lon="32.8379367"><ele>1326.1</ele><time>2015-04-29T17:20:09.0000000+00:00</time></trkpt><trkpt lat="34.9577227" lon="32.8378649"><ele>1326.6</ele><time>2015-04-29T17:20:11.0000000+00:00</time></trkpt><trkpt lat="34.9577187" lon="32.8377939"><ele>1326.5</ele><time>2015-04-29T17:20:13.0000000+00:00</time></trkpt><trkpt lat="34.957722" lon="32.8377206"><ele>1326.7</ele><time>2015-04-29T17:20:15.0000000+00:00</time></trkpt><trkpt lat="34.9577331" lon="32.8376404"><ele>1326.5</ele><time>2015-04-29T17:20:17.0000000+00:00</time></trkpt><trkpt lat="34.9577489" lon="32.8375667"><ele>1326.2</ele><time>2015-04-29T17:20:19.0000000+00:00</time></trkpt><trkpt lat="34.9577751" lon="32.8375044"><ele>1325.1</ele><time>2015-04-29T17:20:21.0000000+00:00</time></trkpt><trkpt lat="34.9577832" lon="32.8374363"><ele>1325.1</ele><time>2015-04-29T17:20:23.0000000+00:00</time></trkpt><trkpt lat="34.9577872" lon="32.8373668"><ele>1324.8</ele><time>2015-04-29T17:20:25.0000000+00:00</time></trkpt><trkpt lat="34.9577903" lon="32.8373023"><ele>1325.0</ele><time>2015-04-29T17:20:27.0000000+00:00</time></trkpt><trkpt lat="34.9577964" lon="32.8372429"><ele>1325.6</ele><time>2015-04-29T17:20:29.0000000+00:00</time></trkpt><trkpt lat="34.9578106" lon="32.8371857"><ele>1325.5</ele><time>2015-04-29T17:20:31.0000000+00:00</time></trkpt><trkpt lat="34.9578265" lon="32.8371268"><ele>1324.9</ele><time>2015-04-29T17:20:33.0000000+00:00</time></trkpt><trkpt lat="34.9578351" lon="32.8370708"><ele>1324.8</ele><time>2015-04-29T17:20:35.0000000+00:00</time></trkpt><trkpt lat="34.9578576" lon="32.8370057"><ele>1324.8</ele><time>2015-04-29T17:20:38.0000000+00:00</time></trkpt><trkpt lat="34.9578928" lon="32.8369593"><ele>1324.3</ele><time>2015-04-29T17:20:42.0000000+00:00</time></trkpt><trkpt lat="34.957943" lon="32.8369627"><ele>1327.8</ele><time>2015-04-29T17:20:46.0000000+00:00</time></trkpt><trkpt lat="34.9580006" lon="32.8369722"><ele>1328.5</ele><time>2015-04-29T17:20:49.0000000+00:00</time></trkpt><trkpt lat="34.9580506" lon="32.8369848"><ele>1328.7</ele><time>2015-04-29T17:20:51.0000000+00:00</time></trkpt><trkpt lat="34.9581185" lon="32.8370052"><ele>1328.2</ele><time>2015-04-29T17:20:53.0000000+00:00</time></trkpt><trkpt lat="34.9582471" lon="32.8370519"><ele>1327.1</ele><time>2015-04-29T17:20:55.0000000+00:00</time></trkpt><trkpt lat="34.9583223" lon="32.8370728"><ele>1325.9</ele><time>2015-04-29T17:20:57.0000000+00:00</time></trkpt><trkpt lat="34.95839" lon="32.8371134"><ele>1325.5</ele><time>2015-04-29T17:20:59.0000000+00:00</time></trkpt><trkpt lat="34.95846" lon="32.8371271"><ele>1326.0</ele><time>2015-04-29T17:21:01.0000000+00:00</time></trkpt><trkpt lat="34.9585053" lon="32.8371351"><ele>1325.9</ele><time>2015-04-29T17:21:02.0000000+00:00</time></trkpt><trkpt lat="34.9585916" lon="32.8371673"><ele>1325.0</ele><time>2015-04-29T17:21:04.0000000+00:00</time></trkpt><trkpt lat="34.9586498" lon="32.8371709"><ele>1323.9</ele><time>2015-04-29T17:21:05.0000000+00:00</time></trkpt><trkpt lat="34.958713" lon="32.837189"><ele>1323.3</ele><time>2015-04-29T17:21:06.0000000+00:00</time></trkpt><trkpt lat="34.9587684" lon="32.8372063"><ele>1323.0</ele><time>2015-04-29T17:21:07.0000000+00:00</time></trkpt><trkpt lat="34.9588269" lon="32.8372102"><ele>1321.9</ele><time>2015-04-29T17:21:08.0000000+00:00</time></trkpt><trkpt lat="34.9588814" lon="32.8371991"><ele>1321.8</ele><time>2015-04-29T17:21:09.0000000+00:00</time></trkpt><trkpt lat="34.9589462" lon="32.8371977"><ele>1321.8</ele><time>2015-04-29T17:21:10.0000000+00:00</time></trkpt><trkpt lat="34.9590243" lon="32.8372103"><ele>1321.3</ele><time>2015-04-29T17:21:11.0000000+00:00</time></trkpt><trkpt lat="34.9590992" lon="32.8372008"><ele>1321.0</ele><time>2015-04-29T17:21:12.0000000+00:00</time></trkpt><trkpt lat="34.959171" lon="32.8371927"><ele>1320.4</ele><time>2015-04-29T17:21:13.0000000+00:00</time></trkpt><trkpt lat="34.9592271" lon="32.8371864"><ele>1320.1</ele><time>2015-04-29T17:21:14.0000000+00:00</time></trkpt><trkpt lat="34.9592852" lon="32.837168"><ele>1319.4</ele><time>2015-04-29T17:21:15.0000000+00:00</time></trkpt><trkpt lat="34.9593475" lon="32.8371462"><ele>1319.1</ele><time>2015-04-29T17:21:16.0000000+00:00</time></trkpt><trkpt lat="34.9593908" lon="32.8370964"><ele>1317.9</ele><time>2015-04-29T17:21:17.0000000+00:00</time></trkpt><trkpt lat="34.9594147" lon="32.8370405"><ele>1317.3</ele><time>2015-04-29T17:21:18.0000000+00:00</time></trkpt><trkpt lat="34.959437" lon="32.8369636"><ele>1316.1</ele><time>2015-04-29T17:21:19.0000000+00:00</time></trkpt><trkpt lat="34.9594497" lon="32.8368909"><ele>1314.9</ele><time>2015-04-29T17:21:20.0000000+00:00</time></trkpt><trkpt lat="34.9594531" lon="32.8368213"><ele>1313.8</ele><time>2015-04-29T17:21:21.0000000+00:00</time></trkpt><trkpt lat="34.9594702" lon="32.8367554"><ele>1313.3</ele><time>2015-04-29T17:21:22.0000000+00:00</time></trkpt><trkpt lat="34.9594647" lon="32.836684"><ele>1313.0</ele><time>2015-04-29T17:21:23.0000000+00:00</time></trkpt><trkpt lat="34.9594677" lon="32.8365986"><ele>1312.4</ele><time>2015-04-29T17:21:24.0000000+00:00</time></trkpt><trkpt lat="34.9594716" lon="32.8365106"><ele>1311.1</ele><time>2015-04-29T17:21:25.0000000+00:00</time></trkpt><trkpt lat="34.9594645" lon="32.836422"><ele>1310.4</ele><time>2015-04-29T17:21:26.0000000+00:00</time></trkpt><trkpt lat="34.9594656" lon="32.8363454"><ele>1310.6</ele><time>2015-04-29T17:21:27.0000000+00:00</time></trkpt><trkpt lat="34.9594663" lon="32.8362624"><ele>1310.7</ele><time>2015-04-29T17:21:28.0000000+00:00</time></trkpt><trkpt lat="34.9594353" lon="32.8361764"><ele>1310.2</ele><time>2015-04-29T17:21:29.0000000+00:00</time></trkpt><trkpt lat="34.9593933" lon="32.8360869"><ele>1309.5</ele><time>2015-04-29T17:21:30.0000000+00:00</time></trkpt><trkpt lat="34.9593397" lon="32.8360102"><ele>1308.6</ele><time>2015-04-29T17:21:31.0000000+00:00</time></trkpt><trkpt lat="34.9592721" lon="32.8359415"><ele>1307.2</ele><time>2015-04-29T17:21:32.0000000+00:00</time></trkpt><trkpt lat="34.9591949" lon="32.8358906"><ele>1306.5</ele><time>2015-04-29T17:21:33.0000000+00:00</time></trkpt><trkpt lat="34.9590914" lon="32.835845"><ele>1305.6</ele><time>2015-04-29T17:21:34.0000000+00:00</time></trkpt><trkpt lat="34.9589916" lon="32.8358226"><ele>1304.7</ele><time>2015-04-29T17:21:35.0000000+00:00</time></trkpt><trkpt lat="34.9589015" lon="32.8358013"><ele>1304.2</ele><time>2015-04-29T17:21:36.0000000+00:00</time></trkpt><trkpt lat="34.9588151" lon="32.8357744"><ele>1303.5</ele><time>2015-04-29T17:21:37.0000000+00:00</time></trkpt><trkpt lat="34.9587302" lon="32.8357518"><ele>1302.6</ele><time>2015-04-29T17:21:38.0000000+00:00</time></trkpt><trkpt lat="34.9586482" lon="32.8357065"><ele>1302.2</ele><time>2015-04-29T17:21:39.0000000+00:00</time></trkpt><trkpt lat="34.9585824" lon="32.8356535"><ele>1303.0</ele><time>2015-04-29T17:21:40.0000000+00:00</time></trkpt><trkpt lat="34.9585296" lon="32.8355915"><ele>1302.9</ele><time>2015-04-29T17:21:41.0000000+00:00</time></trkpt><trkpt lat="34.9584957" lon="32.8355095"><ele>1302.3</ele><time>2015-04-29T17:21:42.0000000+00:00</time></trkpt><trkpt lat="34.9584782" lon="32.8354323"><ele>1301.5</ele><time>2015-04-29T17:21:43.0000000+00:00</time></trkpt><trkpt lat="34.9584644" lon="32.8353478"><ele>1300.7</ele><time>2015-04-29T17:21:44.0000000+00:00</time></trkpt><trkpt lat="34.9585186" lon="32.8352776"><ele>1299.7</ele><time>2015-04-29T17:21:45.0000000+00:00</time></trkpt><trkpt lat="34.9585437" lon="32.8352207"><ele>1297.7</ele><time>2015-04-29T17:21:46.0000000+00:00</time></trkpt><trkpt lat="34.9585722" lon="32.8351558"><ele>1296.3</ele><time>2015-04-29T17:21:47.0000000+00:00</time></trkpt><trkpt lat="34.9586129" lon="32.8350928"><ele>1295.0</ele><time>2015-04-29T17:21:48.0000000+00:00</time></trkpt><trkpt lat="34.9586545" lon="32.8350318"><ele>1294.4</ele><time>2015-04-29T17:21:49.0000000+00:00</time></trkpt><trkpt lat="34.9586949" lon="32.8349734"><ele>1293.6</ele><time>2015-04-29T17:21:50.0000000+00:00</time></trkpt><trkpt lat="34.958726" lon="32.8348968"><ele>1292.7</ele><time>2015-04-29T17:21:51.0000000+00:00</time></trkpt><trkpt lat="34.9587529" lon="32.834842"><ele>1292.2</ele><time>2015-04-29T17:21:52.0000000+00:00</time></trkpt><trkpt lat="34.9587901" lon="32.8347802"><ele>1291.5</ele><time>2015-04-29T17:21:53.0000000+00:00</time></trkpt><trkpt lat="34.9587926" lon="32.8347171"><ele>1290.6</ele><time>2015-04-29T17:21:54.0000000+00:00</time></trkpt><trkpt lat="34.9587932" lon="32.8346581"><ele>1289.7</ele><time>2015-04-29T17:21:55.0000000+00:00</time></trkpt><trkpt lat="34.9588188" lon="32.8346113"><ele>1288.2</ele><time>2015-04-29T17:21:56.0000000+00:00</time></trkpt><trkpt lat="34.9588654" lon="32.8345347"><ele>1287.1</ele><time>2015-04-29T17:21:58.0000000+00:00</time></trkpt><trkpt lat="34.9588825" lon="32.8344253"><ele>1285.9</ele><time>2015-04-29T17:22:00.0000000+00:00</time></trkpt><trkpt lat="34.9588931" lon="32.8343649"><ele>1285.3</ele><time>2015-04-29T17:22:01.0000000+00:00</time></trkpt><trkpt lat="34.9589108" lon="32.8343036"><ele>1285.0</ele><time>2015-04-29T17:22:02.0000000+00:00</time></trkpt><trkpt lat="34.958923" lon="32.8342301"><ele>1284.9</ele><time>2015-04-29T17:22:03.0000000+00:00</time></trkpt><trkpt lat="34.9589275" lon="32.8341535"><ele>1284.3</ele><time>2015-04-29T17:22:04.0000000+00:00</time></trkpt><trkpt lat="34.9589308" lon="32.8340624"><ele>1283.5</ele><time>2015-04-29T17:22:05.0000000+00:00</time></trkpt><trkpt lat="34.9589167" lon="32.8339645"><ele>1282.7</ele><time>2015-04-29T17:22:06.0000000+00:00</time></trkpt><trkpt lat="34.9589052" lon="32.8338793"><ele>1282.2</ele><time>2015-04-29T17:22:07.0000000+00:00</time></trkpt><trkpt lat="34.9588998" lon="32.8337861"><ele>1282.5</ele><time>2015-04-29T17:22:08.0000000+00:00</time></trkpt><trkpt lat="34.9589003" lon="32.8337031"><ele>1282.6</ele><time>2015-04-29T17:22:09.0000000+00:00</time></trkpt><trkpt lat="34.9588914" lon="32.8336132"><ele>1282.7</ele><time>2015-04-29T17:22:10.0000000+00:00</time></trkpt><trkpt lat="34.9588712" lon="32.8335114"><ele>1282.2</ele><time>2015-04-29T17:22:11.0000000+00:00</time></trkpt><trkpt lat="34.9588547" lon="32.8334108"><ele>1281.5</ele><time>2015-04-29T17:22:12.0000000+00:00</time></trkpt><trkpt lat="34.9588357" lon="32.8333154"><ele>1281.1</ele><time>2015-04-29T17:22:13.0000000+00:00</time></trkpt><trkpt lat="34.9588294" lon="32.833229"><ele>1281.4</ele><time>2015-04-29T17:22:14.0000000+00:00</time></trkpt><trkpt lat="34.9588067" lon="32.8331242"><ele>1281.1</ele><time>2015-04-29T17:22:15.0000000+00:00</time></trkpt><trkpt lat="34.9587639" lon="32.8330205"><ele>1280.4</ele><time>2015-04-29T17:22:16.0000000+00:00</time></trkpt><trkpt lat="34.9587257" lon="32.8329329"><ele>1279.1</ele><time>2015-04-29T17:22:17.0000000+00:00</time></trkpt><trkpt lat="34.9586699" lon="32.8328694"><ele>1278.4</ele><time>2015-04-29T17:22:18.0000000+00:00</time></trkpt><trkpt lat="34.9586066" lon="32.832793"><ele>1278.1</ele><time>2015-04-29T17:22:19.0000000+00:00</time></trkpt><trkpt lat="34.9585444" lon="32.8327214"><ele>1277.9</ele><time>2015-04-29T17:22:20.0000000+00:00</time></trkpt><trkpt lat="34.9584746" lon="32.8326286"><ele>1277.8</ele><time>2015-04-29T17:22:21.0000000+00:00</time></trkpt><trkpt lat="34.9584135" lon="32.832558"><ele>1277.8</ele><time>2015-04-29T17:22:22.0000000+00:00</time></trkpt><trkpt lat="34.9583642" lon="32.8324597"><ele>1277.8</ele><time>2015-04-29T17:22:23.0000000+00:00</time></trkpt><trkpt lat="34.9582918" lon="32.8323795"><ele>1278.3</ele><time>2015-04-29T17:22:24.0000000+00:00</time></trkpt><trkpt lat="34.9582286" lon="32.832307"><ele>1278.0</ele><time>2015-04-29T17:22:25.0000000+00:00</time></trkpt><trkpt lat="34.9581616" lon="32.8322395"><ele>1277.4</ele><time>2015-04-29T17:22:26.0000000+00:00</time></trkpt><trkpt lat="34.9580951" lon="32.8321814"><ele>1276.6</ele><time>2015-04-29T17:22:27.0000000+00:00</time></trkpt><trkpt lat="34.9580161" lon="32.8321381"><ele>1275.7</ele><time>2015-04-29T17:22:28.0000000+00:00</time></trkpt><trkpt lat="34.9579519" lon="32.8321156"><ele>1274.7</ele><time>2015-04-29T17:22:29.0000000+00:00</time></trkpt><trkpt lat="34.9578888" lon="32.8321267"><ele>1274.2</ele><time>2015-04-29T17:22:30.0000000+00:00</time></trkpt><trkpt lat="34.9578101" lon="32.8321484"><ele>1273.5</ele><time>2015-04-29T17:22:31.0000000+00:00</time></trkpt><trkpt lat="34.9577392" lon="32.8321617"><ele>1273.1</ele><time>2015-04-29T17:22:32.0000000+00:00</time></trkpt><trkpt lat="34.9576698" lon="32.8321777"><ele>1272.4</ele><time>2015-04-29T17:22:33.0000000+00:00</time></trkpt><trkpt lat="34.9576057" lon="32.8321825"><ele>1272.1</ele><time>2015-04-29T17:22:34.0000000+00:00</time></trkpt><trkpt lat="34.9575529" lon="32.8321808"><ele>1271.9</ele><time>2015-04-29T17:22:35.0000000+00:00</time></trkpt><trkpt lat="34.9574956" lon="32.8321798"><ele>1271.9</ele><time>2015-04-29T17:22:36.0000000+00:00</time></trkpt><trkpt lat="34.9574569" lon="32.832132"><ele>1272.3</ele><time>2015-04-29T17:22:37.0000000+00:00</time></trkpt><trkpt lat="34.9574156" lon="32.8320981"><ele>1272.5</ele><time>2015-04-29T17:22:38.0000000+00:00</time></trkpt><trkpt lat="34.9574118" lon="32.831997"><ele>1272.7</ele><time>2015-04-29T17:22:40.0000000+00:00</time></trkpt><trkpt lat="34.9574246" lon="32.8319302"><ele>1272.7</ele><time>2015-04-29T17:22:41.0000000+00:00</time></trkpt><trkpt lat="34.9574328" lon="32.8318522"><ele>1272.8</ele><time>2015-04-29T17:22:42.0000000+00:00</time></trkpt><trkpt lat="34.9574559" lon="32.8317784"><ele>1272.8</ele><time>2015-04-29T17:22:43.0000000+00:00</time></trkpt><trkpt lat="34.9574659" lon="32.8316919"><ele>1271.8</ele><time>2015-04-29T17:22:44.0000000+00:00</time></trkpt><trkpt lat="34.9574645" lon="32.8316133"><ele>1269.8</ele><time>2015-04-29T17:22:45.0000000+00:00</time></trkpt><trkpt lat="34.9574883" lon="32.8315245"><ele>1268.8</ele><time>2015-04-29T17:22:46.0000000+00:00</time></trkpt><trkpt lat="34.9575075" lon="32.8314348"><ele>1267.8</ele><time>2015-04-29T17:22:47.0000000+00:00</time></trkpt><trkpt lat="34.9575294" lon="32.831344"><ele>1267.3</ele><time>2015-04-29T17:22:48.0000000+00:00</time></trkpt><trkpt lat="34.9575678" lon="32.8312616"><ele>1266.5</ele><time>2015-04-29T17:22:49.0000000+00:00</time></trkpt><trkpt lat="34.9575892" lon="32.8311732"><ele>1265.1</ele><time>2015-04-29T17:22:50.0000000+00:00</time></trkpt><trkpt lat="34.9576447" lon="32.8311144"><ele>1264.0</ele><time>2015-04-29T17:22:51.0000000+00:00</time></trkpt><trkpt lat="34.9577075" lon="32.8310609"><ele>1263.4</ele><time>2015-04-29T17:22:52.0000000+00:00</time></trkpt><trkpt lat="34.9577673" lon="32.8310116"><ele>1262.6</ele><time>2015-04-29T17:22:53.0000000+00:00</time></trkpt><trkpt lat="34.9578426" lon="32.8309722"><ele>1261.7</ele><time>2015-04-29T17:22:54.0000000+00:00</time></trkpt><trkpt lat="34.9579115" lon="32.8309167"><ele>1261.2</ele><time>2015-04-29T17:22:55.0000000+00:00</time></trkpt><trkpt lat="34.9579796" lon="32.8308738"><ele>1261.0</ele><time>2015-04-29T17:22:56.0000000+00:00</time></trkpt><trkpt lat="34.9580516" lon="32.8308028"><ele>1260.9</ele><time>2015-04-29T17:22:57.0000000+00:00</time></trkpt><trkpt lat="34.9581178" lon="32.830748"><ele>1260.8</ele><time>2015-04-29T17:22:58.0000000+00:00</time></trkpt><trkpt lat="34.9581796" lon="32.8306864"><ele>1260.8</ele><time>2015-04-29T17:22:59.0000000+00:00</time></trkpt><trkpt lat="34.9581983" lon="32.8305968"><ele>1260.3</ele><time>2015-04-29T17:23:00.0000000+00:00</time></trkpt><trkpt lat="34.9582432" lon="32.8305355"><ele>1260.0</ele><time>2015-04-29T17:23:01.0000000+00:00</time></trkpt><trkpt lat="34.9582552" lon="32.8304506"><ele>1258.9</ele><time>2015-04-29T17:23:02.0000000+00:00</time></trkpt><trkpt lat="34.9582393" lon="32.8303708"><ele>1257.8</ele><time>2015-04-29T17:23:03.0000000+00:00</time></trkpt><trkpt lat="34.9582196" lon="32.8302917"><ele>1257.3</ele><time>2015-04-29T17:23:04.0000000+00:00</time></trkpt><trkpt lat="34.9581879" lon="32.8302179"><ele>1257.0</ele><time>2015-04-29T17:23:05.0000000+00:00</time></trkpt><trkpt lat="34.9581514" lon="32.8301389"><ele>1256.4</ele><time>2015-04-29T17:23:06.0000000+00:00</time></trkpt><trkpt lat="34.9581106" lon="32.8300588"><ele>1256.1</ele><time>2015-04-29T17:23:07.0000000+00:00</time></trkpt><trkpt lat="34.9580712" lon="32.8299681"><ele>1255.4</ele><time>2015-04-29T17:23:08.0000000+00:00</time></trkpt><trkpt lat="34.9580314" lon="32.8298824"><ele>1254.6</ele><time>2015-04-29T17:23:09.0000000+00:00</time></trkpt><trkpt lat="34.9579923" lon="32.8297991"><ele>1254.7</ele><time>2015-04-29T17:23:10.0000000+00:00</time></trkpt><trkpt lat="34.9579628" lon="32.8297026"><ele>1254.7</ele><time>2015-04-29T17:23:11.0000000+00:00</time></trkpt><trkpt lat="34.9579468" lon="32.8296127"><ele>1254.7</ele><time>2015-04-29T17:23:12.0000000+00:00</time></trkpt><trkpt lat="34.957956" lon="32.8295142"><ele>1254.3</ele><time>2015-04-29T17:23:13.0000000+00:00</time></trkpt><trkpt lat="34.9579769" lon="32.8294207"><ele>1253.5</ele><time>2015-04-29T17:23:14.0000000+00:00</time></trkpt><trkpt lat="34.9580053" lon="32.8293468"><ele>1252.6</ele><time>2015-04-29T17:23:15.0000000+00:00</time></trkpt><trkpt lat="34.958053" lon="32.829274"><ele>1252.2</ele><time>2015-04-29T17:23:16.0000000+00:00</time></trkpt><trkpt lat="34.9581065" lon="32.8292185"><ele>1251.5</ele><time>2015-04-29T17:23:17.0000000+00:00</time></trkpt><trkpt lat="34.9581651" lon="32.8291794"><ele>1250.6</ele><time>2015-04-29T17:23:18.0000000+00:00</time></trkpt><trkpt lat="34.9582411" lon="32.8291554"><ele>1249.7</ele><time>2015-04-29T17:23:19.0000000+00:00</time></trkpt><trkpt lat="34.9583221" lon="32.8291439"><ele>1249.2</ele><time>2015-04-29T17:23:20.0000000+00:00</time></trkpt><trkpt lat="34.9584072" lon="32.8291333"><ele>1249.0</ele><time>2015-04-29T17:23:21.0000000+00:00</time></trkpt><trkpt lat="34.9584737" lon="32.8291204"><ele>1248.9</ele><time>2015-04-29T17:23:22.0000000+00:00</time></trkpt><trkpt lat="34.9585587" lon="32.8291192"><ele>1248.3</ele><time>2015-04-29T17:23:23.0000000+00:00</time></trkpt><trkpt lat="34.9586271" lon="32.8291098"><ele>1248.0</ele><time>2015-04-29T17:23:24.0000000+00:00</time></trkpt><trkpt lat="34.958688" lon="32.8290808"><ele>1246.9</ele><time>2015-04-29T17:23:25.0000000+00:00</time></trkpt><trkpt lat="34.9587611" lon="32.8290791"><ele>1245.8</ele><time>2015-04-29T17:23:26.0000000+00:00</time></trkpt><trkpt lat="34.9588348" lon="32.8290811"><ele>1244.8</ele><time>2015-04-29T17:23:27.0000000+00:00</time></trkpt><trkpt lat="34.9588992" lon="32.8290658"><ele>1244.3</ele><time>2015-04-29T17:23:28.0000000+00:00</time></trkpt><trkpt lat="34.9589404" lon="32.8290236"><ele>1242.5</ele><time>2015-04-29T17:23:29.0000000+00:00</time></trkpt><trkpt lat="34.9590323" lon="32.8289558"><ele>1240.0</ele><time>2015-04-29T17:23:31.0000000+00:00</time></trkpt><trkpt lat="34.9590897" lon="32.8289122"><ele>1239.4</ele><time>2015-04-29T17:23:32.0000000+00:00</time></trkpt><trkpt lat="34.959099" lon="32.828846"><ele>1238.6</ele><time>2015-04-29T17:23:33.0000000+00:00</time></trkpt><trkpt lat="34.9590903" lon="32.8287764"><ele>1237.7</ele><time>2015-04-29T17:23:34.0000000+00:00</time></trkpt><trkpt lat="34.9590922" lon="32.8287102"><ele>1237.7</ele><time>2015-04-29T17:23:35.0000000+00:00</time></trkpt><trkpt lat="34.9590836" lon="32.8286456"><ele>1237.7</ele><time>2015-04-29T17:23:36.0000000+00:00</time></trkpt><trkpt lat="34.9590663" lon="32.8285821"><ele>1238.8</ele><time>2015-04-29T17:23:37.0000000+00:00</time></trkpt><trkpt lat="34.9590638" lon="32.8284961"><ele>1238.3</ele><time>2015-04-29T17:23:38.0000000+00:00</time></trkpt><trkpt lat="34.9590648" lon="32.8284194"><ele>1237.5</ele><time>2015-04-29T17:23:39.0000000+00:00</time></trkpt><trkpt lat="34.959099" lon="32.8283545"><ele>1236.1</ele><time>2015-04-29T17:23:40.0000000+00:00</time></trkpt><trkpt lat="34.9591607" lon="32.8282953"><ele>1234.5</ele><time>2015-04-29T17:23:41.0000000+00:00</time></trkpt><trkpt lat="34.9592235" lon="32.8282389"><ele>1234.1</ele><time>2015-04-29T17:23:42.0000000+00:00</time></trkpt><trkpt lat="34.9592708" lon="32.8281975"><ele>1233.4</ele><time>2015-04-29T17:23:43.0000000+00:00</time></trkpt><trkpt lat="34.95933" lon="32.8281501"><ele>1232.6</ele><time>2015-04-29T17:23:44.0000000+00:00</time></trkpt><trkpt lat="34.9593963" lon="32.8281"><ele>1232.2</ele><time>2015-04-29T17:23:45.0000000+00:00</time></trkpt><trkpt lat="34.95949" lon="32.8280572"><ele>1231.5</ele><time>2015-04-29T17:23:46.0000000+00:00</time></trkpt><trkpt lat="34.9595287" lon="32.8279838"><ele>1231.1</ele><time>2015-04-29T17:23:47.0000000+00:00</time></trkpt><trkpt lat="34.9595388" lon="32.8279048"><ele>1230.4</ele><time>2015-04-29T17:23:48.0000000+00:00</time></trkpt><trkpt lat="34.9595493" lon="32.8278153"><ele>1230.1</ele><time>2015-04-29T17:23:49.0000000+00:00</time></trkpt><trkpt lat="34.9595572" lon="32.8277462"><ele>1229.9</ele><time>2015-04-29T17:23:50.0000000+00:00</time></trkpt><trkpt lat="34.9595356" lon="32.8276543"><ele>1229.8</ele><time>2015-04-29T17:23:51.0000000+00:00</time></trkpt><trkpt lat="34.959517" lon="32.8275656"><ele>1229.3</ele><time>2015-04-29T17:23:52.0000000+00:00</time></trkpt><trkpt lat="34.9594985" lon="32.8274813"><ele>1229.0</ele><time>2015-04-29T17:23:53.0000000+00:00</time></trkpt><trkpt lat="34.9594914" lon="32.82739"><ele>1228.4</ele><time>2015-04-29T17:23:54.0000000+00:00</time></trkpt><trkpt lat="34.9594946" lon="32.8273032"><ele>1227.6</ele><time>2015-04-29T17:23:55.0000000+00:00</time></trkpt><trkpt lat="34.9595053" lon="32.8272168"><ele>1226.7</ele><time>2015-04-29T17:23:56.0000000+00:00</time></trkpt><trkpt lat="34.959514" lon="32.8271182"><ele>1225.7</ele><time>2015-04-29T17:23:57.0000000+00:00</time></trkpt><trkpt lat="34.9595788" lon="32.82705"><ele>1224.7</ele><time>2015-04-29T17:23:58.0000000+00:00</time></trkpt><trkpt lat="34.9596314" lon="32.8270079"><ele>1224.3</ele><time>2015-04-29T17:23:59.0000000+00:00</time></trkpt><trkpt lat="34.9596972" lon="32.8269797"><ele>1224.0</ele><time>2015-04-29T17:24:00.0000000+00:00</time></trkpt><trkpt lat="34.9597695" lon="32.8269717"><ele>1223.4</ele><time>2015-04-29T17:24:01.0000000+00:00</time></trkpt><trkpt lat="34.9598447" lon="32.8269633"><ele>1223.1</ele><time>2015-04-29T17:24:02.0000000+00:00</time></trkpt><trkpt lat="34.9599277" lon="32.8269687"><ele>1222.4</ele><time>2015-04-29T17:24:03.0000000+00:00</time></trkpt><trkpt lat="34.9600067" lon="32.8269848"><ele>1222.1</ele><time>2015-04-29T17:24:04.0000000+00:00</time></trkpt><trkpt lat="34.9600939" lon="32.8270112"><ele>1221.4</ele><time>2015-04-29T17:24:05.0000000+00:00</time></trkpt><trkpt lat="34.9601762" lon="32.8270309"><ele>1221.1</ele><time>2015-04-29T17:24:06.0000000+00:00</time></trkpt><trkpt lat="34.9602582" lon="32.8270389"><ele>1220.4</ele><time>2015-04-29T17:24:07.0000000+00:00</time></trkpt><trkpt lat="34.9603394" lon="32.8270534"><ele>1220.1</ele><time>2015-04-29T17:24:08.0000000+00:00</time></trkpt><trkpt lat="34.960411" lon="32.8270511"><ele>1220.4</ele><time>2015-04-29T17:24:09.0000000+00:00</time></trkpt><trkpt lat="34.9604807" lon="32.8270506"><ele>1220.6</ele><time>2015-04-29T17:24:10.0000000+00:00</time></trkpt><trkpt lat="34.9605505" lon="32.8270447"><ele>1220.7</ele><time>2015-04-29T17:24:11.0000000+00:00</time></trkpt><trkpt lat="34.9606173" lon="32.827058"><ele>1220.7</ele><time>2015-04-29T17:24:12.0000000+00:00</time></trkpt><trkpt lat="34.9606709" lon="32.8270656"><ele>1220.7</ele><time>2015-04-29T17:24:13.0000000+00:00</time></trkpt><trkpt lat="34.9607171" lon="32.8270927"><ele>1220.3</ele><time>2015-04-29T17:24:14.0000000+00:00</time></trkpt><trkpt lat="34.9607719" lon="32.8271503"><ele>1217.9</ele><time>2015-04-29T17:24:16.0000000+00:00</time></trkpt><trkpt lat="34.9608487" lon="32.8272101"><ele>1217.0</ele><time>2015-04-29T17:24:18.0000000+00:00</time></trkpt><trkpt lat="34.96088" lon="32.827253"><ele>1216.9</ele><time>2015-04-29T17:24:19.0000000+00:00</time></trkpt><trkpt lat="34.9609472" lon="32.8273231"><ele>1216.8</ele><time>2015-04-29T17:24:21.0000000+00:00</time></trkpt><trkpt lat="34.9609856" lon="32.8273754"><ele>1216.3</ele><time>2015-04-29T17:24:22.0000000+00:00</time></trkpt><trkpt lat="34.9610161" lon="32.8274173"><ele>1216.0</ele><time>2015-04-29T17:24:23.0000000+00:00</time></trkpt><trkpt lat="34.9610693" lon="32.8274604"><ele>1215.9</ele><time>2015-04-29T17:24:24.0000000+00:00</time></trkpt><trkpt lat="34.9611169" lon="32.8275111"><ele>1215.3</ele><time>2015-04-29T17:24:25.0000000+00:00</time></trkpt><trkpt lat="34.9611718" lon="32.8275689"><ele>1215.0</ele><time>2015-04-29T17:24:26.0000000+00:00</time></trkpt><trkpt lat="34.9612258" lon="32.8276274"><ele>1214.9</ele><time>2015-04-29T17:24:27.0000000+00:00</time></trkpt><trkpt lat="34.9612814" lon="32.8276764"><ele>1214.3</ele><time>2015-04-29T17:24:28.0000000+00:00</time></trkpt><trkpt lat="34.9613321" lon="32.827714"><ele>1213.6</ele><time>2015-04-29T17:24:29.0000000+00:00</time></trkpt><trkpt lat="34.9613934" lon="32.8277534"><ele>1212.7</ele><time>2015-04-29T17:24:30.0000000+00:00</time></trkpt><trkpt lat="34.9614627" lon="32.8278005"><ele>1212.2</ele><time>2015-04-29T17:24:31.0000000+00:00</time></trkpt><trkpt lat="34.961541" lon="32.8278354"><ele>1211.0</ele><time>2015-04-29T17:24:32.0000000+00:00</time></trkpt><trkpt lat="34.9616192" lon="32.827872"><ele>1209.4</ele><time>2015-04-29T17:24:33.0000000+00:00</time></trkpt><trkpt lat="34.9616988" lon="32.8279062"><ele>1208.6</ele><time>2015-04-29T17:24:34.0000000+00:00</time></trkpt><trkpt lat="34.9617837" lon="32.8279401"><ele>1207.7</ele><time>2015-04-29T17:24:35.0000000+00:00</time></trkpt><trkpt lat="34.9618863" lon="32.8279519"><ele>1206.7</ele><time>2015-04-29T17:24:36.0000000+00:00</time></trkpt><trkpt lat="34.9619774" lon="32.8279621"><ele>1206.2</ele><time>2015-04-29T17:24:37.0000000+00:00</time></trkpt><trkpt lat="34.9620692" lon="32.8279628"><ele>1206.0</ele><time>2015-04-29T17:24:38.0000000+00:00</time></trkpt><trkpt lat="34.9621791" lon="32.827945"><ele>1205.4</ele><time>2015-04-29T17:24:39.0000000+00:00</time></trkpt><trkpt lat="34.9622757" lon="32.8279228"><ele>1203.6</ele><time>2015-04-29T17:24:40.0000000+00:00</time></trkpt><trkpt lat="34.9623672" lon="32.8279269"><ele>1201.2</ele><time>2015-04-29T17:24:41.0000000+00:00</time></trkpt><trkpt lat="34.9624486" lon="32.8279418"><ele>1199.5</ele><time>2015-04-29T17:24:42.0000000+00:00</time></trkpt><trkpt lat="34.9625367" lon="32.8279729"><ele>1198.1</ele><time>2015-04-29T17:24:43.0000000+00:00</time></trkpt><trkpt lat="34.9626157" lon="32.8280082"><ele>1197.4</ele><time>2015-04-29T17:24:44.0000000+00:00</time></trkpt><trkpt lat="34.9626951" lon="32.8280446"><ele>1196.6</ele><time>2015-04-29T17:24:45.0000000+00:00</time></trkpt><trkpt lat="34.9627673" lon="32.8280852"><ele>1196.2</ele><time>2015-04-29T17:24:46.0000000+00:00</time></trkpt><trkpt lat="34.9628471" lon="32.8281182"><ele>1195.5</ele><time>2015-04-29T17:24:47.0000000+00:00</time></trkpt><trkpt lat="34.962929" lon="32.8281523"><ele>1195.1</ele><time>2015-04-29T17:24:48.0000000+00:00</time></trkpt><trkpt lat="34.9629998" lon="32.8281843"><ele>1194.4</ele><time>2015-04-29T17:24:49.0000000+00:00</time></trkpt><trkpt lat="34.9630731" lon="32.8281956"><ele>1193.6</ele><time>2015-04-29T17:24:50.0000000+00:00</time></trkpt><trkpt lat="34.9631488" lon="32.8282069"><ele>1193.2</ele><time>2015-04-29T17:24:51.0000000+00:00</time></trkpt><trkpt lat="34.9632321" lon="32.8282232"><ele>1193.0</ele><time>2015-04-29T17:24:52.0000000+00:00</time></trkpt><trkpt lat="34.9633166" lon="32.8282304"><ele>1192.4</ele><time>2015-04-29T17:24:53.0000000+00:00</time></trkpt><trkpt lat="34.9634065" lon="32.8282419"><ele>1191.6</ele><time>2015-04-29T17:24:54.0000000+00:00</time></trkpt><trkpt lat="34.9634997" lon="32.8282334"><ele>1190.7</ele><time>2015-04-29T17:24:55.0000000+00:00</time></trkpt><trkpt lat="34.9636004" lon="32.8282293"><ele>1189.2</ele><time>2015-04-29T17:24:56.0000000+00:00</time></trkpt><trkpt lat="34.9636895" lon="32.8282258"><ele>1188.5</ele><time>2015-04-29T17:24:57.0000000+00:00</time></trkpt><trkpt lat="34.9637763" lon="32.8282365"><ele>1187.6</ele><time>2015-04-29T17:24:58.0000000+00:00</time></trkpt><trkpt lat="34.9638389" lon="32.8282561"><ele>1186.7</ele><time>2015-04-29T17:24:59.0000000+00:00</time></trkpt><trkpt lat="34.9639049" lon="32.8282802"><ele>1186.2</ele><time>2015-04-29T17:25:00.0000000+00:00</time></trkpt><trkpt lat="34.9639637" lon="32.8283002"><ele>1186.0</ele><time>2015-04-29T17:25:01.0000000+00:00</time></trkpt><trkpt lat="34.9640202" lon="32.8283054"><ele>1185.9</ele><time>2015-04-29T17:25:02.0000000+00:00</time></trkpt><trkpt lat="34.9640695" lon="32.8283048"><ele>1185.8</ele><time>2015-04-29T17:25:03.0000000+00:00</time></trkpt><trkpt lat="34.9641312" lon="32.8282903"><ele>1185.8</ele><time>2015-04-29T17:25:04.0000000+00:00</time></trkpt><trkpt lat="34.9641791" lon="32.828262"><ele>1185.3</ele><time>2015-04-29T17:25:05.0000000+00:00</time></trkpt><trkpt lat="34.9642328" lon="32.8282343"><ele>1184.5</ele><time>2015-04-29T17:25:06.0000000+00:00</time></trkpt><trkpt lat="34.9642835" lon="32.8282177"><ele>1184.1</ele><time>2015-04-29T17:25:07.0000000+00:00</time></trkpt><trkpt lat="34.9643496" lon="32.8281739"><ele>1183.5</ele><time>2015-04-29T17:25:08.0000000+00:00</time></trkpt><trkpt lat="34.9644098" lon="32.8281639"><ele>1183.1</ele><time>2015-04-29T17:25:09.0000000+00:00</time></trkpt><trkpt lat="34.9644734" lon="32.8281605"><ele>1182.9</ele><time>2015-04-29T17:25:10.0000000+00:00</time></trkpt><trkpt lat="34.964542" lon="32.8281617"><ele>1182.9</ele><time>2015-04-29T17:25:11.0000000+00:00</time></trkpt><trkpt lat="34.964609" lon="32.8281597"><ele>1182.3</ele><time>2015-04-29T17:25:12.0000000+00:00</time></trkpt><trkpt lat="34.9646736" lon="32.8281576"><ele>1182.0</ele><time>2015-04-29T17:25:13.0000000+00:00</time></trkpt><trkpt lat="34.9647486" lon="32.8281434"><ele>1181.9</ele><time>2015-04-29T17:25:14.0000000+00:00</time></trkpt><trkpt lat="34.9648136" lon="32.8281103"><ele>1181.8</ele><time>2015-04-29T17:25:15.0000000+00:00</time></trkpt><trkpt lat="34.9648856" lon="32.8280665"><ele>1181.3</ele><time>2015-04-29T17:25:16.0000000+00:00</time></trkpt><trkpt lat="34.9649512" lon="32.8280159"><ele>1181.0</ele><time>2015-04-29T17:25:17.0000000+00:00</time></trkpt><trkpt lat="34.9650302" lon="32.8279651"><ele>1180.4</ele><time>2015-04-29T17:25:18.0000000+00:00</time></trkpt><trkpt lat="34.9650975" lon="32.8279101"><ele>1179.6</ele><time>2015-04-29T17:25:19.0000000+00:00</time></trkpt><trkpt lat="34.9651746" lon="32.8278598"><ele>1179.2</ele><time>2015-04-29T17:25:20.0000000+00:00</time></trkpt><trkpt lat="34.9652575" lon="32.8278047"><ele>1179.0</ele><time>2015-04-29T17:25:21.0000000+00:00</time></trkpt><trkpt lat="34.965336" lon="32.8277426"><ele>1178.9</ele><time>2015-04-29T17:25:22.0000000+00:00</time></trkpt><trkpt lat="34.9654064" lon="32.8276831"><ele>1178.3</ele><time>2015-04-29T17:25:23.0000000+00:00</time></trkpt><trkpt lat="34.9654374" lon="32.8275894"><ele>1178.5</ele><time>2015-04-29T17:25:24.0000000+00:00</time></trkpt><trkpt lat="34.9655116" lon="32.8275328"><ele>1178.7</ele><time>2015-04-29T17:25:25.0000000+00:00</time></trkpt><trkpt lat="34.9655878" lon="32.8274845"><ele>1179.2</ele><time>2015-04-29T17:25:26.0000000+00:00</time></trkpt><trkpt lat="34.9656597" lon="32.827448"><ele>1179.0</ele><time>2015-04-29T17:25:27.0000000+00:00</time></trkpt><trkpt lat="34.9657344" lon="32.8274027"><ele>1178.4</ele><time>2015-04-29T17:25:28.0000000+00:00</time></trkpt><trkpt lat="34.9658073" lon="32.8273571"><ele>1178.1</ele><time>2015-04-29T17:25:29.0000000+00:00</time></trkpt><trkpt lat="34.9658818" lon="32.8272897"><ele>1177.4</ele><time>2015-04-29T17:25:30.0000000+00:00</time></trkpt><trkpt lat="34.9659554" lon="32.8272255"><ele>1176.6</ele><time>2015-04-29T17:25:31.0000000+00:00</time></trkpt><trkpt lat="34.9660289" lon="32.8271623"><ele>1175.7</ele><time>2015-04-29T17:25:32.0000000+00:00</time></trkpt><trkpt lat="34.9661007" lon="32.8270994"><ele>1175.2</ele><time>2015-04-29T17:25:33.0000000+00:00</time></trkpt><trkpt lat="34.9661803" lon="32.8270444"><ele>1174.5</ele><time>2015-04-29T17:25:34.0000000+00:00</time></trkpt><trkpt lat="34.9662543" lon="32.826981"><ele>1173.6</ele><time>2015-04-29T17:25:35.0000000+00:00</time></trkpt><trkpt lat="34.9663242" lon="32.8269109"><ele>1172.7</ele><time>2015-04-29T17:25:36.0000000+00:00</time></trkpt><trkpt lat="34.966389" lon="32.8268435"><ele>1172.2</ele><time>2015-04-29T17:25:37.0000000+00:00</time></trkpt><trkpt lat="34.9664724" lon="32.8267814"><ele>1172.0</ele><time>2015-04-29T17:25:38.0000000+00:00</time></trkpt><trkpt lat="34.9665316" lon="32.8267133"><ele>1171.9</ele><time>2015-04-29T17:25:39.0000000+00:00</time></trkpt><trkpt lat="34.9665934" lon="32.8266652"><ele>1172.3</ele><time>2015-04-29T17:25:40.0000000+00:00</time></trkpt><trkpt lat="34.9666358" lon="32.8266227"><ele>1172.0</ele><time>2015-04-29T17:25:41.0000000+00:00</time></trkpt><trkpt lat="34.9666962" lon="32.8265628"><ele>1171.1</ele><time>2015-04-29T17:25:43.0000000+00:00</time></trkpt><trkpt lat="34.966751" lon="32.8265217"><ele>1170.8</ele><time>2015-04-29T17:25:45.0000000+00:00</time></trkpt><trkpt lat="34.9667974" lon="32.8264753"><ele>1169.5</ele><time>2015-04-29T17:25:47.0000000+00:00</time></trkpt><trkpt lat="34.9668452" lon="32.8264366"><ele>1169.0</ele><time>2015-04-29T17:25:49.0000000+00:00</time></trkpt><trkpt lat="34.9668653" lon="32.8263788"><ele>1173.6</ele><time>2015-04-29T17:26:11.0000000+00:00</time></trkpt><trkpt lat="34.9669131" lon="32.8263432"><ele>1173.0</ele><time>2015-04-29T17:26:13.0000000+00:00</time></trkpt><trkpt lat="34.9669875" lon="32.8262873"><ele>1172.8</ele><time>2015-04-29T17:26:15.0000000+00:00</time></trkpt><trkpt lat="34.9670277" lon="32.82626"><ele>1172.8</ele><time>2015-04-29T17:26:16.0000000+00:00</time></trkpt><trkpt lat="34.9671384" lon="32.8261964"><ele>1172.0</ele><time>2015-04-29T17:26:18.0000000+00:00</time></trkpt><trkpt lat="34.9671783" lon="32.8261616"><ele>1171.4</ele><time>2015-04-29T17:26:19.0000000+00:00</time></trkpt><trkpt lat="34.9672288" lon="32.8261278"><ele>1171.6</ele><time>2015-04-29T17:26:20.0000000+00:00</time></trkpt><trkpt lat="34.9672746" lon="32.8260985"><ele>1171.7</ele><time>2015-04-29T17:26:21.0000000+00:00</time></trkpt><trkpt lat="34.967316" lon="32.8260731"><ele>1171.7</ele><time>2015-04-29T17:26:22.0000000+00:00</time></trkpt><trkpt lat="34.9673594" lon="32.8260396"><ele>1171.7</ele><time>2015-04-29T17:26:23.0000000+00:00</time></trkpt><trkpt lat="34.9674014" lon="32.8260053"><ele>1171.8</ele><time>2015-04-29T17:26:24.0000000+00:00</time></trkpt><trkpt lat="34.9674472" lon="32.8259654"><ele>1171.3</ele><time>2015-04-29T17:26:25.0000000+00:00</time></trkpt><trkpt lat="34.9674984" lon="32.8259366"><ele>1171.0</ele><time>2015-04-29T17:26:26.0000000+00:00</time></trkpt><trkpt lat="34.9675519" lon="32.8258985"><ele>1170.9</ele><time>2015-04-29T17:26:27.0000000+00:00</time></trkpt><trkpt lat="34.9676095" lon="32.8258714"><ele>1170.8</ele><time>2015-04-29T17:26:28.0000000+00:00</time></trkpt><trkpt lat="34.9676422" lon="32.8258327"><ele>1170.8</ele><time>2015-04-29T17:26:29.0000000+00:00</time></trkpt><trkpt lat="34.9676935" lon="32.8258012"><ele>1170.8</ele><time>2015-04-29T17:26:30.0000000+00:00</time></trkpt><trkpt lat="34.9677422" lon="32.8257686"><ele>1170.8</ele><time>2015-04-29T17:26:31.0000000+00:00</time></trkpt><trkpt lat="34.9678027" lon="32.8257356"><ele>1170.8</ele><time>2015-04-29T17:26:32.0000000+00:00</time></trkpt><trkpt lat="34.9678377" lon="32.8256884"><ele>1170.3</ele><time>2015-04-29T17:26:33.0000000+00:00</time></trkpt><trkpt lat="34.9678861" lon="32.8256523"><ele>1170.0</ele><time>2015-04-29T17:26:34.0000000+00:00</time></trkpt><trkpt lat="34.9679452" lon="32.8256298"><ele>1169.9</ele><time>2015-04-29T17:26:35.0000000+00:00</time></trkpt><trkpt lat="34.9679987" lon="32.8255997"><ele>1169.8</ele><time>2015-04-29T17:26:36.0000000+00:00</time></trkpt><trkpt lat="34.9680616" lon="32.8255691"><ele>1170.8</ele><time>2015-04-29T17:26:37.0000000+00:00</time></trkpt><trkpt lat="34.9681251" lon="32.8255608"><ele>1171.3</ele><time>2015-04-29T17:26:38.0000000+00:00</time></trkpt><trkpt lat="34.9681894" lon="32.8255408"><ele>1172.5</ele><time>2015-04-29T17:26:39.0000000+00:00</time></trkpt><trkpt lat="34.9682539" lon="32.8255322"><ele>1173.1</ele><time>2015-04-29T17:26:40.0000000+00:00</time></trkpt><trkpt lat="34.9683059" lon="32.8255244"><ele>1173.5</ele><time>2015-04-29T17:26:41.0000000+00:00</time></trkpt><trkpt lat="34.968363" lon="32.8255167"><ele>1173.1</ele><time>2015-04-29T17:26:42.0000000+00:00</time></trkpt><trkpt lat="34.9684242" lon="32.8255044"><ele>1173.4</ele><time>2015-04-29T17:26:43.0000000+00:00</time></trkpt><trkpt lat="34.9684855" lon="32.8254806"><ele>1173.1</ele><time>2015-04-29T17:26:44.0000000+00:00</time></trkpt><trkpt lat="34.9685443" lon="32.8254578"><ele>1172.9</ele><time>2015-04-29T17:26:45.0000000+00:00</time></trkpt><trkpt lat="34.9686012" lon="32.8254269"><ele>1172.3</ele><time>2015-04-29T17:26:46.0000000+00:00</time></trkpt><trkpt lat="34.9686442" lon="32.8253803"><ele>1172.1</ele><time>2015-04-29T17:26:47.0000000+00:00</time></trkpt><trkpt lat="34.9686868" lon="32.8253225"><ele>1171.9</ele><time>2015-04-29T17:26:48.0000000+00:00</time></trkpt><trkpt lat="34.9687411" lon="32.8252776"><ele>1171.8</ele><time>2015-04-29T17:26:49.0000000+00:00</time></trkpt><trkpt lat="34.9687918" lon="32.8252273"><ele>1171.3</ele><time>2015-04-29T17:26:50.0000000+00:00</time></trkpt><trkpt lat="34.968836" lon="32.8251733"><ele>1170.0</ele><time>2015-04-29T17:26:51.0000000+00:00</time></trkpt><trkpt lat="34.9688701" lon="32.825116"><ele>1169.4</ele><time>2015-04-29T17:26:52.0000000+00:00</time></trkpt><trkpt lat="34.9689255" lon="32.825063"><ele>1169.6</ele><time>2015-04-29T17:26:53.0000000+00:00</time></trkpt><trkpt lat="34.9689636" lon="32.8250104"><ele>1169.2</ele><time>2015-04-29T17:26:54.0000000+00:00</time></trkpt><trkpt lat="34.9689981" lon="32.824957"><ele>1169.0</ele><time>2015-04-29T17:26:55.0000000+00:00</time></trkpt><trkpt lat="34.9690506" lon="32.824905"><ele>1168.9</ele><time>2015-04-29T17:26:56.0000000+00:00</time></trkpt><trkpt lat="34.9690929" lon="32.8248445"><ele>1168.3</ele><time>2015-04-29T17:26:57.0000000+00:00</time></trkpt><trkpt lat="34.9691198" lon="32.8247799"><ele>1168.0</ele><time>2015-04-29T17:26:58.0000000+00:00</time></trkpt><trkpt lat="34.9691695" lon="32.8247348"><ele>1167.9</ele><time>2015-04-29T17:26:59.0000000+00:00</time></trkpt><trkpt lat="34.969228" lon="32.8246856"><ele>1167.8</ele><time>2015-04-29T17:27:00.0000000+00:00</time></trkpt><trkpt lat="34.9692406" lon="32.8246201"><ele>1167.8</ele><time>2015-04-29T17:27:01.0000000+00:00</time></trkpt><trkpt lat="34.9693053" lon="32.824579"><ele>1167.8</ele><time>2015-04-29T17:27:02.0000000+00:00</time></trkpt><trkpt lat="34.9693601" lon="32.8245455"><ele>1167.8</ele><time>2015-04-29T17:27:03.0000000+00:00</time></trkpt><trkpt lat="34.9694171" lon="32.8245082"><ele>1167.8</ele><time>2015-04-29T17:27:04.0000000+00:00</time></trkpt><trkpt lat="34.969475" lon="32.8244765"><ele>1167.3</ele><time>2015-04-29T17:27:05.0000000+00:00</time></trkpt><trkpt lat="34.9695362" lon="32.8244618"><ele>1167.0</ele><time>2015-04-29T17:27:06.0000000+00:00</time></trkpt><trkpt lat="34.9695924" lon="32.8244534"><ele>1166.4</ele><time>2015-04-29T17:27:07.0000000+00:00</time></trkpt><trkpt lat="34.9696818" lon="32.8244605"><ele>1166.4</ele><time>2015-04-29T17:27:09.0000000+00:00</time></trkpt><trkpt lat="34.9697293" lon="32.8244625"><ele>1166.1</ele><time>2015-04-29T17:27:10.0000000+00:00</time></trkpt><trkpt lat="34.969809" lon="32.8244839"><ele>1166.3</ele><time>2015-04-29T17:27:12.0000000+00:00</time></trkpt><trkpt lat="34.9698949" lon="32.8245137"><ele>1166.7</ele><time>2015-04-29T17:27:14.0000000+00:00</time></trkpt><trkpt lat="34.9699382" lon="32.8245304"><ele>1166.7</ele><time>2015-04-29T17:27:15.0000000+00:00</time></trkpt><trkpt lat="34.9699817" lon="32.8245459"><ele>1166.7</ele><time>2015-04-29T17:27:16.0000000+00:00</time></trkpt><trkpt lat="34.9700514" lon="32.8245836"><ele>1166.8</ele><time>2015-04-29T17:27:18.0000000+00:00</time></trkpt><trkpt lat="34.9701089" lon="32.824638"><ele>1167.3</ele><time>2015-04-29T17:27:20.0000000+00:00</time></trkpt><trkpt lat="34.9701728" lon="32.8246852"><ele>1167.1</ele><time>2015-04-29T17:27:22.0000000+00:00</time></trkpt><trkpt lat="34.9702405" lon="32.8247317"><ele>1166.9</ele><time>2015-04-29T17:27:24.0000000+00:00</time></trkpt><trkpt lat="34.9703154" lon="32.8247656"><ele>1166.5</ele><time>2015-04-29T17:27:26.0000000+00:00</time></trkpt><trkpt lat="34.9704122" lon="32.824764"><ele>1166.2</ele><time>2015-04-29T17:27:28.0000000+00:00</time></trkpt><trkpt lat="34.9704605" lon="32.8247517"><ele>1166.0</ele><time>2015-04-29T17:27:29.0000000+00:00</time></trkpt><trkpt lat="34.9705063" lon="32.8247222"><ele>1164.9</ele><time>2015-04-29T17:27:30.0000000+00:00</time></trkpt><trkpt lat="34.9705542" lon="32.8246935"><ele>1163.8</ele><time>2015-04-29T17:27:31.0000000+00:00</time></trkpt><trkpt lat="34.9706163" lon="32.8246704"><ele>1163.3</ele><time>2015-04-29T17:27:32.0000000+00:00</time></trkpt><trkpt lat="34.9706802" lon="32.8246516"><ele>1163.0</ele><time>2015-04-29T17:27:33.0000000+00:00</time></trkpt><trkpt lat="34.9707445" lon="32.8246263"><ele>1162.4</ele><time>2015-04-29T17:27:34.0000000+00:00</time></trkpt><trkpt lat="34.9708138" lon="32.8245929"><ele>1162.1</ele><time>2015-04-29T17:27:35.0000000+00:00</time></trkpt><trkpt lat="34.9708846" lon="32.8245574"><ele>1161.9</ele><time>2015-04-29T17:27:36.0000000+00:00</time></trkpt><trkpt lat="34.9709594" lon="32.824524"><ele>1162.3</ele><time>2015-04-29T17:27:37.0000000+00:00</time></trkpt><trkpt lat="34.9710367" lon="32.8244848"><ele>1163.1</ele><time>2015-04-29T17:27:38.0000000+00:00</time></trkpt><trkpt lat="34.9710977" lon="32.8244377"><ele>1163.4</ele><time>2015-04-29T17:27:39.0000000+00:00</time></trkpt><trkpt lat="34.971159" lon="32.8243952"><ele>1163.6</ele><time>2015-04-29T17:27:40.0000000+00:00</time></trkpt><trkpt lat="34.9712178" lon="32.8243652"><ele>1163.7</ele><time>2015-04-29T17:27:41.0000000+00:00</time></trkpt><trkpt lat="34.9712757" lon="32.8243339"><ele>1163.2</ele><time>2015-04-29T17:27:42.0000000+00:00</time></trkpt><trkpt lat="34.9713335" lon="32.8243091"><ele>1163.0</ele><time>2015-04-29T17:27:43.0000000+00:00</time></trkpt><trkpt lat="34.971391" lon="32.8242976"><ele>1163.4</ele><time>2015-04-29T17:27:44.0000000+00:00</time></trkpt><trkpt lat="34.9714456" lon="32.8242991"><ele>1163.6</ele><time>2015-04-29T17:27:45.0000000+00:00</time></trkpt><trkpt lat="34.9714996" lon="32.8243119"><ele>1163.2</ele><time>2015-04-29T17:27:46.0000000+00:00</time></trkpt><trkpt lat="34.9715462" lon="32.8243294"><ele>1162.5</ele><time>2015-04-29T17:27:47.0000000+00:00</time></trkpt><trkpt lat="34.971602" lon="32.824351"><ele>1161.6</ele><time>2015-04-29T17:27:48.0000000+00:00</time></trkpt><trkpt lat="34.971654" lon="32.8243752"><ele>1160.7</ele><time>2015-04-29T17:27:49.0000000+00:00</time></trkpt><trkpt lat="34.9717085" lon="32.8243951"><ele>1159.7</ele><time>2015-04-29T17:27:50.0000000+00:00</time></trkpt><trkpt lat="34.9717531" lon="32.8243822"><ele>1159.2</ele><time>2015-04-29T17:27:51.0000000+00:00</time></trkpt><trkpt lat="34.971808" lon="32.8243747"><ele>1158.5</ele><time>2015-04-29T17:27:52.0000000+00:00</time></trkpt><trkpt lat="34.971854" lon="32.8243471"><ele>1157.6</ele><time>2015-04-29T17:27:53.0000000+00:00</time></trkpt><trkpt lat="34.971902" lon="32.8243166"><ele>1156.2</ele><time>2015-04-29T17:27:54.0000000+00:00</time></trkpt><trkpt lat="34.9719483" lon="32.8242785"><ele>1155.0</ele><time>2015-04-29T17:27:55.0000000+00:00</time></trkpt><trkpt lat="34.9719984" lon="32.8242406"><ele>1154.4</ele><time>2015-04-29T17:27:56.0000000+00:00</time></trkpt><trkpt lat="34.9720416" lon="32.8242139"><ele>1153.1</ele><time>2015-04-29T17:27:57.0000000+00:00</time></trkpt><trkpt lat="34.9721088" lon="32.8242023"><ele>1151.3</ele><time>2015-04-29T17:27:59.0000000+00:00</time></trkpt><trkpt lat="34.9721014" lon="32.8242819"><ele>1148.6</ele><time>2015-04-29T17:28:03.0000000+00:00</time></trkpt><trkpt lat="34.9720567" lon="32.8243166"><ele>1147.2</ele><time>2015-04-29T17:28:05.0000000+00:00</time></trkpt><trkpt lat="34.9720014" lon="32.824371"><ele>1146.9</ele><time>2015-04-29T17:28:07.0000000+00:00</time></trkpt><trkpt lat="34.9719387" lon="32.8244362"><ele>1146.8</ele><time>2015-04-29T17:28:09.0000000+00:00</time></trkpt><trkpt lat="34.97188" lon="32.8245018"><ele>1145.5</ele><time>2015-04-29T17:28:11.0000000+00:00</time></trkpt><trkpt lat="34.9718234" lon="32.824561"><ele>1144.5</ele><time>2015-04-29T17:28:13.0000000+00:00</time></trkpt><trkpt lat="34.971765" lon="32.8245988"><ele>1144.4</ele><time>2015-04-29T17:28:15.0000000+00:00</time></trkpt><trkpt lat="34.9716918" lon="32.8246074"><ele>1143.7</ele><time>2015-04-29T17:28:17.0000000+00:00</time></trkpt><trkpt lat="34.9716206" lon="32.8246021"><ele>1143.5</ele><time>2015-04-29T17:28:19.0000000+00:00</time></trkpt><trkpt lat="34.9715405" lon="32.8245895"><ele>1143.2</ele><time>2015-04-29T17:28:21.0000000+00:00</time></trkpt><trkpt lat="34.9714168" lon="32.824576"><ele>1142.6</ele><time>2015-04-29T17:28:23.0000000+00:00</time></trkpt><trkpt lat="34.9713635" lon="32.8245961"><ele>1142.7</ele><time>2015-04-29T17:28:24.0000000+00:00</time></trkpt><trkpt lat="34.9713228" lon="32.8246196"><ele>1143.2</ele><time>2015-04-29T17:28:25.0000000+00:00</time></trkpt><trkpt lat="34.9712784" lon="32.8246446"><ele>1143.0</ele><time>2015-04-29T17:28:26.0000000+00:00</time></trkpt><trkpt lat="34.9712324" lon="32.8246746"><ele>1142.9</ele><time>2015-04-29T17:28:27.0000000+00:00</time></trkpt><trkpt lat="34.9711756" lon="32.8247123"><ele>1142.8</ele><time>2015-04-29T17:28:28.0000000+00:00</time></trkpt><trkpt lat="34.9710988" lon="32.8247687"><ele>1142.8</ele><time>2015-04-29T17:28:30.0000000+00:00</time></trkpt><trkpt lat="34.9710616" lon="32.8248086"><ele>1143.3</ele><time>2015-04-29T17:28:31.0000000+00:00</time></trkpt><trkpt lat="34.9709827" lon="32.8248753"><ele>1144.1</ele><time>2015-04-29T17:28:33.0000000+00:00</time></trkpt><trkpt lat="34.9709068" lon="32.8249169"><ele>1142.1</ele><time>2015-04-29T17:28:35.0000000+00:00</time></trkpt><trkpt lat="34.9708503" lon="32.8249934"><ele>1141.1</ele><time>2015-04-29T17:28:37.0000000+00:00</time></trkpt><trkpt lat="34.9707931" lon="32.8250527"><ele>1142.1</ele><time>2015-04-29T17:28:39.0000000+00:00</time></trkpt><trkpt lat="34.9707264" lon="32.825092"><ele>1142.1</ele><time>2015-04-29T17:28:41.0000000+00:00</time></trkpt><trkpt lat="34.9706727" lon="32.825147"><ele>1142.1</ele><time>2015-04-29T17:28:43.0000000+00:00</time></trkpt><trkpt lat="34.9706096" lon="32.8251858"><ele>1142.8</ele><time>2015-04-29T17:28:45.0000000+00:00</time></trkpt><trkpt lat="34.9705373" lon="32.8252082"><ele>1142.8</ele><time>2015-04-29T17:28:47.0000000+00:00</time></trkpt><trkpt lat="34.9704515" lon="32.8252167"><ele>1140.8</ele><time>2015-04-29T17:28:49.0000000+00:00</time></trkpt><trkpt lat="34.9703864" lon="32.825213"><ele>1139.8</ele><time>2015-04-29T17:28:50.0000000+00:00</time></trkpt><trkpt lat="34.9703386" lon="32.8252078"><ele>1138.8</ele><time>2015-04-29T17:28:51.0000000+00:00</time></trkpt><trkpt lat="34.9702882" lon="32.825218"><ele>1137.8</ele><time>2015-04-29T17:28:52.0000000+00:00</time></trkpt><trkpt lat="34.9701881" lon="32.8252277"><ele>1136.3</ele><time>2015-04-29T17:28:54.0000000+00:00</time></trkpt><trkpt lat="34.9701411" lon="32.8252221"><ele>1136.0</ele><time>2015-04-29T17:28:55.0000000+00:00</time></trkpt><trkpt lat="34.9700865" lon="32.8252217"><ele>1135.9</ele><time>2015-04-29T17:28:56.0000000+00:00</time></trkpt><trkpt lat="34.9700414" lon="32.8252071"><ele>1136.8</ele><time>2015-04-29T17:28:57.0000000+00:00</time></trkpt><trkpt lat="34.9699901" lon="32.8251981"><ele>1137.3</ele><time>2015-04-29T17:28:58.0000000+00:00</time></trkpt><trkpt lat="34.9699469" lon="32.8251798"><ele>1137.5</ele><time>2015-04-29T17:28:59.0000000+00:00</time></trkpt><trkpt lat="34.9698872" lon="32.8251643"><ele>1137.1</ele><time>2015-04-29T17:29:00.0000000+00:00</time></trkpt><trkpt lat="34.969837" lon="32.8251556"><ele>1136.5</ele><time>2015-04-29T17:29:01.0000000+00:00</time></trkpt><trkpt lat="34.9697832" lon="32.8251547"><ele>1136.1</ele><time>2015-04-29T17:29:02.0000000+00:00</time></trkpt><trkpt lat="34.9697258" lon="32.8251629"><ele>1135.9</ele><time>2015-04-29T17:29:03.0000000+00:00</time></trkpt><trkpt lat="34.969677" lon="32.82518"><ele>1135.4</ele><time>2015-04-29T17:29:04.0000000+00:00</time></trkpt><trkpt lat="34.9696049" lon="32.8252165"><ele>1134.7</ele><time>2015-04-29T17:29:06.0000000+00:00</time></trkpt><trkpt lat="34.9695275" lon="32.8252716"><ele>1133.5</ele><time>2015-04-29T17:29:08.0000000+00:00</time></trkpt><trkpt lat="34.9694971" lon="32.8253127"><ele>1133.1</ele><time>2015-04-29T17:29:09.0000000+00:00</time></trkpt><trkpt lat="34.9694325" lon="32.825365"><ele>1131.6</ele><time>2015-04-29T17:29:11.0000000+00:00</time></trkpt><trkpt lat="34.9693739" lon="32.8254267"><ele>1129.5</ele><time>2015-04-29T17:29:13.0000000+00:00</time></trkpt><trkpt lat="34.9693194" lon="32.8254804"><ele>1127.7</ele><time>2015-04-29T17:29:15.0000000+00:00</time></trkpt><trkpt lat="34.9692664" lon="32.8255502"><ele>1127.2</ele><time>2015-04-29T17:29:17.0000000+00:00</time></trkpt><trkpt lat="34.9692165" lon="32.8256138"><ele>1126.1</ele><time>2015-04-29T17:29:19.0000000+00:00</time></trkpt><trkpt lat="34.9691622" lon="32.825684"><ele>1125.9</ele><time>2015-04-29T17:29:21.0000000+00:00</time></trkpt><trkpt lat="34.9691078" lon="32.8257709"><ele>1125.8</ele><time>2015-04-29T17:29:23.0000000+00:00</time></trkpt><trkpt lat="34.9690688" lon="32.8258556"><ele>1125.8</ele><time>2015-04-29T17:29:24.0000000+00:00</time></trkpt><trkpt lat="34.9690472" lon="32.8259118"><ele>1125.8</ele><time>2015-04-29T17:29:25.0000000+00:00</time></trkpt><trkpt lat="34.9690307" lon="32.8259738"><ele>1125.8</ele><time>2015-04-29T17:29:26.0000000+00:00</time></trkpt><trkpt lat="34.9690143" lon="32.8260373"><ele>1125.8</ele><time>2015-04-29T17:29:27.0000000+00:00</time></trkpt><trkpt lat="34.9690031" lon="32.8260961"><ele>1126.3</ele><time>2015-04-29T17:29:28.0000000+00:00</time></trkpt><trkpt lat="34.9689846" lon="32.8261494"><ele>1126.5</ele><time>2015-04-29T17:29:29.0000000+00:00</time></trkpt><trkpt lat="34.9689631" lon="32.8262255"><ele>1126.2</ele><time>2015-04-29T17:29:31.0000000+00:00</time></trkpt><trkpt lat="34.9689181" lon="32.8262494"><ele>1125.0</ele><time>2015-04-29T17:29:32.0000000+00:00</time></trkpt><trkpt lat="34.9688502" lon="32.826309"><ele>1122.8</ele><time>2015-04-29T17:29:34.0000000+00:00</time></trkpt><trkpt lat="34.9688159" lon="32.8263457"><ele>1121.8</ele><time>2015-04-29T17:29:35.0000000+00:00</time></trkpt><trkpt lat="34.9687863" lon="32.8263937"><ele>1121.3</ele><time>2015-04-29T17:29:36.0000000+00:00</time></trkpt><trkpt lat="34.9687313" lon="32.8264501"><ele>1120.1</ele><time>2015-04-29T17:29:38.0000000+00:00</time></trkpt><trkpt lat="34.9687032" lon="32.8265178"><ele>1121.1</ele><time>2015-04-29T17:29:40.0000000+00:00</time></trkpt><trkpt lat="34.9686488" lon="32.8265215"><ele>1120.1</ele><time>2015-04-29T17:29:42.0000000+00:00</time></trkpt><trkpt lat="34.9685994" lon="32.8265594"><ele>1118.3</ele><time>2015-04-29T17:29:44.0000000+00:00</time></trkpt><trkpt lat="34.9685449" lon="32.826607"><ele>1118.4</ele><time>2015-04-29T17:29:46.0000000+00:00</time></trkpt><trkpt lat="34.9684844" lon="32.8266661"><ele>1118.4</ele><time>2015-04-29T17:29:48.0000000+00:00</time></trkpt><trkpt lat="34.9684508" lon="32.8267378"><ele>1115.2</ele><time>2015-04-29T17:29:50.0000000+00:00</time></trkpt><trkpt lat="34.9684528" lon="32.8268314"><ele>1113.1</ele><time>2015-04-29T17:29:52.0000000+00:00</time></trkpt><trkpt lat="34.9684732" lon="32.8270055"><ele>1111.6</ele><time>2015-04-29T17:29:54.0000000+00:00</time></trkpt><trkpt lat="34.9684913" lon="32.8270939"><ele>1111.2</ele><time>2015-04-29T17:29:55.0000000+00:00</time></trkpt><trkpt lat="34.9684908" lon="32.8271608"><ele>1111.0</ele><time>2015-04-29T17:29:56.0000000+00:00</time></trkpt><trkpt lat="34.9685113" lon="32.8272342"><ele>1110.9</ele><time>2015-04-29T17:29:57.0000000+00:00</time></trkpt><trkpt lat="34.9685241" lon="32.8273028"><ele>1110.3</ele><time>2015-04-29T17:29:58.0000000+00:00</time></trkpt><trkpt lat="34.9685437" lon="32.8273605"><ele>1109.5</ele><time>2015-04-29T17:29:59.0000000+00:00</time></trkpt><trkpt lat="34.9685708" lon="32.8274336"><ele>1109.7</ele><time>2015-04-29T17:30:00.0000000+00:00</time></trkpt><trkpt lat="34.9685834" lon="32.8274913"><ele>1109.2</ele><time>2015-04-29T17:30:01.0000000+00:00</time></trkpt><trkpt lat="34.9685823" lon="32.8275559"><ele>1108.5</ele><time>2015-04-29T17:30:02.0000000+00:00</time></trkpt><trkpt lat="34.9686087" lon="32.8276079"><ele>1108.1</ele><time>2015-04-29T17:30:03.0000000+00:00</time></trkpt><trkpt lat="34.9686025" lon="32.8277004"><ele>1109.6</ele><time>2015-04-29T17:30:05.0000000+00:00</time></trkpt><trkpt lat="34.968606" lon="32.8277688"><ele>1109.7</ele><time>2015-04-29T17:30:07.0000000+00:00</time></trkpt><trkpt lat="34.968577" lon="32.827828"><ele>1111.3</ele><time>2015-04-29T17:30:09.0000000+00:00</time></trkpt><trkpt lat="34.9685211" lon="32.8278507"><ele>1110.6</ele><time>2015-04-29T17:30:11.0000000+00:00</time></trkpt><trkpt lat="34.9684793" lon="32.827891"><ele>1108.5</ele><time>2015-04-29T17:30:13.0000000+00:00</time></trkpt><trkpt lat="34.9684335" lon="32.8279387"><ele>1105.9</ele><time>2015-04-29T17:30:15.0000000+00:00</time></trkpt><trkpt lat="34.9683897" lon="32.827986"><ele>1105.8</ele><time>2015-04-29T17:30:17.0000000+00:00</time></trkpt><trkpt lat="34.9683418" lon="32.8280036"><ele>1107.0</ele><time>2015-04-29T17:30:19.0000000+00:00</time></trkpt><trkpt lat="34.968294" lon="32.8279952"><ele>1106.8</ele><time>2015-04-29T17:30:21.0000000+00:00</time></trkpt><trkpt lat="34.9682297" lon="32.8279703"><ele>1110.1</ele><time>2015-04-29T17:30:24.0000000+00:00</time></trkpt><trkpt lat="34.9681726" lon="32.8279334"><ele>1110.7</ele><time>2015-04-29T17:30:27.0000000+00:00</time></trkpt><trkpt lat="34.968117" lon="32.8279038"><ele>1112.0</ele><time>2015-04-29T17:30:30.0000000+00:00</time></trkpt><trkpt lat="34.9680633" lon="32.8278806"><ele>1112.8</ele><time>2015-04-29T17:30:36.0000000+00:00</time></trkpt><trkpt lat="34.9680256" lon="32.8278486"><ele>1112.8</ele><time>2015-04-29T17:30:38.0000000+00:00</time></trkpt><trkpt lat="34.9679764" lon="32.8278123"><ele>1112.8</ele><time>2015-04-29T17:30:40.0000000+00:00</time></trkpt><trkpt lat="34.9679226" lon="32.8277795"><ele>1114.3</ele><time>2015-04-29T17:30:42.0000000+00:00</time></trkpt><trkpt lat="34.9678626" lon="32.8277572"><ele>1114.6</ele><time>2015-04-29T17:30:44.0000000+00:00</time></trkpt><trkpt lat="34.9678127" lon="32.8277266"><ele>1115.0</ele><time>2015-04-29T17:30:46.0000000+00:00</time></trkpt><trkpt lat="34.967778" lon="32.8276821"><ele>1115.3</ele><time>2015-04-29T17:30:48.0000000+00:00</time></trkpt><trkpt lat="34.9677431" lon="32.8276288"><ele>1113.6</ele><time>2015-04-29T17:30:51.0000000+00:00</time></trkpt><trkpt lat="34.967714" lon="32.8275815"><ele>1113.0</ele><time>2015-04-29T17:30:54.0000000+00:00</time></trkpt></trkseg><trkseg><trkpt lat="34.9674327" lon="32.8275817"><ele>1147.8</ele><time>2015-04-30T07:00:25.0000000+00:00</time></trkpt><trkpt lat="34.9674791" lon="32.8275542"><ele>1143.8</ele><time>2015-04-30T07:00:26.0000000+00:00</time></trkpt><trkpt lat="34.9675771" lon="32.8275279"><ele>1135.0</ele><time>2015-04-30T07:00:28.0000000+00:00</time></trkpt><trkpt lat="34.967522" lon="32.8275566"><ele>1136.9</ele><time>2015-04-30T07:00:29.0000000+00:00</time></trkpt><trkpt lat="34.9674777" lon="32.8275384"><ele>1136.5</ele><time>2015-04-30T07:00:33.0000000+00:00</time></trkpt><trkpt lat="34.9674361" lon="32.8275607"><ele>1136.7</ele><time>2015-04-30T07:00:39.0000000+00:00</time></trkpt><trkpt lat="34.9674055" lon="32.8275202"><ele>1145.3</ele><time>2015-04-30T07:07:59.0000000+00:00</time></trkpt><trkpt lat="34.9674286" lon="32.8274725"><ele>1145.8</ele><time>2015-04-30T07:08:40.0000000+00:00</time></trkpt><trkpt lat="34.9674762" lon="32.8274413"><ele>1139.0</ele><time>2015-04-30T07:09:35.0000000+00:00</time></trkpt><trkpt lat="34.9674287" lon="32.8274108"><ele>1134.7</ele><time>2015-04-30T07:09:44.0000000+00:00</time></trkpt><trkpt lat="34.9673789" lon="32.8274008"><ele>1131.6</ele><time>2015-04-30T07:09:47.0000000+00:00</time></trkpt><trkpt lat="34.9673226" lon="32.8274031"><ele>1131.7</ele><time>2015-04-30T07:09:50.0000000+00:00</time></trkpt><trkpt lat="34.9672665" lon="32.8273987"><ele>1130.5</ele><time>2015-04-30T07:09:53.0000000+00:00</time></trkpt><trkpt lat="34.9672211" lon="32.8274064"><ele>1129.6</ele><time>2015-04-30T07:09:57.0000000+00:00</time></trkpt><trkpt lat="34.9671766" lon="32.8274166"><ele>1129.0</ele><time>2015-04-30T07:10:01.0000000+00:00</time></trkpt><trkpt lat="34.9671309" lon="32.8274354"><ele>1128.5</ele><time>2015-04-30T07:10:05.0000000+00:00</time></trkpt><trkpt lat="34.9670769" lon="32.8274497"><ele>1127.4</ele><time>2015-04-30T07:10:10.0000000+00:00</time></trkpt><trkpt lat="34.967032" lon="32.8274707"><ele>1127.1</ele><time>2015-04-30T07:10:13.0000000+00:00</time></trkpt><trkpt lat="34.9669875" lon="32.8274909"><ele>1127.9</ele><time>2015-04-30T07:10:16.0000000+00:00</time></trkpt><trkpt lat="34.9669365" lon="32.8275279"><ele>1130.5</ele><time>2015-04-30T07:10:20.0000000+00:00</time></trkpt><trkpt lat="34.9668878" lon="32.8275474"><ele>1129.0</ele><time>2015-04-30T07:10:24.0000000+00:00</time></trkpt><trkpt lat="34.9668446" lon="32.82758"><ele>1129.2</ele><time>2015-04-30T07:10:28.0000000+00:00</time></trkpt><trkpt lat="34.9667941" lon="32.8276172"><ele>1130.6</ele><time>2015-04-30T07:10:32.0000000+00:00</time></trkpt><trkpt lat="34.9667473" lon="32.8276447"><ele>1133.0</ele><time>2015-04-30T07:10:35.0000000+00:00</time></trkpt><trkpt lat="34.9666961" lon="32.8276757"><ele>1132.5</ele><time>2015-04-30T07:10:39.0000000+00:00</time></trkpt><trkpt lat="34.9666582" lon="32.8277181"><ele>1132.7</ele><time>2015-04-30T07:10:43.0000000+00:00</time></trkpt><trkpt lat="34.9666328" lon="32.8277682"><ele>1131.8</ele><time>2015-04-30T07:10:48.0000000+00:00</time></trkpt><trkpt lat="34.9665945" lon="32.8278018"><ele>1130.0</ele><time>2015-04-30T07:10:54.0000000+00:00</time></trkpt><trkpt lat="34.9665631" lon="32.8278447"><ele>1131.3</ele><time>2015-04-30T07:10:58.0000000+00:00</time></trkpt><trkpt lat="34.9665226" lon="32.8278799"><ele>1132.2</ele><time>2015-04-30T07:11:02.0000000+00:00</time></trkpt><trkpt lat="34.9664851" lon="32.8279171"><ele>1134.4</ele><time>2015-04-30T07:11:06.0000000+00:00</time></trkpt><trkpt lat="34.9664398" lon="32.8279442"><ele>1136.2</ele><time>2015-04-30T07:11:10.0000000+00:00</time></trkpt><trkpt lat="34.9663956" lon="32.827956"><ele>1135.1</ele><time>2015-04-30T07:11:13.0000000+00:00</time></trkpt><trkpt lat="34.9663426" lon="32.8279805"><ele>1133.9</ele><time>2015-04-30T07:11:17.0000000+00:00</time></trkpt><trkpt lat="34.9662938" lon="32.8280034"><ele>1134.2</ele><time>2015-04-30T07:11:21.0000000+00:00</time></trkpt><trkpt lat="34.9662481" lon="32.8280369"><ele>1134.5</ele><time>2015-04-30T07:11:25.0000000+00:00</time></trkpt><trkpt lat="34.9662114" lon="32.8280694"><ele>1135.1</ele><time>2015-04-30T07:11:28.0000000+00:00</time></trkpt><trkpt lat="34.9661571" lon="32.8280986"><ele>1135.2</ele><time>2015-04-30T07:11:32.0000000+00:00</time></trkpt><trkpt lat="34.9661144" lon="32.8281215"><ele>1136.9</ele><time>2015-04-30T07:11:35.0000000+00:00</time></trkpt><trkpt lat="34.9660639" lon="32.8281552"><ele>1136.2</ele><time>2015-04-30T07:11:39.0000000+00:00</time></trkpt><trkpt lat="34.9660212" lon="32.8282061"><ele>1137.6</ele><time>2015-04-30T07:11:43.0000000+00:00</time></trkpt><trkpt lat="34.965969" lon="32.8282425"><ele>1139.2</ele><time>2015-04-30T07:11:47.0000000+00:00</time></trkpt><trkpt lat="34.9659251" lon="32.8282718"><ele>1138.1</ele><time>2015-04-30T07:11:50.0000000+00:00</time></trkpt><trkpt lat="34.9658849" lon="32.8283024"><ele>1137.8</ele><time>2015-04-30T07:11:53.0000000+00:00</time></trkpt><trkpt lat="34.9658445" lon="32.8283291"><ele>1136.9</ele><time>2015-04-30T07:11:56.0000000+00:00</time></trkpt><trkpt lat="34.9658049" lon="32.8283634"><ele>1137.5</ele><time>2015-04-30T07:11:59.0000000+00:00</time></trkpt><trkpt lat="34.9657673" lon="32.8283943"><ele>1137.7</ele><time>2015-04-30T07:12:02.0000000+00:00</time></trkpt><trkpt lat="34.9657346" lon="32.8284435"><ele>1136.8</ele><time>2015-04-30T07:12:06.0000000+00:00</time></trkpt><trkpt lat="34.9656964" lon="32.8284743"><ele>1138.4</ele><time>2015-04-30T07:12:10.0000000+00:00</time></trkpt><trkpt lat="34.9656543" lon="32.8285114"><ele>1139.8</ele><time>2015-04-30T07:12:14.0000000+00:00</time></trkpt><trkpt lat="34.965618" lon="32.8285539"><ele>1140.5</ele><time>2015-04-30T07:12:18.0000000+00:00</time></trkpt><trkpt lat="34.9655793" lon="32.8286"><ele>1140.1</ele><time>2015-04-30T07:12:22.0000000+00:00</time></trkpt><trkpt lat="34.9655445" lon="32.8286492"><ele>1139.0</ele><time>2015-04-30T07:12:26.0000000+00:00</time></trkpt><trkpt lat="34.965507" lon="32.8286901"><ele>1139.5</ele><time>2015-04-30T07:12:30.0000000+00:00</time></trkpt><trkpt lat="34.9654676" lon="32.8287299"><ele>1140.2</ele><time>2015-04-30T07:12:34.0000000+00:00</time></trkpt><trkpt lat="34.9654218" lon="32.8287564"><ele>1139.8</ele><time>2015-04-30T07:12:38.0000000+00:00</time></trkpt><trkpt lat="34.9653812" lon="32.8287847"><ele>1139.8</ele><time>2015-04-30T07:12:42.0000000+00:00</time></trkpt><trkpt lat="34.96534" lon="32.828807"><ele>1140.2</ele><time>2015-04-30T07:12:46.0000000+00:00</time></trkpt><trkpt lat="34.9652903" lon="32.8288345"><ele>1139.8</ele><time>2015-04-30T07:12:50.0000000+00:00</time></trkpt><trkpt lat="34.9652487" lon="32.8288629"><ele>1139.8</ele><time>2015-04-30T07:12:53.0000000+00:00</time></trkpt><trkpt lat="34.9652094" lon="32.8288952"><ele>1139.0</ele><time>2015-04-30T07:12:56.0000000+00:00</time></trkpt><trkpt lat="34.9651724" lon="32.8289307"><ele>1137.9</ele><time>2015-04-30T07:12:59.0000000+00:00</time></trkpt><trkpt lat="34.9651357" lon="32.8289668"><ele>1137.3</ele><time>2015-04-30T07:13:02.0000000+00:00</time></trkpt><trkpt lat="34.9650969" lon="32.8290008"><ele>1138.1</ele><time>2015-04-30T07:13:05.0000000+00:00</time></trkpt><trkpt lat="34.9650573" lon="32.8290468"><ele>1139.5</ele><time>2015-04-30T07:13:09.0000000+00:00</time></trkpt><trkpt lat="34.9650198" lon="32.8290811"><ele>1140.7</ele><time>2015-04-30T07:13:13.0000000+00:00</time></trkpt><trkpt lat="34.9649678" lon="32.8291091"><ele>1143.4</ele><time>2015-04-30T07:13:18.0000000+00:00</time></trkpt><trkpt lat="34.9649195" lon="32.8291278"><ele>1144.4</ele><time>2015-04-30T07:13:22.0000000+00:00</time></trkpt><trkpt lat="34.9648727" lon="32.8291446"><ele>1145.2</ele><time>2015-04-30T07:13:25.0000000+00:00</time></trkpt><trkpt lat="34.9648183" lon="32.8291567"><ele>1143.7</ele><time>2015-04-30T07:13:28.0000000+00:00</time></trkpt><trkpt lat="34.964766" lon="32.829149"><ele>1142.5</ele><time>2015-04-30T07:13:31.0000000+00:00</time></trkpt><trkpt lat="34.9647232" lon="32.8291269"><ele>1140.5</ele><time>2015-04-30T07:13:34.0000000+00:00</time></trkpt><trkpt lat="34.9646845" lon="32.8290934"><ele>1138.2</ele><time>2015-04-30T07:13:38.0000000+00:00</time></trkpt><trkpt lat="34.9646342" lon="32.8290859"><ele>1138.7</ele><time>2015-04-30T07:13:44.0000000+00:00</time></trkpt><trkpt lat="34.9645917" lon="32.8290587"><ele>1138.6</ele><time>2015-04-30T07:13:47.0000000+00:00</time></trkpt><trkpt lat="34.9645385" lon="32.8290371"><ele>1140.1</ele><time>2015-04-30T07:13:50.0000000+00:00</time></trkpt><trkpt lat="34.9644875" lon="32.8290132"><ele>1143.2</ele><time>2015-04-30T07:13:54.0000000+00:00</time></trkpt><trkpt lat="34.9644452" lon="32.8289911"><ele>1140.6</ele><time>2015-04-30T07:13:58.0000000+00:00</time></trkpt><trkpt lat="34.9643865" lon="32.8289749"><ele>1140.8</ele><time>2015-04-30T07:14:02.0000000+00:00</time></trkpt><trkpt lat="34.9643349" lon="32.8289585"><ele>1140.6</ele><time>2015-04-30T07:14:05.0000000+00:00</time></trkpt><trkpt lat="34.9642765" lon="32.8289493"><ele>1141.9</ele><time>2015-04-30T07:14:08.0000000+00:00</time></trkpt><trkpt lat="34.9642216" lon="32.8289581"><ele>1144.4</ele><time>2015-04-30T07:14:11.0000000+00:00</time></trkpt><trkpt lat="34.9641634" lon="32.8289695"><ele>1146.8</ele><time>2015-04-30T07:14:14.0000000+00:00</time></trkpt><trkpt lat="34.9641129" lon="32.8289774"><ele>1147.7</ele><time>2015-04-30T07:14:17.0000000+00:00</time></trkpt><trkpt lat="34.9640664" lon="32.8289779"><ele>1148.1</ele><time>2015-04-30T07:14:20.0000000+00:00</time></trkpt><trkpt lat="34.9640112" lon="32.8289746"><ele>1148.7</ele><time>2015-04-30T07:14:24.0000000+00:00</time></trkpt><trkpt lat="34.9639607" lon="32.8289699"><ele>1147.4</ele><time>2015-04-30T07:14:28.0000000+00:00</time></trkpt><trkpt lat="34.9639096" lon="32.8289724"><ele>1146.3</ele><time>2015-04-30T07:14:32.0000000+00:00</time></trkpt><trkpt lat="34.9638615" lon="32.8289598"><ele>1142.8</ele><time>2015-04-30T07:14:35.0000000+00:00</time></trkpt><trkpt lat="34.9638069" lon="32.828942"><ele>1140.4</ele><time>2015-04-30T07:14:39.0000000+00:00</time></trkpt><trkpt lat="34.9637562" lon="32.8289374"><ele>1139.8</ele><time>2015-04-30T07:14:42.0000000+00:00</time></trkpt><trkpt lat="34.9637041" lon="32.8289515"><ele>1141.1</ele><time>2015-04-30T07:14:45.0000000+00:00</time></trkpt><trkpt lat="34.9636548" lon="32.8289552"><ele>1142.6</ele><time>2015-04-30T07:14:48.0000000+00:00</time></trkpt><trkpt lat="34.9636048" lon="32.828954"><ele>1144.1</ele><time>2015-04-30T07:14:51.0000000+00:00</time></trkpt><trkpt lat="34.9635552" lon="32.8289475"><ele>1146.3</ele><time>2015-04-30T07:14:54.0000000+00:00</time></trkpt><trkpt lat="34.963506" lon="32.8289391"><ele>1148.8</ele><time>2015-04-30T07:14:58.0000000+00:00</time></trkpt><trkpt lat="34.963444" lon="32.828944"><ele>1150.0</ele><time>2015-04-30T07:15:02.0000000+00:00</time></trkpt><trkpt lat="34.963392" lon="32.8289333"><ele>1150.8</ele><time>2015-04-30T07:15:05.0000000+00:00</time></trkpt><trkpt lat="34.9633442" lon="32.8289414"><ele>1154.3</ele><time>2015-04-30T07:15:08.0000000+00:00</time></trkpt><trkpt lat="34.9632946" lon="32.8289522"><ele>1155.0</ele><time>2015-04-30T07:15:11.0000000+00:00</time></trkpt><trkpt lat="34.9632387" lon="32.8289545"><ele>1153.3</ele><time>2015-04-30T07:15:14.0000000+00:00</time></trkpt><trkpt lat="34.9631734" lon="32.8289472"><ele>1151.1</ele><time>2015-04-30T07:15:17.0000000+00:00</time></trkpt><trkpt lat="34.9631285" lon="32.8289532"><ele>1150.8</ele><time>2015-04-30T07:15:19.0000000+00:00</time></trkpt><trkpt lat="34.9630831" lon="32.8289622"><ele>1151.5</ele><time>2015-04-30T07:15:21.0000000+00:00</time></trkpt><trkpt lat="34.9630213" lon="32.8289658"><ele>1151.9</ele><time>2015-04-30T07:15:24.0000000+00:00</time></trkpt><trkpt lat="34.9629734" lon="32.8289674"><ele>1151.0</ele><time>2015-04-30T07:15:26.0000000+00:00</time></trkpt><trkpt lat="34.9629208" lon="32.8289592"><ele>1149.5</ele><time>2015-04-30T07:15:29.0000000+00:00</time></trkpt><trkpt lat="34.9628557" lon="32.828946"><ele>1148.9</ele><time>2015-04-30T07:15:32.0000000+00:00</time></trkpt><trkpt lat="34.9628121" lon="32.8289225"><ele>1149.7</ele><time>2015-04-30T07:15:35.0000000+00:00</time></trkpt><trkpt lat="34.9627658" lon="32.828905"><ele>1149.9</ele><time>2015-04-30T07:15:38.0000000+00:00</time></trkpt><trkpt lat="34.9627082" lon="32.8288863"><ele>1152.1</ele><time>2015-04-30T07:15:42.0000000+00:00</time></trkpt><trkpt lat="34.9626454" lon="32.828882"><ele>1153.7</ele><time>2015-04-30T07:15:45.0000000+00:00</time></trkpt><trkpt lat="34.96258" lon="32.8288819"><ele>1155.1</ele><time>2015-04-30T07:15:48.0000000+00:00</time></trkpt><trkpt lat="34.9625251" lon="32.828882"><ele>1157.8</ele><time>2015-04-30T07:15:51.0000000+00:00</time></trkpt><trkpt lat="34.9624768" lon="32.8288944"><ele>1160.9</ele><time>2015-04-30T07:15:54.0000000+00:00</time></trkpt><trkpt lat="34.962429" lon="32.8289127"><ele>1161.3</ele><time>2015-04-30T07:15:57.0000000+00:00</time></trkpt><trkpt lat="34.9623787" lon="32.8289207"><ele>1162.2</ele><time>2015-04-30T07:16:00.0000000+00:00</time></trkpt><trkpt lat="34.9623228" lon="32.828938"><ele>1163.3</ele><time>2015-04-30T07:16:03.0000000+00:00</time></trkpt><trkpt lat="34.9622656" lon="32.8289464"><ele>1163.7</ele><time>2015-04-30T07:16:06.0000000+00:00</time></trkpt><trkpt lat="34.9622111" lon="32.8289482"><ele>1162.6</ele><time>2015-04-30T07:16:09.0000000+00:00</time></trkpt><trkpt lat="34.9621616" lon="32.8289573"><ele>1162.1</ele><time>2015-04-30T07:16:12.0000000+00:00</time></trkpt><trkpt lat="34.9621156" lon="32.8289591"><ele>1162.3</ele><time>2015-04-30T07:16:15.0000000+00:00</time></trkpt><trkpt lat="34.9620662" lon="32.8289647"><ele>1161.8</ele><time>2015-04-30T07:16:18.0000000+00:00</time></trkpt><trkpt lat="34.9620153" lon="32.8289741"><ele>1162.6</ele><time>2015-04-30T07:16:21.0000000+00:00</time></trkpt><trkpt lat="34.9619615" lon="32.8289825"><ele>1162.8</ele><time>2015-04-30T07:16:24.0000000+00:00</time></trkpt><trkpt lat="34.9619122" lon="32.828995"><ele>1163.6</ele><time>2015-04-30T07:16:27.0000000+00:00</time></trkpt><trkpt lat="34.9618598" lon="32.828996"><ele>1163.7</ele><time>2015-04-30T07:16:30.0000000+00:00</time></trkpt><trkpt lat="34.9618122" lon="32.8290044"><ele>1164.5</ele><time>2015-04-30T07:16:33.0000000+00:00</time></trkpt><trkpt lat="34.9617526" lon="32.8290115"><ele>1165.3</ele><time>2015-04-30T07:16:37.0000000+00:00</time></trkpt><trkpt lat="34.9617064" lon="32.8289994"><ele>1166.1</ele><time>2015-04-30T07:16:40.0000000+00:00</time></trkpt><trkpt lat="34.9616647" lon="32.8289685"><ele>1166.3</ele><time>2015-04-30T07:16:43.0000000+00:00</time></trkpt><trkpt lat="34.961634" lon="32.8289232"><ele>1167.2</ele><time>2015-04-30T07:16:46.0000000+00:00</time></trkpt><trkpt lat="34.9616139" lon="32.8288699"><ele>1168.4</ele><time>2015-04-30T07:16:49.0000000+00:00</time></trkpt><trkpt lat="34.96163" lon="32.8288023"><ele>1169.6</ele><time>2015-04-30T07:16:53.0000000+00:00</time></trkpt><trkpt lat="34.9616637" lon="32.828763"><ele>1169.8</ele><time>2015-04-30T07:16:57.0000000+00:00</time></trkpt><trkpt lat="34.9617197" lon="32.8287565"><ele>1171.7</ele><time>2015-04-30T07:17:01.0000000+00:00</time></trkpt><trkpt lat="34.9617708" lon="32.8287552"><ele>1171.1</ele><time>2015-04-30T07:17:05.0000000+00:00</time></trkpt><trkpt lat="34.9618151" lon="32.8287755"><ele>1170.9</ele><time>2015-04-30T07:17:08.0000000+00:00</time></trkpt><trkpt lat="34.961868" lon="32.828784"><ele>1168.8</ele><time>2015-04-30T07:17:11.0000000+00:00</time></trkpt><trkpt lat="34.9619159" lon="32.8287947"><ele>1167.4</ele><time>2015-04-30T07:17:14.0000000+00:00</time></trkpt><trkpt lat="34.961971" lon="32.8288112"><ele>1169.1</ele><time>2015-04-30T07:17:18.0000000+00:00</time></trkpt><trkpt lat="34.9620217" lon="32.8287974"><ele>1169.7</ele><time>2015-04-30T07:17:22.0000000+00:00</time></trkpt><trkpt lat="34.9620745" lon="32.828766"><ele>1173.5</ele><time>2015-04-30T07:17:27.0000000+00:00</time></trkpt><trkpt lat="34.9621171" lon="32.8287378"><ele>1175.7</ele><time>2015-04-30T07:17:30.0000000+00:00</time></trkpt><trkpt lat="34.9621605" lon="32.828689"><ele>1173.6</ele><time>2015-04-30T07:17:33.0000000+00:00</time></trkpt><trkpt lat="34.9622019" lon="32.8286446"><ele>1174.6</ele><time>2015-04-30T07:17:36.0000000+00:00</time></trkpt><trkpt lat="34.9622502" lon="32.8285969"><ele>1174.0</ele><time>2015-04-30T07:17:39.0000000+00:00</time></trkpt><trkpt lat="34.9622942" lon="32.8285607"><ele>1175.0</ele><time>2015-04-30T07:17:42.0000000+00:00</time></trkpt><trkpt lat="34.9623407" lon="32.8285314"><ele>1172.3</ele><time>2015-04-30T07:17:45.0000000+00:00</time></trkpt><trkpt lat="34.9623957" lon="32.8285027"><ele>1172.7</ele><time>2015-04-30T07:17:49.0000000+00:00</time></trkpt><trkpt lat="34.9624459" lon="32.828498"><ele>1173.5</ele><time>2015-04-30T07:17:52.0000000+00:00</time></trkpt><trkpt lat="34.9624957" lon="32.8284887"><ele>1173.0</ele><time>2015-04-30T07:17:55.0000000+00:00</time></trkpt><trkpt lat="34.9625516" lon="32.8284799"><ele>1173.3</ele><time>2015-04-30T07:17:58.0000000+00:00</time></trkpt><trkpt lat="34.9626099" lon="32.8284851"><ele>1173.7</ele><time>2015-04-30T07:18:01.0000000+00:00</time></trkpt><trkpt lat="34.962669" lon="32.8284891"><ele>1172.8</ele><time>2015-04-30T07:18:04.0000000+00:00</time></trkpt><trkpt lat="34.9627251" lon="32.8285076"><ele>1171.3</ele><time>2015-04-30T07:18:07.0000000+00:00</time></trkpt><trkpt lat="34.9627754" lon="32.8284958"><ele>1171.4</ele><time>2015-04-30T07:18:09.0000000+00:00</time></trkpt><trkpt lat="34.9628263" lon="32.8284894"><ele>1171.7</ele><time>2015-04-30T07:18:11.0000000+00:00</time></trkpt><trkpt lat="34.9628731" lon="32.8284907"><ele>1172.2</ele><time>2015-04-30T07:18:13.0000000+00:00</time></trkpt><trkpt lat="34.9629243" lon="32.8285025"><ele>1172.6</ele><time>2015-04-30T07:18:16.0000000+00:00</time></trkpt><trkpt lat="34.9629753" lon="32.8285059"><ele>1175.9</ele><time>2015-04-30T07:18:19.0000000+00:00</time></trkpt><trkpt lat="34.9630242" lon="32.8285091"><ele>1180.0</ele><time>2015-04-30T07:18:22.0000000+00:00</time></trkpt><trkpt lat="34.963093" lon="32.828497"><ele>1179.2</ele><time>2015-04-30T07:18:25.0000000+00:00</time></trkpt><trkpt lat="34.9631447" lon="32.8284845"><ele>1177.9</ele><time>2015-04-30T07:18:27.0000000+00:00</time></trkpt><trkpt lat="34.9632178" lon="32.8284632"><ele>1177.0</ele><time>2015-04-30T07:18:30.0000000+00:00</time></trkpt><trkpt lat="34.9632754" lon="32.8284529"><ele>1176.8</ele><time>2015-04-30T07:18:32.0000000+00:00</time></trkpt><trkpt lat="34.9633217" lon="32.828444"><ele>1178.0</ele><time>2015-04-30T07:18:34.0000000+00:00</time></trkpt><trkpt lat="34.963381" lon="32.828425"><ele>1178.6</ele><time>2015-04-30T07:18:36.0000000+00:00</time></trkpt><trkpt lat="34.9634262" lon="32.8284135"><ele>1178.7</ele><time>2015-04-30T07:18:38.0000000+00:00</time></trkpt><trkpt lat="34.9634708" lon="32.8284023"><ele>1179.0</ele><time>2015-04-30T07:18:40.0000000+00:00</time></trkpt><trkpt lat="34.9635283" lon="32.8283896"><ele>1179.2</ele><time>2015-04-30T07:18:43.0000000+00:00</time></trkpt><trkpt lat="34.9635902" lon="32.8283748"><ele>1180.4</ele><time>2015-04-30T07:18:46.0000000+00:00</time></trkpt><trkpt lat="34.9636359" lon="32.8283708"><ele>1180.7</ele><time>2015-04-30T07:18:48.0000000+00:00</time></trkpt><trkpt lat="34.9636837" lon="32.8283671"><ele>1180.7</ele><time>2015-04-30T07:18:50.0000000+00:00</time></trkpt><trkpt lat="34.9637382" lon="32.828369"><ele>1178.5</ele><time>2015-04-30T07:18:53.0000000+00:00</time></trkpt><trkpt lat="34.963785" lon="32.828368"><ele>1176.6</ele><time>2015-04-30T07:18:56.0000000+00:00</time></trkpt><trkpt lat="34.9638335" lon="32.8283606"><ele>1176.7</ele><time>2015-04-30T07:18:59.0000000+00:00</time></trkpt><trkpt lat="34.9638884" lon="32.8283397"><ele>1179.0</ele><time>2015-04-30T07:19:03.0000000+00:00</time></trkpt><trkpt lat="34.9638888" lon="32.8282836"><ele>1177.9</ele><time>2015-04-30T07:19:06.0000000+00:00</time></trkpt><trkpt lat="34.9638466" lon="32.8282505"><ele>1178.9</ele><time>2015-04-30T07:19:09.0000000+00:00</time></trkpt><trkpt lat="34.963799" lon="32.8282386"><ele>1178.9</ele><time>2015-04-30T07:19:12.0000000+00:00</time></trkpt><trkpt lat="34.9637534" lon="32.8282395"><ele>1178.7</ele><time>2015-04-30T07:19:15.0000000+00:00</time></trkpt><trkpt lat="34.9637031" lon="32.8282471"><ele>1179.9</ele><time>2015-04-30T07:19:18.0000000+00:00</time></trkpt><trkpt lat="34.9636543" lon="32.8282442"><ele>1179.5</ele><time>2015-04-30T07:19:21.0000000+00:00</time></trkpt><trkpt lat="34.9636014" lon="32.8282488"><ele>1180.1</ele><time>2015-04-30T07:19:24.0000000+00:00</time></trkpt><trkpt lat="34.9635506" lon="32.8282499"><ele>1180.6</ele><time>2015-04-30T07:19:27.0000000+00:00</time></trkpt><trkpt lat="34.9634974" lon="32.8282626"><ele>1182.1</ele><time>2015-04-30T07:19:30.0000000+00:00</time></trkpt><trkpt lat="34.9634426" lon="32.8282788"><ele>1183.8</ele><time>2015-04-30T07:19:33.0000000+00:00</time></trkpt><trkpt lat="34.963389" lon="32.8282818"><ele>1184.0</ele><time>2015-04-30T07:19:36.0000000+00:00</time></trkpt><trkpt lat="34.9633352" lon="32.8282838"><ele>1184.5</ele><time>2015-04-30T07:19:39.0000000+00:00</time></trkpt><trkpt lat="34.9632802" lon="32.8282885"><ele>1185.6</ele><time>2015-04-30T07:19:42.0000000+00:00</time></trkpt><trkpt lat="34.9632282" lon="32.8282917"><ele>1186.5</ele><time>2015-04-30T07:19:45.0000000+00:00</time></trkpt><trkpt lat="34.9631821" lon="32.8282808"><ele>1186.0</ele><time>2015-04-30T07:19:48.0000000+00:00</time></trkpt><trkpt lat="34.9631374" lon="32.8282633"><ele>1185.4</ele><time>2015-04-30T07:19:51.0000000+00:00</time></trkpt><trkpt lat="34.9630854" lon="32.8282542"><ele>1186.1</ele><time>2015-04-30T07:19:54.0000000+00:00</time></trkpt><trkpt lat="34.9630311" lon="32.8282291"><ele>1185.9</ele><time>2015-04-30T07:19:57.0000000+00:00</time></trkpt><trkpt lat="34.9629766" lon="32.8282106"><ele>1186.5</ele><time>2015-04-30T07:20:00.0000000+00:00</time></trkpt><trkpt lat="34.9629219" lon="32.8281931"><ele>1187.5</ele><time>2015-04-30T07:20:03.0000000+00:00</time></trkpt><trkpt lat="34.9628664" lon="32.8281718"><ele>1188.5</ele><time>2015-04-30T07:20:06.0000000+00:00</time></trkpt><trkpt lat="34.9628162" lon="32.8281494"><ele>1187.9</ele><time>2015-04-30T07:20:09.0000000+00:00</time></trkpt><trkpt lat="34.9627698" lon="32.8281203"><ele>1187.9</ele><time>2015-04-30T07:20:12.0000000+00:00</time></trkpt><trkpt lat="34.9627203" lon="32.8280928"><ele>1189.6</ele><time>2015-04-30T07:20:16.0000000+00:00</time></trkpt><trkpt lat="34.9626784" lon="32.8280662"><ele>1188.9</ele><time>2015-04-30T07:20:21.0000000+00:00</time></trkpt><trkpt lat="34.9626278" lon="32.8280675"><ele>1190.5</ele><time>2015-04-30T07:20:25.0000000+00:00</time></trkpt><trkpt lat="34.9625731" lon="32.8280576"><ele>1191.6</ele><time>2015-04-30T07:20:29.0000000+00:00</time></trkpt><trkpt lat="34.9625276" lon="32.8280404"><ele>1192.2</ele><time>2015-04-30T07:20:32.0000000+00:00</time></trkpt><trkpt lat="34.9624722" lon="32.8280124"><ele>1193.3</ele><time>2015-04-30T07:20:36.0000000+00:00</time></trkpt><trkpt lat="34.9624269" lon="32.827999"><ele>1193.0</ele><time>2015-04-30T07:20:39.0000000+00:00</time></trkpt><trkpt lat="34.9623731" lon="32.8279764"><ele>1189.5</ele><time>2015-04-30T07:20:43.0000000+00:00</time></trkpt><trkpt lat="34.9623142" lon="32.8279596"><ele>1188.7</ele><time>2015-04-30T07:20:47.0000000+00:00</time></trkpt><trkpt lat="34.962263" lon="32.8279531"><ele>1189.4</ele><time>2015-04-30T07:20:50.0000000+00:00</time></trkpt><trkpt lat="34.9622082" lon="32.8279468"><ele>1190.8</ele><time>2015-04-30T07:20:53.0000000+00:00</time></trkpt><trkpt lat="34.9621469" lon="32.8279518"><ele>1194.1</ele><time>2015-04-30T07:20:56.0000000+00:00</time></trkpt><trkpt lat="34.9620917" lon="32.8279556"><ele>1193.6</ele><time>2015-04-30T07:20:59.0000000+00:00</time></trkpt><trkpt lat="34.962035" lon="32.8279718"><ele>1195.5</ele><time>2015-04-30T07:21:02.0000000+00:00</time></trkpt><trkpt lat="34.9619897" lon="32.8279726"><ele>1193.6</ele><time>2015-04-30T07:21:05.0000000+00:00</time></trkpt><trkpt lat="34.9619444" lon="32.8279704"><ele>1193.2</ele><time>2015-04-30T07:21:08.0000000+00:00</time></trkpt><trkpt lat="34.9618897" lon="32.8279802"><ele>1194.5</ele><time>2015-04-30T07:21:12.0000000+00:00</time></trkpt><trkpt lat="34.9618302" lon="32.8279943"><ele>1196.4</ele><time>2015-04-30T07:21:16.0000000+00:00</time></trkpt><trkpt lat="34.961778" lon="32.8279978"><ele>1197.5</ele><time>2015-04-30T07:21:19.0000000+00:00</time></trkpt><trkpt lat="34.9617204" lon="32.8279889"><ele>1198.4</ele><time>2015-04-30T07:21:22.0000000+00:00</time></trkpt><trkpt lat="34.9616687" lon="32.8279792"><ele>1199.5</ele><time>2015-04-30T07:21:25.0000000+00:00</time></trkpt><trkpt lat="34.9616292" lon="32.8279262"><ele>1199.7</ele><time>2015-04-30T07:21:29.0000000+00:00</time></trkpt><trkpt lat="34.9615818" lon="32.8279031"><ele>1198.1</ele><time>2015-04-30T07:21:33.0000000+00:00</time></trkpt><trkpt lat="34.9615371" lon="32.8278755"><ele>1196.8</ele><time>2015-04-30T07:21:37.0000000+00:00</time></trkpt><trkpt lat="34.9614985" lon="32.8278442"><ele>1195.5</ele><time>2015-04-30T07:21:41.0000000+00:00</time></trkpt><trkpt lat="34.9614866" lon="32.827783"><ele>1194.9</ele><time>2015-04-30T07:21:46.0000000+00:00</time></trkpt><trkpt lat="34.9614364" lon="32.8277569"><ele>1194.6</ele><time>2015-04-30T07:21:51.0000000+00:00</time></trkpt><trkpt lat="34.9613885" lon="32.8277362"><ele>1194.2</ele><time>2015-04-30T07:21:54.0000000+00:00</time></trkpt><trkpt lat="34.9613442" lon="32.8277184"><ele>1196.3</ele><time>2015-04-30T07:21:57.0000000+00:00</time></trkpt><trkpt lat="34.9613033" lon="32.8276875"><ele>1197.5</ele><time>2015-04-30T07:22:00.0000000+00:00</time></trkpt><trkpt lat="34.9612608" lon="32.8276554"><ele>1199.6</ele><time>2015-04-30T07:22:03.0000000+00:00</time></trkpt><trkpt lat="34.9612178" lon="32.8276111"><ele>1196.5</ele><time>2015-04-30T07:22:06.0000000+00:00</time></trkpt><trkpt lat="34.9611738" lon="32.8275722"><ele>1198.5</ele><time>2015-04-30T07:22:09.0000000+00:00</time></trkpt><trkpt lat="34.9611262" lon="32.8275551"><ele>1199.9</ele><time>2015-04-30T07:22:11.0000000+00:00</time></trkpt><trkpt lat="34.9610794" lon="32.8275237"><ele>1201.2</ele><time>2015-04-30T07:22:14.0000000+00:00</time></trkpt><trkpt lat="34.9610411" lon="32.8274705"><ele>1202.1</ele><time>2015-04-30T07:22:18.0000000+00:00</time></trkpt><trkpt lat="34.9610414" lon="32.8274007"><ele>1199.0</ele><time>2015-04-30T07:22:22.0000000+00:00</time></trkpt><trkpt lat="34.9610388" lon="32.8273293"><ele>1195.8</ele><time>2015-04-30T07:22:26.0000000+00:00</time></trkpt><trkpt lat="34.961004" lon="32.8272797"><ele>1196.7</ele><time>2015-04-30T07:22:30.0000000+00:00</time></trkpt><trkpt lat="34.960968" lon="32.8272466"><ele>1197.1</ele><time>2015-04-30T07:22:33.0000000+00:00</time></trkpt><trkpt lat="34.9609158" lon="32.8272269"><ele>1197.8</ele><time>2015-04-30T07:22:36.0000000+00:00</time></trkpt><trkpt lat="34.9608532" lon="32.8272003"><ele>1199.4</ele><time>2015-04-30T07:22:39.0000000+00:00</time></trkpt><trkpt lat="34.9607932" lon="32.8271674"><ele>1201.8</ele><time>2015-04-30T07:22:42.0000000+00:00</time></trkpt><trkpt lat="34.960733" lon="32.8271426"><ele>1204.8</ele><time>2015-04-30T07:22:45.0000000+00:00</time></trkpt><trkpt lat="34.9606878" lon="32.8271114"><ele>1205.6</ele><time>2015-04-30T07:22:48.0000000+00:00</time></trkpt><trkpt lat="34.9606391" lon="32.8270847"><ele>1204.7</ele><time>2015-04-30T07:22:51.0000000+00:00</time></trkpt><trkpt lat="34.9605901" lon="32.8270515"><ele>1203.3</ele><time>2015-04-30T07:22:55.0000000+00:00</time></trkpt><trkpt lat="34.9605442" lon="32.8270613"><ele>1205.4</ele><time>2015-04-30T07:22:59.0000000+00:00</time></trkpt><trkpt lat="34.9605019" lon="32.8270902"><ele>1206.5</ele><time>2015-04-30T07:23:02.0000000+00:00</time></trkpt><trkpt lat="34.9604516" lon="32.827103"><ele>1207.2</ele><time>2015-04-30T07:23:05.0000000+00:00</time></trkpt><trkpt lat="34.9604042" lon="32.8271143"><ele>1208.6</ele><time>2015-04-30T07:23:08.0000000+00:00</time></trkpt><trkpt lat="34.9603587" lon="32.8271182"><ele>1209.5</ele><time>2015-04-30T07:23:11.0000000+00:00</time></trkpt><trkpt lat="34.960313" lon="32.8271179"><ele>1211.0</ele><time>2015-04-30T07:23:14.0000000+00:00</time></trkpt><trkpt lat="34.9602657" lon="32.8271115"><ele>1212.4</ele><time>2015-04-30T07:23:17.0000000+00:00</time></trkpt><trkpt lat="34.9602123" lon="32.8271133"><ele>1213.0</ele><time>2015-04-30T07:23:20.0000000+00:00</time></trkpt><trkpt lat="34.960155" lon="32.827119"><ele>1211.3</ele><time>2015-04-30T07:23:23.0000000+00:00</time></trkpt><trkpt lat="34.9601003" lon="32.8271178"><ele>1212.2</ele><time>2015-04-30T07:23:26.0000000+00:00</time></trkpt><trkpt lat="34.9600514" lon="32.8271079"><ele>1214.3</ele><time>2015-04-30T07:23:29.0000000+00:00</time></trkpt><trkpt lat="34.9600061" lon="32.8270928"><ele>1215.5</ele><time>2015-04-30T07:23:32.0000000+00:00</time></trkpt><trkpt lat="34.9599557" lon="32.8270687"><ele>1216.7</ele><time>2015-04-30T07:23:36.0000000+00:00</time></trkpt><trkpt lat="34.959909" lon="32.8270426"><ele>1217.8</ele><time>2015-04-30T07:23:40.0000000+00:00</time></trkpt><trkpt lat="34.9598587" lon="32.8270322"><ele>1217.8</ele><time>2015-04-30T07:23:44.0000000+00:00</time></trkpt><trkpt lat="34.9598115" lon="32.8270258"><ele>1218.1</ele><time>2015-04-30T07:23:48.0000000+00:00</time></trkpt><trkpt lat="34.9597633" lon="32.8270214"><ele>1219.0</ele><time>2015-04-30T07:23:52.0000000+00:00</time></trkpt><trkpt lat="34.9597184" lon="32.8270373"><ele>1220.7</ele><time>2015-04-30T07:23:59.0000000+00:00</time></trkpt><trkpt lat="34.959669" lon="32.8270622"><ele>1220.1</ele><time>2015-04-30T07:24:02.0000000+00:00</time></trkpt><trkpt lat="34.9596309" lon="32.8271007"><ele>1221.9</ele><time>2015-04-30T07:24:05.0000000+00:00</time></trkpt><trkpt lat="34.9596057" lon="32.8271622"><ele>1222.8</ele><time>2015-04-30T07:24:09.0000000+00:00</time></trkpt><trkpt lat="34.959571" lon="32.8272081"><ele>1221.4</ele><time>2015-04-30T07:24:12.0000000+00:00</time></trkpt><trkpt lat="34.9595366" lon="32.8272619"><ele>1219.8</ele><time>2015-04-30T07:24:15.0000000+00:00</time></trkpt><trkpt lat="34.9595168" lon="32.8273228"><ele>1220.0</ele><time>2015-04-30T07:24:18.0000000+00:00</time></trkpt><trkpt lat="34.9595048" lon="32.8273827"><ele>1221.3</ele><time>2015-04-30T07:24:21.0000000+00:00</time></trkpt><trkpt lat="34.9594924" lon="32.8274403"><ele>1221.0</ele><time>2015-04-30T07:24:24.0000000+00:00</time></trkpt><trkpt lat="34.9594961" lon="32.8275086"><ele>1222.6</ele><time>2015-04-30T07:24:28.0000000+00:00</time></trkpt><trkpt lat="34.9595224" lon="32.827558"><ele>1224.9</ele><time>2015-04-30T07:24:31.0000000+00:00</time></trkpt><trkpt lat="34.9595339" lon="32.8276171"><ele>1224.4</ele><time>2015-04-30T07:24:34.0000000+00:00</time></trkpt><trkpt lat="34.9595421" lon="32.8276748"><ele>1224.7</ele><time>2015-04-30T07:24:37.0000000+00:00</time></trkpt><trkpt lat="34.9595582" lon="32.8277364"><ele>1225.6</ele><time>2015-04-30T07:24:40.0000000+00:00</time></trkpt><trkpt lat="34.9595802" lon="32.8277951"><ele>1227.2</ele><time>2015-04-30T07:24:43.0000000+00:00</time></trkpt><trkpt lat="34.9595892" lon="32.8278532"><ele>1228.5</ele><time>2015-04-30T07:24:46.0000000+00:00</time></trkpt><trkpt lat="34.9595857" lon="32.827924"><ele>1227.1</ele><time>2015-04-30T07:24:50.0000000+00:00</time></trkpt><trkpt lat="34.9595672" lon="32.8279769"><ele>1229.2</ele><time>2015-04-30T07:24:53.0000000+00:00</time></trkpt><trkpt lat="34.959544" lon="32.8280295"><ele>1228.3</ele><time>2015-04-30T07:24:56.0000000+00:00</time></trkpt><trkpt lat="34.9595095" lon="32.8280928"><ele>1226.7</ele><time>2015-04-30T07:25:00.0000000+00:00</time></trkpt><trkpt lat="34.9594634" lon="32.8281211"><ele>1226.8</ele><time>2015-04-30T07:25:03.0000000+00:00</time></trkpt><trkpt lat="34.9594087" lon="32.8281461"><ele>1226.6</ele><time>2015-04-30T07:25:07.0000000+00:00</time></trkpt><trkpt lat="34.9593657" lon="32.8281819"><ele>1228.4</ele><time>2015-04-30T07:25:10.0000000+00:00</time></trkpt><trkpt lat="34.9593152" lon="32.8282082"><ele>1227.8</ele><time>2015-04-30T07:25:13.0000000+00:00</time></trkpt><trkpt lat="34.9592674" lon="32.8282373"><ele>1228.6</ele><time>2015-04-30T07:25:16.0000000+00:00</time></trkpt><trkpt lat="34.9592318" lon="32.8282794"><ele>1229.6</ele><time>2015-04-30T07:25:19.0000000+00:00</time></trkpt><trkpt lat="34.9591909" lon="32.8283211"><ele>1232.6</ele><time>2015-04-30T07:25:23.0000000+00:00</time></trkpt><trkpt lat="34.959191" lon="32.8283763"><ele>1232.1</ele><time>2015-04-30T07:25:27.0000000+00:00</time></trkpt><trkpt lat="34.9591675" lon="32.8284273"><ele>1231.2</ele><time>2015-04-30T07:25:30.0000000+00:00</time></trkpt><trkpt lat="34.9591737" lon="32.8284852"><ele>1231.3</ele><time>2015-04-30T07:25:34.0000000+00:00</time></trkpt><trkpt lat="34.9591697" lon="32.8285438"><ele>1232.7</ele><time>2015-04-30T07:25:38.0000000+00:00</time></trkpt><trkpt lat="34.9591614" lon="32.8286068"><ele>1232.4</ele><time>2015-04-30T07:25:42.0000000+00:00</time></trkpt><trkpt lat="34.9591761" lon="32.8286781"><ele>1232.0</ele><time>2015-04-30T07:25:46.0000000+00:00</time></trkpt><trkpt lat="34.9591781" lon="32.8287343"><ele>1231.5</ele><time>2015-04-30T07:25:49.0000000+00:00</time></trkpt><trkpt lat="34.9591784" lon="32.8287932"><ele>1232.5</ele><time>2015-04-30T07:25:52.0000000+00:00</time></trkpt><trkpt lat="34.9591782" lon="32.8288494"><ele>1234.9</ele><time>2015-04-30T07:25:55.0000000+00:00</time></trkpt><trkpt lat="34.9591705" lon="32.8289064"><ele>1236.0</ele><time>2015-04-30T07:25:58.0000000+00:00</time></trkpt><trkpt lat="34.959154" lon="32.828976"><ele>1236.7</ele><time>2015-04-30T07:26:02.0000000+00:00</time></trkpt><trkpt lat="34.9591207" lon="32.8290178"><ele>1238.5</ele><time>2015-04-30T07:26:05.0000000+00:00</time></trkpt><trkpt lat="34.9590806" lon="32.8290459"><ele>1239.5</ele><time>2015-04-30T07:26:09.0000000+00:00</time></trkpt><trkpt lat="34.9590356" lon="32.8290667"><ele>1237.0</ele><time>2015-04-30T07:26:13.0000000+00:00</time></trkpt><trkpt lat="34.9589841" lon="32.8290866"><ele>1236.3</ele><time>2015-04-30T07:26:16.0000000+00:00</time></trkpt><trkpt lat="34.9589252" lon="32.8290977"><ele>1235.8</ele><time>2015-04-30T07:26:19.0000000+00:00</time></trkpt><trkpt lat="34.9588751" lon="32.8291026"><ele>1234.4</ele><time>2015-04-30T07:26:22.0000000+00:00</time></trkpt><trkpt lat="34.9588289" lon="32.8291126"><ele>1233.0</ele><time>2015-04-30T07:26:25.0000000+00:00</time></trkpt><trkpt lat="34.9587824" lon="32.8291206"><ele>1232.4</ele><time>2015-04-30T07:26:28.0000000+00:00</time></trkpt><trkpt lat="34.9587364" lon="32.829122"><ele>1232.1</ele><time>2015-04-30T07:26:31.0000000+00:00</time></trkpt><trkpt lat="34.9586802" lon="32.829109"><ele>1233.0</ele><time>2015-04-30T07:26:35.0000000+00:00</time></trkpt><trkpt lat="34.9586335" lon="32.8291068"><ele>1234.5</ele><time>2015-04-30T07:26:38.0000000+00:00</time></trkpt><trkpt lat="34.9585783" lon="32.8291169"><ele>1232.2</ele><time>2015-04-30T07:26:42.0000000+00:00</time></trkpt><trkpt lat="34.958528" lon="32.8291357"><ele>1231.8</ele><time>2015-04-30T07:26:46.0000000+00:00</time></trkpt><trkpt lat="34.9584673" lon="32.8291498"><ele>1232.7</ele><time>2015-04-30T07:26:50.0000000+00:00</time></trkpt><trkpt lat="34.9584102" lon="32.8291634"><ele>1232.8</ele><time>2015-04-30T07:26:53.0000000+00:00</time></trkpt><trkpt lat="34.958361" lon="32.829166"><ele>1232.8</ele><time>2015-04-30T07:26:56.0000000+00:00</time></trkpt><trkpt lat="34.9583148" lon="32.829172"><ele>1232.8</ele><time>2015-04-30T07:26:59.0000000+00:00</time></trkpt><trkpt lat="34.9582676" lon="32.829192"><ele>1235.8</ele><time>2015-04-30T07:27:02.0000000+00:00</time></trkpt><trkpt lat="34.9582285" lon="32.8292265"><ele>1238.8</ele><time>2015-04-30T07:27:07.0000000+00:00</time></trkpt><trkpt lat="34.9581774" lon="32.8292577"><ele>1240.4</ele><time>2015-04-30T07:27:11.0000000+00:00</time></trkpt><trkpt lat="34.9581321" lon="32.8292877"><ele>1241.6</ele><time>2015-04-30T07:27:14.0000000+00:00</time></trkpt><trkpt lat="34.958106" lon="32.8293441"><ele>1245.1</ele><time>2015-04-30T07:27:17.0000000+00:00</time></trkpt><trkpt lat="34.95808" lon="32.8294048"><ele>1246.6</ele><time>2015-04-30T07:27:20.0000000+00:00</time></trkpt><trkpt lat="34.958055" lon="32.8294613"><ele>1247.6</ele><time>2015-04-30T07:27:23.0000000+00:00</time></trkpt><trkpt lat="34.9580595" lon="32.8295318"><ele>1246.9</ele><time>2015-04-30T07:27:27.0000000+00:00</time></trkpt><trkpt lat="34.9580577" lon="32.8296031"><ele>1248.5</ele><time>2015-04-30T07:27:31.0000000+00:00</time></trkpt><trkpt lat="34.9580624" lon="32.8296646"><ele>1249.5</ele><time>2015-04-30T07:27:35.0000000+00:00</time></trkpt><trkpt lat="34.9580639" lon="32.8297255"><ele>1249.2</ele><time>2015-04-30T07:27:39.0000000+00:00</time></trkpt><trkpt lat="34.9580831" lon="32.8297929"><ele>1251.5</ele><time>2015-04-30T07:27:43.0000000+00:00</time></trkpt><trkpt lat="34.9580981" lon="32.8298454"><ele>1252.9</ele><time>2015-04-30T07:27:46.0000000+00:00</time></trkpt><trkpt lat="34.9581223" lon="32.8298961"><ele>1255.4</ele><time>2015-04-30T07:27:49.0000000+00:00</time></trkpt><trkpt lat="34.9581452" lon="32.8299562"><ele>1254.5</ele><time>2015-04-30T07:27:53.0000000+00:00</time></trkpt><trkpt lat="34.9581677" lon="32.8300194"><ele>1252.9</ele><time>2015-04-30T07:27:57.0000000+00:00</time></trkpt><trkpt lat="34.9581811" lon="32.8300854"><ele>1251.5</ele><time>2015-04-30T07:28:01.0000000+00:00</time></trkpt><trkpt lat="34.9582095" lon="32.8301412"><ele>1250.0</ele><time>2015-04-30T07:28:05.0000000+00:00</time></trkpt><trkpt lat="34.9582357" lon="32.8302032"><ele>1249.9</ele><time>2015-04-30T07:28:09.0000000+00:00</time></trkpt><trkpt lat="34.9582472" lon="32.8302681"><ele>1250.8</ele><time>2015-04-30T07:28:13.0000000+00:00</time></trkpt><trkpt lat="34.9582779" lon="32.8303267"><ele>1250.7</ele><time>2015-04-30T07:28:17.0000000+00:00</time></trkpt><trkpt lat="34.9582789" lon="32.8303828"><ele>1250.4</ele><time>2015-04-30T07:28:21.0000000+00:00</time></trkpt><trkpt lat="34.9582967" lon="32.8304393"><ele>1251.2</ele><time>2015-04-30T07:28:25.0000000+00:00</time></trkpt><trkpt lat="34.9583235" lon="32.8305033"><ele>1253.1</ele><time>2015-04-30T07:28:29.0000000+00:00</time></trkpt><trkpt lat="34.9583085" lon="32.8305697"><ele>1252.3</ele><time>2015-04-30T07:28:33.0000000+00:00</time></trkpt><trkpt lat="34.9582924" lon="32.8306226"><ele>1251.3</ele><time>2015-04-30T07:28:36.0000000+00:00</time></trkpt><trkpt lat="34.9582671" lon="32.8306742"><ele>1251.0</ele><time>2015-04-30T07:28:39.0000000+00:00</time></trkpt><trkpt lat="34.9582487" lon="32.8307308"><ele>1251.3</ele><time>2015-04-30T07:28:43.0000000+00:00</time></trkpt><trkpt lat="34.958212" lon="32.8307827"><ele>1251.2</ele><time>2015-04-30T07:28:48.0000000+00:00</time></trkpt><trkpt lat="34.958161" lon="32.8308171"><ele>1251.2</ele><time>2015-04-30T07:28:52.0000000+00:00</time></trkpt><trkpt lat="34.9581187" lon="32.8308444"><ele>1252.6</ele><time>2015-04-30T07:28:55.0000000+00:00</time></trkpt><trkpt lat="34.9580695" lon="32.8308814"><ele>1254.5</ele><time>2015-04-30T07:28:59.0000000+00:00</time></trkpt><trkpt lat="34.9580245" lon="32.830897"><ele>1255.2</ele><time>2015-04-30T07:29:02.0000000+00:00</time></trkpt><trkpt lat="34.9579794" lon="32.830906"><ele>1255.6</ele><time>2015-04-30T07:29:05.0000000+00:00</time></trkpt><trkpt lat="34.957924" lon="32.830927"><ele>1257.6</ele><time>2015-04-30T07:29:09.0000000+00:00</time></trkpt><trkpt lat="34.9578792" lon="32.8309713"><ele>1260.8</ele><time>2015-04-30T07:29:13.0000000+00:00</time></trkpt><trkpt lat="34.9578288" lon="32.8310116"><ele>1262.2</ele><time>2015-04-30T07:29:17.0000000+00:00</time></trkpt><trkpt lat="34.9577832" lon="32.8310442"><ele>1261.1</ele><time>2015-04-30T07:29:20.0000000+00:00</time></trkpt><trkpt lat="34.9577439" lon="32.831081"><ele>1262.2</ele><time>2015-04-30T07:29:23.0000000+00:00</time></trkpt><trkpt lat="34.9577103" lon="32.8311201"><ele>1262.6</ele><time>2015-04-30T07:29:26.0000000+00:00</time></trkpt><trkpt lat="34.9576709" lon="32.8311665"><ele>1261.9</ele><time>2015-04-30T07:29:30.0000000+00:00</time></trkpt><trkpt lat="34.957635" lon="32.8312197"><ele>1262.7</ele><time>2015-04-30T07:29:34.0000000+00:00</time></trkpt><trkpt lat="34.9576137" lon="32.8312859"><ele>1263.6</ele><time>2015-04-30T07:29:38.0000000+00:00</time></trkpt><trkpt lat="34.9575998" lon="32.8313473"><ele>1264.9</ele><time>2015-04-30T07:29:42.0000000+00:00</time></trkpt><trkpt lat="34.9575928" lon="32.8314113"><ele>1265.7</ele><time>2015-04-30T07:29:46.0000000+00:00</time></trkpt><trkpt lat="34.9575805" lon="32.8314748"><ele>1267.6</ele><time>2015-04-30T07:29:50.0000000+00:00</time></trkpt><trkpt lat="34.9575649" lon="32.8315375"><ele>1267.8</ele><time>2015-04-30T07:29:54.0000000+00:00</time></trkpt><trkpt lat="34.9575469" lon="32.8316003"><ele>1267.8</ele><time>2015-04-30T07:29:58.0000000+00:00</time></trkpt><trkpt lat="34.9575319" lon="32.8316668"><ele>1266.8</ele><time>2015-04-30T07:30:02.0000000+00:00</time></trkpt><trkpt lat="34.9575408" lon="32.8317339"><ele>1267.7</ele><time>2015-04-30T07:30:06.0000000+00:00</time></trkpt><trkpt lat="34.9575464" lon="32.8318048"><ele>1269.1</ele><time>2015-04-30T07:30:10.0000000+00:00</time></trkpt><trkpt lat="34.9575614" lon="32.8318752"><ele>1271.3</ele><time>2015-04-30T07:30:14.0000000+00:00</time></trkpt><trkpt lat="34.9575588" lon="32.8319391"><ele>1275.2</ele><time>2015-04-30T07:30:18.0000000+00:00</time></trkpt><trkpt lat="34.9575428" lon="32.8318859"><ele>1268.2</ele><time>2015-04-30T07:30:34.0000000+00:00</time></trkpt><trkpt lat="34.9575579" lon="32.8319383"><ele>1269.3</ele><time>2015-04-30T07:30:48.0000000+00:00</time></trkpt><trkpt lat="34.9575399" lon="32.8319994"><ele>1270.8</ele><time>2015-04-30T07:30:54.0000000+00:00</time></trkpt><trkpt lat="34.9575214" lon="32.831949"><ele>1271.8</ele><time>2015-04-30T07:32:10.0000000+00:00</time></trkpt><trkpt lat="34.95748" lon="32.8319714"><ele>1278.0</ele><time>2015-04-30T07:33:15.0000000+00:00</time></trkpt><trkpt lat="34.957432" lon="32.831972"><ele>1275.9</ele><time>2015-04-30T07:33:37.0000000+00:00</time></trkpt><trkpt lat="34.9574313" lon="32.8319163"><ele>1277.9</ele><time>2015-04-30T07:34:41.0000000+00:00</time></trkpt><trkpt lat="34.9574121" lon="32.8318521"><ele>1274.8</ele><time>2015-04-30T07:34:57.0000000+00:00</time></trkpt><trkpt lat="34.9574207" lon="32.8317931"><ele>1272.6</ele><time>2015-04-30T07:35:00.0000000+00:00</time></trkpt><trkpt lat="34.9574284" lon="32.8317363"><ele>1272.1</ele><time>2015-04-30T07:35:03.0000000+00:00</time></trkpt><trkpt lat="34.9574412" lon="32.8316804"><ele>1270.6</ele><time>2015-04-30T07:35:07.0000000+00:00</time></trkpt><trkpt lat="34.9574019" lon="32.8317206"><ele>1270.5</ele><time>2015-04-30T07:35:25.0000000+00:00</time></trkpt><trkpt lat="34.9573903" lon="32.8317754"><ele>1269.9</ele><time>2015-04-30T07:35:31.0000000+00:00</time></trkpt><trkpt lat="34.9573976" lon="32.8318319"><ele>1268.7</ele><time>2015-04-30T07:35:38.0000000+00:00</time></trkpt><trkpt lat="34.9573962" lon="32.8318869"><ele>1265.8</ele><time>2015-04-30T07:35:44.0000000+00:00</time></trkpt><trkpt lat="34.9574129" lon="32.831947"><ele>1262.3</ele><time>2015-04-30T07:35:52.0000000+00:00</time></trkpt><trkpt lat="34.957395" lon="32.8320036"><ele>1261.3</ele><time>2015-04-30T07:35:58.0000000+00:00</time></trkpt><trkpt lat="34.9574461" lon="32.8320142"><ele>1263.5</ele><time>2015-04-30T07:36:04.0000000+00:00</time></trkpt><trkpt lat="34.9574469" lon="32.8319525"><ele>1264.2</ele><time>2015-04-30T07:37:06.0000000+00:00</time></trkpt><trkpt lat="34.9574191" lon="32.8320096"><ele>1264.3</ele><time>2015-04-30T07:37:39.0000000+00:00</time></trkpt><trkpt lat="34.9574126" lon="32.8320708"><ele>1264.8</ele><time>2015-04-30T07:37:44.0000000+00:00</time></trkpt><trkpt lat="34.9574592" lon="32.8320981"><ele>1267.9</ele><time>2015-04-30T07:37:49.0000000+00:00</time></trkpt><trkpt lat="34.9575087" lon="32.832112"><ele>1269.6</ele><time>2015-04-30T07:37:53.0000000+00:00</time></trkpt><trkpt lat="34.9575602" lon="32.8321192"><ele>1270.3</ele><time>2015-04-30T07:37:58.0000000+00:00</time></trkpt><trkpt lat="34.957606" lon="32.8321221"><ele>1270.6</ele><time>2015-04-30T07:38:02.0000000+00:00</time></trkpt><trkpt lat="34.9576496" lon="32.8321054"><ele>1272.0</ele><time>2015-04-30T07:38:05.0000000+00:00</time></trkpt><trkpt lat="34.9576955" lon="32.8320914"><ele>1274.2</ele><time>2015-04-30T07:38:08.0000000+00:00</time></trkpt><trkpt lat="34.9577516" lon="32.8320783"><ele>1275.6</ele><time>2015-04-30T07:38:11.0000000+00:00</time></trkpt><trkpt lat="34.9578133" lon="32.8320653"><ele>1276.0</ele><time>2015-04-30T07:38:14.0000000+00:00</time></trkpt><trkpt lat="34.9578777" lon="32.8320656"><ele>1275.8</ele><time>2015-04-30T07:38:17.0000000+00:00</time></trkpt><trkpt lat="34.9579402" lon="32.832068"><ele>1275.4</ele><time>2015-04-30T07:38:20.0000000+00:00</time></trkpt><trkpt lat="34.9580003" lon="32.8320779"><ele>1274.1</ele><time>2015-04-30T07:38:23.0000000+00:00</time></trkpt><trkpt lat="34.9580566" lon="32.8321054"><ele>1273.8</ele><time>2015-04-30T07:38:26.0000000+00:00</time></trkpt><trkpt lat="34.9581072" lon="32.832136"><ele>1273.9</ele><time>2015-04-30T07:38:29.0000000+00:00</time></trkpt><trkpt lat="34.9581498" lon="32.8321734"><ele>1275.3</ele><time>2015-04-30T07:38:32.0000000+00:00</time></trkpt><trkpt lat="34.9581857" lon="32.8322098"><ele>1276.6</ele><time>2015-04-30T07:38:35.0000000+00:00</time></trkpt><trkpt lat="34.9582187" lon="32.8322519"><ele>1277.5</ele><time>2015-04-30T07:38:38.0000000+00:00</time></trkpt><trkpt lat="34.9582494" lon="32.8322922"><ele>1276.9</ele><time>2015-04-30T07:38:41.0000000+00:00</time></trkpt><trkpt lat="34.9582942" lon="32.8323332"><ele>1278.0</ele><time>2015-04-30T07:38:45.0000000+00:00</time></trkpt><trkpt lat="34.9583256" lon="32.832375"><ele>1277.9</ele><time>2015-04-30T07:38:48.0000000+00:00</time></trkpt><trkpt lat="34.9583607" lon="32.8324265"><ele>1278.7</ele><time>2015-04-30T07:38:51.0000000+00:00</time></trkpt><trkpt lat="34.958399" lon="32.8324787"><ele>1279.8</ele><time>2015-04-30T07:38:54.0000000+00:00</time></trkpt><trkpt lat="34.9584351" lon="32.8325357"><ele>1279.8</ele><time>2015-04-30T07:38:57.0000000+00:00</time></trkpt><trkpt lat="34.958472" lon="32.8325927"><ele>1279.6</ele><time>2015-04-30T07:39:00.0000000+00:00</time></trkpt><trkpt lat="34.9585119" lon="32.832647"><ele>1279.5</ele><time>2015-04-30T07:39:03.0000000+00:00</time></trkpt><trkpt lat="34.958557" lon="32.8326947"><ele>1279.1</ele><time>2015-04-30T07:39:06.0000000+00:00</time></trkpt><trkpt lat="34.9586029" lon="32.8327358"><ele>1279.6</ele><time>2015-04-30T07:39:09.0000000+00:00</time></trkpt><trkpt lat="34.9586462" lon="32.8327919"><ele>1280.1</ele><time>2015-04-30T07:39:12.0000000+00:00</time></trkpt><trkpt lat="34.9586886" lon="32.8328465"><ele>1280.2</ele><time>2015-04-30T07:39:15.0000000+00:00</time></trkpt><trkpt lat="34.958725" lon="32.8329016"><ele>1279.8</ele><time>2015-04-30T07:39:18.0000000+00:00</time></trkpt><trkpt lat="34.9587671" lon="32.8329522"><ele>1278.9</ele><time>2015-04-30T07:39:21.0000000+00:00</time></trkpt><trkpt lat="34.9587928" lon="32.8330111"><ele>1279.3</ele><time>2015-04-30T07:39:24.0000000+00:00</time></trkpt><trkpt lat="34.9588235" lon="32.8330703"><ele>1278.8</ele><time>2015-04-30T07:39:27.0000000+00:00</time></trkpt><trkpt lat="34.9588564" lon="32.833127"><ele>1279.5</ele><time>2015-04-30T07:39:30.0000000+00:00</time></trkpt><trkpt lat="34.9588765" lon="32.8331908"><ele>1279.7</ele><time>2015-04-30T07:39:33.0000000+00:00</time></trkpt><trkpt lat="34.9588958" lon="32.8332537"><ele>1280.6</ele><time>2015-04-30T07:39:36.0000000+00:00</time></trkpt><trkpt lat="34.9589152" lon="32.8333155"><ele>1282.0</ele><time>2015-04-30T07:39:39.0000000+00:00</time></trkpt><trkpt lat="34.9589316" lon="32.83338"><ele>1282.7</ele><time>2015-04-30T07:39:42.0000000+00:00</time></trkpt><trkpt lat="34.9589383" lon="32.8334452"><ele>1282.8</ele><time>2015-04-30T07:39:45.0000000+00:00</time></trkpt><trkpt lat="34.9589482" lon="32.8335116"><ele>1284.3</ele><time>2015-04-30T07:39:48.0000000+00:00</time></trkpt><trkpt lat="34.9589614" lon="32.8335767"><ele>1286.5</ele><time>2015-04-30T07:39:51.0000000+00:00</time></trkpt><trkpt lat="34.9589717" lon="32.8336358"><ele>1286.6</ele><time>2015-04-30T07:39:54.0000000+00:00</time></trkpt><trkpt lat="34.9589809" lon="32.8337056"><ele>1287.3</ele><time>2015-04-30T07:39:58.0000000+00:00</time></trkpt><trkpt lat="34.9589764" lon="32.8337733"><ele>1285.9</ele><time>2015-04-30T07:40:02.0000000+00:00</time></trkpt><trkpt lat="34.9589663" lon="32.8338293"><ele>1284.7</ele><time>2015-04-30T07:40:05.0000000+00:00</time></trkpt><trkpt lat="34.9589604" lon="32.8338955"><ele>1284.8</ele><time>2015-04-30T07:40:09.0000000+00:00</time></trkpt><trkpt lat="34.9589658" lon="32.8339546"><ele>1284.6</ele><time>2015-04-30T07:40:13.0000000+00:00</time></trkpt><trkpt lat="34.9589615" lon="32.8340135"><ele>1283.3</ele><time>2015-04-30T07:40:17.0000000+00:00</time></trkpt><trkpt lat="34.9589809" lon="32.8340784"><ele>1286.7</ele><time>2015-04-30T07:40:21.0000000+00:00</time></trkpt><trkpt lat="34.9589924" lon="32.8341334"><ele>1288.4</ele><time>2015-04-30T07:40:24.0000000+00:00</time></trkpt><trkpt lat="34.9590135" lon="32.8341826"><ele>1289.2</ele><time>2015-04-30T07:40:27.0000000+00:00</time></trkpt><trkpt lat="34.9590254" lon="32.8342364"><ele>1288.8</ele><time>2015-04-30T07:40:30.0000000+00:00</time></trkpt><trkpt lat="34.959034" lon="32.8342906"><ele>1289.1</ele><time>2015-04-30T07:40:33.0000000+00:00</time></trkpt><trkpt lat="34.9590193" lon="32.8343574"><ele>1288.5</ele><time>2015-04-30T07:40:37.0000000+00:00</time></trkpt><trkpt lat="34.9590162" lon="32.8344241"><ele>1289.2</ele><time>2015-04-30T07:40:41.0000000+00:00</time></trkpt><trkpt lat="34.9589942" lon="32.8344878"><ele>1289.3</ele><time>2015-04-30T07:40:45.0000000+00:00</time></trkpt><trkpt lat="34.9589842" lon="32.8345485"><ele>1290.6</ele><time>2015-04-30T07:40:49.0000000+00:00</time></trkpt><trkpt lat="34.958947" lon="32.834606"><ele>1289.6</ele><time>2015-04-30T07:40:53.0000000+00:00</time></trkpt><trkpt lat="34.9589194" lon="32.8346539"><ele>1290.6</ele><time>2015-04-30T07:40:56.0000000+00:00</time></trkpt><trkpt lat="34.9588758" lon="32.8346949"><ele>1289.4</ele><time>2015-04-30T07:40:59.0000000+00:00</time></trkpt><trkpt lat="34.9588421" lon="32.8347534"><ele>1288.8</ele><time>2015-04-30T07:41:03.0000000+00:00</time></trkpt><trkpt lat="34.9588089" lon="32.8348046"><ele>1287.6</ele><time>2015-04-30T07:41:07.0000000+00:00</time></trkpt><trkpt lat="34.9587785" lon="32.834849"><ele>1288.9</ele><time>2015-04-30T07:41:11.0000000+00:00</time></trkpt><trkpt lat="34.9587328" lon="32.8348878"><ele>1289.7</ele><time>2015-04-30T07:41:15.0000000+00:00</time></trkpt><trkpt lat="34.9586933" lon="32.8349346"><ele>1291.3</ele><time>2015-04-30T07:41:19.0000000+00:00</time></trkpt><trkpt lat="34.9586686" lon="32.8349967"><ele>1291.2</ele><time>2015-04-30T07:41:23.0000000+00:00</time></trkpt><trkpt lat="34.9586628" lon="32.8350513"><ele>1293.1</ele><time>2015-04-30T07:41:27.0000000+00:00</time></trkpt><trkpt lat="34.958633" lon="32.8351021"><ele>1296.4</ele><time>2015-04-30T07:41:31.0000000+00:00</time></trkpt><trkpt lat="34.958603" lon="32.8351451"><ele>1295.5</ele><time>2015-04-30T07:41:34.0000000+00:00</time></trkpt><trkpt lat="34.9585692" lon="32.8351895"><ele>1296.9</ele><time>2015-04-30T07:41:37.0000000+00:00</time></trkpt><trkpt lat="34.9585392" lon="32.8352308"><ele>1298.2</ele><time>2015-04-30T07:41:40.0000000+00:00</time></trkpt><trkpt lat="34.9585237" lon="32.8352831"><ele>1299.7</ele><time>2015-04-30T07:41:44.0000000+00:00</time></trkpt><trkpt lat="34.9585203" lon="32.8353385"><ele>1303.3</ele><time>2015-04-30T07:41:48.0000000+00:00</time></trkpt><trkpt lat="34.9585221" lon="32.8353981"><ele>1303.8</ele><time>2015-04-30T07:41:53.0000000+00:00</time></trkpt><trkpt lat="34.9585323" lon="32.8354517"><ele>1303.5</ele><time>2015-04-30T07:41:58.0000000+00:00</time></trkpt><trkpt lat="34.9585503" lon="32.835518"><ele>1300.3</ele><time>2015-04-30T07:42:03.0000000+00:00</time></trkpt><trkpt lat="34.9585882" lon="32.8355664"><ele>1302.9</ele><time>2015-04-30T07:42:07.0000000+00:00</time></trkpt><trkpt lat="34.9586265" lon="32.8355971"><ele>1304.5</ele><time>2015-04-30T07:42:10.0000000+00:00</time></trkpt><trkpt lat="34.958667" lon="32.8356282"><ele>1306.0</ele><time>2015-04-30T07:42:13.0000000+00:00</time></trkpt><trkpt lat="34.9587152" lon="32.8356657"><ele>1306.5</ele><time>2015-04-30T07:42:17.0000000+00:00</time></trkpt><trkpt lat="34.9587626" lon="32.8356858"><ele>1309.0</ele><time>2015-04-30T07:42:20.0000000+00:00</time></trkpt><trkpt lat="34.9588135" lon="32.8356991"><ele>1308.9</ele><time>2015-04-30T07:42:23.0000000+00:00</time></trkpt><trkpt lat="34.9588637" lon="32.8357057"><ele>1306.4</ele><time>2015-04-30T07:42:26.0000000+00:00</time></trkpt><trkpt lat="34.9589158" lon="32.8357196"><ele>1305.5</ele><time>2015-04-30T07:42:30.0000000+00:00</time></trkpt><trkpt lat="34.9589701" lon="32.8357422"><ele>1304.0</ele><time>2015-04-30T07:42:34.0000000+00:00</time></trkpt><trkpt lat="34.9590154" lon="32.8357439"><ele>1303.2</ele><time>2015-04-30T07:42:37.0000000+00:00</time></trkpt><trkpt lat="34.9590623" lon="32.8357533"><ele>1303.7</ele><time>2015-04-30T07:42:40.0000000+00:00</time></trkpt><trkpt lat="34.9591135" lon="32.8357848"><ele>1303.0</ele><time>2015-04-30T07:42:44.0000000+00:00</time></trkpt><trkpt lat="34.9591564" lon="32.8358057"><ele>1302.0</ele><time>2015-04-30T07:42:47.0000000+00:00</time></trkpt><trkpt lat="34.9592003" lon="32.8358306"><ele>1302.7</ele><time>2015-04-30T07:42:50.0000000+00:00</time></trkpt><trkpt lat="34.9592394" lon="32.8358619"><ele>1302.5</ele><time>2015-04-30T07:42:53.0000000+00:00</time></trkpt><trkpt lat="34.9592835" lon="32.8359068"><ele>1304.4</ele><time>2015-04-30T07:42:57.0000000+00:00</time></trkpt><trkpt lat="34.9593209" lon="32.8359591"><ele>1306.7</ele><time>2015-04-30T07:43:01.0000000+00:00</time></trkpt><trkpt lat="34.9593589" lon="32.8360157"><ele>1306.5</ele><time>2015-04-30T07:43:05.0000000+00:00</time></trkpt><trkpt lat="34.9593863" lon="32.8360772"><ele>1305.9</ele><time>2015-04-30T07:43:09.0000000+00:00</time></trkpt><trkpt lat="34.9594067" lon="32.8361433"><ele>1305.9</ele><time>2015-04-30T07:43:13.0000000+00:00</time></trkpt><trkpt lat="34.9594397" lon="32.8361933"><ele>1305.8</ele><time>2015-04-30T07:43:16.0000000+00:00</time></trkpt><trkpt lat="34.9594524" lon="32.8362529"><ele>1307.1</ele><time>2015-04-30T07:43:19.0000000+00:00</time></trkpt><trkpt lat="34.9594617" lon="32.8363083"><ele>1308.4</ele><time>2015-04-30T07:43:22.0000000+00:00</time></trkpt><trkpt lat="34.959476" lon="32.8363714"><ele>1309.6</ele><time>2015-04-30T07:43:26.0000000+00:00</time></trkpt><trkpt lat="34.9594925" lon="32.8364372"><ele>1311.6</ele><time>2015-04-30T07:43:30.0000000+00:00</time></trkpt><trkpt lat="34.9595158" lon="32.836502"><ele>1310.9</ele><time>2015-04-30T07:43:34.0000000+00:00</time></trkpt><trkpt lat="34.959528" lon="32.8365601"><ele>1312.5</ele><time>2015-04-30T07:43:37.0000000+00:00</time></trkpt><trkpt lat="34.9595344" lon="32.83662"><ele>1312.7</ele><time>2015-04-30T07:43:40.0000000+00:00</time></trkpt><trkpt lat="34.9595283" lon="32.8366887"><ele>1312.5</ele><time>2015-04-30T07:43:44.0000000+00:00</time></trkpt><trkpt lat="34.959526" lon="32.8367446"><ele>1311.1</ele><time>2015-04-30T07:43:47.0000000+00:00</time></trkpt><trkpt lat="34.9595401" lon="32.8368005"><ele>1310.1</ele><time>2015-04-30T07:43:50.0000000+00:00</time></trkpt><trkpt lat="34.9595458" lon="32.8368718"><ele>1311.9</ele><time>2015-04-30T07:43:54.0000000+00:00</time></trkpt><trkpt lat="34.959546" lon="32.836927"><ele>1314.2</ele><time>2015-04-30T07:43:57.0000000+00:00</time></trkpt><trkpt lat="34.9595411" lon="32.8369832"><ele>1314.2</ele><time>2015-04-30T07:44:00.0000000+00:00</time></trkpt><trkpt lat="34.9595266" lon="32.8370454"><ele>1311.0</ele><time>2015-04-30T07:44:04.0000000+00:00</time></trkpt><trkpt lat="34.959487" lon="32.8370998"><ele>1310.3</ele><time>2015-04-30T07:44:08.0000000+00:00</time></trkpt><trkpt lat="34.9594475" lon="32.8371465"><ele>1308.9</ele><time>2015-04-30T07:44:12.0000000+00:00</time></trkpt><trkpt lat="34.9594069" lon="32.8371797"><ele>1309.5</ele><time>2015-04-30T07:44:16.0000000+00:00</time></trkpt><trkpt lat="34.9593529" lon="32.8372116"><ele>1310.5</ele><time>2015-04-30T07:44:20.0000000+00:00</time></trkpt><trkpt lat="34.9593097" lon="32.8372301"><ele>1310.7</ele><time>2015-04-30T07:44:23.0000000+00:00</time></trkpt><trkpt lat="34.9592657" lon="32.8372556"><ele>1311.4</ele><time>2015-04-30T07:44:26.0000000+00:00</time></trkpt><trkpt lat="34.9592173" lon="32.8372677"><ele>1314.1</ele><time>2015-04-30T07:44:29.0000000+00:00</time></trkpt><trkpt lat="34.9591665" lon="32.8372704"><ele>1314.3</ele><time>2015-04-30T07:44:32.0000000+00:00</time></trkpt><trkpt lat="34.9591112" lon="32.8372753"><ele>1315.2</ele><time>2015-04-30T07:44:35.0000000+00:00</time></trkpt><trkpt lat="34.959054" lon="32.837279"><ele>1316.4</ele><time>2015-04-30T07:44:38.0000000+00:00</time></trkpt><trkpt lat="34.9589896" lon="32.8372806"><ele>1315.9</ele><time>2015-04-30T07:44:41.0000000+00:00</time></trkpt><trkpt lat="34.9589392" lon="32.8372733"><ele>1317.0</ele><time>2015-04-30T07:44:43.0000000+00:00</time></trkpt><trkpt lat="34.9588933" lon="32.8372664"><ele>1317.1</ele><time>2015-04-30T07:44:45.0000000+00:00</time></trkpt><trkpt lat="34.9588301" lon="32.8372689"><ele>1317.6</ele><time>2015-04-30T07:44:48.0000000+00:00</time></trkpt><trkpt lat="34.9587692" lon="32.837258"><ele>1319.0</ele><time>2015-04-30T07:44:51.0000000+00:00</time></trkpt><trkpt lat="34.9587153" lon="32.8372389"><ele>1318.5</ele><time>2015-04-30T07:44:54.0000000+00:00</time></trkpt><trkpt lat="34.9586729" lon="32.837219"><ele>1317.9</ele><time>2015-04-30T07:44:57.0000000+00:00</time></trkpt><trkpt lat="34.9586209" lon="32.8372096"><ele>1318.5</ele><time>2015-04-30T07:45:01.0000000+00:00</time></trkpt><trkpt lat="34.9585685" lon="32.837188"><ele>1319.7</ele><time>2015-04-30T07:45:05.0000000+00:00</time></trkpt><trkpt lat="34.9585199" lon="32.8371765"><ele>1319.8</ele><time>2015-04-30T07:45:08.0000000+00:00</time></trkpt><trkpt lat="34.95847" lon="32.8371753"><ele>1321.6</ele><time>2015-04-30T07:45:11.0000000+00:00</time></trkpt><trkpt lat="34.9584207" lon="32.8371571"><ele>1321.7</ele><time>2015-04-30T07:45:14.0000000+00:00</time></trkpt><trkpt lat="34.9583642" lon="32.8371447"><ele>1323.4</ele><time>2015-04-30T07:45:17.0000000+00:00</time></trkpt><trkpt lat="34.9583029" lon="32.8371302"><ele>1325.1</ele><time>2015-04-30T07:45:20.0000000+00:00</time></trkpt><trkpt lat="34.9582451" lon="32.8371112"><ele>1326.6</ele><time>2015-04-30T07:45:23.0000000+00:00</time></trkpt><trkpt lat="34.9582001" lon="32.8370808"><ele>1325.1</ele><time>2015-04-30T07:45:26.0000000+00:00</time></trkpt><trkpt lat="34.9581555" lon="32.8370602"><ele>1326.4</ele><time>2015-04-30T07:45:29.0000000+00:00</time></trkpt><trkpt lat="34.9581093" lon="32.8370501"><ele>1325.0</ele><time>2015-04-30T07:45:32.0000000+00:00</time></trkpt><trkpt lat="34.9580526" lon="32.8370279"><ele>1324.0</ele><time>2015-04-30T07:45:36.0000000+00:00</time></trkpt><trkpt lat="34.9580021" lon="32.8369977"><ele>1322.3</ele><time>2015-04-30T07:45:40.0000000+00:00</time></trkpt><trkpt lat="34.9579458" lon="32.8369792"><ele>1323.5</ele><time>2015-04-30T07:45:44.0000000+00:00</time></trkpt><trkpt lat="34.9578889" lon="32.8369606"><ele>1324.0</ele><time>2015-04-30T07:45:48.0000000+00:00</time></trkpt><trkpt lat="34.95783" lon="32.8369445"><ele>1326.1</ele><time>2015-04-30T07:45:52.0000000+00:00</time></trkpt><trkpt lat="34.957784" lon="32.8369399"><ele>1327.3</ele><time>2015-04-30T07:45:55.0000000+00:00</time></trkpt><trkpt lat="34.9577366" lon="32.8369142"><ele>1328.4</ele><time>2015-04-30T07:45:59.0000000+00:00</time></trkpt><trkpt lat="34.9576896" lon="32.8368946"><ele>1330.0</ele><time>2015-04-30T07:46:03.0000000+00:00</time></trkpt><trkpt lat="34.9576354" lon="32.8368785"><ele>1331.6</ele><time>2015-04-30T07:46:07.0000000+00:00</time></trkpt><trkpt lat="34.957578" lon="32.8368579"><ele>1332.3</ele><time>2015-04-30T07:46:11.0000000+00:00</time></trkpt><trkpt lat="34.9575304" lon="32.8368421"><ele>1331.8</ele><time>2015-04-30T07:46:14.0000000+00:00</time></trkpt><trkpt lat="34.957477" lon="32.8368309"><ele>1332.6</ele><time>2015-04-30T07:46:17.0000000+00:00</time></trkpt><trkpt lat="34.9574212" lon="32.8368203"><ele>1333.6</ele><time>2015-04-30T07:46:20.0000000+00:00</time></trkpt><trkpt lat="34.957366" lon="32.8368067"><ele>1334.0</ele><time>2015-04-30T07:46:23.0000000+00:00</time></trkpt><trkpt lat="34.9573167" lon="32.836789"><ele>1333.9</ele><time>2015-04-30T07:46:26.0000000+00:00</time></trkpt><trkpt lat="34.9572707" lon="32.8367698"><ele>1334.4</ele><time>2015-04-30T07:46:29.0000000+00:00</time></trkpt><trkpt lat="34.95723" lon="32.8367447"><ele>1334.2</ele><time>2015-04-30T07:46:32.0000000+00:00</time></trkpt><trkpt lat="34.9571885" lon="32.836721"><ele>1334.3</ele><time>2015-04-30T07:46:35.0000000+00:00</time></trkpt><trkpt lat="34.9571499" lon="32.8366852"><ele>1334.2</ele><time>2015-04-30T07:46:38.0000000+00:00</time></trkpt><trkpt lat="34.9571098" lon="32.8366359"><ele>1332.9</ele><time>2015-04-30T07:46:41.0000000+00:00</time></trkpt><trkpt lat="34.957065" lon="32.8365873"><ele>1333.0</ele><time>2015-04-30T07:46:44.0000000+00:00</time></trkpt><trkpt lat="34.9570241" lon="32.8365402"><ele>1335.3</ele><time>2015-04-30T07:46:47.0000000+00:00</time></trkpt><trkpt lat="34.9570207" lon="32.8364739"><ele>1334.4</ele><time>2015-04-30T07:46:53.0000000+00:00</time></trkpt><trkpt lat="34.9570232" lon="32.8364131"><ele>1335.3</ele><time>2015-04-30T07:46:56.0000000+00:00</time></trkpt><trkpt lat="34.9570368" lon="32.8363545"><ele>1335.5</ele><time>2015-04-30T07:46:59.0000000+00:00</time></trkpt><trkpt lat="34.9570666" lon="32.8363002"><ele>1336.6</ele><time>2015-04-30T07:47:02.0000000+00:00</time></trkpt><trkpt lat="34.9570844" lon="32.8362462"><ele>1337.6</ele><time>2015-04-30T07:47:05.0000000+00:00</time></trkpt><trkpt lat="34.9571064" lon="32.8361979"><ele>1336.1</ele><time>2015-04-30T07:47:08.0000000+00:00</time></trkpt><trkpt lat="34.9571262" lon="32.8361361"><ele>1336.2</ele><time>2015-04-30T07:47:12.0000000+00:00</time></trkpt><trkpt lat="34.9571385" lon="32.8360823"><ele>1336.7</ele><time>2015-04-30T07:47:15.0000000+00:00</time></trkpt><trkpt lat="34.9571647" lon="32.8360321"><ele>1339.8</ele><time>2015-04-30T07:47:18.0000000+00:00</time></trkpt><trkpt lat="34.9571802" lon="32.8359681"><ele>1340.1</ele><time>2015-04-30T07:47:22.0000000+00:00</time></trkpt><trkpt lat="34.9571913" lon="32.8359073"><ele>1340.3</ele><time>2015-04-30T07:47:26.0000000+00:00</time></trkpt><trkpt lat="34.9571859" lon="32.8358427"><ele>1340.7</ele><time>2015-04-30T07:47:30.0000000+00:00</time></trkpt><trkpt lat="34.9571804" lon="32.8357699"><ele>1341.3</ele><time>2015-04-30T07:47:34.0000000+00:00</time></trkpt><trkpt lat="34.9571746" lon="32.8357145"><ele>1340.0</ele><time>2015-04-30T07:47:37.0000000+00:00</time></trkpt><trkpt lat="34.9571548" lon="32.8356501"><ele>1341.7</ele><time>2015-04-30T07:47:41.0000000+00:00</time></trkpt><trkpt lat="34.9571342" lon="32.8356004"><ele>1343.5</ele><time>2015-04-30T07:47:44.0000000+00:00</time></trkpt><trkpt lat="34.9571172" lon="32.8355352"><ele>1344.1</ele><time>2015-04-30T07:47:48.0000000+00:00</time></trkpt><trkpt lat="34.9571009" lon="32.835464"><ele>1341.2</ele><time>2015-04-30T07:47:52.0000000+00:00</time></trkpt><trkpt lat="34.9570934" lon="32.835403"><ele>1340.8</ele><time>2015-04-30T07:47:55.0000000+00:00</time></trkpt><trkpt lat="34.9570854" lon="32.8353433"><ele>1341.1</ele><time>2015-04-30T07:47:58.0000000+00:00</time></trkpt><trkpt lat="34.9570825" lon="32.8352879"><ele>1343.7</ele><time>2015-04-30T07:48:01.0000000+00:00</time></trkpt><trkpt lat="34.9570847" lon="32.8352218"><ele>1345.8</ele><time>2015-04-30T07:48:05.0000000+00:00</time></trkpt><trkpt lat="34.9571078" lon="32.8351494"><ele>1346.5</ele><time>2015-04-30T07:48:09.0000000+00:00</time></trkpt><trkpt lat="34.9571325" lon="32.8350846"><ele>1344.4</ele><time>2015-04-30T07:48:12.0000000+00:00</time></trkpt><trkpt lat="34.9571611" lon="32.8350248"><ele>1343.0</ele><time>2015-04-30T07:48:15.0000000+00:00</time></trkpt><trkpt lat="34.9571904" lon="32.834974"><ele>1343.0</ele><time>2015-04-30T07:48:18.0000000+00:00</time></trkpt><trkpt lat="34.9572096" lon="32.8349094"><ele>1341.9</ele><time>2015-04-30T07:48:22.0000000+00:00</time></trkpt><trkpt lat="34.9572548" lon="32.8348646"><ele>1342.3</ele><time>2015-04-30T07:48:26.0000000+00:00</time></trkpt><trkpt lat="34.9572849" lon="32.8348131"><ele>1339.1</ele><time>2015-04-30T07:48:31.0000000+00:00</time></trkpt><trkpt lat="34.9573238" lon="32.8347678"><ele>1337.0</ele><time>2015-04-30T07:48:37.0000000+00:00</time></trkpt><trkpt lat="34.9573583" lon="32.8347229"><ele>1336.8</ele><time>2015-04-30T07:48:41.0000000+00:00</time></trkpt><trkpt lat="34.9574056" lon="32.834678"><ele>1337.5</ele><time>2015-04-30T07:48:45.0000000+00:00</time></trkpt><trkpt lat="34.9574394" lon="32.8346394"><ele>1336.1</ele><time>2015-04-30T07:48:48.0000000+00:00</time></trkpt><trkpt lat="34.9574717" lon="32.8345987"><ele>1335.8</ele><time>2015-04-30T07:48:51.0000000+00:00</time></trkpt><trkpt lat="34.9575065" lon="32.8345527"><ele>1336.4</ele><time>2015-04-30T07:48:54.0000000+00:00</time></trkpt><trkpt lat="34.9575354" lon="32.8345092"><ele>1336.7</ele><time>2015-04-30T07:48:57.0000000+00:00</time></trkpt><trkpt lat="34.9575544" lon="32.8344427"><ele>1337.6</ele><time>2015-04-30T07:49:01.0000000+00:00</time></trkpt><trkpt lat="34.9575579" lon="32.8343709"><ele>1338.3</ele><time>2015-04-30T07:49:05.0000000+00:00</time></trkpt><trkpt lat="34.9575466" lon="32.8343174"><ele>1339.6</ele><time>2015-04-30T07:49:08.0000000+00:00</time></trkpt><trkpt lat="34.9575207" lon="32.8342524"><ele>1341.9</ele><time>2015-04-30T07:49:12.0000000+00:00</time></trkpt><trkpt lat="34.9574907" lon="32.8341996"><ele>1343.6</ele><time>2015-04-30T07:49:16.0000000+00:00</time></trkpt><trkpt lat="34.957445" lon="32.8341736"><ele>1344.3</ele><time>2015-04-30T07:49:20.0000000+00:00</time></trkpt><trkpt lat="34.9573896" lon="32.8341559"><ele>1344.7</ele><time>2015-04-30T07:49:24.0000000+00:00</time></trkpt><trkpt lat="34.9573313" lon="32.8341455"><ele>1345.6</ele><time>2015-04-30T07:49:28.0000000+00:00</time></trkpt><trkpt lat="34.9572743" lon="32.8341452"><ele>1347.9</ele><time>2015-04-30T07:49:32.0000000+00:00</time></trkpt><trkpt lat="34.957219" lon="32.8341484"><ele>1348.0</ele><time>2015-04-30T07:49:36.0000000+00:00</time></trkpt><trkpt lat="34.9571603" lon="32.8341456"><ele>1349.5</ele><time>2015-04-30T07:49:40.0000000+00:00</time></trkpt><trkpt lat="34.9571149" lon="32.8341384"><ele>1349.2</ele><time>2015-04-30T07:49:43.0000000+00:00</time></trkpt><trkpt lat="34.9570611" lon="32.8341236"><ele>1349.7</ele><time>2015-04-30T07:49:47.0000000+00:00</time></trkpt><trkpt lat="34.9570075" lon="32.8341147"><ele>1349.3</ele><time>2015-04-30T07:49:51.0000000+00:00</time></trkpt><trkpt lat="34.9569617" lon="32.8340949"><ele>1348.5</ele><time>2015-04-30T07:49:54.0000000+00:00</time></trkpt><trkpt lat="34.9569106" lon="32.8340612"><ele>1350.4</ele><time>2015-04-30T07:49:58.0000000+00:00</time></trkpt><trkpt lat="34.9568606" lon="32.8340293"><ele>1351.0</ele><time>2015-04-30T07:50:02.0000000+00:00</time></trkpt><trkpt lat="34.9568043" lon="32.8340221"><ele>1352.5</ele><time>2015-04-30T07:50:06.0000000+00:00</time></trkpt><trkpt lat="34.9567576" lon="32.8340095"><ele>1352.8</ele><time>2015-04-30T07:50:11.0000000+00:00</time></trkpt><trkpt lat="34.9567113" lon="32.8339688"><ele>1352.8</ele><time>2015-04-30T07:50:16.0000000+00:00</time></trkpt><trkpt lat="34.9566647" lon="32.8339438"><ele>1354.1</ele><time>2015-04-30T07:50:20.0000000+00:00</time></trkpt><trkpt lat="34.9566159" lon="32.8339303"><ele>1355.6</ele><time>2015-04-30T07:50:24.0000000+00:00</time></trkpt><trkpt lat="34.9565678" lon="32.833922"><ele>1355.6</ele><time>2015-04-30T07:50:28.0000000+00:00</time></trkpt><trkpt lat="34.9565225" lon="32.833924"><ele>1355.8</ele><time>2015-04-30T07:50:32.0000000+00:00</time></trkpt><trkpt lat="34.9564777" lon="32.8339132"><ele>1355.2</ele><time>2015-04-30T07:50:36.0000000+00:00</time></trkpt><trkpt lat="34.9564301" lon="32.8338922"><ele>1354.9</ele><time>2015-04-30T07:50:40.0000000+00:00</time></trkpt><trkpt lat="34.9563832" lon="32.8338819"><ele>1355.8</ele><time>2015-04-30T07:50:44.0000000+00:00</time></trkpt><trkpt lat="34.956333" lon="32.8338792"><ele>1356.7</ele><time>2015-04-30T07:50:48.0000000+00:00</time></trkpt><trkpt lat="34.9562852" lon="32.8338823"><ele>1356.8</ele><time>2015-04-30T07:50:52.0000000+00:00</time></trkpt><trkpt lat="34.9562316" lon="32.8338777"><ele>1355.8</ele><time>2015-04-30T07:50:56.0000000+00:00</time></trkpt><trkpt lat="34.9561737" lon="32.8338888"><ele>1355.0</ele><time>2015-04-30T07:51:00.0000000+00:00</time></trkpt><trkpt lat="34.9561296" lon="32.8339"><ele>1354.5</ele><time>2015-04-30T07:51:03.0000000+00:00</time></trkpt><trkpt lat="34.9560726" lon="32.8339153"><ele>1355.3</ele><time>2015-04-30T07:51:07.0000000+00:00</time></trkpt><trkpt lat="34.9560185" lon="32.8339443"><ele>1355.2</ele><time>2015-04-30T07:51:11.0000000+00:00</time></trkpt><trkpt lat="34.9559684" lon="32.8339807"><ele>1355.9</ele><time>2015-04-30T07:51:15.0000000+00:00</time></trkpt><trkpt lat="34.9559231" lon="32.833993"><ele>1356.3</ele><time>2015-04-30T07:51:19.0000000+00:00</time></trkpt><trkpt lat="34.9558827" lon="32.8340214"><ele>1357.5</ele><time>2015-04-30T07:51:24.0000000+00:00</time></trkpt><trkpt lat="34.9558364" lon="32.8340616"><ele>1357.5</ele><time>2015-04-30T07:51:29.0000000+00:00</time></trkpt><trkpt lat="34.9557987" lon="32.8340978"><ele>1357.7</ele><time>2015-04-30T07:51:33.0000000+00:00</time></trkpt><trkpt lat="34.9557569" lon="32.8341193"><ele>1358.5</ele><time>2015-04-30T07:51:37.0000000+00:00</time></trkpt><trkpt lat="34.9557109" lon="32.83416"><ele>1358.9</ele><time>2015-04-30T07:51:41.0000000+00:00</time></trkpt><trkpt lat="34.9556698" lon="32.8341891"><ele>1357.5</ele><time>2015-04-30T07:51:44.0000000+00:00</time></trkpt><trkpt lat="34.9556196" lon="32.8342061"><ele>1358.9</ele><time>2015-04-30T07:51:48.0000000+00:00</time></trkpt><trkpt lat="34.9555795" lon="32.8342368"><ele>1359.7</ele><time>2015-04-30T07:51:52.0000000+00:00</time></trkpt><trkpt lat="34.9555295" lon="32.8342594"><ele>1360.7</ele><time>2015-04-30T07:51:56.0000000+00:00</time></trkpt><trkpt lat="34.9554963" lon="32.8342966"><ele>1361.3</ele><time>2015-04-30T07:51:59.0000000+00:00</time></trkpt><trkpt lat="34.9554468" lon="32.834322"><ele>1361.5</ele><time>2015-04-30T07:52:03.0000000+00:00</time></trkpt><trkpt lat="34.9554019" lon="32.8343512"><ele>1361.6</ele><time>2015-04-30T07:52:09.0000000+00:00</time></trkpt><trkpt lat="34.9553631" lon="32.8343898"><ele>1362.6</ele><time>2015-04-30T07:52:14.0000000+00:00</time></trkpt><trkpt lat="34.9553245" lon="32.8344274"><ele>1363.1</ele><time>2015-04-30T07:52:18.0000000+00:00</time></trkpt><trkpt lat="34.9552863" lon="32.8344691"><ele>1363.9</ele><time>2015-04-30T07:52:22.0000000+00:00</time></trkpt><trkpt lat="34.9552529" lon="32.834506"><ele>1363.3</ele><time>2015-04-30T07:52:25.0000000+00:00</time></trkpt><trkpt lat="34.9552041" lon="32.834541"><ele>1364.2</ele><time>2015-04-30T07:52:29.0000000+00:00</time></trkpt><trkpt lat="34.9551585" lon="32.8345678"><ele>1364.7</ele><time>2015-04-30T07:52:33.0000000+00:00</time></trkpt><trkpt lat="34.9551079" lon="32.8345907"><ele>1365.3</ele><time>2015-04-30T07:52:38.0000000+00:00</time></trkpt><trkpt lat="34.9550745" lon="32.8346294"><ele>1366.9</ele><time>2015-04-30T07:52:44.0000000+00:00</time></trkpt><trkpt lat="34.9550273" lon="32.8346479"><ele>1367.3</ele><time>2015-04-30T07:52:50.0000000+00:00</time></trkpt><trkpt lat="34.9549841" lon="32.8346772"><ele>1367.1</ele><time>2015-04-30T07:52:55.0000000+00:00</time></trkpt><trkpt lat="34.9549471" lon="32.834715"><ele>1367.5</ele><time>2015-04-30T07:52:59.0000000+00:00</time></trkpt><trkpt lat="34.9549094" lon="32.8347477"><ele>1367.7</ele><time>2015-04-30T07:53:03.0000000+00:00</time></trkpt><trkpt lat="34.9548696" lon="32.8347765"><ele>1367.8</ele><time>2015-04-30T07:53:07.0000000+00:00</time></trkpt><trkpt lat="34.9548227" lon="32.8348138"><ele>1367.8</ele><time>2015-04-30T07:53:12.0000000+00:00</time></trkpt><trkpt lat="34.9547744" lon="32.8348416"><ele>1367.0</ele><time>2015-04-30T07:53:17.0000000+00:00</time></trkpt><trkpt lat="34.9547267" lon="32.8348681"><ele>1366.8</ele><time>2015-04-30T07:53:22.0000000+00:00</time></trkpt><trkpt lat="34.9546762" lon="32.8348922"><ele>1366.8</ele><time>2015-04-30T07:53:27.0000000+00:00</time></trkpt><trkpt lat="34.9546298" lon="32.8349171"><ele>1367.6</ele><time>2015-04-30T07:53:31.0000000+00:00</time></trkpt><trkpt lat="34.9545762" lon="32.8349293"><ele>1369.4</ele><time>2015-04-30T07:53:35.0000000+00:00</time></trkpt><trkpt lat="34.9545196" lon="32.8349357"><ele>1370.6</ele><time>2015-04-30T07:53:39.0000000+00:00</time></trkpt><trkpt lat="34.9544644" lon="32.8349483"><ele>1371.7</ele><time>2015-04-30T07:53:43.0000000+00:00</time></trkpt><trkpt lat="34.9544108" lon="32.8349586"><ele>1371.8</ele><time>2015-04-30T07:53:47.0000000+00:00</time></trkpt><trkpt lat="34.9543524" lon="32.8349487"><ele>1371.8</ele><time>2015-04-30T07:53:51.0000000+00:00</time></trkpt><trkpt lat="34.954305" lon="32.8349468"><ele>1372.6</ele><time>2015-04-30T07:53:54.0000000+00:00</time></trkpt><trkpt lat="34.9542566" lon="32.8349468"><ele>1373.5</ele><time>2015-04-30T07:53:57.0000000+00:00</time></trkpt><trkpt lat="34.9542091" lon="32.8349515"><ele>1376.1</ele><time>2015-04-30T07:54:00.0000000+00:00</time></trkpt><trkpt lat="34.9541498" lon="32.8349517"><ele>1377.0</ele><time>2015-04-30T07:54:04.0000000+00:00</time></trkpt><trkpt lat="34.9540988" lon="32.8349318"><ele>1376.8</ele><time>2015-04-30T07:54:08.0000000+00:00</time></trkpt><trkpt lat="34.9540554" lon="32.8349169"><ele>1379.0</ele><time>2015-04-30T07:54:11.0000000+00:00</time></trkpt><trkpt lat="34.954003" lon="32.8349031"><ele>1380.5</ele><time>2015-04-30T07:54:15.0000000+00:00</time></trkpt><trkpt lat="34.9539492" lon="32.8348823"><ele>1381.6</ele><time>2015-04-30T07:54:19.0000000+00:00</time></trkpt><trkpt lat="34.953902" lon="32.8348657"><ele>1377.1</ele><time>2015-04-30T07:54:23.0000000+00:00</time></trkpt><trkpt lat="34.953854" lon="32.834851"><ele>1376.1</ele><time>2015-04-30T07:54:28.0000000+00:00</time></trkpt><trkpt lat="34.9538171" lon="32.8348049"><ele>1377.4</ele><time>2015-04-30T07:54:33.0000000+00:00</time></trkpt><trkpt lat="34.9537893" lon="32.8347456"><ele>1378.4</ele><time>2015-04-30T07:54:37.0000000+00:00</time></trkpt><trkpt lat="34.9537599" lon="32.8346965"><ele>1379.5</ele><time>2015-04-30T07:54:40.0000000+00:00</time></trkpt><trkpt lat="34.9537365" lon="32.8346478"><ele>1381.4</ele><time>2015-04-30T07:54:43.0000000+00:00</time></trkpt><trkpt lat="34.9537192" lon="32.8345894"><ele>1382.0</ele><time>2015-04-30T07:54:46.0000000+00:00</time></trkpt><trkpt lat="34.9536908" lon="32.8345253"><ele>1374.8</ele><time>2015-04-30T07:54:49.0000000+00:00</time></trkpt><trkpt lat="34.9536602" lon="32.8344565"><ele>1373.8</ele><time>2015-04-30T07:54:52.0000000+00:00</time></trkpt><trkpt lat="34.9536409" lon="32.8343962"><ele>1374.0</ele><time>2015-04-30T07:54:55.0000000+00:00</time></trkpt><trkpt lat="34.9536336" lon="32.8343384"><ele>1374.0</ele><time>2015-04-30T07:54:58.0000000+00:00</time></trkpt><trkpt lat="34.9536106" lon="32.8342861"><ele>1373.8</ele><time>2015-04-30T07:55:01.0000000+00:00</time></trkpt><trkpt lat="34.9536096" lon="32.8342129"><ele>1372.0</ele><time>2015-04-30T07:55:05.0000000+00:00</time></trkpt><trkpt lat="34.9535958" lon="32.8341458"><ele>1372.7</ele><time>2015-04-30T07:55:09.0000000+00:00</time></trkpt><trkpt lat="34.9535816" lon="32.8340907"><ele>1374.1</ele><time>2015-04-30T07:55:12.0000000+00:00</time></trkpt><trkpt lat="34.9535685" lon="32.8340209"><ele>1374.7</ele><time>2015-04-30T07:55:16.0000000+00:00</time></trkpt><trkpt lat="34.9535491" lon="32.8339562"><ele>1375.7</ele><time>2015-04-30T07:55:20.0000000+00:00</time></trkpt><trkpt lat="34.9535024" lon="32.8339091"><ele>1377.4</ele><time>2015-04-30T07:55:24.0000000+00:00</time></trkpt><trkpt lat="34.9534574" lon="32.8338816"><ele>1379.0</ele><time>2015-04-30T07:55:27.0000000+00:00</time></trkpt><trkpt lat="34.9534134" lon="32.8338525"><ele>1378.3</ele><time>2015-04-30T07:55:31.0000000+00:00</time></trkpt><trkpt lat="34.9533692" lon="32.833831"><ele>1378.9</ele><time>2015-04-30T07:55:35.0000000+00:00</time></trkpt><trkpt lat="34.9533197" lon="32.8338086"><ele>1379.6</ele><time>2015-04-30T07:55:40.0000000+00:00</time></trkpt><trkpt lat="34.9532718" lon="32.8337955"><ele>1382.2</ele><time>2015-04-30T07:55:45.0000000+00:00</time></trkpt><trkpt lat="34.9532229" lon="32.833782"><ele>1382.9</ele><time>2015-04-30T07:55:50.0000000+00:00</time></trkpt><trkpt lat="34.9531674" lon="32.8337785"><ele>1383.7</ele><time>2015-04-30T07:55:55.0000000+00:00</time></trkpt><trkpt lat="34.9531176" lon="32.8337642"><ele>1383.5</ele><time>2015-04-30T07:55:59.0000000+00:00</time></trkpt><trkpt lat="34.9530631" lon="32.8337417"><ele>1383.9</ele><time>2015-04-30T07:56:03.0000000+00:00</time></trkpt><trkpt lat="34.9530117" lon="32.8337296"><ele>1384.7</ele><time>2015-04-30T07:56:07.0000000+00:00</time></trkpt><trkpt lat="34.9529602" lon="32.833722"><ele>1386.5</ele><time>2015-04-30T07:56:11.0000000+00:00</time></trkpt><trkpt lat="34.95291" lon="32.8337138"><ele>1384.5</ele><time>2015-04-30T07:56:15.0000000+00:00</time></trkpt><trkpt lat="34.9528557" lon="32.8337074"><ele>1385.6</ele><time>2015-04-30T07:56:20.0000000+00:00</time></trkpt><trkpt lat="34.9528097" lon="32.8337088"><ele>1385.5</ele><time>2015-04-30T07:56:24.0000000+00:00</time></trkpt><trkpt lat="34.9527605" lon="32.8337002"><ele>1384.1</ele><time>2015-04-30T07:56:28.0000000+00:00</time></trkpt><trkpt lat="34.9527174" lon="32.8336771"><ele>1387.3</ele><time>2015-04-30T07:56:32.0000000+00:00</time></trkpt><trkpt lat="34.9526797" lon="32.833626"><ele>1387.2</ele><time>2015-04-30T07:56:37.0000000+00:00</time></trkpt><trkpt lat="34.9526519" lon="32.8335769"><ele>1390.1</ele><time>2015-04-30T07:56:41.0000000+00:00</time></trkpt><trkpt lat="34.9526144" lon="32.83353"><ele>1391.9</ele><time>2015-04-30T07:56:45.0000000+00:00</time></trkpt><trkpt lat="34.952601" lon="32.8334742"><ele>1391.1</ele><time>2015-04-30T07:56:49.0000000+00:00</time></trkpt><trkpt lat="34.9525994" lon="32.8334114"><ele>1390.3</ele><time>2015-04-30T07:56:53.0000000+00:00</time></trkpt><trkpt lat="34.9525897" lon="32.833347"><ele>1389.8</ele><time>2015-04-30T07:56:57.0000000+00:00</time></trkpt><trkpt lat="34.9525819" lon="32.8332797"><ele>1389.6</ele><time>2015-04-30T07:57:01.0000000+00:00</time></trkpt><trkpt lat="34.952561" lon="32.8332291"><ele>1390.6</ele><time>2015-04-30T07:57:04.0000000+00:00</time></trkpt><trkpt lat="34.9525278" lon="32.8331774"><ele>1391.7</ele><time>2015-04-30T07:57:08.0000000+00:00</time></trkpt><trkpt lat="34.9524973" lon="32.8331273"><ele>1392.6</ele><time>2015-04-30T07:57:12.0000000+00:00</time></trkpt><trkpt lat="34.9524471" lon="32.8330909"><ele>1394.9</ele><time>2015-04-30T07:57:16.0000000+00:00</time></trkpt><trkpt lat="34.9523914" lon="32.833075"><ele>1395.7</ele><time>2015-04-30T07:57:20.0000000+00:00</time></trkpt><trkpt lat="34.9523398" lon="32.8330813"><ele>1396.6</ele><time>2015-04-30T07:57:24.0000000+00:00</time></trkpt><trkpt lat="34.9522872" lon="32.8330966"><ele>1395.9</ele><time>2015-04-30T07:57:28.0000000+00:00</time></trkpt><trkpt lat="34.9522396" lon="32.8331319"><ele>1396.6</ele><time>2015-04-30T07:57:32.0000000+00:00</time></trkpt><trkpt lat="34.952193" lon="32.8331555"><ele>1398.5</ele><time>2015-04-30T07:57:36.0000000+00:00</time></trkpt><trkpt lat="34.9521408" lon="32.833172"><ele>1400.2</ele><time>2015-04-30T07:57:40.0000000+00:00</time></trkpt><trkpt lat="34.952089" lon="32.8332009"><ele>1399.4</ele><time>2015-04-30T07:57:44.0000000+00:00</time></trkpt><trkpt lat="34.9520438" lon="32.8332141"><ele>1399.6</ele><time>2015-04-30T07:57:47.0000000+00:00</time></trkpt><trkpt lat="34.9519874" lon="32.8332302"><ele>1398.9</ele><time>2015-04-30T07:57:51.0000000+00:00</time></trkpt><trkpt lat="34.951939" lon="32.8332219"><ele>1399.5</ele><time>2015-04-30T07:57:54.0000000+00:00</time></trkpt><trkpt lat="34.9518891" lon="32.8332212"><ele>1401.5</ele><time>2015-04-30T07:57:57.0000000+00:00</time></trkpt><trkpt lat="34.9518317" lon="32.8332221"><ele>1401.7</ele><time>2015-04-30T07:58:01.0000000+00:00</time></trkpt><trkpt lat="34.9517746" lon="32.8332204"><ele>1401.5</ele><time>2015-04-30T07:58:05.0000000+00:00</time></trkpt><trkpt lat="34.9517181" lon="32.8332203"><ele>1403.6</ele><time>2015-04-30T07:58:09.0000000+00:00</time></trkpt><trkpt lat="34.9516616" lon="32.8332298"><ele>1403.4</ele><time>2015-04-30T07:58:13.0000000+00:00</time></trkpt><trkpt lat="34.9516171" lon="32.8332398"><ele>1404.5</ele><time>2015-04-30T07:58:16.0000000+00:00</time></trkpt><trkpt lat="34.95157" lon="32.8332452"><ele>1405.6</ele><time>2015-04-30T07:58:19.0000000+00:00</time></trkpt><trkpt lat="34.9515233" lon="32.8332436"><ele>1406.1</ele><time>2015-04-30T07:58:22.0000000+00:00</time></trkpt><trkpt lat="34.9514704" lon="32.8332577"><ele>1405.8</ele><time>2015-04-30T07:58:26.0000000+00:00</time></trkpt><trkpt lat="34.9514273" lon="32.8332801"><ele>1405.0</ele><time>2015-04-30T07:58:29.0000000+00:00</time></trkpt><trkpt lat="34.9513826" lon="32.833292"><ele>1404.7</ele><time>2015-04-30T07:58:32.0000000+00:00</time></trkpt><trkpt lat="34.9513246" lon="32.833308"><ele>1403.3</ele><time>2015-04-30T07:58:36.0000000+00:00</time></trkpt><trkpt lat="34.951271" lon="32.8333169"><ele>1402.8</ele><time>2015-04-30T07:58:39.0000000+00:00</time></trkpt><trkpt lat="34.951223" lon="32.8333473"><ele>1401.6</ele><time>2015-04-30T07:58:43.0000000+00:00</time></trkpt><trkpt lat="34.9511793" lon="32.8333787"><ele>1402.0</ele><time>2015-04-30T07:58:47.0000000+00:00</time></trkpt><trkpt lat="34.9511327" lon="32.833408"><ele>1402.7</ele><time>2015-04-30T07:58:51.0000000+00:00</time></trkpt><trkpt lat="34.9510904" lon="32.833452"><ele>1402.8</ele><time>2015-04-30T07:58:55.0000000+00:00</time></trkpt><trkpt lat="34.9510384" lon="32.8334743"><ele>1402.5</ele><time>2015-04-30T07:58:58.0000000+00:00</time></trkpt><trkpt lat="34.9509827" lon="32.8334939"><ele>1403.5</ele><time>2015-04-30T07:59:01.0000000+00:00</time></trkpt><trkpt lat="34.9509251" lon="32.833523"><ele>1403.2</ele><time>2015-04-30T07:59:04.0000000+00:00</time></trkpt><trkpt lat="34.9508598" lon="32.8335437"><ele>1402.8</ele><time>2015-04-30T07:59:07.0000000+00:00</time></trkpt><trkpt lat="34.9507932" lon="32.8335552"><ele>1402.3</ele><time>2015-04-30T07:59:09.0000000+00:00</time></trkpt><trkpt lat="34.950723" lon="32.8335522"><ele>1402.1</ele><time>2015-04-30T07:59:11.0000000+00:00</time></trkpt><trkpt lat="34.9506546" lon="32.8335299"><ele>1402.6</ele><time>2015-04-30T07:59:13.0000000+00:00</time></trkpt><trkpt lat="34.9505916" lon="32.8334923"><ele>1402.0</ele><time>2015-04-30T07:59:15.0000000+00:00</time></trkpt><trkpt lat="34.950532" lon="32.8334353"><ele>1402.3</ele><time>2015-04-30T07:59:17.0000000+00:00</time></trkpt><trkpt lat="34.9504856" lon="32.8333707"><ele>1402.9</ele><time>2015-04-30T07:59:19.0000000+00:00</time></trkpt><trkpt lat="34.9504472" lon="32.833303"><ele>1404.8</ele><time>2015-04-30T07:59:21.0000000+00:00</time></trkpt><trkpt lat="34.9504126" lon="32.8332466"><ele>1406.3</ele><time>2015-04-30T07:59:23.0000000+00:00</time></trkpt><trkpt lat="34.9503695" lon="32.8331969"><ele>1406.1</ele><time>2015-04-30T07:59:25.0000000+00:00</time></trkpt><trkpt lat="34.9503315" lon="32.8331463"><ele>1406.1</ele><time>2015-04-30T07:59:27.0000000+00:00</time></trkpt><trkpt lat="34.9502955" lon="32.8330996"><ele>1405.1</ele><time>2015-04-30T07:59:29.0000000+00:00</time></trkpt><trkpt lat="34.9502613" lon="32.833058"><ele>1405.6</ele><time>2015-04-30T07:59:31.0000000+00:00</time></trkpt><trkpt lat="34.9502344" lon="32.8330052"><ele>1406.2</ele><time>2015-04-30T07:59:33.0000000+00:00</time></trkpt><trkpt lat="34.9502098" lon="32.8329532"><ele>1405.6</ele><time>2015-04-30T07:59:35.0000000+00:00</time></trkpt><trkpt lat="34.950188" lon="32.832897"><ele>1404.7</ele><time>2015-04-30T07:59:37.0000000+00:00</time></trkpt><trkpt lat="34.9501664" lon="32.8328483"><ele>1404.8</ele><time>2015-04-30T07:59:39.0000000+00:00</time></trkpt><trkpt lat="34.9501319" lon="32.8328082"><ele>1406.6</ele><time>2015-04-30T07:59:46.0000000+00:00</time></trkpt><trkpt lat="34.9501075" lon="32.8327593"><ele>1408.7</ele><time>2015-04-30T07:59:48.0000000+00:00</time></trkpt><trkpt lat="34.950081" lon="32.8327098"><ele>1409.5</ele><time>2015-04-30T07:59:50.0000000+00:00</time></trkpt><trkpt lat="34.9500438" lon="32.8326701"><ele>1409.9</ele><time>2015-04-30T07:59:52.0000000+00:00</time></trkpt><trkpt lat="34.9499999" lon="32.8326439"><ele>1409.6</ele><time>2015-04-30T07:59:54.0000000+00:00</time></trkpt><trkpt lat="34.9499434" lon="32.8326376"><ele>1412.2</ele><time>2015-04-30T07:59:57.0000000+00:00</time></trkpt><trkpt lat="34.9498956" lon="32.8326227"><ele>1411.5</ele><time>2015-04-30T08:00:18.0000000+00:00</time></trkpt><trkpt lat="34.9498521" lon="32.8325861"><ele>1411.4</ele><time>2015-04-30T08:00:24.0000000+00:00</time></trkpt><trkpt lat="34.9498187" lon="32.8325425"><ele>1412.2</ele><time>2015-04-30T08:00:30.0000000+00:00</time></trkpt><trkpt lat="34.9498147" lon="32.8324868"><ele>1412.5</ele><time>2015-04-30T08:00:34.0000000+00:00</time></trkpt><trkpt lat="34.9498086" lon="32.8324218"><ele>1411.9</ele><time>2015-04-30T08:00:39.0000000+00:00</time></trkpt><trkpt lat="34.9497976" lon="32.8323681"><ele>1411.9</ele><time>2015-04-30T08:00:48.0000000+00:00</time></trkpt><trkpt lat="34.9497777" lon="32.8324199"><ele>1417.6</ele><time>2015-04-30T08:03:36.0000000+00:00</time></trkpt><trkpt lat="34.9497818" lon="32.832363"><ele>1410.8</ele><time>2015-04-30T08:08:20.0000000+00:00</time></trkpt><trkpt lat="34.9498247" lon="32.8323826"><ele>1415.4</ele><time>2015-04-30T08:10:20.0000000+00:00</time></trkpt><trkpt lat="34.9498285" lon="32.8324382"><ele>1420.7</ele><time>2015-04-30T08:10:50.0000000+00:00</time></trkpt><trkpt lat="34.9498438" lon="32.8324903"><ele>1420.6</ele><time>2015-04-30T08:10:56.0000000+00:00</time></trkpt><trkpt lat="34.9498724" lon="32.8325394"><ele>1420.4</ele><time>2015-04-30T08:11:00.0000000+00:00</time></trkpt><trkpt lat="34.949906" lon="32.8325924"><ele>1421.7</ele><time>2015-04-30T08:11:04.0000000+00:00</time></trkpt><trkpt lat="34.9499442" lon="32.8326441"><ele>1421.8</ele><time>2015-04-30T08:11:08.0000000+00:00</time></trkpt><trkpt lat="34.9499827" lon="32.8326842"><ele>1422.0</ele><time>2015-04-30T08:11:11.0000000+00:00</time></trkpt><trkpt lat="34.9500207" lon="32.8327364"><ele>1422.0</ele><time>2015-04-30T08:11:14.0000000+00:00</time></trkpt><trkpt lat="34.9500484" lon="32.8327923"><ele>1421.9</ele><time>2015-04-30T08:11:17.0000000+00:00</time></trkpt><trkpt lat="34.9500738" lon="32.832856"><ele>1422.5</ele><time>2015-04-30T08:11:21.0000000+00:00</time></trkpt><trkpt lat="34.9500989" lon="32.8329123"><ele>1424.1</ele><time>2015-04-30T08:11:25.0000000+00:00</time></trkpt><trkpt lat="34.950122" lon="32.83297"><ele>1423.8</ele><time>2015-04-30T08:11:29.0000000+00:00</time></trkpt><trkpt lat="34.9501506" lon="32.8330249"><ele>1423.8</ele><time>2015-04-30T08:11:33.0000000+00:00</time></trkpt><trkpt lat="34.9501792" lon="32.8330812"><ele>1424.3</ele><time>2015-04-30T08:11:38.0000000+00:00</time></trkpt><trkpt lat="34.9501957" lon="32.8331328"><ele>1426.0</ele><time>2015-04-30T08:11:42.0000000+00:00</time></trkpt><trkpt lat="34.9502194" lon="32.833185"><ele>1428.0</ele><time>2015-04-30T08:11:46.0000000+00:00</time></trkpt><trkpt lat="34.950244" lon="32.8332374"><ele>1427.9</ele><time>2015-04-30T08:11:51.0000000+00:00</time></trkpt><trkpt lat="34.9502743" lon="32.8332806"><ele>1426.8</ele><time>2015-04-30T08:11:58.0000000+00:00</time></trkpt><trkpt lat="34.9502935" lon="32.8333341"><ele>1424.2</ele><time>2015-04-30T08:12:04.0000000+00:00</time></trkpt><trkpt lat="34.9503134" lon="32.8333867"><ele>1423.8</ele><time>2015-04-30T08:12:09.0000000+00:00</time></trkpt><trkpt lat="34.9503104" lon="32.8334451"><ele>1420.9</ele><time>2015-04-30T08:12:20.0000000+00:00</time></trkpt><trkpt lat="34.9503115" lon="32.8335123"><ele>1422.3</ele><time>2015-04-30T08:12:24.0000000+00:00</time></trkpt><trkpt lat="34.950317" lon="32.8335791"><ele>1422.4</ele><time>2015-04-30T08:12:28.0000000+00:00</time></trkpt><trkpt lat="34.9503339" lon="32.833634"><ele>1419.9</ele><time>2015-04-30T08:12:32.0000000+00:00</time></trkpt><trkpt lat="34.9503149" lon="32.8336977"><ele>1417.2</ele><time>2015-04-30T08:12:37.0000000+00:00</time></trkpt><trkpt lat="34.9503033" lon="32.8337616"><ele>1416.6</ele><time>2015-04-30T08:12:42.0000000+00:00</time></trkpt><trkpt lat="34.9502859" lon="32.8338216"><ele>1420.1</ele><time>2015-04-30T08:12:48.0000000+00:00</time></trkpt><trkpt lat="34.9502659" lon="32.833887"><ele>1417.9</ele><time>2015-04-30T08:12:53.0000000+00:00</time></trkpt><trkpt lat="34.9502492" lon="32.8339464"><ele>1416.8</ele><time>2015-04-30T08:12:58.0000000+00:00</time></trkpt><trkpt lat="34.9502424" lon="32.8340013"><ele>1418.8</ele><time>2015-04-30T08:13:04.0000000+00:00</time></trkpt><trkpt lat="34.9502226" lon="32.8340608"><ele>1420.5</ele><time>2015-04-30T08:13:13.0000000+00:00</time></trkpt><trkpt lat="34.9502005" lon="32.8341095"><ele>1422.4</ele><time>2015-04-30T08:13:17.0000000+00:00</time></trkpt><trkpt lat="34.9501748" lon="32.8341682"><ele>1426.2</ele><time>2015-04-30T08:13:21.0000000+00:00</time></trkpt><trkpt lat="34.9501484" lon="32.834229"><ele>1425.1</ele><time>2015-04-30T08:13:26.0000000+00:00</time></trkpt><trkpt lat="34.9501371" lon="32.8342953"><ele>1425.8</ele><time>2015-04-30T08:13:30.0000000+00:00</time></trkpt><trkpt lat="34.9501193" lon="32.8343513"><ele>1429.7</ele><time>2015-04-30T08:13:35.0000000+00:00</time></trkpt><trkpt lat="34.9500951" lon="32.8344014"><ele>1432.7</ele><time>2015-04-30T08:13:39.0000000+00:00</time></trkpt><trkpt lat="34.9500612" lon="32.8344537"><ele>1433.8</ele><time>2015-04-30T08:13:44.0000000+00:00</time></trkpt><trkpt lat="34.9500245" lon="32.834506"><ele>1427.4</ele><time>2015-04-30T08:13:49.0000000+00:00</time></trkpt><trkpt lat="34.9499999" lon="32.8345591"><ele>1423.2</ele><time>2015-04-30T08:13:53.0000000+00:00</time></trkpt><trkpt lat="34.9499867" lon="32.8346271"><ele>1420.9</ele><time>2015-04-30T08:13:58.0000000+00:00</time></trkpt><trkpt lat="34.9499709" lon="32.8346798"><ele>1421.7</ele><time>2015-04-30T08:14:01.0000000+00:00</time></trkpt><trkpt lat="34.9499607" lon="32.8347358"><ele>1420.2</ele><time>2015-04-30T08:14:05.0000000+00:00</time></trkpt><trkpt lat="34.9499464" lon="32.8347961"><ele>1420.3</ele><time>2015-04-30T08:14:09.0000000+00:00</time></trkpt><trkpt lat="34.9499307" lon="32.8348592"><ele>1425.1</ele><time>2015-04-30T08:14:12.0000000+00:00</time></trkpt><trkpt lat="34.9499197" lon="32.8349202"><ele>1425.2</ele><time>2015-04-30T08:14:15.0000000+00:00</time></trkpt><trkpt lat="34.9499252" lon="32.8349776"><ele>1428.9</ele><time>2015-04-30T08:14:18.0000000+00:00</time></trkpt><trkpt lat="34.9499303" lon="32.8350329"><ele>1432.2</ele><time>2015-04-30T08:14:21.0000000+00:00</time></trkpt><trkpt lat="34.9499321" lon="32.8350923"><ele>1434.2</ele><time>2015-04-30T08:14:24.0000000+00:00</time></trkpt><trkpt lat="34.949936" lon="32.835149"><ele>1435.4</ele><time>2015-04-30T08:14:27.0000000+00:00</time></trkpt><trkpt lat="34.9499478" lon="32.8352111"><ele>1435.6</ele><time>2015-04-30T08:14:31.0000000+00:00</time></trkpt><trkpt lat="34.9499795" lon="32.8352584"><ele>1432.7</ele><time>2015-04-30T08:14:37.0000000+00:00</time></trkpt><trkpt lat="34.9500127" lon="32.8353002"><ele>1432.8</ele><time>2015-04-30T08:14:42.0000000+00:00</time></trkpt><trkpt lat="34.9500589" lon="32.8353255"><ele>1435.1</ele><time>2015-04-30T08:14:47.0000000+00:00</time></trkpt><trkpt lat="34.9501026" lon="32.8353517"><ele>1435.7</ele><time>2015-04-30T08:14:51.0000000+00:00</time></trkpt><trkpt lat="34.9501491" lon="32.8353531"><ele>1437.2</ele><time>2015-04-30T08:14:55.0000000+00:00</time></trkpt><trkpt lat="34.9502005" lon="32.8353579"><ele>1438.5</ele><time>2015-04-30T08:15:00.0000000+00:00</time></trkpt><trkpt lat="34.9502482" lon="32.8353693"><ele>1439.1</ele><time>2015-04-30T08:15:04.0000000+00:00</time></trkpt><trkpt lat="34.9502937" lon="32.8353552"><ele>1438.0</ele><time>2015-04-30T08:15:08.0000000+00:00</time></trkpt><trkpt lat="34.9503439" lon="32.8353596"><ele>1437.2</ele><time>2015-04-30T08:15:13.0000000+00:00</time></trkpt><trkpt lat="34.9503792" lon="32.8353234"><ele>1439.0</ele><time>2015-04-30T08:15:17.0000000+00:00</time></trkpt><trkpt lat="34.9504253" lon="32.8352988"><ele>1441.2</ele><time>2015-04-30T08:15:21.0000000+00:00</time></trkpt><trkpt lat="34.9504713" lon="32.8352746"><ele>1439.4</ele><time>2015-04-30T08:15:25.0000000+00:00</time></trkpt><trkpt lat="34.9505192" lon="32.8352668"><ele>1440.9</ele><time>2015-04-30T08:15:30.0000000+00:00</time></trkpt><trkpt lat="34.9505675" lon="32.8352401"><ele>1440.9</ele><time>2015-04-30T08:15:35.0000000+00:00</time></trkpt><trkpt lat="34.9506119" lon="32.835225"><ele>1440.3</ele><time>2015-04-30T08:15:39.0000000+00:00</time></trkpt><trkpt lat="34.9506632" lon="32.8352143"><ele>1436.7</ele><time>2015-04-30T08:15:45.0000000+00:00</time></trkpt><trkpt lat="34.9507143" lon="32.835213"><ele>1435.5</ele><time>2015-04-30T08:15:51.0000000+00:00</time></trkpt><trkpt lat="34.9507654" lon="32.835204"><ele>1432.2</ele><time>2015-04-30T08:15:56.0000000+00:00</time></trkpt><trkpt lat="34.9508054" lon="32.8351688"><ele>1436.7</ele><time>2015-04-30T08:16:00.0000000+00:00</time></trkpt><trkpt lat="34.9508504" lon="32.8351409"><ele>1441.3</ele><time>2015-04-30T08:16:05.0000000+00:00</time></trkpt><trkpt lat="34.9509022" lon="32.8351213"><ele>1443.6</ele><time>2015-04-30T08:16:09.0000000+00:00</time></trkpt><trkpt lat="34.9509554" lon="32.8351053"><ele>1443.9</ele><time>2015-04-30T08:16:13.0000000+00:00</time></trkpt><trkpt lat="34.9510032" lon="32.8350986"><ele>1441.7</ele><time>2015-04-30T08:16:17.0000000+00:00</time></trkpt><trkpt lat="34.9510505" lon="32.8350756"><ele>1440.2</ele><time>2015-04-30T08:16:21.0000000+00:00</time></trkpt><trkpt lat="34.9510918" lon="32.8350464"><ele>1443.6</ele><time>2015-04-30T08:16:27.0000000+00:00</time></trkpt><trkpt lat="34.9511362" lon="32.8350145"><ele>1447.2</ele><time>2015-04-30T08:16:33.0000000+00:00</time></trkpt><trkpt lat="34.9511815" lon="32.8350089"><ele>1449.2</ele><time>2015-04-30T08:16:37.0000000+00:00</time></trkpt><trkpt lat="34.9512326" lon="32.8350302"><ele>1450.7</ele><time>2015-04-30T08:16:41.0000000+00:00</time></trkpt><trkpt lat="34.9512815" lon="32.8350384"><ele>1450.6</ele><time>2015-04-30T08:16:44.0000000+00:00</time></trkpt><trkpt lat="34.9513403" lon="32.8350538"><ele>1449.3</ele><time>2015-04-30T08:16:48.0000000+00:00</time></trkpt><trkpt lat="34.951394" lon="32.8350606"><ele>1450.5</ele><time>2015-04-30T08:16:52.0000000+00:00</time></trkpt><trkpt lat="34.9514454" lon="32.8350653"><ele>1450.0</ele><time>2015-04-30T08:16:56.0000000+00:00</time></trkpt><trkpt lat="34.9515011" lon="32.8350763"><ele>1450.7</ele><time>2015-04-30T08:17:00.0000000+00:00</time></trkpt><trkpt lat="34.9515458" lon="32.8350951"><ele>1449.9</ele><time>2015-04-30T08:17:03.0000000+00:00</time></trkpt><trkpt lat="34.9515864" lon="32.8351223"><ele>1450.3</ele><time>2015-04-30T08:17:06.0000000+00:00</time></trkpt><trkpt lat="34.9516388" lon="32.8351482"><ele>1449.2</ele><time>2015-04-30T08:17:10.0000000+00:00</time></trkpt><trkpt lat="34.9516731" lon="32.8351908"><ele>1450.0</ele><time>2015-04-30T08:17:14.0000000+00:00</time></trkpt><trkpt lat="34.9517025" lon="32.8352455"><ele>1448.9</ele><time>2015-04-30T08:17:18.0000000+00:00</time></trkpt><trkpt lat="34.9517539" lon="32.8352748"><ele>1448.8</ele><time>2015-04-30T08:17:22.0000000+00:00</time></trkpt><trkpt lat="34.9518006" lon="32.8353074"><ele>1448.3</ele><time>2015-04-30T08:17:26.0000000+00:00</time></trkpt><trkpt lat="34.951839" lon="32.8353543"><ele>1449.7</ele><time>2015-04-30T08:17:30.0000000+00:00</time></trkpt><trkpt lat="34.9518735" lon="32.8354087"><ele>1449.8</ele><time>2015-04-30T08:17:34.0000000+00:00</time></trkpt><trkpt lat="34.9518919" lon="32.835463"><ele>1448.6</ele><time>2015-04-30T08:17:37.0000000+00:00</time></trkpt><trkpt lat="34.9519033" lon="32.8355172"><ele>1447.8</ele><time>2015-04-30T08:17:40.0000000+00:00</time></trkpt><trkpt lat="34.951904" lon="32.8355909"><ele>1446.7</ele><time>2015-04-30T08:17:44.0000000+00:00</time></trkpt><trkpt lat="34.9519006" lon="32.835656"><ele>1444.4</ele><time>2015-04-30T08:17:48.0000000+00:00</time></trkpt><trkpt lat="34.9518662" lon="32.835699"><ele>1443.9</ele><time>2015-04-30T08:17:52.0000000+00:00</time></trkpt><trkpt lat="34.9518279" lon="32.8357445"><ele>1444.3</ele><time>2015-04-30T08:17:56.0000000+00:00</time></trkpt><trkpt lat="34.9517872" lon="32.8357824"><ele>1445.0</ele><time>2015-04-30T08:18:01.0000000+00:00</time></trkpt><trkpt lat="34.9517446" lon="32.8358047"><ele>1446.0</ele><time>2015-04-30T08:18:05.0000000+00:00</time></trkpt><trkpt lat="34.9516994" lon="32.8358083"><ele>1444.2</ele><time>2015-04-30T08:18:09.0000000+00:00</time></trkpt><trkpt lat="34.9516524" lon="32.8357833"><ele>1445.7</ele><time>2015-04-30T08:18:13.0000000+00:00</time></trkpt><trkpt lat="34.951606" lon="32.8357651"><ele>1446.5</ele><time>2015-04-30T08:18:17.0000000+00:00</time></trkpt><trkpt lat="34.9515596" lon="32.8357458"><ele>1447.2</ele><time>2015-04-30T08:18:21.0000000+00:00</time></trkpt><trkpt lat="34.951507" lon="32.8357327"><ele>1450.5</ele><time>2015-04-30T08:18:25.0000000+00:00</time></trkpt><trkpt lat="34.9514529" lon="32.8357133"><ele>1454.1</ele><time>2015-04-30T08:18:29.0000000+00:00</time></trkpt><trkpt lat="34.9513999" lon="32.8357391"><ele>1454.7</ele><time>2015-04-30T08:18:33.0000000+00:00</time></trkpt><trkpt lat="34.9513516" lon="32.83576"><ele>1455.6</ele><time>2015-04-30T08:18:37.0000000+00:00</time></trkpt><trkpt lat="34.9513065" lon="32.8357868"><ele>1456.3</ele><time>2015-04-30T08:18:41.0000000+00:00</time></trkpt><trkpt lat="34.9512664" lon="32.8358157"><ele>1455.0</ele><time>2015-04-30T08:18:45.0000000+00:00</time></trkpt><trkpt lat="34.951218" lon="32.83584"><ele>1456.8</ele><time>2015-04-30T08:18:50.0000000+00:00</time></trkpt><trkpt lat="34.9511742" lon="32.8358799"><ele>1458.1</ele><time>2015-04-30T08:18:54.0000000+00:00</time></trkpt><trkpt lat="34.951134" lon="32.8359217"><ele>1459.6</ele><time>2015-04-30T08:18:58.0000000+00:00</time></trkpt><trkpt lat="34.9510977" lon="32.8359635"><ele>1459.9</ele><time>2015-04-30T08:19:02.0000000+00:00</time></trkpt><trkpt lat="34.9510639" lon="32.8360063"><ele>1461.2</ele><time>2015-04-30T08:19:06.0000000+00:00</time></trkpt><trkpt lat="34.9510225" lon="32.8360516"><ele>1460.2</ele><time>2015-04-30T08:19:10.0000000+00:00</time></trkpt><trkpt lat="34.9509792" lon="32.8360894"><ele>1459.9</ele><time>2015-04-30T08:19:14.0000000+00:00</time></trkpt><trkpt lat="34.950941" lon="32.8361361"><ele>1459.9</ele><time>2015-04-30T08:19:18.0000000+00:00</time></trkpt><trkpt lat="34.9509068" lon="32.8361826"><ele>1459.7</ele><time>2015-04-30T08:19:22.0000000+00:00</time></trkpt><trkpt lat="34.95088" lon="32.8362426"><ele>1459.0</ele><time>2015-04-30T08:19:26.0000000+00:00</time></trkpt><trkpt lat="34.9508546" lon="32.8362914"><ele>1459.7</ele><time>2015-04-30T08:19:30.0000000+00:00</time></trkpt><trkpt lat="34.9508228" lon="32.8363314"><ele>1459.3</ele><time>2015-04-30T08:19:34.0000000+00:00</time></trkpt><trkpt lat="34.9507832" lon="32.8363774"><ele>1457.8</ele><time>2015-04-30T08:19:39.0000000+00:00</time></trkpt><trkpt lat="34.9507531" lon="32.8364337"><ele>1460.1</ele><time>2015-04-30T08:19:43.0000000+00:00</time></trkpt><trkpt lat="34.9507062" lon="32.8364695"><ele>1460.7</ele><time>2015-04-30T08:19:47.0000000+00:00</time></trkpt><trkpt lat="34.9506773" lon="32.8365116"><ele>1464.0</ele><time>2015-04-30T08:19:50.0000000+00:00</time></trkpt><trkpt lat="34.9506529" lon="32.8365619"><ele>1464.3</ele><time>2015-04-30T08:19:54.0000000+00:00</time></trkpt><trkpt lat="34.9506286" lon="32.8366093"><ele>1463.9</ele><time>2015-04-30T08:19:58.0000000+00:00</time></trkpt><trkpt lat="34.9505962" lon="32.8366509"><ele>1465.0</ele><time>2015-04-30T08:20:02.0000000+00:00</time></trkpt><trkpt lat="34.9505637" lon="32.8367024"><ele>1465.6</ele><time>2015-04-30T08:20:07.0000000+00:00</time></trkpt><trkpt lat="34.9505202" lon="32.8367429"><ele>1465.8</ele><time>2015-04-30T08:20:11.0000000+00:00</time></trkpt><trkpt lat="34.9504951" lon="32.8368052"><ele>1466.3</ele><time>2015-04-30T08:20:15.0000000+00:00</time></trkpt><trkpt lat="34.9504788" lon="32.8368677"><ele>1465.9</ele><time>2015-04-30T08:20:19.0000000+00:00</time></trkpt><trkpt lat="34.9504715" lon="32.8369242"><ele>1465.8</ele><time>2015-04-30T08:20:23.0000000+00:00</time></trkpt><trkpt lat="34.9504809" lon="32.8369884"><ele>1464.0</ele><time>2015-04-30T08:20:28.0000000+00:00</time></trkpt><trkpt lat="34.9505206" lon="32.8370226"><ele>1467.4</ele><time>2015-04-30T08:20:33.0000000+00:00</time></trkpt><trkpt lat="34.9505653" lon="32.837034"><ele>1470.3</ele><time>2015-04-30T08:20:37.0000000+00:00</time></trkpt><trkpt lat="34.9506114" lon="32.837018"><ele>1472.9</ele><time>2015-04-30T08:20:41.0000000+00:00</time></trkpt><trkpt lat="34.9506512" lon="32.836986"><ele>1472.1</ele><time>2015-04-30T08:20:45.0000000+00:00</time></trkpt><trkpt lat="34.9506916" lon="32.8369584"><ele>1472.7</ele><time>2015-04-30T08:20:49.0000000+00:00</time></trkpt><trkpt lat="34.9507327" lon="32.8369222"><ele>1471.8</ele><time>2015-04-30T08:20:54.0000000+00:00</time></trkpt><trkpt lat="34.9507715" lon="32.8368862"><ele>1472.5</ele><time>2015-04-30T08:20:59.0000000+00:00</time></trkpt><trkpt lat="34.9508145" lon="32.8368517"><ele>1471.6</ele><time>2015-04-30T08:21:04.0000000+00:00</time></trkpt><trkpt lat="34.9508605" lon="32.8368139"><ele>1474.9</ele><time>2015-04-30T08:21:09.0000000+00:00</time></trkpt><trkpt lat="34.9509089" lon="32.8367816"><ele>1474.8</ele><time>2015-04-30T08:21:14.0000000+00:00</time></trkpt><trkpt lat="34.9509465" lon="32.8367462"><ele>1474.0</ele><time>2015-04-30T08:21:18.0000000+00:00</time></trkpt><trkpt lat="34.9509941" lon="32.8367129"><ele>1475.4</ele><time>2015-04-30T08:21:23.0000000+00:00</time></trkpt><trkpt lat="34.9510293" lon="32.8366636"><ele>1477.2</ele><time>2015-04-30T08:21:28.0000000+00:00</time></trkpt><trkpt lat="34.9510663" lon="32.836615"><ele>1477.0</ele><time>2015-04-30T08:21:33.0000000+00:00</time></trkpt><trkpt lat="34.9510888" lon="32.8365668"><ele>1475.3</ele><time>2015-04-30T08:21:37.0000000+00:00</time></trkpt><trkpt lat="34.9511211" lon="32.8365256"><ele>1473.9</ele><time>2015-04-30T08:21:41.0000000+00:00</time></trkpt><trkpt lat="34.9511697" lon="32.836505"><ele>1472.4</ele><time>2015-04-30T08:21:46.0000000+00:00</time></trkpt><trkpt lat="34.9512269" lon="32.8365054"><ele>1468.6</ele><time>2015-04-30T08:21:50.0000000+00:00</time></trkpt><trkpt lat="34.9512801" lon="32.8364903"><ele>1470.3</ele><time>2015-04-30T08:21:54.0000000+00:00</time></trkpt><trkpt lat="34.9513288" lon="32.8364903"><ele>1471.2</ele><time>2015-04-30T08:21:59.0000000+00:00</time></trkpt><trkpt lat="34.9513752" lon="32.8364893"><ele>1474.0</ele><time>2015-04-30T08:22:03.0000000+00:00</time></trkpt><trkpt lat="34.9514286" lon="32.836498"><ele>1476.3</ele><time>2015-04-30T08:22:07.0000000+00:00</time></trkpt><trkpt lat="34.9514855" lon="32.8364974"><ele>1476.2</ele><time>2015-04-30T08:22:11.0000000+00:00</time></trkpt><trkpt lat="34.9515331" lon="32.8364977"><ele>1476.7</ele><time>2015-04-30T08:22:15.0000000+00:00</time></trkpt><trkpt lat="34.9515829" lon="32.8365089"><ele>1477.7</ele><time>2015-04-30T08:22:19.0000000+00:00</time></trkpt><trkpt lat="34.9516361" lon="32.8365041"><ele>1476.5</ele><time>2015-04-30T08:22:23.0000000+00:00</time></trkpt><trkpt lat="34.9516891" lon="32.8365067"><ele>1476.2</ele><time>2015-04-30T08:22:27.0000000+00:00</time></trkpt><trkpt lat="34.9517376" lon="32.8365355"><ele>1476.3</ele><time>2015-04-30T08:22:33.0000000+00:00</time></trkpt><trkpt lat="34.9517732" lon="32.8365756"><ele>1475.1</ele><time>2015-04-30T08:22:37.0000000+00:00</time></trkpt><trkpt lat="34.9518181" lon="32.8366134"><ele>1470.6</ele><time>2015-04-30T08:22:41.0000000+00:00</time></trkpt><trkpt lat="34.9518477" lon="32.8366718"><ele>1470.3</ele><time>2015-04-30T08:22:45.0000000+00:00</time></trkpt><trkpt lat="34.9518697" lon="32.8367275"><ele>1472.3</ele><time>2015-04-30T08:22:48.0000000+00:00</time></trkpt><trkpt lat="34.9518872" lon="32.8367801"><ele>1470.1</ele><time>2015-04-30T08:22:51.0000000+00:00</time></trkpt><trkpt lat="34.9519131" lon="32.836825"><ele>1470.9</ele><time>2015-04-30T08:22:54.0000000+00:00</time></trkpt><trkpt lat="34.9519431" lon="32.8368822"><ele>1473.0</ele><time>2015-04-30T08:22:58.0000000+00:00</time></trkpt><trkpt lat="34.9519615" lon="32.8369445"><ele>1471.6</ele><time>2015-04-30T08:23:02.0000000+00:00</time></trkpt><trkpt lat="34.9519823" lon="32.837011"><ele>1470.9</ele><time>2015-04-30T08:23:06.0000000+00:00</time></trkpt><trkpt lat="34.9520037" lon="32.8370635"><ele>1474.8</ele><time>2015-04-30T08:23:09.0000000+00:00</time></trkpt><trkpt lat="34.9520253" lon="32.8371118"><ele>1475.8</ele><time>2015-04-30T08:23:12.0000000+00:00</time></trkpt><trkpt lat="34.952047" lon="32.837161"><ele>1478.5</ele><time>2015-04-30T08:23:15.0000000+00:00</time></trkpt><trkpt lat="34.9520584" lon="32.8372249"><ele>1480.7</ele><time>2015-04-30T08:23:19.0000000+00:00</time></trkpt><trkpt lat="34.9520484" lon="32.8372864"><ele>1480.1</ele><time>2015-04-30T08:23:24.0000000+00:00</time></trkpt><trkpt lat="34.9520601" lon="32.8373529"><ele>1481.3</ele><time>2015-04-30T08:23:29.0000000+00:00</time></trkpt><trkpt lat="34.9520882" lon="32.8374113"><ele>1482.2</ele><time>2015-04-30T08:23:33.0000000+00:00</time></trkpt><trkpt lat="34.9521004" lon="32.837467"><ele>1483.2</ele><time>2015-04-30T08:23:37.0000000+00:00</time></trkpt><trkpt lat="34.9521327" lon="32.8375198"><ele>1485.0</ele><time>2015-04-30T08:23:42.0000000+00:00</time></trkpt><trkpt lat="34.952153" lon="32.8375831"><ele>1482.6</ele><time>2015-04-30T08:23:47.0000000+00:00</time></trkpt><trkpt lat="34.9521614" lon="32.8376384"><ele>1482.9</ele><time>2015-04-30T08:23:50.0000000+00:00</time></trkpt><trkpt lat="34.9521772" lon="32.8376991"><ele>1480.6</ele><time>2015-04-30T08:23:54.0000000+00:00</time></trkpt><trkpt lat="34.9521758" lon="32.8377598"><ele>1480.5</ele><time>2015-04-30T08:23:58.0000000+00:00</time></trkpt><trkpt lat="34.9521799" lon="32.8378202"><ele>1482.8</ele><time>2015-04-30T08:24:02.0000000+00:00</time></trkpt><trkpt lat="34.9521766" lon="32.8378766"><ele>1483.4</ele><time>2015-04-30T08:24:07.0000000+00:00</time></trkpt><trkpt lat="34.9522015" lon="32.8379311"><ele>1485.1</ele><time>2015-04-30T08:24:13.0000000+00:00</time></trkpt><trkpt lat="34.9522099" lon="32.8379928"><ele>1487.9</ele><time>2015-04-30T08:24:19.0000000+00:00</time></trkpt><trkpt lat="34.9522087" lon="32.8380533"><ele>1490.7</ele><time>2015-04-30T08:24:24.0000000+00:00</time></trkpt><trkpt lat="34.9522095" lon="32.838115"><ele>1488.3</ele><time>2015-04-30T08:24:29.0000000+00:00</time></trkpt><trkpt lat="34.9522148" lon="32.8381821"><ele>1485.2</ele><time>2015-04-30T08:24:34.0000000+00:00</time></trkpt><trkpt lat="34.9522155" lon="32.8382442"><ele>1483.0</ele><time>2015-04-30T08:24:38.0000000+00:00</time></trkpt><trkpt lat="34.9522083" lon="32.8383077"><ele>1481.5</ele><time>2015-04-30T08:24:42.0000000+00:00</time></trkpt><trkpt lat="34.9522006" lon="32.8383743"><ele>1483.1</ele><time>2015-04-30T08:24:46.0000000+00:00</time></trkpt><trkpt lat="34.9522114" lon="32.8384421"><ele>1487.3</ele><time>2015-04-30T08:24:50.0000000+00:00</time></trkpt><trkpt lat="34.9522199" lon="32.8385127"><ele>1488.3</ele><time>2015-04-30T08:24:54.0000000+00:00</time></trkpt><trkpt lat="34.9522269" lon="32.8385809"><ele>1489.9</ele><time>2015-04-30T08:24:58.0000000+00:00</time></trkpt><trkpt lat="34.9522347" lon="32.8386429"><ele>1491.4</ele><time>2015-04-30T08:25:02.0000000+00:00</time></trkpt><trkpt lat="34.9522602" lon="32.8386912"><ele>1491.2</ele><time>2015-04-30T08:25:07.0000000+00:00</time></trkpt><trkpt lat="34.9522597" lon="32.838746"><ele>1491.2</ele><time>2015-04-30T08:25:12.0000000+00:00</time></trkpt><trkpt lat="34.9522527" lon="32.838805"><ele>1494.9</ele><time>2015-04-30T08:25:15.0000000+00:00</time></trkpt><trkpt lat="34.9522522" lon="32.8388651"><ele>1498.3</ele><time>2015-04-30T08:25:18.0000000+00:00</time></trkpt><trkpt lat="34.9522528" lon="32.838923"><ele>1500.0</ele><time>2015-04-30T08:25:22.0000000+00:00</time></trkpt><trkpt lat="34.9522451" lon="32.8389908"><ele>1498.7</ele><time>2015-04-30T08:25:27.0000000+00:00</time></trkpt><trkpt lat="34.9522404" lon="32.8390554"><ele>1498.6</ele><time>2015-04-30T08:25:31.0000000+00:00</time></trkpt><trkpt lat="34.9522206" lon="32.8391089"><ele>1496.9</ele><time>2015-04-30T08:25:35.0000000+00:00</time></trkpt><trkpt lat="34.9521899" lon="32.8391555"><ele>1497.1</ele><time>2015-04-30T08:25:39.0000000+00:00</time></trkpt><trkpt lat="34.9521866" lon="32.8392112"><ele>1498.4</ele><time>2015-04-30T08:25:43.0000000+00:00</time></trkpt><trkpt lat="34.9521901" lon="32.8392717"><ele>1499.5</ele><time>2015-04-30T08:25:47.0000000+00:00</time></trkpt><trkpt lat="34.9521676" lon="32.8393241"><ele>1498.1</ele><time>2015-04-30T08:25:51.0000000+00:00</time></trkpt><trkpt lat="34.9521662" lon="32.8393897"><ele>1496.4</ele><time>2015-04-30T08:25:55.0000000+00:00</time></trkpt><trkpt lat="34.9521652" lon="32.8394532"><ele>1494.5</ele><time>2015-04-30T08:25:59.0000000+00:00</time></trkpt><trkpt lat="34.9521772" lon="32.8395102"><ele>1492.9</ele><time>2015-04-30T08:26:03.0000000+00:00</time></trkpt><trkpt lat="34.9521745" lon="32.8395727"><ele>1495.1</ele><time>2015-04-30T08:26:08.0000000+00:00</time></trkpt><trkpt lat="34.9521871" lon="32.8396422"><ele>1498.2</ele><time>2015-04-30T08:26:13.0000000+00:00</time></trkpt><trkpt lat="34.9521974" lon="32.8397056"><ele>1498.8</ele><time>2015-04-30T08:26:17.0000000+00:00</time></trkpt><trkpt lat="34.952219" lon="32.839754"><ele>1496.6</ele><time>2015-04-30T08:26:20.0000000+00:00</time></trkpt><trkpt lat="34.9522354" lon="32.8398175"><ele>1496.3</ele><time>2015-04-30T08:26:24.0000000+00:00</time></trkpt><trkpt lat="34.9522083" lon="32.8398754"><ele>1495.6</ele><time>2015-04-30T08:26:28.0000000+00:00</time></trkpt><trkpt lat="34.9521786" lon="32.8399311"><ele>1495.7</ele><time>2015-04-30T08:26:32.0000000+00:00</time></trkpt><trkpt lat="34.9521542" lon="32.8399868"><ele>1496.8</ele><time>2015-04-30T08:26:36.0000000+00:00</time></trkpt><trkpt lat="34.9521187" lon="32.8400329"><ele>1495.1</ele><time>2015-04-30T08:26:40.0000000+00:00</time></trkpt><trkpt lat="34.9520803" lon="32.8400694"><ele>1495.6</ele><time>2015-04-30T08:26:44.0000000+00:00</time></trkpt><trkpt lat="34.9520515" lon="32.8401209"><ele>1497.6</ele><time>2015-04-30T08:26:48.0000000+00:00</time></trkpt><trkpt lat="34.9520072" lon="32.8401523"><ele>1500.1</ele><time>2015-04-30T08:26:52.0000000+00:00</time></trkpt><trkpt lat="34.9519603" lon="32.8401811"><ele>1500.7</ele><time>2015-04-30T08:26:56.0000000+00:00</time></trkpt><trkpt lat="34.9519206" lon="32.8402129"><ele>1497.7</ele><time>2015-04-30T08:27:00.0000000+00:00</time></trkpt><trkpt lat="34.9518756" lon="32.8402474"><ele>1497.5</ele><time>2015-04-30T08:27:05.0000000+00:00</time></trkpt><trkpt lat="34.9518508" lon="32.8402937"><ele>1496.3</ele><time>2015-04-30T08:27:10.0000000+00:00</time></trkpt><trkpt lat="34.9518084" lon="32.8403358"><ele>1495.6</ele><time>2015-04-30T08:27:15.0000000+00:00</time></trkpt><trkpt lat="34.9517638" lon="32.8403493"><ele>1496.2</ele><time>2015-04-30T08:27:18.0000000+00:00</time></trkpt><trkpt lat="34.9517151" lon="32.8403736"><ele>1499.3</ele><time>2015-04-30T08:27:22.0000000+00:00</time></trkpt><trkpt lat="34.9516698" lon="32.840418"><ele>1502.2</ele><time>2015-04-30T08:27:26.0000000+00:00</time></trkpt><trkpt lat="34.9516243" lon="32.840444"><ele>1505.2</ele><time>2015-04-30T08:27:30.0000000+00:00</time></trkpt><trkpt lat="34.9515934" lon="32.8404865"><ele>1506.2</ele><time>2015-04-30T08:27:34.0000000+00:00</time></trkpt><trkpt lat="34.9515626" lon="32.8405481"><ele>1507.6</ele><time>2015-04-30T08:27:38.0000000+00:00</time></trkpt><trkpt lat="34.9515388" lon="32.8406092"><ele>1509.4</ele><time>2015-04-30T08:27:42.0000000+00:00</time></trkpt><trkpt lat="34.9515188" lon="32.8406665"><ele>1510.2</ele><time>2015-04-30T08:27:46.0000000+00:00</time></trkpt><trkpt lat="34.9514955" lon="32.8407206"><ele>1511.7</ele><time>2015-04-30T08:27:51.0000000+00:00</time></trkpt><trkpt lat="34.9514936" lon="32.8407812"><ele>1509.7</ele><time>2015-04-30T08:27:56.0000000+00:00</time></trkpt><trkpt lat="34.9515049" lon="32.8408419"><ele>1509.2</ele><time>2015-04-30T08:28:01.0000000+00:00</time></trkpt><trkpt lat="34.951532" lon="32.8408918"><ele>1510.6</ele><time>2015-04-30T08:28:05.0000000+00:00</time></trkpt><trkpt lat="34.9515688" lon="32.8409432"><ele>1510.6</ele><time>2015-04-30T08:28:09.0000000+00:00</time></trkpt><trkpt lat="34.9516048" lon="32.8409905"><ele>1508.9</ele><time>2015-04-30T08:28:13.0000000+00:00</time></trkpt><trkpt lat="34.9516366" lon="32.8410393"><ele>1505.3</ele><time>2015-04-30T08:28:17.0000000+00:00</time></trkpt><trkpt lat="34.9516625" lon="32.8410862"><ele>1505.3</ele><time>2015-04-30T08:28:21.0000000+00:00</time></trkpt><trkpt lat="34.9516939" lon="32.8411417"><ele>1506.4</ele><time>2015-04-30T08:28:25.0000000+00:00</time></trkpt><trkpt lat="34.9517351" lon="32.8411916"><ele>1507.4</ele><time>2015-04-30T08:28:29.0000000+00:00</time></trkpt><trkpt lat="34.951768" lon="32.841233"><ele>1509.6</ele><time>2015-04-30T08:28:33.0000000+00:00</time></trkpt><trkpt lat="34.9517946" lon="32.8412936"><ele>1509.7</ele><time>2015-04-30T08:28:38.0000000+00:00</time></trkpt><trkpt lat="34.9518279" lon="32.841342"><ele>1508.5</ele><time>2015-04-30T08:28:42.0000000+00:00</time></trkpt><trkpt lat="34.9518588" lon="32.841396"><ele>1511.4</ele><time>2015-04-30T08:28:46.0000000+00:00</time></trkpt><trkpt lat="34.9518996" lon="32.8414295"><ele>1511.6</ele><time>2015-04-30T08:28:50.0000000+00:00</time></trkpt><trkpt lat="34.9519346" lon="32.8414793"><ele>1513.1</ele><time>2015-04-30T08:28:55.0000000+00:00</time></trkpt><trkpt lat="34.9519691" lon="32.8415257"><ele>1515.4</ele><time>2015-04-30T08:28:59.0000000+00:00</time></trkpt><trkpt lat="34.9520016" lon="32.8415822"><ele>1515.4</ele><time>2015-04-30T08:29:03.0000000+00:00</time></trkpt><trkpt lat="34.9520257" lon="32.8416411"><ele>1514.7</ele><time>2015-04-30T08:29:06.0000000+00:00</time></trkpt><trkpt lat="34.9520514" lon="32.8416934"><ele>1515.4</ele><time>2015-04-30T08:29:09.0000000+00:00</time></trkpt><trkpt lat="34.9520781" lon="32.8417386"><ele>1514.6</ele><time>2015-04-30T08:29:12.0000000+00:00</time></trkpt><trkpt lat="34.9521114" lon="32.8417989"><ele>1511.9</ele><time>2015-04-30T08:29:16.0000000+00:00</time></trkpt><trkpt lat="34.9521412" lon="32.841842"><ele>1510.7</ele><time>2015-04-30T08:29:19.0000000+00:00</time></trkpt><trkpt lat="34.9521666" lon="32.8418889"><ele>1512.6</ele><time>2015-04-30T08:29:22.0000000+00:00</time></trkpt><trkpt lat="34.9521961" lon="32.8419483"><ele>1514.9</ele><time>2015-04-30T08:29:26.0000000+00:00</time></trkpt><trkpt lat="34.9522235" lon="32.8420007"><ele>1515.6</ele><time>2015-04-30T08:29:31.0000000+00:00</time></trkpt><trkpt lat="34.9522389" lon="32.8420526"><ele>1516.6</ele><time>2015-04-30T08:29:35.0000000+00:00</time></trkpt><trkpt lat="34.9522591" lon="32.842103"><ele>1516.6</ele><time>2015-04-30T08:29:39.0000000+00:00</time></trkpt><trkpt lat="34.9522925" lon="32.8421549"><ele>1515.1</ele><time>2015-04-30T08:29:43.0000000+00:00</time></trkpt><trkpt lat="34.9523159" lon="32.8422093"><ele>1514.0</ele><time>2015-04-30T08:29:47.0000000+00:00</time></trkpt><trkpt lat="34.9523264" lon="32.8422744"><ele>1515.9</ele><time>2015-04-30T08:29:52.0000000+00:00</time></trkpt><trkpt lat="34.952326" lon="32.8423365"><ele>1517.8</ele><time>2015-04-30T08:29:57.0000000+00:00</time></trkpt><trkpt lat="34.9523023" lon="32.8423959"><ele>1517.8</ele><time>2015-04-30T08:30:01.0000000+00:00</time></trkpt><trkpt lat="34.952279" lon="32.8424622"><ele>1519.3</ele><time>2015-04-30T08:30:05.0000000+00:00</time></trkpt><trkpt lat="34.9522553" lon="32.8425096"><ele>1519.6</ele><time>2015-04-30T08:30:08.0000000+00:00</time></trkpt><trkpt lat="34.952245" lon="32.8425668"><ele>1522.0</ele><time>2015-04-30T08:30:11.0000000+00:00</time></trkpt><trkpt lat="34.9522262" lon="32.8426171"><ele>1522.5</ele><time>2015-04-30T08:30:14.0000000+00:00</time></trkpt><trkpt lat="34.9521968" lon="32.8426712"><ele>1522.9</ele><time>2015-04-30T08:30:18.0000000+00:00</time></trkpt><trkpt lat="34.9521721" lon="32.8427296"><ele>1520.6</ele><time>2015-04-30T08:30:22.0000000+00:00</time></trkpt><trkpt lat="34.9521569" lon="32.8427876"><ele>1524.9</ele><time>2015-04-30T08:30:27.0000000+00:00</time></trkpt><trkpt lat="34.9521296" lon="32.8428315"><ele>1528.3</ele><time>2015-04-30T08:30:31.0000000+00:00</time></trkpt><trkpt lat="34.952106" lon="32.8428859"><ele>1528.3</ele><time>2015-04-30T08:30:35.0000000+00:00</time></trkpt><trkpt lat="34.9520779" lon="32.842944"><ele>1527.8</ele><time>2015-04-30T08:30:39.0000000+00:00</time></trkpt><trkpt lat="34.9520522" lon="32.8429939"><ele>1529.6</ele><time>2015-04-30T08:30:42.0000000+00:00</time></trkpt><trkpt lat="34.9520498" lon="32.8430526"><ele>1530.6</ele><time>2015-04-30T08:30:46.0000000+00:00</time></trkpt><trkpt lat="34.9520171" lon="32.8430127"><ele>1530.8</ele><time>2015-04-30T08:39:37.0000000+00:00</time></trkpt><trkpt lat="34.9519736" lon="32.8430334"><ele>1529.8</ele><time>2015-04-30T08:39:41.0000000+00:00</time></trkpt><trkpt lat="34.9519466" lon="32.8430797"><ele>1528.5</ele><time>2015-04-30T08:39:45.0000000+00:00</time></trkpt><trkpt lat="34.9519221" lon="32.843128"><ele>1526.9</ele><time>2015-04-30T08:39:50.0000000+00:00</time></trkpt><trkpt lat="34.9518787" lon="32.8431459"><ele>1528.6</ele><time>2015-04-30T08:39:55.0000000+00:00</time></trkpt><trkpt lat="34.9518342" lon="32.843166"><ele>1528.1</ele><time>2015-04-30T08:40:01.0000000+00:00</time></trkpt><trkpt lat="34.9518011" lon="32.8432142"><ele>1527.8</ele><time>2015-04-30T08:40:07.0000000+00:00</time></trkpt><trkpt lat="34.9517495" lon="32.8432306"><ele>1530.1</ele><time>2015-04-30T08:40:12.0000000+00:00</time></trkpt><trkpt lat="34.9517065" lon="32.8432487"><ele>1528.2</ele><time>2015-04-30T08:40:17.0000000+00:00</time></trkpt><trkpt lat="34.9516566" lon="32.8432654"><ele>1527.5</ele><time>2015-04-30T08:40:23.0000000+00:00</time></trkpt><trkpt lat="34.951609" lon="32.8432878"><ele>1531.1</ele><time>2015-04-30T08:40:29.0000000+00:00</time></trkpt><trkpt lat="34.9515534" lon="32.8432792"><ele>1530.5</ele><time>2015-04-30T08:40:34.0000000+00:00</time></trkpt><trkpt lat="34.9515059" lon="32.8432851"><ele>1530.7</ele><time>2015-04-30T08:40:38.0000000+00:00</time></trkpt><trkpt lat="34.951454" lon="32.8432894"><ele>1531.5</ele><time>2015-04-30T08:40:42.0000000+00:00</time></trkpt><trkpt lat="34.9514" lon="32.8432961"><ele>1533.1</ele><time>2015-04-30T08:40:46.0000000+00:00</time></trkpt><trkpt lat="34.9513499" lon="32.8432984"><ele>1532.8</ele><time>2015-04-30T08:40:50.0000000+00:00</time></trkpt><trkpt lat="34.9513042" lon="32.8433151"><ele>1532.6</ele><time>2015-04-30T08:40:54.0000000+00:00</time></trkpt><trkpt lat="34.9512548" lon="32.8433145"><ele>1532.4</ele><time>2015-04-30T08:40:58.0000000+00:00</time></trkpt><trkpt lat="34.9512054" lon="32.8433268"><ele>1534.1</ele><time>2015-04-30T08:41:02.0000000+00:00</time></trkpt><trkpt lat="34.9511515" lon="32.843326"><ele>1533.4</ele><time>2015-04-30T08:41:07.0000000+00:00</time></trkpt><trkpt lat="34.9511009" lon="32.84332"><ele>1532.6</ele><time>2015-04-30T08:41:12.0000000+00:00</time></trkpt><trkpt lat="34.9510495" lon="32.8433261"><ele>1531.2</ele><time>2015-04-30T08:41:16.0000000+00:00</time></trkpt><trkpt lat="34.9509988" lon="32.8433388"><ele>1531.8</ele><time>2015-04-30T08:41:21.0000000+00:00</time></trkpt><trkpt lat="34.9509483" lon="32.8433534"><ele>1533.7</ele><time>2015-04-30T08:41:26.0000000+00:00</time></trkpt><trkpt lat="34.9509034" lon="32.8433831"><ele>1535.4</ele><time>2015-04-30T08:41:30.0000000+00:00</time></trkpt><trkpt lat="34.9508577" lon="32.8434094"><ele>1538.5</ele><time>2015-04-30T08:41:34.0000000+00:00</time></trkpt><trkpt lat="34.9508152" lon="32.8434303"><ele>1541.6</ele><time>2015-04-30T08:41:38.0000000+00:00</time></trkpt><trkpt lat="34.9507637" lon="32.8434463"><ele>1542.2</ele><time>2015-04-30T08:41:43.0000000+00:00</time></trkpt><trkpt lat="34.9507154" lon="32.8434745"><ele>1540.4</ele><time>2015-04-30T08:41:53.0000000+00:00</time></trkpt><trkpt lat="34.9506888" lon="32.8435377"><ele>1542.1</ele><time>2015-04-30T08:41:57.0000000+00:00</time></trkpt><trkpt lat="34.9506641" lon="32.843593"><ele>1541.1</ele><time>2015-04-30T08:42:01.0000000+00:00</time></trkpt><trkpt lat="34.950645" lon="32.8436539"><ele>1543.2</ele><time>2015-04-30T08:42:05.0000000+00:00</time></trkpt><trkpt lat="34.950636" lon="32.8437175"><ele>1545.6</ele><time>2015-04-30T08:42:10.0000000+00:00</time></trkpt><trkpt lat="34.9506219" lon="32.8437744"><ele>1546.1</ele><time>2015-04-30T08:42:14.0000000+00:00</time></trkpt><trkpt lat="34.9506239" lon="32.8438383"><ele>1546.9</ele><time>2015-04-30T08:42:19.0000000+00:00</time></trkpt><trkpt lat="34.9506286" lon="32.8439051"><ele>1538.7</ele><time>2015-04-30T08:42:24.0000000+00:00</time></trkpt><trkpt lat="34.9506346" lon="32.8439778"><ele>1533.9</ele><time>2015-04-30T08:42:28.0000000+00:00</time></trkpt><trkpt lat="34.9506371" lon="32.8440332"><ele>1530.2</ele><time>2015-04-30T08:42:31.0000000+00:00</time></trkpt><trkpt lat="34.9506492" lon="32.8440952"><ele>1528.7</ele><time>2015-04-30T08:42:36.0000000+00:00</time></trkpt><trkpt lat="34.950667" lon="32.8441514"><ele>1530.7</ele><time>2015-04-30T08:42:40.0000000+00:00</time></trkpt><trkpt lat="34.9506946" lon="32.8442138"><ele>1530.5</ele><time>2015-04-30T08:42:44.0000000+00:00</time></trkpt><trkpt lat="34.9507281" lon="32.8442736"><ele>1532.6</ele><time>2015-04-30T08:42:48.0000000+00:00</time></trkpt><trkpt lat="34.9507602" lon="32.8443223"><ele>1535.5</ele><time>2015-04-30T08:42:52.0000000+00:00</time></trkpt><trkpt lat="34.9507834" lon="32.8443777"><ele>1535.8</ele><time>2015-04-30T08:42:57.0000000+00:00</time></trkpt><trkpt lat="34.9508033" lon="32.8444302"><ele>1538.5</ele><time>2015-04-30T08:43:01.0000000+00:00</time></trkpt><trkpt lat="34.9508075" lon="32.8444995"><ele>1538.5</ele><time>2015-04-30T08:43:08.0000000+00:00</time></trkpt><trkpt lat="34.9508301" lon="32.8445561"><ele>1538.9</ele><time>2015-04-30T08:43:12.0000000+00:00</time></trkpt><trkpt lat="34.9508593" lon="32.8446018"><ele>1538.2</ele><time>2015-04-30T08:43:16.0000000+00:00</time></trkpt><trkpt lat="34.950891" lon="32.8446508"><ele>1540.4</ele><time>2015-04-30T08:43:20.0000000+00:00</time></trkpt><trkpt lat="34.9509024" lon="32.84471"><ele>1541.4</ele><time>2015-04-30T08:43:24.0000000+00:00</time></trkpt><trkpt lat="34.9509234" lon="32.8447736"><ele>1540.0</ele><time>2015-04-30T08:43:29.0000000+00:00</time></trkpt><trkpt lat="34.9509448" lon="32.8448327"><ele>1539.8</ele><time>2015-04-30T08:43:33.0000000+00:00</time></trkpt><trkpt lat="34.9509685" lon="32.8448929"><ele>1542.2</ele><time>2015-04-30T08:43:38.0000000+00:00</time></trkpt><trkpt lat="34.9509838" lon="32.8449533"><ele>1542.8</ele><time>2015-04-30T08:43:43.0000000+00:00</time></trkpt><trkpt lat="34.9510044" lon="32.845007"><ele>1545.3</ele><time>2015-04-30T08:43:47.0000000+00:00</time></trkpt><trkpt lat="34.9510056" lon="32.8450686"><ele>1543.5</ele><time>2015-04-30T08:43:52.0000000+00:00</time></trkpt><trkpt lat="34.9510162" lon="32.8451295"><ele>1543.9</ele><time>2015-04-30T08:43:57.0000000+00:00</time></trkpt><trkpt lat="34.9510229" lon="32.8451927"><ele>1543.3</ele><time>2015-04-30T08:44:02.0000000+00:00</time></trkpt><trkpt lat="34.9510524" lon="32.8452433"><ele>1542.5</ele><time>2015-04-30T08:44:06.0000000+00:00</time></trkpt><trkpt lat="34.9510656" lon="32.8453048"><ele>1544.3</ele><time>2015-04-30T08:44:10.0000000+00:00</time></trkpt><trkpt lat="34.9510694" lon="32.8453602"><ele>1543.2</ele><time>2015-04-30T08:44:13.0000000+00:00</time></trkpt><trkpt lat="34.9510636" lon="32.8454253"><ele>1544.6</ele><time>2015-04-30T08:44:16.0000000+00:00</time></trkpt><trkpt lat="34.9510484" lon="32.8454936"><ele>1545.5</ele><time>2015-04-30T08:44:20.0000000+00:00</time></trkpt><trkpt lat="34.951032" lon="32.8455523"><ele>1547.5</ele><time>2015-04-30T08:44:23.0000000+00:00</time></trkpt><trkpt lat="34.9510181" lon="32.8456057"><ele>1547.7</ele><time>2015-04-30T08:44:25.0000000+00:00</time></trkpt><trkpt lat="34.9509945" lon="32.8456735"><ele>1548.5</ele><time>2015-04-30T08:44:28.0000000+00:00</time></trkpt><trkpt lat="34.9509811" lon="32.8457354"><ele>1550.5</ele><time>2015-04-30T08:44:31.0000000+00:00</time></trkpt><trkpt lat="34.9509629" lon="32.8457897"><ele>1554.6</ele><time>2015-04-30T08:44:34.0000000+00:00</time></trkpt><trkpt lat="34.9509419" lon="32.8458433"><ele>1556.0</ele><time>2015-04-30T08:44:37.0000000+00:00</time></trkpt><trkpt lat="34.9509141" lon="32.8458927"><ele>1556.5</ele><time>2015-04-30T08:44:40.0000000+00:00</time></trkpt><trkpt lat="34.9508829" lon="32.8459452"><ele>1556.3</ele><time>2015-04-30T08:44:45.0000000+00:00</time></trkpt><trkpt lat="34.9508471" lon="32.8459917"><ele>1558.3</ele><time>2015-04-30T08:44:49.0000000+00:00</time></trkpt><trkpt lat="34.9508089" lon="32.8460368"><ele>1561.7</ele><time>2015-04-30T08:44:53.0000000+00:00</time></trkpt><trkpt lat="34.950777" lon="32.8460956"><ele>1565.1</ele><time>2015-04-30T08:44:57.0000000+00:00</time></trkpt><trkpt lat="34.9507375" lon="32.8461388"><ele>1567.6</ele><time>2015-04-30T08:45:00.0000000+00:00</time></trkpt><trkpt lat="34.9507049" lon="32.8461908"><ele>1567.6</ele><time>2015-04-30T08:45:03.0000000+00:00</time></trkpt><trkpt lat="34.9506744" lon="32.8462418"><ele>1567.7</ele><time>2015-04-30T08:45:06.0000000+00:00</time></trkpt><trkpt lat="34.9506405" lon="32.8462862"><ele>1570.7</ele><time>2015-04-30T08:45:10.0000000+00:00</time></trkpt><trkpt lat="34.950613" lon="32.8463373"><ele>1571.6</ele><time>2015-04-30T08:45:14.0000000+00:00</time></trkpt><trkpt lat="34.9505974" lon="32.8463968"><ele>1571.0</ele><time>2015-04-30T08:45:18.0000000+00:00</time></trkpt><trkpt lat="34.9505658" lon="32.8464556"><ele>1570.5</ele><time>2015-04-30T08:45:22.0000000+00:00</time></trkpt><trkpt lat="34.9505441" lon="32.8465143"><ele>1568.1</ele><time>2015-04-30T08:45:26.0000000+00:00</time></trkpt><trkpt lat="34.9505168" lon="32.8465628"><ele>1568.7</ele><time>2015-04-30T08:45:30.0000000+00:00</time></trkpt><trkpt lat="34.9505072" lon="32.8466235"><ele>1570.4</ele><time>2015-04-30T08:45:34.0000000+00:00</time></trkpt><trkpt lat="34.9504899" lon="32.8466882"><ele>1570.0</ele><time>2015-04-30T08:45:38.0000000+00:00</time></trkpt><trkpt lat="34.9504546" lon="32.8467454"><ele>1573.7</ele><time>2015-04-30T08:45:42.0000000+00:00</time></trkpt><trkpt lat="34.9504416" lon="32.8468035"><ele>1575.6</ele><time>2015-04-30T08:45:46.0000000+00:00</time></trkpt><trkpt lat="34.9504257" lon="32.8468629"><ele>1577.3</ele><time>2015-04-30T08:45:50.0000000+00:00</time></trkpt><trkpt lat="34.950402" lon="32.8469218"><ele>1580.2</ele><time>2015-04-30T08:45:54.0000000+00:00</time></trkpt><trkpt lat="34.9503822" lon="32.8469723"><ele>1580.6</ele><time>2015-04-30T08:45:57.0000000+00:00</time></trkpt><trkpt lat="34.9503524" lon="32.8470203"><ele>1577.4</ele><time>2015-04-30T08:46:01.0000000+00:00</time></trkpt><trkpt lat="34.9503334" lon="32.8470768"><ele>1576.8</ele><time>2015-04-30T08:46:06.0000000+00:00</time></trkpt><trkpt lat="34.9503253" lon="32.847145"><ele>1581.3</ele><time>2015-04-30T08:46:11.0000000+00:00</time></trkpt><trkpt lat="34.9503152" lon="32.8472014"><ele>1582.9</ele><time>2015-04-30T08:46:15.0000000+00:00</time></trkpt><trkpt lat="34.9502953" lon="32.847256"><ele>1583.1</ele><time>2015-04-30T08:46:19.0000000+00:00</time></trkpt><trkpt lat="34.9502766" lon="32.8473225"><ele>1584.8</ele><time>2015-04-30T08:46:23.0000000+00:00</time></trkpt><trkpt lat="34.9502604" lon="32.8473816"><ele>1585.4</ele><time>2015-04-30T08:46:26.0000000+00:00</time></trkpt><trkpt lat="34.9502358" lon="32.847448"><ele>1587.3</ele><time>2015-04-30T08:46:29.0000000+00:00</time></trkpt><trkpt lat="34.9502141" lon="32.847521"><ele>1584.5</ele><time>2015-04-30T08:46:32.0000000+00:00</time></trkpt><trkpt lat="34.9501966" lon="32.8476005"><ele>1584.0</ele><time>2015-04-30T08:46:35.0000000+00:00</time></trkpt><trkpt lat="34.9501832" lon="32.8476766"><ele>1582.4</ele><time>2015-04-30T08:46:38.0000000+00:00</time></trkpt><trkpt lat="34.9501629" lon="32.8477459"><ele>1581.8</ele><time>2015-04-30T08:46:41.0000000+00:00</time></trkpt><trkpt lat="34.9501471" lon="32.84781"><ele>1579.3</ele><time>2015-04-30T08:46:44.0000000+00:00</time></trkpt><trkpt lat="34.9501314" lon="32.8478683"><ele>1579.6</ele><time>2015-04-30T08:46:47.0000000+00:00</time></trkpt><trkpt lat="34.9501023" lon="32.8479224"><ele>1576.4</ele><time>2015-04-30T08:46:50.0000000+00:00</time></trkpt><trkpt lat="34.950062" lon="32.8479558"><ele>1574.6</ele><time>2015-04-30T08:46:54.0000000+00:00</time></trkpt><trkpt lat="34.9500163" lon="32.8479578"><ele>1573.9</ele><time>2015-04-30T08:46:58.0000000+00:00</time></trkpt><trkpt lat="34.9499717" lon="32.8479472"><ele>1572.5</ele><time>2015-04-30T08:47:01.0000000+00:00</time></trkpt><trkpt lat="34.9499244" lon="32.8479316"><ele>1572.7</ele><time>2015-04-30T08:47:04.0000000+00:00</time></trkpt><trkpt lat="34.9498841" lon="32.847895"><ele>1572.8</ele><time>2015-04-30T08:47:07.0000000+00:00</time></trkpt><trkpt lat="34.9498657" lon="32.847832"><ele>1572.0</ele><time>2015-04-30T08:47:10.0000000+00:00</time></trkpt><trkpt lat="34.9498675" lon="32.8477628"><ele>1571.3</ele><time>2015-04-30T08:47:14.0000000+00:00</time></trkpt><trkpt lat="34.9498818" lon="32.8477028"><ele>1569.5</ele><time>2015-04-30T08:47:17.0000000+00:00</time></trkpt><trkpt lat="34.9498803" lon="32.8476421"><ele>1569.4</ele><time>2015-04-30T08:47:20.0000000+00:00</time></trkpt><trkpt lat="34.9498861" lon="32.8475875"><ele>1569.7</ele><time>2015-04-30T08:47:23.0000000+00:00</time></trkpt><trkpt lat="34.9498984" lon="32.8475171"><ele>1570.8</ele><time>2015-04-30T08:47:27.0000000+00:00</time></trkpt><trkpt lat="34.9499094" lon="32.8474618"><ele>1569.8</ele><time>2015-04-30T08:47:30.0000000+00:00</time></trkpt><trkpt lat="34.9499102" lon="32.8474009"><ele>1573.0</ele><time>2015-04-30T08:47:34.0000000+00:00</time></trkpt><trkpt lat="34.9499238" lon="32.8473402"><ele>1573.6</ele><time>2015-04-30T08:47:38.0000000+00:00</time></trkpt><trkpt lat="34.949933" lon="32.8472826"><ele>1575.1</ele><time>2015-04-30T08:47:42.0000000+00:00</time></trkpt><trkpt lat="34.9499164" lon="32.847216"><ele>1577.9</ele><time>2015-04-30T08:47:46.0000000+00:00</time></trkpt><trkpt lat="34.9498988" lon="32.8471484"><ele>1581.5</ele><time>2015-04-30T08:47:50.0000000+00:00</time></trkpt><trkpt lat="34.9498846" lon="32.8470895"><ele>1583.9</ele><time>2015-04-30T08:47:54.0000000+00:00</time></trkpt><trkpt lat="34.9498345" lon="32.8470587"><ele>1586.3</ele><time>2015-04-30T08:47:58.0000000+00:00</time></trkpt><trkpt lat="34.9497913" lon="32.8470062"><ele>1588.1</ele><time>2015-04-30T08:48:02.0000000+00:00</time></trkpt><trkpt lat="34.9497506" lon="32.8469733"><ele>1588.3</ele><time>2015-04-30T08:48:05.0000000+00:00</time></trkpt><trkpt lat="34.9497021" lon="32.846942"><ele>1589.7</ele><time>2015-04-30T08:48:09.0000000+00:00</time></trkpt><trkpt lat="34.9496626" lon="32.8469029"><ele>1590.6</ele><time>2015-04-30T08:48:13.0000000+00:00</time></trkpt><trkpt lat="34.9496253" lon="32.8468561"><ele>1589.8</ele><time>2015-04-30T08:48:17.0000000+00:00</time></trkpt><trkpt lat="34.9495893" lon="32.8468096"><ele>1591.1</ele><time>2015-04-30T08:48:21.0000000+00:00</time></trkpt><trkpt lat="34.9495578" lon="32.8467524"><ele>1596.5</ele><time>2015-04-30T08:48:25.0000000+00:00</time></trkpt><trkpt lat="34.949514" lon="32.8467115"><ele>1597.1</ele><time>2015-04-30T08:48:29.0000000+00:00</time></trkpt><trkpt lat="34.9494829" lon="32.8466662"><ele>1595.2</ele><time>2015-04-30T08:48:33.0000000+00:00</time></trkpt><trkpt lat="34.9494481" lon="32.8466237"><ele>1598.0</ele><time>2015-04-30T08:48:37.0000000+00:00</time></trkpt><trkpt lat="34.9494108" lon="32.846583"><ele>1600.2</ele><time>2015-04-30T08:48:41.0000000+00:00</time></trkpt><trkpt lat="34.9493824" lon="32.8465343"><ele>1600.7</ele><time>2015-04-30T08:48:45.0000000+00:00</time></trkpt><trkpt lat="34.9493322" lon="32.8465043"><ele>1596.2</ele><time>2015-04-30T08:48:49.0000000+00:00</time></trkpt><trkpt lat="34.9492893" lon="32.8464676"><ele>1590.5</ele><time>2015-04-30T08:48:53.0000000+00:00</time></trkpt><trkpt lat="34.9492404" lon="32.8464432"><ele>1587.8</ele><time>2015-04-30T08:48:57.0000000+00:00</time></trkpt><trkpt lat="34.9491893" lon="32.8464424"><ele>1584.5</ele><time>2015-04-30T08:49:01.0000000+00:00</time></trkpt><trkpt lat="34.9491383" lon="32.8464337"><ele>1582.5</ele><time>2015-04-30T08:49:06.0000000+00:00</time></trkpt><trkpt lat="34.9490838" lon="32.8464183"><ele>1584.4</ele><time>2015-04-30T08:49:11.0000000+00:00</time></trkpt><trkpt lat="34.9490301" lon="32.8464149"><ele>1586.2</ele><time>2015-04-30T08:49:15.0000000+00:00</time></trkpt><trkpt lat="34.9489849" lon="32.8464023"><ele>1585.8</ele><time>2015-04-30T08:49:18.0000000+00:00</time></trkpt><trkpt lat="34.9489277" lon="32.8463848"><ele>1586.0</ele><time>2015-04-30T08:49:22.0000000+00:00</time></trkpt><trkpt lat="34.9488814" lon="32.8463808"><ele>1588.5</ele><time>2015-04-30T08:49:25.0000000+00:00</time></trkpt><trkpt lat="34.9488328" lon="32.8463648"><ele>1590.9</ele><time>2015-04-30T08:49:28.0000000+00:00</time></trkpt><trkpt lat="34.9487797" lon="32.8463589"><ele>1592.8</ele><time>2015-04-30T08:49:32.0000000+00:00</time></trkpt><trkpt lat="34.9487306" lon="32.8463698"><ele>1595.0</ele><time>2015-04-30T08:49:36.0000000+00:00</time></trkpt><trkpt lat="34.9486948" lon="32.8464071"><ele>1593.8</ele><time>2015-04-30T08:49:40.0000000+00:00</time></trkpt><trkpt lat="34.9486676" lon="32.8464558"><ele>1587.5</ele><time>2015-04-30T08:49:44.0000000+00:00</time></trkpt><trkpt lat="34.9486309" lon="32.8464907"><ele>1588.3</ele><time>2015-04-30T08:49:49.0000000+00:00</time></trkpt><trkpt lat="34.9485975" lon="32.8465446"><ele>1591.5</ele><time>2015-04-30T08:49:54.0000000+00:00</time></trkpt><trkpt lat="34.9485555" lon="32.8465788"><ele>1590.2</ele><time>2015-04-30T08:49:58.0000000+00:00</time></trkpt><trkpt lat="34.9485217" lon="32.8466223"><ele>1589.4</ele><time>2015-04-30T08:50:02.0000000+00:00</time></trkpt><trkpt lat="34.9484846" lon="32.8466563"><ele>1592.9</ele><time>2015-04-30T08:50:06.0000000+00:00</time></trkpt><trkpt lat="34.9484418" lon="32.8466901"><ele>1595.5</ele><time>2015-04-30T08:50:11.0000000+00:00</time></trkpt><trkpt lat="34.9484032" lon="32.8467186"><ele>1594.5</ele><time>2015-04-30T08:50:15.0000000+00:00</time></trkpt><trkpt lat="34.9483615" lon="32.8467657"><ele>1595.1</ele><time>2015-04-30T08:50:19.0000000+00:00</time></trkpt><trkpt lat="34.9483189" lon="32.8468107"><ele>1595.0</ele><time>2015-04-30T08:50:23.0000000+00:00</time></trkpt><trkpt lat="34.9482734" lon="32.8468501"><ele>1595.4</ele><time>2015-04-30T08:50:27.0000000+00:00</time></trkpt><trkpt lat="34.9482345" lon="32.8468995"><ele>1595.4</ele><time>2015-04-30T08:50:31.0000000+00:00</time></trkpt><trkpt lat="34.9481948" lon="32.846943"><ele>1594.9</ele><time>2015-04-30T08:50:35.0000000+00:00</time></trkpt><trkpt lat="34.948155" lon="32.8469876"><ele>1593.9</ele><time>2015-04-30T08:50:39.0000000+00:00</time></trkpt><trkpt lat="34.9481134" lon="32.8470334"><ele>1594.7</ele><time>2015-04-30T08:50:43.0000000+00:00</time></trkpt><trkpt lat="34.9480718" lon="32.8470855"><ele>1591.7</ele><time>2015-04-30T08:50:47.0000000+00:00</time></trkpt><trkpt lat="34.9480333" lon="32.847126"><ele>1593.0</ele><time>2015-04-30T08:50:50.0000000+00:00</time></trkpt><trkpt lat="34.9479941" lon="32.8471668"><ele>1594.2</ele><time>2015-04-30T08:50:53.0000000+00:00</time></trkpt><trkpt lat="34.9479528" lon="32.8472085"><ele>1596.1</ele><time>2015-04-30T08:50:56.0000000+00:00</time></trkpt><trkpt lat="34.9479063" lon="32.8472436"><ele>1597.2</ele><time>2015-04-30T08:51:00.0000000+00:00</time></trkpt><trkpt lat="34.9478596" lon="32.8472801"><ele>1597.4</ele><time>2015-04-30T08:51:04.0000000+00:00</time></trkpt><trkpt lat="34.9478017" lon="32.8472945"><ele>1599.1</ele><time>2015-04-30T08:51:08.0000000+00:00</time></trkpt><trkpt lat="34.9477482" lon="32.8473136"><ele>1599.7</ele><time>2015-04-30T08:51:12.0000000+00:00</time></trkpt><trkpt lat="34.9476983" lon="32.8473225"><ele>1600.6</ele><time>2015-04-30T08:51:16.0000000+00:00</time></trkpt><trkpt lat="34.9476535" lon="32.8473319"><ele>1602.3</ele><time>2015-04-30T08:51:20.0000000+00:00</time></trkpt><trkpt lat="34.9475994" lon="32.8473318"><ele>1602.4</ele><time>2015-04-30T08:51:24.0000000+00:00</time></trkpt><trkpt lat="34.9475419" lon="32.8473363"><ele>1602.5</ele><time>2015-04-30T08:51:28.0000000+00:00</time></trkpt><trkpt lat="34.9474802" lon="32.8473409"><ele>1601.0</ele><time>2015-04-30T08:51:31.0000000+00:00</time></trkpt><trkpt lat="34.9474263" lon="32.8473266"><ele>1601.3</ele><time>2015-04-30T08:51:33.0000000+00:00</time></trkpt><trkpt lat="34.9473741" lon="32.8473027"><ele>1603.4</ele><time>2015-04-30T08:51:35.0000000+00:00</time></trkpt><trkpt lat="34.9473244" lon="32.8472783"><ele>1605.2</ele><time>2015-04-30T08:51:37.0000000+00:00</time></trkpt><trkpt lat="34.9472801" lon="32.8472456"><ele>1607.1</ele><time>2015-04-30T08:51:39.0000000+00:00</time></trkpt><trkpt lat="34.9472382" lon="32.8472175"><ele>1607.9</ele><time>2015-04-30T08:51:41.0000000+00:00</time></trkpt><trkpt lat="34.9471808" lon="32.8471875"><ele>1609.2</ele><time>2015-04-30T08:51:44.0000000+00:00</time></trkpt><trkpt lat="34.9471441" lon="32.8471407"><ele>1609.1</ele><time>2015-04-30T08:51:47.0000000+00:00</time></trkpt><trkpt lat="34.9470982" lon="32.8471076"><ele>1608.9</ele><time>2015-04-30T08:51:51.0000000+00:00</time></trkpt><trkpt lat="34.9470587" lon="32.8470795"><ele>1612.5</ele><time>2015-04-30T08:51:54.0000000+00:00</time></trkpt><trkpt lat="34.9470302" lon="32.8470257"><ele>1615.2</ele><time>2015-04-30T08:51:57.0000000+00:00</time></trkpt><trkpt lat="34.9470108" lon="32.846972"><ele>1614.6</ele><time>2015-04-30T08:52:00.0000000+00:00</time></trkpt><trkpt lat="34.9469906" lon="32.8469162"><ele>1618.0</ele><time>2015-04-30T08:52:03.0000000+00:00</time></trkpt><trkpt lat="34.9469588" lon="32.8468642"><ele>1621.2</ele><time>2015-04-30T08:52:06.0000000+00:00</time></trkpt><trkpt lat="34.946939" lon="32.8468077"><ele>1622.6</ele><time>2015-04-30T08:52:09.0000000+00:00</time></trkpt><trkpt lat="34.9469206" lon="32.8467518"><ele>1618.0</ele><time>2015-04-30T08:52:12.0000000+00:00</time></trkpt><trkpt lat="34.9468995" lon="32.8466873"><ele>1613.4</ele><time>2015-04-30T08:52:16.0000000+00:00</time></trkpt><trkpt lat="34.9468629" lon="32.8466297"><ele>1614.9</ele><time>2015-04-30T08:52:20.0000000+00:00</time></trkpt><trkpt lat="34.9468257" lon="32.8465855"><ele>1615.3</ele><time>2015-04-30T08:52:23.0000000+00:00</time></trkpt><trkpt lat="34.9467808" lon="32.8465508"><ele>1615.1</ele><time>2015-04-30T08:52:26.0000000+00:00</time></trkpt><trkpt lat="34.9467384" lon="32.8465307"><ele>1612.8</ele><time>2015-04-30T08:52:30.0000000+00:00</time></trkpt><trkpt lat="34.9466863" lon="32.8465403"><ele>1614.8</ele><time>2015-04-30T08:52:35.0000000+00:00</time></trkpt><trkpt lat="34.9466397" lon="32.8465625"><ele>1615.0</ele><time>2015-04-30T08:52:39.0000000+00:00</time></trkpt><trkpt lat="34.9465969" lon="32.8465817"><ele>1615.6</ele><time>2015-04-30T08:52:43.0000000+00:00</time></trkpt><trkpt lat="34.9465453" lon="32.84661"><ele>1613.6</ele><time>2015-04-30T08:52:47.0000000+00:00</time></trkpt><trkpt lat="34.9465045" lon="32.8466405"><ele>1613.0</ele><time>2015-04-30T08:52:50.0000000+00:00</time></trkpt><trkpt lat="34.9464591" lon="32.8466798"><ele>1613.8</ele><time>2015-04-30T08:52:54.0000000+00:00</time></trkpt><trkpt lat="34.946423" lon="32.8467153"><ele>1615.1</ele><time>2015-04-30T08:52:57.0000000+00:00</time></trkpt><trkpt lat="34.9463888" lon="32.8467515"><ele>1615.2</ele><time>2015-04-30T08:53:00.0000000+00:00</time></trkpt><trkpt lat="34.9463528" lon="32.8467892"><ele>1616.6</ele><time>2015-04-30T08:53:03.0000000+00:00</time></trkpt><trkpt lat="34.9463094" lon="32.8468325"><ele>1618.6</ele><time>2015-04-30T08:53:07.0000000+00:00</time></trkpt><trkpt lat="34.9462716" lon="32.8468841"><ele>1620.4</ele><time>2015-04-30T08:53:11.0000000+00:00</time></trkpt><trkpt lat="34.9462361" lon="32.8469274"><ele>1622.2</ele><time>2015-04-30T08:53:15.0000000+00:00</time></trkpt><trkpt lat="34.9462025" lon="32.8469645"><ele>1622.2</ele><time>2015-04-30T08:53:19.0000000+00:00</time></trkpt><trkpt lat="34.946179" lon="32.8470122"><ele>1622.9</ele><time>2015-04-30T08:53:23.0000000+00:00</time></trkpt><trkpt lat="34.9461445" lon="32.8470552"><ele>1622.8</ele><time>2015-04-30T08:53:27.0000000+00:00</time></trkpt><trkpt lat="34.9461052" lon="32.8471002"><ele>1624.3</ele><time>2015-04-30T08:53:31.0000000+00:00</time></trkpt><trkpt lat="34.9460764" lon="32.847146"><ele>1624.7</ele><time>2015-04-30T08:53:35.0000000+00:00</time></trkpt><trkpt lat="34.9460322" lon="32.8471891"><ele>1623.9</ele><time>2015-04-30T08:53:40.0000000+00:00</time></trkpt><trkpt lat="34.9460004" lon="32.8472378"><ele>1624.0</ele><time>2015-04-30T08:53:44.0000000+00:00</time></trkpt><trkpt lat="34.9459702" lon="32.8472872"><ele>1625.2</ele><time>2015-04-30T08:53:48.0000000+00:00</time></trkpt><trkpt lat="34.9459407" lon="32.8473344"><ele>1625.5</ele><time>2015-04-30T08:53:52.0000000+00:00</time></trkpt><trkpt lat="34.9458999" lon="32.8473828"><ele>1626.5</ele><time>2015-04-30T08:53:56.0000000+00:00</time></trkpt><trkpt lat="34.9458576" lon="32.8474107"><ele>1624.5</ele><time>2015-04-30T08:54:00.0000000+00:00</time></trkpt><trkpt lat="34.9458135" lon="32.8474254"><ele>1624.7</ele><time>2015-04-30T08:54:04.0000000+00:00</time></trkpt><trkpt lat="34.9457573" lon="32.8474446"><ele>1626.1</ele><time>2015-04-30T08:54:12.0000000+00:00</time></trkpt><trkpt lat="34.9457162" lon="32.8474728"><ele>1624.5</ele><time>2015-04-30T08:54:19.0000000+00:00</time></trkpt><trkpt lat="34.9456671" lon="32.8474724"><ele>1621.4</ele><time>2015-04-30T08:54:24.0000000+00:00</time></trkpt><trkpt lat="34.9456101" lon="32.8474742"><ele>1621.6</ele><time>2015-04-30T08:54:28.0000000+00:00</time></trkpt><trkpt lat="34.9455513" lon="32.8474651"><ele>1623.2</ele><time>2015-04-30T08:54:32.0000000+00:00</time></trkpt><trkpt lat="34.9454965" lon="32.8474564"><ele>1624.8</ele><time>2015-04-30T08:54:36.0000000+00:00</time></trkpt><trkpt lat="34.9454412" lon="32.847446"><ele>1624.3</ele><time>2015-04-30T08:54:40.0000000+00:00</time></trkpt><trkpt lat="34.9453869" lon="32.8474423"><ele>1620.6</ele><time>2015-04-30T08:54:44.0000000+00:00</time></trkpt><trkpt lat="34.9453387" lon="32.8474441"><ele>1619.1</ele><time>2015-04-30T08:54:48.0000000+00:00</time></trkpt><trkpt lat="34.9452896" lon="32.8474306"><ele>1619.7</ele><time>2015-04-30T08:54:52.0000000+00:00</time></trkpt><trkpt lat="34.9452402" lon="32.8474207"><ele>1617.5</ele><time>2015-04-30T08:54:56.0000000+00:00</time></trkpt><trkpt lat="34.9451905" lon="32.8474104"><ele>1618.6</ele><time>2015-04-30T08:55:00.0000000+00:00</time></trkpt><trkpt lat="34.945141" lon="32.8474161"><ele>1619.4</ele><time>2015-04-30T08:55:04.0000000+00:00</time></trkpt><trkpt lat="34.9450866" lon="32.847412"><ele>1622.4</ele><time>2015-04-30T08:55:09.0000000+00:00</time></trkpt><trkpt lat="34.9450406" lon="32.8474145"><ele>1624.1</ele><time>2015-04-30T08:55:13.0000000+00:00</time></trkpt><trkpt lat="34.9449942" lon="32.8474128"><ele>1623.8</ele><time>2015-04-30T08:55:17.0000000+00:00</time></trkpt><trkpt lat="34.9449478" lon="32.8474093"><ele>1625.8</ele><time>2015-04-30T08:55:21.0000000+00:00</time></trkpt><trkpt lat="34.9449016" lon="32.8474029"><ele>1625.6</ele><time>2015-04-30T08:55:25.0000000+00:00</time></trkpt><trkpt lat="34.9448521" lon="32.8473885"><ele>1625.9</ele><time>2015-04-30T08:55:31.0000000+00:00</time></trkpt><trkpt lat="34.9448066" lon="32.8473695"><ele>1626.7</ele><time>2015-04-30T08:55:36.0000000+00:00</time></trkpt><trkpt lat="34.9447586" lon="32.8473683"><ele>1626.5</ele><time>2015-04-30T08:55:40.0000000+00:00</time></trkpt><trkpt lat="34.944706" lon="32.8473678"><ele>1628.6</ele><time>2015-04-30T08:55:45.0000000+00:00</time></trkpt><trkpt lat="34.9446582" lon="32.8473571"><ele>1627.8</ele><time>2015-04-30T08:55:50.0000000+00:00</time></trkpt><trkpt lat="34.9446073" lon="32.8473541"><ele>1628.0</ele><time>2015-04-30T08:55:55.0000000+00:00</time></trkpt><trkpt lat="34.9445603" lon="32.8473409"><ele>1629.9</ele><time>2015-04-30T08:56:00.0000000+00:00</time></trkpt><trkpt lat="34.9445117" lon="32.8473194"><ele>1632.4</ele><time>2015-04-30T08:56:05.0000000+00:00</time></trkpt><trkpt lat="34.9444592" lon="32.8472942"><ele>1635.1</ele><time>2015-04-30T08:56:10.0000000+00:00</time></trkpt><trkpt lat="34.9444132" lon="32.847274"><ele>1636.2</ele><time>2015-04-30T08:56:14.0000000+00:00</time></trkpt><trkpt lat="34.9443641" lon="32.8472532"><ele>1637.2</ele><time>2015-04-30T08:56:18.0000000+00:00</time></trkpt><trkpt lat="34.9443147" lon="32.8472358"><ele>1639.4</ele><time>2015-04-30T08:56:22.0000000+00:00</time></trkpt><trkpt lat="34.9442745" lon="32.8472023"><ele>1637.2</ele><time>2015-04-30T08:56:27.0000000+00:00</time></trkpt><trkpt lat="34.9442303" lon="32.8471867"><ele>1637.5</ele><time>2015-04-30T08:56:32.0000000+00:00</time></trkpt><trkpt lat="34.9441819" lon="32.8471873"><ele>1638.2</ele><time>2015-04-30T08:56:37.0000000+00:00</time></trkpt><trkpt lat="34.9441366" lon="32.8471888"><ele>1639.8</ele><time>2015-04-30T08:56:42.0000000+00:00</time></trkpt><trkpt lat="34.9440845" lon="32.8471903"><ele>1645.7</ele><time>2015-04-30T08:56:48.0000000+00:00</time></trkpt><trkpt lat="34.9440398" lon="32.847205"><ele>1646.5</ele><time>2015-04-30T08:56:53.0000000+00:00</time></trkpt><trkpt lat="34.9439995" lon="32.8472431"><ele>1638.6</ele><time>2015-04-30T08:57:12.0000000+00:00</time></trkpt><trkpt lat="34.9439594" lon="32.8472686"><ele>1637.8</ele><time>2015-04-30T08:58:39.0000000+00:00</time></trkpt><trkpt lat="34.9439311" lon="32.847319"><ele>1644.9</ele><time>2015-04-30T09:06:45.0000000+00:00</time></trkpt><trkpt lat="34.9438953" lon="32.8473552"><ele>1646.8</ele><time>2015-04-30T09:06:50.0000000+00:00</time></trkpt><trkpt lat="34.9438594" lon="32.8473963"><ele>1647.7</ele><time>2015-04-30T09:06:55.0000000+00:00</time></trkpt><trkpt lat="34.9438164" lon="32.8474241"><ele>1647.2</ele><time>2015-04-30T09:06:59.0000000+00:00</time></trkpt><trkpt lat="34.9437685" lon="32.8474559"><ele>1649.5</ele><time>2015-04-30T09:07:04.0000000+00:00</time></trkpt><trkpt lat="34.9437272" lon="32.8474895"><ele>1651.3</ele><time>2015-04-30T09:07:09.0000000+00:00</time></trkpt><trkpt lat="34.9436805" lon="32.8475172"><ele>1651.9</ele><time>2015-04-30T09:07:14.0000000+00:00</time></trkpt><trkpt lat="34.9436375" lon="32.8475547"><ele>1651.8</ele><time>2015-04-30T09:07:19.0000000+00:00</time></trkpt><trkpt lat="34.943596" lon="32.8475875"><ele>1652.3</ele><time>2015-04-30T09:07:23.0000000+00:00</time></trkpt><trkpt lat="34.9435503" lon="32.8476231"><ele>1653.5</ele><time>2015-04-30T09:07:27.0000000+00:00</time></trkpt><trkpt lat="34.9435064" lon="32.8476547"><ele>1654.2</ele><time>2015-04-30T09:07:31.0000000+00:00</time></trkpt><trkpt lat="34.9434611" lon="32.8476811"><ele>1655.2</ele><time>2015-04-30T09:07:35.0000000+00:00</time></trkpt><trkpt lat="34.9434171" lon="32.8477039"><ele>1654.0</ele><time>2015-04-30T09:07:39.0000000+00:00</time></trkpt><trkpt lat="34.9433752" lon="32.8477379"><ele>1655.2</ele><time>2015-04-30T09:07:43.0000000+00:00</time></trkpt><trkpt lat="34.9433293" lon="32.8477706"><ele>1654.8</ele><time>2015-04-30T09:07:47.0000000+00:00</time></trkpt><trkpt lat="34.9432836" lon="32.8478107"><ele>1655.5</ele><time>2015-04-30T09:07:52.0000000+00:00</time></trkpt><trkpt lat="34.943245" lon="32.8478564"><ele>1656.3</ele><time>2015-04-30T09:07:57.0000000+00:00</time></trkpt><trkpt lat="34.9432" lon="32.8478912"><ele>1655.9</ele><time>2015-04-30T09:08:02.0000000+00:00</time></trkpt><trkpt lat="34.9431639" lon="32.8479352"><ele>1656.7</ele><time>2015-04-30T09:08:07.0000000+00:00</time></trkpt><trkpt lat="34.9431314" lon="32.8479813"><ele>1658.4</ele><time>2015-04-30T09:08:12.0000000+00:00</time></trkpt><trkpt lat="34.9430963" lon="32.8480264"><ele>1659.4</ele><time>2015-04-30T09:08:17.0000000+00:00</time></trkpt><trkpt lat="34.9430651" lon="32.8480786"><ele>1659.5</ele><time>2015-04-30T09:08:22.0000000+00:00</time></trkpt><trkpt lat="34.9430372" lon="32.8481348"><ele>1657.5</ele><time>2015-04-30T09:08:27.0000000+00:00</time></trkpt><trkpt lat="34.9430172" lon="32.848184"><ele>1658.5</ele><time>2015-04-30T09:08:31.0000000+00:00</time></trkpt><trkpt lat="34.9429905" lon="32.8482325"><ele>1660.0</ele><time>2015-04-30T09:08:35.0000000+00:00</time></trkpt><trkpt lat="34.9429527" lon="32.8482764"><ele>1660.5</ele><time>2015-04-30T09:08:40.0000000+00:00</time></trkpt><trkpt lat="34.9429249" lon="32.8483276"><ele>1661.3</ele><time>2015-04-30T09:08:45.0000000+00:00</time></trkpt><trkpt lat="34.9428971" lon="32.8483767"><ele>1661.7</ele><time>2015-04-30T09:08:49.0000000+00:00</time></trkpt><trkpt lat="34.942867" lon="32.8484225"><ele>1660.8</ele><time>2015-04-30T09:08:53.0000000+00:00</time></trkpt><trkpt lat="34.9428438" lon="32.8484697"><ele>1660.5</ele><time>2015-04-30T09:08:58.0000000+00:00</time></trkpt><trkpt lat="34.9428172" lon="32.8485224"><ele>1659.8</ele><time>2015-04-30T09:09:03.0000000+00:00</time></trkpt><trkpt lat="34.9427843" lon="32.848568"><ele>1660.8</ele><time>2015-04-30T09:09:08.0000000+00:00</time></trkpt><trkpt lat="34.9427616" lon="32.8486211"><ele>1661.7</ele><time>2015-04-30T09:09:13.0000000+00:00</time></trkpt><trkpt lat="34.942728" lon="32.8486685"><ele>1663.6</ele><time>2015-04-30T09:09:18.0000000+00:00</time></trkpt><trkpt lat="34.9426953" lon="32.8487225"><ele>1664.3</ele><time>2015-04-30T09:09:23.0000000+00:00</time></trkpt><trkpt lat="34.94267" lon="32.8487776"><ele>1665.2</ele><time>2015-04-30T09:09:27.0000000+00:00</time></trkpt><trkpt lat="34.9426405" lon="32.8488316"><ele>1665.2</ele><time>2015-04-30T09:09:31.0000000+00:00</time></trkpt><trkpt lat="34.9426062" lon="32.848881"><ele>1665.7</ele><time>2015-04-30T09:09:35.0000000+00:00</time></trkpt><trkpt lat="34.9425806" lon="32.848927"><ele>1666.0</ele><time>2015-04-30T09:09:39.0000000+00:00</time></trkpt><trkpt lat="34.9425602" lon="32.8489761"><ele>1665.8</ele><time>2015-04-30T09:09:43.0000000+00:00</time></trkpt><trkpt lat="34.9425437" lon="32.8490375"><ele>1666.2</ele><time>2015-04-30T09:09:48.0000000+00:00</time></trkpt><trkpt lat="34.9425391" lon="32.8491018"><ele>1666.5</ele><time>2015-04-30T09:09:53.0000000+00:00</time></trkpt><trkpt lat="34.9425529" lon="32.8491656"><ele>1667.6</ele><time>2015-04-30T09:09:58.0000000+00:00</time></trkpt><trkpt lat="34.9425638" lon="32.8492236"><ele>1668.8</ele><time>2015-04-30T09:10:02.0000000+00:00</time></trkpt><trkpt lat="34.942578" lon="32.8492811"><ele>1668.3</ele><time>2015-04-30T09:10:06.0000000+00:00</time></trkpt><trkpt lat="34.9425883" lon="32.8493388"><ele>1669.6</ele><time>2015-04-30T09:10:10.0000000+00:00</time></trkpt><trkpt lat="34.9426092" lon="32.849394"><ele>1671.1</ele><time>2015-04-30T09:10:14.0000000+00:00</time></trkpt><trkpt lat="34.9426374" lon="32.8494508"><ele>1670.9</ele><time>2015-04-30T09:10:19.0000000+00:00</time></trkpt><trkpt lat="34.9426557" lon="32.8495045"><ele>1670.3</ele><time>2015-04-30T09:10:23.0000000+00:00</time></trkpt><trkpt lat="34.9426831" lon="32.8495564"><ele>1672.2</ele><time>2015-04-30T09:10:27.0000000+00:00</time></trkpt><trkpt lat="34.9427159" lon="32.8496003"><ele>1673.6</ele><time>2015-04-30T09:10:31.0000000+00:00</time></trkpt><trkpt lat="34.9427545" lon="32.8496375"><ele>1673.6</ele><time>2015-04-30T09:10:35.0000000+00:00</time></trkpt><trkpt lat="34.9427872" lon="32.8496819"><ele>1674.5</ele><time>2015-04-30T09:10:39.0000000+00:00</time></trkpt><trkpt lat="34.9428296" lon="32.8497056"><ele>1673.9</ele><time>2015-04-30T09:10:43.0000000+00:00</time></trkpt><trkpt lat="34.9428663" lon="32.8497377"><ele>1672.9</ele><time>2015-04-30T09:10:47.0000000+00:00</time></trkpt><trkpt lat="34.9429054" lon="32.8497758"><ele>1671.6</ele><time>2015-04-30T09:10:51.0000000+00:00</time></trkpt><trkpt lat="34.9429466" lon="32.8498102"><ele>1671.8</ele><time>2015-04-30T09:10:55.0000000+00:00</time></trkpt><trkpt lat="34.94298" lon="32.8498518"><ele>1672.6</ele><time>2015-04-30T09:10:59.0000000+00:00</time></trkpt><trkpt lat="34.9430086" lon="32.849902"><ele>1672.7</ele><time>2015-04-30T09:11:03.0000000+00:00</time></trkpt><trkpt lat="34.9430347" lon="32.8499545"><ele>1675.1</ele><time>2015-04-30T09:11:07.0000000+00:00</time></trkpt><trkpt lat="34.9430545" lon="32.8500087"><ele>1677.3</ele><time>2015-04-30T09:11:11.0000000+00:00</time></trkpt><trkpt lat="34.9430722" lon="32.8500717"><ele>1678.6</ele><time>2015-04-30T09:11:15.0000000+00:00</time></trkpt><trkpt lat="34.9430702" lon="32.850139"><ele>1678.0</ele><time>2015-04-30T09:11:19.0000000+00:00</time></trkpt><trkpt lat="34.9430773" lon="32.8501947"><ele>1677.4</ele><time>2015-04-30T09:11:23.0000000+00:00</time></trkpt><trkpt lat="34.9430722" lon="32.8502568"><ele>1677.1</ele><time>2015-04-30T09:11:27.0000000+00:00</time></trkpt><trkpt lat="34.9430674" lon="32.8503249"><ele>1679.0</ele><time>2015-04-30T09:11:31.0000000+00:00</time></trkpt><trkpt lat="34.9430629" lon="32.8503819"><ele>1680.0</ele><time>2015-04-30T09:11:34.0000000+00:00</time></trkpt><trkpt lat="34.9430575" lon="32.850438"><ele>1681.2</ele><time>2015-04-30T09:11:38.0000000+00:00</time></trkpt><trkpt lat="34.9430359" lon="32.8504977"><ele>1682.6</ele><time>2015-04-30T09:11:43.0000000+00:00</time></trkpt><trkpt lat="34.9430284" lon="32.850561"><ele>1683.4</ele><time>2015-04-30T09:11:48.0000000+00:00</time></trkpt><trkpt lat="34.9430226" lon="32.8506216"><ele>1684.2</ele><time>2015-04-30T09:11:53.0000000+00:00</time></trkpt><trkpt lat="34.9430157" lon="32.8506904"><ele>1681.5</ele><time>2015-04-30T09:11:57.0000000+00:00</time></trkpt><trkpt lat="34.9430151" lon="32.8507635"><ele>1683.4</ele><time>2015-04-30T09:12:01.0000000+00:00</time></trkpt><trkpt lat="34.9430209" lon="32.8508301"><ele>1683.9</ele><time>2015-04-30T09:12:05.0000000+00:00</time></trkpt><trkpt lat="34.9430297" lon="32.8508912"><ele>1683.6</ele><time>2015-04-30T09:12:09.0000000+00:00</time></trkpt><trkpt lat="34.943046" lon="32.8509503"><ele>1684.6</ele><time>2015-04-30T09:12:13.0000000+00:00</time></trkpt><trkpt lat="34.9430541" lon="32.8510134"><ele>1684.8</ele><time>2015-04-30T09:12:17.0000000+00:00</time></trkpt><trkpt lat="34.9430672" lon="32.8510693"><ele>1686.0</ele><time>2015-04-30T09:12:21.0000000+00:00</time></trkpt><trkpt lat="34.9430803" lon="32.8511234"><ele>1687.1</ele><time>2015-04-30T09:12:25.0000000+00:00</time></trkpt><trkpt lat="34.9431011" lon="32.8511801"><ele>1686.8</ele><time>2015-04-30T09:12:29.0000000+00:00</time></trkpt><trkpt lat="34.9431208" lon="32.8512343"><ele>1684.6</ele><time>2015-04-30T09:12:33.0000000+00:00</time></trkpt><trkpt lat="34.9431333" lon="32.8512883"><ele>1684.1</ele><time>2015-04-30T09:12:37.0000000+00:00</time></trkpt><trkpt lat="34.9431587" lon="32.8513478"><ele>1686.6</ele><time>2015-04-30T09:12:42.0000000+00:00</time></trkpt><trkpt lat="34.9431738" lon="32.8514004"><ele>1686.4</ele><time>2015-04-30T09:12:46.0000000+00:00</time></trkpt><trkpt lat="34.9431957" lon="32.8514551"><ele>1688.6</ele><time>2015-04-30T09:12:50.0000000+00:00</time></trkpt><trkpt lat="34.9432192" lon="32.8515121"><ele>1687.6</ele><time>2015-04-30T09:12:54.0000000+00:00</time></trkpt><trkpt lat="34.9432426" lon="32.8515623"><ele>1686.9</ele><time>2015-04-30T09:12:58.0000000+00:00</time></trkpt><trkpt lat="34.9432745" lon="32.8516121"><ele>1686.8</ele><time>2015-04-30T09:13:03.0000000+00:00</time></trkpt><trkpt lat="34.9432938" lon="32.8516654"><ele>1688.3</ele><time>2015-04-30T09:13:07.0000000+00:00</time></trkpt><trkpt lat="34.9433114" lon="32.8517249"><ele>1687.8</ele><time>2015-04-30T09:13:11.0000000+00:00</time></trkpt><trkpt lat="34.9433276" lon="32.851786"><ele>1686.9</ele><time>2015-04-30T09:13:15.0000000+00:00</time></trkpt><trkpt lat="34.9433571" lon="32.8518405"><ele>1686.8</ele><time>2015-04-30T09:13:19.0000000+00:00</time></trkpt><trkpt lat="34.943389" lon="32.8518913"><ele>1689.1</ele><time>2015-04-30T09:13:23.0000000+00:00</time></trkpt><trkpt lat="34.943415" lon="32.8519374"><ele>1691.3</ele><time>2015-04-30T09:13:27.0000000+00:00</time></trkpt><trkpt lat="34.9434248" lon="32.851994"><ele>1692.2</ele><time>2015-04-30T09:13:31.0000000+00:00</time></trkpt><trkpt lat="34.9434593" lon="32.852033"><ele>1693.0</ele><time>2015-04-30T09:13:35.0000000+00:00</time></trkpt><trkpt lat="34.9434869" lon="32.8520878"><ele>1693.2</ele><time>2015-04-30T09:13:40.0000000+00:00</time></trkpt><trkpt lat="34.9435158" lon="32.8521466"><ele>1692.0</ele><time>2015-04-30T09:13:45.0000000+00:00</time></trkpt><trkpt lat="34.9435462" lon="32.8521941"><ele>1690.8</ele><time>2015-04-30T09:13:49.0000000+00:00</time></trkpt><trkpt lat="34.9435681" lon="32.8522476"><ele>1691.0</ele><time>2015-04-30T09:13:53.0000000+00:00</time></trkpt><trkpt lat="34.9435798" lon="32.8523021"><ele>1689.8</ele><time>2015-04-30T09:13:57.0000000+00:00</time></trkpt><trkpt lat="34.9435984" lon="32.8523532"><ele>1689.7</ele><time>2015-04-30T09:14:01.0000000+00:00</time></trkpt><trkpt lat="34.9436218" lon="32.8524047"><ele>1690.3</ele><time>2015-04-30T09:14:05.0000000+00:00</time></trkpt><trkpt lat="34.9436502" lon="32.8524579"><ele>1690.8</ele><time>2015-04-30T09:14:10.0000000+00:00</time></trkpt><trkpt lat="34.9436712" lon="32.8525138"><ele>1689.6</ele><time>2015-04-30T09:14:15.0000000+00:00</time></trkpt><trkpt lat="34.9437022" lon="32.8525687"><ele>1692.1</ele><time>2015-04-30T09:14:20.0000000+00:00</time></trkpt><trkpt lat="34.9437348" lon="32.8526239"><ele>1691.0</ele><time>2015-04-30T09:14:25.0000000+00:00</time></trkpt><trkpt lat="34.9437512" lon="32.852678"><ele>1691.7</ele><time>2015-04-30T09:14:29.0000000+00:00</time></trkpt><trkpt lat="34.9437861" lon="32.8527316"><ele>1692.5</ele><time>2015-04-30T09:14:34.0000000+00:00</time></trkpt><trkpt lat="34.9438078" lon="32.8527845"><ele>1695.1</ele><time>2015-04-30T09:14:38.0000000+00:00</time></trkpt><trkpt lat="34.9438281" lon="32.8528373"><ele>1695.5</ele><time>2015-04-30T09:14:42.0000000+00:00</time></trkpt><trkpt lat="34.9438514" lon="32.8528982"><ele>1695.8</ele><time>2015-04-30T09:14:47.0000000+00:00</time></trkpt><trkpt lat="34.9438474" lon="32.8529607"><ele>1696.6</ele><time>2015-04-30T09:14:52.0000000+00:00</time></trkpt><trkpt lat="34.9438821" lon="32.8529962"><ele>1696.8</ele><time>2015-04-30T09:14:56.0000000+00:00</time></trkpt><trkpt lat="34.9439204" lon="32.85304"><ele>1699.0</ele><time>2015-04-30T09:15:00.0000000+00:00</time></trkpt><trkpt lat="34.9439494" lon="32.8530934"><ele>1700.7</ele><time>2015-04-30T09:15:04.0000000+00:00</time></trkpt><trkpt lat="34.9439641" lon="32.8531514"><ele>1700.8</ele><time>2015-04-30T09:15:08.0000000+00:00</time></trkpt><trkpt lat="34.9439988" lon="32.8532019"><ele>1702.2</ele><time>2015-04-30T09:15:13.0000000+00:00</time></trkpt><trkpt lat="34.9440375" lon="32.8532435"><ele>1703.7</ele><time>2015-04-30T09:15:17.0000000+00:00</time></trkpt><trkpt lat="34.9440741" lon="32.8532862"><ele>1703.7</ele><time>2015-04-30T09:15:21.0000000+00:00</time></trkpt><trkpt lat="34.9441083" lon="32.8533297"><ele>1703.0</ele><time>2015-04-30T09:15:25.0000000+00:00</time></trkpt><trkpt lat="34.9441517" lon="32.8533715"><ele>1704.0</ele><time>2015-04-30T09:15:29.0000000+00:00</time></trkpt><trkpt lat="34.9441978" lon="32.8534065"><ele>1703.1</ele><time>2015-04-30T09:15:33.0000000+00:00</time></trkpt><trkpt lat="34.9442417" lon="32.8534507"><ele>1705.0</ele><time>2015-04-30T09:15:37.0000000+00:00</time></trkpt><trkpt lat="34.9442744" lon="32.8535007"><ele>1705.6</ele><time>2015-04-30T09:15:41.0000000+00:00</time></trkpt><trkpt lat="34.944318" lon="32.8535348"><ele>1707.4</ele><time>2015-04-30T09:15:45.0000000+00:00</time></trkpt><trkpt lat="34.944353" lon="32.8535708"><ele>1707.6</ele><time>2015-04-30T09:15:49.0000000+00:00</time></trkpt><trkpt lat="34.9443924" lon="32.8536009"><ele>1706.6</ele><time>2015-04-30T09:15:54.0000000+00:00</time></trkpt><trkpt lat="34.9444345" lon="32.8536387"><ele>1708.9</ele><time>2015-04-30T09:15:59.0000000+00:00</time></trkpt><trkpt lat="34.944475" lon="32.8536678"><ele>1707.9</ele><time>2015-04-30T09:16:03.0000000+00:00</time></trkpt><trkpt lat="34.944527" lon="32.8536936"><ele>1707.7</ele><time>2015-04-30T09:16:08.0000000+00:00</time></trkpt><trkpt lat="34.9445691" lon="32.8537352"><ele>1711.1</ele><time>2015-04-30T09:16:13.0000000+00:00</time></trkpt><trkpt lat="34.944612" lon="32.8537796"><ele>1714.3</ele><time>2015-04-30T09:16:18.0000000+00:00</time></trkpt><trkpt lat="34.9446522" lon="32.8538131"><ele>1714.5</ele><time>2015-04-30T09:16:22.0000000+00:00</time></trkpt><trkpt lat="34.944682" lon="32.8538579"><ele>1715.2</ele><time>2015-04-30T09:16:26.0000000+00:00</time></trkpt><trkpt lat="34.9447167" lon="32.8538937"><ele>1716.1</ele><time>2015-04-30T09:16:30.0000000+00:00</time></trkpt><trkpt lat="34.9447498" lon="32.8539362"><ele>1714.0</ele><time>2015-04-30T09:16:34.0000000+00:00</time></trkpt><trkpt lat="34.9447814" lon="32.853987"><ele>1713.6</ele><time>2015-04-30T09:16:38.0000000+00:00</time></trkpt><trkpt lat="34.9448192" lon="32.8540328"><ele>1714.3</ele><time>2015-04-30T09:16:42.0000000+00:00</time></trkpt><trkpt lat="34.9448513" lon="32.8540812"><ele>1713.6</ele><time>2015-04-30T09:16:46.0000000+00:00</time></trkpt><trkpt lat="34.9448794" lon="32.8541302"><ele>1713.0</ele><time>2015-04-30T09:16:50.0000000+00:00</time></trkpt><trkpt lat="34.9448962" lon="32.8541867"><ele>1712.6</ele><time>2015-04-30T09:16:54.0000000+00:00</time></trkpt><trkpt lat="34.944922" lon="32.8542392"><ele>1713.4</ele><time>2015-04-30T09:16:58.0000000+00:00</time></trkpt><trkpt lat="34.9449528" lon="32.8542825"><ele>1713.7</ele><time>2015-04-30T09:17:02.0000000+00:00</time></trkpt><trkpt lat="34.9449878" lon="32.8543194"><ele>1713.3</ele><time>2015-04-30T09:17:06.0000000+00:00</time></trkpt><trkpt lat="34.9450149" lon="32.8543711"><ele>1714.1</ele><time>2015-04-30T09:17:10.0000000+00:00</time></trkpt><trkpt lat="34.9450523" lon="32.8544234"><ele>1714.2</ele><time>2015-04-30T09:17:14.0000000+00:00</time></trkpt><trkpt lat="34.9450844" lon="32.8544624"><ele>1714.7</ele><time>2015-04-30T09:17:17.0000000+00:00</time></trkpt><trkpt lat="34.9451094" lon="32.8545163"><ele>1713.4</ele><time>2015-04-30T09:17:20.0000000+00:00</time></trkpt><trkpt lat="34.9451364" lon="32.8545757"><ele>1713.3</ele><time>2015-04-30T09:17:23.0000000+00:00</time></trkpt><trkpt lat="34.9451601" lon="32.8546334"><ele>1713.3</ele><time>2015-04-30T09:17:26.0000000+00:00</time></trkpt><trkpt lat="34.9451668" lon="32.8546901"><ele>1715.3</ele><time>2015-04-30T09:17:29.0000000+00:00</time></trkpt><trkpt lat="34.9451342" lon="32.8547451"><ele>1716.0</ele><time>2015-04-30T09:17:33.0000000+00:00</time></trkpt><trkpt lat="34.9451588" lon="32.8548039"><ele>1717.4</ele><time>2015-04-30T09:17:37.0000000+00:00</time></trkpt><trkpt lat="34.9451569" lon="32.8548701"><ele>1717.3</ele><time>2015-04-30T09:17:41.0000000+00:00</time></trkpt><trkpt lat="34.9451132" lon="32.8549171"><ele>1717.7</ele><time>2015-04-30T09:17:45.0000000+00:00</time></trkpt><trkpt lat="34.9450723" lon="32.8549537"><ele>1717.4</ele><time>2015-04-30T09:17:49.0000000+00:00</time></trkpt><trkpt lat="34.9450259" lon="32.854963"><ele>1718.2</ele><time>2015-04-30T09:17:53.0000000+00:00</time></trkpt><trkpt lat="34.9449832" lon="32.8550044"><ele>1719.7</ele><time>2015-04-30T09:18:02.0000000+00:00</time></trkpt><trkpt lat="34.9449322" lon="32.8550077"><ele>1719.3</ele><time>2015-04-30T09:18:06.0000000+00:00</time></trkpt><trkpt lat="34.9448848" lon="32.8550008"><ele>1719.5</ele><time>2015-04-30T09:18:10.0000000+00:00</time></trkpt><trkpt lat="34.944831" lon="32.8549864"><ele>1722.8</ele><time>2015-04-30T09:18:15.0000000+00:00</time></trkpt><trkpt lat="34.9447768" lon="32.85497"><ele>1721.9</ele><time>2015-04-30T09:18:20.0000000+00:00</time></trkpt><trkpt lat="34.9447355" lon="32.8549434"><ele>1721.2</ele><time>2015-04-30T09:18:24.0000000+00:00</time></trkpt><trkpt lat="34.9446901" lon="32.8549178"><ele>1720.9</ele><time>2015-04-30T09:18:28.0000000+00:00</time></trkpt><trkpt lat="34.9446498" lon="32.8548924"><ele>1723.6</ele><time>2015-04-30T09:18:32.0000000+00:00</time></trkpt><trkpt lat="34.9446072" lon="32.8548648"><ele>1725.6</ele><time>2015-04-30T09:18:36.0000000+00:00</time></trkpt><trkpt lat="34.9445567" lon="32.854837"><ele>1726.4</ele><time>2015-04-30T09:18:41.0000000+00:00</time></trkpt><trkpt lat="34.9445016" lon="32.8548269"><ele>1727.0</ele><time>2015-04-30T09:18:46.0000000+00:00</time></trkpt><trkpt lat="34.9444507" lon="32.8548051"><ele>1728.2</ele><time>2015-04-30T09:18:51.0000000+00:00</time></trkpt><trkpt lat="34.9444021" lon="32.8547857"><ele>1728.9</ele><time>2015-04-30T09:18:57.0000000+00:00</time></trkpt><trkpt lat="34.9443568" lon="32.8547806"><ele>1728.3</ele><time>2015-04-30T09:19:02.0000000+00:00</time></trkpt><trkpt lat="34.9443098" lon="32.8547774"><ele>1729.0</ele><time>2015-04-30T09:19:07.0000000+00:00</time></trkpt><trkpt lat="34.9442615" lon="32.8547672"><ele>1729.2</ele><time>2015-04-30T09:19:12.0000000+00:00</time></trkpt><trkpt lat="34.9442189" lon="32.8547458"><ele>1728.9</ele><time>2015-04-30T09:19:17.0000000+00:00</time></trkpt><trkpt lat="34.9441723" lon="32.8547363"><ele>1731.2</ele><time>2015-04-30T09:19:22.0000000+00:00</time></trkpt><trkpt lat="34.9441259" lon="32.854742"><ele>1732.3</ele><time>2015-04-30T09:19:27.0000000+00:00</time></trkpt><trkpt lat="34.9440742" lon="32.854746"><ele>1733.2</ele><time>2015-04-30T09:19:32.0000000+00:00</time></trkpt><trkpt lat="34.9440243" lon="32.8547588"><ele>1732.1</ele><time>2015-04-30T09:19:37.0000000+00:00</time></trkpt><trkpt lat="34.943978" lon="32.8547944"><ele>1733.2</ele><time>2015-04-30T09:19:42.0000000+00:00</time></trkpt><trkpt lat="34.9439378" lon="32.8548298"><ele>1732.4</ele><time>2015-04-30T09:19:47.0000000+00:00</time></trkpt><trkpt lat="34.9438971" lon="32.8548713"><ele>1731.8</ele><time>2015-04-30T09:19:53.0000000+00:00</time></trkpt><trkpt lat="34.9438695" lon="32.8549187"><ele>1731.5</ele><time>2015-04-30T09:19:58.0000000+00:00</time></trkpt><trkpt lat="34.9438456" lon="32.8549685"><ele>1730.3</ele><time>2015-04-30T09:20:07.0000000+00:00</time></trkpt><trkpt lat="34.9438337" lon="32.8550233"><ele>1729.8</ele><time>2015-04-30T09:20:12.0000000+00:00</time></trkpt><trkpt lat="34.9438183" lon="32.8550768"><ele>1731.1</ele><time>2015-04-30T09:20:16.0000000+00:00</time></trkpt><trkpt lat="34.9438047" lon="32.8551346"><ele>1730.9</ele><time>2015-04-30T09:20:20.0000000+00:00</time></trkpt><trkpt lat="34.943796" lon="32.8551985"><ele>1731.4</ele><time>2015-04-30T09:20:25.0000000+00:00</time></trkpt><trkpt lat="34.9437985" lon="32.8552641"><ele>1738.1</ele><time>2015-04-30T09:20:38.0000000+00:00</time></trkpt><trkpt lat="34.943799" lon="32.8553207"><ele>1739.5</ele><time>2015-04-30T09:20:42.0000000+00:00</time></trkpt><trkpt lat="34.9438009" lon="32.8553774"><ele>1738.8</ele><time>2015-04-30T09:20:46.0000000+00:00</time></trkpt><trkpt lat="34.9438041" lon="32.8554443"><ele>1738.5</ele><time>2015-04-30T09:20:51.0000000+00:00</time></trkpt><trkpt lat="34.9438071" lon="32.8554994"><ele>1739.5</ele><time>2015-04-30T09:20:55.0000000+00:00</time></trkpt><trkpt lat="34.9438108" lon="32.855563"><ele>1740.7</ele><time>2015-04-30T09:21:00.0000000+00:00</time></trkpt><trkpt lat="34.943806" lon="32.8556228"><ele>1740.3</ele><time>2015-04-30T09:21:05.0000000+00:00</time></trkpt><trkpt lat="34.9438025" lon="32.855679"><ele>1739.8</ele><time>2015-04-30T09:21:10.0000000+00:00</time></trkpt><trkpt lat="34.943808" lon="32.8557387"><ele>1739.4</ele><time>2015-04-30T09:21:15.0000000+00:00</time></trkpt><trkpt lat="34.9438048" lon="32.8557959"><ele>1741.7</ele><time>2015-04-30T09:21:20.0000000+00:00</time></trkpt><trkpt lat="34.9437992" lon="32.8558582"><ele>1741.3</ele><time>2015-04-30T09:21:25.0000000+00:00</time></trkpt><trkpt lat="34.9438012" lon="32.8559198"><ele>1739.8</ele><time>2015-04-30T09:21:30.0000000+00:00</time></trkpt><trkpt lat="34.943805" lon="32.8559854"><ele>1740.8</ele><time>2015-04-30T09:21:35.0000000+00:00</time></trkpt><trkpt lat="34.943808" lon="32.8560454"><ele>1743.2</ele><time>2015-04-30T09:21:40.0000000+00:00</time></trkpt><trkpt lat="34.9437785" lon="32.8560946"><ele>1743.2</ele><time>2015-04-30T09:21:45.0000000+00:00</time></trkpt><trkpt lat="34.9437538" lon="32.856151"><ele>1742.8</ele><time>2015-04-30T09:21:50.0000000+00:00</time></trkpt><trkpt lat="34.9437497" lon="32.8562059"><ele>1741.1</ele><time>2015-04-30T09:21:54.0000000+00:00</time></trkpt><trkpt lat="34.9437477" lon="32.8562733"><ele>1741.5</ele><time>2015-04-30T09:21:59.0000000+00:00</time></trkpt><trkpt lat="34.9437483" lon="32.8563327"><ele>1741.8</ele><time>2015-04-30T09:22:04.0000000+00:00</time></trkpt><trkpt lat="34.9437596" lon="32.8563872"><ele>1742.0</ele><time>2015-04-30T09:22:16.0000000+00:00</time></trkpt><trkpt lat="34.9437192" lon="32.8563605"><ele>1733.3</ele><time>2015-04-30T09:27:04.0000000+00:00</time></trkpt><trkpt lat="34.9437538" lon="32.8563989"><ele>1738.7</ele><time>2015-04-30T09:27:49.0000000+00:00</time></trkpt><trkpt lat="34.9438047" lon="32.8564064"><ele>1739.0</ele><time>2015-04-30T09:28:17.0000000+00:00</time></trkpt><trkpt lat="34.943813" lon="32.8564606"><ele>1740.6</ele><time>2015-04-30T09:28:31.0000000+00:00</time></trkpt><trkpt lat="34.9438354" lon="32.8565098"><ele>1739.7</ele><time>2015-04-30T09:28:36.0000000+00:00</time></trkpt><trkpt lat="34.9438367" lon="32.8565718"><ele>1740.7</ele><time>2015-04-30T09:28:43.0000000+00:00</time></trkpt><trkpt lat="34.9438218" lon="32.856626"><ele>1740.9</ele><time>2015-04-30T09:28:48.0000000+00:00</time></trkpt><trkpt lat="34.9438078" lon="32.8566887"><ele>1745.5</ele><time>2015-04-30T09:28:55.0000000+00:00</time></trkpt><trkpt lat="34.9437994" lon="32.8567474"><ele>1744.9</ele><time>2015-04-30T09:29:00.0000000+00:00</time></trkpt><trkpt lat="34.9437761" lon="32.8567957"><ele>1746.6</ele><time>2015-04-30T09:29:06.0000000+00:00</time></trkpt><trkpt lat="34.9437749" lon="32.8568507"><ele>1747.1</ele><time>2015-04-30T09:29:13.0000000+00:00</time></trkpt><trkpt lat="34.9437546" lon="32.8569032"><ele>1748.7</ele><time>2015-04-30T09:29:19.0000000+00:00</time></trkpt><trkpt lat="34.9437368" lon="32.8569543"><ele>1749.3</ele><time>2015-04-30T09:29:24.0000000+00:00</time></trkpt><trkpt lat="34.9437106" lon="32.8570096"><ele>1749.4</ele><time>2015-04-30T09:29:29.0000000+00:00</time></trkpt><trkpt lat="34.9436825" lon="32.8570556"><ele>1752.1</ele><time>2015-04-30T09:29:33.0000000+00:00</time></trkpt><trkpt lat="34.9436539" lon="32.857099"><ele>1752.7</ele><time>2015-04-30T09:29:37.0000000+00:00</time></trkpt><trkpt lat="34.9436254" lon="32.857146"><ele>1752.3</ele><time>2015-04-30T09:29:41.0000000+00:00</time></trkpt><trkpt lat="34.9435957" lon="32.8571935"><ele>1752.7</ele><time>2015-04-30T09:29:45.0000000+00:00</time></trkpt><trkpt lat="34.9435666" lon="32.8572368"><ele>1751.7</ele><time>2015-04-30T09:29:49.0000000+00:00</time></trkpt><trkpt lat="34.9435357" lon="32.857278"><ele>1753.4</ele><time>2015-04-30T09:29:53.0000000+00:00</time></trkpt><trkpt lat="34.9434896" lon="32.8573098"><ele>1754.6</ele><time>2015-04-30T09:29:58.0000000+00:00</time></trkpt><trkpt lat="34.9434644" lon="32.8573633"><ele>1754.8</ele><time>2015-04-30T09:30:03.0000000+00:00</time></trkpt><trkpt lat="34.9434307" lon="32.8574117"><ele>1755.5</ele><time>2015-04-30T09:30:08.0000000+00:00</time></trkpt><trkpt lat="34.9433953" lon="32.8574588"><ele>1756.5</ele><time>2015-04-30T09:30:14.0000000+00:00</time></trkpt><trkpt lat="34.9433609" lon="32.8575106"><ele>1758.4</ele><time>2015-04-30T09:30:19.0000000+00:00</time></trkpt><trkpt lat="34.9433176" lon="32.85755"><ele>1758.8</ele><time>2015-04-30T09:30:24.0000000+00:00</time></trkpt><trkpt lat="34.9432845" lon="32.8575943"><ele>1758.6</ele><time>2015-04-30T09:30:30.0000000+00:00</time></trkpt><trkpt lat="34.9432462" lon="32.8576254"><ele>1759.6</ele><time>2015-04-30T09:30:35.0000000+00:00</time></trkpt><trkpt lat="34.9432125" lon="32.8576769"><ele>1759.8</ele><time>2015-04-30T09:30:40.0000000+00:00</time></trkpt><trkpt lat="34.9431703" lon="32.8577103"><ele>1759.9</ele><time>2015-04-30T09:30:46.0000000+00:00</time></trkpt><trkpt lat="34.9431311" lon="32.8577422"><ele>1760.2</ele><time>2015-04-30T09:30:51.0000000+00:00</time></trkpt><trkpt lat="34.9430909" lon="32.8577829"><ele>1759.4</ele><time>2015-04-30T09:30:56.0000000+00:00</time></trkpt><trkpt lat="34.9430543" lon="32.8578228"><ele>1759.8</ele><time>2015-04-30T09:31:01.0000000+00:00</time></trkpt><trkpt lat="34.9430191" lon="32.8578694"><ele>1762.0</ele><time>2015-04-30T09:31:06.0000000+00:00</time></trkpt><trkpt lat="34.9429942" lon="32.8579181"><ele>1761.3</ele><time>2015-04-30T09:31:10.0000000+00:00</time></trkpt><trkpt lat="34.9429763" lon="32.8579759"><ele>1761.3</ele><time>2015-04-30T09:31:15.0000000+00:00</time></trkpt><trkpt lat="34.9429512" lon="32.8580307"><ele>1761.8</ele><time>2015-04-30T09:31:21.0000000+00:00</time></trkpt><trkpt lat="34.9429203" lon="32.8580727"><ele>1761.8</ele><time>2015-04-30T09:31:26.0000000+00:00</time></trkpt><trkpt lat="34.9428886" lon="32.8581177"><ele>1761.3</ele><time>2015-04-30T09:31:32.0000000+00:00</time></trkpt><trkpt lat="34.9428692" lon="32.858168"><ele>1762.5</ele><time>2015-04-30T09:31:36.0000000+00:00</time></trkpt><trkpt lat="34.9428395" lon="32.8582154"><ele>1763.2</ele><time>2015-04-30T09:31:40.0000000+00:00</time></trkpt><trkpt lat="34.9428014" lon="32.8582652"><ele>1763.7</ele><time>2015-04-30T09:31:45.0000000+00:00</time></trkpt><trkpt lat="34.9427794" lon="32.8583144"><ele>1764.5</ele><time>2015-04-30T09:31:49.0000000+00:00</time></trkpt><trkpt lat="34.9427674" lon="32.8583691"><ele>1764.7</ele><time>2015-04-30T09:31:53.0000000+00:00</time></trkpt><trkpt lat="34.9427376" lon="32.8584137"><ele>1766.6</ele><time>2015-04-30T09:31:57.0000000+00:00</time></trkpt><trkpt lat="34.9427155" lon="32.8584734"><ele>1766.3</ele><time>2015-04-30T09:32:02.0000000+00:00</time></trkpt><trkpt lat="34.9426935" lon="32.8585259"><ele>1766.5</ele><time>2015-04-30T09:32:07.0000000+00:00</time></trkpt><trkpt lat="34.9426653" lon="32.8585748"><ele>1766.8</ele><time>2015-04-30T09:32:12.0000000+00:00</time></trkpt><trkpt lat="34.942645" lon="32.8586379"><ele>1768.5</ele><time>2015-04-30T09:32:17.0000000+00:00</time></trkpt><trkpt lat="34.9426289" lon="32.8586902"><ele>1770.1</ele><time>2015-04-30T09:32:21.0000000+00:00</time></trkpt><trkpt lat="34.9426092" lon="32.8587413"><ele>1770.7</ele><time>2015-04-30T09:32:25.0000000+00:00</time></trkpt><trkpt lat="34.9425996" lon="32.8588072"><ele>1771.0</ele><time>2015-04-30T09:32:30.0000000+00:00</time></trkpt><trkpt lat="34.9425889" lon="32.8588733"><ele>1771.4</ele><time>2015-04-30T09:32:35.0000000+00:00</time></trkpt><trkpt lat="34.9425785" lon="32.858929"><ele>1772.2</ele><time>2015-04-30T09:32:39.0000000+00:00</time></trkpt><trkpt lat="34.942587" lon="32.8589867"><ele>1771.9</ele><time>2015-04-30T09:32:43.0000000+00:00</time></trkpt><trkpt lat="34.9425886" lon="32.8590491"><ele>1771.0</ele><time>2015-04-30T09:32:47.0000000+00:00</time></trkpt><trkpt lat="34.9425978" lon="32.8591099"><ele>1770.8</ele><time>2015-04-30T09:32:51.0000000+00:00</time></trkpt><trkpt lat="34.9426018" lon="32.859166"><ele>1771.6</ele><time>2015-04-30T09:32:55.0000000+00:00</time></trkpt><trkpt lat="34.9426081" lon="32.8592257"><ele>1771.1</ele><time>2015-04-30T09:32:59.0000000+00:00</time></trkpt><trkpt lat="34.9426083" lon="32.8592958"><ele>1772.5</ele><time>2015-04-30T09:33:03.0000000+00:00</time></trkpt><trkpt lat="34.9425992" lon="32.8593587"><ele>1772.8</ele><time>2015-04-30T09:33:07.0000000+00:00</time></trkpt><trkpt lat="34.9426086" lon="32.8594165"><ele>1773.5</ele><time>2015-04-30T09:33:11.0000000+00:00</time></trkpt><trkpt lat="34.9426126" lon="32.8594764"><ele>1776.2</ele><time>2015-04-30T09:33:15.0000000+00:00</time></trkpt><trkpt lat="34.9426305" lon="32.8595283"><ele>1775.9</ele><time>2015-04-30T09:33:19.0000000+00:00</time></trkpt><trkpt lat="34.9426484" lon="32.8595908"><ele>1775.8</ele><time>2015-04-30T09:33:24.0000000+00:00</time></trkpt><trkpt lat="34.9426697" lon="32.8596488"><ele>1776.3</ele><time>2015-04-30T09:33:29.0000000+00:00</time></trkpt><trkpt lat="34.9426866" lon="32.8597034"><ele>1777.7</ele><time>2015-04-30T09:33:34.0000000+00:00</time></trkpt><trkpt lat="34.9427099" lon="32.8597544"><ele>1776.9</ele><time>2015-04-30T09:33:39.0000000+00:00</time></trkpt><trkpt lat="34.942718" lon="32.859809"><ele>1777.6</ele><time>2015-04-30T09:33:43.0000000+00:00</time></trkpt><trkpt lat="34.9427352" lon="32.8598616"><ele>1779.4</ele><time>2015-04-30T09:33:47.0000000+00:00</time></trkpt><trkpt lat="34.9427605" lon="32.8599217"><ele>1780.7</ele><time>2015-04-30T09:33:52.0000000+00:00</time></trkpt><trkpt lat="34.9427856" lon="32.859975"><ele>1780.3</ele><time>2015-04-30T09:33:56.0000000+00:00</time></trkpt><trkpt lat="34.9428116" lon="32.8600272"><ele>1778.9</ele><time>2015-04-30T09:34:00.0000000+00:00</time></trkpt><trkpt lat="34.9428293" lon="32.8600847"><ele>1778.3</ele><time>2015-04-30T09:34:04.0000000+00:00</time></trkpt><trkpt lat="34.9428407" lon="32.8601402"><ele>1778.7</ele><time>2015-04-30T09:34:08.0000000+00:00</time></trkpt><trkpt lat="34.9428579" lon="32.860192"><ele>1780.0</ele><time>2015-04-30T09:34:12.0000000+00:00</time></trkpt><trkpt lat="34.9428738" lon="32.8602512"><ele>1779.9</ele><time>2015-04-30T09:34:17.0000000+00:00</time></trkpt><trkpt lat="34.942873" lon="32.8603102"><ele>1780.6</ele><time>2015-04-30T09:34:22.0000000+00:00</time></trkpt><trkpt lat="34.9428745" lon="32.8603752"><ele>1781.9</ele><time>2015-04-30T09:34:27.0000000+00:00</time></trkpt><trkpt lat="34.9428788" lon="32.8604427"><ele>1781.6</ele><time>2015-04-30T09:34:32.0000000+00:00</time></trkpt><trkpt lat="34.9428768" lon="32.8605058"><ele>1781.4</ele><time>2015-04-30T09:34:36.0000000+00:00</time></trkpt><trkpt lat="34.9428796" lon="32.8605712"><ele>1781.7</ele><time>2015-04-30T09:34:40.0000000+00:00</time></trkpt><trkpt lat="34.9428915" lon="32.8606341"><ele>1782.3</ele><time>2015-04-30T09:34:44.0000000+00:00</time></trkpt><trkpt lat="34.9428977" lon="32.8607036"><ele>1782.2</ele><time>2015-04-30T09:34:48.0000000+00:00</time></trkpt><trkpt lat="34.9429043" lon="32.8607596"><ele>1782.3</ele><time>2015-04-30T09:34:51.0000000+00:00</time></trkpt><trkpt lat="34.9429153" lon="32.8608283"><ele>1783.1</ele><time>2015-04-30T09:34:55.0000000+00:00</time></trkpt><trkpt lat="34.9429239" lon="32.8608943"><ele>1782.9</ele><time>2015-04-30T09:34:59.0000000+00:00</time></trkpt><trkpt lat="34.9429294" lon="32.8609607"><ele>1782.8</ele><time>2015-04-30T09:35:03.0000000+00:00</time></trkpt><trkpt lat="34.942938" lon="32.8610274"><ele>1783.5</ele><time>2015-04-30T09:35:07.0000000+00:00</time></trkpt><trkpt lat="34.9429437" lon="32.861096"><ele>1783.3</ele><time>2015-04-30T09:35:12.0000000+00:00</time></trkpt><trkpt lat="34.9429523" lon="32.8611572"><ele>1782.8</ele><time>2015-04-30T09:35:17.0000000+00:00</time></trkpt><trkpt lat="34.9429617" lon="32.8612187"><ele>1783.2</ele><time>2015-04-30T09:35:22.0000000+00:00</time></trkpt><trkpt lat="34.9429671" lon="32.8612747"><ele>1784.5</ele><time>2015-04-30T09:35:26.0000000+00:00</time></trkpt><trkpt lat="34.942975" lon="32.8613334"><ele>1785.7</ele><time>2015-04-30T09:35:30.0000000+00:00</time></trkpt><trkpt lat="34.9429836" lon="32.8613934"><ele>1785.6</ele><time>2015-04-30T09:35:35.0000000+00:00</time></trkpt><trkpt lat="34.9429844" lon="32.8614528"><ele>1785.4</ele><time>2015-04-30T09:35:39.0000000+00:00</time></trkpt><trkpt lat="34.9429868" lon="32.8615174"><ele>1787.4</ele><time>2015-04-30T09:35:43.0000000+00:00</time></trkpt><trkpt lat="34.9429975" lon="32.8615772"><ele>1786.8</ele><time>2015-04-30T09:35:47.0000000+00:00</time></trkpt><trkpt lat="34.943003" lon="32.861643"><ele>1787.0</ele><time>2015-04-30T09:35:51.0000000+00:00</time></trkpt><trkpt lat="34.9430108" lon="32.8617076"><ele>1787.0</ele><time>2015-04-30T09:35:55.0000000+00:00</time></trkpt><trkpt lat="34.943014" lon="32.8617696"><ele>1788.2</ele><time>2015-04-30T09:35:59.0000000+00:00</time></trkpt><trkpt lat="34.9430185" lon="32.861833"><ele>1789.4</ele><time>2015-04-30T09:36:03.0000000+00:00</time></trkpt><trkpt lat="34.9430335" lon="32.8618952"><ele>1790.9</ele><time>2015-04-30T09:36:07.0000000+00:00</time></trkpt><trkpt lat="34.9430383" lon="32.8619572"><ele>1790.1</ele><time>2015-04-30T09:36:11.0000000+00:00</time></trkpt><trkpt lat="34.9430229" lon="32.8620112"><ele>1790.3</ele><time>2015-04-30T09:36:15.0000000+00:00</time></trkpt><trkpt lat="34.9430297" lon="32.8620689"><ele>1790.2</ele><time>2015-04-30T09:36:19.0000000+00:00</time></trkpt><trkpt lat="34.9430455" lon="32.8621321"><ele>1790.3</ele><time>2015-04-30T09:36:24.0000000+00:00</time></trkpt><trkpt lat="34.9430435" lon="32.8621891"><ele>1790.5</ele><time>2015-04-30T09:36:28.0000000+00:00</time></trkpt><trkpt lat="34.9430504" lon="32.8622501"><ele>1789.7</ele><time>2015-04-30T09:36:32.0000000+00:00</time></trkpt><trkpt lat="34.943047" lon="32.8623205"><ele>1791.8</ele><time>2015-04-30T09:36:36.0000000+00:00</time></trkpt><trkpt lat="34.9430398" lon="32.8623876"><ele>1793.5</ele><time>2015-04-30T09:36:40.0000000+00:00</time></trkpt><trkpt lat="34.9430263" lon="32.8624515"><ele>1795.1</ele><time>2015-04-30T09:36:43.0000000+00:00</time></trkpt><trkpt lat="34.9430076" lon="32.8625027"><ele>1795.7</ele><time>2015-04-30T09:36:46.0000000+00:00</time></trkpt><trkpt lat="34.9429726" lon="32.8625581"><ele>1797.1</ele><time>2015-04-30T09:36:50.0000000+00:00</time></trkpt><trkpt lat="34.9429487" lon="32.8626139"><ele>1797.6</ele><time>2015-04-30T09:36:53.0000000+00:00</time></trkpt><trkpt lat="34.9429247" lon="32.8626608"><ele>1797.7</ele><time>2015-04-30T09:36:56.0000000+00:00</time></trkpt><trkpt lat="34.9428842" lon="32.8627113"><ele>1798.1</ele><time>2015-04-30T09:37:00.0000000+00:00</time></trkpt><trkpt lat="34.9428375" lon="32.862747"><ele>1799.2</ele><time>2015-04-30T09:37:04.0000000+00:00</time></trkpt><trkpt lat="34.942804" lon="32.862786"><ele>1799.7</ele><time>2015-04-30T09:37:08.0000000+00:00</time></trkpt><trkpt lat="34.9427635" lon="32.8628233"><ele>1799.5</ele><time>2015-04-30T09:37:12.0000000+00:00</time></trkpt><trkpt lat="34.9427167" lon="32.8628597"><ele>1799.3</ele><time>2015-04-30T09:37:16.0000000+00:00</time></trkpt><trkpt lat="34.942677" lon="32.8628881"><ele>1801.3</ele><time>2015-04-30T09:37:19.0000000+00:00</time></trkpt><trkpt lat="34.9426323" lon="32.8629117"><ele>1802.6</ele><time>2015-04-30T09:37:22.0000000+00:00</time></trkpt><trkpt lat="34.9425885" lon="32.8629353"><ele>1802.0</ele><time>2015-04-30T09:37:25.0000000+00:00</time></trkpt><trkpt lat="34.9425513" lon="32.8629729"><ele>1802.5</ele><time>2015-04-30T09:37:28.0000000+00:00</time></trkpt><trkpt lat="34.942511" lon="32.8630065"><ele>1804.4</ele><time>2015-04-30T09:37:31.0000000+00:00</time></trkpt><trkpt lat="34.9424693" lon="32.8630304"><ele>1804.0</ele><time>2015-04-30T09:37:34.0000000+00:00</time></trkpt><trkpt lat="34.9424188" lon="32.8630638"><ele>1803.8</ele><time>2015-04-30T09:37:38.0000000+00:00</time></trkpt><trkpt lat="34.9423673" lon="32.8630972"><ele>1804.0</ele><time>2015-04-30T09:37:42.0000000+00:00</time></trkpt><trkpt lat="34.942325" lon="32.8631238"><ele>1804.0</ele><time>2015-04-30T09:37:45.0000000+00:00</time></trkpt><trkpt lat="34.9422851" lon="32.8631542"><ele>1803.7</ele><time>2015-04-30T09:37:48.0000000+00:00</time></trkpt><trkpt lat="34.9422365" lon="32.8631829"><ele>1801.3</ele><time>2015-04-30T09:37:51.0000000+00:00</time></trkpt><trkpt lat="34.942191" lon="32.8632014"><ele>1803.5</ele><time>2015-04-30T09:37:54.0000000+00:00</time></trkpt><trkpt lat="34.9421412" lon="32.8632412"><ele>1805.4</ele><time>2015-04-30T09:37:58.0000000+00:00</time></trkpt><trkpt lat="34.9420924" lon="32.863279"><ele>1808.5</ele><time>2015-04-30T09:38:02.0000000+00:00</time></trkpt><trkpt lat="34.9420386" lon="32.8633179"><ele>1810.0</ele><time>2015-04-30T09:38:06.0000000+00:00</time></trkpt><trkpt lat="34.9419933" lon="32.8633568"><ele>1809.5</ele><time>2015-04-30T09:38:09.0000000+00:00</time></trkpt><trkpt lat="34.9419439" lon="32.8634092"><ele>1807.6</ele><time>2015-04-30T09:38:12.0000000+00:00</time></trkpt><trkpt lat="34.9418918" lon="32.8634482"><ele>1809.1</ele><time>2015-04-30T09:38:15.0000000+00:00</time></trkpt><trkpt lat="34.941844" lon="32.863484"><ele>1810.1</ele><time>2015-04-30T09:38:18.0000000+00:00</time></trkpt><trkpt lat="34.9418049" lon="32.8635208"><ele>1809.8</ele><time>2015-04-30T09:38:21.0000000+00:00</time></trkpt><trkpt lat="34.9417656" lon="32.8635553"><ele>1809.5</ele><time>2015-04-30T09:38:24.0000000+00:00</time></trkpt><trkpt lat="34.9417261" lon="32.8635899"><ele>1809.9</ele><time>2015-04-30T09:38:27.0000000+00:00</time></trkpt><trkpt lat="34.941688" lon="32.8636353"><ele>1808.8</ele><time>2015-04-30T09:38:30.0000000+00:00</time></trkpt><trkpt lat="34.941648" lon="32.863688"><ele>1807.1</ele><time>2015-04-30T09:38:33.0000000+00:00</time></trkpt><trkpt lat="34.9416072" lon="32.8637396"><ele>1807.6</ele><time>2015-04-30T09:38:36.0000000+00:00</time></trkpt><trkpt lat="34.9415685" lon="32.8637814"><ele>1808.6</ele><time>2015-04-30T09:38:39.0000000+00:00</time></trkpt><trkpt lat="34.9415309" lon="32.8638188"><ele>1808.5</ele><time>2015-04-30T09:38:42.0000000+00:00</time></trkpt><trkpt lat="34.9414897" lon="32.8638632"><ele>1810.1</ele><time>2015-04-30T09:38:45.0000000+00:00</time></trkpt><trkpt lat="34.9414509" lon="32.8639099"><ele>1810.7</ele><time>2015-04-30T09:38:48.0000000+00:00</time></trkpt><trkpt lat="34.9414102" lon="32.8639626"><ele>1809.9</ele><time>2015-04-30T09:38:52.0000000+00:00</time></trkpt><trkpt lat="34.9413731" lon="32.8640083"><ele>1809.3</ele><time>2015-04-30T09:38:55.0000000+00:00</time></trkpt><trkpt lat="34.9413303" lon="32.8640496"><ele>1810.2</ele><time>2015-04-30T09:38:58.0000000+00:00</time></trkpt><trkpt lat="34.9412806" lon="32.8640671"><ele>1809.8</ele><time>2015-04-30T09:39:01.0000000+00:00</time></trkpt><trkpt lat="34.9412371" lon="32.8640897"><ele>1811.4</ele><time>2015-04-30T09:39:13.0000000+00:00</time></trkpt><trkpt lat="34.9412057" lon="32.8640474"><ele>1811.3</ele><time>2015-04-30T09:39:42.0000000+00:00</time></trkpt><trkpt lat="34.9412471" lon="32.8640748"><ele>1810.9</ele><time>2015-04-30T09:40:10.0000000+00:00</time></trkpt><trkpt lat="34.9412154" lon="32.8641189"><ele>1809.9</ele><time>2015-04-30T09:42:42.0000000+00:00</time></trkpt><trkpt lat="34.9411743" lon="32.8641509"><ele>1810.0</ele><time>2015-04-30T09:42:54.0000000+00:00</time></trkpt><trkpt lat="34.9411368" lon="32.8642072"><ele>1810.7</ele><time>2015-04-30T09:42:58.0000000+00:00</time></trkpt><trkpt lat="34.9411085" lon="32.8642792"><ele>1811.5</ele><time>2015-04-30T09:43:01.0000000+00:00</time></trkpt><trkpt lat="34.9410773" lon="32.8643342"><ele>1813.4</ele><time>2015-04-30T09:43:04.0000000+00:00</time></trkpt><trkpt lat="34.9410369" lon="32.864377"><ele>1813.1</ele><time>2015-04-30T09:43:07.0000000+00:00</time></trkpt><trkpt lat="34.9409925" lon="32.8644104"><ele>1813.7</ele><time>2015-04-30T09:43:10.0000000+00:00</time></trkpt><trkpt lat="34.9409488" lon="32.8644417"><ele>1812.8</ele><time>2015-04-30T09:43:13.0000000+00:00</time></trkpt><trkpt lat="34.9408992" lon="32.8644667"><ele>1814.5</ele><time>2015-04-30T09:43:16.0000000+00:00</time></trkpt><trkpt lat="34.9408528" lon="32.8644788"><ele>1814.7</ele><time>2015-04-30T09:43:19.0000000+00:00</time></trkpt><trkpt lat="34.9407996" lon="32.8645068"><ele>1813.1</ele><time>2015-04-30T09:43:23.0000000+00:00</time></trkpt><trkpt lat="34.9407569" lon="32.8645398"><ele>1812.4</ele><time>2015-04-30T09:43:27.0000000+00:00</time></trkpt><trkpt lat="34.9407106" lon="32.864557"><ele>1811.8</ele><time>2015-04-30T09:43:31.0000000+00:00</time></trkpt><trkpt lat="34.9406639" lon="32.8645688"><ele>1811.9</ele><time>2015-04-30T09:43:34.0000000+00:00</time></trkpt><trkpt lat="34.9406083" lon="32.8645903"><ele>1811.9</ele><time>2015-04-30T09:43:37.0000000+00:00</time></trkpt><trkpt lat="34.9405366" lon="32.8646055"><ele>1810.2</ele><time>2015-04-30T09:43:40.0000000+00:00</time></trkpt><trkpt lat="34.9404685" lon="32.8646243"><ele>1809.4</ele><time>2015-04-30T09:43:42.0000000+00:00</time></trkpt><trkpt lat="34.9403946" lon="32.8646558"><ele>1809.7</ele><time>2015-04-30T09:43:44.0000000+00:00</time></trkpt><trkpt lat="34.9402808" lon="32.8646922"><ele>1809.5</ele><time>2015-04-30T09:43:46.0000000+00:00</time></trkpt><trkpt lat="34.9402343" lon="32.8647079"><ele>1809.6</ele><time>2015-04-30T09:43:47.0000000+00:00</time></trkpt><trkpt lat="34.9401395" lon="32.8647208"><ele>1809.2</ele><time>2015-04-30T09:43:49.0000000+00:00</time></trkpt><trkpt lat="34.9400823" lon="32.8647247"><ele>1809.0</ele><time>2015-04-30T09:43:50.0000000+00:00</time></trkpt><trkpt lat="34.940035" lon="32.864727"><ele>1808.4</ele><time>2015-04-30T09:43:51.0000000+00:00</time></trkpt><trkpt lat="34.9399795" lon="32.8647532"><ele>1808.6</ele><time>2015-04-30T09:43:52.0000000+00:00</time></trkpt><trkpt lat="34.9399193" lon="32.8647945"><ele>1809.7</ele><time>2015-04-30T09:43:53.0000000+00:00</time></trkpt><trkpt lat="34.9398606" lon="32.864831"><ele>1810.2</ele><time>2015-04-30T09:43:54.0000000+00:00</time></trkpt><trkpt lat="34.9398241" lon="32.8649083"><ele>1810.0</ele><time>2015-04-30T09:43:55.0000000+00:00</time></trkpt><trkpt lat="34.939771" lon="32.864973"><ele>1810.4</ele><time>2015-04-30T09:43:56.0000000+00:00</time></trkpt><trkpt lat="34.9397273" lon="32.8650323"><ele>1811.1</ele><time>2015-04-30T09:43:57.0000000+00:00</time></trkpt><trkpt lat="34.9396926" lon="32.8651139"><ele>1811.4</ele><time>2015-04-30T09:43:58.0000000+00:00</time></trkpt><trkpt lat="34.9396729" lon="32.8651942"><ele>1811.6</ele><time>2015-04-30T09:43:59.0000000+00:00</time></trkpt><trkpt lat="34.9396569" lon="32.8652819"><ele>1811.2</ele><time>2015-04-30T09:44:00.0000000+00:00</time></trkpt><trkpt lat="34.9396635" lon="32.8653622"><ele>1810.5</ele><time>2015-04-30T09:44:01.0000000+00:00</time></trkpt><trkpt lat="34.9396867" lon="32.8654431"><ele>1809.6</ele><time>2015-04-30T09:44:02.0000000+00:00</time></trkpt><trkpt lat="34.9397302" lon="32.8655078"><ele>1808.7</ele><time>2015-04-30T09:44:03.0000000+00:00</time></trkpt><trkpt lat="34.9397703" lon="32.865563"><ele>1807.7</ele><time>2015-04-30T09:44:04.0000000+00:00</time></trkpt><trkpt lat="34.9398475" lon="32.8656276"><ele>1804.3</ele><time>2015-04-30T09:44:06.0000000+00:00</time></trkpt><trkpt lat="34.9398957" lon="32.8656744"><ele>1803.5</ele><time>2015-04-30T09:44:07.0000000+00:00</time></trkpt><trkpt lat="34.9399322" lon="32.8657298"><ele>1803.6</ele><time>2015-04-30T09:44:08.0000000+00:00</time></trkpt><trkpt lat="34.9399629" lon="32.8657767"><ele>1804.2</ele><time>2015-04-30T09:44:09.0000000+00:00</time></trkpt><trkpt lat="34.9400015" lon="32.8658195"><ele>1804.0</ele><time>2015-04-30T09:44:10.0000000+00:00</time></trkpt><trkpt lat="34.9400358" lon="32.8658582"><ele>1803.9</ele><time>2015-04-30T09:44:11.0000000+00:00</time></trkpt><trkpt lat="34.9400836" lon="32.8659445"><ele>1802.5</ele><time>2015-04-30T09:44:13.0000000+00:00</time></trkpt><trkpt lat="34.940108" lon="32.8659923"><ele>1802.2</ele><time>2015-04-30T09:44:14.0000000+00:00</time></trkpt><trkpt lat="34.9401304" lon="32.8660437"><ele>1802.0</ele><time>2015-04-30T09:44:15.0000000+00:00</time></trkpt><trkpt lat="34.9401513" lon="32.8660953"><ele>1802.4</ele><time>2015-04-30T09:44:16.0000000+00:00</time></trkpt><trkpt lat="34.9401669" lon="32.8661492"><ele>1802.6</ele><time>2015-04-30T09:44:17.0000000+00:00</time></trkpt><trkpt lat="34.9401814" lon="32.8662101"><ele>1802.7</ele><time>2015-04-30T09:44:18.0000000+00:00</time></trkpt><trkpt lat="34.940184" lon="32.8662688"><ele>1802.2</ele><time>2015-04-30T09:44:19.0000000+00:00</time></trkpt><trkpt lat="34.9401963" lon="32.8663264"><ele>1802.0</ele><time>2015-04-30T09:44:20.0000000+00:00</time></trkpt><trkpt lat="34.9402014" lon="32.8663867"><ele>1802.4</ele><time>2015-04-30T09:44:21.0000000+00:00</time></trkpt><trkpt lat="34.9402064" lon="32.8664452"><ele>1802.6</ele><time>2015-04-30T09:44:22.0000000+00:00</time></trkpt><trkpt lat="34.9402087" lon="32.8665045"><ele>1802.2</ele><time>2015-04-30T09:44:23.0000000+00:00</time></trkpt><trkpt lat="34.9402106" lon="32.8665739"><ele>1802.0</ele><time>2015-04-30T09:44:24.0000000+00:00</time></trkpt><trkpt lat="34.9402152" lon="32.866631"><ele>1802.4</ele><time>2015-04-30T09:44:25.0000000+00:00</time></trkpt><trkpt lat="34.9402154" lon="32.8666937"><ele>1802.6</ele><time>2015-04-30T09:44:26.0000000+00:00</time></trkpt><trkpt lat="34.9402001" lon="32.8668079"><ele>1804.0</ele><time>2015-04-30T09:44:28.0000000+00:00</time></trkpt><trkpt lat="34.9402043" lon="32.8668647"><ele>1803.9</ele><time>2015-04-30T09:44:29.0000000+00:00</time></trkpt><trkpt lat="34.9401881" lon="32.8669232"><ele>1804.3</ele><time>2015-04-30T09:44:30.0000000+00:00</time></trkpt><trkpt lat="34.9401704" lon="32.8669818"><ele>1804.5</ele><time>2015-04-30T09:44:31.0000000+00:00</time></trkpt><trkpt lat="34.9401513" lon="32.8670418"><ele>1805.2</ele><time>2015-04-30T09:44:32.0000000+00:00</time></trkpt><trkpt lat="34.9401325" lon="32.8670924"><ele>1805.5</ele><time>2015-04-30T09:44:33.0000000+00:00</time></trkpt><trkpt lat="34.9401062" lon="32.8671408"><ele>1805.6</ele><time>2015-04-30T09:44:34.0000000+00:00</time></trkpt><trkpt lat="34.9400653" lon="32.8672233"><ele>1805.7</ele><time>2015-04-30T09:44:36.0000000+00:00</time></trkpt><trkpt lat="34.9400186" lon="32.8673128"><ele>1806.3</ele><time>2015-04-30T09:44:38.0000000+00:00</time></trkpt><trkpt lat="34.9399799" lon="32.8674094"><ele>1806.6</ele><time>2015-04-30T09:44:40.0000000+00:00</time></trkpt><trkpt lat="34.9399494" lon="32.8674634"><ele>1807.2</ele><time>2015-04-30T09:44:41.0000000+00:00</time></trkpt><trkpt lat="34.9399188" lon="32.8675135"><ele>1807.0</ele><time>2015-04-30T09:44:42.0000000+00:00</time></trkpt><trkpt lat="34.9398907" lon="32.8675684"><ele>1806.4</ele><time>2015-04-30T09:44:43.0000000+00:00</time></trkpt><trkpt lat="34.9398373" lon="32.8676725"><ele>1806.4</ele><time>2015-04-30T09:44:45.0000000+00:00</time></trkpt><trkpt lat="34.9398181" lon="32.8677294"><ele>1806.6</ele><time>2015-04-30T09:44:46.0000000+00:00</time></trkpt><trkpt lat="34.9397992" lon="32.8677812"><ele>1806.7</ele><time>2015-04-30T09:44:47.0000000+00:00</time></trkpt><trkpt lat="34.9397696" lon="32.8678323"><ele>1806.2</ele><time>2015-04-30T09:44:48.0000000+00:00</time></trkpt><trkpt lat="34.9397337" lon="32.8678791"><ele>1806.5</ele><time>2015-04-30T09:44:49.0000000+00:00</time></trkpt><trkpt lat="34.9396933" lon="32.8679373"><ele>1807.1</ele><time>2015-04-30T09:44:50.0000000+00:00</time></trkpt><trkpt lat="34.9396572" lon="32.8680004"><ele>1807.9</ele><time>2015-04-30T09:44:51.0000000+00:00</time></trkpt><trkpt lat="34.939623" lon="32.8680597"><ele>1808.4</ele><time>2015-04-30T09:44:52.0000000+00:00</time></trkpt><trkpt lat="34.9395987" lon="32.8681341"><ele>1808.1</ele><time>2015-04-30T09:44:53.0000000+00:00</time></trkpt><trkpt lat="34.939571" lon="32.868198"><ele>1807.4</ele><time>2015-04-30T09:44:54.0000000+00:00</time></trkpt><trkpt lat="34.9395393" lon="32.8682577"><ele>1807.6</ele><time>2015-04-30T09:44:55.0000000+00:00</time></trkpt><trkpt lat="34.9394953" lon="32.8683233"><ele>1808.2</ele><time>2015-04-30T09:44:56.0000000+00:00</time></trkpt><trkpt lat="34.9394711" lon="32.8683878"><ele>1809.0</ele><time>2015-04-30T09:44:57.0000000+00:00</time></trkpt><trkpt lat="34.9394448" lon="32.8684609"><ele>1809.4</ele><time>2015-04-30T09:44:58.0000000+00:00</time></trkpt><trkpt lat="34.9394055" lon="32.8685403"><ele>1810.1</ele><time>2015-04-30T09:44:59.0000000+00:00</time></trkpt><trkpt lat="34.9393645" lon="32.86861"><ele>1809.9</ele><time>2015-04-30T09:45:00.0000000+00:00</time></trkpt><trkpt lat="34.9393176" lon="32.8686963"><ele>1809.8</ele><time>2015-04-30T09:45:01.0000000+00:00</time></trkpt><trkpt lat="34.9392736" lon="32.8687805"><ele>1809.8</ele><time>2015-04-30T09:45:02.0000000+00:00</time></trkpt><trkpt lat="34.9392338" lon="32.8688545"><ele>1809.8</ele><time>2015-04-30T09:45:03.0000000+00:00</time></trkpt><trkpt lat="34.9391864" lon="32.8689368"><ele>1809.3</ele><time>2015-04-30T09:45:04.0000000+00:00</time></trkpt><trkpt lat="34.9391407" lon="32.8690184"><ele>1808.5</ele><time>2015-04-30T09:45:05.0000000+00:00</time></trkpt><trkpt lat="34.9390854" lon="32.8690954"><ele>1807.6</ele><time>2015-04-30T09:45:06.0000000+00:00</time></trkpt><trkpt lat="34.9390728" lon="32.8691573"><ele>1804.2</ele><time>2015-04-30T09:45:07.0000000+00:00</time></trkpt><trkpt lat="34.9390087" lon="32.8692227"><ele>1802.5</ele><time>2015-04-30T09:45:08.0000000+00:00</time></trkpt><trkpt lat="34.9389415" lon="32.8692922"><ele>1802.1</ele><time>2015-04-30T09:45:09.0000000+00:00</time></trkpt><trkpt lat="34.9388705" lon="32.8693607"><ele>1801.4</ele><time>2015-04-30T09:45:10.0000000+00:00</time></trkpt><trkpt lat="34.9387983" lon="32.8694219"><ele>1801.1</ele><time>2015-04-30T09:45:11.0000000+00:00</time></trkpt><trkpt lat="34.9387179" lon="32.8694785"><ele>1800.4</ele><time>2015-04-30T09:45:12.0000000+00:00</time></trkpt><trkpt lat="34.9386396" lon="32.8695248"><ele>1800.1</ele><time>2015-04-30T09:45:13.0000000+00:00</time></trkpt><trkpt lat="34.9385506" lon="32.8695714"><ele>1798.9</ele><time>2015-04-30T09:45:14.0000000+00:00</time></trkpt><trkpt lat="34.9384696" lon="32.8696235"><ele>1797.8</ele><time>2015-04-30T09:45:15.0000000+00:00</time></trkpt><trkpt lat="34.9383766" lon="32.8696817"><ele>1796.8</ele><time>2015-04-30T09:45:16.0000000+00:00</time></trkpt><trkpt lat="34.9382872" lon="32.8697333"><ele>1796.3</ele><time>2015-04-30T09:45:17.0000000+00:00</time></trkpt><trkpt lat="34.9381916" lon="32.8697893"><ele>1795.5</ele><time>2015-04-30T09:45:18.0000000+00:00</time></trkpt><trkpt lat="34.9380951" lon="32.8698507"><ele>1795.1</ele><time>2015-04-30T09:45:19.0000000+00:00</time></trkpt><trkpt lat="34.9379874" lon="32.8699041"><ele>1796.0</ele><time>2015-04-30T09:45:20.0000000+00:00</time></trkpt><trkpt lat="34.9378828" lon="32.869961"><ele>1795.9</ele><time>2015-04-30T09:45:21.0000000+00:00</time></trkpt><trkpt lat="34.9377796" lon="32.870024"><ele>1795.8</ele><time>2015-04-30T09:45:22.0000000+00:00</time></trkpt><trkpt lat="34.9376779" lon="32.8700963"><ele>1795.8</ele><time>2015-04-30T09:45:23.0000000+00:00</time></trkpt><trkpt lat="34.9375716" lon="32.8701626"><ele>1794.8</ele><time>2015-04-30T09:45:24.0000000+00:00</time></trkpt><trkpt lat="34.9374658" lon="32.8702119"><ele>1794.3</ele><time>2015-04-30T09:45:25.0000000+00:00</time></trkpt><trkpt lat="34.9373598" lon="32.8702631"><ele>1793.5</ele><time>2015-04-30T09:45:26.0000000+00:00</time></trkpt><trkpt lat="34.9372685" lon="32.8703198"><ele>1793.6</ele><time>2015-04-30T09:45:27.0000000+00:00</time></trkpt><trkpt lat="34.9371693" lon="32.870375"><ele>1793.7</ele><time>2015-04-30T09:45:28.0000000+00:00</time></trkpt><trkpt lat="34.9370827" lon="32.870431"><ele>1793.2</ele><time>2015-04-30T09:45:29.0000000+00:00</time></trkpt><trkpt lat="34.9369915" lon="32.8704813"><ele>1793.5</ele><time>2015-04-30T09:45:30.0000000+00:00</time></trkpt><trkpt lat="34.9369032" lon="32.8705287"><ele>1793.6</ele><time>2015-04-30T09:45:31.0000000+00:00</time></trkpt><trkpt lat="34.9368151" lon="32.8705809"><ele>1795.2</ele><time>2015-04-30T09:45:32.0000000+00:00</time></trkpt><trkpt lat="34.9367321" lon="32.8706182"><ele>1796.0</ele><time>2015-04-30T09:45:33.0000000+00:00</time></trkpt><trkpt lat="34.9366645" lon="32.8706676"><ele>1795.9</ele><time>2015-04-30T09:45:34.0000000+00:00</time></trkpt><trkpt lat="34.9365893" lon="32.8707039"><ele>1796.8</ele><time>2015-04-30T09:45:35.0000000+00:00</time></trkpt><trkpt lat="34.9365186" lon="32.8707465"><ele>1797.3</ele><time>2015-04-30T09:45:36.0000000+00:00</time></trkpt><trkpt lat="34.9364526" lon="32.8707862"><ele>1797.5</ele><time>2015-04-30T09:45:37.0000000+00:00</time></trkpt><trkpt lat="34.9363905" lon="32.870806"><ele>1797.6</ele><time>2015-04-30T09:45:38.0000000+00:00</time></trkpt><trkpt lat="34.9363322" lon="32.8708367"><ele>1797.7</ele><time>2015-04-30T09:45:39.0000000+00:00</time></trkpt><trkpt lat="34.9362732" lon="32.8708566"><ele>1797.7</ele><time>2015-04-30T09:45:40.0000000+00:00</time></trkpt><trkpt lat="34.9362216" lon="32.8708673"><ele>1797.8</ele><time>2015-04-30T09:45:41.0000000+00:00</time></trkpt><trkpt lat="34.9361666" lon="32.8708747"><ele>1797.8</ele><time>2015-04-30T09:45:42.0000000+00:00</time></trkpt><trkpt lat="34.9361147" lon="32.8708755"><ele>1797.8</ele><time>2015-04-30T09:45:43.0000000+00:00</time></trkpt><trkpt lat="34.9360662" lon="32.870881"><ele>1798.3</ele><time>2015-04-30T09:45:44.0000000+00:00</time></trkpt><trkpt lat="34.9360212" lon="32.8708869"><ele>1798.5</ele><time>2015-04-30T09:45:45.0000000+00:00</time></trkpt><trkpt lat="34.935956" lon="32.8709019"><ele>1799.5</ele><time>2015-04-30T09:45:47.0000000+00:00</time></trkpt><trkpt lat="34.935876" lon="32.8709236"><ele>1800.4</ele><time>2015-04-30T09:45:49.0000000+00:00</time></trkpt><trkpt lat="34.9358098" lon="32.8709313"><ele>1800.2</ele><time>2015-04-30T09:45:51.0000000+00:00</time></trkpt><trkpt lat="34.9357272" lon="32.8709539"><ele>1799.9</ele><time>2015-04-30T09:45:53.0000000+00:00</time></trkpt><trkpt lat="34.9356524" lon="32.8709886"><ele>1799.8</ele><time>2015-04-30T09:45:55.0000000+00:00</time></trkpt><trkpt lat="34.9355737" lon="32.8710343"><ele>1799.8</ele><time>2015-04-30T09:45:57.0000000+00:00</time></trkpt><trkpt lat="34.9355091" lon="32.8710981"><ele>1799.8</ele><time>2015-04-30T09:45:59.0000000+00:00</time></trkpt><trkpt lat="34.9354588" lon="32.8711779"><ele>1800.5</ele><time>2015-04-30T09:46:01.0000000+00:00</time></trkpt><trkpt lat="34.9354488" lon="32.8712603"><ele>1800.5</ele><time>2015-04-30T09:46:03.0000000+00:00</time></trkpt><trkpt lat="34.9354373" lon="32.8713433"><ele>1801.2</ele><time>2015-04-30T09:46:05.0000000+00:00</time></trkpt><trkpt lat="34.9354582" lon="32.8714264"><ele>1800.4</ele><time>2015-04-30T09:46:07.0000000+00:00</time></trkpt><trkpt lat="34.935509" lon="32.8715063"><ele>1799.9</ele><time>2015-04-30T09:46:09.0000000+00:00</time></trkpt><trkpt lat="34.9355743" lon="32.8715708"><ele>1799.1</ele><time>2015-04-30T09:46:11.0000000+00:00</time></trkpt><trkpt lat="34.9356505" lon="32.8716217"><ele>1798.8</ele><time>2015-04-30T09:46:13.0000000+00:00</time></trkpt><trkpt lat="34.9357231" lon="32.8716692"><ele>1798.8</ele><time>2015-04-30T09:46:15.0000000+00:00</time></trkpt><trkpt lat="34.9357899" lon="32.8717143"><ele>1798.3</ele><time>2015-04-30T09:46:17.0000000+00:00</time></trkpt><trkpt lat="34.9358502" lon="32.8717536"><ele>1797.4</ele><time>2015-04-30T09:46:19.0000000+00:00</time></trkpt><trkpt lat="34.935909" lon="32.8717973"><ele>1796.4</ele><time>2015-04-30T09:46:21.0000000+00:00</time></trkpt><trkpt lat="34.9359648" lon="32.8718484"><ele>1796.7</ele><time>2015-04-30T09:46:23.0000000+00:00</time></trkpt><trkpt lat="34.9360076" lon="32.8719225"><ele>1796.7</ele><time>2015-04-30T09:46:25.0000000+00:00</time></trkpt><trkpt lat="34.9360364" lon="32.8720042"><ele>1797.3</ele><time>2015-04-30T09:46:27.0000000+00:00</time></trkpt><trkpt lat="34.9360618" lon="32.8720853"><ele>1796.9</ele><time>2015-04-30T09:46:29.0000000+00:00</time></trkpt><trkpt lat="34.9360718" lon="32.8721475"><ele>1796.3</ele><time>2015-04-30T09:46:31.0000000+00:00</time></trkpt><trkpt lat="34.9360686" lon="32.87223"><ele>1795.8</ele><time>2015-04-30T09:46:34.0000000+00:00</time></trkpt><trkpt lat="34.9360759" lon="32.8722922"><ele>1796.5</ele><time>2015-04-30T09:46:36.0000000+00:00</time></trkpt><trkpt lat="34.9360894" lon="32.8723569"><ele>1796.7</ele><time>2015-04-30T09:46:38.0000000+00:00</time></trkpt><trkpt lat="34.9360864" lon="32.872414"><ele>1797.3</ele><time>2015-04-30T09:46:40.0000000+00:00</time></trkpt><trkpt lat="34.936074" lon="32.8724674"><ele>1798.1</ele><time>2015-04-30T09:46:42.0000000+00:00</time></trkpt><trkpt lat="34.9360629" lon="32.8725366"><ele>1799.4</ele><time>2015-04-30T09:46:45.0000000+00:00</time></trkpt><trkpt lat="34.9360364" lon="32.8725924"><ele>1805.3</ele><time>2015-04-30T09:48:02.0000000+00:00</time></trkpt><trkpt lat="34.9360197" lon="32.8726467"><ele>1805.6</ele><time>2015-04-30T09:48:04.0000000+00:00</time></trkpt><trkpt lat="34.9360063" lon="32.8727198"><ele>1805.7</ele><time>2015-04-30T09:48:06.0000000+00:00</time></trkpt><trkpt lat="34.9359887" lon="32.8727937"><ele>1805.8</ele><time>2015-04-30T09:48:08.0000000+00:00</time></trkpt><trkpt lat="34.9359679" lon="32.872865"><ele>1806.3</ele><time>2015-04-30T09:48:10.0000000+00:00</time></trkpt><trkpt lat="34.9359474" lon="32.8729353"><ele>1807.4</ele><time>2015-04-30T09:48:12.0000000+00:00</time></trkpt><trkpt lat="34.9359226" lon="32.8729978"><ele>1806.9</ele><time>2015-04-30T09:48:14.0000000+00:00</time></trkpt><trkpt lat="34.9358916" lon="32.8730482"><ele>1806.8</ele><time>2015-04-30T09:48:16.0000000+00:00</time></trkpt><trkpt lat="34.9358601" lon="32.8730915"><ele>1807.3</ele><time>2015-04-30T09:48:18.0000000+00:00</time></trkpt><trkpt lat="34.9358341" lon="32.873137"><ele>1807.1</ele><time>2015-04-30T09:48:20.0000000+00:00</time></trkpt><trkpt lat="34.9358046" lon="32.8731796"><ele>1806.9</ele><time>2015-04-30T09:48:22.0000000+00:00</time></trkpt><trkpt lat="34.9357594" lon="32.8732284"><ele>1807.9</ele><time>2015-04-30T09:48:25.0000000+00:00</time></trkpt><trkpt lat="34.935723" lon="32.8732655"><ele>1807.8</ele><time>2015-04-30T09:48:28.0000000+00:00</time></trkpt><trkpt lat="34.9356964" lon="32.8733181"><ele>1805.8</ele><time>2015-04-30T09:48:34.0000000+00:00</time></trkpt><trkpt lat="34.93565" lon="32.8733338"><ele>1807.3</ele><time>2015-04-30T09:49:02.0000000+00:00</time></trkpt><trkpt lat="34.935604" lon="32.8733499"><ele>1805.4</ele><time>2015-04-30T09:49:06.0000000+00:00</time></trkpt><trkpt lat="34.9355459" lon="32.8733722"><ele>1805.8</ele><time>2015-04-30T09:49:10.0000000+00:00</time></trkpt><trkpt lat="34.9354924" lon="32.8733937"><ele>1805.0</ele><time>2015-04-30T09:49:13.0000000+00:00</time></trkpt><trkpt lat="34.9354305" lon="32.8734158"><ele>1805.3</ele><time>2015-04-30T09:49:16.0000000+00:00</time></trkpt><trkpt lat="34.9353821" lon="32.8734462"><ele>1805.0</ele><time>2015-04-30T09:49:19.0000000+00:00</time></trkpt><trkpt lat="34.9353341" lon="32.8734586"><ele>1804.8</ele><time>2015-04-30T09:49:31.0000000+00:00</time></trkpt><trkpt lat="34.9352783" lon="32.873474"><ele>1803.9</ele><time>2015-04-30T09:49:34.0000000+00:00</time></trkpt><trkpt lat="34.9352157" lon="32.8734905"><ele>1805.0</ele><time>2015-04-30T09:49:36.0000000+00:00</time></trkpt><trkpt lat="34.9351389" lon="32.8735108"><ele>1805.1</ele><time>2015-04-30T09:49:38.0000000+00:00</time></trkpt><trkpt lat="34.9350614" lon="32.8735356"><ele>1805.6</ele><time>2015-04-30T09:49:40.0000000+00:00</time></trkpt><trkpt lat="34.9349814" lon="32.8735672"><ele>1805.2</ele><time>2015-04-30T09:49:42.0000000+00:00</time></trkpt><trkpt lat="34.9348682" lon="32.8736272"><ele>1803.9</ele><time>2015-04-30T09:49:44.0000000+00:00</time></trkpt><trkpt lat="34.9348196" lon="32.873652"><ele>1803.8</ele><time>2015-04-30T09:49:45.0000000+00:00</time></trkpt><trkpt lat="34.9347784" lon="32.8736801"><ele>1803.3</ele><time>2015-04-30T09:49:46.0000000+00:00</time></trkpt><trkpt lat="34.9347416" lon="32.873724"><ele>1802.5</ele><time>2015-04-30T09:49:47.0000000+00:00</time></trkpt><trkpt lat="34.9347075" lon="32.873779"><ele>1802.1</ele><time>2015-04-30T09:49:48.0000000+00:00</time></trkpt><trkpt lat="34.9346802" lon="32.8738471"><ele>1802.0</ele><time>2015-04-30T09:49:49.0000000+00:00</time></trkpt><trkpt lat="34.934662" lon="32.8739226"><ele>1801.9</ele><time>2015-04-30T09:49:50.0000000+00:00</time></trkpt><trkpt lat="34.9346558" lon="32.873995"><ele>1801.8</ele><time>2015-04-30T09:49:51.0000000+00:00</time></trkpt><trkpt lat="34.9346586" lon="32.8740785"><ele>1801.8</ele><time>2015-04-30T09:49:52.0000000+00:00</time></trkpt><trkpt lat="34.9346728" lon="32.8741526"><ele>1801.3</ele><time>2015-04-30T09:49:53.0000000+00:00</time></trkpt><trkpt lat="34.9346919" lon="32.8742205"><ele>1801.0</ele><time>2015-04-30T09:49:54.0000000+00:00</time></trkpt><trkpt lat="34.934706" lon="32.8742887"><ele>1800.9</ele><time>2015-04-30T09:49:55.0000000+00:00</time></trkpt><trkpt lat="34.9347223" lon="32.8743664"><ele>1800.8</ele><time>2015-04-30T09:49:56.0000000+00:00</time></trkpt><trkpt lat="34.9347319" lon="32.8744423"><ele>1801.3</ele><time>2015-04-30T09:49:57.0000000+00:00</time></trkpt><trkpt lat="34.9347411" lon="32.8745052"><ele>1801.5</ele><time>2015-04-30T09:49:58.0000000+00:00</time></trkpt><trkpt lat="34.9347422" lon="32.8745687"><ele>1801.1</ele><time>2015-04-30T09:49:59.0000000+00:00</time></trkpt><trkpt lat="34.9347324" lon="32.8746335"><ele>1801.0</ele><time>2015-04-30T09:50:00.0000000+00:00</time></trkpt><trkpt lat="34.9347189" lon="32.8747093"><ele>1801.4</ele><time>2015-04-30T09:50:01.0000000+00:00</time></trkpt><trkpt lat="34.9346917" lon="32.8747664"><ele>1801.6</ele><time>2015-04-30T09:50:02.0000000+00:00</time></trkpt><trkpt lat="34.934671" lon="32.8748302"><ele>1800.7</ele><time>2015-04-30T09:50:03.0000000+00:00</time></trkpt><trkpt lat="34.9346326" lon="32.8748775"><ele>1800.7</ele><time>2015-04-30T09:50:04.0000000+00:00</time></trkpt><trkpt lat="34.934574" lon="32.8749062"><ele>1800.7</ele><time>2015-04-30T09:50:05.0000000+00:00</time></trkpt><trkpt lat="34.9345278" lon="32.8749325"><ele>1799.8</ele><time>2015-04-30T09:50:06.0000000+00:00</time></trkpt><trkpt lat="34.9344715" lon="32.8749477"><ele>1799.8</ele><time>2015-04-30T09:50:07.0000000+00:00</time></trkpt><trkpt lat="34.9344143" lon="32.8749537"><ele>1799.3</ele><time>2015-04-30T09:50:08.0000000+00:00</time></trkpt><trkpt lat="34.9343604" lon="32.8749496"><ele>1799.0</ele><time>2015-04-30T09:50:09.0000000+00:00</time></trkpt><trkpt lat="34.9343057" lon="32.8749488"><ele>1798.9</ele><time>2015-04-30T09:50:10.0000000+00:00</time></trkpt><trkpt lat="34.934231" lon="32.8749366"><ele>1798.8</ele><time>2015-04-30T09:50:12.0000000+00:00</time></trkpt><trkpt lat="34.9341643" lon="32.8749271"><ele>1798.8</ele><time>2015-04-30T09:50:14.0000000+00:00</time></trkpt><trkpt lat="34.9341028" lon="32.8748991"><ele>1798.3</ele><time>2015-04-30T09:50:16.0000000+00:00</time></trkpt><trkpt lat="34.9340548" lon="32.8748761"><ele>1797.1</ele><time>2015-04-30T09:50:18.0000000+00:00</time></trkpt><trkpt lat="34.933999" lon="32.8748501"><ele>1796.9</ele><time>2015-04-30T09:50:20.0000000+00:00</time></trkpt><trkpt lat="34.9339404" lon="32.87482"><ele>1796.8</ele><time>2015-04-30T09:50:22.0000000+00:00</time></trkpt><trkpt lat="34.9338799" lon="32.8747949"><ele>1796.8</ele><time>2015-04-30T09:50:24.0000000+00:00</time></trkpt><trkpt lat="34.9338166" lon="32.8747799"><ele>1795.5</ele><time>2015-04-30T09:50:26.0000000+00:00</time></trkpt><trkpt lat="34.9337533" lon="32.8747772"><ele>1794.2</ele><time>2015-04-30T09:50:28.0000000+00:00</time></trkpt><trkpt lat="34.9336873" lon="32.8747831"><ele>1794.6</ele><time>2015-04-30T09:50:30.0000000+00:00</time></trkpt><trkpt lat="34.9336157" lon="32.8748115"><ele>1794.2</ele><time>2015-04-30T09:50:32.0000000+00:00</time></trkpt><trkpt lat="34.9335542" lon="32.8748591"><ele>1794.5</ele><time>2015-04-30T09:50:33.0000000+00:00</time></trkpt><trkpt lat="34.9335058" lon="32.8749046"><ele>1794.6</ele><time>2015-04-30T09:50:34.0000000+00:00</time></trkpt><trkpt lat="34.9334665" lon="32.8749547"><ele>1795.2</ele><time>2015-04-30T09:50:35.0000000+00:00</time></trkpt><trkpt lat="34.9334231" lon="32.8750112"><ele>1795.5</ele><time>2015-04-30T09:50:36.0000000+00:00</time></trkpt><trkpt lat="34.933385" lon="32.8750891"><ele>1795.6</ele><time>2015-04-30T09:50:37.0000000+00:00</time></trkpt><trkpt lat="34.9333542" lon="32.875159"><ele>1795.2</ele><time>2015-04-30T09:50:38.0000000+00:00</time></trkpt><trkpt lat="34.9333291" lon="32.875247"><ele>1795.0</ele><time>2015-04-30T09:50:39.0000000+00:00</time></trkpt><trkpt lat="34.9333092" lon="32.8753366"><ele>1794.4</ele><time>2015-04-30T09:50:40.0000000+00:00</time></trkpt><trkpt lat="34.9332871" lon="32.8754216"><ele>1793.6</ele><time>2015-04-30T09:50:41.0000000+00:00</time></trkpt><trkpt lat="34.9332693" lon="32.8755025"><ele>1793.2</ele><time>2015-04-30T09:50:42.0000000+00:00</time></trkpt><trkpt lat="34.9332333" lon="32.8755928"><ele>1793.0</ele><time>2015-04-30T09:50:43.0000000+00:00</time></trkpt><trkpt lat="34.9331885" lon="32.8756774"><ele>1792.9</ele><time>2015-04-30T09:50:44.0000000+00:00</time></trkpt><trkpt lat="34.933153" lon="32.8757437"><ele>1792.8</ele><time>2015-04-30T09:50:45.0000000+00:00</time></trkpt><trkpt lat="34.9331129" lon="32.8758024"><ele>1792.8</ele><time>2015-04-30T09:50:46.0000000+00:00</time></trkpt><trkpt lat="34.9330631" lon="32.875873"><ele>1791.8</ele><time>2015-04-30T09:50:47.0000000+00:00</time></trkpt><trkpt lat="34.932993" lon="32.8759376"><ele>1791.3</ele><time>2015-04-30T09:50:48.0000000+00:00</time></trkpt><trkpt lat="34.9329334" lon="32.8759958"><ele>1791.5</ele><time>2015-04-30T09:50:49.0000000+00:00</time></trkpt><trkpt lat="34.9328635" lon="32.8760395"><ele>1791.1</ele><time>2015-04-30T09:50:50.0000000+00:00</time></trkpt><trkpt lat="34.9327965" lon="32.8760831"><ele>1790.5</ele><time>2015-04-30T09:50:51.0000000+00:00</time></trkpt><trkpt lat="34.9327253" lon="32.8761309"><ele>1789.6</ele><time>2015-04-30T09:50:52.0000000+00:00</time></trkpt><trkpt lat="34.9326335" lon="32.8761768"><ele>1788.7</ele><time>2015-04-30T09:50:53.0000000+00:00</time></trkpt><trkpt lat="34.9325468" lon="32.8762154"><ele>1788.2</ele><time>2015-04-30T09:50:54.0000000+00:00</time></trkpt><trkpt lat="34.9324562" lon="32.8762646"><ele>1787.5</ele><time>2015-04-30T09:50:55.0000000+00:00</time></trkpt><trkpt lat="34.9323618" lon="32.8763154"><ele>1786.6</ele><time>2015-04-30T09:50:56.0000000+00:00</time></trkpt><trkpt lat="34.9322698" lon="32.8763604"><ele>1785.7</ele><time>2015-04-30T09:50:57.0000000+00:00</time></trkpt><trkpt lat="34.9321765" lon="32.8764155"><ele>1784.2</ele><time>2015-04-30T09:50:58.0000000+00:00</time></trkpt><trkpt lat="34.9320786" lon="32.8764692"><ele>1783.5</ele><time>2015-04-30T09:50:59.0000000+00:00</time></trkpt><trkpt lat="34.9319663" lon="32.8765182"><ele>1782.6</ele><time>2015-04-30T09:51:00.0000000+00:00</time></trkpt><trkpt lat="34.9318656" lon="32.876581"><ele>1782.2</ele><time>2015-04-30T09:51:01.0000000+00:00</time></trkpt><trkpt lat="34.9317743" lon="32.8766361"><ele>1781.0</ele><time>2015-04-30T09:51:02.0000000+00:00</time></trkpt><trkpt lat="34.9316804" lon="32.8766876"><ele>1779.4</ele><time>2015-04-30T09:51:03.0000000+00:00</time></trkpt><trkpt lat="34.9315808" lon="32.8767375"><ele>1778.6</ele><time>2015-04-30T09:51:04.0000000+00:00</time></trkpt><trkpt lat="34.9314822" lon="32.8767781"><ele>1777.7</ele><time>2015-04-30T09:51:05.0000000+00:00</time></trkpt><trkpt lat="34.9313736" lon="32.8768038"><ele>1777.2</ele><time>2015-04-30T09:51:06.0000000+00:00</time></trkpt><trkpt lat="34.9312641" lon="32.8768169"><ele>1777.0</ele><time>2015-04-30T09:51:07.0000000+00:00</time></trkpt><trkpt lat="34.9311523" lon="32.8768341"><ele>1776.4</ele><time>2015-04-30T09:51:08.0000000+00:00</time></trkpt><trkpt lat="34.9310455" lon="32.8768266"><ele>1776.1</ele><time>2015-04-30T09:51:09.0000000+00:00</time></trkpt><trkpt lat="34.9309469" lon="32.8768044"><ele>1775.4</ele><time>2015-04-30T09:51:10.0000000+00:00</time></trkpt><trkpt lat="34.9308476" lon="32.8767748"><ele>1775.1</ele><time>2015-04-30T09:51:11.0000000+00:00</time></trkpt><trkpt lat="34.9307456" lon="32.8767299"><ele>1774.4</ele><time>2015-04-30T09:51:12.0000000+00:00</time></trkpt><trkpt lat="34.9306387" lon="32.8766874"><ele>1773.6</ele><time>2015-04-30T09:51:13.0000000+00:00</time></trkpt><trkpt lat="34.9305291" lon="32.8766647"><ele>1773.2</ele><time>2015-04-30T09:51:14.0000000+00:00</time></trkpt><trkpt lat="34.9304262" lon="32.8766472"><ele>1772.5</ele><time>2015-04-30T09:51:15.0000000+00:00</time></trkpt><trkpt lat="34.9303023" lon="32.8766419"><ele>1771.6</ele><time>2015-04-30T09:51:16.0000000+00:00</time></trkpt><trkpt lat="34.930185" lon="32.8766499"><ele>1770.7</ele><time>2015-04-30T09:51:17.0000000+00:00</time></trkpt><trkpt lat="34.9300623" lon="32.8766742"><ele>1769.7</ele><time>2015-04-30T09:51:18.0000000+00:00</time></trkpt><trkpt lat="34.9299452" lon="32.8767012"><ele>1768.7</ele><time>2015-04-30T09:51:19.0000000+00:00</time></trkpt><trkpt lat="34.929822" lon="32.8767296"><ele>1767.8</ele><time>2015-04-30T09:51:20.0000000+00:00</time></trkpt><trkpt lat="34.9297114" lon="32.8767615"><ele>1766.8</ele><time>2015-04-30T09:51:21.0000000+00:00</time></trkpt><trkpt lat="34.9295894" lon="32.8767845"><ele>1766.3</ele><time>2015-04-30T09:51:22.0000000+00:00</time></trkpt><trkpt lat="34.9294849" lon="32.8768082"><ele>1765.5</ele><time>2015-04-30T09:51:23.0000000+00:00</time></trkpt><trkpt lat="34.9293656" lon="32.8768381"><ele>1765.1</ele><time>2015-04-30T09:51:24.0000000+00:00</time></trkpt><trkpt lat="34.9292607" lon="32.8768629"><ele>1764.5</ele><time>2015-04-30T09:51:25.0000000+00:00</time></trkpt><trkpt lat="34.9291556" lon="32.8768961"><ele>1763.6</ele><time>2015-04-30T09:51:26.0000000+00:00</time></trkpt><trkpt lat="34.9290482" lon="32.8769181"><ele>1763.2</ele><time>2015-04-30T09:51:27.0000000+00:00</time></trkpt><trkpt lat="34.9289404" lon="32.8769519"><ele>1762.5</ele><time>2015-04-30T09:51:28.0000000+00:00</time></trkpt><trkpt lat="34.9288363" lon="32.8769977"><ele>1762.1</ele><time>2015-04-30T09:51:29.0000000+00:00</time></trkpt><trkpt lat="34.9287373" lon="32.8770361"><ele>1761.4</ele><time>2015-04-30T09:51:30.0000000+00:00</time></trkpt><trkpt lat="34.9286458" lon="32.877093"><ele>1760.6</ele><time>2015-04-30T09:51:31.0000000+00:00</time></trkpt><trkpt lat="34.9285403" lon="32.8771467"><ele>1760.7</ele><time>2015-04-30T09:51:32.0000000+00:00</time></trkpt><trkpt lat="34.928459" lon="32.8772164"><ele>1761.2</ele><time>2015-04-30T09:51:33.0000000+00:00</time></trkpt><trkpt lat="34.9283731" lon="32.877285"><ele>1761.0</ele><time>2015-04-30T09:51:34.0000000+00:00</time></trkpt><trkpt lat="34.9282929" lon="32.8773629"><ele>1760.4</ele><time>2015-04-30T09:51:35.0000000+00:00</time></trkpt><trkpt lat="34.9282097" lon="32.8774357"><ele>1759.6</ele><time>2015-04-30T09:51:36.0000000+00:00</time></trkpt><trkpt lat="34.9281243" lon="32.8775003"><ele>1759.2</ele><time>2015-04-30T09:51:37.0000000+00:00</time></trkpt><trkpt lat="34.9280398" lon="32.8775636"><ele>1758.5</ele><time>2015-04-30T09:51:38.0000000+00:00</time></trkpt><trkpt lat="34.9279612" lon="32.8776294"><ele>1757.6</ele><time>2015-04-30T09:51:39.0000000+00:00</time></trkpt><trkpt lat="34.9278724" lon="32.8776998"><ele>1756.7</ele><time>2015-04-30T09:51:40.0000000+00:00</time></trkpt><trkpt lat="34.9277864" lon="32.877756"><ele>1756.2</ele><time>2015-04-30T09:51:41.0000000+00:00</time></trkpt><trkpt lat="34.9277004" lon="32.8778207"><ele>1756.0</ele><time>2015-04-30T09:51:42.0000000+00:00</time></trkpt><trkpt lat="34.9276172" lon="32.8778862"><ele>1755.9</ele><time>2015-04-30T09:51:43.0000000+00:00</time></trkpt><trkpt lat="34.9275379" lon="32.8779522"><ele>1755.3</ele><time>2015-04-30T09:51:44.0000000+00:00</time></trkpt><trkpt lat="34.9274684" lon="32.8780269"><ele>1755.0</ele><time>2015-04-30T09:51:45.0000000+00:00</time></trkpt><trkpt lat="34.9274018" lon="32.878098"><ele>1754.9</ele><time>2015-04-30T09:51:46.0000000+00:00</time></trkpt><trkpt lat="34.9273486" lon="32.8781879"><ele>1753.8</ele><time>2015-04-30T09:51:47.0000000+00:00</time></trkpt><trkpt lat="34.9272962" lon="32.8782836"><ele>1752.8</ele><time>2015-04-30T09:51:48.0000000+00:00</time></trkpt><trkpt lat="34.9272463" lon="32.8783779"><ele>1752.3</ele><time>2015-04-30T09:51:49.0000000+00:00</time></trkpt><trkpt lat="34.9271946" lon="32.8784638"><ele>1751.5</ele><time>2015-04-30T09:51:50.0000000+00:00</time></trkpt><trkpt lat="34.9271437" lon="32.8785413"><ele>1751.1</ele><time>2015-04-30T09:51:51.0000000+00:00</time></trkpt><trkpt lat="34.9270904" lon="32.8786236"><ele>1750.5</ele><time>2015-04-30T09:51:52.0000000+00:00</time></trkpt><trkpt lat="34.9270046" lon="32.8786748"><ele>1750.6</ele><time>2015-04-30T09:51:53.0000000+00:00</time></trkpt><trkpt lat="34.9269245" lon="32.878699"><ele>1750.7</ele><time>2015-04-30T09:51:54.0000000+00:00</time></trkpt><trkpt lat="34.9268496" lon="32.8787044"><ele>1750.2</ele><time>2015-04-30T09:51:55.0000000+00:00</time></trkpt><trkpt lat="34.9267663" lon="32.8786926"><ele>1750.0</ele><time>2015-04-30T09:51:56.0000000+00:00</time></trkpt><trkpt lat="34.9266986" lon="32.8786661"><ele>1749.4</ele><time>2015-04-30T09:51:57.0000000+00:00</time></trkpt><trkpt lat="34.92663" lon="32.8786381"><ele>1749.6</ele><time>2015-04-30T09:51:58.0000000+00:00</time></trkpt><trkpt lat="34.9265779" lon="32.8786053"><ele>1749.2</ele><time>2015-04-30T09:51:59.0000000+00:00</time></trkpt><trkpt lat="34.9265228" lon="32.8785569"><ele>1749.0</ele><time>2015-04-30T09:52:00.0000000+00:00</time></trkpt><trkpt lat="34.9264661" lon="32.8785216"><ele>1748.9</ele><time>2015-04-30T09:52:01.0000000+00:00</time></trkpt><trkpt lat="34.9264177" lon="32.8784759"><ele>1748.8</ele><time>2015-04-30T09:52:02.0000000+00:00</time></trkpt><trkpt lat="34.9263728" lon="32.8784274"><ele>1748.8</ele><time>2015-04-30T09:52:03.0000000+00:00</time></trkpt><trkpt lat="34.9263243" lon="32.8783774"><ele>1748.3</ele><time>2015-04-30T09:52:04.0000000+00:00</time></trkpt><trkpt lat="34.9262724" lon="32.8783377"><ele>1748.0</ele><time>2015-04-30T09:52:05.0000000+00:00</time></trkpt><trkpt lat="34.9262208" lon="32.878292"><ele>1747.9</ele><time>2015-04-30T09:52:06.0000000+00:00</time></trkpt><trkpt lat="34.9261844" lon="32.8782491"><ele>1747.3</ele><time>2015-04-30T09:52:07.0000000+00:00</time></trkpt><trkpt lat="34.926143" lon="32.8782083"><ele>1747.5</ele><time>2015-04-30T09:52:08.0000000+00:00</time></trkpt><trkpt lat="34.9261034" lon="32.8781737"><ele>1747.2</ele><time>2015-04-30T09:52:09.0000000+00:00</time></trkpt><trkpt lat="34.9260318" lon="32.8781021"><ele>1746.9</ele><time>2015-04-30T09:52:11.0000000+00:00</time></trkpt><trkpt lat="34.9259925" lon="32.8780642"><ele>1746.8</ele><time>2015-04-30T09:52:12.0000000+00:00</time></trkpt><trkpt lat="34.9259524" lon="32.878019"><ele>1746.3</ele><time>2015-04-30T09:52:13.0000000+00:00</time></trkpt><trkpt lat="34.9258819" lon="32.8779654"><ele>1746.4</ele><time>2015-04-30T09:52:15.0000000+00:00</time></trkpt><trkpt lat="34.9258103" lon="32.8779008"><ele>1746.7</ele><time>2015-04-30T09:52:17.0000000+00:00</time></trkpt><trkpt lat="34.9257416" lon="32.8778442"><ele>1746.7</ele><time>2015-04-30T09:52:19.0000000+00:00</time></trkpt><trkpt lat="34.9256944" lon="32.8778232"><ele>1746.3</ele><time>2015-04-30T09:52:20.0000000+00:00</time></trkpt><trkpt lat="34.9256173" lon="32.8777716"><ele>1745.9</ele><time>2015-04-30T09:52:22.0000000+00:00</time></trkpt><trkpt lat="34.9255722" lon="32.8777573"><ele>1745.8</ele><time>2015-04-30T09:52:23.0000000+00:00</time></trkpt><trkpt lat="34.9255283" lon="32.877738"><ele>1745.8</ele><time>2015-04-30T09:52:24.0000000+00:00</time></trkpt><trkpt lat="34.9254842" lon="32.8777261"><ele>1745.8</ele><time>2015-04-30T09:52:25.0000000+00:00</time></trkpt><trkpt lat="34.9254319" lon="32.8777269"><ele>1745.8</ele><time>2015-04-30T09:52:26.0000000+00:00</time></trkpt><trkpt lat="34.9253371" lon="32.8777521"><ele>1746.5</ele><time>2015-04-30T09:52:28.0000000+00:00</time></trkpt><trkpt lat="34.9252882" lon="32.8777742"><ele>1746.6</ele><time>2015-04-30T09:52:29.0000000+00:00</time></trkpt><trkpt lat="34.9252473" lon="32.877804"><ele>1746.7</ele><time>2015-04-30T09:52:30.0000000+00:00</time></trkpt><trkpt lat="34.9252071" lon="32.877839"><ele>1746.7</ele><time>2015-04-30T09:52:31.0000000+00:00</time></trkpt><trkpt lat="34.92517" lon="32.8778804"><ele>1746.7</ele><time>2015-04-30T09:52:32.0000000+00:00</time></trkpt><trkpt lat="34.9251236" lon="32.8779217"><ele>1746.8</ele><time>2015-04-30T09:52:33.0000000+00:00</time></trkpt><trkpt lat="34.925083" lon="32.8779782"><ele>1746.3</ele><time>2015-04-30T09:52:34.0000000+00:00</time></trkpt><trkpt lat="34.9250434" lon="32.8780355"><ele>1746.0</ele><time>2015-04-30T09:52:35.0000000+00:00</time></trkpt><trkpt lat="34.9249998" lon="32.8780869"><ele>1745.4</ele><time>2015-04-30T09:52:36.0000000+00:00</time></trkpt><trkpt lat="34.9249567" lon="32.8781232"><ele>1744.6</ele><time>2015-04-30T09:52:37.0000000+00:00</time></trkpt><trkpt lat="34.9249178" lon="32.8781718"><ele>1743.7</ele><time>2015-04-30T09:52:38.0000000+00:00</time></trkpt><trkpt lat="34.9248711" lon="32.8782362"><ele>1742.7</ele><time>2015-04-30T09:52:39.0000000+00:00</time></trkpt><trkpt lat="34.924821" lon="32.8783106"><ele>1741.7</ele><time>2015-04-30T09:52:40.0000000+00:00</time></trkpt><trkpt lat="34.9247653" lon="32.8783785"><ele>1741.3</ele><time>2015-04-30T09:52:41.0000000+00:00</time></trkpt><trkpt lat="34.9247108" lon="32.8784342"><ele>1741.0</ele><time>2015-04-30T09:52:42.0000000+00:00</time></trkpt><trkpt lat="34.9246601" lon="32.8784954"><ele>1741.4</ele><time>2015-04-30T09:52:43.0000000+00:00</time></trkpt><trkpt lat="34.9246047" lon="32.8785743"><ele>1741.6</ele><time>2015-04-30T09:52:44.0000000+00:00</time></trkpt><trkpt lat="34.9245535" lon="32.8786513"><ele>1741.7</ele><time>2015-04-30T09:52:45.0000000+00:00</time></trkpt><trkpt lat="34.9245079" lon="32.87873"><ele>1741.7</ele><time>2015-04-30T09:52:46.0000000+00:00</time></trkpt><trkpt lat="34.9244657" lon="32.8788126"><ele>1741.7</ele><time>2015-04-30T09:52:47.0000000+00:00</time></trkpt><trkpt lat="34.924424" lon="32.8789007"><ele>1741.8</ele><time>2015-04-30T09:52:48.0000000+00:00</time></trkpt><trkpt lat="34.9243954" lon="32.8789984"><ele>1741.3</ele><time>2015-04-30T09:52:49.0000000+00:00</time></trkpt><trkpt lat="34.9243698" lon="32.8790947"><ele>1740.5</ele><time>2015-04-30T09:52:50.0000000+00:00</time></trkpt><trkpt lat="34.924348" lon="32.8791927"><ele>1739.6</ele><time>2015-04-30T09:52:51.0000000+00:00</time></trkpt><trkpt lat="34.9243519" lon="32.8793"><ele>1739.2</ele><time>2015-04-30T09:52:52.0000000+00:00</time></trkpt><trkpt lat="34.9243634" lon="32.8794097"><ele>1738.5</ele><time>2015-04-30T09:52:53.0000000+00:00</time></trkpt><trkpt lat="34.9243845" lon="32.879522"><ele>1738.1</ele><time>2015-04-30T09:52:54.0000000+00:00</time></trkpt><trkpt lat="34.9244104" lon="32.8796315"><ele>1737.4</ele><time>2015-04-30T09:52:55.0000000+00:00</time></trkpt><trkpt lat="34.9244357" lon="32.8797575"><ele>1737.1</ele><time>2015-04-30T09:52:56.0000000+00:00</time></trkpt><trkpt lat="34.9244732" lon="32.8798691"><ele>1736.4</ele><time>2015-04-30T09:52:57.0000000+00:00</time></trkpt><trkpt lat="34.9244999" lon="32.8799857"><ele>1736.1</ele><time>2015-04-30T09:52:58.0000000+00:00</time></trkpt><trkpt lat="34.9245154" lon="32.8800867"><ele>1735.9</ele><time>2015-04-30T09:52:59.0000000+00:00</time></trkpt><trkpt lat="34.9245127" lon="32.8802094"><ele>1735.8</ele><time>2015-04-30T09:53:00.0000000+00:00</time></trkpt><trkpt lat="34.9245011" lon="32.88032"><ele>1736.3</ele><time>2015-04-30T09:53:01.0000000+00:00</time></trkpt><trkpt lat="34.9244871" lon="32.8804245"><ele>1736.5</ele><time>2015-04-30T09:53:02.0000000+00:00</time></trkpt><trkpt lat="34.9244616" lon="32.8805178"><ele>1736.7</ele><time>2015-04-30T09:53:03.0000000+00:00</time></trkpt><trkpt lat="34.9244303" lon="32.8806062"><ele>1736.2</ele><time>2015-04-30T09:53:04.0000000+00:00</time></trkpt><trkpt lat="34.9244015" lon="32.8807025"><ele>1736.0</ele><time>2015-04-30T09:53:05.0000000+00:00</time></trkpt><trkpt lat="34.924376" lon="32.8807768"><ele>1736.4</ele><time>2015-04-30T09:53:06.0000000+00:00</time></trkpt><trkpt lat="34.924332" lon="32.8808542"><ele>1736.6</ele><time>2015-04-30T09:53:07.0000000+00:00</time></trkpt><trkpt lat="34.9242866" lon="32.8809374"><ele>1736.7</ele><time>2015-04-30T09:53:08.0000000+00:00</time></trkpt><trkpt lat="34.924247" lon="32.8810167"><ele>1736.2</ele><time>2015-04-30T09:53:09.0000000+00:00</time></trkpt><trkpt lat="34.9242099" lon="32.8810856"><ele>1736.0</ele><time>2015-04-30T09:53:10.0000000+00:00</time></trkpt><trkpt lat="34.9241989" lon="32.8811429"><ele>1734.4</ele><time>2015-04-30T09:53:11.0000000+00:00</time></trkpt><trkpt lat="34.9241758" lon="32.8812126"><ele>1731.9</ele><time>2015-04-30T09:53:13.0000000+00:00</time></trkpt><trkpt lat="34.924155" lon="32.8812639"><ele>1732.1</ele><time>2015-04-30T09:53:17.0000000+00:00</time></trkpt><trkpt lat="34.9241201" lon="32.8813009"><ele>1730.5</ele><time>2015-04-30T09:53:23.0000000+00:00</time></trkpt><trkpt lat="34.9240639" lon="32.8813021"><ele>1728.0</ele><time>2015-04-30T09:53:28.0000000+00:00</time></trkpt><trkpt lat="34.9240064" lon="32.8812879"><ele>1725.4</ele><time>2015-04-30T09:53:32.0000000+00:00</time></trkpt><trkpt lat="34.9239494" lon="32.8812347"><ele>1725.3</ele><time>2015-04-30T09:53:35.0000000+00:00</time></trkpt><trkpt lat="34.9239004" lon="32.8811858"><ele>1725.7</ele><time>2015-04-30T09:53:37.0000000+00:00</time></trkpt><trkpt lat="34.9238548" lon="32.8811343"><ele>1725.7</ele><time>2015-04-30T09:53:39.0000000+00:00</time></trkpt><trkpt lat="34.9238205" lon="32.8810781"><ele>1726.3</ele><time>2015-04-30T09:53:41.0000000+00:00</time></trkpt><trkpt lat="34.923797" lon="32.8810234"><ele>1727.4</ele><time>2015-04-30T09:53:43.0000000+00:00</time></trkpt><trkpt lat="34.9237731" lon="32.880974"><ele>1728.2</ele><time>2015-04-30T09:53:45.0000000+00:00</time></trkpt><trkpt lat="34.9237214" lon="32.8809206"><ele>1730.3</ele><time>2015-04-30T09:53:48.0000000+00:00</time></trkpt><trkpt lat="34.9236845" lon="32.8808838"><ele>1729.9</ele><time>2015-04-30T09:53:50.0000000+00:00</time></trkpt><trkpt lat="34.9236512" lon="32.8808404"><ele>1729.3</ele><time>2015-04-30T09:53:52.0000000+00:00</time></trkpt><trkpt lat="34.9236183" lon="32.8807922"><ele>1728.9</ele><time>2015-04-30T09:53:54.0000000+00:00</time></trkpt><trkpt lat="34.9235874" lon="32.8807448"><ele>1729.8</ele><time>2015-04-30T09:53:56.0000000+00:00</time></trkpt><trkpt lat="34.923561" lon="32.8806959"><ele>1730.0</ele><time>2015-04-30T09:53:58.0000000+00:00</time></trkpt><trkpt lat="34.9235373" lon="32.8806466"><ele>1730.6</ele><time>2015-04-30T09:54:00.0000000+00:00</time></trkpt><trkpt lat="34.923495" lon="32.8805869"><ele>1730.7</ele><time>2015-04-30T09:54:03.0000000+00:00</time></trkpt><trkpt lat="34.9234426" lon="32.880546"><ele>1732.4</ele><time>2015-04-30T09:54:06.0000000+00:00</time></trkpt><trkpt lat="34.9233997" lon="32.8805009"><ele>1733.0</ele><time>2015-04-30T09:54:09.0000000+00:00</time></trkpt><trkpt lat="34.9233553" lon="32.8804582"><ele>1731.3</ele><time>2015-04-30T09:54:12.0000000+00:00</time></trkpt><trkpt lat="34.9233018" lon="32.8804422"><ele>1730.1</ele><time>2015-04-30T09:54:15.0000000+00:00</time></trkpt><trkpt lat="34.9232397" lon="32.8804346"><ele>1730.2</ele><time>2015-04-30T09:54:18.0000000+00:00</time></trkpt><trkpt lat="34.9231818" lon="32.8804128"><ele>1730.6</ele><time>2015-04-30T09:54:21.0000000+00:00</time></trkpt><trkpt lat="34.9231172" lon="32.8803819"><ele>1729.9</ele><time>2015-04-30T09:54:24.0000000+00:00</time></trkpt><trkpt lat="34.9230687" lon="32.8803623"><ele>1729.8</ele><time>2015-04-30T09:54:26.0000000+00:00</time></trkpt><trkpt lat="34.923016" lon="32.8803398"><ele>1729.8</ele><time>2015-04-30T09:54:28.0000000+00:00</time></trkpt><trkpt lat="34.9229612" lon="32.8803274"><ele>1729.0</ele><time>2015-04-30T09:54:30.0000000+00:00</time></trkpt><trkpt lat="34.9229087" lon="32.8803292"><ele>1728.8</ele><time>2015-04-30T09:54:32.0000000+00:00</time></trkpt><trkpt lat="34.9228606" lon="32.8803282"><ele>1729.5</ele><time>2015-04-30T09:54:34.0000000+00:00</time></trkpt><trkpt lat="34.9227991" lon="32.8803242"><ele>1728.7</ele><time>2015-04-30T09:54:37.0000000+00:00</time></trkpt><trkpt lat="34.9227442" lon="32.8803495"><ele>1728.8</ele><time>2015-04-30T09:54:40.0000000+00:00</time></trkpt><trkpt lat="34.9226864" lon="32.8803403"><ele>1730.9</ele><time>2015-04-30T09:54:51.0000000+00:00</time></trkpt><trkpt lat="34.9226332" lon="32.8803437"><ele>1730.5</ele><time>2015-04-30T09:54:54.0000000+00:00</time></trkpt><trkpt lat="34.9225802" lon="32.8803406"><ele>1730.6</ele><time>2015-04-30T09:54:57.0000000+00:00</time></trkpt><trkpt lat="34.9225596" lon="32.8802876"><ele>1730.4</ele><time>2015-04-30T09:55:38.0000000+00:00</time></trkpt><trkpt lat="34.9225682" lon="32.8803503"><ele>1723.8</ele><time>2015-04-30T09:56:41.0000000+00:00</time></trkpt><trkpt lat="34.9226099" lon="32.8803772"><ele>1724.5</ele><time>2015-04-30T09:57:07.0000000+00:00</time></trkpt><trkpt lat="34.9225657" lon="32.880364"><ele>1733.5</ele><time>2015-04-30T10:04:25.0000000+00:00</time></trkpt><trkpt lat="34.9225586" lon="32.8803002"><ele>1734.6</ele><time>2015-04-30T10:04:37.0000000+00:00</time></trkpt><trkpt lat="34.9225638" lon="32.8802432"><ele>1733.3</ele><time>2015-04-30T10:04:42.0000000+00:00</time></trkpt><trkpt lat="34.9225634" lon="32.8802984"><ele>1733.8</ele><time>2015-04-30T10:05:02.0000000+00:00</time></trkpt><trkpt lat="34.922596" lon="32.8803486"><ele>1733.0</ele><time>2015-04-30T10:05:07.0000000+00:00</time></trkpt><trkpt lat="34.922589" lon="32.8804116"><ele>1730.1</ele><time>2015-04-30T10:05:12.0000000+00:00</time></trkpt><trkpt lat="34.922595" lon="32.8804701"><ele>1730.6</ele><time>2015-04-30T10:05:19.0000000+00:00</time></trkpt><trkpt lat="34.922615" lon="32.8805202"><ele>1729.2</ele><time>2015-04-30T10:05:26.0000000+00:00</time></trkpt><trkpt lat="34.922628" lon="32.8804659"><ele>1724.7</ele><time>2015-04-30T10:06:22.0000000+00:00</time></trkpt><trkpt lat="34.9225859" lon="32.880434"><ele>1726.7</ele><time>2015-04-30T10:06:35.0000000+00:00</time></trkpt><trkpt lat="34.9225977" lon="32.8803793"><ele>1727.8</ele><time>2015-04-30T10:10:53.0000000+00:00</time></trkpt><trkpt lat="34.9226504" lon="32.8803599"><ele>1730.1</ele><time>2015-04-30T10:11:06.0000000+00:00</time></trkpt><trkpt lat="34.9227254" lon="32.8803466"><ele>1730.9</ele><time>2015-04-30T10:11:08.0000000+00:00</time></trkpt><trkpt lat="34.9227894" lon="32.8803377"><ele>1731.3</ele><time>2015-04-30T10:11:10.0000000+00:00</time></trkpt><trkpt lat="34.9228456" lon="32.8803379"><ele>1732.4</ele><time>2015-04-30T10:11:12.0000000+00:00</time></trkpt><trkpt lat="34.9228956" lon="32.8803426"><ele>1733.9</ele><time>2015-04-30T10:11:14.0000000+00:00</time></trkpt><trkpt lat="34.9229482" lon="32.8803401"><ele>1733.8</ele><time>2015-04-30T10:11:16.0000000+00:00</time></trkpt><trkpt lat="34.9230061" lon="32.8803404"><ele>1733.0</ele><time>2015-04-30T10:11:18.0000000+00:00</time></trkpt><trkpt lat="34.923059" lon="32.8803508"><ele>1732.3</ele><time>2015-04-30T10:11:20.0000000+00:00</time></trkpt><trkpt lat="34.9231076" lon="32.8803709"><ele>1732.4</ele><time>2015-04-30T10:11:22.0000000+00:00</time></trkpt><trkpt lat="34.9231518" lon="32.8803938"><ele>1732.2</ele><time>2015-04-30T10:11:24.0000000+00:00</time></trkpt><trkpt lat="34.923193" lon="32.8804198"><ele>1731.9</ele><time>2015-04-30T10:11:26.0000000+00:00</time></trkpt><trkpt lat="34.923229" lon="32.8804581"><ele>1732.0</ele><time>2015-04-30T10:11:28.0000000+00:00</time></trkpt><trkpt lat="34.9232484" lon="32.8805122"><ele>1731.1</ele><time>2015-04-30T10:11:30.0000000+00:00</time></trkpt><trkpt lat="34.9232441" lon="32.8805783"><ele>1731.3</ele><time>2015-04-30T10:11:32.0000000+00:00</time></trkpt><trkpt lat="34.9232251" lon="32.8806348"><ele>1731.2</ele><time>2015-04-30T10:11:34.0000000+00:00</time></trkpt><trkpt lat="34.9231981" lon="32.8806808"><ele>1731.1</ele><time>2015-04-30T10:11:36.0000000+00:00</time></trkpt><trkpt lat="34.9231912" lon="32.8807372"><ele>1730.1</ele><time>2015-04-30T10:11:38.0000000+00:00</time></trkpt><trkpt lat="34.923191" lon="32.8808036"><ele>1729.8</ele><time>2015-04-30T10:11:40.0000000+00:00</time></trkpt><trkpt lat="34.923192" lon="32.8808707"><ele>1728.3</ele><time>2015-04-30T10:11:42.0000000+00:00</time></trkpt><trkpt lat="34.9231942" lon="32.8809408"><ele>1726.6</ele><time>2015-04-30T10:11:44.0000000+00:00</time></trkpt><trkpt lat="34.9231814" lon="32.8810076"><ele>1725.5</ele><time>2015-04-30T10:11:46.0000000+00:00</time></trkpt><trkpt lat="34.9231455" lon="32.8810562"><ele>1724.9</ele><time>2015-04-30T10:11:48.0000000+00:00</time></trkpt><trkpt lat="34.9231105" lon="32.8810907"><ele>1724.8</ele><time>2015-04-30T10:11:50.0000000+00:00</time></trkpt><trkpt lat="34.9231201" lon="32.8810342"><ele>1721.0</ele><time>2015-04-30T10:12:11.0000000+00:00</time></trkpt><trkpt lat="34.9231604" lon="32.8810037"><ele>1721.3</ele><time>2015-04-30T10:12:15.0000000+00:00</time></trkpt><trkpt lat="34.9232109" lon="32.8809721"><ele>1721.2</ele><time>2015-04-30T10:12:18.0000000+00:00</time></trkpt><trkpt lat="34.9232386" lon="32.880917"><ele>1720.0</ele><time>2015-04-30T10:12:22.0000000+00:00</time></trkpt><trkpt lat="34.9232149" lon="32.8808449"><ele>1725.6</ele><time>2015-04-30T10:12:26.0000000+00:00</time></trkpt><trkpt lat="34.9231965" lon="32.8807822"><ele>1726.6</ele><time>2015-04-30T10:12:29.0000000+00:00</time></trkpt><trkpt lat="34.9231889" lon="32.8807162"><ele>1729.0</ele><time>2015-04-30T10:12:32.0000000+00:00</time></trkpt><trkpt lat="34.9231833" lon="32.880657"><ele>1728.2</ele><time>2015-04-30T10:12:35.0000000+00:00</time></trkpt><trkpt lat="34.9231712" lon="32.8805913"><ele>1729.3</ele><time>2015-04-30T10:12:39.0000000+00:00</time></trkpt><trkpt lat="34.923172" lon="32.8805346"><ele>1729.2</ele><time>2015-04-30T10:12:43.0000000+00:00</time></trkpt><trkpt lat="34.9231287" lon="32.8805115"><ele>1729.5</ele><time>2015-04-30T10:12:48.0000000+00:00</time></trkpt><trkpt lat="34.9230836" lon="32.8804878"><ele>1729.7</ele><time>2015-04-30T10:12:54.0000000+00:00</time></trkpt><trkpt lat="34.9230387" lon="32.8804496"><ele>1725.1</ele><time>2015-04-30T10:13:05.0000000+00:00</time></trkpt><trkpt lat="34.9229887" lon="32.8804449"><ele>1723.6</ele><time>2015-04-30T10:13:07.0000000+00:00</time></trkpt><trkpt lat="34.9229193" lon="32.8804314"><ele>1725.1</ele><time>2015-04-30T10:13:10.0000000+00:00</time></trkpt><trkpt lat="34.9228703" lon="32.8804162"><ele>1725.4</ele><time>2015-04-30T10:13:12.0000000+00:00</time></trkpt><trkpt lat="34.9228176" lon="32.8803877"><ele>1726.2</ele><time>2015-04-30T10:13:14.0000000+00:00</time></trkpt><trkpt lat="34.922758" lon="32.8803546"><ele>1727.9</ele><time>2015-04-30T10:13:16.0000000+00:00</time></trkpt><trkpt lat="34.9227002" lon="32.8803274"><ele>1729.3</ele><time>2015-04-30T10:13:18.0000000+00:00</time></trkpt><trkpt lat="34.9226524" lon="32.8803029"><ele>1730.1</ele><time>2015-04-30T10:13:20.0000000+00:00</time></trkpt><trkpt lat="34.9225947" lon="32.880284"><ele>1729.8</ele><time>2015-04-30T10:13:23.0000000+00:00</time></trkpt><trkpt lat="34.9226111" lon="32.880336"><ele>1729.8</ele><time>2015-04-30T10:14:42.0000000+00:00</time></trkpt><trkpt lat="34.9226084" lon="32.880391"><ele>1728.8</ele><time>2015-04-30T10:15:54.0000000+00:00</time></trkpt><trkpt lat="34.9225684" lon="32.8803788"><ele>1729.8</ele><time>2015-04-30T10:20:48.0000000+00:00</time></trkpt><trkpt lat="34.9225859" lon="32.880353"><ele>1729.8</ele><time>2015-04-30T10:50:57.0000000+00:00</time></trkpt><trkpt lat="34.9225827" lon="32.8802915"><ele>1728.1</ele><time>2015-04-30T10:54:02.0000000+00:00</time></trkpt><trkpt lat="34.9226351" lon="32.8803029"><ele>1732.7</ele><time>2015-04-30T10:57:07.0000000+00:00</time></trkpt><trkpt lat="34.9226916" lon="32.8803022"><ele>1731.3</ele><time>2015-04-30T10:57:10.0000000+00:00</time></trkpt><trkpt lat="34.9227623" lon="32.8803035"><ele>1731.9</ele><time>2015-04-30T10:57:12.0000000+00:00</time></trkpt><trkpt lat="34.9228394" lon="32.880307"><ele>1731.8</ele><time>2015-04-30T10:57:14.0000000+00:00</time></trkpt><trkpt lat="34.9229158" lon="32.8803138"><ele>1730.3</ele><time>2015-04-30T10:57:16.0000000+00:00</time></trkpt><trkpt lat="34.9229868" lon="32.880317"><ele>1728.6</ele><time>2015-04-30T10:57:18.0000000+00:00</time></trkpt><trkpt lat="34.9230529" lon="32.8803216"><ele>1727.7</ele><time>2015-04-30T10:57:20.0000000+00:00</time></trkpt><trkpt lat="34.9231185" lon="32.8803345"><ele>1726.5</ele><time>2015-04-30T10:57:22.0000000+00:00</time></trkpt><trkpt lat="34.9231795" lon="32.8803512"><ele>1728.2</ele><time>2015-04-30T10:57:24.0000000+00:00</time></trkpt><trkpt lat="34.9232325" lon="32.8803766"><ele>1731.6</ele><time>2015-04-30T10:57:26.0000000+00:00</time></trkpt><trkpt lat="34.9232837" lon="32.8803955"><ele>1733.0</ele><time>2015-04-30T10:57:28.0000000+00:00</time></trkpt><trkpt lat="34.923336" lon="32.8804136"><ele>1733.1</ele><time>2015-04-30T10:57:30.0000000+00:00</time></trkpt><trkpt lat="34.9233836" lon="32.8804341"><ele>1732.8</ele><time>2015-04-30T10:57:32.0000000+00:00</time></trkpt><trkpt lat="34.9234334" lon="32.8804629"><ele>1731.8</ele><time>2015-04-30T10:57:34.0000000+00:00</time></trkpt><trkpt lat="34.9234846" lon="32.8804961"><ele>1730.5</ele><time>2015-04-30T10:57:36.0000000+00:00</time></trkpt><trkpt lat="34.923538" lon="32.8805415"><ele>1729.2</ele><time>2015-04-30T10:57:38.0000000+00:00</time></trkpt><trkpt lat="34.9235832" lon="32.8805964"><ele>1728.9</ele><time>2015-04-30T10:57:40.0000000+00:00</time></trkpt><trkpt lat="34.9236218" lon="32.8806586"><ele>1730.0</ele><time>2015-04-30T10:57:42.0000000+00:00</time></trkpt><trkpt lat="34.9236565" lon="32.880731"><ele>1731.3</ele><time>2015-04-30T10:57:44.0000000+00:00</time></trkpt><trkpt lat="34.9236858" lon="32.880802"><ele>1731.4</ele><time>2015-04-30T10:57:46.0000000+00:00</time></trkpt><trkpt lat="34.9237075" lon="32.8808688"><ele>1732.4</ele><time>2015-04-30T10:57:48.0000000+00:00</time></trkpt><trkpt lat="34.9237263" lon="32.8809283"><ele>1733.2</ele><time>2015-04-30T10:57:50.0000000+00:00</time></trkpt><trkpt lat="34.9237583" lon="32.8810008"><ele>1734.7</ele><time>2015-04-30T10:57:53.0000000+00:00</time></trkpt><trkpt lat="34.9237858" lon="32.8810482"><ele>1735.2</ele><time>2015-04-30T10:57:55.0000000+00:00</time></trkpt><trkpt lat="34.9238142" lon="32.8811051"><ele>1735.4</ele><time>2015-04-30T10:57:57.0000000+00:00</time></trkpt><trkpt lat="34.9238584" lon="32.8811449"><ele>1736.4</ele><time>2015-04-30T10:57:59.0000000+00:00</time></trkpt><trkpt lat="34.9239087" lon="32.8811847"><ele>1736.2</ele><time>2015-04-30T10:58:01.0000000+00:00</time></trkpt><trkpt lat="34.9239529" lon="32.8812226"><ele>1737.4</ele><time>2015-04-30T10:58:03.0000000+00:00</time></trkpt><trkpt lat="34.923991" lon="32.8812656"><ele>1737.7</ele><time>2015-04-30T10:58:05.0000000+00:00</time></trkpt><trkpt lat="34.9240192" lon="32.8813175"><ele>1737.2</ele><time>2015-04-30T10:58:07.0000000+00:00</time></trkpt><trkpt lat="34.9240332" lon="32.8813848"><ele>1737.6</ele><time>2015-04-30T10:58:09.0000000+00:00</time></trkpt><trkpt lat="34.9240391" lon="32.8814672"><ele>1738.0</ele><time>2015-04-30T10:58:11.0000000+00:00</time></trkpt><trkpt lat="34.9240366" lon="32.8815538"><ele>1737.9</ele><time>2015-04-30T10:58:12.0000000+00:00</time></trkpt><trkpt lat="34.9240432" lon="32.8816143"><ele>1737.3</ele><time>2015-04-30T10:58:13.0000000+00:00</time></trkpt><trkpt lat="34.9240516" lon="32.8816837"><ele>1736.0</ele><time>2015-04-30T10:58:14.0000000+00:00</time></trkpt><trkpt lat="34.9240574" lon="32.8817464"><ele>1735.4</ele><time>2015-04-30T10:58:15.0000000+00:00</time></trkpt><trkpt lat="34.9240713" lon="32.8818026"><ele>1735.1</ele><time>2015-04-30T10:58:16.0000000+00:00</time></trkpt><trkpt lat="34.9241078" lon="32.881908"><ele>1736.1</ele><time>2015-04-30T10:58:18.0000000+00:00</time></trkpt><trkpt lat="34.9241298" lon="32.8819662"><ele>1736.4</ele><time>2015-04-30T10:58:19.0000000+00:00</time></trkpt><trkpt lat="34.9241595" lon="32.8820359"><ele>1736.6</ele><time>2015-04-30T10:58:20.0000000+00:00</time></trkpt><trkpt lat="34.9242076" lon="32.8821035"><ele>1736.7</ele><time>2015-04-30T10:58:21.0000000+00:00</time></trkpt><trkpt lat="34.9242535" lon="32.8821597"><ele>1736.7</ele><time>2015-04-30T10:58:22.0000000+00:00</time></trkpt><trkpt lat="34.9243023" lon="32.8822062"><ele>1736.2</ele><time>2015-04-30T10:58:23.0000000+00:00</time></trkpt><trkpt lat="34.9243549" lon="32.8822495"><ele>1735.5</ele><time>2015-04-30T10:58:24.0000000+00:00</time></trkpt><trkpt lat="34.9244175" lon="32.8822886"><ele>1734.6</ele><time>2015-04-30T10:58:25.0000000+00:00</time></trkpt><trkpt lat="34.92448" lon="32.8823073"><ele>1734.2</ele><time>2015-04-30T10:58:26.0000000+00:00</time></trkpt><trkpt lat="34.9245424" lon="32.8823251"><ele>1734.0</ele><time>2015-04-30T10:58:27.0000000+00:00</time></trkpt><trkpt lat="34.924623" lon="32.882327"><ele>1734.4</ele><time>2015-04-30T10:58:28.0000000+00:00</time></trkpt><trkpt lat="34.9247049" lon="32.8823405"><ele>1733.1</ele><time>2015-04-30T10:58:29.0000000+00:00</time></trkpt><trkpt lat="34.9247693" lon="32.8823207"><ele>1732.4</ele><time>2015-04-30T10:58:30.0000000+00:00</time></trkpt><trkpt lat="34.92482" lon="32.8822909"><ele>1732.6</ele><time>2015-04-30T10:58:31.0000000+00:00</time></trkpt><trkpt lat="34.9248835" lon="32.8822506"><ele>1733.2</ele><time>2015-04-30T10:58:32.0000000+00:00</time></trkpt><trkpt lat="34.9249477" lon="32.8822034"><ele>1733.5</ele><time>2015-04-30T10:58:33.0000000+00:00</time></trkpt><trkpt lat="34.9250049" lon="32.8821464"><ele>1734.1</ele><time>2015-04-30T10:58:34.0000000+00:00</time></trkpt><trkpt lat="34.9250532" lon="32.8820912"><ele>1734.4</ele><time>2015-04-30T10:58:35.0000000+00:00</time></trkpt><trkpt lat="34.9251049" lon="32.8820368"><ele>1734.1</ele><time>2015-04-30T10:58:36.0000000+00:00</time></trkpt><trkpt lat="34.9251456" lon="32.881981"><ele>1734.4</ele><time>2015-04-30T10:58:37.0000000+00:00</time></trkpt><trkpt lat="34.9251897" lon="32.8819084"><ele>1733.6</ele><time>2015-04-30T10:58:38.0000000+00:00</time></trkpt><trkpt lat="34.9252391" lon="32.8818442"><ele>1733.2</ele><time>2015-04-30T10:58:39.0000000+00:00</time></trkpt><trkpt lat="34.9252951" lon="32.8817838"><ele>1732.5</ele><time>2015-04-30T10:58:40.0000000+00:00</time></trkpt><trkpt lat="34.9253603" lon="32.8817303"><ele>1732.1</ele><time>2015-04-30T10:58:41.0000000+00:00</time></trkpt><trkpt lat="34.9254298" lon="32.8816855"><ele>1731.4</ele><time>2015-04-30T10:58:42.0000000+00:00</time></trkpt><trkpt lat="34.9254919" lon="32.8816431"><ele>1731.1</ele><time>2015-04-30T10:58:43.0000000+00:00</time></trkpt><trkpt lat="34.9255736" lon="32.8816303"><ele>1730.9</ele><time>2015-04-30T10:58:44.0000000+00:00</time></trkpt><trkpt lat="34.9256483" lon="32.8815989"><ele>1730.3</ele><time>2015-04-30T10:58:45.0000000+00:00</time></trkpt><trkpt lat="34.9257273" lon="32.8815756"><ele>1729.1</ele><time>2015-04-30T10:58:46.0000000+00:00</time></trkpt><trkpt lat="34.9258015" lon="32.881546"><ele>1727.9</ele><time>2015-04-30T10:58:47.0000000+00:00</time></trkpt><trkpt lat="34.9258788" lon="32.8815009"><ele>1727.3</ele><time>2015-04-30T10:58:48.0000000+00:00</time></trkpt><trkpt lat="34.9259538" lon="32.8814652"><ele>1726.6</ele><time>2015-04-30T10:58:49.0000000+00:00</time></trkpt><trkpt lat="34.9260335" lon="32.8814405"><ele>1726.2</ele><time>2015-04-30T10:58:50.0000000+00:00</time></trkpt><trkpt lat="34.9260905" lon="32.8814034"><ele>1726.5</ele><time>2015-04-30T10:58:51.0000000+00:00</time></trkpt><trkpt lat="34.9261658" lon="32.8813813"><ele>1725.9</ele><time>2015-04-30T10:58:53.0000000+00:00</time></trkpt><trkpt lat="34.9262154" lon="32.881358"><ele>1724.6</ele><time>2015-04-30T10:58:55.0000000+00:00</time></trkpt><trkpt lat="34.9262618" lon="32.8813292"><ele>1723.9</ele><time>2015-04-30T10:58:58.0000000+00:00</time></trkpt><trkpt lat="34.9263081" lon="32.8813145"><ele>1722.5</ele><time>2015-04-30T10:59:01.0000000+00:00</time></trkpt><trkpt lat="34.9263542" lon="32.8813277"><ele>1726.1</ele><time>2015-04-30T10:59:11.0000000+00:00</time></trkpt><trkpt lat="34.926391" lon="32.881362"><ele>1725.7</ele><time>2015-04-30T10:59:40.0000000+00:00</time></trkpt><trkpt lat="34.926456" lon="32.8813542"><ele>1723.7</ele><time>2015-04-30T11:00:23.0000000+00:00</time></trkpt><trkpt lat="34.9265287" lon="32.8813264"><ele>1722.5</ele><time>2015-04-30T11:00:25.0000000+00:00</time></trkpt><trkpt lat="34.9265758" lon="32.8813081"><ele>1721.6</ele><time>2015-04-30T11:00:26.0000000+00:00</time></trkpt><trkpt lat="34.9266296" lon="32.8812699"><ele>1720.7</ele><time>2015-04-30T11:00:27.0000000+00:00</time></trkpt><trkpt lat="34.9266838" lon="32.881251"><ele>1720.2</ele><time>2015-04-30T11:00:28.0000000+00:00</time></trkpt><trkpt lat="34.9267441" lon="32.8812396"><ele>1720.0</ele><time>2015-04-30T11:00:29.0000000+00:00</time></trkpt><trkpt lat="34.9268052" lon="32.8812199"><ele>1719.4</ele><time>2015-04-30T11:00:30.0000000+00:00</time></trkpt><trkpt lat="34.9268684" lon="32.881195"><ele>1718.6</ele><time>2015-04-30T11:00:31.0000000+00:00</time></trkpt><trkpt lat="34.926937" lon="32.8811728"><ele>1717.7</ele><time>2015-04-30T11:00:32.0000000+00:00</time></trkpt><trkpt lat="34.9270119" lon="32.8811528"><ele>1716.7</ele><time>2015-04-30T11:00:33.0000000+00:00</time></trkpt><trkpt lat="34.9270902" lon="32.8811307"><ele>1715.7</ele><time>2015-04-30T11:00:34.0000000+00:00</time></trkpt><trkpt lat="34.9271661" lon="32.8811112"><ele>1714.8</ele><time>2015-04-30T11:00:35.0000000+00:00</time></trkpt><trkpt lat="34.9272502" lon="32.8810925"><ele>1713.8</ele><time>2015-04-30T11:00:36.0000000+00:00</time></trkpt><trkpt lat="34.9273357" lon="32.8810834"><ele>1713.3</ele><time>2015-04-30T11:00:37.0000000+00:00</time></trkpt><trkpt lat="34.9274274" lon="32.8810774"><ele>1712.0</ele><time>2015-04-30T11:00:38.0000000+00:00</time></trkpt><trkpt lat="34.927522" lon="32.8810773"><ele>1711.4</ele><time>2015-04-30T11:00:39.0000000+00:00</time></trkpt><trkpt lat="34.9276136" lon="32.8810867"><ele>1711.1</ele><time>2015-04-30T11:00:40.0000000+00:00</time></trkpt><trkpt lat="34.9277009" lon="32.8811176"><ele>1710.4</ele><time>2015-04-30T11:00:41.0000000+00:00</time></trkpt><trkpt lat="34.9277874" lon="32.8811536"><ele>1709.6</ele><time>2015-04-30T11:00:42.0000000+00:00</time></trkpt><trkpt lat="34.9278801" lon="32.8811834"><ele>1709.2</ele><time>2015-04-30T11:00:43.0000000+00:00</time></trkpt><trkpt lat="34.9279705" lon="32.8812122"><ele>1709.0</ele><time>2015-04-30T11:00:44.0000000+00:00</time></trkpt><trkpt lat="34.9280759" lon="32.881238"><ele>1707.4</ele><time>2015-04-30T11:00:45.0000000+00:00</time></trkpt><trkpt lat="34.9281656" lon="32.8812563"><ele>1706.1</ele><time>2015-04-30T11:00:46.0000000+00:00</time></trkpt><trkpt lat="34.9282705" lon="32.8812972"><ele>1704.9</ele><time>2015-04-30T11:00:47.0000000+00:00</time></trkpt><trkpt lat="34.9283657" lon="32.8813387"><ele>1703.8</ele><time>2015-04-30T11:00:48.0000000+00:00</time></trkpt><trkpt lat="34.9284665" lon="32.881382"><ele>1703.3</ele><time>2015-04-30T11:00:49.0000000+00:00</time></trkpt><trkpt lat="34.9285704" lon="32.8814319"><ele>1702.5</ele><time>2015-04-30T11:00:50.0000000+00:00</time></trkpt><trkpt lat="34.9286698" lon="32.8814792"><ele>1702.1</ele><time>2015-04-30T11:00:51.0000000+00:00</time></trkpt><trkpt lat="34.9287763" lon="32.8815254"><ele>1702.5</ele><time>2015-04-30T11:00:52.0000000+00:00</time></trkpt><trkpt lat="34.928889" lon="32.8815797"><ele>1701.6</ele><time>2015-04-30T11:00:53.0000000+00:00</time></trkpt><trkpt lat="34.928993" lon="32.8816358"><ele>1700.2</ele><time>2015-04-30T11:00:54.0000000+00:00</time></trkpt><trkpt lat="34.9291078" lon="32.881692"><ele>1699.0</ele><time>2015-04-30T11:00:55.0000000+00:00</time></trkpt><trkpt lat="34.929217" lon="32.8817537"><ele>1697.9</ele><time>2015-04-30T11:00:56.0000000+00:00</time></trkpt><trkpt lat="34.9293285" lon="32.8818112"><ele>1696.8</ele><time>2015-04-30T11:00:57.0000000+00:00</time></trkpt><trkpt lat="34.9294404" lon="32.8818827"><ele>1695.8</ele><time>2015-04-30T11:00:58.0000000+00:00</time></trkpt><trkpt lat="34.9295539" lon="32.8819618"><ele>1695.3</ele><time>2015-04-30T11:00:59.0000000+00:00</time></trkpt><trkpt lat="34.9296686" lon="32.8820402"><ele>1694.0</ele><time>2015-04-30T11:01:00.0000000+00:00</time></trkpt><trkpt lat="34.9297853" lon="32.8821196"><ele>1691.9</ele><time>2015-04-30T11:01:01.0000000+00:00</time></trkpt><trkpt lat="34.9298935" lon="32.882216"><ele>1689.8</ele><time>2015-04-30T11:01:02.0000000+00:00</time></trkpt><trkpt lat="34.9300005" lon="32.8823152"><ele>1688.3</ele><time>2015-04-30T11:01:03.0000000+00:00</time></trkpt><trkpt lat="34.9301023" lon="32.8824128"><ele>1687.0</ele><time>2015-04-30T11:01:04.0000000+00:00</time></trkpt><trkpt lat="34.9302038" lon="32.8825155"><ele>1685.4</ele><time>2015-04-30T11:01:05.0000000+00:00</time></trkpt><trkpt lat="34.9302974" lon="32.8826089"><ele>1684.1</ele><time>2015-04-30T11:01:06.0000000+00:00</time></trkpt><trkpt lat="34.930385" lon="32.8826998"><ele>1682.4</ele><time>2015-04-30T11:01:07.0000000+00:00</time></trkpt><trkpt lat="34.9304758" lon="32.8827893"><ele>1681.1</ele><time>2015-04-30T11:01:08.0000000+00:00</time></trkpt><trkpt lat="34.930559" lon="32.8828765"><ele>1679.9</ele><time>2015-04-30T11:01:09.0000000+00:00</time></trkpt><trkpt lat="34.9306414" lon="32.8829708"><ele>1678.8</ele><time>2015-04-30T11:01:10.0000000+00:00</time></trkpt><trkpt lat="34.9307308" lon="32.8830564"><ele>1677.8</ele><time>2015-04-30T11:01:11.0000000+00:00</time></trkpt><trkpt lat="34.9308138" lon="32.8831406"><ele>1676.8</ele><time>2015-04-30T11:01:12.0000000+00:00</time></trkpt><trkpt lat="34.9308922" lon="32.8832115"><ele>1675.8</ele><time>2015-04-30T11:01:13.0000000+00:00</time></trkpt><trkpt lat="34.9309627" lon="32.8832873"><ele>1675.3</ele><time>2015-04-30T11:01:14.0000000+00:00</time></trkpt><trkpt lat="34.9310355" lon="32.883355"><ele>1674.5</ele><time>2015-04-30T11:01:15.0000000+00:00</time></trkpt><trkpt lat="34.9310936" lon="32.8834292"><ele>1673.6</ele><time>2015-04-30T11:01:16.0000000+00:00</time></trkpt><trkpt lat="34.9311589" lon="32.8834928"><ele>1672.7</ele><time>2015-04-30T11:01:17.0000000+00:00</time></trkpt><trkpt lat="34.9312284" lon="32.8835613"><ele>1671.2</ele><time>2015-04-30T11:01:18.0000000+00:00</time></trkpt><trkpt lat="34.9313017" lon="32.8836326"><ele>1670.5</ele><time>2015-04-30T11:01:19.0000000+00:00</time></trkpt><trkpt lat="34.931373" lon="32.8837004"><ele>1669.6</ele><time>2015-04-30T11:01:20.0000000+00:00</time></trkpt><trkpt lat="34.931442" lon="32.8837775"><ele>1668.7</ele><time>2015-04-30T11:01:21.0000000+00:00</time></trkpt><trkpt lat="34.9315216" lon="32.8838505"><ele>1667.7</ele><time>2015-04-30T11:01:22.0000000+00:00</time></trkpt><trkpt lat="34.9315914" lon="32.8839394"><ele>1666.7</ele><time>2015-04-30T11:01:23.0000000+00:00</time></trkpt><trkpt lat="34.9316454" lon="32.8840408"><ele>1665.8</ele><time>2015-04-30T11:01:24.0000000+00:00</time></trkpt><trkpt lat="34.9316886" lon="32.8841434"><ele>1664.8</ele><time>2015-04-30T11:01:25.0000000+00:00</time></trkpt><trkpt lat="34.9317221" lon="32.8842506"><ele>1664.3</ele><time>2015-04-30T11:01:26.0000000+00:00</time></trkpt><trkpt lat="34.9317464" lon="32.8843621"><ele>1663.5</ele><time>2015-04-30T11:01:27.0000000+00:00</time></trkpt><trkpt lat="34.9317542" lon="32.8844732"><ele>1663.1</ele><time>2015-04-30T11:01:28.0000000+00:00</time></trkpt><trkpt lat="34.9317452" lon="32.8845888"><ele>1662.5</ele><time>2015-04-30T11:01:29.0000000+00:00</time></trkpt><trkpt lat="34.9317355" lon="32.884708"><ele>1662.1</ele><time>2015-04-30T11:01:30.0000000+00:00</time></trkpt><trkpt lat="34.9317161" lon="32.8848259"><ele>1661.9</ele><time>2015-04-30T11:01:31.0000000+00:00</time></trkpt><trkpt lat="34.9316859" lon="32.8849327"><ele>1661.4</ele><time>2015-04-30T11:01:32.0000000+00:00</time></trkpt><trkpt lat="34.9316486" lon="32.8850391"><ele>1661.1</ele><time>2015-04-30T11:01:33.0000000+00:00</time></trkpt><trkpt lat="34.9316073" lon="32.8851376"><ele>1660.4</ele><time>2015-04-30T11:01:34.0000000+00:00</time></trkpt><trkpt lat="34.9315722" lon="32.8852292"><ele>1660.1</ele><time>2015-04-30T11:01:35.0000000+00:00</time></trkpt><trkpt lat="34.9315409" lon="32.8853043"><ele>1659.4</ele><time>2015-04-30T11:01:36.0000000+00:00</time></trkpt><trkpt lat="34.9315175" lon="32.8853623"><ele>1659.1</ele><time>2015-04-30T11:01:37.0000000+00:00</time></trkpt><trkpt lat="34.9314867" lon="32.8854023"><ele>1659.1</ele><time>2015-04-30T11:01:43.0000000+00:00</time></trkpt><trkpt lat="34.931446" lon="32.8854407"><ele>1659.2</ele><time>2015-04-30T11:03:00.0000000+00:00</time></trkpt><trkpt lat="34.9314267" lon="32.8855016"><ele>1658.9</ele><time>2015-04-30T11:03:02.0000000+00:00</time></trkpt><trkpt lat="34.9314052" lon="32.8855569"><ele>1658.8</ele><time>2015-04-30T11:03:04.0000000+00:00</time></trkpt><trkpt lat="34.9313802" lon="32.8856166"><ele>1658.8</ele><time>2015-04-30T11:03:06.0000000+00:00</time></trkpt><trkpt lat="34.9313471" lon="32.885682"><ele>1659.3</ele><time>2015-04-30T11:03:08.0000000+00:00</time></trkpt><trkpt lat="34.9313144" lon="32.8857519"><ele>1660.1</ele><time>2015-04-30T11:03:10.0000000+00:00</time></trkpt><trkpt lat="34.9312962" lon="32.885828"><ele>1660.6</ele><time>2015-04-30T11:03:12.0000000+00:00</time></trkpt><trkpt lat="34.9312813" lon="32.885909"><ele>1660.7</ele><time>2015-04-30T11:03:14.0000000+00:00</time></trkpt><trkpt lat="34.9312719" lon="32.8859948"><ele>1660.8</ele><time>2015-04-30T11:03:16.0000000+00:00</time></trkpt><trkpt lat="34.9312791" lon="32.8860944"><ele>1660.0</ele><time>2015-04-30T11:03:18.0000000+00:00</time></trkpt><trkpt lat="34.9312933" lon="32.8861877"><ele>1659.4</ele><time>2015-04-30T11:03:19.0000000+00:00</time></trkpt><trkpt lat="34.9313117" lon="32.8862485"><ele>1659.1</ele><time>2015-04-30T11:03:20.0000000+00:00</time></trkpt><trkpt lat="34.9313271" lon="32.8863127"><ele>1659.4</ele><time>2015-04-30T11:03:21.0000000+00:00</time></trkpt><trkpt lat="34.9313608" lon="32.8863795"><ele>1659.6</ele><time>2015-04-30T11:03:22.0000000+00:00</time></trkpt><trkpt lat="34.9313861" lon="32.8864407"><ele>1659.2</ele><time>2015-04-30T11:03:23.0000000+00:00</time></trkpt><trkpt lat="34.9314221" lon="32.8865032"><ele>1659.5</ele><time>2015-04-30T11:03:24.0000000+00:00</time></trkpt><trkpt lat="34.9314626" lon="32.8865644"><ele>1659.1</ele><time>2015-04-30T11:03:25.0000000+00:00</time></trkpt><trkpt lat="34.9314996" lon="32.8866164"><ele>1658.4</ele><time>2015-04-30T11:03:26.0000000+00:00</time></trkpt><trkpt lat="34.9315408" lon="32.8866829"><ele>1657.6</ele><time>2015-04-30T11:03:27.0000000+00:00</time></trkpt><trkpt lat="34.9315742" lon="32.8867407"><ele>1657.7</ele><time>2015-04-30T11:03:28.0000000+00:00</time></trkpt><trkpt lat="34.9316091" lon="32.8868107"><ele>1657.7</ele><time>2015-04-30T11:03:29.0000000+00:00</time></trkpt><trkpt lat="34.9316458" lon="32.8868742"><ele>1657.7</ele><time>2015-04-30T11:03:30.0000000+00:00</time></trkpt><trkpt lat="34.931683" lon="32.8869332"><ele>1658.3</ele><time>2015-04-30T11:03:31.0000000+00:00</time></trkpt><trkpt lat="34.9317253" lon="32.8870057"><ele>1659.0</ele><time>2015-04-30T11:03:32.0000000+00:00</time></trkpt><trkpt lat="34.9317767" lon="32.8870868"><ele>1659.4</ele><time>2015-04-30T11:03:33.0000000+00:00</time></trkpt><trkpt lat="34.9318234" lon="32.8871705"><ele>1659.6</ele><time>2015-04-30T11:03:34.0000000+00:00</time></trkpt><trkpt lat="34.9318668" lon="32.8872388"><ele>1660.2</ele><time>2015-04-30T11:03:35.0000000+00:00</time></trkpt><trkpt lat="34.9319117" lon="32.8873063"><ele>1661.0</ele><time>2015-04-30T11:03:36.0000000+00:00</time></trkpt><trkpt lat="34.9319573" lon="32.8873757"><ele>1660.9</ele><time>2015-04-30T11:03:37.0000000+00:00</time></trkpt><trkpt lat="34.9319985" lon="32.8874447"><ele>1660.8</ele><time>2015-04-30T11:03:38.0000000+00:00</time></trkpt><trkpt lat="34.9320417" lon="32.8875208"><ele>1661.3</ele><time>2015-04-30T11:03:39.0000000+00:00</time></trkpt><trkpt lat="34.9320921" lon="32.8875974"><ele>1661.0</ele><time>2015-04-30T11:03:40.0000000+00:00</time></trkpt><trkpt lat="34.9321426" lon="32.8876719"><ele>1660.9</ele><time>2015-04-30T11:03:41.0000000+00:00</time></trkpt><trkpt lat="34.932185" lon="32.8877494"><ele>1660.8</ele><time>2015-04-30T11:03:42.0000000+00:00</time></trkpt><trkpt lat="34.9322253" lon="32.8878208"><ele>1660.8</ele><time>2015-04-30T11:03:43.0000000+00:00</time></trkpt><trkpt lat="34.9322718" lon="32.8878999"><ele>1660.3</ele><time>2015-04-30T11:03:44.0000000+00:00</time></trkpt><trkpt lat="34.9323157" lon="32.887972"><ele>1660.0</ele><time>2015-04-30T11:03:45.0000000+00:00</time></trkpt><trkpt lat="34.9323645" lon="32.8880484"><ele>1659.9</ele><time>2015-04-30T11:03:46.0000000+00:00</time></trkpt><trkpt lat="34.9324171" lon="32.8881138"><ele>1659.8</ele><time>2015-04-30T11:03:47.0000000+00:00</time></trkpt><trkpt lat="34.9324643" lon="32.8881864"><ele>1659.8</ele><time>2015-04-30T11:03:48.0000000+00:00</time></trkpt><trkpt lat="34.9325144" lon="32.8882574"><ele>1659.8</ele><time>2015-04-30T11:03:49.0000000+00:00</time></trkpt><trkpt lat="34.9325666" lon="32.888321"><ele>1659.8</ele><time>2015-04-30T11:03:50.0000000+00:00</time></trkpt><trkpt lat="34.9326277" lon="32.8883968"><ele>1659.8</ele><time>2015-04-30T11:03:51.0000000+00:00</time></trkpt><trkpt lat="34.9326839" lon="32.8884636"><ele>1660.3</ele><time>2015-04-30T11:03:52.0000000+00:00</time></trkpt><trkpt lat="34.9327436" lon="32.8885192"><ele>1660.0</ele><time>2015-04-30T11:03:53.0000000+00:00</time></trkpt><trkpt lat="34.9328067" lon="32.8885869"><ele>1659.4</ele><time>2015-04-30T11:03:54.0000000+00:00</time></trkpt><trkpt lat="34.9328643" lon="32.8886394"><ele>1659.6</ele><time>2015-04-30T11:03:55.0000000+00:00</time></trkpt><trkpt lat="34.9329236" lon="32.8886888"><ele>1658.7</ele><time>2015-04-30T11:03:56.0000000+00:00</time></trkpt><trkpt lat="34.9329818" lon="32.8887345"><ele>1657.7</ele><time>2015-04-30T11:03:57.0000000+00:00</time></trkpt><trkpt lat="34.933032" lon="32.8887758"><ele>1657.2</ele><time>2015-04-30T11:03:58.0000000+00:00</time></trkpt><trkpt lat="34.9330808" lon="32.8888145"><ele>1657.0</ele><time>2015-04-30T11:03:59.0000000+00:00</time></trkpt><trkpt lat="34.933126" lon="32.8888499"><ele>1656.9</ele><time>2015-04-30T11:04:00.0000000+00:00</time></trkpt><trkpt lat="34.9331705" lon="32.8888858"><ele>1657.3</ele><time>2015-04-30T11:04:01.0000000+00:00</time></trkpt><trkpt lat="34.9332128" lon="32.8889286"><ele>1658.0</ele><time>2015-04-30T11:04:02.0000000+00:00</time></trkpt><trkpt lat="34.9332534" lon="32.8889661"><ele>1658.9</ele><time>2015-04-30T11:04:03.0000000+00:00</time></trkpt><trkpt lat="34.9332903" lon="32.8890115"><ele>1659.3</ele><time>2015-04-30T11:04:04.0000000+00:00</time></trkpt><trkpt lat="34.9333347" lon="32.8890422"><ele>1659.5</ele><time>2015-04-30T11:04:05.0000000+00:00</time></trkpt><trkpt lat="34.9334163" lon="32.8890981"><ele>1659.5</ele><time>2015-04-30T11:04:07.0000000+00:00</time></trkpt><trkpt lat="34.9334577" lon="32.889134"><ele>1659.1</ele><time>2015-04-30T11:04:08.0000000+00:00</time></trkpt><trkpt lat="34.9334995" lon="32.8891641"><ele>1659.4</ele><time>2015-04-30T11:04:09.0000000+00:00</time></trkpt><trkpt lat="34.933563" lon="32.8892262"><ele>1659.7</ele><time>2015-04-30T11:04:11.0000000+00:00</time></trkpt><trkpt lat="34.9336342" lon="32.8892536"><ele>1659.5</ele><time>2015-04-30T11:04:13.0000000+00:00</time></trkpt><trkpt lat="34.93368" lon="32.8892761"><ele>1659.9</ele><time>2015-04-30T11:04:15.0000000+00:00</time></trkpt><trkpt lat="34.9337218" lon="32.8893198"><ele>1660.0</ele><time>2015-04-30T11:04:18.0000000+00:00</time></trkpt><trkpt lat="34.933783" lon="32.8893462"><ele>1662.0</ele><time>2015-04-30T11:04:21.0000000+00:00</time></trkpt><trkpt lat="34.9338335" lon="32.8893857"><ele>1663.4</ele><time>2015-04-30T11:04:24.0000000+00:00</time></trkpt><trkpt lat="34.9338871" lon="32.8894224"><ele>1660.8</ele><time>2015-04-30T11:04:27.0000000+00:00</time></trkpt><trkpt lat="34.933932" lon="32.8894474"><ele>1659.3</ele><time>2015-04-30T11:04:29.0000000+00:00</time></trkpt><trkpt lat="34.9340029" lon="32.8894739"><ele>1659.1</ele><time>2015-04-30T11:04:32.0000000+00:00</time></trkpt><trkpt lat="34.9340496" lon="32.8894852"><ele>1660.3</ele><time>2015-04-30T11:04:34.0000000+00:00</time></trkpt><trkpt lat="34.934096" lon="32.8895032"><ele>1661.4</ele><time>2015-04-30T11:04:36.0000000+00:00</time></trkpt><trkpt lat="34.9341414" lon="32.8895201"><ele>1660.7</ele><time>2015-04-30T11:04:38.0000000+00:00</time></trkpt><trkpt lat="34.9341831" lon="32.8895434"><ele>1660.7</ele><time>2015-04-30T11:04:40.0000000+00:00</time></trkpt><trkpt lat="34.9342467" lon="32.8895668"><ele>1662.4</ele><time>2015-04-30T11:04:43.0000000+00:00</time></trkpt><trkpt lat="34.9342914" lon="32.8895793"><ele>1663.4</ele><time>2015-04-30T11:04:45.0000000+00:00</time></trkpt><trkpt lat="34.9343362" lon="32.8895954"><ele>1662.9</ele><time>2015-04-30T11:04:47.0000000+00:00</time></trkpt><trkpt lat="34.9343797" lon="32.8896102"><ele>1663.6</ele><time>2015-04-30T11:04:49.0000000+00:00</time></trkpt><trkpt lat="34.9344421" lon="32.8896306"><ele>1662.1</ele><time>2015-04-30T11:04:52.0000000+00:00</time></trkpt><trkpt lat="34.9345043" lon="32.8896486"><ele>1661.8</ele><time>2015-04-30T11:04:55.0000000+00:00</time></trkpt><trkpt lat="34.934566" lon="32.8896636"><ele>1664.4</ele><time>2015-04-30T11:04:58.0000000+00:00</time></trkpt><trkpt lat="34.934628" lon="32.8896847"><ele>1666.1</ele><time>2015-04-30T11:05:01.0000000+00:00</time></trkpt><trkpt lat="34.9346919" lon="32.8896983"><ele>1668.3</ele><time>2015-04-30T11:05:04.0000000+00:00</time></trkpt><trkpt lat="34.9347537" lon="32.889715"><ele>1668.5</ele><time>2015-04-30T11:05:07.0000000+00:00</time></trkpt><trkpt lat="34.9348113" lon="32.8897404"><ele>1668.7</ele><time>2015-04-30T11:05:10.0000000+00:00</time></trkpt><trkpt lat="34.9348701" lon="32.8897593"><ele>1669.6</ele><time>2015-04-30T11:05:13.0000000+00:00</time></trkpt><trkpt lat="34.9349281" lon="32.8897698"><ele>1671.0</ele><time>2015-04-30T11:05:16.0000000+00:00</time></trkpt><trkpt lat="34.9349861" lon="32.8897772"><ele>1672.9</ele><time>2015-04-30T11:05:19.0000000+00:00</time></trkpt><trkpt lat="34.9350456" lon="32.8897899"><ele>1674.2</ele><time>2015-04-30T11:05:22.0000000+00:00</time></trkpt><trkpt lat="34.9351069" lon="32.8898003"><ele>1675.4</ele><time>2015-04-30T11:05:25.0000000+00:00</time></trkpt><trkpt lat="34.9351697" lon="32.8898049"><ele>1674.8</ele><time>2015-04-30T11:05:28.0000000+00:00</time></trkpt><trkpt lat="34.9352259" lon="32.8898162"><ele>1674.8</ele><time>2015-04-30T11:05:31.0000000+00:00</time></trkpt><trkpt lat="34.9352834" lon="32.8898286"><ele>1675.6</ele><time>2015-04-30T11:05:34.0000000+00:00</time></trkpt><trkpt lat="34.93534" lon="32.8898422"><ele>1675.5</ele><time>2015-04-30T11:05:37.0000000+00:00</time></trkpt><trkpt lat="34.9353901" lon="32.8898692"><ele>1676.6</ele><time>2015-04-30T11:05:40.0000000+00:00</time></trkpt><trkpt lat="34.9354348" lon="32.8898821"><ele>1677.6</ele><time>2015-04-30T11:05:43.0000000+00:00</time></trkpt><trkpt lat="34.9354858" lon="32.8899"><ele>1678.6</ele><time>2015-04-30T11:05:46.0000000+00:00</time></trkpt><trkpt lat="34.9355378" lon="32.8899276"><ele>1679.4</ele><time>2015-04-30T11:05:49.0000000+00:00</time></trkpt><trkpt lat="34.9355906" lon="32.8899489"><ele>1680.0</ele><time>2015-04-30T11:05:52.0000000+00:00</time></trkpt><trkpt lat="34.9356385" lon="32.8899665"><ele>1680.9</ele><time>2015-04-30T11:05:55.0000000+00:00</time></trkpt><trkpt lat="34.9356926" lon="32.8899889"><ele>1680.8</ele><time>2015-04-30T11:05:58.0000000+00:00</time></trkpt><trkpt lat="34.9357538" lon="32.8900156"><ele>1679.4</ele><time>2015-04-30T11:06:01.0000000+00:00</time></trkpt><trkpt lat="34.9357949" lon="32.8900438"><ele>1678.2</ele><time>2015-04-30T11:06:03.0000000+00:00</time></trkpt><trkpt lat="34.9358383" lon="32.890071"><ele>1677.9</ele><time>2015-04-30T11:06:05.0000000+00:00</time></trkpt><trkpt lat="34.9358797" lon="32.8900966"><ele>1678.5</ele><time>2015-04-30T11:06:07.0000000+00:00</time></trkpt><trkpt lat="34.9359212" lon="32.8901266"><ele>1680.0</ele><time>2015-04-30T11:06:09.0000000+00:00</time></trkpt><trkpt lat="34.9359703" lon="32.8901607"><ele>1680.1</ele><time>2015-04-30T11:06:11.0000000+00:00</time></trkpt><trkpt lat="34.9360153" lon="32.8901939"><ele>1679.1</ele><time>2015-04-30T11:06:13.0000000+00:00</time></trkpt><trkpt lat="34.9360675" lon="32.8902421"><ele>1679.4</ele><time>2015-04-30T11:06:16.0000000+00:00</time></trkpt><trkpt lat="34.9361137" lon="32.8902904"><ele>1678.8</ele><time>2015-04-30T11:06:19.0000000+00:00</time></trkpt><trkpt lat="34.9361542" lon="32.8903471"><ele>1678.7</ele><time>2015-04-30T11:06:22.0000000+00:00</time></trkpt><trkpt lat="34.9361933" lon="32.8904003"><ele>1679.3</ele><time>2015-04-30T11:06:25.0000000+00:00</time></trkpt><trkpt lat="34.9362265" lon="32.8904571"><ele>1678.1</ele><time>2015-04-30T11:06:28.0000000+00:00</time></trkpt><trkpt lat="34.9362615" lon="32.8905161"><ele>1677.2</ele><time>2015-04-30T11:06:31.0000000+00:00</time></trkpt><trkpt lat="34.9362947" lon="32.8905796"><ele>1676.3</ele><time>2015-04-30T11:06:34.0000000+00:00</time></trkpt><trkpt lat="34.936323" lon="32.8906545"><ele>1676.5</ele><time>2015-04-30T11:06:37.0000000+00:00</time></trkpt><trkpt lat="34.9363454" lon="32.8907214"><ele>1675.9</ele><time>2015-04-30T11:06:39.0000000+00:00</time></trkpt><trkpt lat="34.9363724" lon="32.8908028"><ele>1676.6</ele><time>2015-04-30T11:06:41.0000000+00:00</time></trkpt><trkpt lat="34.9363998" lon="32.8908881"><ele>1676.7</ele><time>2015-04-30T11:06:43.0000000+00:00</time></trkpt><trkpt lat="34.9364219" lon="32.8909762"><ele>1676.8</ele><time>2015-04-30T11:06:45.0000000+00:00</time></trkpt><trkpt lat="34.9364401" lon="32.8910614"><ele>1677.3</ele><time>2015-04-30T11:06:47.0000000+00:00</time></trkpt><trkpt lat="34.9364597" lon="32.8911554"><ele>1678.1</ele><time>2015-04-30T11:06:49.0000000+00:00</time></trkpt><trkpt lat="34.9364749" lon="32.8912617"><ele>1679.1</ele><time>2015-04-30T11:06:51.0000000+00:00</time></trkpt><trkpt lat="34.9364833" lon="32.8913181"><ele>1678.9</ele><time>2015-04-30T11:06:52.0000000+00:00</time></trkpt><trkpt lat="34.9364926" lon="32.8913747"><ele>1678.4</ele><time>2015-04-30T11:06:53.0000000+00:00</time></trkpt><trkpt lat="34.9365018" lon="32.8914611"><ele>1678.1</ele><time>2015-04-30T11:06:54.0000000+00:00</time></trkpt><trkpt lat="34.936495" lon="32.8915243"><ele>1678.4</ele><time>2015-04-30T11:06:55.0000000+00:00</time></trkpt><trkpt lat="34.9364962" lon="32.8915905"><ele>1678.6</ele><time>2015-04-30T11:06:56.0000000+00:00</time></trkpt><trkpt lat="34.9365013" lon="32.8916642"><ele>1678.7</ele><time>2015-04-30T11:06:57.0000000+00:00</time></trkpt><trkpt lat="34.9365089" lon="32.891734"><ele>1678.7</ele><time>2015-04-30T11:06:58.0000000+00:00</time></trkpt><trkpt lat="34.9365127" lon="32.8918048"><ele>1679.2</ele><time>2015-04-30T11:06:59.0000000+00:00</time></trkpt><trkpt lat="34.9365137" lon="32.8918839"><ele>1679.0</ele><time>2015-04-30T11:07:00.0000000+00:00</time></trkpt><trkpt lat="34.9365026" lon="32.891966"><ele>1678.9</ele><time>2015-04-30T11:07:01.0000000+00:00</time></trkpt><trkpt lat="34.9365011" lon="32.8920525"><ele>1678.3</ele><time>2015-04-30T11:07:02.0000000+00:00</time></trkpt><trkpt lat="34.936494" lon="32.8921456"><ele>1677.5</ele><time>2015-04-30T11:07:03.0000000+00:00</time></trkpt><trkpt lat="34.9364869" lon="32.89224"><ele>1677.2</ele><time>2015-04-30T11:07:04.0000000+00:00</time></trkpt><trkpt lat="34.9364548" lon="32.8923368"><ele>1676.5</ele><time>2015-04-30T11:07:05.0000000+00:00</time></trkpt><trkpt lat="34.9364226" lon="32.892439"><ele>1675.6</ele><time>2015-04-30T11:07:06.0000000+00:00</time></trkpt><trkpt lat="34.9363913" lon="32.8925401"><ele>1675.2</ele><time>2015-04-30T11:07:07.0000000+00:00</time></trkpt><trkpt lat="34.9363484" lon="32.8926581"><ele>1675.0</ele><time>2015-04-30T11:07:08.0000000+00:00</time></trkpt><trkpt lat="34.9363007" lon="32.8927792"><ele>1674.9</ele><time>2015-04-30T11:07:09.0000000+00:00</time></trkpt><trkpt lat="34.9362605" lon="32.8928931"><ele>1674.3</ele><time>2015-04-30T11:07:10.0000000+00:00</time></trkpt><trkpt lat="34.936215" lon="32.8930104"><ele>1674.0</ele><time>2015-04-30T11:07:11.0000000+00:00</time></trkpt><trkpt lat="34.9361727" lon="32.8931409"><ele>1673.4</ele><time>2015-04-30T11:07:12.0000000+00:00</time></trkpt><trkpt lat="34.9361272" lon="32.8932772"><ele>1672.6</ele><time>2015-04-30T11:07:13.0000000+00:00</time></trkpt><trkpt lat="34.9360538" lon="32.8933983"><ele>1672.2</ele><time>2015-04-30T11:07:14.0000000+00:00</time></trkpt><trkpt lat="34.9360013" lon="32.8935269"><ele>1672.0</ele><time>2015-04-30T11:07:15.0000000+00:00</time></trkpt><trkpt lat="34.9359352" lon="32.8936588"><ele>1670.9</ele><time>2015-04-30T11:07:16.0000000+00:00</time></trkpt><trkpt lat="34.9358764" lon="32.89381"><ele>1670.8</ele><time>2015-04-30T11:07:17.0000000+00:00</time></trkpt><trkpt lat="34.9358224" lon="32.8939582"><ele>1669.8</ele><time>2015-04-30T11:07:18.0000000+00:00</time></trkpt><trkpt lat="34.9357614" lon="32.8940951"><ele>1668.8</ele><time>2015-04-30T11:07:19.0000000+00:00</time></trkpt><trkpt lat="34.9357052" lon="32.89424"><ele>1667.8</ele><time>2015-04-30T11:07:20.0000000+00:00</time></trkpt><trkpt lat="34.9356418" lon="32.8943881"><ele>1667.3</ele><time>2015-04-30T11:07:21.0000000+00:00</time></trkpt><trkpt lat="34.9355905" lon="32.8945291"><ele>1666.5</ele><time>2015-04-30T11:07:22.0000000+00:00</time></trkpt><trkpt lat="34.9355341" lon="32.8946815"><ele>1666.1</ele><time>2015-04-30T11:07:23.0000000+00:00</time></trkpt><trkpt lat="34.9354641" lon="32.8948335"><ele>1665.5</ele><time>2015-04-30T11:07:24.0000000+00:00</time></trkpt><trkpt lat="34.9353937" lon="32.8949861"><ele>1664.6</ele><time>2015-04-30T11:07:25.0000000+00:00</time></trkpt><trkpt lat="34.9353184" lon="32.8951349"><ele>1663.2</ele><time>2015-04-30T11:07:26.0000000+00:00</time></trkpt><trkpt lat="34.9352527" lon="32.8952841"><ele>1661.5</ele><time>2015-04-30T11:07:27.0000000+00:00</time></trkpt><trkpt lat="34.9351833" lon="32.8954528"><ele>1660.1</ele><time>2015-04-30T11:07:28.0000000+00:00</time></trkpt><trkpt lat="34.9351134" lon="32.8956057"><ele>1658.4</ele><time>2015-04-30T11:07:29.0000000+00:00</time></trkpt><trkpt lat="34.9350422" lon="32.8957632"><ele>1656.6</ele><time>2015-04-30T11:07:30.0000000+00:00</time></trkpt><trkpt lat="34.934961" lon="32.8959352"><ele>1655.7</ele><time>2015-04-30T11:07:31.0000000+00:00</time></trkpt><trkpt lat="34.9348868" lon="32.8960918"><ele>1654.7</ele><time>2015-04-30T11:07:32.0000000+00:00</time></trkpt><trkpt lat="34.9348153" lon="32.8962546"><ele>1653.7</ele><time>2015-04-30T11:07:33.0000000+00:00</time></trkpt><trkpt lat="34.9347478" lon="32.8964179"><ele>1652.8</ele><time>2015-04-30T11:07:34.0000000+00:00</time></trkpt><trkpt lat="34.9346784" lon="32.8965738"><ele>1651.3</ele><time>2015-04-30T11:07:35.0000000+00:00</time></trkpt><trkpt lat="34.9346049" lon="32.8967383"><ele>1650.0</ele><time>2015-04-30T11:07:36.0000000+00:00</time></trkpt><trkpt lat="34.9345325" lon="32.8969039"><ele>1648.4</ele><time>2015-04-30T11:07:37.0000000+00:00</time></trkpt><trkpt lat="34.9344686" lon="32.8970625"><ele>1647.1</ele><time>2015-04-30T11:07:38.0000000+00:00</time></trkpt><trkpt lat="34.9344044" lon="32.8972206"><ele>1645.4</ele><time>2015-04-30T11:07:39.0000000+00:00</time></trkpt><trkpt lat="34.9343491" lon="32.8973848"><ele>1644.6</ele><time>2015-04-30T11:07:40.0000000+00:00</time></trkpt><trkpt lat="34.9342897" lon="32.8975305"><ele>1643.7</ele><time>2015-04-30T11:07:41.0000000+00:00</time></trkpt><trkpt lat="34.9342257" lon="32.89768"><ele>1643.2</ele><time>2015-04-30T11:07:42.0000000+00:00</time></trkpt><trkpt lat="34.9341524" lon="32.8978099"><ele>1641.5</ele><time>2015-04-30T11:07:43.0000000+00:00</time></trkpt><trkpt lat="34.9340891" lon="32.8979588"><ele>1640.6</ele><time>2015-04-30T11:07:44.0000000+00:00</time></trkpt><trkpt lat="34.9340123" lon="32.8980751"><ele>1639.2</ele><time>2015-04-30T11:07:45.0000000+00:00</time></trkpt><trkpt lat="34.9339576" lon="32.8982076"><ele>1637.5</ele><time>2015-04-30T11:07:46.0000000+00:00</time></trkpt><trkpt lat="34.9338945" lon="32.8983443"><ele>1636.6</ele><time>2015-04-30T11:07:47.0000000+00:00</time></trkpt><trkpt lat="34.9338316" lon="32.8984811"><ele>1635.7</ele><time>2015-04-30T11:07:48.0000000+00:00</time></trkpt><trkpt lat="34.933768" lon="32.8986121"><ele>1634.7</ele><time>2015-04-30T11:07:49.0000000+00:00</time></trkpt><trkpt lat="34.9337065" lon="32.898756"><ele>1634.2</ele><time>2015-04-30T11:07:50.0000000+00:00</time></trkpt><trkpt lat="34.9336494" lon="32.8988946"><ele>1633.5</ele><time>2015-04-30T11:07:51.0000000+00:00</time></trkpt><trkpt lat="34.9335913" lon="32.8990319"><ele>1633.1</ele><time>2015-04-30T11:07:52.0000000+00:00</time></trkpt><trkpt lat="34.9335319" lon="32.8991617"><ele>1632.5</ele><time>2015-04-30T11:07:53.0000000+00:00</time></trkpt><trkpt lat="34.9334582" lon="32.8992735"><ele>1631.1</ele><time>2015-04-30T11:07:54.0000000+00:00</time></trkpt><trkpt lat="34.9333834" lon="32.899394"><ele>1630.4</ele><time>2015-04-30T11:07:55.0000000+00:00</time></trkpt><trkpt lat="34.9333071" lon="32.8995032"><ele>1629.6</ele><time>2015-04-30T11:07:56.0000000+00:00</time></trkpt><trkpt lat="34.9332238" lon="32.899616"><ele>1629.7</ele><time>2015-04-30T11:07:57.0000000+00:00</time></trkpt><trkpt lat="34.9331359" lon="32.8997094"><ele>1629.7</ele><time>2015-04-30T11:07:58.0000000+00:00</time></trkpt><trkpt lat="34.9330554" lon="32.8998138"><ele>1628.7</ele><time>2015-04-30T11:07:59.0000000+00:00</time></trkpt><trkpt lat="34.9329603" lon="32.8999048"><ele>1628.3</ele><time>2015-04-30T11:08:00.0000000+00:00</time></trkpt><trkpt lat="34.9328722" lon="32.8999871"><ele>1627.5</ele><time>2015-04-30T11:08:01.0000000+00:00</time></trkpt><trkpt lat="34.932784" lon="32.9000774"><ele>1626.6</ele><time>2015-04-30T11:08:02.0000000+00:00</time></trkpt><trkpt lat="34.9326837" lon="32.9001632"><ele>1626.2</ele><time>2015-04-30T11:08:03.0000000+00:00</time></trkpt><trkpt lat="34.9325798" lon="32.9002627"><ele>1625.5</ele><time>2015-04-30T11:08:04.0000000+00:00</time></trkpt><trkpt lat="34.9324803" lon="32.9003491"><ele>1625.1</ele><time>2015-04-30T11:08:05.0000000+00:00</time></trkpt><trkpt lat="34.9323829" lon="32.9004381"><ele>1625.4</ele><time>2015-04-30T11:08:06.0000000+00:00</time></trkpt><trkpt lat="34.9322858" lon="32.9005232"><ele>1625.6</ele><time>2015-04-30T11:08:07.0000000+00:00</time></trkpt><trkpt lat="34.9321831" lon="32.9006035"><ele>1625.2</ele><time>2015-04-30T11:08:08.0000000+00:00</time></trkpt><trkpt lat="34.9320858" lon="32.9006851"><ele>1625.0</ele><time>2015-04-30T11:08:09.0000000+00:00</time></trkpt><trkpt lat="34.9319801" lon="32.9007682"><ele>1623.4</ele><time>2015-04-30T11:08:10.0000000+00:00</time></trkpt><trkpt lat="34.9318839" lon="32.900864"><ele>1622.6</ele><time>2015-04-30T11:08:11.0000000+00:00</time></trkpt><trkpt lat="34.9317948" lon="32.9009699"><ele>1621.2</ele><time>2015-04-30T11:08:12.0000000+00:00</time></trkpt><trkpt lat="34.9317142" lon="32.9010823"><ele>1620.5</ele><time>2015-04-30T11:08:13.0000000+00:00</time></trkpt><trkpt lat="34.9316329" lon="32.9011933"><ele>1620.1</ele><time>2015-04-30T11:08:14.0000000+00:00</time></trkpt><trkpt lat="34.9315505" lon="32.9013105"><ele>1619.9</ele><time>2015-04-30T11:08:15.0000000+00:00</time></trkpt><trkpt lat="34.9314693" lon="32.9014256"><ele>1619.9</ele><time>2015-04-30T11:08:16.0000000+00:00</time></trkpt><trkpt lat="34.9313978" lon="32.9015385"><ele>1618.8</ele><time>2015-04-30T11:08:17.0000000+00:00</time></trkpt><trkpt lat="34.931324" lon="32.9016427"><ele>1618.3</ele><time>2015-04-30T11:08:18.0000000+00:00</time></trkpt><trkpt lat="34.9312493" lon="32.9017457"><ele>1617.0</ele><time>2015-04-30T11:08:19.0000000+00:00</time></trkpt><trkpt lat="34.9311808" lon="32.9018563"><ele>1615.9</ele><time>2015-04-30T11:08:20.0000000+00:00</time></trkpt><trkpt lat="34.9311079" lon="32.9019674"><ele>1615.3</ele><time>2015-04-30T11:08:21.0000000+00:00</time></trkpt><trkpt lat="34.9310377" lon="32.9020853"><ele>1615.5</ele><time>2015-04-30T11:08:22.0000000+00:00</time></trkpt><trkpt lat="34.9309712" lon="32.9021964"><ele>1615.7</ele><time>2015-04-30T11:08:23.0000000+00:00</time></trkpt><trkpt lat="34.9309213" lon="32.9023199"><ele>1614.7</ele><time>2015-04-30T11:08:24.0000000+00:00</time></trkpt><trkpt lat="34.9308638" lon="32.9024467"><ele>1613.7</ele><time>2015-04-30T11:08:25.0000000+00:00</time></trkpt><trkpt lat="34.9308228" lon="32.9025844"><ele>1612.8</ele><time>2015-04-30T11:08:26.0000000+00:00</time></trkpt><trkpt lat="34.9308059" lon="32.902708"><ele>1611.8</ele><time>2015-04-30T11:08:27.0000000+00:00</time></trkpt><trkpt lat="34.9307948" lon="32.9028477"><ele>1610.8</ele><time>2015-04-30T11:08:28.0000000+00:00</time></trkpt><trkpt lat="34.9307832" lon="32.902988"><ele>1609.8</ele><time>2015-04-30T11:08:29.0000000+00:00</time></trkpt><trkpt lat="34.9307744" lon="32.9031309"><ele>1608.8</ele><time>2015-04-30T11:08:30.0000000+00:00</time></trkpt><trkpt lat="34.9307655" lon="32.9032698"><ele>1608.3</ele><time>2015-04-30T11:08:31.0000000+00:00</time></trkpt><trkpt lat="34.930753" lon="32.9034141"><ele>1607.5</ele><time>2015-04-30T11:08:32.0000000+00:00</time></trkpt><trkpt lat="34.9307442" lon="32.9035527"><ele>1606.6</ele><time>2015-04-30T11:08:33.0000000+00:00</time></trkpt><trkpt lat="34.9307305" lon="32.903702"><ele>1605.7</ele><time>2015-04-30T11:08:34.0000000+00:00</time></trkpt><trkpt lat="34.9307106" lon="32.903841"><ele>1605.2</ele><time>2015-04-30T11:08:35.0000000+00:00</time></trkpt><trkpt lat="34.9307022" lon="32.9039917"><ele>1605.0</ele><time>2015-04-30T11:08:36.0000000+00:00</time></trkpt><trkpt lat="34.9306984" lon="32.904134"><ele>1604.4</ele><time>2015-04-30T11:08:37.0000000+00:00</time></trkpt><trkpt lat="34.9306971" lon="32.9042828"><ele>1604.1</ele><time>2015-04-30T11:08:38.0000000+00:00</time></trkpt><trkpt lat="34.9306958" lon="32.9044338"><ele>1603.4</ele><time>2015-04-30T11:08:39.0000000+00:00</time></trkpt><trkpt lat="34.9307052" lon="32.904578"><ele>1602.6</ele><time>2015-04-30T11:08:40.0000000+00:00</time></trkpt><trkpt lat="34.9307161" lon="32.9047222"><ele>1601.7</ele><time>2015-04-30T11:08:41.0000000+00:00</time></trkpt><trkpt lat="34.930726" lon="32.9048776"><ele>1600.7</ele><time>2015-04-30T11:08:42.0000000+00:00</time></trkpt><trkpt lat="34.9307363" lon="32.9050172"><ele>1600.2</ele><time>2015-04-30T11:08:43.0000000+00:00</time></trkpt><trkpt lat="34.9307595" lon="32.9051543"><ele>1599.5</ele><time>2015-04-30T11:08:44.0000000+00:00</time></trkpt><trkpt lat="34.9307731" lon="32.9052706"><ele>1598.6</ele><time>2015-04-30T11:08:45.0000000+00:00</time></trkpt><trkpt lat="34.9308052" lon="32.9053843"><ele>1598.2</ele><time>2015-04-30T11:08:46.0000000+00:00</time></trkpt><trkpt lat="34.9308359" lon="32.9054753"><ele>1597.0</ele><time>2015-04-30T11:08:47.0000000+00:00</time></trkpt><trkpt lat="34.9308705" lon="32.9055721"><ele>1595.9</ele><time>2015-04-30T11:08:48.0000000+00:00</time></trkpt><trkpt lat="34.9309168" lon="32.9056681"><ele>1594.8</ele><time>2015-04-30T11:08:49.0000000+00:00</time></trkpt><trkpt lat="34.9309552" lon="32.9057657"><ele>1594.3</ele><time>2015-04-30T11:08:50.0000000+00:00</time></trkpt><trkpt lat="34.9310085" lon="32.9058577"><ele>1593.0</ele><time>2015-04-30T11:08:51.0000000+00:00</time></trkpt><trkpt lat="34.9310694" lon="32.9059636"><ele>1591.9</ele><time>2015-04-30T11:08:52.0000000+00:00</time></trkpt><trkpt lat="34.9311344" lon="32.9060543"><ele>1590.8</ele><time>2015-04-30T11:08:53.0000000+00:00</time></trkpt><trkpt lat="34.9312074" lon="32.9061474"><ele>1589.8</ele><time>2015-04-30T11:08:54.0000000+00:00</time></trkpt><trkpt lat="34.9312815" lon="32.9062322"><ele>1588.3</ele><time>2015-04-30T11:08:55.0000000+00:00</time></trkpt><trkpt lat="34.9313631" lon="32.9063272"><ele>1587.0</ele><time>2015-04-30T11:08:56.0000000+00:00</time></trkpt><trkpt lat="34.9314456" lon="32.9064098"><ele>1585.4</ele><time>2015-04-30T11:08:57.0000000+00:00</time></trkpt><trkpt lat="34.9315373" lon="32.9064875"><ele>1584.1</ele><time>2015-04-30T11:08:58.0000000+00:00</time></trkpt><trkpt lat="34.9316276" lon="32.906553"><ele>1583.4</ele><time>2015-04-30T11:08:59.0000000+00:00</time></trkpt><trkpt lat="34.9317261" lon="32.90663"><ele>1582.6</ele><time>2015-04-30T11:09:00.0000000+00:00</time></trkpt><trkpt lat="34.9318209" lon="32.9067148"><ele>1581.7</ele><time>2015-04-30T11:09:01.0000000+00:00</time></trkpt><trkpt lat="34.9319111" lon="32.906802"><ele>1580.7</ele><time>2015-04-30T11:09:02.0000000+00:00</time></trkpt><trkpt lat="34.9319953" lon="32.9069027"><ele>1580.2</ele><time>2015-04-30T11:09:03.0000000+00:00</time></trkpt><trkpt lat="34.9320714" lon="32.9070186"><ele>1579.5</ele><time>2015-04-30T11:09:04.0000000+00:00</time></trkpt><trkpt lat="34.9321451" lon="32.9071287"><ele>1579.6</ele><time>2015-04-30T11:09:05.0000000+00:00</time></trkpt><trkpt lat="34.9322125" lon="32.9072442"><ele>1579.2</ele><time>2015-04-30T11:09:06.0000000+00:00</time></trkpt><trkpt lat="34.9322652" lon="32.9073459"><ele>1578.5</ele><time>2015-04-30T11:09:07.0000000+00:00</time></trkpt><trkpt lat="34.9322986" lon="32.9074267"><ele>1577.6</ele><time>2015-04-30T11:09:08.0000000+00:00</time></trkpt><trkpt lat="34.9323258" lon="32.9075"><ele>1577.2</ele><time>2015-04-30T11:09:09.0000000+00:00</time></trkpt><trkpt lat="34.9323512" lon="32.9075681"><ele>1576.6</ele><time>2015-04-30T11:09:11.0000000+00:00</time></trkpt><trkpt lat="34.9323985" lon="32.9076257"><ele>1571.3</ele><time>2015-04-30T11:14:16.0000000+00:00</time></trkpt><trkpt lat="34.93241" lon="32.9077004"><ele>1570.1</ele><time>2015-04-30T11:14:18.0000000+00:00</time></trkpt><trkpt lat="34.9324112" lon="32.9077654"><ele>1567.8</ele><time>2015-04-30T11:14:27.0000000+00:00</time></trkpt><trkpt lat="34.9324304" lon="32.9078392"><ele>1566.3</ele><time>2015-04-30T11:14:29.0000000+00:00</time></trkpt><trkpt lat="34.9324424" lon="32.9078945"><ele>1565.0</ele><time>2015-04-30T11:14:30.0000000+00:00</time></trkpt><trkpt lat="34.9324603" lon="32.9079942"><ele>1564.4</ele><time>2015-04-30T11:14:31.0000000+00:00</time></trkpt><trkpt lat="34.9324758" lon="32.9080718"><ele>1563.6</ele><time>2015-04-30T11:14:32.0000000+00:00</time></trkpt><trkpt lat="34.9324947" lon="32.90815"><ele>1562.7</ele><time>2015-04-30T11:14:33.0000000+00:00</time></trkpt><trkpt lat="34.9325138" lon="32.9082274"><ele>1561.7</ele><time>2015-04-30T11:14:34.0000000+00:00</time></trkpt><trkpt lat="34.9325334" lon="32.9083164"><ele>1561.2</ele><time>2015-04-30T11:14:35.0000000+00:00</time></trkpt><trkpt lat="34.9325646" lon="32.9084097"><ele>1560.5</ele><time>2015-04-30T11:14:36.0000000+00:00</time></trkpt><trkpt lat="34.9325897" lon="32.908502"><ele>1560.1</ele><time>2015-04-30T11:14:37.0000000+00:00</time></trkpt><trkpt lat="34.9326213" lon="32.9085984"><ele>1559.9</ele><time>2015-04-30T11:14:38.0000000+00:00</time></trkpt><trkpt lat="34.9326587" lon="32.9086995"><ele>1559.9</ele><time>2015-04-30T11:14:39.0000000+00:00</time></trkpt><trkpt lat="34.932702" lon="32.9088034"><ele>1559.8</ele><time>2015-04-30T11:14:40.0000000+00:00</time></trkpt><trkpt lat="34.9327299" lon="32.9089122"><ele>1559.3</ele><time>2015-04-30T11:14:41.0000000+00:00</time></trkpt><trkpt lat="34.9327727" lon="32.9090176"><ele>1558.5</ele><time>2015-04-30T11:14:42.0000000+00:00</time></trkpt><trkpt lat="34.9328105" lon="32.9091102"><ele>1558.1</ele><time>2015-04-30T11:14:43.0000000+00:00</time></trkpt><trkpt lat="34.9328482" lon="32.9092133"><ele>1557.5</ele><time>2015-04-30T11:14:44.0000000+00:00</time></trkpt><trkpt lat="34.9328847" lon="32.9093127"><ele>1557.1</ele><time>2015-04-30T11:14:45.0000000+00:00</time></trkpt><trkpt lat="34.9329232" lon="32.9094067"><ele>1556.9</ele><time>2015-04-30T11:14:46.0000000+00:00</time></trkpt><trkpt lat="34.9329707" lon="32.9094941"><ele>1556.4</ele><time>2015-04-30T11:14:47.0000000+00:00</time></trkpt><trkpt lat="34.933008" lon="32.9095784"><ele>1555.6</ele><time>2015-04-30T11:14:48.0000000+00:00</time></trkpt><trkpt lat="34.9330454" lon="32.9096572"><ele>1555.7</ele><time>2015-04-30T11:14:49.0000000+00:00</time></trkpt><trkpt lat="34.933066" lon="32.90973"><ele>1555.2</ele><time>2015-04-30T11:14:50.0000000+00:00</time></trkpt><trkpt lat="34.9330814" lon="32.9098001"><ele>1554.0</ele><time>2015-04-30T11:14:51.0000000+00:00</time></trkpt><trkpt lat="34.9331032" lon="32.9098617"><ele>1553.4</ele><time>2015-04-30T11:14:52.0000000+00:00</time></trkpt><trkpt lat="34.9331281" lon="32.9099537"><ele>1552.9</ele><time>2015-04-30T11:14:54.0000000+00:00</time></trkpt><trkpt lat="34.9331562" lon="32.9100139"><ele>1552.8</ele><time>2015-04-30T11:14:56.0000000+00:00</time></trkpt><trkpt lat="34.9331888" lon="32.9100613"><ele>1550.2</ele><time>2015-04-30T11:15:00.0000000+00:00</time></trkpt><trkpt lat="34.9332198" lon="32.9101042"><ele>1548.2</ele><time>2015-04-30T11:15:05.0000000+00:00</time></trkpt><trkpt lat="34.9332603" lon="32.9101601"><ele>1548.7</ele><time>2015-04-30T11:15:09.0000000+00:00</time></trkpt><trkpt lat="34.9333049" lon="32.9102067"><ele>1548.8</ele><time>2015-04-30T11:15:11.0000000+00:00</time></trkpt><trkpt lat="34.9333631" lon="32.9102625"><ele>1547.5</ele><time>2015-04-30T11:15:13.0000000+00:00</time></trkpt><trkpt lat="34.933413" lon="32.9103179"><ele>1546.2</ele><time>2015-04-30T11:15:15.0000000+00:00</time></trkpt><trkpt lat="34.9334638" lon="32.9103848"><ele>1546.9</ele><time>2015-04-30T11:15:17.0000000+00:00</time></trkpt><trkpt lat="34.9335086" lon="32.9104418"><ele>1546.8</ele><time>2015-04-30T11:15:18.0000000+00:00</time></trkpt><trkpt lat="34.933538" lon="32.910492"><ele>1546.8</ele><time>2015-04-30T11:15:19.0000000+00:00</time></trkpt><trkpt lat="34.9335796" lon="32.9105542"><ele>1546.8</ele><time>2015-04-30T11:15:20.0000000+00:00</time></trkpt><trkpt lat="34.9336141" lon="32.9106125"><ele>1547.3</ele><time>2015-04-30T11:15:21.0000000+00:00</time></trkpt><trkpt lat="34.9336458" lon="32.9106832"><ele>1547.5</ele><time>2015-04-30T11:15:22.0000000+00:00</time></trkpt><trkpt lat="34.9336708" lon="32.9107651"><ele>1547.6</ele><time>2015-04-30T11:15:23.0000000+00:00</time></trkpt><trkpt lat="34.9336986" lon="32.9108475"><ele>1546.7</ele><time>2015-04-30T11:15:24.0000000+00:00</time></trkpt><trkpt lat="34.9337204" lon="32.9109299"><ele>1546.7</ele><time>2015-04-30T11:15:25.0000000+00:00</time></trkpt><trkpt lat="34.9337334" lon="32.9110232"><ele>1546.2</ele><time>2015-04-30T11:15:26.0000000+00:00</time></trkpt><trkpt lat="34.9337385" lon="32.9111184"><ele>1545.5</ele><time>2015-04-30T11:15:27.0000000+00:00</time></trkpt><trkpt lat="34.9337489" lon="32.9112263"><ele>1545.1</ele><time>2015-04-30T11:15:28.0000000+00:00</time></trkpt><trkpt lat="34.9337466" lon="32.9113324"><ele>1544.5</ele><time>2015-04-30T11:15:29.0000000+00:00</time></trkpt><trkpt lat="34.9337302" lon="32.9114325"><ele>1543.6</ele><time>2015-04-30T11:15:30.0000000+00:00</time></trkpt><trkpt lat="34.9337009" lon="32.9115481"><ele>1543.2</ele><time>2015-04-30T11:15:31.0000000+00:00</time></trkpt><trkpt lat="34.9336603" lon="32.911657"><ele>1542.5</ele><time>2015-04-30T11:15:32.0000000+00:00</time></trkpt><trkpt lat="34.9336015" lon="32.9117584"><ele>1542.1</ele><time>2015-04-30T11:15:33.0000000+00:00</time></trkpt><trkpt lat="34.9335397" lon="32.9118482"><ele>1541.4</ele><time>2015-04-30T11:15:34.0000000+00:00</time></trkpt><trkpt lat="34.9334631" lon="32.9119305"><ele>1540.6</ele><time>2015-04-30T11:15:35.0000000+00:00</time></trkpt><trkpt lat="34.9333819" lon="32.9120261"><ele>1539.7</ele><time>2015-04-30T11:15:36.0000000+00:00</time></trkpt><trkpt lat="34.9332987" lon="32.9121195"><ele>1538.7</ele><time>2015-04-30T11:15:37.0000000+00:00</time></trkpt><trkpt lat="34.9332181" lon="32.9122272"><ele>1537.2</ele><time>2015-04-30T11:15:38.0000000+00:00</time></trkpt><trkpt lat="34.9331393" lon="32.9123248"><ele>1536.0</ele><time>2015-04-30T11:15:39.0000000+00:00</time></trkpt><trkpt lat="34.9330634" lon="32.9124174"><ele>1534.4</ele><time>2015-04-30T11:15:40.0000000+00:00</time></trkpt><trkpt lat="34.9329879" lon="32.9125004"><ele>1533.1</ele><time>2015-04-30T11:15:41.0000000+00:00</time></trkpt><trkpt lat="34.9329133" lon="32.9125919"><ele>1532.4</ele><time>2015-04-30T11:15:42.0000000+00:00</time></trkpt><trkpt lat="34.9328719" lon="32.9126758"><ele>1532.1</ele><time>2015-04-30T11:15:43.0000000+00:00</time></trkpt><trkpt lat="34.9328332" lon="32.9127752"><ele>1531.4</ele><time>2015-04-30T11:15:44.0000000+00:00</time></trkpt><trkpt lat="34.9327967" lon="32.9128736"><ele>1530.6</ele><time>2015-04-30T11:15:45.0000000+00:00</time></trkpt><trkpt lat="34.9327826" lon="32.9129811"><ele>1529.7</ele><time>2015-04-30T11:15:46.0000000+00:00</time></trkpt><trkpt lat="34.9327926" lon="32.9130851"><ele>1529.2</ele><time>2015-04-30T11:15:47.0000000+00:00</time></trkpt><trkpt lat="34.932809" lon="32.9131929"><ele>1528.0</ele><time>2015-04-30T11:15:48.0000000+00:00</time></trkpt><trkpt lat="34.9328465" lon="32.9132864"><ele>1526.9</ele><time>2015-04-30T11:15:49.0000000+00:00</time></trkpt><trkpt lat="34.9329061" lon="32.9133804"><ele>1526.3</ele><time>2015-04-30T11:15:50.0000000+00:00</time></trkpt><trkpt lat="34.9329585" lon="32.9134675"><ele>1526.0</ele><time>2015-04-30T11:15:51.0000000+00:00</time></trkpt><trkpt lat="34.9330061" lon="32.9135629"><ele>1525.4</ele><time>2015-04-30T11:15:52.0000000+00:00</time></trkpt><trkpt lat="34.9330592" lon="32.9136622"><ele>1524.1</ele><time>2015-04-30T11:15:53.0000000+00:00</time></trkpt><trkpt lat="34.9331168" lon="32.9137529"><ele>1522.9</ele><time>2015-04-30T11:15:54.0000000+00:00</time></trkpt><trkpt lat="34.9331664" lon="32.9138489"><ele>1521.8</ele><time>2015-04-30T11:15:55.0000000+00:00</time></trkpt><trkpt lat="34.933228" lon="32.913957"><ele>1521.3</ele><time>2015-04-30T11:15:56.0000000+00:00</time></trkpt><trkpt lat="34.9332789" lon="32.9140666"><ele>1520.5</ele><time>2015-04-30T11:15:57.0000000+00:00</time></trkpt><trkpt lat="34.9333078" lon="32.9141744"><ele>1520.2</ele><time>2015-04-30T11:15:58.0000000+00:00</time></trkpt><trkpt lat="34.9333146" lon="32.9142903"><ele>1519.5</ele><time>2015-04-30T11:15:59.0000000+00:00</time></trkpt><trkpt lat="34.9333038" lon="32.9144004"><ele>1518.1</ele><time>2015-04-30T11:16:00.0000000+00:00</time></trkpt><trkpt lat="34.9332749" lon="32.914512"><ele>1517.4</ele><time>2015-04-30T11:16:01.0000000+00:00</time></trkpt><trkpt lat="34.9332298" lon="32.9146127"><ele>1516.6</ele><time>2015-04-30T11:16:02.0000000+00:00</time></trkpt><trkpt lat="34.93318" lon="32.9147084"><ele>1516.2</ele><time>2015-04-30T11:16:03.0000000+00:00</time></trkpt><trkpt lat="34.9331246" lon="32.9147744"><ele>1515.0</ele><time>2015-04-30T11:16:04.0000000+00:00</time></trkpt><trkpt lat="34.9330834" lon="32.9148464"><ele>1513.9</ele><time>2015-04-30T11:16:05.0000000+00:00</time></trkpt><trkpt lat="34.9330437" lon="32.9149026"><ele>1513.3</ele><time>2015-04-30T11:16:06.0000000+00:00</time></trkpt><trkpt lat="34.9330106" lon="32.9149652"><ele>1512.5</ele><time>2015-04-30T11:16:07.0000000+00:00</time></trkpt><trkpt lat="34.9329762" lon="32.9150267"><ele>1511.7</ele><time>2015-04-30T11:16:08.0000000+00:00</time></trkpt><trkpt lat="34.9329378" lon="32.9150921"><ele>1510.7</ele><time>2015-04-30T11:16:09.0000000+00:00</time></trkpt><trkpt lat="34.9329027" lon="32.9151558"><ele>1510.2</ele><time>2015-04-30T11:16:10.0000000+00:00</time></trkpt><trkpt lat="34.9328808" lon="32.9152307"><ele>1509.5</ele><time>2015-04-30T11:16:11.0000000+00:00</time></trkpt><trkpt lat="34.9328702" lon="32.9153022"><ele>1508.6</ele><time>2015-04-30T11:16:12.0000000+00:00</time></trkpt><trkpt lat="34.9328829" lon="32.9153898"><ele>1507.7</ele><time>2015-04-30T11:16:13.0000000+00:00</time></trkpt><trkpt lat="34.9329107" lon="32.915462"><ele>1506.7</ele><time>2015-04-30T11:16:14.0000000+00:00</time></trkpt><trkpt lat="34.9329503" lon="32.9155381"><ele>1506.7</ele><time>2015-04-30T11:16:15.0000000+00:00</time></trkpt><trkpt lat="34.9330125" lon="32.9155986"><ele>1506.3</ele><time>2015-04-30T11:16:16.0000000+00:00</time></trkpt><trkpt lat="34.9330854" lon="32.9156578"><ele>1506.0</ele><time>2015-04-30T11:16:17.0000000+00:00</time></trkpt><trkpt lat="34.93316" lon="32.9157113"><ele>1504.9</ele><time>2015-04-30T11:16:18.0000000+00:00</time></trkpt><trkpt lat="34.9332392" lon="32.915771"><ele>1504.3</ele><time>2015-04-30T11:16:19.0000000+00:00</time></trkpt><trkpt lat="34.9333196" lon="32.9158324"><ele>1503.5</ele><time>2015-04-30T11:16:20.0000000+00:00</time></trkpt><trkpt lat="34.9334073" lon="32.915889"><ele>1503.2</ele><time>2015-04-30T11:16:21.0000000+00:00</time></trkpt><trkpt lat="34.9334899" lon="32.915946"><ele>1502.5</ele><time>2015-04-30T11:16:22.0000000+00:00</time></trkpt><trkpt lat="34.9335764" lon="32.9159987"><ele>1501.6</ele><time>2015-04-30T11:16:23.0000000+00:00</time></trkpt><trkpt lat="34.933662" lon="32.9160674"><ele>1501.2</ele><time>2015-04-30T11:16:24.0000000+00:00</time></trkpt><trkpt lat="34.9337456" lon="32.9161365"><ele>1500.0</ele><time>2015-04-30T11:16:25.0000000+00:00</time></trkpt><trkpt lat="34.9338361" lon="32.9162069"><ele>1498.9</ele><time>2015-04-30T11:16:26.0000000+00:00</time></trkpt><trkpt lat="34.9339175" lon="32.9162977"><ele>1497.8</ele><time>2015-04-30T11:16:27.0000000+00:00</time></trkpt><trkpt lat="34.934008" lon="32.9163854"><ele>1496.3</ele><time>2015-04-30T11:16:28.0000000+00:00</time></trkpt><trkpt lat="34.9340714" lon="32.9164806"><ele>1495.0</ele><time>2015-04-30T11:16:29.0000000+00:00</time></trkpt><trkpt lat="34.9341326" lon="32.91659"><ele>1493.9</ele><time>2015-04-30T11:16:30.0000000+00:00</time></trkpt><trkpt lat="34.9341875" lon="32.9167162"><ele>1492.3</ele><time>2015-04-30T11:16:31.0000000+00:00</time></trkpt><trkpt lat="34.9342365" lon="32.9168425"><ele>1491.0</ele><time>2015-04-30T11:16:32.0000000+00:00</time></trkpt><trkpt lat="34.9342815" lon="32.9169719"><ele>1490.4</ele><time>2015-04-30T11:16:33.0000000+00:00</time></trkpt><trkpt lat="34.9343275" lon="32.9171122"><ele>1490.1</ele><time>2015-04-30T11:16:34.0000000+00:00</time></trkpt><trkpt lat="34.9343693" lon="32.9172499"><ele>1489.4</ele><time>2015-04-30T11:16:35.0000000+00:00</time></trkpt><trkpt lat="34.9343972" lon="32.9173902"><ele>1488.1</ele><time>2015-04-30T11:16:36.0000000+00:00</time></trkpt><trkpt lat="34.9344203" lon="32.9175207"><ele>1486.9</ele><time>2015-04-30T11:16:37.0000000+00:00</time></trkpt><trkpt lat="34.934428" lon="32.9176687"><ele>1486.3</ele><time>2015-04-30T11:16:38.0000000+00:00</time></trkpt><trkpt lat="34.9344292" lon="32.9177943"><ele>1485.1</ele><time>2015-04-30T11:16:39.0000000+00:00</time></trkpt><trkpt lat="34.9344265" lon="32.9179355"><ele>1483.4</ele><time>2015-04-30T11:16:40.0000000+00:00</time></trkpt><trkpt lat="34.9344209" lon="32.9180666"><ele>1481.6</ele><time>2015-04-30T11:16:41.0000000+00:00</time></trkpt><trkpt lat="34.9344108" lon="32.9182136"><ele>1479.7</ele><time>2015-04-30T11:16:42.0000000+00:00</time></trkpt><trkpt lat="34.9343988" lon="32.9183541"><ele>1478.2</ele><time>2015-04-30T11:16:43.0000000+00:00</time></trkpt><trkpt lat="34.9343824" lon="32.9185045"><ele>1477.0</ele><time>2015-04-30T11:16:44.0000000+00:00</time></trkpt><trkpt lat="34.9343643" lon="32.9186463"><ele>1475.9</ele><time>2015-04-30T11:16:45.0000000+00:00</time></trkpt><trkpt lat="34.9343542" lon="32.9187945"><ele>1474.8</ele><time>2015-04-30T11:16:46.0000000+00:00</time></trkpt><trkpt lat="34.934341" lon="32.9189434"><ele>1472.8</ele><time>2015-04-30T11:16:47.0000000+00:00</time></trkpt><trkpt lat="34.9343152" lon="32.9190965"><ele>1471.3</ele><time>2015-04-30T11:16:48.0000000+00:00</time></trkpt><trkpt lat="34.9342821" lon="32.9192494"><ele>1470.0</ele><time>2015-04-30T11:16:49.0000000+00:00</time></trkpt><trkpt lat="34.9342483" lon="32.9194038"><ele>1468.4</ele><time>2015-04-30T11:16:50.0000000+00:00</time></trkpt><trkpt lat="34.9342145" lon="32.9195567"><ele>1466.6</ele><time>2015-04-30T11:16:51.0000000+00:00</time></trkpt><trkpt lat="34.9341654" lon="32.9197091"><ele>1464.7</ele><time>2015-04-30T11:16:52.0000000+00:00</time></trkpt><trkpt lat="34.9341039" lon="32.9198449"><ele>1463.2</ele><time>2015-04-30T11:16:53.0000000+00:00</time></trkpt><trkpt lat="34.9340368" lon="32.9199656"><ele>1461.5</ele><time>2015-04-30T11:16:54.0000000+00:00</time></trkpt><trkpt lat="34.9339621" lon="32.9200827"><ele>1459.6</ele><time>2015-04-30T11:16:55.0000000+00:00</time></trkpt><trkpt lat="34.9338652" lon="32.9201928"><ele>1457.7</ele><time>2015-04-30T11:16:56.0000000+00:00</time></trkpt><trkpt lat="34.9337672" lon="32.9202872"><ele>1456.2</ele><time>2015-04-30T11:16:57.0000000+00:00</time></trkpt><trkpt lat="34.9336561" lon="32.9203668"><ele>1455.0</ele><time>2015-04-30T11:16:58.0000000+00:00</time></trkpt><trkpt lat="34.9335416" lon="32.9204052"><ele>1452.9</ele><time>2015-04-30T11:16:59.0000000+00:00</time></trkpt><trkpt lat="34.9334149" lon="32.9204319"><ele>1450.8</ele><time>2015-04-30T11:17:00.0000000+00:00</time></trkpt><trkpt lat="34.9332942" lon="32.9204489"><ele>1449.3</ele><time>2015-04-30T11:17:01.0000000+00:00</time></trkpt><trkpt lat="34.9331629" lon="32.9204395"><ele>1448.0</ele><time>2015-04-30T11:17:02.0000000+00:00</time></trkpt><trkpt lat="34.9330416" lon="32.920406"><ele>1446.9</ele><time>2015-04-30T11:17:03.0000000+00:00</time></trkpt><trkpt lat="34.9329112" lon="32.9203488"><ele>1445.3</ele><time>2015-04-30T11:17:04.0000000+00:00</time></trkpt><trkpt lat="34.9327954" lon="32.9202758"><ele>1444.0</ele><time>2015-04-30T11:17:05.0000000+00:00</time></trkpt><trkpt lat="34.9326865" lon="32.9201882"><ele>1442.9</ele><time>2015-04-30T11:17:06.0000000+00:00</time></trkpt><trkpt lat="34.9325776" lon="32.920081"><ele>1441.8</ele><time>2015-04-30T11:17:07.0000000+00:00</time></trkpt><trkpt lat="34.9324753" lon="32.9199663"><ele>1440.3</ele><time>2015-04-30T11:17:08.0000000+00:00</time></trkpt><trkpt lat="34.9323773" lon="32.9198532"><ele>1439.0</ele><time>2015-04-30T11:17:09.0000000+00:00</time></trkpt><trkpt lat="34.9322788" lon="32.9197337"><ele>1437.9</ele><time>2015-04-30T11:17:10.0000000+00:00</time></trkpt><trkpt lat="34.9321712" lon="32.9196183"><ele>1436.3</ele><time>2015-04-30T11:17:11.0000000+00:00</time></trkpt><trkpt lat="34.9320637" lon="32.9194937"><ele>1434.5</ele><time>2015-04-30T11:17:12.0000000+00:00</time></trkpt><trkpt lat="34.9319628" lon="32.919382"><ele>1433.7</ele><time>2015-04-30T11:17:13.0000000+00:00</time></trkpt><trkpt lat="34.9318698" lon="32.9192752"><ele>1432.2</ele><time>2015-04-30T11:17:14.0000000+00:00</time></trkpt><trkpt lat="34.9317849" lon="32.9191672"><ele>1431.0</ele><time>2015-04-30T11:17:15.0000000+00:00</time></trkpt><trkpt lat="34.9316968" lon="32.9190557"><ele>1429.9</ele><time>2015-04-30T11:17:16.0000000+00:00</time></trkpt><trkpt lat="34.9316156" lon="32.9189552"><ele>1428.8</ele><time>2015-04-30T11:17:17.0000000+00:00</time></trkpt><trkpt lat="34.9315355" lon="32.9188474"><ele>1427.3</ele><time>2015-04-30T11:17:18.0000000+00:00</time></trkpt><trkpt lat="34.9314663" lon="32.9187314"><ele>1426.0</ele><time>2015-04-30T11:17:19.0000000+00:00</time></trkpt><trkpt lat="34.9313971" lon="32.9186028"><ele>1424.9</ele><time>2015-04-30T11:17:20.0000000+00:00</time></trkpt><trkpt lat="34.9313322" lon="32.9184808"><ele>1423.8</ele><time>2015-04-30T11:17:21.0000000+00:00</time></trkpt><trkpt lat="34.9312668" lon="32.9183542"><ele>1422.3</ele><time>2015-04-30T11:17:22.0000000+00:00</time></trkpt><trkpt lat="34.9312036" lon="32.9182276"><ele>1421.0</ele><time>2015-04-30T11:17:23.0000000+00:00</time></trkpt><trkpt lat="34.931146" lon="32.9180906"><ele>1419.9</ele><time>2015-04-30T11:17:24.0000000+00:00</time></trkpt><trkpt lat="34.9310974" lon="32.9179669"><ele>1419.3</ele><time>2015-04-30T11:17:25.0000000+00:00</time></trkpt><trkpt lat="34.9310607" lon="32.9178396"><ele>1418.5</ele><time>2015-04-30T11:17:26.0000000+00:00</time></trkpt><trkpt lat="34.9310376" lon="32.91771"><ele>1417.7</ele><time>2015-04-30T11:17:27.0000000+00:00</time></trkpt><trkpt lat="34.9310221" lon="32.9175756"><ele>1416.7</ele><time>2015-04-30T11:17:28.0000000+00:00</time></trkpt><trkpt lat="34.931025" lon="32.9174456"><ele>1415.7</ele><time>2015-04-30T11:17:29.0000000+00:00</time></trkpt><trkpt lat="34.9310207" lon="32.9173189"><ele>1414.8</ele><time>2015-04-30T11:17:30.0000000+00:00</time></trkpt><trkpt lat="34.931019" lon="32.9171883"><ele>1413.3</ele><time>2015-04-30T11:17:31.0000000+00:00</time></trkpt><trkpt lat="34.931024" lon="32.9170485"><ele>1412.5</ele><time>2015-04-30T11:17:32.0000000+00:00</time></trkpt><trkpt lat="34.9310265" lon="32.9169151"><ele>1411.6</ele><time>2015-04-30T11:17:33.0000000+00:00</time></trkpt><trkpt lat="34.9310326" lon="32.9167799"><ele>1410.7</ele><time>2015-04-30T11:17:34.0000000+00:00</time></trkpt><trkpt lat="34.9310279" lon="32.916642"><ele>1409.2</ele><time>2015-04-30T11:17:35.0000000+00:00</time></trkpt><trkpt lat="34.9310132" lon="32.9164952"><ele>1408.5</ele><time>2015-04-30T11:17:36.0000000+00:00</time></trkpt><trkpt lat="34.930991" lon="32.9163599"><ele>1407.1</ele><time>2015-04-30T11:17:37.0000000+00:00</time></trkpt><trkpt lat="34.9309647" lon="32.916217"><ele>1406.4</ele><time>2015-04-30T11:17:38.0000000+00:00</time></trkpt><trkpt lat="34.9309328" lon="32.9160714"><ele>1405.6</ele><time>2015-04-30T11:17:39.0000000+00:00</time></trkpt><trkpt lat="34.9309036" lon="32.9159207"><ele>1404.7</ele><time>2015-04-30T11:17:40.0000000+00:00</time></trkpt><trkpt lat="34.9308737" lon="32.9157744"><ele>1403.2</ele><time>2015-04-30T11:17:41.0000000+00:00</time></trkpt><trkpt lat="34.930843" lon="32.9156214"><ele>1402.5</ele><time>2015-04-30T11:17:42.0000000+00:00</time></trkpt><trkpt lat="34.9308066" lon="32.9154713"><ele>1401.6</ele><time>2015-04-30T11:17:43.0000000+00:00</time></trkpt><trkpt lat="34.9307808" lon="32.9153208"><ele>1400.7</ele><time>2015-04-30T11:17:44.0000000+00:00</time></trkpt><trkpt lat="34.9307631" lon="32.9151787"><ele>1399.7</ele><time>2015-04-30T11:17:45.0000000+00:00</time></trkpt><trkpt lat="34.9307527" lon="32.9150207"><ele>1398.2</ele><time>2015-04-30T11:17:46.0000000+00:00</time></trkpt><trkpt lat="34.9307445" lon="32.9148755"><ele>1397.5</ele><time>2015-04-30T11:17:47.0000000+00:00</time></trkpt><trkpt lat="34.9307412" lon="32.9147315"><ele>1396.6</ele><time>2015-04-30T11:17:48.0000000+00:00</time></trkpt><trkpt lat="34.9307401" lon="32.9146061"><ele>1396.2</ele><time>2015-04-30T11:17:49.0000000+00:00</time></trkpt><trkpt lat="34.930725" lon="32.9145024"><ele>1395.5</ele><time>2015-04-30T11:17:50.0000000+00:00</time></trkpt><trkpt lat="34.9306926" lon="32.9144167"><ele>1395.1</ele><time>2015-04-30T11:17:51.0000000+00:00</time></trkpt><trkpt lat="34.9306339" lon="32.9143654"><ele>1394.4</ele><time>2015-04-30T11:17:52.0000000+00:00</time></trkpt><trkpt lat="34.9305785" lon="32.9143515"><ele>1393.6</ele><time>2015-04-30T11:17:53.0000000+00:00</time></trkpt><trkpt lat="34.9305183" lon="32.9143743"><ele>1393.2</ele><time>2015-04-30T11:17:54.0000000+00:00</time></trkpt><trkpt lat="34.9304689" lon="32.9144113"><ele>1392.5</ele><time>2015-04-30T11:17:55.0000000+00:00</time></trkpt><trkpt lat="34.9304331" lon="32.9144596"><ele>1392.1</ele><time>2015-04-30T11:17:56.0000000+00:00</time></trkpt><trkpt lat="34.9304319" lon="32.9145576"><ele>1391.4</ele><time>2015-04-30T11:17:58.0000000+00:00</time></trkpt><trkpt lat="34.9304576" lon="32.9146563"><ele>1390.4</ele><time>2015-04-30T11:18:00.0000000+00:00</time></trkpt><trkpt lat="34.930465" lon="32.9147148"><ele>1389.6</ele><time>2015-04-30T11:18:01.0000000+00:00</time></trkpt><trkpt lat="34.9304689" lon="32.9147736"><ele>1389.2</ele><time>2015-04-30T11:18:02.0000000+00:00</time></trkpt><trkpt lat="34.930466" lon="32.9148322"><ele>1389.0</ele><time>2015-04-30T11:18:03.0000000+00:00</time></trkpt><trkpt lat="34.9304742" lon="32.9149005"><ele>1388.4</ele><time>2015-04-30T11:18:04.0000000+00:00</time></trkpt><trkpt lat="34.930488" lon="32.9149722"><ele>1388.1</ele><time>2015-04-30T11:18:05.0000000+00:00</time></trkpt><trkpt lat="34.9305046" lon="32.915046"><ele>1387.4</ele><time>2015-04-30T11:18:06.0000000+00:00</time></trkpt><trkpt lat="34.9305164" lon="32.9151235"><ele>1387.1</ele><time>2015-04-30T11:18:07.0000000+00:00</time></trkpt><trkpt lat="34.930527" lon="32.915206"><ele>1386.9</ele><time>2015-04-30T11:18:08.0000000+00:00</time></trkpt><trkpt lat="34.9305416" lon="32.9152848"><ele>1386.8</ele><time>2015-04-30T11:18:09.0000000+00:00</time></trkpt><trkpt lat="34.930552" lon="32.9153692"><ele>1386.8</ele><time>2015-04-30T11:18:10.0000000+00:00</time></trkpt><trkpt lat="34.9305616" lon="32.9154548"><ele>1386.3</ele><time>2015-04-30T11:18:11.0000000+00:00</time></trkpt><trkpt lat="34.9305727" lon="32.9155484"><ele>1386.0</ele><time>2015-04-30T11:18:12.0000000+00:00</time></trkpt><trkpt lat="34.9305939" lon="32.9156333"><ele>1385.9</ele><time>2015-04-30T11:18:13.0000000+00:00</time></trkpt><trkpt lat="34.9305993" lon="32.9157271"><ele>1384.8</ele><time>2015-04-30T11:18:14.0000000+00:00</time></trkpt><trkpt lat="34.930608" lon="32.9158247"><ele>1384.3</ele><time>2015-04-30T11:18:15.0000000+00:00</time></trkpt><trkpt lat="34.93061" lon="32.915934"><ele>1383.5</ele><time>2015-04-30T11:18:16.0000000+00:00</time></trkpt><trkpt lat="34.9306153" lon="32.9160416"><ele>1383.1</ele><time>2015-04-30T11:18:17.0000000+00:00</time></trkpt><trkpt lat="34.93061" lon="32.9161504"><ele>1382.5</ele><time>2015-04-30T11:18:18.0000000+00:00</time></trkpt><trkpt lat="34.9305956" lon="32.9162626"><ele>1381.6</ele><time>2015-04-30T11:18:19.0000000+00:00</time></trkpt><trkpt lat="34.9305794" lon="32.9163817"><ele>1381.2</ele><time>2015-04-30T11:18:20.0000000+00:00</time></trkpt><trkpt lat="34.9305652" lon="32.9164874"><ele>1380.0</ele><time>2015-04-30T11:18:21.0000000+00:00</time></trkpt><trkpt lat="34.930548" lon="32.9166066"><ele>1379.4</ele><time>2015-04-30T11:18:22.0000000+00:00</time></trkpt><trkpt lat="34.9305282" lon="32.9167252"><ele>1378.6</ele><time>2015-04-30T11:18:23.0000000+00:00</time></trkpt><trkpt lat="34.9305032" lon="32.9168593"><ele>1378.2</ele><time>2015-04-30T11:18:24.0000000+00:00</time></trkpt><trkpt lat="34.9304814" lon="32.9169783"><ele>1377.5</ele><time>2015-04-30T11:18:25.0000000+00:00</time></trkpt><trkpt lat="34.9304585" lon="32.9171038"><ele>1377.1</ele><time>2015-04-30T11:18:26.0000000+00:00</time></trkpt><trkpt lat="34.9304365" lon="32.9172274"><ele>1376.4</ele><time>2015-04-30T11:18:27.0000000+00:00</time></trkpt><trkpt lat="34.9304189" lon="32.9173593"><ele>1376.1</ele><time>2015-04-30T11:18:28.0000000+00:00</time></trkpt><trkpt lat="34.9303958" lon="32.9174909"><ele>1375.9</ele><time>2015-04-30T11:18:29.0000000+00:00</time></trkpt><trkpt lat="34.9303743" lon="32.9176134"><ele>1375.8</ele><time>2015-04-30T11:18:30.0000000+00:00</time></trkpt><trkpt lat="34.9303527" lon="32.9177428"><ele>1375.3</ele><time>2015-04-30T11:18:31.0000000+00:00</time></trkpt><trkpt lat="34.9303132" lon="32.9178755"><ele>1374.5</ele><time>2015-04-30T11:18:32.0000000+00:00</time></trkpt><trkpt lat="34.9302677" lon="32.9179972"><ele>1373.7</ele><time>2015-04-30T11:18:33.0000000+00:00</time></trkpt><trkpt lat="34.9302154" lon="32.9181198"><ele>1373.2</ele><time>2015-04-30T11:18:34.0000000+00:00</time></trkpt><trkpt lat="34.9301444" lon="32.9182336"><ele>1373.0</ele><time>2015-04-30T11:18:35.0000000+00:00</time></trkpt><trkpt lat="34.9300714" lon="32.9183299"><ele>1372.4</ele><time>2015-04-30T11:18:36.0000000+00:00</time></trkpt><trkpt lat="34.9299908" lon="32.9184154"><ele>1372.1</ele><time>2015-04-30T11:18:37.0000000+00:00</time></trkpt><trkpt lat="34.9299003" lon="32.9185008"><ele>1371.4</ele><time>2015-04-30T11:18:38.0000000+00:00</time></trkpt><trkpt lat="34.929807" lon="32.918584"><ele>1371.1</ele><time>2015-04-30T11:18:39.0000000+00:00</time></trkpt><trkpt lat="34.9297126" lon="32.918676"><ele>1370.4</ele><time>2015-04-30T11:18:40.0000000+00:00</time></trkpt><trkpt lat="34.9296282" lon="32.9187753"><ele>1370.1</ele><time>2015-04-30T11:18:41.0000000+00:00</time></trkpt><trkpt lat="34.9295458" lon="32.9188737"><ele>1369.4</ele><time>2015-04-30T11:18:42.0000000+00:00</time></trkpt><trkpt lat="34.9294769" lon="32.9189844"><ele>1368.6</ele><time>2015-04-30T11:18:43.0000000+00:00</time></trkpt><trkpt lat="34.9294267" lon="32.9191141"><ele>1368.2</ele><time>2015-04-30T11:18:44.0000000+00:00</time></trkpt><trkpt lat="34.9293994" lon="32.9192405"><ele>1367.0</ele><time>2015-04-30T11:18:45.0000000+00:00</time></trkpt><trkpt lat="34.9293874" lon="32.9193878"><ele>1366.4</ele><time>2015-04-30T11:18:46.0000000+00:00</time></trkpt><trkpt lat="34.92938" lon="32.9195384"><ele>1365.6</ele><time>2015-04-30T11:18:47.0000000+00:00</time></trkpt><trkpt lat="34.929393" lon="32.9196932"><ele>1364.7</ele><time>2015-04-30T11:18:48.0000000+00:00</time></trkpt><trkpt lat="34.9294055" lon="32.9198393"><ele>1363.7</ele><time>2015-04-30T11:18:49.0000000+00:00</time></trkpt><trkpt lat="34.929421" lon="32.9199976"><ele>1362.7</ele><time>2015-04-30T11:18:50.0000000+00:00</time></trkpt><trkpt lat="34.929438" lon="32.9201572"><ele>1361.8</ele><time>2015-04-30T11:18:51.0000000+00:00</time></trkpt><trkpt lat="34.92945" lon="32.9203225"><ele>1360.8</ele><time>2015-04-30T11:18:52.0000000+00:00</time></trkpt><trkpt lat="34.9294595" lon="32.9204842"><ele>1359.8</ele><time>2015-04-30T11:18:53.0000000+00:00</time></trkpt><trkpt lat="34.9294673" lon="32.9206459"><ele>1358.3</ele><time>2015-04-30T11:18:54.0000000+00:00</time></trkpt><trkpt lat="34.9294747" lon="32.9208066"><ele>1357.0</ele><time>2015-04-30T11:18:55.0000000+00:00</time></trkpt><trkpt lat="34.9294791" lon="32.9209627"><ele>1355.9</ele><time>2015-04-30T11:18:56.0000000+00:00</time></trkpt><trkpt lat="34.9294635" lon="32.921102"><ele>1354.8</ele><time>2015-04-30T11:18:57.0000000+00:00</time></trkpt><trkpt lat="34.9294347" lon="32.9212271"><ele>1353.8</ele><time>2015-04-30T11:18:58.0000000+00:00</time></trkpt><trkpt lat="34.9293888" lon="32.9213446"><ele>1352.8</ele><time>2015-04-30T11:18:59.0000000+00:00</time></trkpt><trkpt lat="34.92933" lon="32.9214697"><ele>1351.8</ele><time>2015-04-30T11:19:00.0000000+00:00</time></trkpt><trkpt lat="34.9292876" lon="32.9215837"><ele>1350.8</ele><time>2015-04-30T11:19:01.0000000+00:00</time></trkpt><trkpt lat="34.9292393" lon="32.9216899"><ele>1349.8</ele><time>2015-04-30T11:19:02.0000000+00:00</time></trkpt><trkpt lat="34.9292106" lon="32.9217833"><ele>1348.8</ele><time>2015-04-30T11:19:03.0000000+00:00</time></trkpt><trkpt lat="34.9291853" lon="32.9218843"><ele>1347.8</ele><time>2015-04-30T11:19:04.0000000+00:00</time></trkpt><trkpt lat="34.9291845" lon="32.9219795"><ele>1346.8</ele><time>2015-04-30T11:19:05.0000000+00:00</time></trkpt><trkpt lat="34.9292063" lon="32.9220824"><ele>1345.8</ele><time>2015-04-30T11:19:06.0000000+00:00</time></trkpt><trkpt lat="34.9292456" lon="32.9221856"><ele>1344.8</ele><time>2015-04-30T11:19:07.0000000+00:00</time></trkpt><trkpt lat="34.9292909" lon="32.9222888"><ele>1343.8</ele><time>2015-04-30T11:19:08.0000000+00:00</time></trkpt><trkpt lat="34.9293352" lon="32.9223893"><ele>1342.8</ele><time>2015-04-30T11:19:09.0000000+00:00</time></trkpt><trkpt lat="34.9293719" lon="32.9225037"><ele>1341.8</ele><time>2015-04-30T11:19:10.0000000+00:00</time></trkpt><trkpt lat="34.9294078" lon="32.9226265"><ele>1340.8</ele><time>2015-04-30T11:19:11.0000000+00:00</time></trkpt><trkpt lat="34.9294247" lon="32.9227596"><ele>1339.8</ele><time>2015-04-30T11:19:12.0000000+00:00</time></trkpt><trkpt lat="34.9294369" lon="32.9228873"><ele>1338.8</ele><time>2015-04-30T11:19:13.0000000+00:00</time></trkpt><trkpt lat="34.9294365" lon="32.9230207"><ele>1337.8</ele><time>2015-04-30T11:19:14.0000000+00:00</time></trkpt><trkpt lat="34.9294295" lon="32.9231568"><ele>1336.8</ele><time>2015-04-30T11:19:15.0000000+00:00</time></trkpt><trkpt lat="34.9294152" lon="32.9233007"><ele>1335.8</ele><time>2015-04-30T11:19:16.0000000+00:00</time></trkpt><trkpt lat="34.9294033" lon="32.9234352"><ele>1335.3</ele><time>2015-04-30T11:19:17.0000000+00:00</time></trkpt><trkpt lat="34.9293974" lon="32.9235777"><ele>1334.5</ele><time>2015-04-30T11:19:18.0000000+00:00</time></trkpt><trkpt lat="34.9293937" lon="32.9237265"><ele>1333.6</ele><time>2015-04-30T11:19:19.0000000+00:00</time></trkpt><trkpt lat="34.9293968" lon="32.9238841"><ele>1332.7</ele><time>2015-04-30T11:19:20.0000000+00:00</time></trkpt><trkpt lat="34.9294079" lon="32.9240258"><ele>1331.7</ele><time>2015-04-30T11:19:21.0000000+00:00</time></trkpt><trkpt lat="34.9294452" lon="32.924169"><ele>1330.2</ele><time>2015-04-30T11:19:22.0000000+00:00</time></trkpt><trkpt lat="34.9294978" lon="32.9243003"><ele>1329.5</ele><time>2015-04-30T11:19:23.0000000+00:00</time></trkpt><trkpt lat="34.9295727" lon="32.9244133"><ele>1328.6</ele><time>2015-04-30T11:19:24.0000000+00:00</time></trkpt><trkpt lat="34.9296608" lon="32.9244953"><ele>1327.7</ele><time>2015-04-30T11:19:25.0000000+00:00</time></trkpt><trkpt lat="34.9297592" lon="32.9245553"><ele>1327.2</ele><time>2015-04-30T11:19:26.0000000+00:00</time></trkpt><trkpt lat="34.9298728" lon="32.9245885"><ele>1326.5</ele><time>2015-04-30T11:19:27.0000000+00:00</time></trkpt><trkpt lat="34.9299831" lon="32.9246079"><ele>1326.1</ele><time>2015-04-30T11:19:28.0000000+00:00</time></trkpt><trkpt lat="34.9300815" lon="32.9245713"><ele>1325.9</ele><time>2015-04-30T11:19:29.0000000+00:00</time></trkpt><trkpt lat="34.9301895" lon="32.9245357"><ele>1325.4</ele><time>2015-04-30T11:19:30.0000000+00:00</time></trkpt><trkpt lat="34.9302882" lon="32.9245049"><ele>1325.1</ele><time>2015-04-30T11:19:31.0000000+00:00</time></trkpt><trkpt lat="34.9303891" lon="32.9244792"><ele>1324.4</ele><time>2015-04-30T11:19:32.0000000+00:00</time></trkpt><trkpt lat="34.9304824" lon="32.9244586"><ele>1324.1</ele><time>2015-04-30T11:19:33.0000000+00:00</time></trkpt><trkpt lat="34.9305791" lon="32.9244326"><ele>1323.4</ele><time>2015-04-30T11:19:34.0000000+00:00</time></trkpt><trkpt lat="34.9306801" lon="32.9244038"><ele>1323.1</ele><time>2015-04-30T11:19:35.0000000+00:00</time></trkpt><trkpt lat="34.9307796" lon="32.9243753"><ele>1322.4</ele><time>2015-04-30T11:19:36.0000000+00:00</time></trkpt><trkpt lat="34.9308719" lon="32.9243617"><ele>1322.1</ele><time>2015-04-30T11:19:37.0000000+00:00</time></trkpt><trkpt lat="34.9309797" lon="32.9243542"><ele>1321.4</ele><time>2015-04-30T11:19:38.0000000+00:00</time></trkpt><trkpt lat="34.9310758" lon="32.9243569"><ele>1320.6</ele><time>2015-04-30T11:19:39.0000000+00:00</time></trkpt><trkpt lat="34.9311748" lon="32.9243731"><ele>1320.2</ele><time>2015-04-30T11:19:40.0000000+00:00</time></trkpt><trkpt lat="34.9312684" lon="32.9243957"><ele>1319.5</ele><time>2015-04-30T11:19:41.0000000+00:00</time></trkpt><trkpt lat="34.9313515" lon="32.9244124"><ele>1318.6</ele><time>2015-04-30T11:19:42.0000000+00:00</time></trkpt><trkpt lat="34.9314561" lon="32.9244184"><ele>1317.7</ele><time>2015-04-30T11:19:43.0000000+00:00</time></trkpt><trkpt lat="34.9315697" lon="32.9244235"><ele>1317.2</ele><time>2015-04-30T11:19:44.0000000+00:00</time></trkpt><trkpt lat="34.9316625" lon="32.9244366"><ele>1316.5</ele><time>2015-04-30T11:19:45.0000000+00:00</time></trkpt><trkpt lat="34.9317692" lon="32.9244572"><ele>1316.1</ele><time>2015-04-30T11:19:46.0000000+00:00</time></trkpt><trkpt lat="34.9318746" lon="32.9244716"><ele>1315.9</ele><time>2015-04-30T11:19:47.0000000+00:00</time></trkpt><trkpt lat="34.9319749" lon="32.9244832"><ele>1315.4</ele><time>2015-04-30T11:19:48.0000000+00:00</time></trkpt><trkpt lat="34.9320631" lon="32.9244971"><ele>1314.6</ele><time>2015-04-30T11:19:49.0000000+00:00</time></trkpt><trkpt lat="34.9321541" lon="32.9245149"><ele>1313.7</ele><time>2015-04-30T11:19:50.0000000+00:00</time></trkpt><trkpt lat="34.9322467" lon="32.9245245"><ele>1312.2</ele><time>2015-04-30T11:19:51.0000000+00:00</time></trkpt><trkpt lat="34.9323459" lon="32.9245303"><ele>1311.0</ele><time>2015-04-30T11:19:52.0000000+00:00</time></trkpt><trkpt lat="34.9324485" lon="32.9245469"><ele>1309.9</ele><time>2015-04-30T11:19:53.0000000+00:00</time></trkpt><trkpt lat="34.9325553" lon="32.9245642"><ele>1308.8</ele><time>2015-04-30T11:19:54.0000000+00:00</time></trkpt><trkpt lat="34.9326655" lon="32.9245571"><ele>1307.3</ele><time>2015-04-30T11:19:55.0000000+00:00</time></trkpt><trkpt lat="34.9327895" lon="32.9245762"><ele>1306.0</ele><time>2015-04-30T11:19:56.0000000+00:00</time></trkpt><trkpt lat="34.9328975" lon="32.9245957"><ele>1304.9</ele><time>2015-04-30T11:19:57.0000000+00:00</time></trkpt><trkpt lat="34.9330141" lon="32.9246193"><ele>1303.8</ele><time>2015-04-30T11:19:58.0000000+00:00</time></trkpt><trkpt lat="34.9331217" lon="32.9246678"><ele>1302.3</ele><time>2015-04-30T11:19:59.0000000+00:00</time></trkpt><trkpt lat="34.9332406" lon="32.9247161"><ele>1301.0</ele><time>2015-04-30T11:20:00.0000000+00:00</time></trkpt><trkpt lat="34.9333529" lon="32.9247778"><ele>1299.9</ele><time>2015-04-30T11:20:01.0000000+00:00</time></trkpt><trkpt lat="34.9334558" lon="32.9248629"><ele>1298.8</ele><time>2015-04-30T11:20:02.0000000+00:00</time></trkpt><trkpt lat="34.9335584" lon="32.9249524"><ele>1297.8</ele><time>2015-04-30T11:20:03.0000000+00:00</time></trkpt><trkpt lat="34.9336637" lon="32.9250589"><ele>1296.3</ele><time>2015-04-30T11:20:04.0000000+00:00</time></trkpt><trkpt lat="34.9337507" lon="32.9251675"><ele>1295.5</ele><time>2015-04-30T11:20:05.0000000+00:00</time></trkpt><trkpt lat="34.9338336" lon="32.9252945"><ele>1294.1</ele><time>2015-04-30T11:20:06.0000000+00:00</time></trkpt><trkpt lat="34.9339111" lon="32.9254107"><ele>1293.0</ele><time>2015-04-30T11:20:07.0000000+00:00</time></trkpt><trkpt lat="34.9339889" lon="32.9255351"><ele>1292.4</ele><time>2015-04-30T11:20:08.0000000+00:00</time></trkpt><trkpt lat="34.9340584" lon="32.9256497"><ele>1292.1</ele><time>2015-04-30T11:20:09.0000000+00:00</time></trkpt><trkpt lat="34.9341268" lon="32.925761"><ele>1291.4</ele><time>2015-04-30T11:20:10.0000000+00:00</time></trkpt><trkpt lat="34.9341962" lon="32.925872"><ele>1290.6</ele><time>2015-04-30T11:20:11.0000000+00:00</time></trkpt><trkpt lat="34.9342716" lon="32.9259738"><ele>1289.7</ele><time>2015-04-30T11:20:12.0000000+00:00</time></trkpt><trkpt lat="34.934338" lon="32.9260687"><ele>1288.7</ele><time>2015-04-30T11:20:13.0000000+00:00</time></trkpt><trkpt lat="34.934415" lon="32.9261663"><ele>1288.2</ele><time>2015-04-30T11:20:14.0000000+00:00</time></trkpt><trkpt lat="34.9344982" lon="32.9262601"><ele>1287.0</ele><time>2015-04-30T11:20:15.0000000+00:00</time></trkpt><trkpt lat="34.9345734" lon="32.9263653"><ele>1285.9</ele><time>2015-04-30T11:20:16.0000000+00:00</time></trkpt><trkpt lat="34.9346412" lon="32.9264594"><ele>1284.8</ele><time>2015-04-30T11:20:17.0000000+00:00</time></trkpt><trkpt lat="34.9347185" lon="32.9265557"><ele>1283.8</ele><time>2015-04-30T11:20:18.0000000+00:00</time></trkpt><trkpt lat="34.9347961" lon="32.9266617"><ele>1282.8</ele><time>2015-04-30T11:20:19.0000000+00:00</time></trkpt><trkpt lat="34.9348625" lon="32.9267665"><ele>1282.3</ele><time>2015-04-30T11:20:20.0000000+00:00</time></trkpt><trkpt lat="34.9349202" lon="32.9268734"><ele>1281.5</ele><time>2015-04-30T11:20:21.0000000+00:00</time></trkpt><trkpt lat="34.9349688" lon="32.9269855"><ele>1280.6</ele><time>2015-04-30T11:20:22.0000000+00:00</time></trkpt><trkpt lat="34.9350078" lon="32.927102"><ele>1279.2</ele><time>2015-04-30T11:20:23.0000000+00:00</time></trkpt><trkpt lat="34.9350428" lon="32.9272222"><ele>1278.0</ele><time>2015-04-30T11:20:24.0000000+00:00</time></trkpt><trkpt lat="34.9350583" lon="32.9273373"><ele>1276.4</ele><time>2015-04-30T11:20:25.0000000+00:00</time></trkpt><trkpt lat="34.9350599" lon="32.9274621"><ele>1275.6</ele><time>2015-04-30T11:20:26.0000000+00:00</time></trkpt><trkpt lat="34.9350674" lon="32.9275854"><ele>1275.2</ele><time>2015-04-30T11:20:27.0000000+00:00</time></trkpt><trkpt lat="34.9350846" lon="32.9277113"><ele>1274.0</ele><time>2015-04-30T11:20:28.0000000+00:00</time></trkpt><trkpt lat="34.935097" lon="32.927817"><ele>1273.9</ele><time>2015-04-30T11:20:29.0000000+00:00</time></trkpt><trkpt lat="34.9351335" lon="32.9279237"><ele>1273.3</ele><time>2015-04-30T11:20:30.0000000+00:00</time></trkpt><trkpt lat="34.9351843" lon="32.9280034"><ele>1272.5</ele><time>2015-04-30T11:20:31.0000000+00:00</time></trkpt><trkpt lat="34.9352318" lon="32.9280811"><ele>1271.7</ele><time>2015-04-30T11:20:32.0000000+00:00</time></trkpt><trkpt lat="34.9352985" lon="32.9280978"><ele>1270.7</ele><time>2015-04-30T11:20:33.0000000+00:00</time></trkpt><trkpt lat="34.935378" lon="32.9281064"><ele>1269.7</ele><time>2015-04-30T11:20:34.0000000+00:00</time></trkpt><trkpt lat="34.9354528" lon="32.9280942"><ele>1268.8</ele><time>2015-04-30T11:20:35.0000000+00:00</time></trkpt><trkpt lat="34.9355232" lon="32.9280641"><ele>1268.3</ele><time>2015-04-30T11:20:36.0000000+00:00</time></trkpt><trkpt lat="34.9355681" lon="32.9280227"><ele>1268.0</ele><time>2015-04-30T11:20:37.0000000+00:00</time></trkpt><trkpt lat="34.9355906" lon="32.9279687"><ele>1267.9</ele><time>2015-04-30T11:20:38.0000000+00:00</time></trkpt><trkpt lat="34.935615" lon="32.9279072"><ele>1267.3</ele><time>2015-04-30T11:20:39.0000000+00:00</time></trkpt><trkpt lat="34.935637" lon="32.927841"><ele>1267.0</ele><time>2015-04-30T11:20:40.0000000+00:00</time></trkpt><trkpt lat="34.9356656" lon="32.927774"><ele>1266.4</ele><time>2015-04-30T11:20:41.0000000+00:00</time></trkpt><trkpt lat="34.93568" lon="32.9276971"><ele>1265.6</ele><time>2015-04-30T11:20:42.0000000+00:00</time></trkpt><trkpt lat="34.9356909" lon="32.927618"><ele>1265.2</ele><time>2015-04-30T11:20:43.0000000+00:00</time></trkpt><trkpt lat="34.9357153" lon="32.9275256"><ele>1264.5</ele><time>2015-04-30T11:20:44.0000000+00:00</time></trkpt><trkpt lat="34.9357426" lon="32.9274306"><ele>1263.6</ele><time>2015-04-30T11:20:45.0000000+00:00</time></trkpt><trkpt lat="34.9357602" lon="32.9273383"><ele>1262.7</ele><time>2015-04-30T11:20:46.0000000+00:00</time></trkpt><trkpt lat="34.9357837" lon="32.9272524"><ele>1261.7</ele><time>2015-04-30T11:20:47.0000000+00:00</time></trkpt><trkpt lat="34.9358242" lon="32.9271981"><ele>1261.2</ele><time>2015-04-30T11:20:48.0000000+00:00</time></trkpt><trkpt lat="34.9358586" lon="32.9271606"><ele>1261.0</ele><time>2015-04-30T11:20:49.0000000+00:00</time></trkpt><trkpt lat="34.9359061" lon="32.9271227"><ele>1260.4</ele><time>2015-04-30T11:20:50.0000000+00:00</time></trkpt><trkpt lat="34.9359513" lon="32.9270911"><ele>1259.6</ele><time>2015-04-30T11:20:51.0000000+00:00</time></trkpt><trkpt lat="34.9359908" lon="32.9270542"><ele>1259.2</ele><time>2015-04-30T11:20:52.0000000+00:00</time></trkpt><trkpt lat="34.9360415" lon="32.9270212"><ele>1259.0</ele><time>2015-04-30T11:20:53.0000000+00:00</time></trkpt><trkpt lat="34.9361031" lon="32.9269972"><ele>1258.4</ele><time>2015-04-30T11:20:54.0000000+00:00</time></trkpt><trkpt lat="34.9361611" lon="32.9269718"><ele>1258.1</ele><time>2015-04-30T11:20:55.0000000+00:00</time></trkpt><trkpt lat="34.9362415" lon="32.9269427"><ele>1257.9</ele><time>2015-04-30T11:20:56.0000000+00:00</time></trkpt><trkpt lat="34.936314" lon="32.9269271"><ele>1258.3</ele><time>2015-04-30T11:20:57.0000000+00:00</time></trkpt><trkpt lat="34.9364065" lon="32.9269311"><ele>1259.6</ele><time>2015-04-30T11:20:58.0000000+00:00</time></trkpt><trkpt lat="34.9364994" lon="32.9269426"><ele>1259.7</ele><time>2015-04-30T11:20:59.0000000+00:00</time></trkpt><trkpt lat="34.9365979" lon="32.9269606"><ele>1259.7</ele><time>2015-04-30T11:21:00.0000000+00:00</time></trkpt><trkpt lat="34.9366682" lon="32.9269879"><ele>1258.7</ele><time>2015-04-30T11:21:01.0000000+00:00</time></trkpt><trkpt lat="34.9367471" lon="32.9270287"><ele>1257.8</ele><time>2015-04-30T11:21:02.0000000+00:00</time></trkpt><trkpt lat="34.9368179" lon="32.927073"><ele>1257.3</ele><time>2015-04-30T11:21:03.0000000+00:00</time></trkpt><trkpt lat="34.9368756" lon="32.9271296"><ele>1256.0</ele><time>2015-04-30T11:21:04.0000000+00:00</time></trkpt><trkpt lat="34.9369306" lon="32.9271789"><ele>1255.4</ele><time>2015-04-30T11:21:05.0000000+00:00</time></trkpt><trkpt lat="34.9369902" lon="32.9272216"><ele>1254.6</ele><time>2015-04-30T11:21:06.0000000+00:00</time></trkpt><trkpt lat="34.9370456" lon="32.9272641"><ele>1254.2</ele><time>2015-04-30T11:21:07.0000000+00:00</time></trkpt><trkpt lat="34.9370843" lon="32.9273106"><ele>1253.0</ele><time>2015-04-30T11:21:08.0000000+00:00</time></trkpt><trkpt lat="34.9371131" lon="32.927361"><ele>1252.4</ele><time>2015-04-30T11:21:09.0000000+00:00</time></trkpt><trkpt lat="34.9371493" lon="32.9274192"><ele>1252.6</ele><time>2015-04-30T11:21:10.0000000+00:00</time></trkpt><trkpt lat="34.9371899" lon="32.9274647"><ele>1252.7</ele><time>2015-04-30T11:21:11.0000000+00:00</time></trkpt><trkpt lat="34.937217" lon="32.9275138"><ele>1252.7</ele><time>2015-04-30T11:21:12.0000000+00:00</time></trkpt><trkpt lat="34.9372782" lon="32.927615"><ele>1252.3</ele><time>2015-04-30T11:21:14.0000000+00:00</time></trkpt><trkpt lat="34.9373145" lon="32.927669"><ele>1251.5</ele><time>2015-04-30T11:21:15.0000000+00:00</time></trkpt><trkpt lat="34.9373666" lon="32.9277203"><ele>1250.6</ele><time>2015-04-30T11:21:16.0000000+00:00</time></trkpt><trkpt lat="34.9374161" lon="32.9277692"><ele>1249.7</ele><time>2015-04-30T11:21:17.0000000+00:00</time></trkpt><trkpt lat="34.9374756" lon="32.927815"><ele>1248.7</ele><time>2015-04-30T11:21:18.0000000+00:00</time></trkpt><trkpt lat="34.937539" lon="32.9278508"><ele>1248.2</ele><time>2015-04-30T11:21:19.0000000+00:00</time></trkpt><trkpt lat="34.9376061" lon="32.9278826"><ele>1248.0</ele><time>2015-04-30T11:21:20.0000000+00:00</time></trkpt><trkpt lat="34.9376796" lon="32.9279031"><ele>1247.4</ele><time>2015-04-30T11:21:21.0000000+00:00</time></trkpt><trkpt lat="34.937746" lon="32.9279188"><ele>1247.1</ele><time>2015-04-30T11:21:22.0000000+00:00</time></trkpt><trkpt lat="34.9378221" lon="32.9279045"><ele>1246.4</ele><time>2015-04-30T11:21:23.0000000+00:00</time></trkpt><trkpt lat="34.9378955" lon="32.9278952"><ele>1246.1</ele><time>2015-04-30T11:21:24.0000000+00:00</time></trkpt><trkpt lat="34.937961" lon="32.9278703"><ele>1245.4</ele><time>2015-04-30T11:21:25.0000000+00:00</time></trkpt><trkpt lat="34.9380245" lon="32.9278311"><ele>1244.6</ele><time>2015-04-30T11:21:26.0000000+00:00</time></trkpt><trkpt lat="34.9380944" lon="32.927782"><ele>1244.2</ele><time>2015-04-30T11:21:27.0000000+00:00</time></trkpt><trkpt lat="34.9381661" lon="32.9277268"><ele>1243.0</ele><time>2015-04-30T11:21:28.0000000+00:00</time></trkpt><trkpt lat="34.9382349" lon="32.9276832"><ele>1242.4</ele><time>2015-04-30T11:21:29.0000000+00:00</time></trkpt><trkpt lat="34.9383057" lon="32.9276361"><ele>1241.1</ele><time>2015-04-30T11:21:30.0000000+00:00</time></trkpt><trkpt lat="34.9383722" lon="32.9275999"><ele>1240.4</ele><time>2015-04-30T11:21:31.0000000+00:00</time></trkpt><trkpt lat="34.9384394" lon="32.9275761"><ele>1239.6</ele><time>2015-04-30T11:21:32.0000000+00:00</time></trkpt><trkpt lat="34.9385069" lon="32.927567"><ele>1239.2</ele><time>2015-04-30T11:21:33.0000000+00:00</time></trkpt><trkpt lat="34.9385758" lon="32.9275464"><ele>1238.5</ele><time>2015-04-30T11:21:34.0000000+00:00</time></trkpt><trkpt lat="34.9386486" lon="32.9275368"><ele>1237.6</ele><time>2015-04-30T11:21:35.0000000+00:00</time></trkpt><trkpt lat="34.9387274" lon="32.9275384"><ele>1236.7</ele><time>2015-04-30T11:21:36.0000000+00:00</time></trkpt><trkpt lat="34.938796" lon="32.927547"><ele>1235.7</ele><time>2015-04-30T11:21:37.0000000+00:00</time></trkpt><trkpt lat="34.9388661" lon="32.9275664"><ele>1234.7</ele><time>2015-04-30T11:21:38.0000000+00:00</time></trkpt><trkpt lat="34.9389363" lon="32.9276023"><ele>1233.8</ele><time>2015-04-30T11:21:39.0000000+00:00</time></trkpt><trkpt lat="34.9390036" lon="32.9276403"><ele>1232.8</ele><time>2015-04-30T11:21:40.0000000+00:00</time></trkpt><trkpt lat="34.9390634" lon="32.9276883"><ele>1232.3</ele><time>2015-04-30T11:21:41.0000000+00:00</time></trkpt><trkpt lat="34.9391212" lon="32.9277466"><ele>1231.5</ele><time>2015-04-30T11:21:42.0000000+00:00</time></trkpt><trkpt lat="34.9391744" lon="32.9278145"><ele>1230.6</ele><time>2015-04-30T11:21:43.0000000+00:00</time></trkpt><trkpt lat="34.9392264" lon="32.9278936"><ele>1230.2</ele><time>2015-04-30T11:21:44.0000000+00:00</time></trkpt><trkpt lat="34.9392793" lon="32.9279666"><ele>1229.5</ele><time>2015-04-30T11:21:45.0000000+00:00</time></trkpt><trkpt lat="34.9393372" lon="32.92804"><ele>1229.1</ele><time>2015-04-30T11:21:46.0000000+00:00</time></trkpt><trkpt lat="34.9393917" lon="32.9281024"><ele>1228.9</ele><time>2015-04-30T11:21:47.0000000+00:00</time></trkpt><trkpt lat="34.9394441" lon="32.9281647"><ele>1228.4</ele><time>2015-04-30T11:21:48.0000000+00:00</time></trkpt><trkpt lat="34.9394937" lon="32.928222"><ele>1227.6</ele><time>2015-04-30T11:21:49.0000000+00:00</time></trkpt><trkpt lat="34.9395416" lon="32.9282621"><ele>1227.2</ele><time>2015-04-30T11:21:50.0000000+00:00</time></trkpt><trkpt lat="34.9395922" lon="32.9282989"><ele>1226.5</ele><time>2015-04-30T11:21:51.0000000+00:00</time></trkpt><trkpt lat="34.9396492" lon="32.9283355"><ele>1226.1</ele><time>2015-04-30T11:21:52.0000000+00:00</time></trkpt><trkpt lat="34.9397044" lon="32.928358"><ele>1225.4</ele><time>2015-04-30T11:21:53.0000000+00:00</time></trkpt><trkpt lat="34.9397631" lon="32.9283742"><ele>1224.6</ele><time>2015-04-30T11:21:54.0000000+00:00</time></trkpt><trkpt lat="34.9398245" lon="32.9283802"><ele>1224.2</ele><time>2015-04-30T11:21:55.0000000+00:00</time></trkpt><trkpt lat="34.9398896" lon="32.9283766"><ele>1224.0</ele><time>2015-04-30T11:21:56.0000000+00:00</time></trkpt><trkpt lat="34.9399412" lon="32.92837"><ele>1223.9</ele><time>2015-04-30T11:21:57.0000000+00:00</time></trkpt><trkpt lat="34.9399975" lon="32.9283542"><ele>1223.8</ele><time>2015-04-30T11:21:58.0000000+00:00</time></trkpt><trkpt lat="34.940058" lon="32.9283218"><ele>1223.3</ele><time>2015-04-30T11:21:59.0000000+00:00</time></trkpt><trkpt lat="34.9401203" lon="32.9282874"><ele>1223.0</ele><time>2015-04-30T11:22:00.0000000+00:00</time></trkpt><trkpt lat="34.9401818" lon="32.9282387"><ele>1221.9</ele><time>2015-04-30T11:22:01.0000000+00:00</time></trkpt><trkpt lat="34.9402493" lon="32.928184"><ele>1221.3</ele><time>2015-04-30T11:22:02.0000000+00:00</time></trkpt><trkpt lat="34.9403184" lon="32.9281362"><ele>1220.5</ele><time>2015-04-30T11:22:03.0000000+00:00</time></trkpt><trkpt lat="34.9403896" lon="32.9280773"><ele>1220.2</ele><time>2015-04-30T11:22:04.0000000+00:00</time></trkpt><trkpt lat="34.9404512" lon="32.9280286"><ele>1219.5</ele><time>2015-04-30T11:22:05.0000000+00:00</time></trkpt><trkpt lat="34.9405214" lon="32.9279768"><ele>1218.6</ele><time>2015-04-30T11:22:06.0000000+00:00</time></trkpt><trkpt lat="34.9405966" lon="32.9279404"><ele>1217.7</ele><time>2015-04-30T11:22:07.0000000+00:00</time></trkpt><trkpt lat="34.9406702" lon="32.9279224"><ele>1217.2</ele><time>2015-04-30T11:22:08.0000000+00:00</time></trkpt><trkpt lat="34.9407424" lon="32.9279109"><ele>1216.5</ele><time>2015-04-30T11:22:09.0000000+00:00</time></trkpt><trkpt lat="34.9408171" lon="32.9279206"><ele>1216.1</ele><time>2015-04-30T11:22:10.0000000+00:00</time></trkpt><trkpt lat="34.9408932" lon="32.9279424"><ele>1214.9</ele><time>2015-04-30T11:22:11.0000000+00:00</time></trkpt><trkpt lat="34.9409648" lon="32.9279779"><ele>1213.9</ele><time>2015-04-30T11:22:12.0000000+00:00</time></trkpt><trkpt lat="34.9410216" lon="32.9280284"><ele>1213.3</ele><time>2015-04-30T11:22:13.0000000+00:00</time></trkpt><trkpt lat="34.941078" lon="32.9280887"><ele>1212.0</ele><time>2015-04-30T11:22:14.0000000+00:00</time></trkpt><trkpt lat="34.9411159" lon="32.928146"><ele>1210.9</ele><time>2015-04-30T11:22:15.0000000+00:00</time></trkpt><trkpt lat="34.94115" lon="32.9282148"><ele>1209.8</ele><time>2015-04-30T11:22:16.0000000+00:00</time></trkpt><trkpt lat="34.9411818" lon="32.9282889"><ele>1209.3</ele><time>2015-04-30T11:22:17.0000000+00:00</time></trkpt><trkpt lat="34.9412064" lon="32.9283739"><ele>1209.0</ele><time>2015-04-30T11:22:18.0000000+00:00</time></trkpt><trkpt lat="34.9412172" lon="32.928462"><ele>1208.4</ele><time>2015-04-30T11:22:19.0000000+00:00</time></trkpt><trkpt lat="34.9412266" lon="32.9285481"><ele>1208.1</ele><time>2015-04-30T11:22:20.0000000+00:00</time></trkpt><trkpt lat="34.9412236" lon="32.9286284"><ele>1207.4</ele><time>2015-04-30T11:22:21.0000000+00:00</time></trkpt><trkpt lat="34.9412287" lon="32.9287137"><ele>1207.1</ele><time>2015-04-30T11:22:22.0000000+00:00</time></trkpt><trkpt lat="34.9412279" lon="32.9287938"><ele>1206.4</ele><time>2015-04-30T11:22:23.0000000+00:00</time></trkpt><trkpt lat="34.9412259" lon="32.9288752"><ele>1206.1</ele><time>2015-04-30T11:22:24.0000000+00:00</time></trkpt><trkpt lat="34.9412233" lon="32.928951"><ele>1205.9</ele><time>2015-04-30T11:22:25.0000000+00:00</time></trkpt><trkpt lat="34.9412281" lon="32.9290321"><ele>1205.3</ele><time>2015-04-30T11:22:26.0000000+00:00</time></trkpt><trkpt lat="34.9412377" lon="32.9291096"><ele>1204.6</ele><time>2015-04-30T11:22:27.0000000+00:00</time></trkpt><trkpt lat="34.9412541" lon="32.9291895"><ele>1203.7</ele><time>2015-04-30T11:22:28.0000000+00:00</time></trkpt><trkpt lat="34.9412683" lon="32.9292492"><ele>1202.7</ele><time>2015-04-30T11:22:29.0000000+00:00</time></trkpt><trkpt lat="34.9412981" lon="32.9293143"><ele>1201.7</ele><time>2015-04-30T11:22:30.0000000+00:00</time></trkpt><trkpt lat="34.9413328" lon="32.9293842"><ele>1200.8</ele><time>2015-04-30T11:22:31.0000000+00:00</time></trkpt><trkpt lat="34.9413692" lon="32.9294557"><ele>1199.3</ele><time>2015-04-30T11:22:32.0000000+00:00</time></trkpt><trkpt lat="34.941413" lon="32.9295144"><ele>1198.5</ele><time>2015-04-30T11:22:33.0000000+00:00</time></trkpt><trkpt lat="34.9414629" lon="32.9295706"><ele>1198.1</ele><time>2015-04-30T11:22:34.0000000+00:00</time></trkpt><trkpt lat="34.941527" lon="32.9296289"><ele>1197.5</ele><time>2015-04-30T11:22:35.0000000+00:00</time></trkpt><trkpt lat="34.9415878" lon="32.9296933"><ele>1197.6</ele><time>2015-04-30T11:22:36.0000000+00:00</time></trkpt><trkpt lat="34.9416434" lon="32.9297464"><ele>1196.7</ele><time>2015-04-30T11:22:37.0000000+00:00</time></trkpt><trkpt lat="34.9416933" lon="32.9298003"><ele>1196.2</ele><time>2015-04-30T11:22:38.0000000+00:00</time></trkpt><trkpt lat="34.9417481" lon="32.9298544"><ele>1196.0</ele><time>2015-04-30T11:22:39.0000000+00:00</time></trkpt><trkpt lat="34.9418096" lon="32.9299082"><ele>1196.4</ele><time>2015-04-30T11:22:40.0000000+00:00</time></trkpt><trkpt lat="34.9418622" lon="32.9299641"><ele>1196.1</ele><time>2015-04-30T11:22:41.0000000+00:00</time></trkpt><trkpt lat="34.9419196" lon="32.9300162"><ele>1195.9</ele><time>2015-04-30T11:22:42.0000000+00:00</time></trkpt><trkpt lat="34.9419761" lon="32.9300745"><ele>1195.3</ele><time>2015-04-30T11:22:43.0000000+00:00</time></trkpt><trkpt lat="34.9420353" lon="32.9301265"><ele>1195.1</ele><time>2015-04-30T11:22:44.0000000+00:00</time></trkpt><trkpt lat="34.9420839" lon="32.9301684"><ele>1194.4</ele><time>2015-04-30T11:22:45.0000000+00:00</time></trkpt><trkpt lat="34.942132" lon="32.9302098"><ele>1194.1</ele><time>2015-04-30T11:22:46.0000000+00:00</time></trkpt><trkpt lat="34.9421756" lon="32.9302423"><ele>1193.4</ele><time>2015-04-30T11:22:47.0000000+00:00</time></trkpt><trkpt lat="34.9422222" lon="32.9302781"><ele>1192.6</ele><time>2015-04-30T11:22:48.0000000+00:00</time></trkpt><trkpt lat="34.9422761" lon="32.9303435"><ele>1191.5</ele><time>2015-04-30T11:22:50.0000000+00:00</time></trkpt><trkpt lat="34.9423301" lon="32.9303898"><ele>1190.2</ele><time>2015-04-30T11:22:52.0000000+00:00</time></trkpt><trkpt lat="34.9423749" lon="32.9304339"><ele>1189.9</ele><time>2015-04-30T11:22:54.0000000+00:00</time></trkpt><trkpt lat="34.9423988" lon="32.9304836"><ele>1189.8</ele><time>2015-04-30T11:22:56.0000000+00:00</time></trkpt><trkpt lat="34.9423788" lon="32.9305586"><ele>1189.8</ele><time>2015-04-30T11:22:59.0000000+00:00</time></trkpt><trkpt lat="34.9423334" lon="32.930594"><ele>1190.0</ele><time>2015-04-30T11:23:01.0000000+00:00</time></trkpt><trkpt lat="34.942276" lon="32.9306062"><ele>1189.8</ele><time>2015-04-30T11:23:03.0000000+00:00</time></trkpt><trkpt lat="34.9422141" lon="32.9305954"><ele>1189.8</ele><time>2015-04-30T11:23:05.0000000+00:00</time></trkpt><trkpt lat="34.9421415" lon="32.9305816"><ele>1189.0</ele><time>2015-04-30T11:23:07.0000000+00:00</time></trkpt><trkpt lat="34.9420422" lon="32.930576"><ele>1188.3</ele><time>2015-04-30T11:23:09.0000000+00:00</time></trkpt><trkpt lat="34.941956" lon="32.9305705"><ele>1188.5</ele><time>2015-04-30T11:23:10.0000000+00:00</time></trkpt><trkpt lat="34.9418968" lon="32.9305654"><ele>1189.2</ele><time>2015-04-30T11:23:11.0000000+00:00</time></trkpt><trkpt lat="34.9418371" lon="32.930575"><ele>1189.5</ele><time>2015-04-30T11:23:12.0000000+00:00</time></trkpt><trkpt lat="34.941763" lon="32.9305738"><ele>1189.6</ele><time>2015-04-30T11:23:13.0000000+00:00</time></trkpt><trkpt lat="34.9416724" lon="32.9305676"><ele>1189.2</ele><time>2015-04-30T11:23:14.0000000+00:00</time></trkpt><trkpt lat="34.9415531" lon="32.9305807"><ele>1188.0</ele><time>2015-04-30T11:23:15.0000000+00:00</time></trkpt><trkpt lat="34.9414762" lon="32.9306136"><ele>1186.9</ele><time>2015-04-30T11:23:16.0000000+00:00</time></trkpt><trkpt lat="34.9413825" lon="32.9306368"><ele>1186.3</ele><time>2015-04-30T11:23:17.0000000+00:00</time></trkpt><trkpt lat="34.9412818" lon="32.9306649"><ele>1186.0</ele><time>2015-04-30T11:23:18.0000000+00:00</time></trkpt><trkpt lat="34.9411979" lon="32.9307038"><ele>1184.4</ele><time>2015-04-30T11:23:19.0000000+00:00</time></trkpt><trkpt lat="34.941085" lon="32.93074"><ele>1183.1</ele><time>2015-04-30T11:23:20.0000000+00:00</time></trkpt><trkpt lat="34.9409842" lon="32.9307774"><ele>1182.4</ele><time>2015-04-30T11:23:21.0000000+00:00</time></trkpt><trkpt lat="34.940882" lon="32.9308249"><ele>1181.6</ele><time>2015-04-30T11:23:22.0000000+00:00</time></trkpt><trkpt lat="34.940783" lon="32.9308798"><ele>1180.7</ele><time>2015-04-30T11:23:23.0000000+00:00</time></trkpt><trkpt lat="34.9406788" lon="32.930928"><ele>1179.7</ele><time>2015-04-30T11:23:24.0000000+00:00</time></trkpt><trkpt lat="34.9405938" lon="32.9309901"><ele>1178.7</ele><time>2015-04-30T11:23:25.0000000+00:00</time></trkpt><trkpt lat="34.9405194" lon="32.9310056"><ele>1178.3</ele><time>2015-04-30T11:23:26.0000000+00:00</time></trkpt><trkpt lat="34.9404579" lon="32.9310394"><ele>1177.5</ele><time>2015-04-30T11:23:27.0000000+00:00</time></trkpt><trkpt lat="34.9403783" lon="32.9310812"><ele>1176.5</ele><time>2015-04-30T11:23:29.0000000+00:00</time></trkpt><trkpt lat="34.9403197" lon="32.9311101"><ele>1176.6</ele><time>2015-04-30T11:23:30.0000000+00:00</time></trkpt><trkpt lat="34.9402634" lon="32.9311378"><ele>1176.2</ele><time>2015-04-30T11:23:31.0000000+00:00</time></trkpt><trkpt lat="34.9401955" lon="32.9311701"><ele>1175.5</ele><time>2015-04-30T11:23:32.0000000+00:00</time></trkpt><trkpt lat="34.9401323" lon="32.9312045"><ele>1175.1</ele><time>2015-04-30T11:23:33.0000000+00:00</time></trkpt><trkpt lat="34.9400595" lon="32.9312448"><ele>1174.4</ele><time>2015-04-30T11:23:34.0000000+00:00</time></trkpt><trkpt lat="34.939985" lon="32.9312793"><ele>1174.1</ele><time>2015-04-30T11:23:35.0000000+00:00</time></trkpt><trkpt lat="34.9398966" lon="32.9313228"><ele>1173.4</ele><time>2015-04-30T11:23:36.0000000+00:00</time></trkpt><trkpt lat="34.9398091" lon="32.9313651"><ele>1173.1</ele><time>2015-04-30T11:23:37.0000000+00:00</time></trkpt><trkpt lat="34.9397284" lon="32.9314128"><ele>1172.4</ele><time>2015-04-30T11:23:38.0000000+00:00</time></trkpt><trkpt lat="34.9396385" lon="32.9314558"><ele>1172.1</ele><time>2015-04-30T11:23:39.0000000+00:00</time></trkpt><trkpt lat="34.9395458" lon="32.9315099"><ele>1171.4</ele><time>2015-04-30T11:23:40.0000000+00:00</time></trkpt><trkpt lat="34.9394448" lon="32.9315522"><ele>1170.6</ele><time>2015-04-30T11:23:41.0000000+00:00</time></trkpt><trkpt lat="34.9393488" lon="32.9315995"><ele>1169.7</ele><time>2015-04-30T11:23:42.0000000+00:00</time></trkpt><trkpt lat="34.939241" lon="32.931641"><ele>1168.7</ele><time>2015-04-30T11:23:43.0000000+00:00</time></trkpt><trkpt lat="34.9391208" lon="32.9316819"><ele>1167.7</ele><time>2015-04-30T11:23:44.0000000+00:00</time></trkpt><trkpt lat="34.939009" lon="32.9317236"><ele>1166.8</ele><time>2015-04-30T11:23:45.0000000+00:00</time></trkpt><trkpt lat="34.9388846" lon="32.9317632"><ele>1165.8</ele><time>2015-04-30T11:23:46.0000000+00:00</time></trkpt><trkpt lat="34.9387562" lon="32.9317965"><ele>1164.8</ele><time>2015-04-30T11:23:47.0000000+00:00</time></trkpt><trkpt lat="34.9386254" lon="32.9318407"><ele>1163.3</ele><time>2015-04-30T11:23:48.0000000+00:00</time></trkpt><trkpt lat="34.938501" lon="32.931892"><ele>1162.0</ele><time>2015-04-30T11:23:49.0000000+00:00</time></trkpt><trkpt lat="34.9383764" lon="32.9319414"><ele>1160.9</ele><time>2015-04-30T11:23:50.0000000+00:00</time></trkpt><trkpt lat="34.9382466" lon="32.9319893"><ele>1160.3</ele><time>2015-04-30T11:23:51.0000000+00:00</time></trkpt><trkpt lat="34.9381132" lon="32.9320491"><ele>1159.0</ele><time>2015-04-30T11:23:52.0000000+00:00</time></trkpt><trkpt lat="34.9379779" lon="32.9320947"><ele>1157.9</ele><time>2015-04-30T11:23:53.0000000+00:00</time></trkpt><trkpt lat="34.9378272" lon="32.9321389"><ele>1155.8</ele><time>2015-04-30T11:23:54.0000000+00:00</time></trkpt><trkpt lat="34.9376765" lon="32.9321875"><ele>1154.3</ele><time>2015-04-30T11:23:55.0000000+00:00</time></trkpt><trkpt lat="34.9375263" lon="32.9322441"><ele>1152.5</ele><time>2015-04-30T11:23:56.0000000+00:00</time></trkpt><trkpt lat="34.9373841" lon="32.9322904"><ele>1150.6</ele><time>2015-04-30T11:23:57.0000000+00:00</time></trkpt><trkpt lat="34.9372349" lon="32.9323444"><ele>1149.2</ele><time>2015-04-30T11:23:58.0000000+00:00</time></trkpt><trkpt lat="34.9370787" lon="32.9323891"><ele>1148.5</ele><time>2015-04-30T11:23:59.0000000+00:00</time></trkpt><trkpt lat="34.9369238" lon="32.9324368"><ele>1147.6</ele><time>2015-04-30T11:24:00.0000000+00:00</time></trkpt><trkpt lat="34.9367777" lon="32.9324873"><ele>1146.7</ele><time>2015-04-30T11:24:01.0000000+00:00</time></trkpt><trkpt lat="34.9366262" lon="32.9325331"><ele>1145.7</ele><time>2015-04-30T11:24:02.0000000+00:00</time></trkpt><trkpt lat="34.9364783" lon="32.9325756"><ele>1144.2</ele><time>2015-04-30T11:24:03.0000000+00:00</time></trkpt><trkpt lat="34.9363306" lon="32.9326284"><ele>1143.0</ele><time>2015-04-30T11:24:04.0000000+00:00</time></trkpt><trkpt lat="34.9361951" lon="32.9326745"><ele>1141.9</ele><time>2015-04-30T11:24:05.0000000+00:00</time></trkpt><trkpt lat="34.9360699" lon="32.932727"><ele>1140.8</ele><time>2015-04-30T11:24:06.0000000+00:00</time></trkpt><trkpt lat="34.9359476" lon="32.9327694"><ele>1138.8</ele><time>2015-04-30T11:24:07.0000000+00:00</time></trkpt><trkpt lat="34.9358169" lon="32.9328104"><ele>1136.8</ele><time>2015-04-30T11:24:08.0000000+00:00</time></trkpt><trkpt lat="34.9356969" lon="32.9328464"><ele>1134.3</ele><time>2015-04-30T11:24:09.0000000+00:00</time></trkpt><trkpt lat="34.9355814" lon="32.9328911"><ele>1132.5</ele><time>2015-04-30T11:24:10.0000000+00:00</time></trkpt><trkpt lat="34.9354622" lon="32.9329193"><ele>1130.6</ele><time>2015-04-30T11:24:11.0000000+00:00</time></trkpt><trkpt lat="34.9353381" lon="32.9329366"><ele>1129.2</ele><time>2015-04-30T11:24:12.0000000+00:00</time></trkpt><trkpt lat="34.9352283" lon="32.9329451"><ele>1127.5</ele><time>2015-04-30T11:24:13.0000000+00:00</time></trkpt><trkpt lat="34.9351145" lon="32.9329459"><ele>1126.1</ele><time>2015-04-30T11:24:14.0000000+00:00</time></trkpt><trkpt lat="34.9350128" lon="32.9329414"><ele>1124.9</ele><time>2015-04-30T11:24:15.0000000+00:00</time></trkpt><trkpt lat="34.9348963" lon="32.9329314"><ele>1123.4</ele><time>2015-04-30T11:24:16.0000000+00:00</time></trkpt><trkpt lat="34.9347864" lon="32.9329268"><ele>1122.1</ele><time>2015-04-30T11:24:17.0000000+00:00</time></trkpt><trkpt lat="34.9346704" lon="32.9329094"><ele>1120.9</ele><time>2015-04-30T11:24:18.0000000+00:00</time></trkpt><trkpt lat="34.9345586" lon="32.9328957"><ele>1119.8</ele><time>2015-04-30T11:24:19.0000000+00:00</time></trkpt><trkpt lat="34.9344382" lon="32.9328996"><ele>1118.8</ele><time>2015-04-30T11:24:20.0000000+00:00</time></trkpt><trkpt lat="34.934326" lon="32.9329219"><ele>1117.3</ele><time>2015-04-30T11:24:21.0000000+00:00</time></trkpt><trkpt lat="34.9342088" lon="32.9329539"><ele>1116.0</ele><time>2015-04-30T11:24:22.0000000+00:00</time></trkpt><trkpt lat="34.9340878" lon="32.9329999"><ele>1114.9</ele><time>2015-04-30T11:24:23.0000000+00:00</time></trkpt><trkpt lat="34.9339693" lon="32.9330587"><ele>1113.8</ele><time>2015-04-30T11:24:24.0000000+00:00</time></trkpt><trkpt lat="34.9338568" lon="32.9331306"><ele>1112.8</ele><time>2015-04-30T11:24:25.0000000+00:00</time></trkpt><trkpt lat="34.9337504" lon="32.933218"><ele>1111.8</ele><time>2015-04-30T11:24:26.0000000+00:00</time></trkpt><trkpt lat="34.9336455" lon="32.9333084"><ele>1110.8</ele><time>2015-04-30T11:24:27.0000000+00:00</time></trkpt><trkpt lat="34.9335388" lon="32.9334119"><ele>1109.8</ele><time>2015-04-30T11:24:28.0000000+00:00</time></trkpt><trkpt lat="34.9334395" lon="32.9335104"><ele>1109.3</ele><time>2015-04-30T11:24:29.0000000+00:00</time></trkpt><trkpt lat="34.9333418" lon="32.9336199"><ele>1108.0</ele><time>2015-04-30T11:24:30.0000000+00:00</time></trkpt><trkpt lat="34.9332533" lon="32.933725"><ele>1106.9</ele><time>2015-04-30T11:24:31.0000000+00:00</time></trkpt><trkpt lat="34.9331537" lon="32.9338257"><ele>1105.8</ele><time>2015-04-30T11:24:32.0000000+00:00</time></trkpt><trkpt lat="34.9330616" lon="32.9339151"><ele>1104.8</ele><time>2015-04-30T11:24:33.0000000+00:00</time></trkpt><trkpt lat="34.9329665" lon="32.9340142"><ele>1103.8</ele><time>2015-04-30T11:24:34.0000000+00:00</time></trkpt><trkpt lat="34.9328673" lon="32.934115"><ele>1102.8</ele><time>2015-04-30T11:24:35.0000000+00:00</time></trkpt><trkpt lat="34.9327565" lon="32.934219"><ele>1101.8</ele><time>2015-04-30T11:24:36.0000000+00:00</time></trkpt><trkpt lat="34.9326578" lon="32.9343172"><ele>1100.8</ele><time>2015-04-30T11:24:37.0000000+00:00</time></trkpt><trkpt lat="34.9325546" lon="32.9344195"><ele>1099.8</ele><time>2015-04-30T11:24:38.0000000+00:00</time></trkpt><trkpt lat="34.9324501" lon="32.934521"><ele>1099.3</ele><time>2015-04-30T11:24:39.0000000+00:00</time></trkpt><trkpt lat="34.9323326" lon="32.934615"><ele>1098.5</ele><time>2015-04-30T11:24:40.0000000+00:00</time></trkpt><trkpt lat="34.9322212" lon="32.9346951"><ele>1097.6</ele><time>2015-04-30T11:24:41.0000000+00:00</time></trkpt><trkpt lat="34.9321058" lon="32.9347729"><ele>1096.2</ele><time>2015-04-30T11:24:42.0000000+00:00</time></trkpt><trkpt lat="34.9319932" lon="32.9348472"><ele>1095.0</ele><time>2015-04-30T11:24:43.0000000+00:00</time></trkpt><trkpt lat="34.9318764" lon="32.9349174"><ele>1094.4</ele><time>2015-04-30T11:24:44.0000000+00:00</time></trkpt><trkpt lat="34.9317625" lon="32.9349761"><ele>1093.6</ele><time>2015-04-30T11:24:45.0000000+00:00</time></trkpt><trkpt lat="34.9316601" lon="32.935036"><ele>1092.7</ele><time>2015-04-30T11:24:46.0000000+00:00</time></trkpt><trkpt lat="34.9315582" lon="32.9350774"><ele>1091.2</ele><time>2015-04-30T11:24:47.0000000+00:00</time></trkpt><trkpt lat="34.9314499" lon="32.9351238"><ele>1090.0</ele><time>2015-04-30T11:24:48.0000000+00:00</time></trkpt><trkpt lat="34.9313484" lon="32.9351634"><ele>1088.9</ele><time>2015-04-30T11:24:49.0000000+00:00</time></trkpt><trkpt lat="34.9312433" lon="32.9352029"><ele>1088.3</ele><time>2015-04-30T11:24:50.0000000+00:00</time></trkpt><trkpt lat="34.9311372" lon="32.9352295"><ele>1087.5</ele><time>2015-04-30T11:24:51.0000000+00:00</time></trkpt><trkpt lat="34.9310216" lon="32.9352598"><ele>1086.7</ele><time>2015-04-30T11:24:52.0000000+00:00</time></trkpt><trkpt lat="34.9309194" lon="32.9352843"><ele>1085.7</ele><time>2015-04-30T11:24:53.0000000+00:00</time></trkpt><trkpt lat="34.9308182" lon="32.9353107"><ele>1084.7</ele><time>2015-04-30T11:24:54.0000000+00:00</time></trkpt><trkpt lat="34.930711" lon="32.9353256"><ele>1083.8</ele><time>2015-04-30T11:24:55.0000000+00:00</time></trkpt><trkpt lat="34.9306081" lon="32.9353367"><ele>1082.8</ele><time>2015-04-30T11:24:56.0000000+00:00</time></trkpt><trkpt lat="34.9305112" lon="32.9353484"><ele>1081.8</ele><time>2015-04-30T11:24:57.0000000+00:00</time></trkpt><trkpt lat="34.9304031" lon="32.9353538"><ele>1081.3</ele><time>2015-04-30T11:24:58.0000000+00:00</time></trkpt><trkpt lat="34.930308" lon="32.9353536"><ele>1081.0</ele><time>2015-04-30T11:24:59.0000000+00:00</time></trkpt><trkpt lat="34.9301934" lon="32.9353586"><ele>1080.4</ele><time>2015-04-30T11:25:00.0000000+00:00</time></trkpt><trkpt lat="34.9300924" lon="32.9353578"><ele>1079.1</ele><time>2015-04-30T11:25:01.0000000+00:00</time></trkpt><trkpt lat="34.9299772" lon="32.9353547"><ele>1077.9</ele><time>2015-04-30T11:25:02.0000000+00:00</time></trkpt><trkpt lat="34.9298611" lon="32.9353593"><ele>1076.8</ele><time>2015-04-30T11:25:03.0000000+00:00</time></trkpt><trkpt lat="34.9297391" lon="32.9353549"><ele>1075.8</ele><time>2015-04-30T11:25:04.0000000+00:00</time></trkpt><trkpt lat="34.9296276" lon="32.9353459"><ele>1074.8</ele><time>2015-04-30T11:25:05.0000000+00:00</time></trkpt><trkpt lat="34.9295211" lon="32.9353272"><ele>1073.8</ele><time>2015-04-30T11:25:06.0000000+00:00</time></trkpt><trkpt lat="34.9294194" lon="32.9353144"><ele>1072.8</ele><time>2015-04-30T11:25:07.0000000+00:00</time></trkpt><trkpt lat="34.9293196" lon="32.9352949"><ele>1071.8</ele><time>2015-04-30T11:25:08.0000000+00:00</time></trkpt><trkpt lat="34.9292242" lon="32.9352722"><ele>1070.8</ele><time>2015-04-30T11:25:09.0000000+00:00</time></trkpt><trkpt lat="34.9291192" lon="32.9352511"><ele>1069.3</ele><time>2015-04-30T11:25:10.0000000+00:00</time></trkpt><trkpt lat="34.9290177" lon="32.9352301"><ele>1068.0</ele><time>2015-04-30T11:25:11.0000000+00:00</time></trkpt><trkpt lat="34.9289072" lon="32.9352012"><ele>1067.4</ele><time>2015-04-30T11:25:12.0000000+00:00</time></trkpt><trkpt lat="34.9288046" lon="32.9351652"><ele>1066.6</ele><time>2015-04-30T11:25:13.0000000+00:00</time></trkpt><trkpt lat="34.928692" lon="32.9351243"><ele>1065.7</ele><time>2015-04-30T11:25:14.0000000+00:00</time></trkpt><trkpt lat="34.9285818" lon="32.9350682"><ele>1064.7</ele><time>2015-04-30T11:25:15.0000000+00:00</time></trkpt><trkpt lat="34.9284666" lon="32.9350073"><ele>1063.7</ele><time>2015-04-30T11:25:16.0000000+00:00</time></trkpt><trkpt lat="34.928359" lon="32.9349508"><ele>1062.8</ele><time>2015-04-30T11:25:17.0000000+00:00</time></trkpt><trkpt lat="34.928246" lon="32.9348859"><ele>1061.8</ele><time>2015-04-30T11:25:18.0000000+00:00</time></trkpt><trkpt lat="34.928129" lon="32.9348205"><ele>1061.3</ele><time>2015-04-30T11:25:19.0000000+00:00</time></trkpt><trkpt lat="34.9280057" lon="32.9347576"><ele>1060.5</ele><time>2015-04-30T11:25:20.0000000+00:00</time></trkpt><trkpt lat="34.9278831" lon="32.9347114"><ele>1060.1</ele><time>2015-04-30T11:25:21.0000000+00:00</time></trkpt><trkpt lat="34.9277562" lon="32.9346622"><ele>1059.5</ele><time>2015-04-30T11:25:22.0000000+00:00</time></trkpt><trkpt lat="34.9276218" lon="32.9346294"><ele>1058.6</ele><time>2015-04-30T11:25:23.0000000+00:00</time></trkpt><trkpt lat="34.9274972" lon="32.9346043"><ele>1058.2</ele><time>2015-04-30T11:25:24.0000000+00:00</time></trkpt><trkpt lat="34.9273652" lon="32.9345812"><ele>1057.0</ele><time>2015-04-30T11:25:25.0000000+00:00</time></trkpt><trkpt lat="34.9272298" lon="32.9345657"><ele>1055.9</ele><time>2015-04-30T11:25:26.0000000+00:00</time></trkpt><trkpt lat="34.927099" lon="32.9345449"><ele>1054.8</ele><time>2015-04-30T11:25:27.0000000+00:00</time></trkpt><trkpt lat="34.9269686" lon="32.9345343"><ele>1054.3</ele><time>2015-04-30T11:25:28.0000000+00:00</time></trkpt><trkpt lat="34.9268388" lon="32.9345195"><ele>1054.0</ele><time>2015-04-30T11:25:29.0000000+00:00</time></trkpt><trkpt lat="34.9267004" lon="32.9344977"><ele>1052.9</ele><time>2015-04-30T11:25:30.0000000+00:00</time></trkpt><trkpt lat="34.9265618" lon="32.9344698"><ele>1051.8</ele><time>2015-04-30T11:25:31.0000000+00:00</time></trkpt><trkpt lat="34.926417" lon="32.9344562"><ele>1050.8</ele><time>2015-04-30T11:25:32.0000000+00:00</time></trkpt><trkpt lat="34.9262838" lon="32.934454"><ele>1049.8</ele><time>2015-04-30T11:25:33.0000000+00:00</time></trkpt><trkpt lat="34.9261611" lon="32.9344652"><ele>1048.8</ele><time>2015-04-30T11:25:34.0000000+00:00</time></trkpt><trkpt lat="34.9260272" lon="32.9344926"><ele>1047.8</ele><time>2015-04-30T11:25:35.0000000+00:00</time></trkpt><trkpt lat="34.9258977" lon="32.934521"><ele>1046.8</ele><time>2015-04-30T11:25:36.0000000+00:00</time></trkpt><trkpt lat="34.9257808" lon="32.9345563"><ele>1045.8</ele><time>2015-04-30T11:25:37.0000000+00:00</time></trkpt><trkpt lat="34.9256525" lon="32.9345875"><ele>1044.3</ele><time>2015-04-30T11:25:38.0000000+00:00</time></trkpt><trkpt lat="34.9255316" lon="32.9346243"><ele>1042.0</ele><time>2015-04-30T11:25:39.0000000+00:00</time></trkpt><trkpt lat="34.925399" lon="32.9346564"><ele>1040.4</ele><time>2015-04-30T11:25:40.0000000+00:00</time></trkpt><trkpt lat="34.9252729" lon="32.9346938"><ele>1039.1</ele><time>2015-04-30T11:25:41.0000000+00:00</time></trkpt><trkpt lat="34.9251397" lon="32.9347345"><ele>1037.4</ele><time>2015-04-30T11:25:42.0000000+00:00</time></trkpt><trkpt lat="34.925011" lon="32.9347829"><ele>1036.1</ele><time>2015-04-30T11:25:43.0000000+00:00</time></trkpt><trkpt lat="34.924877" lon="32.9348372"><ele>1034.4</ele><time>2015-04-30T11:25:44.0000000+00:00</time></trkpt><trkpt lat="34.924746" lon="32.9348847"><ele>1032.6</ele><time>2015-04-30T11:25:45.0000000+00:00</time></trkpt><trkpt lat="34.9246086" lon="32.9349496"><ele>1031.2</ele><time>2015-04-30T11:25:46.0000000+00:00</time></trkpt><trkpt lat="34.9244674" lon="32.9350164"><ele>1030.0</ele><time>2015-04-30T11:25:47.0000000+00:00</time></trkpt><trkpt lat="34.9243164" lon="32.9350762"><ele>1028.4</ele><time>2015-04-30T11:25:48.0000000+00:00</time></trkpt><trkpt lat="34.9241733" lon="32.9351327"><ele>1027.1</ele><time>2015-04-30T11:25:49.0000000+00:00</time></trkpt><trkpt lat="34.9240345" lon="32.935195"><ele>1025.9</ele><time>2015-04-30T11:25:50.0000000+00:00</time></trkpt><trkpt lat="34.9239011" lon="32.9352585"><ele>1024.8</ele><time>2015-04-30T11:25:51.0000000+00:00</time></trkpt><trkpt lat="34.92376" lon="32.9353225"><ele>1023.3</ele><time>2015-04-30T11:25:52.0000000+00:00</time></trkpt><trkpt lat="34.9236244" lon="32.9353824"><ele>1021.5</ele><time>2015-04-30T11:25:53.0000000+00:00</time></trkpt><trkpt lat="34.9234887" lon="32.935455"><ele>1020.6</ele><time>2015-04-30T11:25:54.0000000+00:00</time></trkpt><trkpt lat="34.9233569" lon="32.9355295"><ele>1019.7</ele><time>2015-04-30T11:25:55.0000000+00:00</time></trkpt><trkpt lat="34.9232285" lon="32.9356173"><ele>1018.7</ele><time>2015-04-30T11:25:56.0000000+00:00</time></trkpt><trkpt lat="34.9231252" lon="32.935718"><ele>1017.3</ele><time>2015-04-30T11:25:57.0000000+00:00</time></trkpt><trkpt lat="34.9230315" lon="32.9358278"><ele>1016.0</ele><time>2015-04-30T11:25:58.0000000+00:00</time></trkpt><trkpt lat="34.9229356" lon="32.9359466"><ele>1014.4</ele><time>2015-04-30T11:25:59.0000000+00:00</time></trkpt><trkpt lat="34.9228419" lon="32.9360514"><ele>1013.1</ele><time>2015-04-30T11:26:00.0000000+00:00</time></trkpt><trkpt lat="34.9227449" lon="32.9361404"><ele>1011.9</ele><time>2015-04-30T11:26:01.0000000+00:00</time></trkpt><trkpt lat="34.9226486" lon="32.936213"><ele>1010.8</ele><time>2015-04-30T11:26:02.0000000+00:00</time></trkpt><trkpt lat="34.9225384" lon="32.9362606"><ele>1009.8</ele><time>2015-04-30T11:26:03.0000000+00:00</time></trkpt><trkpt lat="34.9224124" lon="32.9362851"><ele>1008.3</ele><time>2015-04-30T11:26:04.0000000+00:00</time></trkpt><trkpt lat="34.9222973" lon="32.936308"><ele>1007.5</ele><time>2015-04-30T11:26:05.0000000+00:00</time></trkpt><trkpt lat="34.9221753" lon="32.9362603"><ele>1006.6</ele><time>2015-04-30T11:26:06.0000000+00:00</time></trkpt><trkpt lat="34.9220449" lon="32.9362156"><ele>1005.7</ele><time>2015-04-30T11:26:07.0000000+00:00</time></trkpt><trkpt lat="34.9219203" lon="32.9361479"><ele>1004.7</ele><time>2015-04-30T11:26:08.0000000+00:00</time></trkpt><trkpt lat="34.9218005" lon="32.936082"><ele>1003.7</ele><time>2015-04-30T11:26:09.0000000+00:00</time></trkpt><trkpt lat="34.9216709" lon="32.9360184"><ele>1002.8</ele><time>2015-04-30T11:26:10.0000000+00:00</time></trkpt><trkpt lat="34.9215429" lon="32.9359594"><ele>1001.8</ele><time>2015-04-30T11:26:11.0000000+00:00</time></trkpt><trkpt lat="34.9214152" lon="32.9359054"><ele>1000.8</ele><time>2015-04-30T11:26:12.0000000+00:00</time></trkpt><trkpt lat="34.9213045" lon="32.9358658"><ele>999.8</ele><time>2015-04-30T11:26:13.0000000+00:00</time></trkpt><trkpt lat="34.9211974" lon="32.935836"><ele>998.8</ele><time>2015-04-30T11:26:14.0000000+00:00</time></trkpt><trkpt lat="34.9211045" lon="32.9358138"><ele>997.8</ele><time>2015-04-30T11:26:15.0000000+00:00</time></trkpt><trkpt lat="34.9210152" lon="32.9358055"><ele>997.3</ele><time>2015-04-30T11:26:16.0000000+00:00</time></trkpt><trkpt lat="34.9209377" lon="32.935801"><ele>996.5</ele><time>2015-04-30T11:26:17.0000000+00:00</time></trkpt><trkpt lat="34.9208601" lon="32.9357961"><ele>996.1</ele><time>2015-04-30T11:26:18.0000000+00:00</time></trkpt><trkpt lat="34.9207995" lon="32.935777"><ele>995.0</ele><time>2015-04-30T11:26:19.0000000+00:00</time></trkpt><trkpt lat="34.9207421" lon="32.9357439"><ele>993.4</ele><time>2015-04-30T11:26:20.0000000+00:00</time></trkpt><trkpt lat="34.9207059" lon="32.9357034"><ele>992.1</ele><time>2015-04-30T11:26:21.0000000+00:00</time></trkpt><trkpt lat="34.9206739" lon="32.9356432"><ele>991.4</ele><time>2015-04-30T11:26:22.0000000+00:00</time></trkpt><trkpt lat="34.9206505" lon="32.9355689"><ele>990.6</ele><time>2015-04-30T11:26:23.0000000+00:00</time></trkpt><trkpt lat="34.9206374" lon="32.9354854"><ele>989.7</ele><time>2015-04-30T11:26:24.0000000+00:00</time></trkpt><trkpt lat="34.920632" lon="32.9353954"><ele>989.2</ele><time>2015-04-30T11:26:25.0000000+00:00</time></trkpt><trkpt lat="34.9206208" lon="32.9353099"><ele>988.5</ele><time>2015-04-30T11:26:26.0000000+00:00</time></trkpt><trkpt lat="34.9206111" lon="32.9352184"><ele>988.1</ele><time>2015-04-30T11:26:27.0000000+00:00</time></trkpt><trkpt lat="34.9205953" lon="32.9351259"><ele>987.9</ele><time>2015-04-30T11:26:28.0000000+00:00</time></trkpt><trkpt lat="34.9205622" lon="32.9350515"><ele>987.4</ele><time>2015-04-30T11:26:29.0000000+00:00</time></trkpt><trkpt lat="34.9205342" lon="32.9350037"><ele>987.1</ele><time>2015-04-30T11:26:30.0000000+00:00</time></trkpt><trkpt lat="34.92047" lon="32.934943"><ele>986.8</ele><time>2015-04-30T11:26:32.0000000+00:00</time></trkpt><trkpt lat="34.920432" lon="32.9349114"><ele>986.8</ele><time>2015-04-30T11:26:33.0000000+00:00</time></trkpt><trkpt lat="34.9203771" lon="32.9348511"><ele>986.0</ele><time>2015-04-30T11:26:35.0000000+00:00</time></trkpt><trkpt lat="34.9203382" lon="32.9348147"><ele>985.4</ele><time>2015-04-30T11:26:36.0000000+00:00</time></trkpt><trkpt lat="34.9202767" lon="32.9347561"><ele>985.2</ele><time>2015-04-30T11:26:38.0000000+00:00</time></trkpt><trkpt lat="34.9202173" lon="32.9347078"><ele>984.9</ele><time>2015-04-30T11:26:40.0000000+00:00</time></trkpt><trkpt lat="34.920149" lon="32.9346767"><ele>984.8</ele><time>2015-04-30T11:26:42.0000000+00:00</time></trkpt><trkpt lat="34.9200952" lon="32.9346461"><ele>985.5</ele><time>2015-04-30T11:26:44.0000000+00:00</time></trkpt><trkpt lat="34.9200471" lon="32.9346045"><ele>986.6</ele><time>2015-04-30T11:26:47.0000000+00:00</time></trkpt><trkpt lat="34.9200105" lon="32.9345612"><ele>986.7</ele><time>2015-04-30T11:26:50.0000000+00:00</time></trkpt><trkpt lat="34.9199725" lon="32.9345244"><ele>987.6</ele><time>2015-04-30T11:26:53.0000000+00:00</time></trkpt><trkpt lat="34.919927" lon="32.9345077"><ele>988.2</ele><time>2015-04-30T11:26:56.0000000+00:00</time></trkpt><trkpt lat="34.9198761" lon="32.9344981"><ele>989.2</ele><time>2015-04-30T11:26:59.0000000+00:00</time></trkpt><trkpt lat="34.9198174" lon="32.9344995"><ele>988.2</ele><time>2015-04-30T11:27:02.0000000+00:00</time></trkpt><trkpt lat="34.9197678" lon="32.9345007"><ele>988.6</ele><time>2015-04-30T11:27:04.0000000+00:00</time></trkpt><trkpt lat="34.9197079" lon="32.9345097"><ele>988.7</ele><time>2015-04-30T11:27:06.0000000+00:00</time></trkpt><trkpt lat="34.919642" lon="32.9345306"><ele>988.0</ele><time>2015-04-30T11:27:08.0000000+00:00</time></trkpt><trkpt lat="34.919581" lon="32.9345605"><ele>987.8</ele><time>2015-04-30T11:27:10.0000000+00:00</time></trkpt><trkpt lat="34.9195259" lon="32.9345864"><ele>987.8</ele><time>2015-04-30T11:27:12.0000000+00:00</time></trkpt><trkpt lat="34.9194689" lon="32.9346002"><ele>987.0</ele><time>2015-04-30T11:27:14.0000000+00:00</time></trkpt><trkpt lat="34.9194092" lon="32.9346192"><ele>987.3</ele><time>2015-04-30T11:27:16.0000000+00:00</time></trkpt><trkpt lat="34.9193507" lon="32.934646"><ele>988.4</ele><time>2015-04-30T11:27:18.0000000+00:00</time></trkpt><trkpt lat="34.9192923" lon="32.934675"><ele>989.4</ele><time>2015-04-30T11:27:20.0000000+00:00</time></trkpt><trkpt lat="34.9192375" lon="32.9347025"><ele>989.7</ele><time>2015-04-30T11:27:22.0000000+00:00</time></trkpt><trkpt lat="34.9191802" lon="32.9347248"><ele>989.5</ele><time>2015-04-30T11:27:24.0000000+00:00</time></trkpt><trkpt lat="34.9191247" lon="32.934742"><ele>989.7</ele><time>2015-04-30T11:27:26.0000000+00:00</time></trkpt><trkpt lat="34.919073" lon="32.9347715"><ele>989.2</ele><time>2015-04-30T11:27:28.0000000+00:00</time></trkpt><trkpt lat="34.9190276" lon="32.9348072"><ele>989.4</ele><time>2015-04-30T11:27:30.0000000+00:00</time></trkpt><trkpt lat="34.9189802" lon="32.934846"><ele>989.7</ele><time>2015-04-30T11:27:32.0000000+00:00</time></trkpt><trkpt lat="34.9189364" lon="32.934896"><ele>989.7</ele><time>2015-04-30T11:27:34.0000000+00:00</time></trkpt><trkpt lat="34.9188881" lon="32.9349536"><ele>989.8</ele><time>2015-04-30T11:27:36.0000000+00:00</time></trkpt><trkpt lat="34.9188282" lon="32.9350256"><ele>988.5</ele><time>2015-04-30T11:27:38.0000000+00:00</time></trkpt><trkpt lat="34.9187836" lon="32.9350953"><ele>988.1</ele><time>2015-04-30T11:27:39.0000000+00:00</time></trkpt><trkpt lat="34.9187506" lon="32.935146"><ele>987.5</ele><time>2015-04-30T11:27:40.0000000+00:00</time></trkpt><trkpt lat="34.9187139" lon="32.9351938"><ele>986.6</ele><time>2015-04-30T11:27:41.0000000+00:00</time></trkpt><trkpt lat="34.9186738" lon="32.9352469"><ele>986.2</ele><time>2015-04-30T11:27:42.0000000+00:00</time></trkpt><trkpt lat="34.9186347" lon="32.935301"><ele>985.5</ele><time>2015-04-30T11:27:43.0000000+00:00</time></trkpt><trkpt lat="34.9185911" lon="32.9353645"><ele>985.1</ele><time>2015-04-30T11:27:44.0000000+00:00</time></trkpt><trkpt lat="34.9185464" lon="32.9354198"><ele>984.4</ele><time>2015-04-30T11:27:45.0000000+00:00</time></trkpt><trkpt lat="34.9184945" lon="32.9354852"><ele>983.6</ele><time>2015-04-30T11:27:46.0000000+00:00</time></trkpt><trkpt lat="34.9184404" lon="32.9355539"><ele>982.7</ele><time>2015-04-30T11:27:47.0000000+00:00</time></trkpt><trkpt lat="34.9183808" lon="32.9356286"><ele>981.7</ele><time>2015-04-30T11:27:48.0000000+00:00</time></trkpt><trkpt lat="34.9183279" lon="32.9357025"><ele>981.2</ele><time>2015-04-30T11:27:49.0000000+00:00</time></trkpt><trkpt lat="34.9182693" lon="32.9357775"><ele>980.5</ele><time>2015-04-30T11:27:50.0000000+00:00</time></trkpt><trkpt lat="34.9182048" lon="32.9358572"><ele>979.6</ele><time>2015-04-30T11:27:51.0000000+00:00</time></trkpt><trkpt lat="34.9181418" lon="32.9359368"><ele>979.2</ele><time>2015-04-30T11:27:52.0000000+00:00</time></trkpt><trkpt lat="34.9180823" lon="32.9360142"><ele>978.5</ele><time>2015-04-30T11:27:53.0000000+00:00</time></trkpt><trkpt lat="34.91802" lon="32.9360943"><ele>977.6</ele><time>2015-04-30T11:27:54.0000000+00:00</time></trkpt><trkpt lat="34.9179681" lon="32.9361726"><ele>976.7</ele><time>2015-04-30T11:27:55.0000000+00:00</time></trkpt><trkpt lat="34.9179041" lon="32.9362407"><ele>976.2</ele><time>2015-04-30T11:27:56.0000000+00:00</time></trkpt><trkpt lat="34.9178526" lon="32.9363052"><ele>976.0</ele><time>2015-04-30T11:27:57.0000000+00:00</time></trkpt><trkpt lat="34.9177918" lon="32.9363668"><ele>975.4</ele><time>2015-04-30T11:27:58.0000000+00:00</time></trkpt><trkpt lat="34.9177347" lon="32.9364348"><ele>974.6</ele><time>2015-04-30T11:27:59.0000000+00:00</time></trkpt><trkpt lat="34.9176792" lon="32.9365055"><ele>973.7</ele><time>2015-04-30T11:28:00.0000000+00:00</time></trkpt><trkpt lat="34.9176317" lon="32.9365762"><ele>973.2</ele><time>2015-04-30T11:28:01.0000000+00:00</time></trkpt><trkpt lat="34.9175807" lon="32.9366509"><ele>972.5</ele><time>2015-04-30T11:28:02.0000000+00:00</time></trkpt><trkpt lat="34.917537" lon="32.9367201"><ele>971.6</ele><time>2015-04-30T11:28:03.0000000+00:00</time></trkpt><trkpt lat="34.9174972" lon="32.9367874"><ele>971.2</ele><time>2015-04-30T11:28:04.0000000+00:00</time></trkpt><trkpt lat="34.9174641" lon="32.9368385"><ele>971.0</ele><time>2015-04-30T11:28:05.0000000+00:00</time></trkpt><trkpt lat="34.9174156" lon="32.9369197"><ele>970.1</ele><time>2015-04-30T11:28:07.0000000+00:00</time></trkpt><trkpt lat="34.9173999" lon="32.9370016"><ele>970.3</ele><time>2015-04-30T11:28:09.0000000+00:00</time></trkpt><trkpt lat="34.9174323" lon="32.9370404"><ele>969.4</ele><time>2015-04-30T11:28:11.0000000+00:00</time></trkpt><trkpt lat="34.9174719" lon="32.9370751"><ele>970.6</ele><time>2015-04-30T11:28:17.0000000+00:00</time></trkpt><trkpt lat="34.9174752" lon="32.9370202"><ele>978.8</ele><time>2015-04-30T11:33:04.0000000+00:00</time></trkpt><trkpt lat="34.9174332" lon="32.9369984"><ele>979.5</ele><time>2015-04-30T11:35:55.0000000+00:00</time></trkpt><trkpt lat="34.9173761" lon="32.9370151"><ele>978.4</ele><time>2015-04-30T11:35:58.0000000+00:00</time></trkpt><trkpt lat="34.9173229" lon="32.9370606"><ele>976.9</ele><time>2015-04-30T11:36:00.0000000+00:00</time></trkpt><trkpt lat="34.9172834" lon="32.937148"><ele>975.6</ele><time>2015-04-30T11:36:02.0000000+00:00</time></trkpt><trkpt lat="34.9172617" lon="32.9371979"><ele>974.7</ele><time>2015-04-30T11:36:03.0000000+00:00</time></trkpt><trkpt lat="34.9172382" lon="32.9372475"><ele>974.2</ele><time>2015-04-30T11:36:04.0000000+00:00</time></trkpt><trkpt lat="34.9171895" lon="32.9373405"><ele>973.1</ele><time>2015-04-30T11:36:06.0000000+00:00</time></trkpt><trkpt lat="34.9171654" lon="32.9373876"><ele>972.4</ele><time>2015-04-30T11:36:07.0000000+00:00</time></trkpt><trkpt lat="34.917142" lon="32.9374351"><ele>971.6</ele><time>2015-04-30T11:36:08.0000000+00:00</time></trkpt><trkpt lat="34.917097" lon="32.9375246"><ele>970.5</ele><time>2015-04-30T11:36:10.0000000+00:00</time></trkpt><trkpt lat="34.9170435" lon="32.9376274"><ele>969.4</ele><time>2015-04-30T11:36:12.0000000+00:00</time></trkpt><trkpt lat="34.9170178" lon="32.9376779"><ele>969.1</ele><time>2015-04-30T11:36:13.0000000+00:00</time></trkpt><trkpt lat="34.9169901" lon="32.9377293"><ele>968.4</ele><time>2015-04-30T11:36:14.0000000+00:00</time></trkpt><trkpt lat="34.9169621" lon="32.937777"><ele>967.6</ele><time>2015-04-30T11:36:15.0000000+00:00</time></trkpt><trkpt lat="34.9169275" lon="32.9378246"><ele>967.2</ele><time>2015-04-30T11:36:16.0000000+00:00</time></trkpt><trkpt lat="34.9168934" lon="32.9378759"><ele>967.0</ele><time>2015-04-30T11:36:17.0000000+00:00</time></trkpt><trkpt lat="34.9168592" lon="32.9379277"><ele>966.4</ele><time>2015-04-30T11:36:18.0000000+00:00</time></trkpt><trkpt lat="34.9168166" lon="32.9379857"><ele>965.6</ele><time>2015-04-30T11:36:19.0000000+00:00</time></trkpt><trkpt lat="34.9167671" lon="32.938039"><ele>965.2</ele><time>2015-04-30T11:36:20.0000000+00:00</time></trkpt><trkpt lat="34.9167264" lon="32.9380972"><ele>965.0</ele><time>2015-04-30T11:36:21.0000000+00:00</time></trkpt><trkpt lat="34.9166587" lon="32.9381584"><ele>963.9</ele><time>2015-04-30T11:36:22.0000000+00:00</time></trkpt><trkpt lat="34.9165934" lon="32.93822"><ele>963.3</ele><time>2015-04-30T11:36:23.0000000+00:00</time></trkpt><trkpt lat="34.9165314" lon="32.9382806"><ele>963.0</ele><time>2015-04-30T11:36:24.0000000+00:00</time></trkpt><trkpt lat="34.9164698" lon="32.9383334"><ele>962.4</ele><time>2015-04-30T11:36:25.0000000+00:00</time></trkpt><trkpt lat="34.9164015" lon="32.9383929"><ele>962.1</ele><time>2015-04-30T11:36:26.0000000+00:00</time></trkpt><trkpt lat="34.9163388" lon="32.9384618"><ele>961.4</ele><time>2015-04-30T11:36:27.0000000+00:00</time></trkpt><trkpt lat="34.9162644" lon="32.9385234"><ele>961.1</ele><time>2015-04-30T11:36:28.0000000+00:00</time></trkpt><trkpt lat="34.916203" lon="32.9385822"><ele>960.4</ele><time>2015-04-30T11:36:29.0000000+00:00</time></trkpt><trkpt lat="34.9161286" lon="32.9386397"><ele>959.6</ele><time>2015-04-30T11:36:30.0000000+00:00</time></trkpt><trkpt lat="34.9160546" lon="32.9386982"><ele>958.2</ele><time>2015-04-30T11:36:31.0000000+00:00</time></trkpt><trkpt lat="34.9159818" lon="32.9387501"><ele>957.0</ele><time>2015-04-30T11:36:32.0000000+00:00</time></trkpt><trkpt lat="34.9159096" lon="32.938808"><ele>956.4</ele><time>2015-04-30T11:36:33.0000000+00:00</time></trkpt><trkpt lat="34.915826" lon="32.9388717"><ele>955.6</ele><time>2015-04-30T11:36:34.0000000+00:00</time></trkpt><trkpt lat="34.915739" lon="32.9389342"><ele>954.2</ele><time>2015-04-30T11:36:35.0000000+00:00</time></trkpt><trkpt lat="34.9156477" lon="32.9390028"><ele>953.5</ele><time>2015-04-30T11:36:36.0000000+00:00</time></trkpt><trkpt lat="34.9155727" lon="32.9390695"><ele>952.6</ele><time>2015-04-30T11:36:37.0000000+00:00</time></trkpt><trkpt lat="34.9154942" lon="32.9391318"><ele>952.2</ele><time>2015-04-30T11:36:38.0000000+00:00</time></trkpt><trkpt lat="34.9154103" lon="32.9391931"><ele>952.0</ele><time>2015-04-30T11:36:39.0000000+00:00</time></trkpt><trkpt lat="34.9153228" lon="32.9392595"><ele>951.9</ele><time>2015-04-30T11:36:40.0000000+00:00</time></trkpt><trkpt lat="34.9152424" lon="32.9393233"><ele>951.3</ele><time>2015-04-30T11:36:41.0000000+00:00</time></trkpt><trkpt lat="34.9151624" lon="32.9393917"><ele>951.0</ele><time>2015-04-30T11:36:42.0000000+00:00</time></trkpt><trkpt lat="34.9150826" lon="32.9394661"><ele>950.4</ele><time>2015-04-30T11:36:43.0000000+00:00</time></trkpt><trkpt lat="34.9150105" lon="32.9395485"><ele>949.6</ele><time>2015-04-30T11:36:44.0000000+00:00</time></trkpt><trkpt lat="34.9149525" lon="32.9396348"><ele>948.7</ele><time>2015-04-30T11:36:45.0000000+00:00</time></trkpt><trkpt lat="34.9148975" lon="32.9397317"><ele>947.7</ele><time>2015-04-30T11:36:46.0000000+00:00</time></trkpt><trkpt lat="34.9148434" lon="32.9398341"><ele>946.7</ele><time>2015-04-30T11:36:47.0000000+00:00</time></trkpt><trkpt lat="34.9147906" lon="32.9399341"><ele>945.8</ele><time>2015-04-30T11:36:48.0000000+00:00</time></trkpt><trkpt lat="34.9147373" lon="32.9400304"><ele>944.8</ele><time>2015-04-30T11:36:49.0000000+00:00</time></trkpt><trkpt lat="34.914687" lon="32.9401286"><ele>944.3</ele><time>2015-04-30T11:36:50.0000000+00:00</time></trkpt><trkpt lat="34.9146277" lon="32.9402206"><ele>944.0</ele><time>2015-04-30T11:36:51.0000000+00:00</time></trkpt><trkpt lat="34.9145596" lon="32.9403125"><ele>943.4</ele><time>2015-04-30T11:36:52.0000000+00:00</time></trkpt><trkpt lat="34.9144867" lon="32.9404002"><ele>943.1</ele><time>2015-04-30T11:36:53.0000000+00:00</time></trkpt><trkpt lat="34.9144109" lon="32.9404905"><ele>942.4</ele><time>2015-04-30T11:36:54.0000000+00:00</time></trkpt><trkpt lat="34.914327" lon="32.9405726"><ele>942.1</ele><time>2015-04-30T11:36:55.0000000+00:00</time></trkpt><trkpt lat="34.9142354" lon="32.9406532"><ele>941.4</ele><time>2015-04-30T11:36:56.0000000+00:00</time></trkpt><trkpt lat="34.9141454" lon="32.9407323"><ele>941.1</ele><time>2015-04-30T11:36:57.0000000+00:00</time></trkpt><trkpt lat="34.9140516" lon="32.9408124"><ele>940.4</ele><time>2015-04-30T11:36:58.0000000+00:00</time></trkpt><trkpt lat="34.9139468" lon="32.9408908"><ele>939.6</ele><time>2015-04-30T11:36:59.0000000+00:00</time></trkpt><trkpt lat="34.9138434" lon="32.940978"><ele>938.7</ele><time>2015-04-30T11:37:00.0000000+00:00</time></trkpt><trkpt lat="34.9137476" lon="32.9410558"><ele>938.2</ele><time>2015-04-30T11:37:01.0000000+00:00</time></trkpt><trkpt lat="34.9136481" lon="32.9411362"><ele>938.0</ele><time>2015-04-30T11:37:02.0000000+00:00</time></trkpt><trkpt lat="34.913545" lon="32.9412165"><ele>937.4</ele><time>2015-04-30T11:37:03.0000000+00:00</time></trkpt><trkpt lat="34.9134399" lon="32.9412966"><ele>936.6</ele><time>2015-04-30T11:37:04.0000000+00:00</time></trkpt><trkpt lat="34.9133459" lon="32.9413746"><ele>936.2</ele><time>2015-04-30T11:37:05.0000000+00:00</time></trkpt><trkpt lat="34.9132452" lon="32.9414519"><ele>935.5</ele><time>2015-04-30T11:37:06.0000000+00:00</time></trkpt><trkpt lat="34.9131436" lon="32.9415235"><ele>935.1</ele><time>2015-04-30T11:37:07.0000000+00:00</time></trkpt><trkpt lat="34.9130386" lon="32.941595"><ele>934.9</ele><time>2015-04-30T11:37:08.0000000+00:00</time></trkpt><trkpt lat="34.9129338" lon="32.9416574"><ele>934.4</ele><time>2015-04-30T11:37:09.0000000+00:00</time></trkpt><trkpt lat="34.912832" lon="32.9417074"><ele>933.1</ele><time>2015-04-30T11:37:10.0000000+00:00</time></trkpt><trkpt lat="34.9127232" lon="32.9417582"><ele>932.4</ele><time>2015-04-30T11:37:11.0000000+00:00</time></trkpt><trkpt lat="34.9126135" lon="32.9418098"><ele>931.6</ele><time>2015-04-30T11:37:12.0000000+00:00</time></trkpt><trkpt lat="34.9125111" lon="32.9418584"><ele>930.7</ele><time>2015-04-30T11:37:13.0000000+00:00</time></trkpt><trkpt lat="34.9124019" lon="32.9418997"><ele>930.2</ele><time>2015-04-30T11:37:14.0000000+00:00</time></trkpt><trkpt lat="34.9122902" lon="32.9419367"><ele>929.5</ele><time>2015-04-30T11:37:15.0000000+00:00</time></trkpt><trkpt lat="34.9121676" lon="32.9419609"><ele>928.6</ele><time>2015-04-30T11:37:16.0000000+00:00</time></trkpt><trkpt lat="34.9120531" lon="32.9419803"><ele>927.7</ele><time>2015-04-30T11:37:17.0000000+00:00</time></trkpt><trkpt lat="34.9119394" lon="32.9419979"><ele>926.7</ele><time>2015-04-30T11:37:18.0000000+00:00</time></trkpt><trkpt lat="34.9118158" lon="32.942023"><ele>926.2</ele><time>2015-04-30T11:37:19.0000000+00:00</time></trkpt><trkpt lat="34.9116965" lon="32.9420542"><ele>925.5</ele><time>2015-04-30T11:37:20.0000000+00:00</time></trkpt><trkpt lat="34.9115829" lon="32.9420899"><ele>924.6</ele><time>2015-04-30T11:37:21.0000000+00:00</time></trkpt><trkpt lat="34.9114623" lon="32.9421345"><ele>923.7</ele><time>2015-04-30T11:37:22.0000000+00:00</time></trkpt><trkpt lat="34.9113449" lon="32.9421899"><ele>923.2</ele><time>2015-04-30T11:37:23.0000000+00:00</time></trkpt><trkpt lat="34.9112267" lon="32.9422518"><ele>922.5</ele><time>2015-04-30T11:37:24.0000000+00:00</time></trkpt><trkpt lat="34.9111188" lon="32.9423122"><ele>922.1</ele><time>2015-04-30T11:37:25.0000000+00:00</time></trkpt><trkpt lat="34.9110065" lon="32.9423726"><ele>921.4</ele><time>2015-04-30T11:37:26.0000000+00:00</time></trkpt><trkpt lat="34.9109034" lon="32.9424224"><ele>921.1</ele><time>2015-04-30T11:37:27.0000000+00:00</time></trkpt><trkpt lat="34.9107995" lon="32.9424766"><ele>920.4</ele><time>2015-04-30T11:37:28.0000000+00:00</time></trkpt><trkpt lat="34.9107014" lon="32.942526"><ele>919.6</ele><time>2015-04-30T11:37:29.0000000+00:00</time></trkpt><trkpt lat="34.9105952" lon="32.9425823"><ele>918.7</ele><time>2015-04-30T11:37:30.0000000+00:00</time></trkpt><trkpt lat="34.9104862" lon="32.9426363"><ele>917.7</ele><time>2015-04-30T11:37:31.0000000+00:00</time></trkpt><trkpt lat="34.9103715" lon="32.9426932"><ele>916.7</ele><time>2015-04-30T11:37:32.0000000+00:00</time></trkpt><trkpt lat="34.9102607" lon="32.9427496"><ele>915.8</ele><time>2015-04-30T11:37:33.0000000+00:00</time></trkpt><trkpt lat="34.9101468" lon="32.9428123"><ele>915.3</ele><time>2015-04-30T11:37:34.0000000+00:00</time></trkpt><trkpt lat="34.9100338" lon="32.9428681"><ele>914.5</ele><time>2015-04-30T11:37:35.0000000+00:00</time></trkpt><trkpt lat="34.9099109" lon="32.9429279"><ele>913.6</ele><time>2015-04-30T11:37:36.0000000+00:00</time></trkpt><trkpt lat="34.9098022" lon="32.9429824"><ele>912.7</ele><time>2015-04-30T11:37:37.0000000+00:00</time></trkpt><trkpt lat="34.9096899" lon="32.943037"><ele>911.7</ele><time>2015-04-30T11:37:38.0000000+00:00</time></trkpt><trkpt lat="34.9095801" lon="32.9430886"><ele>911.2</ele><time>2015-04-30T11:37:39.0000000+00:00</time></trkpt><trkpt lat="34.9094718" lon="32.9431301"><ele>910.5</ele><time>2015-04-30T11:37:40.0000000+00:00</time></trkpt><trkpt lat="34.9093696" lon="32.9431486"><ele>910.1</ele><time>2015-04-30T11:37:41.0000000+00:00</time></trkpt><trkpt lat="34.9092597" lon="32.9431546"><ele>909.0</ele><time>2015-04-30T11:37:42.0000000+00:00</time></trkpt><trkpt lat="34.9091425" lon="32.9431551"><ele>907.9</ele><time>2015-04-30T11:37:43.0000000+00:00</time></trkpt><trkpt lat="34.9090246" lon="32.943155"><ele>907.3</ele><time>2015-04-30T11:37:44.0000000+00:00</time></trkpt><trkpt lat="34.90891" lon="32.9431516"><ele>906.5</ele><time>2015-04-30T11:37:45.0000000+00:00</time></trkpt><trkpt lat="34.9087905" lon="32.9431533"><ele>905.7</ele><time>2015-04-30T11:37:46.0000000+00:00</time></trkpt><trkpt lat="34.9086706" lon="32.943161"><ele>904.7</ele><time>2015-04-30T11:37:47.0000000+00:00</time></trkpt><trkpt lat="34.9085414" lon="32.9431675"><ele>904.2</ele><time>2015-04-30T11:37:48.0000000+00:00</time></trkpt><trkpt lat="34.9084223" lon="32.9431661"><ele>904.0</ele><time>2015-04-30T11:37:49.0000000+00:00</time></trkpt><trkpt lat="34.9083024" lon="32.9431664"><ele>903.4</ele><time>2015-04-30T11:37:50.0000000+00:00</time></trkpt><trkpt lat="34.9081791" lon="32.9431718"><ele>902.6</ele><time>2015-04-30T11:37:51.0000000+00:00</time></trkpt><trkpt lat="34.9080505" lon="32.9431704"><ele>901.7</ele><time>2015-04-30T11:37:52.0000000+00:00</time></trkpt><trkpt lat="34.9079263" lon="32.9431686"><ele>900.7</ele><time>2015-04-30T11:37:53.0000000+00:00</time></trkpt><trkpt lat="34.9078007" lon="32.94317"><ele>900.2</ele><time>2015-04-30T11:37:54.0000000+00:00</time></trkpt><trkpt lat="34.9076797" lon="32.9431755"><ele>900.0</ele><time>2015-04-30T11:37:55.0000000+00:00</time></trkpt><trkpt lat="34.9075522" lon="32.9431754"><ele>899.9</ele><time>2015-04-30T11:37:56.0000000+00:00</time></trkpt><trkpt lat="34.9074217" lon="32.943178"><ele>899.3</ele><time>2015-04-30T11:37:57.0000000+00:00</time></trkpt><trkpt lat="34.9072944" lon="32.9431784"><ele>898.5</ele><time>2015-04-30T11:37:58.0000000+00:00</time></trkpt><trkpt lat="34.9071673" lon="32.9431801"><ele>897.7</ele><time>2015-04-30T11:37:59.0000000+00:00</time></trkpt><trkpt lat="34.9070366" lon="32.9431793"><ele>896.7</ele><time>2015-04-30T11:38:00.0000000+00:00</time></trkpt><trkpt lat="34.90691" lon="32.9431867"><ele>896.2</ele><time>2015-04-30T11:38:01.0000000+00:00</time></trkpt><trkpt lat="34.9067832" lon="32.9431886"><ele>896.0</ele><time>2015-04-30T11:38:02.0000000+00:00</time></trkpt><trkpt lat="34.9066555" lon="32.9431912"><ele>895.9</ele><time>2015-04-30T11:38:03.0000000+00:00</time></trkpt><trkpt lat="34.9065266" lon="32.9431975"><ele>895.3</ele><time>2015-04-30T11:38:04.0000000+00:00</time></trkpt><trkpt lat="34.9064053" lon="32.9431975"><ele>895.0</ele><time>2015-04-30T11:38:05.0000000+00:00</time></trkpt><trkpt lat="34.9062758" lon="32.9431875"><ele>894.4</ele><time>2015-04-30T11:38:06.0000000+00:00</time></trkpt><trkpt lat="34.9061451" lon="32.9431796"><ele>893.6</ele><time>2015-04-30T11:38:07.0000000+00:00</time></trkpt><trkpt lat="34.906015" lon="32.9431689"><ele>893.2</ele><time>2015-04-30T11:38:08.0000000+00:00</time></trkpt><trkpt lat="34.905895" lon="32.9431466"><ele>892.5</ele><time>2015-04-30T11:38:09.0000000+00:00</time></trkpt><trkpt lat="34.9057749" lon="32.9431221"><ele>891.6</ele><time>2015-04-30T11:38:10.0000000+00:00</time></trkpt><trkpt lat="34.9056548" lon="32.9430994"><ele>890.7</ele><time>2015-04-30T11:38:11.0000000+00:00</time></trkpt><trkpt lat="34.9055383" lon="32.9430719"><ele>890.2</ele><time>2015-04-30T11:38:12.0000000+00:00</time></trkpt><trkpt lat="34.9054294" lon="32.9430403"><ele>889.5</ele><time>2015-04-30T11:38:13.0000000+00:00</time></trkpt><trkpt lat="34.9053175" lon="32.9429924"><ele>889.1</ele><time>2015-04-30T11:38:14.0000000+00:00</time></trkpt><trkpt lat="34.9052081" lon="32.9429314"><ele>888.4</ele><time>2015-04-30T11:38:15.0000000+00:00</time></trkpt><trkpt lat="34.9050965" lon="32.9428732"><ele>888.1</ele><time>2015-04-30T11:38:16.0000000+00:00</time></trkpt><trkpt lat="34.9049875" lon="32.9428224"><ele>887.9</ele><time>2015-04-30T11:38:17.0000000+00:00</time></trkpt><trkpt lat="34.9048814" lon="32.9427615"><ele>887.4</ele><time>2015-04-30T11:38:18.0000000+00:00</time></trkpt><trkpt lat="34.9047741" lon="32.9427015"><ele>887.1</ele><time>2015-04-30T11:38:19.0000000+00:00</time></trkpt><trkpt lat="34.9046681" lon="32.9426394"><ele>886.4</ele><time>2015-04-30T11:38:20.0000000+00:00</time></trkpt><trkpt lat="34.904558" lon="32.9425824"><ele>886.1</ele><time>2015-04-30T11:38:21.0000000+00:00</time></trkpt><trkpt lat="34.9044523" lon="32.9425221"><ele>885.4</ele><time>2015-04-30T11:38:22.0000000+00:00</time></trkpt><trkpt lat="34.9043532" lon="32.9424641"><ele>884.1</ele><time>2015-04-30T11:38:23.0000000+00:00</time></trkpt><trkpt lat="34.9042509" lon="32.9424076"><ele>882.9</ele><time>2015-04-30T11:38:24.0000000+00:00</time></trkpt><trkpt lat="34.9041489" lon="32.9423499"><ele>882.3</ele><time>2015-04-30T11:38:25.0000000+00:00</time></trkpt><trkpt lat="34.9040329" lon="32.9423022"><ele>881.6</ele><time>2015-04-30T11:38:26.0000000+00:00</time></trkpt><trkpt lat="34.9039182" lon="32.9422681"><ele>880.7</ele><time>2015-04-30T11:38:27.0000000+00:00</time></trkpt><trkpt lat="34.903803" lon="32.9422378"><ele>880.2</ele><time>2015-04-30T11:38:28.0000000+00:00</time></trkpt><trkpt lat="34.9036922" lon="32.9422127"><ele>879.5</ele><time>2015-04-30T11:38:29.0000000+00:00</time></trkpt><trkpt lat="34.9035811" lon="32.9422015"><ele>879.1</ele><time>2015-04-30T11:38:30.0000000+00:00</time></trkpt><trkpt lat="34.9034672" lon="32.9421911"><ele>878.4</ele><time>2015-04-30T11:38:31.0000000+00:00</time></trkpt><trkpt lat="34.903352" lon="32.9421886"><ele>878.1</ele><time>2015-04-30T11:38:32.0000000+00:00</time></trkpt><trkpt lat="34.903241" lon="32.9421933"><ele>877.4</ele><time>2015-04-30T11:38:33.0000000+00:00</time></trkpt><trkpt lat="34.9031329" lon="32.9421994"><ele>877.1</ele><time>2015-04-30T11:38:34.0000000+00:00</time></trkpt><trkpt lat="34.9030319" lon="32.9422071"><ele>876.4</ele><time>2015-04-30T11:38:35.0000000+00:00</time></trkpt><trkpt lat="34.9029212" lon="32.9422175"><ele>876.1</ele><time>2015-04-30T11:38:36.0000000+00:00</time></trkpt><trkpt lat="34.9028208" lon="32.9422314"><ele>875.4</ele><time>2015-04-30T11:38:37.0000000+00:00</time></trkpt><trkpt lat="34.9027159" lon="32.9422451"><ele>875.1</ele><time>2015-04-30T11:38:38.0000000+00:00</time></trkpt><trkpt lat="34.9026107" lon="32.9422445"><ele>874.4</ele><time>2015-04-30T11:38:39.0000000+00:00</time></trkpt><trkpt lat="34.9025047" lon="32.9422406"><ele>874.1</ele><time>2015-04-30T11:38:40.0000000+00:00</time></trkpt><trkpt lat="34.9024051" lon="32.9422403"><ele>873.9</ele><time>2015-04-30T11:38:41.0000000+00:00</time></trkpt><trkpt lat="34.9023015" lon="32.9422301"><ele>873.8</ele><time>2015-04-30T11:38:42.0000000+00:00</time></trkpt><trkpt lat="34.9021986" lon="32.9422206"><ele>873.3</ele><time>2015-04-30T11:38:43.0000000+00:00</time></trkpt><trkpt lat="34.9020982" lon="32.9422056"><ele>873.0</ele><time>2015-04-30T11:38:44.0000000+00:00</time></trkpt><trkpt lat="34.902004" lon="32.9421849"><ele>872.4</ele><time>2015-04-30T11:38:45.0000000+00:00</time></trkpt><trkpt lat="34.9019085" lon="32.9421743"><ele>872.1</ele><time>2015-04-30T11:38:46.0000000+00:00</time></trkpt><trkpt lat="34.9018159" lon="32.9421574"><ele>871.9</ele><time>2015-04-30T11:38:47.0000000+00:00</time></trkpt><trkpt lat="34.9017164" lon="32.9421226"><ele>871.3</ele><time>2015-04-30T11:38:48.0000000+00:00</time></trkpt><trkpt lat="34.9016328" lon="32.942089"><ele>871.1</ele><time>2015-04-30T11:38:49.0000000+00:00</time></trkpt><trkpt lat="34.9015484" lon="32.9420305"><ele>870.9</ele><time>2015-04-30T11:38:50.0000000+00:00</time></trkpt><trkpt lat="34.9014726" lon="32.9419566"><ele>870.3</ele><time>2015-04-30T11:38:51.0000000+00:00</time></trkpt><trkpt lat="34.9013912" lon="32.9418757"><ele>869.6</ele><time>2015-04-30T11:38:52.0000000+00:00</time></trkpt><trkpt lat="34.9013141" lon="32.941796"><ele>869.2</ele><time>2015-04-30T11:38:53.0000000+00:00</time></trkpt><trkpt lat="34.9012344" lon="32.9417166"><ele>869.0</ele><time>2015-04-30T11:38:54.0000000+00:00</time></trkpt><trkpt lat="34.901156" lon="32.9416329"><ele>868.9</ele><time>2015-04-30T11:38:55.0000000+00:00</time></trkpt><trkpt lat="34.9010752" lon="32.9415405"><ele>868.8</ele><time>2015-04-30T11:38:56.0000000+00:00</time></trkpt><trkpt lat="34.9010021" lon="32.9414552"><ele>868.8</ele><time>2015-04-30T11:38:57.0000000+00:00</time></trkpt><trkpt lat="34.9009206" lon="32.9413687"><ele>868.3</ele><time>2015-04-30T11:38:58.0000000+00:00</time></trkpt><trkpt lat="34.9008377" lon="32.9412834"><ele>868.0</ele><time>2015-04-30T11:38:59.0000000+00:00</time></trkpt><trkpt lat="34.9007534" lon="32.9411953"><ele>867.9</ele><time>2015-04-30T11:39:00.0000000+00:00</time></trkpt><trkpt lat="34.9006774" lon="32.9411119"><ele>867.8</ele><time>2015-04-30T11:39:01.0000000+00:00</time></trkpt><trkpt lat="34.9005969" lon="32.9410283"><ele>867.8</ele><time>2015-04-30T11:39:02.0000000+00:00</time></trkpt><trkpt lat="34.9005259" lon="32.9409348"><ele>867.3</ele><time>2015-04-30T11:39:03.0000000+00:00</time></trkpt><trkpt lat="34.9004492" lon="32.9408434"><ele>867.5</ele><time>2015-04-30T11:39:04.0000000+00:00</time></trkpt><trkpt lat="34.9003814" lon="32.9407626"><ele>867.1</ele><time>2015-04-30T11:39:05.0000000+00:00</time></trkpt><trkpt lat="34.900304" lon="32.9406806"><ele>867.0</ele><time>2015-04-30T11:39:06.0000000+00:00</time></trkpt><trkpt lat="34.9002276" lon="32.940605"><ele>866.9</ele><time>2015-04-30T11:39:07.0000000+00:00</time></trkpt><trkpt lat="34.9001485" lon="32.9405231"><ele>866.8</ele><time>2015-04-30T11:39:08.0000000+00:00</time></trkpt><trkpt lat="34.9000847" lon="32.9404438"><ele>866.3</ele><time>2015-04-30T11:39:09.0000000+00:00</time></trkpt><trkpt lat="34.9000168" lon="32.9403567"><ele>865.5</ele><time>2015-04-30T11:39:10.0000000+00:00</time></trkpt><trkpt lat="34.899951" lon="32.9402654"><ele>865.1</ele><time>2015-04-30T11:39:11.0000000+00:00</time></trkpt><trkpt lat="34.8998872" lon="32.9401656"><ele>864.5</ele><time>2015-04-30T11:39:12.0000000+00:00</time></trkpt><trkpt lat="34.8998338" lon="32.9400673"><ele>863.6</ele><time>2015-04-30T11:39:13.0000000+00:00</time></trkpt><trkpt lat="34.8997723" lon="32.9399648"><ele>862.7</ele><time>2015-04-30T11:39:14.0000000+00:00</time></trkpt><trkpt lat="34.8997131" lon="32.939852"><ele>861.7</ele><time>2015-04-30T11:39:15.0000000+00:00</time></trkpt><trkpt lat="34.8996545" lon="32.9397389"><ele>861.2</ele><time>2015-04-30T11:39:16.0000000+00:00</time></trkpt><trkpt lat="34.8995991" lon="32.9396327"><ele>860.5</ele><time>2015-04-30T11:39:17.0000000+00:00</time></trkpt><trkpt lat="34.8995453" lon="32.9395221"><ele>859.6</ele><time>2015-04-30T11:39:18.0000000+00:00</time></trkpt><trkpt lat="34.8995035" lon="32.9394062"><ele>859.2</ele><time>2015-04-30T11:39:19.0000000+00:00</time></trkpt><trkpt lat="34.8994633" lon="32.9392848"><ele>858.5</ele><time>2015-04-30T11:39:20.0000000+00:00</time></trkpt><trkpt lat="34.8994278" lon="32.9391636"><ele>857.6</ele><time>2015-04-30T11:39:21.0000000+00:00</time></trkpt><trkpt lat="34.8993958" lon="32.9390198"><ele>856.7</ele><time>2015-04-30T11:39:22.0000000+00:00</time></trkpt><trkpt lat="34.8993687" lon="32.9388787"><ele>855.7</ele><time>2015-04-30T11:39:23.0000000+00:00</time></trkpt><trkpt lat="34.8993304" lon="32.9387322"><ele>854.7</ele><time>2015-04-30T11:39:24.0000000+00:00</time></trkpt><trkpt lat="34.8993016" lon="32.938586"><ele>853.8</ele><time>2015-04-30T11:39:25.0000000+00:00</time></trkpt><trkpt lat="34.899263" lon="32.9384435"><ele>852.8</ele><time>2015-04-30T11:39:26.0000000+00:00</time></trkpt><trkpt lat="34.8992396" lon="32.9383026"><ele>852.3</ele><time>2015-04-30T11:39:27.0000000+00:00</time></trkpt><trkpt lat="34.8992167" lon="32.9381466"><ele>851.5</ele><time>2015-04-30T11:39:28.0000000+00:00</time></trkpt><trkpt lat="34.8991779" lon="32.938012"><ele>850.6</ele><time>2015-04-30T11:39:29.0000000+00:00</time></trkpt><trkpt lat="34.899142" lon="32.9378808"><ele>848.7</ele><time>2015-04-30T11:39:30.0000000+00:00</time></trkpt><trkpt lat="34.899101" lon="32.9377386"><ele>847.2</ele><time>2015-04-30T11:39:31.0000000+00:00</time></trkpt><trkpt lat="34.8990713" lon="32.9376058"><ele>846.0</ele><time>2015-04-30T11:39:32.0000000+00:00</time></trkpt><trkpt lat="34.8990427" lon="32.9374945"><ele>844.9</ele><time>2015-04-30T11:39:33.0000000+00:00</time></trkpt><trkpt lat="34.8990145" lon="32.9373722"><ele>843.8</ele><time>2015-04-30T11:39:34.0000000+00:00</time></trkpt><trkpt lat="34.8989917" lon="32.9372584"><ele>842.3</ele><time>2015-04-30T11:39:35.0000000+00:00</time></trkpt><trkpt lat="34.8989456" lon="32.9371451"><ele>840.5</ele><time>2015-04-30T11:39:36.0000000+00:00</time></trkpt><trkpt lat="34.8989154" lon="32.9370436"><ele>838.6</ele><time>2015-04-30T11:39:37.0000000+00:00</time></trkpt><trkpt lat="34.8988747" lon="32.9369475"><ele>837.7</ele><time>2015-04-30T11:39:38.0000000+00:00</time></trkpt><trkpt lat="34.8988252" lon="32.9368558"><ele>837.2</ele><time>2015-04-30T11:39:39.0000000+00:00</time></trkpt><trkpt lat="34.8987715" lon="32.9367644"><ele>836.0</ele><time>2015-04-30T11:39:40.0000000+00:00</time></trkpt><trkpt lat="34.8987187" lon="32.9366853"><ele>834.9</ele><time>2015-04-30T11:39:41.0000000+00:00</time></trkpt><trkpt lat="34.898655" lon="32.9366087"><ele>833.8</ele><time>2015-04-30T11:39:42.0000000+00:00</time></trkpt><trkpt lat="34.8985776" lon="32.9365444"><ele>832.8</ele><time>2015-04-30T11:39:43.0000000+00:00</time></trkpt><trkpt lat="34.8984963" lon="32.9364778"><ele>831.8</ele><time>2015-04-30T11:39:44.0000000+00:00</time></trkpt><trkpt lat="34.8984154" lon="32.9364292"><ele>831.3</ele><time>2015-04-30T11:39:45.0000000+00:00</time></trkpt><trkpt lat="34.8983155" lon="32.9363841"><ele>830.5</ele><time>2015-04-30T11:39:46.0000000+00:00</time></trkpt><trkpt lat="34.8982297" lon="32.9363414"><ele>829.6</ele><time>2015-04-30T11:39:47.0000000+00:00</time></trkpt><trkpt lat="34.8981243" lon="32.9363124"><ele>829.2</ele><time>2015-04-30T11:39:48.0000000+00:00</time></trkpt><trkpt lat="34.898018" lon="32.9362862"><ele>828.5</ele><time>2015-04-30T11:39:49.0000000+00:00</time></trkpt><trkpt lat="34.8979101" lon="32.9362618"><ele>827.6</ele><time>2015-04-30T11:39:50.0000000+00:00</time></trkpt><trkpt lat="34.8978035" lon="32.9362349"><ele>827.2</ele><time>2015-04-30T11:39:51.0000000+00:00</time></trkpt><trkpt lat="34.8976979" lon="32.9361844"><ele>826.5</ele><time>2015-04-30T11:39:52.0000000+00:00</time></trkpt><trkpt lat="34.8976134" lon="32.9361462"><ele>825.6</ele><time>2015-04-30T11:39:53.0000000+00:00</time></trkpt><trkpt lat="34.8975185" lon="32.9361011"><ele>824.7</ele><time>2015-04-30T11:39:54.0000000+00:00</time></trkpt><trkpt lat="34.8974291" lon="32.936048"><ele>823.7</ele><time>2015-04-30T11:39:55.0000000+00:00</time></trkpt><trkpt lat="34.8973357" lon="32.9359967"><ele>822.7</ele><time>2015-04-30T11:39:56.0000000+00:00</time></trkpt><trkpt lat="34.8972461" lon="32.935948"><ele>822.3</ele><time>2015-04-30T11:39:57.0000000+00:00</time></trkpt><trkpt lat="34.8971487" lon="32.9359059"><ele>821.5</ele><time>2015-04-30T11:39:58.0000000+00:00</time></trkpt><trkpt lat="34.8970499" lon="32.935873"><ele>821.1</ele><time>2015-04-30T11:39:59.0000000+00:00</time></trkpt><trkpt lat="34.8969433" lon="32.9358454"><ele>821.0</ele><time>2015-04-30T11:40:00.0000000+00:00</time></trkpt><trkpt lat="34.8968412" lon="32.9358214"><ele>820.4</ele><time>2015-04-30T11:40:01.0000000+00:00</time></trkpt><trkpt lat="34.8967342" lon="32.9357993"><ele>820.1</ele><time>2015-04-30T11:40:02.0000000+00:00</time></trkpt><trkpt lat="34.8966398" lon="32.9357686"><ele>819.4</ele><time>2015-04-30T11:40:03.0000000+00:00</time></trkpt><trkpt lat="34.8965445" lon="32.9357396"><ele>818.6</ele><time>2015-04-30T11:40:04.0000000+00:00</time></trkpt><trkpt lat="34.8964492" lon="32.9357067"><ele>817.7</ele><time>2015-04-30T11:40:05.0000000+00:00</time></trkpt><trkpt lat="34.8963529" lon="32.9356709"><ele>816.7</ele><time>2015-04-30T11:40:06.0000000+00:00</time></trkpt><trkpt lat="34.8962427" lon="32.9356336"><ele>816.2</ele><time>2015-04-30T11:40:07.0000000+00:00</time></trkpt><trkpt lat="34.8961421" lon="32.9355901"><ele>815.5</ele><time>2015-04-30T11:40:08.0000000+00:00</time></trkpt><trkpt lat="34.8960454" lon="32.935555"><ele>814.6</ele><time>2015-04-30T11:40:09.0000000+00:00</time></trkpt><trkpt lat="34.8959405" lon="32.9355218"><ele>813.7</ele><time>2015-04-30T11:40:10.0000000+00:00</time></trkpt><trkpt lat="34.8958416" lon="32.9354897"><ele>813.2</ele><time>2015-04-30T11:40:11.0000000+00:00</time></trkpt><trkpt lat="34.8957405" lon="32.9354691"><ele>813.0</ele><time>2015-04-30T11:40:12.0000000+00:00</time></trkpt><trkpt lat="34.8956482" lon="32.9354554"><ele>812.9</ele><time>2015-04-30T11:40:13.0000000+00:00</time></trkpt><trkpt lat="34.8955581" lon="32.9354589"><ele>812.3</ele><time>2015-04-30T11:40:14.0000000+00:00</time></trkpt><trkpt lat="34.8954572" lon="32.9354805"><ele>812.0</ele><time>2015-04-30T11:40:15.0000000+00:00</time></trkpt><trkpt lat="34.8953702" lon="32.9355162"><ele>811.4</ele><time>2015-04-30T11:40:16.0000000+00:00</time></trkpt><trkpt lat="34.8952898" lon="32.9355541"><ele>811.1</ele><time>2015-04-30T11:40:17.0000000+00:00</time></trkpt><trkpt lat="34.8952046" lon="32.9356034"><ele>810.4</ele><time>2015-04-30T11:40:18.0000000+00:00</time></trkpt><trkpt lat="34.8951291" lon="32.9356516"><ele>809.6</ele><time>2015-04-30T11:40:19.0000000+00:00</time></trkpt><trkpt lat="34.8950459" lon="32.9357108"><ele>809.2</ele><time>2015-04-30T11:40:20.0000000+00:00</time></trkpt><trkpt lat="34.8949704" lon="32.9357617"><ele>809.0</ele><time>2015-04-30T11:40:21.0000000+00:00</time></trkpt><trkpt lat="34.8948886" lon="32.9358196"><ele>808.9</ele><time>2015-04-30T11:40:22.0000000+00:00</time></trkpt><trkpt lat="34.894812" lon="32.9358721"><ele>808.3</ele><time>2015-04-30T11:40:23.0000000+00:00</time></trkpt><trkpt lat="34.8947278" lon="32.935925"><ele>807.5</ele><time>2015-04-30T11:40:24.0000000+00:00</time></trkpt><trkpt lat="34.8946424" lon="32.9359712"><ele>807.2</ele><time>2015-04-30T11:40:25.0000000+00:00</time></trkpt><trkpt lat="34.8945589" lon="32.9360205"><ele>806.5</ele><time>2015-04-30T11:40:26.0000000+00:00</time></trkpt><trkpt lat="34.8944926" lon="32.9360604"><ele>806.1</ele><time>2015-04-30T11:40:27.0000000+00:00</time></trkpt><trkpt lat="34.8944244" lon="32.9360869"><ele>805.4</ele><time>2015-04-30T11:40:28.0000000+00:00</time></trkpt><trkpt lat="34.8943572" lon="32.9361025"><ele>805.6</ele><time>2015-04-30T11:40:29.0000000+00:00</time></trkpt><trkpt lat="34.8942732" lon="32.9361176"><ele>805.2</ele><time>2015-04-30T11:40:30.0000000+00:00</time></trkpt><trkpt lat="34.8941958" lon="32.9361176"><ele>804.0</ele><time>2015-04-30T11:40:31.0000000+00:00</time></trkpt><trkpt lat="34.8941078" lon="32.9361278"><ele>802.9</ele><time>2015-04-30T11:40:32.0000000+00:00</time></trkpt><trkpt lat="34.8940263" lon="32.9361286"><ele>802.3</ele><time>2015-04-30T11:40:33.0000000+00:00</time></trkpt><trkpt lat="34.8939417" lon="32.9361271"><ele>802.0</ele><time>2015-04-30T11:40:34.0000000+00:00</time></trkpt><trkpt lat="34.8938534" lon="32.9361145"><ele>801.9</ele><time>2015-04-30T11:40:35.0000000+00:00</time></trkpt><trkpt lat="34.8937632" lon="32.9360988"><ele>801.8</ele><time>2015-04-30T11:40:36.0000000+00:00</time></trkpt><trkpt lat="34.8936806" lon="32.9360746"><ele>801.8</ele><time>2015-04-30T11:40:37.0000000+00:00</time></trkpt><trkpt lat="34.8935956" lon="32.9360462"><ele>801.8</ele><time>2015-04-30T11:40:38.0000000+00:00</time></trkpt><trkpt lat="34.8935078" lon="32.936008"><ele>801.8</ele><time>2015-04-30T11:40:39.0000000+00:00</time></trkpt><trkpt lat="34.8934182" lon="32.9359767"><ele>801.8</ele><time>2015-04-30T11:40:40.0000000+00:00</time></trkpt><trkpt lat="34.8933228" lon="32.9359456"><ele>801.8</ele><time>2015-04-30T11:40:41.0000000+00:00</time></trkpt><trkpt lat="34.8932318" lon="32.9359074"><ele>801.8</ele><time>2015-04-30T11:40:42.0000000+00:00</time></trkpt><trkpt lat="34.8931373" lon="32.9358713"><ele>801.8</ele><time>2015-04-30T11:40:43.0000000+00:00</time></trkpt><trkpt lat="34.8930459" lon="32.9358275"><ele>801.3</ele><time>2015-04-30T11:40:44.0000000+00:00</time></trkpt><trkpt lat="34.8929508" lon="32.9357788"><ele>800.5</ele><time>2015-04-30T11:40:45.0000000+00:00</time></trkpt><trkpt lat="34.8928602" lon="32.9357417"><ele>799.6</ele><time>2015-04-30T11:40:46.0000000+00:00</time></trkpt><trkpt lat="34.8927599" lon="32.935717"><ele>799.2</ele><time>2015-04-30T11:40:47.0000000+00:00</time></trkpt><trkpt lat="34.8926596" lon="32.9356918"><ele>798.5</ele><time>2015-04-30T11:40:48.0000000+00:00</time></trkpt><trkpt lat="34.8925695" lon="32.9356816"><ele>797.6</ele><time>2015-04-30T11:40:49.0000000+00:00</time></trkpt><trkpt lat="34.8924826" lon="32.9356643"><ele>796.7</ele><time>2015-04-30T11:40:50.0000000+00:00</time></trkpt><trkpt lat="34.8923939" lon="32.9356577"><ele>795.7</ele><time>2015-04-30T11:40:51.0000000+00:00</time></trkpt><trkpt lat="34.8923048" lon="32.9356567"><ele>794.7</ele><time>2015-04-30T11:40:52.0000000+00:00</time></trkpt><trkpt lat="34.8922241" lon="32.9356586"><ele>793.8</ele><time>2015-04-30T11:40:53.0000000+00:00</time></trkpt><trkpt lat="34.8921387" lon="32.9356535"><ele>793.3</ele><time>2015-04-30T11:40:54.0000000+00:00</time></trkpt><trkpt lat="34.8920575" lon="32.9356453"><ele>793.0</ele><time>2015-04-30T11:40:55.0000000+00:00</time></trkpt><trkpt lat="34.8919737" lon="32.9356385"><ele>792.9</ele><time>2015-04-30T11:40:56.0000000+00:00</time></trkpt><trkpt lat="34.8918926" lon="32.9356353"><ele>792.8</ele><time>2015-04-30T11:40:57.0000000+00:00</time></trkpt><trkpt lat="34.8918141" lon="32.9356309"><ele>792.3</ele><time>2015-04-30T11:40:58.0000000+00:00</time></trkpt><trkpt lat="34.8917372" lon="32.9356277"><ele>792.0</ele><time>2015-04-30T11:40:59.0000000+00:00</time></trkpt><trkpt lat="34.8916534" lon="32.9356209"><ele>791.4</ele><time>2015-04-30T11:41:00.0000000+00:00</time></trkpt><trkpt lat="34.8915739" lon="32.9356172"><ele>791.1</ele><time>2015-04-30T11:41:01.0000000+00:00</time></trkpt><trkpt lat="34.8914945" lon="32.9356117"><ele>790.9</ele><time>2015-04-30T11:41:02.0000000+00:00</time></trkpt><trkpt lat="34.8914173" lon="32.9356102"><ele>790.8</ele><time>2015-04-30T11:41:03.0000000+00:00</time></trkpt><trkpt lat="34.8913399" lon="32.9356047"><ele>790.3</ele><time>2015-04-30T11:41:04.0000000+00:00</time></trkpt><trkpt lat="34.8912687" lon="32.935598"><ele>789.5</ele><time>2015-04-30T11:41:05.0000000+00:00</time></trkpt><trkpt lat="34.8911903" lon="32.9355907"><ele>789.1</ele><time>2015-04-30T11:41:06.0000000+00:00</time></trkpt><trkpt lat="34.8911096" lon="32.9355908"><ele>789.0</ele><time>2015-04-30T11:41:07.0000000+00:00</time></trkpt><trkpt lat="34.8910274" lon="32.9356034"><ele>788.9</ele><time>2015-04-30T11:41:08.0000000+00:00</time></trkpt><trkpt lat="34.8909524" lon="32.9356106"><ele>788.3</ele><time>2015-04-30T11:41:09.0000000+00:00</time></trkpt><trkpt lat="34.8908768" lon="32.9356301"><ele>788.0</ele><time>2015-04-30T11:41:10.0000000+00:00</time></trkpt><trkpt lat="34.8908025" lon="32.9356554"><ele>787.9</ele><time>2015-04-30T11:41:11.0000000+00:00</time></trkpt><trkpt lat="34.8907345" lon="32.9356738"><ele>787.3</ele><time>2015-04-30T11:41:12.0000000+00:00</time></trkpt><trkpt lat="34.8906666" lon="32.9356879"><ele>786.5</ele><time>2015-04-30T11:41:13.0000000+00:00</time></trkpt><trkpt lat="34.8905925" lon="32.9356968"><ele>786.2</ele><time>2015-04-30T11:41:14.0000000+00:00</time></trkpt><trkpt lat="34.8905239" lon="32.9357031"><ele>786.5</ele><time>2015-04-30T11:41:15.0000000+00:00</time></trkpt><trkpt lat="34.8904538" lon="32.9356997"><ele>786.6</ele><time>2015-04-30T11:41:16.0000000+00:00</time></trkpt><trkpt lat="34.8903943" lon="32.9356861"><ele>787.2</ele><time>2015-04-30T11:41:17.0000000+00:00</time></trkpt><trkpt lat="34.8903335" lon="32.9356596"><ele>787.5</ele><time>2015-04-30T11:41:18.0000000+00:00</time></trkpt><trkpt lat="34.8902836" lon="32.9356228"><ele>787.1</ele><time>2015-04-30T11:41:19.0000000+00:00</time></trkpt><trkpt lat="34.8902346" lon="32.9355748"><ele>786.9</ele><time>2015-04-30T11:41:20.0000000+00:00</time></trkpt><trkpt lat="34.8901981" lon="32.9355249"><ele>786.9</ele><time>2015-04-30T11:41:21.0000000+00:00</time></trkpt><trkpt lat="34.8901547" lon="32.9354695"><ele>786.8</ele><time>2015-04-30T11:41:22.0000000+00:00</time></trkpt><trkpt lat="34.8901175" lon="32.9354138"><ele>786.8</ele><time>2015-04-30T11:41:23.0000000+00:00</time></trkpt><trkpt lat="34.8900748" lon="32.9353542"><ele>786.3</ele><time>2015-04-30T11:41:24.0000000+00:00</time></trkpt><trkpt lat="34.8900361" lon="32.9352967"><ele>786.0</ele><time>2015-04-30T11:41:25.0000000+00:00</time></trkpt><trkpt lat="34.8899985" lon="32.9352371"><ele>785.9</ele><time>2015-04-30T11:41:26.0000000+00:00</time></trkpt><trkpt lat="34.8899626" lon="32.9351855"><ele>785.3</ele><time>2015-04-30T11:41:27.0000000+00:00</time></trkpt><trkpt lat="34.8899279" lon="32.9351238"><ele>785.0</ele><time>2015-04-30T11:41:28.0000000+00:00</time></trkpt><trkpt lat="34.8898981" lon="32.9350616"><ele>784.9</ele><time>2015-04-30T11:41:29.0000000+00:00</time></trkpt><trkpt lat="34.8898661" lon="32.9349971"><ele>784.8</ele><time>2015-04-30T11:41:30.0000000+00:00</time></trkpt><trkpt lat="34.8898291" lon="32.9349325"><ele>784.8</ele><time>2015-04-30T11:41:31.0000000+00:00</time></trkpt><trkpt lat="34.8897956" lon="32.9348631"><ele>784.8</ele><time>2015-04-30T11:41:32.0000000+00:00</time></trkpt><trkpt lat="34.8897755" lon="32.9347945"><ele>784.8</ele><time>2015-04-30T11:41:33.0000000+00:00</time></trkpt><trkpt lat="34.8897541" lon="32.9347165"><ele>784.8</ele><time>2015-04-30T11:41:34.0000000+00:00</time></trkpt><trkpt lat="34.889739" lon="32.9346327"><ele>784.8</ele><time>2015-04-30T11:41:35.0000000+00:00</time></trkpt><trkpt lat="34.8897247" lon="32.934545"><ele>784.8</ele><time>2015-04-30T11:41:36.0000000+00:00</time></trkpt><trkpt lat="34.8897253" lon="32.9344613"><ele>784.8</ele><time>2015-04-30T11:41:37.0000000+00:00</time></trkpt><trkpt lat="34.8897242" lon="32.9343691"><ele>784.3</ele><time>2015-04-30T11:41:38.0000000+00:00</time></trkpt><trkpt lat="34.8897244" lon="32.934273"><ele>784.0</ele><time>2015-04-30T11:41:39.0000000+00:00</time></trkpt><trkpt lat="34.8897267" lon="32.9341713"><ele>783.9</ele><time>2015-04-30T11:41:40.0000000+00:00</time></trkpt><trkpt lat="34.8897359" lon="32.9340727"><ele>783.3</ele><time>2015-04-30T11:41:41.0000000+00:00</time></trkpt><trkpt lat="34.8897336" lon="32.9339685"><ele>783.0</ele><time>2015-04-30T11:41:42.0000000+00:00</time></trkpt><trkpt lat="34.8897307" lon="32.9338614"><ele>782.4</ele><time>2015-04-30T11:41:43.0000000+00:00</time></trkpt><trkpt lat="34.8897131" lon="32.9337603"><ele>782.1</ele><time>2015-04-30T11:41:44.0000000+00:00</time></trkpt><trkpt lat="34.8896839" lon="32.9336671"><ele>781.9</ele><time>2015-04-30T11:41:45.0000000+00:00</time></trkpt><trkpt lat="34.8896417" lon="32.933579"><ele>781.8</ele><time>2015-04-30T11:41:46.0000000+00:00</time></trkpt><trkpt lat="34.8895922" lon="32.9334884"><ele>781.8</ele><time>2015-04-30T11:41:47.0000000+00:00</time></trkpt><trkpt lat="34.8895321" lon="32.9333938"><ele>781.8</ele><time>2015-04-30T11:41:48.0000000+00:00</time></trkpt><trkpt lat="34.8894717" lon="32.9333086"><ele>781.3</ele><time>2015-04-30T11:41:49.0000000+00:00</time></trkpt><trkpt lat="34.8894017" lon="32.9332249"><ele>781.0</ele><time>2015-04-30T11:41:50.0000000+00:00</time></trkpt><trkpt lat="34.8893202" lon="32.9331439"><ele>780.4</ele><time>2015-04-30T11:41:51.0000000+00:00</time></trkpt><trkpt lat="34.8892314" lon="32.9330659"><ele>780.1</ele><time>2015-04-30T11:41:52.0000000+00:00</time></trkpt><trkpt lat="34.8891342" lon="32.9329967"><ele>779.9</ele><time>2015-04-30T11:41:53.0000000+00:00</time></trkpt><trkpt lat="34.8890396" lon="32.9329318"><ele>779.3</ele><time>2015-04-30T11:41:54.0000000+00:00</time></trkpt><trkpt lat="34.8889316" lon="32.9328565"><ele>779.1</ele><time>2015-04-30T11:41:55.0000000+00:00</time></trkpt><trkpt lat="34.8888266" lon="32.9327808"><ele>777.9</ele><time>2015-04-30T11:41:56.0000000+00:00</time></trkpt><trkpt lat="34.888728" lon="32.9327073"><ele>777.3</ele><time>2015-04-30T11:41:57.0000000+00:00</time></trkpt><trkpt lat="34.8886206" lon="32.9326377"><ele>776.1</ele><time>2015-04-30T11:41:58.0000000+00:00</time></trkpt><trkpt lat="34.8885067" lon="32.9325856"><ele>774.9</ele><time>2015-04-30T11:41:59.0000000+00:00</time></trkpt><trkpt lat="34.8883754" lon="32.9325555"><ele>774.3</ele><time>2015-04-30T11:42:00.0000000+00:00</time></trkpt><trkpt lat="34.8882633" lon="32.9325374"><ele>773.6</ele><time>2015-04-30T11:42:01.0000000+00:00</time></trkpt><trkpt lat="34.8881524" lon="32.9325247"><ele>772.7</ele><time>2015-04-30T11:42:02.0000000+00:00</time></trkpt><trkpt lat="34.8880431" lon="32.9325142"><ele>771.2</ele><time>2015-04-30T11:42:03.0000000+00:00</time></trkpt><trkpt lat="34.8879381" lon="32.9325049"><ele>770.0</ele><time>2015-04-30T11:42:04.0000000+00:00</time></trkpt><trkpt lat="34.887833" lon="32.9324886"><ele>769.4</ele><time>2015-04-30T11:42:05.0000000+00:00</time></trkpt><trkpt lat="34.8877203" lon="32.9324644"><ele>768.6</ele><time>2015-04-30T11:42:06.0000000+00:00</time></trkpt><trkpt lat="34.8876164" lon="32.9324323"><ele>767.7</ele><time>2015-04-30T11:42:07.0000000+00:00</time></trkpt><trkpt lat="34.8874999" lon="32.9323839"><ele>766.7</ele><time>2015-04-30T11:42:08.0000000+00:00</time></trkpt><trkpt lat="34.8873892" lon="32.932336"><ele>765.7</ele><time>2015-04-30T11:42:09.0000000+00:00</time></trkpt><trkpt lat="34.8872783" lon="32.9322823"><ele>764.3</ele><time>2015-04-30T11:42:10.0000000+00:00</time></trkpt><trkpt lat="34.8871609" lon="32.932215"><ele>762.5</ele><time>2015-04-30T11:42:11.0000000+00:00</time></trkpt><trkpt lat="34.88703" lon="32.932144"><ele>761.1</ele><time>2015-04-30T11:42:12.0000000+00:00</time></trkpt><trkpt lat="34.8869006" lon="32.9320828"><ele>760.0</ele><time>2015-04-30T11:42:13.0000000+00:00</time></trkpt><trkpt lat="34.8867745" lon="32.9320276"><ele>758.9</ele><time>2015-04-30T11:42:14.0000000+00:00</time></trkpt><trkpt lat="34.8866553" lon="32.9319697"><ele>757.8</ele><time>2015-04-30T11:42:15.0000000+00:00</time></trkpt><trkpt lat="34.8865459" lon="32.9319089"><ele>756.8</ele><time>2015-04-30T11:42:16.0000000+00:00</time></trkpt><trkpt lat="34.886436" lon="32.9318555"><ele>755.3</ele><time>2015-04-30T11:42:17.0000000+00:00</time></trkpt><trkpt lat="34.8863299" lon="32.9318104"><ele>754.0</ele><time>2015-04-30T11:42:18.0000000+00:00</time></trkpt><trkpt lat="34.8862262" lon="32.9317558"><ele>752.4</ele><time>2015-04-30T11:42:19.0000000+00:00</time></trkpt><trkpt lat="34.8861123" lon="32.9316922"><ele>751.1</ele><time>2015-04-30T11:42:20.0000000+00:00</time></trkpt><trkpt lat="34.8860108" lon="32.9316312"><ele>749.9</ele><time>2015-04-30T11:42:21.0000000+00:00</time></trkpt><trkpt lat="34.8859182" lon="32.9315716"><ele>748.8</ele><time>2015-04-30T11:42:22.0000000+00:00</time></trkpt><trkpt lat="34.8858274" lon="32.9315138"><ele>747.8</ele><time>2015-04-30T11:42:23.0000000+00:00</time></trkpt><trkpt lat="34.8857606" lon="32.9314382"><ele>746.8</ele><time>2015-04-30T11:42:24.0000000+00:00</time></trkpt><trkpt lat="34.885706" lon="32.9313459"><ele>745.8</ele><time>2015-04-30T11:42:25.0000000+00:00</time></trkpt><trkpt lat="34.8856543" lon="32.9312435"><ele>744.8</ele><time>2015-04-30T11:42:26.0000000+00:00</time></trkpt><trkpt lat="34.8856083" lon="32.9311318"><ele>743.3</ele><time>2015-04-30T11:42:27.0000000+00:00</time></trkpt><trkpt lat="34.8855647" lon="32.93101"><ele>742.0</ele><time>2015-04-30T11:42:28.0000000+00:00</time></trkpt><trkpt lat="34.8855313" lon="32.930883"><ele>740.9</ele><time>2015-04-30T11:42:29.0000000+00:00</time></trkpt><trkpt lat="34.8855032" lon="32.9307572"><ele>739.8</ele><time>2015-04-30T11:42:30.0000000+00:00</time></trkpt><trkpt lat="34.8854809" lon="32.9306286"><ele>738.3</ele><time>2015-04-30T11:42:31.0000000+00:00</time></trkpt><trkpt lat="34.8854577" lon="32.9304913"><ele>737.0</ele><time>2015-04-30T11:42:32.0000000+00:00</time></trkpt><trkpt lat="34.8854378" lon="32.930364"><ele>735.9</ele><time>2015-04-30T11:42:33.0000000+00:00</time></trkpt><trkpt lat="34.8854172" lon="32.9302315"><ele>735.3</ele><time>2015-04-30T11:42:34.0000000+00:00</time></trkpt><trkpt lat="34.8853908" lon="32.9301012"><ele>734.5</ele><time>2015-04-30T11:42:35.0000000+00:00</time></trkpt><trkpt lat="34.8853639" lon="32.9299683"><ele>734.2</ele><time>2015-04-30T11:42:36.0000000+00:00</time></trkpt><trkpt lat="34.8853476" lon="32.9298413"><ele>734.0</ele><time>2015-04-30T11:42:37.0000000+00:00</time></trkpt><trkpt lat="34.8853326" lon="32.929711"><ele>733.4</ele><time>2015-04-30T11:42:38.0000000+00:00</time></trkpt><trkpt lat="34.8853167" lon="32.929583"><ele>733.1</ele><time>2015-04-30T11:42:39.0000000+00:00</time></trkpt><trkpt lat="34.8853002" lon="32.929452"><ele>732.9</ele><time>2015-04-30T11:42:40.0000000+00:00</time></trkpt><trkpt lat="34.885282" lon="32.9293311"><ele>732.8</ele><time>2015-04-30T11:42:41.0000000+00:00</time></trkpt><trkpt lat="34.8852648" lon="32.9292063"><ele>732.3</ele><time>2015-04-30T11:42:42.0000000+00:00</time></trkpt><trkpt lat="34.8852465" lon="32.929088"><ele>732.0</ele><time>2015-04-30T11:42:43.0000000+00:00</time></trkpt><trkpt lat="34.8852266" lon="32.9289684"><ele>731.9</ele><time>2015-04-30T11:42:44.0000000+00:00</time></trkpt><trkpt lat="34.8852002" lon="32.9288564"><ele>731.8</ele><time>2015-04-30T11:42:45.0000000+00:00</time></trkpt><trkpt lat="34.8851648" lon="32.928745"><ele>731.3</ele><time>2015-04-30T11:42:46.0000000+00:00</time></trkpt><trkpt lat="34.8851181" lon="32.9286381"><ele>731.0</ele><time>2015-04-30T11:42:47.0000000+00:00</time></trkpt><trkpt lat="34.8850669" lon="32.9285377"><ele>730.4</ele><time>2015-04-30T11:42:48.0000000+00:00</time></trkpt><trkpt lat="34.8850212" lon="32.9284408"><ele>730.1</ele><time>2015-04-30T11:42:49.0000000+00:00</time></trkpt><trkpt lat="34.8849658" lon="32.928345"><ele>729.4</ele><time>2015-04-30T11:42:50.0000000+00:00</time></trkpt><trkpt lat="34.8849135" lon="32.9282542"><ele>729.1</ele><time>2015-04-30T11:42:51.0000000+00:00</time></trkpt><trkpt lat="34.8848609" lon="32.9281486"><ele>729.4</ele><time>2015-04-30T11:42:52.0000000+00:00</time></trkpt><trkpt lat="34.8848037" lon="32.9280638"><ele>729.6</ele><time>2015-04-30T11:42:53.0000000+00:00</time></trkpt><trkpt lat="34.8847486" lon="32.9279705"><ele>729.2</ele><time>2015-04-30T11:42:54.0000000+00:00</time></trkpt><trkpt lat="34.8846838" lon="32.9278854"><ele>729.0</ele><time>2015-04-30T11:42:55.0000000+00:00</time></trkpt><trkpt lat="34.8846254" lon="32.9278011"><ele>728.4</ele><time>2015-04-30T11:42:56.0000000+00:00</time></trkpt><trkpt lat="34.8845584" lon="32.927729"><ele>728.1</ele><time>2015-04-30T11:42:57.0000000+00:00</time></trkpt><trkpt lat="34.8844893" lon="32.9276604"><ele>727.9</ele><time>2015-04-30T11:42:58.0000000+00:00</time></trkpt><trkpt lat="34.8844131" lon="32.9276042"><ele>727.8</ele><time>2015-04-30T11:42:59.0000000+00:00</time></trkpt><trkpt lat="34.8843377" lon="32.927559"><ele>728.3</ele><time>2015-04-30T11:43:00.0000000+00:00</time></trkpt><trkpt lat="34.8842618" lon="32.9275187"><ele>728.0</ele><time>2015-04-30T11:43:01.0000000+00:00</time></trkpt><trkpt lat="34.8841851" lon="32.927491"><ele>727.9</ele><time>2015-04-30T11:43:02.0000000+00:00</time></trkpt><trkpt lat="34.884108" lon="32.9274609"><ele>727.8</ele><time>2015-04-30T11:43:03.0000000+00:00</time></trkpt><trkpt lat="34.8840358" lon="32.9274272"><ele>727.8</ele><time>2015-04-30T11:43:04.0000000+00:00</time></trkpt><trkpt lat="34.8839757" lon="32.9273881"><ele>727.8</ele><time>2015-04-30T11:43:05.0000000+00:00</time></trkpt><trkpt lat="34.8839128" lon="32.9273465"><ele>727.8</ele><time>2015-04-30T11:43:06.0000000+00:00</time></trkpt><trkpt lat="34.8838508" lon="32.9273049"><ele>727.8</ele><time>2015-04-30T11:43:07.0000000+00:00</time></trkpt><trkpt lat="34.8837858" lon="32.927261"><ele>727.8</ele><time>2015-04-30T11:43:08.0000000+00:00</time></trkpt><trkpt lat="34.8837254" lon="32.9272201"><ele>727.8</ele><time>2015-04-30T11:43:09.0000000+00:00</time></trkpt><trkpt lat="34.8836583" lon="32.9271767"><ele>727.8</ele><time>2015-04-30T11:43:10.0000000+00:00</time></trkpt><trkpt lat="34.8835897" lon="32.9271373"><ele>727.8</ele><time>2015-04-30T11:43:11.0000000+00:00</time></trkpt><trkpt lat="34.8835258" lon="32.9270989"><ele>727.3</ele><time>2015-04-30T11:43:12.0000000+00:00</time></trkpt><trkpt lat="34.8834659" lon="32.927073"><ele>727.0</ele><time>2015-04-30T11:43:13.0000000+00:00</time></trkpt><trkpt lat="34.883391" lon="32.9270495"><ele>726.4</ele><time>2015-04-30T11:43:14.0000000+00:00</time></trkpt><trkpt lat="34.8833259" lon="32.9270327"><ele>726.1</ele><time>2015-04-30T11:43:15.0000000+00:00</time></trkpt><trkpt lat="34.8832587" lon="32.9270223"><ele>725.4</ele><time>2015-04-30T11:43:16.0000000+00:00</time></trkpt><trkpt lat="34.8831933" lon="32.9270148"><ele>725.1</ele><time>2015-04-30T11:43:17.0000000+00:00</time></trkpt><trkpt lat="34.8831231" lon="32.92701"><ele>724.9</ele><time>2015-04-30T11:43:18.0000000+00:00</time></trkpt><trkpt lat="34.8830586" lon="32.9270176"><ele>724.8</ele><time>2015-04-30T11:43:19.0000000+00:00</time></trkpt><trkpt lat="34.882986" lon="32.927018"><ele>724.8</ele><time>2015-04-30T11:43:20.0000000+00:00</time></trkpt><trkpt lat="34.8829218" lon="32.9270136"><ele>724.3</ele><time>2015-04-30T11:43:21.0000000+00:00</time></trkpt><trkpt lat="34.8828561" lon="32.9270194"><ele>724.0</ele><time>2015-04-30T11:43:22.0000000+00:00</time></trkpt><trkpt lat="34.8827933" lon="32.9270306"><ele>723.9</ele><time>2015-04-30T11:43:23.0000000+00:00</time></trkpt><trkpt lat="34.8827281" lon="32.927031"><ele>723.3</ele><time>2015-04-30T11:43:24.0000000+00:00</time></trkpt><trkpt lat="34.8826668" lon="32.9270336"><ele>723.0</ele><time>2015-04-30T11:43:25.0000000+00:00</time></trkpt><trkpt lat="34.8826049" lon="32.9270304"><ele>722.9</ele><time>2015-04-30T11:43:26.0000000+00:00</time></trkpt><trkpt lat="34.88254" lon="32.9270273"><ele>722.8</ele><time>2015-04-30T11:43:27.0000000+00:00</time></trkpt><trkpt lat="34.8824737" lon="32.9270191"><ele>722.8</ele><time>2015-04-30T11:43:28.0000000+00:00</time></trkpt><trkpt lat="34.8824138" lon="32.9270054"><ele>722.3</ele><time>2015-04-30T11:43:29.0000000+00:00</time></trkpt><trkpt lat="34.8823576" lon="32.9269882"><ele>722.0</ele><time>2015-04-30T11:43:30.0000000+00:00</time></trkpt><trkpt lat="34.8823028" lon="32.9269701"><ele>721.9</ele><time>2015-04-30T11:43:31.0000000+00:00</time></trkpt><trkpt lat="34.8822497" lon="32.9269525"><ele>721.8</ele><time>2015-04-30T11:43:32.0000000+00:00</time></trkpt><trkpt lat="34.8822001" lon="32.9269328"><ele>721.3</ele><time>2015-04-30T11:43:33.0000000+00:00</time></trkpt><trkpt lat="34.8821456" lon="32.9269108"><ele>721.0</ele><time>2015-04-30T11:43:34.0000000+00:00</time></trkpt><trkpt lat="34.882097" lon="32.9268861"><ele>720.9</ele><time>2015-04-30T11:43:35.0000000+00:00</time></trkpt><trkpt lat="34.8820507" lon="32.9268585"><ele>720.8</ele><time>2015-04-30T11:43:36.0000000+00:00</time></trkpt><trkpt lat="34.8820075" lon="32.9268323"><ele>720.8</ele><time>2015-04-30T11:43:37.0000000+00:00</time></trkpt><trkpt lat="34.8819607" lon="32.9268079"><ele>720.8</ele><time>2015-04-30T11:43:38.0000000+00:00</time></trkpt><trkpt lat="34.8819096" lon="32.926781"><ele>720.3</ele><time>2015-04-30T11:43:39.0000000+00:00</time></trkpt><trkpt lat="34.8818628" lon="32.9267552"><ele>720.0</ele><time>2015-04-30T11:43:40.0000000+00:00</time></trkpt><trkpt lat="34.8818116" lon="32.926734"><ele>719.4</ele><time>2015-04-30T11:43:41.0000000+00:00</time></trkpt><trkpt lat="34.881761" lon="32.9267127"><ele>719.1</ele><time>2015-04-30T11:43:42.0000000+00:00</time></trkpt><trkpt lat="34.8817118" lon="32.9266984"><ele>718.9</ele><time>2015-04-30T11:43:43.0000000+00:00</time></trkpt><trkpt lat="34.881656" lon="32.9266938"><ele>718.3</ele><time>2015-04-30T11:43:44.0000000+00:00</time></trkpt><trkpt lat="34.8815987" lon="32.9266895"><ele>718.6</ele><time>2015-04-30T11:43:45.0000000+00:00</time></trkpt><trkpt lat="34.8815483" lon="32.9266812"><ele>718.2</ele><time>2015-04-30T11:43:46.0000000+00:00</time></trkpt><trkpt lat="34.8814921" lon="32.926682"><ele>718.0</ele><time>2015-04-30T11:43:47.0000000+00:00</time></trkpt><trkpt lat="34.8814417" lon="32.9266842"><ele>717.4</ele><time>2015-04-30T11:43:48.0000000+00:00</time></trkpt><trkpt lat="34.8813892" lon="32.9266857"><ele>717.1</ele><time>2015-04-30T11:43:49.0000000+00:00</time></trkpt><trkpt lat="34.8813379" lon="32.9266844"><ele>716.4</ele><time>2015-04-30T11:43:50.0000000+00:00</time></trkpt><trkpt lat="34.8812887" lon="32.9266858"><ele>716.1</ele><time>2015-04-30T11:43:51.0000000+00:00</time></trkpt><trkpt lat="34.8812415" lon="32.9266785"><ele>715.9</ele><time>2015-04-30T11:43:52.0000000+00:00</time></trkpt><trkpt lat="34.8811929" lon="32.9266757"><ele>715.8</ele><time>2015-04-30T11:43:53.0000000+00:00</time></trkpt><trkpt lat="34.8811406" lon="32.9266697"><ele>715.8</ele><time>2015-04-30T11:43:54.0000000+00:00</time></trkpt><trkpt lat="34.8810921" lon="32.9266692"><ele>715.8</ele><time>2015-04-30T11:43:55.0000000+00:00</time></trkpt><trkpt lat="34.8810443" lon="32.9266646"><ele>716.3</ele><time>2015-04-30T11:43:56.0000000+00:00</time></trkpt><trkpt lat="34.8809656" lon="32.9266465"><ele>715.9</ele><time>2015-04-30T11:43:58.0000000+00:00</time></trkpt><trkpt lat="34.8809177" lon="32.926631"><ele>716.3</ele><time>2015-04-30T11:43:59.0000000+00:00</time></trkpt><trkpt lat="34.88084" lon="32.9266064"><ele>716.7</ele><time>2015-04-30T11:44:01.0000000+00:00</time></trkpt><trkpt lat="34.8807575" lon="32.9265638"><ele>716.7</ele><time>2015-04-30T11:44:03.0000000+00:00</time></trkpt><trkpt lat="34.8807169" lon="32.9265383"><ele>716.8</ele><time>2015-04-30T11:44:04.0000000+00:00</time></trkpt><trkpt lat="34.880678" lon="32.9265061"><ele>716.8</ele><time>2015-04-30T11:44:05.0000000+00:00</time></trkpt><trkpt lat="34.880646" lon="32.9264646"><ele>716.8</ele><time>2015-04-30T11:44:06.0000000+00:00</time></trkpt><trkpt lat="34.8806159" lon="32.9264122"><ele>716.3</ele><time>2015-04-30T11:44:07.0000000+00:00</time></trkpt><trkpt lat="34.8805794" lon="32.9263582"><ele>716.0</ele><time>2015-04-30T11:44:08.0000000+00:00</time></trkpt><trkpt lat="34.8805493" lon="32.9262973"><ele>715.9</ele><time>2015-04-30T11:44:09.0000000+00:00</time></trkpt><trkpt lat="34.8805172" lon="32.9262422"><ele>715.8</ele><time>2015-04-30T11:44:10.0000000+00:00</time></trkpt><trkpt lat="34.880495" lon="32.9261862"><ele>715.3</ele><time>2015-04-30T11:44:11.0000000+00:00</time></trkpt><trkpt lat="34.8804747" lon="32.9261334"><ele>715.0</ele><time>2015-04-30T11:44:12.0000000+00:00</time></trkpt><trkpt lat="34.8804534" lon="32.9260442"><ele>714.8</ele><time>2015-04-30T11:44:14.0000000+00:00</time></trkpt><trkpt lat="34.8804446" lon="32.9259383"><ele>714.8</ele><time>2015-04-30T11:44:16.0000000+00:00</time></trkpt><trkpt lat="34.8804384" lon="32.9258774"><ele>714.3</ele><time>2015-04-30T11:44:17.0000000+00:00</time></trkpt><trkpt lat="34.8804345" lon="32.9258173"><ele>714.0</ele><time>2015-04-30T11:44:18.0000000+00:00</time></trkpt><trkpt lat="34.8804357" lon="32.9257546"><ele>713.9</ele><time>2015-04-30T11:44:19.0000000+00:00</time></trkpt><trkpt lat="34.8804398" lon="32.9256776"><ele>713.3</ele><time>2015-04-30T11:44:20.0000000+00:00</time></trkpt><trkpt lat="34.8804463" lon="32.9255961"><ele>713.0</ele><time>2015-04-30T11:44:21.0000000+00:00</time></trkpt><trkpt lat="34.8804639" lon="32.9255076"><ele>712.4</ele><time>2015-04-30T11:44:22.0000000+00:00</time></trkpt><trkpt lat="34.8804708" lon="32.9254066"><ele>711.6</ele><time>2015-04-30T11:44:23.0000000+00:00</time></trkpt><trkpt lat="34.8804804" lon="32.925302"><ele>710.7</ele><time>2015-04-30T11:44:24.0000000+00:00</time></trkpt><trkpt lat="34.8804862" lon="32.9252042"><ele>710.2</ele><time>2015-04-30T11:44:25.0000000+00:00</time></trkpt><trkpt lat="34.8804879" lon="32.9250961"><ele>709.0</ele><time>2015-04-30T11:44:26.0000000+00:00</time></trkpt><trkpt lat="34.880477" lon="32.9249885"><ele>708.4</ele><time>2015-04-30T11:44:27.0000000+00:00</time></trkpt><trkpt lat="34.8804534" lon="32.9248748"><ele>707.6</ele><time>2015-04-30T11:44:28.0000000+00:00</time></trkpt><trkpt lat="34.8804293" lon="32.9247674"><ele>707.2</ele><time>2015-04-30T11:44:29.0000000+00:00</time></trkpt><trkpt lat="34.8803908" lon="32.9246559"><ele>707.0</ele><time>2015-04-30T11:44:30.0000000+00:00</time></trkpt><trkpt lat="34.8803501" lon="32.9245494"><ele>706.4</ele><time>2015-04-30T11:44:31.0000000+00:00</time></trkpt><trkpt lat="34.8802925" lon="32.9244499"><ele>705.6</ele><time>2015-04-30T11:44:32.0000000+00:00</time></trkpt><trkpt lat="34.8802298" lon="32.9243563"><ele>705.2</ele><time>2015-04-30T11:44:33.0000000+00:00</time></trkpt><trkpt lat="34.8801522" lon="32.9242755"><ele>705.0</ele><time>2015-04-30T11:44:34.0000000+00:00</time></trkpt><trkpt lat="34.8800661" lon="32.9242048"><ele>704.9</ele><time>2015-04-30T11:44:35.0000000+00:00</time></trkpt><trkpt lat="34.8799708" lon="32.9241406"><ele>704.3</ele><time>2015-04-30T11:44:36.0000000+00:00</time></trkpt><trkpt lat="34.8798762" lon="32.9240891"><ele>704.0</ele><time>2015-04-30T11:44:37.0000000+00:00</time></trkpt><trkpt lat="34.8797827" lon="32.9240379"><ele>703.9</ele><time>2015-04-30T11:44:38.0000000+00:00</time></trkpt><trkpt lat="34.8796914" lon="32.923988"><ele>704.3</ele><time>2015-04-30T11:44:39.0000000+00:00</time></trkpt><trkpt lat="34.8795964" lon="32.9239411"><ele>704.5</ele><time>2015-04-30T11:44:40.0000000+00:00</time></trkpt><trkpt lat="34.8795079" lon="32.9238936"><ele>704.7</ele><time>2015-04-30T11:44:41.0000000+00:00</time></trkpt><trkpt lat="34.8794242" lon="32.9238443"><ele>704.7</ele><time>2015-04-30T11:44:42.0000000+00:00</time></trkpt><trkpt lat="34.8793337" lon="32.9237942"><ele>704.7</ele><time>2015-04-30T11:44:43.0000000+00:00</time></trkpt><trkpt lat="34.8792481" lon="32.9237473"><ele>704.3</ele><time>2015-04-30T11:44:44.0000000+00:00</time></trkpt><trkpt lat="34.8791639" lon="32.9237022"><ele>704.0</ele><time>2015-04-30T11:44:45.0000000+00:00</time></trkpt><trkpt lat="34.8790746" lon="32.9236556"><ele>703.9</ele><time>2015-04-30T11:44:46.0000000+00:00</time></trkpt><trkpt lat="34.8789892" lon="32.9236114"><ele>703.8</ele><time>2015-04-30T11:44:47.0000000+00:00</time></trkpt><trkpt lat="34.8788961" lon="32.9235642"><ele>703.8</ele><time>2015-04-30T11:44:48.0000000+00:00</time></trkpt><trkpt lat="34.8788095" lon="32.9235212"><ele>703.3</ele><time>2015-04-30T11:44:49.0000000+00:00</time></trkpt><trkpt lat="34.8787202" lon="32.9234692"><ele>703.5</ele><time>2015-04-30T11:44:50.0000000+00:00</time></trkpt><trkpt lat="34.8786337" lon="32.9234223"><ele>703.6</ele><time>2015-04-30T11:44:51.0000000+00:00</time></trkpt><trkpt lat="34.8785422" lon="32.9233758"><ele>703.7</ele><time>2015-04-30T11:44:52.0000000+00:00</time></trkpt><trkpt lat="34.8784626" lon="32.9233297"><ele>703.2</ele><time>2015-04-30T11:44:53.0000000+00:00</time></trkpt><trkpt lat="34.8783727" lon="32.9232848"><ele>703.0</ele><time>2015-04-30T11:44:54.0000000+00:00</time></trkpt><trkpt lat="34.8782841" lon="32.9232353"><ele>702.4</ele><time>2015-04-30T11:44:55.0000000+00:00</time></trkpt><trkpt lat="34.8781904" lon="32.9231811"><ele>702.6</ele><time>2015-04-30T11:44:56.0000000+00:00</time></trkpt><trkpt lat="34.8781024" lon="32.9231192"><ele>702.2</ele><time>2015-04-30T11:44:57.0000000+00:00</time></trkpt><trkpt lat="34.8780114" lon="32.9230607"><ele>702.0</ele><time>2015-04-30T11:44:58.0000000+00:00</time></trkpt><trkpt lat="34.8779172" lon="32.9229962"><ele>701.9</ele><time>2015-04-30T11:44:59.0000000+00:00</time></trkpt><trkpt lat="34.8778245" lon="32.922923"><ele>701.8</ele><time>2015-04-30T11:45:00.0000000+00:00</time></trkpt><trkpt lat="34.87774" lon="32.9228479"><ele>701.3</ele><time>2015-04-30T11:45:01.0000000+00:00</time></trkpt><trkpt lat="34.8776485" lon="32.9227696"><ele>701.0</ele><time>2015-04-30T11:45:02.0000000+00:00</time></trkpt><trkpt lat="34.8775544" lon="32.922686"><ele>700.9</ele><time>2015-04-30T11:45:03.0000000+00:00</time></trkpt><trkpt lat="34.8774556" lon="32.9225997"><ele>700.3</ele><time>2015-04-30T11:45:04.0000000+00:00</time></trkpt><trkpt lat="34.8773623" lon="32.922513"><ele>699.5</ele><time>2015-04-30T11:45:05.0000000+00:00</time></trkpt><trkpt lat="34.8772727" lon="32.9224208"><ele>699.2</ele><time>2015-04-30T11:45:06.0000000+00:00</time></trkpt><trkpt lat="34.8771821" lon="32.922317"><ele>698.5</ele><time>2015-04-30T11:45:07.0000000+00:00</time></trkpt><trkpt lat="34.8770895" lon="32.9222073"><ele>697.6</ele><time>2015-04-30T11:45:08.0000000+00:00</time></trkpt><trkpt lat="34.8770068" lon="32.9220976"><ele>697.2</ele><time>2015-04-30T11:45:09.0000000+00:00</time></trkpt><trkpt lat="34.8769185" lon="32.9219776"><ele>696.5</ele><time>2015-04-30T11:45:10.0000000+00:00</time></trkpt><trkpt lat="34.8768358" lon="32.9218599"><ele>696.1</ele><time>2015-04-30T11:45:11.0000000+00:00</time></trkpt><trkpt lat="34.8767543" lon="32.921734"><ele>695.4</ele><time>2015-04-30T11:45:12.0000000+00:00</time></trkpt><trkpt lat="34.8766766" lon="32.9216094"><ele>694.6</ele><time>2015-04-30T11:45:13.0000000+00:00</time></trkpt><trkpt lat="34.8765977" lon="32.9214771"><ele>693.7</ele><time>2015-04-30T11:45:14.0000000+00:00</time></trkpt><trkpt lat="34.8765181" lon="32.9213389"><ele>692.7</ele><time>2015-04-30T11:45:15.0000000+00:00</time></trkpt><trkpt lat="34.8764348" lon="32.9211989"><ele>691.7</ele><time>2015-04-30T11:45:16.0000000+00:00</time></trkpt><trkpt lat="34.8763567" lon="32.9210654"><ele>690.8</ele><time>2015-04-30T11:45:17.0000000+00:00</time></trkpt><trkpt lat="34.8762796" lon="32.9209307"><ele>689.8</ele><time>2015-04-30T11:45:18.0000000+00:00</time></trkpt><trkpt lat="34.8761971" lon="32.9208021"><ele>689.3</ele><time>2015-04-30T11:45:19.0000000+00:00</time></trkpt><trkpt lat="34.876114" lon="32.9206675"><ele>689.0</ele><time>2015-04-30T11:45:20.0000000+00:00</time></trkpt><trkpt lat="34.8760329" lon="32.9205445"><ele>688.9</ele><time>2015-04-30T11:45:21.0000000+00:00</time></trkpt><trkpt lat="34.875952" lon="32.9204192"><ele>688.3</ele><time>2015-04-30T11:45:22.0000000+00:00</time></trkpt><trkpt lat="34.8758626" lon="32.9203038"><ele>687.5</ele><time>2015-04-30T11:45:23.0000000+00:00</time></trkpt><trkpt lat="34.8757635" lon="32.9201815"><ele>687.2</ele><time>2015-04-30T11:45:24.0000000+00:00</time></trkpt><trkpt lat="34.8756701" lon="32.9200799"><ele>686.5</ele><time>2015-04-30T11:45:25.0000000+00:00</time></trkpt><trkpt lat="34.875573" lon="32.9199836"><ele>686.1</ele><time>2015-04-30T11:45:26.0000000+00:00</time></trkpt><trkpt lat="34.8754809" lon="32.9198924"><ele>685.9</ele><time>2015-04-30T11:45:27.0000000+00:00</time></trkpt><trkpt lat="34.8753822" lon="32.9198037"><ele>685.9</ele><time>2015-04-30T11:45:28.0000000+00:00</time></trkpt><trkpt lat="34.8752921" lon="32.9197192"><ele>685.8</ele><time>2015-04-30T11:45:29.0000000+00:00</time></trkpt><trkpt lat="34.8751984" lon="32.9196355"><ele>685.8</ele><time>2015-04-30T11:45:30.0000000+00:00</time></trkpt><trkpt lat="34.8751107" lon="32.9195488"><ele>685.3</ele><time>2015-04-30T11:45:31.0000000+00:00</time></trkpt><trkpt lat="34.8750162" lon="32.9194631"><ele>685.0</ele><time>2015-04-30T11:45:32.0000000+00:00</time></trkpt><trkpt lat="34.874927" lon="32.919382"><ele>684.9</ele><time>2015-04-30T11:45:33.0000000+00:00</time></trkpt><trkpt lat="34.8748481" lon="32.9193034"><ele>684.3</ele><time>2015-04-30T11:45:34.0000000+00:00</time></trkpt><trkpt lat="34.8747716" lon="32.9192291"><ele>684.0</ele><time>2015-04-30T11:45:35.0000000+00:00</time></trkpt><trkpt lat="34.8746897" lon="32.9191518"><ele>683.9</ele><time>2015-04-30T11:45:36.0000000+00:00</time></trkpt><trkpt lat="34.8746177" lon="32.9190826"><ele>683.3</ele><time>2015-04-30T11:45:37.0000000+00:00</time></trkpt><trkpt lat="34.874541" lon="32.9190129"><ele>683.1</ele><time>2015-04-30T11:45:38.0000000+00:00</time></trkpt><trkpt lat="34.8744699" lon="32.9189448"><ele>682.9</ele><time>2015-04-30T11:45:39.0000000+00:00</time></trkpt><trkpt lat="34.8743852" lon="32.9188748"><ele>682.3</ele><time>2015-04-30T11:45:40.0000000+00:00</time></trkpt><trkpt lat="34.8743098" lon="32.9188187"><ele>682.1</ele><time>2015-04-30T11:45:41.0000000+00:00</time></trkpt><trkpt lat="34.8742345" lon="32.9187698"><ele>681.4</ele><time>2015-04-30T11:45:42.0000000+00:00</time></trkpt><trkpt lat="34.8741498" lon="32.9187333"><ele>681.1</ele><time>2015-04-30T11:45:43.0000000+00:00</time></trkpt><trkpt lat="34.8740701" lon="32.9186912"><ele>680.4</ele><time>2015-04-30T11:45:44.0000000+00:00</time></trkpt><trkpt lat="34.873988" lon="32.9186658"><ele>680.1</ele><time>2015-04-30T11:45:45.0000000+00:00</time></trkpt><trkpt lat="34.8739001" lon="32.9186431"><ele>678.9</ele><time>2015-04-30T11:45:46.0000000+00:00</time></trkpt><trkpt lat="34.8738152" lon="32.9186319"><ele>677.8</ele><time>2015-04-30T11:45:47.0000000+00:00</time></trkpt><trkpt lat="34.8737315" lon="32.9186295"><ele>677.3</ele><time>2015-04-30T11:45:48.0000000+00:00</time></trkpt><trkpt lat="34.8736622" lon="32.9186354"><ele>676.5</ele><time>2015-04-30T11:45:49.0000000+00:00</time></trkpt><trkpt lat="34.8735924" lon="32.9186376"><ele>676.2</ele><time>2015-04-30T11:45:50.0000000+00:00</time></trkpt><trkpt lat="34.8735345" lon="32.9186467"><ele>676.0</ele><time>2015-04-30T11:45:51.0000000+00:00</time></trkpt><trkpt lat="34.8734868" lon="32.9186591"><ele>675.9</ele><time>2015-04-30T11:45:52.0000000+00:00</time></trkpt><trkpt lat="34.8734055" lon="32.9186819"><ele>675.0</ele><time>2015-04-30T11:45:54.0000000+00:00</time></trkpt><trkpt lat="34.8733377" lon="32.9186924"><ele>674.8</ele><time>2015-04-30T11:45:56.0000000+00:00</time></trkpt><trkpt lat="34.8732788" lon="32.9187027"><ele>674.8</ele><time>2015-04-30T11:45:58.0000000+00:00</time></trkpt><trkpt lat="34.8732138" lon="32.9187165"><ele>674.0</ele><time>2015-04-30T11:46:00.0000000+00:00</time></trkpt><trkpt lat="34.8731508" lon="32.9187368"><ele>673.1</ele><time>2015-04-30T11:46:02.0000000+00:00</time></trkpt><trkpt lat="34.8730885" lon="32.918746"><ele>672.1</ele><time>2015-04-30T11:46:04.0000000+00:00</time></trkpt><trkpt lat="34.873026" lon="32.9187535"><ele>670.6</ele><time>2015-04-30T11:46:06.0000000+00:00</time></trkpt><trkpt lat="34.8729738" lon="32.9187606"><ele>669.5</ele><time>2015-04-30T11:46:08.0000000+00:00</time></trkpt><trkpt lat="34.8730132" lon="32.9187923"><ele>666.8</ele><time>2015-04-30T11:46:22.0000000+00:00</time></trkpt><trkpt lat="34.8729539" lon="32.9188064"><ele>662.4</ele><time>2015-04-30T11:47:22.0000000+00:00</time></trkpt><trkpt lat="34.8729047" lon="32.9188231"><ele>661.9</ele><time>2015-04-30T11:47:24.0000000+00:00</time></trkpt><trkpt lat="34.8728547" lon="32.9188393"><ele>661.8</ele><time>2015-04-30T11:47:26.0000000+00:00</time></trkpt><trkpt lat="34.8728007" lon="32.918836"><ele>662.3</ele><time>2015-04-30T11:47:28.0000000+00:00</time></trkpt><trkpt lat="34.872746" lon="32.9188225"><ele>662.1</ele><time>2015-04-30T11:47:30.0000000+00:00</time></trkpt><trkpt lat="34.8726745" lon="32.9188171"><ele>662.1</ele><time>2015-04-30T11:47:32.0000000+00:00</time></trkpt><trkpt lat="34.8725829" lon="32.9188316"><ele>661.9</ele><time>2015-04-30T11:47:34.0000000+00:00</time></trkpt><trkpt lat="34.872519" lon="32.9188422"><ele>661.8</ele><time>2015-04-30T11:47:35.0000000+00:00</time></trkpt><trkpt lat="34.8724706" lon="32.9188462"><ele>661.8</ele><time>2015-04-30T11:47:36.0000000+00:00</time></trkpt><trkpt lat="34.8724195" lon="32.9188475"><ele>661.8</ele><time>2015-04-30T11:47:37.0000000+00:00</time></trkpt><trkpt lat="34.8723563" lon="32.9188535"><ele>661.3</ele><time>2015-04-30T11:47:38.0000000+00:00</time></trkpt><trkpt lat="34.8723023" lon="32.9188601"><ele>661.5</ele><time>2015-04-30T11:47:39.0000000+00:00</time></trkpt><trkpt lat="34.8722442" lon="32.9188637"><ele>660.6</ele><time>2015-04-30T11:47:40.0000000+00:00</time></trkpt><trkpt lat="34.8721796" lon="32.9188583"><ele>660.2</ele><time>2015-04-30T11:47:41.0000000+00:00</time></trkpt><trkpt lat="34.8721193" lon="32.9188506"><ele>660.5</ele><time>2015-04-30T11:47:42.0000000+00:00</time></trkpt><trkpt lat="34.872057" lon="32.9188289"><ele>660.6</ele><time>2015-04-30T11:47:43.0000000+00:00</time></trkpt><trkpt lat="34.8719872" lon="32.9187992"><ele>660.7</ele><time>2015-04-30T11:47:44.0000000+00:00</time></trkpt><trkpt lat="34.8719276" lon="32.9187628"><ele>660.2</ele><time>2015-04-30T11:47:45.0000000+00:00</time></trkpt><trkpt lat="34.8718567" lon="32.9187258"><ele>660.0</ele><time>2015-04-30T11:47:46.0000000+00:00</time></trkpt><trkpt lat="34.8717847" lon="32.9186932"><ele>659.9</ele><time>2015-04-30T11:47:47.0000000+00:00</time></trkpt><trkpt lat="34.8717131" lon="32.918664"><ele>659.8</ele><time>2015-04-30T11:47:48.0000000+00:00</time></trkpt><trkpt lat="34.8716304" lon="32.9186347"><ele>659.8</ele><time>2015-04-30T11:47:49.0000000+00:00</time></trkpt><trkpt lat="34.8715533" lon="32.918606"><ele>659.8</ele><time>2015-04-30T11:47:50.0000000+00:00</time></trkpt><trkpt lat="34.8714727" lon="32.9185785"><ele>659.8</ele><time>2015-04-30T11:47:51.0000000+00:00</time></trkpt><trkpt lat="34.8713918" lon="32.9185539"><ele>659.8</ele><time>2015-04-30T11:47:52.0000000+00:00</time></trkpt><trkpt lat="34.8712947" lon="32.9185348"><ele>659.8</ele><time>2015-04-30T11:47:53.0000000+00:00</time></trkpt><trkpt lat="34.8712051" lon="32.9185141"><ele>660.3</ele><time>2015-04-30T11:47:54.0000000+00:00</time></trkpt><trkpt lat="34.8711064" lon="32.9184921"><ele>660.5</ele><time>2015-04-30T11:47:55.0000000+00:00</time></trkpt><trkpt lat="34.8710146" lon="32.9184591"><ele>661.1</ele><time>2015-04-30T11:47:56.0000000+00:00</time></trkpt><trkpt lat="34.8709376" lon="32.9184231"><ele>661.0</ele><time>2015-04-30T11:47:57.0000000+00:00</time></trkpt><trkpt lat="34.8708547" lon="32.9183858"><ele>660.9</ele><time>2015-04-30T11:47:58.0000000+00:00</time></trkpt><trkpt lat="34.8707804" lon="32.9183309"><ele>660.3</ele><time>2015-04-30T11:47:59.0000000+00:00</time></trkpt><trkpt lat="34.8707097" lon="32.9182684"><ele>659.5</ele><time>2015-04-30T11:48:00.0000000+00:00</time></trkpt><trkpt lat="34.8706365" lon="32.9182065"><ele>658.7</ele><time>2015-04-30T11:48:01.0000000+00:00</time></trkpt><trkpt lat="34.8705578" lon="32.918143"><ele>658.2</ele><time>2015-04-30T11:48:02.0000000+00:00</time></trkpt><trkpt lat="34.8704806" lon="32.9180732"><ele>658.0</ele><time>2015-04-30T11:48:03.0000000+00:00</time></trkpt><trkpt lat="34.8703981" lon="32.9180015"><ele>657.4</ele><time>2015-04-30T11:48:04.0000000+00:00</time></trkpt><trkpt lat="34.8703296" lon="32.9179317"><ele>657.1</ele><time>2015-04-30T11:48:05.0000000+00:00</time></trkpt><trkpt lat="34.8702704" lon="32.9178641"><ele>656.4</ele><time>2015-04-30T11:48:06.0000000+00:00</time></trkpt><trkpt lat="34.8702069" lon="32.9178005"><ele>656.1</ele><time>2015-04-30T11:48:07.0000000+00:00</time></trkpt><trkpt lat="34.8701529" lon="32.9177401"><ele>655.4</ele><time>2015-04-30T11:48:08.0000000+00:00</time></trkpt><trkpt lat="34.8701039" lon="32.9176853"><ele>654.6</ele><time>2015-04-30T11:48:09.0000000+00:00</time></trkpt><trkpt lat="34.8700632" lon="32.9176406"><ele>654.2</ele><time>2015-04-30T11:48:10.0000000+00:00</time></trkpt><trkpt lat="34.8700192" lon="32.9176018"><ele>654.0</ele><time>2015-04-30T11:48:11.0000000+00:00</time></trkpt><trkpt lat="34.8699513" lon="32.9175657"><ele>653.8</ele><time>2015-04-30T11:48:13.0000000+00:00</time></trkpt><trkpt lat="34.8699009" lon="32.917538"><ele>653.8</ele><time>2015-04-30T11:48:15.0000000+00:00</time></trkpt><trkpt lat="34.8698297" lon="32.9174963"><ele>652.9</ele><time>2015-04-30T11:48:18.0000000+00:00</time></trkpt><trkpt lat="34.8697349" lon="32.9174898"><ele>651.5</ele><time>2015-04-30T11:48:20.0000000+00:00</time></trkpt><trkpt lat="34.8696822" lon="32.9174786"><ele>651.2</ele><time>2015-04-30T11:48:21.0000000+00:00</time></trkpt><trkpt lat="34.8696268" lon="32.9174628"><ele>651.0</ele><time>2015-04-30T11:48:22.0000000+00:00</time></trkpt><trkpt lat="34.8695656" lon="32.9174527"><ele>650.9</ele><time>2015-04-30T11:48:23.0000000+00:00</time></trkpt><trkpt lat="34.8695062" lon="32.917432"><ele>650.8</ele><time>2015-04-30T11:48:24.0000000+00:00</time></trkpt><trkpt lat="34.8694457" lon="32.9174111"><ele>651.3</ele><time>2015-04-30T11:48:25.0000000+00:00</time></trkpt><trkpt lat="34.8693836" lon="32.9173856"><ele>651.5</ele><time>2015-04-30T11:48:26.0000000+00:00</time></trkpt><trkpt lat="34.8693218" lon="32.917358"><ele>651.6</ele><time>2015-04-30T11:48:27.0000000+00:00</time></trkpt><trkpt lat="34.869259" lon="32.9173291"><ele>651.7</ele><time>2015-04-30T11:48:28.0000000+00:00</time></trkpt><trkpt lat="34.8692042" lon="32.9172976"><ele>650.7</ele><time>2015-04-30T11:48:29.0000000+00:00</time></trkpt><trkpt lat="34.8691399" lon="32.9172645"><ele>649.8</ele><time>2015-04-30T11:48:30.0000000+00:00</time></trkpt><trkpt lat="34.8690713" lon="32.917243"><ele>649.3</ele><time>2015-04-30T11:48:31.0000000+00:00</time></trkpt><trkpt lat="34.8690056" lon="32.9172184"><ele>648.5</ele><time>2015-04-30T11:48:32.0000000+00:00</time></trkpt><trkpt lat="34.8689361" lon="32.91719"><ele>648.1</ele><time>2015-04-30T11:48:33.0000000+00:00</time></trkpt><trkpt lat="34.8688674" lon="32.9171599"><ele>648.0</ele><time>2015-04-30T11:48:34.0000000+00:00</time></trkpt><trkpt lat="34.8687861" lon="32.9171342"><ele>647.4</ele><time>2015-04-30T11:48:35.0000000+00:00</time></trkpt><trkpt lat="34.8687092" lon="32.9170974"><ele>647.1</ele><time>2015-04-30T11:48:36.0000000+00:00</time></trkpt><trkpt lat="34.8686363" lon="32.9170571"><ele>646.4</ele><time>2015-04-30T11:48:37.0000000+00:00</time></trkpt><trkpt lat="34.8685646" lon="32.9170095"><ele>646.1</ele><time>2015-04-30T11:48:38.0000000+00:00</time></trkpt><trkpt lat="34.8685011" lon="32.9169589"><ele>645.9</ele><time>2015-04-30T11:48:39.0000000+00:00</time></trkpt><trkpt lat="34.8684412" lon="32.9169071"><ele>645.3</ele><time>2015-04-30T11:48:40.0000000+00:00</time></trkpt><trkpt lat="34.8683919" lon="32.9168537"><ele>645.1</ele><time>2015-04-30T11:48:41.0000000+00:00</time></trkpt><trkpt lat="34.8683482" lon="32.9167802"><ele>644.4</ele><time>2015-04-30T11:48:42.0000000+00:00</time></trkpt><trkpt lat="34.8683096" lon="32.9167049"><ele>643.6</ele><time>2015-04-30T11:48:43.0000000+00:00</time></trkpt><trkpt lat="34.868266" lon="32.9166209"><ele>643.2</ele><time>2015-04-30T11:48:44.0000000+00:00</time></trkpt><trkpt lat="34.8682344" lon="32.916546"><ele>642.5</ele><time>2015-04-30T11:48:45.0000000+00:00</time></trkpt><trkpt lat="34.8681957" lon="32.9164576"><ele>641.6</ele><time>2015-04-30T11:48:46.0000000+00:00</time></trkpt><trkpt lat="34.8681442" lon="32.916396"><ele>640.2</ele><time>2015-04-30T11:48:47.0000000+00:00</time></trkpt><trkpt lat="34.8680864" lon="32.9163237"><ele>639.5</ele><time>2015-04-30T11:48:48.0000000+00:00</time></trkpt><trkpt lat="34.8680358" lon="32.9162588"><ele>639.1</ele><time>2015-04-30T11:48:49.0000000+00:00</time></trkpt><trkpt lat="34.8679768" lon="32.9162094"><ele>638.4</ele><time>2015-04-30T11:48:50.0000000+00:00</time></trkpt><trkpt lat="34.8679048" lon="32.9161696"><ele>638.1</ele><time>2015-04-30T11:48:51.0000000+00:00</time></trkpt><trkpt lat="34.8678374" lon="32.9161104"><ele>637.9</ele><time>2015-04-30T11:48:52.0000000+00:00</time></trkpt><trkpt lat="34.8677742" lon="32.9160584"><ele>637.3</ele><time>2015-04-30T11:48:53.0000000+00:00</time></trkpt><trkpt lat="34.8676993" lon="32.9160005"><ele>637.6</ele><time>2015-04-30T11:48:54.0000000+00:00</time></trkpt><trkpt lat="34.8676144" lon="32.9159434"><ele>638.2</ele><time>2015-04-30T11:48:55.0000000+00:00</time></trkpt><trkpt lat="34.867528" lon="32.9158878"><ele>638.5</ele><time>2015-04-30T11:48:56.0000000+00:00</time></trkpt><trkpt lat="34.8674589" lon="32.9158347"><ele>638.6</ele><time>2015-04-30T11:48:57.0000000+00:00</time></trkpt><trkpt lat="34.8673883" lon="32.9157833"><ele>638.7</ele><time>2015-04-30T11:48:58.0000000+00:00</time></trkpt><trkpt lat="34.8673075" lon="32.9157353"><ele>638.2</ele><time>2015-04-30T11:48:59.0000000+00:00</time></trkpt><trkpt lat="34.8672185" lon="32.9156966"><ele>638.0</ele><time>2015-04-30T11:49:00.0000000+00:00</time></trkpt><trkpt lat="34.8671377" lon="32.9156592"><ele>637.9</ele><time>2015-04-30T11:49:01.0000000+00:00</time></trkpt><trkpt lat="34.8670612" lon="32.9156172"><ele>637.3</ele><time>2015-04-30T11:49:02.0000000+00:00</time></trkpt><trkpt lat="34.8669916" lon="32.9155637"><ele>637.0</ele><time>2015-04-30T11:49:03.0000000+00:00</time></trkpt><trkpt lat="34.8669184" lon="32.9155111"><ele>636.9</ele><time>2015-04-30T11:49:04.0000000+00:00</time></trkpt><trkpt lat="34.8668572" lon="32.9154516"><ele>636.3</ele><time>2015-04-30T11:49:05.0000000+00:00</time></trkpt><trkpt lat="34.8667958" lon="32.9153948"><ele>636.0</ele><time>2015-04-30T11:49:06.0000000+00:00</time></trkpt><trkpt lat="34.8667362" lon="32.9153399"><ele>635.9</ele><time>2015-04-30T11:49:07.0000000+00:00</time></trkpt><trkpt lat="34.8666723" lon="32.915284"><ele>635.8</ele><time>2015-04-30T11:49:08.0000000+00:00</time></trkpt><trkpt lat="34.8666004" lon="32.915228"><ele>635.3</ele><time>2015-04-30T11:49:09.0000000+00:00</time></trkpt><trkpt lat="34.8665352" lon="32.9151594"><ele>635.0</ele><time>2015-04-30T11:49:10.0000000+00:00</time></trkpt><trkpt lat="34.8664772" lon="32.9150889"><ele>634.4</ele><time>2015-04-30T11:49:11.0000000+00:00</time></trkpt><trkpt lat="34.8664167" lon="32.9150179"><ele>633.6</ele><time>2015-04-30T11:49:12.0000000+00:00</time></trkpt><trkpt lat="34.8663689" lon="32.9149435"><ele>632.7</ele><time>2015-04-30T11:49:13.0000000+00:00</time></trkpt><trkpt lat="34.8663109" lon="32.9148669"><ele>632.2</ele><time>2015-04-30T11:49:14.0000000+00:00</time></trkpt><trkpt lat="34.8662574" lon="32.9147892"><ele>631.5</ele><time>2015-04-30T11:49:15.0000000+00:00</time></trkpt><trkpt lat="34.8661983" lon="32.9147212"><ele>631.6</ele><time>2015-04-30T11:49:16.0000000+00:00</time></trkpt><trkpt lat="34.8661444" lon="32.9146567"><ele>631.2</ele><time>2015-04-30T11:49:17.0000000+00:00</time></trkpt><trkpt lat="34.8660922" lon="32.9145871"><ele>631.0</ele><time>2015-04-30T11:49:18.0000000+00:00</time></trkpt><trkpt lat="34.8660407" lon="32.9145164"><ele>630.4</ele><time>2015-04-30T11:49:19.0000000+00:00</time></trkpt><trkpt lat="34.8659831" lon="32.9144509"><ele>630.1</ele><time>2015-04-30T11:49:20.0000000+00:00</time></trkpt><trkpt lat="34.8659285" lon="32.914398"><ele>629.9</ele><time>2015-04-30T11:49:21.0000000+00:00</time></trkpt><trkpt lat="34.8658784" lon="32.9143443"><ele>629.8</ele><time>2015-04-30T11:49:22.0000000+00:00</time></trkpt><trkpt lat="34.865823" lon="32.914295"><ele>630.3</ele><time>2015-04-30T11:49:23.0000000+00:00</time></trkpt><trkpt lat="34.8657661" lon="32.9142327"><ele>630.0</ele><time>2015-04-30T11:49:24.0000000+00:00</time></trkpt><trkpt lat="34.8657194" lon="32.914181"><ele>629.9</ele><time>2015-04-30T11:49:25.0000000+00:00</time></trkpt><trkpt lat="34.8656649" lon="32.9141307"><ele>629.8</ele><time>2015-04-30T11:49:26.0000000+00:00</time></trkpt><trkpt lat="34.865603" lon="32.9140821"><ele>629.3</ele><time>2015-04-30T11:49:27.0000000+00:00</time></trkpt><trkpt lat="34.8655459" lon="32.9140316"><ele>629.0</ele><time>2015-04-30T11:49:28.0000000+00:00</time></trkpt><trkpt lat="34.8655" lon="32.9139744"><ele>628.9</ele><time>2015-04-30T11:49:29.0000000+00:00</time></trkpt><trkpt lat="34.8654633" lon="32.9139158"><ele>628.8</ele><time>2015-04-30T11:49:30.0000000+00:00</time></trkpt><trkpt lat="34.865434" lon="32.9138495"><ele>628.8</ele><time>2015-04-30T11:49:31.0000000+00:00</time></trkpt><trkpt lat="34.865407" lon="32.9137792"><ele>628.8</ele><time>2015-04-30T11:49:32.0000000+00:00</time></trkpt><trkpt lat="34.8653678" lon="32.9137339"><ele>628.3</ele><time>2015-04-30T11:49:33.0000000+00:00</time></trkpt><trkpt lat="34.8653472" lon="32.9136736"><ele>628.0</ele><time>2015-04-30T11:49:34.0000000+00:00</time></trkpt><trkpt lat="34.8653336" lon="32.9136182"><ele>627.9</ele><time>2015-04-30T11:49:35.0000000+00:00</time></trkpt><trkpt lat="34.865324" lon="32.9135521"><ele>627.3</ele><time>2015-04-30T11:49:36.0000000+00:00</time></trkpt><trkpt lat="34.8653131" lon="32.9134964"><ele>627.5</ele><time>2015-04-30T11:49:37.0000000+00:00</time></trkpt><trkpt lat="34.8653028" lon="32.9134361"><ele>627.7</ele><time>2015-04-30T11:49:38.0000000+00:00</time></trkpt><trkpt lat="34.8652908" lon="32.9133806"><ele>627.2</ele><time>2015-04-30T11:49:39.0000000+00:00</time></trkpt><trkpt lat="34.8652697" lon="32.9133251"><ele>627.0</ele><time>2015-04-30T11:49:40.0000000+00:00</time></trkpt><trkpt lat="34.8652467" lon="32.9132701"><ele>626.9</ele><time>2015-04-30T11:49:41.0000000+00:00</time></trkpt><trkpt lat="34.865219" lon="32.913226"><ele>626.3</ele><time>2015-04-30T11:49:42.0000000+00:00</time></trkpt><trkpt lat="34.8651901" lon="32.9131775"><ele>625.5</ele><time>2015-04-30T11:49:43.0000000+00:00</time></trkpt><trkpt lat="34.865149" lon="32.9131213"><ele>625.2</ele><time>2015-04-30T11:49:44.0000000+00:00</time></trkpt><trkpt lat="34.8651079" lon="32.9130705"><ele>625.0</ele><time>2015-04-30T11:49:45.0000000+00:00</time></trkpt><trkpt lat="34.8650665" lon="32.9130213"><ele>624.9</ele><time>2015-04-30T11:49:46.0000000+00:00</time></trkpt><trkpt lat="34.8650201" lon="32.9129719"><ele>624.8</ele><time>2015-04-30T11:49:47.0000000+00:00</time></trkpt><trkpt lat="34.8649744" lon="32.912921"><ele>624.8</ele><time>2015-04-30T11:49:48.0000000+00:00</time></trkpt><trkpt lat="34.864923" lon="32.912875"><ele>624.8</ele><time>2015-04-30T11:49:49.0000000+00:00</time></trkpt><trkpt lat="34.864873" lon="32.9128279"><ele>624.8</ele><time>2015-04-30T11:49:50.0000000+00:00</time></trkpt><trkpt lat="34.8648257" lon="32.9127805"><ele>624.8</ele><time>2015-04-30T11:49:51.0000000+00:00</time></trkpt><trkpt lat="34.8647769" lon="32.9127405"><ele>625.3</ele><time>2015-04-30T11:49:52.0000000+00:00</time></trkpt><trkpt lat="34.864734" lon="32.9127124"><ele>625.5</ele><time>2015-04-30T11:49:53.0000000+00:00</time></trkpt><trkpt lat="34.8646769" lon="32.9126889"><ele>626.1</ele><time>2015-04-30T11:49:54.0000000+00:00</time></trkpt><trkpt lat="34.8646186" lon="32.9126781"><ele>626.0</ele><time>2015-04-30T11:49:55.0000000+00:00</time></trkpt><trkpt lat="34.864565" lon="32.9126654"><ele>626.4</ele><time>2015-04-30T11:49:56.0000000+00:00</time></trkpt><trkpt lat="34.8645191" lon="32.9126566"><ele>626.6</ele><time>2015-04-30T11:49:57.0000000+00:00</time></trkpt><trkpt lat="34.8644675" lon="32.9126486"><ele>626.7</ele><time>2015-04-30T11:49:58.0000000+00:00</time></trkpt><trkpt lat="34.8643677" lon="32.9126367"><ele>626.5</ele><time>2015-04-30T11:50:00.0000000+00:00</time></trkpt><trkpt lat="34.8642671" lon="32.9126106"><ele>626.7</ele><time>2015-04-30T11:50:02.0000000+00:00</time></trkpt><trkpt lat="34.8642021" lon="32.9126026"><ele>626.2</ele><time>2015-04-30T11:50:03.0000000+00:00</time></trkpt><trkpt lat="34.8641489" lon="32.9125905"><ele>626.5</ele><time>2015-04-30T11:50:04.0000000+00:00</time></trkpt><trkpt lat="34.8640957" lon="32.9125794"><ele>626.1</ele><time>2015-04-30T11:50:05.0000000+00:00</time></trkpt><trkpt lat="34.8640487" lon="32.912587"><ele>625.9</ele><time>2015-04-30T11:50:06.0000000+00:00</time></trkpt><trkpt lat="34.8640031" lon="32.9125972"><ele>625.4</ele><time>2015-04-30T11:50:07.0000000+00:00</time></trkpt><trkpt lat="34.8639554" lon="32.9125942"><ele>625.6</ele><time>2015-04-30T11:50:08.0000000+00:00</time></trkpt><trkpt lat="34.8638934" lon="32.9125965"><ele>625.2</ele><time>2015-04-30T11:50:09.0000000+00:00</time></trkpt><trkpt lat="34.8638424" lon="32.9126171"><ele>625.0</ele><time>2015-04-30T11:50:10.0000000+00:00</time></trkpt><trkpt lat="34.8637885" lon="32.9126283"><ele>624.4</ele><time>2015-04-30T11:50:11.0000000+00:00</time></trkpt><trkpt lat="34.8637361" lon="32.9126418"><ele>623.6</ele><time>2015-04-30T11:50:12.0000000+00:00</time></trkpt><trkpt lat="34.8636443" lon="32.9126724"><ele>621.7</ele><time>2015-04-30T11:50:14.0000000+00:00</time></trkpt><trkpt lat="34.8635957" lon="32.9126762"><ele>620.7</ele><time>2015-04-30T11:50:15.0000000+00:00</time></trkpt><trkpt lat="34.8635514" lon="32.9126901"><ele>620.3</ele><time>2015-04-30T11:50:16.0000000+00:00</time></trkpt><trkpt lat="34.8634502" lon="32.9126893"><ele>617.9</ele><time>2015-04-30T11:50:18.0000000+00:00</time></trkpt><trkpt lat="34.863395" lon="32.9126793"><ele>617.8</ele><time>2015-04-30T11:50:19.0000000+00:00</time></trkpt><trkpt lat="34.8633321" lon="32.9126591"><ele>617.3</ele><time>2015-04-30T11:50:20.0000000+00:00</time></trkpt><trkpt lat="34.863277" lon="32.9126385"><ele>617.0</ele><time>2015-04-30T11:50:21.0000000+00:00</time></trkpt><trkpt lat="34.8632253" lon="32.9126189"><ele>617.4</ele><time>2015-04-30T11:50:22.0000000+00:00</time></trkpt><trkpt lat="34.8631857" lon="32.9125799"><ele>617.1</ele><time>2015-04-30T11:50:23.0000000+00:00</time></trkpt><trkpt lat="34.863116" lon="32.9125594"><ele>616.9</ele><time>2015-04-30T11:50:24.0000000+00:00</time></trkpt><trkpt lat="34.8630456" lon="32.9125344"><ele>616.8</ele><time>2015-04-30T11:50:25.0000000+00:00</time></trkpt><trkpt lat="34.8629793" lon="32.9125093"><ele>616.8</ele><time>2015-04-30T11:50:26.0000000+00:00</time></trkpt><trkpt lat="34.8629144" lon="32.9124858"><ele>616.8</ele><time>2015-04-30T11:50:27.0000000+00:00</time></trkpt><trkpt lat="34.8628462" lon="32.9124653"><ele>616.8</ele><time>2015-04-30T11:50:28.0000000+00:00</time></trkpt><trkpt lat="34.8627855" lon="32.9124338"><ele>616.3</ele><time>2015-04-30T11:50:29.0000000+00:00</time></trkpt><trkpt lat="34.8627245" lon="32.9124116"><ele>615.5</ele><time>2015-04-30T11:50:30.0000000+00:00</time></trkpt><trkpt lat="34.8626691" lon="32.9123928"><ele>615.1</ele><time>2015-04-30T11:50:31.0000000+00:00</time></trkpt><trkpt lat="34.8626128" lon="32.9123715"><ele>615.0</ele><time>2015-04-30T11:50:32.0000000+00:00</time></trkpt><trkpt lat="34.8625681" lon="32.9123372"><ele>614.4</ele><time>2015-04-30T11:50:33.0000000+00:00</time></trkpt><trkpt lat="34.8625258" lon="32.9123061"><ele>614.1</ele><time>2015-04-30T11:50:34.0000000+00:00</time></trkpt><trkpt lat="34.8624828" lon="32.9122711"><ele>613.4</ele><time>2015-04-30T11:50:35.0000000+00:00</time></trkpt><trkpt lat="34.8624445" lon="32.9122371"><ele>613.1</ele><time>2015-04-30T11:50:36.0000000+00:00</time></trkpt><trkpt lat="34.8623848" lon="32.9121809"><ele>612.8</ele><time>2015-04-30T11:50:38.0000000+00:00</time></trkpt><trkpt lat="34.862333" lon="32.912131"><ele>612.0</ele><time>2015-04-30T11:50:40.0000000+00:00</time></trkpt><trkpt lat="34.8622935" lon="32.91209"><ele>611.6</ele><time>2015-04-30T11:50:42.0000000+00:00</time></trkpt><trkpt lat="34.8622491" lon="32.9120462"><ele>611.4</ele><time>2015-04-30T11:50:45.0000000+00:00</time></trkpt><trkpt lat="34.8621944" lon="32.9120348"><ele>610.5</ele><time>2015-04-30T11:50:50.0000000+00:00</time></trkpt><trkpt lat="34.8621488" lon="32.9120739"><ele>610.0</ele><time>2015-04-30T11:50:52.0000000+00:00</time></trkpt><trkpt lat="34.8621028" lon="32.9121205"><ele>609.3</ele><time>2015-04-30T11:50:54.0000000+00:00</time></trkpt><trkpt lat="34.8620535" lon="32.912175"><ele>608.9</ele><time>2015-04-30T11:50:56.0000000+00:00</time></trkpt><trkpt lat="34.8620049" lon="32.9122299"><ele>608.0</ele><time>2015-04-30T11:50:58.0000000+00:00</time></trkpt><trkpt lat="34.8619545" lon="32.912286"><ele>607.1</ele><time>2015-04-30T11:51:00.0000000+00:00</time></trkpt><trkpt lat="34.8619106" lon="32.9123418"><ele>606.8</ele><time>2015-04-30T11:51:02.0000000+00:00</time></trkpt><trkpt lat="34.8618777" lon="32.9123796"><ele>606.0</ele><time>2015-04-30T11:51:04.0000000+00:00</time></trkpt><trkpt lat="34.8618183" lon="32.9124108"><ele>605.8</ele><time>2015-04-30T11:51:08.0000000+00:00</time></trkpt><trkpt lat="34.8617842" lon="32.9124466"><ele>605.8</ele><time>2015-04-30T11:51:10.0000000+00:00</time></trkpt><trkpt lat="34.8617508" lon="32.9124884"><ele>605.8</ele><time>2015-04-30T11:51:12.0000000+00:00</time></trkpt><trkpt lat="34.8617077" lon="32.9125456"><ele>606.5</ele><time>2015-04-30T11:51:14.0000000+00:00</time></trkpt><trkpt lat="34.8616458" lon="32.9126167"><ele>605.5</ele><time>2015-04-30T11:51:16.0000000+00:00</time></trkpt><trkpt lat="34.8615838" lon="32.9126833"><ele>604.9</ele><time>2015-04-30T11:51:18.0000000+00:00</time></trkpt><trkpt lat="34.8615212" lon="32.912754"><ele>604.3</ele><time>2015-04-30T11:51:20.0000000+00:00</time></trkpt><trkpt lat="34.861462" lon="32.9128174"><ele>603.9</ele><time>2015-04-30T11:51:22.0000000+00:00</time></trkpt><trkpt lat="34.8614247" lon="32.9128894"><ele>603.8</ele><time>2015-04-30T11:51:24.0000000+00:00</time></trkpt><trkpt lat="34.861447" lon="32.9129572"><ele>603.8</ele><time>2015-04-30T11:51:26.0000000+00:00</time></trkpt><trkpt lat="34.8614963" lon="32.912991"><ele>604.3</ele><time>2015-04-30T11:51:28.0000000+00:00</time></trkpt><trkpt lat="34.8615381" lon="32.9130128"><ele>604.6</ele><time>2015-04-30T11:51:36.0000000+00:00</time></trkpt><trkpt lat="34.8615643" lon="32.913058"><ele>603.8</ele><time>2015-04-30T11:51:50.0000000+00:00</time></trkpt><trkpt lat="34.8616033" lon="32.9130893"><ele>604.4</ele><time>2015-04-30T11:51:56.0000000+00:00</time></trkpt><trkpt lat="34.8615527" lon="32.9130707"><ele>607.4</ele><time>2015-04-30T11:56:09.0000000+00:00</time></trkpt><trkpt lat="34.8614843" lon="32.9130309"><ele>606.7</ele><time>2015-04-30T11:56:12.0000000+00:00</time></trkpt><trkpt lat="34.8614202" lon="32.9130205"><ele>606.8</ele><time>2015-04-30T11:56:14.0000000+00:00</time></trkpt><trkpt lat="34.8613606" lon="32.9130255"><ele>606.8</ele><time>2015-04-30T11:56:16.0000000+00:00</time></trkpt><trkpt lat="34.8612981" lon="32.9130346"><ele>605.1</ele><time>2015-04-30T11:56:19.0000000+00:00</time></trkpt><trkpt lat="34.861254" lon="32.9130751"><ele>604.6</ele><time>2015-04-30T11:56:21.0000000+00:00</time></trkpt><trkpt lat="34.8611961" lon="32.9131481"><ele>604.7</ele><time>2015-04-30T11:56:23.0000000+00:00</time></trkpt><trkpt lat="34.861162" lon="32.913192"><ele>604.2</ele><time>2015-04-30T11:56:24.0000000+00:00</time></trkpt><trkpt lat="34.8611275" lon="32.9132459"><ele>604.0</ele><time>2015-04-30T11:56:25.0000000+00:00</time></trkpt><trkpt lat="34.8610936" lon="32.9132919"><ele>603.4</ele><time>2015-04-30T11:56:26.0000000+00:00</time></trkpt><trkpt lat="34.8610489" lon="32.9133368"><ele>602.6</ele><time>2015-04-30T11:56:27.0000000+00:00</time></trkpt><trkpt lat="34.8610005" lon="32.9133882"><ele>602.2</ele><time>2015-04-30T11:56:28.0000000+00:00</time></trkpt><trkpt lat="34.8609491" lon="32.9134309"><ele>601.5</ele><time>2015-04-30T11:56:29.0000000+00:00</time></trkpt><trkpt lat="34.8609023" lon="32.9134738"><ele>601.1</ele><time>2015-04-30T11:56:30.0000000+00:00</time></trkpt><trkpt lat="34.8608591" lon="32.9135047"><ele>600.9</ele><time>2015-04-30T11:56:31.0000000+00:00</time></trkpt><trkpt lat="34.8608012" lon="32.9135588"><ele>600.8</ele><time>2015-04-30T11:56:33.0000000+00:00</time></trkpt><trkpt lat="34.8607513" lon="32.9135941"><ele>600.8</ele><time>2015-04-30T11:56:36.0000000+00:00</time></trkpt><trkpt lat="34.8607003" lon="32.913623"><ele>600.4</ele><time>2015-04-30T11:56:39.0000000+00:00</time></trkpt><trkpt lat="34.8606515" lon="32.9136302"><ele>600.5</ele><time>2015-04-30T11:56:42.0000000+00:00</time></trkpt><trkpt lat="34.8606057" lon="32.913639"><ele>601.2</ele><time>2015-04-30T11:56:46.0000000+00:00</time></trkpt><trkpt lat="34.8605532" lon="32.9136332"><ele>601.8</ele><time>2015-04-30T11:56:59.0000000+00:00</time></trkpt><trkpt lat="34.8605374" lon="32.9135594"><ele>601.0</ele><time>2015-04-30T11:57:01.0000000+00:00</time></trkpt><trkpt lat="34.8605275" lon="32.9134844"><ele>600.8</ele><time>2015-04-30T11:57:03.0000000+00:00</time></trkpt><trkpt lat="34.8605006" lon="32.9134085"><ele>598.8</ele><time>2015-04-30T11:57:05.0000000+00:00</time></trkpt><trkpt lat="34.8604738" lon="32.9133578"><ele>597.8</ele><time>2015-04-30T11:57:06.0000000+00:00</time></trkpt><trkpt lat="34.8604132" lon="32.9133049"><ele>597.3</ele><time>2015-04-30T11:57:07.0000000+00:00</time></trkpt><trkpt lat="34.8603642" lon="32.9132874"><ele>597.5</ele><time>2015-04-30T11:57:08.0000000+00:00</time></trkpt><trkpt lat="34.8602793" lon="32.9132962"><ele>597.2</ele><time>2015-04-30T11:57:10.0000000+00:00</time></trkpt><trkpt lat="34.8601957" lon="32.9133071"><ele>596.9</ele><time>2015-04-30T11:57:12.0000000+00:00</time></trkpt><trkpt lat="34.8601259" lon="32.9133266"><ele>596.8</ele><time>2015-04-30T11:57:14.0000000+00:00</time></trkpt><trkpt lat="34.8600635" lon="32.9133223"><ele>596.8</ele><time>2015-04-30T11:57:16.0000000+00:00</time></trkpt><trkpt lat="34.8600401" lon="32.9132732"><ele>596.0</ele><time>2015-04-30T11:57:19.0000000+00:00</time></trkpt><trkpt lat="34.8600534" lon="32.9132155"><ele>593.3</ele><time>2015-04-30T11:57:39.0000000+00:00</time></trkpt><trkpt lat="34.8600178" lon="32.9132678"><ele>595.5</ele><time>2015-04-30T11:59:48.0000000+00:00</time></trkpt><trkpt lat="34.8600219" lon="32.9133437"><ele>596.4</ele><time>2015-04-30T11:59:50.0000000+00:00</time></trkpt><trkpt lat="34.8600272" lon="32.9134128"><ele>596.2</ele><time>2015-04-30T11:59:52.0000000+00:00</time></trkpt><trkpt lat="34.8600253" lon="32.9134678"><ele>594.7</ele><time>2015-04-30T12:00:10.0000000+00:00</time></trkpt><trkpt lat="34.8599989" lon="32.9135318"><ele>595.6</ele><time>2015-04-30T12:00:16.0000000+00:00</time></trkpt><trkpt lat="34.8599586" lon="32.9135652"><ele>595.0</ele><time>2015-04-30T12:00:18.0000000+00:00</time></trkpt><trkpt lat="34.859908" lon="32.9136007"><ele>595.6</ele><time>2015-04-30T12:00:20.0000000+00:00</time></trkpt><trkpt lat="34.8598537" lon="32.9136157"><ele>596.5</ele><time>2015-04-30T12:00:22.0000000+00:00</time></trkpt><trkpt lat="34.8597932" lon="32.9136123"><ele>596.4</ele><time>2015-04-30T12:00:24.0000000+00:00</time></trkpt><trkpt lat="34.8597343" lon="32.9136265"><ele>596.7</ele><time>2015-04-30T12:00:26.0000000+00:00</time></trkpt><trkpt lat="34.8596642" lon="32.9136391"><ele>595.7</ele><time>2015-04-30T12:00:28.0000000+00:00</time></trkpt><trkpt lat="34.8595896" lon="32.9136226"><ele>595.8</ele><time>2015-04-30T12:00:30.0000000+00:00</time></trkpt><trkpt lat="34.8595056" lon="32.913606"><ele>595.8</ele><time>2015-04-30T12:00:32.0000000+00:00</time></trkpt><trkpt lat="34.8594586" lon="32.9135971"><ele>595.8</ele><time>2015-04-30T12:00:33.0000000+00:00</time></trkpt><trkpt lat="34.8594001" lon="32.9135907"><ele>595.3</ele><time>2015-04-30T12:00:34.0000000+00:00</time></trkpt><trkpt lat="34.8593516" lon="32.9135802"><ele>595.0</ele><time>2015-04-30T12:00:35.0000000+00:00</time></trkpt><trkpt lat="34.8592962" lon="32.9135741"><ele>594.9</ele><time>2015-04-30T12:00:36.0000000+00:00</time></trkpt><trkpt lat="34.8592059" lon="32.9135549"><ele>595.0</ele><time>2015-04-30T12:00:38.0000000+00:00</time></trkpt><trkpt lat="34.8591502" lon="32.9135477"><ele>595.4</ele><time>2015-04-30T12:00:39.0000000+00:00</time></trkpt><trkpt lat="34.8590957" lon="32.9135317"><ele>595.1</ele><time>2015-04-30T12:00:40.0000000+00:00</time></trkpt><trkpt lat="34.8590442" lon="32.913521"><ele>594.9</ele><time>2015-04-30T12:00:41.0000000+00:00</time></trkpt><trkpt lat="34.8589882" lon="32.9135075"><ele>594.8</ele><time>2015-04-30T12:00:42.0000000+00:00</time></trkpt><trkpt lat="34.8589301" lon="32.9134978"><ele>594.8</ele><time>2015-04-30T12:00:43.0000000+00:00</time></trkpt><trkpt lat="34.8588737" lon="32.9134834"><ele>594.8</ele><time>2015-04-30T12:00:44.0000000+00:00</time></trkpt><trkpt lat="34.8588229" lon="32.9134709"><ele>594.8</ele><time>2015-04-30T12:00:45.0000000+00:00</time></trkpt><trkpt lat="34.8587659" lon="32.9134621"><ele>594.3</ele><time>2015-04-30T12:00:46.0000000+00:00</time></trkpt><trkpt lat="34.8587093" lon="32.9134505"><ele>594.0</ele><time>2015-04-30T12:00:47.0000000+00:00</time></trkpt><trkpt lat="34.8586434" lon="32.9134366"><ele>593.4</ele><time>2015-04-30T12:00:48.0000000+00:00</time></trkpt><trkpt lat="34.8585886" lon="32.9134241"><ele>593.6</ele><time>2015-04-30T12:00:49.0000000+00:00</time></trkpt><trkpt lat="34.8585293" lon="32.9134151"><ele>593.2</ele><time>2015-04-30T12:00:50.0000000+00:00</time></trkpt><trkpt lat="34.8584665" lon="32.9134088"><ele>592.5</ele><time>2015-04-30T12:00:51.0000000+00:00</time></trkpt><trkpt lat="34.8584018" lon="32.9133949"><ele>592.1</ele><time>2015-04-30T12:00:52.0000000+00:00</time></trkpt><trkpt lat="34.8583386" lon="32.9133882"><ele>591.9</ele><time>2015-04-30T12:00:53.0000000+00:00</time></trkpt><trkpt lat="34.8582778" lon="32.9133746"><ele>591.4</ele><time>2015-04-30T12:00:54.0000000+00:00</time></trkpt><trkpt lat="34.8582153" lon="32.9133598"><ele>591.6</ele><time>2015-04-30T12:00:55.0000000+00:00</time></trkpt><trkpt lat="34.8581488" lon="32.9133479"><ele>591.2</ele><time>2015-04-30T12:00:56.0000000+00:00</time></trkpt><trkpt lat="34.8580882" lon="32.9133346"><ele>591.0</ele><time>2015-04-30T12:00:57.0000000+00:00</time></trkpt><trkpt lat="34.8580208" lon="32.9133164"><ele>590.4</ele><time>2015-04-30T12:00:58.0000000+00:00</time></trkpt><trkpt lat="34.8579587" lon="32.9133026"><ele>590.1</ele><time>2015-04-30T12:00:59.0000000+00:00</time></trkpt><trkpt lat="34.8578908" lon="32.9132938"><ele>589.4</ele><time>2015-04-30T12:01:00.0000000+00:00</time></trkpt><trkpt lat="34.857828" lon="32.9132867"><ele>588.6</ele><time>2015-04-30T12:01:01.0000000+00:00</time></trkpt><trkpt lat="34.8577513" lon="32.9132746"><ele>588.2</ele><time>2015-04-30T12:01:02.0000000+00:00</time></trkpt><trkpt lat="34.8576829" lon="32.9132555"><ele>588.0</ele><time>2015-04-30T12:01:03.0000000+00:00</time></trkpt><trkpt lat="34.8576152" lon="32.9132438"><ele>587.4</ele><time>2015-04-30T12:01:04.0000000+00:00</time></trkpt><trkpt lat="34.8575543" lon="32.9132331"><ele>587.1</ele><time>2015-04-30T12:01:05.0000000+00:00</time></trkpt><trkpt lat="34.8574991" lon="32.9132262"><ele>587.4</ele><time>2015-04-30T12:01:06.0000000+00:00</time></trkpt><trkpt lat="34.857453" lon="32.9132199"><ele>587.1</ele><time>2015-04-30T12:01:07.0000000+00:00</time></trkpt><trkpt lat="34.8574076" lon="32.9132143"><ele>587.4</ele><time>2015-04-30T12:01:08.0000000+00:00</time></trkpt><trkpt lat="34.8573286" lon="32.9131966"><ele>587.7</ele><time>2015-04-30T12:01:10.0000000+00:00</time></trkpt><trkpt lat="34.8572503" lon="32.9131727"><ele>587.0</ele><time>2015-04-30T12:01:12.0000000+00:00</time></trkpt><trkpt lat="34.8572009" lon="32.913159"><ele>586.4</ele><time>2015-04-30T12:01:13.0000000+00:00</time></trkpt><trkpt lat="34.8571566" lon="32.9131385"><ele>586.6</ele><time>2015-04-30T12:01:14.0000000+00:00</time></trkpt><trkpt lat="34.8570728" lon="32.9131028"><ele>586.7</ele><time>2015-04-30T12:01:16.0000000+00:00</time></trkpt><trkpt lat="34.8570263" lon="32.9130842"><ele>586.2</ele><time>2015-04-30T12:01:17.0000000+00:00</time></trkpt><trkpt lat="34.8569805" lon="32.9130695"><ele>586.0</ele><time>2015-04-30T12:01:18.0000000+00:00</time></trkpt><trkpt lat="34.8569239" lon="32.9130463"><ele>585.9</ele><time>2015-04-30T12:01:19.0000000+00:00</time></trkpt><trkpt lat="34.856876" lon="32.9130174"><ele>585.8</ele><time>2015-04-30T12:01:20.0000000+00:00</time></trkpt><trkpt lat="34.85683" lon="32.9129864"><ele>585.3</ele><time>2015-04-30T12:01:21.0000000+00:00</time></trkpt><trkpt lat="34.8567776" lon="32.9129611"><ele>585.5</ele><time>2015-04-30T12:01:22.0000000+00:00</time></trkpt><trkpt lat="34.8567251" lon="32.9129394"><ele>585.6</ele><time>2015-04-30T12:01:23.0000000+00:00</time></trkpt><trkpt lat="34.8566695" lon="32.912917"><ele>585.7</ele><time>2015-04-30T12:01:24.0000000+00:00</time></trkpt><trkpt lat="34.856628" lon="32.9128875"><ele>585.7</ele><time>2015-04-30T12:01:25.0000000+00:00</time></trkpt><trkpt lat="34.856582" lon="32.912856"><ele>585.8</ele><time>2015-04-30T12:01:26.0000000+00:00</time></trkpt><trkpt lat="34.8565334" lon="32.9128326"><ele>585.8</ele><time>2015-04-30T12:01:27.0000000+00:00</time></trkpt><trkpt lat="34.8564783" lon="32.912805"><ele>585.8</ele><time>2015-04-30T12:01:28.0000000+00:00</time></trkpt><trkpt lat="34.8564297" lon="32.9127847"><ele>585.3</ele><time>2015-04-30T12:01:29.0000000+00:00</time></trkpt><trkpt lat="34.85638" lon="32.9127603"><ele>585.0</ele><time>2015-04-30T12:01:30.0000000+00:00</time></trkpt><trkpt lat="34.8563277" lon="32.9127352"><ele>584.9</ele><time>2015-04-30T12:01:31.0000000+00:00</time></trkpt><trkpt lat="34.8562753" lon="32.9127066"><ele>584.8</ele><time>2015-04-30T12:01:32.0000000+00:00</time></trkpt><trkpt lat="34.8562228" lon="32.9126867"><ele>584.8</ele><time>2015-04-30T12:01:33.0000000+00:00</time></trkpt><trkpt lat="34.8561737" lon="32.9126688"><ele>584.8</ele><time>2015-04-30T12:01:34.0000000+00:00</time></trkpt><trkpt lat="34.8560909" lon="32.9126438"><ele>584.8</ele><time>2015-04-30T12:01:36.0000000+00:00</time></trkpt><trkpt lat="34.8560098" lon="32.9126502"><ele>584.8</ele><time>2015-04-30T12:01:38.0000000+00:00</time></trkpt><trkpt lat="34.855916" lon="32.9126616"><ele>584.3</ele><time>2015-04-30T12:01:40.0000000+00:00</time></trkpt><trkpt lat="34.8558691" lon="32.9126755"><ele>584.0</ele><time>2015-04-30T12:01:41.0000000+00:00</time></trkpt><trkpt lat="34.855822" lon="32.9126833"><ele>583.9</ele><time>2015-04-30T12:01:42.0000000+00:00</time></trkpt><trkpt lat="34.85577" lon="32.9126888"><ele>583.8</ele><time>2015-04-30T12:01:43.0000000+00:00</time></trkpt><trkpt lat="34.8557151" lon="32.9127044"><ele>583.8</ele><time>2015-04-30T12:01:44.0000000+00:00</time></trkpt><trkpt lat="34.8556546" lon="32.9127215"><ele>583.3</ele><time>2015-04-30T12:01:45.0000000+00:00</time></trkpt><trkpt lat="34.8555978" lon="32.9127393"><ele>583.0</ele><time>2015-04-30T12:01:46.0000000+00:00</time></trkpt><trkpt lat="34.8555344" lon="32.912764"><ele>582.4</ele><time>2015-04-30T12:01:47.0000000+00:00</time></trkpt><trkpt lat="34.8554677" lon="32.9127927"><ele>582.1</ele><time>2015-04-30T12:01:48.0000000+00:00</time></trkpt><trkpt lat="34.8554012" lon="32.9128188"><ele>581.9</ele><time>2015-04-30T12:01:49.0000000+00:00</time></trkpt><trkpt lat="34.8553366" lon="32.9128512"><ele>581.3</ele><time>2015-04-30T12:01:50.0000000+00:00</time></trkpt><trkpt lat="34.8552701" lon="32.9128789"><ele>580.6</ele><time>2015-04-30T12:01:51.0000000+00:00</time></trkpt><trkpt lat="34.8551995" lon="32.9129082"><ele>580.2</ele><time>2015-04-30T12:01:52.0000000+00:00</time></trkpt><trkpt lat="34.8551432" lon="32.912936"><ele>580.0</ele><time>2015-04-30T12:01:53.0000000+00:00</time></trkpt><trkpt lat="34.8550805" lon="32.912959"><ele>579.4</ele><time>2015-04-30T12:01:54.0000000+00:00</time></trkpt><trkpt lat="34.855023" lon="32.9129922"><ele>579.1</ele><time>2015-04-30T12:01:55.0000000+00:00</time></trkpt><trkpt lat="34.8549699" lon="32.9130099"><ele>578.9</ele><time>2015-04-30T12:01:56.0000000+00:00</time></trkpt><trkpt lat="34.854923" lon="32.9130334"><ele>578.3</ele><time>2015-04-30T12:01:57.0000000+00:00</time></trkpt><trkpt lat="34.8548754" lon="32.9130491"><ele>578.1</ele><time>2015-04-30T12:01:58.0000000+00:00</time></trkpt><trkpt lat="34.8548178" lon="32.9130668"><ele>577.9</ele><time>2015-04-30T12:01:59.0000000+00:00</time></trkpt><trkpt lat="34.8547649" lon="32.9130868"><ele>577.3</ele><time>2015-04-30T12:02:00.0000000+00:00</time></trkpt><trkpt lat="34.8547198" lon="32.9130953"><ele>577.1</ele><time>2015-04-30T12:02:01.0000000+00:00</time></trkpt><trkpt lat="34.8546613" lon="32.9131009"><ele>576.4</ele><time>2015-04-30T12:02:02.0000000+00:00</time></trkpt><trkpt lat="34.8546032" lon="32.9130951"><ele>575.6</ele><time>2015-04-30T12:02:03.0000000+00:00</time></trkpt><trkpt lat="34.8545482" lon="32.9130769"><ele>575.2</ele><time>2015-04-30T12:02:04.0000000+00:00</time></trkpt><trkpt lat="34.8544889" lon="32.9130529"><ele>574.5</ele><time>2015-04-30T12:02:05.0000000+00:00</time></trkpt><trkpt lat="34.8544306" lon="32.9130183"><ele>574.1</ele><time>2015-04-30T12:02:06.0000000+00:00</time></trkpt><trkpt lat="34.8543631" lon="32.9129888"><ele>573.9</ele><time>2015-04-30T12:02:07.0000000+00:00</time></trkpt><trkpt lat="34.8543072" lon="32.9129597"><ele>573.9</ele><time>2015-04-30T12:02:08.0000000+00:00</time></trkpt><trkpt lat="34.8542303" lon="32.9129368"><ele>573.8</ele><time>2015-04-30T12:02:09.0000000+00:00</time></trkpt><trkpt lat="34.8541625" lon="32.9129101"><ele>574.3</ele><time>2015-04-30T12:02:10.0000000+00:00</time></trkpt><trkpt lat="34.854091" lon="32.9128846"><ele>574.5</ele><time>2015-04-30T12:02:11.0000000+00:00</time></trkpt><trkpt lat="34.8540138" lon="32.9128504"><ele>574.1</ele><time>2015-04-30T12:02:12.0000000+00:00</time></trkpt><trkpt lat="34.8539457" lon="32.9128227"><ele>574.0</ele><time>2015-04-30T12:02:13.0000000+00:00</time></trkpt><trkpt lat="34.8538754" lon="32.9127926"><ele>574.4</ele><time>2015-04-30T12:02:14.0000000+00:00</time></trkpt><trkpt lat="34.8538042" lon="32.9127571"><ele>574.6</ele><time>2015-04-30T12:02:15.0000000+00:00</time></trkpt><trkpt lat="34.8537314" lon="32.9127402"><ele>574.7</ele><time>2015-04-30T12:02:16.0000000+00:00</time></trkpt><trkpt lat="34.8536691" lon="32.9127146"><ele>574.7</ele><time>2015-04-30T12:02:17.0000000+00:00</time></trkpt><trkpt lat="34.8536046" lon="32.9126936"><ele>574.7</ele><time>2015-04-30T12:02:18.0000000+00:00</time></trkpt><trkpt lat="34.8535429" lon="32.912655"><ele>574.8</ele><time>2015-04-30T12:02:19.0000000+00:00</time></trkpt><trkpt lat="34.8534838" lon="32.9126175"><ele>574.8</ele><time>2015-04-30T12:02:20.0000000+00:00</time></trkpt><trkpt lat="34.8534392" lon="32.9125764"><ele>574.8</ele><time>2015-04-30T12:02:21.0000000+00:00</time></trkpt><trkpt lat="34.8533922" lon="32.912529"><ele>574.8</ele><time>2015-04-30T12:02:22.0000000+00:00</time></trkpt><trkpt lat="34.8533515" lon="32.9124816"><ele>574.8</ele><time>2015-04-30T12:02:23.0000000+00:00</time></trkpt><trkpt lat="34.8532992" lon="32.9123979"><ele>573.3</ele><time>2015-04-30T12:02:25.0000000+00:00</time></trkpt><trkpt lat="34.853276" lon="32.9123509"><ele>572.5</ele><time>2015-04-30T12:02:26.0000000+00:00</time></trkpt><trkpt lat="34.8532491" lon="32.912304"><ele>572.1</ele><time>2015-04-30T12:02:27.0000000+00:00</time></trkpt><trkpt lat="34.8531987" lon="32.9122147"><ele>571.9</ele><time>2015-04-30T12:02:29.0000000+00:00</time></trkpt><trkpt lat="34.853169" lon="32.9121623"><ele>571.8</ele><time>2015-04-30T12:02:30.0000000+00:00</time></trkpt><trkpt lat="34.8531414" lon="32.9121113"><ele>572.3</ele><time>2015-04-30T12:02:31.0000000+00:00</time></trkpt><trkpt lat="34.8531133" lon="32.9120542"><ele>572.5</ele><time>2015-04-30T12:02:32.0000000+00:00</time></trkpt><trkpt lat="34.8530875" lon="32.9119982"><ele>572.6</ele><time>2015-04-30T12:02:33.0000000+00:00</time></trkpt><trkpt lat="34.8530338" lon="32.9119282"><ele>572.0</ele><time>2015-04-30T12:02:35.0000000+00:00</time></trkpt><trkpt lat="34.8529973" lon="32.9118945"><ele>571.9</ele><time>2015-04-30T12:02:36.0000000+00:00</time></trkpt><trkpt lat="34.85292" lon="32.9118301"><ele>571.8</ele><time>2015-04-30T12:02:38.0000000+00:00</time></trkpt><trkpt lat="34.8528735" lon="32.9118032"><ele>571.8</ele><time>2015-04-30T12:02:39.0000000+00:00</time></trkpt><trkpt lat="34.8528195" lon="32.911782"><ele>571.3</ele><time>2015-04-30T12:02:40.0000000+00:00</time></trkpt><trkpt lat="34.8527738" lon="32.91177"><ele>571.0</ele><time>2015-04-30T12:02:41.0000000+00:00</time></trkpt><trkpt lat="34.8527278" lon="32.9117581"><ele>570.4</ele><time>2015-04-30T12:02:42.0000000+00:00</time></trkpt><trkpt lat="34.8526434" lon="32.9117422"><ele>569.4</ele><time>2015-04-30T12:02:44.0000000+00:00</time></trkpt><trkpt lat="34.8525539" lon="32.9117401"><ele>569.2</ele><time>2015-04-30T12:02:46.0000000+00:00</time></trkpt><trkpt lat="34.8524684" lon="32.9117411"><ele>568.9</ele><time>2015-04-30T12:02:48.0000000+00:00</time></trkpt><trkpt lat="34.852378" lon="32.9117353"><ele>568.3</ele><time>2015-04-30T12:02:50.0000000+00:00</time></trkpt><trkpt lat="34.8523285" lon="32.9117376"><ele>568.0</ele><time>2015-04-30T12:02:51.0000000+00:00</time></trkpt><trkpt lat="34.8522786" lon="32.9117368"><ele>567.9</ele><time>2015-04-30T12:02:52.0000000+00:00</time></trkpt><trkpt lat="34.8522008" lon="32.9117462"><ele>568.3</ele><time>2015-04-30T12:02:54.0000000+00:00</time></trkpt><trkpt lat="34.8521207" lon="32.911756"><ele>567.4</ele><time>2015-04-30T12:02:56.0000000+00:00</time></trkpt><trkpt lat="34.8520298" lon="32.9117679"><ele>568.2</ele><time>2015-04-30T12:02:58.0000000+00:00</time></trkpt><trkpt lat="34.8519821" lon="32.9117643"><ele>568.5</ele><time>2015-04-30T12:02:59.0000000+00:00</time></trkpt><trkpt lat="34.8519274" lon="32.9117626"><ele>569.1</ele><time>2015-04-30T12:03:00.0000000+00:00</time></trkpt><trkpt lat="34.8518444" lon="32.9117608"><ele>569.6</ele><time>2015-04-30T12:03:02.0000000+00:00</time></trkpt><trkpt lat="34.8517636" lon="32.9117524"><ele>569.7</ele><time>2015-04-30T12:03:04.0000000+00:00</time></trkpt><trkpt lat="34.8516834" lon="32.9117471"><ele>570.5</ele><time>2015-04-30T12:03:06.0000000+00:00</time></trkpt><trkpt lat="34.8515886" lon="32.911733"><ele>569.9</ele><time>2015-04-30T12:03:08.0000000+00:00</time></trkpt><trkpt lat="34.8515435" lon="32.9117164"><ele>569.9</ele><time>2015-04-30T12:03:09.0000000+00:00</time></trkpt><trkpt lat="34.8514928" lon="32.9116972"><ele>569.8</ele><time>2015-04-30T12:03:10.0000000+00:00</time></trkpt><trkpt lat="34.8514486" lon="32.9116833"><ele>570.3</ele><time>2015-04-30T12:03:11.0000000+00:00</time></trkpt><trkpt lat="34.8513942" lon="32.9116758"><ele>570.5</ele><time>2015-04-30T12:03:12.0000000+00:00</time></trkpt><trkpt lat="34.8513396" lon="32.9116644"><ele>571.1</ele><time>2015-04-30T12:03:13.0000000+00:00</time></trkpt><trkpt lat="34.8512889" lon="32.911659"><ele>571.5</ele><time>2015-04-30T12:03:14.0000000+00:00</time></trkpt><trkpt lat="34.8511914" lon="32.9116368"><ele>571.7</ele><time>2015-04-30T12:03:16.0000000+00:00</time></trkpt><trkpt lat="34.8511292" lon="32.9116209"><ele>571.7</ele><time>2015-04-30T12:03:17.0000000+00:00</time></trkpt><trkpt lat="34.8510757" lon="32.9116106"><ele>571.7</ele><time>2015-04-30T12:03:18.0000000+00:00</time></trkpt><trkpt lat="34.8510187" lon="32.9115896"><ele>571.3</ele><time>2015-04-30T12:03:19.0000000+00:00</time></trkpt><trkpt lat="34.8509634" lon="32.9115678"><ele>570.5</ele><time>2015-04-30T12:03:20.0000000+00:00</time></trkpt><trkpt lat="34.8508999" lon="32.9115472"><ele>570.1</ele><time>2015-04-30T12:03:21.0000000+00:00</time></trkpt><trkpt lat="34.8508386" lon="32.911525"><ele>571.0</ele><time>2015-04-30T12:03:22.0000000+00:00</time></trkpt><trkpt lat="34.850779" lon="32.9115073"><ele>571.4</ele><time>2015-04-30T12:03:23.0000000+00:00</time></trkpt><trkpt lat="34.8507079" lon="32.911486"><ele>570.6</ele><time>2015-04-30T12:03:24.0000000+00:00</time></trkpt><trkpt lat="34.8506444" lon="32.9114671"><ele>569.7</ele><time>2015-04-30T12:03:25.0000000+00:00</time></trkpt><trkpt lat="34.8505827" lon="32.9114502"><ele>569.2</ele><time>2015-04-30T12:03:26.0000000+00:00</time></trkpt><trkpt lat="34.8505179" lon="32.9114309"><ele>569.0</ele><time>2015-04-30T12:03:27.0000000+00:00</time></trkpt><trkpt lat="34.8504676" lon="32.9114171"><ele>568.4</ele><time>2015-04-30T12:03:28.0000000+00:00</time></trkpt><trkpt lat="34.8503983" lon="32.9113987"><ele>567.6</ele><time>2015-04-30T12:03:29.0000000+00:00</time></trkpt><trkpt lat="34.8503411" lon="32.9113875"><ele>567.2</ele><time>2015-04-30T12:03:30.0000000+00:00</time></trkpt><trkpt lat="34.850273" lon="32.9113741"><ele>566.5</ele><time>2015-04-30T12:03:31.0000000+00:00</time></trkpt><trkpt lat="34.8501989" lon="32.9113702"><ele>566.1</ele><time>2015-04-30T12:03:32.0000000+00:00</time></trkpt><trkpt lat="34.8501314" lon="32.9113709"><ele>565.4</ele><time>2015-04-30T12:03:33.0000000+00:00</time></trkpt><trkpt lat="34.8500524" lon="32.911372"><ele>565.1</ele><time>2015-04-30T12:03:34.0000000+00:00</time></trkpt><trkpt lat="34.8499882" lon="32.911364"><ele>564.9</ele><time>2015-04-30T12:03:35.0000000+00:00</time></trkpt><trkpt lat="34.8499283" lon="32.9113577"><ele>564.8</ele><time>2015-04-30T12:03:36.0000000+00:00</time></trkpt><trkpt lat="34.8498626" lon="32.911359"><ele>564.8</ele><time>2015-04-30T12:03:37.0000000+00:00</time></trkpt><trkpt lat="34.8498026" lon="32.9113481"><ele>564.8</ele><time>2015-04-30T12:03:38.0000000+00:00</time></trkpt><trkpt lat="34.8497327" lon="32.9113209"><ele>564.3</ele><time>2015-04-30T12:03:39.0000000+00:00</time></trkpt><trkpt lat="34.8496726" lon="32.9112939"><ele>564.5</ele><time>2015-04-30T12:03:40.0000000+00:00</time></trkpt><trkpt lat="34.8496155" lon="32.9112732"><ele>564.6</ele><time>2015-04-30T12:03:41.0000000+00:00</time></trkpt><trkpt lat="34.8495448" lon="32.911241"><ele>564.7</ele><time>2015-04-30T12:03:42.0000000+00:00</time></trkpt><trkpt lat="34.8494753" lon="32.9112187"><ele>564.7</ele><time>2015-04-30T12:03:43.0000000+00:00</time></trkpt><trkpt lat="34.8493977" lon="32.9111876"><ele>563.7</ele><time>2015-04-30T12:03:44.0000000+00:00</time></trkpt><trkpt lat="34.8493378" lon="32.9111738"><ele>563.3</ele><time>2015-04-30T12:03:45.0000000+00:00</time></trkpt><trkpt lat="34.8492872" lon="32.9111677"><ele>563.0</ele><time>2015-04-30T12:03:46.0000000+00:00</time></trkpt><trkpt lat="34.849211" lon="32.9111605"><ele>562.9</ele><time>2015-04-30T12:03:47.0000000+00:00</time></trkpt><trkpt lat="34.849119" lon="32.9111634"><ele>562.3</ele><time>2015-04-30T12:03:48.0000000+00:00</time></trkpt><trkpt lat="34.8490355" lon="32.9111721"><ele>561.5</ele><time>2015-04-30T12:03:49.0000000+00:00</time></trkpt><trkpt lat="34.8489533" lon="32.9111951"><ele>561.7</ele><time>2015-04-30T12:03:50.0000000+00:00</time></trkpt><trkpt lat="34.8488728" lon="32.9112355"><ele>560.7</ele><time>2015-04-30T12:03:51.0000000+00:00</time></trkpt><trkpt lat="34.8487988" lon="32.911248"><ele>560.2</ele><time>2015-04-30T12:03:52.0000000+00:00</time></trkpt><trkpt lat="34.8487129" lon="32.9112537"><ele>560.0</ele><time>2015-04-30T12:03:53.0000000+00:00</time></trkpt><trkpt lat="34.8486202" lon="32.9112475"><ele>560.4</ele><time>2015-04-30T12:03:54.0000000+00:00</time></trkpt><trkpt lat="34.8485289" lon="32.9112366"><ele>559.6</ele><time>2015-04-30T12:03:55.0000000+00:00</time></trkpt><trkpt lat="34.8484456" lon="32.9112146"><ele>559.2</ele><time>2015-04-30T12:03:56.0000000+00:00</time></trkpt><trkpt lat="34.8483723" lon="32.911166"><ele>560.0</ele><time>2015-04-30T12:03:57.0000000+00:00</time></trkpt><trkpt lat="34.8483039" lon="32.9111136"><ele>560.4</ele><time>2015-04-30T12:03:58.0000000+00:00</time></trkpt><trkpt lat="34.8482498" lon="32.9110629"><ele>560.6</ele><time>2015-04-30T12:03:59.0000000+00:00</time></trkpt><trkpt lat="34.8482068" lon="32.9110176"><ele>560.7</ele><time>2015-04-30T12:04:00.0000000+00:00</time></trkpt><trkpt lat="34.8481714" lon="32.9109605"><ele>560.2</ele><time>2015-04-30T12:04:01.0000000+00:00</time></trkpt><trkpt lat="34.848131" lon="32.9109058"><ele>560.0</ele><time>2015-04-30T12:04:02.0000000+00:00</time></trkpt><trkpt lat="34.8480777" lon="32.9108653"><ele>560.4</ele><time>2015-04-30T12:04:03.0000000+00:00</time></trkpt><trkpt lat="34.8480312" lon="32.9108243"><ele>561.1</ele><time>2015-04-30T12:04:04.0000000+00:00</time></trkpt><trkpt lat="34.8479876" lon="32.9107791"><ele>560.4</ele><time>2015-04-30T12:04:05.0000000+00:00</time></trkpt><trkpt lat="34.8479319" lon="32.9107097"><ele>560.4</ele><time>2015-04-30T12:04:07.0000000+00:00</time></trkpt><trkpt lat="34.8478804" lon="32.9106532"><ele>560.4</ele><time>2015-04-30T12:04:09.0000000+00:00</time></trkpt><trkpt lat="34.8478268" lon="32.9105926"><ele>561.7</ele><time>2015-04-30T12:04:11.0000000+00:00</time></trkpt><trkpt lat="34.8477895" lon="32.9105543"><ele>561.2</ele><time>2015-04-30T12:04:12.0000000+00:00</time></trkpt><trkpt lat="34.8477455" lon="32.9105261"><ele>560.5</ele><time>2015-04-30T12:04:13.0000000+00:00</time></trkpt><trkpt lat="34.8477038" lon="32.9104947"><ele>560.1</ele><time>2015-04-30T12:04:14.0000000+00:00</time></trkpt><trkpt lat="34.8476316" lon="32.9104386"><ele>560.4</ele><time>2015-04-30T12:04:16.0000000+00:00</time></trkpt><trkpt lat="34.847554" lon="32.9103898"><ele>559.9</ele><time>2015-04-30T12:04:18.0000000+00:00</time></trkpt><trkpt lat="34.8474881" lon="32.9103572"><ele>559.8</ele><time>2015-04-30T12:04:20.0000000+00:00</time></trkpt><trkpt lat="34.8474297" lon="32.9103419"><ele>561.3</ele><time>2015-04-30T12:04:22.0000000+00:00</time></trkpt><trkpt lat="34.8473732" lon="32.9103378"><ele>562.4</ele><time>2015-04-30T12:04:24.0000000+00:00</time></trkpt><trkpt lat="34.8473162" lon="32.9103342"><ele>563.2</ele><time>2015-04-30T12:04:26.0000000+00:00</time></trkpt><trkpt lat="34.8472584" lon="32.9103459"><ele>564.4</ele><time>2015-04-30T12:04:28.0000000+00:00</time></trkpt><trkpt lat="34.8471924" lon="32.9103699"><ele>564.7</ele><time>2015-04-30T12:04:30.0000000+00:00</time></trkpt><trkpt lat="34.847129" lon="32.9104013"><ele>564.0</ele><time>2015-04-30T12:04:32.0000000+00:00</time></trkpt><trkpt lat="34.8470656" lon="32.9104221"><ele>563.8</ele><time>2015-04-30T12:04:34.0000000+00:00</time></trkpt><trkpt lat="34.8470017" lon="32.9104408"><ele>564.3</ele><time>2015-04-30T12:04:36.0000000+00:00</time></trkpt><trkpt lat="34.8469339" lon="32.9104681"><ele>563.9</ele><time>2015-04-30T12:04:38.0000000+00:00</time></trkpt><trkpt lat="34.8468683" lon="32.9105089"><ele>563.8</ele><time>2015-04-30T12:04:40.0000000+00:00</time></trkpt><trkpt lat="34.8468101" lon="32.9105579"><ele>563.8</ele><time>2015-04-30T12:04:42.0000000+00:00</time></trkpt><trkpt lat="34.8467519" lon="32.9106124"><ele>564.5</ele><time>2015-04-30T12:04:44.0000000+00:00</time></trkpt><trkpt lat="34.8467014" lon="32.9106689"><ele>564.7</ele><time>2015-04-30T12:04:46.0000000+00:00</time></trkpt><trkpt lat="34.8466551" lon="32.9107109"><ele>564.7</ele><time>2015-04-30T12:04:48.0000000+00:00</time></trkpt><trkpt lat="34.8466144" lon="32.9107481"><ele>564.0</ele><time>2015-04-30T12:04:50.0000000+00:00</time></trkpt><trkpt lat="34.8465696" lon="32.9107755"><ele>562.8</ele><time>2015-04-30T12:04:52.0000000+00:00</time></trkpt><trkpt lat="34.8465278" lon="32.9107995"><ele>563.3</ele><time>2015-04-30T12:04:54.0000000+00:00</time></trkpt><trkpt lat="34.8464843" lon="32.9108235"><ele>564.1</ele><time>2015-04-30T12:04:56.0000000+00:00</time></trkpt><trkpt lat="34.8464386" lon="32.9108402"><ele>565.4</ele><time>2015-04-30T12:04:58.0000000+00:00</time></trkpt><trkpt lat="34.8463995" lon="32.9108681"><ele>565.2</ele><time>2015-04-30T12:05:00.0000000+00:00</time></trkpt><trkpt lat="34.8463617" lon="32.9109122"><ele>567.1</ele><time>2015-04-30T12:05:03.0000000+00:00</time></trkpt><trkpt lat="34.8463297" lon="32.9109528"><ele>567.7</ele><time>2015-04-30T12:05:06.0000000+00:00</time></trkpt><trkpt lat="34.8462994" lon="32.91101"><ele>567.8</ele><time>2015-04-30T12:05:09.0000000+00:00</time></trkpt><trkpt lat="34.8462614" lon="32.911067"><ele>569.0</ele><time>2015-04-30T12:05:12.0000000+00:00</time></trkpt><trkpt lat="34.8462109" lon="32.9111006"><ele>569.2</ele><time>2015-04-30T12:05:15.0000000+00:00</time></trkpt><trkpt lat="34.8461673" lon="32.9111485"><ele>568.1</ele><time>2015-04-30T12:05:18.0000000+00:00</time></trkpt><trkpt lat="34.8461195" lon="32.9111859"><ele>571.7</ele><time>2015-04-30T12:05:21.0000000+00:00</time></trkpt><trkpt lat="34.8461469" lon="32.9111413"><ele>568.8</ele><time>2015-04-30T12:05:40.0000000+00:00</time></trkpt><trkpt lat="34.8460887" lon="32.9111446"><ele>566.1</ele><time>2015-04-30T12:10:05.0000000+00:00</time></trkpt><trkpt lat="34.8460337" lon="32.9111291"><ele>566.9</ele><time>2015-04-30T12:10:08.0000000+00:00</time></trkpt><trkpt lat="34.8459956" lon="32.9110982"><ele>565.5</ele><time>2015-04-30T12:10:11.0000000+00:00</time></trkpt><trkpt lat="34.8459923" lon="32.9110275"><ele>566.5</ele><time>2015-04-30T12:10:15.0000000+00:00</time></trkpt><trkpt lat="34.8459973" lon="32.9109664"><ele>567.6</ele><time>2015-04-30T12:10:18.0000000+00:00</time></trkpt><trkpt lat="34.8459796" lon="32.910897"><ele>567.4</ele><time>2015-04-30T12:10:21.0000000+00:00</time></trkpt><trkpt lat="34.8459682" lon="32.9108414"><ele>567.2</ele><time>2015-04-30T12:10:24.0000000+00:00</time></trkpt><trkpt lat="34.8459782" lon="32.9107856"><ele>567.7</ele><time>2015-04-30T12:10:28.0000000+00:00</time></trkpt><trkpt lat="34.8460296" lon="32.9108044"><ele>568.1</ele><time>2015-04-30T12:10:31.0000000+00:00</time></trkpt><trkpt lat="34.8460794" lon="32.9108412"><ele>568.4</ele><time>2015-04-30T12:10:34.0000000+00:00</time></trkpt><trkpt lat="34.8461073" lon="32.910895"><ele>566.2</ele><time>2015-04-30T12:10:37.0000000+00:00</time></trkpt><trkpt lat="34.8461374" lon="32.9109461"><ele>564.4</ele><time>2015-04-30T12:10:40.0000000+00:00</time></trkpt><trkpt lat="34.8461628" lon="32.9109944"><ele>564.7</ele><time>2015-04-30T12:10:42.0000000+00:00</time></trkpt><trkpt lat="34.8461842" lon="32.9110572"><ele>565.5</ele><time>2015-04-30T12:10:44.0000000+00:00</time></trkpt><trkpt lat="34.846192" lon="32.9111189"><ele>565.7</ele><time>2015-04-30T12:10:46.0000000+00:00</time></trkpt><trkpt lat="34.8461849" lon="32.9111866"><ele>565.3</ele><time>2015-04-30T12:10:50.0000000+00:00</time></trkpt><trkpt lat="34.84617" lon="32.9112497"><ele>565.0</ele><time>2015-04-30T12:10:53.0000000+00:00</time></trkpt><trkpt lat="34.8461686" lon="32.9113345"><ele>564.1</ele><time>2015-04-30T12:10:55.0000000+00:00</time></trkpt><trkpt lat="34.8461441" lon="32.9114125"><ele>563.8</ele><time>2015-04-30T12:10:57.0000000+00:00</time></trkpt><trkpt lat="34.8461026" lon="32.9114729"><ele>563.8</ele><time>2015-04-30T12:10:59.0000000+00:00</time></trkpt><trkpt lat="34.8460653" lon="32.9115406"><ele>563.8</ele><time>2015-04-30T12:11:01.0000000+00:00</time></trkpt><trkpt lat="34.8460381" lon="32.9116119"><ele>564.3</ele><time>2015-04-30T12:11:03.0000000+00:00</time></trkpt><trkpt lat="34.8460134" lon="32.911689"><ele>565.1</ele><time>2015-04-30T12:11:05.0000000+00:00</time></trkpt><trkpt lat="34.8459983" lon="32.9117697"><ele>565.1</ele><time>2015-04-30T12:11:07.0000000+00:00</time></trkpt><trkpt lat="34.8459892" lon="32.9118571"><ele>564.9</ele><time>2015-04-30T12:11:09.0000000+00:00</time></trkpt><trkpt lat="34.8459808" lon="32.9119522"><ele>565.0</ele><time>2015-04-30T12:11:11.0000000+00:00</time></trkpt><trkpt lat="34.8459825" lon="32.9120531"><ele>564.8</ele><time>2015-04-30T12:11:13.0000000+00:00</time></trkpt><trkpt lat="34.8459887" lon="32.9121612"><ele>565.5</ele><time>2015-04-30T12:11:15.0000000+00:00</time></trkpt><trkpt lat="34.8459934" lon="32.9122197"><ele>565.6</ele><time>2015-04-30T12:11:16.0000000+00:00</time></trkpt><trkpt lat="34.8459981" lon="32.9122775"><ele>566.2</ele><time>2015-04-30T12:11:17.0000000+00:00</time></trkpt><trkpt lat="34.8460085" lon="32.9123481"><ele>566.5</ele><time>2015-04-30T12:11:18.0000000+00:00</time></trkpt><trkpt lat="34.8460162" lon="32.9124053"><ele>566.6</ele><time>2015-04-30T12:11:19.0000000+00:00</time></trkpt><trkpt lat="34.8460172" lon="32.9124618"><ele>566.7</ele><time>2015-04-30T12:11:20.0000000+00:00</time></trkpt><trkpt lat="34.8460182" lon="32.9125702"><ele>567.2</ele><time>2015-04-30T12:11:22.0000000+00:00</time></trkpt><trkpt lat="34.8460148" lon="32.9126823"><ele>567.6</ele><time>2015-04-30T12:11:24.0000000+00:00</time></trkpt><trkpt lat="34.8459887" lon="32.9127845"><ele>568.0</ele><time>2015-04-30T12:11:26.0000000+00:00</time></trkpt><trkpt lat="34.8459686" lon="32.9128388"><ele>567.9</ele><time>2015-04-30T12:11:27.0000000+00:00</time></trkpt><trkpt lat="34.8459503" lon="32.9128901"><ele>567.8</ele><time>2015-04-30T12:11:28.0000000+00:00</time></trkpt><trkpt lat="34.8459157" lon="32.912945"><ele>567.8</ele><time>2015-04-30T12:11:29.0000000+00:00</time></trkpt><trkpt lat="34.8458882" lon="32.9129944"><ele>567.8</ele><time>2015-04-30T12:11:30.0000000+00:00</time></trkpt><trkpt lat="34.845857" lon="32.9130459"><ele>567.3</ele><time>2015-04-30T12:11:31.0000000+00:00</time></trkpt><trkpt lat="34.845819" lon="32.913104"><ele>567.0</ele><time>2015-04-30T12:11:32.0000000+00:00</time></trkpt><trkpt lat="34.8457766" lon="32.9131536"><ele>566.4</ele><time>2015-04-30T12:11:33.0000000+00:00</time></trkpt><trkpt lat="34.8457321" lon="32.9132048"><ele>566.1</ele><time>2015-04-30T12:11:34.0000000+00:00</time></trkpt><trkpt lat="34.8456756" lon="32.9132649"><ele>565.9</ele><time>2015-04-30T12:11:35.0000000+00:00</time></trkpt><trkpt lat="34.8456121" lon="32.9133339"><ele>565.8</ele><time>2015-04-30T12:11:36.0000000+00:00</time></trkpt><trkpt lat="34.8455518" lon="32.9133936"><ele>565.3</ele><time>2015-04-30T12:11:37.0000000+00:00</time></trkpt><trkpt lat="34.8454922" lon="32.9134497"><ele>565.0</ele><time>2015-04-30T12:11:38.0000000+00:00</time></trkpt><trkpt lat="34.8454418" lon="32.9134774"><ele>565.4</ele><time>2015-04-30T12:11:39.0000000+00:00</time></trkpt><trkpt lat="34.8453673" lon="32.9135128"><ele>566.6</ele><time>2015-04-30T12:11:40.0000000+00:00</time></trkpt><trkpt lat="34.8452898" lon="32.9135301"><ele>567.7</ele><time>2015-04-30T12:11:41.0000000+00:00</time></trkpt><trkpt lat="34.8452265" lon="32.9135375"><ele>567.7</ele><time>2015-04-30T12:11:42.0000000+00:00</time></trkpt><trkpt lat="34.8451643" lon="32.9135348"><ele>567.7</ele><time>2015-04-30T12:11:43.0000000+00:00</time></trkpt><trkpt lat="34.8450942" lon="32.9135333"><ele>567.8</ele><time>2015-04-30T12:11:44.0000000+00:00</time></trkpt><trkpt lat="34.8450404" lon="32.9135219"><ele>567.8</ele><time>2015-04-30T12:11:45.0000000+00:00</time></trkpt><trkpt lat="34.8449804" lon="32.9135174"><ele>567.3</ele><time>2015-04-30T12:11:46.0000000+00:00</time></trkpt><trkpt lat="34.8449188" lon="32.9135237"><ele>566.5</ele><time>2015-04-30T12:11:47.0000000+00:00</time></trkpt><trkpt lat="34.8448558" lon="32.9135259"><ele>565.6</ele><time>2015-04-30T12:11:48.0000000+00:00</time></trkpt><trkpt lat="34.8447972" lon="32.9135311"><ele>564.7</ele><time>2015-04-30T12:11:49.0000000+00:00</time></trkpt><trkpt lat="34.8447347" lon="32.9135376"><ele>564.2</ele><time>2015-04-30T12:11:50.0000000+00:00</time></trkpt><trkpt lat="34.8446764" lon="32.9135592"><ele>564.0</ele><time>2015-04-30T12:11:51.0000000+00:00</time></trkpt><trkpt lat="34.8446144" lon="32.913586"><ele>563.9</ele><time>2015-04-30T12:11:52.0000000+00:00</time></trkpt><trkpt lat="34.844569" lon="32.9136062"><ele>563.8</ele><time>2015-04-30T12:11:53.0000000+00:00</time></trkpt><trkpt lat="34.8445224" lon="32.9136215"><ele>564.3</ele><time>2015-04-30T12:11:54.0000000+00:00</time></trkpt><trkpt lat="34.84447" lon="32.9136493"><ele>564.0</ele><time>2015-04-30T12:11:55.0000000+00:00</time></trkpt><trkpt lat="34.8444192" lon="32.9136783"><ele>563.9</ele><time>2015-04-30T12:11:56.0000000+00:00</time></trkpt><trkpt lat="34.8443693" lon="32.9136972"><ele>563.8</ele><time>2015-04-30T12:11:57.0000000+00:00</time></trkpt><trkpt lat="34.8443155" lon="32.913715"><ele>564.3</ele><time>2015-04-30T12:11:58.0000000+00:00</time></trkpt><trkpt lat="34.8442667" lon="32.9137348"><ele>564.5</ele><time>2015-04-30T12:11:59.0000000+00:00</time></trkpt><trkpt lat="34.8442154" lon="32.9137408"><ele>565.1</ele><time>2015-04-30T12:12:00.0000000+00:00</time></trkpt><trkpt lat="34.8441172" lon="32.9137716"><ele>564.1</ele><time>2015-04-30T12:12:02.0000000+00:00</time></trkpt><trkpt lat="34.8440652" lon="32.9137832"><ele>564.4</ele><time>2015-04-30T12:12:03.0000000+00:00</time></trkpt><trkpt lat="34.8440048" lon="32.913791"><ele>564.6</ele><time>2015-04-30T12:12:04.0000000+00:00</time></trkpt><trkpt lat="34.8439576" lon="32.9137982"><ele>564.7</ele><time>2015-04-30T12:12:05.0000000+00:00</time></trkpt><trkpt lat="34.843894" lon="32.9138268"><ele>565.0</ele><time>2015-04-30T12:12:07.0000000+00:00</time></trkpt><trkpt lat="34.84385" lon="32.9138064"><ele>565.7</ele><time>2015-04-30T12:12:10.0000000+00:00</time></trkpt><trkpt lat="34.8438169" lon="32.9137655"><ele>565.0</ele><time>2015-04-30T12:12:12.0000000+00:00</time></trkpt><trkpt lat="34.8437827" lon="32.9137134"><ele>564.8</ele><time>2015-04-30T12:12:14.0000000+00:00</time></trkpt><trkpt lat="34.8437492" lon="32.913676"><ele>564.8</ele><time>2015-04-30T12:12:16.0000000+00:00</time></trkpt><trkpt lat="34.843687" lon="32.9136536"><ele>565.1</ele><time>2015-04-30T12:12:19.0000000+00:00</time></trkpt><trkpt lat="34.8436301" lon="32.9136431"><ele>565.7</ele><time>2015-04-30T12:12:22.0000000+00:00</time></trkpt><trkpt lat="34.8435744" lon="32.9136453"><ele>566.6</ele><time>2015-04-30T12:12:26.0000000+00:00</time></trkpt><trkpt lat="34.8435318" lon="32.9136856"><ele>565.8</ele><time>2015-04-30T12:12:30.0000000+00:00</time></trkpt><trkpt lat="34.8435781" lon="32.9137086"><ele>566.5</ele><time>2015-04-30T12:12:32.0000000+00:00</time></trkpt><trkpt lat="34.8436279" lon="32.913696"><ele>567.0</ele><time>2015-04-30T12:12:34.0000000+00:00</time></trkpt><trkpt lat="34.8436725" lon="32.9136856"><ele>566.8</ele><time>2015-04-30T12:12:36.0000000+00:00</time></trkpt><trkpt lat="34.843734" lon="32.9136824"><ele>566.3</ele><time>2015-04-30T12:12:38.0000000+00:00</time></trkpt><trkpt lat="34.8437892" lon="32.91368"><ele>565.1</ele><time>2015-04-30T12:12:40.0000000+00:00</time></trkpt><trkpt lat="34.8438374" lon="32.9136736"><ele>564.4</ele><time>2015-04-30T12:12:42.0000000+00:00</time></trkpt><trkpt lat="34.8438681" lon="32.9137278"><ele>563.3</ele><time>2015-04-30T12:12:45.0000000+00:00</time></trkpt><trkpt lat="34.8438449" lon="32.9137917"><ele>563.7</ele><time>2015-04-30T12:12:48.0000000+00:00</time></trkpt><trkpt lat="34.8437924" lon="32.9138102"><ele>563.8</ele><time>2015-04-30T12:12:51.0000000+00:00</time></trkpt><trkpt lat="34.8437451" lon="32.9138088"><ele>563.8</ele><time>2015-04-30T12:12:53.0000000+00:00</time></trkpt><trkpt lat="34.843657" lon="32.9138036"><ele>563.8</ele><time>2015-04-30T12:12:56.0000000+00:00</time></trkpt><trkpt lat="34.8435857" lon="32.9138106"><ele>564.3</ele><time>2015-04-30T12:12:58.0000000+00:00</time></trkpt><trkpt lat="34.8435132" lon="32.9138262"><ele>564.6</ele><time>2015-04-30T12:13:00.0000000+00:00</time></trkpt><trkpt lat="34.8434461" lon="32.9138482"><ele>564.5</ele><time>2015-04-30T12:13:02.0000000+00:00</time></trkpt><trkpt lat="34.8433823" lon="32.9138757"><ele>564.7</ele><time>2015-04-30T12:13:04.0000000+00:00</time></trkpt><trkpt lat="34.8433193" lon="32.9139114"><ele>564.5</ele><time>2015-04-30T12:13:06.0000000+00:00</time></trkpt><trkpt lat="34.8432709" lon="32.9139692"><ele>563.4</ele><time>2015-04-30T12:13:08.0000000+00:00</time></trkpt><trkpt lat="34.8432279" lon="32.9140324"><ele>562.9</ele><time>2015-04-30T12:13:10.0000000+00:00</time></trkpt><trkpt lat="34.8431838" lon="32.9141057"><ele>563.6</ele><time>2015-04-30T12:13:12.0000000+00:00</time></trkpt><trkpt lat="34.8431434" lon="32.9141784"><ele>563.7</ele><time>2015-04-30T12:13:14.0000000+00:00</time></trkpt><trkpt lat="34.8431138" lon="32.9142368"><ele>563.7</ele><time>2015-04-30T12:13:15.0000000+00:00</time></trkpt><trkpt lat="34.8430708" lon="32.9143246"><ele>565.0</ele><time>2015-04-30T12:13:17.0000000+00:00</time></trkpt><trkpt lat="34.8430381" lon="32.9144011"><ele>566.3</ele><time>2015-04-30T12:13:19.0000000+00:00</time></trkpt><trkpt lat="34.8429974" lon="32.9144747"><ele>567.4</ele><time>2015-04-30T12:13:21.0000000+00:00</time></trkpt><trkpt lat="34.8429601" lon="32.914551"><ele>567.7</ele><time>2015-04-30T12:13:23.0000000+00:00</time></trkpt><trkpt lat="34.842922" lon="32.9146333"><ele>568.2</ele><time>2015-04-30T12:13:25.0000000+00:00</time></trkpt><trkpt lat="34.8428835" lon="32.9147105"><ele>568.6</ele><time>2015-04-30T12:13:27.0000000+00:00</time></trkpt><trkpt lat="34.8428461" lon="32.9147862"><ele>569.2</ele><time>2015-04-30T12:13:29.0000000+00:00</time></trkpt><trkpt lat="34.8428042" lon="32.9148537"><ele>569.6</ele><time>2015-04-30T12:13:31.0000000+00:00</time></trkpt><trkpt lat="34.8427562" lon="32.9149234"><ele>569.2</ele><time>2015-04-30T12:13:33.0000000+00:00</time></trkpt><trkpt lat="34.8427026" lon="32.9149852"><ele>568.9</ele><time>2015-04-30T12:13:35.0000000+00:00</time></trkpt><trkpt lat="34.8426424" lon="32.9150426"><ele>568.0</ele><time>2015-04-30T12:13:37.0000000+00:00</time></trkpt><trkpt lat="34.8425896" lon="32.9150872"><ele>567.8</ele><time>2015-04-30T12:13:39.0000000+00:00</time></trkpt><trkpt lat="34.8425254" lon="32.9151209"><ele>567.8</ele><time>2015-04-30T12:13:41.0000000+00:00</time></trkpt><trkpt lat="34.8424574" lon="32.9151516"><ele>567.5</ele><time>2015-04-30T12:13:43.0000000+00:00</time></trkpt><trkpt lat="34.842383" lon="32.9151788"><ele>567.0</ele><time>2015-04-30T12:13:45.0000000+00:00</time></trkpt><trkpt lat="34.8423061" lon="32.9151939"><ele>566.8</ele><time>2015-04-30T12:13:47.0000000+00:00</time></trkpt><trkpt lat="34.8422241" lon="32.915199"><ele>566.8</ele><time>2015-04-30T12:13:49.0000000+00:00</time></trkpt><trkpt lat="34.842143" lon="32.9151902"><ele>566.8</ele><time>2015-04-30T12:13:51.0000000+00:00</time></trkpt><trkpt lat="34.8420883" lon="32.9151683"><ele>566.8</ele><time>2015-04-30T12:13:52.0000000+00:00</time></trkpt><trkpt lat="34.8420419" lon="32.915152"><ele>566.8</ele><time>2015-04-30T12:13:53.0000000+00:00</time></trkpt><trkpt lat="34.8419892" lon="32.9151277"><ele>567.3</ele><time>2015-04-30T12:13:54.0000000+00:00</time></trkpt><trkpt lat="34.8419391" lon="32.915098"><ele>567.0</ele><time>2015-04-30T12:13:55.0000000+00:00</time></trkpt><trkpt lat="34.8418904" lon="32.9150618"><ele>566.9</ele><time>2015-04-30T12:13:56.0000000+00:00</time></trkpt><trkpt lat="34.841843" lon="32.9150272"><ele>566.3</ele><time>2015-04-30T12:13:57.0000000+00:00</time></trkpt><trkpt lat="34.8417995" lon="32.9149833"><ele>566.0</ele><time>2015-04-30T12:13:58.0000000+00:00</time></trkpt><trkpt lat="34.841754" lon="32.9149477"><ele>565.9</ele><time>2015-04-30T12:13:59.0000000+00:00</time></trkpt><trkpt lat="34.8417134" lon="32.9148997"><ele>565.8</ele><time>2015-04-30T12:14:00.0000000+00:00</time></trkpt><trkpt lat="34.8416759" lon="32.9148447"><ele>565.3</ele><time>2015-04-30T12:14:01.0000000+00:00</time></trkpt><trkpt lat="34.8416384" lon="32.9147942"><ele>565.0</ele><time>2015-04-30T12:14:02.0000000+00:00</time></trkpt><trkpt lat="34.8416012" lon="32.9147418"><ele>564.9</ele><time>2015-04-30T12:14:03.0000000+00:00</time></trkpt><trkpt lat="34.8415597" lon="32.9146912"><ele>564.3</ele><time>2015-04-30T12:14:04.0000000+00:00</time></trkpt><trkpt lat="34.8415202" lon="32.9146435"><ele>564.0</ele><time>2015-04-30T12:14:05.0000000+00:00</time></trkpt><trkpt lat="34.8414848" lon="32.9145895"><ele>563.4</ele><time>2015-04-30T12:14:06.0000000+00:00</time></trkpt><trkpt lat="34.8414443" lon="32.9145444"><ele>563.1</ele><time>2015-04-30T12:14:07.0000000+00:00</time></trkpt><trkpt lat="34.8414028" lon="32.9144853"><ele>562.9</ele><time>2015-04-30T12:14:08.0000000+00:00</time></trkpt><trkpt lat="34.8413706" lon="32.9144363"><ele>562.8</ele><time>2015-04-30T12:14:09.0000000+00:00</time></trkpt><trkpt lat="34.8413426" lon="32.9143851"><ele>562.8</ele><time>2015-04-30T12:14:10.0000000+00:00</time></trkpt><trkpt lat="34.8413111" lon="32.9143318"><ele>562.3</ele><time>2015-04-30T12:14:11.0000000+00:00</time></trkpt><trkpt lat="34.8412709" lon="32.9142752"><ele>562.0</ele><time>2015-04-30T12:14:12.0000000+00:00</time></trkpt><trkpt lat="34.8412357" lon="32.9142298"><ele>561.9</ele><time>2015-04-30T12:14:13.0000000+00:00</time></trkpt><trkpt lat="34.8411988" lon="32.9141869"><ele>561.8</ele><time>2015-04-30T12:14:14.0000000+00:00</time></trkpt><trkpt lat="34.8411564" lon="32.9141388"><ele>561.8</ele><time>2015-04-30T12:14:15.0000000+00:00</time></trkpt><trkpt lat="34.8411167" lon="32.9140819"><ele>562.3</ele><time>2015-04-30T12:14:16.0000000+00:00</time></trkpt><trkpt lat="34.8410871" lon="32.9140239"><ele>561.5</ele><time>2015-04-30T12:14:17.0000000+00:00</time></trkpt><trkpt lat="34.841045" lon="32.9139671"><ele>560.6</ele><time>2015-04-30T12:14:18.0000000+00:00</time></trkpt><trkpt lat="34.8410077" lon="32.9139138"><ele>560.2</ele><time>2015-04-30T12:14:19.0000000+00:00</time></trkpt><trkpt lat="34.8409692" lon="32.9138559"><ele>560.0</ele><time>2015-04-30T12:14:20.0000000+00:00</time></trkpt><trkpt lat="34.8409323" lon="32.913802"><ele>559.4</ele><time>2015-04-30T12:14:21.0000000+00:00</time></trkpt><trkpt lat="34.8408897" lon="32.9137497"><ele>559.1</ele><time>2015-04-30T12:14:22.0000000+00:00</time></trkpt><trkpt lat="34.8408452" lon="32.9136948"><ele>558.9</ele><time>2015-04-30T12:14:23.0000000+00:00</time></trkpt><trkpt lat="34.8408003" lon="32.9136361"><ele>559.3</ele><time>2015-04-30T12:14:24.0000000+00:00</time></trkpt><trkpt lat="34.8407669" lon="32.9135851"><ele>559.6</ele><time>2015-04-30T12:14:25.0000000+00:00</time></trkpt><trkpt lat="34.8407203" lon="32.913537"><ele>559.7</ele><time>2015-04-30T12:14:26.0000000+00:00</time></trkpt><trkpt lat="34.8406856" lon="32.9134872"><ele>559.7</ele><time>2015-04-30T12:14:27.0000000+00:00</time></trkpt><trkpt lat="34.8406453" lon="32.9134312"><ele>559.7</ele><time>2015-04-30T12:14:28.0000000+00:00</time></trkpt><trkpt lat="34.8406052" lon="32.9133798"><ele>560.3</ele><time>2015-04-30T12:14:29.0000000+00:00</time></trkpt><trkpt lat="34.8405491" lon="32.9133048"><ele>559.9</ele><time>2015-04-30T12:14:31.0000000+00:00</time></trkpt><trkpt lat="34.8405137" lon="32.9132595"><ele>559.8</ele><time>2015-04-30T12:14:32.0000000+00:00</time></trkpt><trkpt lat="34.8404826" lon="32.9132121"><ele>560.3</ele><time>2015-04-30T12:14:33.0000000+00:00</time></trkpt><trkpt lat="34.840457" lon="32.9131668"><ele>560.5</ele><time>2015-04-30T12:14:34.0000000+00:00</time></trkpt><trkpt lat="34.8404248" lon="32.9131275"><ele>560.6</ele><time>2015-04-30T12:14:35.0000000+00:00</time></trkpt><trkpt lat="34.8403966" lon="32.9130766"><ele>560.7</ele><time>2015-04-30T12:14:36.0000000+00:00</time></trkpt><trkpt lat="34.840369" lon="32.9130319"><ele>560.7</ele><time>2015-04-30T12:14:37.0000000+00:00</time></trkpt><trkpt lat="34.8403082" lon="32.9129624"><ele>560.3</ele><time>2015-04-30T12:14:39.0000000+00:00</time></trkpt><trkpt lat="34.8402565" lon="32.9128854"><ele>559.9</ele><time>2015-04-30T12:14:41.0000000+00:00</time></trkpt><trkpt lat="34.8402207" lon="32.912844"><ele>560.3</ele><time>2015-04-30T12:14:42.0000000+00:00</time></trkpt><trkpt lat="34.8401565" lon="32.9127706"><ele>561.2</ele><time>2015-04-30T12:14:44.0000000+00:00</time></trkpt><trkpt lat="34.8401003" lon="32.9126988"><ele>561.1</ele><time>2015-04-30T12:14:46.0000000+00:00</time></trkpt><trkpt lat="34.8400424" lon="32.9126071"><ele>561.4</ele><time>2015-04-30T12:14:48.0000000+00:00</time></trkpt><trkpt lat="34.8400099" lon="32.9125661"><ele>561.6</ele><time>2015-04-30T12:14:49.0000000+00:00</time></trkpt><trkpt lat="34.8399506" lon="32.9124875"><ele>561.0</ele><time>2015-04-30T12:14:51.0000000+00:00</time></trkpt><trkpt lat="34.8399034" lon="32.9124237"><ele>561.1</ele><time>2015-04-30T12:14:53.0000000+00:00</time></trkpt><trkpt lat="34.839854" lon="32.9123616"><ele>560.8</ele><time>2015-04-30T12:14:55.0000000+00:00</time></trkpt><trkpt lat="34.8398227" lon="32.9123218"><ele>560.8</ele><time>2015-04-30T12:14:56.0000000+00:00</time></trkpt><trkpt lat="34.8397859" lon="32.9122363"><ele>560.3</ele><time>2015-04-30T12:14:58.0000000+00:00</time></trkpt><trkpt lat="34.8397353" lon="32.9121428"><ele>561.1</ele><time>2015-04-30T12:15:00.0000000+00:00</time></trkpt><trkpt lat="34.8397015" lon="32.9120907"><ele>561.5</ele><time>2015-04-30T12:15:01.0000000+00:00</time></trkpt><trkpt lat="34.8396655" lon="32.9120065"><ele>562.4</ele><time>2015-04-30T12:15:03.0000000+00:00</time></trkpt><trkpt lat="34.8396464" lon="32.9119548"><ele>563.1</ele><time>2015-04-30T12:15:04.0000000+00:00</time></trkpt><trkpt lat="34.8396202" lon="32.9119074"><ele>563.4</ele><time>2015-04-30T12:15:05.0000000+00:00</time></trkpt><trkpt lat="34.8395738" lon="32.9118151"><ele>563.7</ele><time>2015-04-30T12:15:07.0000000+00:00</time></trkpt><trkpt lat="34.839539" lon="32.9117202"><ele>563.7</ele><time>2015-04-30T12:15:09.0000000+00:00</time></trkpt><trkpt lat="34.8395102" lon="32.9116342"><ele>564.3</ele><time>2015-04-30T12:15:11.0000000+00:00</time></trkpt><trkpt lat="34.8394809" lon="32.911549"><ele>563.9</ele><time>2015-04-30T12:15:13.0000000+00:00</time></trkpt><trkpt lat="34.839458" lon="32.9114695"><ele>564.8</ele><time>2015-04-30T12:15:15.0000000+00:00</time></trkpt><trkpt lat="34.839441" lon="32.9113823"><ele>564.8</ele><time>2015-04-30T12:15:17.0000000+00:00</time></trkpt><trkpt lat="34.8394274" lon="32.9112928"><ele>564.8</ele><time>2015-04-30T12:15:19.0000000+00:00</time></trkpt><trkpt lat="34.8394151" lon="32.9112014"><ele>565.5</ele><time>2015-04-30T12:15:21.0000000+00:00</time></trkpt><trkpt lat="34.8394097" lon="32.9111114"><ele>566.2</ele><time>2015-04-30T12:15:23.0000000+00:00</time></trkpt><trkpt lat="34.8393997" lon="32.911017"><ele>566.4</ele><time>2015-04-30T12:15:25.0000000+00:00</time></trkpt><trkpt lat="34.8393876" lon="32.9109175"><ele>566.7</ele><time>2015-04-30T12:15:27.0000000+00:00</time></trkpt><trkpt lat="34.8393785" lon="32.9108162"><ele>567.2</ele><time>2015-04-30T12:15:29.0000000+00:00</time></trkpt><trkpt lat="34.8393781" lon="32.9107177"><ele>566.9</ele><time>2015-04-30T12:15:31.0000000+00:00</time></trkpt><trkpt lat="34.8393809" lon="32.9106127"><ele>566.8</ele><time>2015-04-30T12:15:33.0000000+00:00</time></trkpt><trkpt lat="34.8393833" lon="32.9105116"><ele>567.5</ele><time>2015-04-30T12:15:35.0000000+00:00</time></trkpt><trkpt lat="34.839382" lon="32.9104106"><ele>568.2</ele><time>2015-04-30T12:15:37.0000000+00:00</time></trkpt><trkpt lat="34.8393754" lon="32.9103132"><ele>567.9</ele><time>2015-04-30T12:15:39.0000000+00:00</time></trkpt><trkpt lat="34.8393678" lon="32.9102115"><ele>568.5</ele><time>2015-04-30T12:15:41.0000000+00:00</time></trkpt><trkpt lat="34.8393598" lon="32.9101152"><ele>568.7</ele><time>2015-04-30T12:15:43.0000000+00:00</time></trkpt><trkpt lat="34.8393454" lon="32.910017"><ele>569.3</ele><time>2015-04-30T12:15:45.0000000+00:00</time></trkpt><trkpt lat="34.8393042" lon="32.9099084"><ele>569.6</ele><time>2015-04-30T12:15:47.0000000+00:00</time></trkpt><trkpt lat="34.8392722" lon="32.9098553"><ele>569.7</ele><time>2015-04-30T12:15:48.0000000+00:00</time></trkpt><trkpt lat="34.8392494" lon="32.9097979"><ele>569.7</ele><time>2015-04-30T12:15:49.0000000+00:00</time></trkpt><trkpt lat="34.8392161" lon="32.9097484"><ele>569.7</ele><time>2015-04-30T12:15:50.0000000+00:00</time></trkpt><trkpt lat="34.8391937" lon="32.9096973"><ele>569.8</ele><time>2015-04-30T12:15:51.0000000+00:00</time></trkpt><trkpt lat="34.8391634" lon="32.9096464"><ele>569.8</ele><time>2015-04-30T12:15:52.0000000+00:00</time></trkpt><trkpt lat="34.8391414" lon="32.909593"><ele>569.8</ele><time>2015-04-30T12:15:53.0000000+00:00</time></trkpt><trkpt lat="34.8391108" lon="32.9095475"><ele>569.8</ele><time>2015-04-30T12:15:54.0000000+00:00</time></trkpt><trkpt lat="34.8390538" lon="32.909463"><ele>569.8</ele><time>2015-04-30T12:15:56.0000000+00:00</time></trkpt><trkpt lat="34.8390215" lon="32.909414"><ele>570.3</ele><time>2015-04-30T12:15:57.0000000+00:00</time></trkpt><trkpt lat="34.8389823" lon="32.9093742"><ele>570.0</ele><time>2015-04-30T12:15:58.0000000+00:00</time></trkpt><trkpt lat="34.8389421" lon="32.9093315"><ele>569.9</ele><time>2015-04-30T12:15:59.0000000+00:00</time></trkpt><trkpt lat="34.838896" lon="32.9092913"><ele>569.8</ele><time>2015-04-30T12:16:00.0000000+00:00</time></trkpt><trkpt lat="34.8388533" lon="32.9092604"><ele>569.8</ele><time>2015-04-30T12:16:01.0000000+00:00</time></trkpt><trkpt lat="34.8388076" lon="32.9092249"><ele>569.8</ele><time>2015-04-30T12:16:02.0000000+00:00</time></trkpt><trkpt lat="34.8387628" lon="32.9091895"><ele>569.8</ele><time>2015-04-30T12:16:03.0000000+00:00</time></trkpt><trkpt lat="34.8387131" lon="32.909161"><ele>569.8</ele><time>2015-04-30T12:16:04.0000000+00:00</time></trkpt><trkpt lat="34.8386684" lon="32.9091303"><ele>569.8</ele><time>2015-04-30T12:16:05.0000000+00:00</time></trkpt><trkpt lat="34.8386238" lon="32.9091036"><ele>569.3</ele><time>2015-04-30T12:16:06.0000000+00:00</time></trkpt><trkpt lat="34.838583" lon="32.9090738"><ele>569.0</ele><time>2015-04-30T12:16:07.0000000+00:00</time></trkpt><trkpt lat="34.8384977" lon="32.9090258"><ele>569.6</ele><time>2015-04-30T12:16:09.0000000+00:00</time></trkpt><trkpt lat="34.838455" lon="32.9089934"><ele>569.7</ele><time>2015-04-30T12:16:10.0000000+00:00</time></trkpt><trkpt lat="34.8383652" lon="32.9089434"><ele>569.7</ele><time>2015-04-30T12:16:12.0000000+00:00</time></trkpt><trkpt lat="34.8383207" lon="32.9089107"><ele>570.3</ele><time>2015-04-30T12:16:13.0000000+00:00</time></trkpt><trkpt lat="34.8382788" lon="32.9088756"><ele>570.5</ele><time>2015-04-30T12:16:14.0000000+00:00</time></trkpt><trkpt lat="34.8382381" lon="32.9088503"><ele>571.1</ele><time>2015-04-30T12:16:15.0000000+00:00</time></trkpt><trkpt lat="34.8381951" lon="32.9088213"><ele>572.0</ele><time>2015-04-30T12:16:16.0000000+00:00</time></trkpt><trkpt lat="34.8381542" lon="32.9087985"><ele>572.4</ele><time>2015-04-30T12:16:17.0000000+00:00</time></trkpt><trkpt lat="34.8380807" lon="32.9087535"><ele>573.9</ele><time>2015-04-30T12:16:19.0000000+00:00</time></trkpt><trkpt lat="34.8380071" lon="32.9087113"><ele>574.6</ele><time>2015-04-30T12:16:21.0000000+00:00</time></trkpt><trkpt lat="34.8379411" lon="32.9086576"><ele>574.0</ele><time>2015-04-30T12:16:23.0000000+00:00</time></trkpt><trkpt lat="34.8379003" lon="32.9086306"><ele>573.9</ele><time>2015-04-30T12:16:24.0000000+00:00</time></trkpt><trkpt lat="34.8378252" lon="32.9085647"><ele>574.3</ele><time>2015-04-30T12:16:26.0000000+00:00</time></trkpt><trkpt lat="34.8377918" lon="32.9085258"><ele>574.0</ele><time>2015-04-30T12:16:27.0000000+00:00</time></trkpt><trkpt lat="34.8377513" lon="32.9084919"><ele>574.4</ele><time>2015-04-30T12:16:28.0000000+00:00</time></trkpt><trkpt lat="34.8376902" lon="32.9084258"><ele>574.4</ele><time>2015-04-30T12:16:30.0000000+00:00</time></trkpt><trkpt lat="34.8376348" lon="32.9083566"><ele>574.7</ele><time>2015-04-30T12:16:32.0000000+00:00</time></trkpt><trkpt lat="34.8375775" lon="32.9082865"><ele>574.7</ele><time>2015-04-30T12:16:34.0000000+00:00</time></trkpt><trkpt lat="34.8375294" lon="32.9082309"><ele>574.3</ele><time>2015-04-30T12:16:36.0000000+00:00</time></trkpt><trkpt lat="34.8374813" lon="32.908171"><ele>573.9</ele><time>2015-04-30T12:16:38.0000000+00:00</time></trkpt><trkpt lat="34.8374268" lon="32.9081154"><ele>574.5</ele><time>2015-04-30T12:16:40.0000000+00:00</time></trkpt><trkpt lat="34.8373704" lon="32.908061"><ele>574.7</ele><time>2015-04-30T12:16:42.0000000+00:00</time></trkpt><trkpt lat="34.8373183" lon="32.9079982"><ele>575.3</ele><time>2015-04-30T12:16:44.0000000+00:00</time></trkpt><trkpt lat="34.8372663" lon="32.9079349"><ele>575.1</ele><time>2015-04-30T12:16:46.0000000+00:00</time></trkpt><trkpt lat="34.8372101" lon="32.9078726"><ele>574.9</ele><time>2015-04-30T12:16:48.0000000+00:00</time></trkpt><trkpt lat="34.8371526" lon="32.9078055"><ele>574.8</ele><time>2015-04-30T12:16:50.0000000+00:00</time></trkpt><trkpt lat="34.8370928" lon="32.9077386"><ele>575.5</ele><time>2015-04-30T12:16:52.0000000+00:00</time></trkpt><trkpt lat="34.837032" lon="32.9076726"><ele>575.2</ele><time>2015-04-30T12:16:54.0000000+00:00</time></trkpt><trkpt lat="34.83697" lon="32.9076112"><ele>574.9</ele><time>2015-04-30T12:16:56.0000000+00:00</time></trkpt><trkpt lat="34.8369102" lon="32.9075498"><ele>574.8</ele><time>2015-04-30T12:16:58.0000000+00:00</time></trkpt><trkpt lat="34.8368511" lon="32.907491"><ele>574.8</ele><time>2015-04-30T12:17:00.0000000+00:00</time></trkpt><trkpt lat="34.8367913" lon="32.907431"><ele>575.5</ele><time>2015-04-30T12:17:02.0000000+00:00</time></trkpt><trkpt lat="34.8367296" lon="32.9073747"><ele>575.7</ele><time>2015-04-30T12:17:04.0000000+00:00</time></trkpt><trkpt lat="34.8366726" lon="32.9073186"><ele>575.7</ele><time>2015-04-30T12:17:06.0000000+00:00</time></trkpt><trkpt lat="34.8366252" lon="32.9072658"><ele>576.5</ele><time>2015-04-30T12:17:08.0000000+00:00</time></trkpt><trkpt lat="34.8365707" lon="32.9072169"><ele>576.7</ele><time>2015-04-30T12:17:10.0000000+00:00</time></trkpt><trkpt lat="34.8365099" lon="32.9071796"><ele>576.2</ele><time>2015-04-30T12:17:12.0000000+00:00</time></trkpt><trkpt lat="34.8364409" lon="32.9071509"><ele>576.6</ele><time>2015-04-30T12:17:14.0000000+00:00</time></trkpt><trkpt lat="34.8363688" lon="32.9071311"><ele>576.7</ele><time>2015-04-30T12:17:16.0000000+00:00</time></trkpt><trkpt lat="34.8362954" lon="32.907128"><ele>576.8</ele><time>2015-04-30T12:17:18.0000000+00:00</time></trkpt><trkpt lat="34.836219" lon="32.9071456"><ele>577.3</ele><time>2015-04-30T12:17:20.0000000+00:00</time></trkpt><trkpt lat="34.8361434" lon="32.9071713"><ele>577.1</ele><time>2015-04-30T12:17:22.0000000+00:00</time></trkpt><trkpt lat="34.836065" lon="32.9072138"><ele>576.9</ele><time>2015-04-30T12:17:24.0000000+00:00</time></trkpt><trkpt lat="34.8359893" lon="32.9072554"><ele>576.8</ele><time>2015-04-30T12:17:26.0000000+00:00</time></trkpt><trkpt lat="34.8359178" lon="32.9073018"><ele>576.0</ele><time>2015-04-30T12:17:28.0000000+00:00</time></trkpt><trkpt lat="34.8358687" lon="32.9073362"><ele>575.9</ele><time>2015-04-30T12:17:29.0000000+00:00</time></trkpt><trkpt lat="34.8357642" lon="32.9074024"><ele>575.0</ele><time>2015-04-30T12:17:31.0000000+00:00</time></trkpt><trkpt lat="34.8357084" lon="32.9074318"><ele>574.9</ele><time>2015-04-30T12:17:32.0000000+00:00</time></trkpt><trkpt lat="34.8356544" lon="32.9074612"><ele>574.3</ele><time>2015-04-30T12:17:33.0000000+00:00</time></trkpt><trkpt lat="34.8355964" lon="32.9074882"><ele>574.1</ele><time>2015-04-30T12:17:34.0000000+00:00</time></trkpt><trkpt lat="34.8355387" lon="32.9075168"><ele>573.4</ele><time>2015-04-30T12:17:35.0000000+00:00</time></trkpt><trkpt lat="34.8354793" lon="32.9075508"><ele>573.1</ele><time>2015-04-30T12:17:36.0000000+00:00</time></trkpt><trkpt lat="34.8354133" lon="32.907586"><ele>572.9</ele><time>2015-04-30T12:17:37.0000000+00:00</time></trkpt><trkpt lat="34.8353496" lon="32.9076213"><ele>572.3</ele><time>2015-04-30T12:17:38.0000000+00:00</time></trkpt><trkpt lat="34.8352824" lon="32.9076653"><ele>571.6</ele><time>2015-04-30T12:17:39.0000000+00:00</time></trkpt><trkpt lat="34.8352194" lon="32.9077104"><ele>571.2</ele><time>2015-04-30T12:17:40.0000000+00:00</time></trkpt><trkpt lat="34.8351604" lon="32.9077467"><ele>571.0</ele><time>2015-04-30T12:17:41.0000000+00:00</time></trkpt><trkpt lat="34.8351045" lon="32.9077941"><ele>570.4</ele><time>2015-04-30T12:17:42.0000000+00:00</time></trkpt><trkpt lat="34.8350477" lon="32.9078467"><ele>570.1</ele><time>2015-04-30T12:17:43.0000000+00:00</time></trkpt><trkpt lat="34.8349899" lon="32.9079021"><ele>569.4</ele><time>2015-04-30T12:17:44.0000000+00:00</time></trkpt><trkpt lat="34.8349411" lon="32.9079891"><ele>569.6</ele><time>2015-04-30T12:17:45.0000000+00:00</time></trkpt><trkpt lat="34.8348907" lon="32.9080585"><ele>569.2</ele><time>2015-04-30T12:17:46.0000000+00:00</time></trkpt><trkpt lat="34.8348701" lon="32.9081558"><ele>569.0</ele><time>2015-04-30T12:17:47.0000000+00:00</time></trkpt><trkpt lat="34.8348372" lon="32.9082544"><ele>568.9</ele><time>2015-04-30T12:17:48.0000000+00:00</time></trkpt><trkpt lat="34.8348061" lon="32.9083582"><ele>568.8</ele><time>2015-04-30T12:17:49.0000000+00:00</time></trkpt><trkpt lat="34.8347814" lon="32.9084599"><ele>568.3</ele><time>2015-04-30T12:17:50.0000000+00:00</time></trkpt><trkpt lat="34.8347582" lon="32.9085701"><ele>568.0</ele><time>2015-04-30T12:17:51.0000000+00:00</time></trkpt><trkpt lat="34.8347347" lon="32.9086846"><ele>567.9</ele><time>2015-04-30T12:17:52.0000000+00:00</time></trkpt><trkpt lat="34.8347147" lon="32.908795"><ele>567.3</ele><time>2015-04-30T12:17:53.0000000+00:00</time></trkpt><trkpt lat="34.8346927" lon="32.9089127"><ele>566.5</ele><time>2015-04-30T12:17:54.0000000+00:00</time></trkpt><trkpt lat="34.8346641" lon="32.9090248"><ele>566.2</ele><time>2015-04-30T12:17:55.0000000+00:00</time></trkpt><trkpt lat="34.8346321" lon="32.9091497"><ele>566.0</ele><time>2015-04-30T12:17:56.0000000+00:00</time></trkpt><trkpt lat="34.8346031" lon="32.909266"><ele>565.4</ele><time>2015-04-30T12:17:57.0000000+00:00</time></trkpt><trkpt lat="34.8345739" lon="32.9093787"><ele>565.1</ele><time>2015-04-30T12:17:58.0000000+00:00</time></trkpt><trkpt lat="34.8345474" lon="32.9094983"><ele>564.4</ele><time>2015-04-30T12:17:59.0000000+00:00</time></trkpt><trkpt lat="34.834521" lon="32.9096293"><ele>563.6</ele><time>2015-04-30T12:18:00.0000000+00:00</time></trkpt><trkpt lat="34.8345012" lon="32.9097437"><ele>563.2</ele><time>2015-04-30T12:18:01.0000000+00:00</time></trkpt><trkpt lat="34.8344751" lon="32.9098674"><ele>562.5</ele><time>2015-04-30T12:18:02.0000000+00:00</time></trkpt><trkpt lat="34.834445" lon="32.9099822"><ele>562.1</ele><time>2015-04-30T12:18:03.0000000+00:00</time></trkpt><trkpt lat="34.8344148" lon="32.9101115"><ele>561.4</ele><time>2015-04-30T12:18:04.0000000+00:00</time></trkpt><trkpt lat="34.8343673" lon="32.9102256"><ele>561.1</ele><time>2015-04-30T12:18:05.0000000+00:00</time></trkpt><trkpt lat="34.8343179" lon="32.9103354"><ele>560.4</ele><time>2015-04-30T12:18:06.0000000+00:00</time></trkpt><trkpt lat="34.8342637" lon="32.9104399"><ele>560.1</ele><time>2015-04-30T12:18:07.0000000+00:00</time></trkpt><trkpt lat="34.8341881" lon="32.9105345"><ele>559.4</ele><time>2015-04-30T12:18:08.0000000+00:00</time></trkpt><trkpt lat="34.8341116" lon="32.910614"><ele>559.1</ele><time>2015-04-30T12:18:09.0000000+00:00</time></trkpt><trkpt lat="34.8340303" lon="32.9106816"><ele>558.4</ele><time>2015-04-30T12:18:10.0000000+00:00</time></trkpt><trkpt lat="34.833945" lon="32.9107383"><ele>558.6</ele><time>2015-04-30T12:18:11.0000000+00:00</time></trkpt><trkpt lat="34.8338546" lon="32.9107826"><ele>558.2</ele><time>2015-04-30T12:18:12.0000000+00:00</time></trkpt><trkpt lat="34.8337604" lon="32.9108183"><ele>558.0</ele><time>2015-04-30T12:18:13.0000000+00:00</time></trkpt><trkpt lat="34.8336735" lon="32.9108485"><ele>557.9</ele><time>2015-04-30T12:18:14.0000000+00:00</time></trkpt><trkpt lat="34.833591" lon="32.910873"><ele>557.8</ele><time>2015-04-30T12:18:15.0000000+00:00</time></trkpt><trkpt lat="34.8335018" lon="32.9108914"><ele>557.8</ele><time>2015-04-30T12:18:16.0000000+00:00</time></trkpt><trkpt lat="34.8334158" lon="32.9109158"><ele>557.8</ele><time>2015-04-30T12:18:17.0000000+00:00</time></trkpt><trkpt lat="34.833335" lon="32.9109336"><ele>557.8</ele><time>2015-04-30T12:18:18.0000000+00:00</time></trkpt><trkpt lat="34.8332589" lon="32.9109577"><ele>558.3</ele><time>2015-04-30T12:18:19.0000000+00:00</time></trkpt><trkpt lat="34.8331806" lon="32.9109787"><ele>558.5</ele><time>2015-04-30T12:18:20.0000000+00:00</time></trkpt><trkpt lat="34.8331088" lon="32.9110019"><ele>558.6</ele><time>2015-04-30T12:18:21.0000000+00:00</time></trkpt><trkpt lat="34.8330403" lon="32.9110195"><ele>558.7</ele><time>2015-04-30T12:18:22.0000000+00:00</time></trkpt><trkpt lat="34.8329769" lon="32.9110314"><ele>558.7</ele><time>2015-04-30T12:18:23.0000000+00:00</time></trkpt><trkpt lat="34.8329082" lon="32.9110507"><ele>558.7</ele><time>2015-04-30T12:18:24.0000000+00:00</time></trkpt><trkpt lat="34.8328439" lon="32.9110653"><ele>559.3</ele><time>2015-04-30T12:18:25.0000000+00:00</time></trkpt><trkpt lat="34.8327849" lon="32.911084"><ele>560.0</ele><time>2015-04-30T12:18:26.0000000+00:00</time></trkpt><trkpt lat="34.8327213" lon="32.9111072"><ele>560.4</ele><time>2015-04-30T12:18:27.0000000+00:00</time></trkpt><trkpt lat="34.8326592" lon="32.9111257"><ele>561.1</ele><time>2015-04-30T12:18:28.0000000+00:00</time></trkpt><trkpt lat="34.8325968" lon="32.9111444"><ele>561.4</ele><time>2015-04-30T12:18:29.0000000+00:00</time></trkpt><trkpt lat="34.8325335" lon="32.9111643"><ele>561.6</ele><time>2015-04-30T12:18:30.0000000+00:00</time></trkpt><trkpt lat="34.8324756" lon="32.9111846"><ele>561.7</ele><time>2015-04-30T12:18:31.0000000+00:00</time></trkpt><trkpt lat="34.8324137" lon="32.9111944"><ele>561.7</ele><time>2015-04-30T12:18:32.0000000+00:00</time></trkpt><trkpt lat="34.8323569" lon="32.9112111"><ele>562.2</ele><time>2015-04-30T12:18:33.0000000+00:00</time></trkpt><trkpt lat="34.8323056" lon="32.9112311"><ele>562.5</ele><time>2015-04-30T12:18:34.0000000+00:00</time></trkpt><trkpt lat="34.8322584" lon="32.9112484"><ele>562.6</ele><time>2015-04-30T12:18:35.0000000+00:00</time></trkpt><trkpt lat="34.8322112" lon="32.9112698"><ele>562.7</ele><time>2015-04-30T12:18:36.0000000+00:00</time></trkpt><trkpt lat="34.832128" lon="32.9113093"><ele>562.7</ele><time>2015-04-30T12:18:38.0000000+00:00</time></trkpt><trkpt lat="34.8320872" lon="32.9113334"><ele>562.8</ele><time>2015-04-30T12:18:39.0000000+00:00</time></trkpt><trkpt lat="34.8320459" lon="32.9113663"><ele>563.3</ele><time>2015-04-30T12:18:40.0000000+00:00</time></trkpt><trkpt lat="34.8319759" lon="32.9114284"><ele>562.9</ele><time>2015-04-30T12:18:42.0000000+00:00</time></trkpt><trkpt lat="34.8319075" lon="32.9115006"><ele>562.3</ele><time>2015-04-30T12:18:44.0000000+00:00</time></trkpt><trkpt lat="34.8318742" lon="32.9115417"><ele>562.0</ele><time>2015-04-30T12:18:45.0000000+00:00</time></trkpt><trkpt lat="34.8318442" lon="32.9115861"><ele>561.9</ele><time>2015-04-30T12:18:46.0000000+00:00</time></trkpt><trkpt lat="34.8318238" lon="32.911639"><ele>561.8</ele><time>2015-04-30T12:18:47.0000000+00:00</time></trkpt><trkpt lat="34.8318028" lon="32.911688"><ele>561.8</ele><time>2015-04-30T12:18:48.0000000+00:00</time></trkpt><trkpt lat="34.8317554" lon="32.9117801"><ele>561.8</ele><time>2015-04-30T12:18:50.0000000+00:00</time></trkpt><trkpt lat="34.8317283" lon="32.9118727"><ele>561.5</ele><time>2015-04-30T12:18:52.0000000+00:00</time></trkpt><trkpt lat="34.8317044" lon="32.9119709"><ele>561.2</ele><time>2015-04-30T12:18:54.0000000+00:00</time></trkpt><trkpt lat="34.8316844" lon="32.9120809"><ele>561.4</ele><time>2015-04-30T12:18:56.0000000+00:00</time></trkpt><trkpt lat="34.8316745" lon="32.9121451"><ele>561.6</ele><time>2015-04-30T12:18:57.0000000+00:00</time></trkpt><trkpt lat="34.8316687" lon="32.9122132"><ele>561.7</ele><time>2015-04-30T12:18:58.0000000+00:00</time></trkpt><trkpt lat="34.8316692" lon="32.9122781"><ele>561.7</ele><time>2015-04-30T12:18:59.0000000+00:00</time></trkpt><trkpt lat="34.8316724" lon="32.912345"><ele>561.7</ele><time>2015-04-30T12:19:00.0000000+00:00</time></trkpt><trkpt lat="34.8316732" lon="32.9124144"><ele>561.3</ele><time>2015-04-30T12:19:01.0000000+00:00</time></trkpt><trkpt lat="34.8316684" lon="32.9124804"><ele>561.0</ele><time>2015-04-30T12:19:02.0000000+00:00</time></trkpt><trkpt lat="34.8316819" lon="32.9125857"><ele>560.8</ele><time>2015-04-30T12:19:04.0000000+00:00</time></trkpt><trkpt lat="34.831678" lon="32.9126497"><ele>560.8</ele><time>2015-04-30T12:19:05.0000000+00:00</time></trkpt><trkpt lat="34.8316785" lon="32.9127163"><ele>560.3</ele><time>2015-04-30T12:19:06.0000000+00:00</time></trkpt><trkpt lat="34.8316871" lon="32.9127737"><ele>560.5</ele><time>2015-04-30T12:19:07.0000000+00:00</time></trkpt><trkpt lat="34.83169" lon="32.9128511"><ele>560.6</ele><time>2015-04-30T12:19:08.0000000+00:00</time></trkpt><trkpt lat="34.8316926" lon="32.9129248"><ele>561.2</ele><time>2015-04-30T12:19:09.0000000+00:00</time></trkpt><trkpt lat="34.8316865" lon="32.9130046"><ele>561.5</ele><time>2015-04-30T12:19:10.0000000+00:00</time></trkpt><trkpt lat="34.8316879" lon="32.9130809"><ele>562.1</ele><time>2015-04-30T12:19:11.0000000+00:00</time></trkpt><trkpt lat="34.831684" lon="32.9131652"><ele>561.9</ele><time>2015-04-30T12:19:12.0000000+00:00</time></trkpt><trkpt lat="34.8316826" lon="32.9132318"><ele>561.9</ele><time>2015-04-30T12:19:13.0000000+00:00</time></trkpt><trkpt lat="34.8316831" lon="32.9133043"><ele>561.8</ele><time>2015-04-30T12:19:14.0000000+00:00</time></trkpt><trkpt lat="34.8316818" lon="32.913367"><ele>561.8</ele><time>2015-04-30T12:19:15.0000000+00:00</time></trkpt><trkpt lat="34.8316779" lon="32.9134391"><ele>561.8</ele><time>2015-04-30T12:19:16.0000000+00:00</time></trkpt><trkpt lat="34.8316779" lon="32.9135057"><ele>562.3</ele><time>2015-04-30T12:19:17.0000000+00:00</time></trkpt><trkpt lat="34.8316837" lon="32.9135796"><ele>562.5</ele><time>2015-04-30T12:19:18.0000000+00:00</time></trkpt><trkpt lat="34.8316923" lon="32.9136443"><ele>562.6</ele><time>2015-04-30T12:19:19.0000000+00:00</time></trkpt><trkpt lat="34.8316947" lon="32.9137268"><ele>562.2</ele><time>2015-04-30T12:19:20.0000000+00:00</time></trkpt><trkpt lat="34.8316992" lon="32.9137985"><ele>562.5</ele><time>2015-04-30T12:19:21.0000000+00:00</time></trkpt><trkpt lat="34.8317014" lon="32.9138764"><ele>562.6</ele><time>2015-04-30T12:19:22.0000000+00:00</time></trkpt><trkpt lat="34.8317048" lon="32.9139508"><ele>562.7</ele><time>2015-04-30T12:19:23.0000000+00:00</time></trkpt><trkpt lat="34.8317108" lon="32.9140242"><ele>562.2</ele><time>2015-04-30T12:19:24.0000000+00:00</time></trkpt><trkpt lat="34.8317184" lon="32.9141011"><ele>561.5</ele><time>2015-04-30T12:19:25.0000000+00:00</time></trkpt><trkpt lat="34.8317216" lon="32.9141654"><ele>560.6</ele><time>2015-04-30T12:19:26.0000000+00:00</time></trkpt><trkpt lat="34.8317311" lon="32.9142478"><ele>560.2</ele><time>2015-04-30T12:19:27.0000000+00:00</time></trkpt><trkpt lat="34.8317375" lon="32.9143286"><ele>560.0</ele><time>2015-04-30T12:19:28.0000000+00:00</time></trkpt><trkpt lat="34.8317402" lon="32.9144038"><ele>559.9</ele><time>2015-04-30T12:19:29.0000000+00:00</time></trkpt><trkpt lat="34.831746" lon="32.9144781"><ele>559.3</ele><time>2015-04-30T12:19:30.0000000+00:00</time></trkpt><trkpt lat="34.8317424" lon="32.9145498"><ele>558.5</ele><time>2015-04-30T12:19:31.0000000+00:00</time></trkpt><trkpt lat="34.8317363" lon="32.9146286"><ele>557.7</ele><time>2015-04-30T12:19:32.0000000+00:00</time></trkpt><trkpt lat="34.831738" lon="32.9147028"><ele>557.2</ele><time>2015-04-30T12:19:33.0000000+00:00</time></trkpt><trkpt lat="34.8317337" lon="32.9147931"><ele>556.0</ele><time>2015-04-30T12:19:34.0000000+00:00</time></trkpt><trkpt lat="34.8317406" lon="32.9148709"><ele>556.4</ele><time>2015-04-30T12:19:35.0000000+00:00</time></trkpt><trkpt lat="34.8317331" lon="32.9149571"><ele>556.6</ele><time>2015-04-30T12:19:36.0000000+00:00</time></trkpt><trkpt lat="34.8317252" lon="32.915034"><ele>556.2</ele><time>2015-04-30T12:19:37.0000000+00:00</time></trkpt><trkpt lat="34.8317162" lon="32.9151138"><ele>556.0</ele><time>2015-04-30T12:19:38.0000000+00:00</time></trkpt><trkpt lat="34.8316998" lon="32.915195"><ele>555.4</ele><time>2015-04-30T12:19:39.0000000+00:00</time></trkpt><trkpt lat="34.8316908" lon="32.9152742"><ele>555.1</ele><time>2015-04-30T12:19:40.0000000+00:00</time></trkpt><trkpt lat="34.8316682" lon="32.9153593"><ele>554.9</ele><time>2015-04-30T12:19:41.0000000+00:00</time></trkpt><trkpt lat="34.83165" lon="32.9154548"><ele>554.8</ele><time>2015-04-30T12:19:42.0000000+00:00</time></trkpt><trkpt lat="34.8316298" lon="32.9155314"><ele>554.8</ele><time>2015-04-30T12:19:43.0000000+00:00</time></trkpt><trkpt lat="34.8316075" lon="32.9156142"><ele>554.8</ele><time>2015-04-30T12:19:44.0000000+00:00</time></trkpt><trkpt lat="34.8315766" lon="32.9156969"><ele>554.3</ele><time>2015-04-30T12:19:45.0000000+00:00</time></trkpt><trkpt lat="34.8315425" lon="32.9157739"><ele>554.0</ele><time>2015-04-30T12:19:46.0000000+00:00</time></trkpt><trkpt lat="34.8315103" lon="32.9158316"><ele>553.4</ele><time>2015-04-30T12:19:47.0000000+00:00</time></trkpt><trkpt lat="34.8314692" lon="32.9158938"><ele>553.1</ele><time>2015-04-30T12:19:48.0000000+00:00</time></trkpt><trkpt lat="34.8314269" lon="32.9159584"><ele>552.9</ele><time>2015-04-30T12:19:49.0000000+00:00</time></trkpt><trkpt lat="34.8313824" lon="32.9160166"><ele>552.8</ele><time>2015-04-30T12:19:50.0000000+00:00</time></trkpt><trkpt lat="34.8313349" lon="32.9160709"><ele>552.8</ele><time>2015-04-30T12:19:51.0000000+00:00</time></trkpt><trkpt lat="34.8312878" lon="32.9161212"><ele>552.8</ele><time>2015-04-30T12:19:52.0000000+00:00</time></trkpt><trkpt lat="34.8312441" lon="32.9161685"><ele>552.8</ele><time>2015-04-30T12:19:53.0000000+00:00</time></trkpt><trkpt lat="34.8311916" lon="32.9162031"><ele>553.3</ele><time>2015-04-30T12:19:54.0000000+00:00</time></trkpt><trkpt lat="34.8311443" lon="32.9162424"><ele>553.5</ele><time>2015-04-30T12:19:55.0000000+00:00</time></trkpt><trkpt lat="34.8310857" lon="32.9162702"><ele>553.1</ele><time>2015-04-30T12:19:56.0000000+00:00</time></trkpt><trkpt lat="34.8310413" lon="32.9163051"><ele>553.0</ele><time>2015-04-30T12:19:57.0000000+00:00</time></trkpt><trkpt lat="34.8309851" lon="32.9163375"><ele>552.9</ele><time>2015-04-30T12:19:58.0000000+00:00</time></trkpt><trkpt lat="34.8309311" lon="32.9163707"><ele>552.8</ele><time>2015-04-30T12:19:59.0000000+00:00</time></trkpt><trkpt lat="34.8308714" lon="32.9163918"><ele>552.3</ele><time>2015-04-30T12:20:00.0000000+00:00</time></trkpt><trkpt lat="34.8308135" lon="32.9164171"><ele>552.5</ele><time>2015-04-30T12:20:01.0000000+00:00</time></trkpt><trkpt lat="34.8307581" lon="32.9164362"><ele>552.6</ele><time>2015-04-30T12:20:02.0000000+00:00</time></trkpt><trkpt lat="34.8306994" lon="32.9164549"><ele>552.7</ele><time>2015-04-30T12:20:03.0000000+00:00</time></trkpt><trkpt lat="34.8306331" lon="32.9164704"><ele>552.7</ele><time>2015-04-30T12:20:04.0000000+00:00</time></trkpt><trkpt lat="34.8305641" lon="32.9164772"><ele>552.8</ele><time>2015-04-30T12:20:05.0000000+00:00</time></trkpt><trkpt lat="34.8304964" lon="32.9164821"><ele>552.3</ele><time>2015-04-30T12:20:06.0000000+00:00</time></trkpt><trkpt lat="34.83042" lon="32.9164797"><ele>551.5</ele><time>2015-04-30T12:20:07.0000000+00:00</time></trkpt><trkpt lat="34.830348" lon="32.9164783"><ele>551.1</ele><time>2015-04-30T12:20:08.0000000+00:00</time></trkpt><trkpt lat="34.8302886" lon="32.9164776"><ele>551.0</ele><time>2015-04-30T12:20:09.0000000+00:00</time></trkpt><trkpt lat="34.8302171" lon="32.9164721"><ele>550.9</ele><time>2015-04-30T12:20:10.0000000+00:00</time></trkpt><trkpt lat="34.8301515" lon="32.9164631"><ele>550.3</ele><time>2015-04-30T12:20:11.0000000+00:00</time></trkpt><trkpt lat="34.8300802" lon="32.9164535"><ele>550.5</ele><time>2015-04-30T12:20:12.0000000+00:00</time></trkpt><trkpt lat="34.8300189" lon="32.916434"><ele>551.2</ele><time>2015-04-30T12:20:13.0000000+00:00</time></trkpt><trkpt lat="34.8299586" lon="32.9164182"><ele>551.0</ele><time>2015-04-30T12:20:14.0000000+00:00</time></trkpt><trkpt lat="34.8299004" lon="32.9163989"><ele>550.9</ele><time>2015-04-30T12:20:15.0000000+00:00</time></trkpt><trkpt lat="34.8298333" lon="32.9163573"><ele>551.3</ele><time>2015-04-30T12:20:16.0000000+00:00</time></trkpt><trkpt lat="34.8297684" lon="32.9163203"><ele>551.5</ele><time>2015-04-30T12:20:17.0000000+00:00</time></trkpt><trkpt lat="34.829707" lon="32.916284"><ele>551.7</ele><time>2015-04-30T12:20:18.0000000+00:00</time></trkpt><trkpt lat="34.8296523" lon="32.916231"><ele>550.7</ele><time>2015-04-30T12:20:19.0000000+00:00</time></trkpt><trkpt lat="34.8295926" lon="32.9161803"><ele>550.2</ele><time>2015-04-30T12:20:20.0000000+00:00</time></trkpt><trkpt lat="34.8295403" lon="32.9161336"><ele>550.0</ele><time>2015-04-30T12:20:21.0000000+00:00</time></trkpt><trkpt lat="34.8294883" lon="32.9160845"><ele>550.4</ele><time>2015-04-30T12:20:22.0000000+00:00</time></trkpt><trkpt lat="34.829439" lon="32.9160333"><ele>550.6</ele><time>2015-04-30T12:20:23.0000000+00:00</time></trkpt><trkpt lat="34.8293936" lon="32.9159705"><ele>550.2</ele><time>2015-04-30T12:20:24.0000000+00:00</time></trkpt><trkpt lat="34.8293579" lon="32.91591"><ele>550.0</ele><time>2015-04-30T12:20:25.0000000+00:00</time></trkpt><trkpt lat="34.8293182" lon="32.9158491"><ele>549.9</ele><time>2015-04-30T12:20:26.0000000+00:00</time></trkpt><trkpt lat="34.8292741" lon="32.9157887"><ele>549.3</ele><time>2015-04-30T12:20:27.0000000+00:00</time></trkpt><trkpt lat="34.8292395" lon="32.9157172"><ele>548.5</ele><time>2015-04-30T12:20:28.0000000+00:00</time></trkpt><trkpt lat="34.8292063" lon="32.9156507"><ele>547.7</ele><time>2015-04-30T12:20:29.0000000+00:00</time></trkpt><trkpt lat="34.8291808" lon="32.9155864"><ele>546.7</ele><time>2015-04-30T12:20:30.0000000+00:00</time></trkpt><trkpt lat="34.8291583" lon="32.9155189"><ele>546.2</ele><time>2015-04-30T12:20:31.0000000+00:00</time></trkpt><trkpt lat="34.8291324" lon="32.9154409"><ele>546.0</ele><time>2015-04-30T12:20:32.0000000+00:00</time></trkpt><trkpt lat="34.829119" lon="32.9153583"><ele>546.9</ele><time>2015-04-30T12:20:33.0000000+00:00</time></trkpt><trkpt lat="34.8290971" lon="32.9152765"><ele>546.8</ele><time>2015-04-30T12:20:34.0000000+00:00</time></trkpt><trkpt lat="34.8290815" lon="32.9151956"><ele>546.8</ele><time>2015-04-30T12:20:35.0000000+00:00</time></trkpt><trkpt lat="34.8290673" lon="32.9151065"><ele>546.8</ele><time>2015-04-30T12:20:36.0000000+00:00</time></trkpt><trkpt lat="34.8290628" lon="32.9150164"><ele>547.3</ele><time>2015-04-30T12:20:37.0000000+00:00</time></trkpt><trkpt lat="34.8290526" lon="32.9149201"><ele>548.0</ele><time>2015-04-30T12:20:38.0000000+00:00</time></trkpt><trkpt lat="34.829034" lon="32.9148349"><ele>548.4</ele><time>2015-04-30T12:20:39.0000000+00:00</time></trkpt><trkpt lat="34.8290208" lon="32.9147553"><ele>548.6</ele><time>2015-04-30T12:20:40.0000000+00:00</time></trkpt><trkpt lat="34.8290127" lon="32.9146668"><ele>548.7</ele><time>2015-04-30T12:20:41.0000000+00:00</time></trkpt><trkpt lat="34.829005" lon="32.9145682"><ele>547.7</ele><time>2015-04-30T12:20:42.0000000+00:00</time></trkpt><trkpt lat="34.8289901" lon="32.914493"><ele>546.7</ele><time>2015-04-30T12:20:43.0000000+00:00</time></trkpt><trkpt lat="34.8289768" lon="32.9144134"><ele>546.3</ele><time>2015-04-30T12:20:44.0000000+00:00</time></trkpt><trkpt lat="34.8289647" lon="32.9143237"><ele>546.0</ele><time>2015-04-30T12:20:45.0000000+00:00</time></trkpt><trkpt lat="34.8289477" lon="32.9142305"><ele>544.9</ele><time>2015-04-30T12:20:46.0000000+00:00</time></trkpt><trkpt lat="34.8289372" lon="32.914132"><ele>543.8</ele><time>2015-04-30T12:20:47.0000000+00:00</time></trkpt><trkpt lat="34.8289254" lon="32.9140286"><ele>543.3</ele><time>2015-04-30T12:20:48.0000000+00:00</time></trkpt><trkpt lat="34.8289166" lon="32.9139363"><ele>543.0</ele><time>2015-04-30T12:20:49.0000000+00:00</time></trkpt><trkpt lat="34.82891" lon="32.9138401"><ele>542.9</ele><time>2015-04-30T12:20:50.0000000+00:00</time></trkpt><trkpt lat="34.8288819" lon="32.9137411"><ele>541.8</ele><time>2015-04-30T12:20:51.0000000+00:00</time></trkpt><trkpt lat="34.8288657" lon="32.913637"><ele>540.8</ele><time>2015-04-30T12:20:52.0000000+00:00</time></trkpt><trkpt lat="34.828857" lon="32.9135386"><ele>540.3</ele><time>2015-04-30T12:20:53.0000000+00:00</time></trkpt><trkpt lat="34.828835" lon="32.9134466"><ele>540.0</ele><time>2015-04-30T12:20:54.0000000+00:00</time></trkpt><trkpt lat="34.82882" lon="32.9133538"><ele>539.4</ele><time>2015-04-30T12:20:55.0000000+00:00</time></trkpt><trkpt lat="34.8288041" lon="32.9132482"><ele>538.6</ele><time>2015-04-30T12:20:56.0000000+00:00</time></trkpt><trkpt lat="34.8287873" lon="32.9131511"><ele>538.2</ele><time>2015-04-30T12:20:57.0000000+00:00</time></trkpt><trkpt lat="34.8287924" lon="32.9130366"><ele>538.5</ele><time>2015-04-30T12:20:58.0000000+00:00</time></trkpt><trkpt lat="34.8287708" lon="32.9129381"><ele>538.6</ele><time>2015-04-30T12:20:59.0000000+00:00</time></trkpt><trkpt lat="34.828749" lon="32.9128401"><ele>538.2</ele><time>2015-04-30T12:21:00.0000000+00:00</time></trkpt><trkpt lat="34.8287189" lon="32.9127423"><ele>538.0</ele><time>2015-04-30T12:21:01.0000000+00:00</time></trkpt><trkpt lat="34.8286895" lon="32.9126462"><ele>537.9</ele><time>2015-04-30T12:21:02.0000000+00:00</time></trkpt><trkpt lat="34.8286601" lon="32.9125544"><ele>537.8</ele><time>2015-04-30T12:21:03.0000000+00:00</time></trkpt><trkpt lat="34.8286275" lon="32.9124646"><ele>537.3</ele><time>2015-04-30T12:21:04.0000000+00:00</time></trkpt><trkpt lat="34.8285924" lon="32.912374"><ele>536.0</ele><time>2015-04-30T12:21:05.0000000+00:00</time></trkpt><trkpt lat="34.8285566" lon="32.9122847"><ele>534.9</ele><time>2015-04-30T12:21:06.0000000+00:00</time></trkpt><trkpt lat="34.8285222" lon="32.9122051"><ele>534.3</ele><time>2015-04-30T12:21:07.0000000+00:00</time></trkpt><trkpt lat="34.8284834" lon="32.9121161"><ele>533.5</ele><time>2015-04-30T12:21:08.0000000+00:00</time></trkpt><trkpt lat="34.8284486" lon="32.9120234"><ele>532.7</ele><time>2015-04-30T12:21:09.0000000+00:00</time></trkpt><trkpt lat="34.8284132" lon="32.911945"><ele>532.2</ele><time>2015-04-30T12:21:10.0000000+00:00</time></trkpt><trkpt lat="34.8283769" lon="32.9118599"><ele>531.5</ele><time>2015-04-30T12:21:11.0000000+00:00</time></trkpt><trkpt lat="34.8283406" lon="32.9117778"><ele>531.1</ele><time>2015-04-30T12:21:12.0000000+00:00</time></trkpt><trkpt lat="34.8283096" lon="32.9116871"><ele>530.9</ele><time>2015-04-30T12:21:13.0000000+00:00</time></trkpt><trkpt lat="34.8282784" lon="32.9116119"><ele>530.4</ele><time>2015-04-30T12:21:14.0000000+00:00</time></trkpt><trkpt lat="34.8282546" lon="32.9115314"><ele>530.1</ele><time>2015-04-30T12:21:15.0000000+00:00</time></trkpt><trkpt lat="34.8282221" lon="32.911454"><ele>529.9</ele><time>2015-04-30T12:21:16.0000000+00:00</time></trkpt><trkpt lat="34.8281919" lon="32.9113731"><ele>528.8</ele><time>2015-04-30T12:21:17.0000000+00:00</time></trkpt><trkpt lat="34.8281641" lon="32.9112916"><ele>528.3</ele><time>2015-04-30T12:21:18.0000000+00:00</time></trkpt><trkpt lat="34.8281397" lon="32.9112096"><ele>528.0</ele><time>2015-04-30T12:21:19.0000000+00:00</time></trkpt><trkpt lat="34.8281041" lon="32.9111266"><ele>527.9</ele><time>2015-04-30T12:21:20.0000000+00:00</time></trkpt><trkpt lat="34.8280738" lon="32.9110495"><ele>527.8</ele><time>2015-04-30T12:21:21.0000000+00:00</time></trkpt><trkpt lat="34.8280492" lon="32.9109723"><ele>527.8</ele><time>2015-04-30T12:21:22.0000000+00:00</time></trkpt><trkpt lat="34.8280239" lon="32.9108987"><ele>527.3</ele><time>2015-04-30T12:21:23.0000000+00:00</time></trkpt><trkpt lat="34.8279952" lon="32.910821"><ele>527.0</ele><time>2015-04-30T12:21:24.0000000+00:00</time></trkpt><trkpt lat="34.82797" lon="32.9107431"><ele>526.9</ele><time>2015-04-30T12:21:25.0000000+00:00</time></trkpt><trkpt lat="34.8279442" lon="32.910676"><ele>526.3</ele><time>2015-04-30T12:21:26.0000000+00:00</time></trkpt><trkpt lat="34.8279154" lon="32.9106091"><ele>525.5</ele><time>2015-04-30T12:21:27.0000000+00:00</time></trkpt><trkpt lat="34.827884" lon="32.9105328"><ele>525.2</ele><time>2015-04-30T12:21:28.0000000+00:00</time></trkpt><trkpt lat="34.8278612" lon="32.9104581"><ele>525.0</ele><time>2015-04-30T12:21:29.0000000+00:00</time></trkpt><trkpt lat="34.8278358" lon="32.9103938"><ele>524.9</ele><time>2015-04-30T12:21:30.0000000+00:00</time></trkpt><trkpt lat="34.827809" lon="32.9103243"><ele>524.8</ele><time>2015-04-30T12:21:31.0000000+00:00</time></trkpt><trkpt lat="34.8277756" lon="32.9102569"><ele>524.8</ele><time>2015-04-30T12:21:32.0000000+00:00</time></trkpt><trkpt lat="34.8277442" lon="32.9101943"><ele>524.8</ele><time>2015-04-30T12:21:33.0000000+00:00</time></trkpt><trkpt lat="34.8277162" lon="32.9101262"><ele>524.8</ele><time>2015-04-30T12:21:34.0000000+00:00</time></trkpt><trkpt lat="34.8276884" lon="32.9100653"><ele>524.8</ele><time>2015-04-30T12:21:35.0000000+00:00</time></trkpt><trkpt lat="34.8276513" lon="32.9100027"><ele>524.8</ele><time>2015-04-30T12:21:36.0000000+00:00</time></trkpt><trkpt lat="34.8276104" lon="32.9099464"><ele>524.8</ele><time>2015-04-30T12:21:37.0000000+00:00</time></trkpt><trkpt lat="34.827568" lon="32.9098925"><ele>524.8</ele><time>2015-04-30T12:21:38.0000000+00:00</time></trkpt><trkpt lat="34.8275274" lon="32.9098451"><ele>524.8</ele><time>2015-04-30T12:21:39.0000000+00:00</time></trkpt><trkpt lat="34.827475" lon="32.9098024"><ele>524.3</ele><time>2015-04-30T12:21:40.0000000+00:00</time></trkpt><trkpt lat="34.8274244" lon="32.909766"><ele>524.0</ele><time>2015-04-30T12:21:41.0000000+00:00</time></trkpt><trkpt lat="34.827379" lon="32.9097279"><ele>523.9</ele><time>2015-04-30T12:21:42.0000000+00:00</time></trkpt><trkpt lat="34.8273259" lon="32.9097"><ele>523.8</ele><time>2015-04-30T12:21:43.0000000+00:00</time></trkpt><trkpt lat="34.8272666" lon="32.9096758"><ele>523.8</ele><time>2015-04-30T12:21:44.0000000+00:00</time></trkpt><trkpt lat="34.8272116" lon="32.9096547"><ele>523.8</ele><time>2015-04-30T12:21:45.0000000+00:00</time></trkpt><trkpt lat="34.8271469" lon="32.9096444"><ele>523.8</ele><time>2015-04-30T12:21:46.0000000+00:00</time></trkpt><trkpt lat="34.8270833" lon="32.9096307"><ele>523.8</ele><time>2015-04-30T12:21:47.0000000+00:00</time></trkpt><trkpt lat="34.8270147" lon="32.909627"><ele>523.3</ele><time>2015-04-30T12:21:48.0000000+00:00</time></trkpt><trkpt lat="34.8269472" lon="32.9096315"><ele>523.5</ele><time>2015-04-30T12:21:49.0000000+00:00</time></trkpt><trkpt lat="34.8268789" lon="32.9096291"><ele>523.1</ele><time>2015-04-30T12:21:50.0000000+00:00</time></trkpt><trkpt lat="34.8268229" lon="32.9096455"><ele>523.5</ele><time>2015-04-30T12:21:51.0000000+00:00</time></trkpt><trkpt lat="34.8267566" lon="32.9096674"><ele>523.6</ele><time>2015-04-30T12:21:52.0000000+00:00</time></trkpt><trkpt lat="34.8266928" lon="32.9096817"><ele>523.7</ele><time>2015-04-30T12:21:53.0000000+00:00</time></trkpt><trkpt lat="34.8266301" lon="32.9097003"><ele>523.7</ele><time>2015-04-30T12:21:54.0000000+00:00</time></trkpt><trkpt lat="34.8265682" lon="32.9097171"><ele>523.7</ele><time>2015-04-30T12:21:55.0000000+00:00</time></trkpt><trkpt lat="34.8265014" lon="32.9097382"><ele>523.8</ele><time>2015-04-30T12:21:56.0000000+00:00</time></trkpt><trkpt lat="34.8264331" lon="32.9097555"><ele>523.8</ele><time>2015-04-30T12:21:57.0000000+00:00</time></trkpt><trkpt lat="34.8263684" lon="32.9097719"><ele>523.8</ele><time>2015-04-30T12:21:58.0000000+00:00</time></trkpt><trkpt lat="34.8262976" lon="32.9097874"><ele>523.8</ele><time>2015-04-30T12:21:59.0000000+00:00</time></trkpt><trkpt lat="34.8262288" lon="32.9098049"><ele>523.8</ele><time>2015-04-30T12:22:00.0000000+00:00</time></trkpt><trkpt lat="34.8261613" lon="32.9098181"><ele>523.8</ele><time>2015-04-30T12:22:01.0000000+00:00</time></trkpt><trkpt lat="34.8260907" lon="32.9098381"><ele>523.8</ele><time>2015-04-30T12:22:02.0000000+00:00</time></trkpt><trkpt lat="34.8260257" lon="32.9098612"><ele>523.3</ele><time>2015-04-30T12:22:03.0000000+00:00</time></trkpt><trkpt lat="34.8259556" lon="32.9098793"><ele>523.0</ele><time>2015-04-30T12:22:04.0000000+00:00</time></trkpt><trkpt lat="34.8258843" lon="32.9098926"><ele>522.9</ele><time>2015-04-30T12:22:05.0000000+00:00</time></trkpt><trkpt lat="34.8258117" lon="32.9099094"><ele>522.8</ele><time>2015-04-30T12:22:06.0000000+00:00</time></trkpt><trkpt lat="34.825741" lon="32.9099257"><ele>522.8</ele><time>2015-04-30T12:22:07.0000000+00:00</time></trkpt><trkpt lat="34.8256698" lon="32.9099417"><ele>522.3</ele><time>2015-04-30T12:22:08.0000000+00:00</time></trkpt><trkpt lat="34.8256018" lon="32.9099604"><ele>522.0</ele><time>2015-04-30T12:22:09.0000000+00:00</time></trkpt><trkpt lat="34.8255337" lon="32.9099788"><ele>521.4</ele><time>2015-04-30T12:22:10.0000000+00:00</time></trkpt><trkpt lat="34.8254591" lon="32.9099949"><ele>521.1</ele><time>2015-04-30T12:22:11.0000000+00:00</time></trkpt><trkpt lat="34.8253885" lon="32.910014"><ele>520.4</ele><time>2015-04-30T12:22:12.0000000+00:00</time></trkpt><trkpt lat="34.8253195" lon="32.9100306"><ele>520.1</ele><time>2015-04-30T12:22:13.0000000+00:00</time></trkpt><trkpt lat="34.8252483" lon="32.9100479"><ele>519.9</ele><time>2015-04-30T12:22:14.0000000+00:00</time></trkpt><trkpt lat="34.8251789" lon="32.910073"><ele>519.8</ele><time>2015-04-30T12:22:15.0000000+00:00</time></trkpt><trkpt lat="34.8251064" lon="32.9100979"><ele>519.8</ele><time>2015-04-30T12:22:16.0000000+00:00</time></trkpt><trkpt lat="34.8250382" lon="32.9101216"><ele>519.8</ele><time>2015-04-30T12:22:17.0000000+00:00</time></trkpt><trkpt lat="34.8249678" lon="32.9101441"><ele>519.3</ele><time>2015-04-30T12:22:18.0000000+00:00</time></trkpt><trkpt lat="34.8248995" lon="32.910168"><ele>519.0</ele><time>2015-04-30T12:22:19.0000000+00:00</time></trkpt><trkpt lat="34.8248287" lon="32.9101935"><ele>518.9</ele><time>2015-04-30T12:22:20.0000000+00:00</time></trkpt><trkpt lat="34.8247605" lon="32.9102191"><ele>518.8</ele><time>2015-04-30T12:22:21.0000000+00:00</time></trkpt><trkpt lat="34.8246902" lon="32.910252"><ele>518.3</ele><time>2015-04-30T12:22:22.0000000+00:00</time></trkpt><trkpt lat="34.824625" lon="32.9102912"><ele>518.0</ele><time>2015-04-30T12:22:23.0000000+00:00</time></trkpt><trkpt lat="34.8245572" lon="32.9103279"><ele>517.9</ele><time>2015-04-30T12:22:24.0000000+00:00</time></trkpt><trkpt lat="34.8244975" lon="32.9103671"><ele>517.8</ele><time>2015-04-30T12:22:25.0000000+00:00</time></trkpt><trkpt lat="34.8244356" lon="32.9104068"><ele>517.8</ele><time>2015-04-30T12:22:26.0000000+00:00</time></trkpt><trkpt lat="34.8243741" lon="32.9104565"><ele>517.8</ele><time>2015-04-30T12:22:27.0000000+00:00</time></trkpt><trkpt lat="34.8243127" lon="32.9105093"><ele>517.8</ele><time>2015-04-30T12:22:28.0000000+00:00</time></trkpt><trkpt lat="34.8242554" lon="32.9105638"><ele>517.8</ele><time>2015-04-30T12:22:29.0000000+00:00</time></trkpt><trkpt lat="34.8241974" lon="32.9106181"><ele>517.8</ele><time>2015-04-30T12:22:30.0000000+00:00</time></trkpt><trkpt lat="34.8241443" lon="32.9106746"><ele>517.8</ele><time>2015-04-30T12:22:31.0000000+00:00</time></trkpt><trkpt lat="34.8240928" lon="32.9107362"><ele>517.8</ele><time>2015-04-30T12:22:32.0000000+00:00</time></trkpt><trkpt lat="34.8240438" lon="32.9107941"><ele>517.8</ele><time>2015-04-30T12:22:33.0000000+00:00</time></trkpt><trkpt lat="34.8239939" lon="32.9108517"><ele>517.3</ele><time>2015-04-30T12:22:34.0000000+00:00</time></trkpt><trkpt lat="34.823946" lon="32.9109062"><ele>517.0</ele><time>2015-04-30T12:22:35.0000000+00:00</time></trkpt><trkpt lat="34.8238953" lon="32.910969"><ele>517.4</ele><time>2015-04-30T12:22:36.0000000+00:00</time></trkpt><trkpt lat="34.8238487" lon="32.9110256"><ele>517.6</ele><time>2015-04-30T12:22:37.0000000+00:00</time></trkpt><trkpt lat="34.8238022" lon="32.9110737"><ele>517.7</ele><time>2015-04-30T12:22:38.0000000+00:00</time></trkpt><trkpt lat="34.8237588" lon="32.9111287"><ele>517.7</ele><time>2015-04-30T12:22:39.0000000+00:00</time></trkpt><trkpt lat="34.823712" lon="32.9111903"><ele>517.2</ele><time>2015-04-30T12:22:40.0000000+00:00</time></trkpt><trkpt lat="34.8236777" lon="32.9112448"><ele>517.0</ele><time>2015-04-30T12:22:41.0000000+00:00</time></trkpt><trkpt lat="34.8236372" lon="32.9113045"><ele>516.9</ele><time>2015-04-30T12:22:42.0000000+00:00</time></trkpt><trkpt lat="34.8235891" lon="32.9113518"><ele>516.8</ele><time>2015-04-30T12:22:43.0000000+00:00</time></trkpt><trkpt lat="34.8235417" lon="32.9114046"><ele>516.3</ele><time>2015-04-30T12:22:44.0000000+00:00</time></trkpt><trkpt lat="34.823498" lon="32.9114566"><ele>516.0</ele><time>2015-04-30T12:22:45.0000000+00:00</time></trkpt><trkpt lat="34.8234612" lon="32.9115195"><ele>516.4</ele><time>2015-04-30T12:22:46.0000000+00:00</time></trkpt><trkpt lat="34.8234049" lon="32.9115585"><ele>516.6</ele><time>2015-04-30T12:22:47.0000000+00:00</time></trkpt><trkpt lat="34.8233591" lon="32.9116104"><ele>516.2</ele><time>2015-04-30T12:22:48.0000000+00:00</time></trkpt><trkpt lat="34.8233214" lon="32.9116625"><ele>516.0</ele><time>2015-04-30T12:22:49.0000000+00:00</time></trkpt><trkpt lat="34.8232783" lon="32.9117191"><ele>515.9</ele><time>2015-04-30T12:22:50.0000000+00:00</time></trkpt><trkpt lat="34.8232404" lon="32.9117746"><ele>515.8</ele><time>2015-04-30T12:22:51.0000000+00:00</time></trkpt><trkpt lat="34.8231984" lon="32.9118238"><ele>515.3</ele><time>2015-04-30T12:22:52.0000000+00:00</time></trkpt><trkpt lat="34.8231546" lon="32.9118737"><ele>515.0</ele><time>2015-04-30T12:22:53.0000000+00:00</time></trkpt><trkpt lat="34.823113" lon="32.9119201"><ele>514.9</ele><time>2015-04-30T12:22:54.0000000+00:00</time></trkpt><trkpt lat="34.8230731" lon="32.9119643"><ele>514.8</ele><time>2015-04-30T12:22:55.0000000+00:00</time></trkpt><trkpt lat="34.8230342" lon="32.9120138"><ele>514.8</ele><time>2015-04-30T12:22:56.0000000+00:00</time></trkpt><trkpt lat="34.8229966" lon="32.9120601"><ele>514.3</ele><time>2015-04-30T12:22:57.0000000+00:00</time></trkpt><trkpt lat="34.8229607" lon="32.9121109"><ele>514.5</ele><time>2015-04-30T12:22:58.0000000+00:00</time></trkpt><trkpt lat="34.8229287" lon="32.912163"><ele>514.1</ele><time>2015-04-30T12:22:59.0000000+00:00</time></trkpt><trkpt lat="34.8228968" lon="32.9122029"><ele>514.0</ele><time>2015-04-30T12:23:00.0000000+00:00</time></trkpt><trkpt lat="34.8228611" lon="32.912247"><ele>513.4</ele><time>2015-04-30T12:23:01.0000000+00:00</time></trkpt><trkpt lat="34.8228242" lon="32.9122965"><ele>513.6</ele><time>2015-04-30T12:23:02.0000000+00:00</time></trkpt><trkpt lat="34.8227874" lon="32.9123416"><ele>513.7</ele><time>2015-04-30T12:23:03.0000000+00:00</time></trkpt><trkpt lat="34.822753" lon="32.9123818"><ele>513.7</ele><time>2015-04-30T12:23:04.0000000+00:00</time></trkpt><trkpt lat="34.8227191" lon="32.9124281"><ele>513.7</ele><time>2015-04-30T12:23:05.0000000+00:00</time></trkpt><trkpt lat="34.8226703" lon="32.9125054"><ele>513.8</ele><time>2015-04-30T12:23:07.0000000+00:00</time></trkpt><trkpt lat="34.8226047" lon="32.9125661"><ele>513.8</ele><time>2015-04-30T12:23:09.0000000+00:00</time></trkpt><trkpt lat="34.8225489" lon="32.9126365"><ele>514.5</ele><time>2015-04-30T12:23:11.0000000+00:00</time></trkpt><trkpt lat="34.8225149" lon="32.9126792"><ele>514.6</ele><time>2015-04-30T12:23:12.0000000+00:00</time></trkpt><trkpt lat="34.822458" lon="32.912751"><ele>515.5</ele><time>2015-04-30T12:23:14.0000000+00:00</time></trkpt><trkpt lat="34.8224003" lon="32.91282"><ele>516.4</ele><time>2015-04-30T12:23:16.0000000+00:00</time></trkpt><trkpt lat="34.8223715" lon="32.9128624"><ele>516.6</ele><time>2015-04-30T12:23:17.0000000+00:00</time></trkpt><trkpt lat="34.8223115" lon="32.9129289"><ele>516.7</ele><time>2015-04-30T12:23:19.0000000+00:00</time></trkpt><trkpt lat="34.8222548" lon="32.9130101"><ele>516.8</ele><time>2015-04-30T12:23:21.0000000+00:00</time></trkpt><trkpt lat="34.8222174" lon="32.913042"><ele>517.3</ele><time>2015-04-30T12:23:22.0000000+00:00</time></trkpt><trkpt lat="34.822169" lon="32.9131032"><ele>516.9</ele><time>2015-04-30T12:23:24.0000000+00:00</time></trkpt><trkpt lat="34.8221167" lon="32.913164"><ele>518.3</ele><time>2015-04-30T12:23:26.0000000+00:00</time></trkpt><trkpt lat="34.8220652" lon="32.9132302"><ele>516.4</ele><time>2015-04-30T12:23:28.0000000+00:00</time></trkpt><trkpt lat="34.822008" lon="32.9132848"><ele>514.7</ele><time>2015-04-30T12:23:30.0000000+00:00</time></trkpt><trkpt lat="34.8219488" lon="32.9133403"><ele>514.2</ele><time>2015-04-30T12:23:32.0000000+00:00</time></trkpt><trkpt lat="34.8218876" lon="32.9133975"><ele>515.1</ele><time>2015-04-30T12:23:34.0000000+00:00</time></trkpt><trkpt lat="34.8218332" lon="32.9134362"><ele>516.4</ele><time>2015-04-30T12:23:36.0000000+00:00</time></trkpt><trkpt lat="34.8217731" lon="32.9134661"><ele>516.7</ele><time>2015-04-30T12:23:38.0000000+00:00</time></trkpt><trkpt lat="34.8217114" lon="32.9134922"><ele>517.2</ele><time>2015-04-30T12:23:40.0000000+00:00</time></trkpt><trkpt lat="34.8216463" lon="32.9135094"><ele>518.6</ele><time>2015-04-30T12:23:42.0000000+00:00</time></trkpt><trkpt lat="34.8215822" lon="32.9135186"><ele>519.5</ele><time>2015-04-30T12:23:44.0000000+00:00</time></trkpt><trkpt lat="34.821528" lon="32.9135223"><ele>520.2</ele><time>2015-04-30T12:23:46.0000000+00:00</time></trkpt><trkpt lat="34.8214778" lon="32.9135239"><ele>520.6</ele><time>2015-04-30T12:23:48.0000000+00:00</time></trkpt><trkpt lat="34.8214242" lon="32.9135239"><ele>520.2</ele><time>2015-04-30T12:23:50.0000000+00:00</time></trkpt><trkpt lat="34.8213651" lon="32.9135181"><ele>520.4</ele><time>2015-04-30T12:23:52.0000000+00:00</time></trkpt><trkpt lat="34.8213046" lon="32.9135097"><ele>520.2</ele><time>2015-04-30T12:23:54.0000000+00:00</time></trkpt><trkpt lat="34.8212455" lon="32.9135036"><ele>519.9</ele><time>2015-04-30T12:23:56.0000000+00:00</time></trkpt><trkpt lat="34.8211866" lon="32.9135016"><ele>520.5</ele><time>2015-04-30T12:23:58.0000000+00:00</time></trkpt><trkpt lat="34.8211282" lon="32.9134997"><ele>521.2</ele><time>2015-04-30T12:24:00.0000000+00:00</time></trkpt><trkpt lat="34.8210689" lon="32.9135023"><ele>521.6</ele><time>2015-04-30T12:24:02.0000000+00:00</time></trkpt><trkpt lat="34.821011" lon="32.9135102"><ele>521.7</ele><time>2015-04-30T12:24:04.0000000+00:00</time></trkpt><trkpt lat="34.8209531" lon="32.9135203"><ele>521.8</ele><time>2015-04-30T12:24:06.0000000+00:00</time></trkpt><trkpt lat="34.8208948" lon="32.913539"><ele>521.8</ele><time>2015-04-30T12:24:08.0000000+00:00</time></trkpt><trkpt lat="34.8208375" lon="32.913569"><ele>522.3</ele><time>2015-04-30T12:24:10.0000000+00:00</time></trkpt><trkpt lat="34.8207841" lon="32.9136057"><ele>522.6</ele><time>2015-04-30T12:24:12.0000000+00:00</time></trkpt><trkpt lat="34.8207344" lon="32.9136576"><ele>522.0</ele><time>2015-04-30T12:24:14.0000000+00:00</time></trkpt><trkpt lat="34.8206874" lon="32.9137101"><ele>522.1</ele><time>2015-04-30T12:24:16.0000000+00:00</time></trkpt><trkpt lat="34.8206469" lon="32.9137706"><ele>522.6</ele><time>2015-04-30T12:24:18.0000000+00:00</time></trkpt><trkpt lat="34.8206113" lon="32.9138334"><ele>522.0</ele><time>2015-04-30T12:24:20.0000000+00:00</time></trkpt><trkpt lat="34.8205763" lon="32.9138966"><ele>522.3</ele><time>2015-04-30T12:24:22.0000000+00:00</time></trkpt><trkpt lat="34.8205367" lon="32.913957"><ele>522.7</ele><time>2015-04-30T12:24:24.0000000+00:00</time></trkpt><trkpt lat="34.8204961" lon="32.9140138"><ele>522.7</ele><time>2015-04-30T12:24:26.0000000+00:00</time></trkpt><trkpt lat="34.8204564" lon="32.9140756"><ele>523.0</ele><time>2015-04-30T12:24:28.0000000+00:00</time></trkpt><trkpt lat="34.8204206" lon="32.914133"><ele>523.6</ele><time>2015-04-30T12:24:30.0000000+00:00</time></trkpt><trkpt lat="34.8203848" lon="32.9141933"><ele>523.7</ele><time>2015-04-30T12:24:33.0000000+00:00</time></trkpt><trkpt lat="34.8203423" lon="32.9142568"><ele>524.3</ele><time>2015-04-30T12:24:36.0000000+00:00</time></trkpt><trkpt lat="34.8203098" lon="32.914311"><ele>525.1</ele><time>2015-04-30T12:24:38.0000000+00:00</time></trkpt><trkpt lat="34.8202782" lon="32.9143687"><ele>525.6</ele><time>2015-04-30T12:24:40.0000000+00:00</time></trkpt><trkpt lat="34.8202451" lon="32.9144195"><ele>525.7</ele><time>2015-04-30T12:24:42.0000000+00:00</time></trkpt><trkpt lat="34.8202135" lon="32.9144776"><ele>525.8</ele><time>2015-04-30T12:24:44.0000000+00:00</time></trkpt><trkpt lat="34.820174" lon="32.9145521"><ele>525.8</ele><time>2015-04-30T12:24:46.0000000+00:00</time></trkpt><trkpt lat="34.8201368" lon="32.9146203"><ele>525.0</ele><time>2015-04-30T12:24:48.0000000+00:00</time></trkpt><trkpt lat="34.8200938" lon="32.9146892"><ele>524.8</ele><time>2015-04-30T12:24:50.0000000+00:00</time></trkpt><trkpt lat="34.8200426" lon="32.9147773"><ele>524.8</ele><time>2015-04-30T12:24:52.0000000+00:00</time></trkpt><trkpt lat="34.8199903" lon="32.9148643"><ele>525.3</ele><time>2015-04-30T12:24:54.0000000+00:00</time></trkpt><trkpt lat="34.8199352" lon="32.9149501"><ele>525.6</ele><time>2015-04-30T12:24:56.0000000+00:00</time></trkpt><trkpt lat="34.8199056" lon="32.9149925"><ele>525.7</ele><time>2015-04-30T12:24:57.0000000+00:00</time></trkpt><trkpt lat="34.819866" lon="32.9150474"><ele>525.7</ele><time>2015-04-30T12:24:58.0000000+00:00</time></trkpt><trkpt lat="34.8198343" lon="32.915091"><ele>525.7</ele><time>2015-04-30T12:24:59.0000000+00:00</time></trkpt><trkpt lat="34.8197964" lon="32.9151337"><ele>525.8</ele><time>2015-04-30T12:25:00.0000000+00:00</time></trkpt><trkpt lat="34.8197477" lon="32.9151782"><ele>525.8</ele><time>2015-04-30T12:25:01.0000000+00:00</time></trkpt><trkpt lat="34.8197053" lon="32.915218"><ele>525.8</ele><time>2015-04-30T12:25:02.0000000+00:00</time></trkpt><trkpt lat="34.8196622" lon="32.9152541"><ele>525.8</ele><time>2015-04-30T12:25:03.0000000+00:00</time></trkpt><trkpt lat="34.8196191" lon="32.9152871"><ele>525.8</ele><time>2015-04-30T12:25:04.0000000+00:00</time></trkpt><trkpt lat="34.819574" lon="32.9153145"><ele>525.3</ele><time>2015-04-30T12:25:05.0000000+00:00</time></trkpt><trkpt lat="34.8195236" lon="32.915341"><ele>524.5</ele><time>2015-04-30T12:25:06.0000000+00:00</time></trkpt><trkpt lat="34.8194745" lon="32.9153663"><ele>524.1</ele><time>2015-04-30T12:25:07.0000000+00:00</time></trkpt><trkpt lat="34.8194206" lon="32.9153916"><ele>524.0</ele><time>2015-04-30T12:25:08.0000000+00:00</time></trkpt><trkpt lat="34.8193616" lon="32.915415"><ele>524.4</ele><time>2015-04-30T12:25:09.0000000+00:00</time></trkpt><trkpt lat="34.8193071" lon="32.9154375"><ele>524.6</ele><time>2015-04-30T12:25:10.0000000+00:00</time></trkpt><trkpt lat="34.8192545" lon="32.9154523"><ele>524.7</ele><time>2015-04-30T12:25:11.0000000+00:00</time></trkpt><trkpt lat="34.8192012" lon="32.9154575"><ele>524.7</ele><time>2015-04-30T12:25:12.0000000+00:00</time></trkpt><trkpt lat="34.8191512" lon="32.9154643"><ele>524.7</ele><time>2015-04-30T12:25:13.0000000+00:00</time></trkpt><trkpt lat="34.8191031" lon="32.9154648"><ele>524.8</ele><time>2015-04-30T12:25:14.0000000+00:00</time></trkpt><trkpt lat="34.8190566" lon="32.9154667"><ele>524.8</ele><time>2015-04-30T12:25:15.0000000+00:00</time></trkpt><trkpt lat="34.8190043" lon="32.9154709"><ele>525.3</ele><time>2015-04-30T12:25:16.0000000+00:00</time></trkpt><trkpt lat="34.8189517" lon="32.9154709"><ele>525.5</ele><time>2015-04-30T12:25:17.0000000+00:00</time></trkpt><trkpt lat="34.8189012" lon="32.9154691"><ele>525.6</ele><time>2015-04-30T12:25:18.0000000+00:00</time></trkpt><trkpt lat="34.8188486" lon="32.9154729"><ele>525.2</ele><time>2015-04-30T12:25:19.0000000+00:00</time></trkpt><trkpt lat="34.8187977" lon="32.9154689"><ele>525.0</ele><time>2015-04-30T12:25:20.0000000+00:00</time></trkpt><trkpt lat="34.8187475" lon="32.915471"><ele>525.4</ele><time>2015-04-30T12:25:21.0000000+00:00</time></trkpt><trkpt lat="34.8186941" lon="32.9154748"><ele>525.6</ele><time>2015-04-30T12:25:22.0000000+00:00</time></trkpt><trkpt lat="34.8186419" lon="32.9154767"><ele>525.7</ele><time>2015-04-30T12:25:23.0000000+00:00</time></trkpt><trkpt lat="34.8185849" lon="32.9154818"><ele>525.7</ele><time>2015-04-30T12:25:24.0000000+00:00</time></trkpt><trkpt lat="34.8185316" lon="32.9154821"><ele>525.7</ele><time>2015-04-30T12:25:25.0000000+00:00</time></trkpt><trkpt lat="34.8184827" lon="32.9154817"><ele>526.3</ele><time>2015-04-30T12:25:26.0000000+00:00</time></trkpt><trkpt lat="34.8183846" lon="32.9154809"><ele>526.9</ele><time>2015-04-30T12:25:28.0000000+00:00</time></trkpt><trkpt lat="34.8183335" lon="32.915487"><ele>526.8</ele><time>2015-04-30T12:25:29.0000000+00:00</time></trkpt><trkpt lat="34.8182869" lon="32.9154938"><ele>527.3</ele><time>2015-04-30T12:25:30.0000000+00:00</time></trkpt><trkpt lat="34.8181972" lon="32.9155066"><ele>527.6</ele><time>2015-04-30T12:25:32.0000000+00:00</time></trkpt><trkpt lat="34.8181273" lon="32.9155182"><ele>528.2</ele><time>2015-04-30T12:25:34.0000000+00:00</time></trkpt><trkpt lat="34.8180502" lon="32.915534"><ele>528.6</ele><time>2015-04-30T12:25:36.0000000+00:00</time></trkpt><trkpt lat="34.8179768" lon="32.9155483"><ele>529.5</ele><time>2015-04-30T12:25:38.0000000+00:00</time></trkpt><trkpt lat="34.8179067" lon="32.9155734"><ele>530.2</ele><time>2015-04-30T12:25:40.0000000+00:00</time></trkpt><trkpt lat="34.8178372" lon="32.9156007"><ele>530.1</ele><time>2015-04-30T12:25:42.0000000+00:00</time></trkpt><trkpt lat="34.8177664" lon="32.9156275"><ele>529.9</ele><time>2015-04-30T12:25:44.0000000+00:00</time></trkpt><trkpt lat="34.8176976" lon="32.915659"><ele>529.8</ele><time>2015-04-30T12:25:46.0000000+00:00</time></trkpt><trkpt lat="34.8176311" lon="32.9156807"><ele>529.5</ele><time>2015-04-30T12:25:48.0000000+00:00</time></trkpt><trkpt lat="34.8175768" lon="32.9156964"><ele>529.7</ele><time>2015-04-30T12:25:50.0000000+00:00</time></trkpt><trkpt lat="34.8175222" lon="32.9157174"><ele>529.7</ele><time>2015-04-30T12:25:52.0000000+00:00</time></trkpt><trkpt lat="34.8174627" lon="32.9157414"><ele>529.8</ele><time>2015-04-30T12:25:54.0000000+00:00</time></trkpt><trkpt lat="34.8173978" lon="32.9157687"><ele>529.8</ele><time>2015-04-30T12:25:56.0000000+00:00</time></trkpt><trkpt lat="34.8173356" lon="32.9158"><ele>530.5</ele><time>2015-04-30T12:25:58.0000000+00:00</time></trkpt><trkpt lat="34.8172688" lon="32.9158336"><ele>530.7</ele><time>2015-04-30T12:26:00.0000000+00:00</time></trkpt><trkpt lat="34.8171862" lon="32.9158703"><ele>530.7</ele><time>2015-04-30T12:26:02.0000000+00:00</time></trkpt><trkpt lat="34.8171041" lon="32.9159015"><ele>531.3</ele><time>2015-04-30T12:26:04.0000000+00:00</time></trkpt><trkpt lat="34.8170269" lon="32.9159323"><ele>531.6</ele><time>2015-04-30T12:26:06.0000000+00:00</time></trkpt><trkpt lat="34.8169524" lon="32.915966"><ele>531.7</ele><time>2015-04-30T12:26:08.0000000+00:00</time></trkpt><trkpt lat="34.8168764" lon="32.9159999"><ele>531.8</ele><time>2015-04-30T12:26:10.0000000+00:00</time></trkpt><trkpt lat="34.8167977" lon="32.9160359"><ele>531.8</ele><time>2015-04-30T12:26:12.0000000+00:00</time></trkpt><trkpt lat="34.8167203" lon="32.9160684"><ele>532.5</ele><time>2015-04-30T12:26:14.0000000+00:00</time></trkpt><trkpt lat="34.8166577" lon="32.9160916"><ele>532.7</ele><time>2015-04-30T12:26:16.0000000+00:00</time></trkpt><trkpt lat="34.8166059" lon="32.9161107"><ele>532.7</ele><time>2015-04-30T12:26:18.0000000+00:00</time></trkpt><trkpt lat="34.8165538" lon="32.9161308"><ele>532.8</ele><time>2015-04-30T12:26:20.0000000+00:00</time></trkpt><trkpt lat="34.8165015" lon="32.916147"><ele>532.8</ele><time>2015-04-30T12:26:22.0000000+00:00</time></trkpt><trkpt lat="34.816448" lon="32.9161572"><ele>531.9</ele><time>2015-04-30T12:26:25.0000000+00:00</time></trkpt><trkpt lat="34.8164052" lon="32.9161192"><ele>531.8</ele><time>2015-04-30T12:26:28.0000000+00:00</time></trkpt><trkpt lat="34.8163908" lon="32.9160415"><ele>530.8</ele><time>2015-04-30T12:26:31.0000000+00:00</time></trkpt><trkpt lat="34.8163529" lon="32.9160036"><ele>530.8</ele><time>2015-04-30T12:26:34.0000000+00:00</time></trkpt><trkpt lat="34.8163076" lon="32.9160218"><ele>532.8</ele><time>2015-04-30T12:27:09.0000000+00:00</time></trkpt><trkpt lat="34.8162643" lon="32.9160505"><ele>530.6</ele><time>2015-04-30T12:27:13.0000000+00:00</time></trkpt><trkpt lat="34.8162268" lon="32.9160937"><ele>530.3</ele><time>2015-04-30T12:27:17.0000000+00:00</time></trkpt><trkpt lat="34.8161976" lon="32.9161523"><ele>531.2</ele><time>2015-04-30T12:27:21.0000000+00:00</time></trkpt><trkpt lat="34.8161983" lon="32.9162288"><ele>529.9</ele><time>2015-04-30T12:27:25.0000000+00:00</time></trkpt><trkpt lat="34.8161889" lon="32.9162837"><ele>530.1</ele><time>2015-04-30T12:27:27.0000000+00:00</time></trkpt><trkpt lat="34.8161506" lon="32.9163262"><ele>529.8</ele><time>2015-04-30T12:27:29.0000000+00:00</time></trkpt><trkpt lat="34.8160982" lon="32.9163456"><ele>530.5</ele><time>2015-04-30T12:27:31.0000000+00:00</time></trkpt><trkpt lat="34.8160466" lon="32.9163637"><ele>530.7</ele><time>2015-04-30T12:27:33.0000000+00:00</time></trkpt><trkpt lat="34.8160005" lon="32.916382"><ele>531.5</ele><time>2015-04-30T12:27:35.0000000+00:00</time></trkpt><trkpt lat="34.8159526" lon="32.9164004"><ele>530.9</ele><time>2015-04-30T12:27:37.0000000+00:00</time></trkpt><trkpt lat="34.8159058" lon="32.9164137"><ele>531.6</ele><time>2015-04-30T12:27:39.0000000+00:00</time></trkpt><trkpt lat="34.8158569" lon="32.9164271"><ele>532.5</ele><time>2015-04-30T12:27:41.0000000+00:00</time></trkpt><trkpt lat="34.8158097" lon="32.9164404"><ele>532.7</ele><time>2015-04-30T12:27:43.0000000+00:00</time></trkpt><trkpt lat="34.8157608" lon="32.9164521"><ele>533.2</ele><time>2015-04-30T12:27:45.0000000+00:00</time></trkpt><trkpt lat="34.8157126" lon="32.9164673"><ele>533.6</ele><time>2015-04-30T12:27:47.0000000+00:00</time></trkpt><trkpt lat="34.8156624" lon="32.9164791"><ele>533.7</ele><time>2015-04-30T12:27:49.0000000+00:00</time></trkpt><trkpt lat="34.8156133" lon="32.9164836"><ele>533.8</ele><time>2015-04-30T12:27:51.0000000+00:00</time></trkpt><trkpt lat="34.8155636" lon="32.9164895"><ele>533.8</ele><time>2015-04-30T12:27:53.0000000+00:00</time></trkpt><trkpt lat="34.8155173" lon="32.9164981"><ele>533.8</ele><time>2015-04-30T12:27:55.0000000+00:00</time></trkpt><trkpt lat="34.8154588" lon="32.9165061"><ele>534.5</ele><time>2015-04-30T12:27:58.0000000+00:00</time></trkpt><trkpt lat="34.8154068" lon="32.9165067"><ele>535.5</ele><time>2015-04-30T12:28:01.0000000+00:00</time></trkpt><trkpt lat="34.8153491" lon="32.9165041"><ele>535.7</ele><time>2015-04-30T12:28:04.0000000+00:00</time></trkpt><trkpt lat="34.8152922" lon="32.9164958"><ele>535.8</ele><time>2015-04-30T12:28:07.0000000+00:00</time></trkpt><trkpt lat="34.8152326" lon="32.9164874"><ele>536.3</ele><time>2015-04-30T12:28:10.0000000+00:00</time></trkpt><trkpt lat="34.8151701" lon="32.9164794"><ele>536.7</ele><time>2015-04-30T12:28:13.0000000+00:00</time></trkpt><trkpt lat="34.8151046" lon="32.916469"><ele>536.8</ele><time>2015-04-30T12:28:16.0000000+00:00</time></trkpt><trkpt lat="34.81506" lon="32.9164552"><ele>536.8</ele><time>2015-04-30T12:28:18.0000000+00:00</time></trkpt><trkpt lat="34.8150151" lon="32.9164376"><ele>537.8</ele><time>2015-04-30T12:28:20.0000000+00:00</time></trkpt><trkpt lat="34.8149695" lon="32.9164189"><ele>538.5</ele><time>2015-04-30T12:28:22.0000000+00:00</time></trkpt><trkpt lat="34.8149233" lon="32.9164008"><ele>540.0</ele><time>2015-04-30T12:28:24.0000000+00:00</time></trkpt><trkpt lat="34.8148768" lon="32.9163841"><ele>540.1</ele><time>2015-04-30T12:28:26.0000000+00:00</time></trkpt><trkpt lat="34.8148316" lon="32.9163676"><ele>540.6</ele><time>2015-04-30T12:28:28.0000000+00:00</time></trkpt><trkpt lat="34.8147865" lon="32.9163488"><ele>541.0</ele><time>2015-04-30T12:28:30.0000000+00:00</time></trkpt><trkpt lat="34.8147414" lon="32.9163329"><ele>541.6</ele><time>2015-04-30T12:28:32.0000000+00:00</time></trkpt><trkpt lat="34.8146944" lon="32.9163167"><ele>541.2</ele><time>2015-04-30T12:28:34.0000000+00:00</time></trkpt><trkpt lat="34.8146469" lon="32.9163"><ele>540.9</ele><time>2015-04-30T12:28:36.0000000+00:00</time></trkpt><trkpt lat="34.8145986" lon="32.9162825"><ele>540.8</ele><time>2015-04-30T12:28:38.0000000+00:00</time></trkpt><trkpt lat="34.8145514" lon="32.9162599"><ele>540.8</ele><time>2015-04-30T12:28:40.0000000+00:00</time></trkpt><trkpt lat="34.8145032" lon="32.9162378"><ele>540.8</ele><time>2015-04-30T12:28:42.0000000+00:00</time></trkpt><trkpt lat="34.8144525" lon="32.9162173"><ele>541.3</ele><time>2015-04-30T12:28:44.0000000+00:00</time></trkpt><trkpt lat="34.8144005" lon="32.9161926"><ele>541.6</ele><time>2015-04-30T12:28:46.0000000+00:00</time></trkpt><trkpt lat="34.8143494" lon="32.9161686"><ele>541.7</ele><time>2015-04-30T12:28:48.0000000+00:00</time></trkpt><trkpt lat="34.8143008" lon="32.916144"><ele>542.5</ele><time>2015-04-30T12:28:50.0000000+00:00</time></trkpt><trkpt lat="34.8142547" lon="32.9161248"><ele>543.2</ele><time>2015-04-30T12:28:52.0000000+00:00</time></trkpt><trkpt lat="34.8142067" lon="32.9161094"><ele>543.1</ele><time>2015-04-30T12:28:54.0000000+00:00</time></trkpt><trkpt lat="34.8141611" lon="32.9160866"><ele>542.9</ele><time>2015-04-30T12:28:56.0000000+00:00</time></trkpt><trkpt lat="34.8141126" lon="32.9160617"><ele>543.5</ele><time>2015-04-30T12:28:58.0000000+00:00</time></trkpt><trkpt lat="34.8140613" lon="32.9160373"><ele>543.0</ele><time>2015-04-30T12:29:00.0000000+00:00</time></trkpt><trkpt lat="34.8140009" lon="32.916012"><ele>543.6</ele><time>2015-04-30T12:29:02.0000000+00:00</time></trkpt><trkpt lat="34.8139373" lon="32.9159908"><ele>543.7</ele><time>2015-04-30T12:29:04.0000000+00:00</time></trkpt><trkpt lat="34.8138787" lon="32.915966"><ele>544.5</ele><time>2015-04-30T12:29:06.0000000+00:00</time></trkpt><trkpt lat="34.8138264" lon="32.91594"><ele>543.9</ele><time>2015-04-30T12:29:08.0000000+00:00</time></trkpt><trkpt lat="34.8137729" lon="32.9159141"><ele>545.3</ele><time>2015-04-30T12:29:10.0000000+00:00</time></trkpt><trkpt lat="34.813717" lon="32.9158874"><ele>545.2</ele><time>2015-04-30T12:29:12.0000000+00:00</time></trkpt><trkpt lat="34.8136505" lon="32.9158533"><ele>544.9</ele><time>2015-04-30T12:29:14.0000000+00:00</time></trkpt><trkpt lat="34.8135885" lon="32.9158189"><ele>544.0</ele><time>2015-04-30T12:29:16.0000000+00:00</time></trkpt><trkpt lat="34.8135339" lon="32.9157941"><ele>544.6</ele><time>2015-04-30T12:29:18.0000000+00:00</time></trkpt><trkpt lat="34.81349" lon="32.9157683"><ele>544.5</ele><time>2015-04-30T12:29:20.0000000+00:00</time></trkpt><trkpt lat="34.813449" lon="32.9157421"><ele>544.7</ele><time>2015-04-30T12:29:22.0000000+00:00</time></trkpt><trkpt lat="34.8133983" lon="32.9157272"><ele>544.0</ele><time>2015-04-30T12:29:24.0000000+00:00</time></trkpt><trkpt lat="34.8133273" lon="32.9156934"><ele>543.1</ele><time>2015-04-30T12:29:26.0000000+00:00</time></trkpt><trkpt lat="34.8132597" lon="32.915654"><ele>542.8</ele><time>2015-04-30T12:29:28.0000000+00:00</time></trkpt><trkpt lat="34.8132006" lon="32.9156144"><ele>542.8</ele><time>2015-04-30T12:29:30.0000000+00:00</time></trkpt><trkpt lat="34.813156" lon="32.9155772"><ele>542.8</ele><time>2015-04-30T12:29:32.0000000+00:00</time></trkpt><trkpt lat="34.813105" lon="32.9155349"><ele>544.0</ele><time>2015-04-30T12:29:34.0000000+00:00</time></trkpt><trkpt lat="34.8130402" lon="32.9154912"><ele>544.6</ele><time>2015-04-30T12:29:36.0000000+00:00</time></trkpt><trkpt lat="34.8129777" lon="32.9154423"><ele>544.7</ele><time>2015-04-30T12:29:38.0000000+00:00</time></trkpt><trkpt lat="34.8129177" lon="32.915397"><ele>544.8</ele><time>2015-04-30T12:29:40.0000000+00:00</time></trkpt><trkpt lat="34.8128604" lon="32.915357"><ele>544.8</ele><time>2015-04-30T12:29:42.0000000+00:00</time></trkpt><trkpt lat="34.8128071" lon="32.915325"><ele>544.8</ele><time>2015-04-30T12:29:44.0000000+00:00</time></trkpt><trkpt lat="34.8127608" lon="32.915293"><ele>543.5</ele><time>2015-04-30T12:29:46.0000000+00:00</time></trkpt><trkpt lat="34.8127076" lon="32.9152535"><ele>543.7</ele><time>2015-04-30T12:29:48.0000000+00:00</time></trkpt><trkpt lat="34.8126371" lon="32.9152037"><ele>543.7</ele><time>2015-04-30T12:29:50.0000000+00:00</time></trkpt><trkpt lat="34.8125708" lon="32.9151526"><ele>543.8</ele><time>2015-04-30T12:29:52.0000000+00:00</time></trkpt><trkpt lat="34.8125069" lon="32.9151047"><ele>543.8</ele><time>2015-04-30T12:29:54.0000000+00:00</time></trkpt><trkpt lat="34.8124382" lon="32.91507"><ele>543.3</ele><time>2015-04-30T12:29:56.0000000+00:00</time></trkpt><trkpt lat="34.8123678" lon="32.9150367"><ele>543.6</ele><time>2015-04-30T12:29:58.0000000+00:00</time></trkpt><trkpt lat="34.812288" lon="32.9150074"><ele>543.7</ele><time>2015-04-30T12:30:00.0000000+00:00</time></trkpt><trkpt lat="34.8122422" lon="32.9149937"><ele>543.2</ele><time>2015-04-30T12:30:01.0000000+00:00</time></trkpt><trkpt lat="34.8121866" lon="32.914986"><ele>542.5</ele><time>2015-04-30T12:30:02.0000000+00:00</time></trkpt><trkpt lat="34.8121001" lon="32.9149758"><ele>542.0</ele><time>2015-04-30T12:30:04.0000000+00:00</time></trkpt><trkpt lat="34.8120516" lon="32.9149734"><ele>541.4</ele><time>2015-04-30T12:30:05.0000000+00:00</time></trkpt><trkpt lat="34.812004" lon="32.9149726"><ele>541.1</ele><time>2015-04-30T12:30:06.0000000+00:00</time></trkpt><trkpt lat="34.8119137" lon="32.9149794"><ele>541.6</ele><time>2015-04-30T12:30:08.0000000+00:00</time></trkpt><trkpt lat="34.811824" lon="32.9150006"><ele>541.7</ele><time>2015-04-30T12:30:10.0000000+00:00</time></trkpt><trkpt lat="34.8117312" lon="32.9150363"><ele>541.8</ele><time>2015-04-30T12:30:12.0000000+00:00</time></trkpt><trkpt lat="34.8116833" lon="32.9150561"><ele>541.3</ele><time>2015-04-30T12:30:13.0000000+00:00</time></trkpt><trkpt lat="34.8116089" lon="32.9151031"><ele>541.4</ele><time>2015-04-30T12:30:15.0000000+00:00</time></trkpt><trkpt lat="34.8115314" lon="32.9151581"><ele>541.7</ele><time>2015-04-30T12:30:17.0000000+00:00</time></trkpt><trkpt lat="34.8114678" lon="32.9152191"><ele>540.7</ele><time>2015-04-30T12:30:19.0000000+00:00</time></trkpt><trkpt lat="34.8114279" lon="32.9152629"><ele>540.8</ele><time>2015-04-30T12:30:20.0000000+00:00</time></trkpt><trkpt lat="34.8113904" lon="32.9153003"><ele>541.3</ele><time>2015-04-30T12:30:21.0000000+00:00</time></trkpt><trkpt lat="34.8113338" lon="32.915383"><ele>541.4</ele><time>2015-04-30T12:30:23.0000000+00:00</time></trkpt><trkpt lat="34.8113012" lon="32.9154277"><ele>541.6</ele><time>2015-04-30T12:30:24.0000000+00:00</time></trkpt><trkpt lat="34.8112526" lon="32.9155041"><ele>541.0</ele><time>2015-04-30T12:30:26.0000000+00:00</time></trkpt><trkpt lat="34.811211" lon="32.9155741"><ele>540.8</ele><time>2015-04-30T12:30:28.0000000+00:00</time></trkpt><trkpt lat="34.8111653" lon="32.9156294"><ele>540.8</ele><time>2015-04-30T12:30:30.0000000+00:00</time></trkpt><trkpt lat="34.8111304" lon="32.9156852"><ele>540.8</ele><time>2015-04-30T12:30:32.0000000+00:00</time></trkpt><trkpt lat="34.8110914" lon="32.9157574"><ele>540.8</ele><time>2015-04-30T12:30:34.0000000+00:00</time></trkpt><trkpt lat="34.8110452" lon="32.9158345"><ele>541.5</ele><time>2015-04-30T12:30:36.0000000+00:00</time></trkpt><trkpt lat="34.8109988" lon="32.9159111"><ele>541.7</ele><time>2015-04-30T12:30:38.0000000+00:00</time></trkpt><trkpt lat="34.810949" lon="32.9159863"><ele>542.2</ele><time>2015-04-30T12:30:40.0000000+00:00</time></trkpt><trkpt lat="34.8109004" lon="32.9160608"><ele>542.6</ele><time>2015-04-30T12:30:42.0000000+00:00</time></trkpt><trkpt lat="34.8108464" lon="32.9161273"><ele>542.7</ele><time>2015-04-30T12:30:44.0000000+00:00</time></trkpt><trkpt lat="34.8107874" lon="32.9161932"><ele>542.8</ele><time>2015-04-30T12:30:46.0000000+00:00</time></trkpt><trkpt lat="34.8107176" lon="32.916274"><ele>543.5</ele><time>2015-04-30T12:30:48.0000000+00:00</time></trkpt><trkpt lat="34.8106611" lon="32.916346"><ele>543.7</ele><time>2015-04-30T12:30:50.0000000+00:00</time></trkpt><trkpt lat="34.8106094" lon="32.916399"><ele>543.7</ele><time>2015-04-30T12:30:52.0000000+00:00</time></trkpt><trkpt lat="34.8105627" lon="32.916439"><ele>543.8</ele><time>2015-04-30T12:30:54.0000000+00:00</time></trkpt><trkpt lat="34.810521" lon="32.9164695"><ele>543.8</ele><time>2015-04-30T12:30:56.0000000+00:00</time></trkpt><trkpt lat="34.8104728" lon="32.9165029"><ele>543.8</ele><time>2015-04-30T12:30:58.0000000+00:00</time></trkpt><trkpt lat="34.8104249" lon="32.9165393"><ele>543.8</ele><time>2015-04-30T12:31:00.0000000+00:00</time></trkpt><trkpt lat="34.8103759" lon="32.9165732"><ele>543.8</ele><time>2015-04-30T12:31:02.0000000+00:00</time></trkpt><trkpt lat="34.8103225" lon="32.9166006"><ele>543.8</ele><time>2015-04-30T12:31:04.0000000+00:00</time></trkpt><trkpt lat="34.8102557" lon="32.9166351"><ele>543.8</ele><time>2015-04-30T12:31:06.0000000+00:00</time></trkpt><trkpt lat="34.8101792" lon="32.9166789"><ele>543.8</ele><time>2015-04-30T12:31:08.0000000+00:00</time></trkpt><trkpt lat="34.8100847" lon="32.9167271"><ele>543.8</ele><time>2015-04-30T12:31:10.0000000+00:00</time></trkpt><trkpt lat="34.8100403" lon="32.9167415"><ele>543.8</ele><time>2015-04-30T12:31:11.0000000+00:00</time></trkpt><trkpt lat="34.8099942" lon="32.916753"><ele>543.8</ele><time>2015-04-30T12:31:12.0000000+00:00</time></trkpt><trkpt lat="34.8099084" lon="32.9167761"><ele>543.8</ele><time>2015-04-30T12:31:14.0000000+00:00</time></trkpt><trkpt lat="34.8098632" lon="32.9167925"><ele>543.8</ele><time>2015-04-30T12:31:15.0000000+00:00</time></trkpt><trkpt lat="34.8098177" lon="32.916806"><ele>543.8</ele><time>2015-04-30T12:31:16.0000000+00:00</time></trkpt><trkpt lat="34.8097722" lon="32.9168192"><ele>543.8</ele><time>2015-04-30T12:31:17.0000000+00:00</time></trkpt><trkpt lat="34.8096836" lon="32.9168418"><ele>543.8</ele><time>2015-04-30T12:31:19.0000000+00:00</time></trkpt><trkpt lat="34.8096384" lon="32.916849"><ele>543.8</ele><time>2015-04-30T12:31:20.0000000+00:00</time></trkpt><trkpt lat="34.8095933" lon="32.9168505"><ele>543.8</ele><time>2015-04-30T12:31:21.0000000+00:00</time></trkpt><trkpt lat="34.8095084" lon="32.9168546"><ele>543.0</ele><time>2015-04-30T12:31:23.0000000+00:00</time></trkpt><trkpt lat="34.8094628" lon="32.9168578"><ele>542.9</ele><time>2015-04-30T12:31:24.0000000+00:00</time></trkpt><trkpt lat="34.8094176" lon="32.9168602"><ele>542.8</ele><time>2015-04-30T12:31:25.0000000+00:00</time></trkpt><trkpt lat="34.8093684" lon="32.9168655"><ele>542.8</ele><time>2015-04-30T12:31:26.0000000+00:00</time></trkpt><trkpt lat="34.8093184" lon="32.9168682"><ele>542.8</ele><time>2015-04-30T12:31:27.0000000+00:00</time></trkpt><trkpt lat="34.8092654" lon="32.9168764"><ele>542.8</ele><time>2015-04-30T12:31:28.0000000+00:00</time></trkpt><trkpt lat="34.809219" lon="32.9168748"><ele>542.8</ele><time>2015-04-30T12:31:29.0000000+00:00</time></trkpt><trkpt lat="34.8091649" lon="32.9168763"><ele>542.3</ele><time>2015-04-30T12:31:30.0000000+00:00</time></trkpt><trkpt lat="34.8091132" lon="32.9168746"><ele>542.0</ele><time>2015-04-30T12:31:31.0000000+00:00</time></trkpt><trkpt lat="34.8090608" lon="32.9168707"><ele>541.9</ele><time>2015-04-30T12:31:32.0000000+00:00</time></trkpt><trkpt lat="34.8090078" lon="32.9168696"><ele>541.8</ele><time>2015-04-30T12:31:33.0000000+00:00</time></trkpt><trkpt lat="34.8089586" lon="32.9168747"><ele>542.3</ele><time>2015-04-30T12:31:34.0000000+00:00</time></trkpt><trkpt lat="34.8088984" lon="32.9168874"><ele>542.4</ele><time>2015-04-30T12:31:36.0000000+00:00</time></trkpt><trkpt lat="34.8088718" lon="32.9169422"><ele>542.7</ele><time>2015-04-30T12:31:40.0000000+00:00</time></trkpt><trkpt lat="34.8089187" lon="32.9169565"><ele>542.9</ele><time>2015-04-30T12:31:43.0000000+00:00</time></trkpt><trkpt lat="34.8089635" lon="32.9169455"><ele>542.8</ele><time>2015-04-30T12:31:47.0000000+00:00</time></trkpt><trkpt lat="34.8089671" lon="32.9168741"><ele>541.8</ele><time>2015-04-30T12:31:52.0000000+00:00</time></trkpt><trkpt lat="34.8089236" lon="32.91686"><ele>541.8</ele><time>2015-04-30T12:31:54.0000000+00:00</time></trkpt><trkpt lat="34.80887" lon="32.9168746"><ele>542.5</ele><time>2015-04-30T12:31:56.0000000+00:00</time></trkpt><trkpt lat="34.8087939" lon="32.9168814"><ele>542.7</ele><time>2015-04-30T12:31:58.0000000+00:00</time></trkpt><trkpt lat="34.8087113" lon="32.916891"><ele>542.7</ele><time>2015-04-30T12:32:00.0000000+00:00</time></trkpt><trkpt lat="34.8086094" lon="32.9169233"><ele>542.8</ele><time>2015-04-30T12:32:02.0000000+00:00</time></trkpt><trkpt lat="34.8085158" lon="32.91695"><ele>542.3</ele><time>2015-04-30T12:32:04.0000000+00:00</time></trkpt><trkpt lat="34.8084679" lon="32.9169671"><ele>542.0</ele><time>2015-04-30T12:32:05.0000000+00:00</time></trkpt><trkpt lat="34.8084223" lon="32.9169869"><ele>541.9</ele><time>2015-04-30T12:32:06.0000000+00:00</time></trkpt><trkpt lat="34.808373" lon="32.9170027"><ele>541.8</ele><time>2015-04-30T12:32:07.0000000+00:00</time></trkpt><trkpt lat="34.8083255" lon="32.9170228"><ele>541.8</ele><time>2015-04-30T12:32:08.0000000+00:00</time></trkpt><trkpt lat="34.808274" lon="32.9170503"><ele>541.8</ele><time>2015-04-30T12:32:09.0000000+00:00</time></trkpt><trkpt lat="34.808223" lon="32.9170748"><ele>541.8</ele><time>2015-04-30T12:32:10.0000000+00:00</time></trkpt><trkpt lat="34.8081764" lon="32.9171047"><ele>541.8</ele><time>2015-04-30T12:32:11.0000000+00:00</time></trkpt><trkpt lat="34.8081278" lon="32.9171381"><ele>541.8</ele><time>2015-04-30T12:32:12.0000000+00:00</time></trkpt><trkpt lat="34.8080761" lon="32.9171687"><ele>541.3</ele><time>2015-04-30T12:32:13.0000000+00:00</time></trkpt><trkpt lat="34.8080264" lon="32.9171998"><ele>541.0</ele><time>2015-04-30T12:32:14.0000000+00:00</time></trkpt><trkpt lat="34.8079759" lon="32.9172353"><ele>540.9</ele><time>2015-04-30T12:32:15.0000000+00:00</time></trkpt><trkpt lat="34.8079206" lon="32.9172627"><ele>540.3</ele><time>2015-04-30T12:32:16.0000000+00:00</time></trkpt><trkpt lat="34.8078684" lon="32.9172979"><ele>540.0</ele><time>2015-04-30T12:32:17.0000000+00:00</time></trkpt><trkpt lat="34.8078195" lon="32.9173379"><ele>539.9</ele><time>2015-04-30T12:32:18.0000000+00:00</time></trkpt><trkpt lat="34.8077613" lon="32.9173684"><ele>539.3</ele><time>2015-04-30T12:32:19.0000000+00:00</time></trkpt><trkpt lat="34.8077027" lon="32.9174054"><ele>538.6</ele><time>2015-04-30T12:32:20.0000000+00:00</time></trkpt><trkpt lat="34.8076411" lon="32.9174248"><ele>538.2</ele><time>2015-04-30T12:32:21.0000000+00:00</time></trkpt><trkpt lat="34.8075778" lon="32.9174475"><ele>538.0</ele><time>2015-04-30T12:32:22.0000000+00:00</time></trkpt><trkpt lat="34.8075171" lon="32.9174644"><ele>537.4</ele><time>2015-04-30T12:32:23.0000000+00:00</time></trkpt><trkpt lat="34.8074515" lon="32.9174833"><ele>537.1</ele><time>2015-04-30T12:32:24.0000000+00:00</time></trkpt><trkpt lat="34.8073845" lon="32.9174973"><ele>536.9</ele><time>2015-04-30T12:32:25.0000000+00:00</time></trkpt><trkpt lat="34.8073127" lon="32.9175007"><ele>536.8</ele><time>2015-04-30T12:32:26.0000000+00:00</time></trkpt><trkpt lat="34.8072421" lon="32.9175005"><ele>536.8</ele><time>2015-04-30T12:32:27.0000000+00:00</time></trkpt><trkpt lat="34.8071671" lon="32.9174996"><ele>536.8</ele><time>2015-04-30T12:32:28.0000000+00:00</time></trkpt><trkpt lat="34.807091" lon="32.9174934"><ele>536.3</ele><time>2015-04-30T12:32:29.0000000+00:00</time></trkpt><trkpt lat="34.8070116" lon="32.917476"><ele>535.5</ele><time>2015-04-30T12:32:30.0000000+00:00</time></trkpt><trkpt lat="34.8069357" lon="32.9174572"><ele>535.1</ele><time>2015-04-30T12:32:31.0000000+00:00</time></trkpt><trkpt lat="34.8068534" lon="32.917432"><ele>534.5</ele><time>2015-04-30T12:32:32.0000000+00:00</time></trkpt><trkpt lat="34.8067694" lon="32.9174"><ele>533.6</ele><time>2015-04-30T12:32:33.0000000+00:00</time></trkpt><trkpt lat="34.8066838" lon="32.9173751"><ele>533.2</ele><time>2015-04-30T12:32:34.0000000+00:00</time></trkpt><trkpt lat="34.8066002" lon="32.9173464"><ele>532.5</ele><time>2015-04-30T12:32:35.0000000+00:00</time></trkpt><trkpt lat="34.8065121" lon="32.9173079"><ele>532.1</ele><time>2015-04-30T12:32:36.0000000+00:00</time></trkpt><trkpt lat="34.8064288" lon="32.9172736"><ele>531.4</ele><time>2015-04-30T12:32:37.0000000+00:00</time></trkpt><trkpt lat="34.8063374" lon="32.9172431"><ele>530.6</ele><time>2015-04-30T12:32:38.0000000+00:00</time></trkpt><trkpt lat="34.80625" lon="32.9172118"><ele>529.7</ele><time>2015-04-30T12:32:39.0000000+00:00</time></trkpt><trkpt lat="34.8061513" lon="32.9171816"><ele>529.2</ele><time>2015-04-30T12:32:40.0000000+00:00</time></trkpt><trkpt lat="34.8060528" lon="32.917151"><ele>528.5</ele><time>2015-04-30T12:32:41.0000000+00:00</time></trkpt><trkpt lat="34.805952" lon="32.9171185"><ele>527.6</ele><time>2015-04-30T12:32:42.0000000+00:00</time></trkpt><trkpt lat="34.8058557" lon="32.917085"><ele>527.2</ele><time>2015-04-30T12:32:43.0000000+00:00</time></trkpt><trkpt lat="34.8057415" lon="32.9170458"><ele>526.0</ele><time>2015-04-30T12:32:44.0000000+00:00</time></trkpt><trkpt lat="34.8056366" lon="32.9170019"><ele>524.9</ele><time>2015-04-30T12:32:45.0000000+00:00</time></trkpt><trkpt lat="34.8055283" lon="32.916966"><ele>523.8</ele><time>2015-04-30T12:32:46.0000000+00:00</time></trkpt><trkpt lat="34.8054193" lon="32.9169264"><ele>523.3</ele><time>2015-04-30T12:32:47.0000000+00:00</time></trkpt><trkpt lat="34.8053071" lon="32.9168801"><ele>522.5</ele><time>2015-04-30T12:32:48.0000000+00:00</time></trkpt><trkpt lat="34.8051949" lon="32.9168393"><ele>522.1</ele><time>2015-04-30T12:32:49.0000000+00:00</time></trkpt><trkpt lat="34.8050824" lon="32.9167993"><ele>522.0</ele><time>2015-04-30T12:32:50.0000000+00:00</time></trkpt><trkpt lat="34.8049734" lon="32.9167574"><ele>521.4</ele><time>2015-04-30T12:32:51.0000000+00:00</time></trkpt><trkpt lat="34.8048601" lon="32.9167167"><ele>520.6</ele><time>2015-04-30T12:32:52.0000000+00:00</time></trkpt><trkpt lat="34.8047484" lon="32.9166827"><ele>519.7</ele><time>2015-04-30T12:32:53.0000000+00:00</time></trkpt><trkpt lat="34.8046364" lon="32.9166475"><ele>519.2</ele><time>2015-04-30T12:32:54.0000000+00:00</time></trkpt><trkpt lat="34.8045279" lon="32.916608"><ele>518.5</ele><time>2015-04-30T12:32:55.0000000+00:00</time></trkpt><trkpt lat="34.804414" lon="32.9165652"><ele>517.6</ele><time>2015-04-30T12:32:56.0000000+00:00</time></trkpt><trkpt lat="34.804307" lon="32.9165227"><ele>516.7</ele><time>2015-04-30T12:32:57.0000000+00:00</time></trkpt><trkpt lat="34.8042026" lon="32.9164905"><ele>516.2</ele><time>2015-04-30T12:32:58.0000000+00:00</time></trkpt><trkpt lat="34.8041032" lon="32.9164516"><ele>515.5</ele><time>2015-04-30T12:32:59.0000000+00:00</time></trkpt><trkpt lat="34.8039941" lon="32.9164115"><ele>515.1</ele><time>2015-04-30T12:33:00.0000000+00:00</time></trkpt><trkpt lat="34.8038966" lon="32.9163759"><ele>514.9</ele><time>2015-04-30T12:33:01.0000000+00:00</time></trkpt><trkpt lat="34.8037975" lon="32.916344"><ele>514.4</ele><time>2015-04-30T12:33:02.0000000+00:00</time></trkpt><trkpt lat="34.8037053" lon="32.9163145"><ele>514.1</ele><time>2015-04-30T12:33:03.0000000+00:00</time></trkpt><trkpt lat="34.8036118" lon="32.9162878"><ele>514.4</ele><time>2015-04-30T12:33:04.0000000+00:00</time></trkpt><trkpt lat="34.8035189" lon="32.9162651"><ele>514.1</ele><time>2015-04-30T12:33:05.0000000+00:00</time></trkpt><trkpt lat="34.8034329" lon="32.9162385"><ele>514.4</ele><time>2015-04-30T12:33:06.0000000+00:00</time></trkpt><trkpt lat="34.8033487" lon="32.9162161"><ele>514.6</ele><time>2015-04-30T12:33:07.0000000+00:00</time></trkpt><trkpt lat="34.8032557" lon="32.9161956"><ele>514.2</ele><time>2015-04-30T12:33:08.0000000+00:00</time></trkpt><trkpt lat="34.80317" lon="32.916185"><ele>514.0</ele><time>2015-04-30T12:33:09.0000000+00:00</time></trkpt><trkpt lat="34.8030873" lon="32.9161707"><ele>514.4</ele><time>2015-04-30T12:33:10.0000000+00:00</time></trkpt><trkpt lat="34.803008" lon="32.9161583"><ele>514.6</ele><time>2015-04-30T12:33:11.0000000+00:00</time></trkpt><trkpt lat="34.8029225" lon="32.9161525"><ele>514.2</ele><time>2015-04-30T12:33:12.0000000+00:00</time></trkpt><trkpt lat="34.8028377" lon="32.9161427"><ele>514.5</ele><time>2015-04-30T12:33:13.0000000+00:00</time></trkpt><trkpt lat="34.8027552" lon="32.9161369"><ele>514.6</ele><time>2015-04-30T12:33:14.0000000+00:00</time></trkpt><trkpt lat="34.8026774" lon="32.9161302"><ele>514.7</ele><time>2015-04-30T12:33:15.0000000+00:00</time></trkpt><trkpt lat="34.8025864" lon="32.9161264"><ele>514.7</ele><time>2015-04-30T12:33:16.0000000+00:00</time></trkpt><trkpt lat="34.8025064" lon="32.9161126"><ele>514.2</ele><time>2015-04-30T12:33:17.0000000+00:00</time></trkpt><trkpt lat="34.8024199" lon="32.9161064"><ele>514.0</ele><time>2015-04-30T12:33:18.0000000+00:00</time></trkpt><trkpt lat="34.8023383" lon="32.9160943"><ele>513.4</ele><time>2015-04-30T12:33:19.0000000+00:00</time></trkpt><trkpt lat="34.8022473" lon="32.9160867"><ele>512.6</ele><time>2015-04-30T12:33:20.0000000+00:00</time></trkpt><trkpt lat="34.802167" lon="32.9160802"><ele>512.2</ele><time>2015-04-30T12:33:21.0000000+00:00</time></trkpt><trkpt lat="34.8020855" lon="32.9160765"><ele>511.5</ele><time>2015-04-30T12:33:22.0000000+00:00</time></trkpt><trkpt lat="34.8020073" lon="32.9160721"><ele>511.1</ele><time>2015-04-30T12:33:23.0000000+00:00</time></trkpt><trkpt lat="34.8019237" lon="32.9160695"><ele>510.9</ele><time>2015-04-30T12:33:24.0000000+00:00</time></trkpt><trkpt lat="34.8018487" lon="32.9160591"><ele>510.9</ele><time>2015-04-30T12:33:25.0000000+00:00</time></trkpt><trkpt lat="34.8017631" lon="32.9160518"><ele>510.8</ele><time>2015-04-30T12:33:26.0000000+00:00</time></trkpt><trkpt lat="34.8016825" lon="32.9160405"><ele>510.3</ele><time>2015-04-30T12:33:27.0000000+00:00</time></trkpt><trkpt lat="34.8015939" lon="32.9160312"><ele>510.0</ele><time>2015-04-30T12:33:28.0000000+00:00</time></trkpt><trkpt lat="34.8015083" lon="32.9160289"><ele>509.9</ele><time>2015-04-30T12:33:29.0000000+00:00</time></trkpt><trkpt lat="34.8014176" lon="32.9160231"><ele>509.8</ele><time>2015-04-30T12:33:30.0000000+00:00</time></trkpt><trkpt lat="34.8013312" lon="32.9160121"><ele>509.8</ele><time>2015-04-30T12:33:31.0000000+00:00</time></trkpt><trkpt lat="34.8012423" lon="32.9159998"><ele>509.3</ele><time>2015-04-30T12:33:32.0000000+00:00</time></trkpt><trkpt lat="34.8011574" lon="32.9159943"><ele>509.0</ele><time>2015-04-30T12:33:33.0000000+00:00</time></trkpt><trkpt lat="34.8010697" lon="32.9159857"><ele>508.4</ele><time>2015-04-30T12:33:34.0000000+00:00</time></trkpt><trkpt lat="34.8009869" lon="32.9159781"><ele>508.1</ele><time>2015-04-30T12:33:35.0000000+00:00</time></trkpt><trkpt lat="34.800898" lon="32.9159683"><ele>507.9</ele><time>2015-04-30T12:33:36.0000000+00:00</time></trkpt><trkpt lat="34.8008145" lon="32.9159538"><ele>507.3</ele><time>2015-04-30T12:33:37.0000000+00:00</time></trkpt><trkpt lat="34.8007228" lon="32.9159487"><ele>506.6</ele><time>2015-04-30T12:33:38.0000000+00:00</time></trkpt><trkpt lat="34.8006367" lon="32.9159424"><ele>505.7</ele><time>2015-04-30T12:33:39.0000000+00:00</time></trkpt><trkpt lat="34.8005494" lon="32.9159332"><ele>505.2</ele><time>2015-04-30T12:33:40.0000000+00:00</time></trkpt><trkpt lat="34.8004703" lon="32.9159272"><ele>504.5</ele><time>2015-04-30T12:33:41.0000000+00:00</time></trkpt><trkpt lat="34.8003945" lon="32.9159208"><ele>504.6</ele><time>2015-04-30T12:33:42.0000000+00:00</time></trkpt><trkpt lat="34.8003228" lon="32.9159106"><ele>504.2</ele><time>2015-04-30T12:33:43.0000000+00:00</time></trkpt><trkpt lat="34.8002501" lon="32.9158952"><ele>504.0</ele><time>2015-04-30T12:33:44.0000000+00:00</time></trkpt><trkpt lat="34.8001789" lon="32.9158729"><ele>503.4</ele><time>2015-04-30T12:33:45.0000000+00:00</time></trkpt><trkpt lat="34.8001068" lon="32.9158495"><ele>503.6</ele><time>2015-04-30T12:33:46.0000000+00:00</time></trkpt><trkpt lat="34.8000384" lon="32.9158305"><ele>503.7</ele><time>2015-04-30T12:33:47.0000000+00:00</time></trkpt><trkpt lat="34.7999657" lon="32.9158013"><ele>503.7</ele><time>2015-04-30T12:33:48.0000000+00:00</time></trkpt><trkpt lat="34.7998975" lon="32.9157696"><ele>503.7</ele><time>2015-04-30T12:33:49.0000000+00:00</time></trkpt><trkpt lat="34.7998322" lon="32.9157341"><ele>503.8</ele><time>2015-04-30T12:33:50.0000000+00:00</time></trkpt><trkpt lat="34.7997713" lon="32.9156828"><ele>503.3</ele><time>2015-04-30T12:33:51.0000000+00:00</time></trkpt><trkpt lat="34.7997069" lon="32.9156314"><ele>503.0</ele><time>2015-04-30T12:33:52.0000000+00:00</time></trkpt><trkpt lat="34.7996484" lon="32.9155894"><ele>502.9</ele><time>2015-04-30T12:33:53.0000000+00:00</time></trkpt><trkpt lat="34.7995871" lon="32.915542"><ele>502.8</ele><time>2015-04-30T12:33:54.0000000+00:00</time></trkpt><trkpt lat="34.7995298" lon="32.9154994"><ele>502.3</ele><time>2015-04-30T12:33:55.0000000+00:00</time></trkpt><trkpt lat="34.7994715" lon="32.9154592"><ele>502.0</ele><time>2015-04-30T12:33:56.0000000+00:00</time></trkpt><trkpt lat="34.7994106" lon="32.915415"><ele>501.9</ele><time>2015-04-30T12:33:57.0000000+00:00</time></trkpt><trkpt lat="34.7993538" lon="32.9153782"><ele>501.8</ele><time>2015-04-30T12:33:58.0000000+00:00</time></trkpt><trkpt lat="34.7992973" lon="32.9153388"><ele>501.8</ele><time>2015-04-30T12:33:59.0000000+00:00</time></trkpt><trkpt lat="34.7992381" lon="32.9152955"><ele>501.8</ele><time>2015-04-30T12:34:00.0000000+00:00</time></trkpt><trkpt lat="34.7991843" lon="32.9152514"><ele>501.8</ele><time>2015-04-30T12:34:01.0000000+00:00</time></trkpt><trkpt lat="34.7991244" lon="32.9152206"><ele>501.8</ele><time>2015-04-30T12:34:02.0000000+00:00</time></trkpt><trkpt lat="34.7990685" lon="32.915186"><ele>501.3</ele><time>2015-04-30T12:34:03.0000000+00:00</time></trkpt><trkpt lat="34.7990085" lon="32.9151542"><ele>501.0</ele><time>2015-04-30T12:34:04.0000000+00:00</time></trkpt><trkpt lat="34.7989487" lon="32.9151108"><ele>500.9</ele><time>2015-04-30T12:34:05.0000000+00:00</time></trkpt><trkpt lat="34.7988882" lon="32.915078"><ele>500.3</ele><time>2015-04-30T12:34:06.0000000+00:00</time></trkpt><trkpt lat="34.7988405" lon="32.9150602"><ele>500.0</ele><time>2015-04-30T12:34:07.0000000+00:00</time></trkpt><trkpt lat="34.7987775" lon="32.9150414"><ele>499.9</ele><time>2015-04-30T12:34:08.0000000+00:00</time></trkpt><trkpt lat="34.7987134" lon="32.9150193"><ele>499.8</ele><time>2015-04-30T12:34:09.0000000+00:00</time></trkpt><trkpt lat="34.7986484" lon="32.9149996"><ele>499.8</ele><time>2015-04-30T12:34:10.0000000+00:00</time></trkpt><trkpt lat="34.7985834" lon="32.914985"><ele>499.8</ele><time>2015-04-30T12:34:11.0000000+00:00</time></trkpt><trkpt lat="34.79852" lon="32.9149717"><ele>499.8</ele><time>2015-04-30T12:34:12.0000000+00:00</time></trkpt><trkpt lat="34.7984557" lon="32.914962"><ele>499.8</ele><time>2015-04-30T12:34:13.0000000+00:00</time></trkpt><trkpt lat="34.7983919" lon="32.9149603"><ele>499.3</ele><time>2015-04-30T12:34:14.0000000+00:00</time></trkpt><trkpt lat="34.7983291" lon="32.9149558"><ele>499.5</ele><time>2015-04-30T12:34:15.0000000+00:00</time></trkpt><trkpt lat="34.7982652" lon="32.9149439"><ele>499.1</ele><time>2015-04-30T12:34:16.0000000+00:00</time></trkpt><trkpt lat="34.7982017" lon="32.914939"><ele>499.0</ele><time>2015-04-30T12:34:17.0000000+00:00</time></trkpt><trkpt lat="34.7981346" lon="32.9149438"><ele>498.9</ele><time>2015-04-30T12:34:18.0000000+00:00</time></trkpt><trkpt lat="34.7980702" lon="32.914952"><ele>498.8</ele><time>2015-04-30T12:34:19.0000000+00:00</time></trkpt><trkpt lat="34.7980064" lon="32.914962"><ele>498.8</ele><time>2015-04-30T12:34:20.0000000+00:00</time></trkpt><trkpt lat="34.7979488" lon="32.9149681"><ele>498.3</ele><time>2015-04-30T12:34:21.0000000+00:00</time></trkpt><trkpt lat="34.7978818" lon="32.9149789"><ele>498.0</ele><time>2015-04-30T12:34:22.0000000+00:00</time></trkpt><trkpt lat="34.7978209" lon="32.9149892"><ele>497.9</ele><time>2015-04-30T12:34:23.0000000+00:00</time></trkpt><trkpt lat="34.7977545" lon="32.9150004"><ele>497.8</ele><time>2015-04-30T12:34:24.0000000+00:00</time></trkpt><trkpt lat="34.7976801" lon="32.9150123"><ele>497.3</ele><time>2015-04-30T12:34:25.0000000+00:00</time></trkpt><trkpt lat="34.7976149" lon="32.9150188"><ele>497.0</ele><time>2015-04-30T12:34:26.0000000+00:00</time></trkpt><trkpt lat="34.7975529" lon="32.9150321"><ele>496.9</ele><time>2015-04-30T12:34:27.0000000+00:00</time></trkpt><trkpt lat="34.7974794" lon="32.9150483"><ele>496.3</ele><time>2015-04-30T12:34:28.0000000+00:00</time></trkpt><trkpt lat="34.7974155" lon="32.9150595"><ele>496.0</ele><time>2015-04-30T12:34:29.0000000+00:00</time></trkpt><trkpt lat="34.7973476" lon="32.9150723"><ele>495.9</ele><time>2015-04-30T12:34:30.0000000+00:00</time></trkpt><trkpt lat="34.7972805" lon="32.9150861"><ele>495.3</ele><time>2015-04-30T12:34:31.0000000+00:00</time></trkpt><trkpt lat="34.7972027" lon="32.9150978"><ele>495.1</ele><time>2015-04-30T12:34:32.0000000+00:00</time></trkpt><trkpt lat="34.7971242" lon="32.9151143"><ele>494.9</ele><time>2015-04-30T12:34:33.0000000+00:00</time></trkpt><trkpt lat="34.7970438" lon="32.9151258"><ele>494.3</ele><time>2015-04-30T12:34:34.0000000+00:00</time></trkpt><trkpt lat="34.7969613" lon="32.9151427"><ele>494.1</ele><time>2015-04-30T12:34:35.0000000+00:00</time></trkpt><trkpt lat="34.7968794" lon="32.9151712"><ele>493.4</ele><time>2015-04-30T12:34:36.0000000+00:00</time></trkpt><trkpt lat="34.7967899" lon="32.9151865"><ele>493.6</ele><time>2015-04-30T12:34:37.0000000+00:00</time></trkpt><trkpt lat="34.7967018" lon="32.915203"><ele>493.2</ele><time>2015-04-30T12:34:38.0000000+00:00</time></trkpt><trkpt lat="34.7966122" lon="32.9152218"><ele>492.5</ele><time>2015-04-30T12:34:39.0000000+00:00</time></trkpt><trkpt lat="34.7965135" lon="32.9152329"><ele>492.1</ele><time>2015-04-30T12:34:40.0000000+00:00</time></trkpt><trkpt lat="34.7964198" lon="32.9152368"><ele>491.9</ele><time>2015-04-30T12:34:41.0000000+00:00</time></trkpt><trkpt lat="34.7963266" lon="32.9152551"><ele>491.9</ele><time>2015-04-30T12:34:42.0000000+00:00</time></trkpt><trkpt lat="34.7962363" lon="32.9152736"><ele>491.3</ele><time>2015-04-30T12:34:43.0000000+00:00</time></trkpt><trkpt lat="34.7961366" lon="32.9152923"><ele>491.0</ele><time>2015-04-30T12:34:44.0000000+00:00</time></trkpt><trkpt lat="34.7960422" lon="32.915313"><ele>490.4</ele><time>2015-04-30T12:34:45.0000000+00:00</time></trkpt><trkpt lat="34.7959478" lon="32.915326"><ele>490.1</ele><time>2015-04-30T12:34:46.0000000+00:00</time></trkpt><trkpt lat="34.7958545" lon="32.9153443"><ele>489.9</ele><time>2015-04-30T12:34:47.0000000+00:00</time></trkpt><trkpt lat="34.7957584" lon="32.9153627"><ele>489.8</ele><time>2015-04-30T12:34:48.0000000+00:00</time></trkpt><trkpt lat="34.7956641" lon="32.9153774"><ele>489.3</ele><time>2015-04-30T12:34:49.0000000+00:00</time></trkpt><trkpt lat="34.795575" lon="32.9153969"><ele>489.0</ele><time>2015-04-30T12:34:50.0000000+00:00</time></trkpt><trkpt lat="34.7954909" lon="32.9154162"><ele>488.4</ele><time>2015-04-30T12:34:51.0000000+00:00</time></trkpt><trkpt lat="34.7953992" lon="32.9154321"><ele>488.1</ele><time>2015-04-30T12:34:52.0000000+00:00</time></trkpt><trkpt lat="34.795308" lon="32.9154515"><ele>487.9</ele><time>2015-04-30T12:34:53.0000000+00:00</time></trkpt><trkpt lat="34.7952211" lon="32.9154662"><ele>487.8</ele><time>2015-04-30T12:34:54.0000000+00:00</time></trkpt><trkpt lat="34.7951369" lon="32.9154843"><ele>487.8</ele><time>2015-04-30T12:34:55.0000000+00:00</time></trkpt><trkpt lat="34.7950492" lon="32.9154993"><ele>487.8</ele><time>2015-04-30T12:34:56.0000000+00:00</time></trkpt><trkpt lat="34.7949662" lon="32.915518"><ele>487.8</ele><time>2015-04-30T12:34:57.0000000+00:00</time></trkpt><trkpt lat="34.7948871" lon="32.9155313"><ele>487.8</ele><time>2015-04-30T12:34:58.0000000+00:00</time></trkpt><trkpt lat="34.7948096" lon="32.9155429"><ele>487.8</ele><time>2015-04-30T12:34:59.0000000+00:00</time></trkpt><trkpt lat="34.7947235" lon="32.9155478"><ele>487.3</ele><time>2015-04-30T12:35:00.0000000+00:00</time></trkpt><trkpt lat="34.7946536" lon="32.9155568"><ele>486.5</ele><time>2015-04-30T12:35:01.0000000+00:00</time></trkpt><trkpt lat="34.7945834" lon="32.9155677"><ele>486.1</ele><time>2015-04-30T12:35:02.0000000+00:00</time></trkpt><trkpt lat="34.7945177" lon="32.9155852"><ele>486.5</ele><time>2015-04-30T12:35:03.0000000+00:00</time></trkpt><trkpt lat="34.7944478" lon="32.9155933"><ele>486.6</ele><time>2015-04-30T12:35:04.0000000+00:00</time></trkpt><trkpt lat="34.7943819" lon="32.9156049"><ele>486.2</ele><time>2015-04-30T12:35:05.0000000+00:00</time></trkpt><trkpt lat="34.7943104" lon="32.9156175"><ele>486.0</ele><time>2015-04-30T12:35:06.0000000+00:00</time></trkpt><trkpt lat="34.7942484" lon="32.9156344"><ele>485.9</ele><time>2015-04-30T12:35:07.0000000+00:00</time></trkpt><trkpt lat="34.794181" lon="32.9156505"><ele>485.8</ele><time>2015-04-30T12:35:08.0000000+00:00</time></trkpt><trkpt lat="34.7941199" lon="32.9156651"><ele>485.8</ele><time>2015-04-30T12:35:09.0000000+00:00</time></trkpt><trkpt lat="34.794056" lon="32.915679"><ele>486.3</ele><time>2015-04-30T12:35:10.0000000+00:00</time></trkpt><trkpt lat="34.7939949" lon="32.9156964"><ele>486.5</ele><time>2015-04-30T12:35:11.0000000+00:00</time></trkpt><trkpt lat="34.7939267" lon="32.9157086"><ele>486.6</ele><time>2015-04-30T12:35:12.0000000+00:00</time></trkpt><trkpt lat="34.7938604" lon="32.9157255"><ele>486.7</ele><time>2015-04-30T12:35:13.0000000+00:00</time></trkpt><trkpt lat="34.7937945" lon="32.9157402"><ele>487.2</ele><time>2015-04-30T12:35:14.0000000+00:00</time></trkpt><trkpt lat="34.793733" lon="32.9157495"><ele>487.5</ele><time>2015-04-30T12:35:15.0000000+00:00</time></trkpt><trkpt lat="34.7936691" lon="32.915764"><ele>487.1</ele><time>2015-04-30T12:35:16.0000000+00:00</time></trkpt><trkpt lat="34.7936032" lon="32.9157736"><ele>486.9</ele><time>2015-04-30T12:35:17.0000000+00:00</time></trkpt><trkpt lat="34.7935367" lon="32.915782"><ele>486.9</ele><time>2015-04-30T12:35:18.0000000+00:00</time></trkpt><trkpt lat="34.7934746" lon="32.9157949"><ele>487.3</ele><time>2015-04-30T12:35:19.0000000+00:00</time></trkpt><trkpt lat="34.7934083" lon="32.9158138"><ele>487.5</ele><time>2015-04-30T12:35:20.0000000+00:00</time></trkpt><trkpt lat="34.7933435" lon="32.9158255"><ele>488.2</ele><time>2015-04-30T12:35:21.0000000+00:00</time></trkpt><trkpt lat="34.7932815" lon="32.9158388"><ele>488.5</ele><time>2015-04-30T12:35:22.0000000+00:00</time></trkpt><trkpt lat="34.7932192" lon="32.9158502"><ele>488.6</ele><time>2015-04-30T12:35:23.0000000+00:00</time></trkpt><trkpt lat="34.7931561" lon="32.9158673"><ele>488.7</ele><time>2015-04-30T12:35:24.0000000+00:00</time></trkpt><trkpt lat="34.7930947" lon="32.9158716"><ele>487.7</ele><time>2015-04-30T12:35:25.0000000+00:00</time></trkpt><trkpt lat="34.7930324" lon="32.9158746"><ele>487.2</ele><time>2015-04-30T12:35:26.0000000+00:00</time></trkpt><trkpt lat="34.792973" lon="32.9158753"><ele>487.0</ele><time>2015-04-30T12:35:27.0000000+00:00</time></trkpt><trkpt lat="34.7929112" lon="32.9158818"><ele>486.9</ele><time>2015-04-30T12:35:28.0000000+00:00</time></trkpt><trkpt lat="34.792843" lon="32.9158893"><ele>486.3</ele><time>2015-04-30T12:35:29.0000000+00:00</time></trkpt><trkpt lat="34.7927778" lon="32.9158931"><ele>486.0</ele><time>2015-04-30T12:35:30.0000000+00:00</time></trkpt><trkpt lat="34.792715" lon="32.9158965"><ele>485.4</ele><time>2015-04-30T12:35:31.0000000+00:00</time></trkpt><trkpt lat="34.7926516" lon="32.9159001"><ele>485.1</ele><time>2015-04-30T12:35:32.0000000+00:00</time></trkpt><trkpt lat="34.7925823" lon="32.9159029"><ele>484.4</ele><time>2015-04-30T12:35:33.0000000+00:00</time></trkpt><trkpt lat="34.7925247" lon="32.9159134"><ele>483.6</ele><time>2015-04-30T12:35:34.0000000+00:00</time></trkpt><trkpt lat="34.7924633" lon="32.9159227"><ele>483.2</ele><time>2015-04-30T12:35:35.0000000+00:00</time></trkpt><trkpt lat="34.7924" lon="32.9159221"><ele>483.0</ele><time>2015-04-30T12:35:36.0000000+00:00</time></trkpt><trkpt lat="34.7923364" lon="32.915927"><ele>482.4</ele><time>2015-04-30T12:35:37.0000000+00:00</time></trkpt><trkpt lat="34.7922724" lon="32.9159273"><ele>482.1</ele><time>2015-04-30T12:35:38.0000000+00:00</time></trkpt><trkpt lat="34.7922099" lon="32.9159361"><ele>481.9</ele><time>2015-04-30T12:35:39.0000000+00:00</time></trkpt><trkpt lat="34.792145" lon="32.9159444"><ele>481.3</ele><time>2015-04-30T12:35:40.0000000+00:00</time></trkpt><trkpt lat="34.7920713" lon="32.9159533"><ele>481.1</ele><time>2015-04-30T12:35:41.0000000+00:00</time></trkpt><trkpt lat="34.7920043" lon="32.9159542"><ele>480.9</ele><time>2015-04-30T12:35:42.0000000+00:00</time></trkpt><trkpt lat="34.7919306" lon="32.9159574"><ele>480.3</ele><time>2015-04-30T12:35:43.0000000+00:00</time></trkpt><trkpt lat="34.7918512" lon="32.9159628"><ele>480.1</ele><time>2015-04-30T12:35:44.0000000+00:00</time></trkpt><trkpt lat="34.7917696" lon="32.9159713"><ele>479.9</ele><time>2015-04-30T12:35:45.0000000+00:00</time></trkpt><trkpt lat="34.7916938" lon="32.9159737"><ele>479.8</ele><time>2015-04-30T12:35:46.0000000+00:00</time></trkpt><trkpt lat="34.7916239" lon="32.9159796"><ele>479.8</ele><time>2015-04-30T12:35:47.0000000+00:00</time></trkpt><trkpt lat="34.7915435" lon="32.9159799"><ele>479.3</ele><time>2015-04-30T12:35:48.0000000+00:00</time></trkpt><trkpt lat="34.7914675" lon="32.9159835"><ele>478.5</ele><time>2015-04-30T12:35:49.0000000+00:00</time></trkpt><trkpt lat="34.7913922" lon="32.9159853"><ele>478.1</ele><time>2015-04-30T12:35:50.0000000+00:00</time></trkpt><trkpt lat="34.7913079" lon="32.9159942"><ele>477.5</ele><time>2015-04-30T12:35:51.0000000+00:00</time></trkpt><trkpt lat="34.7912302" lon="32.9160013"><ele>477.1</ele><time>2015-04-30T12:35:52.0000000+00:00</time></trkpt><trkpt lat="34.7911478" lon="32.9160042"><ele>476.9</ele><time>2015-04-30T12:35:53.0000000+00:00</time></trkpt><trkpt lat="34.7910692" lon="32.9160088"><ele>476.4</ele><time>2015-04-30T12:35:54.0000000+00:00</time></trkpt><trkpt lat="34.7909862" lon="32.9160122"><ele>475.6</ele><time>2015-04-30T12:35:55.0000000+00:00</time></trkpt><trkpt lat="34.7909082" lon="32.9160121"><ele>474.7</ele><time>2015-04-30T12:35:56.0000000+00:00</time></trkpt><trkpt lat="34.7908169" lon="32.9160164"><ele>474.2</ele><time>2015-04-30T12:35:57.0000000+00:00</time></trkpt><trkpt lat="34.7907274" lon="32.916026"><ele>473.5</ele><time>2015-04-30T12:35:58.0000000+00:00</time></trkpt><trkpt lat="34.7906413" lon="32.9160317"><ele>473.1</ele><time>2015-04-30T12:35:59.0000000+00:00</time></trkpt><trkpt lat="34.7905414" lon="32.9160389"><ele>472.4</ele><time>2015-04-30T12:36:00.0000000+00:00</time></trkpt><trkpt lat="34.7904459" lon="32.9160494"><ele>471.6</ele><time>2015-04-30T12:36:01.0000000+00:00</time></trkpt><trkpt lat="34.790351" lon="32.9160578"><ele>470.7</ele><time>2015-04-30T12:36:02.0000000+00:00</time></trkpt><trkpt lat="34.7902549" lon="32.9160623"><ele>470.2</ele><time>2015-04-30T12:36:03.0000000+00:00</time></trkpt><trkpt lat="34.790149" lon="32.9160675"><ele>469.0</ele><time>2015-04-30T12:36:04.0000000+00:00</time></trkpt><trkpt lat="34.7900484" lon="32.9160712"><ele>468.4</ele><time>2015-04-30T12:36:05.0000000+00:00</time></trkpt><trkpt lat="34.7899496" lon="32.9160805"><ele>468.1</ele><time>2015-04-30T12:36:06.0000000+00:00</time></trkpt><trkpt lat="34.7898508" lon="32.9160844"><ele>467.4</ele><time>2015-04-30T12:36:07.0000000+00:00</time></trkpt><trkpt lat="34.7897488" lon="32.9160878"><ele>467.1</ele><time>2015-04-30T12:36:08.0000000+00:00</time></trkpt><trkpt lat="34.7896578" lon="32.9160744"><ele>466.9</ele><time>2015-04-30T12:36:09.0000000+00:00</time></trkpt><trkpt lat="34.789565" lon="32.9160603"><ele>466.8</ele><time>2015-04-30T12:36:10.0000000+00:00</time></trkpt><trkpt lat="34.7894766" lon="32.9160383"><ele>466.8</ele><time>2015-04-30T12:36:11.0000000+00:00</time></trkpt><trkpt lat="34.7893842" lon="32.9160134"><ele>466.8</ele><time>2015-04-30T12:36:12.0000000+00:00</time></trkpt><trkpt lat="34.7892974" lon="32.9159855"><ele>466.8</ele><time>2015-04-30T12:36:13.0000000+00:00</time></trkpt><trkpt lat="34.7892113" lon="32.9159514"><ele>466.8</ele><time>2015-04-30T12:36:14.0000000+00:00</time></trkpt><trkpt lat="34.789134" lon="32.9159114"><ele>466.3</ele><time>2015-04-30T12:36:15.0000000+00:00</time></trkpt><trkpt lat="34.789054" lon="32.9158694"><ele>466.0</ele><time>2015-04-30T12:36:16.0000000+00:00</time></trkpt><trkpt lat="34.7889746" lon="32.9158189"><ele>465.9</ele><time>2015-04-30T12:36:17.0000000+00:00</time></trkpt><trkpt lat="34.7889039" lon="32.9157757"><ele>465.8</ele><time>2015-04-30T12:36:18.0000000+00:00</time></trkpt><trkpt lat="34.7888334" lon="32.9157202"><ele>465.3</ele><time>2015-04-30T12:36:19.0000000+00:00</time></trkpt><trkpt lat="34.7887649" lon="32.9156649"><ele>465.0</ele><time>2015-04-30T12:36:20.0000000+00:00</time></trkpt><trkpt lat="34.7886928" lon="32.9156142"><ele>464.4</ele><time>2015-04-30T12:36:21.0000000+00:00</time></trkpt><trkpt lat="34.7886245" lon="32.915562"><ele>463.6</ele><time>2015-04-30T12:36:22.0000000+00:00</time></trkpt><trkpt lat="34.7885605" lon="32.915515"><ele>463.2</ele><time>2015-04-30T12:36:23.0000000+00:00</time></trkpt><trkpt lat="34.7885018" lon="32.9154679"><ele>463.0</ele><time>2015-04-30T12:36:24.0000000+00:00</time></trkpt><trkpt lat="34.7884425" lon="32.9154246"><ele>463.4</ele><time>2015-04-30T12:36:25.0000000+00:00</time></trkpt><trkpt lat="34.7883822" lon="32.9153822"><ele>463.6</ele><time>2015-04-30T12:36:26.0000000+00:00</time></trkpt><trkpt lat="34.7883212" lon="32.9153491"><ele>463.7</ele><time>2015-04-30T12:36:27.0000000+00:00</time></trkpt><trkpt lat="34.7882557" lon="32.915312"><ele>463.7</ele><time>2015-04-30T12:36:28.0000000+00:00</time></trkpt><trkpt lat="34.7881972" lon="32.9152791"><ele>463.7</ele><time>2015-04-30T12:36:29.0000000+00:00</time></trkpt><trkpt lat="34.7881385" lon="32.9152507"><ele>463.8</ele><time>2015-04-30T12:36:30.0000000+00:00</time></trkpt><trkpt lat="34.7880799" lon="32.9152152"><ele>464.3</ele><time>2015-04-30T12:36:31.0000000+00:00</time></trkpt><trkpt lat="34.7880119" lon="32.9151869"><ele>464.5</ele><time>2015-04-30T12:36:32.0000000+00:00</time></trkpt><trkpt lat="34.7879486" lon="32.9151622"><ele>465.1</ele><time>2015-04-30T12:36:33.0000000+00:00</time></trkpt><trkpt lat="34.787876" lon="32.9151453"><ele>465.0</ele><time>2015-04-30T12:36:34.0000000+00:00</time></trkpt><trkpt lat="34.787814" lon="32.9151373"><ele>465.4</ele><time>2015-04-30T12:36:35.0000000+00:00</time></trkpt><trkpt lat="34.7877425" lon="32.9151276"><ele>465.6</ele><time>2015-04-30T12:36:36.0000000+00:00</time></trkpt><trkpt lat="34.7876675" lon="32.9151285"><ele>465.7</ele><time>2015-04-30T12:36:37.0000000+00:00</time></trkpt><trkpt lat="34.7875949" lon="32.9151339"><ele>465.7</ele><time>2015-04-30T12:36:38.0000000+00:00</time></trkpt><trkpt lat="34.7875251" lon="32.9151436"><ele>465.7</ele><time>2015-04-30T12:36:39.0000000+00:00</time></trkpt><trkpt lat="34.787449" lon="32.9151639"><ele>465.8</ele><time>2015-04-30T12:36:40.0000000+00:00</time></trkpt><trkpt lat="34.7873742" lon="32.9151898"><ele>465.3</ele><time>2015-04-30T12:36:41.0000000+00:00</time></trkpt><trkpt lat="34.7873076" lon="32.9152113"><ele>465.0</ele><time>2015-04-30T12:36:42.0000000+00:00</time></trkpt><trkpt lat="34.7872373" lon="32.9152445"><ele>464.9</ele><time>2015-04-30T12:36:43.0000000+00:00</time></trkpt><trkpt lat="34.7871687" lon="32.9152802"><ele>464.8</ele><time>2015-04-30T12:36:44.0000000+00:00</time></trkpt><trkpt lat="34.7870973" lon="32.9153197"><ele>464.8</ele><time>2015-04-30T12:36:45.0000000+00:00</time></trkpt><trkpt lat="34.7870261" lon="32.9153568"><ele>464.3</ele><time>2015-04-30T12:36:46.0000000+00:00</time></trkpt><trkpt lat="34.7869569" lon="32.9153961"><ele>464.5</ele><time>2015-04-30T12:36:47.0000000+00:00</time></trkpt><trkpt lat="34.7868812" lon="32.9154362"><ele>464.6</ele><time>2015-04-30T12:36:48.0000000+00:00</time></trkpt><trkpt lat="34.7868041" lon="32.9154729"><ele>464.2</ele><time>2015-04-30T12:36:49.0000000+00:00</time></trkpt><trkpt lat="34.7867299" lon="32.9155186"><ele>464.0</ele><time>2015-04-30T12:36:50.0000000+00:00</time></trkpt><trkpt lat="34.786657" lon="32.9155617"><ele>463.9</ele><time>2015-04-30T12:36:51.0000000+00:00</time></trkpt><trkpt lat="34.7865807" lon="32.9156076"><ele>463.8</ele><time>2015-04-30T12:36:52.0000000+00:00</time></trkpt><trkpt lat="34.7865088" lon="32.9156497"><ele>463.8</ele><time>2015-04-30T12:36:53.0000000+00:00</time></trkpt><trkpt lat="34.7864405" lon="32.9156932"><ele>463.8</ele><time>2015-04-30T12:36:54.0000000+00:00</time></trkpt><trkpt lat="34.7863746" lon="32.9157323"><ele>463.8</ele><time>2015-04-30T12:36:55.0000000+00:00</time></trkpt><trkpt lat="34.7863059" lon="32.9157726"><ele>463.8</ele><time>2015-04-30T12:36:56.0000000+00:00</time></trkpt><trkpt lat="34.7862393" lon="32.9158102"><ele>464.3</ele><time>2015-04-30T12:36:57.0000000+00:00</time></trkpt><trkpt lat="34.7861749" lon="32.9158459"><ele>464.5</ele><time>2015-04-30T12:36:58.0000000+00:00</time></trkpt><trkpt lat="34.7861134" lon="32.9158814"><ele>464.6</ele><time>2015-04-30T12:36:59.0000000+00:00</time></trkpt><trkpt lat="34.7860556" lon="32.9159191"><ele>465.2</ele><time>2015-04-30T12:37:00.0000000+00:00</time></trkpt><trkpt lat="34.785993" lon="32.9159544"><ele>465.0</ele><time>2015-04-30T12:37:01.0000000+00:00</time></trkpt><trkpt lat="34.785932" lon="32.915976"><ele>464.9</ele><time>2015-04-30T12:37:02.0000000+00:00</time></trkpt><trkpt lat="34.7858754" lon="32.9159956"><ele>465.3</ele><time>2015-04-30T12:37:03.0000000+00:00</time></trkpt><trkpt lat="34.785815" lon="32.9160185"><ele>465.5</ele><time>2015-04-30T12:37:04.0000000+00:00</time></trkpt><trkpt lat="34.7857569" lon="32.9160375"><ele>465.7</ele><time>2015-04-30T12:37:05.0000000+00:00</time></trkpt><trkpt lat="34.7856984" lon="32.9160503"><ele>465.7</ele><time>2015-04-30T12:37:06.0000000+00:00</time></trkpt><trkpt lat="34.7856446" lon="32.916069"><ele>465.7</ele><time>2015-04-30T12:37:07.0000000+00:00</time></trkpt><trkpt lat="34.785587" lon="32.916083"><ele>465.8</ele><time>2015-04-30T12:37:08.0000000+00:00</time></trkpt><trkpt lat="34.7855269" lon="32.9160897"><ele>465.3</ele><time>2015-04-30T12:37:09.0000000+00:00</time></trkpt><trkpt lat="34.7854698" lon="32.9160936"><ele>465.0</ele><time>2015-04-30T12:37:10.0000000+00:00</time></trkpt><trkpt lat="34.7854219" lon="32.9161032"><ele>464.9</ele><time>2015-04-30T12:37:11.0000000+00:00</time></trkpt><trkpt lat="34.7853704" lon="32.9161062"><ele>464.8</ele><time>2015-04-30T12:37:12.0000000+00:00</time></trkpt><trkpt lat="34.7853197" lon="32.9161059"><ele>464.8</ele><time>2015-04-30T12:37:13.0000000+00:00</time></trkpt><trkpt lat="34.7852739" lon="32.9161099"><ele>464.8</ele><time>2015-04-30T12:37:14.0000000+00:00</time></trkpt><trkpt lat="34.7851915" lon="32.916095"><ele>464.8</ele><time>2015-04-30T12:37:16.0000000+00:00</time></trkpt><trkpt lat="34.7851147" lon="32.9160872"><ele>464.8</ele><time>2015-04-30T12:37:18.0000000+00:00</time></trkpt><trkpt lat="34.7850382" lon="32.9160716"><ele>464.8</ele><time>2015-04-30T12:37:20.0000000+00:00</time></trkpt><trkpt lat="34.7849649" lon="32.9160651"><ele>464.8</ele><time>2015-04-30T12:37:22.0000000+00:00</time></trkpt><trkpt lat="34.7848882" lon="32.9160475"><ele>464.3</ele><time>2015-04-30T12:37:24.0000000+00:00</time></trkpt><trkpt lat="34.7848172" lon="32.9160242"><ele>464.4</ele><time>2015-04-30T12:37:26.0000000+00:00</time></trkpt><trkpt lat="34.7847417" lon="32.916005"><ele>464.2</ele><time>2015-04-30T12:37:28.0000000+00:00</time></trkpt><trkpt lat="34.7846613" lon="32.9159859"><ele>463.1</ele><time>2015-04-30T12:37:30.0000000+00:00</time></trkpt><trkpt lat="34.7845697" lon="32.9159639"><ele>463.6</ele><time>2015-04-30T12:37:32.0000000+00:00</time></trkpt><trkpt lat="34.7845193" lon="32.9159505"><ele>463.7</ele><time>2015-04-30T12:37:33.0000000+00:00</time></trkpt><trkpt lat="34.7844332" lon="32.9159232"><ele>464.5</ele><time>2015-04-30T12:37:35.0000000+00:00</time></trkpt><trkpt lat="34.7843867" lon="32.9159094"><ele>464.6</ele><time>2015-04-30T12:37:36.0000000+00:00</time></trkpt><trkpt lat="34.7843381" lon="32.9158937"><ele>464.7</ele><time>2015-04-30T12:37:37.0000000+00:00</time></trkpt><trkpt lat="34.7842606" lon="32.9158673"><ele>465.0</ele><time>2015-04-30T12:37:39.0000000+00:00</time></trkpt><trkpt lat="34.7841829" lon="32.9158378"><ele>464.8</ele><time>2015-04-30T12:37:41.0000000+00:00</time></trkpt><trkpt lat="34.7841347" lon="32.9158321"><ele>464.0</ele><time>2015-04-30T12:37:43.0000000+00:00</time></trkpt><trkpt lat="34.7840904" lon="32.9158179"><ele>461.9</ele><time>2015-04-30T12:38:05.0000000+00:00</time></trkpt><trkpt lat="34.7840479" lon="32.9157995"><ele>461.8</ele><time>2015-04-30T12:38:08.0000000+00:00</time></trkpt><trkpt lat="34.7839849" lon="32.9157774"><ele>461.8</ele><time>2015-04-30T12:38:11.0000000+00:00</time></trkpt><trkpt lat="34.7839381" lon="32.9157664"><ele>461.8</ele><time>2015-04-30T12:38:13.0000000+00:00</time></trkpt><trkpt lat="34.7838882" lon="32.9157562"><ele>461.0</ele><time>2015-04-30T12:38:15.0000000+00:00</time></trkpt><trkpt lat="34.7838221" lon="32.9157383"><ele>460.8</ele><time>2015-04-30T12:38:17.0000000+00:00</time></trkpt><trkpt lat="34.7837461" lon="32.9157175"><ele>460.0</ele><time>2015-04-30T12:38:19.0000000+00:00</time></trkpt><trkpt lat="34.7836683" lon="32.9156955"><ele>459.8</ele><time>2015-04-30T12:38:21.0000000+00:00</time></trkpt><trkpt lat="34.7835983" lon="32.9156723"><ele>459.3</ele><time>2015-04-30T12:38:23.0000000+00:00</time></trkpt><trkpt lat="34.7835306" lon="32.9156533"><ele>458.9</ele><time>2015-04-30T12:38:25.0000000+00:00</time></trkpt><trkpt lat="34.7834814" lon="32.9156382"><ele>458.8</ele><time>2015-04-30T12:38:27.0000000+00:00</time></trkpt><trkpt lat="34.7834181" lon="32.9156239"><ele>458.0</ele><time>2015-04-30T12:38:29.0000000+00:00</time></trkpt><trkpt lat="34.7833701" lon="32.9156136"><ele>457.9</ele><time>2015-04-30T12:38:30.0000000+00:00</time></trkpt><trkpt lat="34.7833145" lon="32.9155999"><ele>457.8</ele><time>2015-04-30T12:38:31.0000000+00:00</time></trkpt><trkpt lat="34.7832644" lon="32.9155842"><ele>457.3</ele><time>2015-04-30T12:38:32.0000000+00:00</time></trkpt><trkpt lat="34.7832028" lon="32.9155662"><ele>457.0</ele><time>2015-04-30T12:38:33.0000000+00:00</time></trkpt><trkpt lat="34.7831437" lon="32.9155466"><ele>457.4</ele><time>2015-04-30T12:38:34.0000000+00:00</time></trkpt><trkpt lat="34.7830816" lon="32.9155252"><ele>457.1</ele><time>2015-04-30T12:38:35.0000000+00:00</time></trkpt><trkpt lat="34.7830169" lon="32.9155078"><ele>456.9</ele><time>2015-04-30T12:38:36.0000000+00:00</time></trkpt><trkpt lat="34.7829515" lon="32.9154897"><ele>456.3</ele><time>2015-04-30T12:38:37.0000000+00:00</time></trkpt><trkpt lat="34.7828839" lon="32.9154702"><ele>456.1</ele><time>2015-04-30T12:38:38.0000000+00:00</time></trkpt><trkpt lat="34.7828094" lon="32.9154505"><ele>455.9</ele><time>2015-04-30T12:38:39.0000000+00:00</time></trkpt><trkpt lat="34.7827326" lon="32.9154317"><ele>455.3</ele><time>2015-04-30T12:38:40.0000000+00:00</time></trkpt><trkpt lat="34.7826513" lon="32.915416"><ele>455.1</ele><time>2015-04-30T12:38:41.0000000+00:00</time></trkpt><trkpt lat="34.7825695" lon="32.915401"><ele>454.4</ele><time>2015-04-30T12:38:42.0000000+00:00</time></trkpt><trkpt lat="34.7824872" lon="32.9153891"><ele>453.6</ele><time>2015-04-30T12:38:43.0000000+00:00</time></trkpt><trkpt lat="34.782402" lon="32.915377"><ele>453.2</ele><time>2015-04-30T12:38:44.0000000+00:00</time></trkpt><trkpt lat="34.7823085" lon="32.9153681"><ele>452.0</ele><time>2015-04-30T12:38:45.0000000+00:00</time></trkpt><trkpt lat="34.7822192" lon="32.9153623"><ele>451.4</ele><time>2015-04-30T12:38:46.0000000+00:00</time></trkpt><trkpt lat="34.782129" lon="32.915366"><ele>450.6</ele><time>2015-04-30T12:38:47.0000000+00:00</time></trkpt><trkpt lat="34.782033" lon="32.9153691"><ele>449.7</ele><time>2015-04-30T12:38:48.0000000+00:00</time></trkpt><trkpt lat="34.7819366" lon="32.9153714"><ele>448.7</ele><time>2015-04-30T12:38:49.0000000+00:00</time></trkpt><trkpt lat="34.7818379" lon="32.9153797"><ele>448.2</ele><time>2015-04-30T12:38:50.0000000+00:00</time></trkpt><trkpt lat="34.7817467" lon="32.9153883"><ele>447.5</ele><time>2015-04-30T12:38:51.0000000+00:00</time></trkpt><trkpt lat="34.7816424" lon="32.9154017"><ele>447.1</ele><time>2015-04-30T12:38:52.0000000+00:00</time></trkpt><trkpt lat="34.7815456" lon="32.9154059"><ele>445.9</ele><time>2015-04-30T12:38:53.0000000+00:00</time></trkpt><trkpt lat="34.7814449" lon="32.9154086"><ele>445.4</ele><time>2015-04-30T12:38:54.0000000+00:00</time></trkpt><trkpt lat="34.781337" lon="32.9154182"><ele>444.6</ele><time>2015-04-30T12:38:55.0000000+00:00</time></trkpt><trkpt lat="34.7812289" lon="32.9154316"><ele>444.7</ele><time>2015-04-30T12:38:56.0000000+00:00</time></trkpt><trkpt lat="34.7811173" lon="32.9154473"><ele>444.2</ele><time>2015-04-30T12:38:57.0000000+00:00</time></trkpt><trkpt lat="34.7810186" lon="32.9154538"><ele>444.0</ele><time>2015-04-30T12:38:58.0000000+00:00</time></trkpt><trkpt lat="34.780913" lon="32.9154696"><ele>443.4</ele><time>2015-04-30T12:38:59.0000000+00:00</time></trkpt><trkpt lat="34.7808089" lon="32.9154809"><ele>442.6</ele><time>2015-04-30T12:39:00.0000000+00:00</time></trkpt><trkpt lat="34.7806998" lon="32.9154861"><ele>442.7</ele><time>2015-04-30T12:39:01.0000000+00:00</time></trkpt><trkpt lat="34.7805922" lon="32.9154993"><ele>442.2</ele><time>2015-04-30T12:39:02.0000000+00:00</time></trkpt><trkpt lat="34.7804788" lon="32.9155168"><ele>442.0</ele><time>2015-04-30T12:39:03.0000000+00:00</time></trkpt><trkpt lat="34.7803554" lon="32.9155223"><ele>440.9</ele><time>2015-04-30T12:39:04.0000000+00:00</time></trkpt><trkpt lat="34.7802366" lon="32.915539"><ele>440.3</ele><time>2015-04-30T12:39:05.0000000+00:00</time></trkpt><trkpt lat="34.7801266" lon="32.9155473"><ele>440.0</ele><time>2015-04-30T12:39:06.0000000+00:00</time></trkpt><trkpt lat="34.7800113" lon="32.9155662"><ele>439.4</ele><time>2015-04-30T12:39:07.0000000+00:00</time></trkpt><trkpt lat="34.7798945" lon="32.9155715"><ele>439.6</ele><time>2015-04-30T12:39:08.0000000+00:00</time></trkpt><trkpt lat="34.7797865" lon="32.9155747"><ele>439.7</ele><time>2015-04-30T12:39:09.0000000+00:00</time></trkpt><trkpt lat="34.7797086" lon="32.9155666"><ele>439.7</ele><time>2015-04-30T12:39:10.0000000+00:00</time></trkpt><trkpt lat="34.7796427" lon="32.9155546"><ele>439.2</ele><time>2015-04-30T12:39:11.0000000+00:00</time></trkpt><trkpt lat="34.7795625" lon="32.9155516"><ele>438.0</ele><time>2015-04-30T12:39:12.0000000+00:00</time></trkpt><trkpt lat="34.7794984" lon="32.9155282"><ele>437.4</ele><time>2015-04-30T12:39:13.0000000+00:00</time></trkpt><trkpt lat="34.7794396" lon="32.9154999"><ele>438.1</ele><time>2015-04-30T12:39:14.0000000+00:00</time></trkpt><trkpt lat="34.7793818" lon="32.9154679"><ele>438.4</ele><time>2015-04-30T12:39:15.0000000+00:00</time></trkpt><trkpt lat="34.7793349" lon="32.915428"><ele>438.6</ele><time>2015-04-30T12:39:16.0000000+00:00</time></trkpt><trkpt lat="34.7792871" lon="32.9153827"><ele>437.7</ele><time>2015-04-30T12:39:17.0000000+00:00</time></trkpt><trkpt lat="34.7792411" lon="32.9153242"><ele>437.7</ele><time>2015-04-30T12:39:18.0000000+00:00</time></trkpt><trkpt lat="34.7791931" lon="32.91528"><ele>436.7</ele><time>2015-04-30T12:39:19.0000000+00:00</time></trkpt><trkpt lat="34.7791454" lon="32.9152324"><ele>436.3</ele><time>2015-04-30T12:39:20.0000000+00:00</time></trkpt><trkpt lat="34.7791025" lon="32.9151719"><ele>435.5</ele><time>2015-04-30T12:39:21.0000000+00:00</time></trkpt><trkpt lat="34.7790575" lon="32.9151166"><ele>435.1</ele><time>2015-04-30T12:39:22.0000000+00:00</time></trkpt><trkpt lat="34.7790107" lon="32.9150639"><ele>434.5</ele><time>2015-04-30T12:39:23.0000000+00:00</time></trkpt><trkpt lat="34.778971" lon="32.9150093"><ele>434.1</ele><time>2015-04-30T12:39:24.0000000+00:00</time></trkpt><trkpt lat="34.7789299" lon="32.9149629"><ele>433.4</ele><time>2015-04-30T12:39:25.0000000+00:00</time></trkpt><trkpt lat="34.7788844" lon="32.9149139"><ele>433.1</ele><time>2015-04-30T12:39:26.0000000+00:00</time></trkpt><trkpt lat="34.7788305" lon="32.9148704"><ele>432.9</ele><time>2015-04-30T12:39:27.0000000+00:00</time></trkpt><trkpt lat="34.7787774" lon="32.9148165"><ele>432.3</ele><time>2015-04-30T12:39:28.0000000+00:00</time></trkpt><trkpt lat="34.7787388" lon="32.9147702"><ele>432.6</ele><time>2015-04-30T12:39:29.0000000+00:00</time></trkpt><trkpt lat="34.7786946" lon="32.9147238"><ele>432.7</ele><time>2015-04-30T12:39:30.0000000+00:00</time></trkpt><trkpt lat="34.7786212" lon="32.9146984"><ele>433.2</ele><time>2015-04-30T12:39:31.0000000+00:00</time></trkpt><trkpt lat="34.7785558" lon="32.9146597"><ele>433.0</ele><time>2015-04-30T12:39:32.0000000+00:00</time></trkpt><trkpt lat="34.7784876" lon="32.9146384"><ele>432.9</ele><time>2015-04-30T12:39:33.0000000+00:00</time></trkpt><trkpt lat="34.7784171" lon="32.9146318"><ele>432.3</ele><time>2015-04-30T12:39:34.0000000+00:00</time></trkpt><trkpt lat="34.778337" lon="32.9146273"><ele>431.5</ele><time>2015-04-30T12:39:35.0000000+00:00</time></trkpt><trkpt lat="34.7782501" lon="32.9146304"><ele>431.2</ele><time>2015-04-30T12:39:36.0000000+00:00</time></trkpt><trkpt lat="34.7781673" lon="32.9146477"><ele>431.0</ele><time>2015-04-30T12:39:37.0000000+00:00</time></trkpt><trkpt lat="34.7780892" lon="32.9146766"><ele>430.9</ele><time>2015-04-30T12:39:38.0000000+00:00</time></trkpt><trkpt lat="34.7779963" lon="32.9147229"><ele>429.3</ele><time>2015-04-30T12:39:39.0000000+00:00</time></trkpt><trkpt lat="34.7779052" lon="32.9147528"><ele>429.0</ele><time>2015-04-30T12:39:40.0000000+00:00</time></trkpt><trkpt lat="34.777813" lon="32.9147903"><ele>428.9</ele><time>2015-04-30T12:39:41.0000000+00:00</time></trkpt><trkpt lat="34.7777197" lon="32.9148373"><ele>428.3</ele><time>2015-04-30T12:39:42.0000000+00:00</time></trkpt><trkpt lat="34.7776319" lon="32.9148819"><ele>427.5</ele><time>2015-04-30T12:39:43.0000000+00:00</time></trkpt><trkpt lat="34.7775329" lon="32.9149231"><ele>427.2</ele><time>2015-04-30T12:39:44.0000000+00:00</time></trkpt><trkpt lat="34.7774347" lon="32.9149654"><ele>427.0</ele><time>2015-04-30T12:39:45.0000000+00:00</time></trkpt><trkpt lat="34.7773355" lon="32.9150069"><ele>427.4</ele><time>2015-04-30T12:39:46.0000000+00:00</time></trkpt><trkpt lat="34.7772336" lon="32.9150372"><ele>428.1</ele><time>2015-04-30T12:39:47.0000000+00:00</time></trkpt><trkpt lat="34.7771238" lon="32.9150619"><ele>427.4</ele><time>2015-04-30T12:39:48.0000000+00:00</time></trkpt><trkpt lat="34.777016" lon="32.9150782"><ele>426.6</ele><time>2015-04-30T12:39:49.0000000+00:00</time></trkpt><trkpt lat="34.7769012" lon="32.9150982"><ele>426.2</ele><time>2015-04-30T12:39:50.0000000+00:00</time></trkpt><trkpt lat="34.7767888" lon="32.9151179"><ele>425.0</ele><time>2015-04-30T12:39:51.0000000+00:00</time></trkpt><trkpt lat="34.7766637" lon="32.9151482"><ele>423.9</ele><time>2015-04-30T12:39:52.0000000+00:00</time></trkpt><trkpt lat="34.7765476" lon="32.9151704"><ele>423.8</ele><time>2015-04-30T12:39:53.0000000+00:00</time></trkpt><trkpt lat="34.7764251" lon="32.9151951"><ele>423.3</ele><time>2015-04-30T12:39:54.0000000+00:00</time></trkpt><trkpt lat="34.7763127" lon="32.9152125"><ele>422.0</ele><time>2015-04-30T12:39:55.0000000+00:00</time></trkpt><trkpt lat="34.7761894" lon="32.9152221"><ele>420.9</ele><time>2015-04-30T12:39:56.0000000+00:00</time></trkpt><trkpt lat="34.7760664" lon="32.9152465"><ele>419.3</ele><time>2015-04-30T12:39:57.0000000+00:00</time></trkpt><trkpt lat="34.7759593" lon="32.9152708"><ele>418.0</ele><time>2015-04-30T12:39:58.0000000+00:00</time></trkpt><trkpt lat="34.7758596" lon="32.9152904"><ele>417.4</ele><time>2015-04-30T12:39:59.0000000+00:00</time></trkpt><trkpt lat="34.7757484" lon="32.9153089"><ele>416.6</ele><time>2015-04-30T12:40:00.0000000+00:00</time></trkpt><trkpt lat="34.77565" lon="32.9153108"><ele>415.2</ele><time>2015-04-30T12:40:01.0000000+00:00</time></trkpt><trkpt lat="34.7755597" lon="32.915307"><ele>414.0</ele><time>2015-04-30T12:40:02.0000000+00:00</time></trkpt><trkpt lat="34.7754706" lon="32.9152895"><ele>412.9</ele><time>2015-04-30T12:40:03.0000000+00:00</time></trkpt><trkpt lat="34.775394" lon="32.9152597"><ele>412.3</ele><time>2015-04-30T12:40:04.0000000+00:00</time></trkpt><trkpt lat="34.7753075" lon="32.9152224"><ele>411.0</ele><time>2015-04-30T12:40:05.0000000+00:00</time></trkpt><trkpt lat="34.7752208" lon="32.9151827"><ele>409.4</ele><time>2015-04-30T12:40:06.0000000+00:00</time></trkpt><trkpt lat="34.775135" lon="32.9151263"><ele>409.1</ele><time>2015-04-30T12:40:07.0000000+00:00</time></trkpt><trkpt lat="34.7750531" lon="32.9150581"><ele>408.9</ele><time>2015-04-30T12:40:08.0000000+00:00</time></trkpt><trkpt lat="34.7749658" lon="32.9149991"><ele>408.3</ele><time>2015-04-30T12:40:09.0000000+00:00</time></trkpt><trkpt lat="34.7748792" lon="32.9149322"><ele>408.1</ele><time>2015-04-30T12:40:10.0000000+00:00</time></trkpt><trkpt lat="34.7747984" lon="32.9148688"><ele>407.4</ele><time>2015-04-30T12:40:11.0000000+00:00</time></trkpt><trkpt lat="34.7747041" lon="32.9148128"><ele>407.1</ele><time>2015-04-30T12:40:12.0000000+00:00</time></trkpt><trkpt lat="34.7746143" lon="32.9147591"><ele>406.4</ele><time>2015-04-30T12:40:13.0000000+00:00</time></trkpt><trkpt lat="34.7745137" lon="32.9147148"><ele>405.6</ele><time>2015-04-30T12:40:14.0000000+00:00</time></trkpt><trkpt lat="34.774416" lon="32.9146736"><ele>405.2</ele><time>2015-04-30T12:40:15.0000000+00:00</time></trkpt><trkpt lat="34.7743055" lon="32.9146569"><ele>405.5</ele><time>2015-04-30T12:40:16.0000000+00:00</time></trkpt><trkpt lat="34.7742017" lon="32.9146333"><ele>405.6</ele><time>2015-04-30T12:40:17.0000000+00:00</time></trkpt><trkpt lat="34.7741021" lon="32.9146386"><ele>405.7</ele><time>2015-04-30T12:40:18.0000000+00:00</time></trkpt><trkpt lat="34.7739956" lon="32.9146298"><ele>404.7</ele><time>2015-04-30T12:40:19.0000000+00:00</time></trkpt><trkpt lat="34.7738871" lon="32.9146244"><ele>404.2</ele><time>2015-04-30T12:40:20.0000000+00:00</time></trkpt><trkpt lat="34.7737892" lon="32.914632"><ele>403.5</ele><time>2015-04-30T12:40:21.0000000+00:00</time></trkpt><trkpt lat="34.7736889" lon="32.914636"><ele>403.1</ele><time>2015-04-30T12:40:22.0000000+00:00</time></trkpt><trkpt lat="34.7735769" lon="32.9146562"><ele>400.5</ele><time>2015-04-30T12:40:23.0000000+00:00</time></trkpt><trkpt lat="34.7734664" lon="32.914655"><ele>398.6</ele><time>2015-04-30T12:40:24.0000000+00:00</time></trkpt><trkpt lat="34.7733539" lon="32.9146592"><ele>397.7</ele><time>2015-04-30T12:40:25.0000000+00:00</time></trkpt><trkpt lat="34.7732478" lon="32.9146608"><ele>396.7</ele><time>2015-04-30T12:40:26.0000000+00:00</time></trkpt><trkpt lat="34.7731384" lon="32.9146632"><ele>395.2</ele><time>2015-04-30T12:40:27.0000000+00:00</time></trkpt><trkpt lat="34.7730369" lon="32.9147015"><ele>391.5</ele><time>2015-04-30T12:40:28.0000000+00:00</time></trkpt><trkpt lat="34.7729308" lon="32.9147207"><ele>388.1</ele><time>2015-04-30T12:40:29.0000000+00:00</time></trkpt><trkpt lat="34.7728178" lon="32.9147323"><ele>386.5</ele><time>2015-04-30T12:40:30.0000000+00:00</time></trkpt><trkpt lat="34.7727058" lon="32.9147253"><ele>385.6</ele><time>2015-04-30T12:40:31.0000000+00:00</time></trkpt><trkpt lat="34.7725876" lon="32.914715"><ele>385.7</ele><time>2015-04-30T12:40:32.0000000+00:00</time></trkpt><trkpt lat="34.7724693" lon="32.9147097"><ele>385.7</ele><time>2015-04-30T12:40:33.0000000+00:00</time></trkpt><trkpt lat="34.7723517" lon="32.9147181"><ele>385.7</ele><time>2015-04-30T12:40:34.0000000+00:00</time></trkpt><trkpt lat="34.7722405" lon="32.9147144"><ele>385.8</ele><time>2015-04-30T12:40:35.0000000+00:00</time></trkpt><trkpt lat="34.7721298" lon="32.914715"><ele>385.3</ele><time>2015-04-30T12:40:36.0000000+00:00</time></trkpt><trkpt lat="34.7720225" lon="32.9147216"><ele>384.5</ele><time>2015-04-30T12:40:37.0000000+00:00</time></trkpt><trkpt lat="34.7719241" lon="32.9147297"><ele>383.1</ele><time>2015-04-30T12:40:38.0000000+00:00</time></trkpt><trkpt lat="34.7718265" lon="32.9147465"><ele>382.0</ele><time>2015-04-30T12:40:39.0000000+00:00</time></trkpt><trkpt lat="34.7717176" lon="32.9147728"><ele>380.9</ele><time>2015-04-30T12:40:40.0000000+00:00</time></trkpt><trkpt lat="34.7716287" lon="32.9147822"><ele>381.3</ele><time>2015-04-30T12:40:41.0000000+00:00</time></trkpt><trkpt lat="34.771532" lon="32.914836"><ele>380.5</ele><time>2015-04-30T12:40:42.0000000+00:00</time></trkpt><trkpt lat="34.7714422" lon="32.9148965"><ele>380.7</ele><time>2015-04-30T12:40:43.0000000+00:00</time></trkpt><trkpt lat="34.7713522" lon="32.9149689"><ele>380.2</ele><time>2015-04-30T12:40:44.0000000+00:00</time></trkpt><trkpt lat="34.7712587" lon="32.9150682"><ele>380.0</ele><time>2015-04-30T12:40:45.0000000+00:00</time></trkpt><trkpt lat="34.7711773" lon="32.9151685"><ele>379.4</ele><time>2015-04-30T12:40:46.0000000+00:00</time></trkpt><trkpt lat="34.771102" lon="32.9152629"><ele>379.1</ele><time>2015-04-30T12:40:47.0000000+00:00</time></trkpt><trkpt lat="34.7710134" lon="32.9153779"><ele>378.4</ele><time>2015-04-30T12:40:48.0000000+00:00</time></trkpt><trkpt lat="34.7709334" lon="32.915494"><ele>377.6</ele><time>2015-04-30T12:40:49.0000000+00:00</time></trkpt><trkpt lat="34.7708458" lon="32.9156"><ele>376.7</ele><time>2015-04-30T12:40:50.0000000+00:00</time></trkpt><trkpt lat="34.7707676" lon="32.915707"><ele>375.7</ele><time>2015-04-30T12:40:51.0000000+00:00</time></trkpt><trkpt lat="34.7706779" lon="32.9158101"><ele>374.7</ele><time>2015-04-30T12:40:52.0000000+00:00</time></trkpt><trkpt lat="34.7705736" lon="32.9158961"><ele>373.8</ele><time>2015-04-30T12:40:53.0000000+00:00</time></trkpt><trkpt lat="34.7704607" lon="32.9159733"><ele>373.3</ele><time>2015-04-30T12:40:54.0000000+00:00</time></trkpt><trkpt lat="34.7703546" lon="32.9160431"><ele>372.0</ele><time>2015-04-30T12:40:55.0000000+00:00</time></trkpt><trkpt lat="34.7702441" lon="32.9161144"><ele>371.4</ele><time>2015-04-30T12:40:56.0000000+00:00</time></trkpt><trkpt lat="34.7701394" lon="32.9161843"><ele>371.1</ele><time>2015-04-30T12:40:57.0000000+00:00</time></trkpt><trkpt lat="34.7700434" lon="32.9162502"><ele>370.4</ele><time>2015-04-30T12:40:58.0000000+00:00</time></trkpt><trkpt lat="34.7699485" lon="32.9163105"><ele>370.1</ele><time>2015-04-30T12:40:59.0000000+00:00</time></trkpt><trkpt lat="34.7698482" lon="32.9163783"><ele>369.4</ele><time>2015-04-30T12:41:00.0000000+00:00</time></trkpt><trkpt lat="34.7697585" lon="32.9164352"><ele>368.6</ele><time>2015-04-30T12:41:01.0000000+00:00</time></trkpt><trkpt lat="34.7696662" lon="32.9164947"><ele>367.7</ele><time>2015-04-30T12:41:02.0000000+00:00</time></trkpt><trkpt lat="34.7695714" lon="32.9165602"><ele>366.7</ele><time>2015-04-30T12:41:03.0000000+00:00</time></trkpt><trkpt lat="34.7694747" lon="32.9166308"><ele>365.7</ele><time>2015-04-30T12:41:04.0000000+00:00</time></trkpt><trkpt lat="34.7693826" lon="32.9167036"><ele>364.8</ele><time>2015-04-30T12:41:05.0000000+00:00</time></trkpt><trkpt lat="34.7692894" lon="32.9167861"><ele>363.3</ele><time>2015-04-30T12:41:06.0000000+00:00</time></trkpt><trkpt lat="34.7692067" lon="32.9168826"><ele>362.0</ele><time>2015-04-30T12:41:07.0000000+00:00</time></trkpt><trkpt lat="34.769128" lon="32.9169921"><ele>360.9</ele><time>2015-04-30T12:41:08.0000000+00:00</time></trkpt><trkpt lat="34.7690603" lon="32.9171042"><ele>359.8</ele><time>2015-04-30T12:41:09.0000000+00:00</time></trkpt><trkpt lat="34.7689972" lon="32.9172362"><ele>358.8</ele><time>2015-04-30T12:41:10.0000000+00:00</time></trkpt><trkpt lat="34.768931" lon="32.9173649"><ele>357.8</ele><time>2015-04-30T12:41:11.0000000+00:00</time></trkpt><trkpt lat="34.7688701" lon="32.9174974"><ele>357.3</ele><time>2015-04-30T12:41:12.0000000+00:00</time></trkpt><trkpt lat="34.7688015" lon="32.9176223"><ele>357.0</ele><time>2015-04-30T12:41:13.0000000+00:00</time></trkpt><trkpt lat="34.7687225" lon="32.9177425"><ele>355.9</ele><time>2015-04-30T12:41:14.0000000+00:00</time></trkpt><trkpt lat="34.7686477" lon="32.9178582"><ele>354.8</ele><time>2015-04-30T12:41:15.0000000+00:00</time></trkpt><trkpt lat="34.7685434" lon="32.9179731"><ele>353.8</ele><time>2015-04-30T12:41:16.0000000+00:00</time></trkpt><trkpt lat="34.7684502" lon="32.9180741"><ele>352.8</ele><time>2015-04-30T12:41:17.0000000+00:00</time></trkpt><trkpt lat="34.768355" lon="32.9181659"><ele>351.8</ele><time>2015-04-30T12:41:18.0000000+00:00</time></trkpt><trkpt lat="34.7682586" lon="32.9182604"><ele>351.3</ele><time>2015-04-30T12:41:19.0000000+00:00</time></trkpt><trkpt lat="34.7681589" lon="32.9183621"><ele>350.5</ele><time>2015-04-30T12:41:20.0000000+00:00</time></trkpt><trkpt lat="34.7680585" lon="32.9184554"><ele>350.1</ele><time>2015-04-30T12:41:21.0000000+00:00</time></trkpt><trkpt lat="34.7679556" lon="32.9185567"><ele>349.5</ele><time>2015-04-30T12:41:22.0000000+00:00</time></trkpt><trkpt lat="34.7678599" lon="32.9186512"><ele>348.6</ele><time>2015-04-30T12:41:23.0000000+00:00</time></trkpt><trkpt lat="34.7677591" lon="32.918745"><ele>347.7</ele><time>2015-04-30T12:41:24.0000000+00:00</time></trkpt><trkpt lat="34.7676614" lon="32.9188338"><ele>347.2</ele><time>2015-04-30T12:41:25.0000000+00:00</time></trkpt><trkpt lat="34.7675591" lon="32.9189316"><ele>346.5</ele><time>2015-04-30T12:41:26.0000000+00:00</time></trkpt><trkpt lat="34.7674651" lon="32.9190266"><ele>346.1</ele><time>2015-04-30T12:41:27.0000000+00:00</time></trkpt><trkpt lat="34.7673581" lon="32.9191202"><ele>345.9</ele><time>2015-04-30T12:41:28.0000000+00:00</time></trkpt><trkpt lat="34.7672559" lon="32.91922"><ele>344.9</ele><time>2015-04-30T12:41:29.0000000+00:00</time></trkpt><trkpt lat="34.7671539" lon="32.9193131"><ele>343.8</ele><time>2015-04-30T12:41:30.0000000+00:00</time></trkpt><trkpt lat="34.7670645" lon="32.919397"><ele>342.8</ele><time>2015-04-30T12:41:31.0000000+00:00</time></trkpt><trkpt lat="34.7669594" lon="32.9194974"><ele>342.3</ele><time>2015-04-30T12:41:32.0000000+00:00</time></trkpt><trkpt lat="34.7668629" lon="32.9195849"><ele>341.5</ele><time>2015-04-30T12:41:33.0000000+00:00</time></trkpt><trkpt lat="34.7667739" lon="32.9196745"><ele>341.1</ele><time>2015-04-30T12:41:34.0000000+00:00</time></trkpt><trkpt lat="34.7666823" lon="32.9197684"><ele>340.5</ele><time>2015-04-30T12:41:35.0000000+00:00</time></trkpt><trkpt lat="34.7665824" lon="32.9198587"><ele>339.6</ele><time>2015-04-30T12:41:36.0000000+00:00</time></trkpt><trkpt lat="34.7664817" lon="32.919953"><ele>339.2</ele><time>2015-04-30T12:41:37.0000000+00:00</time></trkpt><trkpt lat="34.7663795" lon="32.9200466"><ele>338.5</ele><time>2015-04-30T12:41:38.0000000+00:00</time></trkpt><trkpt lat="34.766286" lon="32.9201401"><ele>337.1</ele><time>2015-04-30T12:41:39.0000000+00:00</time></trkpt><trkpt lat="34.7661746" lon="32.9202329"><ele>336.4</ele><time>2015-04-30T12:41:40.0000000+00:00</time></trkpt><trkpt lat="34.7660656" lon="32.9203299"><ele>336.1</ele><time>2015-04-30T12:41:41.0000000+00:00</time></trkpt><trkpt lat="34.7659559" lon="32.9204269"><ele>335.4</ele><time>2015-04-30T12:41:42.0000000+00:00</time></trkpt><trkpt lat="34.7658593" lon="32.920522"><ele>334.1</ele><time>2015-04-30T12:41:43.0000000+00:00</time></trkpt><trkpt lat="34.765747" lon="32.9206207"><ele>333.4</ele><time>2015-04-30T12:41:44.0000000+00:00</time></trkpt><trkpt lat="34.7656537" lon="32.9207197"><ele>332.1</ele><time>2015-04-30T12:41:45.0000000+00:00</time></trkpt><trkpt lat="34.7655506" lon="32.9208178"><ele>331.4</ele><time>2015-04-30T12:41:46.0000000+00:00</time></trkpt><trkpt lat="34.7654435" lon="32.9209125"><ele>330.6</ele><time>2015-04-30T12:41:47.0000000+00:00</time></trkpt><trkpt lat="34.7653385" lon="32.9210157"><ele>329.7</ele><time>2015-04-30T12:41:48.0000000+00:00</time></trkpt><trkpt lat="34.7652357" lon="32.9211153"><ele>328.2</ele><time>2015-04-30T12:41:49.0000000+00:00</time></trkpt><trkpt lat="34.7651404" lon="32.9212067"><ele>327.0</ele><time>2015-04-30T12:41:50.0000000+00:00</time></trkpt><trkpt lat="34.7650338" lon="32.9213076"><ele>326.4</ele><time>2015-04-30T12:41:51.0000000+00:00</time></trkpt><trkpt lat="34.764922" lon="32.921406"><ele>325.6</ele><time>2015-04-30T12:41:52.0000000+00:00</time></trkpt><trkpt lat="34.7648165" lon="32.9215098"><ele>324.7</ele><time>2015-04-30T12:41:53.0000000+00:00</time></trkpt><trkpt lat="34.7647168" lon="32.9216066"><ele>323.7</ele><time>2015-04-30T12:41:54.0000000+00:00</time></trkpt><trkpt lat="34.764621" lon="32.9216956"><ele>323.2</ele><time>2015-04-30T12:41:55.0000000+00:00</time></trkpt><trkpt lat="34.7645209" lon="32.921788"><ele>322.5</ele><time>2015-04-30T12:41:56.0000000+00:00</time></trkpt><trkpt lat="34.7644315" lon="32.921877"><ele>321.6</ele><time>2015-04-30T12:41:57.0000000+00:00</time></trkpt><trkpt lat="34.7643635" lon="32.9219603"><ele>320.7</ele><time>2015-04-30T12:41:58.0000000+00:00</time></trkpt><trkpt lat="34.764284" lon="32.9220323"><ele>320.2</ele><time>2015-04-30T12:41:59.0000000+00:00</time></trkpt><trkpt lat="34.7642042" lon="32.9221063"><ele>319.0</ele><time>2015-04-30T12:42:00.0000000+00:00</time></trkpt><trkpt lat="34.7641267" lon="32.9221758"><ele>317.9</ele><time>2015-04-30T12:42:01.0000000+00:00</time></trkpt><trkpt lat="34.7640548" lon="32.9222496"><ele>316.8</ele><time>2015-04-30T12:42:02.0000000+00:00</time></trkpt><trkpt lat="34.7639828" lon="32.9223231"><ele>315.8</ele><time>2015-04-30T12:42:03.0000000+00:00</time></trkpt><trkpt lat="34.7638992" lon="32.9224078"><ele>314.8</ele><time>2015-04-30T12:42:04.0000000+00:00</time></trkpt><trkpt lat="34.7638208" lon="32.9224768"><ele>314.3</ele><time>2015-04-30T12:42:05.0000000+00:00</time></trkpt><trkpt lat="34.7637592" lon="32.9225352"><ele>313.5</ele><time>2015-04-30T12:42:06.0000000+00:00</time></trkpt><trkpt lat="34.7636949" lon="32.9226025"><ele>313.1</ele><time>2015-04-30T12:42:07.0000000+00:00</time></trkpt><trkpt lat="34.7636215" lon="32.9226699"><ele>313.0</ele><time>2015-04-30T12:42:08.0000000+00:00</time></trkpt><trkpt lat="34.7635521" lon="32.9227315"><ele>312.4</ele><time>2015-04-30T12:42:09.0000000+00:00</time></trkpt><trkpt lat="34.7634841" lon="32.9227993"><ele>311.6</ele><time>2015-04-30T12:42:10.0000000+00:00</time></trkpt><trkpt lat="34.7634209" lon="32.922868"><ele>310.7</ele><time>2015-04-30T12:42:11.0000000+00:00</time></trkpt><trkpt lat="34.7633611" lon="32.9229292"><ele>309.7</ele><time>2015-04-30T12:42:12.0000000+00:00</time></trkpt><trkpt lat="34.7632938" lon="32.9229859"><ele>308.7</ele><time>2015-04-30T12:42:13.0000000+00:00</time></trkpt><trkpt lat="34.7632326" lon="32.9230468"><ele>307.8</ele><time>2015-04-30T12:42:14.0000000+00:00</time></trkpt><trkpt lat="34.7631655" lon="32.9231012"><ele>306.8</ele><time>2015-04-30T12:42:15.0000000+00:00</time></trkpt><trkpt lat="34.7630841" lon="32.9231774"><ele>305.8</ele><time>2015-04-30T12:42:16.0000000+00:00</time></trkpt><trkpt lat="34.7630141" lon="32.9232651"><ele>304.8</ele><time>2015-04-30T12:42:17.0000000+00:00</time></trkpt><trkpt lat="34.7629486" lon="32.9233372"><ele>303.3</ele><time>2015-04-30T12:42:18.0000000+00:00</time></trkpt><trkpt lat="34.7628787" lon="32.923411"><ele>302.0</ele><time>2015-04-30T12:42:19.0000000+00:00</time></trkpt><trkpt lat="34.7628026" lon="32.9234993"><ele>300.9</ele><time>2015-04-30T12:42:20.0000000+00:00</time></trkpt><trkpt lat="34.7627339" lon="32.9235783"><ele>299.8</ele><time>2015-04-30T12:42:21.0000000+00:00</time></trkpt><trkpt lat="34.7626793" lon="32.9236425"><ele>298.8</ele><time>2015-04-30T12:42:22.0000000+00:00</time></trkpt><trkpt lat="34.7626257" lon="32.9237087"><ele>297.8</ele><time>2015-04-30T12:42:23.0000000+00:00</time></trkpt><trkpt lat="34.7625719" lon="32.9237941"><ele>296.3</ele><time>2015-04-30T12:42:24.0000000+00:00</time></trkpt><trkpt lat="34.7625172" lon="32.9238667"><ele>294.5</ele><time>2015-04-30T12:42:25.0000000+00:00</time></trkpt><trkpt lat="34.7624683" lon="32.9239491"><ele>293.1</ele><time>2015-04-30T12:42:26.0000000+00:00</time></trkpt><trkpt lat="34.762413" lon="32.924036"><ele>292.0</ele><time>2015-04-30T12:42:27.0000000+00:00</time></trkpt><trkpt lat="34.7623559" lon="32.9241322"><ele>290.9</ele><time>2015-04-30T12:42:28.0000000+00:00</time></trkpt><trkpt lat="34.7623011" lon="32.9242242"><ele>289.8</ele><time>2015-04-30T12:42:29.0000000+00:00</time></trkpt><trkpt lat="34.7622524" lon="32.9243236"><ele>288.8</ele><time>2015-04-30T12:42:30.0000000+00:00</time></trkpt><trkpt lat="34.7621888" lon="32.9244289"><ele>287.8</ele><time>2015-04-30T12:42:31.0000000+00:00</time></trkpt><trkpt lat="34.7621224" lon="32.9245374"><ele>286.8</ele><time>2015-04-30T12:42:32.0000000+00:00</time></trkpt><trkpt lat="34.7620623" lon="32.9246493"><ele>285.8</ele><time>2015-04-30T12:42:33.0000000+00:00</time></trkpt><trkpt lat="34.7620034" lon="32.9247639"><ele>284.8</ele><time>2015-04-30T12:42:34.0000000+00:00</time></trkpt><trkpt lat="34.7619534" lon="32.9248784"><ele>283.8</ele><time>2015-04-30T12:42:35.0000000+00:00</time></trkpt><trkpt lat="34.7619098" lon="32.9249879"><ele>282.8</ele><time>2015-04-30T12:42:36.0000000+00:00</time></trkpt><trkpt lat="34.7618742" lon="32.9250826"><ele>282.3</ele><time>2015-04-30T12:42:37.0000000+00:00</time></trkpt><trkpt lat="34.7618506" lon="32.9251664"><ele>282.0</ele><time>2015-04-30T12:42:38.0000000+00:00</time></trkpt><trkpt lat="34.7618444" lon="32.9252356"><ele>282.4</ele><time>2015-04-30T12:42:39.0000000+00:00</time></trkpt><trkpt lat="34.7618251" lon="32.925322"><ele>282.6</ele><time>2015-04-30T12:42:40.0000000+00:00</time></trkpt><trkpt lat="34.7618188" lon="32.9254076"><ele>281.5</ele><time>2015-04-30T12:42:42.0000000+00:00</time></trkpt><trkpt lat="34.7618087" lon="32.9254755"><ele>280.9</ele><time>2015-04-30T12:42:44.0000000+00:00</time></trkpt><trkpt lat="34.7618022" lon="32.9255365"><ele>279.9</ele><time>2015-04-30T12:42:47.0000000+00:00</time></trkpt><trkpt lat="34.7617813" lon="32.925603"><ele>279.1</ele><time>2015-04-30T12:42:49.0000000+00:00</time></trkpt><trkpt lat="34.7617565" lon="32.9256736"><ele>278.1</ele><time>2015-04-30T12:42:51.0000000+00:00</time></trkpt><trkpt lat="34.7617413" lon="32.9257646"><ele>277.1</ele><time>2015-04-30T12:42:53.0000000+00:00</time></trkpt><trkpt lat="34.761726" lon="32.9258622"><ele>276.1</ele><time>2015-04-30T12:42:55.0000000+00:00</time></trkpt><trkpt lat="34.7617102" lon="32.9259356"><ele>275.4</ele><time>2015-04-30T12:42:56.0000000+00:00</time></trkpt><trkpt lat="34.7616885" lon="32.9260556"><ele>273.7</ele><time>2015-04-30T12:42:58.0000000+00:00</time></trkpt><trkpt lat="34.7616846" lon="32.926129"><ele>273.2</ele><time>2015-04-30T12:42:59.0000000+00:00</time></trkpt><trkpt lat="34.7616807" lon="32.9262059"><ele>273.0</ele><time>2015-04-30T12:43:00.0000000+00:00</time></trkpt><trkpt lat="34.7616783" lon="32.926289"><ele>273.4</ele><time>2015-04-30T12:43:01.0000000+00:00</time></trkpt><trkpt lat="34.7616836" lon="32.9263678"><ele>273.1</ele><time>2015-04-30T12:43:02.0000000+00:00</time></trkpt><trkpt lat="34.7616799" lon="32.9264496"><ele>273.4</ele><time>2015-04-30T12:43:03.0000000+00:00</time></trkpt><trkpt lat="34.7616788" lon="32.9265418"><ele>274.1</ele><time>2015-04-30T12:43:04.0000000+00:00</time></trkpt><trkpt lat="34.76168" lon="32.9266296"><ele>273.9</ele><time>2015-04-30T12:43:05.0000000+00:00</time></trkpt><trkpt lat="34.7616879" lon="32.9267268"><ele>273.8</ele><time>2015-04-30T12:43:06.0000000+00:00</time></trkpt><trkpt lat="34.7616952" lon="32.9268171"><ele>274.3</ele><time>2015-04-30T12:43:07.0000000+00:00</time></trkpt><trkpt lat="34.7617053" lon="32.9269176"><ele>274.5</ele><time>2015-04-30T12:43:08.0000000+00:00</time></trkpt><trkpt lat="34.761709" lon="32.9270138"><ele>274.7</ele><time>2015-04-30T12:43:09.0000000+00:00</time></trkpt><trkpt lat="34.7617192" lon="32.9271035"><ele>274.7</ele><time>2015-04-30T12:43:10.0000000+00:00</time></trkpt><trkpt lat="34.7617288" lon="32.927194"><ele>274.7</ele><time>2015-04-30T12:43:11.0000000+00:00</time></trkpt><trkpt lat="34.7617451" lon="32.927288"><ele>274.8</ele><time>2015-04-30T12:43:12.0000000+00:00</time></trkpt><trkpt lat="34.7617594" lon="32.9273759"><ele>274.3</ele><time>2015-04-30T12:43:13.0000000+00:00</time></trkpt><trkpt lat="34.7617735" lon="32.9274641"><ele>274.0</ele><time>2015-04-30T12:43:14.0000000+00:00</time></trkpt><trkpt lat="34.7617917" lon="32.9275528"><ele>273.9</ele><time>2015-04-30T12:43:15.0000000+00:00</time></trkpt><trkpt lat="34.7618027" lon="32.9276457"><ele>273.3</ele><time>2015-04-30T12:43:16.0000000+00:00</time></trkpt><trkpt lat="34.7618161" lon="32.927736"><ele>272.5</ele><time>2015-04-30T12:43:17.0000000+00:00</time></trkpt><trkpt lat="34.7618364" lon="32.9278224"><ele>271.7</ele><time>2015-04-30T12:43:18.0000000+00:00</time></trkpt><trkpt lat="34.7618667" lon="32.9279038"><ele>271.2</ele><time>2015-04-30T12:43:19.0000000+00:00</time></trkpt><trkpt lat="34.7619042" lon="32.9279973"><ele>270.5</ele><time>2015-04-30T12:43:20.0000000+00:00</time></trkpt><trkpt lat="34.7619281" lon="32.9280715"><ele>270.1</ele><time>2015-04-30T12:43:21.0000000+00:00</time></trkpt><trkpt lat="34.7619558" lon="32.9281394"><ele>269.4</ele><time>2015-04-30T12:43:22.0000000+00:00</time></trkpt><trkpt lat="34.7619962" lon="32.9282049"><ele>269.6</ele><time>2015-04-30T12:43:23.0000000+00:00</time></trkpt><trkpt lat="34.7620285" lon="32.9282751"><ele>270.7</ele><time>2015-04-30T12:43:24.0000000+00:00</time></trkpt><trkpt lat="34.7620653" lon="32.9283291"><ele>270.2</ele><time>2015-04-30T12:43:25.0000000+00:00</time></trkpt><trkpt lat="34.7621111" lon="32.9283943"><ele>270.5</ele><time>2015-04-30T12:43:26.0000000+00:00</time></trkpt><trkpt lat="34.7621529" lon="32.9284698"><ele>270.6</ele><time>2015-04-30T12:43:27.0000000+00:00</time></trkpt><trkpt lat="34.7621912" lon="32.9285444"><ele>270.2</ele><time>2015-04-30T12:43:28.0000000+00:00</time></trkpt><trkpt lat="34.7622226" lon="32.9286218"><ele>269.5</ele><time>2015-04-30T12:43:29.0000000+00:00</time></trkpt><trkpt lat="34.7622562" lon="32.9286903"><ele>269.1</ele><time>2015-04-30T12:43:30.0000000+00:00</time></trkpt><trkpt lat="34.7622932" lon="32.9287615"><ele>268.9</ele><time>2015-04-30T12:43:31.0000000+00:00</time></trkpt><trkpt lat="34.7623361" lon="32.9288327"><ele>268.9</ele><time>2015-04-30T12:43:32.0000000+00:00</time></trkpt><trkpt lat="34.7623759" lon="32.9288981"><ele>268.3</ele><time>2015-04-30T12:43:33.0000000+00:00</time></trkpt><trkpt lat="34.7624179" lon="32.9289526"><ele>268.0</ele><time>2015-04-30T12:43:34.0000000+00:00</time></trkpt><trkpt lat="34.7624587" lon="32.9290091"><ele>268.4</ele><time>2015-04-30T12:43:35.0000000+00:00</time></trkpt><trkpt lat="34.7624988" lon="32.9290786"><ele>268.6</ele><time>2015-04-30T12:43:36.0000000+00:00</time></trkpt><trkpt lat="34.7625293" lon="32.929143"><ele>268.7</ele><time>2015-04-30T12:43:37.0000000+00:00</time></trkpt><trkpt lat="34.7625667" lon="32.9291809"><ele>268.7</ele><time>2015-04-30T12:43:38.0000000+00:00</time></trkpt><trkpt lat="34.7625982" lon="32.9292334"><ele>268.7</ele><time>2015-04-30T12:43:39.0000000+00:00</time></trkpt><trkpt lat="34.7626296" lon="32.929283"><ele>268.8</ele><time>2015-04-30T12:43:40.0000000+00:00</time></trkpt><trkpt lat="34.7626648" lon="32.9293357"><ele>268.8</ele><time>2015-04-30T12:43:41.0000000+00:00</time></trkpt><trkpt lat="34.7626936" lon="32.9293877"><ele>269.3</ele><time>2015-04-30T12:43:42.0000000+00:00</time></trkpt><trkpt lat="34.7627271" lon="32.9294268"><ele>270.0</ele><time>2015-04-30T12:43:43.0000000+00:00</time></trkpt><trkpt lat="34.7627633" lon="32.9294699"><ele>270.9</ele><time>2015-04-30T12:43:44.0000000+00:00</time></trkpt><trkpt lat="34.7627944" lon="32.9295138"><ele>271.3</ele><time>2015-04-30T12:43:45.0000000+00:00</time></trkpt><trkpt lat="34.7628256" lon="32.9295594"><ele>271.5</ele><time>2015-04-30T12:43:46.0000000+00:00</time></trkpt><trkpt lat="34.7628856" lon="32.9296274"><ele>271.0</ele><time>2015-04-30T12:43:48.0000000+00:00</time></trkpt><trkpt lat="34.7629511" lon="32.9296883"><ele>270.1</ele><time>2015-04-30T12:43:50.0000000+00:00</time></trkpt><trkpt lat="34.7630094" lon="32.9297562"><ele>269.8</ele><time>2015-04-30T12:43:52.0000000+00:00</time></trkpt><trkpt lat="34.7630365" lon="32.9298053"><ele>270.3</ele><time>2015-04-30T12:43:53.0000000+00:00</time></trkpt><trkpt lat="34.7630883" lon="32.9298635"><ele>270.6</ele><time>2015-04-30T12:43:55.0000000+00:00</time></trkpt><trkpt lat="34.7631163" lon="32.9299067"><ele>270.7</ele><time>2015-04-30T12:43:56.0000000+00:00</time></trkpt><trkpt lat="34.7631688" lon="32.9299905"><ele>271.3</ele><time>2015-04-30T12:43:58.0000000+00:00</time></trkpt><trkpt lat="34.7632164" lon="32.9300467"><ele>270.9</ele><time>2015-04-30T12:44:00.0000000+00:00</time></trkpt><trkpt lat="34.7632634" lon="32.9301057"><ele>271.5</ele><time>2015-04-30T12:44:02.0000000+00:00</time></trkpt><trkpt lat="34.7633097" lon="32.930163"><ele>271.7</ele><time>2015-04-30T12:44:04.0000000+00:00</time></trkpt><trkpt lat="34.7633554" lon="32.9302137"><ele>271.8</ele><time>2015-04-30T12:44:06.0000000+00:00</time></trkpt><trkpt lat="34.7633978" lon="32.9302604"><ele>271.0</ele><time>2015-04-30T12:44:08.0000000+00:00</time></trkpt><trkpt lat="34.7634374" lon="32.9303062"><ele>270.6</ele><time>2015-04-30T12:44:10.0000000+00:00</time></trkpt><trkpt lat="34.7634758" lon="32.9303573"><ele>270.2</ele><time>2015-04-30T12:44:12.0000000+00:00</time></trkpt><trkpt lat="34.7635214" lon="32.9304094"><ele>270.6</ele><time>2015-04-30T12:44:14.0000000+00:00</time></trkpt><trkpt lat="34.7635717" lon="32.9304719"><ele>271.5</ele><time>2015-04-30T12:44:16.0000000+00:00</time></trkpt><trkpt lat="34.7636295" lon="32.9305434"><ele>271.4</ele><time>2015-04-30T12:44:18.0000000+00:00</time></trkpt><trkpt lat="34.7636838" lon="32.9306182"><ele>271.7</ele><time>2015-04-30T12:44:20.0000000+00:00</time></trkpt><trkpt lat="34.7637394" lon="32.9306947"><ele>272.5</ele><time>2015-04-30T12:44:22.0000000+00:00</time></trkpt><trkpt lat="34.7637944" lon="32.9307708"><ele>272.9</ele><time>2015-04-30T12:44:24.0000000+00:00</time></trkpt><trkpt lat="34.7638487" lon="32.9308385"><ele>273.6</ele><time>2015-04-30T12:44:26.0000000+00:00</time></trkpt><trkpt lat="34.7639024" lon="32.930907"><ele>272.5</ele><time>2015-04-30T12:44:28.0000000+00:00</time></trkpt><trkpt lat="34.7639515" lon="32.9309746"><ele>272.7</ele><time>2015-04-30T12:44:30.0000000+00:00</time></trkpt><trkpt lat="34.7640009" lon="32.9310434"><ele>272.0</ele><time>2015-04-30T12:44:32.0000000+00:00</time></trkpt><trkpt lat="34.7640467" lon="32.9310986"><ele>271.1</ele><time>2015-04-30T12:44:34.0000000+00:00</time></trkpt><trkpt lat="34.7640883" lon="32.931155"><ele>272.1</ele><time>2015-04-30T12:44:36.0000000+00:00</time></trkpt><trkpt lat="34.7641256" lon="32.9312076"><ele>272.3</ele><time>2015-04-30T12:44:38.0000000+00:00</time></trkpt><trkpt lat="34.7641651" lon="32.9312536"><ele>271.9</ele><time>2015-04-30T12:44:40.0000000+00:00</time></trkpt><trkpt lat="34.7642071" lon="32.9313064"><ele>271.8</ele><time>2015-04-30T12:44:42.0000000+00:00</time></trkpt><trkpt lat="34.7642478" lon="32.931374"><ele>271.0</ele><time>2015-04-30T12:44:45.0000000+00:00</time></trkpt><trkpt lat="34.7642869" lon="32.9314181"><ele>270.8</ele><time>2015-04-30T12:44:47.0000000+00:00</time></trkpt><trkpt lat="34.7643283" lon="32.9314722"><ele>270.8</ele><time>2015-04-30T12:44:49.0000000+00:00</time></trkpt><trkpt lat="34.7643704" lon="32.931523"><ele>270.3</ele><time>2015-04-30T12:44:51.0000000+00:00</time></trkpt><trkpt lat="34.7644117" lon="32.9315753"><ele>269.9</ele><time>2015-04-30T12:44:53.0000000+00:00</time></trkpt><trkpt lat="34.7644482" lon="32.9316243"><ele>270.0</ele><time>2015-04-30T12:44:55.0000000+00:00</time></trkpt><trkpt lat="34.7644844" lon="32.9316715"><ele>270.3</ele><time>2015-04-30T12:44:57.0000000+00:00</time></trkpt><trkpt lat="34.7645282" lon="32.9317277"><ele>270.3</ele><time>2015-04-30T12:45:00.0000000+00:00</time></trkpt><trkpt lat="34.7645604" lon="32.9317684"><ele>270.2</ele><time>2015-04-30T12:45:02.0000000+00:00</time></trkpt><trkpt lat="34.764599" lon="32.9318109"><ele>270.6</ele><time>2015-04-30T12:45:04.0000000+00:00</time></trkpt><trkpt lat="34.7646354" lon="32.9318565"><ele>271.2</ele><time>2015-04-30T12:45:06.0000000+00:00</time></trkpt><trkpt lat="34.7646707" lon="32.9319072"><ele>272.1</ele><time>2015-04-30T12:45:08.0000000+00:00</time></trkpt><trkpt lat="34.7647091" lon="32.9319615"><ele>272.6</ele><time>2015-04-30T12:45:10.0000000+00:00</time></trkpt><trkpt lat="34.7647512" lon="32.9320173"><ele>272.7</ele><time>2015-04-30T12:45:12.0000000+00:00</time></trkpt><trkpt lat="34.7647966" lon="32.9320753"><ele>272.8</ele><time>2015-04-30T12:45:14.0000000+00:00</time></trkpt><trkpt lat="34.7648438" lon="32.9321351"><ele>272.0</ele><time>2015-04-30T12:45:16.0000000+00:00</time></trkpt><trkpt lat="34.7648946" lon="32.932194"><ele>271.8</ele><time>2015-04-30T12:45:18.0000000+00:00</time></trkpt><trkpt lat="34.7649451" lon="32.9322559"><ele>271.3</ele><time>2015-04-30T12:45:20.0000000+00:00</time></trkpt><trkpt lat="34.7649954" lon="32.9323201"><ele>270.9</ele><time>2015-04-30T12:45:22.0000000+00:00</time></trkpt><trkpt lat="34.7650497" lon="32.9323869"><ele>270.8</ele><time>2015-04-30T12:45:24.0000000+00:00</time></trkpt><trkpt lat="34.7651051" lon="32.9324539"><ele>270.3</ele><time>2015-04-30T12:45:26.0000000+00:00</time></trkpt><trkpt lat="34.7651635" lon="32.9325232"><ele>269.4</ele><time>2015-04-30T12:45:28.0000000+00:00</time></trkpt><trkpt lat="34.7652244" lon="32.9325967"><ele>268.9</ele><time>2015-04-30T12:45:30.0000000+00:00</time></trkpt><trkpt lat="34.7652808" lon="32.9326706"><ele>268.3</ele><time>2015-04-30T12:45:31.0000000+00:00</time></trkpt><trkpt lat="34.7653168" lon="32.9327084"><ele>268.1</ele><time>2015-04-30T12:45:32.0000000+00:00</time></trkpt><trkpt lat="34.7653475" lon="32.9327524"><ele>267.9</ele><time>2015-04-30T12:45:33.0000000+00:00</time></trkpt><trkpt lat="34.7653838" lon="32.9327969"><ele>267.8</ele><time>2015-04-30T12:45:34.0000000+00:00</time></trkpt><trkpt lat="34.7654183" lon="32.9328426"><ele>267.8</ele><time>2015-04-30T12:45:35.0000000+00:00</time></trkpt><trkpt lat="34.7654552" lon="32.9328949"><ele>268.3</ele><time>2015-04-30T12:45:36.0000000+00:00</time></trkpt><trkpt lat="34.7654911" lon="32.9329413"><ele>268.5</ele><time>2015-04-30T12:45:37.0000000+00:00</time></trkpt><trkpt lat="34.7655296" lon="32.9329915"><ele>268.6</ele><time>2015-04-30T12:45:38.0000000+00:00</time></trkpt><trkpt lat="34.7655689" lon="32.9330478"><ele>268.7</ele><time>2015-04-30T12:45:39.0000000+00:00</time></trkpt><trkpt lat="34.7656118" lon="32.9331078"><ele>269.2</ele><time>2015-04-30T12:45:40.0000000+00:00</time></trkpt><trkpt lat="34.7656528" lon="32.9331512"><ele>269.5</ele><time>2015-04-30T12:45:41.0000000+00:00</time></trkpt><trkpt lat="34.7656913" lon="32.9331987"><ele>270.1</ele><time>2015-04-30T12:45:42.0000000+00:00</time></trkpt><trkpt lat="34.765732" lon="32.9332516"><ele>269.9</ele><time>2015-04-30T12:45:43.0000000+00:00</time></trkpt><trkpt lat="34.7657796" lon="32.9333144"><ele>270.4</ele><time>2015-04-30T12:45:44.0000000+00:00</time></trkpt><trkpt lat="34.7658183" lon="32.9333688"><ele>270.1</ele><time>2015-04-30T12:45:45.0000000+00:00</time></trkpt><trkpt lat="34.7658524" lon="32.9334174"><ele>269.9</ele><time>2015-04-30T12:45:46.0000000+00:00</time></trkpt><trkpt lat="34.7658977" lon="32.93347"><ele>269.8</ele><time>2015-04-30T12:45:47.0000000+00:00</time></trkpt><trkpt lat="34.7659388" lon="32.9335247"><ele>269.8</ele><time>2015-04-30T12:45:48.0000000+00:00</time></trkpt><trkpt lat="34.7659846" lon="32.9335815"><ele>269.3</ele><time>2015-04-30T12:45:49.0000000+00:00</time></trkpt><trkpt lat="34.7660268" lon="32.9336397"><ele>269.0</ele><time>2015-04-30T12:45:50.0000000+00:00</time></trkpt><trkpt lat="34.766068" lon="32.9336948"><ele>268.4</ele><time>2015-04-30T12:45:51.0000000+00:00</time></trkpt><trkpt lat="34.7661146" lon="32.9337637"><ele>267.6</ele><time>2015-04-30T12:45:52.0000000+00:00</time></trkpt><trkpt lat="34.7661589" lon="32.9338223"><ele>267.2</ele><time>2015-04-30T12:45:53.0000000+00:00</time></trkpt><trkpt lat="34.7662045" lon="32.9338856"><ele>266.5</ele><time>2015-04-30T12:45:54.0000000+00:00</time></trkpt><trkpt lat="34.7662434" lon="32.9339489"><ele>265.1</ele><time>2015-04-30T12:45:55.0000000+00:00</time></trkpt><trkpt lat="34.7662911" lon="32.9340152"><ele>264.9</ele><time>2015-04-30T12:45:56.0000000+00:00</time></trkpt><trkpt lat="34.7663385" lon="32.9340791"><ele>264.9</ele><time>2015-04-30T12:45:57.0000000+00:00</time></trkpt><trkpt lat="34.7663819" lon="32.9341303"><ele>264.3</ele><time>2015-04-30T12:45:58.0000000+00:00</time></trkpt><trkpt lat="34.7664367" lon="32.9342066"><ele>264.0</ele><time>2015-04-30T12:45:59.0000000+00:00</time></trkpt><trkpt lat="34.7664883" lon="32.9342609"><ele>264.4</ele><time>2015-04-30T12:46:00.0000000+00:00</time></trkpt><trkpt lat="34.7665476" lon="32.934329"><ele>264.6</ele><time>2015-04-30T12:46:01.0000000+00:00</time></trkpt><trkpt lat="34.7665997" lon="32.9343934"><ele>265.2</ele><time>2015-04-30T12:46:02.0000000+00:00</time></trkpt><trkpt lat="34.766651" lon="32.9344751"><ele>265.0</ele><time>2015-04-30T12:46:03.0000000+00:00</time></trkpt><trkpt lat="34.7667094" lon="32.9345392"><ele>264.9</ele><time>2015-04-30T12:46:04.0000000+00:00</time></trkpt><trkpt lat="34.766759" lon="32.9346107"><ele>264.8</ele><time>2015-04-30T12:46:05.0000000+00:00</time></trkpt><trkpt lat="34.7668094" lon="32.9346745"><ele>265.3</ele><time>2015-04-30T12:46:06.0000000+00:00</time></trkpt><trkpt lat="34.7668644" lon="32.9347409"><ele>265.5</ele><time>2015-04-30T12:46:07.0000000+00:00</time></trkpt><trkpt lat="34.7669213" lon="32.9348095"><ele>265.6</ele><time>2015-04-30T12:46:08.0000000+00:00</time></trkpt><trkpt lat="34.766972" lon="32.9348779"><ele>264.7</ele><time>2015-04-30T12:46:09.0000000+00:00</time></trkpt><trkpt lat="34.7670235" lon="32.9349387"><ele>264.2</ele><time>2015-04-30T12:46:10.0000000+00:00</time></trkpt><trkpt lat="34.7670761" lon="32.9350098"><ele>264.5</ele><time>2015-04-30T12:46:11.0000000+00:00</time></trkpt><trkpt lat="34.7671343" lon="32.9350839"><ele>264.6</ele><time>2015-04-30T12:46:12.0000000+00:00</time></trkpt><trkpt lat="34.7671912" lon="32.9351514"><ele>264.2</ele><time>2015-04-30T12:46:13.0000000+00:00</time></trkpt><trkpt lat="34.7672447" lon="32.9352256"><ele>263.5</ele><time>2015-04-30T12:46:14.0000000+00:00</time></trkpt><trkpt lat="34.7673008" lon="32.9352968"><ele>262.6</ele><time>2015-04-30T12:46:15.0000000+00:00</time></trkpt><trkpt lat="34.7673495" lon="32.935378"><ele>261.7</ele><time>2015-04-30T12:46:16.0000000+00:00</time></trkpt><trkpt lat="34.7674036" lon="32.9354609"><ele>261.2</ele><time>2015-04-30T12:46:17.0000000+00:00</time></trkpt><trkpt lat="34.7674547" lon="32.9355339"><ele>261.0</ele><time>2015-04-30T12:46:18.0000000+00:00</time></trkpt><trkpt lat="34.7675086" lon="32.9356056"><ele>260.9</ele><time>2015-04-30T12:46:19.0000000+00:00</time></trkpt><trkpt lat="34.767569" lon="32.935684"><ele>260.8</ele><time>2015-04-30T12:46:20.0000000+00:00</time></trkpt><trkpt lat="34.7676183" lon="32.9357629"><ele>260.8</ele><time>2015-04-30T12:46:21.0000000+00:00</time></trkpt><trkpt lat="34.7676603" lon="32.9358296"><ele>260.3</ele><time>2015-04-30T12:46:22.0000000+00:00</time></trkpt><trkpt lat="34.7677214" lon="32.935899"><ele>260.5</ele><time>2015-04-30T12:46:23.0000000+00:00</time></trkpt><trkpt lat="34.767772" lon="32.9359752"><ele>260.6</ele><time>2015-04-30T12:46:24.0000000+00:00</time></trkpt><trkpt lat="34.7678186" lon="32.9360512"><ele>260.7</ele><time>2015-04-30T12:46:25.0000000+00:00</time></trkpt><trkpt lat="34.7678606" lon="32.9361233"><ele>260.7</ele><time>2015-04-30T12:46:26.0000000+00:00</time></trkpt><trkpt lat="34.7678979" lon="32.9361972"><ele>260.2</ele><time>2015-04-30T12:46:27.0000000+00:00</time></trkpt><trkpt lat="34.767935" lon="32.936271"><ele>260.0</ele><time>2015-04-30T12:46:28.0000000+00:00</time></trkpt><trkpt lat="34.7679691" lon="32.9363405"><ele>260.4</ele><time>2015-04-30T12:46:29.0000000+00:00</time></trkpt><trkpt lat="34.7680264" lon="32.936402"><ele>261.1</ele><time>2015-04-30T12:46:30.0000000+00:00</time></trkpt><trkpt lat="34.768063" lon="32.9364678"><ele>261.4</ele><time>2015-04-30T12:46:31.0000000+00:00</time></trkpt><trkpt lat="34.7681042" lon="32.9365265"><ele>261.1</ele><time>2015-04-30T12:46:32.0000000+00:00</time></trkpt><trkpt lat="34.7681302" lon="32.9365938"><ele>261.9</ele><time>2015-04-30T12:46:33.0000000+00:00</time></trkpt><trkpt lat="34.768154" lon="32.9366691"><ele>262.3</ele><time>2015-04-30T12:46:34.0000000+00:00</time></trkpt><trkpt lat="34.7681844" lon="32.9367485"><ele>263.1</ele><time>2015-04-30T12:46:35.0000000+00:00</time></trkpt><trkpt lat="34.7682128" lon="32.9368131"><ele>263.9</ele><time>2015-04-30T12:46:36.0000000+00:00</time></trkpt><trkpt lat="34.7682393" lon="32.9368801"><ele>264.3</ele><time>2015-04-30T12:46:37.0000000+00:00</time></trkpt><trkpt lat="34.7682691" lon="32.9369452"><ele>264.6</ele><time>2015-04-30T12:46:38.0000000+00:00</time></trkpt><trkpt lat="34.7683075" lon="32.9370052"><ele>264.7</ele><time>2015-04-30T12:46:39.0000000+00:00</time></trkpt><trkpt lat="34.7683291" lon="32.9370625"><ele>264.2</ele><time>2015-04-30T12:46:40.0000000+00:00</time></trkpt><trkpt lat="34.7683555" lon="32.9371242"><ele>264.0</ele><time>2015-04-30T12:46:41.0000000+00:00</time></trkpt><trkpt lat="34.7683814" lon="32.9371793"><ele>264.4</ele><time>2015-04-30T12:46:42.0000000+00:00</time></trkpt><trkpt lat="34.7683988" lon="32.9372326"><ele>264.1</ele><time>2015-04-30T12:46:43.0000000+00:00</time></trkpt><trkpt lat="34.7684197" lon="32.9372948"><ele>263.4</ele><time>2015-04-30T12:46:44.0000000+00:00</time></trkpt><trkpt lat="34.7684453" lon="32.9373472"><ele>263.1</ele><time>2015-04-30T12:46:45.0000000+00:00</time></trkpt><trkpt lat="34.7684777" lon="32.9374237"><ele>263.3</ele><time>2015-04-30T12:46:47.0000000+00:00</time></trkpt><trkpt lat="34.7684986" lon="32.937511"><ele>262.9</ele><time>2015-04-30T12:46:49.0000000+00:00</time></trkpt><trkpt lat="34.7685293" lon="32.9375815"><ele>263.6</ele><time>2015-04-30T12:46:51.0000000+00:00</time></trkpt><trkpt lat="34.7685669" lon="32.937663"><ele>264.0</ele><time>2015-04-30T12:46:53.0000000+00:00</time></trkpt><trkpt lat="34.7685853" lon="32.9377316"><ele>265.1</ele><time>2015-04-30T12:46:55.0000000+00:00</time></trkpt><trkpt lat="34.7686099" lon="32.9378024"><ele>264.8</ele><time>2015-04-30T12:46:57.0000000+00:00</time></trkpt><trkpt lat="34.7686318" lon="32.9378719"><ele>264.8</ele><time>2015-04-30T12:46:59.0000000+00:00</time></trkpt><trkpt lat="34.7686545" lon="32.9379397"><ele>265.3</ele><time>2015-04-30T12:47:01.0000000+00:00</time></trkpt><trkpt lat="34.7686717" lon="32.9380012"><ele>265.6</ele><time>2015-04-30T12:47:03.0000000+00:00</time></trkpt><trkpt lat="34.768686" lon="32.9380637"><ele>265.2</ele><time>2015-04-30T12:47:05.0000000+00:00</time></trkpt><trkpt lat="34.7687006" lon="32.9381235"><ele>264.9</ele><time>2015-04-30T12:47:07.0000000+00:00</time></trkpt><trkpt lat="34.7687135" lon="32.938186"><ele>265.3</ele><time>2015-04-30T12:47:09.0000000+00:00</time></trkpt><trkpt lat="34.7687248" lon="32.9382447"><ele>265.9</ele><time>2015-04-30T12:47:11.0000000+00:00</time></trkpt><trkpt lat="34.7687377" lon="32.9383063"><ele>267.0</ele><time>2015-04-30T12:47:13.0000000+00:00</time></trkpt><trkpt lat="34.7687521" lon="32.9383629"><ele>267.6</ele><time>2015-04-30T12:47:15.0000000+00:00</time></trkpt><trkpt lat="34.7687644" lon="32.9384185"><ele>268.5</ele><time>2015-04-30T12:47:17.0000000+00:00</time></trkpt><trkpt lat="34.7687708" lon="32.9384739"><ele>268.7</ele><time>2015-04-30T12:47:19.0000000+00:00</time></trkpt><trkpt lat="34.7687799" lon="32.9385295"><ele>268.7</ele><time>2015-04-30T12:47:21.0000000+00:00</time></trkpt><trkpt lat="34.7687916" lon="32.9386084"><ele>268.8</ele><time>2015-04-30T12:47:24.0000000+00:00</time></trkpt><trkpt lat="34.7687975" lon="32.9386639"><ele>269.3</ele><time>2015-04-30T12:47:26.0000000+00:00</time></trkpt><trkpt lat="34.7688062" lon="32.9387215"><ele>270.1</ele><time>2015-04-30T12:47:28.0000000+00:00</time></trkpt><trkpt lat="34.7688171" lon="32.9387752"><ele>270.6</ele><time>2015-04-30T12:47:30.0000000+00:00</time></trkpt><trkpt lat="34.768831" lon="32.9388548"><ele>271.5</ele><time>2015-04-30T12:47:33.0000000+00:00</time></trkpt><trkpt lat="34.7688438" lon="32.9389346"><ele>272.6</ele><time>2015-04-30T12:47:36.0000000+00:00</time></trkpt><trkpt lat="34.7688496" lon="32.939002"><ele>273.2</ele><time>2015-04-30T12:47:39.0000000+00:00</time></trkpt><trkpt lat="34.7688617" lon="32.9390687"><ele>272.9</ele><time>2015-04-30T12:47:43.0000000+00:00</time></trkpt><trkpt lat="34.7688732" lon="32.9391228"><ele>276.0</ele><time>2015-04-30T12:47:47.0000000+00:00</time></trkpt><trkpt lat="34.7688756" lon="32.9391816"><ele>274.9</ele><time>2015-04-30T12:47:51.0000000+00:00</time></trkpt><trkpt lat="34.7688848" lon="32.9392383"><ele>275.5</ele><time>2015-04-30T12:47:55.0000000+00:00</time></trkpt><trkpt lat="34.7688984" lon="32.9392915"><ele>274.3</ele><time>2015-04-30T12:47:59.0000000+00:00</time></trkpt><trkpt lat="34.768908" lon="32.9393459"><ele>272.2</ele><time>2015-04-30T12:48:03.0000000+00:00</time></trkpt><trkpt lat="34.7689086" lon="32.9394053"><ele>272.9</ele><time>2015-04-30T12:48:07.0000000+00:00</time></trkpt><trkpt lat="34.7689119" lon="32.9394633"><ele>272.8</ele><time>2015-04-30T12:48:11.0000000+00:00</time></trkpt><trkpt lat="34.7689257" lon="32.9395159"><ele>273.0</ele><time>2015-04-30T12:48:16.0000000+00:00</time></trkpt><trkpt lat="34.7689226" lon="32.939577"><ele>272.0</ele><time>2015-04-30T12:48:21.0000000+00:00</time></trkpt><trkpt lat="34.7689277" lon="32.9396334"><ele>271.7</ele><time>2015-04-30T12:48:25.0000000+00:00</time></trkpt><trkpt lat="34.7689318" lon="32.9396938"><ele>274.1</ele><time>2015-04-30T12:48:29.0000000+00:00</time></trkpt><trkpt lat="34.7689361" lon="32.939757"><ele>276.3</ele><time>2015-04-30T12:48:33.0000000+00:00</time></trkpt><trkpt lat="34.7689484" lon="32.9398216"><ele>278.0</ele><time>2015-04-30T12:48:38.0000000+00:00</time></trkpt><trkpt lat="34.7689574" lon="32.93988"><ele>278.5</ele><time>2015-04-30T12:48:42.0000000+00:00</time></trkpt><trkpt lat="34.7689649" lon="32.9399378"><ele>280.5</ele><time>2015-04-30T12:48:46.0000000+00:00</time></trkpt><trkpt lat="34.768974" lon="32.9400015"><ele>277.7</ele><time>2015-04-30T12:48:50.0000000+00:00</time></trkpt><trkpt lat="34.7689782" lon="32.9400562"><ele>277.6</ele><time>2015-04-30T12:48:53.0000000+00:00</time></trkpt><trkpt lat="34.768976" lon="32.9401267"><ele>278.4</ele><time>2015-04-30T12:48:57.0000000+00:00</time></trkpt><trkpt lat="34.7689779" lon="32.9401948"><ele>277.0</ele><time>2015-04-30T12:49:01.0000000+00:00</time></trkpt><trkpt lat="34.7689804" lon="32.9402622"><ele>277.7</ele><time>2015-04-30T12:49:05.0000000+00:00</time></trkpt><trkpt lat="34.7689815" lon="32.9403221"><ele>280.4</ele><time>2015-04-30T12:49:09.0000000+00:00</time></trkpt><trkpt lat="34.76898" lon="32.9403824"><ele>281.0</ele><time>2015-04-30T12:49:13.0000000+00:00</time></trkpt><trkpt lat="34.7689816" lon="32.9404461"><ele>280.4</ele><time>2015-04-30T12:49:17.0000000+00:00</time></trkpt><trkpt lat="34.7689836" lon="32.9405075"><ele>280.4</ele><time>2015-04-30T12:49:21.0000000+00:00</time></trkpt><trkpt lat="34.7689831" lon="32.9405689"><ele>279.9</ele><time>2015-04-30T12:49:25.0000000+00:00</time></trkpt><trkpt lat="34.7689831" lon="32.9406246"><ele>280.9</ele><time>2015-04-30T12:49:29.0000000+00:00</time></trkpt><trkpt lat="34.7689837" lon="32.9406828"><ele>281.8</ele><time>2015-04-30T12:49:34.0000000+00:00</time></trkpt><trkpt lat="34.7689802" lon="32.9407486"><ele>281.8</ele><time>2015-04-30T12:49:39.0000000+00:00</time></trkpt><trkpt lat="34.7689766" lon="32.9408108"><ele>278.4</ele><time>2015-04-30T12:49:44.0000000+00:00</time></trkpt><trkpt lat="34.7689781" lon="32.9408667"><ele>279.4</ele><time>2015-04-30T12:49:48.0000000+00:00</time></trkpt><trkpt lat="34.7689711" lon="32.9409324"><ele>279.2</ele><time>2015-04-30T12:49:53.0000000+00:00</time></trkpt><trkpt lat="34.7689824" lon="32.9409937"><ele>278.4</ele><time>2015-04-30T12:49:57.0000000+00:00</time></trkpt><trkpt lat="34.7689836" lon="32.9410568"><ele>280.2</ele><time>2015-04-30T12:50:01.0000000+00:00</time></trkpt><trkpt lat="34.7689757" lon="32.9411176"><ele>282.0</ele><time>2015-04-30T12:50:05.0000000+00:00</time></trkpt><trkpt lat="34.7689702" lon="32.9411777"><ele>282.1</ele><time>2015-04-30T12:50:10.0000000+00:00</time></trkpt><trkpt lat="34.7689611" lon="32.9412321"><ele>282.7</ele><time>2015-04-30T12:50:14.0000000+00:00</time></trkpt><trkpt lat="34.7689552" lon="32.9412957"><ele>283.3</ele><time>2015-04-30T12:50:18.0000000+00:00</time></trkpt><trkpt lat="34.7689451" lon="32.9413645"><ele>283.1</ele><time>2015-04-30T12:50:22.0000000+00:00</time></trkpt><trkpt lat="34.7689263" lon="32.941418"><ele>284.4</ele><time>2015-04-30T12:50:25.0000000+00:00</time></trkpt><trkpt lat="34.7689124" lon="32.9414804"><ele>286.4</ele><time>2015-04-30T12:50:29.0000000+00:00</time></trkpt><trkpt lat="34.7688955" lon="32.94154"><ele>288.4</ele><time>2015-04-30T12:50:33.0000000+00:00</time></trkpt><trkpt lat="34.7688843" lon="32.9416014"><ele>288.4</ele><time>2015-04-30T12:50:37.0000000+00:00</time></trkpt><trkpt lat="34.768875" lon="32.941664"><ele>287.1</ele><time>2015-04-30T12:50:41.0000000+00:00</time></trkpt><trkpt lat="34.7688719" lon="32.9417299"><ele>284.3</ele><time>2015-04-30T12:50:46.0000000+00:00</time></trkpt><trkpt lat="34.7688727" lon="32.9417989"><ele>283.9</ele><time>2015-04-30T12:50:51.0000000+00:00</time></trkpt><trkpt lat="34.7688593" lon="32.941852"><ele>285.5</ele><time>2015-04-30T12:50:55.0000000+00:00</time></trkpt><trkpt lat="34.7688416" lon="32.941906"><ele>286.4</ele><time>2015-04-30T12:50:59.0000000+00:00</time></trkpt><trkpt lat="34.7688278" lon="32.9419621"><ele>285.1</ele><time>2015-04-30T12:51:03.0000000+00:00</time></trkpt><trkpt lat="34.7688178" lon="32.9420247"><ele>286.9</ele><time>2015-04-30T12:51:07.0000000+00:00</time></trkpt><trkpt lat="34.7688156" lon="32.942088"><ele>289.3</ele><time>2015-04-30T12:51:11.0000000+00:00</time></trkpt><trkpt lat="34.7688066" lon="32.9421431"><ele>291.2</ele><time>2015-04-30T12:51:15.0000000+00:00</time></trkpt><trkpt lat="34.7687967" lon="32.9422044"><ele>291.7</ele><time>2015-04-30T12:51:19.0000000+00:00</time></trkpt><trkpt lat="34.7687792" lon="32.9422685"><ele>291.8</ele><time>2015-04-30T12:51:23.0000000+00:00</time></trkpt><trkpt lat="34.7687558" lon="32.9423249"><ele>292.7</ele><time>2015-04-30T12:51:27.0000000+00:00</time></trkpt><trkpt lat="34.7687437" lon="32.9423883"><ele>292.7</ele><time>2015-04-30T12:51:31.0000000+00:00</time></trkpt><trkpt lat="34.7687229" lon="32.9424516"><ele>294.3</ele><time>2015-04-30T12:51:35.0000000+00:00</time></trkpt><trkpt lat="34.7687038" lon="32.9425081"><ele>295.4</ele><time>2015-04-30T12:51:39.0000000+00:00</time></trkpt><trkpt lat="34.7686819" lon="32.9425654"><ele>295.3</ele><time>2015-04-30T12:51:43.0000000+00:00</time></trkpt><trkpt lat="34.7686653" lon="32.942624"><ele>296.0</ele><time>2015-04-30T12:51:47.0000000+00:00</time></trkpt><trkpt lat="34.7686456" lon="32.9426785"><ele>298.2</ele><time>2015-04-30T12:51:51.0000000+00:00</time></trkpt><trkpt lat="34.7686184" lon="32.9427288"><ele>298.1</ele><time>2015-04-30T12:51:55.0000000+00:00</time></trkpt><trkpt lat="34.7686028" lon="32.9427912"><ele>298.0</ele><time>2015-04-30T12:52:00.0000000+00:00</time></trkpt><trkpt lat="34.7685913" lon="32.9428508"><ele>298.5</ele><time>2015-04-30T12:52:04.0000000+00:00</time></trkpt><trkpt lat="34.7685783" lon="32.9429079"><ele>298.4</ele><time>2015-04-30T12:52:08.0000000+00:00</time></trkpt><trkpt lat="34.7685619" lon="32.9429644"><ele>297.8</ele><time>2015-04-30T12:52:12.0000000+00:00</time></trkpt><trkpt lat="34.7685444" lon="32.943023"><ele>297.8</ele><time>2015-04-30T12:52:16.0000000+00:00</time></trkpt><trkpt lat="34.7685298" lon="32.94308"><ele>297.6</ele><time>2015-04-30T12:52:20.0000000+00:00</time></trkpt><trkpt lat="34.7685096" lon="32.943133"><ele>298.5</ele><time>2015-04-30T12:52:24.0000000+00:00</time></trkpt><trkpt lat="34.7684927" lon="32.9431896"><ele>298.4</ele><time>2015-04-30T12:52:28.0000000+00:00</time></trkpt><trkpt lat="34.7684752" lon="32.9432447"><ele>299.1</ele><time>2015-04-30T12:52:32.0000000+00:00</time></trkpt><trkpt lat="34.768454" lon="32.943301"><ele>299.5</ele><time>2015-04-30T12:52:36.0000000+00:00</time></trkpt><trkpt lat="34.7684284" lon="32.943361"><ele>300.3</ele><time>2015-04-30T12:52:40.0000000+00:00</time></trkpt><trkpt lat="34.7683991" lon="32.9434162"><ele>301.7</ele><time>2015-04-30T12:52:44.0000000+00:00</time></trkpt><trkpt lat="34.7683755" lon="32.9434738"><ele>300.9</ele><time>2015-04-30T12:52:48.0000000+00:00</time></trkpt><trkpt lat="34.7683483" lon="32.9435356"><ele>301.0</ele><time>2015-04-30T12:52:52.0000000+00:00</time></trkpt><trkpt lat="34.7683209" lon="32.943594"><ele>301.7</ele><time>2015-04-30T12:52:56.0000000+00:00</time></trkpt><trkpt lat="34.7682946" lon="32.943651"><ele>303.0</ele><time>2015-04-30T12:53:00.0000000+00:00</time></trkpt><trkpt lat="34.7682694" lon="32.9437095"><ele>304.0</ele><time>2015-04-30T12:53:04.0000000+00:00</time></trkpt><trkpt lat="34.7682425" lon="32.9437676"><ele>304.6</ele><time>2015-04-30T12:53:08.0000000+00:00</time></trkpt><trkpt lat="34.7682132" lon="32.9438273"><ele>304.0</ele><time>2015-04-30T12:53:12.0000000+00:00</time></trkpt><trkpt lat="34.7681934" lon="32.9438856"><ele>302.7</ele><time>2015-04-30T12:53:16.0000000+00:00</time></trkpt><trkpt lat="34.7681726" lon="32.9439435"><ele>301.9</ele><time>2015-04-30T12:53:20.0000000+00:00</time></trkpt><trkpt lat="34.7681452" lon="32.9439894"><ele>301.0</ele><time>2015-04-30T12:53:24.0000000+00:00</time></trkpt><trkpt lat="34.7681189" lon="32.9440423"><ele>301.9</ele><time>2015-04-30T12:53:28.0000000+00:00</time></trkpt><trkpt lat="34.7680959" lon="32.944104"><ele>302.0</ele><time>2015-04-30T12:53:32.0000000+00:00</time></trkpt><trkpt lat="34.7680708" lon="32.9441578"><ele>300.4</ele><time>2015-04-30T12:53:36.0000000+00:00</time></trkpt><trkpt lat="34.7680357" lon="32.9442124"><ele>300.0</ele><time>2015-04-30T12:53:40.0000000+00:00</time></trkpt><trkpt lat="34.7679981" lon="32.9442658"><ele>300.7</ele><time>2015-04-30T12:53:44.0000000+00:00</time></trkpt><trkpt lat="34.7679664" lon="32.9443263"><ele>301.5</ele><time>2015-04-30T12:53:48.0000000+00:00</time></trkpt><trkpt lat="34.76793" lon="32.9443794"><ele>302.5</ele><time>2015-04-30T12:53:52.0000000+00:00</time></trkpt><trkpt lat="34.7679008" lon="32.944431"><ele>302.7</ele><time>2015-04-30T12:53:56.0000000+00:00</time></trkpt><trkpt lat="34.7678799" lon="32.9444861"><ele>302.8</ele><time>2015-04-30T12:54:00.0000000+00:00</time></trkpt><trkpt lat="34.7678409" lon="32.9445277"><ele>303.6</ele><time>2015-04-30T12:54:04.0000000+00:00</time></trkpt><trkpt lat="34.7678171" lon="32.944578"><ele>304.4</ele><time>2015-04-30T12:54:08.0000000+00:00</time></trkpt><trkpt lat="34.7677875" lon="32.9446227"><ele>304.7</ele><time>2015-04-30T12:54:12.0000000+00:00</time></trkpt><trkpt lat="34.7677623" lon="32.9446765"><ele>305.5</ele><time>2015-04-30T12:54:16.0000000+00:00</time></trkpt><trkpt lat="34.7677306" lon="32.9447314"><ele>306.5</ele><time>2015-04-30T12:54:20.0000000+00:00</time></trkpt><trkpt lat="34.767701" lon="32.9447756"><ele>307.6</ele><time>2015-04-30T12:54:24.0000000+00:00</time></trkpt><trkpt lat="34.7676666" lon="32.9448293"><ele>308.6</ele><time>2015-04-30T12:54:28.0000000+00:00</time></trkpt><trkpt lat="34.7676352" lon="32.9448792"><ele>309.3</ele><time>2015-04-30T12:54:32.0000000+00:00</time></trkpt><trkpt lat="34.7676014" lon="32.9449294"><ele>309.7</ele><time>2015-04-30T12:54:36.0000000+00:00</time></trkpt><trkpt lat="34.7675727" lon="32.9449863"><ele>309.6</ele><time>2015-04-30T12:54:41.0000000+00:00</time></trkpt><trkpt lat="34.767541" lon="32.9450278"><ele>308.8</ele><time>2015-04-30T12:54:45.0000000+00:00</time></trkpt><trkpt lat="34.7675114" lon="32.945073"><ele>308.6</ele><time>2015-04-30T12:54:49.0000000+00:00</time></trkpt><trkpt lat="34.7674756" lon="32.9451181"><ele>308.8</ele><time>2015-04-30T12:54:53.0000000+00:00</time></trkpt><trkpt lat="34.7674475" lon="32.9451698"><ele>309.7</ele><time>2015-04-30T12:54:57.0000000+00:00</time></trkpt><trkpt lat="34.7674149" lon="32.9452127"><ele>310.9</ele><time>2015-04-30T12:55:01.0000000+00:00</time></trkpt><trkpt lat="34.76738" lon="32.945265"><ele>311.7</ele><time>2015-04-30T12:55:06.0000000+00:00</time></trkpt><trkpt lat="34.767347" lon="32.9453177"><ele>313.5</ele><time>2015-04-30T12:55:11.0000000+00:00</time></trkpt><trkpt lat="34.7673098" lon="32.9453708"><ele>315.1</ele><time>2015-04-30T12:55:16.0000000+00:00</time></trkpt><trkpt lat="34.7672794" lon="32.9454206"><ele>315.8</ele><time>2015-04-30T12:55:20.0000000+00:00</time></trkpt><trkpt lat="34.7672449" lon="32.9454668"><ele>316.7</ele><time>2015-04-30T12:55:24.0000000+00:00</time></trkpt><trkpt lat="34.7672143" lon="32.9455223"><ele>318.5</ele><time>2015-04-30T12:55:28.0000000+00:00</time></trkpt><trkpt lat="34.7671797" lon="32.9455754"><ele>318.7</ele><time>2015-04-30T12:55:32.0000000+00:00</time></trkpt><trkpt lat="34.7671493" lon="32.9456313"><ele>318.8</ele><time>2015-04-30T12:55:36.0000000+00:00</time></trkpt><trkpt lat="34.7671187" lon="32.9456861"><ele>320.5</ele><time>2015-04-30T12:55:40.0000000+00:00</time></trkpt><trkpt lat="34.7670839" lon="32.9457364"><ele>321.1</ele><time>2015-04-30T12:55:44.0000000+00:00</time></trkpt><trkpt lat="34.7670544" lon="32.9457892"><ele>322.1</ele><time>2015-04-30T12:55:48.0000000+00:00</time></trkpt><trkpt lat="34.7670216" lon="32.9458433"><ele>321.7</ele><time>2015-04-30T12:55:52.0000000+00:00</time></trkpt><trkpt lat="34.7669892" lon="32.9458914"><ele>322.3</ele><time>2015-04-30T12:55:56.0000000+00:00</time></trkpt><trkpt lat="34.7669578" lon="32.9459401"><ele>320.8</ele><time>2015-04-30T12:56:00.0000000+00:00</time></trkpt><trkpt lat="34.7669358" lon="32.9459995"><ele>318.7</ele><time>2015-04-30T12:56:04.0000000+00:00</time></trkpt><trkpt lat="34.7668959" lon="32.9460549"><ele>319.2</ele><time>2015-04-30T12:56:08.0000000+00:00</time></trkpt><trkpt lat="34.7668618" lon="32.9461072"><ele>320.4</ele><time>2015-04-30T12:56:11.0000000+00:00</time></trkpt><trkpt lat="34.7668276" lon="32.9461613"><ele>320.6</ele><time>2015-04-30T12:56:14.0000000+00:00</time></trkpt><trkpt lat="34.7667944" lon="32.9462162"><ele>321.6</ele><time>2015-04-30T12:56:17.0000000+00:00</time></trkpt><trkpt lat="34.7667555" lon="32.9462672"><ele>322.1</ele><time>2015-04-30T12:56:20.0000000+00:00</time></trkpt><trkpt lat="34.7667172" lon="32.9463023"><ele>323.3</ele><time>2015-04-30T12:56:23.0000000+00:00</time></trkpt><trkpt lat="34.7666778" lon="32.946358"><ele>325.7</ele><time>2015-04-30T12:56:27.0000000+00:00</time></trkpt><trkpt lat="34.7666505" lon="32.9464156"><ele>328.0</ele><time>2015-04-30T12:56:30.0000000+00:00</time></trkpt><trkpt lat="34.7666133" lon="32.9464726"><ele>330.8</ele><time>2015-04-30T12:56:33.0000000+00:00</time></trkpt><trkpt lat="34.7665699" lon="32.946525"><ele>331.5</ele><time>2015-04-30T12:56:36.0000000+00:00</time></trkpt><trkpt lat="34.7665279" lon="32.9465722"><ele>330.9</ele><time>2015-04-30T12:56:39.0000000+00:00</time></trkpt><trkpt lat="34.766486" lon="32.9466185"><ele>331.3</ele><time>2015-04-30T12:56:42.0000000+00:00</time></trkpt><trkpt lat="34.7664456" lon="32.9466635"><ele>329.3</ele><time>2015-04-30T12:56:45.0000000+00:00</time></trkpt><trkpt lat="34.7664104" lon="32.9467146"><ele>330.2</ele><time>2015-04-30T12:56:48.0000000+00:00</time></trkpt><trkpt lat="34.7663787" lon="32.9467613"><ele>329.8</ele><time>2015-04-30T12:56:51.0000000+00:00</time></trkpt><trkpt lat="34.7663209" lon="32.9467777"><ele>330.3</ele><time>2015-04-30T12:56:54.0000000+00:00</time></trkpt><trkpt lat="34.7662582" lon="32.9467708"><ele>329.5</ele><time>2015-04-30T12:56:57.0000000+00:00</time></trkpt><trkpt lat="34.7662301" lon="32.9468234"><ele>332.3</ele><time>2015-04-30T13:02:14.0000000+00:00</time></trkpt><trkpt lat="34.7661903" lon="32.9468634"><ele>337.7</ele><time>2015-04-30T13:02:19.0000000+00:00</time></trkpt><trkpt lat="34.7661466" lon="32.9468924"><ele>340.2</ele><time>2015-04-30T13:02:25.0000000+00:00</time></trkpt><trkpt lat="34.7661498" lon="32.9469668"><ele>339.4</ele><time>2015-04-30T13:02:38.0000000+00:00</time></trkpt><trkpt lat="34.766165" lon="32.9470191"><ele>337.7</ele><time>2015-04-30T13:02:40.0000000+00:00</time></trkpt><trkpt lat="34.7661468" lon="32.9470865"><ele>338.5</ele><time>2015-04-30T13:02:43.0000000+00:00</time></trkpt><trkpt lat="34.7661085" lon="32.9471402"><ele>338.7</ele><time>2015-04-30T13:02:46.0000000+00:00</time></trkpt><trkpt lat="34.7660651" lon="32.9471885"><ele>339.5</ele><time>2015-04-30T13:02:49.0000000+00:00</time></trkpt><trkpt lat="34.7660221" lon="32.9472469"><ele>341.9</ele><time>2015-04-30T13:02:52.0000000+00:00</time></trkpt><trkpt lat="34.7659856" lon="32.9472824"><ele>343.3</ele><time>2015-04-30T13:02:54.0000000+00:00</time></trkpt><trkpt lat="34.7659512" lon="32.9473202"><ele>345.6</ele><time>2015-04-30T13:02:56.0000000+00:00</time></trkpt><trkpt lat="34.765902" lon="32.9473739"><ele>345.8</ele><time>2015-04-30T13:02:59.0000000+00:00</time></trkpt><trkpt lat="34.7658647" lon="32.9474148"><ele>347.3</ele><time>2015-04-30T13:03:01.0000000+00:00</time></trkpt><trkpt lat="34.7658251" lon="32.9474564"><ele>348.4</ele><time>2015-04-30T13:03:03.0000000+00:00</time></trkpt><trkpt lat="34.7657836" lon="32.9474955"><ele>348.7</ele><time>2015-04-30T13:03:05.0000000+00:00</time></trkpt><trkpt lat="34.7657408" lon="32.9475338"><ele>348.0</ele><time>2015-04-30T13:03:07.0000000+00:00</time></trkpt><trkpt lat="34.7657" lon="32.9475771"><ele>348.1</ele><time>2015-04-30T13:03:09.0000000+00:00</time></trkpt><trkpt lat="34.7656613" lon="32.9476151"><ele>348.6</ele><time>2015-04-30T13:03:11.0000000+00:00</time></trkpt><trkpt lat="34.7656161" lon="32.9476522"><ele>349.5</ele><time>2015-04-30T13:03:13.0000000+00:00</time></trkpt><trkpt lat="34.7655702" lon="32.9476925"><ele>349.2</ele><time>2015-04-30T13:03:15.0000000+00:00</time></trkpt><trkpt lat="34.7655184" lon="32.9477323"><ele>349.6</ele><time>2015-04-30T13:03:17.0000000+00:00</time></trkpt><trkpt lat="34.7654687" lon="32.9477731"><ele>349.0</ele><time>2015-04-30T13:03:19.0000000+00:00</time></trkpt><trkpt lat="34.7654181" lon="32.9478119"><ele>349.1</ele><time>2015-04-30T13:03:21.0000000+00:00</time></trkpt><trkpt lat="34.7653676" lon="32.947853"><ele>349.3</ele><time>2015-04-30T13:03:23.0000000+00:00</time></trkpt><trkpt lat="34.7653168" lon="32.947898"><ele>350.2</ele><time>2015-04-30T13:03:25.0000000+00:00</time></trkpt><trkpt lat="34.7652657" lon="32.9479393"><ele>352.4</ele><time>2015-04-30T13:03:27.0000000+00:00</time></trkpt><trkpt lat="34.765211" lon="32.9479757"><ele>355.9</ele><time>2015-04-30T13:03:29.0000000+00:00</time></trkpt><trkpt lat="34.76516" lon="32.9480112"><ele>357.3</ele><time>2015-04-30T13:03:31.0000000+00:00</time></trkpt><trkpt lat="34.7651092" lon="32.9480505"><ele>357.9</ele><time>2015-04-30T13:03:33.0000000+00:00</time></trkpt><trkpt lat="34.7650584" lon="32.9480934"><ele>358.5</ele><time>2015-04-30T13:03:35.0000000+00:00</time></trkpt><trkpt lat="34.7650093" lon="32.9481382"><ele>358.7</ele><time>2015-04-30T13:03:37.0000000+00:00</time></trkpt><trkpt lat="34.7649612" lon="32.9481832"><ele>359.3</ele><time>2015-04-30T13:03:39.0000000+00:00</time></trkpt><trkpt lat="34.7649067" lon="32.9482328"><ele>360.4</ele><time>2015-04-30T13:03:41.0000000+00:00</time></trkpt><trkpt lat="34.7648452" lon="32.9482875"><ele>360.2</ele><time>2015-04-30T13:03:43.0000000+00:00</time></trkpt><trkpt lat="34.7647826" lon="32.9483411"><ele>360.4</ele><time>2015-04-30T13:03:45.0000000+00:00</time></trkpt><trkpt lat="34.7647246" lon="32.9483912"><ele>360.7</ele><time>2015-04-30T13:03:47.0000000+00:00</time></trkpt><trkpt lat="34.7646704" lon="32.9484427"><ele>361.0</ele><time>2015-04-30T13:03:49.0000000+00:00</time></trkpt><trkpt lat="34.7646165" lon="32.9484954"><ele>360.8</ele><time>2015-04-30T13:03:51.0000000+00:00</time></trkpt><trkpt lat="34.7645588" lon="32.9485441"><ele>361.5</ele><time>2015-04-30T13:03:53.0000000+00:00</time></trkpt><trkpt lat="34.7645029" lon="32.9485931"><ele>361.2</ele><time>2015-04-30T13:03:55.0000000+00:00</time></trkpt><trkpt lat="34.7644484" lon="32.9486451"><ele>360.4</ele><time>2015-04-30T13:03:57.0000000+00:00</time></trkpt><trkpt lat="34.7643918" lon="32.9486973"><ele>359.9</ele><time>2015-04-30T13:03:59.0000000+00:00</time></trkpt><trkpt lat="34.7643325" lon="32.9487506"><ele>360.1</ele><time>2015-04-30T13:04:01.0000000+00:00</time></trkpt><trkpt lat="34.7642732" lon="32.9488029"><ele>360.6</ele><time>2015-04-30T13:04:03.0000000+00:00</time></trkpt><trkpt lat="34.7642121" lon="32.9488546"><ele>361.2</ele><time>2015-04-30T13:04:05.0000000+00:00</time></trkpt><trkpt lat="34.7641472" lon="32.9489102"><ele>362.4</ele><time>2015-04-30T13:04:07.0000000+00:00</time></trkpt><trkpt lat="34.7640904" lon="32.9489565"><ele>362.1</ele><time>2015-04-30T13:04:08.0000000+00:00</time></trkpt><trkpt lat="34.7640546" lon="32.9489902"><ele>361.9</ele><time>2015-04-30T13:04:09.0000000+00:00</time></trkpt><trkpt lat="34.763985" lon="32.949061"><ele>361.8</ele><time>2015-04-30T13:04:11.0000000+00:00</time></trkpt><trkpt lat="34.7639467" lon="32.9490929"><ele>361.3</ele><time>2015-04-30T13:04:12.0000000+00:00</time></trkpt><trkpt lat="34.7639103" lon="32.949127"><ele>361.0</ele><time>2015-04-30T13:04:13.0000000+00:00</time></trkpt><trkpt lat="34.7638712" lon="32.9491589"><ele>360.9</ele><time>2015-04-30T13:04:14.0000000+00:00</time></trkpt><trkpt lat="34.7637943" lon="32.9492197"><ele>361.3</ele><time>2015-04-30T13:04:16.0000000+00:00</time></trkpt><trkpt lat="34.763725" lon="32.9492746"><ele>361.6</ele><time>2015-04-30T13:04:18.0000000+00:00</time></trkpt><trkpt lat="34.7636569" lon="32.9493397"><ele>361.7</ele><time>2015-04-30T13:04:20.0000000+00:00</time></trkpt><trkpt lat="34.7635898" lon="32.9493993"><ele>361.8</ele><time>2015-04-30T13:04:22.0000000+00:00</time></trkpt><trkpt lat="34.763523" lon="32.9494606"><ele>361.0</ele><time>2015-04-30T13:04:24.0000000+00:00</time></trkpt><trkpt lat="34.7634562" lon="32.9495178"><ele>361.3</ele><time>2015-04-30T13:04:26.0000000+00:00</time></trkpt><trkpt lat="34.7633879" lon="32.9495736"><ele>360.9</ele><time>2015-04-30T13:04:28.0000000+00:00</time></trkpt><trkpt lat="34.7633174" lon="32.9496293"><ele>361.6</ele><time>2015-04-30T13:04:30.0000000+00:00</time></trkpt><trkpt lat="34.7632456" lon="32.9496882"><ele>361.7</ele><time>2015-04-30T13:04:32.0000000+00:00</time></trkpt><trkpt lat="34.7631758" lon="32.9497498"><ele>360.3</ele><time>2015-04-30T13:04:34.0000000+00:00</time></trkpt><trkpt lat="34.7631326" lon="32.9497909"><ele>360.0</ele><time>2015-04-30T13:04:35.0000000+00:00</time></trkpt><trkpt lat="34.7630886" lon="32.949824"><ele>359.9</ele><time>2015-04-30T13:04:36.0000000+00:00</time></trkpt><trkpt lat="34.7630476" lon="32.9498607"><ele>359.3</ele><time>2015-04-30T13:04:37.0000000+00:00</time></trkpt><trkpt lat="34.7630109" lon="32.9498982"><ele>358.5</ele><time>2015-04-30T13:04:38.0000000+00:00</time></trkpt><trkpt lat="34.7629686" lon="32.9499332"><ele>358.2</ele><time>2015-04-30T13:04:39.0000000+00:00</time></trkpt><trkpt lat="34.7629206" lon="32.9499732"><ele>357.5</ele><time>2015-04-30T13:04:40.0000000+00:00</time></trkpt><trkpt lat="34.7628748" lon="32.9500113"><ele>357.1</ele><time>2015-04-30T13:04:41.0000000+00:00</time></trkpt><trkpt lat="34.7628259" lon="32.9500498"><ele>357.4</ele><time>2015-04-30T13:04:42.0000000+00:00</time></trkpt><trkpt lat="34.7627776" lon="32.9500862"><ele>357.1</ele><time>2015-04-30T13:04:43.0000000+00:00</time></trkpt><trkpt lat="34.7627219" lon="32.9501283"><ele>356.9</ele><time>2015-04-30T13:04:44.0000000+00:00</time></trkpt><trkpt lat="34.7626684" lon="32.9501787"><ele>356.8</ele><time>2015-04-30T13:04:45.0000000+00:00</time></trkpt><trkpt lat="34.762606" lon="32.9502234"><ele>357.3</ele><time>2015-04-30T13:04:46.0000000+00:00</time></trkpt><trkpt lat="34.7625418" lon="32.9502754"><ele>358.0</ele><time>2015-04-30T13:04:47.0000000+00:00</time></trkpt><trkpt lat="34.7624779" lon="32.950333"><ele>358.4</ele><time>2015-04-30T13:04:48.0000000+00:00</time></trkpt><trkpt lat="34.7624146" lon="32.9503904"><ele>358.6</ele><time>2015-04-30T13:04:49.0000000+00:00</time></trkpt><trkpt lat="34.7623504" lon="32.9504494"><ele>358.2</ele><time>2015-04-30T13:04:50.0000000+00:00</time></trkpt><trkpt lat="34.7622913" lon="32.950515"><ele>357.5</ele><time>2015-04-30T13:04:51.0000000+00:00</time></trkpt><trkpt lat="34.7622199" lon="32.950575"><ele>356.6</ele><time>2015-04-30T13:04:52.0000000+00:00</time></trkpt><trkpt lat="34.7621465" lon="32.9506368"><ele>356.7</ele><time>2015-04-30T13:04:53.0000000+00:00</time></trkpt><trkpt lat="34.7620745" lon="32.9506993"><ele>356.2</ele><time>2015-04-30T13:04:54.0000000+00:00</time></trkpt><trkpt lat="34.7619952" lon="32.9507637"><ele>356.0</ele><time>2015-04-30T13:04:55.0000000+00:00</time></trkpt><trkpt lat="34.7619115" lon="32.9508289"><ele>355.9</ele><time>2015-04-30T13:04:56.0000000+00:00</time></trkpt><trkpt lat="34.7618434" lon="32.9508964"><ele>354.8</ele><time>2015-04-30T13:04:57.0000000+00:00</time></trkpt><trkpt lat="34.7617658" lon="32.9509701"><ele>353.8</ele><time>2015-04-30T13:04:58.0000000+00:00</time></trkpt><trkpt lat="34.7616789" lon="32.9510454"><ele>352.8</ele><time>2015-04-30T13:04:59.0000000+00:00</time></trkpt><trkpt lat="34.7615875" lon="32.951124"><ele>351.8</ele><time>2015-04-30T13:05:00.0000000+00:00</time></trkpt><trkpt lat="34.7614932" lon="32.951205"><ele>351.3</ele><time>2015-04-30T13:05:01.0000000+00:00</time></trkpt><trkpt lat="34.7613965" lon="32.9512791"><ele>350.5</ele><time>2015-04-30T13:05:02.0000000+00:00</time></trkpt><trkpt lat="34.7613069" lon="32.9513454"><ele>349.1</ele><time>2015-04-30T13:05:03.0000000+00:00</time></trkpt><trkpt lat="34.7612034" lon="32.9514292"><ele>348.5</ele><time>2015-04-30T13:05:04.0000000+00:00</time></trkpt><trkpt lat="34.7611167" lon="32.9515168"><ele>346.6</ele><time>2015-04-30T13:05:05.0000000+00:00</time></trkpt><trkpt lat="34.7610205" lon="32.9516066"><ele>345.2</ele><time>2015-04-30T13:05:06.0000000+00:00</time></trkpt><trkpt lat="34.7609172" lon="32.9516914"><ele>344.0</ele><time>2015-04-30T13:05:07.0000000+00:00</time></trkpt><trkpt lat="34.7608223" lon="32.9517774"><ele>342.4</ele><time>2015-04-30T13:05:08.0000000+00:00</time></trkpt><trkpt lat="34.7607255" lon="32.9518592"><ele>341.1</ele><time>2015-04-30T13:05:09.0000000+00:00</time></trkpt><trkpt lat="34.7606206" lon="32.9519479"><ele>339.4</ele><time>2015-04-30T13:05:10.0000000+00:00</time></trkpt><trkpt lat="34.7605226" lon="32.9520348"><ele>338.1</ele><time>2015-04-30T13:05:11.0000000+00:00</time></trkpt><trkpt lat="34.7604192" lon="32.9521201"><ele>337.4</ele><time>2015-04-30T13:05:12.0000000+00:00</time></trkpt><trkpt lat="34.7603193" lon="32.9522068"><ele>337.1</ele><time>2015-04-30T13:05:13.0000000+00:00</time></trkpt><trkpt lat="34.7602179" lon="32.9522967"><ele>336.4</ele><time>2015-04-30T13:05:14.0000000+00:00</time></trkpt><trkpt lat="34.7601242" lon="32.9523824"><ele>335.6</ele><time>2015-04-30T13:05:15.0000000+00:00</time></trkpt><trkpt lat="34.7600189" lon="32.9524757"><ele>335.2</ele><time>2015-04-30T13:05:16.0000000+00:00</time></trkpt><trkpt lat="34.7599111" lon="32.952574"><ele>335.0</ele><time>2015-04-30T13:05:17.0000000+00:00</time></trkpt><trkpt lat="34.7598086" lon="32.9526708"><ele>333.9</ele><time>2015-04-30T13:05:18.0000000+00:00</time></trkpt><trkpt lat="34.7597084" lon="32.95277"><ele>332.3</ele><time>2015-04-30T13:05:19.0000000+00:00</time></trkpt><trkpt lat="34.7596014" lon="32.9528771"><ele>331.0</ele><time>2015-04-30T13:05:20.0000000+00:00</time></trkpt><trkpt lat="34.7594972" lon="32.952989"><ele>329.9</ele><time>2015-04-30T13:05:21.0000000+00:00</time></trkpt><trkpt lat="34.759395" lon="32.9531038"><ele>329.3</ele><time>2015-04-30T13:05:22.0000000+00:00</time></trkpt><trkpt lat="34.759297" lon="32.9532175"><ele>328.5</ele><time>2015-04-30T13:05:23.0000000+00:00</time></trkpt><trkpt lat="34.7591912" lon="32.9533461"><ele>327.7</ele><time>2015-04-30T13:05:24.0000000+00:00</time></trkpt><trkpt lat="34.7590932" lon="32.9534592"><ele>327.2</ele><time>2015-04-30T13:05:25.0000000+00:00</time></trkpt><trkpt lat="34.7590007" lon="32.9535818"><ele>326.5</ele><time>2015-04-30T13:05:26.0000000+00:00</time></trkpt><trkpt lat="34.7589085" lon="32.9537132"><ele>325.1</ele><time>2015-04-30T13:05:27.0000000+00:00</time></trkpt><trkpt lat="34.7588171" lon="32.9538634"><ele>323.9</ele><time>2015-04-30T13:05:28.0000000+00:00</time></trkpt><trkpt lat="34.7587332" lon="32.9540041"><ele>322.9</ele><time>2015-04-30T13:05:29.0000000+00:00</time></trkpt><trkpt lat="34.758646" lon="32.9541448"><ele>322.3</ele><time>2015-04-30T13:05:30.0000000+00:00</time></trkpt><trkpt lat="34.7585627" lon="32.9542912"><ele>322.0</ele><time>2015-04-30T13:05:31.0000000+00:00</time></trkpt><trkpt lat="34.7584718" lon="32.9544441"><ele>321.4</ele><time>2015-04-30T13:05:32.0000000+00:00</time></trkpt><trkpt lat="34.7583859" lon="32.9545851"><ele>320.6</ele><time>2015-04-30T13:05:33.0000000+00:00</time></trkpt><trkpt lat="34.7582999" lon="32.9547349"><ele>320.2</ele><time>2015-04-30T13:05:34.0000000+00:00</time></trkpt><trkpt lat="34.7582096" lon="32.9548817"><ele>319.5</ele><time>2015-04-30T13:05:35.0000000+00:00</time></trkpt><trkpt lat="34.7581172" lon="32.9550366"><ele>318.6</ele><time>2015-04-30T13:05:36.0000000+00:00</time></trkpt><trkpt lat="34.7580258" lon="32.9551848"><ele>317.7</ele><time>2015-04-30T13:05:37.0000000+00:00</time></trkpt><trkpt lat="34.7579354" lon="32.9553327"><ele>316.7</ele><time>2015-04-30T13:05:38.0000000+00:00</time></trkpt><trkpt lat="34.7578486" lon="32.9554737"><ele>316.2</ele><time>2015-04-30T13:05:39.0000000+00:00</time></trkpt><trkpt lat="34.7577601" lon="32.955623"><ele>315.5</ele><time>2015-04-30T13:05:40.0000000+00:00</time></trkpt><trkpt lat="34.7576742" lon="32.955765"><ele>315.1</ele><time>2015-04-30T13:05:41.0000000+00:00</time></trkpt><trkpt lat="34.7575916" lon="32.9559018"><ele>314.5</ele><time>2015-04-30T13:05:42.0000000+00:00</time></trkpt><trkpt lat="34.7575093" lon="32.956041"><ele>314.1</ele><time>2015-04-30T13:05:43.0000000+00:00</time></trkpt><trkpt lat="34.7574262" lon="32.9561815"><ele>313.4</ele><time>2015-04-30T13:05:44.0000000+00:00</time></trkpt><trkpt lat="34.7573426" lon="32.9563338"><ele>313.1</ele><time>2015-04-30T13:05:45.0000000+00:00</time></trkpt><trkpt lat="34.7572664" lon="32.9564701"><ele>312.4</ele><time>2015-04-30T13:05:46.0000000+00:00</time></trkpt><trkpt lat="34.7571962" lon="32.956601"><ele>311.1</ele><time>2015-04-30T13:05:47.0000000+00:00</time></trkpt><trkpt lat="34.7571157" lon="32.9567394"><ele>310.4</ele><time>2015-04-30T13:05:48.0000000+00:00</time></trkpt><trkpt lat="34.7570394" lon="32.9568601"><ele>309.1</ele><time>2015-04-30T13:05:49.0000000+00:00</time></trkpt><trkpt lat="34.7569612" lon="32.9569906"><ele>307.9</ele><time>2015-04-30T13:05:50.0000000+00:00</time></trkpt><trkpt lat="34.7568858" lon="32.9571291"><ele>306.8</ele><time>2015-04-30T13:05:51.0000000+00:00</time></trkpt><trkpt lat="34.7568105" lon="32.9572694"><ele>305.3</ele><time>2015-04-30T13:05:52.0000000+00:00</time></trkpt><trkpt lat="34.7567348" lon="32.9573973"><ele>304.5</ele><time>2015-04-30T13:05:53.0000000+00:00</time></trkpt><trkpt lat="34.7566565" lon="32.9575283"><ele>303.7</ele><time>2015-04-30T13:05:54.0000000+00:00</time></trkpt><trkpt lat="34.7565793" lon="32.9576576"><ele>303.2</ele><time>2015-04-30T13:05:55.0000000+00:00</time></trkpt><trkpt lat="34.7564983" lon="32.9577829"><ele>302.0</ele><time>2015-04-30T13:05:56.0000000+00:00</time></trkpt><trkpt lat="34.7564206" lon="32.957907"><ele>301.4</ele><time>2015-04-30T13:05:57.0000000+00:00</time></trkpt><trkpt lat="34.7563435" lon="32.9580298"><ele>300.1</ele><time>2015-04-30T13:05:58.0000000+00:00</time></trkpt><trkpt lat="34.7562794" lon="32.9581493"><ele>299.4</ele><time>2015-04-30T13:05:59.0000000+00:00</time></trkpt><trkpt lat="34.756208" lon="32.9582778"><ele>299.1</ele><time>2015-04-30T13:06:00.0000000+00:00</time></trkpt><trkpt lat="34.7561338" lon="32.9584052"><ele>298.9</ele><time>2015-04-30T13:06:01.0000000+00:00</time></trkpt><trkpt lat="34.7560546" lon="32.9585265"><ele>298.3</ele><time>2015-04-30T13:06:02.0000000+00:00</time></trkpt><trkpt lat="34.7559755" lon="32.9586546"><ele>298.1</ele><time>2015-04-30T13:06:03.0000000+00:00</time></trkpt><trkpt lat="34.755912" lon="32.9587834"><ele>296.4</ele><time>2015-04-30T13:06:04.0000000+00:00</time></trkpt><trkpt lat="34.7558357" lon="32.9589042"><ele>294.1</ele><time>2015-04-30T13:06:05.0000000+00:00</time></trkpt><trkpt lat="34.755762" lon="32.9590295"><ele>291.9</ele><time>2015-04-30T13:06:06.0000000+00:00</time></trkpt><trkpt lat="34.7556881" lon="32.9591606"><ele>290.3</ele><time>2015-04-30T13:06:07.0000000+00:00</time></trkpt><trkpt lat="34.7556184" lon="32.9592927"><ele>288.6</ele><time>2015-04-30T13:06:08.0000000+00:00</time></trkpt><trkpt lat="34.7555611" lon="32.9594331"><ele>286.2</ele><time>2015-04-30T13:06:09.0000000+00:00</time></trkpt><trkpt lat="34.7554987" lon="32.9595646"><ele>284.0</ele><time>2015-04-30T13:06:10.0000000+00:00</time></trkpt><trkpt lat="34.7554362" lon="32.9596995"><ele>282.9</ele><time>2015-04-30T13:06:11.0000000+00:00</time></trkpt><trkpt lat="34.7553708" lon="32.9598371"><ele>281.3</ele><time>2015-04-30T13:06:12.0000000+00:00</time></trkpt><trkpt lat="34.75532" lon="32.9599755"><ele>280.0</ele><time>2015-04-30T13:06:13.0000000+00:00</time></trkpt><trkpt lat="34.7552701" lon="32.9600987"><ele>279.9</ele><time>2015-04-30T13:06:14.0000000+00:00</time></trkpt><trkpt lat="34.7552345" lon="32.9602295"><ele>279.3</ele><time>2015-04-30T13:06:15.0000000+00:00</time></trkpt><trkpt lat="34.7551831" lon="32.9603685"><ele>278.0</ele><time>2015-04-30T13:06:16.0000000+00:00</time></trkpt><trkpt lat="34.7551306" lon="32.9604988"><ele>276.9</ele><time>2015-04-30T13:06:17.0000000+00:00</time></trkpt><trkpt lat="34.7550758" lon="32.9606268"><ele>275.8</ele><time>2015-04-30T13:06:18.0000000+00:00</time></trkpt><trkpt lat="34.7550346" lon="32.960738"><ele>275.3</ele><time>2015-04-30T13:06:19.0000000+00:00</time></trkpt><trkpt lat="34.7549832" lon="32.9608622"><ele>275.5</ele><time>2015-04-30T13:06:20.0000000+00:00</time></trkpt><trkpt lat="34.7549429" lon="32.9609699"><ele>275.6</ele><time>2015-04-30T13:06:21.0000000+00:00</time></trkpt><trkpt lat="34.7548962" lon="32.9610829"><ele>275.7</ele><time>2015-04-30T13:06:22.0000000+00:00</time></trkpt><trkpt lat="34.7548497" lon="32.9612026"><ele>275.7</ele><time>2015-04-30T13:06:23.0000000+00:00</time></trkpt><trkpt lat="34.754803" lon="32.9613143"><ele>275.8</ele><time>2015-04-30T13:06:24.0000000+00:00</time></trkpt><trkpt lat="34.7547528" lon="32.9614229"><ele>275.8</ele><time>2015-04-30T13:06:25.0000000+00:00</time></trkpt><trkpt lat="34.7547125" lon="32.9615267"><ele>275.3</ele><time>2015-04-30T13:06:26.0000000+00:00</time></trkpt><trkpt lat="34.7546671" lon="32.9616368"><ele>275.0</ele><time>2015-04-30T13:06:27.0000000+00:00</time></trkpt><trkpt lat="34.7546159" lon="32.9617555"><ele>274.4</ele><time>2015-04-30T13:06:28.0000000+00:00</time></trkpt><trkpt lat="34.754567" lon="32.9618688"><ele>274.1</ele><time>2015-04-30T13:06:29.0000000+00:00</time></trkpt><trkpt lat="34.7545202" lon="32.9619739"><ele>273.9</ele><time>2015-04-30T13:06:30.0000000+00:00</time></trkpt><trkpt lat="34.7544758" lon="32.9620797"><ele>274.3</ele><time>2015-04-30T13:06:31.0000000+00:00</time></trkpt><trkpt lat="34.7544387" lon="32.962192"><ele>275.1</ele><time>2015-04-30T13:06:32.0000000+00:00</time></trkpt><trkpt lat="34.7543886" lon="32.9623144"><ele>275.4</ele><time>2015-04-30T13:06:33.0000000+00:00</time></trkpt><trkpt lat="34.754349" lon="32.9624249"><ele>276.1</ele><time>2015-04-30T13:06:34.0000000+00:00</time></trkpt><trkpt lat="34.7543023" lon="32.9625366"><ele>275.9</ele><time>2015-04-30T13:06:35.0000000+00:00</time></trkpt><trkpt lat="34.7542553" lon="32.9626566"><ele>275.8</ele><time>2015-04-30T13:06:36.0000000+00:00</time></trkpt><trkpt lat="34.7542103" lon="32.9627802"><ele>275.8</ele><time>2015-04-30T13:06:37.0000000+00:00</time></trkpt><trkpt lat="34.7541608" lon="32.962894"><ele>275.3</ele><time>2015-04-30T13:06:38.0000000+00:00</time></trkpt><trkpt lat="34.7541054" lon="32.9630106"><ele>275.0</ele><time>2015-04-30T13:06:39.0000000+00:00</time></trkpt><trkpt lat="34.7540511" lon="32.9631347"><ele>274.4</ele><time>2015-04-30T13:06:40.0000000+00:00</time></trkpt><trkpt lat="34.7540026" lon="32.9632535"><ele>274.1</ele><time>2015-04-30T13:06:41.0000000+00:00</time></trkpt><trkpt lat="34.7539561" lon="32.9633712"><ele>273.4</ele><time>2015-04-30T13:06:42.0000000+00:00</time></trkpt><trkpt lat="34.7538977" lon="32.9634889"><ele>273.1</ele><time>2015-04-30T13:06:43.0000000+00:00</time></trkpt><trkpt lat="34.7538429" lon="32.9636243"><ele>272.4</ele><time>2015-04-30T13:06:44.0000000+00:00</time></trkpt><trkpt lat="34.7537933" lon="32.9637506"><ele>272.1</ele><time>2015-04-30T13:06:45.0000000+00:00</time></trkpt><trkpt lat="34.7537384" lon="32.96389"><ele>270.4</ele><time>2015-04-30T13:06:46.0000000+00:00</time></trkpt><trkpt lat="34.7536827" lon="32.9640288"><ele>270.6</ele><time>2015-04-30T13:06:47.0000000+00:00</time></trkpt><trkpt lat="34.7536269" lon="32.9641717"><ele>270.2</ele><time>2015-04-30T13:06:48.0000000+00:00</time></trkpt><trkpt lat="34.7535684" lon="32.9643162"><ele>269.5</ele><time>2015-04-30T13:06:49.0000000+00:00</time></trkpt><trkpt lat="34.753511" lon="32.9644481"><ele>269.1</ele><time>2015-04-30T13:06:50.0000000+00:00</time></trkpt><trkpt lat="34.7534553" lon="32.9645864"><ele>268.4</ele><time>2015-04-30T13:06:51.0000000+00:00</time></trkpt><trkpt lat="34.7533986" lon="32.9647368"><ele>267.6</ele><time>2015-04-30T13:06:52.0000000+00:00</time></trkpt><trkpt lat="34.7533414" lon="32.964889"><ele>265.7</ele><time>2015-04-30T13:06:53.0000000+00:00</time></trkpt><trkpt lat="34.7532821" lon="32.9650246"><ele>264.7</ele><time>2015-04-30T13:06:54.0000000+00:00</time></trkpt><trkpt lat="34.7532275" lon="32.9651572"><ele>263.2</ele><time>2015-04-30T13:06:55.0000000+00:00</time></trkpt><trkpt lat="34.7531667" lon="32.9653074"><ele>262.5</ele><time>2015-04-30T13:06:56.0000000+00:00</time></trkpt><trkpt lat="34.7531112" lon="32.9654497"><ele>261.6</ele><time>2015-04-30T13:06:57.0000000+00:00</time></trkpt><trkpt lat="34.7530574" lon="32.965589"><ele>260.2</ele><time>2015-04-30T13:06:58.0000000+00:00</time></trkpt><trkpt lat="34.7529943" lon="32.9657294"><ele>259.5</ele><time>2015-04-30T13:06:59.0000000+00:00</time></trkpt><trkpt lat="34.7529339" lon="32.9658822"><ele>258.1</ele><time>2015-04-30T13:07:00.0000000+00:00</time></trkpt><trkpt lat="34.7528834" lon="32.9660407"><ele>256.9</ele><time>2015-04-30T13:07:01.0000000+00:00</time></trkpt><trkpt lat="34.7528257" lon="32.9661893"><ele>255.9</ele><time>2015-04-30T13:07:02.0000000+00:00</time></trkpt><trkpt lat="34.7527668" lon="32.9663317"><ele>255.3</ele><time>2015-04-30T13:07:03.0000000+00:00</time></trkpt><trkpt lat="34.7527052" lon="32.9664776"><ele>255.0</ele><time>2015-04-30T13:07:04.0000000+00:00</time></trkpt><trkpt lat="34.7526543" lon="32.9666213"><ele>253.9</ele><time>2015-04-30T13:07:05.0000000+00:00</time></trkpt><trkpt lat="34.7525997" lon="32.966766"><ele>252.3</ele><time>2015-04-30T13:07:06.0000000+00:00</time></trkpt><trkpt lat="34.7525434" lon="32.9669066"><ele>251.0</ele><time>2015-04-30T13:07:07.0000000+00:00</time></trkpt><trkpt lat="34.7524817" lon="32.9670499"><ele>249.9</ele><time>2015-04-30T13:07:08.0000000+00:00</time></trkpt><trkpt lat="34.7524239" lon="32.9671898"><ele>248.8</ele><time>2015-04-30T13:07:09.0000000+00:00</time></trkpt><trkpt lat="34.7523677" lon="32.9673259"><ele>248.3</ele><time>2015-04-30T13:07:10.0000000+00:00</time></trkpt><trkpt lat="34.7523169" lon="32.9674681"><ele>247.0</ele><time>2015-04-30T13:07:11.0000000+00:00</time></trkpt><trkpt lat="34.7522556" lon="32.9676069"><ele>246.4</ele><time>2015-04-30T13:07:12.0000000+00:00</time></trkpt><trkpt lat="34.7522001" lon="32.9677466"><ele>245.6</ele><time>2015-04-30T13:07:13.0000000+00:00</time></trkpt><trkpt lat="34.7521505" lon="32.9678888"><ele>244.7</ele><time>2015-04-30T13:07:14.0000000+00:00</time></trkpt><trkpt lat="34.7520879" lon="32.9680287"><ele>243.7</ele><time>2015-04-30T13:07:15.0000000+00:00</time></trkpt><trkpt lat="34.7520276" lon="32.9681708"><ele>243.2</ele><time>2015-04-30T13:07:16.0000000+00:00</time></trkpt><trkpt lat="34.7519718" lon="32.968296"><ele>243.5</ele><time>2015-04-30T13:07:17.0000000+00:00</time></trkpt><trkpt lat="34.7519196" lon="32.9684222"><ele>244.1</ele><time>2015-04-30T13:07:18.0000000+00:00</time></trkpt><trkpt lat="34.7518559" lon="32.9685452"><ele>244.4</ele><time>2015-04-30T13:07:19.0000000+00:00</time></trkpt><trkpt lat="34.751792" lon="32.9686736"><ele>245.1</ele><time>2015-04-30T13:07:20.0000000+00:00</time></trkpt><trkpt lat="34.7517229" lon="32.9687879"><ele>245.4</ele><time>2015-04-30T13:07:21.0000000+00:00</time></trkpt><trkpt lat="34.7516521" lon="32.9688893"><ele>245.6</ele><time>2015-04-30T13:07:22.0000000+00:00</time></trkpt><trkpt lat="34.7515719" lon="32.9690017"><ele>245.7</ele><time>2015-04-30T13:07:23.0000000+00:00</time></trkpt><trkpt lat="34.7514878" lon="32.9690924"><ele>245.2</ele><time>2015-04-30T13:07:24.0000000+00:00</time></trkpt><trkpt lat="34.7514114" lon="32.9691906"><ele>245.0</ele><time>2015-04-30T13:07:25.0000000+00:00</time></trkpt><trkpt lat="34.7513315" lon="32.9692749"><ele>245.4</ele><time>2015-04-30T13:07:26.0000000+00:00</time></trkpt><trkpt lat="34.7512473" lon="32.9693706"><ele>246.1</ele><time>2015-04-30T13:07:27.0000000+00:00</time></trkpt><trkpt lat="34.7511616" lon="32.9694662"><ele>246.4</ele><time>2015-04-30T13:07:28.0000000+00:00</time></trkpt><trkpt lat="34.751075" lon="32.9695621"><ele>247.1</ele><time>2015-04-30T13:07:29.0000000+00:00</time></trkpt><trkpt lat="34.7510026" lon="32.9696477"><ele>247.4</ele><time>2015-04-30T13:07:30.0000000+00:00</time></trkpt><trkpt lat="34.7509284" lon="32.9697305"><ele>247.1</ele><time>2015-04-30T13:07:31.0000000+00:00</time></trkpt><trkpt lat="34.7508561" lon="32.969815"><ele>247.4</ele><time>2015-04-30T13:07:32.0000000+00:00</time></trkpt><trkpt lat="34.7507794" lon="32.9699051"><ele>247.6</ele><time>2015-04-30T13:07:33.0000000+00:00</time></trkpt><trkpt lat="34.7507084" lon="32.9699871"><ele>247.2</ele><time>2015-04-30T13:07:34.0000000+00:00</time></trkpt><trkpt lat="34.7506354" lon="32.9700703"><ele>247.0</ele><time>2015-04-30T13:07:35.0000000+00:00</time></trkpt><trkpt lat="34.7505648" lon="32.9701499"><ele>246.4</ele><time>2015-04-30T13:07:36.0000000+00:00</time></trkpt><trkpt lat="34.7504943" lon="32.9702234"><ele>245.6</ele><time>2015-04-30T13:07:37.0000000+00:00</time></trkpt><trkpt lat="34.7504328" lon="32.9702857"><ele>244.7</ele><time>2015-04-30T13:07:38.0000000+00:00</time></trkpt><trkpt lat="34.7503602" lon="32.9703599"><ele>244.2</ele><time>2015-04-30T13:07:39.0000000+00:00</time></trkpt><trkpt lat="34.7502852" lon="32.9704391"><ele>244.5</ele><time>2015-04-30T13:07:40.0000000+00:00</time></trkpt><trkpt lat="34.7502111" lon="32.9705128"><ele>245.1</ele><time>2015-04-30T13:07:41.0000000+00:00</time></trkpt><trkpt lat="34.7501465" lon="32.9705859"><ele>244.9</ele><time>2015-04-30T13:07:42.0000000+00:00</time></trkpt><trkpt lat="34.7500822" lon="32.9706611"><ele>244.4</ele><time>2015-04-30T13:07:43.0000000+00:00</time></trkpt><trkpt lat="34.7500081" lon="32.9707396"><ele>243.6</ele><time>2015-04-30T13:07:44.0000000+00:00</time></trkpt><trkpt lat="34.7499397" lon="32.9708182"><ele>243.7</ele><time>2015-04-30T13:07:45.0000000+00:00</time></trkpt><trkpt lat="34.7498745" lon="32.9708972"><ele>243.7</ele><time>2015-04-30T13:07:46.0000000+00:00</time></trkpt><trkpt lat="34.7498031" lon="32.9709733"><ele>243.2</ele><time>2015-04-30T13:07:47.0000000+00:00</time></trkpt><trkpt lat="34.7497285" lon="32.9710614"><ele>243.0</ele><time>2015-04-30T13:07:48.0000000+00:00</time></trkpt><trkpt lat="34.7496584" lon="32.9711445"><ele>242.4</ele><time>2015-04-30T13:07:49.0000000+00:00</time></trkpt><trkpt lat="34.7495902" lon="32.9712209"><ele>242.1</ele><time>2015-04-30T13:07:50.0000000+00:00</time></trkpt><trkpt lat="34.749509" lon="32.971302"><ele>241.4</ele><time>2015-04-30T13:07:51.0000000+00:00</time></trkpt><trkpt lat="34.7494294" lon="32.9713818"><ele>241.1</ele><time>2015-04-30T13:07:52.0000000+00:00</time></trkpt><trkpt lat="34.749355" lon="32.9714622"><ele>240.9</ele><time>2015-04-30T13:07:53.0000000+00:00</time></trkpt><trkpt lat="34.7492766" lon="32.9715403"><ele>241.3</ele><time>2015-04-30T13:07:54.0000000+00:00</time></trkpt><trkpt lat="34.7492045" lon="32.9716146"><ele>241.6</ele><time>2015-04-30T13:07:55.0000000+00:00</time></trkpt><trkpt lat="34.7491227" lon="32.9717028"><ele>241.7</ele><time>2015-04-30T13:07:56.0000000+00:00</time></trkpt><trkpt lat="34.7490399" lon="32.9717848"><ele>241.7</ele><time>2015-04-30T13:07:57.0000000+00:00</time></trkpt><trkpt lat="34.7489677" lon="32.9718709"><ele>241.7</ele><time>2015-04-30T13:07:58.0000000+00:00</time></trkpt><trkpt lat="34.7488818" lon="32.9719598"><ele>240.8</ele><time>2015-04-30T13:07:59.0000000+00:00</time></trkpt><trkpt lat="34.7487876" lon="32.9720552"><ele>240.3</ele><time>2015-04-30T13:08:00.0000000+00:00</time></trkpt><trkpt lat="34.7487018" lon="32.9721447"><ele>240.0</ele><time>2015-04-30T13:08:01.0000000+00:00</time></trkpt><trkpt lat="34.7486168" lon="32.9722513"><ele>239.4</ele><time>2015-04-30T13:08:02.0000000+00:00</time></trkpt><trkpt lat="34.7485351" lon="32.9723444"><ele>238.6</ele><time>2015-04-30T13:08:03.0000000+00:00</time></trkpt><trkpt lat="34.7484593" lon="32.9724512"><ele>235.7</ele><time>2015-04-30T13:08:04.0000000+00:00</time></trkpt><trkpt lat="34.7483601" lon="32.972542"><ele>235.2</ele><time>2015-04-30T13:08:05.0000000+00:00</time></trkpt><trkpt lat="34.7482774" lon="32.9726314"><ele>235.0</ele><time>2015-04-30T13:08:06.0000000+00:00</time></trkpt><trkpt lat="34.7481915" lon="32.9727204"><ele>234.4</ele><time>2015-04-30T13:08:07.0000000+00:00</time></trkpt><trkpt lat="34.7480983" lon="32.9728092"><ele>234.1</ele><time>2015-04-30T13:08:08.0000000+00:00</time></trkpt><trkpt lat="34.7480054" lon="32.9729041"><ele>233.9</ele><time>2015-04-30T13:08:09.0000000+00:00</time></trkpt><trkpt lat="34.7479158" lon="32.9729968"><ele>233.8</ele><time>2015-04-30T13:08:10.0000000+00:00</time></trkpt><trkpt lat="34.7478288" lon="32.9730959"><ele>233.3</ele><time>2015-04-30T13:08:11.0000000+00:00</time></trkpt><trkpt lat="34.7477328" lon="32.9732003"><ele>233.0</ele><time>2015-04-30T13:08:12.0000000+00:00</time></trkpt><trkpt lat="34.7476374" lon="32.9733057"><ele>232.4</ele><time>2015-04-30T13:08:13.0000000+00:00</time></trkpt><trkpt lat="34.7475358" lon="32.9734112"><ele>232.1</ele><time>2015-04-30T13:08:14.0000000+00:00</time></trkpt><trkpt lat="34.7474426" lon="32.9735165"><ele>230.9</ele><time>2015-04-30T13:08:15.0000000+00:00</time></trkpt><trkpt lat="34.7473407" lon="32.9736229"><ele>230.3</ele><time>2015-04-30T13:08:16.0000000+00:00</time></trkpt><trkpt lat="34.7472496" lon="32.9737148"><ele>229.6</ele><time>2015-04-30T13:08:17.0000000+00:00</time></trkpt><trkpt lat="34.7471718" lon="32.9738375"><ele>227.2</ele><time>2015-04-30T13:08:18.0000000+00:00</time></trkpt><trkpt lat="34.7470725" lon="32.9739418"><ele>225.5</ele><time>2015-04-30T13:08:19.0000000+00:00</time></trkpt><trkpt lat="34.7469659" lon="32.9740564"><ele>224.1</ele><time>2015-04-30T13:08:20.0000000+00:00</time></trkpt><trkpt lat="34.74686" lon="32.974168"><ele>223.4</ele><time>2015-04-30T13:08:21.0000000+00:00</time></trkpt><trkpt lat="34.7467709" lon="32.9742837"><ele>222.1</ele><time>2015-04-30T13:08:22.0000000+00:00</time></trkpt><trkpt lat="34.7466776" lon="32.9744053"><ele>220.9</ele><time>2015-04-30T13:08:23.0000000+00:00</time></trkpt><trkpt lat="34.7465767" lon="32.9745297"><ele>220.3</ele><time>2015-04-30T13:08:24.0000000+00:00</time></trkpt><trkpt lat="34.7464963" lon="32.9746542"><ele>219.1</ele><time>2015-04-30T13:08:25.0000000+00:00</time></trkpt><trkpt lat="34.7464047" lon="32.9747651"><ele>218.9</ele><time>2015-04-30T13:08:26.0000000+00:00</time></trkpt><trkpt lat="34.7463225" lon="32.9748758"><ele>218.8</ele><time>2015-04-30T13:08:27.0000000+00:00</time></trkpt><trkpt lat="34.7462402" lon="32.9749933"><ele>218.8</ele><time>2015-04-30T13:08:28.0000000+00:00</time></trkpt><trkpt lat="34.746174" lon="32.9751066"><ele>218.3</ele><time>2015-04-30T13:08:29.0000000+00:00</time></trkpt><trkpt lat="34.7461013" lon="32.9752181"><ele>218.0</ele><time>2015-04-30T13:08:30.0000000+00:00</time></trkpt><trkpt lat="34.7460295" lon="32.9753258"><ele>217.9</ele><time>2015-04-30T13:08:31.0000000+00:00</time></trkpt><trkpt lat="34.7459721" lon="32.9754321"><ele>217.3</ele><time>2015-04-30T13:08:32.0000000+00:00</time></trkpt><trkpt lat="34.7459364" lon="32.9755461"><ele>215.5</ele><time>2015-04-30T13:08:33.0000000+00:00</time></trkpt><trkpt lat="34.7458904" lon="32.9756584"><ele>214.2</ele><time>2015-04-30T13:08:34.0000000+00:00</time></trkpt><trkpt lat="34.7458434" lon="32.9757623"><ele>213.5</ele><time>2015-04-30T13:08:35.0000000+00:00</time></trkpt><trkpt lat="34.7458052" lon="32.9758718"><ele>212.6</ele><time>2015-04-30T13:08:36.0000000+00:00</time></trkpt><trkpt lat="34.7457646" lon="32.9759645"><ele>212.2</ele><time>2015-04-30T13:08:37.0000000+00:00</time></trkpt><trkpt lat="34.7457254" lon="32.9760476"><ele>212.0</ele><time>2015-04-30T13:08:38.0000000+00:00</time></trkpt><trkpt lat="34.7456946" lon="32.976138"><ele>212.4</ele><time>2015-04-30T13:08:39.0000000+00:00</time></trkpt><trkpt lat="34.7456608" lon="32.976219"><ele>212.1</ele><time>2015-04-30T13:08:40.0000000+00:00</time></trkpt><trkpt lat="34.74563" lon="32.9762997"><ele>211.9</ele><time>2015-04-30T13:08:41.0000000+00:00</time></trkpt><trkpt lat="34.7456088" lon="32.9763757"><ele>211.8</ele><time>2015-04-30T13:08:42.0000000+00:00</time></trkpt><trkpt lat="34.745584" lon="32.9764388"><ele>213.3</ele><time>2015-04-30T13:08:43.0000000+00:00</time></trkpt><trkpt lat="34.7455638" lon="32.976494"><ele>213.5</ele><time>2015-04-30T13:08:44.0000000+00:00</time></trkpt><trkpt lat="34.7455397" lon="32.976554"><ele>214.1</ele><time>2015-04-30T13:08:45.0000000+00:00</time></trkpt><trkpt lat="34.7455186" lon="32.9766105"><ele>214.5</ele><time>2015-04-30T13:08:46.0000000+00:00</time></trkpt><trkpt lat="34.7454996" lon="32.9766662"><ele>214.6</ele><time>2015-04-30T13:08:47.0000000+00:00</time></trkpt><trkpt lat="34.7454756" lon="32.9767516"><ele>215.2</ele><time>2015-04-30T13:08:49.0000000+00:00</time></trkpt><trkpt lat="34.7454605" lon="32.9768505"><ele>214.4</ele><time>2015-04-30T13:08:51.0000000+00:00</time></trkpt><trkpt lat="34.7454517" lon="32.9769192"><ele>213.9</ele><time>2015-04-30T13:08:53.0000000+00:00</time></trkpt><trkpt lat="34.7454373" lon="32.9769812"><ele>213.3</ele><time>2015-04-30T13:08:55.0000000+00:00</time></trkpt><trkpt lat="34.7454204" lon="32.9770607"><ele>211.8</ele><time>2015-04-30T13:08:58.0000000+00:00</time></trkpt><trkpt lat="34.7454099" lon="32.9771191"><ele>210.3</ele><time>2015-04-30T13:09:00.0000000+00:00</time></trkpt><trkpt lat="34.7453958" lon="32.9771951"><ele>208.7</ele><time>2015-04-30T13:09:03.0000000+00:00</time></trkpt><trkpt lat="34.7453813" lon="32.9772504"><ele>210.0</ele><time>2015-04-30T13:09:05.0000000+00:00</time></trkpt><trkpt lat="34.745367" lon="32.9773072"><ele>212.3</ele><time>2015-04-30T13:09:07.0000000+00:00</time></trkpt><trkpt lat="34.7453556" lon="32.9773656"><ele>213.2</ele><time>2015-04-30T13:09:09.0000000+00:00</time></trkpt><trkpt lat="34.7453475" lon="32.9774252"><ele>212.6</ele><time>2015-04-30T13:09:11.0000000+00:00</time></trkpt><trkpt lat="34.7453437" lon="32.9774852"><ele>211.7</ele><time>2015-04-30T13:09:13.0000000+00:00</time></trkpt><trkpt lat="34.745336" lon="32.977541"><ele>211.8</ele><time>2015-04-30T13:09:15.0000000+00:00</time></trkpt><trkpt lat="34.7453255" lon="32.9775952"><ele>211.0</ele><time>2015-04-30T13:09:17.0000000+00:00</time></trkpt><trkpt lat="34.7453073" lon="32.9776633"><ele>209.2</ele><time>2015-04-30T13:09:20.0000000+00:00</time></trkpt><trkpt lat="34.745297" lon="32.977728"><ele>208.3</ele><time>2015-04-30T13:09:23.0000000+00:00</time></trkpt><trkpt lat="34.7452842" lon="32.9777881"><ele>207.8</ele><time>2015-04-30T13:09:26.0000000+00:00</time></trkpt><trkpt lat="34.7452765" lon="32.9778493"><ele>208.1</ele><time>2015-04-30T13:09:29.0000000+00:00</time></trkpt><trkpt lat="34.7452707" lon="32.9779181"><ele>207.0</ele><time>2015-04-30T13:09:33.0000000+00:00</time></trkpt><trkpt lat="34.74526" lon="32.977973"><ele>208.2</ele><time>2015-04-30T13:09:36.0000000+00:00</time></trkpt><trkpt lat="34.7452509" lon="32.9780478"><ele>209.4</ele><time>2015-04-30T13:09:40.0000000+00:00</time></trkpt><trkpt lat="34.7452453" lon="32.9781079"><ele>208.5</ele><time>2015-04-30T13:09:43.0000000+00:00</time></trkpt><trkpt lat="34.7452285" lon="32.9781722"><ele>210.1</ele><time>2015-04-30T13:09:46.0000000+00:00</time></trkpt><trkpt lat="34.7452177" lon="32.9782382"><ele>210.7</ele><time>2015-04-30T13:09:49.0000000+00:00</time></trkpt><trkpt lat="34.7452084" lon="32.9783054"><ele>210.8</ele><time>2015-04-30T13:09:52.0000000+00:00</time></trkpt><trkpt lat="34.7451932" lon="32.9783733"><ele>210.3</ele><time>2015-04-30T13:09:55.0000000+00:00</time></trkpt><trkpt lat="34.7451701" lon="32.9784361"><ele>210.6</ele><time>2015-04-30T13:09:58.0000000+00:00</time></trkpt><trkpt lat="34.7451548" lon="32.9784994"><ele>210.0</ele><time>2015-04-30T13:10:01.0000000+00:00</time></trkpt><trkpt lat="34.7451535" lon="32.9785653"><ele>208.4</ele><time>2015-04-30T13:10:04.0000000+00:00</time></trkpt><trkpt lat="34.7451562" lon="32.9786348"><ele>207.1</ele><time>2015-04-30T13:10:07.0000000+00:00</time></trkpt><trkpt lat="34.7451495" lon="32.978701"><ele>206.4</ele><time>2015-04-30T13:10:10.0000000+00:00</time></trkpt><trkpt lat="34.7451344" lon="32.9787661"><ele>207.6</ele><time>2015-04-30T13:10:13.0000000+00:00</time></trkpt><trkpt lat="34.7451251" lon="32.9788334"><ele>207.2</ele><time>2015-04-30T13:10:16.0000000+00:00</time></trkpt><trkpt lat="34.7451163" lon="32.9788947"><ele>206.7</ele><time>2015-04-30T13:10:19.0000000+00:00</time></trkpt><trkpt lat="34.7451082" lon="32.9789576"><ele>207.6</ele><time>2015-04-30T13:10:22.0000000+00:00</time></trkpt><trkpt lat="34.7450989" lon="32.9790226"><ele>208.5</ele><time>2015-04-30T13:10:25.0000000+00:00</time></trkpt><trkpt lat="34.7450854" lon="32.9790887"><ele>210.4</ele><time>2015-04-30T13:10:28.0000000+00:00</time></trkpt><trkpt lat="34.7450681" lon="32.9791506"><ele>210.7</ele><time>2015-04-30T13:10:31.0000000+00:00</time></trkpt><trkpt lat="34.7450518" lon="32.979214"><ele>212.0</ele><time>2015-04-30T13:10:34.0000000+00:00</time></trkpt><trkpt lat="34.745045" lon="32.9792799"><ele>211.4</ele><time>2015-04-30T13:10:37.0000000+00:00</time></trkpt><trkpt lat="34.7450335" lon="32.9793455"><ele>212.7</ele><time>2015-04-30T13:10:40.0000000+00:00</time></trkpt><trkpt lat="34.7450201" lon="32.979409"><ele>216.0</ele><time>2015-04-30T13:10:43.0000000+00:00</time></trkpt><trkpt lat="34.7450071" lon="32.9794781"><ele>216.8</ele><time>2015-04-30T13:10:46.0000000+00:00</time></trkpt><trkpt lat="34.7449977" lon="32.9795537"><ele>216.5</ele><time>2015-04-30T13:10:49.0000000+00:00</time></trkpt><trkpt lat="34.74499" lon="32.979631"><ele>215.1</ele><time>2015-04-30T13:10:52.0000000+00:00</time></trkpt><trkpt lat="34.7449805" lon="32.9797097"><ele>215.6</ele><time>2015-04-30T13:10:55.0000000+00:00</time></trkpt><trkpt lat="34.7449752" lon="32.979786"><ele>211.9</ele><time>2015-04-30T13:10:58.0000000+00:00</time></trkpt><trkpt lat="34.7449634" lon="32.9798619"><ele>210.8</ele><time>2015-04-30T13:11:01.0000000+00:00</time></trkpt><trkpt lat="34.7449533" lon="32.9799257"><ele>212.5</ele><time>2015-04-30T13:11:03.0000000+00:00</time></trkpt><trkpt lat="34.7449444" lon="32.9799894"><ele>213.0</ele><time>2015-04-30T13:11:05.0000000+00:00</time></trkpt><trkpt lat="34.7449334" lon="32.9800455"><ele>212.3</ele><time>2015-04-30T13:11:07.0000000+00:00</time></trkpt><trkpt lat="34.7449204" lon="32.9801229"><ele>212.6</ele><time>2015-04-30T13:11:10.0000000+00:00</time></trkpt><trkpt lat="34.7449133" lon="32.9802066"><ele>211.2</ele><time>2015-04-30T13:11:13.0000000+00:00</time></trkpt><trkpt lat="34.7449072" lon="32.9802619"><ele>211.9</ele><time>2015-04-30T13:11:15.0000000+00:00</time></trkpt><trkpt lat="34.7448984" lon="32.9803205"><ele>213.3</ele><time>2015-04-30T13:11:17.0000000+00:00</time></trkpt><trkpt lat="34.744887" lon="32.9803794"><ele>214.4</ele><time>2015-04-30T13:11:19.0000000+00:00</time></trkpt><trkpt lat="34.7448752" lon="32.9804435"><ele>215.4</ele><time>2015-04-30T13:11:21.0000000+00:00</time></trkpt><trkpt lat="34.7448636" lon="32.9805025"><ele>216.4</ele><time>2015-04-30T13:11:23.0000000+00:00</time></trkpt><trkpt lat="34.7448516" lon="32.9805595"><ele>217.2</ele><time>2015-04-30T13:11:25.0000000+00:00</time></trkpt><trkpt lat="34.7448407" lon="32.9806152"><ele>217.6</ele><time>2015-04-30T13:11:27.0000000+00:00</time></trkpt><trkpt lat="34.7448315" lon="32.9806715"><ele>218.0</ele><time>2015-04-30T13:11:29.0000000+00:00</time></trkpt><trkpt lat="34.7448207" lon="32.9807307"><ele>218.1</ele><time>2015-04-30T13:11:31.0000000+00:00</time></trkpt><trkpt lat="34.7448128" lon="32.9807878"><ele>218.6</ele><time>2015-04-30T13:11:33.0000000+00:00</time></trkpt><trkpt lat="34.7448" lon="32.9808605"><ele>218.7</ele><time>2015-04-30T13:11:36.0000000+00:00</time></trkpt><trkpt lat="34.7447912" lon="32.9809318"><ele>221.3</ele><time>2015-04-30T13:11:39.0000000+00:00</time></trkpt><trkpt lat="34.7447881" lon="32.9809969"><ele>222.2</ele><time>2015-04-30T13:11:42.0000000+00:00</time></trkpt><trkpt lat="34.7447844" lon="32.9810747"><ele>224.1</ele><time>2015-04-30T13:11:45.0000000+00:00</time></trkpt><trkpt lat="34.7447757" lon="32.9811313"><ele>224.6</ele><time>2015-04-30T13:11:47.0000000+00:00</time></trkpt><trkpt lat="34.7447653" lon="32.9811939"><ele>225.5</ele><time>2015-04-30T13:11:49.0000000+00:00</time></trkpt><trkpt lat="34.7447537" lon="32.9812715"><ele>226.2</ele><time>2015-04-30T13:11:51.0000000+00:00</time></trkpt><trkpt lat="34.744742" lon="32.9813568"><ele>226.9</ele><time>2015-04-30T13:11:53.0000000+00:00</time></trkpt><trkpt lat="34.7447276" lon="32.9814423"><ele>227.5</ele><time>2015-04-30T13:11:55.0000000+00:00</time></trkpt><trkpt lat="34.7447097" lon="32.9815288"><ele>228.2</ele><time>2015-04-30T13:11:57.0000000+00:00</time></trkpt><trkpt lat="34.7446954" lon="32.9816056"><ele>228.6</ele><time>2015-04-30T13:11:59.0000000+00:00</time></trkpt><trkpt lat="34.7446869" lon="32.9816793"><ele>230.0</ele><time>2015-04-30T13:12:01.0000000+00:00</time></trkpt><trkpt lat="34.7446758" lon="32.981743"><ele>231.3</ele><time>2015-04-30T13:12:03.0000000+00:00</time></trkpt><trkpt lat="34.7446636" lon="32.9818001"><ele>231.7</ele><time>2015-04-30T13:12:05.0000000+00:00</time></trkpt><trkpt lat="34.7446562" lon="32.9818571"><ele>231.0</ele><time>2015-04-30T13:12:07.0000000+00:00</time></trkpt><trkpt lat="34.7446502" lon="32.9819233"><ele>232.1</ele><time>2015-04-30T13:12:09.0000000+00:00</time></trkpt><trkpt lat="34.7446425" lon="32.9819959"><ele>233.1</ele><time>2015-04-30T13:12:11.0000000+00:00</time></trkpt><trkpt lat="34.7446301" lon="32.9820703"><ele>233.8</ele><time>2015-04-30T13:12:13.0000000+00:00</time></trkpt><trkpt lat="34.7446164" lon="32.9821377"><ele>235.8</ele><time>2015-04-30T13:12:15.0000000+00:00</time></trkpt><trkpt lat="34.7446001" lon="32.9822133"><ele>235.0</ele><time>2015-04-30T13:12:17.0000000+00:00</time></trkpt><trkpt lat="34.7445814" lon="32.9822896"><ele>234.6</ele><time>2015-04-30T13:12:19.0000000+00:00</time></trkpt><trkpt lat="34.7445605" lon="32.9823673"><ele>235.2</ele><time>2015-04-30T13:12:21.0000000+00:00</time></trkpt><trkpt lat="34.7445398" lon="32.9824438"><ele>235.4</ele><time>2015-04-30T13:12:23.0000000+00:00</time></trkpt><trkpt lat="34.7445195" lon="32.9825308"><ele>235.4</ele><time>2015-04-30T13:12:25.0000000+00:00</time></trkpt><trkpt lat="34.744501" lon="32.9826193"><ele>235.7</ele><time>2015-04-30T13:12:27.0000000+00:00</time></trkpt><trkpt lat="34.7444806" lon="32.9827074"><ele>235.5</ele><time>2015-04-30T13:12:29.0000000+00:00</time></trkpt><trkpt lat="34.7444607" lon="32.9827923"><ele>235.7</ele><time>2015-04-30T13:12:31.0000000+00:00</time></trkpt><trkpt lat="34.7444421" lon="32.9828762"><ele>235.2</ele><time>2015-04-30T13:12:33.0000000+00:00</time></trkpt><trkpt lat="34.744422" lon="32.982959"><ele>235.6</ele><time>2015-04-30T13:12:35.0000000+00:00</time></trkpt><trkpt lat="34.7443965" lon="32.9830414"><ele>235.5</ele><time>2015-04-30T13:12:37.0000000+00:00</time></trkpt><trkpt lat="34.7443689" lon="32.9831219"><ele>234.9</ele><time>2015-04-30T13:12:39.0000000+00:00</time></trkpt><trkpt lat="34.7443392" lon="32.9832196"><ele>234.3</ele><time>2015-04-30T13:12:41.0000000+00:00</time></trkpt><trkpt lat="34.7443078" lon="32.9833191"><ele>233.9</ele><time>2015-04-30T13:12:43.0000000+00:00</time></trkpt><trkpt lat="34.7442905" lon="32.9833704"><ele>233.8</ele><time>2015-04-30T13:12:44.0000000+00:00</time></trkpt><trkpt lat="34.7442727" lon="32.9834213"><ele>233.8</ele><time>2015-04-30T13:12:45.0000000+00:00</time></trkpt><trkpt lat="34.7442363" lon="32.9835219"><ele>233.8</ele><time>2015-04-30T13:12:47.0000000+00:00</time></trkpt><trkpt lat="34.7441899" lon="32.9836451"><ele>232.8</ele><time>2015-04-30T13:12:49.0000000+00:00</time></trkpt><trkpt lat="34.7441502" lon="32.9837448"><ele>232.0</ele><time>2015-04-30T13:12:51.0000000+00:00</time></trkpt><trkpt lat="34.744128" lon="32.9837969"><ele>232.4</ele><time>2015-04-30T13:12:52.0000000+00:00</time></trkpt><trkpt lat="34.7440992" lon="32.9838506"><ele>232.1</ele><time>2015-04-30T13:12:53.0000000+00:00</time></trkpt><trkpt lat="34.7440722" lon="32.9839006"><ele>231.4</ele><time>2015-04-30T13:12:54.0000000+00:00</time></trkpt><trkpt lat="34.7440485" lon="32.9839536"><ele>230.6</ele><time>2015-04-30T13:12:55.0000000+00:00</time></trkpt><trkpt lat="34.7440217" lon="32.9840141"><ele>230.2</ele><time>2015-04-30T13:12:56.0000000+00:00</time></trkpt><trkpt lat="34.7439938" lon="32.9840668"><ele>230.0</ele><time>2015-04-30T13:12:57.0000000+00:00</time></trkpt><trkpt lat="34.7439692" lon="32.9841185"><ele>230.4</ele><time>2015-04-30T13:12:58.0000000+00:00</time></trkpt><trkpt lat="34.7439356" lon="32.9841815"><ele>231.1</ele><time>2015-04-30T13:12:59.0000000+00:00</time></trkpt><trkpt lat="34.7439016" lon="32.9842381"><ele>231.4</ele><time>2015-04-30T13:13:00.0000000+00:00</time></trkpt><trkpt lat="34.7438751" lon="32.9842917"><ele>232.1</ele><time>2015-04-30T13:13:01.0000000+00:00</time></trkpt><trkpt lat="34.7438387" lon="32.9843453"><ele>232.4</ele><time>2015-04-30T13:13:02.0000000+00:00</time></trkpt><trkpt lat="34.743798" lon="32.9843965"><ele>232.6</ele><time>2015-04-30T13:13:03.0000000+00:00</time></trkpt><trkpt lat="34.7437558" lon="32.9844522"><ele>232.2</ele><time>2015-04-30T13:13:04.0000000+00:00</time></trkpt><trkpt lat="34.7437153" lon="32.9845097"><ele>232.0</ele><time>2015-04-30T13:13:05.0000000+00:00</time></trkpt><trkpt lat="34.7436723" lon="32.9845636"><ele>231.9</ele><time>2015-04-30T13:13:06.0000000+00:00</time></trkpt><trkpt lat="34.7436274" lon="32.9846175"><ele>232.3</ele><time>2015-04-30T13:13:07.0000000+00:00</time></trkpt><trkpt lat="34.7435822" lon="32.9846645"><ele>232.5</ele><time>2015-04-30T13:13:08.0000000+00:00</time></trkpt><trkpt lat="34.7435376" lon="32.9847173"><ele>232.7</ele><time>2015-04-30T13:13:09.0000000+00:00</time></trkpt><trkpt lat="34.7435008" lon="32.984755"><ele>232.2</ele><time>2015-04-30T13:13:10.0000000+00:00</time></trkpt><trkpt lat="34.7434611" lon="32.9848028"><ele>232.0</ele><time>2015-04-30T13:13:11.0000000+00:00</time></trkpt><trkpt lat="34.7434126" lon="32.9848544"><ele>232.4</ele><time>2015-04-30T13:13:12.0000000+00:00</time></trkpt><trkpt lat="34.7433707" lon="32.9848926"><ele>232.1</ele><time>2015-04-30T13:13:13.0000000+00:00</time></trkpt><trkpt lat="34.7433201" lon="32.9849381"><ele>232.4</ele><time>2015-04-30T13:13:14.0000000+00:00</time></trkpt><trkpt lat="34.7432775" lon="32.9849792"><ele>232.6</ele><time>2015-04-30T13:13:15.0000000+00:00</time></trkpt><trkpt lat="34.7432222" lon="32.9850232"><ele>232.7</ele><time>2015-04-30T13:13:16.0000000+00:00</time></trkpt><trkpt lat="34.7431773" lon="32.9850608"><ele>232.7</ele><time>2015-04-30T13:13:17.0000000+00:00</time></trkpt><trkpt lat="34.7431255" lon="32.9851016"><ele>232.2</ele><time>2015-04-30T13:13:18.0000000+00:00</time></trkpt><trkpt lat="34.7430724" lon="32.9851404"><ele>232.0</ele><time>2015-04-30T13:13:19.0000000+00:00</time></trkpt><trkpt lat="34.7430192" lon="32.9851778"><ele>231.4</ele><time>2015-04-30T13:13:20.0000000+00:00</time></trkpt><trkpt lat="34.7429707" lon="32.9852095"><ele>230.6</ele><time>2015-04-30T13:13:21.0000000+00:00</time></trkpt><trkpt lat="34.7429243" lon="32.985239"><ele>230.2</ele><time>2015-04-30T13:13:22.0000000+00:00</time></trkpt><trkpt lat="34.7428821" lon="32.9852644"><ele>230.0</ele><time>2015-04-30T13:13:23.0000000+00:00</time></trkpt><trkpt lat="34.7428398" lon="32.9853026"><ele>229.1</ele><time>2015-04-30T13:13:25.0000000+00:00</time></trkpt><trkpt lat="34.7428807" lon="32.9853322"><ele>224.8</ele><time>2015-04-30T13:13:32.0000000+00:00</time></trkpt><trkpt lat="34.7429305" lon="32.9853482"><ele>223.4</ele><time>2015-04-30T13:13:35.0000000+00:00</time></trkpt><trkpt lat="34.7429893" lon="32.9853427"><ele>223.0</ele><time>2015-04-30T13:13:38.0000000+00:00</time></trkpt><trkpt lat="34.7430368" lon="32.9853326"><ele>221.3</ele><time>2015-04-30T13:13:40.0000000+00:00</time></trkpt><trkpt lat="34.7430815" lon="32.9853141"><ele>220.2</ele><time>2015-04-30T13:13:42.0000000+00:00</time></trkpt><trkpt lat="34.7431277" lon="32.985291"><ele>220.9</ele><time>2015-04-30T13:13:44.0000000+00:00</time></trkpt><trkpt lat="34.7431778" lon="32.9852748"><ele>222.0</ele><time>2015-04-30T13:13:46.0000000+00:00</time></trkpt><trkpt lat="34.7432244" lon="32.9852614"><ele>222.1</ele><time>2015-04-30T13:13:48.0000000+00:00</time></trkpt><trkpt lat="34.7431709" lon="32.9852617"><ele>225.5</ele><time>2015-04-30T13:17:04.0000000+00:00</time></trkpt><trkpt lat="34.743109" lon="32.9852834"><ele>225.7</ele><time>2015-04-30T13:17:06.0000000+00:00</time></trkpt><trkpt lat="34.7430357" lon="32.9853106"><ele>226.0</ele><time>2015-04-30T13:17:08.0000000+00:00</time></trkpt><trkpt lat="34.7429665" lon="32.985328"><ele>224.8</ele><time>2015-04-30T13:17:10.0000000+00:00</time></trkpt><trkpt lat="34.7428882" lon="32.9853392"><ele>223.0</ele><time>2015-04-30T13:17:12.0000000+00:00</time></trkpt><trkpt lat="34.74282" lon="32.9853414"><ele>222.8</ele><time>2015-04-30T13:17:14.0000000+00:00</time></trkpt><trkpt lat="34.7427598" lon="32.9853306"><ele>222.3</ele><time>2015-04-30T13:17:16.0000000+00:00</time></trkpt><trkpt lat="34.7427011" lon="32.9853316"><ele>222.4</ele><time>2015-04-30T13:17:18.0000000+00:00</time></trkpt><trkpt lat="34.7426398" lon="32.9853602"><ele>222.4</ele><time>2015-04-30T13:17:20.0000000+00:00</time></trkpt><trkpt lat="34.7425764" lon="32.9853973"><ele>222.7</ele><time>2015-04-30T13:17:22.0000000+00:00</time></trkpt><trkpt lat="34.7425044" lon="32.9854341"><ele>222.2</ele><time>2015-04-30T13:17:24.0000000+00:00</time></trkpt><trkpt lat="34.742437" lon="32.9854634"><ele>222.0</ele><time>2015-04-30T13:17:25.0000000+00:00</time></trkpt><trkpt lat="34.7423936" lon="32.9854865"><ele>221.9</ele><time>2015-04-30T13:17:26.0000000+00:00</time></trkpt><trkpt lat="34.7423508" lon="32.9855056"><ele>221.8</ele><time>2015-04-30T13:17:27.0000000+00:00</time></trkpt><trkpt lat="34.7422644" lon="32.9855332"><ele>222.5</ele><time>2015-04-30T13:17:29.0000000+00:00</time></trkpt><trkpt lat="34.7422162" lon="32.9855455"><ele>222.6</ele><time>2015-04-30T13:17:30.0000000+00:00</time></trkpt><trkpt lat="34.7421643" lon="32.9855572"><ele>223.2</ele><time>2015-04-30T13:17:31.0000000+00:00</time></trkpt><trkpt lat="34.7421104" lon="32.9855751"><ele>223.5</ele><time>2015-04-30T13:17:32.0000000+00:00</time></trkpt><trkpt lat="34.7420562" lon="32.985591"><ele>224.1</ele><time>2015-04-30T13:17:33.0000000+00:00</time></trkpt><trkpt lat="34.7420022" lon="32.9856054"><ele>224.4</ele><time>2015-04-30T13:17:34.0000000+00:00</time></trkpt><trkpt lat="34.7419478" lon="32.9856198"><ele>224.6</ele><time>2015-04-30T13:17:35.0000000+00:00</time></trkpt><trkpt lat="34.7418889" lon="32.9856328"><ele>224.2</ele><time>2015-04-30T13:17:36.0000000+00:00</time></trkpt><trkpt lat="34.7418345" lon="32.9856386"><ele>224.0</ele><time>2015-04-30T13:17:37.0000000+00:00</time></trkpt><trkpt lat="34.7417779" lon="32.9856491"><ele>224.4</ele><time>2015-04-30T13:17:38.0000000+00:00</time></trkpt><trkpt lat="34.7417177" lon="32.9856617"><ele>224.1</ele><time>2015-04-30T13:17:39.0000000+00:00</time></trkpt><trkpt lat="34.7416589" lon="32.9856707"><ele>224.4</ele><time>2015-04-30T13:17:40.0000000+00:00</time></trkpt><trkpt lat="34.7416039" lon="32.9856778"><ele>224.1</ele><time>2015-04-30T13:17:41.0000000+00:00</time></trkpt><trkpt lat="34.7415478" lon="32.9856885"><ele>223.4</ele><time>2015-04-30T13:17:42.0000000+00:00</time></trkpt><trkpt lat="34.7414884" lon="32.9856958"><ele>223.1</ele><time>2015-04-30T13:17:43.0000000+00:00</time></trkpt><trkpt lat="34.7414181" lon="32.9857043"><ele>222.9</ele><time>2015-04-30T13:17:44.0000000+00:00</time></trkpt><trkpt lat="34.7413552" lon="32.9857161"><ele>221.8</ele><time>2015-04-30T13:17:45.0000000+00:00</time></trkpt><trkpt lat="34.7412907" lon="32.9857176"><ele>221.3</ele><time>2015-04-30T13:17:46.0000000+00:00</time></trkpt><trkpt lat="34.7412256" lon="32.9857324"><ele>220.5</ele><time>2015-04-30T13:17:47.0000000+00:00</time></trkpt><trkpt lat="34.7411585" lon="32.9857397"><ele>220.2</ele><time>2015-04-30T13:17:48.0000000+00:00</time></trkpt><trkpt lat="34.7410902" lon="32.9857523"><ele>220.0</ele><time>2015-04-30T13:17:49.0000000+00:00</time></trkpt><trkpt lat="34.7410246" lon="32.985759"><ele>219.4</ele><time>2015-04-30T13:17:50.0000000+00:00</time></trkpt><trkpt lat="34.7409616" lon="32.9857674"><ele>219.1</ele><time>2015-04-30T13:17:51.0000000+00:00</time></trkpt><trkpt lat="34.7408987" lon="32.985783"><ele>217.9</ele><time>2015-04-30T13:17:52.0000000+00:00</time></trkpt><trkpt lat="34.7408345" lon="32.9857986"><ele>216.8</ele><time>2015-04-30T13:17:53.0000000+00:00</time></trkpt><trkpt lat="34.7407681" lon="32.9858108"><ele>216.3</ele><time>2015-04-30T13:17:54.0000000+00:00</time></trkpt><trkpt lat="34.740701" lon="32.9858125"><ele>215.5</ele><time>2015-04-30T13:17:55.0000000+00:00</time></trkpt><trkpt lat="34.7406303" lon="32.9858207"><ele>214.6</ele><time>2015-04-30T13:17:56.0000000+00:00</time></trkpt><trkpt lat="34.74056" lon="32.9858286"><ele>214.2</ele><time>2015-04-30T13:17:57.0000000+00:00</time></trkpt><trkpt lat="34.7404926" lon="32.9858352"><ele>213.5</ele><time>2015-04-30T13:17:58.0000000+00:00</time></trkpt><trkpt lat="34.7404193" lon="32.985852"><ele>213.6</ele><time>2015-04-30T13:17:59.0000000+00:00</time></trkpt><trkpt lat="34.7403514" lon="32.9858652"><ele>213.7</ele><time>2015-04-30T13:18:00.0000000+00:00</time></trkpt><trkpt lat="34.7402888" lon="32.9858801"><ele>213.2</ele><time>2015-04-30T13:18:01.0000000+00:00</time></trkpt><trkpt lat="34.740221" lon="32.9858865"><ele>213.0</ele><time>2015-04-30T13:18:02.0000000+00:00</time></trkpt><trkpt lat="34.740166" lon="32.9858999"><ele>211.9</ele><time>2015-04-30T13:18:03.0000000+00:00</time></trkpt><trkpt lat="34.7401091" lon="32.9859037"><ele>210.8</ele><time>2015-04-30T13:18:04.0000000+00:00</time></trkpt><trkpt lat="34.7400517" lon="32.9859054"><ele>210.3</ele><time>2015-04-30T13:18:05.0000000+00:00</time></trkpt><trkpt lat="34.7399895" lon="32.9859138"><ele>210.0</ele><time>2015-04-30T13:18:06.0000000+00:00</time></trkpt><trkpt lat="34.7399307" lon="32.985918"><ele>209.9</ele><time>2015-04-30T13:18:07.0000000+00:00</time></trkpt><trkpt lat="34.7398678" lon="32.9859283"><ele>209.8</ele><time>2015-04-30T13:18:08.0000000+00:00</time></trkpt><trkpt lat="34.7398102" lon="32.9859395"><ele>210.3</ele><time>2015-04-30T13:18:09.0000000+00:00</time></trkpt><trkpt lat="34.7397559" lon="32.9859331"><ele>210.0</ele><time>2015-04-30T13:18:10.0000000+00:00</time></trkpt><trkpt lat="34.7397034" lon="32.9859405"><ele>209.9</ele><time>2015-04-30T13:18:11.0000000+00:00</time></trkpt><trkpt lat="34.7396405" lon="32.9859509"><ele>210.3</ele><time>2015-04-30T13:18:12.0000000+00:00</time></trkpt><trkpt lat="34.7395802" lon="32.9859574"><ele>211.0</ele><time>2015-04-30T13:18:13.0000000+00:00</time></trkpt><trkpt lat="34.739516" lon="32.9859638"><ele>211.4</ele><time>2015-04-30T13:18:14.0000000+00:00</time></trkpt><trkpt lat="34.7394644" lon="32.9859806"><ele>211.1</ele><time>2015-04-30T13:18:15.0000000+00:00</time></trkpt><trkpt lat="34.7394079" lon="32.9859865"><ele>210.9</ele><time>2015-04-30T13:18:16.0000000+00:00</time></trkpt><trkpt lat="34.7393496" lon="32.9859928"><ele>210.8</ele><time>2015-04-30T13:18:17.0000000+00:00</time></trkpt><trkpt lat="34.7392955" lon="32.9859917"><ele>210.3</ele><time>2015-04-30T13:18:18.0000000+00:00</time></trkpt><trkpt lat="34.739244" lon="32.9860019"><ele>209.5</ele><time>2015-04-30T13:18:19.0000000+00:00</time></trkpt><trkpt lat="34.7391849" lon="32.9860111"><ele>209.7</ele><time>2015-04-30T13:18:20.0000000+00:00</time></trkpt><trkpt lat="34.7391245" lon="32.9860138"><ele>209.7</ele><time>2015-04-30T13:18:21.0000000+00:00</time></trkpt><trkpt lat="34.7390697" lon="32.986018"><ele>209.7</ele><time>2015-04-30T13:18:22.0000000+00:00</time></trkpt><trkpt lat="34.7390145" lon="32.9860193"><ele>209.8</ele><time>2015-04-30T13:18:23.0000000+00:00</time></trkpt><trkpt lat="34.7389478" lon="32.9860292"><ele>210.3</ele><time>2015-04-30T13:18:24.0000000+00:00</time></trkpt><trkpt lat="34.7388935" lon="32.9860326"><ele>210.5</ele><time>2015-04-30T13:18:25.0000000+00:00</time></trkpt><trkpt lat="34.7388343" lon="32.9860377"><ele>210.1</ele><time>2015-04-30T13:18:26.0000000+00:00</time></trkpt><trkpt lat="34.7387788" lon="32.9860419"><ele>209.0</ele><time>2015-04-30T13:18:27.0000000+00:00</time></trkpt><trkpt lat="34.7387219" lon="32.9860546"><ele>208.4</ele><time>2015-04-30T13:18:28.0000000+00:00</time></trkpt><trkpt lat="34.7386672" lon="32.9860618"><ele>207.6</ele><time>2015-04-30T13:18:29.0000000+00:00</time></trkpt><trkpt lat="34.738611" lon="32.9860644"><ele>207.2</ele><time>2015-04-30T13:18:30.0000000+00:00</time></trkpt><trkpt lat="34.7385536" lon="32.986067"><ele>206.5</ele><time>2015-04-30T13:18:31.0000000+00:00</time></trkpt><trkpt lat="34.7384788" lon="32.9860855"><ele>207.1</ele><time>2015-04-30T13:18:32.0000000+00:00</time></trkpt><trkpt lat="34.7384172" lon="32.9860957"><ele>207.4</ele><time>2015-04-30T13:18:33.0000000+00:00</time></trkpt><trkpt lat="34.7383534" lon="32.9861043"><ele>207.6</ele><time>2015-04-30T13:18:34.0000000+00:00</time></trkpt><trkpt lat="34.7382847" lon="32.9861122"><ele>207.2</ele><time>2015-04-30T13:18:35.0000000+00:00</time></trkpt><trkpt lat="34.7382209" lon="32.9861188"><ele>207.0</ele><time>2015-04-30T13:18:36.0000000+00:00</time></trkpt><trkpt lat="34.7381547" lon="32.9861271"><ele>206.9</ele><time>2015-04-30T13:18:37.0000000+00:00</time></trkpt><trkpt lat="34.7380903" lon="32.9861314"><ele>206.3</ele><time>2015-04-30T13:18:38.0000000+00:00</time></trkpt><trkpt lat="34.7380236" lon="32.9861353"><ele>205.5</ele><time>2015-04-30T13:18:39.0000000+00:00</time></trkpt><trkpt lat="34.7379532" lon="32.9861388"><ele>205.2</ele><time>2015-04-30T13:18:40.0000000+00:00</time></trkpt><trkpt lat="34.7378785" lon="32.986153"><ele>205.0</ele><time>2015-04-30T13:18:41.0000000+00:00</time></trkpt><trkpt lat="34.7378059" lon="32.986165"><ele>204.4</ele><time>2015-04-30T13:18:42.0000000+00:00</time></trkpt><trkpt lat="34.7377313" lon="32.9861799"><ele>204.1</ele><time>2015-04-30T13:18:43.0000000+00:00</time></trkpt><trkpt lat="34.7376569" lon="32.98619"><ele>203.4</ele><time>2015-04-30T13:18:44.0000000+00:00</time></trkpt><trkpt lat="34.7375784" lon="32.9862052"><ele>203.1</ele><time>2015-04-30T13:18:45.0000000+00:00</time></trkpt><trkpt lat="34.7374982" lon="32.9862246"><ele>202.4</ele><time>2015-04-30T13:18:46.0000000+00:00</time></trkpt><trkpt lat="34.7374201" lon="32.9862325"><ele>201.6</ele><time>2015-04-30T13:18:47.0000000+00:00</time></trkpt><trkpt lat="34.7373316" lon="32.9862474"><ele>201.2</ele><time>2015-04-30T13:18:48.0000000+00:00</time></trkpt><trkpt lat="34.7372526" lon="32.9862601"><ele>201.0</ele><time>2015-04-30T13:18:49.0000000+00:00</time></trkpt><trkpt lat="34.7371633" lon="32.9862741"><ele>200.9</ele><time>2015-04-30T13:18:50.0000000+00:00</time></trkpt><trkpt lat="34.7370806" lon="32.9862991"><ele>200.8</ele><time>2015-04-30T13:18:51.0000000+00:00</time></trkpt><trkpt lat="34.736989" lon="32.9863214"><ele>200.3</ele><time>2015-04-30T13:18:52.0000000+00:00</time></trkpt><trkpt lat="34.7369046" lon="32.9863464"><ele>199.5</ele><time>2015-04-30T13:18:53.0000000+00:00</time></trkpt><trkpt lat="34.7368159" lon="32.9863723"><ele>199.1</ele><time>2015-04-30T13:18:54.0000000+00:00</time></trkpt><trkpt lat="34.7367305" lon="32.9864011"><ele>198.5</ele><time>2015-04-30T13:18:55.0000000+00:00</time></trkpt><trkpt lat="34.7366336" lon="32.9864352"><ele>198.1</ele><time>2015-04-30T13:18:56.0000000+00:00</time></trkpt><trkpt lat="34.7365492" lon="32.9864714"><ele>197.4</ele><time>2015-04-30T13:18:57.0000000+00:00</time></trkpt><trkpt lat="34.7364616" lon="32.9865071"><ele>196.6</ele><time>2015-04-30T13:18:58.0000000+00:00</time></trkpt><trkpt lat="34.736377" lon="32.9865444"><ele>196.2</ele><time>2015-04-30T13:18:59.0000000+00:00</time></trkpt><trkpt lat="34.7362896" lon="32.9866018"><ele>196.0</ele><time>2015-04-30T13:19:00.0000000+00:00</time></trkpt><trkpt lat="34.7362097" lon="32.9866527"><ele>194.9</ele><time>2015-04-30T13:19:01.0000000+00:00</time></trkpt><trkpt lat="34.7361191" lon="32.9867009"><ele>194.3</ele><time>2015-04-30T13:19:02.0000000+00:00</time></trkpt><trkpt lat="34.7360331" lon="32.9867495"><ele>193.5</ele><time>2015-04-30T13:19:03.0000000+00:00</time></trkpt><trkpt lat="34.7359435" lon="32.9867986"><ele>193.2</ele><time>2015-04-30T13:19:04.0000000+00:00</time></trkpt><trkpt lat="34.735856" lon="32.9868411"><ele>193.0</ele><time>2015-04-30T13:19:05.0000000+00:00</time></trkpt><trkpt lat="34.7357801" lon="32.9868992"><ele>190.9</ele><time>2015-04-30T13:19:06.0000000+00:00</time></trkpt><trkpt lat="34.7356966" lon="32.9869498"><ele>188.8</ele><time>2015-04-30T13:19:07.0000000+00:00</time></trkpt><trkpt lat="34.7356063" lon="32.9870041"><ele>187.8</ele><time>2015-04-30T13:19:08.0000000+00:00</time></trkpt><trkpt lat="34.7355201" lon="32.9870552"><ele>187.3</ele><time>2015-04-30T13:19:09.0000000+00:00</time></trkpt><trkpt lat="34.7354377" lon="32.9871057"><ele>186.5</ele><time>2015-04-30T13:19:10.0000000+00:00</time></trkpt><trkpt lat="34.7353506" lon="32.987152"><ele>186.1</ele><time>2015-04-30T13:19:11.0000000+00:00</time></trkpt><trkpt lat="34.7352592" lon="32.9871972"><ele>185.5</ele><time>2015-04-30T13:19:12.0000000+00:00</time></trkpt><trkpt lat="34.7351685" lon="32.9872473"><ele>185.6</ele><time>2015-04-30T13:19:13.0000000+00:00</time></trkpt><trkpt lat="34.7350907" lon="32.987299"><ele>184.7</ele><time>2015-04-30T13:19:14.0000000+00:00</time></trkpt><trkpt lat="34.7350049" lon="32.9873504"><ele>184.2</ele><time>2015-04-30T13:19:15.0000000+00:00</time></trkpt><trkpt lat="34.734916" lon="32.9874033"><ele>183.5</ele><time>2015-04-30T13:19:16.0000000+00:00</time></trkpt><trkpt lat="34.7348324" lon="32.9874522"><ele>183.1</ele><time>2015-04-30T13:19:17.0000000+00:00</time></trkpt><trkpt lat="34.734747" lon="32.9875052"><ele>182.9</ele><time>2015-04-30T13:19:18.0000000+00:00</time></trkpt><trkpt lat="34.7346551" lon="32.9875584"><ele>182.4</ele><time>2015-04-30T13:19:19.0000000+00:00</time></trkpt><trkpt lat="34.7345532" lon="32.9876168"><ele>181.6</ele><time>2015-04-30T13:19:20.0000000+00:00</time></trkpt><trkpt lat="34.7344652" lon="32.9876726"><ele>181.7</ele><time>2015-04-30T13:19:21.0000000+00:00</time></trkpt><trkpt lat="34.7343728" lon="32.9877283"><ele>181.7</ele><time>2015-04-30T13:19:22.0000000+00:00</time></trkpt><trkpt lat="34.7342813" lon="32.9877828"><ele>181.2</ele><time>2015-04-30T13:19:23.0000000+00:00</time></trkpt><trkpt lat="34.7341849" lon="32.9878274"><ele>181.0</ele><time>2015-04-30T13:19:24.0000000+00:00</time></trkpt><trkpt lat="34.7340931" lon="32.9878726"><ele>180.9</ele><time>2015-04-30T13:19:25.0000000+00:00</time></trkpt><trkpt lat="34.7339995" lon="32.987927"><ele>180.8</ele><time>2015-04-30T13:19:26.0000000+00:00</time></trkpt><trkpt lat="34.7339106" lon="32.9879797"><ele>180.8</ele><time>2015-04-30T13:19:27.0000000+00:00</time></trkpt><trkpt lat="34.7338185" lon="32.988036"><ele>179.8</ele><time>2015-04-30T13:19:28.0000000+00:00</time></trkpt><trkpt lat="34.7337362" lon="32.9880827"><ele>179.3</ele><time>2015-04-30T13:19:29.0000000+00:00</time></trkpt><trkpt lat="34.733661" lon="32.9881248"><ele>178.5</ele><time>2015-04-30T13:19:30.0000000+00:00</time></trkpt><trkpt lat="34.7335875" lon="32.9881634"><ele>178.1</ele><time>2015-04-30T13:19:31.0000000+00:00</time></trkpt><trkpt lat="34.7335055" lon="32.9881984"><ele>178.0</ele><time>2015-04-30T13:19:32.0000000+00:00</time></trkpt><trkpt lat="34.7334332" lon="32.9882322"><ele>177.4</ele><time>2015-04-30T13:19:33.0000000+00:00</time></trkpt><trkpt lat="34.7333576" lon="32.9882655"><ele>176.6</ele><time>2015-04-30T13:19:34.0000000+00:00</time></trkpt><trkpt lat="34.7332886" lon="32.988299"><ele>176.2</ele><time>2015-04-30T13:19:35.0000000+00:00</time></trkpt><trkpt lat="34.7332223" lon="32.9883294"><ele>176.0</ele><time>2015-04-30T13:19:36.0000000+00:00</time></trkpt><trkpt lat="34.7331584" lon="32.988351"><ele>175.4</ele><time>2015-04-30T13:19:37.0000000+00:00</time></trkpt><trkpt lat="34.7330957" lon="32.9883804"><ele>174.6</ele><time>2015-04-30T13:19:38.0000000+00:00</time></trkpt><trkpt lat="34.7330381" lon="32.9884054"><ele>174.2</ele><time>2015-04-30T13:19:39.0000000+00:00</time></trkpt><trkpt lat="34.7329758" lon="32.9884226"><ele>174.0</ele><time>2015-04-30T13:19:40.0000000+00:00</time></trkpt><trkpt lat="34.7329194" lon="32.9884438"><ele>173.9</ele><time>2015-04-30T13:19:41.0000000+00:00</time></trkpt><trkpt lat="34.732855" lon="32.9884643"><ele>174.8</ele><time>2015-04-30T13:19:42.0000000+00:00</time></trkpt><trkpt lat="34.7327968" lon="32.988485"><ele>175.3</ele><time>2015-04-30T13:19:43.0000000+00:00</time></trkpt><trkpt lat="34.732732" lon="32.988486"><ele>175.5</ele><time>2015-04-30T13:19:44.0000000+00:00</time></trkpt><trkpt lat="34.7326643" lon="32.9884973"><ele>175.1</ele><time>2015-04-30T13:19:45.0000000+00:00</time></trkpt><trkpt lat="34.7326146" lon="32.9885057"><ele>175.0</ele><time>2015-04-30T13:19:46.0000000+00:00</time></trkpt><trkpt lat="34.7325529" lon="32.9885204"><ele>174.4</ele><time>2015-04-30T13:19:47.0000000+00:00</time></trkpt><trkpt lat="34.7324958" lon="32.9885304"><ele>173.6</ele><time>2015-04-30T13:19:48.0000000+00:00</time></trkpt><trkpt lat="34.7324362" lon="32.9885331"><ele>172.7</ele><time>2015-04-30T13:19:49.0000000+00:00</time></trkpt><trkpt lat="34.732378" lon="32.98854"><ele>172.2</ele><time>2015-04-30T13:19:50.0000000+00:00</time></trkpt><trkpt lat="34.7323195" lon="32.9885483"><ele>172.0</ele><time>2015-04-30T13:19:51.0000000+00:00</time></trkpt><trkpt lat="34.7322629" lon="32.988557"><ele>170.9</ele><time>2015-04-30T13:19:52.0000000+00:00</time></trkpt><trkpt lat="34.732208" lon="32.9885604"><ele>169.8</ele><time>2015-04-30T13:19:53.0000000+00:00</time></trkpt><trkpt lat="34.7321508" lon="32.9885652"><ele>169.3</ele><time>2015-04-30T13:19:54.0000000+00:00</time></trkpt><trkpt lat="34.7320879" lon="32.9885697"><ele>168.5</ele><time>2015-04-30T13:19:55.0000000+00:00</time></trkpt><trkpt lat="34.7320255" lon="32.9885616"><ele>168.1</ele><time>2015-04-30T13:19:56.0000000+00:00</time></trkpt><trkpt lat="34.7319628" lon="32.9885497"><ele>168.0</ele><time>2015-04-30T13:19:57.0000000+00:00</time></trkpt><trkpt lat="34.7319006" lon="32.9885517"><ele>167.4</ele><time>2015-04-30T13:19:58.0000000+00:00</time></trkpt><trkpt lat="34.7318216" lon="32.98855"><ele>167.6</ele><time>2015-04-30T13:19:59.0000000+00:00</time></trkpt><trkpt lat="34.731746" lon="32.98855"><ele>167.2</ele><time>2015-04-30T13:20:00.0000000+00:00</time></trkpt><trkpt lat="34.731667" lon="32.9885509"><ele>168.0</ele><time>2015-04-30T13:20:01.0000000+00:00</time></trkpt><trkpt lat="34.731584" lon="32.9885577"><ele>168.9</ele><time>2015-04-30T13:20:02.0000000+00:00</time></trkpt><trkpt lat="34.7315026" lon="32.9885497"><ele>169.3</ele><time>2015-04-30T13:20:03.0000000+00:00</time></trkpt><trkpt lat="34.7314095" lon="32.9885415"><ele>169.0</ele><time>2015-04-30T13:20:04.0000000+00:00</time></trkpt><trkpt lat="34.7313268" lon="32.9885366"><ele>168.9</ele><time>2015-04-30T13:20:05.0000000+00:00</time></trkpt><trkpt lat="34.7312418" lon="32.988538"><ele>168.8</ele><time>2015-04-30T13:20:06.0000000+00:00</time></trkpt><trkpt lat="34.7311559" lon="32.9885315"><ele>168.8</ele><time>2015-04-30T13:20:07.0000000+00:00</time></trkpt><trkpt lat="34.7310673" lon="32.9885139"><ele>168.8</ele><time>2015-04-30T13:20:08.0000000+00:00</time></trkpt><trkpt lat="34.7309854" lon="32.988496"><ele>168.3</ele><time>2015-04-30T13:20:09.0000000+00:00</time></trkpt><trkpt lat="34.7309008" lon="32.9884729"><ele>167.5</ele><time>2015-04-30T13:20:10.0000000+00:00</time></trkpt><trkpt lat="34.7308174" lon="32.9884448"><ele>167.1</ele><time>2015-04-30T13:20:11.0000000+00:00</time></trkpt><trkpt lat="34.7307399" lon="32.9884091"><ele>166.0</ele><time>2015-04-30T13:20:12.0000000+00:00</time></trkpt><trkpt lat="34.7306682" lon="32.9883845"><ele>165.4</ele><time>2015-04-30T13:20:13.0000000+00:00</time></trkpt><trkpt lat="34.7306174" lon="32.9883742"><ele>164.6</ele><time>2015-04-30T13:20:14.0000000+00:00</time></trkpt><trkpt lat="34.7305332" lon="32.9883529"><ele>165.2</ele><time>2015-04-30T13:20:15.0000000+00:00</time></trkpt><trkpt lat="34.730448" lon="32.9883258"><ele>165.0</ele><time>2015-04-30T13:20:16.0000000+00:00</time></trkpt><trkpt lat="34.7303679" lon="32.9883036"><ele>165.4</ele><time>2015-04-30T13:20:17.0000000+00:00</time></trkpt><trkpt lat="34.7302931" lon="32.9882831"><ele>165.1</ele><time>2015-04-30T13:20:18.0000000+00:00</time></trkpt><trkpt lat="34.7302226" lon="32.988255"><ele>164.4</ele><time>2015-04-30T13:20:19.0000000+00:00</time></trkpt><trkpt lat="34.7301416" lon="32.9882337"><ele>164.1</ele><time>2015-04-30T13:20:20.0000000+00:00</time></trkpt><trkpt lat="34.7300674" lon="32.9882059"><ele>163.9</ele><time>2015-04-30T13:20:21.0000000+00:00</time></trkpt><trkpt lat="34.7299962" lon="32.9881806"><ele>163.3</ele><time>2015-04-30T13:20:22.0000000+00:00</time></trkpt><trkpt lat="34.7299281" lon="32.9881576"><ele>163.1</ele><time>2015-04-30T13:20:23.0000000+00:00</time></trkpt><trkpt lat="34.7298496" lon="32.9881448"><ele>162.9</ele><time>2015-04-30T13:20:24.0000000+00:00</time></trkpt><trkpt lat="34.7297758" lon="32.9881126"><ele>162.8</ele><time>2015-04-30T13:20:25.0000000+00:00</time></trkpt><trkpt lat="34.7297052" lon="32.9880866"><ele>162.3</ele><time>2015-04-30T13:20:26.0000000+00:00</time></trkpt><trkpt lat="34.7296292" lon="32.9880647"><ele>162.0</ele><time>2015-04-30T13:20:27.0000000+00:00</time></trkpt><trkpt lat="34.729554" lon="32.9880471"><ele>162.4</ele><time>2015-04-30T13:20:28.0000000+00:00</time></trkpt><trkpt lat="34.729482" lon="32.9880276"><ele>162.6</ele><time>2015-04-30T13:20:29.0000000+00:00</time></trkpt><trkpt lat="34.7294111" lon="32.9880183"><ele>162.7</ele><time>2015-04-30T13:20:30.0000000+00:00</time></trkpt><trkpt lat="34.7293409" lon="32.9879978"><ele>162.2</ele><time>2015-04-30T13:20:31.0000000+00:00</time></trkpt><trkpt lat="34.7292743" lon="32.9879817"><ele>162.0</ele><time>2015-04-30T13:20:32.0000000+00:00</time></trkpt><trkpt lat="34.7292136" lon="32.9879645"><ele>162.4</ele><time>2015-04-30T13:20:33.0000000+00:00</time></trkpt><trkpt lat="34.7291557" lon="32.9879446"><ele>162.1</ele><time>2015-04-30T13:20:34.0000000+00:00</time></trkpt><trkpt lat="34.7291029" lon="32.9879236"><ele>161.9</ele><time>2015-04-30T13:20:35.0000000+00:00</time></trkpt><trkpt lat="34.7290335" lon="32.9879144"><ele>162.3</ele><time>2015-04-30T13:20:36.0000000+00:00</time></trkpt><trkpt lat="34.7289692" lon="32.9879049"><ele>163.1</ele><time>2015-04-30T13:20:37.0000000+00:00</time></trkpt><trkpt lat="34.7289106" lon="32.987885"><ele>163.4</ele><time>2015-04-30T13:20:38.0000000+00:00</time></trkpt><trkpt lat="34.7288648" lon="32.9878722"><ele>162.6</ele><time>2015-04-30T13:20:39.0000000+00:00</time></trkpt><trkpt lat="34.7288041" lon="32.9878595"><ele>162.2</ele><time>2015-04-30T13:20:41.0000000+00:00</time></trkpt><trkpt lat="34.7287619" lon="32.9878065"><ele>160.6</ele><time>2015-04-30T13:20:52.0000000+00:00</time></trkpt><trkpt lat="34.7286941" lon="32.9877844"><ele>161.5</ele><time>2015-04-30T13:20:54.0000000+00:00</time></trkpt><trkpt lat="34.7286143" lon="32.9877526"><ele>160.2</ele><time>2015-04-30T13:20:56.0000000+00:00</time></trkpt><trkpt lat="34.7285579" lon="32.9877465"><ele>160.0</ele><time>2015-04-30T13:20:57.0000000+00:00</time></trkpt><trkpt lat="34.7285" lon="32.9877287"><ele>160.9</ele><time>2015-04-30T13:20:58.0000000+00:00</time></trkpt><trkpt lat="34.7284391" lon="32.9877098"><ele>161.8</ele><time>2015-04-30T13:20:59.0000000+00:00</time></trkpt><trkpt lat="34.7283731" lon="32.9876899"><ele>162.8</ele><time>2015-04-30T13:21:00.0000000+00:00</time></trkpt><trkpt lat="34.7283085" lon="32.9876745"><ele>163.3</ele><time>2015-04-30T13:21:01.0000000+00:00</time></trkpt><trkpt lat="34.7282401" lon="32.9876616"><ele>164.0</ele><time>2015-04-30T13:21:02.0000000+00:00</time></trkpt><trkpt lat="34.7281761" lon="32.9876503"><ele>163.9</ele><time>2015-04-30T13:21:03.0000000+00:00</time></trkpt><trkpt lat="34.7281158" lon="32.9876407"><ele>163.8</ele><time>2015-04-30T13:21:04.0000000+00:00</time></trkpt><trkpt lat="34.728063" lon="32.9876368"><ele>163.8</ele><time>2015-04-30T13:21:05.0000000+00:00</time></trkpt><trkpt lat="34.7280043" lon="32.9876273"><ele>163.8</ele><time>2015-04-30T13:21:06.0000000+00:00</time></trkpt><trkpt lat="34.727944" lon="32.9875991"><ele>164.3</ele><time>2015-04-30T13:21:07.0000000+00:00</time></trkpt><trkpt lat="34.727872" lon="32.9875972"><ele>165.0</ele><time>2015-04-30T13:21:08.0000000+00:00</time></trkpt><trkpt lat="34.7278065" lon="32.9875926"><ele>164.9</ele><time>2015-04-30T13:21:09.0000000+00:00</time></trkpt><trkpt lat="34.7277462" lon="32.9875922"><ele>165.3</ele><time>2015-04-30T13:21:10.0000000+00:00</time></trkpt><trkpt lat="34.7276704" lon="32.9875911"><ele>166.5</ele><time>2015-04-30T13:21:11.0000000+00:00</time></trkpt><trkpt lat="34.7276097" lon="32.9875857"><ele>166.2</ele><time>2015-04-30T13:21:12.0000000+00:00</time></trkpt><trkpt lat="34.7275408" lon="32.9875767"><ele>165.0</ele><time>2015-04-30T13:21:13.0000000+00:00</time></trkpt><trkpt lat="34.7274726" lon="32.9875866"><ele>164.9</ele><time>2015-04-30T13:21:14.0000000+00:00</time></trkpt><trkpt lat="34.727404" lon="32.9875918"><ele>164.8</ele><time>2015-04-30T13:21:15.0000000+00:00</time></trkpt><trkpt lat="34.7273335" lon="32.9875992"><ele>164.8</ele><time>2015-04-30T13:21:16.0000000+00:00</time></trkpt><trkpt lat="34.727274" lon="32.9875963"><ele>164.3</ele><time>2015-04-30T13:21:17.0000000+00:00</time></trkpt><trkpt lat="34.7272127" lon="32.9875962"><ele>165.0</ele><time>2015-04-30T13:21:18.0000000+00:00</time></trkpt><trkpt lat="34.7271461" lon="32.9875965"><ele>164.9</ele><time>2015-04-30T13:21:19.0000000+00:00</time></trkpt><trkpt lat="34.7270791" lon="32.9875949"><ele>164.8</ele><time>2015-04-30T13:21:20.0000000+00:00</time></trkpt><trkpt lat="34.7270141" lon="32.987591"><ele>164.3</ele><time>2015-04-30T13:21:21.0000000+00:00</time></trkpt><trkpt lat="34.7269525" lon="32.9875872"><ele>164.0</ele><time>2015-04-30T13:21:22.0000000+00:00</time></trkpt><trkpt lat="34.7268854" lon="32.9875792"><ele>163.4</ele><time>2015-04-30T13:21:23.0000000+00:00</time></trkpt><trkpt lat="34.7268076" lon="32.9875755"><ele>163.1</ele><time>2015-04-30T13:21:24.0000000+00:00</time></trkpt><trkpt lat="34.7267392" lon="32.9875722"><ele>162.4</ele><time>2015-04-30T13:21:25.0000000+00:00</time></trkpt><trkpt lat="34.7266752" lon="32.9875772"><ele>161.6</ele><time>2015-04-30T13:21:26.0000000+00:00</time></trkpt><trkpt lat="34.726608" lon="32.9875811"><ele>160.7</ele><time>2015-04-30T13:21:27.0000000+00:00</time></trkpt><trkpt lat="34.7265331" lon="32.987586"><ele>159.7</ele><time>2015-04-30T13:21:28.0000000+00:00</time></trkpt><trkpt lat="34.7264732" lon="32.9875762"><ele>158.7</ele><time>2015-04-30T13:21:29.0000000+00:00</time></trkpt><trkpt lat="34.726409" lon="32.987572"><ele>157.8</ele><time>2015-04-30T13:21:30.0000000+00:00</time></trkpt><trkpt lat="34.7263525" lon="32.9875626"><ele>157.8</ele><time>2015-04-30T13:21:31.0000000+00:00</time></trkpt><trkpt lat="34.7262898" lon="32.987561"><ele>157.3</ele><time>2015-04-30T13:21:32.0000000+00:00</time></trkpt><trkpt lat="34.7262339" lon="32.9875638"><ele>157.5</ele><time>2015-04-30T13:21:33.0000000+00:00</time></trkpt><trkpt lat="34.7261769" lon="32.9875643"><ele>157.6</ele><time>2015-04-30T13:21:34.0000000+00:00</time></trkpt><trkpt lat="34.7261228" lon="32.9875619"><ele>157.7</ele><time>2015-04-30T13:21:35.0000000+00:00</time></trkpt><trkpt lat="34.7260575" lon="32.987563"><ele>157.7</ele><time>2015-04-30T13:21:36.0000000+00:00</time></trkpt><trkpt lat="34.7259916" lon="32.9875562"><ele>158.7</ele><time>2015-04-30T13:21:37.0000000+00:00</time></trkpt><trkpt lat="34.7259268" lon="32.9875565"><ele>159.3</ele><time>2015-04-30T13:21:38.0000000+00:00</time></trkpt><trkpt lat="34.7258636" lon="32.9875575"><ele>159.5</ele><time>2015-04-30T13:21:39.0000000+00:00</time></trkpt><trkpt lat="34.7257984" lon="32.9875653"><ele>159.6</ele><time>2015-04-30T13:21:40.0000000+00:00</time></trkpt><trkpt lat="34.7257361" lon="32.987567"><ele>159.7</ele><time>2015-04-30T13:21:41.0000000+00:00</time></trkpt><trkpt lat="34.7256695" lon="32.9875684"><ele>160.2</ele><time>2015-04-30T13:21:42.0000000+00:00</time></trkpt><trkpt lat="34.7256077" lon="32.9875602"><ele>160.5</ele><time>2015-04-30T13:21:43.0000000+00:00</time></trkpt><trkpt lat="34.725545" lon="32.9875681"><ele>160.1</ele><time>2015-04-30T13:21:44.0000000+00:00</time></trkpt><trkpt lat="34.72549" lon="32.9875678"><ele>160.4</ele><time>2015-04-30T13:21:45.0000000+00:00</time></trkpt><trkpt lat="34.7254298" lon="32.9875648"><ele>160.6</ele><time>2015-04-30T13:21:46.0000000+00:00</time></trkpt><trkpt lat="34.7253691" lon="32.9875678"><ele>160.7</ele><time>2015-04-30T13:21:47.0000000+00:00</time></trkpt><trkpt lat="34.7253066" lon="32.9875667"><ele>160.7</ele><time>2015-04-30T13:21:48.0000000+00:00</time></trkpt><trkpt lat="34.7252423" lon="32.9875655"><ele>160.7</ele><time>2015-04-30T13:21:49.0000000+00:00</time></trkpt><trkpt lat="34.7251931" lon="32.987555"><ele>161.8</ele><time>2015-04-30T13:21:50.0000000+00:00</time></trkpt><trkpt lat="34.7251332" lon="32.9875404"><ele>161.3</ele><time>2015-04-30T13:21:51.0000000+00:00</time></trkpt><trkpt lat="34.7250768" lon="32.9875283"><ele>160.0</ele><time>2015-04-30T13:21:52.0000000+00:00</time></trkpt><trkpt lat="34.7250159" lon="32.9875362"><ele>158.9</ele><time>2015-04-30T13:21:53.0000000+00:00</time></trkpt><trkpt lat="34.7249567" lon="32.9875427"><ele>158.3</ele><time>2015-04-30T13:21:54.0000000+00:00</time></trkpt><trkpt lat="34.7248926" lon="32.9875449"><ele>158.0</ele><time>2015-04-30T13:21:55.0000000+00:00</time></trkpt><trkpt lat="34.7248337" lon="32.987536"><ele>157.9</ele><time>2015-04-30T13:21:56.0000000+00:00</time></trkpt><trkpt lat="34.7247756" lon="32.9875318"><ele>157.8</ele><time>2015-04-30T13:21:57.0000000+00:00</time></trkpt><trkpt lat="34.7247177" lon="32.9875328"><ele>157.3</ele><time>2015-04-30T13:21:58.0000000+00:00</time></trkpt><trkpt lat="34.7246538" lon="32.9875443"><ele>157.0</ele><time>2015-04-30T13:21:59.0000000+00:00</time></trkpt><trkpt lat="34.7245856" lon="32.9875592"><ele>157.9</ele><time>2015-04-30T13:22:00.0000000+00:00</time></trkpt><trkpt lat="34.7245207" lon="32.9875637"><ele>158.3</ele><time>2015-04-30T13:22:01.0000000+00:00</time></trkpt><trkpt lat="34.7244565" lon="32.987571"><ele>156.5</ele><time>2015-04-30T13:22:02.0000000+00:00</time></trkpt><trkpt lat="34.7243923" lon="32.9875801"><ele>155.7</ele><time>2015-04-30T13:22:03.0000000+00:00</time></trkpt><trkpt lat="34.7243255" lon="32.9875869"><ele>156.2</ele><time>2015-04-30T13:22:04.0000000+00:00</time></trkpt><trkpt lat="34.7242689" lon="32.9875921"><ele>156.0</ele><time>2015-04-30T13:22:05.0000000+00:00</time></trkpt><trkpt lat="34.7242075" lon="32.9876034"><ele>155.9</ele><time>2015-04-30T13:22:06.0000000+00:00</time></trkpt><trkpt lat="34.7241449" lon="32.9876075"><ele>155.8</ele><time>2015-04-30T13:22:07.0000000+00:00</time></trkpt><trkpt lat="34.7240845" lon="32.9876143"><ele>155.8</ele><time>2015-04-30T13:22:08.0000000+00:00</time></trkpt><trkpt lat="34.7240222" lon="32.9876258"><ele>155.3</ele><time>2015-04-30T13:22:09.0000000+00:00</time></trkpt><trkpt lat="34.7239577" lon="32.9876378"><ele>155.5</ele><time>2015-04-30T13:22:10.0000000+00:00</time></trkpt><trkpt lat="34.7238996" lon="32.9876491"><ele>155.6</ele><time>2015-04-30T13:22:11.0000000+00:00</time></trkpt><trkpt lat="34.7238367" lon="32.9876665"><ele>156.2</ele><time>2015-04-30T13:22:12.0000000+00:00</time></trkpt><trkpt lat="34.7237807" lon="32.987683"><ele>156.0</ele><time>2015-04-30T13:22:13.0000000+00:00</time></trkpt><trkpt lat="34.7237208" lon="32.9876972"><ele>156.4</ele><time>2015-04-30T13:22:14.0000000+00:00</time></trkpt><trkpt lat="34.7236644" lon="32.9877124"><ele>156.1</ele><time>2015-04-30T13:22:15.0000000+00:00</time></trkpt><trkpt lat="34.7236079" lon="32.9877266"><ele>155.4</ele><time>2015-04-30T13:22:16.0000000+00:00</time></trkpt><trkpt lat="34.7235526" lon="32.9877423"><ele>155.1</ele><time>2015-04-30T13:22:17.0000000+00:00</time></trkpt><trkpt lat="34.7234948" lon="32.9877588"><ele>154.9</ele><time>2015-04-30T13:22:18.0000000+00:00</time></trkpt><trkpt lat="34.7234334" lon="32.9877725"><ele>154.8</ele><time>2015-04-30T13:22:19.0000000+00:00</time></trkpt><trkpt lat="34.7233793" lon="32.9877918"><ele>154.8</ele><time>2015-04-30T13:22:20.0000000+00:00</time></trkpt><trkpt lat="34.7233227" lon="32.9878105"><ele>154.8</ele><time>2015-04-30T13:22:21.0000000+00:00</time></trkpt><trkpt lat="34.7232648" lon="32.9878266"><ele>154.8</ele><time>2015-04-30T13:22:22.0000000+00:00</time></trkpt><trkpt lat="34.7232047" lon="32.9878403"><ele>154.3</ele><time>2015-04-30T13:22:23.0000000+00:00</time></trkpt><trkpt lat="34.723151" lon="32.9878603"><ele>154.0</ele><time>2015-04-30T13:22:24.0000000+00:00</time></trkpt><trkpt lat="34.7230943" lon="32.9878812"><ele>153.9</ele><time>2015-04-30T13:22:25.0000000+00:00</time></trkpt><trkpt lat="34.7230354" lon="32.9879002"><ele>153.8</ele><time>2015-04-30T13:22:26.0000000+00:00</time></trkpt><trkpt lat="34.7229796" lon="32.9879217"><ele>153.8</ele><time>2015-04-30T13:22:27.0000000+00:00</time></trkpt><trkpt lat="34.7229252" lon="32.9879414"><ele>153.8</ele><time>2015-04-30T13:22:28.0000000+00:00</time></trkpt><trkpt lat="34.722869" lon="32.9879595"><ele>153.8</ele><time>2015-04-30T13:22:29.0000000+00:00</time></trkpt><trkpt lat="34.7228113" lon="32.9879788"><ele>153.8</ele><time>2015-04-30T13:22:30.0000000+00:00</time></trkpt><trkpt lat="34.7227532" lon="32.9880033"><ele>153.8</ele><time>2015-04-30T13:22:31.0000000+00:00</time></trkpt><trkpt lat="34.7226998" lon="32.9880215"><ele>153.8</ele><time>2015-04-30T13:22:32.0000000+00:00</time></trkpt><trkpt lat="34.7226456" lon="32.9880424"><ele>153.8</ele><time>2015-04-30T13:22:33.0000000+00:00</time></trkpt><trkpt lat="34.722594" lon="32.9880705"><ele>153.8</ele><time>2015-04-30T13:22:34.0000000+00:00</time></trkpt><trkpt lat="34.7225396" lon="32.988094"><ele>154.3</ele><time>2015-04-30T13:22:35.0000000+00:00</time></trkpt><trkpt lat="34.72248" lon="32.9881265"><ele>154.5</ele><time>2015-04-30T13:22:36.0000000+00:00</time></trkpt><trkpt lat="34.7224245" lon="32.9881477"><ele>155.1</ele><time>2015-04-30T13:22:37.0000000+00:00</time></trkpt><trkpt lat="34.7223654" lon="32.9881707"><ele>156.0</ele><time>2015-04-30T13:22:38.0000000+00:00</time></trkpt><trkpt lat="34.7223108" lon="32.9881952"><ele>156.4</ele><time>2015-04-30T13:22:39.0000000+00:00</time></trkpt><trkpt lat="34.7222449" lon="32.9882167"><ele>157.6</ele><time>2015-04-30T13:22:40.0000000+00:00</time></trkpt><trkpt lat="34.7221894" lon="32.9882366"><ele>158.2</ele><time>2015-04-30T13:22:41.0000000+00:00</time></trkpt><trkpt lat="34.7221371" lon="32.9882612"><ele>158.5</ele><time>2015-04-30T13:22:42.0000000+00:00</time></trkpt><trkpt lat="34.7220861" lon="32.9882971"><ele>158.6</ele><time>2015-04-30T13:22:43.0000000+00:00</time></trkpt><trkpt lat="34.7220338" lon="32.988325"><ele>158.7</ele><time>2015-04-30T13:22:44.0000000+00:00</time></trkpt><trkpt lat="34.7219852" lon="32.9883634"><ele>158.7</ele><time>2015-04-30T13:22:45.0000000+00:00</time></trkpt><trkpt lat="34.7219342" lon="32.9883824"><ele>158.7</ele><time>2015-04-30T13:22:46.0000000+00:00</time></trkpt><trkpt lat="34.7218773" lon="32.9884069"><ele>159.3</ele><time>2015-04-30T13:22:47.0000000+00:00</time></trkpt><trkpt lat="34.7218163" lon="32.9884307"><ele>159.5</ele><time>2015-04-30T13:22:48.0000000+00:00</time></trkpt><trkpt lat="34.721756" lon="32.988453"><ele>159.6</ele><time>2015-04-30T13:22:49.0000000+00:00</time></trkpt><trkpt lat="34.7216989" lon="32.9884797"><ele>159.2</ele><time>2015-04-30T13:22:50.0000000+00:00</time></trkpt><trkpt lat="34.7216405" lon="32.9885133"><ele>159.0</ele><time>2015-04-30T13:22:51.0000000+00:00</time></trkpt><trkpt lat="34.721585" lon="32.9885375"><ele>158.9</ele><time>2015-04-30T13:22:52.0000000+00:00</time></trkpt><trkpt lat="34.7215334" lon="32.9885608"><ele>158.8</ele><time>2015-04-30T13:22:53.0000000+00:00</time></trkpt><trkpt lat="34.7214767" lon="32.988584"><ele>158.8</ele><time>2015-04-30T13:22:54.0000000+00:00</time></trkpt><trkpt lat="34.7214207" lon="32.9886098"><ele>159.8</ele><time>2015-04-30T13:22:55.0000000+00:00</time></trkpt><trkpt lat="34.7213691" lon="32.9886453"><ele>160.3</ele><time>2015-04-30T13:22:56.0000000+00:00</time></trkpt><trkpt lat="34.7213139" lon="32.9886781"><ele>160.5</ele><time>2015-04-30T13:22:57.0000000+00:00</time></trkpt><trkpt lat="34.7212483" lon="32.9887112"><ele>161.1</ele><time>2015-04-30T13:22:58.0000000+00:00</time></trkpt><trkpt lat="34.721191" lon="32.9887487"><ele>161.0</ele><time>2015-04-30T13:22:59.0000000+00:00</time></trkpt><trkpt lat="34.7211307" lon="32.9887835"><ele>161.4</ele><time>2015-04-30T13:23:00.0000000+00:00</time></trkpt><trkpt lat="34.7210727" lon="32.9888184"><ele>161.6</ele><time>2015-04-30T13:23:01.0000000+00:00</time></trkpt><trkpt lat="34.7210161" lon="32.9888485"><ele>162.7</ele><time>2015-04-30T13:23:02.0000000+00:00</time></trkpt><trkpt lat="34.7209537" lon="32.9888876"><ele>164.2</ele><time>2015-04-30T13:23:03.0000000+00:00</time></trkpt><trkpt lat="34.720905" lon="32.9889254"><ele>164.5</ele><time>2015-04-30T13:23:04.0000000+00:00</time></trkpt><trkpt lat="34.7208497" lon="32.9889575"><ele>165.1</ele><time>2015-04-30T13:23:05.0000000+00:00</time></trkpt><trkpt lat="34.7208009" lon="32.9890012"><ele>165.4</ele><time>2015-04-30T13:23:06.0000000+00:00</time></trkpt><trkpt lat="34.7207503" lon="32.9890461"><ele>165.6</ele><time>2015-04-30T13:23:07.0000000+00:00</time></trkpt><trkpt lat="34.7207" lon="32.9890828"><ele>165.7</ele><time>2015-04-30T13:23:08.0000000+00:00</time></trkpt><trkpt lat="34.7206464" lon="32.9891265"><ele>165.7</ele><time>2015-04-30T13:23:09.0000000+00:00</time></trkpt><trkpt lat="34.7205942" lon="32.9891669"><ele>166.7</ele><time>2015-04-30T13:23:10.0000000+00:00</time></trkpt><trkpt lat="34.7205445" lon="32.9892163"><ele>167.8</ele><time>2015-04-30T13:23:11.0000000+00:00</time></trkpt><trkpt lat="34.7204959" lon="32.9892598"><ele>167.8</ele><time>2015-04-30T13:23:12.0000000+00:00</time></trkpt><trkpt lat="34.7204485" lon="32.9893058"><ele>168.3</ele><time>2015-04-30T13:23:13.0000000+00:00</time></trkpt><trkpt lat="34.7204053" lon="32.9893588"><ele>168.0</ele><time>2015-04-30T13:23:14.0000000+00:00</time></trkpt><trkpt lat="34.7203616" lon="32.9894127"><ele>167.9</ele><time>2015-04-30T13:23:15.0000000+00:00</time></trkpt><trkpt lat="34.7203184" lon="32.9894589"><ele>167.8</ele><time>2015-04-30T13:23:16.0000000+00:00</time></trkpt><trkpt lat="34.7202697" lon="32.9895046"><ele>168.3</ele><time>2015-04-30T13:23:17.0000000+00:00</time></trkpt><trkpt lat="34.7202238" lon="32.9895577"><ele>168.0</ele><time>2015-04-30T13:23:18.0000000+00:00</time></trkpt><trkpt lat="34.7201806" lon="32.9896113"><ele>167.9</ele><time>2015-04-30T13:23:19.0000000+00:00</time></trkpt><trkpt lat="34.720126" lon="32.9896619"><ele>168.3</ele><time>2015-04-30T13:23:20.0000000+00:00</time></trkpt><trkpt lat="34.7200806" lon="32.9897116"><ele>168.5</ele><time>2015-04-30T13:23:21.0000000+00:00</time></trkpt><trkpt lat="34.7200368" lon="32.9897663"><ele>168.7</ele><time>2015-04-30T13:23:22.0000000+00:00</time></trkpt><trkpt lat="34.7200001" lon="32.9898171"><ele>169.2</ele><time>2015-04-30T13:23:23.0000000+00:00</time></trkpt><trkpt lat="34.7199606" lon="32.9898717"><ele>169.5</ele><time>2015-04-30T13:23:24.0000000+00:00</time></trkpt><trkpt lat="34.7199166" lon="32.9899222"><ele>169.6</ele><time>2015-04-30T13:23:25.0000000+00:00</time></trkpt><trkpt lat="34.7198762" lon="32.9899682"><ele>169.7</ele><time>2015-04-30T13:23:26.0000000+00:00</time></trkpt><trkpt lat="34.7198309" lon="32.9900153"><ele>169.7</ele><time>2015-04-30T13:23:27.0000000+00:00</time></trkpt><trkpt lat="34.7197777" lon="32.9900659"><ele>169.2</ele><time>2015-04-30T13:23:28.0000000+00:00</time></trkpt><trkpt lat="34.7197364" lon="32.9901036"><ele>169.0</ele><time>2015-04-30T13:23:29.0000000+00:00</time></trkpt><trkpt lat="34.7196961" lon="32.9901409"><ele>167.9</ele><time>2015-04-30T13:23:30.0000000+00:00</time></trkpt><trkpt lat="34.719644" lon="32.9901818"><ele>167.8</ele><time>2015-04-30T13:23:31.0000000+00:00</time></trkpt><trkpt lat="34.7195892" lon="32.9902246"><ele>167.8</ele><time>2015-04-30T13:23:32.0000000+00:00</time></trkpt><trkpt lat="34.7195379" lon="32.990273"><ele>167.3</ele><time>2015-04-30T13:23:33.0000000+00:00</time></trkpt><trkpt lat="34.719489" lon="32.9903213"><ele>167.5</ele><time>2015-04-30T13:23:34.0000000+00:00</time></trkpt><trkpt lat="34.7194277" lon="32.9903593"><ele>168.6</ele><time>2015-04-30T13:23:35.0000000+00:00</time></trkpt><trkpt lat="34.7193652" lon="32.9903972"><ele>169.7</ele><time>2015-04-30T13:23:36.0000000+00:00</time></trkpt><trkpt lat="34.7193148" lon="32.9904295"><ele>170.2</ele><time>2015-04-30T13:23:37.0000000+00:00</time></trkpt><trkpt lat="34.7192673" lon="32.9904673"><ele>171.0</ele><time>2015-04-30T13:23:38.0000000+00:00</time></trkpt><trkpt lat="34.7192232" lon="32.9904949"><ele>170.9</ele><time>2015-04-30T13:23:39.0000000+00:00</time></trkpt><trkpt lat="34.719168" lon="32.9905294"><ele>170.8</ele><time>2015-04-30T13:23:40.0000000+00:00</time></trkpt><trkpt lat="34.7191165" lon="32.9905561"><ele>170.8</ele><time>2015-04-30T13:23:41.0000000+00:00</time></trkpt><trkpt lat="34.719062" lon="32.9905795"><ele>170.3</ele><time>2015-04-30T13:23:42.0000000+00:00</time></trkpt><trkpt lat="34.7189982" lon="32.9906004"><ele>170.5</ele><time>2015-04-30T13:23:43.0000000+00:00</time></trkpt><trkpt lat="34.7189385" lon="32.990617"><ele>170.1</ele><time>2015-04-30T13:23:44.0000000+00:00</time></trkpt><trkpt lat="34.7188864" lon="32.9906444"><ele>169.5</ele><time>2015-04-30T13:23:45.0000000+00:00</time></trkpt><trkpt lat="34.7188267" lon="32.990672"><ele>169.1</ele><time>2015-04-30T13:23:46.0000000+00:00</time></trkpt><trkpt lat="34.7187744" lon="32.9906963"><ele>168.4</ele><time>2015-04-30T13:23:47.0000000+00:00</time></trkpt><trkpt lat="34.7187169" lon="32.9907188"><ele>168.1</ele><time>2015-04-30T13:23:48.0000000+00:00</time></trkpt><trkpt lat="34.7186572" lon="32.9907406"><ele>168.9</ele><time>2015-04-30T13:23:49.0000000+00:00</time></trkpt><trkpt lat="34.7186023" lon="32.9907601"><ele>168.8</ele><time>2015-04-30T13:23:50.0000000+00:00</time></trkpt><trkpt lat="34.7185387" lon="32.9907759"><ele>168.8</ele><time>2015-04-30T13:23:51.0000000+00:00</time></trkpt><trkpt lat="34.7184776" lon="32.9907988"><ele>168.8</ele><time>2015-04-30T13:23:52.0000000+00:00</time></trkpt><trkpt lat="34.7184285" lon="32.9908259"><ele>168.3</ele><time>2015-04-30T13:23:53.0000000+00:00</time></trkpt><trkpt lat="34.7183757" lon="32.9908527"><ele>168.5</ele><time>2015-04-30T13:23:54.0000000+00:00</time></trkpt><trkpt lat="34.7183234" lon="32.990886"><ele>168.1</ele><time>2015-04-30T13:23:55.0000000+00:00</time></trkpt><trkpt lat="34.718266" lon="32.9909213"><ele>167.5</ele><time>2015-04-30T13:23:56.0000000+00:00</time></trkpt><trkpt lat="34.7182141" lon="32.9909554"><ele>167.1</ele><time>2015-04-30T13:23:57.0000000+00:00</time></trkpt><trkpt lat="34.7181625" lon="32.9909967"><ele>166.4</ele><time>2015-04-30T13:23:58.0000000+00:00</time></trkpt><trkpt lat="34.7181052" lon="32.991029"><ele>166.1</ele><time>2015-04-30T13:23:59.0000000+00:00</time></trkpt><trkpt lat="34.7180564" lon="32.9910656"><ele>165.4</ele><time>2015-04-30T13:24:00.0000000+00:00</time></trkpt><trkpt lat="34.7180038" lon="32.9910974"><ele>165.1</ele><time>2015-04-30T13:24:01.0000000+00:00</time></trkpt><trkpt lat="34.7179525" lon="32.991132"><ele>164.9</ele><time>2015-04-30T13:24:02.0000000+00:00</time></trkpt><trkpt lat="34.7179008" lon="32.9911717"><ele>164.3</ele><time>2015-04-30T13:24:03.0000000+00:00</time></trkpt><trkpt lat="34.7178383" lon="32.9912177"><ele>164.1</ele><time>2015-04-30T13:24:04.0000000+00:00</time></trkpt><trkpt lat="34.7177838" lon="32.9912571"><ele>164.9</ele><time>2015-04-30T13:24:05.0000000+00:00</time></trkpt><trkpt lat="34.7177323" lon="32.9912952"><ele>165.3</ele><time>2015-04-30T13:24:06.0000000+00:00</time></trkpt><trkpt lat="34.7176846" lon="32.991342"><ele>165.1</ele><time>2015-04-30T13:24:07.0000000+00:00</time></trkpt><trkpt lat="34.7176352" lon="32.9913877"><ele>164.4</ele><time>2015-04-30T13:24:08.0000000+00:00</time></trkpt><trkpt lat="34.7175812" lon="32.9914369"><ele>163.6</ele><time>2015-04-30T13:24:09.0000000+00:00</time></trkpt><trkpt lat="34.7175407" lon="32.9914888"><ele>163.2</ele><time>2015-04-30T13:24:10.0000000+00:00</time></trkpt><trkpt lat="34.7174963" lon="32.9915451"><ele>162.0</ele><time>2015-04-30T13:24:11.0000000+00:00</time></trkpt><trkpt lat="34.71745" lon="32.9915993"><ele>161.4</ele><time>2015-04-30T13:24:12.0000000+00:00</time></trkpt><trkpt lat="34.717407" lon="32.9916432"><ele>161.1</ele><time>2015-04-30T13:24:13.0000000+00:00</time></trkpt><trkpt lat="34.717366" lon="32.9916896"><ele>160.9</ele><time>2015-04-30T13:24:14.0000000+00:00</time></trkpt><trkpt lat="34.7173188" lon="32.9917424"><ele>160.3</ele><time>2015-04-30T13:24:15.0000000+00:00</time></trkpt><trkpt lat="34.717278" lon="32.9917955"><ele>159.6</ele><time>2015-04-30T13:24:16.0000000+00:00</time></trkpt><trkpt lat="34.7172383" lon="32.9918514"><ele>158.7</ele><time>2015-04-30T13:24:17.0000000+00:00</time></trkpt><trkpt lat="34.7172065" lon="32.9919089"><ele>158.2</ele><time>2015-04-30T13:24:18.0000000+00:00</time></trkpt><trkpt lat="34.7171676" lon="32.99197"><ele>157.5</ele><time>2015-04-30T13:24:19.0000000+00:00</time></trkpt><trkpt lat="34.717127" lon="32.9920353"><ele>156.6</ele><time>2015-04-30T13:24:20.0000000+00:00</time></trkpt><trkpt lat="34.7170901" lon="32.9920952"><ele>155.7</ele><time>2015-04-30T13:24:21.0000000+00:00</time></trkpt><trkpt lat="34.7170608" lon="32.9921502"><ele>154.7</ele><time>2015-04-30T13:24:22.0000000+00:00</time></trkpt><trkpt lat="34.7170275" lon="32.9922005"><ele>154.2</ele><time>2015-04-30T13:24:23.0000000+00:00</time></trkpt><trkpt lat="34.7169977" lon="32.9922609"><ele>153.5</ele><time>2015-04-30T13:24:24.0000000+00:00</time></trkpt><trkpt lat="34.7169723" lon="32.9923308"><ele>153.1</ele><time>2015-04-30T13:24:25.0000000+00:00</time></trkpt><trkpt lat="34.7169364" lon="32.9923967"><ele>153.0</ele><time>2015-04-30T13:24:26.0000000+00:00</time></trkpt><trkpt lat="34.7169051" lon="32.9924601"><ele>152.9</ele><time>2015-04-30T13:24:27.0000000+00:00</time></trkpt><trkpt lat="34.7168766" lon="32.992523"><ele>152.3</ele><time>2015-04-30T13:24:28.0000000+00:00</time></trkpt><trkpt lat="34.7168461" lon="32.9925842"><ele>152.0</ele><time>2015-04-30T13:24:29.0000000+00:00</time></trkpt><trkpt lat="34.7168107" lon="32.9926494"><ele>151.9</ele><time>2015-04-30T13:24:30.0000000+00:00</time></trkpt><trkpt lat="34.7167813" lon="32.9927213"><ele>151.8</ele><time>2015-04-30T13:24:31.0000000+00:00</time></trkpt><trkpt lat="34.7167454" lon="32.992797"><ele>151.3</ele><time>2015-04-30T13:24:32.0000000+00:00</time></trkpt><trkpt lat="34.7167127" lon="32.9929006"><ele>151.0</ele><time>2015-04-30T13:24:33.0000000+00:00</time></trkpt><trkpt lat="34.7166759" lon="32.9930033"><ele>150.4</ele><time>2015-04-30T13:24:34.0000000+00:00</time></trkpt><trkpt lat="34.7166459" lon="32.9931045"><ele>150.1</ele><time>2015-04-30T13:24:35.0000000+00:00</time></trkpt><trkpt lat="34.7166222" lon="32.9932193"><ele>149.4</ele><time>2015-04-30T13:24:36.0000000+00:00</time></trkpt><trkpt lat="34.7165881" lon="32.9933259"><ele>149.6</ele><time>2015-04-30T13:24:37.0000000+00:00</time></trkpt><trkpt lat="34.716542" lon="32.9934331"><ele>149.7</ele><time>2015-04-30T13:24:38.0000000+00:00</time></trkpt><trkpt lat="34.7165057" lon="32.9935355"><ele>150.2</ele><time>2015-04-30T13:24:39.0000000+00:00</time></trkpt><trkpt lat="34.716466" lon="32.9936465"><ele>150.5</ele><time>2015-04-30T13:24:40.0000000+00:00</time></trkpt><trkpt lat="34.7164159" lon="32.9937638"><ele>150.6</ele><time>2015-04-30T13:24:41.0000000+00:00</time></trkpt><trkpt lat="34.716368" lon="32.9938794"><ele>150.7</ele><time>2015-04-30T13:24:42.0000000+00:00</time></trkpt><trkpt lat="34.7163247" lon="32.9940016"><ele>150.7</ele><time>2015-04-30T13:24:43.0000000+00:00</time></trkpt><trkpt lat="34.7162764" lon="32.9941174"><ele>150.7</ele><time>2015-04-30T13:24:44.0000000+00:00</time></trkpt><trkpt lat="34.7162367" lon="32.9942316"><ele>151.3</ele><time>2015-04-30T13:24:45.0000000+00:00</time></trkpt><trkpt lat="34.7162047" lon="32.9943359"><ele>151.0</ele><time>2015-04-30T13:24:46.0000000+00:00</time></trkpt><trkpt lat="34.7161682" lon="32.9944314"><ele>150.9</ele><time>2015-04-30T13:24:47.0000000+00:00</time></trkpt><trkpt lat="34.7161248" lon="32.9945419"><ele>150.8</ele><time>2015-04-30T13:24:48.0000000+00:00</time></trkpt><trkpt lat="34.716082" lon="32.9946566"><ele>150.3</ele><time>2015-04-30T13:24:49.0000000+00:00</time></trkpt><trkpt lat="34.7160337" lon="32.9947592"><ele>150.0</ele><time>2015-04-30T13:24:50.0000000+00:00</time></trkpt><trkpt lat="34.7159808" lon="32.9948713"><ele>149.9</ele><time>2015-04-30T13:24:51.0000000+00:00</time></trkpt><trkpt lat="34.7159294" lon="32.9949791"><ele>149.3</ele><time>2015-04-30T13:24:52.0000000+00:00</time></trkpt><trkpt lat="34.7158745" lon="32.9950741"><ele>149.5</ele><time>2015-04-30T13:24:53.0000000+00:00</time></trkpt><trkpt lat="34.7158237" lon="32.9951787"><ele>149.7</ele><time>2015-04-30T13:24:54.0000000+00:00</time></trkpt><trkpt lat="34.7157689" lon="32.9952777"><ele>149.2</ele><time>2015-04-30T13:24:55.0000000+00:00</time></trkpt><trkpt lat="34.7157054" lon="32.9953815"><ele>149.0</ele><time>2015-04-30T13:24:56.0000000+00:00</time></trkpt><trkpt lat="34.7156398" lon="32.9954881"><ele>147.9</ele><time>2015-04-30T13:24:57.0000000+00:00</time></trkpt><trkpt lat="34.7155767" lon="32.9955908"><ele>147.3</ele><time>2015-04-30T13:24:58.0000000+00:00</time></trkpt><trkpt lat="34.7155022" lon="32.9956894"><ele>146.5</ele><time>2015-04-30T13:24:59.0000000+00:00</time></trkpt><trkpt lat="34.7154281" lon="32.9957776"><ele>145.2</ele><time>2015-04-30T13:25:00.0000000+00:00</time></trkpt><trkpt lat="34.7153531" lon="32.9958586"><ele>143.5</ele><time>2015-04-30T13:25:01.0000000+00:00</time></trkpt><trkpt lat="34.7152843" lon="32.995943"><ele>142.6</ele><time>2015-04-30T13:25:02.0000000+00:00</time></trkpt><trkpt lat="34.7152088" lon="32.9960287"><ele>141.7</ele><time>2015-04-30T13:25:03.0000000+00:00</time></trkpt><trkpt lat="34.7151178" lon="32.9961083"><ele>141.7</ele><time>2015-04-30T13:25:04.0000000+00:00</time></trkpt><trkpt lat="34.7150328" lon="32.9961944"><ele>141.2</ele><time>2015-04-30T13:25:05.0000000+00:00</time></trkpt><trkpt lat="34.7149502" lon="32.9962763"><ele>141.0</ele><time>2015-04-30T13:25:06.0000000+00:00</time></trkpt><trkpt lat="34.7148654" lon="32.996354"><ele>140.9</ele><time>2015-04-30T13:25:07.0000000+00:00</time></trkpt><trkpt lat="34.7147726" lon="32.9964348"><ele>140.3</ele><time>2015-04-30T13:25:08.0000000+00:00</time></trkpt><trkpt lat="34.7146928" lon="32.9965026"><ele>140.0</ele><time>2015-04-30T13:25:09.0000000+00:00</time></trkpt><trkpt lat="34.7146232" lon="32.9965653"><ele>138.9</ele><time>2015-04-30T13:25:10.0000000+00:00</time></trkpt><trkpt lat="34.7145584" lon="32.9966166"><ele>138.8</ele><time>2015-04-30T13:25:11.0000000+00:00</time></trkpt><trkpt lat="34.7145154" lon="32.9966425"><ele>138.8</ele><time>2015-04-30T13:25:12.0000000+00:00</time></trkpt><trkpt lat="34.7144591" lon="32.9966809"><ele>139.0</ele><time>2015-04-30T13:25:15.0000000+00:00</time></trkpt><trkpt lat="34.7144043" lon="32.9967136"><ele>139.3</ele><time>2015-04-30T13:25:18.0000000+00:00</time></trkpt><trkpt lat="34.7143526" lon="32.9967441"><ele>139.4</ele><time>2015-04-30T13:25:20.0000000+00:00</time></trkpt><trkpt lat="34.7143043" lon="32.996777"><ele>138.9</ele><time>2015-04-30T13:25:22.0000000+00:00</time></trkpt><trkpt lat="34.7142346" lon="32.9968142"><ele>138.1</ele><time>2015-04-30T13:25:24.0000000+00:00</time></trkpt><trkpt lat="34.7141848" lon="32.9968409"><ele>136.9</ele><time>2015-04-30T13:25:25.0000000+00:00</time></trkpt><trkpt lat="34.7141352" lon="32.9968637"><ele>136.8</ele><time>2015-04-30T13:25:26.0000000+00:00</time></trkpt><trkpt lat="34.7140817" lon="32.9968963"><ele>136.3</ele><time>2015-04-30T13:25:27.0000000+00:00</time></trkpt><trkpt lat="34.7140221" lon="32.9969408"><ele>135.5</ele><time>2015-04-30T13:25:28.0000000+00:00</time></trkpt><trkpt lat="34.7139563" lon="32.9969801"><ele>134.6</ele><time>2015-04-30T13:25:29.0000000+00:00</time></trkpt><trkpt lat="34.7138887" lon="32.9970223"><ele>133.7</ele><time>2015-04-30T13:25:30.0000000+00:00</time></trkpt><trkpt lat="34.7138195" lon="32.9970706"><ele>133.7</ele><time>2015-04-30T13:25:31.0000000+00:00</time></trkpt><trkpt lat="34.7137468" lon="32.9971144"><ele>133.3</ele><time>2015-04-30T13:25:32.0000000+00:00</time></trkpt><trkpt lat="34.7136758" lon="32.9971587"><ele>132.5</ele><time>2015-04-30T13:25:33.0000000+00:00</time></trkpt><trkpt lat="34.713597" lon="32.9972002"><ele>131.6</ele><time>2015-04-30T13:25:34.0000000+00:00</time></trkpt><trkpt lat="34.7135241" lon="32.9972509"><ele>131.2</ele><time>2015-04-30T13:25:35.0000000+00:00</time></trkpt><trkpt lat="34.7134482" lon="32.9972998"><ele>130.5</ele><time>2015-04-30T13:25:36.0000000+00:00</time></trkpt><trkpt lat="34.7133744" lon="32.9973473"><ele>129.6</ele><time>2015-04-30T13:25:37.0000000+00:00</time></trkpt><trkpt lat="34.7132972" lon="32.997393"><ele>128.7</ele><time>2015-04-30T13:25:38.0000000+00:00</time></trkpt><trkpt lat="34.7132209" lon="32.9974416"><ele>128.2</ele><time>2015-04-30T13:25:39.0000000+00:00</time></trkpt><trkpt lat="34.7131422" lon="32.9974939"><ele>127.5</ele><time>2015-04-30T13:25:40.0000000+00:00</time></trkpt><trkpt lat="34.7130681" lon="32.9975372"><ele>126.1</ele><time>2015-04-30T13:25:41.0000000+00:00</time></trkpt><trkpt lat="34.712994" lon="32.9975829"><ele>124.4</ele><time>2015-04-30T13:25:42.0000000+00:00</time></trkpt><trkpt lat="34.7129184" lon="32.997631"><ele>123.1</ele><time>2015-04-30T13:25:43.0000000+00:00</time></trkpt><trkpt lat="34.7128374" lon="32.9976851"><ele>122.4</ele><time>2015-04-30T13:25:44.0000000+00:00</time></trkpt><trkpt lat="34.7127577" lon="32.9977396"><ele>122.1</ele><time>2015-04-30T13:25:45.0000000+00:00</time></trkpt><trkpt lat="34.7126844" lon="32.9977838"><ele>121.4</ele><time>2015-04-30T13:25:46.0000000+00:00</time></trkpt><trkpt lat="34.7126094" lon="32.9978318"><ele>121.1</ele><time>2015-04-30T13:25:47.0000000+00:00</time></trkpt><trkpt lat="34.7125357" lon="32.9978793"><ele>120.9</ele><time>2015-04-30T13:25:48.0000000+00:00</time></trkpt><trkpt lat="34.712464" lon="32.9979251"><ele>120.3</ele><time>2015-04-30T13:25:49.0000000+00:00</time></trkpt><trkpt lat="34.7123833" lon="32.9979704"><ele>121.1</ele><time>2015-04-30T13:25:50.0000000+00:00</time></trkpt><trkpt lat="34.712309" lon="32.9980177"><ele>120.4</ele><time>2015-04-30T13:25:51.0000000+00:00</time></trkpt><trkpt lat="34.7122408" lon="32.9980653"><ele>119.6</ele><time>2015-04-30T13:25:52.0000000+00:00</time></trkpt><trkpt lat="34.7121754" lon="32.9981075"><ele>119.2</ele><time>2015-04-30T13:25:53.0000000+00:00</time></trkpt><trkpt lat="34.7121043" lon="32.9981574"><ele>119.0</ele><time>2015-04-30T13:25:54.0000000+00:00</time></trkpt><trkpt lat="34.7120422" lon="32.9982214"><ele>118.4</ele><time>2015-04-30T13:25:55.0000000+00:00</time></trkpt><trkpt lat="34.7119707" lon="32.9982709"><ele>118.6</ele><time>2015-04-30T13:25:56.0000000+00:00</time></trkpt><trkpt lat="34.7118998" lon="32.9983252"><ele>118.2</ele><time>2015-04-30T13:25:57.0000000+00:00</time></trkpt><trkpt lat="34.7118346" lon="32.9983721"><ele>117.5</ele><time>2015-04-30T13:25:58.0000000+00:00</time></trkpt><trkpt lat="34.7117678" lon="32.9984153"><ele>117.1</ele><time>2015-04-30T13:25:59.0000000+00:00</time></trkpt><trkpt lat="34.7116925" lon="32.9984599"><ele>116.4</ele><time>2015-04-30T13:26:00.0000000+00:00</time></trkpt><trkpt lat="34.7116185" lon="32.9984957"><ele>116.1</ele><time>2015-04-30T13:26:01.0000000+00:00</time></trkpt><trkpt lat="34.7115465" lon="32.9985409"><ele>115.4</ele><time>2015-04-30T13:26:02.0000000+00:00</time></trkpt><trkpt lat="34.7114734" lon="32.9985851"><ele>114.6</ele><time>2015-04-30T13:26:03.0000000+00:00</time></trkpt><trkpt lat="34.7113993" lon="32.9986277"><ele>113.7</ele><time>2015-04-30T13:26:04.0000000+00:00</time></trkpt><trkpt lat="34.7113295" lon="32.9986713"><ele>113.2</ele><time>2015-04-30T13:26:05.0000000+00:00</time></trkpt><trkpt lat="34.7112552" lon="32.9987159"><ele>113.0</ele><time>2015-04-30T13:26:06.0000000+00:00</time></trkpt><trkpt lat="34.711183" lon="32.9987664"><ele>113.4</ele><time>2015-04-30T13:26:07.0000000+00:00</time></trkpt><trkpt lat="34.7111137" lon="32.9988134"><ele>113.6</ele><time>2015-04-30T13:26:08.0000000+00:00</time></trkpt><trkpt lat="34.7110464" lon="32.998863"><ele>113.2</ele><time>2015-04-30T13:26:09.0000000+00:00</time></trkpt><trkpt lat="34.7109651" lon="32.9989169"><ele>113.0</ele><time>2015-04-30T13:26:10.0000000+00:00</time></trkpt><trkpt lat="34.7108929" lon="32.9989735"><ele>112.9</ele><time>2015-04-30T13:26:11.0000000+00:00</time></trkpt><trkpt lat="34.7108157" lon="32.9990305"><ele>112.3</ele><time>2015-04-30T13:26:12.0000000+00:00</time></trkpt><trkpt lat="34.7107424" lon="32.9990814"><ele>112.0</ele><time>2015-04-30T13:26:13.0000000+00:00</time></trkpt><trkpt lat="34.7106736" lon="32.9991403"><ele>111.4</ele><time>2015-04-30T13:26:14.0000000+00:00</time></trkpt><trkpt lat="34.7106022" lon="32.9991913"><ele>111.1</ele><time>2015-04-30T13:26:15.0000000+00:00</time></trkpt><trkpt lat="34.7105277" lon="32.9992439"><ele>111.4</ele><time>2015-04-30T13:26:16.0000000+00:00</time></trkpt><trkpt lat="34.7104591" lon="32.9992879"><ele>111.1</ele><time>2015-04-30T13:26:17.0000000+00:00</time></trkpt><trkpt lat="34.7103934" lon="32.9993375"><ele>111.4</ele><time>2015-04-30T13:26:18.0000000+00:00</time></trkpt><trkpt lat="34.7103305" lon="32.9993827"><ele>111.6</ele><time>2015-04-30T13:26:19.0000000+00:00</time></trkpt><trkpt lat="34.7102621" lon="32.9994299"><ele>112.2</ele><time>2015-04-30T13:26:20.0000000+00:00</time></trkpt><trkpt lat="34.7101918" lon="32.9994655"><ele>113.0</ele><time>2015-04-30T13:26:21.0000000+00:00</time></trkpt><trkpt lat="34.7101271" lon="32.9995019"><ele>112.9</ele><time>2015-04-30T13:26:22.0000000+00:00</time></trkpt><trkpt lat="34.7100596" lon="32.9995453"><ele>113.3</ele><time>2015-04-30T13:26:23.0000000+00:00</time></trkpt><trkpt lat="34.7099985" lon="32.9995864"><ele>113.0</ele><time>2015-04-30T13:26:24.0000000+00:00</time></trkpt><trkpt lat="34.7099446" lon="32.9996336"><ele>112.4</ele><time>2015-04-30T13:26:25.0000000+00:00</time></trkpt><trkpt lat="34.70989" lon="32.9996749"><ele>111.6</ele><time>2015-04-30T13:26:26.0000000+00:00</time></trkpt><trkpt lat="34.7098308" lon="32.9997135"><ele>110.7</ele><time>2015-04-30T13:26:27.0000000+00:00</time></trkpt><trkpt lat="34.7097667" lon="32.9997483"><ele>110.2</ele><time>2015-04-30T13:26:28.0000000+00:00</time></trkpt><trkpt lat="34.7097115" lon="32.9997891"><ele>109.5</ele><time>2015-04-30T13:26:29.0000000+00:00</time></trkpt><trkpt lat="34.7096502" lon="32.9998247"><ele>108.1</ele><time>2015-04-30T13:26:30.0000000+00:00</time></trkpt><trkpt lat="34.7095833" lon="32.9998664"><ele>107.4</ele><time>2015-04-30T13:26:31.0000000+00:00</time></trkpt><trkpt lat="34.7095076" lon="32.9999251"><ele>106.6</ele><time>2015-04-30T13:26:32.0000000+00:00</time></trkpt><trkpt lat="34.7094253" lon="32.9999776"><ele>106.7</ele><time>2015-04-30T13:26:33.0000000+00:00</time></trkpt><trkpt lat="34.7093466" lon="33.0000325"><ele>106.7</ele><time>2015-04-30T13:26:34.0000000+00:00</time></trkpt><trkpt lat="34.7092699" lon="33.0000882"><ele>106.7</ele><time>2015-04-30T13:26:35.0000000+00:00</time></trkpt><trkpt lat="34.7091956" lon="33.0001447"><ele>106.8</ele><time>2015-04-30T13:26:36.0000000+00:00</time></trkpt><trkpt lat="34.7091244" lon="33.0002067"><ele>106.3</ele><time>2015-04-30T13:26:37.0000000+00:00</time></trkpt><trkpt lat="34.7090612" lon="33.0002655"><ele>105.5</ele><time>2015-04-30T13:26:38.0000000+00:00</time></trkpt><trkpt lat="34.7089977" lon="33.0003185"><ele>104.1</ele><time>2015-04-30T13:26:39.0000000+00:00</time></trkpt><trkpt lat="34.7089251" lon="33.000379"><ele>103.5</ele><time>2015-04-30T13:26:40.0000000+00:00</time></trkpt><trkpt lat="34.7088518" lon="33.0004361"><ele>103.1</ele><time>2015-04-30T13:26:41.0000000+00:00</time></trkpt><trkpt lat="34.7087817" lon="33.0004884"><ele>102.4</ele><time>2015-04-30T13:26:42.0000000+00:00</time></trkpt><trkpt lat="34.7087201" lon="33.0005374"><ele>102.1</ele><time>2015-04-30T13:26:43.0000000+00:00</time></trkpt><trkpt lat="34.7086483" lon="33.0005908"><ele>101.9</ele><time>2015-04-30T13:26:44.0000000+00:00</time></trkpt><trkpt lat="34.7085797" lon="33.000637"><ele>101.8</ele><time>2015-04-30T13:26:45.0000000+00:00</time></trkpt><trkpt lat="34.7085106" lon="33.0006951"><ele>102.3</ele><time>2015-04-30T13:26:46.0000000+00:00</time></trkpt><trkpt lat="34.7084413" lon="33.0007486"><ele>102.5</ele><time>2015-04-30T13:26:47.0000000+00:00</time></trkpt><trkpt lat="34.7083688" lon="33.0008029"><ele>102.2</ele><time>2015-04-30T13:26:48.0000000+00:00</time></trkpt><trkpt lat="34.708301" lon="33.0008562"><ele>102.0</ele><time>2015-04-30T13:26:49.0000000+00:00</time></trkpt><trkpt lat="34.7082286" lon="33.0009183"><ele>102.4</ele><time>2015-04-30T13:26:50.0000000+00:00</time></trkpt><trkpt lat="34.7081594" lon="33.0009636"><ele>102.1</ele><time>2015-04-30T13:26:51.0000000+00:00</time></trkpt><trkpt lat="34.7080906" lon="33.0010178"><ele>101.4</ele><time>2015-04-30T13:26:52.0000000+00:00</time></trkpt><trkpt lat="34.7080249" lon="33.0010712"><ele>101.6</ele><time>2015-04-30T13:26:53.0000000+00:00</time></trkpt><trkpt lat="34.7079544" lon="33.0011286"><ele>101.7</ele><time>2015-04-30T13:26:54.0000000+00:00</time></trkpt><trkpt lat="34.7078921" lon="33.0011839"><ele>101.2</ele><time>2015-04-30T13:26:55.0000000+00:00</time></trkpt><trkpt lat="34.7078242" lon="33.0012388"><ele>101.0</ele><time>2015-04-30T13:26:56.0000000+00:00</time></trkpt><trkpt lat="34.7077591" lon="33.001292"><ele>100.9</ele><time>2015-04-30T13:26:57.0000000+00:00</time></trkpt><trkpt lat="34.7076882" lon="33.0013479"><ele>101.3</ele><time>2015-04-30T13:26:58.0000000+00:00</time></trkpt><trkpt lat="34.707627" lon="33.0013988"><ele>101.5</ele><time>2015-04-30T13:26:59.0000000+00:00</time></trkpt><trkpt lat="34.707555" lon="33.0014587"><ele>101.7</ele><time>2015-04-30T13:27:00.0000000+00:00</time></trkpt><trkpt lat="34.7074843" lon="33.0015175"><ele>102.2</ele><time>2015-04-30T13:27:01.0000000+00:00</time></trkpt><trkpt lat="34.7074241" lon="33.0015718"><ele>102.0</ele><time>2015-04-30T13:27:02.0000000+00:00</time></trkpt><trkpt lat="34.7073602" lon="33.0016298"><ele>101.4</ele><time>2015-04-30T13:27:03.0000000+00:00</time></trkpt><trkpt lat="34.7072972" lon="33.0016809"><ele>101.1</ele><time>2015-04-30T13:27:04.0000000+00:00</time></trkpt><trkpt lat="34.7072348" lon="33.0017371"><ele>101.4</ele><time>2015-04-30T13:27:05.0000000+00:00</time></trkpt><trkpt lat="34.7071767" lon="33.0017891"><ele>101.6</ele><time>2015-04-30T13:27:06.0000000+00:00</time></trkpt><trkpt lat="34.7071107" lon="33.0018459"><ele>102.2</ele><time>2015-04-30T13:27:07.0000000+00:00</time></trkpt><trkpt lat="34.7070375" lon="33.0019012"><ele>103.0</ele><time>2015-04-30T13:27:08.0000000+00:00</time></trkpt><trkpt lat="34.7069786" lon="33.0019554"><ele>102.4</ele><time>2015-04-30T13:27:09.0000000+00:00</time></trkpt><trkpt lat="34.7069099" lon="33.0020082"><ele>102.1</ele><time>2015-04-30T13:27:10.0000000+00:00</time></trkpt><trkpt lat="34.7068421" lon="33.0020588"><ele>101.9</ele><time>2015-04-30T13:27:11.0000000+00:00</time></trkpt><trkpt lat="34.7067695" lon="33.0021166"><ele>101.8</ele><time>2015-04-30T13:27:12.0000000+00:00</time></trkpt><trkpt lat="34.7067026" lon="33.0021744"><ele>101.8</ele><time>2015-04-30T13:27:13.0000000+00:00</time></trkpt><trkpt lat="34.7066416" lon="33.0022333"><ele>101.8</ele><time>2015-04-30T13:27:14.0000000+00:00</time></trkpt><trkpt lat="34.7065805" lon="33.0022856"><ele>101.3</ele><time>2015-04-30T13:27:15.0000000+00:00</time></trkpt><trkpt lat="34.7065165" lon="33.0023496"><ele>101.0</ele><time>2015-04-30T13:27:16.0000000+00:00</time></trkpt><trkpt lat="34.7064506" lon="33.0024038"><ele>100.9</ele><time>2015-04-30T13:27:17.0000000+00:00</time></trkpt><trkpt lat="34.7063953" lon="33.0024539"><ele>100.8</ele><time>2015-04-30T13:27:18.0000000+00:00</time></trkpt><trkpt lat="34.706339" lon="33.0025086"><ele>100.3</ele><time>2015-04-30T13:27:19.0000000+00:00</time></trkpt><trkpt lat="34.7062857" lon="33.0025678"><ele>98.0</ele><time>2015-04-30T13:27:20.0000000+00:00</time></trkpt><trkpt lat="34.7062181" lon="33.0026237"><ele>96.9</ele><time>2015-04-30T13:27:21.0000000+00:00</time></trkpt><trkpt lat="34.7061587" lon="33.0026782"><ele>96.3</ele><time>2015-04-30T13:27:22.0000000+00:00</time></trkpt><trkpt lat="34.7060937" lon="33.0027289"><ele>95.5</ele><time>2015-04-30T13:27:23.0000000+00:00</time></trkpt><trkpt lat="34.7060323" lon="33.0027799"><ele>94.7</ele><time>2015-04-30T13:27:24.0000000+00:00</time></trkpt><trkpt lat="34.7059728" lon="33.0028319"><ele>95.2</ele><time>2015-04-30T13:27:25.0000000+00:00</time></trkpt><trkpt lat="34.7059121" lon="33.0028761"><ele>94.5</ele><time>2015-04-30T13:27:26.0000000+00:00</time></trkpt><trkpt lat="34.7058507" lon="33.0029264"><ele>94.1</ele><time>2015-04-30T13:27:27.0000000+00:00</time></trkpt><trkpt lat="34.7057752" lon="33.002976"><ele>94.4</ele><time>2015-04-30T13:27:28.0000000+00:00</time></trkpt><trkpt lat="34.7057175" lon="33.0030222"><ele>94.6</ele><time>2015-04-30T13:27:29.0000000+00:00</time></trkpt><trkpt lat="34.7056501" lon="33.0030692"><ele>95.2</ele><time>2015-04-30T13:27:30.0000000+00:00</time></trkpt><trkpt lat="34.705592" lon="33.0031139"><ele>95.5</ele><time>2015-04-30T13:27:31.0000000+00:00</time></trkpt><trkpt lat="34.7055258" lon="33.0031658"><ele>96.1</ele><time>2015-04-30T13:27:32.0000000+00:00</time></trkpt><trkpt lat="34.7054704" lon="33.0032043"><ele>95.9</ele><time>2015-04-30T13:27:33.0000000+00:00</time></trkpt><trkpt lat="34.7054161" lon="33.0032495"><ele>96.4</ele><time>2015-04-30T13:27:34.0000000+00:00</time></trkpt><trkpt lat="34.7053562" lon="33.0032728"><ele>97.1</ele><time>2015-04-30T13:27:35.0000000+00:00</time></trkpt><trkpt lat="34.7052954" lon="33.0033046"><ele>97.4</ele><time>2015-04-30T13:27:36.0000000+00:00</time></trkpt><trkpt lat="34.7052376" lon="33.0033385"><ele>97.6</ele><time>2015-04-30T13:27:37.0000000+00:00</time></trkpt><trkpt lat="34.7051796" lon="33.0033749"><ele>98.7</ele><time>2015-04-30T13:27:38.0000000+00:00</time></trkpt><trkpt lat="34.7051245" lon="33.003402"><ele>99.2</ele><time>2015-04-30T13:27:39.0000000+00:00</time></trkpt><trkpt lat="34.7050695" lon="33.0034362"><ele>100.0</ele><time>2015-04-30T13:27:40.0000000+00:00</time></trkpt><trkpt lat="34.7050222" lon="33.0034599"><ele>100.4</ele><time>2015-04-30T13:27:41.0000000+00:00</time></trkpt><trkpt lat="34.7049691" lon="33.0034926"><ele>101.1</ele><time>2015-04-30T13:27:42.0000000+00:00</time></trkpt><trkpt lat="34.7049186" lon="33.0035146"><ele>101.4</ele><time>2015-04-30T13:27:43.0000000+00:00</time></trkpt><trkpt lat="34.7048673" lon="33.0035351"><ele>101.6</ele><time>2015-04-30T13:27:44.0000000+00:00</time></trkpt><trkpt lat="34.7048161" lon="33.0035613"><ele>101.7</ele><time>2015-04-30T13:27:45.0000000+00:00</time></trkpt><trkpt lat="34.7047537" lon="33.0035982"><ele>102.7</ele><time>2015-04-30T13:27:46.0000000+00:00</time></trkpt><trkpt lat="34.7046946" lon="33.0036306"><ele>103.2</ele><time>2015-04-30T13:27:47.0000000+00:00</time></trkpt><trkpt lat="34.7046312" lon="33.0036593"><ele>103.5</ele><time>2015-04-30T13:27:48.0000000+00:00</time></trkpt><trkpt lat="34.7045767" lon="33.0036924"><ele>102.6</ele><time>2015-04-30T13:27:49.0000000+00:00</time></trkpt><trkpt lat="34.7045266" lon="33.0037218"><ele>102.7</ele><time>2015-04-30T13:27:50.0000000+00:00</time></trkpt><trkpt lat="34.7044674" lon="33.0037547"><ele>102.7</ele><time>2015-04-30T13:27:51.0000000+00:00</time></trkpt><trkpt lat="34.7044088" lon="33.0037948"><ele>102.2</ele><time>2015-04-30T13:27:52.0000000+00:00</time></trkpt><trkpt lat="34.7043551" lon="33.0038279"><ele>101.0</ele><time>2015-04-30T13:27:53.0000000+00:00</time></trkpt><trkpt lat="34.70429" lon="33.0038654"><ele>100.4</ele><time>2015-04-30T13:27:54.0000000+00:00</time></trkpt><trkpt lat="34.7042271" lon="33.0038956"><ele>99.1</ele><time>2015-04-30T13:27:55.0000000+00:00</time></trkpt><trkpt lat="34.704162" lon="33.0039239"><ele>97.9</ele><time>2015-04-30T13:27:56.0000000+00:00</time></trkpt><trkpt lat="34.7040999" lon="33.0039461"><ele>96.8</ele><time>2015-04-30T13:27:57.0000000+00:00</time></trkpt><trkpt lat="34.7040429" lon="33.0039862"><ele>96.8</ele><time>2015-04-30T13:27:58.0000000+00:00</time></trkpt><trkpt lat="34.7039806" lon="33.0040109"><ele>96.3</ele><time>2015-04-30T13:27:59.0000000+00:00</time></trkpt><trkpt lat="34.7039161" lon="33.0040356"><ele>95.5</ele><time>2015-04-30T13:28:00.0000000+00:00</time></trkpt><trkpt lat="34.7038582" lon="33.0040628"><ele>94.6</ele><time>2015-04-30T13:28:01.0000000+00:00</time></trkpt><trkpt lat="34.7037997" lon="33.0040972"><ele>94.7</ele><time>2015-04-30T13:28:02.0000000+00:00</time></trkpt><trkpt lat="34.7037441" lon="33.0041247"><ele>94.7</ele><time>2015-04-30T13:28:03.0000000+00:00</time></trkpt><trkpt lat="34.7036859" lon="33.0041616"><ele>94.7</ele><time>2015-04-30T13:28:04.0000000+00:00</time></trkpt><trkpt lat="34.7036328" lon="33.0041853"><ele>94.8</ele><time>2015-04-30T13:28:05.0000000+00:00</time></trkpt><trkpt lat="34.7035769" lon="33.0042249"><ele>95.3</ele><time>2015-04-30T13:28:06.0000000+00:00</time></trkpt><trkpt lat="34.7035185" lon="33.0042586"><ele>95.5</ele><time>2015-04-30T13:28:07.0000000+00:00</time></trkpt><trkpt lat="34.703457" lon="33.0042872"><ele>95.6</ele><time>2015-04-30T13:28:08.0000000+00:00</time></trkpt><trkpt lat="34.7033977" lon="33.0043183"><ele>94.7</ele><time>2015-04-30T13:28:09.0000000+00:00</time></trkpt><trkpt lat="34.7033357" lon="33.004346"><ele>94.7</ele><time>2015-04-30T13:28:10.0000000+00:00</time></trkpt><trkpt lat="34.7032713" lon="33.0043718"><ele>94.2</ele><time>2015-04-30T13:28:11.0000000+00:00</time></trkpt><trkpt lat="34.7032057" lon="33.00441"><ele>94.0</ele><time>2015-04-30T13:28:12.0000000+00:00</time></trkpt><trkpt lat="34.7031439" lon="33.0044354"><ele>93.9</ele><time>2015-04-30T13:28:13.0000000+00:00</time></trkpt><trkpt lat="34.7030809" lon="33.0044724"><ele>93.8</ele><time>2015-04-30T13:28:14.0000000+00:00</time></trkpt><trkpt lat="34.7030204" lon="33.0045056"><ele>93.3</ele><time>2015-04-30T13:28:15.0000000+00:00</time></trkpt><trkpt lat="34.7029534" lon="33.0045318"><ele>93.0</ele><time>2015-04-30T13:28:16.0000000+00:00</time></trkpt><trkpt lat="34.7028905" lon="33.0045597"><ele>92.4</ele><time>2015-04-30T13:28:17.0000000+00:00</time></trkpt><trkpt lat="34.7028321" lon="33.0045999"><ele>92.1</ele><time>2015-04-30T13:28:18.0000000+00:00</time></trkpt><trkpt lat="34.7027747" lon="33.0046465"><ele>91.9</ele><time>2015-04-30T13:28:19.0000000+00:00</time></trkpt><trkpt lat="34.7027048" lon="33.0046822"><ele>91.8</ele><time>2015-04-30T13:28:20.0000000+00:00</time></trkpt><trkpt lat="34.7026432" lon="33.0047214"><ele>91.8</ele><time>2015-04-30T13:28:21.0000000+00:00</time></trkpt><trkpt lat="34.7025927" lon="33.004755"><ele>91.8</ele><time>2015-04-30T13:28:22.0000000+00:00</time></trkpt><trkpt lat="34.7025424" lon="33.0048054"><ele>91.8</ele><time>2015-04-30T13:28:23.0000000+00:00</time></trkpt><trkpt lat="34.7024938" lon="33.0048458"><ele>91.8</ele><time>2015-04-30T13:28:24.0000000+00:00</time></trkpt><trkpt lat="34.7024424" lon="33.0048861"><ele>91.3</ele><time>2015-04-30T13:28:25.0000000+00:00</time></trkpt><trkpt lat="34.7023897" lon="33.0049303"><ele>91.0</ele><time>2015-04-30T13:28:26.0000000+00:00</time></trkpt><trkpt lat="34.7023422" lon="33.0049729"><ele>91.4</ele><time>2015-04-30T13:28:27.0000000+00:00</time></trkpt><trkpt lat="34.7022897" lon="33.0050166"><ele>91.6</ele><time>2015-04-30T13:28:28.0000000+00:00</time></trkpt><trkpt lat="34.7022467" lon="33.0050591"><ele>91.2</ele><time>2015-04-30T13:28:29.0000000+00:00</time></trkpt><trkpt lat="34.702193" lon="33.0051058"><ele>91.5</ele><time>2015-04-30T13:28:30.0000000+00:00</time></trkpt><trkpt lat="34.7021438" lon="33.0051507"><ele>91.6</ele><time>2015-04-30T13:28:31.0000000+00:00</time></trkpt><trkpt lat="34.7021002" lon="33.0051994"><ele>91.2</ele><time>2015-04-30T13:28:32.0000000+00:00</time></trkpt><trkpt lat="34.7020533" lon="33.0052513"><ele>90.5</ele><time>2015-04-30T13:28:33.0000000+00:00</time></trkpt><trkpt lat="34.7020117" lon="33.005302"><ele>89.6</ele><time>2015-04-30T13:28:34.0000000+00:00</time></trkpt><trkpt lat="34.7019709" lon="33.0053582"><ele>89.2</ele><time>2015-04-30T13:28:35.0000000+00:00</time></trkpt><trkpt lat="34.7019363" lon="33.0054202"><ele>88.5</ele><time>2015-04-30T13:28:36.0000000+00:00</time></trkpt><trkpt lat="34.7018903" lon="33.0054701"><ele>87.6</ele><time>2015-04-30T13:28:37.0000000+00:00</time></trkpt><trkpt lat="34.7018522" lon="33.0055277"><ele>87.7</ele><time>2015-04-30T13:28:38.0000000+00:00</time></trkpt><trkpt lat="34.7018161" lon="33.0055853"><ele>87.2</ele><time>2015-04-30T13:28:39.0000000+00:00</time></trkpt><trkpt lat="34.7017728" lon="33.0056441"><ele>87.5</ele><time>2015-04-30T13:28:40.0000000+00:00</time></trkpt><trkpt lat="34.7017332" lon="33.0057005"><ele>87.1</ele><time>2015-04-30T13:28:41.0000000+00:00</time></trkpt><trkpt lat="34.7016811" lon="33.0057594"><ele>86.9</ele><time>2015-04-30T13:28:42.0000000+00:00</time></trkpt><trkpt lat="34.7016447" lon="33.0058181"><ele>86.9</ele><time>2015-04-30T13:28:43.0000000+00:00</time></trkpt><trkpt lat="34.7016055" lon="33.0058779"><ele>86.8</ele><time>2015-04-30T13:28:44.0000000+00:00</time></trkpt><trkpt lat="34.7015548" lon="33.0059287"><ele>88.3</ele><time>2015-04-30T13:28:45.0000000+00:00</time></trkpt><trkpt lat="34.7015261" lon="33.0059964"><ele>88.5</ele><time>2015-04-30T13:28:46.0000000+00:00</time></trkpt><trkpt lat="34.7014943" lon="33.0060555"><ele>88.1</ele><time>2015-04-30T13:28:47.0000000+00:00</time></trkpt><trkpt lat="34.7014562" lon="33.0061122"><ele>87.5</ele><time>2015-04-30T13:28:48.0000000+00:00</time></trkpt><trkpt lat="34.7014227" lon="33.0061546"><ele>87.6</ele><time>2015-04-30T13:28:49.0000000+00:00</time></trkpt><trkpt lat="34.7013842" lon="33.0062155"><ele>87.7</ele><time>2015-04-30T13:28:51.0000000+00:00</time></trkpt><trkpt lat="34.7013583" lon="33.0062606"><ele>86.6</ele><time>2015-04-30T13:29:00.0000000+00:00</time></trkpt><trkpt lat="34.7013223" lon="33.0063025"><ele>84.8</ele><time>2015-04-30T13:29:31.0000000+00:00</time></trkpt><trkpt lat="34.7012764" lon="33.0063804"><ele>83.5</ele><time>2015-04-30T13:29:34.0000000+00:00</time></trkpt><trkpt lat="34.701218" lon="33.0064576"><ele>82.2</ele><time>2015-04-30T13:29:36.0000000+00:00</time></trkpt><trkpt lat="34.7011672" lon="33.0065196"><ele>82.0</ele><time>2015-04-30T13:29:37.0000000+00:00</time></trkpt><trkpt lat="34.701135" lon="33.006566"><ele>81.9</ele><time>2015-04-30T13:29:38.0000000+00:00</time></trkpt><trkpt lat="34.7010968" lon="33.0066166"><ele>82.3</ele><time>2015-04-30T13:29:39.0000000+00:00</time></trkpt><trkpt lat="34.7010518" lon="33.0066709"><ele>82.5</ele><time>2015-04-30T13:29:40.0000000+00:00</time></trkpt><trkpt lat="34.7010149" lon="33.0067183"><ele>82.7</ele><time>2015-04-30T13:29:41.0000000+00:00</time></trkpt><trkpt lat="34.700976" lon="33.0067711"><ele>82.7</ele><time>2015-04-30T13:29:42.0000000+00:00</time></trkpt><trkpt lat="34.7009411" lon="33.0068226"><ele>82.7</ele><time>2015-04-30T13:29:43.0000000+00:00</time></trkpt><trkpt lat="34.7009155" lon="33.0068839"><ele>80.8</ele><time>2015-04-30T13:29:44.0000000+00:00</time></trkpt><trkpt lat="34.7008779" lon="33.006942"><ele>79.3</ele><time>2015-04-30T13:29:45.0000000+00:00</time></trkpt><trkpt lat="34.7008393" lon="33.0069984"><ele>78.5</ele><time>2015-04-30T13:29:46.0000000+00:00</time></trkpt><trkpt lat="34.7007969" lon="33.0070544"><ele>78.1</ele><time>2015-04-30T13:29:47.0000000+00:00</time></trkpt><trkpt lat="34.7007567" lon="33.0071124"><ele>78.0</ele><time>2015-04-30T13:29:48.0000000+00:00</time></trkpt><trkpt lat="34.7007083" lon="33.0071762"><ele>78.4</ele><time>2015-04-30T13:29:49.0000000+00:00</time></trkpt><trkpt lat="34.7006693" lon="33.0072477"><ele>77.6</ele><time>2015-04-30T13:29:50.0000000+00:00</time></trkpt><trkpt lat="34.700621" lon="33.0073082"><ele>77.2</ele><time>2015-04-30T13:29:51.0000000+00:00</time></trkpt><trkpt lat="34.7005689" lon="33.0073741"><ele>77.5</ele><time>2015-04-30T13:29:52.0000000+00:00</time></trkpt><trkpt lat="34.7005158" lon="33.0074397"><ele>77.6</ele><time>2015-04-30T13:29:53.0000000+00:00</time></trkpt><trkpt lat="34.7004635" lon="33.0075015"><ele>77.7</ele><time>2015-04-30T13:29:54.0000000+00:00</time></trkpt><trkpt lat="34.7004092" lon="33.0075654"><ele>77.2</ele><time>2015-04-30T13:29:55.0000000+00:00</time></trkpt><trkpt lat="34.7003556" lon="33.0076302"><ele>76.5</ele><time>2015-04-30T13:29:56.0000000+00:00</time></trkpt><trkpt lat="34.7003036" lon="33.0077002"><ele>76.6</ele><time>2015-04-30T13:29:57.0000000+00:00</time></trkpt><trkpt lat="34.700259" lon="33.0077596"><ele>76.2</ele><time>2015-04-30T13:29:58.0000000+00:00</time></trkpt><trkpt lat="34.7002066" lon="33.0078254"><ele>76.0</ele><time>2015-04-30T13:29:59.0000000+00:00</time></trkpt><trkpt lat="34.7001516" lon="33.0079003"><ele>76.9</ele><time>2015-04-30T13:30:00.0000000+00:00</time></trkpt><trkpt lat="34.7000874" lon="33.0079642"><ele>76.8</ele><time>2015-04-30T13:30:01.0000000+00:00</time></trkpt><trkpt lat="34.7000196" lon="33.0080286"><ele>76.8</ele><time>2015-04-30T13:30:02.0000000+00:00</time></trkpt><trkpt lat="34.6999521" lon="33.0080834"><ele>76.3</ele><time>2015-04-30T13:30:03.0000000+00:00</time></trkpt><trkpt lat="34.6998795" lon="33.0081457"><ele>75.5</ele><time>2015-04-30T13:30:04.0000000+00:00</time></trkpt><trkpt lat="34.6998167" lon="33.0082021"><ele>74.6</ele><time>2015-04-30T13:30:05.0000000+00:00</time></trkpt><trkpt lat="34.6997496" lon="33.0082633"><ele>74.2</ele><time>2015-04-30T13:30:06.0000000+00:00</time></trkpt><trkpt lat="34.6996865" lon="33.0083186"><ele>73.5</ele><time>2015-04-30T13:30:07.0000000+00:00</time></trkpt><trkpt lat="34.6996286" lon="33.0083825"><ele>73.1</ele><time>2015-04-30T13:30:08.0000000+00:00</time></trkpt><trkpt lat="34.699573" lon="33.0084426"><ele>72.9</ele><time>2015-04-30T13:30:09.0000000+00:00</time></trkpt><trkpt lat="34.6995097" lon="33.0085014"><ele>73.4</ele><time>2015-04-30T13:30:10.0000000+00:00</time></trkpt><trkpt lat="34.6994478" lon="33.0085598"><ele>73.1</ele><time>2015-04-30T13:30:11.0000000+00:00</time></trkpt><trkpt lat="34.6993953" lon="33.0086093"><ele>73.9</ele><time>2015-04-30T13:30:12.0000000+00:00</time></trkpt><trkpt lat="34.6993418" lon="33.0086504"><ele>75.3</ele><time>2015-04-30T13:30:13.0000000+00:00</time></trkpt><trkpt lat="34.6992747" lon="33.0087084"><ele>75.7</ele><time>2015-04-30T13:30:15.0000000+00:00</time></trkpt><trkpt lat="34.6992282" lon="33.0087599"><ele>75.0</ele><time>2015-04-30T13:30:17.0000000+00:00</time></trkpt><trkpt lat="34.6992041" lon="33.0088167"><ele>75.1</ele><time>2015-04-30T13:30:19.0000000+00:00</time></trkpt><trkpt lat="34.6991605" lon="33.0088518"><ele>72.9</ele><time>2015-04-30T13:30:22.0000000+00:00</time></trkpt><trkpt lat="34.6991258" lon="33.0088909"><ele>70.8</ele><time>2015-04-30T13:30:24.0000000+00:00</time></trkpt><trkpt lat="34.6990844" lon="33.0089236"><ele>69.3</ele><time>2015-04-30T13:30:26.0000000+00:00</time></trkpt><trkpt lat="34.699043" lon="33.0089628"><ele>68.9</ele><time>2015-04-30T13:30:28.0000000+00:00</time></trkpt><trkpt lat="34.6989952" lon="33.0090093"><ele>68.3</ele><time>2015-04-30T13:30:30.0000000+00:00</time></trkpt><trkpt lat="34.6989288" lon="33.0090688"><ele>67.1</ele><time>2015-04-30T13:30:32.0000000+00:00</time></trkpt><trkpt lat="34.6988749" lon="33.0091206"><ele>68.0</ele><time>2015-04-30T13:30:33.0000000+00:00</time></trkpt><trkpt lat="34.6988246" lon="33.0091646"><ele>68.4</ele><time>2015-04-30T13:30:34.0000000+00:00</time></trkpt><trkpt lat="34.698783" lon="33.0092035"><ele>69.1</ele><time>2015-04-30T13:30:35.0000000+00:00</time></trkpt><trkpt lat="34.6987397" lon="33.0092457"><ele>69.9</ele><time>2015-04-30T13:30:36.0000000+00:00</time></trkpt><trkpt lat="34.6986941" lon="33.0092881"><ele>70.8</ele><time>2015-04-30T13:30:37.0000000+00:00</time></trkpt><trkpt lat="34.6986514" lon="33.0093375"><ele>70.8</ele><time>2015-04-30T13:30:38.0000000+00:00</time></trkpt><trkpt lat="34.6986063" lon="33.0093796"><ele>70.8</ele><time>2015-04-30T13:30:39.0000000+00:00</time></trkpt><trkpt lat="34.6985575" lon="33.0094238"><ele>70.3</ele><time>2015-04-30T13:30:40.0000000+00:00</time></trkpt><trkpt lat="34.6985112" lon="33.0094679"><ele>70.5</ele><time>2015-04-30T13:30:41.0000000+00:00</time></trkpt><trkpt lat="34.6984591" lon="33.0095122"><ele>71.1</ele><time>2015-04-30T13:30:42.0000000+00:00</time></trkpt><trkpt lat="34.6984162" lon="33.009558"><ele>71.0</ele><time>2015-04-30T13:30:43.0000000+00:00</time></trkpt><trkpt lat="34.6983682" lon="33.0096105"><ele>70.9</ele><time>2015-04-30T13:30:44.0000000+00:00</time></trkpt><trkpt lat="34.6983225" lon="33.009665"><ele>70.8</ele><time>2015-04-30T13:30:45.0000000+00:00</time></trkpt><trkpt lat="34.6982738" lon="33.0097152"><ele>70.8</ele><time>2015-04-30T13:30:46.0000000+00:00</time></trkpt><trkpt lat="34.6982271" lon="33.0097706"><ele>71.3</ele><time>2015-04-30T13:30:47.0000000+00:00</time></trkpt><trkpt lat="34.6981761" lon="33.0098318"><ele>71.5</ele><time>2015-04-30T13:30:48.0000000+00:00</time></trkpt><trkpt lat="34.698127" lon="33.009885"><ele>72.1</ele><time>2015-04-30T13:30:49.0000000+00:00</time></trkpt><trkpt lat="34.6980862" lon="33.0099432"><ele>72.5</ele><time>2015-04-30T13:30:50.0000000+00:00</time></trkpt><trkpt lat="34.6980462" lon="33.0100084"><ele>72.6</ele><time>2015-04-30T13:30:51.0000000+00:00</time></trkpt><trkpt lat="34.6980059" lon="33.0100681"><ele>72.2</ele><time>2015-04-30T13:30:52.0000000+00:00</time></trkpt><trkpt lat="34.6979675" lon="33.0101343"><ele>71.5</ele><time>2015-04-30T13:30:53.0000000+00:00</time></trkpt><trkpt lat="34.697929" lon="33.0102001"><ele>70.1</ele><time>2015-04-30T13:30:54.0000000+00:00</time></trkpt><trkpt lat="34.6978957" lon="33.010272"><ele>69.9</ele><time>2015-04-30T13:30:55.0000000+00:00</time></trkpt><trkpt lat="34.6978652" lon="33.0103426"><ele>70.4</ele><time>2015-04-30T13:30:56.0000000+00:00</time></trkpt><trkpt lat="34.6978278" lon="33.0104204"><ele>71.1</ele><time>2015-04-30T13:30:57.0000000+00:00</time></trkpt><trkpt lat="34.6977887" lon="33.0104974"><ele>70.9</ele><time>2015-04-30T13:30:58.0000000+00:00</time></trkpt><trkpt lat="34.6977573" lon="33.0105691"><ele>71.3</ele><time>2015-04-30T13:30:59.0000000+00:00</time></trkpt><trkpt lat="34.697719" lon="33.0106423"><ele>71.1</ele><time>2015-04-30T13:31:00.0000000+00:00</time></trkpt><trkpt lat="34.6976784" lon="33.0107234"><ele>71.4</ele><time>2015-04-30T13:31:01.0000000+00:00</time></trkpt><trkpt lat="34.6976432" lon="33.010802"><ele>70.6</ele><time>2015-04-30T13:31:02.0000000+00:00</time></trkpt><trkpt lat="34.6976033" lon="33.0108866"><ele>69.2</ele><time>2015-04-30T13:31:03.0000000+00:00</time></trkpt><trkpt lat="34.697567" lon="33.0109632"><ele>68.5</ele><time>2015-04-30T13:31:04.0000000+00:00</time></trkpt><trkpt lat="34.6975325" lon="33.0110433"><ele>66.6</ele><time>2015-04-30T13:31:05.0000000+00:00</time></trkpt><trkpt lat="34.6974927" lon="33.0111176"><ele>65.7</ele><time>2015-04-30T13:31:06.0000000+00:00</time></trkpt><trkpt lat="34.697451" lon="33.0111898"><ele>64.7</ele><time>2015-04-30T13:31:07.0000000+00:00</time></trkpt><trkpt lat="34.6974082" lon="33.0112649"><ele>63.7</ele><time>2015-04-30T13:31:08.0000000+00:00</time></trkpt><trkpt lat="34.6973653" lon="33.0113287"><ele>62.8</ele><time>2015-04-30T13:31:09.0000000+00:00</time></trkpt><trkpt lat="34.69732" lon="33.0113867"><ele>62.3</ele><time>2015-04-30T13:31:10.0000000+00:00</time></trkpt><trkpt lat="34.6972784" lon="33.0114399"><ele>62.0</ele><time>2015-04-30T13:31:11.0000000+00:00</time></trkpt><trkpt lat="34.6972352" lon="33.011502"><ele>61.9</ele><time>2015-04-30T13:31:12.0000000+00:00</time></trkpt><trkpt lat="34.6971952" lon="33.0115602"><ele>61.3</ele><time>2015-04-30T13:31:13.0000000+00:00</time></trkpt><trkpt lat="34.6971493" lon="33.0116086"><ele>61.5</ele><time>2015-04-30T13:31:14.0000000+00:00</time></trkpt><trkpt lat="34.6971086" lon="33.0116536"><ele>61.7</ele><time>2015-04-30T13:31:15.0000000+00:00</time></trkpt><trkpt lat="34.6970505" lon="33.0117438"><ele>62.7</ele><time>2015-04-30T13:31:17.0000000+00:00</time></trkpt><trkpt lat="34.6970095" lon="33.0117922"><ele>63.3</ele><time>2015-04-30T13:31:18.0000000+00:00</time></trkpt><trkpt lat="34.6969717" lon="33.0118343"><ele>63.5</ele><time>2015-04-30T13:31:19.0000000+00:00</time></trkpt><trkpt lat="34.6969246" lon="33.0118764"><ele>63.6</ele><time>2015-04-30T13:31:20.0000000+00:00</time></trkpt><trkpt lat="34.6968827" lon="33.0119227"><ele>63.7</ele><time>2015-04-30T13:31:21.0000000+00:00</time></trkpt><trkpt lat="34.6968466" lon="33.0119593"><ele>64.2</ele><time>2015-04-30T13:31:22.0000000+00:00</time></trkpt><trkpt lat="34.6968027" lon="33.0119978"><ele>64.0</ele><time>2015-04-30T13:31:23.0000000+00:00</time></trkpt><trkpt lat="34.6967468" lon="33.0120471"><ele>63.4</ele><time>2015-04-30T13:31:24.0000000+00:00</time></trkpt><trkpt lat="34.6967001" lon="33.0120915"><ele>63.1</ele><time>2015-04-30T13:31:25.0000000+00:00</time></trkpt><trkpt lat="34.6966498" lon="33.0121336"><ele>62.4</ele><time>2015-04-30T13:31:26.0000000+00:00</time></trkpt><trkpt lat="34.6965966" lon="33.0121678"><ele>62.1</ele><time>2015-04-30T13:31:27.0000000+00:00</time></trkpt><trkpt lat="34.6965435" lon="33.0122036"><ele>61.4</ele><time>2015-04-30T13:31:28.0000000+00:00</time></trkpt><trkpt lat="34.6964947" lon="33.0122381"><ele>61.1</ele><time>2015-04-30T13:31:29.0000000+00:00</time></trkpt><trkpt lat="34.6964487" lon="33.0122753"><ele>60.9</ele><time>2015-04-30T13:31:30.0000000+00:00</time></trkpt><trkpt lat="34.6963987" lon="33.0123106"><ele>61.3</ele><time>2015-04-30T13:31:31.0000000+00:00</time></trkpt><trkpt lat="34.6963462" lon="33.012343"><ele>62.1</ele><time>2015-04-30T13:31:32.0000000+00:00</time></trkpt><trkpt lat="34.6962966" lon="33.0123756"><ele>62.9</ele><time>2015-04-30T13:31:33.0000000+00:00</time></trkpt><trkpt lat="34.696246" lon="33.0124083"><ele>63.8</ele><time>2015-04-30T13:31:34.0000000+00:00</time></trkpt><trkpt lat="34.6961896" lon="33.0124415"><ele>64.3</ele><time>2015-04-30T13:31:35.0000000+00:00</time></trkpt><trkpt lat="34.6961337" lon="33.0124801"><ele>64.5</ele><time>2015-04-30T13:31:36.0000000+00:00</time></trkpt><trkpt lat="34.6960783" lon="33.0125209"><ele>65.1</ele><time>2015-04-30T13:31:37.0000000+00:00</time></trkpt><trkpt lat="34.6960248" lon="33.0125568"><ele>65.5</ele><time>2015-04-30T13:31:38.0000000+00:00</time></trkpt><trkpt lat="34.6959746" lon="33.0125891"><ele>65.6</ele><time>2015-04-30T13:31:39.0000000+00:00</time></trkpt><trkpt lat="34.6959197" lon="33.0126254"><ele>66.2</ele><time>2015-04-30T13:31:40.0000000+00:00</time></trkpt><trkpt lat="34.6958687" lon="33.0126589"><ele>66.5</ele><time>2015-04-30T13:31:41.0000000+00:00</time></trkpt><trkpt lat="34.6958198" lon="33.0126913"><ele>66.6</ele><time>2015-04-30T13:31:42.0000000+00:00</time></trkpt><trkpt lat="34.6957678" lon="33.0127292"><ele>66.7</ele><time>2015-04-30T13:31:43.0000000+00:00</time></trkpt><trkpt lat="34.6957162" lon="33.0127667"><ele>67.2</ele><time>2015-04-30T13:31:44.0000000+00:00</time></trkpt><trkpt lat="34.6956631" lon="33.0128055"><ele>67.5</ele><time>2015-04-30T13:31:45.0000000+00:00</time></trkpt><trkpt lat="34.6956235" lon="33.0128372"><ele>68.1</ele><time>2015-04-30T13:31:46.0000000+00:00</time></trkpt><trkpt lat="34.695584" lon="33.0128843"><ele>68.4</ele><time>2015-04-30T13:31:47.0000000+00:00</time></trkpt><trkpt lat="34.6955381" lon="33.0129335"><ele>68.6</ele><time>2015-04-30T13:31:48.0000000+00:00</time></trkpt><trkpt lat="34.6955013" lon="33.012984"><ele>68.7</ele><time>2015-04-30T13:31:49.0000000+00:00</time></trkpt><trkpt lat="34.6954644" lon="33.0130357"><ele>68.7</ele><time>2015-04-30T13:31:50.0000000+00:00</time></trkpt><trkpt lat="34.6954271" lon="33.0130817"><ele>68.7</ele><time>2015-04-30T13:31:51.0000000+00:00</time></trkpt><trkpt lat="34.6953909" lon="33.0131274"><ele>68.3</ele><time>2015-04-30T13:31:52.0000000+00:00</time></trkpt><trkpt lat="34.6953486" lon="33.013171"><ele>68.0</ele><time>2015-04-30T13:31:53.0000000+00:00</time></trkpt><trkpt lat="34.6953078" lon="33.0132148"><ele>67.4</ele><time>2015-04-30T13:31:54.0000000+00:00</time></trkpt><trkpt lat="34.6952706" lon="33.0132526"><ele>68.1</ele><time>2015-04-30T13:31:55.0000000+00:00</time></trkpt><trkpt lat="34.6952266" lon="33.013292"><ele>67.9</ele><time>2015-04-30T13:31:56.0000000+00:00</time></trkpt><trkpt lat="34.6951857" lon="33.0133253"><ele>67.8</ele><time>2015-04-30T13:31:57.0000000+00:00</time></trkpt><trkpt lat="34.695103" lon="33.0133596"><ele>67.5</ele><time>2015-04-30T13:31:59.0000000+00:00</time></trkpt><trkpt lat="34.695055" lon="33.0133865"><ele>70.0</ele><time>2015-04-30T13:32:01.0000000+00:00</time></trkpt><trkpt lat="34.6950037" lon="33.0134058"><ele>60.2</ele><time>2015-04-30T13:32:10.0000000+00:00</time></trkpt><trkpt lat="34.6949476" lon="33.0134218"><ele>59.4</ele><time>2015-04-30T13:32:12.0000000+00:00</time></trkpt><trkpt lat="34.6948976" lon="33.013438"><ele>58.7</ele><time>2015-04-30T13:32:14.0000000+00:00</time></trkpt><trkpt lat="34.6948552" lon="33.0134603"><ele>60.2</ele><time>2015-04-30T13:32:16.0000000+00:00</time></trkpt><trkpt lat="34.6948287" lon="33.0135126"><ele>63.4</ele><time>2015-04-30T13:32:20.0000000+00:00</time></trkpt><trkpt lat="34.6948093" lon="33.0135707"><ele>68.7</ele><time>2015-04-30T13:32:25.0000000+00:00</time></trkpt><trkpt lat="34.6947739" lon="33.0136309"><ele>71.0</ele><time>2015-04-30T13:32:28.0000000+00:00</time></trkpt><trkpt lat="34.6947441" lon="33.0137355"><ele>71.9</ele><time>2015-04-30T13:32:29.0000000+00:00</time></trkpt><trkpt lat="34.694717" lon="33.0137869"><ele>72.3</ele><time>2015-04-30T13:32:30.0000000+00:00</time></trkpt><trkpt lat="34.6946756" lon="33.0138733"><ele>72.7</ele><time>2015-04-30T13:32:32.0000000+00:00</time></trkpt><trkpt lat="34.6946508" lon="33.013926"><ele>72.2</ele><time>2015-04-30T13:32:33.0000000+00:00</time></trkpt><trkpt lat="34.6945938" lon="33.014"><ele>70.6</ele><time>2015-04-30T13:32:35.0000000+00:00</time></trkpt><trkpt lat="34.6945283" lon="33.0140812"><ele>70.7</ele><time>2015-04-30T13:32:37.0000000+00:00</time></trkpt><trkpt lat="34.6944723" lon="33.0141372"><ele>67.0</ele><time>2015-04-30T13:32:39.0000000+00:00</time></trkpt><trkpt lat="34.6944277" lon="33.014175"><ele>64.9</ele><time>2015-04-30T13:32:40.0000000+00:00</time></trkpt><trkpt lat="34.694378" lon="33.01421"><ele>62.3</ele><time>2015-04-30T13:32:41.0000000+00:00</time></trkpt><trkpt lat="34.6943248" lon="33.0142389"><ele>61.0</ele><time>2015-04-30T13:32:42.0000000+00:00</time></trkpt><trkpt lat="34.694274" lon="33.0142658"><ele>60.4</ele><time>2015-04-30T13:32:43.0000000+00:00</time></trkpt><trkpt lat="34.6942198" lon="33.0142912"><ele>60.6</ele><time>2015-04-30T13:32:44.0000000+00:00</time></trkpt><trkpt lat="34.6941637" lon="33.0143178"><ele>60.7</ele><time>2015-04-30T13:32:45.0000000+00:00</time></trkpt><trkpt lat="34.6941049" lon="33.0143413"><ele>60.7</ele><time>2015-04-30T13:32:46.0000000+00:00</time></trkpt><trkpt lat="34.6940528" lon="33.014359"><ele>59.7</ele><time>2015-04-30T13:32:47.0000000+00:00</time></trkpt><trkpt lat="34.6940043" lon="33.0143699"><ele>59.3</ele><time>2015-04-30T13:32:48.0000000+00:00</time></trkpt><trkpt lat="34.6939186" lon="33.0143851"><ele>59.4</ele><time>2015-04-30T13:32:50.0000000+00:00</time></trkpt><trkpt lat="34.6938746" lon="33.0143977"><ele>60.6</ele><time>2015-04-30T13:32:51.0000000+00:00</time></trkpt><trkpt lat="34.693829" lon="33.0144187"><ele>60.7</ele><time>2015-04-30T13:32:52.0000000+00:00</time></trkpt><trkpt lat="34.6937882" lon="33.0144443"><ele>60.7</ele><time>2015-04-30T13:32:53.0000000+00:00</time></trkpt><trkpt lat="34.6937502" lon="33.0144764"><ele>61.2</ele><time>2015-04-30T13:32:54.0000000+00:00</time></trkpt><trkpt lat="34.6936738" lon="33.0145231"><ele>62.9</ele><time>2015-04-30T13:32:56.0000000+00:00</time></trkpt><trkpt lat="34.6936048" lon="33.0145706"><ele>63.5</ele><time>2015-04-30T13:32:58.0000000+00:00</time></trkpt><trkpt lat="34.6935346" lon="33.0146172"><ele>65.0</ele><time>2015-04-30T13:33:00.0000000+00:00</time></trkpt><trkpt lat="34.693463" lon="33.014668"><ele>66.6</ele><time>2015-04-30T13:33:02.0000000+00:00</time></trkpt><trkpt lat="34.6933872" lon="33.0147236"><ele>68.0</ele><time>2015-04-30T13:33:04.0000000+00:00</time></trkpt><trkpt lat="34.6933416" lon="33.0147484"><ele>67.9</ele><time>2015-04-30T13:33:05.0000000+00:00</time></trkpt><trkpt lat="34.6933009" lon="33.0147831"><ele>67.8</ele><time>2015-04-30T13:33:06.0000000+00:00</time></trkpt><trkpt lat="34.693265" lon="33.0148184"><ele>68.3</ele><time>2015-04-30T13:33:07.0000000+00:00</time></trkpt><trkpt lat="34.6932178" lon="33.01488"><ele>68.9</ele><time>2015-04-30T13:33:09.0000000+00:00</time></trkpt><trkpt lat="34.6931952" lon="33.0149289"><ele>74.1</ele><time>2015-04-30T13:33:14.0000000+00:00</time></trkpt><trkpt lat="34.6931462" lon="33.0149644"><ele>76.5</ele><time>2015-04-30T13:33:51.0000000+00:00</time></trkpt><trkpt lat="34.6931006" lon="33.0149766"><ele>76.7</ele><time>2015-04-30T13:33:53.0000000+00:00</time></trkpt><trkpt lat="34.6930427" lon="33.0150213"><ele>77.7</ele><time>2015-04-30T13:33:55.0000000+00:00</time></trkpt><trkpt lat="34.6930108" lon="33.0150601"><ele>78.3</ele><time>2015-04-30T13:33:56.0000000+00:00</time></trkpt><trkpt lat="34.6929498" lon="33.0151354"><ele>78.6</ele><time>2015-04-30T13:33:58.0000000+00:00</time></trkpt><trkpt lat="34.6929348" lon="33.0151898"><ele>79.2</ele><time>2015-04-30T13:34:01.0000000+00:00</time></trkpt><trkpt lat="34.6928902" lon="33.0151727"><ele>81.1</ele><time>2015-04-30T13:34:13.0000000+00:00</time></trkpt><trkpt lat="34.6928839" lon="33.015094"><ele>80.4</ele><time>2015-04-30T13:34:16.0000000+00:00</time></trkpt><trkpt lat="34.6929022" lon="33.0150406"><ele>80.4</ele><time>2015-04-30T13:34:18.0000000+00:00</time></trkpt><trkpt lat="34.6929364" lon="33.0149781"><ele>79.1</ele><time>2015-04-30T13:34:21.0000000+00:00</time></trkpt><trkpt lat="34.6929688" lon="33.0149099"><ele>76.8</ele><time>2015-04-30T13:34:24.0000000+00:00</time></trkpt><trkpt lat="34.6929915" lon="33.0148464"><ele>73.0</ele><time>2015-04-30T13:34:27.0000000+00:00</time></trkpt><trkpt lat="34.6930156" lon="33.0147794"><ele>70.0</ele><time>2015-04-30T13:34:30.0000000+00:00</time></trkpt><trkpt lat="34.6930294" lon="33.0147051"><ele>65.1</ele><time>2015-04-30T13:34:33.0000000+00:00</time></trkpt><trkpt lat="34.6930556" lon="33.0146447"><ele>63.3</ele><time>2015-04-30T13:34:36.0000000+00:00</time></trkpt><trkpt lat="34.6930921" lon="33.0145894"><ele>61.3</ele><time>2015-04-30T13:34:39.0000000+00:00</time></trkpt><trkpt lat="34.6930935" lon="33.0145111"><ele>60.2</ele><time>2015-04-30T13:34:41.0000000+00:00</time></trkpt><trkpt lat="34.6930527" lon="33.0144492"><ele>60.6</ele><time>2015-04-30T13:34:43.0000000+00:00</time></trkpt><trkpt lat="34.6929984" lon="33.0143997"><ele>61.2</ele><time>2015-04-30T13:34:45.0000000+00:00</time></trkpt><trkpt lat="34.6929384" lon="33.0143457"><ele>61.9</ele><time>2015-04-30T13:34:47.0000000+00:00</time></trkpt><trkpt lat="34.6928833" lon="33.0142847"><ele>61.8</ele><time>2015-04-30T13:34:49.0000000+00:00</time></trkpt><trkpt lat="34.6928248" lon="33.0142247"><ele>63.0</ele><time>2015-04-30T13:34:51.0000000+00:00</time></trkpt><trkpt lat="34.6927633" lon="33.0141628"><ele>63.6</ele><time>2015-04-30T13:34:53.0000000+00:00</time></trkpt><trkpt lat="34.6927019" lon="33.0140981"><ele>63.7</ele><time>2015-04-30T13:34:55.0000000+00:00</time></trkpt><trkpt lat="34.6926489" lon="33.0140331"><ele>62.3</ele><time>2015-04-30T13:34:57.0000000+00:00</time></trkpt><trkpt lat="34.6925998" lon="33.0140078"><ele>60.6</ele><time>2015-04-30T13:34:59.0000000+00:00</time></trkpt><trkpt lat="34.6925428" lon="33.0139961"><ele>59.0</ele><time>2015-04-30T13:35:01.0000000+00:00</time></trkpt><trkpt lat="34.6924746" lon="33.0139913"><ele>58.1</ele><time>2015-04-30T13:35:03.0000000+00:00</time></trkpt><trkpt lat="34.6923967" lon="33.0139998"><ele>57.8</ele><time>2015-04-30T13:35:05.0000000+00:00</time></trkpt><trkpt lat="34.6923159" lon="33.0140197"><ele>57.8</ele><time>2015-04-30T13:35:07.0000000+00:00</time></trkpt><trkpt lat="34.6922693" lon="33.0140573"><ele>57.8</ele><time>2015-04-30T13:35:08.0000000+00:00</time></trkpt><trkpt lat="34.6922288" lon="33.0140921"><ele>57.3</ele><time>2015-04-30T13:35:09.0000000+00:00</time></trkpt><trkpt lat="34.6921565" lon="33.0141415"><ele>56.4</ele><time>2015-04-30T13:35:11.0000000+00:00</time></trkpt><trkpt lat="34.692113" lon="33.0141733"><ele>55.1</ele><time>2015-04-30T13:35:12.0000000+00:00</time></trkpt><trkpt lat="34.6920658" lon="33.0142057"><ele>54.4</ele><time>2015-04-30T13:35:13.0000000+00:00</time></trkpt><trkpt lat="34.6920261" lon="33.0142391"><ele>54.1</ele><time>2015-04-30T13:35:14.0000000+00:00</time></trkpt><trkpt lat="34.6919867" lon="33.0142774"><ele>53.9</ele><time>2015-04-30T13:35:15.0000000+00:00</time></trkpt><trkpt lat="34.6919506" lon="33.0143123"><ele>53.8</ele><time>2015-04-30T13:35:16.0000000+00:00</time></trkpt><trkpt lat="34.6918809" lon="33.0143745"><ele>55.0</ele><time>2015-04-30T13:35:18.0000000+00:00</time></trkpt><trkpt lat="34.6918374" lon="33.014441"><ele>56.3</ele><time>2015-04-30T13:35:20.0000000+00:00</time></trkpt><trkpt lat="34.6885271" lon="33.0117796"><ele>49.7</ele><time>2015-04-30T13:38:21.0000000+00:00</time></trkpt><trkpt lat="34.6884525" lon="33.0118421"><ele>49.8</ele><time>2015-04-30T13:38:23.0000000+00:00</time></trkpt><trkpt lat="34.6884143" lon="33.0118747"><ele>49.8</ele><time>2015-04-30T13:38:24.0000000+00:00</time></trkpt><trkpt lat="34.6883413" lon="33.0119184"><ele>49.0</ele><time>2015-04-30T13:38:26.0000000+00:00</time></trkpt><trkpt lat="34.6882952" lon="33.011942"><ele>48.3</ele><time>2015-04-30T13:38:28.0000000+00:00</time></trkpt><trkpt lat="34.6882388" lon="33.0119712"><ele>47.4</ele><time>2015-04-30T13:38:30.0000000+00:00</time></trkpt><trkpt lat="34.6881723" lon="33.0119898"><ele>46.4</ele><time>2015-04-30T13:38:32.0000000+00:00</time></trkpt><trkpt lat="34.6881118" lon="33.0119391"><ele>46.9</ele><time>2015-04-30T13:38:34.0000000+00:00</time></trkpt><trkpt lat="34.6880552" lon="33.0118902"><ele>48.6</ele><time>2015-04-30T13:38:36.0000000+00:00</time></trkpt><trkpt lat="34.6880005" lon="33.0118489"><ele>49.5</ele><time>2015-04-30T13:38:38.0000000+00:00</time></trkpt><trkpt lat="34.6879477" lon="33.0118164"><ele>49.7</ele><time>2015-04-30T13:38:40.0000000+00:00</time></trkpt><trkpt lat="34.6878934" lon="33.0117854"><ele>51.0</ele><time>2015-04-30T13:38:42.0000000+00:00</time></trkpt><trkpt lat="34.687849" lon="33.0117456"><ele>50.3</ele><time>2015-04-30T13:38:44.0000000+00:00</time></trkpt><trkpt lat="34.6878101" lon="33.0116968"><ele>49.9</ele><time>2015-04-30T13:38:46.0000000+00:00</time></trkpt><trkpt lat="34.6877599" lon="33.0116796"><ele>51.0</ele><time>2015-04-30T13:38:48.0000000+00:00</time></trkpt><trkpt lat="34.6877114" lon="33.0117011"><ele>51.6</ele><time>2015-04-30T13:38:50.0000000+00:00</time></trkpt><trkpt lat="34.6876687" lon="33.0117576"><ele>52.7</ele><time>2015-04-30T13:38:52.0000000+00:00</time></trkpt><trkpt lat="34.6876314" lon="33.0118204"><ele>53.5</ele><time>2015-04-30T13:38:54.0000000+00:00</time></trkpt><trkpt lat="34.6875954" lon="33.0118862"><ele>53.2</ele><time>2015-04-30T13:38:56.0000000+00:00</time></trkpt><trkpt lat="34.6875608" lon="33.0119508"><ele>53.1</ele><time>2015-04-30T13:38:58.0000000+00:00</time></trkpt><trkpt lat="34.6875221" lon="33.0120167"><ele>53.1</ele><time>2015-04-30T13:39:00.0000000+00:00</time></trkpt><trkpt lat="34.68748" lon="33.0120864"><ele>52.1</ele><time>2015-04-30T13:39:02.0000000+00:00</time></trkpt><trkpt lat="34.6874368" lon="33.0121523"><ele>52.4</ele><time>2015-04-30T13:39:03.0000000+00:00</time></trkpt><trkpt lat="34.6874086" lon="33.0121958"><ele>52.6</ele><time>2015-04-30T13:39:04.0000000+00:00</time></trkpt><trkpt lat="34.6873799" lon="33.0122423"><ele>52.2</ele><time>2015-04-30T13:39:05.0000000+00:00</time></trkpt><trkpt lat="34.6873429" lon="33.0123402"><ele>52.6</ele><time>2015-04-30T13:39:07.0000000+00:00</time></trkpt><trkpt lat="34.687327" lon="33.0123991"><ele>53.2</ele><time>2015-04-30T13:39:08.0000000+00:00</time></trkpt><trkpt lat="34.6872986" lon="33.0124718"><ele>53.9</ele><time>2015-04-30T13:39:10.0000000+00:00</time></trkpt><trkpt lat="34.6872518" lon="33.0125655"><ele>55.0</ele><time>2015-04-30T13:39:12.0000000+00:00</time></trkpt><trkpt lat="34.6872255" lon="33.012616"><ele>55.9</ele><time>2015-04-30T13:39:13.0000000+00:00</time></trkpt><trkpt lat="34.6871675" lon="33.0126971"><ele>56.8</ele><time>2015-04-30T13:39:15.0000000+00:00</time></trkpt><trkpt lat="34.6871116" lon="33.0127753"><ele>55.8</ele><time>2015-04-30T13:39:17.0000000+00:00</time></trkpt><trkpt lat="34.687055" lon="33.0128478"><ele>55.0</ele><time>2015-04-30T13:39:19.0000000+00:00</time></trkpt><trkpt lat="34.6870108" lon="33.0129422"><ele>53.3</ele><time>2015-04-30T13:39:21.0000000+00:00</time></trkpt><trkpt lat="34.6869654" lon="33.013021"><ele>54.2</ele><time>2015-04-30T13:39:23.0000000+00:00</time></trkpt><trkpt lat="34.6869321" lon="33.0130689"><ele>54.5</ele><time>2015-04-30T13:39:24.0000000+00:00</time></trkpt><trkpt lat="34.6868872" lon="33.0131519"><ele>54.7</ele><time>2015-04-30T13:39:26.0000000+00:00</time></trkpt><trkpt lat="34.6868544" lon="33.0132288"><ele>55.5</ele><time>2015-04-30T13:39:28.0000000+00:00</time></trkpt><trkpt lat="34.6868188" lon="33.0132936"><ele>55.7</ele><time>2015-04-30T13:39:30.0000000+00:00</time></trkpt><trkpt lat="34.6867763" lon="33.0133576"><ele>55.0</ele><time>2015-04-30T13:39:32.0000000+00:00</time></trkpt><trkpt lat="34.6867418" lon="33.0134271"><ele>54.8</ele><time>2015-04-30T13:39:34.0000000+00:00</time></trkpt><trkpt lat="34.6867071" lon="33.0134937"><ele>55.0</ele><time>2015-04-30T13:39:36.0000000+00:00</time></trkpt><trkpt lat="34.6866745" lon="33.0135568"><ele>54.3</ele><time>2015-04-30T13:39:38.0000000+00:00</time></trkpt><trkpt lat="34.6866351" lon="33.0136162"><ele>53.9</ele><time>2015-04-30T13:39:40.0000000+00:00</time></trkpt><trkpt lat="34.6865932" lon="33.01368"><ele>53.8</ele><time>2015-04-30T13:39:42.0000000+00:00</time></trkpt><trkpt lat="34.6865535" lon="33.0137534"><ele>53.8</ele><time>2015-04-30T13:39:44.0000000+00:00</time></trkpt><trkpt lat="34.6865056" lon="33.0138314"><ele>53.8</ele><time>2015-04-30T13:39:46.0000000+00:00</time></trkpt><trkpt lat="34.6864542" lon="33.0138887"><ele>54.3</ele><time>2015-04-30T13:39:47.0000000+00:00</time></trkpt><trkpt lat="34.6864268" lon="33.0139323"><ele>55.0</ele><time>2015-04-30T13:39:48.0000000+00:00</time></trkpt><trkpt lat="34.6864022" lon="33.0139806"><ele>54.9</ele><time>2015-04-30T13:39:49.0000000+00:00</time></trkpt><trkpt lat="34.6863792" lon="33.0140356"><ele>54.8</ele><time>2015-04-30T13:39:50.0000000+00:00</time></trkpt><trkpt lat="34.686354" lon="33.0140821"><ele>55.3</ele><time>2015-04-30T13:39:51.0000000+00:00</time></trkpt><trkpt lat="34.6863294" lon="33.0141282"><ele>55.5</ele><time>2015-04-30T13:39:52.0000000+00:00</time></trkpt><trkpt lat="34.6862951" lon="33.0141675"><ele>55.1</ele><time>2015-04-30T13:39:53.0000000+00:00</time></trkpt><trkpt lat="34.6862362" lon="33.0142541"><ele>54.9</ele><time>2015-04-30T13:39:55.0000000+00:00</time></trkpt><trkpt lat="34.686206" lon="33.0143061"><ele>54.8</ele><time>2015-04-30T13:39:56.0000000+00:00</time></trkpt><trkpt lat="34.6861822" lon="33.0143599"><ele>54.3</ele><time>2015-04-30T13:39:57.0000000+00:00</time></trkpt><trkpt lat="34.6861397" lon="33.0144412"><ele>54.6</ele><time>2015-04-30T13:39:59.0000000+00:00</time></trkpt><trkpt lat="34.6860987" lon="33.0145153"><ele>54.7</ele><time>2015-04-30T13:40:01.0000000+00:00</time></trkpt><trkpt lat="34.6860689" lon="33.0145834"><ele>55.4</ele><time>2015-04-30T13:40:04.0000000+00:00</time></trkpt><trkpt lat="34.6860629" lon="33.0146475"><ele>49.3</ele><time>2015-04-30T13:40:55.0000000+00:00</time></trkpt><trkpt lat="34.6860428" lon="33.0147128"><ele>48.4</ele><time>2015-04-30T13:40:57.0000000+00:00</time></trkpt><trkpt lat="34.6860157" lon="33.0147903"><ele>48.2</ele><time>2015-04-30T13:40:59.0000000+00:00</time></trkpt><trkpt lat="34.6859646" lon="33.0149163"><ele>49.4</ele><time>2015-04-30T13:41:01.0000000+00:00</time></trkpt><trkpt lat="34.6859311" lon="33.0149761"><ele>50.1</ele><time>2015-04-30T13:41:02.0000000+00:00</time></trkpt><trkpt lat="34.6859048" lon="33.0150334"><ele>50.4</ele><time>2015-04-30T13:41:03.0000000+00:00</time></trkpt><trkpt lat="34.6858748" lon="33.0150835"><ele>51.1</ele><time>2015-04-30T13:41:04.0000000+00:00</time></trkpt><trkpt lat="34.685856" lon="33.015136"><ele>50.4</ele><time>2015-04-30T13:41:05.0000000+00:00</time></trkpt><trkpt lat="34.6858399" lon="33.0151918"><ele>50.1</ele><time>2015-04-30T13:41:06.0000000+00:00</time></trkpt><trkpt lat="34.6858104" lon="33.0153017"><ele>48.1</ele><time>2015-04-30T13:41:08.0000000+00:00</time></trkpt><trkpt lat="34.685791" lon="33.0153512"><ele>47.9</ele><time>2015-04-30T13:41:09.0000000+00:00</time></trkpt><trkpt lat="34.685763" lon="33.0154068"><ele>47.3</ele><time>2015-04-30T13:41:10.0000000+00:00</time></trkpt><trkpt lat="34.6857124" lon="33.0154998"><ele>46.4</ele><time>2015-04-30T13:41:12.0000000+00:00</time></trkpt><trkpt lat="34.6856836" lon="33.0155548"><ele>46.1</ele><time>2015-04-30T13:41:13.0000000+00:00</time></trkpt><trkpt lat="34.685652" lon="33.0156005"><ele>45.4</ele><time>2015-04-30T13:41:14.0000000+00:00</time></trkpt><trkpt lat="34.6856177" lon="33.0156527"><ele>45.6</ele><time>2015-04-30T13:41:15.0000000+00:00</time></trkpt><trkpt lat="34.6855824" lon="33.0157022"><ele>45.7</ele><time>2015-04-30T13:41:16.0000000+00:00</time></trkpt><trkpt lat="34.6855534" lon="33.0157489"><ele>46.2</ele><time>2015-04-30T13:41:17.0000000+00:00</time></trkpt><trkpt lat="34.6855257" lon="33.01581"><ele>46.5</ele><time>2015-04-30T13:41:18.0000000+00:00</time></trkpt><trkpt lat="34.6855061" lon="33.0158683"><ele>46.1</ele><time>2015-04-30T13:41:19.0000000+00:00</time></trkpt><trkpt lat="34.6854685" lon="33.0159272"><ele>45.9</ele><time>2015-04-30T13:41:20.0000000+00:00</time></trkpt><trkpt lat="34.6854403" lon="33.015978"><ele>46.4</ele><time>2015-04-30T13:41:21.0000000+00:00</time></trkpt><trkpt lat="34.6854148" lon="33.0160348"><ele>46.6</ele><time>2015-04-30T13:41:22.0000000+00:00</time></trkpt><trkpt lat="34.6853912" lon="33.0160921"><ele>46.2</ele><time>2015-04-30T13:41:23.0000000+00:00</time></trkpt><trkpt lat="34.6853597" lon="33.0161513"><ele>46.0</ele><time>2015-04-30T13:41:24.0000000+00:00</time></trkpt><trkpt lat="34.6853299" lon="33.0162094"><ele>46.4</ele><time>2015-04-30T13:41:25.0000000+00:00</time></trkpt><trkpt lat="34.6853026" lon="33.0162668"><ele>46.1</ele><time>2015-04-30T13:41:26.0000000+00:00</time></trkpt><trkpt lat="34.6852815" lon="33.0163185"><ele>45.4</ele><time>2015-04-30T13:41:27.0000000+00:00</time></trkpt><trkpt lat="34.6852536" lon="33.0163861"><ele>45.6</ele><time>2015-04-30T13:41:28.0000000+00:00</time></trkpt><trkpt lat="34.6852344" lon="33.0164564"><ele>45.2</ele><time>2015-04-30T13:41:29.0000000+00:00</time></trkpt><trkpt lat="34.685202" lon="33.0165213"><ele>45.0</ele><time>2015-04-30T13:41:30.0000000+00:00</time></trkpt><trkpt lat="34.6851684" lon="33.0165794"><ele>44.9</ele><time>2015-04-30T13:41:31.0000000+00:00</time></trkpt><trkpt lat="34.6851239" lon="33.0166316"><ele>44.3</ele><time>2015-04-30T13:41:32.0000000+00:00</time></trkpt><trkpt lat="34.6850851" lon="33.0166822"><ele>43.5</ele><time>2015-04-30T13:41:33.0000000+00:00</time></trkpt><trkpt lat="34.6850519" lon="33.0167348"><ele>42.7</ele><time>2015-04-30T13:41:34.0000000+00:00</time></trkpt><trkpt lat="34.6850122" lon="33.016794"><ele>42.2</ele><time>2015-04-30T13:41:35.0000000+00:00</time></trkpt><trkpt lat="34.6849814" lon="33.0168423"><ele>42.5</ele><time>2015-04-30T13:41:36.0000000+00:00</time></trkpt><trkpt lat="34.6849318" lon="33.0168935"><ele>42.7</ele><time>2015-04-30T13:41:38.0000000+00:00</time></trkpt><trkpt lat="34.6848719" lon="33.0169443"><ele>43.5</ele><time>2015-04-30T13:42:10.0000000+00:00</time></trkpt><trkpt lat="34.6848136" lon="33.0170199"><ele>44.2</ele><time>2015-04-30T13:42:12.0000000+00:00</time></trkpt><trkpt lat="34.6847763" lon="33.0170694"><ele>44.0</ele><time>2015-04-30T13:42:13.0000000+00:00</time></trkpt><trkpt lat="34.684705" lon="33.0171232"><ele>42.8</ele><time>2015-04-30T13:42:15.0000000+00:00</time></trkpt><trkpt lat="34.6846655" lon="33.0171592"><ele>42.3</ele><time>2015-04-30T13:42:16.0000000+00:00</time></trkpt><trkpt lat="34.6846247" lon="33.0171981"><ele>42.0</ele><time>2015-04-30T13:42:17.0000000+00:00</time></trkpt><trkpt lat="34.6845911" lon="33.0172389"><ele>41.9</ele><time>2015-04-30T13:42:18.0000000+00:00</time></trkpt><trkpt lat="34.6845529" lon="33.0172788"><ele>42.3</ele><time>2015-04-30T13:42:19.0000000+00:00</time></trkpt><trkpt lat="34.6845065" lon="33.01731"><ele>43.0</ele><time>2015-04-30T13:42:20.0000000+00:00</time></trkpt><trkpt lat="34.6844472" lon="33.0173764"><ele>41.1</ele><time>2015-04-30T13:42:22.0000000+00:00</time></trkpt><trkpt lat="34.684392" lon="33.0174657"><ele>40.1</ele><time>2015-04-30T13:42:24.0000000+00:00</time></trkpt><trkpt lat="34.6843554" lon="33.0175036"><ele>40.9</ele><time>2015-04-30T13:42:25.0000000+00:00</time></trkpt><trkpt lat="34.6843182" lon="33.0175448"><ele>41.3</ele><time>2015-04-30T13:42:26.0000000+00:00</time></trkpt><trkpt lat="34.684254" lon="33.0176267"><ele>41.7</ele><time>2015-04-30T13:42:28.0000000+00:00</time></trkpt><trkpt lat="34.6842002" lon="33.0177101"><ele>42.2</ele><time>2015-04-30T13:42:30.0000000+00:00</time></trkpt><trkpt lat="34.684171" lon="33.0177567"><ele>42.0</ele><time>2015-04-30T13:42:31.0000000+00:00</time></trkpt><trkpt lat="34.6841097" lon="33.0178348"><ele>42.8</ele><time>2015-04-30T13:42:33.0000000+00:00</time></trkpt><trkpt lat="34.6840612" lon="33.0179129"><ele>43.5</ele><time>2015-04-30T13:42:35.0000000+00:00</time></trkpt><trkpt lat="34.6840352" lon="33.0179603"><ele>44.1</ele><time>2015-04-30T13:42:36.0000000+00:00</time></trkpt><trkpt lat="34.6840082" lon="33.0180054"><ele>44.5</ele><time>2015-04-30T13:42:37.0000000+00:00</time></trkpt><trkpt lat="34.683964" lon="33.0180949"><ele>45.2</ele><time>2015-04-30T13:42:39.0000000+00:00</time></trkpt><trkpt lat="34.6839472" lon="33.0181522"><ele>45.5</ele><time>2015-04-30T13:42:40.0000000+00:00</time></trkpt><trkpt lat="34.6839172" lon="33.0181956"><ele>45.1</ele><time>2015-04-30T13:42:41.0000000+00:00</time></trkpt><trkpt lat="34.6838565" lon="33.0182761"><ele>45.4</ele><time>2015-04-30T13:42:43.0000000+00:00</time></trkpt><trkpt lat="34.6838206" lon="33.018319"><ele>45.6</ele><time>2015-04-30T13:42:44.0000000+00:00</time></trkpt><trkpt lat="34.6837875" lon="33.0183635"><ele>46.2</ele><time>2015-04-30T13:42:45.0000000+00:00</time></trkpt><trkpt lat="34.6837524" lon="33.0184004"><ele>46.5</ele><time>2015-04-30T13:42:46.0000000+00:00</time></trkpt><trkpt lat="34.683714" lon="33.0184389"><ele>47.1</ele><time>2015-04-30T13:42:47.0000000+00:00</time></trkpt><trkpt lat="34.6836733" lon="33.0184776"><ele>46.9</ele><time>2015-04-30T13:42:48.0000000+00:00</time></trkpt><trkpt lat="34.6836386" lon="33.018514"><ele>47.4</ele><time>2015-04-30T13:42:49.0000000+00:00</time></trkpt><trkpt lat="34.68361" lon="33.0185574"><ele>47.1</ele><time>2015-04-30T13:42:50.0000000+00:00</time></trkpt><trkpt lat="34.6835706" lon="33.0185943"><ele>46.9</ele><time>2015-04-30T13:42:51.0000000+00:00</time></trkpt><trkpt lat="34.6835303" lon="33.0186365"><ele>46.3</ele><time>2015-04-30T13:42:52.0000000+00:00</time></trkpt><trkpt lat="34.683495" lon="33.0186811"><ele>46.1</ele><time>2015-04-30T13:42:53.0000000+00:00</time></trkpt><trkpt lat="34.6834558" lon="33.0187247"><ele>45.9</ele><time>2015-04-30T13:42:54.0000000+00:00</time></trkpt><trkpt lat="34.6834121" lon="33.0187504"><ele>45.3</ele><time>2015-04-30T13:42:55.0000000+00:00</time></trkpt><trkpt lat="34.6833666" lon="33.0187916"><ele>45.1</ele><time>2015-04-30T13:42:56.0000000+00:00</time></trkpt><trkpt lat="34.6833236" lon="33.018825"><ele>44.9</ele><time>2015-04-30T13:42:57.0000000+00:00</time></trkpt><trkpt lat="34.6832446" lon="33.01889"><ele>42.8</ele><time>2015-04-30T13:42:59.0000000+00:00</time></trkpt><trkpt lat="34.6832013" lon="33.0189265"><ele>42.3</ele><time>2015-04-30T13:43:00.0000000+00:00</time></trkpt><trkpt lat="34.6831572" lon="33.0189618"><ele>41.5</ele><time>2015-04-30T13:43:01.0000000+00:00</time></trkpt><trkpt lat="34.6831199" lon="33.019"><ele>41.1</ele><time>2015-04-30T13:43:02.0000000+00:00</time></trkpt><trkpt lat="34.6830788" lon="33.0190425"><ele>41.5</ele><time>2015-04-30T13:43:03.0000000+00:00</time></trkpt><trkpt lat="34.6830443" lon="33.019086"><ele>41.6</ele><time>2015-04-30T13:43:04.0000000+00:00</time></trkpt><trkpt lat="34.683005" lon="33.019127"><ele>42.2</ele><time>2015-04-30T13:43:05.0000000+00:00</time></trkpt><trkpt lat="34.6830175" lon="33.0192116"><ele>41.5</ele><time>2015-04-30T13:43:06.0000000+00:00</time></trkpt><trkpt lat="34.6830033" lon="33.0192721"><ele>41.1</ele><time>2015-04-30T13:43:07.0000000+00:00</time></trkpt><trkpt lat="34.6829797" lon="33.0193286"><ele>40.9</ele><time>2015-04-30T13:43:08.0000000+00:00</time></trkpt><trkpt lat="34.6829481" lon="33.0193701"><ele>40.4</ele><time>2015-04-30T13:43:09.0000000+00:00</time></trkpt><trkpt lat="34.6829254" lon="33.0194209"><ele>39.6</ele><time>2015-04-30T13:43:10.0000000+00:00</time></trkpt><trkpt lat="34.6829053" lon="33.0194827"><ele>39.2</ele><time>2015-04-30T13:43:11.0000000+00:00</time></trkpt><trkpt lat="34.6828803" lon="33.0195378"><ele>38.5</ele><time>2015-04-30T13:43:12.0000000+00:00</time></trkpt><trkpt lat="34.6828509" lon="33.0195917"><ele>38.6</ele><time>2015-04-30T13:43:13.0000000+00:00</time></trkpt><trkpt lat="34.6828265" lon="33.019643"><ele>38.7</ele><time>2015-04-30T13:43:14.0000000+00:00</time></trkpt><trkpt lat="34.6828023" lon="33.0196986"><ele>39.2</ele><time>2015-04-30T13:43:15.0000000+00:00</time></trkpt><trkpt lat="34.6827845" lon="33.0197598"><ele>39.0</ele><time>2015-04-30T13:43:16.0000000+00:00</time></trkpt><trkpt lat="34.6827584" lon="33.0198235"><ele>38.9</ele><time>2015-04-30T13:43:17.0000000+00:00</time></trkpt><trkpt lat="34.6827235" lon="33.0198669"><ele>38.8</ele><time>2015-04-30T13:43:18.0000000+00:00</time></trkpt><trkpt lat="34.6826946" lon="33.01993"><ele>38.8</ele><time>2015-04-30T13:43:19.0000000+00:00</time></trkpt><trkpt lat="34.6826688" lon="33.0199979"><ele>39.3</ele><time>2015-04-30T13:43:20.0000000+00:00</time></trkpt><trkpt lat="34.6826452" lon="33.0200654"><ele>39.5</ele><time>2015-04-30T13:43:21.0000000+00:00</time></trkpt><trkpt lat="34.6826219" lon="33.0201315"><ele>40.1</ele><time>2015-04-30T13:43:22.0000000+00:00</time></trkpt><trkpt lat="34.682594" lon="33.0202003"><ele>40.5</ele><time>2015-04-30T13:43:23.0000000+00:00</time></trkpt><trkpt lat="34.6825772" lon="33.0202712"><ele>40.6</ele><time>2015-04-30T13:43:24.0000000+00:00</time></trkpt><trkpt lat="34.6825658" lon="33.0203402"><ele>40.7</ele><time>2015-04-30T13:43:25.0000000+00:00</time></trkpt><trkpt lat="34.6825612" lon="33.0204073"><ele>40.2</ele><time>2015-04-30T13:43:26.0000000+00:00</time></trkpt><trkpt lat="34.6825445" lon="33.0204743"><ele>40.0</ele><time>2015-04-30T13:43:27.0000000+00:00</time></trkpt><trkpt lat="34.6825325" lon="33.0205386"><ele>39.9</ele><time>2015-04-30T13:43:28.0000000+00:00</time></trkpt><trkpt lat="34.6825174" lon="33.0206034"><ele>39.8</ele><time>2015-04-30T13:43:29.0000000+00:00</time></trkpt><trkpt lat="34.6825084" lon="33.0206737"><ele>39.3</ele><time>2015-04-30T13:43:30.0000000+00:00</time></trkpt><trkpt lat="34.6825178" lon="33.02074"><ele>38.5</ele><time>2015-04-30T13:43:31.0000000+00:00</time></trkpt><trkpt lat="34.6824864" lon="33.0208106"><ele>38.6</ele><time>2015-04-30T13:43:32.0000000+00:00</time></trkpt><trkpt lat="34.6824586" lon="33.020879"><ele>39.7</ele><time>2015-04-30T13:43:33.0000000+00:00</time></trkpt><trkpt lat="34.6824393" lon="33.0209348"><ele>39.2</ele><time>2015-04-30T13:43:34.0000000+00:00</time></trkpt><trkpt lat="34.6824208" lon="33.0210008"><ele>39.5</ele><time>2015-04-30T13:43:35.0000000+00:00</time></trkpt><trkpt lat="34.6824117" lon="33.0210666"><ele>38.6</ele><time>2015-04-30T13:43:36.0000000+00:00</time></trkpt><trkpt lat="34.6823883" lon="33.0211302"><ele>39.2</ele><time>2015-04-30T13:43:37.0000000+00:00</time></trkpt><trkpt lat="34.6823775" lon="33.0212002"><ele>39.5</ele><time>2015-04-30T13:43:38.0000000+00:00</time></trkpt><trkpt lat="34.6823655" lon="33.0212602"><ele>39.6</ele><time>2015-04-30T13:43:39.0000000+00:00</time></trkpt><trkpt lat="34.6823536" lon="33.0213165"><ele>39.2</ele><time>2015-04-30T13:43:40.0000000+00:00</time></trkpt><trkpt lat="34.682333" lon="33.0213756"><ele>39.0</ele><time>2015-04-30T13:43:41.0000000+00:00</time></trkpt><trkpt lat="34.6823145" lon="33.0214298"><ele>39.4</ele><time>2015-04-30T13:43:42.0000000+00:00</time></trkpt><trkpt lat="34.6823098" lon="33.021485"><ele>39.6</ele><time>2015-04-30T13:43:43.0000000+00:00</time></trkpt><trkpt lat="34.6822885" lon="33.0215439"><ele>39.2</ele><time>2015-04-30T13:43:44.0000000+00:00</time></trkpt><trkpt lat="34.6822827" lon="33.0216069"><ele>39.0</ele><time>2015-04-30T13:43:45.0000000+00:00</time></trkpt><trkpt lat="34.6822812" lon="33.0216739"><ele>38.4</ele><time>2015-04-30T13:43:46.0000000+00:00</time></trkpt><trkpt lat="34.6822657" lon="33.0217403"><ele>38.6</ele><time>2015-04-30T13:43:47.0000000+00:00</time></trkpt><trkpt lat="34.6822613" lon="33.0217979"><ele>39.2</ele><time>2015-04-30T13:43:48.0000000+00:00</time></trkpt><trkpt lat="34.6822519" lon="33.0218625"><ele>39.5</ele><time>2015-04-30T13:43:49.0000000+00:00</time></trkpt><trkpt lat="34.6822385" lon="33.0219154"><ele>39.1</ele><time>2015-04-30T13:43:50.0000000+00:00</time></trkpt><trkpt lat="34.6822347" lon="33.0219755"><ele>38.9</ele><time>2015-04-30T13:43:51.0000000+00:00</time></trkpt><trkpt lat="34.6822314" lon="33.0220388"><ele>38.9</ele><time>2015-04-30T13:43:52.0000000+00:00</time></trkpt><trkpt lat="34.6822147" lon="33.0220973"><ele>38.8</ele><time>2015-04-30T13:43:53.0000000+00:00</time></trkpt><trkpt lat="34.6821913" lon="33.0221511"><ele>37.8</ele><time>2015-04-30T13:43:54.0000000+00:00</time></trkpt><trkpt lat="34.6821682" lon="33.022201"><ele>37.3</ele><time>2015-04-30T13:43:55.0000000+00:00</time></trkpt><trkpt lat="34.6821332" lon="33.0222552"><ele>37.5</ele><time>2015-04-30T13:43:56.0000000+00:00</time></trkpt><trkpt lat="34.6821126" lon="33.0223114"><ele>37.1</ele><time>2015-04-30T13:43:57.0000000+00:00</time></trkpt><trkpt lat="34.6820926" lon="33.0223655"><ele>37.0</ele><time>2015-04-30T13:43:58.0000000+00:00</time></trkpt><trkpt lat="34.6820743" lon="33.0224198"><ele>37.4</ele><time>2015-04-30T13:43:59.0000000+00:00</time></trkpt><trkpt lat="34.6820404" lon="33.022477"><ele>37.6</ele><time>2015-04-30T13:44:00.0000000+00:00</time></trkpt><trkpt lat="34.6820162" lon="33.0225309"><ele>37.7</ele><time>2015-04-30T13:44:01.0000000+00:00</time></trkpt><trkpt lat="34.6819892" lon="33.0225843"><ele>37.7</ele><time>2015-04-30T13:44:02.0000000+00:00</time></trkpt><trkpt lat="34.6819662" lon="33.0226425"><ele>38.2</ele><time>2015-04-30T13:44:03.0000000+00:00</time></trkpt><trkpt lat="34.6819376" lon="33.0226952"><ele>38.5</ele><time>2015-04-30T13:44:04.0000000+00:00</time></trkpt><trkpt lat="34.6819136" lon="33.0227534"><ele>39.1</ele><time>2015-04-30T13:44:05.0000000+00:00</time></trkpt><trkpt lat="34.6819017" lon="33.0228112"><ele>39.4</ele><time>2015-04-30T13:44:06.0000000+00:00</time></trkpt><trkpt lat="34.6818563" lon="33.0229084"><ele>40.2</ele><time>2015-04-30T13:44:08.0000000+00:00</time></trkpt><trkpt lat="34.6818358" lon="33.0229957"><ele>38.9</ele><time>2015-04-30T13:44:10.0000000+00:00</time></trkpt><trkpt lat="34.6818209" lon="33.023055"><ele>38.3</ele><time>2015-04-30T13:44:11.0000000+00:00</time></trkpt><trkpt lat="34.6817839" lon="33.0231483"><ele>38.7</ele><time>2015-04-30T13:44:13.0000000+00:00</time></trkpt><trkpt lat="34.6817697" lon="33.0232136"><ele>38.2</ele><time>2015-04-30T13:44:14.0000000+00:00</time></trkpt><trkpt lat="34.6817413" lon="33.0232606"><ele>38.0</ele><time>2015-04-30T13:44:15.0000000+00:00</time></trkpt><trkpt lat="34.6817184" lon="33.0233111"><ele>37.9</ele><time>2015-04-30T13:44:16.0000000+00:00</time></trkpt><trkpt lat="34.681654" lon="33.0234064"><ele>37.3</ele><time>2015-04-30T13:44:18.0000000+00:00</time></trkpt><trkpt lat="34.6815991" lon="33.0235011"><ele>36.9</ele><time>2015-04-30T13:44:20.0000000+00:00</time></trkpt><trkpt lat="34.6815687" lon="33.0235464"><ele>36.8</ele><time>2015-04-30T13:44:21.0000000+00:00</time></trkpt><trkpt lat="34.6815132" lon="33.0236289"><ele>36.8</ele><time>2015-04-30T13:44:23.0000000+00:00</time></trkpt><trkpt lat="34.6814784" lon="33.0236682"><ele>36.8</ele><time>2015-04-30T13:44:24.0000000+00:00</time></trkpt><trkpt lat="34.6814515" lon="33.023713"><ele>37.3</ele><time>2015-04-30T13:44:25.0000000+00:00</time></trkpt><trkpt lat="34.6814057" lon="33.0237948"><ele>37.6</ele><time>2015-04-30T13:44:27.0000000+00:00</time></trkpt><trkpt lat="34.6813793" lon="33.0238402"><ele>37.2</ele><time>2015-04-30T13:44:28.0000000+00:00</time></trkpt><trkpt lat="34.6813297" lon="33.023921"><ele>38.4</ele><time>2015-04-30T13:44:30.0000000+00:00</time></trkpt><trkpt lat="34.6812783" lon="33.0240003"><ele>38.7</ele><time>2015-04-30T13:44:32.0000000+00:00</time></trkpt><trkpt lat="34.6812292" lon="33.0240762"><ele>38.2</ele><time>2015-04-30T13:44:34.0000000+00:00</time></trkpt><trkpt lat="34.6811709" lon="33.0241597"><ele>37.4</ele><time>2015-04-30T13:44:36.0000000+00:00</time></trkpt><trkpt lat="34.6811384" lon="33.0242047"><ele>37.6</ele><time>2015-04-30T13:44:37.0000000+00:00</time></trkpt><trkpt lat="34.6811016" lon="33.0242467"><ele>37.7</ele><time>2015-04-30T13:44:38.0000000+00:00</time></trkpt><trkpt lat="34.6810321" lon="33.024335"><ele>37.7</ele><time>2015-04-30T13:44:40.0000000+00:00</time></trkpt><trkpt lat="34.680965" lon="33.0244133"><ele>37.8</ele><time>2015-04-30T13:44:42.0000000+00:00</time></trkpt><trkpt lat="34.6809379" lon="33.0244664"><ele>37.8</ele><time>2015-04-30T13:44:43.0000000+00:00</time></trkpt><trkpt lat="34.6809012" lon="33.0245237"><ele>37.3</ele><time>2015-04-30T13:44:44.0000000+00:00</time></trkpt><trkpt lat="34.6808639" lon="33.0245739"><ele>37.0</ele><time>2015-04-30T13:44:45.0000000+00:00</time></trkpt><trkpt lat="34.6808268" lon="33.0246203"><ele>36.4</ele><time>2015-04-30T13:44:46.0000000+00:00</time></trkpt><trkpt lat="34.6808039" lon="33.0246738"><ele>37.1</ele><time>2015-04-30T13:44:47.0000000+00:00</time></trkpt><trkpt lat="34.6807623" lon="33.024721"><ele>37.4</ele><time>2015-04-30T13:44:48.0000000+00:00</time></trkpt><trkpt lat="34.6807286" lon="33.0247695"><ele>37.6</ele><time>2015-04-30T13:44:49.0000000+00:00</time></trkpt><trkpt lat="34.6806998" lon="33.0248228"><ele>37.2</ele><time>2015-04-30T13:44:50.0000000+00:00</time></trkpt><trkpt lat="34.6806668" lon="33.0248769"><ele>37.0</ele><time>2015-04-30T13:44:51.0000000+00:00</time></trkpt><trkpt lat="34.6806291" lon="33.0249551"><ele>35.3</ele><time>2015-04-30T13:44:53.0000000+00:00</time></trkpt><trkpt lat="34.6805914" lon="33.0250449"><ele>35.9</ele><time>2015-04-30T13:44:55.0000000+00:00</time></trkpt><trkpt lat="34.6805565" lon="33.0251041"><ele>35.8</ele><time>2015-04-30T13:44:57.0000000+00:00</time></trkpt><trkpt lat="34.680542" lon="33.0251585"><ele>35.5</ele><time>2015-04-30T13:44:59.0000000+00:00</time></trkpt><trkpt lat="34.6805078" lon="33.025231"><ele>36.2</ele><time>2015-04-30T13:45:01.0000000+00:00</time></trkpt><trkpt lat="34.6804721" lon="33.0252918"><ele>37.9</ele><time>2015-04-30T13:45:03.0000000+00:00</time></trkpt><trkpt lat="34.6804404" lon="33.0253581"><ele>39.8</ele><time>2015-04-30T13:45:05.0000000+00:00</time></trkpt><trkpt lat="34.6804162" lon="33.0254186"><ele>37.5</ele><time>2015-04-30T13:45:07.0000000+00:00</time></trkpt><trkpt lat="34.6803836" lon="33.0254752"><ele>36.7</ele><time>2015-04-30T13:45:09.0000000+00:00</time></trkpt><trkpt lat="34.6803504" lon="33.0255231"><ele>36.2</ele><time>2015-04-30T13:45:11.0000000+00:00</time></trkpt><trkpt lat="34.6803231" lon="33.0255769"><ele>34.9</ele><time>2015-04-30T13:45:13.0000000+00:00</time></trkpt><trkpt lat="34.6802983" lon="33.0256433"><ele>34.0</ele><time>2015-04-30T13:45:15.0000000+00:00</time></trkpt><trkpt lat="34.680263" lon="33.0257136"><ele>33.1</ele><time>2015-04-30T13:45:17.0000000+00:00</time></trkpt><trkpt lat="34.6802289" lon="33.0257798"><ele>32.1</ele><time>2015-04-30T13:45:19.0000000+00:00</time></trkpt><trkpt lat="34.6801842" lon="33.0258597"><ele>31.3</ele><time>2015-04-30T13:45:21.0000000+00:00</time></trkpt><trkpt lat="34.6801348" lon="33.0259296"><ele>31.4</ele><time>2015-04-30T13:45:23.0000000+00:00</time></trkpt><trkpt lat="34.6800863" lon="33.0259975"><ele>32.2</ele><time>2015-04-30T13:45:25.0000000+00:00</time></trkpt><trkpt lat="34.6800488" lon="33.0260318"><ele>36.0</ele><time>2015-04-30T13:46:13.0000000+00:00</time></trkpt><trkpt lat="34.6800261" lon="33.0260828"><ele>37.3</ele><time>2015-04-30T13:46:33.0000000+00:00</time></trkpt><trkpt lat="34.6799925" lon="33.0261321"><ele>37.2</ele><time>2015-04-30T13:46:35.0000000+00:00</time></trkpt><trkpt lat="34.6799406" lon="33.0262088"><ele>34.6</ele><time>2015-04-30T13:46:37.0000000+00:00</time></trkpt><trkpt lat="34.6798894" lon="33.026293"><ele>33.7</ele><time>2015-04-30T13:46:39.0000000+00:00</time></trkpt><trkpt lat="34.6798563" lon="33.0263431"><ele>32.7</ele><time>2015-04-30T13:46:40.0000000+00:00</time></trkpt><trkpt lat="34.679796" lon="33.0263953"><ele>32.3</ele><time>2015-04-30T13:46:41.0000000+00:00</time></trkpt><trkpt lat="34.6797622" lon="33.0264477"><ele>32.5</ele><time>2015-04-30T13:46:42.0000000+00:00</time></trkpt><trkpt lat="34.6797283" lon="33.0264914"><ele>32.6</ele><time>2015-04-30T13:46:43.0000000+00:00</time></trkpt><trkpt lat="34.6797079" lon="33.0265532"><ele>32.7</ele><time>2015-04-30T13:46:44.0000000+00:00</time></trkpt><trkpt lat="34.679672" lon="33.0266044"><ele>32.7</ele><time>2015-04-30T13:46:45.0000000+00:00</time></trkpt><trkpt lat="34.6796508" lon="33.0266605"><ele>32.7</ele><time>2015-04-30T13:46:46.0000000+00:00</time></trkpt><trkpt lat="34.6796254" lon="33.0267165"><ele>32.3</ele><time>2015-04-30T13:46:47.0000000+00:00</time></trkpt><trkpt lat="34.6795934" lon="33.0267691"><ele>32.0</ele><time>2015-04-30T13:46:48.0000000+00:00</time></trkpt><trkpt lat="34.6795583" lon="33.0268161"><ele>31.9</ele><time>2015-04-30T13:46:49.0000000+00:00</time></trkpt><trkpt lat="34.6795289" lon="33.0268662"><ele>31.8</ele><time>2015-04-30T13:46:50.0000000+00:00</time></trkpt><trkpt lat="34.6794911" lon="33.0269172"><ele>31.8</ele><time>2015-04-30T13:46:51.0000000+00:00</time></trkpt><trkpt lat="34.6794568" lon="33.0269728"><ele>31.8</ele><time>2015-04-30T13:46:52.0000000+00:00</time></trkpt><trkpt lat="34.6794235" lon="33.0270317"><ele>31.3</ele><time>2015-04-30T13:46:53.0000000+00:00</time></trkpt><trkpt lat="34.679395" lon="33.0270835"><ele>30.5</ele><time>2015-04-30T13:46:54.0000000+00:00</time></trkpt><trkpt lat="34.679368" lon="33.0271399"><ele>29.6</ele><time>2015-04-30T13:46:55.0000000+00:00</time></trkpt><trkpt lat="34.6793419" lon="33.027193"><ele>28.7</ele><time>2015-04-30T13:46:56.0000000+00:00</time></trkpt><trkpt lat="34.6793084" lon="33.0272503"><ele>28.7</ele><time>2015-04-30T13:46:57.0000000+00:00</time></trkpt><trkpt lat="34.6792732" lon="33.0273033"><ele>28.7</ele><time>2015-04-30T13:46:58.0000000+00:00</time></trkpt><trkpt lat="34.6792361" lon="33.027353"><ele>29.3</ele><time>2015-04-30T13:46:59.0000000+00:00</time></trkpt><trkpt lat="34.6792043" lon="33.027402"><ele>29.5</ele><time>2015-04-30T13:47:00.0000000+00:00</time></trkpt><trkpt lat="34.6791714" lon="33.0274506"><ele>29.6</ele><time>2015-04-30T13:47:01.0000000+00:00</time></trkpt><trkpt lat="34.6791369" lon="33.0275019"><ele>30.2</ele><time>2015-04-30T13:47:02.0000000+00:00</time></trkpt><trkpt lat="34.6791087" lon="33.0275536"><ele>30.5</ele><time>2015-04-30T13:47:03.0000000+00:00</time></trkpt><trkpt lat="34.6790778" lon="33.0276067"><ele>30.6</ele><time>2015-04-30T13:47:04.0000000+00:00</time></trkpt><trkpt lat="34.6790433" lon="33.0276622"><ele>30.7</ele><time>2015-04-30T13:47:05.0000000+00:00</time></trkpt><trkpt lat="34.6790062" lon="33.0277115"><ele>30.7</ele><time>2015-04-30T13:47:06.0000000+00:00</time></trkpt><trkpt lat="34.678967" lon="33.0277575"><ele>30.7</ele><time>2015-04-30T13:47:07.0000000+00:00</time></trkpt><trkpt lat="34.6789288" lon="33.027808"><ele>30.3</ele><time>2015-04-30T13:47:08.0000000+00:00</time></trkpt><trkpt lat="34.6788944" lon="33.0278592"><ele>30.0</ele><time>2015-04-30T13:47:09.0000000+00:00</time></trkpt><trkpt lat="34.6788657" lon="33.0279073"><ele>29.9</ele><time>2015-04-30T13:47:10.0000000+00:00</time></trkpt><trkpt lat="34.6788294" lon="33.0279538"><ele>29.8</ele><time>2015-04-30T13:47:11.0000000+00:00</time></trkpt><trkpt lat="34.678796" lon="33.0280081"><ele>29.3</ele><time>2015-04-30T13:47:12.0000000+00:00</time></trkpt><trkpt lat="34.6787573" lon="33.028045"><ele>28.0</ele><time>2015-04-30T13:47:13.0000000+00:00</time></trkpt><trkpt lat="34.6787211" lon="33.0280899"><ele>26.9</ele><time>2015-04-30T13:47:14.0000000+00:00</time></trkpt><trkpt lat="34.6786834" lon="33.0281373"><ele>26.3</ele><time>2015-04-30T13:47:15.0000000+00:00</time></trkpt><trkpt lat="34.6786408" lon="33.02819"><ele>26.0</ele><time>2015-04-30T13:47:16.0000000+00:00</time></trkpt><trkpt lat="34.6786073" lon="33.0282454"><ele>25.4</ele><time>2015-04-30T13:47:17.0000000+00:00</time></trkpt><trkpt lat="34.6785744" lon="33.0282992"><ele>25.6</ele><time>2015-04-30T13:47:18.0000000+00:00</time></trkpt><trkpt lat="34.6785444" lon="33.0283464"><ele>25.7</ele><time>2015-04-30T13:47:19.0000000+00:00</time></trkpt><trkpt lat="34.6785056" lon="33.0283953"><ele>25.7</ele><time>2015-04-30T13:47:20.0000000+00:00</time></trkpt><trkpt lat="34.6784731" lon="33.0284511"><ele>25.7</ele><time>2015-04-30T13:47:21.0000000+00:00</time></trkpt><trkpt lat="34.6784259" lon="33.0285018"><ele>25.3</ele><time>2015-04-30T13:47:22.0000000+00:00</time></trkpt><trkpt lat="34.6783975" lon="33.0285462"><ele>25.0</ele><time>2015-04-30T13:47:23.0000000+00:00</time></trkpt><trkpt lat="34.6783541" lon="33.0285885"><ele>24.9</ele><time>2015-04-30T13:47:24.0000000+00:00</time></trkpt><trkpt lat="34.6783081" lon="33.0286263"><ele>24.8</ele><time>2015-04-30T13:47:25.0000000+00:00</time></trkpt><trkpt lat="34.6782711" lon="33.028666"><ele>25.3</ele><time>2015-04-30T13:47:26.0000000+00:00</time></trkpt><trkpt lat="34.6782335" lon="33.0287043"><ele>25.5</ele><time>2015-04-30T13:47:27.0000000+00:00</time></trkpt><trkpt lat="34.678193" lon="33.0287479"><ele>25.6</ele><time>2015-04-30T13:47:28.0000000+00:00</time></trkpt><trkpt lat="34.6781324" lon="33.0287638"><ele>26.2</ele><time>2015-04-30T13:47:29.0000000+00:00</time></trkpt><trkpt lat="34.6780841" lon="33.0287976"><ele>26.5</ele><time>2015-04-30T13:47:30.0000000+00:00</time></trkpt><trkpt lat="34.6780285" lon="33.0288124"><ele>26.6</ele><time>2015-04-30T13:47:31.0000000+00:00</time></trkpt><trkpt lat="34.6779714" lon="33.0288218"><ele>26.7</ele><time>2015-04-30T13:47:32.0000000+00:00</time></trkpt><trkpt lat="34.6779157" lon="33.0288277"><ele>26.7</ele><time>2015-04-30T13:47:33.0000000+00:00</time></trkpt><trkpt lat="34.6778552" lon="33.0288197"><ele>26.7</ele><time>2015-04-30T13:47:34.0000000+00:00</time></trkpt><trkpt lat="34.6777999" lon="33.0288157"><ele>25.8</ele><time>2015-04-30T13:47:35.0000000+00:00</time></trkpt><trkpt lat="34.6777424" lon="33.028825"><ele>25.3</ele><time>2015-04-30T13:47:36.0000000+00:00</time></trkpt><trkpt lat="34.6776862" lon="33.0288199"><ele>24.5</ele><time>2015-04-30T13:47:37.0000000+00:00</time></trkpt><trkpt lat="34.6776217" lon="33.0288205"><ele>24.6</ele><time>2015-04-30T13:47:38.0000000+00:00</time></trkpt><trkpt lat="34.6775624" lon="33.0288229"><ele>24.7</ele><time>2015-04-30T13:47:39.0000000+00:00</time></trkpt><trkpt lat="34.6774997" lon="33.0288315"><ele>25.2</ele><time>2015-04-30T13:47:40.0000000+00:00</time></trkpt><trkpt lat="34.6774389" lon="33.0288293"><ele>25.5</ele><time>2015-04-30T13:47:41.0000000+00:00</time></trkpt><trkpt lat="34.6773819" lon="33.0288225"><ele>25.6</ele><time>2015-04-30T13:47:42.0000000+00:00</time></trkpt><trkpt lat="34.6773216" lon="33.0288316"><ele>25.2</ele><time>2015-04-30T13:47:43.0000000+00:00</time></trkpt><trkpt lat="34.6772624" lon="33.0288351"><ele>25.5</ele><time>2015-04-30T13:47:44.0000000+00:00</time></trkpt><trkpt lat="34.6772073" lon="33.0288346"><ele>26.1</ele><time>2015-04-30T13:47:45.0000000+00:00</time></trkpt><trkpt lat="34.6771523" lon="33.0288365"><ele>26.4</ele><time>2015-04-30T13:47:46.0000000+00:00</time></trkpt><trkpt lat="34.677104" lon="33.0288369"><ele>26.6</ele><time>2015-04-30T13:47:47.0000000+00:00</time></trkpt><trkpt lat="34.6770517" lon="33.0288374"><ele>26.7</ele><time>2015-04-30T13:47:48.0000000+00:00</time></trkpt><trkpt lat="34.6770046" lon="33.0288431"><ele>26.7</ele><time>2015-04-30T13:47:49.0000000+00:00</time></trkpt><trkpt lat="34.6769492" lon="33.0288373"><ele>26.7</ele><time>2015-04-30T13:47:50.0000000+00:00</time></trkpt><trkpt lat="34.6769" lon="33.0288439"><ele>26.8</ele><time>2015-04-30T13:47:51.0000000+00:00</time></trkpt><trkpt lat="34.6768513" lon="33.0288379"><ele>27.8</ele><time>2015-04-30T13:47:52.0000000+00:00</time></trkpt><trkpt lat="34.6768035" lon="33.0288345"><ele>27.8</ele><time>2015-04-30T13:47:53.0000000+00:00</time></trkpt><trkpt lat="34.6767546" lon="33.0288271"><ele>26.8</ele><time>2015-04-30T13:47:54.0000000+00:00</time></trkpt><trkpt lat="34.6766638" lon="33.0288282"><ele>26.8</ele><time>2015-04-30T13:47:56.0000000+00:00</time></trkpt><trkpt lat="34.6766168" lon="33.0288365"><ele>27.3</ele><time>2015-04-30T13:47:57.0000000+00:00</time></trkpt><trkpt lat="34.6765666" lon="33.0288447"><ele>27.5</ele><time>2015-04-30T13:47:58.0000000+00:00</time></trkpt><trkpt lat="34.6764787" lon="33.0288456"><ele>27.7</ele><time>2015-04-30T13:48:00.0000000+00:00</time></trkpt><trkpt lat="34.676431" lon="33.0288508"><ele>27.7</ele><time>2015-04-30T13:48:01.0000000+00:00</time></trkpt><trkpt lat="34.6763853" lon="33.0288517"><ele>27.7</ele><time>2015-04-30T13:48:02.0000000+00:00</time></trkpt><trkpt lat="34.6763387" lon="33.0288538"><ele>27.8</ele><time>2015-04-30T13:48:03.0000000+00:00</time></trkpt><trkpt lat="34.676291" lon="33.0288554"><ele>27.8</ele><time>2015-04-30T13:48:04.0000000+00:00</time></trkpt><trkpt lat="34.6762457" lon="33.0288567"><ele>27.8</ele><time>2015-04-30T13:48:05.0000000+00:00</time></trkpt><trkpt lat="34.6761944" lon="33.0288577"><ele>27.8</ele><time>2015-04-30T13:48:06.0000000+00:00</time></trkpt><trkpt lat="34.6761035" lon="33.0288572"><ele>28.5</ele><time>2015-04-30T13:48:08.0000000+00:00</time></trkpt><trkpt lat="34.6760594" lon="33.0288697"><ele>29.1</ele><time>2015-04-30T13:48:09.0000000+00:00</time></trkpt><trkpt lat="34.6759771" lon="33.0288741"><ele>28.4</ele><time>2015-04-30T13:48:11.0000000+00:00</time></trkpt><trkpt lat="34.6759332" lon="33.0288604"><ele>28.1</ele><time>2015-04-30T13:48:12.0000000+00:00</time></trkpt><trkpt lat="34.6758528" lon="33.0288349"><ele>27.1</ele><time>2015-04-30T13:48:14.0000000+00:00</time></trkpt><trkpt lat="34.6757726" lon="33.028846"><ele>28.1</ele><time>2015-04-30T13:48:16.0000000+00:00</time></trkpt><trkpt lat="34.6756943" lon="33.0288378"><ele>26.6</ele><time>2015-04-30T13:48:18.0000000+00:00</time></trkpt><trkpt lat="34.6756104" lon="33.0288337"><ele>26.5</ele><time>2015-04-30T13:48:20.0000000+00:00</time></trkpt><trkpt lat="34.6755301" lon="33.0288409"><ele>25.9</ele><time>2015-04-30T13:48:22.0000000+00:00</time></trkpt><trkpt lat="34.6754484" lon="33.0288454"><ele>25.8</ele><time>2015-04-30T13:48:24.0000000+00:00</time></trkpt><trkpt lat="34.6753719" lon="33.028835"><ele>26.3</ele><time>2015-04-30T13:48:26.0000000+00:00</time></trkpt><trkpt lat="34.6752942" lon="33.0288392"><ele>26.6</ele><time>2015-04-30T13:48:28.0000000+00:00</time></trkpt><trkpt lat="34.675215" lon="33.0288427"><ele>27.2</ele><time>2015-04-30T13:48:30.0000000+00:00</time></trkpt><trkpt lat="34.6751221" lon="33.0288347"><ele>27.1</ele><time>2015-04-30T13:48:32.0000000+00:00</time></trkpt><trkpt lat="34.6750383" lon="33.0288283"><ele>25.6</ele><time>2015-04-30T13:48:34.0000000+00:00</time></trkpt><trkpt lat="34.6749417" lon="33.0288333"><ele>25.0</ele><time>2015-04-30T13:48:36.0000000+00:00</time></trkpt><trkpt lat="34.6748914" lon="33.0288323"><ele>25.4</ele><time>2015-04-30T13:48:37.0000000+00:00</time></trkpt><trkpt lat="34.6748467" lon="33.0288264"><ele>25.6</ele><time>2015-04-30T13:48:38.0000000+00:00</time></trkpt><trkpt lat="34.6748004" lon="33.0288302"><ele>26.2</ele><time>2015-04-30T13:48:39.0000000+00:00</time></trkpt><trkpt lat="34.6747146" lon="33.0288354"><ele>25.9</ele><time>2015-04-30T13:48:41.0000000+00:00</time></trkpt><trkpt lat="34.6746297" lon="33.0288287"><ele>26.5</ele><time>2015-04-30T13:48:43.0000000+00:00</time></trkpt><trkpt lat="34.6745829" lon="33.028826"><ele>27.2</ele><time>2015-04-30T13:48:44.0000000+00:00</time></trkpt><trkpt lat="34.6745087" lon="33.02883"><ele>28.1</ele><time>2015-04-30T13:48:46.0000000+00:00</time></trkpt><trkpt lat="34.6744473" lon="33.0288286"><ele>28.9</ele><time>2015-04-30T13:48:48.0000000+00:00</time></trkpt><trkpt lat="34.6743919" lon="33.0288482"><ele>34.5</ele><time>2015-04-30T13:49:30.0000000+00:00</time></trkpt><trkpt lat="34.6743147" lon="33.0288658"><ele>32.2</ele><time>2015-04-30T13:49:32.0000000+00:00</time></trkpt><trkpt lat="34.6742511" lon="33.0288882"><ele>30.1</ele><time>2015-04-30T13:49:34.0000000+00:00</time></trkpt><trkpt lat="34.6741876" lon="33.0288938"><ele>28.1</ele><time>2015-04-30T13:49:36.0000000+00:00</time></trkpt><trkpt lat="34.6741351" lon="33.0288562"><ele>27.1</ele><time>2015-04-30T13:49:39.0000000+00:00</time></trkpt><trkpt lat="34.6740841" lon="33.0288702"><ele>27.3</ele><time>2015-04-30T13:49:41.0000000+00:00</time></trkpt><trkpt lat="34.6740165" lon="33.0288911"><ele>28.4</ele><time>2015-04-30T13:49:43.0000000+00:00</time></trkpt><trkpt lat="34.6739304" lon="33.0289163"><ele>28.7</ele><time>2015-04-30T13:49:45.0000000+00:00</time></trkpt><trkpt lat="34.6738547" lon="33.0289435"><ele>28.7</ele><time>2015-04-30T13:49:47.0000000+00:00</time></trkpt><trkpt lat="34.6737845" lon="33.0289702"><ele>28.5</ele><time>2015-04-30T13:49:49.0000000+00:00</time></trkpt><trkpt lat="34.6737108" lon="33.0289899"><ele>28.2</ele><time>2015-04-30T13:49:51.0000000+00:00</time></trkpt><trkpt lat="34.6736083" lon="33.029029"><ele>27.1</ele><time>2015-04-30T13:49:53.0000000+00:00</time></trkpt><trkpt lat="34.6735123" lon="33.0290451"><ele>25.9</ele><time>2015-04-30T13:49:55.0000000+00:00</time></trkpt><trkpt lat="34.673468" lon="33.0290664"><ele>25.8</ele><time>2015-04-30T13:49:56.0000000+00:00</time></trkpt><trkpt lat="34.6734233" lon="33.0290766"><ele>25.3</ele><time>2015-04-30T13:49:57.0000000+00:00</time></trkpt><trkpt lat="34.6733692" lon="33.0290893"><ele>25.0</ele><time>2015-04-30T13:49:58.0000000+00:00</time></trkpt><trkpt lat="34.6733255" lon="33.0291112"><ele>24.9</ele><time>2015-04-30T13:49:59.0000000+00:00</time></trkpt><trkpt lat="34.6732737" lon="33.0291285"><ele>24.8</ele><time>2015-04-30T13:50:00.0000000+00:00</time></trkpt><trkpt lat="34.6732321" lon="33.0291535"><ele>24.8</ele><time>2015-04-30T13:50:01.0000000+00:00</time></trkpt><trkpt lat="34.6731375" lon="33.0291864"><ele>25.3</ele><time>2015-04-30T13:50:03.0000000+00:00</time></trkpt><trkpt lat="34.6730843" lon="33.0291983"><ele>25.5</ele><time>2015-04-30T13:50:04.0000000+00:00</time></trkpt><trkpt lat="34.6730374" lon="33.0292134"><ele>25.1</ele><time>2015-04-30T13:50:05.0000000+00:00</time></trkpt><trkpt lat="34.6729914" lon="33.0292206"><ele>25.0</ele><time>2015-04-30T13:50:06.0000000+00:00</time></trkpt><trkpt lat="34.6729442" lon="33.0292353"><ele>23.9</ele><time>2015-04-30T13:50:07.0000000+00:00</time></trkpt><trkpt lat="34.6729011" lon="33.0292525"><ele>23.8</ele><time>2015-04-30T13:50:08.0000000+00:00</time></trkpt><trkpt lat="34.6728215" lon="33.0292915"><ele>23.8</ele><time>2015-04-30T13:50:10.0000000+00:00</time></trkpt><trkpt lat="34.6727424" lon="33.0293238"><ele>24.0</ele><time>2015-04-30T13:50:12.0000000+00:00</time></trkpt><trkpt lat="34.6726676" lon="33.0293316"><ele>24.1</ele><time>2015-04-30T13:50:14.0000000+00:00</time></trkpt><trkpt lat="34.6725879" lon="33.0293394"><ele>23.6</ele><time>2015-04-30T13:50:16.0000000+00:00</time></trkpt><trkpt lat="34.6725177" lon="33.0293542"><ele>26.3</ele><time>2015-04-30T13:50:18.0000000+00:00</time></trkpt><trkpt lat="34.6724735" lon="33.0293796"><ele>26.5</ele><time>2015-04-30T13:50:19.0000000+00:00</time></trkpt><trkpt lat="34.6723982" lon="33.0294082"><ele>26.7</ele><time>2015-04-30T13:50:21.0000000+00:00</time></trkpt><trkpt lat="34.6723221" lon="33.0294343"><ele>26.8</ele><time>2015-04-30T13:50:23.0000000+00:00</time></trkpt><trkpt lat="34.6722408" lon="33.029456"><ele>26.8</ele><time>2015-04-30T13:50:25.0000000+00:00</time></trkpt><trkpt lat="34.6721576" lon="33.0294708"><ele>26.6</ele><time>2015-04-30T13:50:27.0000000+00:00</time></trkpt><trkpt lat="34.6721046" lon="33.0294812"><ele>26.7</ele><time>2015-04-30T13:50:28.0000000+00:00</time></trkpt><trkpt lat="34.6720619" lon="33.0294991"><ele>26.7</ele><time>2015-04-30T13:50:29.0000000+00:00</time></trkpt><trkpt lat="34.67198" lon="33.0295174"><ele>27.0</ele><time>2015-04-30T13:50:31.0000000+00:00</time></trkpt><trkpt lat="34.6719022" lon="33.0295469"><ele>27.9</ele><time>2015-04-30T13:50:33.0000000+00:00</time></trkpt><trkpt lat="34.6718198" lon="33.0295789"><ele>28.3</ele><time>2015-04-30T13:50:35.0000000+00:00</time></trkpt><trkpt lat="34.6717434" lon="33.0295923"><ele>27.4</ele><time>2015-04-30T13:50:37.0000000+00:00</time></trkpt><trkpt lat="34.6716682" lon="33.0296165"><ele>27.0</ele><time>2015-04-30T13:50:39.0000000+00:00</time></trkpt><trkpt lat="34.6715883" lon="33.0296357"><ele>26.8</ele><time>2015-04-30T13:50:41.0000000+00:00</time></trkpt><trkpt lat="34.6715152" lon="33.0296589"><ele>26.3</ele><time>2015-04-30T13:50:43.0000000+00:00</time></trkpt><trkpt lat="34.6714415" lon="33.0296795"><ele>26.9</ele><time>2015-04-30T13:50:45.0000000+00:00</time></trkpt><trkpt lat="34.6713705" lon="33.0296916"><ele>26.8</ele><time>2015-04-30T13:50:47.0000000+00:00</time></trkpt><trkpt lat="34.6713163" lon="33.0297098"><ele>26.1</ele><time>2015-04-30T13:50:49.0000000+00:00</time></trkpt><trkpt lat="34.6712626" lon="33.0297268"><ele>25.4</ele><time>2015-04-30T13:50:51.0000000+00:00</time></trkpt><trkpt lat="34.6712087" lon="33.0297416"><ele>25.0</ele><time>2015-04-30T13:50:53.0000000+00:00</time></trkpt><trkpt lat="34.6711566" lon="33.0297487"><ele>25.1</ele><time>2015-04-30T13:50:55.0000000+00:00</time></trkpt><trkpt lat="34.6711154" lon="33.0297767"><ele>25.2</ele><time>2015-04-30T13:50:58.0000000+00:00</time></trkpt><trkpt lat="34.6711182" lon="33.0298406"><ele>25.2</ele><time>2015-04-30T13:51:01.0000000+00:00</time></trkpt><trkpt lat="34.6711458" lon="33.0298946"><ele>25.2</ele><time>2015-04-30T13:51:03.0000000+00:00</time></trkpt><trkpt lat="34.6711736" lon="33.0299525"><ele>24.5</ele><time>2015-04-30T13:51:04.0000000+00:00</time></trkpt><trkpt lat="34.6712043" lon="33.030007"><ele>24.6</ele><time>2015-04-30T13:51:05.0000000+00:00</time></trkpt><trkpt lat="34.6712541" lon="33.0300961"><ele>24.8</ele><time>2015-04-30T13:51:07.0000000+00:00</time></trkpt><trkpt lat="34.6713005" lon="33.0301804"><ele>24.8</ele><time>2015-04-30T13:51:09.0000000+00:00</time></trkpt><trkpt lat="34.6713341" lon="33.0302387"><ele>24.3</ele><time>2015-04-30T13:51:11.0000000+00:00</time></trkpt><trkpt lat="34.6713155" lon="33.030319"><ele>23.9</ele><time>2015-04-30T13:51:13.0000000+00:00</time></trkpt><trkpt lat="34.6712528" lon="33.0303752"><ele>23.3</ele><time>2015-04-30T13:51:15.0000000+00:00</time></trkpt><trkpt lat="34.6711813" lon="33.0304143"><ele>23.9</ele><time>2015-04-30T13:51:17.0000000+00:00</time></trkpt><trkpt lat="34.6711059" lon="33.0304609"><ele>25.1</ele><time>2015-04-30T13:51:19.0000000+00:00</time></trkpt><trkpt lat="34.6710393" lon="33.0305074"><ele>25.6</ele><time>2015-04-30T13:51:21.0000000+00:00</time></trkpt><trkpt lat="34.6709757" lon="33.0305446"><ele>24.5</ele><time>2015-04-30T13:51:23.0000000+00:00</time></trkpt><trkpt lat="34.6709129" lon="33.0305856"><ele>25.2</ele><time>2015-04-30T13:51:25.0000000+00:00</time></trkpt><trkpt lat="34.6708476" lon="33.0306258"><ele>24.9</ele><time>2015-04-30T13:51:27.0000000+00:00</time></trkpt><trkpt lat="34.6707661" lon="33.0306692"><ele>25.3</ele><time>2015-04-30T13:51:29.0000000+00:00</time></trkpt><trkpt lat="34.6707001" lon="33.030723"><ele>23.4</ele><time>2015-04-30T13:51:31.0000000+00:00</time></trkpt><trkpt lat="34.6706384" lon="33.0307915"><ele>22.2</ele><time>2015-04-30T13:51:33.0000000+00:00</time></trkpt><trkpt lat="34.6705755" lon="33.0308415"><ele>21.2</ele><time>2015-04-30T13:51:35.0000000+00:00</time></trkpt><trkpt lat="34.6705334" lon="33.0308664"><ele>20.9</ele><time>2015-04-30T13:51:37.0000000+00:00</time></trkpt><trkpt lat="34.6705108" lon="33.0309532"><ele>20.6</ele><time>2015-04-30T13:52:34.0000000+00:00</time></trkpt><trkpt lat="34.6705311" lon="33.0310512"><ele>19.8</ele><time>2015-04-30T13:52:36.0000000+00:00</time></trkpt><trkpt lat="34.670554" lon="33.0310999"><ele>19.8</ele><time>2015-04-30T13:52:37.0000000+00:00</time></trkpt><trkpt lat="34.6706026" lon="33.0311807"><ele>20.1</ele><time>2015-04-30T13:52:39.0000000+00:00</time></trkpt><trkpt lat="34.6706451" lon="33.0312668"><ele>20.1</ele><time>2015-04-30T13:52:41.0000000+00:00</time></trkpt><trkpt lat="34.6706841" lon="33.0313452"><ele>21.6</ele><time>2015-04-30T13:52:43.0000000+00:00</time></trkpt><trkpt lat="34.6707246" lon="33.031423"><ele>23.0</ele><time>2015-04-30T13:52:45.0000000+00:00</time></trkpt><trkpt lat="34.6707727" lon="33.0314918"><ele>22.9</ele><time>2015-04-30T13:52:47.0000000+00:00</time></trkpt><trkpt lat="34.6708133" lon="33.0315761"><ele>23.6</ele><time>2015-04-30T13:52:49.0000000+00:00</time></trkpt><trkpt lat="34.6708517" lon="33.0316591"><ele>23.5</ele><time>2015-04-30T13:52:51.0000000+00:00</time></trkpt><trkpt lat="34.6708949" lon="33.0317442"><ele>23.7</ele><time>2015-04-30T13:52:53.0000000+00:00</time></trkpt><trkpt lat="34.6709408" lon="33.0318278"><ele>23.5</ele><time>2015-04-30T13:52:55.0000000+00:00</time></trkpt><trkpt lat="34.6709789" lon="33.031904"><ele>23.7</ele><time>2015-04-30T13:52:56.0000000+00:00</time></trkpt><trkpt lat="34.6710046" lon="33.031954"><ele>24.2</ele><time>2015-04-30T13:52:57.0000000+00:00</time></trkpt><trkpt lat="34.6710306" lon="33.0319995"><ele>24.5</ele><time>2015-04-30T13:52:58.0000000+00:00</time></trkpt><trkpt lat="34.6710608" lon="33.0320401"><ele>24.7</ele><time>2015-04-30T13:52:59.0000000+00:00</time></trkpt><trkpt lat="34.6710914" lon="33.032085"><ele>24.7</ele><time>2015-04-30T13:53:00.0000000+00:00</time></trkpt><trkpt lat="34.6711202" lon="33.0321356"><ele>25.3</ele><time>2015-04-30T13:53:01.0000000+00:00</time></trkpt><trkpt lat="34.6711562" lon="33.0321804"><ele>25.5</ele><time>2015-04-30T13:53:02.0000000+00:00</time></trkpt><trkpt lat="34.6711864" lon="33.0322401"><ele>25.7</ele><time>2015-04-30T13:53:03.0000000+00:00</time></trkpt><trkpt lat="34.6712192" lon="33.0323011"><ele>26.2</ele><time>2015-04-30T13:53:04.0000000+00:00</time></trkpt><trkpt lat="34.6712454" lon="33.0323534"><ele>26.5</ele><time>2015-04-30T13:53:05.0000000+00:00</time></trkpt><trkpt lat="34.6712729" lon="33.0324063"><ele>26.7</ele><time>2015-04-30T13:53:06.0000000+00:00</time></trkpt><trkpt lat="34.6712964" lon="33.0324569"><ele>27.2</ele><time>2015-04-30T13:53:07.0000000+00:00</time></trkpt><trkpt lat="34.6713168" lon="33.0325097"><ele>27.5</ele><time>2015-04-30T13:53:08.0000000+00:00</time></trkpt><trkpt lat="34.6713416" lon="33.0325804"><ele>27.2</ele><time>2015-04-30T13:53:09.0000000+00:00</time></trkpt><trkpt lat="34.6713584" lon="33.0326441"><ele>27.0</ele><time>2015-04-30T13:53:10.0000000+00:00</time></trkpt><trkpt lat="34.6713878" lon="33.0326964"><ele>26.9</ele><time>2015-04-30T13:53:11.0000000+00:00</time></trkpt><trkpt lat="34.6714247" lon="33.03274"><ele>26.9</ele><time>2015-04-30T13:53:12.0000000+00:00</time></trkpt><trkpt lat="34.6714527" lon="33.0327873"><ele>26.3</ele><time>2015-04-30T13:53:13.0000000+00:00</time></trkpt><trkpt lat="34.6714814" lon="33.0328394"><ele>26.1</ele><time>2015-04-30T13:53:14.0000000+00:00</time></trkpt><trkpt lat="34.6715039" lon="33.0328923"><ele>25.9</ele><time>2015-04-30T13:53:15.0000000+00:00</time></trkpt><trkpt lat="34.6715287" lon="33.0329524"><ele>26.4</ele><time>2015-04-30T13:53:16.0000000+00:00</time></trkpt><trkpt lat="34.6715549" lon="33.0330108"><ele>26.1</ele><time>2015-04-30T13:53:17.0000000+00:00</time></trkpt><trkpt lat="34.6715819" lon="33.0330622"><ele>26.0</ele><time>2015-04-30T13:53:18.0000000+00:00</time></trkpt><trkpt lat="34.6716142" lon="33.0331121"><ele>26.4</ele><time>2015-04-30T13:53:19.0000000+00:00</time></trkpt><trkpt lat="34.6716441" lon="33.0331688"><ele>26.1</ele><time>2015-04-30T13:53:20.0000000+00:00</time></trkpt><trkpt lat="34.6716706" lon="33.0332162"><ele>26.5</ele><time>2015-04-30T13:53:21.0000000+00:00</time></trkpt><trkpt lat="34.6716938" lon="33.0332684"><ele>27.1</ele><time>2015-04-30T13:53:22.0000000+00:00</time></trkpt><trkpt lat="34.6717435" lon="33.0333637"><ele>28.4</ele><time>2015-04-30T13:53:24.0000000+00:00</time></trkpt><trkpt lat="34.6717657" lon="33.0334167"><ele>28.1</ele><time>2015-04-30T13:53:25.0000000+00:00</time></trkpt><trkpt lat="34.6717918" lon="33.0334615"><ele>28.5</ele><time>2015-04-30T13:53:26.0000000+00:00</time></trkpt><trkpt lat="34.6718368" lon="33.0335426"><ele>29.2</ele><time>2015-04-30T13:53:28.0000000+00:00</time></trkpt><trkpt lat="34.6718658" lon="33.03361"><ele>29.7</ele><time>2015-04-30T13:53:30.0000000+00:00</time></trkpt><trkpt lat="34.6718894" lon="33.0336646"><ele>29.8</ele><time>2015-04-30T13:53:32.0000000+00:00</time></trkpt><trkpt lat="34.6719183" lon="33.0337161"><ele>30.3</ele><time>2015-04-30T13:53:35.0000000+00:00</time></trkpt><trkpt lat="34.6719347" lon="33.0337674"><ele>30.6</ele><time>2015-04-30T13:53:38.0000000+00:00</time></trkpt><trkpt lat="34.6719578" lon="33.0338687"><ele>31.7</ele><time>2015-04-30T13:53:41.0000000+00:00</time></trkpt><trkpt lat="34.6719738" lon="33.0339254"><ele>31.7</ele><time>2015-04-30T13:53:42.0000000+00:00</time></trkpt><trkpt lat="34.6719944" lon="33.0339892"><ele>31.8</ele><time>2015-04-30T13:53:43.0000000+00:00</time></trkpt><trkpt lat="34.6720016" lon="33.0340432"><ele>31.8</ele><time>2015-04-30T13:53:44.0000000+00:00</time></trkpt><trkpt lat="34.6720035" lon="33.0340992"><ele>31.8</ele><time>2015-04-30T13:53:45.0000000+00:00</time></trkpt><trkpt lat="34.6719957" lon="33.034197"><ele>30.6</ele><time>2015-04-30T13:53:47.0000000+00:00</time></trkpt><trkpt lat="34.6719791" lon="33.0342895"><ele>29.5</ele><time>2015-04-30T13:53:49.0000000+00:00</time></trkpt><trkpt lat="34.6719705" lon="33.0343786"><ele>28.2</ele><time>2015-04-30T13:53:51.0000000+00:00</time></trkpt><trkpt lat="34.671964" lon="33.0344862"><ele>27.2</ele><time>2015-04-30T13:53:53.0000000+00:00</time></trkpt><trkpt lat="34.6719627" lon="33.0345419"><ele>27.0</ele><time>2015-04-30T13:53:54.0000000+00:00</time></trkpt><trkpt lat="34.6719539" lon="33.0345992"><ele>27.4</ele><time>2015-04-30T13:53:55.0000000+00:00</time></trkpt><trkpt lat="34.6719475" lon="33.034654"><ele>27.1</ele><time>2015-04-30T13:53:56.0000000+00:00</time></trkpt><trkpt lat="34.6719453" lon="33.0347118"><ele>27.0</ele><time>2015-04-30T13:53:57.0000000+00:00</time></trkpt><trkpt lat="34.671941" lon="33.0347719"><ele>26.9</ele><time>2015-04-30T13:53:58.0000000+00:00</time></trkpt><trkpt lat="34.6719378" lon="33.0348375"><ele>26.3</ele><time>2015-04-30T13:53:59.0000000+00:00</time></trkpt><trkpt lat="34.6719383" lon="33.0349068"><ele>26.1</ele><time>2015-04-30T13:54:00.0000000+00:00</time></trkpt><trkpt lat="34.6719397" lon="33.0349776"><ele>25.9</ele><time>2015-04-30T13:54:01.0000000+00:00</time></trkpt><trkpt lat="34.6719411" lon="33.0350446"><ele>25.9</ele><time>2015-04-30T13:54:02.0000000+00:00</time></trkpt><trkpt lat="34.6719365" lon="33.0351082"><ele>25.8</ele><time>2015-04-30T13:54:03.0000000+00:00</time></trkpt><trkpt lat="34.671936" lon="33.0351663"><ele>25.3</ele><time>2015-04-30T13:54:04.0000000+00:00</time></trkpt><trkpt lat="34.6719364" lon="33.0352305"><ele>24.6</ele><time>2015-04-30T13:54:05.0000000+00:00</time></trkpt><trkpt lat="34.6719352" lon="33.035289"><ele>24.2</ele><time>2015-04-30T13:54:06.0000000+00:00</time></trkpt><trkpt lat="34.6719361" lon="33.0353551"><ele>24.0</ele><time>2015-04-30T13:54:07.0000000+00:00</time></trkpt><trkpt lat="34.6719389" lon="33.0354118"><ele>23.9</ele><time>2015-04-30T13:54:08.0000000+00:00</time></trkpt><trkpt lat="34.671939" lon="33.0354757"><ele>23.9</ele><time>2015-04-30T13:54:09.0000000+00:00</time></trkpt><trkpt lat="34.6719373" lon="33.0355413"><ele>23.8</ele><time>2015-04-30T13:54:10.0000000+00:00</time></trkpt><trkpt lat="34.6719335" lon="33.0356039"><ele>23.8</ele><time>2015-04-30T13:54:11.0000000+00:00</time></trkpt><trkpt lat="34.6719296" lon="33.0356638"><ele>23.8</ele><time>2015-04-30T13:54:12.0000000+00:00</time></trkpt><trkpt lat="34.6719319" lon="33.0357209"><ele>23.8</ele><time>2015-04-30T13:54:13.0000000+00:00</time></trkpt><trkpt lat="34.6719302" lon="33.0357839"><ele>23.8</ele><time>2015-04-30T13:54:14.0000000+00:00</time></trkpt><trkpt lat="34.6719314" lon="33.0358392"><ele>23.8</ele><time>2015-04-30T13:54:15.0000000+00:00</time></trkpt><trkpt lat="34.6719295" lon="33.0359011"><ele>23.8</ele><time>2015-04-30T13:54:16.0000000+00:00</time></trkpt><trkpt lat="34.6719252" lon="33.0359649"><ele>23.8</ele><time>2015-04-30T13:54:17.0000000+00:00</time></trkpt><trkpt lat="34.6719294" lon="33.0360303"><ele>23.8</ele><time>2015-04-30T13:54:18.0000000+00:00</time></trkpt><trkpt lat="34.6719331" lon="33.0360934"><ele>23.8</ele><time>2015-04-30T13:54:19.0000000+00:00</time></trkpt><trkpt lat="34.6719288" lon="33.0361518"><ele>23.8</ele><time>2015-04-30T13:54:20.0000000+00:00</time></trkpt><trkpt lat="34.6719295" lon="33.0362097"><ele>23.3</ele><time>2015-04-30T13:54:21.0000000+00:00</time></trkpt><trkpt lat="34.671927" lon="33.036272"><ele>22.6</ele><time>2015-04-30T13:54:22.0000000+00:00</time></trkpt><trkpt lat="34.671926" lon="33.0363285"><ele>22.2</ele><time>2015-04-30T13:54:23.0000000+00:00</time></trkpt><trkpt lat="34.6719256" lon="33.0363924"><ele>21.5</ele><time>2015-04-30T13:54:24.0000000+00:00</time></trkpt><trkpt lat="34.6719253" lon="33.0364592"><ele>21.2</ele><time>2015-04-30T13:54:25.0000000+00:00</time></trkpt><trkpt lat="34.671919" lon="33.0365188"><ele>21.0</ele><time>2015-04-30T13:54:26.0000000+00:00</time></trkpt><trkpt lat="34.6719108" lon="33.0365791"><ele>20.9</ele><time>2015-04-30T13:54:27.0000000+00:00</time></trkpt><trkpt lat="34.6719025" lon="33.0366342"><ele>20.9</ele><time>2015-04-30T13:54:28.0000000+00:00</time></trkpt><trkpt lat="34.6718933" lon="33.0367415"><ele>20.1</ele><time>2015-04-30T13:54:30.0000000+00:00</time></trkpt><trkpt lat="34.6718872" lon="33.0367989"><ele>19.9</ele><time>2015-04-30T13:54:31.0000000+00:00</time></trkpt><trkpt lat="34.6718734" lon="33.0369006"><ele>19.1</ele><time>2015-04-30T13:54:33.0000000+00:00</time></trkpt><trkpt lat="34.6718568" lon="33.0369818"><ele>18.4</ele><time>2015-04-30T13:54:35.0000000+00:00</time></trkpt><trkpt lat="34.67185" lon="33.0370756"><ele>18.0</ele><time>2015-04-30T13:54:37.0000000+00:00</time></trkpt><trkpt lat="34.6718424" lon="33.0371683"><ele>16.6</ele><time>2015-04-30T13:54:39.0000000+00:00</time></trkpt><trkpt lat="34.6718346" lon="33.0372475"><ele>16.5</ele><time>2015-04-30T13:54:41.0000000+00:00</time></trkpt><trkpt lat="34.6718383" lon="33.0373268"><ele>16.2</ele><time>2015-04-30T13:54:43.0000000+00:00</time></trkpt><trkpt lat="34.6718406" lon="33.037397"><ele>16.7</ele><time>2015-04-30T13:54:45.0000000+00:00</time></trkpt><trkpt lat="34.6718419" lon="33.037467"><ele>16.3</ele><time>2015-04-30T13:54:47.0000000+00:00</time></trkpt><trkpt lat="34.6718405" lon="33.0375418"><ele>15.2</ele><time>2015-04-30T13:54:49.0000000+00:00</time></trkpt><trkpt lat="34.6718495" lon="33.0376398"><ele>14.4</ele><time>2015-04-30T13:54:51.0000000+00:00</time></trkpt><trkpt lat="34.6718592" lon="33.0377228"><ele>14.7</ele><time>2015-04-30T13:54:53.0000000+00:00</time></trkpt><trkpt lat="34.6718694" lon="33.0377838"><ele>14.0</ele><time>2015-04-30T13:54:55.0000000+00:00</time></trkpt><trkpt lat="34.6718834" lon="33.0378599"><ele>13.6</ele><time>2015-04-30T13:54:57.0000000+00:00</time></trkpt><trkpt lat="34.6718996" lon="33.0379412"><ele>13.8</ele><time>2015-04-30T13:54:59.0000000+00:00</time></trkpt><trkpt lat="34.6719251" lon="33.0380242"><ele>13.8</ele><time>2015-04-30T13:55:01.0000000+00:00</time></trkpt><trkpt lat="34.6719563" lon="33.0381024"><ele>13.8</ele><time>2015-04-30T13:55:03.0000000+00:00</time></trkpt><trkpt lat="34.6719861" lon="33.0381851"><ele>14.3</ele><time>2015-04-30T13:55:05.0000000+00:00</time></trkpt><trkpt lat="34.6720087" lon="33.0382691"><ele>14.2</ele><time>2015-04-30T13:55:07.0000000+00:00</time></trkpt><trkpt lat="34.6720164" lon="33.0383562"><ele>13.9</ele><time>2015-04-30T13:55:09.0000000+00:00</time></trkpt><trkpt lat="34.6720088" lon="33.0384376"><ele>13.8</ele><time>2015-04-30T13:55:11.0000000+00:00</time></trkpt><trkpt lat="34.6719951" lon="33.0385207"><ele>13.8</ele><time>2015-04-30T13:55:13.0000000+00:00</time></trkpt><trkpt lat="34.6719767" lon="33.0386009"><ele>15.1</ele><time>2015-04-30T13:55:15.0000000+00:00</time></trkpt><trkpt lat="34.6719483" lon="33.0386756"><ele>17.1</ele><time>2015-04-30T13:55:17.0000000+00:00</time></trkpt><trkpt lat="34.6719257" lon="33.0387455"><ele>17.6</ele><time>2015-04-30T13:55:19.0000000+00:00</time></trkpt><trkpt lat="34.6719133" lon="33.0388173"><ele>17.3</ele><time>2015-04-30T13:55:21.0000000+00:00</time></trkpt><trkpt lat="34.6719026" lon="33.038887"><ele>15.2</ele><time>2015-04-30T13:55:23.0000000+00:00</time></trkpt><trkpt lat="34.6718836" lon="33.0389616"><ele>14.2</ele><time>2015-04-30T13:55:25.0000000+00:00</time></trkpt><trkpt lat="34.671862" lon="33.0390394"><ele>13.9</ele><time>2015-04-30T13:55:27.0000000+00:00</time></trkpt><trkpt lat="34.6718403" lon="33.0391313"><ele>13.8</ele><time>2015-04-30T13:55:29.0000000+00:00</time></trkpt><trkpt lat="34.6718144" lon="33.0392326"><ele>14.6</ele><time>2015-04-30T13:55:31.0000000+00:00</time></trkpt><trkpt lat="34.6718002" lon="33.0392859"><ele>14.7</ele><time>2015-04-30T13:55:32.0000000+00:00</time></trkpt><trkpt lat="34.6717759" lon="33.0393879"><ele>14.3</ele><time>2015-04-30T13:55:34.0000000+00:00</time></trkpt><trkpt lat="34.6717513" lon="33.0394925"><ele>13.9</ele><time>2015-04-30T13:55:36.0000000+00:00</time></trkpt><trkpt lat="34.6717401" lon="33.0395457"><ele>13.4</ele><time>2015-04-30T13:55:37.0000000+00:00</time></trkpt><trkpt lat="34.671714" lon="33.0396478"><ele>13.7</ele><time>2015-04-30T13:55:39.0000000+00:00</time></trkpt><trkpt lat="34.6716826" lon="33.0397467"><ele>13.3</ele><time>2015-04-30T13:55:41.0000000+00:00</time></trkpt><trkpt lat="34.6716654" lon="33.0398431"><ele>12.4</ele><time>2015-04-30T13:55:43.0000000+00:00</time></trkpt><trkpt lat="34.6716484" lon="33.0399388"><ele>11.5</ele><time>2015-04-30T13:55:45.0000000+00:00</time></trkpt><trkpt lat="34.6716234" lon="33.0400274"><ele>10.7</ele><time>2015-04-30T13:55:47.0000000+00:00</time></trkpt><trkpt lat="34.6715992" lon="33.0401227"><ele>10.3</ele><time>2015-04-30T13:55:49.0000000+00:00</time></trkpt><trkpt lat="34.6715788" lon="33.0402146"><ele>10.4</ele><time>2015-04-30T13:55:51.0000000+00:00</time></trkpt><trkpt lat="34.6715599" lon="33.0403012"><ele>10.7</ele><time>2015-04-30T13:55:53.0000000+00:00</time></trkpt><trkpt lat="34.6715475" lon="33.0403726"><ele>10.8</ele><time>2015-04-30T13:55:55.0000000+00:00</time></trkpt><trkpt lat="34.6715364" lon="33.0404382"><ele>11.6</ele><time>2015-04-30T13:55:58.0000000+00:00</time></trkpt><trkpt lat="34.6715215" lon="33.0404903"><ele>12.5</ele><time>2015-04-30T13:56:01.0000000+00:00</time></trkpt><trkpt lat="34.6715204" lon="33.0405567"><ele>14.5</ele><time>2015-04-30T13:56:05.0000000+00:00</time></trkpt><trkpt lat="34.6715378" lon="33.0406273"><ele>15.6</ele><time>2015-04-30T13:56:08.0000000+00:00</time></trkpt><trkpt lat="34.6715724" lon="33.0406927"><ele>14.9</ele><time>2015-04-30T13:56:11.0000000+00:00</time></trkpt><trkpt lat="34.6716007" lon="33.0407388"><ele>14.8</ele><time>2015-04-30T13:56:13.0000000+00:00</time></trkpt><trkpt lat="34.6716297" lon="33.0407892"><ele>14.1</ele><time>2015-04-30T13:56:15.0000000+00:00</time></trkpt><trkpt lat="34.6716535" lon="33.0408473"><ele>14.4</ele><time>2015-04-30T13:56:17.0000000+00:00</time></trkpt><trkpt lat="34.671672" lon="33.0409071"><ele>14.7</ele><time>2015-04-30T13:56:19.0000000+00:00</time></trkpt><trkpt lat="34.6716915" lon="33.0409683"><ele>14.8</ele><time>2015-04-30T13:56:21.0000000+00:00</time></trkpt><trkpt lat="34.6717135" lon="33.0410245"><ele>14.1</ele><time>2015-04-30T13:56:23.0000000+00:00</time></trkpt><trkpt lat="34.6717369" lon="33.0410818"><ele>13.9</ele><time>2015-04-30T13:56:25.0000000+00:00</time></trkpt><trkpt lat="34.6717474" lon="33.0411408"><ele>13.3</ele><time>2015-04-30T13:56:27.0000000+00:00</time></trkpt><trkpt lat="34.6717548" lon="33.0412"><ele>13.4</ele><time>2015-04-30T13:56:29.0000000+00:00</time></trkpt><trkpt lat="34.6717695" lon="33.0412764"><ele>15.1</ele><time>2015-04-30T13:56:32.0000000+00:00</time></trkpt><trkpt lat="34.6717762" lon="33.0413381"><ele>16.5</ele><time>2015-04-30T13:56:35.0000000+00:00</time></trkpt><trkpt lat="34.6717855" lon="33.0413972"><ele>17.5</ele><time>2015-04-30T13:56:38.0000000+00:00</time></trkpt><trkpt lat="34.6717987" lon="33.0414558"><ele>15.6</ele><time>2015-04-30T13:56:41.0000000+00:00</time></trkpt><trkpt lat="34.671822" lon="33.0415093"><ele>11.5</ele><time>2015-04-30T13:56:44.0000000+00:00</time></trkpt><trkpt lat="34.6718196" lon="33.0415763"><ele>11.0</ele><time>2015-04-30T13:56:47.0000000+00:00</time></trkpt><trkpt lat="34.6718197" lon="33.0416535"><ele>9.2</ele><time>2015-04-30T13:56:50.0000000+00:00</time></trkpt><trkpt lat="34.6718151" lon="33.0417105"><ele>8.7</ele><time>2015-04-30T13:56:52.0000000+00:00</time></trkpt><trkpt lat="34.6718116" lon="33.0417704"><ele>8.0</ele><time>2015-04-30T13:56:54.0000000+00:00</time></trkpt><trkpt lat="34.6718087" lon="33.0418298"><ele>8.4</ele><time>2015-04-30T13:56:56.0000000+00:00</time></trkpt><trkpt lat="34.6717987" lon="33.0418884"><ele>8.4</ele><time>2015-04-30T13:56:58.0000000+00:00</time></trkpt><trkpt lat="34.6717952" lon="33.0419462"><ele>9.0</ele><time>2015-04-30T13:57:00.0000000+00:00</time></trkpt><trkpt lat="34.6717757" lon="33.0420219"><ele>10.1</ele><time>2015-04-30T13:57:03.0000000+00:00</time></trkpt><trkpt lat="34.6717469" lon="33.042083"><ele>9.8</ele><time>2015-04-30T13:57:06.0000000+00:00</time></trkpt><trkpt lat="34.6717011" lon="33.0420988"><ele>14.8</ele><time>2015-04-30T13:57:41.0000000+00:00</time></trkpt><trkpt lat="34.6717268" lon="33.0421604"><ele>15.1</ele><time>2015-04-30T13:57:46.0000000+00:00</time></trkpt><trkpt lat="34.6717532" lon="33.0422138"><ele>16.7</ele><time>2015-04-30T13:57:51.0000000+00:00</time></trkpt><trkpt lat="34.671792" lon="33.0422455"><ele>20.5</ele><time>2015-04-30T13:58:06.0000000+00:00</time></trkpt><trkpt lat="34.6718411" lon="33.0422401"><ele>23.3</ele><time>2015-04-30T13:58:12.0000000+00:00</time></trkpt><trkpt lat="34.6718868" lon="33.0422445"><ele>26.4</ele><time>2015-04-30T13:58:17.0000000+00:00</time></trkpt><trkpt lat="34.6719315" lon="33.0422263"><ele>27.1</ele><time>2015-04-30T13:58:22.0000000+00:00</time></trkpt><trkpt lat="34.671984" lon="33.0422099"><ele>27.2</ele><time>2015-04-30T13:58:32.0000000+00:00</time></trkpt><trkpt lat="34.6720465" lon="33.0421969"><ele>24.4</ele><time>2015-04-30T13:58:35.0000000+00:00</time></trkpt><trkpt lat="34.6721176" lon="33.0422004"><ele>23.4</ele><time>2015-04-30T13:58:37.0000000+00:00</time></trkpt><trkpt lat="34.6721793" lon="33.0421971"><ele>23.5</ele><time>2015-04-30T13:58:39.0000000+00:00</time></trkpt><trkpt lat="34.6722422" lon="33.0421839"><ele>23.0</ele><time>2015-04-30T13:58:41.0000000+00:00</time></trkpt><trkpt lat="34.6723013" lon="33.0421697"><ele>21.6</ele><time>2015-04-30T13:58:43.0000000+00:00</time></trkpt><trkpt lat="34.6723556" lon="33.0421713"><ele>20.5</ele><time>2015-04-30T13:58:45.0000000+00:00</time></trkpt><trkpt lat="34.6724074" lon="33.0421989"><ele>19.5</ele><time>2015-04-30T13:58:47.0000000+00:00</time></trkpt><trkpt lat="34.6724582" lon="33.0422283"><ele>18.7</ele><time>2015-04-30T13:58:49.0000000+00:00</time></trkpt><trkpt lat="34.6725016" lon="33.04225"><ele>17.3</ele><time>2015-04-30T13:58:52.0000000+00:00</time></trkpt><trkpt lat="34.6725483" lon="33.0422472"><ele>16.9</ele><time>2015-04-30T13:58:55.0000000+00:00</time></trkpt><trkpt lat="34.6725982" lon="33.0422368"><ele>17.7</ele><time>2015-04-30T13:58:58.0000000+00:00</time></trkpt><trkpt lat="34.6726431" lon="33.0422317"><ele>18.5</ele><time>2015-04-30T13:59:01.0000000+00:00</time></trkpt><trkpt lat="34.6726961" lon="33.0422069"><ele>19.4</ele><time>2015-04-30T13:59:05.0000000+00:00</time></trkpt><trkpt lat="34.6727478" lon="33.042194"><ele>20.7</ele><time>2015-04-30T13:59:09.0000000+00:00</time></trkpt><trkpt lat="34.6727958" lon="33.0421723"><ele>21.2</ele><time>2015-04-30T13:59:13.0000000+00:00</time></trkpt><trkpt lat="34.6728407" lon="33.0421657"><ele>20.6</ele><time>2015-04-30T13:59:16.0000000+00:00</time></trkpt><trkpt lat="34.6728897" lon="33.0421504"><ele>20.0</ele><time>2015-04-30T13:59:19.0000000+00:00</time></trkpt><trkpt lat="34.6729397" lon="33.0421547"><ele>18.6</ele><time>2015-04-30T13:59:22.0000000+00:00</time></trkpt><trkpt lat="34.6729967" lon="33.0421374"><ele>17.9</ele><time>2015-04-30T13:59:26.0000000+00:00</time></trkpt><trkpt lat="34.6730485" lon="33.0421104"><ele>18.6</ele><time>2015-04-30T13:59:30.0000000+00:00</time></trkpt><trkpt lat="34.6730934" lon="33.0420872"><ele>18.8</ele><time>2015-04-30T13:59:33.0000000+00:00</time></trkpt><trkpt lat="34.6731349" lon="33.0420575"><ele>20.7</ele><time>2015-04-30T13:59:38.0000000+00:00</time></trkpt><trkpt lat="34.6731803" lon="33.0420486"><ele>18.8</ele><time>2015-04-30T13:59:50.0000000+00:00</time></trkpt><trkpt lat="34.6732254" lon="33.0420747"><ele>17.0</ele><time>2015-04-30T13:59:56.0000000+00:00</time></trkpt><trkpt lat="34.6732629" lon="33.0421236"><ele>18.5</ele><time>2015-04-30T13:59:59.0000000+00:00</time></trkpt><trkpt lat="34.6732967" lon="33.0421707"><ele>18.1</ele><time>2015-04-30T14:00:02.0000000+00:00</time></trkpt><trkpt lat="34.6733131" lon="33.0422436"><ele>15.5</ele><time>2015-04-30T14:00:06.0000000+00:00</time></trkpt><trkpt lat="34.6733374" lon="33.0422982"><ele>13.2</ele><time>2015-04-30T14:00:08.0000000+00:00</time></trkpt><trkpt lat="34.6733687" lon="33.0423673"><ele>13.6</ele><time>2015-04-30T14:00:11.0000000+00:00</time></trkpt><trkpt lat="34.6733859" lon="33.0424276"><ele>15.4</ele><time>2015-04-30T14:00:14.0000000+00:00</time></trkpt><trkpt lat="34.6733904" lon="33.0424988"><ele>15.9</ele><time>2015-04-30T14:00:17.0000000+00:00</time></trkpt><trkpt lat="34.673409" lon="33.0425488"><ele>16.6</ele><time>2015-04-30T14:00:19.0000000+00:00</time></trkpt><trkpt lat="34.673436" lon="33.0426183"><ele>19.7</ele><time>2015-04-30T14:00:22.0000000+00:00</time></trkpt><trkpt lat="34.6734572" lon="33.0426861"><ele>19.4</ele><time>2015-04-30T14:00:25.0000000+00:00</time></trkpt><trkpt lat="34.6734709" lon="33.0427541"><ele>18.6</ele><time>2015-04-30T14:00:28.0000000+00:00</time></trkpt><trkpt lat="34.6734917" lon="33.0428071"><ele>15.8</ele><time>2015-04-30T14:00:33.0000000+00:00</time></trkpt><trkpt lat="34.6735074" lon="33.0428609"><ele>13.9</ele><time>2015-04-30T14:00:38.0000000+00:00</time></trkpt><trkpt lat="34.6735082" lon="33.0429201"><ele>10.9</ele><time>2015-04-30T14:00:41.0000000+00:00</time></trkpt><trkpt lat="34.6735395" lon="33.0429953"><ele>10.6</ele><time>2015-04-30T14:00:44.0000000+00:00</time></trkpt><trkpt lat="34.6735651" lon="33.0430486"><ele>11.5</ele><time>2015-04-30T14:00:46.0000000+00:00</time></trkpt><trkpt lat="34.6735855" lon="33.0431269"><ele>13.3</ele><time>2015-04-30T14:00:49.0000000+00:00</time></trkpt><trkpt lat="34.6736098" lon="33.043181"><ele>14.2</ele><time>2015-04-30T14:00:51.0000000+00:00</time></trkpt><trkpt lat="34.6736402" lon="33.0432381"><ele>14.9</ele><time>2015-04-30T14:00:53.0000000+00:00</time></trkpt><trkpt lat="34.6736744" lon="33.0432916"><ele>15.3</ele><time>2015-04-30T14:00:55.0000000+00:00</time></trkpt><trkpt lat="34.6737079" lon="33.0433541"><ele>17.2</ele><time>2015-04-30T14:00:57.0000000+00:00</time></trkpt><trkpt lat="34.6737482" lon="33.0434172"><ele>19.6</ele><time>2015-04-30T14:01:00.0000000+00:00</time></trkpt><trkpt lat="34.6737739" lon="33.0434835"><ele>21.2</ele><time>2015-04-30T14:01:03.0000000+00:00</time></trkpt><trkpt lat="34.6737949" lon="33.0435502"><ele>20.1</ele><time>2015-04-30T14:01:06.0000000+00:00</time></trkpt><trkpt lat="34.6738103" lon="33.0436049"><ele>18.8</ele><time>2015-04-30T14:01:09.0000000+00:00</time></trkpt><trkpt lat="34.6738073" lon="33.043669"><ele>25.4</ele><time>2015-04-30T14:01:20.0000000+00:00</time></trkpt><trkpt lat="34.6737871" lon="33.0437351"><ele>25.4</ele><time>2015-04-30T14:01:23.0000000+00:00</time></trkpt><trkpt lat="34.6738052" lon="33.0438057"><ele>25.6</ele><time>2015-04-30T14:01:27.0000000+00:00</time></trkpt><trkpt lat="34.6738435" lon="33.0438498"><ele>27.3</ele><time>2015-04-30T14:01:29.0000000+00:00</time></trkpt><trkpt lat="34.6738843" lon="33.043896"><ele>27.9</ele><time>2015-04-30T14:01:31.0000000+00:00</time></trkpt><trkpt lat="34.67391" lon="33.0439551"><ele>26.9</ele><time>2015-04-30T14:01:34.0000000+00:00</time></trkpt><trkpt lat="34.6739095" lon="33.0440118"><ele>29.9</ele><time>2015-04-30T14:01:38.0000000+00:00</time></trkpt><trkpt lat="34.6739139" lon="33.0440666"><ele>29.3</ele><time>2015-04-30T14:01:42.0000000+00:00</time></trkpt><trkpt lat="34.673957" lon="33.0440943"><ele>27.2</ele><time>2015-04-30T14:01:46.0000000+00:00</time></trkpt><trkpt lat="34.6740002" lon="33.0441305"><ele>23.4</ele><time>2015-04-30T14:01:50.0000000+00:00</time></trkpt><trkpt lat="34.6740091" lon="33.0441852"><ele>25.1</ele><time>2015-04-30T14:02:00.0000000+00:00</time></trkpt><trkpt lat="34.6740276" lon="33.0443054"><ele>28.4</ele><time>2015-04-30T14:03:15.0000000+00:00</time></trkpt><trkpt lat="34.6740326" lon="33.0443775"><ele>31.9</ele><time>2015-04-30T14:03:18.0000000+00:00</time></trkpt><trkpt lat="34.6740493" lon="33.0444475"><ele>34.8</ele><time>2015-04-30T14:03:20.0000000+00:00</time></trkpt><trkpt lat="34.6740816" lon="33.0445169"><ele>37.8</ele><time>2015-04-30T14:03:22.0000000+00:00</time></trkpt><trkpt lat="34.6741068" lon="33.0445839"><ele>41.3</ele><time>2015-04-30T14:03:24.0000000+00:00</time></trkpt><trkpt lat="34.6741238" lon="33.0446461"><ele>45.2</ele><time>2015-04-30T14:03:26.0000000+00:00</time></trkpt><trkpt lat="34.6741301" lon="33.044712"><ele>48.0</ele><time>2015-04-30T14:03:29.0000000+00:00</time></trkpt><trkpt lat="34.6741407" lon="33.0447676"><ele>50.1</ele><time>2015-04-30T14:03:32.0000000+00:00</time></trkpt><trkpt lat="34.6741848" lon="33.044806"><ele>46.9</ele><time>2015-04-30T14:03:38.0000000+00:00</time></trkpt><trkpt lat="34.674187" lon="33.044862"><ele>45.8</ele><time>2015-04-30T14:03:40.0000000+00:00</time></trkpt><trkpt lat="34.6742132" lon="33.0449319"><ele>45.1</ele><time>2015-04-30T14:03:42.0000000+00:00</time></trkpt><trkpt lat="34.6742338" lon="33.0450024"><ele>44.1</ele><time>2015-04-30T14:03:44.0000000+00:00</time></trkpt><trkpt lat="34.674253" lon="33.0450612"><ele>43.9</ele><time>2015-04-30T14:03:46.0000000+00:00</time></trkpt><trkpt lat="34.6742769" lon="33.04511"><ele>42.1</ele><time>2015-04-30T14:03:48.0000000+00:00</time></trkpt><trkpt lat="34.6743162" lon="33.0451367"><ele>32.3</ele><time>2015-04-30T14:11:00.0000000+00:00</time></trkpt><trkpt lat="34.6743027" lon="33.0450734"><ele>29.0</ele><time>2015-04-30T14:25:51.0000000+00:00</time></trkpt><trkpt lat="34.6742771" lon="33.0450205"><ele>27.9</ele><time>2015-04-30T14:25:53.0000000+00:00</time></trkpt><trkpt lat="34.6742394" lon="33.0449744"><ele>31.2</ele><time>2015-04-30T14:25:56.0000000+00:00</time></trkpt><trkpt lat="34.6742138" lon="33.0449056"><ele>31.2</ele><time>2015-04-30T14:26:00.0000000+00:00</time></trkpt><trkpt lat="34.6741746" lon="33.0448628"><ele>27.7</ele><time>2015-04-30T14:26:02.0000000+00:00</time></trkpt><trkpt lat="34.6741481" lon="33.0448151"><ele>26.0</ele><time>2015-04-30T14:26:04.0000000+00:00</time></trkpt><trkpt lat="34.6741381" lon="33.0447533"><ele>25.5</ele><time>2015-04-30T14:26:07.0000000+00:00</time></trkpt><trkpt lat="34.6741309" lon="33.0446852"><ele>24.3</ele><time>2015-04-30T14:26:12.0000000+00:00</time></trkpt><trkpt lat="34.6740998" lon="33.0446188"><ele>21.8</ele><time>2015-04-30T14:26:16.0000000+00:00</time></trkpt><trkpt lat="34.6740718" lon="33.044558"><ele>20.6</ele><time>2015-04-30T14:26:18.0000000+00:00</time></trkpt><trkpt lat="34.6740482" lon="33.0444966"><ele>18.0</ele><time>2015-04-30T14:26:20.0000000+00:00</time></trkpt><trkpt lat="34.6740332" lon="33.0444319"><ele>16.4</ele><time>2015-04-30T14:26:22.0000000+00:00</time></trkpt><trkpt lat="34.6740353" lon="33.0443697"><ele>13.9</ele><time>2015-04-30T14:26:24.0000000+00:00</time></trkpt><trkpt lat="34.6740313" lon="33.0443124"><ele>14.1</ele><time>2015-04-30T14:26:26.0000000+00:00</time></trkpt><trkpt lat="34.6740117" lon="33.0442623"><ele>15.4</ele><time>2015-04-30T14:26:28.0000000+00:00</time></trkpt><trkpt lat="34.6739761" lon="33.0442147"><ele>17.0</ele><time>2015-04-30T14:26:30.0000000+00:00</time></trkpt><trkpt lat="34.6739252" lon="33.0441674"><ele>18.3</ele><time>2015-04-30T14:26:32.0000000+00:00</time></trkpt><trkpt lat="34.6738643" lon="33.0441293"><ele>18.7</ele><time>2015-04-30T14:26:34.0000000+00:00</time></trkpt><trkpt lat="34.6738146" lon="33.044094"><ele>18.8</ele><time>2015-04-30T14:26:36.0000000+00:00</time></trkpt><trkpt lat="34.6737655" lon="33.0440482"><ele>19.2</ele><time>2015-04-30T14:26:39.0000000+00:00</time></trkpt><trkpt lat="34.6737201" lon="33.044031"><ele>20.1</ele><time>2015-04-30T14:26:42.0000000+00:00</time></trkpt><trkpt lat="34.673671" lon="33.0440041"><ele>19.3</ele><time>2015-04-30T14:26:46.0000000+00:00</time></trkpt><trkpt lat="34.6736195" lon="33.0439744"><ele>18.9</ele><time>2015-04-30T14:26:50.0000000+00:00</time></trkpt><trkpt lat="34.6735732" lon="33.0439604"><ele>17.2</ele><time>2015-04-30T14:26:57.0000000+00:00</time></trkpt><trkpt lat="34.6735122" lon="33.0439738"><ele>16.9</ele><time>2015-04-30T14:27:01.0000000+00:00</time></trkpt><trkpt lat="34.6734653" lon="33.0439846"><ele>16.1</ele><time>2015-04-30T14:27:03.0000000+00:00</time></trkpt><trkpt lat="34.6734152" lon="33.0439798"><ele>15.6</ele><time>2015-04-30T14:27:05.0000000+00:00</time></trkpt><trkpt lat="34.673363" lon="33.0439898"><ele>15.3</ele><time>2015-04-30T14:27:07.0000000+00:00</time></trkpt><trkpt lat="34.6733151" lon="33.0440353"><ele>14.2</ele><time>2015-04-30T14:27:09.0000000+00:00</time></trkpt><trkpt lat="34.6732652" lon="33.0440314"><ele>13.0</ele><time>2015-04-30T14:27:13.0000000+00:00</time></trkpt><trkpt lat="34.673223" lon="33.0439998"><ele>12.2</ele><time>2015-04-30T14:27:17.0000000+00:00</time></trkpt><trkpt lat="34.6731666" lon="33.0440124"><ele>14.1</ele><time>2015-04-30T14:27:28.0000000+00:00</time></trkpt><trkpt lat="34.6731282" lon="33.0440426"><ele>13.6</ele><time>2015-04-30T14:27:30.0000000+00:00</time></trkpt><trkpt lat="34.6730706" lon="33.0440652"><ele>15.8</ele><time>2015-04-30T14:27:32.0000000+00:00</time></trkpt><trkpt lat="34.672991" lon="33.0440916"><ele>17.0</ele><time>2015-04-30T14:27:34.0000000+00:00</time></trkpt><trkpt lat="34.6729226" lon="33.0441318"><ele>17.1</ele><time>2015-04-30T14:27:36.0000000+00:00</time></trkpt><trkpt lat="34.6728625" lon="33.0441772"><ele>16.4</ele><time>2015-04-30T14:27:38.0000000+00:00</time></trkpt><trkpt lat="34.6728166" lon="33.0442152"><ele>15.5</ele><time>2015-04-30T14:27:41.0000000+00:00</time></trkpt><trkpt lat="34.6727503" lon="33.0442001"><ele>17.5</ele><time>2015-04-30T14:27:49.0000000+00:00</time></trkpt><trkpt lat="34.6726966" lon="33.0441636"><ele>16.1</ele><time>2015-04-30T14:27:52.0000000+00:00</time></trkpt><trkpt lat="34.6726592" lon="33.0441061"><ele>16.7</ele><time>2015-04-30T14:27:56.0000000+00:00</time></trkpt><trkpt lat="34.6726225" lon="33.0440435"><ele>16.0</ele><time>2015-04-30T14:27:58.0000000+00:00</time></trkpt><trkpt lat="34.6725839" lon="33.0439838"><ele>15.9</ele><time>2015-04-30T14:28:00.0000000+00:00</time></trkpt><trkpt lat="34.6725456" lon="33.0439337"><ele>15.3</ele><time>2015-04-30T14:28:02.0000000+00:00</time></trkpt><trkpt lat="34.6725113" lon="33.0438936"><ele>14.4</ele><time>2015-04-30T14:28:04.0000000+00:00</time></trkpt><trkpt lat="34.6724822" lon="33.0438468"><ele>13.5</ele><time>2015-04-30T14:28:06.0000000+00:00</time></trkpt><trkpt lat="34.6724573" lon="33.0437941"><ele>13.0</ele><time>2015-04-30T14:28:08.0000000+00:00</time></trkpt><trkpt lat="34.6724389" lon="33.0437383"><ele>13.6</ele><time>2015-04-30T14:28:10.0000000+00:00</time></trkpt><trkpt lat="34.6724232" lon="33.0436682"><ele>10.8</ele><time>2015-04-30T14:28:13.0000000+00:00</time></trkpt><trkpt lat="34.6723882" lon="33.0435975"><ele>9.9</ele><time>2015-04-30T14:28:16.0000000+00:00</time></trkpt><trkpt lat="34.6723498" lon="33.043554"><ele>9.8</ele><time>2015-04-30T14:28:18.0000000+00:00</time></trkpt><trkpt lat="34.6723128" lon="33.0435032"><ele>10.3</ele><time>2015-04-30T14:28:20.0000000+00:00</time></trkpt><trkpt lat="34.6722799" lon="33.0434567"><ele>9.9</ele><time>2015-04-30T14:28:22.0000000+00:00</time></trkpt><trkpt lat="34.672256" lon="33.0433959"><ele>10.6</ele><time>2015-04-30T14:28:25.0000000+00:00</time></trkpt><trkpt lat="34.672225" lon="33.0433347"><ele>11.2</ele><time>2015-04-30T14:28:28.0000000+00:00</time></trkpt><trkpt lat="34.672204" lon="33.0432702"><ele>12.2</ele><time>2015-04-30T14:28:31.0000000+00:00</time></trkpt><trkpt lat="34.6721829" lon="33.043215"><ele>13.6</ele><time>2015-04-30T14:28:34.0000000+00:00</time></trkpt><trkpt lat="34.6721511" lon="33.0431744"><ele>12.5</ele><time>2015-04-30T14:28:37.0000000+00:00</time></trkpt><trkpt lat="34.672137" lon="33.0431209"><ele>11.1</ele><time>2015-04-30T14:28:40.0000000+00:00</time></trkpt><trkpt lat="34.6721211" lon="33.0430672"><ele>9.6</ele><time>2015-04-30T14:28:46.0000000+00:00</time></trkpt><trkpt lat="34.6720944" lon="33.043011"><ele>8.0</ele><time>2015-04-30T14:28:49.0000000+00:00</time></trkpt><trkpt lat="34.6720486" lon="33.0429495"><ele>6.5</ele><time>2015-04-30T14:28:52.0000000+00:00</time></trkpt><trkpt lat="34.6720113" lon="33.0429047"><ele>7.2</ele><time>2015-04-30T14:28:54.0000000+00:00</time></trkpt><trkpt lat="34.671992" lon="33.0428495"><ele>7.9</ele><time>2015-04-30T14:28:56.0000000+00:00</time></trkpt><trkpt lat="34.6719942" lon="33.0427795"><ele>9.7</ele><time>2015-04-30T14:28:59.0000000+00:00</time></trkpt><trkpt lat="34.6719401" lon="33.0427911"><ele>12.4</ele><time>2015-04-30T14:29:06.0000000+00:00</time></trkpt><trkpt lat="34.6718915" lon="33.042738"><ele>11.7</ele><time>2015-04-30T14:29:08.0000000+00:00</time></trkpt><trkpt lat="34.6718542" lon="33.0426772"><ele>11.3</ele><time>2015-04-30T14:29:10.0000000+00:00</time></trkpt><trkpt lat="34.6718174" lon="33.0426191"><ele>10.9</ele><time>2015-04-30T14:29:12.0000000+00:00</time></trkpt><trkpt lat="34.6717852" lon="33.0425681"><ele>11.3</ele><time>2015-04-30T14:29:14.0000000+00:00</time></trkpt><trkpt lat="34.6717535" lon="33.0424983"><ele>13.5</ele><time>2015-04-30T14:29:17.0000000+00:00</time></trkpt><trkpt lat="34.6717456" lon="33.0424288"><ele>13.0</ele><time>2015-04-30T14:29:20.0000000+00:00</time></trkpt><trkpt lat="34.6717916" lon="33.0424099"><ele>12.8</ele><time>2015-04-30T14:29:28.0000000+00:00</time></trkpt><trkpt lat="34.6718005" lon="33.0423553"><ele>21.3</ele><time>2015-04-30T14:29:38.0000000+00:00</time></trkpt><trkpt lat="34.6717551" lon="33.0423434"><ele>23.6</ele><time>2015-04-30T14:30:04.0000000+00:00</time></trkpt><trkpt lat="34.6717098" lon="33.042315"><ele>24.8</ele><time>2015-04-30T14:30:09.0000000+00:00</time></trkpt><trkpt lat="34.6716797" lon="33.0422688"><ele>18.5</ele><time>2015-04-30T14:30:27.0000000+00:00</time></trkpt><trkpt lat="34.6716322" lon="33.0422514"><ele>18.6</ele><time>2015-04-30T14:30:35.0000000+00:00</time></trkpt><trkpt lat="34.6715793" lon="33.0422437"><ele>19.7</ele><time>2015-04-30T14:30:40.0000000+00:00</time></trkpt></trkseg><trkseg><trkpt lat="34.916645" lon="33.6365753"><ele>40.0</ele><time>2015-05-01T08:02:53.0000000+00:00</time></trkpt><trkpt lat="34.9165958" lon="33.6365606"><ele>33.5</ele><time>2015-05-01T08:02:56.0000000+00:00</time></trkpt><trkpt lat="34.9165877" lon="33.6364599"><ele>23.3</ele><time>2015-05-01T08:02:57.0000000+00:00</time></trkpt><trkpt lat="34.9166064" lon="33.6365253"><ele>19.1</ele><time>2015-05-01T08:02:58.0000000+00:00</time></trkpt><trkpt lat="34.91656" lon="33.6365582"><ele>19.6</ele><time>2015-05-01T08:03:03.0000000+00:00</time></trkpt><trkpt lat="34.9165594" lon="33.6366217"><ele>21.4</ele><time>2015-05-01T08:03:05.0000000+00:00</time></trkpt><trkpt lat="34.9165746" lon="33.6366964"><ele>19.6</ele><time>2015-05-01T08:03:07.0000000+00:00</time></trkpt><trkpt lat="34.9165804" lon="33.6367602"><ele>19.3</ele><time>2015-05-01T08:03:08.0000000+00:00</time></trkpt><trkpt lat="34.9165806" lon="33.6368701"><ele>17.8</ele><time>2015-05-01T08:03:10.0000000+00:00</time></trkpt><trkpt lat="34.9165768" lon="33.6369822"><ele>16.0</ele><time>2015-05-01T08:03:12.0000000+00:00</time></trkpt><trkpt lat="34.9165715" lon="33.637107"><ele>14.5</ele><time>2015-05-01T08:03:14.0000000+00:00</time></trkpt><trkpt lat="34.9165699" lon="33.637163"><ele>14.3</ele><time>2015-05-01T08:03:15.0000000+00:00</time></trkpt><trkpt lat="34.9165634" lon="33.6372225"><ele>14.1</ele><time>2015-05-01T08:03:16.0000000+00:00</time></trkpt><trkpt lat="34.9165374" lon="33.6373195"><ele>14.1</ele><time>2015-05-01T08:03:18.0000000+00:00</time></trkpt><trkpt lat="34.916486" lon="33.6373497"><ele>13.3</ele><time>2015-05-01T08:03:20.0000000+00:00</time></trkpt><trkpt lat="34.9164727" lon="33.6374332"><ele>13.1</ele><time>2015-05-01T08:03:23.0000000+00:00</time></trkpt><trkpt lat="34.9164697" lon="33.6375109"><ele>12.3</ele><time>2015-05-01T08:03:25.0000000+00:00</time></trkpt><trkpt lat="34.9164689" lon="33.637605"><ele>11.3</ele><time>2015-05-01T08:03:27.0000000+00:00</time></trkpt><trkpt lat="34.9164644" lon="33.6376993"><ele>11.1</ele><time>2015-05-01T08:03:29.0000000+00:00</time></trkpt><trkpt lat="34.9164593" lon="33.6377846"><ele>9.8</ele><time>2015-05-01T08:03:31.0000000+00:00</time></trkpt><trkpt lat="34.9164755" lon="33.637851"><ele>10.0</ele><time>2015-05-01T08:03:33.0000000+00:00</time></trkpt><trkpt lat="34.9165024" lon="33.6379178"><ele>10.0</ele><time>2015-05-01T08:03:35.0000000+00:00</time></trkpt><trkpt lat="34.9165152" lon="33.6379886"><ele>10.8</ele><time>2015-05-01T08:03:37.0000000+00:00</time></trkpt><trkpt lat="34.9164901" lon="33.6380434"><ele>11.0</ele><time>2015-05-01T08:03:40.0000000+00:00</time></trkpt><trkpt lat="34.9164302" lon="33.6380372"><ele>11.0</ele><time>2015-05-01T08:03:44.0000000+00:00</time></trkpt><trkpt lat="34.9163736" lon="33.6380336"><ele>11.9</ele><time>2015-05-01T08:03:47.0000000+00:00</time></trkpt><trkpt lat="34.9163279" lon="33.6380228"><ele>12.5</ele><time>2015-05-01T08:03:49.0000000+00:00</time></trkpt><trkpt lat="34.9162654" lon="33.6380167"><ele>13.0</ele><time>2015-05-01T08:03:52.0000000+00:00</time></trkpt><trkpt lat="34.9162106" lon="33.6380204"><ele>13.1</ele><time>2015-05-01T08:03:55.0000000+00:00</time></trkpt><trkpt lat="34.9161611" lon="33.6380157"><ele>13.4</ele><time>2015-05-01T08:03:58.0000000+00:00</time></trkpt><trkpt lat="34.9161151" lon="33.6380067"><ele>13.1</ele><time>2015-05-01T08:04:01.0000000+00:00</time></trkpt><trkpt lat="34.9160532" lon="33.6380058"><ele>14.3</ele><time>2015-05-01T08:04:04.0000000+00:00</time></trkpt><trkpt lat="34.9159947" lon="33.6379925"><ele>14.3</ele><time>2015-05-01T08:04:07.0000000+00:00</time></trkpt><trkpt lat="34.9159476" lon="33.6379861"><ele>14.1</ele><time>2015-05-01T08:04:09.0000000+00:00</time></trkpt><trkpt lat="34.9158919" lon="33.6379879"><ele>14.0</ele><time>2015-05-01T08:04:11.0000000+00:00</time></trkpt><trkpt lat="34.9158345" lon="33.6379935"><ele>14.5</ele><time>2015-05-01T08:04:13.0000000+00:00</time></trkpt><trkpt lat="34.9157603" lon="33.6379822"><ele>14.9</ele><time>2015-05-01T08:04:15.0000000+00:00</time></trkpt><trkpt lat="34.9156795" lon="33.6379855"><ele>15.5</ele><time>2015-05-01T08:04:17.0000000+00:00</time></trkpt><trkpt lat="34.9156204" lon="33.6379949"><ele>15.4</ele><time>2015-05-01T08:04:19.0000000+00:00</time></trkpt><trkpt lat="34.9155662" lon="33.6379925"><ele>15.6</ele><time>2015-05-01T08:04:21.0000000+00:00</time></trkpt><trkpt lat="34.9155011" lon="33.6379816"><ele>15.2</ele><time>2015-05-01T08:04:23.0000000+00:00</time></trkpt><trkpt lat="34.9154364" lon="33.6379735"><ele>14.8</ele><time>2015-05-01T08:04:25.0000000+00:00</time></trkpt><trkpt lat="34.9153855" lon="33.6379657"><ele>14.5</ele><time>2015-05-01T08:04:27.0000000+00:00</time></trkpt><trkpt lat="34.9153161" lon="33.6379605"><ele>15.0</ele><time>2015-05-01T08:04:30.0000000+00:00</time></trkpt><trkpt lat="34.9152581" lon="33.6379518"><ele>13.5</ele><time>2015-05-01T08:04:32.0000000+00:00</time></trkpt><trkpt lat="34.9152003" lon="33.6379413"><ele>13.6</ele><time>2015-05-01T08:04:34.0000000+00:00</time></trkpt><trkpt lat="34.9151472" lon="33.6379438"><ele>14.4</ele><time>2015-05-01T08:04:36.0000000+00:00</time></trkpt><trkpt lat="34.9150996" lon="33.6379436"><ele>14.1</ele><time>2015-05-01T08:04:38.0000000+00:00</time></trkpt><trkpt lat="34.9150544" lon="33.6379422"><ele>14.8</ele><time>2015-05-01T08:04:40.0000000+00:00</time></trkpt><trkpt lat="34.9150064" lon="33.6379506"><ele>15.8</ele><time>2015-05-01T08:04:45.0000000+00:00</time></trkpt><trkpt lat="34.9149579" lon="33.6379447"><ele>14.6</ele><time>2015-05-01T08:04:51.0000000+00:00</time></trkpt><trkpt lat="34.914958" lon="33.6378872"><ele>10.6</ele><time>2015-05-01T08:04:59.0000000+00:00</time></trkpt><trkpt lat="34.9149406" lon="33.637813"><ele>10.2</ele><time>2015-05-01T08:05:03.0000000+00:00</time></trkpt><trkpt lat="34.9149421" lon="33.6377256"><ele>9.8</ele><time>2015-05-01T08:05:05.0000000+00:00</time></trkpt><trkpt lat="34.9149485" lon="33.6376314"><ele>9.2</ele><time>2015-05-01T08:05:07.0000000+00:00</time></trkpt><trkpt lat="34.914949" lon="33.6375276"><ele>9.1</ele><time>2015-05-01T08:05:09.0000000+00:00</time></trkpt><trkpt lat="34.9149536" lon="33.6374245"><ele>9.5</ele><time>2015-05-01T08:05:11.0000000+00:00</time></trkpt><trkpt lat="34.9149589" lon="33.6373287"><ele>9.9</ele><time>2015-05-01T08:05:13.0000000+00:00</time></trkpt><trkpt lat="34.9149615" lon="33.6372332"><ele>10.0</ele><time>2015-05-01T08:05:15.0000000+00:00</time></trkpt><trkpt lat="34.914959" lon="33.6371386"><ele>10.5</ele><time>2015-05-01T08:05:17.0000000+00:00</time></trkpt><trkpt lat="34.9149489" lon="33.6370541"><ele>13.6</ele><time>2015-05-01T08:05:19.0000000+00:00</time></trkpt><trkpt lat="34.9149445" lon="33.6369807"><ele>16.2</ele><time>2015-05-01T08:05:21.0000000+00:00</time></trkpt><trkpt lat="34.9149465" lon="33.6369026"><ele>18.6</ele><time>2015-05-01T08:05:23.0000000+00:00</time></trkpt><trkpt lat="34.9149495" lon="33.6368238"><ele>21.9</ele><time>2015-05-01T08:05:25.0000000+00:00</time></trkpt><trkpt lat="34.9149463" lon="33.636743"><ele>24.0</ele><time>2015-05-01T08:05:27.0000000+00:00</time></trkpt><trkpt lat="34.9149498" lon="33.6366623"><ele>24.0</ele><time>2015-05-01T08:05:29.0000000+00:00</time></trkpt><trkpt lat="34.9149594" lon="33.6365828"><ele>24.0</ele><time>2015-05-01T08:05:31.0000000+00:00</time></trkpt><trkpt lat="34.9149646" lon="33.6365115"><ele>24.8</ele><time>2015-05-01T08:05:33.0000000+00:00</time></trkpt><trkpt lat="34.9149203" lon="33.6364965"><ele>27.4</ele><time>2015-05-01T08:05:41.0000000+00:00</time></trkpt><trkpt lat="34.914883" lon="33.6364652"><ele>21.9</ele><time>2015-05-01T08:05:46.0000000+00:00</time></trkpt><trkpt lat="34.9148337" lon="33.6364656"><ele>22.4</ele><time>2015-05-01T08:05:49.0000000+00:00</time></trkpt><trkpt lat="34.9147811" lon="33.6364612"><ele>22.9</ele><time>2015-05-01T08:05:51.0000000+00:00</time></trkpt><trkpt lat="34.914725" lon="33.6364579"><ele>22.5</ele><time>2015-05-01T08:05:53.0000000+00:00</time></trkpt><trkpt lat="34.9146703" lon="33.6364486"><ele>22.1</ele><time>2015-05-01T08:05:55.0000000+00:00</time></trkpt><trkpt lat="34.9146147" lon="33.6364405"><ele>21.3</ele><time>2015-05-01T08:05:57.0000000+00:00</time></trkpt><trkpt lat="34.9145566" lon="33.636442"><ele>20.3</ele><time>2015-05-01T08:05:59.0000000+00:00</time></trkpt><trkpt lat="34.9144928" lon="33.6364519"><ele>20.1</ele><time>2015-05-01T08:06:01.0000000+00:00</time></trkpt><trkpt lat="34.9144352" lon="33.6364397"><ele>18.3</ele><time>2015-05-01T08:06:03.0000000+00:00</time></trkpt><trkpt lat="34.9143824" lon="33.6364099"><ele>17.3</ele><time>2015-05-01T08:06:05.0000000+00:00</time></trkpt><trkpt lat="34.9143312" lon="33.6363864"><ele>16.9</ele><time>2015-05-01T08:06:07.0000000+00:00</time></trkpt><trkpt lat="34.9142741" lon="33.6363691"><ele>17.0</ele><time>2015-05-01T08:06:09.0000000+00:00</time></trkpt><trkpt lat="34.9142186" lon="33.63635"><ele>16.3</ele><time>2015-05-01T08:06:11.0000000+00:00</time></trkpt><trkpt lat="34.9141687" lon="33.6363484"><ele>18.1</ele><time>2015-05-01T08:06:17.0000000+00:00</time></trkpt><trkpt lat="34.9141141" lon="33.6363517"><ele>17.8</ele><time>2015-05-01T08:06:20.0000000+00:00</time></trkpt><trkpt lat="34.9140637" lon="33.6363584"><ele>20.5</ele><time>2015-05-01T08:06:23.0000000+00:00</time></trkpt><trkpt lat="34.9140084" lon="33.6363703"><ele>21.1</ele><time>2015-05-01T08:06:35.0000000+00:00</time></trkpt><trkpt lat="34.9139594" lon="33.6363626"><ele>18.3</ele><time>2015-05-01T08:06:41.0000000+00:00</time></trkpt><trkpt lat="34.9139118" lon="33.636356"><ele>18.1</ele><time>2015-05-01T08:06:44.0000000+00:00</time></trkpt><trkpt lat="34.9138573" lon="33.6363537"><ele>20.7</ele><time>2015-05-01T08:06:47.0000000+00:00</time></trkpt><trkpt lat="34.9137972" lon="33.6363582"><ele>21.6</ele><time>2015-05-01T08:06:50.0000000+00:00</time></trkpt><trkpt lat="34.9137392" lon="33.6363836"><ele>20.7</ele><time>2015-05-01T08:06:53.0000000+00:00</time></trkpt><trkpt lat="34.9137093" lon="33.6364421"><ele>18.9</ele><time>2015-05-01T08:06:55.0000000+00:00</time></trkpt><trkpt lat="34.9136922" lon="33.6365082"><ele>19.0</ele><time>2015-05-01T08:06:57.0000000+00:00</time></trkpt><trkpt lat="34.9136988" lon="33.6365659"><ele>19.0</ele><time>2015-05-01T08:07:00.0000000+00:00</time></trkpt><trkpt lat="34.9137082" lon="33.6365003"><ele>18.7</ele><time>2015-05-01T08:07:22.0000000+00:00</time></trkpt><trkpt lat="34.9136508" lon="33.636468"><ele>18.9</ele><time>2015-05-01T08:07:24.0000000+00:00</time></trkpt><trkpt lat="34.9135979" lon="33.6364531"><ele>18.3</ele><time>2015-05-01T08:07:26.0000000+00:00</time></trkpt><trkpt lat="34.9135545" lon="33.6364331"><ele>16.8</ele><time>2015-05-01T08:07:28.0000000+00:00</time></trkpt><trkpt lat="34.9135106" lon="33.6364118"><ele>15.4</ele><time>2015-05-01T08:07:32.0000000+00:00</time></trkpt><trkpt lat="34.913463" lon="33.6364032"><ele>15.1</ele><time>2015-05-01T08:07:34.0000000+00:00</time></trkpt><trkpt lat="34.9134062" lon="33.6364017"><ele>16.3</ele><time>2015-05-01T08:07:36.0000000+00:00</time></trkpt><trkpt lat="34.9133437" lon="33.6363829"><ele>17.6</ele><time>2015-05-01T08:07:38.0000000+00:00</time></trkpt><trkpt lat="34.9132775" lon="33.6363502"><ele>17.2</ele><time>2015-05-01T08:07:40.0000000+00:00</time></trkpt><trkpt lat="34.9132242" lon="33.6363201"><ele>17.6</ele><time>2015-05-01T08:07:42.0000000+00:00</time></trkpt><trkpt lat="34.9131826" lon="33.6362927"><ele>19.7</ele><time>2015-05-01T08:07:49.0000000+00:00</time></trkpt><trkpt lat="34.9131294" lon="33.6363228"><ele>19.9</ele><time>2015-05-01T08:07:59.0000000+00:00</time></trkpt><trkpt lat="34.9130671" lon="33.6363045"><ele>18.4</ele><time>2015-05-01T08:08:03.0000000+00:00</time></trkpt><trkpt lat="34.9130007" lon="33.6362894"><ele>20.6</ele><time>2015-05-01T08:08:05.0000000+00:00</time></trkpt><trkpt lat="34.9129426" lon="33.6362736"><ele>20.2</ele><time>2015-05-01T08:08:07.0000000+00:00</time></trkpt><trkpt lat="34.9128908" lon="33.6362737"><ele>21.6</ele><time>2015-05-01T08:08:09.0000000+00:00</time></trkpt><trkpt lat="34.9128386" lon="33.6362758"><ele>22.7</ele><time>2015-05-01T08:08:11.0000000+00:00</time></trkpt><trkpt lat="34.9127881" lon="33.6362779"><ele>22.4</ele><time>2015-05-01T08:08:13.0000000+00:00</time></trkpt><trkpt lat="34.9127493" lon="33.6363088"><ele>24.8</ele><time>2015-05-01T08:08:21.0000000+00:00</time></trkpt><trkpt lat="34.912736" lon="33.6362526"><ele>19.6</ele><time>2015-05-01T08:08:29.0000000+00:00</time></trkpt><trkpt lat="34.9127378" lon="33.6361916"><ele>17.6</ele><time>2015-05-01T08:08:35.0000000+00:00</time></trkpt><trkpt lat="34.9126884" lon="33.6361601"><ele>8.8</ele><time>2015-05-01T08:08:43.0000000+00:00</time></trkpt><trkpt lat="34.9126495" lon="33.6361153"><ele>8.2</ele><time>2015-05-01T08:08:47.0000000+00:00</time></trkpt><trkpt lat="34.9126191" lon="33.63607"><ele>9.0</ele><time>2015-05-01T08:08:51.0000000+00:00</time></trkpt><trkpt lat="34.9125911" lon="33.6360146"><ele>10.1</ele><time>2015-05-01T08:08:54.0000000+00:00</time></trkpt><trkpt lat="34.9125403" lon="33.6359618"><ele>13.2</ele><time>2015-05-01T08:08:57.0000000+00:00</time></trkpt><trkpt lat="34.9124927" lon="33.6359036"><ele>15.3</ele><time>2015-05-01T08:08:59.0000000+00:00</time></trkpt><trkpt lat="34.9124676" lon="33.635855"><ele>16.1</ele><time>2015-05-01T08:09:01.0000000+00:00</time></trkpt><trkpt lat="34.9124203" lon="33.6358498"><ele>13.2</ele><time>2015-05-01T08:09:06.0000000+00:00</time></trkpt><trkpt lat="34.9123724" lon="33.6358107"><ele>11.9</ele><time>2015-05-01T08:09:09.0000000+00:00</time></trkpt><trkpt lat="34.9123636" lon="33.6357114"><ele>10.5</ele><time>2015-05-01T08:09:11.0000000+00:00</time></trkpt><trkpt lat="34.9123506" lon="33.6356178"><ele>10.4</ele><time>2015-05-01T08:09:13.0000000+00:00</time></trkpt><trkpt lat="34.9123384" lon="33.6355302"><ele>10.6</ele><time>2015-05-01T08:09:15.0000000+00:00</time></trkpt><trkpt lat="34.9123057" lon="33.6354768"><ele>10.2</ele><time>2015-05-01T08:09:17.0000000+00:00</time></trkpt><trkpt lat="34.912231" lon="33.6354721"><ele>10.1</ele><time>2015-05-01T08:09:19.0000000+00:00</time></trkpt><trkpt lat="34.9121844" lon="33.6354708"><ele>10.0</ele><time>2015-05-01T08:09:20.0000000+00:00</time></trkpt><trkpt lat="34.9120945" lon="33.6354956"><ele>10.0</ele><time>2015-05-01T08:09:21.0000000+00:00</time></trkpt><trkpt lat="34.9120429" lon="33.6355049"><ele>10.0</ele><time>2015-05-01T08:09:22.0000000+00:00</time></trkpt><trkpt lat="34.9119836" lon="33.6354705"><ele>11.0</ele><time>2015-05-01T08:09:23.0000000+00:00</time></trkpt><trkpt lat="34.9119263" lon="33.6354383"><ele>12.5</ele><time>2015-05-01T08:09:24.0000000+00:00</time></trkpt><trkpt lat="34.911879" lon="33.6354376"><ele>13.3</ele><time>2015-05-01T08:09:25.0000000+00:00</time></trkpt><trkpt lat="34.9118328" lon="33.6354254"><ele>14.1</ele><time>2015-05-01T08:09:26.0000000+00:00</time></trkpt><trkpt lat="34.9117867" lon="33.6354024"><ele>14.1</ele><time>2015-05-01T08:09:27.0000000+00:00</time></trkpt><trkpt lat="34.9117164" lon="33.635365"><ele>14.0</ele><time>2015-05-01T08:09:29.0000000+00:00</time></trkpt><trkpt lat="34.9116449" lon="33.6353204"><ele>14.3</ele><time>2015-05-01T08:09:31.0000000+00:00</time></trkpt><trkpt lat="34.9116484" lon="33.6352203"><ele>13.8</ele><time>2015-05-01T08:09:33.0000000+00:00</time></trkpt><trkpt lat="34.9116709" lon="33.6351499"><ele>13.4</ele><time>2015-05-01T08:09:34.0000000+00:00</time></trkpt><trkpt lat="34.9117124" lon="33.6350413"><ele>12.4</ele><time>2015-05-01T08:09:36.0000000+00:00</time></trkpt><trkpt lat="34.9117374" lon="33.6349887"><ele>12.2</ele><time>2015-05-01T08:09:37.0000000+00:00</time></trkpt><trkpt lat="34.9117634" lon="33.6349338"><ele>12.1</ele><time>2015-05-01T08:09:38.0000000+00:00</time></trkpt><trkpt lat="34.9117898" lon="33.6348774"><ele>12.1</ele><time>2015-05-01T08:09:39.0000000+00:00</time></trkpt><trkpt lat="34.911813" lon="33.6348217"><ele>12.0</ele><time>2015-05-01T08:09:40.0000000+00:00</time></trkpt><trkpt lat="34.9118376" lon="33.6347744"><ele>11.5</ele><time>2015-05-01T08:09:41.0000000+00:00</time></trkpt><trkpt lat="34.9118629" lon="33.6347218"><ele>11.3</ele><time>2015-05-01T08:09:42.0000000+00:00</time></trkpt><trkpt lat="34.9118858" lon="33.6346741"><ele>11.1</ele><time>2015-05-01T08:09:43.0000000+00:00</time></trkpt><trkpt lat="34.9119176" lon="33.63463"><ele>11.1</ele><time>2015-05-01T08:09:44.0000000+00:00</time></trkpt><trkpt lat="34.9119504" lon="33.6345913"><ele>11.1</ele><time>2015-05-01T08:09:45.0000000+00:00</time></trkpt><trkpt lat="34.9119851" lon="33.6345456"><ele>11.0</ele><time>2015-05-01T08:09:46.0000000+00:00</time></trkpt><trkpt lat="34.9120174" lon="33.6345017"><ele>11.0</ele><time>2015-05-01T08:09:47.0000000+00:00</time></trkpt><trkpt lat="34.9120471" lon="33.634454"><ele>11.0</ele><time>2015-05-01T08:09:48.0000000+00:00</time></trkpt><trkpt lat="34.9120873" lon="33.6344107"><ele>11.5</ele><time>2015-05-01T08:09:49.0000000+00:00</time></trkpt><trkpt lat="34.9121145" lon="33.6343584"><ele>11.3</ele><time>2015-05-01T08:09:50.0000000+00:00</time></trkpt><trkpt lat="34.9121498" lon="33.6343114"><ele>11.1</ele><time>2015-05-01T08:09:51.0000000+00:00</time></trkpt><trkpt lat="34.9121818" lon="33.6342592"><ele>10.6</ele><time>2015-05-01T08:09:52.0000000+00:00</time></trkpt><trkpt lat="34.9122134" lon="33.6342027"><ele>10.8</ele><time>2015-05-01T08:09:53.0000000+00:00</time></trkpt><trkpt lat="34.9122485" lon="33.6341493"><ele>10.9</ele><time>2015-05-01T08:09:54.0000000+00:00</time></trkpt><trkpt lat="34.9122843" lon="33.6340977"><ele>11.0</ele><time>2015-05-01T08:09:55.0000000+00:00</time></trkpt><trkpt lat="34.9123146" lon="33.6340409"><ele>10.5</ele><time>2015-05-01T08:09:56.0000000+00:00</time></trkpt><trkpt lat="34.9123435" lon="33.6339888"><ele>10.3</ele><time>2015-05-01T08:09:57.0000000+00:00</time></trkpt><trkpt lat="34.9123802" lon="33.6339347"><ele>9.6</ele><time>2015-05-01T08:09:58.0000000+00:00</time></trkpt><trkpt lat="34.9124126" lon="33.6338771"><ele>9.3</ele><time>2015-05-01T08:09:59.0000000+00:00</time></trkpt><trkpt lat="34.9124474" lon="33.6338189"><ele>9.2</ele><time>2015-05-01T08:10:00.0000000+00:00</time></trkpt><trkpt lat="34.912486" lon="33.6337616"><ele>9.1</ele><time>2015-05-01T08:10:01.0000000+00:00</time></trkpt><trkpt lat="34.9125272" lon="33.6337096"><ele>9.1</ele><time>2015-05-01T08:10:02.0000000+00:00</time></trkpt><trkpt lat="34.912565" lon="33.633653"><ele>9.0</ele><time>2015-05-01T08:10:03.0000000+00:00</time></trkpt><trkpt lat="34.9126015" lon="33.6335898"><ele>9.0</ele><time>2015-05-01T08:10:04.0000000+00:00</time></trkpt><trkpt lat="34.9126351" lon="33.6335268"><ele>9.0</ele><time>2015-05-01T08:10:05.0000000+00:00</time></trkpt><trkpt lat="34.9126718" lon="33.6334675"><ele>9.0</ele><time>2015-05-01T08:10:06.0000000+00:00</time></trkpt><trkpt lat="34.9127114" lon="33.633412"><ele>8.5</ele><time>2015-05-01T08:10:07.0000000+00:00</time></trkpt><trkpt lat="34.9127404" lon="33.6333354"><ele>8.8</ele><time>2015-05-01T08:10:08.0000000+00:00</time></trkpt><trkpt lat="34.9127767" lon="33.6332783"><ele>8.9</ele><time>2015-05-01T08:10:09.0000000+00:00</time></trkpt><trkpt lat="34.9128145" lon="33.6332228"><ele>8.5</ele><time>2015-05-01T08:10:10.0000000+00:00</time></trkpt><trkpt lat="34.9128525" lon="33.6331613"><ele>8.7</ele><time>2015-05-01T08:10:11.0000000+00:00</time></trkpt><trkpt lat="34.9128835" lon="33.6330999"><ele>8.9</ele><time>2015-05-01T08:10:12.0000000+00:00</time></trkpt><trkpt lat="34.9129214" lon="33.6330398"><ele>9.0</ele><time>2015-05-01T08:10:13.0000000+00:00</time></trkpt><trkpt lat="34.9129582" lon="33.6329816"><ele>9.0</ele><time>2015-05-01T08:10:14.0000000+00:00</time></trkpt><trkpt lat="34.9129932" lon="33.6329255"><ele>9.0</ele><time>2015-05-01T08:10:15.0000000+00:00</time></trkpt><trkpt lat="34.9130292" lon="33.6328614"><ele>9.0</ele><time>2015-05-01T08:10:16.0000000+00:00</time></trkpt><trkpt lat="34.9130608" lon="33.6328047"><ele>9.0</ele><time>2015-05-01T08:10:17.0000000+00:00</time></trkpt><trkpt lat="34.9130942" lon="33.6327399"><ele>9.5</ele><time>2015-05-01T08:10:18.0000000+00:00</time></trkpt><trkpt lat="34.9131188" lon="33.6326834"><ele>10.3</ele><time>2015-05-01T08:10:19.0000000+00:00</time></trkpt><trkpt lat="34.9131518" lon="33.6326275"><ele>10.1</ele><time>2015-05-01T08:10:20.0000000+00:00</time></trkpt><trkpt lat="34.9131826" lon="33.6325737"><ele>10.6</ele><time>2015-05-01T08:10:21.0000000+00:00</time></trkpt><trkpt lat="34.9132026" lon="33.6325126"><ele>11.8</ele><time>2015-05-01T08:10:22.0000000+00:00</time></trkpt><trkpt lat="34.9132223" lon="33.6324471"><ele>13.4</ele><time>2015-05-01T08:10:23.0000000+00:00</time></trkpt><trkpt lat="34.9132508" lon="33.6323872"><ele>13.2</ele><time>2015-05-01T08:10:24.0000000+00:00</time></trkpt><trkpt lat="34.9132758" lon="33.6323203"><ele>13.1</ele><time>2015-05-01T08:10:25.0000000+00:00</time></trkpt><trkpt lat="34.913306" lon="33.6322523"><ele>13.1</ele><time>2015-05-01T08:10:26.0000000+00:00</time></trkpt><trkpt lat="34.9133271" lon="33.6321818"><ele>12.5</ele><time>2015-05-01T08:10:27.0000000+00:00</time></trkpt><trkpt lat="34.9133538" lon="33.6321236"><ele>12.3</ele><time>2015-05-01T08:10:28.0000000+00:00</time></trkpt><trkpt lat="34.9133727" lon="33.6320659"><ele>12.2</ele><time>2015-05-01T08:10:29.0000000+00:00</time></trkpt><trkpt lat="34.9134042" lon="33.6320041"><ele>12.6</ele><time>2015-05-01T08:10:30.0000000+00:00</time></trkpt><trkpt lat="34.9134315" lon="33.6319387"><ele>12.8</ele><time>2015-05-01T08:10:31.0000000+00:00</time></trkpt><trkpt lat="34.9134533" lon="33.6318728"><ele>12.4</ele><time>2015-05-01T08:10:32.0000000+00:00</time></trkpt><trkpt lat="34.9134842" lon="33.6318219"><ele>13.2</ele><time>2015-05-01T08:10:33.0000000+00:00</time></trkpt><trkpt lat="34.9135066" lon="33.6317526"><ele>13.6</ele><time>2015-05-01T08:10:35.0000000+00:00</time></trkpt><trkpt lat="34.9135076" lon="33.6316892"><ele>15.8</ele><time>2015-05-01T08:10:40.0000000+00:00</time></trkpt><trkpt lat="34.9135342" lon="33.6316314"><ele>14.0</ele><time>2015-05-01T08:10:42.0000000+00:00</time></trkpt><trkpt lat="34.9135682" lon="33.631542"><ele>13.0</ele><time>2015-05-01T08:10:44.0000000+00:00</time></trkpt><trkpt lat="34.9135775" lon="33.6314781"><ele>13.0</ele><time>2015-05-01T08:10:45.0000000+00:00</time></trkpt><trkpt lat="34.9135957" lon="33.6314201"><ele>12.0</ele><time>2015-05-01T08:10:46.0000000+00:00</time></trkpt><trkpt lat="34.9136188" lon="33.6313651"><ele>11.0</ele><time>2015-05-01T08:10:47.0000000+00:00</time></trkpt><trkpt lat="34.9136468" lon="33.631302"><ele>11.0</ele><time>2015-05-01T08:10:48.0000000+00:00</time></trkpt><trkpt lat="34.9136834" lon="33.6312018"><ele>10.8</ele><time>2015-05-01T08:10:50.0000000+00:00</time></trkpt><trkpt lat="34.9137166" lon="33.6311009"><ele>11.0</ele><time>2015-05-01T08:10:52.0000000+00:00</time></trkpt><trkpt lat="34.9137584" lon="33.6310011"><ele>11.0</ele><time>2015-05-01T08:10:54.0000000+00:00</time></trkpt><trkpt lat="34.9137778" lon="33.6309448"><ele>11.0</ele><time>2015-05-01T08:10:55.0000000+00:00</time></trkpt><trkpt lat="34.9138004" lon="33.6308848"><ele>11.5</ele><time>2015-05-01T08:10:56.0000000+00:00</time></trkpt><trkpt lat="34.9138125" lon="33.6308304"><ele>11.8</ele><time>2015-05-01T08:10:57.0000000+00:00</time></trkpt><trkpt lat="34.9138333" lon="33.6307759"><ele>12.4</ele><time>2015-05-01T08:10:58.0000000+00:00</time></trkpt><trkpt lat="34.9138543" lon="33.6307218"><ele>12.2</ele><time>2015-05-01T08:10:59.0000000+00:00</time></trkpt><trkpt lat="34.9138729" lon="33.630669"><ele>12.1</ele><time>2015-05-01T08:11:00.0000000+00:00</time></trkpt><trkpt lat="34.9138869" lon="33.6306161"><ele>12.6</ele><time>2015-05-01T08:11:01.0000000+00:00</time></trkpt><trkpt lat="34.913921" lon="33.6305132"><ele>12.9</ele><time>2015-05-01T08:11:03.0000000+00:00</time></trkpt><trkpt lat="34.9139377" lon="33.6304607"><ele>13.0</ele><time>2015-05-01T08:11:04.0000000+00:00</time></trkpt><trkpt lat="34.9139566" lon="33.6303774"><ele>13.0</ele><time>2015-05-01T08:11:06.0000000+00:00</time></trkpt><trkpt lat="34.9139436" lon="33.6303124"><ele>13.5</ele><time>2015-05-01T08:11:08.0000000+00:00</time></trkpt><trkpt lat="34.9139409" lon="33.6302532"><ele>14.8</ele><time>2015-05-01T08:11:11.0000000+00:00</time></trkpt><trkpt lat="34.9138846" lon="33.6302121"><ele>15.0</ele><time>2015-05-01T08:11:14.0000000+00:00</time></trkpt><trkpt lat="34.9138187" lon="33.6302008"><ele>15.0</ele><time>2015-05-01T08:11:16.0000000+00:00</time></trkpt><trkpt lat="34.9137285" lon="33.6301903"><ele>15.0</ele><time>2015-05-01T08:11:18.0000000+00:00</time></trkpt><trkpt lat="34.913676" lon="33.6301926"><ele>15.0</ele><time>2015-05-01T08:11:19.0000000+00:00</time></trkpt><trkpt lat="34.9136281" lon="33.6301867"><ele>15.5</ele><time>2015-05-01T08:11:20.0000000+00:00</time></trkpt><trkpt lat="34.9135797" lon="33.6301818"><ele>15.8</ele><time>2015-05-01T08:11:21.0000000+00:00</time></trkpt><trkpt lat="34.9135308" lon="33.6301786"><ele>15.9</ele><time>2015-05-01T08:11:22.0000000+00:00</time></trkpt><trkpt lat="34.9134848" lon="33.6301664"><ele>16.0</ele><time>2015-05-01T08:11:23.0000000+00:00</time></trkpt><trkpt lat="34.9134376" lon="33.6301544"><ele>16.5</ele><time>2015-05-01T08:11:24.0000000+00:00</time></trkpt><trkpt lat="34.9133851" lon="33.6301454"><ele>17.3</ele><time>2015-05-01T08:11:25.0000000+00:00</time></trkpt><trkpt lat="34.9133296" lon="33.6301373"><ele>17.6</ele><time>2015-05-01T08:11:26.0000000+00:00</time></trkpt><trkpt lat="34.913273" lon="33.6301301"><ele>17.8</ele><time>2015-05-01T08:11:27.0000000+00:00</time></trkpt><trkpt lat="34.9132122" lon="33.6301199"><ele>17.9</ele><time>2015-05-01T08:11:28.0000000+00:00</time></trkpt><trkpt lat="34.9131554" lon="33.6301159"><ele>18.0</ele><time>2015-05-01T08:11:29.0000000+00:00</time></trkpt><trkpt lat="34.9130966" lon="33.6301129"><ele>18.0</ele><time>2015-05-01T08:11:30.0000000+00:00</time></trkpt><trkpt lat="34.9130332" lon="33.6301124"><ele>18.0</ele><time>2015-05-01T08:11:31.0000000+00:00</time></trkpt><trkpt lat="34.9129712" lon="33.6301072"><ele>18.0</ele><time>2015-05-01T08:11:32.0000000+00:00</time></trkpt><trkpt lat="34.9129094" lon="33.6300964"><ele>18.0</ele><time>2015-05-01T08:11:33.0000000+00:00</time></trkpt><trkpt lat="34.9128488" lon="33.6300855"><ele>18.0</ele><time>2015-05-01T08:11:34.0000000+00:00</time></trkpt><trkpt lat="34.912787" lon="33.6300768"><ele>18.0</ele><time>2015-05-01T08:11:35.0000000+00:00</time></trkpt><trkpt lat="34.912718" lon="33.6300672"><ele>17.5</ele><time>2015-05-01T08:11:36.0000000+00:00</time></trkpt><trkpt lat="34.9126594" lon="33.630057"><ele>17.8</ele><time>2015-05-01T08:11:37.0000000+00:00</time></trkpt><trkpt lat="34.9125985" lon="33.6300493"><ele>17.9</ele><time>2015-05-01T08:11:38.0000000+00:00</time></trkpt><trkpt lat="34.9125376" lon="33.6300424"><ele>17.5</ele><time>2015-05-01T08:11:39.0000000+00:00</time></trkpt><trkpt lat="34.9124751" lon="33.6300318"><ele>17.7</ele><time>2015-05-01T08:11:40.0000000+00:00</time></trkpt><trkpt lat="34.9124179" lon="33.6300208"><ele>17.9</ele><time>2015-05-01T08:11:41.0000000+00:00</time></trkpt><trkpt lat="34.9123572" lon="33.6300139"><ele>18.0</ele><time>2015-05-01T08:11:42.0000000+00:00</time></trkpt><trkpt lat="34.912297" lon="33.6300067"><ele>18.0</ele><time>2015-05-01T08:11:43.0000000+00:00</time></trkpt><trkpt lat="34.9122326" lon="33.6299989"><ele>18.0</ele><time>2015-05-01T08:11:44.0000000+00:00</time></trkpt><trkpt lat="34.9121722" lon="33.6299855"><ele>18.0</ele><time>2015-05-01T08:11:45.0000000+00:00</time></trkpt><trkpt lat="34.9121135" lon="33.629981"><ele>18.0</ele><time>2015-05-01T08:11:46.0000000+00:00</time></trkpt><trkpt lat="34.9120499" lon="33.6299771"><ele>18.0</ele><time>2015-05-01T08:11:47.0000000+00:00</time></trkpt><trkpt lat="34.9119856" lon="33.6299718"><ele>18.0</ele><time>2015-05-01T08:11:48.0000000+00:00</time></trkpt><trkpt lat="34.9119281" lon="33.6299716"><ele>18.0</ele><time>2015-05-01T08:11:49.0000000+00:00</time></trkpt><trkpt lat="34.9118671" lon="33.6299642"><ele>18.5</ele><time>2015-05-01T08:11:50.0000000+00:00</time></trkpt><trkpt lat="34.911808" lon="33.6299541"><ele>19.3</ele><time>2015-05-01T08:11:51.0000000+00:00</time></trkpt><trkpt lat="34.9117464" lon="33.6299444"><ele>19.6</ele><time>2015-05-01T08:11:52.0000000+00:00</time></trkpt><trkpt lat="34.9116906" lon="33.6299425"><ele>19.8</ele><time>2015-05-01T08:11:53.0000000+00:00</time></trkpt><trkpt lat="34.9116315" lon="33.6299364"><ele>19.4</ele><time>2015-05-01T08:11:54.0000000+00:00</time></trkpt><trkpt lat="34.9115766" lon="33.6299314"><ele>19.2</ele><time>2015-05-01T08:11:55.0000000+00:00</time></trkpt><trkpt lat="34.9115191" lon="33.629924"><ele>19.1</ele><time>2015-05-01T08:11:56.0000000+00:00</time></trkpt><trkpt lat="34.9114658" lon="33.6299204"><ele>19.1</ele><time>2015-05-01T08:11:57.0000000+00:00</time></trkpt><trkpt lat="34.9114176" lon="33.6299145"><ele>19.0</ele><time>2015-05-01T08:11:58.0000000+00:00</time></trkpt><trkpt lat="34.9113394" lon="33.6299031"><ele>18.3</ele><time>2015-05-01T08:12:00.0000000+00:00</time></trkpt><trkpt lat="34.9112807" lon="33.6299092"><ele>17.3</ele><time>2015-05-01T08:12:03.0000000+00:00</time></trkpt><trkpt lat="34.9112352" lon="33.6299238"><ele>16.2</ele><time>2015-05-01T08:12:07.0000000+00:00</time></trkpt><trkpt lat="34.9112124" lon="33.6300015"><ele>17.2</ele><time>2015-05-01T08:12:10.0000000+00:00</time></trkpt><trkpt lat="34.9112083" lon="33.6301086"><ele>17.1</ele><time>2015-05-01T08:12:12.0000000+00:00</time></trkpt><trkpt lat="34.9112051" lon="33.630197"><ele>17.0</ele><time>2015-05-01T08:12:13.0000000+00:00</time></trkpt><trkpt lat="34.911197" lon="33.6302722"><ele>16.5</ele><time>2015-05-01T08:12:14.0000000+00:00</time></trkpt><trkpt lat="34.911192" lon="33.6303486"><ele>16.3</ele><time>2015-05-01T08:12:15.0000000+00:00</time></trkpt><trkpt lat="34.9111879" lon="33.6304271"><ele>15.6</ele><time>2015-05-01T08:12:16.0000000+00:00</time></trkpt><trkpt lat="34.9111806" lon="33.6305034"><ele>15.3</ele><time>2015-05-01T08:12:17.0000000+00:00</time></trkpt><trkpt lat="34.9111748" lon="33.6305828"><ele>15.2</ele><time>2015-05-01T08:12:18.0000000+00:00</time></trkpt><trkpt lat="34.9111664" lon="33.6306614"><ele>15.1</ele><time>2015-05-01T08:12:19.0000000+00:00</time></trkpt><trkpt lat="34.9111566" lon="33.6307451"><ele>14.6</ele><time>2015-05-01T08:12:20.0000000+00:00</time></trkpt><trkpt lat="34.9111433" lon="33.6308183"><ele>13.8</ele><time>2015-05-01T08:12:21.0000000+00:00</time></trkpt><trkpt lat="34.9111425" lon="33.6308961"><ele>13.4</ele><time>2015-05-01T08:12:22.0000000+00:00</time></trkpt><trkpt lat="34.9111477" lon="33.6309733"><ele>13.7</ele><time>2015-05-01T08:12:23.0000000+00:00</time></trkpt><trkpt lat="34.9111419" lon="33.6310449"><ele>13.9</ele><time>2015-05-01T08:12:24.0000000+00:00</time></trkpt><trkpt lat="34.9111331" lon="33.6311203"><ele>13.9</ele><time>2015-05-01T08:12:25.0000000+00:00</time></trkpt><trkpt lat="34.9111336" lon="33.6311838"><ele>14.0</ele><time>2015-05-01T08:12:26.0000000+00:00</time></trkpt><trkpt lat="34.9111352" lon="33.6312446"><ele>14.0</ele><time>2015-05-01T08:12:27.0000000+00:00</time></trkpt><trkpt lat="34.9111123" lon="33.6313262"><ele>13.8</ele><time>2015-05-01T08:12:29.0000000+00:00</time></trkpt><trkpt lat="34.9110298" lon="33.6313465"><ele>13.7</ele><time>2015-05-01T08:12:31.0000000+00:00</time></trkpt><trkpt lat="34.9109838" lon="33.631344"><ele>13.4</ele><time>2015-05-01T08:12:32.0000000+00:00</time></trkpt><trkpt lat="34.910932" lon="33.6313423"><ele>13.2</ele><time>2015-05-01T08:12:33.0000000+00:00</time></trkpt><trkpt lat="34.9108806" lon="33.631342"><ele>13.6</ele><time>2015-05-01T08:12:34.0000000+00:00</time></trkpt><trkpt lat="34.910827" lon="33.631337"><ele>13.3</ele><time>2015-05-01T08:12:35.0000000+00:00</time></trkpt><trkpt lat="34.9107629" lon="33.6313328"><ele>13.7</ele><time>2015-05-01T08:12:36.0000000+00:00</time></trkpt><trkpt lat="34.9107028" lon="33.6313297"><ele>14.3</ele><time>2015-05-01T08:12:37.0000000+00:00</time></trkpt><trkpt lat="34.91065" lon="33.6313328"><ele>14.7</ele><time>2015-05-01T08:12:38.0000000+00:00</time></trkpt><trkpt lat="34.9105888" lon="33.6313255"><ele>14.9</ele><time>2015-05-01T08:12:39.0000000+00:00</time></trkpt><trkpt lat="34.9105259" lon="33.6313145"><ele>14.9</ele><time>2015-05-01T08:12:40.0000000+00:00</time></trkpt><trkpt lat="34.9104634" lon="33.6313018"><ele>15.0</ele><time>2015-05-01T08:12:41.0000000+00:00</time></trkpt><trkpt lat="34.9104019" lon="33.6312903"><ele>15.0</ele><time>2015-05-01T08:12:42.0000000+00:00</time></trkpt><trkpt lat="34.910336" lon="33.6312844"><ele>15.0</ele><time>2015-05-01T08:12:43.0000000+00:00</time></trkpt><trkpt lat="34.9102713" lon="33.6312755"><ele>15.0</ele><time>2015-05-01T08:12:44.0000000+00:00</time></trkpt><trkpt lat="34.9102066" lon="33.6312698"><ele>14.5</ele><time>2015-05-01T08:12:45.0000000+00:00</time></trkpt><trkpt lat="34.9101385" lon="33.6312571"><ele>14.8</ele><time>2015-05-01T08:12:46.0000000+00:00</time></trkpt><trkpt lat="34.9100829" lon="33.6312488"><ele>14.9</ele><time>2015-05-01T08:12:47.0000000+00:00</time></trkpt><trkpt lat="34.910033" lon="33.6312437"><ele>15.0</ele><time>2015-05-01T08:12:48.0000000+00:00</time></trkpt><trkpt lat="34.9099868" lon="33.6312383"><ele>15.0</ele><time>2015-05-01T08:12:49.0000000+00:00</time></trkpt><trkpt lat="34.9099347" lon="33.6312368"><ele>15.0</ele><time>2015-05-01T08:12:50.0000000+00:00</time></trkpt><trkpt lat="34.9098837" lon="33.6312362"><ele>15.0</ele><time>2015-05-01T08:12:51.0000000+00:00</time></trkpt><trkpt lat="34.9098345" lon="33.6312342"><ele>14.5</ele><time>2015-05-01T08:12:52.0000000+00:00</time></trkpt><trkpt lat="34.9097816" lon="33.6312287"><ele>14.8</ele><time>2015-05-01T08:12:53.0000000+00:00</time></trkpt><trkpt lat="34.9097324" lon="33.6312301"><ele>14.9</ele><time>2015-05-01T08:12:54.0000000+00:00</time></trkpt><trkpt lat="34.9096868" lon="33.631238"><ele>14.5</ele><time>2015-05-01T08:12:55.0000000+00:00</time></trkpt><trkpt lat="34.90964" lon="33.6312334"><ele>14.2</ele><time>2015-05-01T08:12:56.0000000+00:00</time></trkpt><trkpt lat="34.9095583" lon="33.6312424"><ele>14.1</ele><time>2015-05-01T08:12:58.0000000+00:00</time></trkpt><trkpt lat="34.9094968" lon="33.6312967"><ele>13.3</ele><time>2015-05-01T08:13:00.0000000+00:00</time></trkpt><trkpt lat="34.909483" lon="33.6313996"><ele>13.1</ele><time>2015-05-01T08:13:02.0000000+00:00</time></trkpt><trkpt lat="34.9094787" lon="33.6314595"><ele>13.1</ele><time>2015-05-01T08:13:03.0000000+00:00</time></trkpt><trkpt lat="34.9094731" lon="33.631522"><ele>12.5</ele><time>2015-05-01T08:13:04.0000000+00:00</time></trkpt><trkpt lat="34.9094672" lon="33.6315818"><ele>12.3</ele><time>2015-05-01T08:13:05.0000000+00:00</time></trkpt><trkpt lat="34.909465" lon="33.6316512"><ele>12.2</ele><time>2015-05-01T08:13:06.0000000+00:00</time></trkpt><trkpt lat="34.9094617" lon="33.6317236"><ele>12.1</ele><time>2015-05-01T08:13:07.0000000+00:00</time></trkpt><trkpt lat="34.9094611" lon="33.631795"><ele>12.1</ele><time>2015-05-01T08:13:08.0000000+00:00</time></trkpt><trkpt lat="34.9094555" lon="33.6318652"><ele>12.0</ele><time>2015-05-01T08:13:09.0000000+00:00</time></trkpt><trkpt lat="34.9094554" lon="33.6319322"><ele>12.0</ele><time>2015-05-01T08:13:10.0000000+00:00</time></trkpt><trkpt lat="34.9094522" lon="33.6319998"><ele>12.0</ele><time>2015-05-01T08:13:11.0000000+00:00</time></trkpt><trkpt lat="34.909456" lon="33.6320728"><ele>12.0</ele><time>2015-05-01T08:13:12.0000000+00:00</time></trkpt><trkpt lat="34.909453" lon="33.6321372"><ele>12.0</ele><time>2015-05-01T08:13:13.0000000+00:00</time></trkpt><trkpt lat="34.9094532" lon="33.6322076"><ele>12.0</ele><time>2015-05-01T08:13:14.0000000+00:00</time></trkpt><trkpt lat="34.9094445" lon="33.6322789"><ele>12.0</ele><time>2015-05-01T08:13:15.0000000+00:00</time></trkpt><trkpt lat="34.9094459" lon="33.6323562"><ele>12.0</ele><time>2015-05-01T08:13:16.0000000+00:00</time></trkpt><trkpt lat="34.9094429" lon="33.6324262"><ele>12.0</ele><time>2015-05-01T08:13:17.0000000+00:00</time></trkpt><trkpt lat="34.9094398" lon="33.6324985"><ele>12.0</ele><time>2015-05-01T08:13:18.0000000+00:00</time></trkpt><trkpt lat="34.9094393" lon="33.6325709"><ele>12.0</ele><time>2015-05-01T08:13:19.0000000+00:00</time></trkpt><trkpt lat="34.909444" lon="33.6326427"><ele>11.5</ele><time>2015-05-01T08:13:20.0000000+00:00</time></trkpt><trkpt lat="34.9094454" lon="33.6327072"><ele>11.8</ele><time>2015-05-01T08:13:21.0000000+00:00</time></trkpt><trkpt lat="34.9094481" lon="33.6327625"><ele>11.9</ele><time>2015-05-01T08:13:22.0000000+00:00</time></trkpt><trkpt lat="34.9094381" lon="33.6328482"><ele>12.0</ele><time>2015-05-01T08:13:24.0000000+00:00</time></trkpt><trkpt lat="34.9093884" lon="33.6329075"><ele>12.0</ele><time>2015-05-01T08:13:26.0000000+00:00</time></trkpt><trkpt lat="34.9093133" lon="33.6329706"><ele>12.0</ele><time>2015-05-01T08:13:28.0000000+00:00</time></trkpt><trkpt lat="34.9092698" lon="33.6329983"><ele>12.0</ele><time>2015-05-01T08:13:29.0000000+00:00</time></trkpt><trkpt lat="34.9092207" lon="33.6330225"><ele>11.5</ele><time>2015-05-01T08:13:30.0000000+00:00</time></trkpt><trkpt lat="34.9091737" lon="33.6330474"><ele>11.8</ele><time>2015-05-01T08:13:31.0000000+00:00</time></trkpt><trkpt lat="34.9091222" lon="33.63307"><ele>11.4</ele><time>2015-05-01T08:13:32.0000000+00:00</time></trkpt><trkpt lat="34.9090728" lon="33.633092"><ele>11.2</ele><time>2015-05-01T08:13:33.0000000+00:00</time></trkpt><trkpt lat="34.909024" lon="33.6331077"><ele>10.6</ele><time>2015-05-01T08:13:34.0000000+00:00</time></trkpt><trkpt lat="34.9089716" lon="33.63313"><ele>10.8</ele><time>2015-05-01T08:13:35.0000000+00:00</time></trkpt><trkpt lat="34.9089223" lon="33.6331548"><ele>11.4</ele><time>2015-05-01T08:13:36.0000000+00:00</time></trkpt><trkpt lat="34.9088756" lon="33.6331783"><ele>11.7</ele><time>2015-05-01T08:13:37.0000000+00:00</time></trkpt><trkpt lat="34.9088318" lon="33.6331998"><ele>11.9</ele><time>2015-05-01T08:13:38.0000000+00:00</time></trkpt><trkpt lat="34.908756" lon="33.6332337"><ele>10.7</ele><time>2015-05-01T08:13:40.0000000+00:00</time></trkpt><trkpt lat="34.9087229" lon="33.6333141"><ele>10.2</ele><time>2015-05-01T08:13:42.0000000+00:00</time></trkpt><trkpt lat="34.9087205" lon="33.633422"><ele>9.8</ele><time>2015-05-01T08:13:44.0000000+00:00</time></trkpt><trkpt lat="34.9087322" lon="33.6334774"><ele>9.9</ele><time>2015-05-01T08:13:45.0000000+00:00</time></trkpt><trkpt lat="34.9087397" lon="33.6335437"><ele>10.5</ele><time>2015-05-01T08:13:46.0000000+00:00</time></trkpt><trkpt lat="34.9087464" lon="33.6336063"><ele>10.2</ele><time>2015-05-01T08:13:47.0000000+00:00</time></trkpt><trkpt lat="34.9087538" lon="33.6336743"><ele>10.1</ele><time>2015-05-01T08:13:48.0000000+00:00</time></trkpt><trkpt lat="34.9087594" lon="33.6337384"><ele>10.1</ele><time>2015-05-01T08:13:49.0000000+00:00</time></trkpt><trkpt lat="34.9087646" lon="33.6338091"><ele>10.5</ele><time>2015-05-01T08:13:50.0000000+00:00</time></trkpt><trkpt lat="34.908789" lon="33.6339046"><ele>10.9</ele><time>2015-05-01T08:13:52.0000000+00:00</time></trkpt><trkpt lat="34.9088174" lon="33.6339476"><ele>12.0</ele><time>2015-05-01T08:13:56.0000000+00:00</time></trkpt><trkpt lat="34.9088373" lon="33.6339975"><ele>12.0</ele><time>2015-05-01T08:14:00.0000000+00:00</time></trkpt><trkpt lat="34.9087907" lon="33.634055"><ele>12.9</ele><time>2015-05-01T08:14:03.0000000+00:00</time></trkpt><trkpt lat="34.9087163" lon="33.6340846"><ele>13.5</ele><time>2015-05-01T08:14:05.0000000+00:00</time></trkpt><trkpt lat="34.9086618" lon="33.634094"><ele>13.8</ele><time>2015-05-01T08:14:06.0000000+00:00</time></trkpt><trkpt lat="34.9085772" lon="33.6340937"><ele>13.4</ele><time>2015-05-01T08:14:07.0000000+00:00</time></trkpt><trkpt lat="34.9085274" lon="33.6341001"><ele>13.2</ele><time>2015-05-01T08:14:08.0000000+00:00</time></trkpt><trkpt lat="34.908479" lon="33.6341119"><ele>13.1</ele><time>2015-05-01T08:14:09.0000000+00:00</time></trkpt><trkpt lat="34.9084217" lon="33.6341209"><ele>13.6</ele><time>2015-05-01T08:14:10.0000000+00:00</time></trkpt><trkpt lat="34.9083728" lon="33.6341241"><ele>13.8</ele><time>2015-05-01T08:14:11.0000000+00:00</time></trkpt><trkpt lat="34.9083152" lon="33.6341318"><ele>14.4</ele><time>2015-05-01T08:14:12.0000000+00:00</time></trkpt><trkpt lat="34.9082608" lon="33.6341356"><ele>14.2</ele><time>2015-05-01T08:14:13.0000000+00:00</time></trkpt><trkpt lat="34.9082034" lon="33.6341405"><ele>14.1</ele><time>2015-05-01T08:14:14.0000000+00:00</time></trkpt><trkpt lat="34.9081467" lon="33.6341448"><ele>14.1</ele><time>2015-05-01T08:14:15.0000000+00:00</time></trkpt><trkpt lat="34.9080877" lon="33.6341499"><ele>14.0</ele><time>2015-05-01T08:14:16.0000000+00:00</time></trkpt><trkpt lat="34.9080334" lon="33.6341546"><ele>14.0</ele><time>2015-05-01T08:14:17.0000000+00:00</time></trkpt><trkpt lat="34.9079796" lon="33.6341646"><ele>13.5</ele><time>2015-05-01T08:14:18.0000000+00:00</time></trkpt><trkpt lat="34.9079188" lon="33.6341794"><ele>13.3</ele><time>2015-05-01T08:14:19.0000000+00:00</time></trkpt><trkpt lat="34.9078662" lon="33.6341887"><ele>12.6</ele><time>2015-05-01T08:14:20.0000000+00:00</time></trkpt><trkpt lat="34.9078116" lon="33.6341908"><ele>12.3</ele><time>2015-05-01T08:14:21.0000000+00:00</time></trkpt><trkpt lat="34.9077498" lon="33.6341983"><ele>12.7</ele><time>2015-05-01T08:14:22.0000000+00:00</time></trkpt><trkpt lat="34.9076899" lon="33.6341998"><ele>12.8</ele><time>2015-05-01T08:14:23.0000000+00:00</time></trkpt><trkpt lat="34.9076288" lon="33.6342062"><ele>12.9</ele><time>2015-05-01T08:14:24.0000000+00:00</time></trkpt><trkpt lat="34.9075759" lon="33.6342163"><ele>13.0</ele><time>2015-05-01T08:14:25.0000000+00:00</time></trkpt><trkpt lat="34.907517" lon="33.6342177"><ele>12.5</ele><time>2015-05-01T08:14:26.0000000+00:00</time></trkpt><trkpt lat="34.9074544" lon="33.6342231"><ele>12.3</ele><time>2015-05-01T08:14:27.0000000+00:00</time></trkpt><trkpt lat="34.9073971" lon="33.6342305"><ele>12.1</ele><time>2015-05-01T08:14:28.0000000+00:00</time></trkpt><trkpt lat="34.9073415" lon="33.6342349"><ele>12.1</ele><time>2015-05-01T08:14:29.0000000+00:00</time></trkpt><trkpt lat="34.907284" lon="33.6342377"><ele>12.1</ele><time>2015-05-01T08:14:30.0000000+00:00</time></trkpt><trkpt lat="34.9072273" lon="33.6342382"><ele>12.5</ele><time>2015-05-01T08:14:31.0000000+00:00</time></trkpt><trkpt lat="34.9071673" lon="33.6342391"><ele>12.8</ele><time>2015-05-01T08:14:32.0000000+00:00</time></trkpt><trkpt lat="34.907113" lon="33.6342464"><ele>12.9</ele><time>2015-05-01T08:14:33.0000000+00:00</time></trkpt><trkpt lat="34.9070631" lon="33.6342541"><ele>13.0</ele><time>2015-05-01T08:14:34.0000000+00:00</time></trkpt><trkpt lat="34.9070164" lon="33.6342574"><ele>13.0</ele><time>2015-05-01T08:14:35.0000000+00:00</time></trkpt><trkpt lat="34.9069698" lon="33.6342679"><ele>13.0</ele><time>2015-05-01T08:14:37.0000000+00:00</time></trkpt><trkpt lat="34.9069195" lon="33.6342662"><ele>14.0</ele><time>2015-05-01T08:14:46.0000000+00:00</time></trkpt><trkpt lat="34.9068879" lon="33.6342038"><ele>13.5</ele><time>2015-05-01T08:14:50.0000000+00:00</time></trkpt><trkpt lat="34.9068849" lon="33.634139"><ele>12.6</ele><time>2015-05-01T08:14:52.0000000+00:00</time></trkpt><trkpt lat="34.9068931" lon="33.6340493"><ele>12.2</ele><time>2015-05-01T08:14:54.0000000+00:00</time></trkpt><trkpt lat="34.9068883" lon="33.633945"><ele>12.1</ele><time>2015-05-01T08:14:56.0000000+00:00</time></trkpt><trkpt lat="34.9068694" lon="33.6338086"><ele>12.8</ele><time>2015-05-01T08:14:58.0000000+00:00</time></trkpt><trkpt lat="34.9068614" lon="33.6337435"><ele>12.9</ele><time>2015-05-01T08:14:59.0000000+00:00</time></trkpt><trkpt lat="34.9068606" lon="33.6336782"><ele>13.0</ele><time>2015-05-01T08:15:00.0000000+00:00</time></trkpt><trkpt lat="34.9068556" lon="33.6336144"><ele>13.0</ele><time>2015-05-01T08:15:01.0000000+00:00</time></trkpt><trkpt lat="34.906853" lon="33.6335472"><ele>13.0</ele><time>2015-05-01T08:15:02.0000000+00:00</time></trkpt><trkpt lat="34.9068504" lon="33.6334809"><ele>13.5</ele><time>2015-05-01T08:15:03.0000000+00:00</time></trkpt><trkpt lat="34.9068472" lon="33.6334109"><ele>13.8</ele><time>2015-05-01T08:15:04.0000000+00:00</time></trkpt><trkpt lat="34.9068453" lon="33.6333491"><ele>13.9</ele><time>2015-05-01T08:15:05.0000000+00:00</time></trkpt><trkpt lat="34.9068409" lon="33.6332795"><ele>14.0</ele><time>2015-05-01T08:15:06.0000000+00:00</time></trkpt><trkpt lat="34.9068344" lon="33.6332031"><ele>14.0</ele><time>2015-05-01T08:15:07.0000000+00:00</time></trkpt><trkpt lat="34.9068253" lon="33.6331162"><ele>14.0</ele><time>2015-05-01T08:15:08.0000000+00:00</time></trkpt><trkpt lat="34.9068191" lon="33.6330472"><ele>14.0</ele><time>2015-05-01T08:15:09.0000000+00:00</time></trkpt><trkpt lat="34.9068142" lon="33.6329762"><ele>14.5</ele><time>2015-05-01T08:15:10.0000000+00:00</time></trkpt><trkpt lat="34.9068024" lon="33.6328981"><ele>14.8</ele><time>2015-05-01T08:15:11.0000000+00:00</time></trkpt><trkpt lat="34.9067941" lon="33.6328265"><ele>14.9</ele><time>2015-05-01T08:15:12.0000000+00:00</time></trkpt><trkpt lat="34.9067872" lon="33.6327524"><ele>15.0</ele><time>2015-05-01T08:15:13.0000000+00:00</time></trkpt><trkpt lat="34.9067798" lon="33.6326744"><ele>15.0</ele><time>2015-05-01T08:15:14.0000000+00:00</time></trkpt><trkpt lat="34.9067697" lon="33.632596"><ele>15.0</ele><time>2015-05-01T08:15:15.0000000+00:00</time></trkpt><trkpt lat="34.9067604" lon="33.6325164"><ele>15.0</ele><time>2015-05-01T08:15:16.0000000+00:00</time></trkpt><trkpt lat="34.9067492" lon="33.6324458"><ele>15.0</ele><time>2015-05-01T08:15:17.0000000+00:00</time></trkpt><trkpt lat="34.9067443" lon="33.6323711"><ele>15.0</ele><time>2015-05-01T08:15:18.0000000+00:00</time></trkpt><trkpt lat="34.9067389" lon="33.6322929"><ele>15.0</ele><time>2015-05-01T08:15:19.0000000+00:00</time></trkpt><trkpt lat="34.9067278" lon="33.6322114"><ele>15.0</ele><time>2015-05-01T08:15:20.0000000+00:00</time></trkpt><trkpt lat="34.9067228" lon="33.632136"><ele>14.5</ele><time>2015-05-01T08:15:21.0000000+00:00</time></trkpt><trkpt lat="34.9067148" lon="33.6320588"><ele>14.3</ele><time>2015-05-01T08:15:22.0000000+00:00</time></trkpt><trkpt lat="34.9067055" lon="33.6319793"><ele>14.1</ele><time>2015-05-01T08:15:23.0000000+00:00</time></trkpt><trkpt lat="34.9066939" lon="33.6318914"><ele>14.1</ele><time>2015-05-01T08:15:24.0000000+00:00</time></trkpt><trkpt lat="34.9066853" lon="33.6318087"><ele>14.1</ele><time>2015-05-01T08:15:25.0000000+00:00</time></trkpt><trkpt lat="34.9066756" lon="33.6317309"><ele>14.0</ele><time>2015-05-01T08:15:26.0000000+00:00</time></trkpt><trkpt lat="34.9066604" lon="33.6316566"><ele>14.0</ele><time>2015-05-01T08:15:27.0000000+00:00</time></trkpt><trkpt lat="34.9066388" lon="33.631576"><ele>14.0</ele><time>2015-05-01T08:15:28.0000000+00:00</time></trkpt><trkpt lat="34.9066169" lon="33.6315065"><ele>14.0</ele><time>2015-05-01T08:15:29.0000000+00:00</time></trkpt><trkpt lat="34.9065877" lon="33.6314342"><ele>14.0</ele><time>2015-05-01T08:15:30.0000000+00:00</time></trkpt><trkpt lat="34.9065611" lon="33.6313575"><ele>13.5</ele><time>2015-05-01T08:15:31.0000000+00:00</time></trkpt><trkpt lat="34.9065378" lon="33.6312851"><ele>13.3</ele><time>2015-05-01T08:15:32.0000000+00:00</time></trkpt><trkpt lat="34.9065194" lon="33.6312066"><ele>12.6</ele><time>2015-05-01T08:15:33.0000000+00:00</time></trkpt><trkpt lat="34.9064918" lon="33.631135"><ele>11.8</ele><time>2015-05-01T08:15:34.0000000+00:00</time></trkpt><trkpt lat="34.9064658" lon="33.6310693"><ele>11.9</ele><time>2015-05-01T08:15:35.0000000+00:00</time></trkpt><trkpt lat="34.9064378" lon="33.6309942"><ele>11.5</ele><time>2015-05-01T08:15:36.0000000+00:00</time></trkpt><trkpt lat="34.9064138" lon="33.6309287"><ele>11.2</ele><time>2015-05-01T08:15:37.0000000+00:00</time></trkpt><trkpt lat="34.9063886" lon="33.6308545"><ele>11.1</ele><time>2015-05-01T08:15:38.0000000+00:00</time></trkpt><trkpt lat="34.9063576" lon="33.6307931"><ele>11.1</ele><time>2015-05-01T08:15:39.0000000+00:00</time></trkpt><trkpt lat="34.9063249" lon="33.6307361"><ele>11.0</ele><time>2015-05-01T08:15:40.0000000+00:00</time></trkpt><trkpt lat="34.9062896" lon="33.6306766"><ele>11.0</ele><time>2015-05-01T08:15:41.0000000+00:00</time></trkpt><trkpt lat="34.9062635" lon="33.6306209"><ele>11.0</ele><time>2015-05-01T08:15:42.0000000+00:00</time></trkpt><trkpt lat="34.9062442" lon="33.6305688"><ele>11.0</ele><time>2015-05-01T08:15:43.0000000+00:00</time></trkpt><trkpt lat="34.9062231" lon="33.6305182"><ele>11.0</ele><time>2015-05-01T08:15:44.0000000+00:00</time></trkpt><trkpt lat="34.9061878" lon="33.6304404"><ele>12.8</ele><time>2015-05-01T08:15:46.0000000+00:00</time></trkpt><trkpt lat="34.9061666" lon="33.6303428"><ele>13.7</ele><time>2015-05-01T08:15:48.0000000+00:00</time></trkpt><trkpt lat="34.906152" lon="33.6302604"><ele>14.2</ele><time>2015-05-01T08:15:50.0000000+00:00</time></trkpt><trkpt lat="34.9061525" lon="33.6301915"><ele>15.3</ele><time>2015-05-01T08:15:52.0000000+00:00</time></trkpt><trkpt lat="34.9061452" lon="33.6301214"><ele>15.8</ele><time>2015-05-01T08:15:54.0000000+00:00</time></trkpt><trkpt lat="34.9061415" lon="33.6300552"><ele>16.0</ele><time>2015-05-01T08:15:56.0000000+00:00</time></trkpt><trkpt lat="34.9061396" lon="33.6299825"><ele>15.5</ele><time>2015-05-01T08:15:59.0000000+00:00</time></trkpt><trkpt lat="34.9060718" lon="33.6299604"><ele>14.2</ele><time>2015-05-01T08:16:02.0000000+00:00</time></trkpt><trkpt lat="34.9060114" lon="33.6299714"><ele>12.8</ele><time>2015-05-01T08:16:04.0000000+00:00</time></trkpt><trkpt lat="34.9059544" lon="33.6299812"><ele>11.0</ele><time>2015-05-01T08:16:06.0000000+00:00</time></trkpt><trkpt lat="34.9058883" lon="33.6299906"><ele>10.5</ele><time>2015-05-01T08:16:08.0000000+00:00</time></trkpt><trkpt lat="34.9058058" lon="33.630009"><ele>10.1</ele><time>2015-05-01T08:16:10.0000000+00:00</time></trkpt><trkpt lat="34.9057203" lon="33.6300288"><ele>9.6</ele><time>2015-05-01T08:16:12.0000000+00:00</time></trkpt><trkpt lat="34.9056368" lon="33.630052"><ele>8.9</ele><time>2015-05-01T08:16:14.0000000+00:00</time></trkpt><trkpt lat="34.9055501" lon="33.6300691"><ele>9.0</ele><time>2015-05-01T08:16:16.0000000+00:00</time></trkpt><trkpt lat="34.9054672" lon="33.6300778"><ele>9.0</ele><time>2015-05-01T08:16:18.0000000+00:00</time></trkpt><trkpt lat="34.9053839" lon="33.6300899"><ele>9.8</ele><time>2015-05-01T08:16:20.0000000+00:00</time></trkpt><trkpt lat="34.905301" lon="33.6301029"><ele>10.0</ele><time>2015-05-01T08:16:22.0000000+00:00</time></trkpt><trkpt lat="34.9052453" lon="33.630106"><ele>10.0</ele><time>2015-05-01T08:16:23.0000000+00:00</time></trkpt><trkpt lat="34.9051917" lon="33.6301112"><ele>10.5</ele><time>2015-05-01T08:16:24.0000000+00:00</time></trkpt><trkpt lat="34.9051452" lon="33.6301228"><ele>10.8</ele><time>2015-05-01T08:16:25.0000000+00:00</time></trkpt><trkpt lat="34.9050972" lon="33.6301303"><ele>10.4</ele><time>2015-05-01T08:16:26.0000000+00:00</time></trkpt><trkpt lat="34.9050497" lon="33.6301342"><ele>10.2</ele><time>2015-05-01T08:16:27.0000000+00:00</time></trkpt><trkpt lat="34.9049999" lon="33.6301454"><ele>9.1</ele><time>2015-05-01T08:16:28.0000000+00:00</time></trkpt><trkpt lat="34.9049521" lon="33.6301502"><ele>8.6</ele><time>2015-05-01T08:16:29.0000000+00:00</time></trkpt><trkpt lat="34.9049054" lon="33.6301567"><ele>8.3</ele><time>2015-05-01T08:16:30.0000000+00:00</time></trkpt><trkpt lat="34.9048302" lon="33.6301642"><ele>9.3</ele><time>2015-05-01T08:16:32.0000000+00:00</time></trkpt><trkpt lat="34.9047701" lon="33.6301533"><ele>9.1</ele><time>2015-05-01T08:16:34.0000000+00:00</time></trkpt><trkpt lat="34.9046913" lon="33.6301738"><ele>9.0</ele><time>2015-05-01T08:16:36.0000000+00:00</time></trkpt><trkpt lat="34.904597" lon="33.6301974"><ele>9.8</ele><time>2015-05-01T08:16:38.0000000+00:00</time></trkpt><trkpt lat="34.9045421" lon="33.6302077"><ele>10.4</ele><time>2015-05-01T08:16:39.0000000+00:00</time></trkpt><trkpt lat="34.9044852" lon="33.630216"><ele>10.7</ele><time>2015-05-01T08:16:40.0000000+00:00</time></trkpt><trkpt lat="34.9044326" lon="33.6302278"><ele>11.4</ele><time>2015-05-01T08:16:41.0000000+00:00</time></trkpt><trkpt lat="34.9043713" lon="33.6302404"><ele>11.7</ele><time>2015-05-01T08:16:42.0000000+00:00</time></trkpt><trkpt lat="34.904314" lon="33.6302518"><ele>11.9</ele><time>2015-05-01T08:16:43.0000000+00:00</time></trkpt><trkpt lat="34.9042485" lon="33.6302652"><ele>11.9</ele><time>2015-05-01T08:16:44.0000000+00:00</time></trkpt><trkpt lat="34.9041964" lon="33.630274"><ele>12.0</ele><time>2015-05-01T08:16:45.0000000+00:00</time></trkpt><trkpt lat="34.9041405" lon="33.6302864"><ele>11.5</ele><time>2015-05-01T08:16:46.0000000+00:00</time></trkpt><trkpt lat="34.9040827" lon="33.6302954"><ele>11.8</ele><time>2015-05-01T08:16:47.0000000+00:00</time></trkpt><trkpt lat="34.9040207" lon="33.6303018"><ele>11.9</ele><time>2015-05-01T08:16:48.0000000+00:00</time></trkpt><trkpt lat="34.9039605" lon="33.6303127"><ele>12.5</ele><time>2015-05-01T08:16:49.0000000+00:00</time></trkpt><trkpt lat="34.903898" lon="33.6303222"><ele>12.7</ele><time>2015-05-01T08:16:50.0000000+00:00</time></trkpt><trkpt lat="34.9038455" lon="33.6303278"><ele>12.9</ele><time>2015-05-01T08:16:51.0000000+00:00</time></trkpt><trkpt lat="34.9037843" lon="33.6303394"><ele>13.0</ele><time>2015-05-01T08:16:52.0000000+00:00</time></trkpt><trkpt lat="34.9037264" lon="33.6303516"><ele>13.5</ele><time>2015-05-01T08:16:53.0000000+00:00</time></trkpt><trkpt lat="34.9036627" lon="33.6303629"><ele>13.8</ele><time>2015-05-01T08:16:54.0000000+00:00</time></trkpt><trkpt lat="34.9036013" lon="33.6303775"><ele>13.9</ele><time>2015-05-01T08:16:55.0000000+00:00</time></trkpt><trkpt lat="34.9035371" lon="33.6303862"><ele>14.5</ele><time>2015-05-01T08:16:56.0000000+00:00</time></trkpt><trkpt lat="34.9034802" lon="33.6303945"><ele>15.2</ele><time>2015-05-01T08:16:57.0000000+00:00</time></trkpt><trkpt lat="34.90342" lon="33.6303997"><ele>15.6</ele><time>2015-05-01T08:16:58.0000000+00:00</time></trkpt><trkpt lat="34.9033579" lon="33.6304086"><ele>15.8</ele><time>2015-05-01T08:16:59.0000000+00:00</time></trkpt><trkpt lat="34.9032944" lon="33.6304067"><ele>15.4</ele><time>2015-05-01T08:17:00.0000000+00:00</time></trkpt><trkpt lat="34.9032342" lon="33.6304095"><ele>15.7</ele><time>2015-05-01T08:17:01.0000000+00:00</time></trkpt><trkpt lat="34.9031719" lon="33.6304094"><ele>15.9</ele><time>2015-05-01T08:17:02.0000000+00:00</time></trkpt><trkpt lat="34.9031096" lon="33.6304158"><ele>15.9</ele><time>2015-05-01T08:17:03.0000000+00:00</time></trkpt><trkpt lat="34.9030511" lon="33.630421"><ele>16.0</ele><time>2015-05-01T08:17:04.0000000+00:00</time></trkpt><trkpt lat="34.9029939" lon="33.630422"><ele>16.0</ele><time>2015-05-01T08:17:05.0000000+00:00</time></trkpt><trkpt lat="34.9029346" lon="33.6304224"><ele>16.0</ele><time>2015-05-01T08:17:06.0000000+00:00</time></trkpt><trkpt lat="34.902883" lon="33.6304213"><ele>16.0</ele><time>2015-05-01T08:17:07.0000000+00:00</time></trkpt><trkpt lat="34.9028272" lon="33.6304206"><ele>16.0</ele><time>2015-05-01T08:17:08.0000000+00:00</time></trkpt><trkpt lat="34.9027757" lon="33.6304172"><ele>16.0</ele><time>2015-05-01T08:17:09.0000000+00:00</time></trkpt><trkpt lat="34.9027209" lon="33.6304194"><ele>16.5</ele><time>2015-05-01T08:17:10.0000000+00:00</time></trkpt><trkpt lat="34.9026662" lon="33.6304147"><ele>16.3</ele><time>2015-05-01T08:17:11.0000000+00:00</time></trkpt><trkpt lat="34.9026098" lon="33.6304159"><ele>16.1</ele><time>2015-05-01T08:17:12.0000000+00:00</time></trkpt><trkpt lat="34.9025564" lon="33.6304144"><ele>16.1</ele><time>2015-05-01T08:17:13.0000000+00:00</time></trkpt><trkpt lat="34.9025" lon="33.6304144"><ele>16.1</ele><time>2015-05-01T08:17:14.0000000+00:00</time></trkpt><trkpt lat="34.9024489" lon="33.6304109"><ele>16.0</ele><time>2015-05-01T08:17:15.0000000+00:00</time></trkpt><trkpt lat="34.9023912" lon="33.6304143"><ele>16.0</ele><time>2015-05-01T08:17:16.0000000+00:00</time></trkpt><trkpt lat="34.9023383" lon="33.6304154"><ele>16.0</ele><time>2015-05-01T08:17:17.0000000+00:00</time></trkpt><trkpt lat="34.9022866" lon="33.6304173"><ele>15.5</ele><time>2015-05-01T08:17:18.0000000+00:00</time></trkpt><trkpt lat="34.9022352" lon="33.6304162"><ele>15.3</ele><time>2015-05-01T08:17:19.0000000+00:00</time></trkpt><trkpt lat="34.9021799" lon="33.6304157"><ele>15.1</ele><time>2015-05-01T08:17:20.0000000+00:00</time></trkpt><trkpt lat="34.9021251" lon="33.6304108"><ele>15.1</ele><time>2015-05-01T08:17:21.0000000+00:00</time></trkpt><trkpt lat="34.902072" lon="33.6304097"><ele>15.1</ele><time>2015-05-01T08:17:22.0000000+00:00</time></trkpt><trkpt lat="34.9020137" lon="33.6304114"><ele>15.0</ele><time>2015-05-01T08:17:23.0000000+00:00</time></trkpt><trkpt lat="34.9019601" lon="33.6304089"><ele>14.5</ele><time>2015-05-01T08:17:24.0000000+00:00</time></trkpt><trkpt lat="34.9019032" lon="33.6304073"><ele>14.3</ele><time>2015-05-01T08:17:25.0000000+00:00</time></trkpt><trkpt lat="34.9018436" lon="33.6304023"><ele>14.1</ele><time>2015-05-01T08:17:26.0000000+00:00</time></trkpt><trkpt lat="34.9017883" lon="33.6304021"><ele>14.1</ele><time>2015-05-01T08:17:27.0000000+00:00</time></trkpt><trkpt lat="34.9017241" lon="33.6304022"><ele>14.1</ele><time>2015-05-01T08:17:28.0000000+00:00</time></trkpt><trkpt lat="34.9016721" lon="33.6304024"><ele>14.0</ele><time>2015-05-01T08:17:29.0000000+00:00</time></trkpt><trkpt lat="34.9016186" lon="33.6304034"><ele>14.0</ele><time>2015-05-01T08:17:30.0000000+00:00</time></trkpt><trkpt lat="34.9015681" lon="33.6304079"><ele>13.5</ele><time>2015-05-01T08:17:31.0000000+00:00</time></trkpt><trkpt lat="34.9015164" lon="33.6304085"><ele>13.3</ele><time>2015-05-01T08:17:32.0000000+00:00</time></trkpt><trkpt lat="34.9014642" lon="33.6304097"><ele>13.1</ele><time>2015-05-01T08:17:33.0000000+00:00</time></trkpt><trkpt lat="34.9014132" lon="33.6304137"><ele>13.6</ele><time>2015-05-01T08:17:34.0000000+00:00</time></trkpt><trkpt lat="34.901361" lon="33.630416"><ele>14.3</ele><time>2015-05-01T08:17:35.0000000+00:00</time></trkpt><trkpt lat="34.9012994" lon="33.6304141"><ele>14.7</ele><time>2015-05-01T08:17:36.0000000+00:00</time></trkpt><trkpt lat="34.9012448" lon="33.6304064"><ele>14.8</ele><time>2015-05-01T08:17:37.0000000+00:00</time></trkpt><trkpt lat="34.9011866" lon="33.6303966"><ele>14.9</ele><time>2015-05-01T08:17:38.0000000+00:00</time></trkpt><trkpt lat="34.9011282" lon="33.6303925"><ele>15.0</ele><time>2015-05-01T08:17:39.0000000+00:00</time></trkpt><trkpt lat="34.9010698" lon="33.6303912"><ele>15.0</ele><time>2015-05-01T08:17:40.0000000+00:00</time></trkpt><trkpt lat="34.9010133" lon="33.630391"><ele>15.0</ele><time>2015-05-01T08:17:41.0000000+00:00</time></trkpt><trkpt lat="34.900951" lon="33.6303839"><ele>15.5</ele><time>2015-05-01T08:17:42.0000000+00:00</time></trkpt><trkpt lat="34.9008953" lon="33.6303832"><ele>15.3</ele><time>2015-05-01T08:17:43.0000000+00:00</time></trkpt><trkpt lat="34.9008306" lon="33.6303794"><ele>15.1</ele><time>2015-05-01T08:17:44.0000000+00:00</time></trkpt><trkpt lat="34.9007786" lon="33.6303812"><ele>14.6</ele><time>2015-05-01T08:17:45.0000000+00:00</time></trkpt><trkpt lat="34.9007146" lon="33.6303815"><ele>13.8</ele><time>2015-05-01T08:17:46.0000000+00:00</time></trkpt><trkpt lat="34.9006568" lon="33.6303809"><ele>13.4</ele><time>2015-05-01T08:17:47.0000000+00:00</time></trkpt><trkpt lat="34.9005913" lon="33.6303843"><ele>12.7</ele><time>2015-05-01T08:17:48.0000000+00:00</time></trkpt><trkpt lat="34.9005271" lon="33.6303838"><ele>12.9</ele><time>2015-05-01T08:17:49.0000000+00:00</time></trkpt><trkpt lat="34.9004583" lon="33.6303824"><ele>12.9</ele><time>2015-05-01T08:17:50.0000000+00:00</time></trkpt><trkpt lat="34.9003912" lon="33.6303814"><ele>13.0</ele><time>2015-05-01T08:17:51.0000000+00:00</time></trkpt><trkpt lat="34.9003183" lon="33.6303776"><ele>13.0</ele><time>2015-05-01T08:17:52.0000000+00:00</time></trkpt><trkpt lat="34.9002516" lon="33.6303744"><ele>12.5</ele><time>2015-05-01T08:17:53.0000000+00:00</time></trkpt><trkpt lat="34.9001785" lon="33.6303708"><ele>12.3</ele><time>2015-05-01T08:17:54.0000000+00:00</time></trkpt><trkpt lat="34.9001077" lon="33.6303674"><ele>12.1</ele><time>2015-05-01T08:17:55.0000000+00:00</time></trkpt><trkpt lat="34.9000289" lon="33.6303713"><ele>11.6</ele><time>2015-05-01T08:17:56.0000000+00:00</time></trkpt><trkpt lat="34.8999609" lon="33.6303765"><ele>11.3</ele><time>2015-05-01T08:17:57.0000000+00:00</time></trkpt><trkpt lat="34.8998902" lon="33.6303774"><ele>11.2</ele><time>2015-05-01T08:17:58.0000000+00:00</time></trkpt><trkpt lat="34.8998151" lon="33.6303748"><ele>11.1</ele><time>2015-05-01T08:17:59.0000000+00:00</time></trkpt><trkpt lat="34.8997353" lon="33.6303752"><ele>10.6</ele><time>2015-05-01T08:18:00.0000000+00:00</time></trkpt><trkpt lat="34.8996656" lon="33.6303704"><ele>9.8</ele><time>2015-05-01T08:18:01.0000000+00:00</time></trkpt><trkpt lat="34.8995923" lon="33.6303688"><ele>8.9</ele><time>2015-05-01T08:18:02.0000000+00:00</time></trkpt><trkpt lat="34.899514" lon="33.6303673"><ele>8.5</ele><time>2015-05-01T08:18:03.0000000+00:00</time></trkpt><trkpt lat="34.8994301" lon="33.6303688"><ele>8.2</ele><time>2015-05-01T08:18:04.0000000+00:00</time></trkpt><trkpt lat="34.899353" lon="33.6303702"><ele>7.6</ele><time>2015-05-01T08:18:05.0000000+00:00</time></trkpt><trkpt lat="34.8992781" lon="33.630367"><ele>7.3</ele><time>2015-05-01T08:18:06.0000000+00:00</time></trkpt><trkpt lat="34.8991967" lon="33.6303681"><ele>6.7</ele><time>2015-05-01T08:18:07.0000000+00:00</time></trkpt><trkpt lat="34.8991105" lon="33.6303709"><ele>6.3</ele><time>2015-05-01T08:18:08.0000000+00:00</time></trkpt><trkpt lat="34.8990325" lon="33.6303681"><ele>6.2</ele><time>2015-05-01T08:18:09.0000000+00:00</time></trkpt><trkpt lat="34.8989512" lon="33.6303614"><ele>6.1</ele><time>2015-05-01T08:18:10.0000000+00:00</time></trkpt><trkpt lat="34.8988657" lon="33.6303625"><ele>6.1</ele><time>2015-05-01T08:18:11.0000000+00:00</time></trkpt><trkpt lat="34.8987837" lon="33.6303641"><ele>6.5</ele><time>2015-05-01T08:18:12.0000000+00:00</time></trkpt><trkpt lat="34.8986988" lon="33.6303672"><ele>6.8</ele><time>2015-05-01T08:18:13.0000000+00:00</time></trkpt><trkpt lat="34.8986135" lon="33.6303696"><ele>7.4</ele><time>2015-05-01T08:18:14.0000000+00:00</time></trkpt><trkpt lat="34.8985303" lon="33.6303757"><ele>7.2</ele><time>2015-05-01T08:18:15.0000000+00:00</time></trkpt><trkpt lat="34.8984441" lon="33.6303818"><ele>7.1</ele><time>2015-05-01T08:18:16.0000000+00:00</time></trkpt><trkpt lat="34.8983609" lon="33.6303885"><ele>7.6</ele><time>2015-05-01T08:18:17.0000000+00:00</time></trkpt><trkpt lat="34.8982821" lon="33.6304007"><ele>7.8</ele><time>2015-05-01T08:18:18.0000000+00:00</time></trkpt><trkpt lat="34.8981943" lon="33.630411"><ele>7.4</ele><time>2015-05-01T08:18:19.0000000+00:00</time></trkpt><trkpt lat="34.8981069" lon="33.6304184"><ele>7.2</ele><time>2015-05-01T08:18:20.0000000+00:00</time></trkpt><trkpt lat="34.8980239" lon="33.630425"><ele>6.6</ele><time>2015-05-01T08:18:21.0000000+00:00</time></trkpt><trkpt lat="34.8979409" lon="33.6304289"><ele>6.8</ele><time>2015-05-01T08:18:22.0000000+00:00</time></trkpt><trkpt lat="34.897855" lon="33.630436"><ele>6.9</ele><time>2015-05-01T08:18:23.0000000+00:00</time></trkpt><trkpt lat="34.897768" lon="33.630442"><ele>7.0</ele><time>2015-05-01T08:18:24.0000000+00:00</time></trkpt><trkpt lat="34.8976871" lon="33.630448"><ele>7.0</ele><time>2015-05-01T08:18:25.0000000+00:00</time></trkpt><trkpt lat="34.8976013" lon="33.630452"><ele>6.5</ele><time>2015-05-01T08:18:26.0000000+00:00</time></trkpt><trkpt lat="34.8975194" lon="33.6304595"><ele>6.8</ele><time>2015-05-01T08:18:27.0000000+00:00</time></trkpt><trkpt lat="34.8974356" lon="33.6304688"><ele>6.9</ele><time>2015-05-01T08:18:28.0000000+00:00</time></trkpt><trkpt lat="34.89736" lon="33.6304794"><ele>7.0</ele><time>2015-05-01T08:18:29.0000000+00:00</time></trkpt><trkpt lat="34.8972818" lon="33.6304875"><ele>7.0</ele><time>2015-05-01T08:18:30.0000000+00:00</time></trkpt><trkpt lat="34.8972026" lon="33.6304955"><ele>7.0</ele><time>2015-05-01T08:18:31.0000000+00:00</time></trkpt><trkpt lat="34.8971218" lon="33.6305041"><ele>7.0</ele><time>2015-05-01T08:18:32.0000000+00:00</time></trkpt><trkpt lat="34.8970432" lon="33.6305148"><ele>7.5</ele><time>2015-05-01T08:18:33.0000000+00:00</time></trkpt><trkpt lat="34.8969631" lon="33.6305263"><ele>7.3</ele><time>2015-05-01T08:18:34.0000000+00:00</time></trkpt><trkpt lat="34.8968863" lon="33.6305425"><ele>7.1</ele><time>2015-05-01T08:18:35.0000000+00:00</time></trkpt><trkpt lat="34.8968048" lon="33.6305585"><ele>7.1</ele><time>2015-05-01T08:18:36.0000000+00:00</time></trkpt><trkpt lat="34.8967327" lon="33.6305796"><ele>7.1</ele><time>2015-05-01T08:18:37.0000000+00:00</time></trkpt><trkpt lat="34.8966599" lon="33.6306015"><ele>7.0</ele><time>2015-05-01T08:18:38.0000000+00:00</time></trkpt><trkpt lat="34.8965885" lon="33.6306281"><ele>7.0</ele><time>2015-05-01T08:18:39.0000000+00:00</time></trkpt><trkpt lat="34.8965157" lon="33.6306516"><ele>6.5</ele><time>2015-05-01T08:18:40.0000000+00:00</time></trkpt><trkpt lat="34.8964454" lon="33.6306816"><ele>6.3</ele><time>2015-05-01T08:18:41.0000000+00:00</time></trkpt><trkpt lat="34.8963708" lon="33.6307131"><ele>5.1</ele><time>2015-05-01T08:18:42.0000000+00:00</time></trkpt><trkpt lat="34.8963045" lon="33.6307465"><ele>4.6</ele><time>2015-05-01T08:18:43.0000000+00:00</time></trkpt><trkpt lat="34.8962324" lon="33.6307904"><ele>4.3</ele><time>2015-05-01T08:18:44.0000000+00:00</time></trkpt><trkpt lat="34.8961663" lon="33.6308277"><ele>4.2</ele><time>2015-05-01T08:18:45.0000000+00:00</time></trkpt><trkpt lat="34.8960948" lon="33.6308677"><ele>4.1</ele><time>2015-05-01T08:18:46.0000000+00:00</time></trkpt><trkpt lat="34.8960265" lon="33.630913"><ele>4.1</ele><time>2015-05-01T08:18:47.0000000+00:00</time></trkpt><trkpt lat="34.8959597" lon="33.6309608"><ele>4.0</ele><time>2015-05-01T08:18:48.0000000+00:00</time></trkpt><trkpt lat="34.8959006" lon="33.6310025"><ele>4.0</ele><time>2015-05-01T08:18:49.0000000+00:00</time></trkpt><trkpt lat="34.8958376" lon="33.6310472"><ele>3.5</ele><time>2015-05-01T08:18:50.0000000+00:00</time></trkpt><trkpt lat="34.89578" lon="33.6310936"><ele>3.3</ele><time>2015-05-01T08:18:51.0000000+00:00</time></trkpt><trkpt lat="34.895723" lon="33.6311401"><ele>3.1</ele><time>2015-05-01T08:18:52.0000000+00:00</time></trkpt><trkpt lat="34.8956695" lon="33.6311853"><ele>3.1</ele><time>2015-05-01T08:18:53.0000000+00:00</time></trkpt><trkpt lat="34.8956163" lon="33.6312258"><ele>3.1</ele><time>2015-05-01T08:18:54.0000000+00:00</time></trkpt><trkpt lat="34.8955652" lon="33.6312674"><ele>2.5</ele><time>2015-05-01T08:18:55.0000000+00:00</time></trkpt><trkpt lat="34.8955142" lon="33.6313094"><ele>2.8</ele><time>2015-05-01T08:18:56.0000000+00:00</time></trkpt><trkpt lat="34.8954655" lon="33.6313497"><ele>2.4</ele><time>2015-05-01T08:18:57.0000000+00:00</time></trkpt><trkpt lat="34.8954115" lon="33.6313895"><ele>2.7</ele><time>2015-05-01T08:18:58.0000000+00:00</time></trkpt><trkpt lat="34.8953597" lon="33.6314304"><ele>2.9</ele><time>2015-05-01T08:18:59.0000000+00:00</time></trkpt><trkpt lat="34.8953069" lon="33.6314746"><ele>2.9</ele><time>2015-05-01T08:19:00.0000000+00:00</time></trkpt><trkpt lat="34.8952556" lon="33.631519"><ele>3.0</ele><time>2015-05-01T08:19:01.0000000+00:00</time></trkpt><trkpt lat="34.8952044" lon="33.6315557"><ele>3.5</ele><time>2015-05-01T08:19:02.0000000+00:00</time></trkpt><trkpt lat="34.8951527" lon="33.6315996"><ele>3.3</ele><time>2015-05-01T08:19:03.0000000+00:00</time></trkpt><trkpt lat="34.8951001" lon="33.6316454"><ele>3.6</ele><time>2015-05-01T08:19:04.0000000+00:00</time></trkpt><trkpt lat="34.8950501" lon="33.6316848"><ele>3.3</ele><time>2015-05-01T08:19:05.0000000+00:00</time></trkpt><trkpt lat="34.8949939" lon="33.6317302"><ele>3.7</ele><time>2015-05-01T08:19:06.0000000+00:00</time></trkpt><trkpt lat="34.8949388" lon="33.631779"><ele>3.8</ele><time>2015-05-01T08:19:07.0000000+00:00</time></trkpt><trkpt lat="34.8948884" lon="33.6318266"><ele>3.9</ele><time>2015-05-01T08:19:08.0000000+00:00</time></trkpt><trkpt lat="34.8948395" lon="33.6318703"><ele>4.0</ele><time>2015-05-01T08:19:09.0000000+00:00</time></trkpt><trkpt lat="34.8947886" lon="33.6319154"><ele>4.0</ele><time>2015-05-01T08:19:10.0000000+00:00</time></trkpt><trkpt lat="34.8947415" lon="33.6319587"><ele>4.0</ele><time>2015-05-01T08:19:11.0000000+00:00</time></trkpt><trkpt lat="34.8946887" lon="33.6320053"><ele>4.5</ele><time>2015-05-01T08:19:12.0000000+00:00</time></trkpt><trkpt lat="34.8946389" lon="33.6320503"><ele>4.8</ele><time>2015-05-01T08:19:13.0000000+00:00</time></trkpt><trkpt lat="34.89459" lon="33.6320884"><ele>4.9</ele><time>2015-05-01T08:19:14.0000000+00:00</time></trkpt><trkpt lat="34.8945422" lon="33.6321258"><ele>5.0</ele><time>2015-05-01T08:19:15.0000000+00:00</time></trkpt><trkpt lat="34.8944919" lon="33.6321595"><ele>5.0</ele><time>2015-05-01T08:19:16.0000000+00:00</time></trkpt><trkpt lat="34.8944448" lon="33.6321944"><ele>5.0</ele><time>2015-05-01T08:19:17.0000000+00:00</time></trkpt><trkpt lat="34.8943946" lon="33.632228"><ele>5.0</ele><time>2015-05-01T08:19:18.0000000+00:00</time></trkpt><trkpt lat="34.8943459" lon="33.6322607"><ele>5.0</ele><time>2015-05-01T08:19:19.0000000+00:00</time></trkpt><trkpt lat="34.8942938" lon="33.6322943"><ele>5.5</ele><time>2015-05-01T08:19:20.0000000+00:00</time></trkpt><trkpt lat="34.8942414" lon="33.6323196"><ele>5.8</ele><time>2015-05-01T08:19:21.0000000+00:00</time></trkpt><trkpt lat="34.894191" lon="33.6323486"><ele>5.4</ele><time>2015-05-01T08:19:22.0000000+00:00</time></trkpt><trkpt lat="34.8941394" lon="33.6323721"><ele>5.2</ele><time>2015-05-01T08:19:23.0000000+00:00</time></trkpt><trkpt lat="34.8940904" lon="33.6323924"><ele>5.1</ele><time>2015-05-01T08:19:24.0000000+00:00</time></trkpt><trkpt lat="34.8940466" lon="33.6324157"><ele>5.6</ele><time>2015-05-01T08:19:25.0000000+00:00</time></trkpt><trkpt lat="34.8940028" lon="33.6324349"><ele>5.8</ele><time>2015-05-01T08:19:26.0000000+00:00</time></trkpt><trkpt lat="34.8939569" lon="33.6324473"><ele>5.9</ele><time>2015-05-01T08:19:27.0000000+00:00</time></trkpt><trkpt lat="34.8938696" lon="33.6324612"><ele>6.0</ele><time>2015-05-01T08:19:29.0000000+00:00</time></trkpt><trkpt lat="34.8938198" lon="33.6324761"><ele>6.0</ele><time>2015-05-01T08:19:30.0000000+00:00</time></trkpt><trkpt lat="34.893774" lon="33.6324861"><ele>6.0</ele><time>2015-05-01T08:19:31.0000000+00:00</time></trkpt><trkpt lat="34.8937232" lon="33.6324952"><ele>6.0</ele><time>2015-05-01T08:19:32.0000000+00:00</time></trkpt><trkpt lat="34.893672" lon="33.6325006"><ele>6.5</ele><time>2015-05-01T08:19:33.0000000+00:00</time></trkpt><trkpt lat="34.893624" lon="33.6325066"><ele>6.8</ele><time>2015-05-01T08:19:34.0000000+00:00</time></trkpt><trkpt lat="34.8935764" lon="33.6325098"><ele>6.9</ele><time>2015-05-01T08:19:35.0000000+00:00</time></trkpt><trkpt lat="34.8934949" lon="33.6325128"><ele>7.0</ele><time>2015-05-01T08:19:37.0000000+00:00</time></trkpt><trkpt lat="34.8934041" lon="33.6325202"><ele>6.5</ele><time>2015-05-01T08:19:39.0000000+00:00</time></trkpt><trkpt lat="34.8933584" lon="33.6325226"><ele>6.3</ele><time>2015-05-01T08:19:40.0000000+00:00</time></trkpt><trkpt lat="34.8933117" lon="33.6325104"><ele>6.1</ele><time>2015-05-01T08:19:41.0000000+00:00</time></trkpt><trkpt lat="34.8932665" lon="33.6324983"><ele>6.1</ele><time>2015-05-01T08:19:42.0000000+00:00</time></trkpt><trkpt lat="34.8932154" lon="33.6324854"><ele>5.6</ele><time>2015-05-01T08:19:43.0000000+00:00</time></trkpt><trkpt lat="34.8931613" lon="33.632473"><ele>5.3</ele><time>2015-05-01T08:19:44.0000000+00:00</time></trkpt><trkpt lat="34.8931156" lon="33.6324626"><ele>5.7</ele><time>2015-05-01T08:19:45.0000000+00:00</time></trkpt><trkpt lat="34.8930637" lon="33.6324505"><ele>5.8</ele><time>2015-05-01T08:19:46.0000000+00:00</time></trkpt><trkpt lat="34.8930103" lon="33.6324351"><ele>5.4</ele><time>2015-05-01T08:19:47.0000000+00:00</time></trkpt><trkpt lat="34.892953" lon="33.6324137"><ele>5.7</ele><time>2015-05-01T08:19:48.0000000+00:00</time></trkpt><trkpt lat="34.8929003" lon="33.6323923"><ele>5.9</ele><time>2015-05-01T08:19:49.0000000+00:00</time></trkpt><trkpt lat="34.892843" lon="33.6323675"><ele>5.9</ele><time>2015-05-01T08:19:50.0000000+00:00</time></trkpt><trkpt lat="34.892787" lon="33.6323419"><ele>5.5</ele><time>2015-05-01T08:19:51.0000000+00:00</time></trkpt><trkpt lat="34.8927294" lon="33.6323194"><ele>5.3</ele><time>2015-05-01T08:19:52.0000000+00:00</time></trkpt><trkpt lat="34.8926758" lon="33.6322915"><ele>5.1</ele><time>2015-05-01T08:19:53.0000000+00:00</time></trkpt><trkpt lat="34.8926225" lon="33.6322596"><ele>5.1</ele><time>2015-05-01T08:19:54.0000000+00:00</time></trkpt><trkpt lat="34.8925682" lon="33.6322234"><ele>5.0</ele><time>2015-05-01T08:19:55.0000000+00:00</time></trkpt><trkpt lat="34.8925134" lon="33.6321838"><ele>5.0</ele><time>2015-05-01T08:19:56.0000000+00:00</time></trkpt><trkpt lat="34.8924626" lon="33.6321491"><ele>5.0</ele><time>2015-05-01T08:19:57.0000000+00:00</time></trkpt><trkpt lat="34.8924097" lon="33.63211"><ele>5.0</ele><time>2015-05-01T08:19:58.0000000+00:00</time></trkpt><trkpt lat="34.8923617" lon="33.6320685"><ele>5.0</ele><time>2015-05-01T08:19:59.0000000+00:00</time></trkpt><trkpt lat="34.8923094" lon="33.632018"><ele>5.0</ele><time>2015-05-01T08:20:00.0000000+00:00</time></trkpt><trkpt lat="34.892264" lon="33.6319759"><ele>5.0</ele><time>2015-05-01T08:20:01.0000000+00:00</time></trkpt><trkpt lat="34.8922179" lon="33.6319299"><ele>5.0</ele><time>2015-05-01T08:20:02.0000000+00:00</time></trkpt><trkpt lat="34.8921748" lon="33.631886"><ele>5.0</ele><time>2015-05-01T08:20:03.0000000+00:00</time></trkpt><trkpt lat="34.8921293" lon="33.6318438"><ele>5.0</ele><time>2015-05-01T08:20:04.0000000+00:00</time></trkpt><trkpt lat="34.8920889" lon="33.6317976"><ele>5.0</ele><time>2015-05-01T08:20:05.0000000+00:00</time></trkpt><trkpt lat="34.892044" lon="33.6317554"><ele>4.5</ele><time>2015-05-01T08:20:06.0000000+00:00</time></trkpt><trkpt lat="34.8919984" lon="33.6317102"><ele>4.3</ele><time>2015-05-01T08:20:07.0000000+00:00</time></trkpt><trkpt lat="34.8919533" lon="33.6316657"><ele>4.1</ele><time>2015-05-01T08:20:08.0000000+00:00</time></trkpt><trkpt lat="34.8919106" lon="33.631625"><ele>4.1</ele><time>2015-05-01T08:20:09.0000000+00:00</time></trkpt><trkpt lat="34.8918617" lon="33.6315874"><ele>4.1</ele><time>2015-05-01T08:20:10.0000000+00:00</time></trkpt><trkpt lat="34.8918143" lon="33.6315462"><ele>4.5</ele><time>2015-05-01T08:20:11.0000000+00:00</time></trkpt><trkpt lat="34.8917671" lon="33.6315023"><ele>4.8</ele><time>2015-05-01T08:20:12.0000000+00:00</time></trkpt><trkpt lat="34.8917212" lon="33.6314626"><ele>4.9</ele><time>2015-05-01T08:20:13.0000000+00:00</time></trkpt><trkpt lat="34.8916717" lon="33.6314211"><ele>5.0</ele><time>2015-05-01T08:20:14.0000000+00:00</time></trkpt><trkpt lat="34.8916245" lon="33.6313775"><ele>5.0</ele><time>2015-05-01T08:20:15.0000000+00:00</time></trkpt><trkpt lat="34.8915774" lon="33.6313312"><ele>5.0</ele><time>2015-05-01T08:20:16.0000000+00:00</time></trkpt><trkpt lat="34.8915321" lon="33.6312883"><ele>5.0</ele><time>2015-05-01T08:20:17.0000000+00:00</time></trkpt><trkpt lat="34.8914863" lon="33.6312476"><ele>5.0</ele><time>2015-05-01T08:20:18.0000000+00:00</time></trkpt><trkpt lat="34.8914408" lon="33.631207"><ele>5.0</ele><time>2015-05-01T08:20:19.0000000+00:00</time></trkpt><trkpt lat="34.8913894" lon="33.6311638"><ele>5.0</ele><time>2015-05-01T08:20:20.0000000+00:00</time></trkpt><trkpt lat="34.8913432" lon="33.6311228"><ele>5.5</ele><time>2015-05-01T08:20:21.0000000+00:00</time></trkpt><trkpt lat="34.8912973" lon="33.6310873"><ele>5.8</ele><time>2015-05-01T08:20:22.0000000+00:00</time></trkpt><trkpt lat="34.8912531" lon="33.6310469"><ele>5.9</ele><time>2015-05-01T08:20:23.0000000+00:00</time></trkpt><trkpt lat="34.8912092" lon="33.6310038"><ele>6.0</ele><time>2015-05-01T08:20:24.0000000+00:00</time></trkpt><trkpt lat="34.8911682" lon="33.6309631"><ele>6.5</ele><time>2015-05-01T08:20:25.0000000+00:00</time></trkpt><trkpt lat="34.8911265" lon="33.6309252"><ele>6.3</ele><time>2015-05-01T08:20:26.0000000+00:00</time></trkpt><trkpt lat="34.8910874" lon="33.6308865"><ele>6.6</ele><time>2015-05-01T08:20:27.0000000+00:00</time></trkpt><trkpt lat="34.8910426" lon="33.6308445"><ele>6.8</ele><time>2015-05-01T08:20:28.0000000+00:00</time></trkpt><trkpt lat="34.8910097" lon="33.6308045"><ele>6.9</ele><time>2015-05-01T08:20:29.0000000+00:00</time></trkpt><trkpt lat="34.8909727" lon="33.6307663"><ele>7.0</ele><time>2015-05-01T08:20:30.0000000+00:00</time></trkpt><trkpt lat="34.8909016" lon="33.6307018"><ele>7.0</ele><time>2015-05-01T08:20:32.0000000+00:00</time></trkpt><trkpt lat="34.8908349" lon="33.6306358"><ele>7.5</ele><time>2015-05-01T08:20:34.0000000+00:00</time></trkpt><trkpt lat="34.8907974" lon="33.6305992"><ele>7.8</ele><time>2015-05-01T08:20:35.0000000+00:00</time></trkpt><trkpt lat="34.8907619" lon="33.6305627"><ele>7.9</ele><time>2015-05-01T08:20:36.0000000+00:00</time></trkpt><trkpt lat="34.890726" lon="33.6305267"><ele>8.0</ele><time>2015-05-01T08:20:37.0000000+00:00</time></trkpt><trkpt lat="34.8906896" lon="33.6304865"><ele>8.0</ele><time>2015-05-01T08:20:38.0000000+00:00</time></trkpt><trkpt lat="34.8906578" lon="33.6304465"><ele>8.5</ele><time>2015-05-01T08:20:39.0000000+00:00</time></trkpt><trkpt lat="34.8906223" lon="33.6304045"><ele>8.3</ele><time>2015-05-01T08:20:40.0000000+00:00</time></trkpt><trkpt lat="34.890587" lon="33.6303641"><ele>8.1</ele><time>2015-05-01T08:20:41.0000000+00:00</time></trkpt><trkpt lat="34.8905497" lon="33.6303246"><ele>8.1</ele><time>2015-05-01T08:20:42.0000000+00:00</time></trkpt><trkpt lat="34.8905092" lon="33.6302847"><ele>8.1</ele><time>2015-05-01T08:20:43.0000000+00:00</time></trkpt><trkpt lat="34.8904712" lon="33.6302407"><ele>8.0</ele><time>2015-05-01T08:20:44.0000000+00:00</time></trkpt><trkpt lat="34.8904356" lon="33.6301998"><ele>8.0</ele><time>2015-05-01T08:20:45.0000000+00:00</time></trkpt><trkpt lat="34.8903968" lon="33.63016"><ele>8.0</ele><time>2015-05-01T08:20:46.0000000+00:00</time></trkpt><trkpt lat="34.8903574" lon="33.6301123"><ele>8.0</ele><time>2015-05-01T08:20:47.0000000+00:00</time></trkpt><trkpt lat="34.8903158" lon="33.630073"><ele>8.0</ele><time>2015-05-01T08:20:48.0000000+00:00</time></trkpt><trkpt lat="34.8902744" lon="33.6300294"><ele>8.0</ele><time>2015-05-01T08:20:49.0000000+00:00</time></trkpt><trkpt lat="34.8902393" lon="33.6299855"><ele>8.0</ele><time>2015-05-01T08:20:50.0000000+00:00</time></trkpt><trkpt lat="34.8902002" lon="33.6299418"><ele>8.0</ele><time>2015-05-01T08:20:51.0000000+00:00</time></trkpt><trkpt lat="34.8901634" lon="33.6298944"><ele>7.5</ele><time>2015-05-01T08:20:52.0000000+00:00</time></trkpt><trkpt lat="34.8901268" lon="33.6298505"><ele>7.3</ele><time>2015-05-01T08:20:53.0000000+00:00</time></trkpt><trkpt lat="34.8900862" lon="33.6298027"><ele>6.6</ele><time>2015-05-01T08:20:54.0000000+00:00</time></trkpt><trkpt lat="34.890047" lon="33.6297547"><ele>6.3</ele><time>2015-05-01T08:20:55.0000000+00:00</time></trkpt><trkpt lat="34.8899991" lon="33.6297084"><ele>6.7</ele><time>2015-05-01T08:20:56.0000000+00:00</time></trkpt><trkpt lat="34.8899575" lon="33.629666"><ele>6.8</ele><time>2015-05-01T08:20:57.0000000+00:00</time></trkpt><trkpt lat="34.8899098" lon="33.6296207"><ele>6.9</ele><time>2015-05-01T08:20:58.0000000+00:00</time></trkpt><trkpt lat="34.8898695" lon="33.6295749"><ele>6.5</ele><time>2015-05-01T08:20:59.0000000+00:00</time></trkpt><trkpt lat="34.8898331" lon="33.6295242"><ele>6.2</ele><time>2015-05-01T08:21:00.0000000+00:00</time></trkpt><trkpt lat="34.8898026" lon="33.62948"><ele>6.1</ele><time>2015-05-01T08:21:01.0000000+00:00</time></trkpt><trkpt lat="34.8897726" lon="33.6294312"><ele>6.1</ele><time>2015-05-01T08:21:02.0000000+00:00</time></trkpt><trkpt lat="34.8897401" lon="33.6293838"><ele>6.0</ele><time>2015-05-01T08:21:03.0000000+00:00</time></trkpt><trkpt lat="34.8897119" lon="33.6293382"><ele>6.0</ele><time>2015-05-01T08:21:04.0000000+00:00</time></trkpt><trkpt lat="34.889682" lon="33.6292921"><ele>6.0</ele><time>2015-05-01T08:21:05.0000000+00:00</time></trkpt><trkpt lat="34.8896518" lon="33.6292488"><ele>6.0</ele><time>2015-05-01T08:21:06.0000000+00:00</time></trkpt><trkpt lat="34.8896185" lon="33.6292049"><ele>6.0</ele><time>2015-05-01T08:21:07.0000000+00:00</time></trkpt><trkpt lat="34.8895797" lon="33.6291534"><ele>6.0</ele><time>2015-05-01T08:21:08.0000000+00:00</time></trkpt><trkpt lat="34.8895436" lon="33.6291047"><ele>6.0</ele><time>2015-05-01T08:21:09.0000000+00:00</time></trkpt><trkpt lat="34.8895122" lon="33.6290531"><ele>6.0</ele><time>2015-05-01T08:21:10.0000000+00:00</time></trkpt><trkpt lat="34.8894766" lon="33.6290038"><ele>6.0</ele><time>2015-05-01T08:21:11.0000000+00:00</time></trkpt><trkpt lat="34.8894381" lon="33.6289523"><ele>6.0</ele><time>2015-05-01T08:21:12.0000000+00:00</time></trkpt><trkpt lat="34.8894009" lon="33.6289029"><ele>5.5</ele><time>2015-05-01T08:21:13.0000000+00:00</time></trkpt><trkpt lat="34.8893666" lon="33.6288493"><ele>5.8</ele><time>2015-05-01T08:21:14.0000000+00:00</time></trkpt><trkpt lat="34.8893321" lon="33.6287956"><ele>5.9</ele><time>2015-05-01T08:21:15.0000000+00:00</time></trkpt><trkpt lat="34.8892972" lon="33.62874"><ele>5.5</ele><time>2015-05-01T08:21:16.0000000+00:00</time></trkpt><trkpt lat="34.8892638" lon="33.628695"><ele>5.2</ele><time>2015-05-01T08:21:17.0000000+00:00</time></trkpt><trkpt lat="34.889233" lon="33.6286444"><ele>5.1</ele><time>2015-05-01T08:21:18.0000000+00:00</time></trkpt><trkpt lat="34.8891922" lon="33.6285921"><ele>5.1</ele><time>2015-05-01T08:21:19.0000000+00:00</time></trkpt><trkpt lat="34.8891493" lon="33.628541"><ele>5.0</ele><time>2015-05-01T08:21:20.0000000+00:00</time></trkpt><trkpt lat="34.8891101" lon="33.6284898"><ele>5.5</ele><time>2015-05-01T08:21:21.0000000+00:00</time></trkpt><trkpt lat="34.8890713" lon="33.6284341"><ele>5.8</ele><time>2015-05-01T08:21:22.0000000+00:00</time></trkpt><trkpt lat="34.8890328" lon="33.6283793"><ele>6.4</ele><time>2015-05-01T08:21:23.0000000+00:00</time></trkpt><trkpt lat="34.8889877" lon="33.6283208"><ele>6.7</ele><time>2015-05-01T08:21:24.0000000+00:00</time></trkpt><trkpt lat="34.8889459" lon="33.6282631"><ele>6.9</ele><time>2015-05-01T08:21:25.0000000+00:00</time></trkpt><trkpt lat="34.8888965" lon="33.6281979"><ele>6.9</ele><time>2015-05-01T08:21:26.0000000+00:00</time></trkpt><trkpt lat="34.8888555" lon="33.6281404"><ele>7.0</ele><time>2015-05-01T08:21:27.0000000+00:00</time></trkpt><trkpt lat="34.888808" lon="33.6280759"><ele>7.0</ele><time>2015-05-01T08:21:28.0000000+00:00</time></trkpt><trkpt lat="34.8887699" lon="33.6280173"><ele>6.5</ele><time>2015-05-01T08:21:29.0000000+00:00</time></trkpt><trkpt lat="34.8887312" lon="33.6279608"><ele>6.8</ele><time>2015-05-01T08:21:30.0000000+00:00</time></trkpt><trkpt lat="34.8886905" lon="33.62791"><ele>6.4</ele><time>2015-05-01T08:21:31.0000000+00:00</time></trkpt><trkpt lat="34.8886525" lon="33.6278569"><ele>6.7</ele><time>2015-05-01T08:21:32.0000000+00:00</time></trkpt><trkpt lat="34.8886162" lon="33.6278054"><ele>6.4</ele><time>2015-05-01T08:21:33.0000000+00:00</time></trkpt><trkpt lat="34.8885756" lon="33.6277533"><ele>6.2</ele><time>2015-05-01T08:21:34.0000000+00:00</time></trkpt><trkpt lat="34.8885303" lon="33.6277024"><ele>6.6</ele><time>2015-05-01T08:21:35.0000000+00:00</time></trkpt><trkpt lat="34.8884915" lon="33.6276356"><ele>6.8</ele><time>2015-05-01T08:21:36.0000000+00:00</time></trkpt><trkpt lat="34.8884519" lon="33.6275822"><ele>6.9</ele><time>2015-05-01T08:21:37.0000000+00:00</time></trkpt><trkpt lat="34.8884148" lon="33.627527"><ele>7.0</ele><time>2015-05-01T08:21:38.0000000+00:00</time></trkpt><trkpt lat="34.888371" lon="33.6274688"><ele>7.0</ele><time>2015-05-01T08:21:39.0000000+00:00</time></trkpt><trkpt lat="34.8883283" lon="33.627407"><ele>7.0</ele><time>2015-05-01T08:21:40.0000000+00:00</time></trkpt><trkpt lat="34.8882843" lon="33.6273509"><ele>7.5</ele><time>2015-05-01T08:21:41.0000000+00:00</time></trkpt><trkpt lat="34.8882436" lon="33.6272872"><ele>7.3</ele><time>2015-05-01T08:21:42.0000000+00:00</time></trkpt><trkpt lat="34.8882024" lon="33.6272314"><ele>7.1</ele><time>2015-05-01T08:21:43.0000000+00:00</time></trkpt><trkpt lat="34.8881571" lon="33.627175"><ele>7.1</ele><time>2015-05-01T08:21:44.0000000+00:00</time></trkpt><trkpt lat="34.8881201" lon="33.6271125"><ele>7.1</ele><time>2015-05-01T08:21:45.0000000+00:00</time></trkpt><trkpt lat="34.8880771" lon="33.6270499"><ele>7.0</ele><time>2015-05-01T08:21:46.0000000+00:00</time></trkpt><trkpt lat="34.888037" lon="33.6269922"><ele>6.5</ele><time>2015-05-01T08:21:47.0000000+00:00</time></trkpt><trkpt lat="34.8879969" lon="33.626937"><ele>6.8</ele><time>2015-05-01T08:21:48.0000000+00:00</time></trkpt><trkpt lat="34.8879572" lon="33.626872"><ele>6.4</ele><time>2015-05-01T08:21:49.0000000+00:00</time></trkpt><trkpt lat="34.8879128" lon="33.6268129"><ele>6.2</ele><time>2015-05-01T08:21:50.0000000+00:00</time></trkpt><trkpt lat="34.8878734" lon="33.6267552"><ele>6.1</ele><time>2015-05-01T08:21:51.0000000+00:00</time></trkpt><trkpt lat="34.8878371" lon="33.6267013"><ele>6.1</ele><time>2015-05-01T08:21:52.0000000+00:00</time></trkpt><trkpt lat="34.8877953" lon="33.6266442"><ele>6.0</ele><time>2015-05-01T08:21:53.0000000+00:00</time></trkpt><trkpt lat="34.8877517" lon="33.6265865"><ele>6.0</ele><time>2015-05-01T08:21:54.0000000+00:00</time></trkpt><trkpt lat="34.8877133" lon="33.626531"><ele>6.5</ele><time>2015-05-01T08:21:55.0000000+00:00</time></trkpt><trkpt lat="34.8876713" lon="33.6264716"><ele>6.8</ele><time>2015-05-01T08:21:56.0000000+00:00</time></trkpt><trkpt lat="34.8876308" lon="33.6264154"><ele>6.9</ele><time>2015-05-01T08:21:57.0000000+00:00</time></trkpt><trkpt lat="34.8875866" lon="33.6263535"><ele>7.0</ele><time>2015-05-01T08:21:58.0000000+00:00</time></trkpt><trkpt lat="34.8875453" lon="33.6262964"><ele>7.0</ele><time>2015-05-01T08:21:59.0000000+00:00</time></trkpt><trkpt lat="34.8875084" lon="33.6262369"><ele>6.5</ele><time>2015-05-01T08:22:00.0000000+00:00</time></trkpt><trkpt lat="34.8874713" lon="33.6261899"><ele>6.8</ele><time>2015-05-01T08:22:01.0000000+00:00</time></trkpt><trkpt lat="34.8874373" lon="33.6261414"><ele>6.9</ele><time>2015-05-01T08:22:02.0000000+00:00</time></trkpt><trkpt lat="34.8874043" lon="33.626089"><ele>7.0</ele><time>2015-05-01T08:22:03.0000000+00:00</time></trkpt><trkpt lat="34.8873736" lon="33.6260371"><ele>7.0</ele><time>2015-05-01T08:22:04.0000000+00:00</time></trkpt><trkpt lat="34.8873412" lon="33.6259909"><ele>7.0</ele><time>2015-05-01T08:22:05.0000000+00:00</time></trkpt><trkpt lat="34.8873099" lon="33.6259434"><ele>7.0</ele><time>2015-05-01T08:22:06.0000000+00:00</time></trkpt><trkpt lat="34.8872775" lon="33.6258956"><ele>7.0</ele><time>2015-05-01T08:22:07.0000000+00:00</time></trkpt><trkpt lat="34.8872332" lon="33.6258418"><ele>7.0</ele><time>2015-05-01T08:22:08.0000000+00:00</time></trkpt><trkpt lat="34.8871954" lon="33.6257952"><ele>7.0</ele><time>2015-05-01T08:22:09.0000000+00:00</time></trkpt><trkpt lat="34.8871607" lon="33.6257436"><ele>7.5</ele><time>2015-05-01T08:22:10.0000000+00:00</time></trkpt><trkpt lat="34.8871232" lon="33.6256939"><ele>7.8</ele><time>2015-05-01T08:22:11.0000000+00:00</time></trkpt><trkpt lat="34.8870835" lon="33.6256429"><ele>7.9</ele><time>2015-05-01T08:22:12.0000000+00:00</time></trkpt><trkpt lat="34.8870467" lon="33.6255906"><ele>8.0</ele><time>2015-05-01T08:22:13.0000000+00:00</time></trkpt><trkpt lat="34.8870127" lon="33.625529"><ele>8.0</ele><time>2015-05-01T08:22:14.0000000+00:00</time></trkpt><trkpt lat="34.8869764" lon="33.6254736"><ele>8.0</ele><time>2015-05-01T08:22:15.0000000+00:00</time></trkpt><trkpt lat="34.8869482" lon="33.6254097"><ele>7.5</ele><time>2015-05-01T08:22:16.0000000+00:00</time></trkpt><trkpt lat="34.886915" lon="33.6253513"><ele>7.3</ele><time>2015-05-01T08:22:17.0000000+00:00</time></trkpt><trkpt lat="34.8868802" lon="33.6252946"><ele>6.6</ele><time>2015-05-01T08:22:18.0000000+00:00</time></trkpt><trkpt lat="34.8868479" lon="33.6252382"><ele>6.3</ele><time>2015-05-01T08:22:19.0000000+00:00</time></trkpt><trkpt lat="34.8868058" lon="33.6251814"><ele>6.2</ele><time>2015-05-01T08:22:20.0000000+00:00</time></trkpt><trkpt lat="34.8867724" lon="33.6251218"><ele>6.1</ele><time>2015-05-01T08:22:21.0000000+00:00</time></trkpt><trkpt lat="34.8867396" lon="33.6250543"><ele>6.1</ele><time>2015-05-01T08:22:22.0000000+00:00</time></trkpt><trkpt lat="34.8867103" lon="33.6249896"><ele>6.0</ele><time>2015-05-01T08:22:23.0000000+00:00</time></trkpt><trkpt lat="34.8866786" lon="33.6249258"><ele>6.0</ele><time>2015-05-01T08:22:24.0000000+00:00</time></trkpt><trkpt lat="34.8866486" lon="33.6248586"><ele>5.5</ele><time>2015-05-01T08:22:25.0000000+00:00</time></trkpt><trkpt lat="34.8866173" lon="33.6247931"><ele>5.3</ele><time>2015-05-01T08:22:26.0000000+00:00</time></trkpt><trkpt lat="34.8865849" lon="33.6247292"><ele>5.1</ele><time>2015-05-01T08:22:27.0000000+00:00</time></trkpt><trkpt lat="34.8865537" lon="33.6246644"><ele>5.1</ele><time>2015-05-01T08:22:28.0000000+00:00</time></trkpt><trkpt lat="34.8865247" lon="33.6246049"><ele>5.1</ele><time>2015-05-01T08:22:29.0000000+00:00</time></trkpt><trkpt lat="34.8864945" lon="33.6245424"><ele>5.0</ele><time>2015-05-01T08:22:30.0000000+00:00</time></trkpt><trkpt lat="34.8864608" lon="33.6244776"><ele>5.0</ele><time>2015-05-01T08:22:31.0000000+00:00</time></trkpt><trkpt lat="34.8864307" lon="33.624408"><ele>5.0</ele><time>2015-05-01T08:22:32.0000000+00:00</time></trkpt><trkpt lat="34.8864004" lon="33.624343"><ele>5.5</ele><time>2015-05-01T08:22:33.0000000+00:00</time></trkpt><trkpt lat="34.8863667" lon="33.6242743"><ele>5.3</ele><time>2015-05-01T08:22:34.0000000+00:00</time></trkpt><trkpt lat="34.8863369" lon="33.6242096"><ele>5.1</ele><time>2015-05-01T08:22:35.0000000+00:00</time></trkpt><trkpt lat="34.8863063" lon="33.624151"><ele>5.1</ele><time>2015-05-01T08:22:36.0000000+00:00</time></trkpt><trkpt lat="34.8862822" lon="33.6240872"><ele>4.6</ele><time>2015-05-01T08:22:37.0000000+00:00</time></trkpt><trkpt lat="34.8862568" lon="33.6240291"><ele>4.3</ele><time>2015-05-01T08:22:38.0000000+00:00</time></trkpt><trkpt lat="34.8862293" lon="33.6239702"><ele>4.2</ele><time>2015-05-01T08:22:39.0000000+00:00</time></trkpt><trkpt lat="34.8861958" lon="33.6239093"><ele>4.1</ele><time>2015-05-01T08:22:40.0000000+00:00</time></trkpt><trkpt lat="34.8861678" lon="33.6238482"><ele>4.1</ele><time>2015-05-01T08:22:41.0000000+00:00</time></trkpt><trkpt lat="34.8861351" lon="33.6237816"><ele>4.0</ele><time>2015-05-01T08:22:42.0000000+00:00</time></trkpt><trkpt lat="34.8861072" lon="33.62372"><ele>4.0</ele><time>2015-05-01T08:22:43.0000000+00:00</time></trkpt><trkpt lat="34.8860718" lon="33.623657"><ele>4.0</ele><time>2015-05-01T08:22:44.0000000+00:00</time></trkpt><trkpt lat="34.8860398" lon="33.6235935"><ele>4.0</ele><time>2015-05-01T08:22:45.0000000+00:00</time></trkpt><trkpt lat="34.8860117" lon="33.6235252"><ele>4.0</ele><time>2015-05-01T08:22:46.0000000+00:00</time></trkpt><trkpt lat="34.8859804" lon="33.6234596"><ele>4.0</ele><time>2015-05-01T08:22:47.0000000+00:00</time></trkpt><trkpt lat="34.8859399" lon="33.6233913"><ele>4.0</ele><time>2015-05-01T08:22:48.0000000+00:00</time></trkpt><trkpt lat="34.885901" lon="33.6233319"><ele>4.0</ele><time>2015-05-01T08:22:49.0000000+00:00</time></trkpt><trkpt lat="34.8858566" lon="33.6232728"><ele>4.0</ele><time>2015-05-01T08:22:50.0000000+00:00</time></trkpt><trkpt lat="34.8858076" lon="33.6232082"><ele>3.5</ele><time>2015-05-01T08:22:51.0000000+00:00</time></trkpt><trkpt lat="34.8857639" lon="33.6231548"><ele>3.3</ele><time>2015-05-01T08:22:52.0000000+00:00</time></trkpt><trkpt lat="34.8857216" lon="33.6230998"><ele>3.1</ele><time>2015-05-01T08:22:53.0000000+00:00</time></trkpt><trkpt lat="34.8856809" lon="33.6230551"><ele>3.6</ele><time>2015-05-01T08:22:54.0000000+00:00</time></trkpt><trkpt lat="34.8856342" lon="33.6230103"><ele>3.3</ele><time>2015-05-01T08:22:55.0000000+00:00</time></trkpt><trkpt lat="34.8855883" lon="33.6229658"><ele>3.7</ele><time>2015-05-01T08:22:56.0000000+00:00</time></trkpt><trkpt lat="34.8855399" lon="33.6229254"><ele>3.8</ele><time>2015-05-01T08:22:57.0000000+00:00</time></trkpt><trkpt lat="34.8854871" lon="33.6228827"><ele>3.9</ele><time>2015-05-01T08:22:58.0000000+00:00</time></trkpt><trkpt lat="34.8854349" lon="33.6228473"><ele>4.0</ele><time>2015-05-01T08:22:59.0000000+00:00</time></trkpt><trkpt lat="34.8853869" lon="33.6228109"><ele>4.0</ele><time>2015-05-01T08:23:00.0000000+00:00</time></trkpt><trkpt lat="34.8853359" lon="33.6227753"><ele>4.0</ele><time>2015-05-01T08:23:01.0000000+00:00</time></trkpt><trkpt lat="34.8852801" lon="33.6227426"><ele>4.0</ele><time>2015-05-01T08:23:02.0000000+00:00</time></trkpt><trkpt lat="34.8852269" lon="33.6227087"><ele>4.0</ele><time>2015-05-01T08:23:03.0000000+00:00</time></trkpt><trkpt lat="34.8851737" lon="33.6226861"><ele>4.5</ele><time>2015-05-01T08:23:04.0000000+00:00</time></trkpt><trkpt lat="34.8851186" lon="33.6226605"><ele>4.8</ele><time>2015-05-01T08:23:05.0000000+00:00</time></trkpt><trkpt lat="34.8850596" lon="33.6226398"><ele>4.9</ele><time>2015-05-01T08:23:06.0000000+00:00</time></trkpt><trkpt lat="34.885002" lon="33.6226181"><ele>5.0</ele><time>2015-05-01T08:23:07.0000000+00:00</time></trkpt><trkpt lat="34.884943" lon="33.6226024"><ele>5.0</ele><time>2015-05-01T08:23:08.0000000+00:00</time></trkpt><trkpt lat="34.8848857" lon="33.6225836"><ele>5.0</ele><time>2015-05-01T08:23:09.0000000+00:00</time></trkpt><trkpt lat="34.8848292" lon="33.6225712"><ele>5.0</ele><time>2015-05-01T08:23:10.0000000+00:00</time></trkpt><trkpt lat="34.8847658" lon="33.6225624"><ele>5.0</ele><time>2015-05-01T08:23:11.0000000+00:00</time></trkpt><trkpt lat="34.8847076" lon="33.6225551"><ele>5.0</ele><time>2015-05-01T08:23:12.0000000+00:00</time></trkpt><trkpt lat="34.8846518" lon="33.6225503"><ele>5.5</ele><time>2015-05-01T08:23:13.0000000+00:00</time></trkpt><trkpt lat="34.8845962" lon="33.6225445"><ele>5.3</ele><time>2015-05-01T08:23:14.0000000+00:00</time></trkpt><trkpt lat="34.8845393" lon="33.6225392"><ele>5.6</ele><time>2015-05-01T08:23:15.0000000+00:00</time></trkpt><trkpt lat="34.8844801" lon="33.622538"><ele>5.8</ele><time>2015-05-01T08:23:16.0000000+00:00</time></trkpt><trkpt lat="34.8844228" lon="33.6225364"><ele>5.9</ele><time>2015-05-01T08:23:17.0000000+00:00</time></trkpt><trkpt lat="34.8843677" lon="33.6225331"><ele>5.5</ele><time>2015-05-01T08:23:18.0000000+00:00</time></trkpt><trkpt lat="34.8843053" lon="33.6225324"><ele>5.7</ele><time>2015-05-01T08:23:19.0000000+00:00</time></trkpt><trkpt lat="34.8842463" lon="33.6225355"><ele>5.9</ele><time>2015-05-01T08:23:20.0000000+00:00</time></trkpt><trkpt lat="34.8841868" lon="33.6225321"><ele>6.0</ele><time>2015-05-01T08:23:21.0000000+00:00</time></trkpt><trkpt lat="34.8841307" lon="33.6225334"><ele>6.0</ele><time>2015-05-01T08:23:22.0000000+00:00</time></trkpt><trkpt lat="34.88408" lon="33.6225368"><ele>6.0</ele><time>2015-05-01T08:23:23.0000000+00:00</time></trkpt><trkpt lat="34.884028" lon="33.6225473"><ele>6.0</ele><time>2015-05-01T08:23:24.0000000+00:00</time></trkpt><trkpt lat="34.8839762" lon="33.6225595"><ele>6.0</ele><time>2015-05-01T08:23:25.0000000+00:00</time></trkpt><trkpt lat="34.8839321" lon="33.6225733"><ele>6.0</ele><time>2015-05-01T08:23:26.0000000+00:00</time></trkpt><trkpt lat="34.8838859" lon="33.6225883"><ele>6.0</ele><time>2015-05-01T08:23:27.0000000+00:00</time></trkpt><trkpt lat="34.883811" lon="33.6226284"><ele>6.0</ele><time>2015-05-01T08:23:29.0000000+00:00</time></trkpt><trkpt lat="34.8837439" lon="33.6226504"><ele>6.8</ele><time>2015-05-01T08:23:31.0000000+00:00</time></trkpt><trkpt lat="34.8836578" lon="33.6226525"><ele>7.0</ele><time>2015-05-01T08:23:33.0000000+00:00</time></trkpt><trkpt lat="34.8836042" lon="33.622658"><ele>7.0</ele><time>2015-05-01T08:23:34.0000000+00:00</time></trkpt><trkpt lat="34.8835557" lon="33.6226765"><ele>6.5</ele><time>2015-05-01T08:23:35.0000000+00:00</time></trkpt><trkpt lat="34.8835009" lon="33.6226906"><ele>6.8</ele><time>2015-05-01T08:23:36.0000000+00:00</time></trkpt><trkpt lat="34.8834478" lon="33.6226846"><ele>6.4</ele><time>2015-05-01T08:23:37.0000000+00:00</time></trkpt><trkpt lat="34.8833935" lon="33.6226673"><ele>6.2</ele><time>2015-05-01T08:23:38.0000000+00:00</time></trkpt><trkpt lat="34.8833409" lon="33.6226502"><ele>6.1</ele><time>2015-05-01T08:23:39.0000000+00:00</time></trkpt><trkpt lat="34.8833064" lon="33.6225923"><ele>6.1</ele><time>2015-05-01T08:23:40.0000000+00:00</time></trkpt><trkpt lat="34.8832667" lon="33.6225526"><ele>6.0</ele><time>2015-05-01T08:23:41.0000000+00:00</time></trkpt><trkpt lat="34.8832474" lon="33.6224947"><ele>6.0</ele><time>2015-05-01T08:23:42.0000000+00:00</time></trkpt><trkpt lat="34.8832209" lon="33.6224436"><ele>6.0</ele><time>2015-05-01T08:23:43.0000000+00:00</time></trkpt><trkpt lat="34.8832272" lon="33.6223822"><ele>6.0</ele><time>2015-05-01T08:23:44.0000000+00:00</time></trkpt><trkpt lat="34.8832211" lon="33.6223275"><ele>6.0</ele><time>2015-05-01T08:23:45.0000000+00:00</time></trkpt><trkpt lat="34.8832081" lon="33.6222212"><ele>5.5</ele><time>2015-05-01T08:23:47.0000000+00:00</time></trkpt><trkpt lat="34.8831918" lon="33.6221599"><ele>5.3</ele><time>2015-05-01T08:23:48.0000000+00:00</time></trkpt><trkpt lat="34.8831734" lon="33.6221048"><ele>5.1</ele><time>2015-05-01T08:23:49.0000000+00:00</time></trkpt><trkpt lat="34.8831461" lon="33.6220505"><ele>5.1</ele><time>2015-05-01T08:23:50.0000000+00:00</time></trkpt><trkpt lat="34.8831163" lon="33.6220062"><ele>5.1</ele><time>2015-05-01T08:23:51.0000000+00:00</time></trkpt><trkpt lat="34.8830844" lon="33.6219638"><ele>5.0</ele><time>2015-05-01T08:23:52.0000000+00:00</time></trkpt><trkpt lat="34.8830493" lon="33.6219196"><ele>5.0</ele><time>2015-05-01T08:23:53.0000000+00:00</time></trkpt><trkpt lat="34.8830094" lon="33.6218779"><ele>5.0</ele><time>2015-05-01T08:23:54.0000000+00:00</time></trkpt><trkpt lat="34.8829722" lon="33.6218318"><ele>5.0</ele><time>2015-05-01T08:23:55.0000000+00:00</time></trkpt><trkpt lat="34.8829318" lon="33.6217868"><ele>5.0</ele><time>2015-05-01T08:23:56.0000000+00:00</time></trkpt><trkpt lat="34.8828918" lon="33.621742"><ele>4.5</ele><time>2015-05-01T08:23:57.0000000+00:00</time></trkpt><trkpt lat="34.8828527" lon="33.6216958"><ele>4.3</ele><time>2015-05-01T08:23:58.0000000+00:00</time></trkpt><trkpt lat="34.8828128" lon="33.6216489"><ele>4.1</ele><time>2015-05-01T08:23:59.0000000+00:00</time></trkpt><trkpt lat="34.8827772" lon="33.6216039"><ele>4.1</ele><time>2015-05-01T08:24:00.0000000+00:00</time></trkpt><trkpt lat="34.882738" lon="33.6215563"><ele>4.1</ele><time>2015-05-01T08:24:01.0000000+00:00</time></trkpt><trkpt lat="34.8826958" lon="33.6215014"><ele>4.5</ele><time>2015-05-01T08:24:02.0000000+00:00</time></trkpt><trkpt lat="34.8826541" lon="33.6214528"><ele>4.8</ele><time>2015-05-01T08:24:03.0000000+00:00</time></trkpt><trkpt lat="34.8826098" lon="33.6213911"><ele>4.9</ele><time>2015-05-01T08:24:04.0000000+00:00</time></trkpt><trkpt lat="34.8825693" lon="33.6213426"><ele>4.5</ele><time>2015-05-01T08:24:05.0000000+00:00</time></trkpt><trkpt lat="34.8825303" lon="33.6212917"><ele>4.2</ele><time>2015-05-01T08:24:06.0000000+00:00</time></trkpt><trkpt lat="34.8824885" lon="33.6212408"><ele>4.1</ele><time>2015-05-01T08:24:07.0000000+00:00</time></trkpt><trkpt lat="34.8824484" lon="33.6211944"><ele>4.1</ele><time>2015-05-01T08:24:08.0000000+00:00</time></trkpt><trkpt lat="34.8824032" lon="33.6211421"><ele>4.5</ele><time>2015-05-01T08:24:09.0000000+00:00</time></trkpt><trkpt lat="34.8823662" lon="33.6210905"><ele>4.3</ele><time>2015-05-01T08:24:10.0000000+00:00</time></trkpt><trkpt lat="34.8823257" lon="33.6210397"><ele>4.2</ele><time>2015-05-01T08:24:11.0000000+00:00</time></trkpt><trkpt lat="34.8822817" lon="33.6209904"><ele>4.6</ele><time>2015-05-01T08:24:12.0000000+00:00</time></trkpt><trkpt lat="34.8822427" lon="33.6209416"><ele>4.8</ele><time>2015-05-01T08:24:13.0000000+00:00</time></trkpt><trkpt lat="34.8822053" lon="33.620892"><ele>4.9</ele><time>2015-05-01T08:24:14.0000000+00:00</time></trkpt><trkpt lat="34.8821697" lon="33.6208443"><ele>5.0</ele><time>2015-05-01T08:24:15.0000000+00:00</time></trkpt><trkpt lat="34.8821333" lon="33.6208014"><ele>5.0</ele><time>2015-05-01T08:24:16.0000000+00:00</time></trkpt><trkpt lat="34.8820651" lon="33.6207246"><ele>5.0</ele><time>2015-05-01T08:24:18.0000000+00:00</time></trkpt><trkpt lat="34.882031" lon="33.620676"><ele>5.0</ele><time>2015-05-01T08:24:19.0000000+00:00</time></trkpt><trkpt lat="34.8819981" lon="33.6206306"><ele>5.0</ele><time>2015-05-01T08:24:20.0000000+00:00</time></trkpt><trkpt lat="34.8819623" lon="33.6205852"><ele>5.0</ele><time>2015-05-01T08:24:21.0000000+00:00</time></trkpt><trkpt lat="34.8819275" lon="33.620535"><ele>4.5</ele><time>2015-05-01T08:24:22.0000000+00:00</time></trkpt><trkpt lat="34.8818909" lon="33.6204899"><ele>4.3</ele><time>2015-05-01T08:24:23.0000000+00:00</time></trkpt><trkpt lat="34.8818458" lon="33.6204483"><ele>4.1</ele><time>2015-05-01T08:24:24.0000000+00:00</time></trkpt><trkpt lat="34.8818075" lon="33.6204032"><ele>4.1</ele><time>2015-05-01T08:24:25.0000000+00:00</time></trkpt><trkpt lat="34.8817689" lon="33.6203533"><ele>4.1</ele><time>2015-05-01T08:24:26.0000000+00:00</time></trkpt><trkpt lat="34.881732" lon="33.6203023"><ele>3.5</ele><time>2015-05-01T08:24:27.0000000+00:00</time></trkpt><trkpt lat="34.8816917" lon="33.6202553"><ele>3.3</ele><time>2015-05-01T08:24:28.0000000+00:00</time></trkpt><trkpt lat="34.8816505" lon="33.6202055"><ele>3.1</ele><time>2015-05-01T08:24:29.0000000+00:00</time></trkpt><trkpt lat="34.8816116" lon="33.6201563"><ele>3.1</ele><time>2015-05-01T08:24:30.0000000+00:00</time></trkpt><trkpt lat="34.8815708" lon="33.6201087"><ele>3.1</ele><time>2015-05-01T08:24:31.0000000+00:00</time></trkpt><trkpt lat="34.881528" lon="33.6200588"><ele>3.0</ele><time>2015-05-01T08:24:32.0000000+00:00</time></trkpt><trkpt lat="34.8814879" lon="33.6200106"><ele>3.0</ele><time>2015-05-01T08:24:33.0000000+00:00</time></trkpt><trkpt lat="34.8814432" lon="33.6199623"><ele>3.0</ele><time>2015-05-01T08:24:34.0000000+00:00</time></trkpt><trkpt lat="34.8814034" lon="33.6199092"><ele>3.0</ele><time>2015-05-01T08:24:35.0000000+00:00</time></trkpt><trkpt lat="34.8813597" lon="33.619861"><ele>3.0</ele><time>2015-05-01T08:24:36.0000000+00:00</time></trkpt><trkpt lat="34.8813196" lon="33.6198082"><ele>3.0</ele><time>2015-05-01T08:24:37.0000000+00:00</time></trkpt><trkpt lat="34.8812728" lon="33.6197576"><ele>3.5</ele><time>2015-05-01T08:24:38.0000000+00:00</time></trkpt><trkpt lat="34.8812302" lon="33.6197084"><ele>3.8</ele><time>2015-05-01T08:24:39.0000000+00:00</time></trkpt><trkpt lat="34.8811942" lon="33.6196533"><ele>3.9</ele><time>2015-05-01T08:24:40.0000000+00:00</time></trkpt><trkpt lat="34.8811533" lon="33.619602"><ele>3.5</ele><time>2015-05-01T08:24:41.0000000+00:00</time></trkpt><trkpt lat="34.8811136" lon="33.6195498"><ele>3.2</ele><time>2015-05-01T08:24:42.0000000+00:00</time></trkpt><trkpt lat="34.8810715" lon="33.6194994"><ele>3.1</ele><time>2015-05-01T08:24:43.0000000+00:00</time></trkpt><trkpt lat="34.8810314" lon="33.6194449"><ele>3.1</ele><time>2015-05-01T08:24:44.0000000+00:00</time></trkpt><trkpt lat="34.8809934" lon="33.6193968"><ele>3.0</ele><time>2015-05-01T08:24:45.0000000+00:00</time></trkpt><trkpt lat="34.8809573" lon="33.6193513"><ele>3.0</ele><time>2015-05-01T08:24:46.0000000+00:00</time></trkpt><trkpt lat="34.8809179" lon="33.6193054"><ele>2.5</ele><time>2015-05-01T08:24:47.0000000+00:00</time></trkpt><trkpt lat="34.8808819" lon="33.6192489"><ele>2.3</ele><time>2015-05-01T08:24:48.0000000+00:00</time></trkpt><trkpt lat="34.8808422" lon="33.6191964"><ele>2.6</ele><time>2015-05-01T08:24:49.0000000+00:00</time></trkpt><trkpt lat="34.8807939" lon="33.6191512"><ele>3.3</ele><time>2015-05-01T08:24:50.0000000+00:00</time></trkpt><trkpt lat="34.8807158" lon="33.6190767"><ele>4.3</ele><time>2015-05-01T08:24:52.0000000+00:00</time></trkpt><trkpt lat="34.8806743" lon="33.6190395"><ele>4.7</ele><time>2015-05-01T08:24:53.0000000+00:00</time></trkpt><trkpt lat="34.8806427" lon="33.6189946"><ele>4.9</ele><time>2015-05-01T08:24:54.0000000+00:00</time></trkpt><trkpt lat="34.8806097" lon="33.6189486"><ele>4.9</ele><time>2015-05-01T08:24:55.0000000+00:00</time></trkpt><trkpt lat="34.8805693" lon="33.6189064"><ele>5.0</ele><time>2015-05-01T08:24:56.0000000+00:00</time></trkpt><trkpt lat="34.8805378" lon="33.6188658"><ele>5.5</ele><time>2015-05-01T08:24:57.0000000+00:00</time></trkpt><trkpt lat="34.8804628" lon="33.6187785"><ele>5.4</ele><time>2015-05-01T08:24:59.0000000+00:00</time></trkpt><trkpt lat="34.8804174" lon="33.6187299"><ele>5.7</ele><time>2015-05-01T08:25:00.0000000+00:00</time></trkpt><trkpt lat="34.8803833" lon="33.618679"><ele>6.4</ele><time>2015-05-01T08:25:01.0000000+00:00</time></trkpt><trkpt lat="34.8803495" lon="33.6186403"><ele>5.7</ele><time>2015-05-01T08:25:02.0000000+00:00</time></trkpt><trkpt lat="34.8803062" lon="33.6185888"><ele>5.9</ele><time>2015-05-01T08:25:03.0000000+00:00</time></trkpt><trkpt lat="34.880266" lon="33.6185315"><ele>5.9</ele><time>2015-05-01T08:25:04.0000000+00:00</time></trkpt><trkpt lat="34.880231" lon="33.6184905"><ele>6.0</ele><time>2015-05-01T08:25:05.0000000+00:00</time></trkpt><trkpt lat="34.8801936" lon="33.6184378"><ele>6.0</ele><time>2015-05-01T08:25:06.0000000+00:00</time></trkpt><trkpt lat="34.8801463" lon="33.6183854"><ele>6.5</ele><time>2015-05-01T08:25:07.0000000+00:00</time></trkpt><trkpt lat="34.8801007" lon="33.6183276"><ele>6.8</ele><time>2015-05-01T08:25:08.0000000+00:00</time></trkpt><trkpt lat="34.880057" lon="33.6182694"><ele>6.9</ele><time>2015-05-01T08:25:09.0000000+00:00</time></trkpt><trkpt lat="34.880002" lon="33.6182151"><ele>7.0</ele><time>2015-05-01T08:25:10.0000000+00:00</time></trkpt><trkpt lat="34.8799579" lon="33.6181681"><ele>7.0</ele><time>2015-05-01T08:25:11.0000000+00:00</time></trkpt><trkpt lat="34.879914" lon="33.6181142"><ele>6.5</ele><time>2015-05-01T08:25:12.0000000+00:00</time></trkpt><trkpt lat="34.8798748" lon="33.6180676"><ele>6.3</ele><time>2015-05-01T08:25:13.0000000+00:00</time></trkpt><trkpt lat="34.8798345" lon="33.6180298"><ele>6.6</ele><time>2015-05-01T08:25:14.0000000+00:00</time></trkpt><trkpt lat="34.8798015" lon="33.6179875"><ele>6.8</ele><time>2015-05-01T08:25:15.0000000+00:00</time></trkpt><trkpt lat="34.8797621" lon="33.6179321"><ele>6.9</ele><time>2015-05-01T08:25:16.0000000+00:00</time></trkpt><trkpt lat="34.8797182" lon="33.6178819"><ele>7.0</ele><time>2015-05-01T08:25:17.0000000+00:00</time></trkpt><trkpt lat="34.8796859" lon="33.6178386"><ele>7.0</ele><time>2015-05-01T08:25:18.0000000+00:00</time></trkpt><trkpt lat="34.8796333" lon="33.6177953"><ele>7.0</ele><time>2015-05-01T08:25:19.0000000+00:00</time></trkpt><trkpt lat="34.8795899" lon="33.6177436"><ele>7.0</ele><time>2015-05-01T08:25:20.0000000+00:00</time></trkpt><trkpt lat="34.8795487" lon="33.6176931"><ele>7.0</ele><time>2015-05-01T08:25:21.0000000+00:00</time></trkpt><trkpt lat="34.8795136" lon="33.6176325"><ele>6.5</ele><time>2015-05-01T08:25:22.0000000+00:00</time></trkpt><trkpt lat="34.8794588" lon="33.6176108"><ele>6.8</ele><time>2015-05-01T08:25:23.0000000+00:00</time></trkpt><trkpt lat="34.879415" lon="33.6175637"><ele>6.9</ele><time>2015-05-01T08:25:24.0000000+00:00</time></trkpt><trkpt lat="34.8793737" lon="33.6175099"><ele>6.5</ele><time>2015-05-01T08:25:25.0000000+00:00</time></trkpt><trkpt lat="34.8793315" lon="33.6174598"><ele>6.7</ele><time>2015-05-01T08:25:26.0000000+00:00</time></trkpt><trkpt lat="34.8792906" lon="33.6174058"><ele>6.9</ele><time>2015-05-01T08:25:27.0000000+00:00</time></trkpt><trkpt lat="34.8792484" lon="33.6173437"><ele>7.0</ele><time>2015-05-01T08:25:28.0000000+00:00</time></trkpt><trkpt lat="34.8792037" lon="33.6172899"><ele>7.0</ele><time>2015-05-01T08:25:29.0000000+00:00</time></trkpt><trkpt lat="34.879157" lon="33.6172308"><ele>7.0</ele><time>2015-05-01T08:25:30.0000000+00:00</time></trkpt><trkpt lat="34.8791124" lon="33.6171704"><ele>7.0</ele><time>2015-05-01T08:25:31.0000000+00:00</time></trkpt><trkpt lat="34.879071" lon="33.6171205"><ele>7.0</ele><time>2015-05-01T08:25:32.0000000+00:00</time></trkpt><trkpt lat="34.8790339" lon="33.6170798"><ele>7.5</ele><time>2015-05-01T08:25:33.0000000+00:00</time></trkpt><trkpt lat="34.8789948" lon="33.6170338"><ele>7.8</ele><time>2015-05-01T08:25:34.0000000+00:00</time></trkpt><trkpt lat="34.8789581" lon="33.6169747"><ele>7.9</ele><time>2015-05-01T08:25:35.0000000+00:00</time></trkpt><trkpt lat="34.8789201" lon="33.6169172"><ele>8.0</ele><time>2015-05-01T08:25:36.0000000+00:00</time></trkpt><trkpt lat="34.8788756" lon="33.6168605"><ele>8.0</ele><time>2015-05-01T08:25:37.0000000+00:00</time></trkpt><trkpt lat="34.8788342" lon="33.6168146"><ele>8.5</ele><time>2015-05-01T08:25:38.0000000+00:00</time></trkpt><trkpt lat="34.8787956" lon="33.6167757"><ele>9.3</ele><time>2015-05-01T08:25:39.0000000+00:00</time></trkpt><trkpt lat="34.8787599" lon="33.6167214"><ele>9.1</ele><time>2015-05-01T08:25:40.0000000+00:00</time></trkpt><trkpt lat="34.8787249" lon="33.6166758"><ele>9.6</ele><time>2015-05-01T08:25:41.0000000+00:00</time></trkpt><trkpt lat="34.8786966" lon="33.6166319"><ele>9.3</ele><time>2015-05-01T08:25:42.0000000+00:00</time></trkpt><trkpt lat="34.8786622" lon="33.6165956"><ele>9.2</ele><time>2015-05-01T08:25:43.0000000+00:00</time></trkpt><trkpt lat="34.8786314" lon="33.6165536"><ele>9.1</ele><time>2015-05-01T08:25:44.0000000+00:00</time></trkpt><trkpt lat="34.8785676" lon="33.6164704"><ele>10.0</ele><time>2015-05-01T08:25:46.0000000+00:00</time></trkpt><trkpt lat="34.8785009" lon="33.6163944"><ele>10.0</ele><time>2015-05-01T08:25:48.0000000+00:00</time></trkpt><trkpt lat="34.8784338" lon="33.6163102"><ele>10.8</ele><time>2015-05-01T08:25:50.0000000+00:00</time></trkpt><trkpt lat="34.8784003" lon="33.6162591"><ele>10.9</ele><time>2015-05-01T08:25:51.0000000+00:00</time></trkpt><trkpt lat="34.8783594" lon="33.616225"><ele>11.5</ele><time>2015-05-01T08:25:52.0000000+00:00</time></trkpt><trkpt lat="34.8783272" lon="33.6161754"><ele>11.2</ele><time>2015-05-01T08:25:53.0000000+00:00</time></trkpt><trkpt lat="34.8782912" lon="33.6161271"><ele>12.1</ele><time>2015-05-01T08:25:54.0000000+00:00</time></trkpt><trkpt lat="34.8782482" lon="33.616068"><ele>11.6</ele><time>2015-05-01T08:25:55.0000000+00:00</time></trkpt><trkpt lat="34.8782054" lon="33.6160115"><ele>11.3</ele><time>2015-05-01T08:25:56.0000000+00:00</time></trkpt><trkpt lat="34.8781566" lon="33.6159534"><ele>11.2</ele><time>2015-05-01T08:25:57.0000000+00:00</time></trkpt><trkpt lat="34.878114" lon="33.6158964"><ele>10.6</ele><time>2015-05-01T08:25:58.0000000+00:00</time></trkpt><trkpt lat="34.8780774" lon="33.6158424"><ele>10.3</ele><time>2015-05-01T08:25:59.0000000+00:00</time></trkpt><trkpt lat="34.8780356" lon="33.615793"><ele>10.2</ele><time>2015-05-01T08:26:00.0000000+00:00</time></trkpt><trkpt lat="34.8779934" lon="33.6157491"><ele>10.6</ele><time>2015-05-01T08:26:01.0000000+00:00</time></trkpt><trkpt lat="34.8779583" lon="33.6156981"><ele>10.3</ele><time>2015-05-01T08:26:02.0000000+00:00</time></trkpt><trkpt lat="34.8779195" lon="33.6156348"><ele>10.2</ele><time>2015-05-01T08:26:03.0000000+00:00</time></trkpt><trkpt lat="34.8778835" lon="33.6155809"><ele>10.1</ele><time>2015-05-01T08:26:04.0000000+00:00</time></trkpt><trkpt lat="34.8778498" lon="33.6155142"><ele>10.1</ele><time>2015-05-01T08:26:05.0000000+00:00</time></trkpt><trkpt lat="34.8778183" lon="33.6154544"><ele>9.5</ele><time>2015-05-01T08:26:06.0000000+00:00</time></trkpt><trkpt lat="34.8777911" lon="33.6154031"><ele>8.8</ele><time>2015-05-01T08:26:07.0000000+00:00</time></trkpt><trkpt lat="34.8777639" lon="33.6153476"><ele>8.9</ele><time>2015-05-01T08:26:08.0000000+00:00</time></trkpt><trkpt lat="34.877734" lon="33.6152957"><ele>9.0</ele><time>2015-05-01T08:26:09.0000000+00:00</time></trkpt><trkpt lat="34.877711" lon="33.6152396"><ele>8.5</ele><time>2015-05-01T08:26:10.0000000+00:00</time></trkpt><trkpt lat="34.8776858" lon="33.6151899"><ele>8.8</ele><time>2015-05-01T08:26:11.0000000+00:00</time></trkpt><trkpt lat="34.8776635" lon="33.6151385"><ele>7.9</ele><time>2015-05-01T08:26:12.0000000+00:00</time></trkpt><trkpt lat="34.8776436" lon="33.6150883"><ele>7.5</ele><time>2015-05-01T08:26:13.0000000+00:00</time></trkpt><trkpt lat="34.8776197" lon="33.6150412"><ele>7.7</ele><time>2015-05-01T08:26:14.0000000+00:00</time></trkpt><trkpt lat="34.8775677" lon="33.6149424"><ele>8.0</ele><time>2015-05-01T08:26:16.0000000+00:00</time></trkpt><trkpt lat="34.8775412" lon="33.6148878"><ele>8.0</ele><time>2015-05-01T08:26:17.0000000+00:00</time></trkpt><trkpt lat="34.8775219" lon="33.6148359"><ele>8.0</ele><time>2015-05-01T08:26:18.0000000+00:00</time></trkpt><trkpt lat="34.8775052" lon="33.6147788"><ele>8.5</ele><time>2015-05-01T08:26:19.0000000+00:00</time></trkpt><trkpt lat="34.8774806" lon="33.6147161"><ele>9.3</ele><time>2015-05-01T08:26:20.0000000+00:00</time></trkpt><trkpt lat="34.87746" lon="33.6146552"><ele>9.6</ele><time>2015-05-01T08:26:21.0000000+00:00</time></trkpt><trkpt lat="34.8774345" lon="33.614589"><ele>8.8</ele><time>2015-05-01T08:26:22.0000000+00:00</time></trkpt><trkpt lat="34.8774033" lon="33.6145281"><ele>8.4</ele><time>2015-05-01T08:26:23.0000000+00:00</time></trkpt><trkpt lat="34.8773848" lon="33.6144708"><ele>8.7</ele><time>2015-05-01T08:26:24.0000000+00:00</time></trkpt><trkpt lat="34.8773575" lon="33.6144027"><ele>8.9</ele><time>2015-05-01T08:26:25.0000000+00:00</time></trkpt><trkpt lat="34.877337" lon="33.6143357"><ele>8.9</ele><time>2015-05-01T08:26:26.0000000+00:00</time></trkpt><trkpt lat="34.8773093" lon="33.6142656"><ele>9.5</ele><time>2015-05-01T08:26:27.0000000+00:00</time></trkpt><trkpt lat="34.87729" lon="33.6142093"><ele>10.3</ele><time>2015-05-01T08:26:28.0000000+00:00</time></trkpt><trkpt lat="34.8772753" lon="33.6141413"><ele>10.6</ele><time>2015-05-01T08:26:29.0000000+00:00</time></trkpt><trkpt lat="34.8772647" lon="33.6140839"><ele>11.8</ele><time>2015-05-01T08:26:30.0000000+00:00</time></trkpt><trkpt lat="34.8772506" lon="33.614027"><ele>12.4</ele><time>2015-05-01T08:26:31.0000000+00:00</time></trkpt><trkpt lat="34.8772341" lon="33.6139333"><ele>11.2</ele><time>2015-05-01T08:26:32.0000000+00:00</time></trkpt><trkpt lat="34.8772157" lon="33.6138752"><ele>10.1</ele><time>2015-05-01T08:26:33.0000000+00:00</time></trkpt><trkpt lat="34.8772036" lon="33.6138056"><ele>9.6</ele><time>2015-05-01T08:26:34.0000000+00:00</time></trkpt><trkpt lat="34.8771874" lon="33.6137503"><ele>9.3</ele><time>2015-05-01T08:26:35.0000000+00:00</time></trkpt><trkpt lat="34.8771731" lon="33.6136832"><ele>8.7</ele><time>2015-05-01T08:26:36.0000000+00:00</time></trkpt><trkpt lat="34.8771624" lon="33.6136266"><ele>8.3</ele><time>2015-05-01T08:26:37.0000000+00:00</time></trkpt><trkpt lat="34.8771487" lon="33.6135613"><ele>7.7</ele><time>2015-05-01T08:26:38.0000000+00:00</time></trkpt><trkpt lat="34.8771369" lon="33.6135078"><ele>7.9</ele><time>2015-05-01T08:26:39.0000000+00:00</time></trkpt><trkpt lat="34.8771178" lon="33.6134449"><ele>7.9</ele><time>2015-05-01T08:26:40.0000000+00:00</time></trkpt><trkpt lat="34.8771066" lon="33.6133851"><ele>7.5</ele><time>2015-05-01T08:26:41.0000000+00:00</time></trkpt><trkpt lat="34.877092" lon="33.6133282"><ele>7.2</ele><time>2015-05-01T08:26:42.0000000+00:00</time></trkpt><trkpt lat="34.8770387" lon="33.6132389"><ele>7.1</ele><time>2015-05-01T08:26:44.0000000+00:00</time></trkpt><trkpt lat="34.8769876" lon="33.6131616"><ele>7.0</ele><time>2015-05-01T08:26:46.0000000+00:00</time></trkpt><trkpt lat="34.8769624" lon="33.613113"><ele>7.0</ele><time>2015-05-01T08:26:47.0000000+00:00</time></trkpt><trkpt lat="34.8769362" lon="33.6130645"><ele>7.0</ele><time>2015-05-01T08:26:48.0000000+00:00</time></trkpt><trkpt lat="34.8769099" lon="33.6129638"><ele>7.5</ele><time>2015-05-01T08:26:50.0000000+00:00</time></trkpt><trkpt lat="34.8769115" lon="33.612906"><ele>7.8</ele><time>2015-05-01T08:26:51.0000000+00:00</time></trkpt><trkpt lat="34.8769362" lon="33.6128051"><ele>8.0</ele><time>2015-05-01T08:26:53.0000000+00:00</time></trkpt><trkpt lat="34.8769619" lon="33.612754"><ele>8.5</ele><time>2015-05-01T08:26:54.0000000+00:00</time></trkpt><trkpt lat="34.8769836" lon="33.6127021"><ele>8.8</ele><time>2015-05-01T08:26:55.0000000+00:00</time></trkpt><trkpt lat="34.8770099" lon="33.6126405"><ele>8.9</ele><time>2015-05-01T08:26:56.0000000+00:00</time></trkpt><trkpt lat="34.877022" lon="33.6125817"><ele>9.0</ele><time>2015-05-01T08:26:57.0000000+00:00</time></trkpt><trkpt lat="34.8770308" lon="33.6125155"><ele>9.0</ele><time>2015-05-01T08:26:58.0000000+00:00</time></trkpt><trkpt lat="34.8770411" lon="33.6124538"><ele>9.5</ele><time>2015-05-01T08:26:59.0000000+00:00</time></trkpt><trkpt lat="34.877049" lon="33.6123862"><ele>9.8</ele><time>2015-05-01T08:27:00.0000000+00:00</time></trkpt><trkpt lat="34.8770539" lon="33.612321"><ele>9.9</ele><time>2015-05-01T08:27:01.0000000+00:00</time></trkpt><trkpt lat="34.8770539" lon="33.6122532"><ele>9.5</ele><time>2015-05-01T08:27:02.0000000+00:00</time></trkpt><trkpt lat="34.8770463" lon="33.6121907"><ele>9.7</ele><time>2015-05-01T08:27:03.0000000+00:00</time></trkpt><trkpt lat="34.8770476" lon="33.6121221"><ele>9.9</ele><time>2015-05-01T08:27:04.0000000+00:00</time></trkpt><trkpt lat="34.8770495" lon="33.6120238"><ele>9.5</ele><time>2015-05-01T08:27:06.0000000+00:00</time></trkpt><trkpt lat="34.8770546" lon="33.6119344"><ele>9.9</ele><time>2015-05-01T08:27:08.0000000+00:00</time></trkpt><trkpt lat="34.877045" lon="33.6118587"><ele>8.5</ele><time>2015-05-01T08:27:10.0000000+00:00</time></trkpt><trkpt lat="34.8770599" lon="33.6117736"><ele>8.6</ele><time>2015-05-01T08:27:12.0000000+00:00</time></trkpt><trkpt lat="34.8770589" lon="33.6116792"><ele>8.9</ele><time>2015-05-01T08:27:14.0000000+00:00</time></trkpt><trkpt lat="34.877061" lon="33.6115831"><ele>9.5</ele><time>2015-05-01T08:27:16.0000000+00:00</time></trkpt><trkpt lat="34.8770707" lon="33.6114814"><ele>9.9</ele><time>2015-05-01T08:27:18.0000000+00:00</time></trkpt><trkpt lat="34.8770901" lon="33.61142"><ele>10.0</ele><time>2015-05-01T08:27:19.0000000+00:00</time></trkpt><trkpt lat="34.8770941" lon="33.6113525"><ele>10.5</ele><time>2015-05-01T08:27:20.0000000+00:00</time></trkpt><trkpt lat="34.8771068" lon="33.6112818"><ele>10.3</ele><time>2015-05-01T08:27:21.0000000+00:00</time></trkpt><trkpt lat="34.8771131" lon="33.6112198"><ele>10.1</ele><time>2015-05-01T08:27:22.0000000+00:00</time></trkpt><trkpt lat="34.8771147" lon="33.611158"><ele>10.1</ele><time>2015-05-01T08:27:23.0000000+00:00</time></trkpt><trkpt lat="34.8771259" lon="33.6110948"><ele>10.1</ele><time>2015-05-01T08:27:24.0000000+00:00</time></trkpt><trkpt lat="34.8771354" lon="33.6110302"><ele>10.0</ele><time>2015-05-01T08:27:25.0000000+00:00</time></trkpt><trkpt lat="34.877142" lon="33.6109657"><ele>10.0</ele><time>2015-05-01T08:27:26.0000000+00:00</time></trkpt><trkpt lat="34.8771483" lon="33.6108967"><ele>9.5</ele><time>2015-05-01T08:27:27.0000000+00:00</time></trkpt><trkpt lat="34.8771602" lon="33.6108323"><ele>8.8</ele><time>2015-05-01T08:27:28.0000000+00:00</time></trkpt><trkpt lat="34.8771668" lon="33.6107706"><ele>8.9</ele><time>2015-05-01T08:27:29.0000000+00:00</time></trkpt><trkpt lat="34.8771768" lon="33.610712"><ele>9.5</ele><time>2015-05-01T08:27:30.0000000+00:00</time></trkpt><trkpt lat="34.8771813" lon="33.6106453"><ele>9.7</ele><time>2015-05-01T08:27:31.0000000+00:00</time></trkpt><trkpt lat="34.8771905" lon="33.6105729"><ele>9.9</ele><time>2015-05-01T08:27:32.0000000+00:00</time></trkpt><trkpt lat="34.877194" lon="33.6105065"><ele>10.0</ele><time>2015-05-01T08:27:33.0000000+00:00</time></trkpt><trkpt lat="34.8772032" lon="33.6104426"><ele>10.0</ele><time>2015-05-01T08:27:34.0000000+00:00</time></trkpt><trkpt lat="34.8772146" lon="33.6103349"><ele>10.5</ele><time>2015-05-01T08:27:36.0000000+00:00</time></trkpt><trkpt lat="34.8772208" lon="33.6102372"><ele>11.4</ele><time>2015-05-01T08:27:38.0000000+00:00</time></trkpt><trkpt lat="34.8772418" lon="33.6101373"><ele>11.4</ele><time>2015-05-01T08:27:40.0000000+00:00</time></trkpt><trkpt lat="34.8772544" lon="33.6100428"><ele>11.9</ele><time>2015-05-01T08:27:42.0000000+00:00</time></trkpt><trkpt lat="34.8772729" lon="33.6099403"><ele>12.5</ele><time>2015-05-01T08:27:44.0000000+00:00</time></trkpt><trkpt lat="34.8772828" lon="33.6098464"><ele>13.4</ele><time>2015-05-01T08:27:46.0000000+00:00</time></trkpt><trkpt lat="34.8772902" lon="33.6097825"><ele>13.7</ele><time>2015-05-01T08:27:47.0000000+00:00</time></trkpt><trkpt lat="34.8772973" lon="33.6097228"><ele>13.9</ele><time>2015-05-01T08:27:48.0000000+00:00</time></trkpt><trkpt lat="34.877304" lon="33.6096134"><ele>14.2</ele><time>2015-05-01T08:27:50.0000000+00:00</time></trkpt><trkpt lat="34.8773166" lon="33.6095578"><ele>14.6</ele><time>2015-05-01T08:27:51.0000000+00:00</time></trkpt><trkpt lat="34.8773182" lon="33.6094479"><ele>15.7</ele><time>2015-05-01T08:27:53.0000000+00:00</time></trkpt><trkpt lat="34.8773181" lon="33.6093926"><ele>15.8</ele><time>2015-05-01T08:27:54.0000000+00:00</time></trkpt><trkpt lat="34.877337" lon="33.6093313"><ele>15.4</ele><time>2015-05-01T08:27:55.0000000+00:00</time></trkpt><trkpt lat="34.8773491" lon="33.6092728"><ele>14.7</ele><time>2015-05-01T08:27:56.0000000+00:00</time></trkpt><trkpt lat="34.8773554" lon="33.6092121"><ele>14.4</ele><time>2015-05-01T08:27:57.0000000+00:00</time></trkpt><trkpt lat="34.877364" lon="33.6091518"><ele>14.2</ele><time>2015-05-01T08:27:58.0000000+00:00</time></trkpt><trkpt lat="34.8773774" lon="33.6090502"><ele>13.8</ele><time>2015-05-01T08:28:00.0000000+00:00</time></trkpt><trkpt lat="34.8773798" lon="33.6089943"><ele>13.9</ele><time>2015-05-01T08:28:01.0000000+00:00</time></trkpt><trkpt lat="34.8773866" lon="33.6089305"><ele>14.0</ele><time>2015-05-01T08:28:02.0000000+00:00</time></trkpt><trkpt lat="34.8774154" lon="33.6088248"><ele>14.8</ele><time>2015-05-01T08:28:04.0000000+00:00</time></trkpt><trkpt lat="34.8774211" lon="33.6087689"><ele>14.9</ele><time>2015-05-01T08:28:05.0000000+00:00</time></trkpt><trkpt lat="34.8774285" lon="33.608711"><ele>15.5</ele><time>2015-05-01T08:28:06.0000000+00:00</time></trkpt><trkpt lat="34.8774339" lon="33.6086518"><ele>15.7</ele><time>2015-05-01T08:28:07.0000000+00:00</time></trkpt><trkpt lat="34.8774462" lon="33.6085483"><ele>16.2</ele><time>2015-05-01T08:28:09.0000000+00:00</time></trkpt><trkpt lat="34.877454" lon="33.6084907"><ele>15.6</ele><time>2015-05-01T08:28:10.0000000+00:00</time></trkpt><trkpt lat="34.8774484" lon="33.6083887"><ele>15.2</ele><time>2015-05-01T08:28:12.0000000+00:00</time></trkpt><trkpt lat="34.8774563" lon="33.6083324"><ele>15.6</ele><time>2015-05-01T08:28:13.0000000+00:00</time></trkpt><trkpt lat="34.8774632" lon="33.6082772"><ele>15.3</ele><time>2015-05-01T08:28:14.0000000+00:00</time></trkpt><trkpt lat="34.8774669" lon="33.6082172"><ele>15.2</ele><time>2015-05-01T08:28:15.0000000+00:00</time></trkpt><trkpt lat="34.8774716" lon="33.6081512"><ele>15.1</ele><time>2015-05-01T08:28:16.0000000+00:00</time></trkpt><trkpt lat="34.8774713" lon="33.6080874"><ele>15.1</ele><time>2015-05-01T08:28:17.0000000+00:00</time></trkpt><trkpt lat="34.8774814" lon="33.6080326"><ele>15.0</ele><time>2015-05-01T08:28:18.0000000+00:00</time></trkpt><trkpt lat="34.8774832" lon="33.6079254"><ele>15.8</ele><time>2015-05-01T08:28:20.0000000+00:00</time></trkpt><trkpt lat="34.8775021" lon="33.6078111"><ele>17.0</ele><time>2015-05-01T08:28:22.0000000+00:00</time></trkpt><trkpt lat="34.8775132" lon="33.6077069"><ele>17.0</ele><time>2015-05-01T08:28:24.0000000+00:00</time></trkpt><trkpt lat="34.8775243" lon="33.6075972"><ele>17.8</ele><time>2015-05-01T08:28:26.0000000+00:00</time></trkpt><trkpt lat="34.8775308" lon="33.6075317"><ele>17.9</ele><time>2015-05-01T08:28:27.0000000+00:00</time></trkpt><trkpt lat="34.8775263" lon="33.6074687"><ele>17.5</ele><time>2015-05-01T08:28:28.0000000+00:00</time></trkpt><trkpt lat="34.8775302" lon="33.6074076"><ele>17.7</ele><time>2015-05-01T08:28:29.0000000+00:00</time></trkpt><trkpt lat="34.8775338" lon="33.6073474"><ele>17.9</ele><time>2015-05-01T08:28:30.0000000+00:00</time></trkpt><trkpt lat="34.8775336" lon="33.6072922"><ele>17.5</ele><time>2015-05-01T08:28:31.0000000+00:00</time></trkpt><trkpt lat="34.8775305" lon="33.6071711"><ele>17.4</ele><time>2015-05-01T08:28:33.0000000+00:00</time></trkpt><trkpt lat="34.877535" lon="33.6071144"><ele>17.2</ele><time>2015-05-01T08:28:34.0000000+00:00</time></trkpt><trkpt lat="34.877537" lon="33.6070092"><ele>17.8</ele><time>2015-05-01T08:28:36.0000000+00:00</time></trkpt><trkpt lat="34.8775368" lon="33.6069162"><ele>18.5</ele><time>2015-05-01T08:28:38.0000000+00:00</time></trkpt><trkpt lat="34.8775276" lon="33.6067938"><ele>18.6</ele><time>2015-05-01T08:28:40.0000000+00:00</time></trkpt><trkpt lat="34.8775193" lon="33.6066831"><ele>19.2</ele><time>2015-05-01T08:28:42.0000000+00:00</time></trkpt><trkpt lat="34.8775149" lon="33.6066157"><ele>19.1</ele><time>2015-05-01T08:28:43.0000000+00:00</time></trkpt><trkpt lat="34.8775073" lon="33.6065476"><ele>19.6</ele><time>2015-05-01T08:28:44.0000000+00:00</time></trkpt><trkpt lat="34.8775011" lon="33.606482"><ele>19.8</ele><time>2015-05-01T08:28:45.0000000+00:00</time></trkpt><trkpt lat="34.8774923" lon="33.6064238"><ele>20.4</ele><time>2015-05-01T08:28:46.0000000+00:00</time></trkpt><trkpt lat="34.8774815" lon="33.6063186"><ele>20.1</ele><time>2015-05-01T08:28:48.0000000+00:00</time></trkpt><trkpt lat="34.8774783" lon="33.6062494"><ele>20.1</ele><time>2015-05-01T08:28:49.0000000+00:00</time></trkpt><trkpt lat="34.8774737" lon="33.6061944"><ele>20.0</ele><time>2015-05-01T08:28:50.0000000+00:00</time></trkpt><trkpt lat="34.8774658" lon="33.6061172"><ele>19.5</ele><time>2015-05-01T08:28:51.0000000+00:00</time></trkpt><trkpt lat="34.8774578" lon="33.6060502"><ele>19.8</ele><time>2015-05-01T08:28:52.0000000+00:00</time></trkpt><trkpt lat="34.8774449" lon="33.6059874"><ele>19.9</ele><time>2015-05-01T08:28:53.0000000+00:00</time></trkpt><trkpt lat="34.8774417" lon="33.6059222"><ele>20.0</ele><time>2015-05-01T08:28:54.0000000+00:00</time></trkpt><trkpt lat="34.8774204" lon="33.6058169"><ele>19.8</ele><time>2015-05-01T08:28:56.0000000+00:00</time></trkpt><trkpt lat="34.8774023" lon="33.6057634"><ele>18.9</ele><time>2015-05-01T08:28:57.0000000+00:00</time></trkpt><trkpt lat="34.8773898" lon="33.6057085"><ele>18.5</ele><time>2015-05-01T08:28:58.0000000+00:00</time></trkpt><trkpt lat="34.877384" lon="33.6056443"><ele>17.7</ele><time>2015-05-01T08:28:59.0000000+00:00</time></trkpt><trkpt lat="34.8773721" lon="33.605573"><ele>16.9</ele><time>2015-05-01T08:29:00.0000000+00:00</time></trkpt><trkpt lat="34.8773302" lon="33.6054618"><ele>16.5</ele><time>2015-05-01T08:29:02.0000000+00:00</time></trkpt><trkpt lat="34.877309" lon="33.6054045"><ele>16.8</ele><time>2015-05-01T08:29:03.0000000+00:00</time></trkpt><trkpt lat="34.8772891" lon="33.6053425"><ele>16.9</ele><time>2015-05-01T08:29:04.0000000+00:00</time></trkpt><trkpt lat="34.8772753" lon="33.6052698"><ele>17.0</ele><time>2015-05-01T08:29:05.0000000+00:00</time></trkpt><trkpt lat="34.8772608" lon="33.6052085"><ele>17.0</ele><time>2015-05-01T08:29:06.0000000+00:00</time></trkpt><trkpt lat="34.8772277" lon="33.6051005"><ele>17.0</ele><time>2015-05-01T08:29:08.0000000+00:00</time></trkpt><trkpt lat="34.877205" lon="33.6050388"><ele>17.0</ele><time>2015-05-01T08:29:09.0000000+00:00</time></trkpt><trkpt lat="34.8771904" lon="33.6049763"><ele>16.5</ele><time>2015-05-01T08:29:10.0000000+00:00</time></trkpt><trkpt lat="34.8771702" lon="33.604911"><ele>16.3</ele><time>2015-05-01T08:29:11.0000000+00:00</time></trkpt><trkpt lat="34.8771518" lon="33.6048499"><ele>16.1</ele><time>2015-05-01T08:29:12.0000000+00:00</time></trkpt><trkpt lat="34.877127" lon="33.6047905"><ele>16.6</ele><time>2015-05-01T08:29:13.0000000+00:00</time></trkpt><trkpt lat="34.8771097" lon="33.604738"><ele>16.8</ele><time>2015-05-01T08:29:14.0000000+00:00</time></trkpt><trkpt lat="34.8770885" lon="33.604671"><ele>16.9</ele><time>2015-05-01T08:29:15.0000000+00:00</time></trkpt><trkpt lat="34.877067" lon="33.6046137"><ele>16.5</ele><time>2015-05-01T08:29:16.0000000+00:00</time></trkpt><trkpt lat="34.8770391" lon="33.6045573"><ele>16.7</ele><time>2015-05-01T08:29:17.0000000+00:00</time></trkpt><trkpt lat="34.8770074" lon="33.6044983"><ele>16.9</ele><time>2015-05-01T08:29:18.0000000+00:00</time></trkpt><trkpt lat="34.8769848" lon="33.6044439"><ele>17.0</ele><time>2015-05-01T08:29:19.0000000+00:00</time></trkpt><trkpt lat="34.8769624" lon="33.6043926"><ele>17.5</ele><time>2015-05-01T08:29:20.0000000+00:00</time></trkpt><trkpt lat="34.8769349" lon="33.6043416"><ele>18.8</ele><time>2015-05-01T08:29:21.0000000+00:00</time></trkpt><trkpt lat="34.8769069" lon="33.6042832"><ele>18.9</ele><time>2015-05-01T08:29:22.0000000+00:00</time></trkpt><trkpt lat="34.8768814" lon="33.6042287"><ele>18.5</ele><time>2015-05-01T08:29:23.0000000+00:00</time></trkpt><trkpt lat="34.8768571" lon="33.6041775"><ele>18.2</ele><time>2015-05-01T08:29:24.0000000+00:00</time></trkpt><trkpt lat="34.8768114" lon="33.6040875"><ele>19.6</ele><time>2015-05-01T08:29:26.0000000+00:00</time></trkpt><trkpt lat="34.87677" lon="33.6040042"><ele>19.4</ele><time>2015-05-01T08:29:28.0000000+00:00</time></trkpt><trkpt lat="34.8767419" lon="33.6039576"><ele>19.2</ele><time>2015-05-01T08:29:29.0000000+00:00</time></trkpt><trkpt lat="34.8767123" lon="33.6039118"><ele>19.1</ele><time>2015-05-01T08:29:30.0000000+00:00</time></trkpt><trkpt lat="34.8766786" lon="33.603867"><ele>19.1</ele><time>2015-05-01T08:29:31.0000000+00:00</time></trkpt><trkpt lat="34.8766477" lon="33.6038057"><ele>19.0</ele><time>2015-05-01T08:29:32.0000000+00:00</time></trkpt><trkpt lat="34.8766132" lon="33.6037552"><ele>19.5</ele><time>2015-05-01T08:29:33.0000000+00:00</time></trkpt><trkpt lat="34.8765826" lon="33.6036969"><ele>19.3</ele><time>2015-05-01T08:29:34.0000000+00:00</time></trkpt><trkpt lat="34.8765447" lon="33.6036395"><ele>19.6</ele><time>2015-05-01T08:29:35.0000000+00:00</time></trkpt><trkpt lat="34.8765046" lon="33.6035822"><ele>19.3</ele><time>2015-05-01T08:29:36.0000000+00:00</time></trkpt><trkpt lat="34.8764722" lon="33.6035209"><ele>19.2</ele><time>2015-05-01T08:29:37.0000000+00:00</time></trkpt><trkpt lat="34.8764343" lon="33.6034711"><ele>19.1</ele><time>2015-05-01T08:29:38.0000000+00:00</time></trkpt><trkpt lat="34.8763967" lon="33.6034298"><ele>18.6</ele><time>2015-05-01T08:29:39.0000000+00:00</time></trkpt><trkpt lat="34.8763589" lon="33.6033727"><ele>18.3</ele><time>2015-05-01T08:29:40.0000000+00:00</time></trkpt><trkpt lat="34.8763208" lon="33.6033218"><ele>17.7</ele><time>2015-05-01T08:29:41.0000000+00:00</time></trkpt><trkpt lat="34.8762802" lon="33.6032831"><ele>17.8</ele><time>2015-05-01T08:29:42.0000000+00:00</time></trkpt><trkpt lat="34.8762436" lon="33.6032402"><ele>17.4</ele><time>2015-05-01T08:29:43.0000000+00:00</time></trkpt><trkpt lat="34.8761973" lon="33.6032019"><ele>17.2</ele><time>2015-05-01T08:29:44.0000000+00:00</time></trkpt><trkpt lat="34.8761483" lon="33.6031636"><ele>17.1</ele><time>2015-05-01T08:29:45.0000000+00:00</time></trkpt><trkpt lat="34.8760957" lon="33.6031371"><ele>16.6</ele><time>2015-05-01T08:29:46.0000000+00:00</time></trkpt><trkpt lat="34.8760438" lon="33.6031138"><ele>16.3</ele><time>2015-05-01T08:29:47.0000000+00:00</time></trkpt><trkpt lat="34.8759842" lon="33.6030935"><ele>16.2</ele><time>2015-05-01T08:29:48.0000000+00:00</time></trkpt><trkpt lat="34.8759345" lon="33.6030802"><ele>16.6</ele><time>2015-05-01T08:29:49.0000000+00:00</time></trkpt><trkpt lat="34.8758691" lon="33.6030801"><ele>16.8</ele><time>2015-05-01T08:29:50.0000000+00:00</time></trkpt><trkpt lat="34.8758107" lon="33.603077"><ele>16.4</ele><time>2015-05-01T08:29:51.0000000+00:00</time></trkpt><trkpt lat="34.8757437" lon="33.6030748"><ele>16.2</ele><time>2015-05-01T08:29:52.0000000+00:00</time></trkpt><trkpt lat="34.8756698" lon="33.6030648"><ele>15.6</ele><time>2015-05-01T08:29:53.0000000+00:00</time></trkpt><trkpt lat="34.8756096" lon="33.6030481"><ele>15.8</ele><time>2015-05-01T08:29:54.0000000+00:00</time></trkpt><trkpt lat="34.8755528" lon="33.6030448"><ele>15.4</ele><time>2015-05-01T08:29:55.0000000+00:00</time></trkpt><trkpt lat="34.8754932" lon="33.6030179"><ele>15.2</ele><time>2015-05-01T08:29:56.0000000+00:00</time></trkpt><trkpt lat="34.8754454" lon="33.6029696"><ele>15.6</ele><time>2015-05-01T08:29:57.0000000+00:00</time></trkpt><trkpt lat="34.8753896" lon="33.60292"><ele>15.2</ele><time>2015-05-01T08:29:59.0000000+00:00</time></trkpt><trkpt lat="34.8753701" lon="33.602842"><ele>14.6</ele><time>2015-05-01T08:30:00.0000000+00:00</time></trkpt><trkpt lat="34.8753117" lon="33.6027337"><ele>15.2</ele><time>2015-05-01T08:30:02.0000000+00:00</time></trkpt><trkpt lat="34.8752874" lon="33.6026738"><ele>14.6</ele><time>2015-05-01T08:30:03.0000000+00:00</time></trkpt><trkpt lat="34.8752672" lon="33.6026048"><ele>13.8</ele><time>2015-05-01T08:30:04.0000000+00:00</time></trkpt><trkpt lat="34.8752734" lon="33.602483"><ele>14.5</ele><time>2015-05-01T08:30:06.0000000+00:00</time></trkpt><trkpt lat="34.8752793" lon="33.6024191"><ele>15.2</ele><time>2015-05-01T08:30:07.0000000+00:00</time></trkpt><trkpt lat="34.8752908" lon="33.6023001"><ele>16.6</ele><time>2015-05-01T08:30:09.0000000+00:00</time></trkpt><trkpt lat="34.8752874" lon="33.6022407"><ele>16.3</ele><time>2015-05-01T08:30:10.0000000+00:00</time></trkpt><trkpt lat="34.8752802" lon="33.6021789"><ele>16.2</ele><time>2015-05-01T08:30:11.0000000+00:00</time></trkpt><trkpt lat="34.87527" lon="33.6021204"><ele>16.6</ele><time>2015-05-01T08:30:12.0000000+00:00</time></trkpt><trkpt lat="34.8752486" lon="33.6020601"><ele>16.8</ele><time>2015-05-01T08:30:13.0000000+00:00</time></trkpt><trkpt lat="34.8752222" lon="33.6020046"><ele>16.4</ele><time>2015-05-01T08:30:14.0000000+00:00</time></trkpt><trkpt lat="34.8751828" lon="33.6019206"><ele>16.6</ele><time>2015-05-01T08:30:16.0000000+00:00</time></trkpt><trkpt lat="34.875136" lon="33.6018423"><ele>16.9</ele><time>2015-05-01T08:30:18.0000000+00:00</time></trkpt><trkpt lat="34.8750807" lon="33.6017645"><ele>17.0</ele><time>2015-05-01T08:30:20.0000000+00:00</time></trkpt><trkpt lat="34.8750183" lon="33.6016996"><ele>17.0</ele><time>2015-05-01T08:30:22.0000000+00:00</time></trkpt><trkpt lat="34.8749758" lon="33.6016423"><ele>15.8</ele><time>2015-05-01T08:30:24.0000000+00:00</time></trkpt><trkpt lat="34.8749204" lon="33.6015684"><ele>15.2</ele><time>2015-05-01T08:30:26.0000000+00:00</time></trkpt><trkpt lat="34.874862" lon="33.6015054"><ele>15.3</ele><time>2015-05-01T08:30:28.0000000+00:00</time></trkpt><trkpt lat="34.8748106" lon="33.6014406"><ele>16.8</ele><time>2015-05-01T08:30:30.0000000+00:00</time></trkpt><trkpt lat="34.874757" lon="33.6013804"><ele>18.2</ele><time>2015-05-01T08:30:32.0000000+00:00</time></trkpt><trkpt lat="34.8747039" lon="33.6013167"><ele>18.8</ele><time>2015-05-01T08:30:34.0000000+00:00</time></trkpt><trkpt lat="34.8746562" lon="33.6012505"><ele>19.5</ele><time>2015-05-01T08:30:36.0000000+00:00</time></trkpt><trkpt lat="34.8746086" lon="33.6011942"><ele>20.4</ele><time>2015-05-01T08:30:38.0000000+00:00</time></trkpt><trkpt lat="34.8745616" lon="33.601143"><ele>20.9</ele><time>2015-05-01T08:30:40.0000000+00:00</time></trkpt><trkpt lat="34.8745097" lon="33.6010918"><ele>21.2</ele><time>2015-05-01T08:30:42.0000000+00:00</time></trkpt><trkpt lat="34.8744515" lon="33.6010384"><ele>21.1</ele><time>2015-05-01T08:30:44.0000000+00:00</time></trkpt><trkpt lat="34.8743931" lon="33.6009815"><ele>21.0</ele><time>2015-05-01T08:30:46.0000000+00:00</time></trkpt><trkpt lat="34.8743302" lon="33.6009257"><ele>22.3</ele><time>2015-05-01T08:30:48.0000000+00:00</time></trkpt><trkpt lat="34.874266" lon="33.6008735"><ele>22.6</ele><time>2015-05-01T08:30:50.0000000+00:00</time></trkpt><trkpt lat="34.8742044" lon="33.6008246"><ele>22.2</ele><time>2015-05-01T08:30:52.0000000+00:00</time></trkpt><trkpt lat="34.8741454" lon="33.600775"><ele>21.3</ele><time>2015-05-01T08:30:54.0000000+00:00</time></trkpt><trkpt lat="34.8740884" lon="33.6007273"><ele>22.3</ele><time>2015-05-01T08:30:56.0000000+00:00</time></trkpt><trkpt lat="34.8740311" lon="33.6006846"><ele>22.9</ele><time>2015-05-01T08:30:58.0000000+00:00</time></trkpt><trkpt lat="34.8739703" lon="33.6006443"><ele>23.0</ele><time>2015-05-01T08:31:00.0000000+00:00</time></trkpt><trkpt lat="34.8739105" lon="33.6006029"><ele>23.5</ele><time>2015-05-01T08:31:02.0000000+00:00</time></trkpt><trkpt lat="34.8738499" lon="33.6005621"><ele>24.6</ele><time>2015-05-01T08:31:04.0000000+00:00</time></trkpt><trkpt lat="34.8737872" lon="33.6005194"><ele>25.4</ele><time>2015-05-01T08:31:06.0000000+00:00</time></trkpt><trkpt lat="34.8737197" lon="33.6004755"><ele>25.9</ele><time>2015-05-01T08:31:08.0000000+00:00</time></trkpt><trkpt lat="34.8736494" lon="33.6004331"><ele>26.0</ele><time>2015-05-01T08:31:10.0000000+00:00</time></trkpt><trkpt lat="34.8735534" lon="33.6003853"><ele>26.8</ele><time>2015-05-01T08:31:12.0000000+00:00</time></trkpt><trkpt lat="34.8734785" lon="33.6003366"><ele>27.7</ele><time>2015-05-01T08:31:14.0000000+00:00</time></trkpt><trkpt lat="34.8734078" lon="33.6002957"><ele>27.9</ele><time>2015-05-01T08:31:16.0000000+00:00</time></trkpt><trkpt lat="34.8733343" lon="33.6002664"><ele>28.0</ele><time>2015-05-01T08:31:18.0000000+00:00</time></trkpt><trkpt lat="34.8732596" lon="33.6002286"><ele>28.0</ele><time>2015-05-01T08:31:20.0000000+00:00</time></trkpt><trkpt lat="34.8731876" lon="33.6001937"><ele>28.0</ele><time>2015-05-01T08:31:22.0000000+00:00</time></trkpt><trkpt lat="34.8731105" lon="33.6001551"><ele>27.3</ele><time>2015-05-01T08:31:24.0000000+00:00</time></trkpt><trkpt lat="34.8730335" lon="33.6001191"><ele>27.1</ele><time>2015-05-01T08:31:26.0000000+00:00</time></trkpt><trkpt lat="34.8729506" lon="33.6000813"><ele>26.3</ele><time>2015-05-01T08:31:28.0000000+00:00</time></trkpt><trkpt lat="34.8728716" lon="33.600046"><ele>26.1</ele><time>2015-05-01T08:31:30.0000000+00:00</time></trkpt><trkpt lat="34.8727856" lon="33.6000024"><ele>25.5</ele><time>2015-05-01T08:31:32.0000000+00:00</time></trkpt><trkpt lat="34.8727111" lon="33.5999619"><ele>25.9</ele><time>2015-05-01T08:31:34.0000000+00:00</time></trkpt><trkpt lat="34.8726343" lon="33.5999291"><ele>26.0</ele><time>2015-05-01T08:31:36.0000000+00:00</time></trkpt><trkpt lat="34.8725519" lon="33.5998883"><ele>26.0</ele><time>2015-05-01T08:31:38.0000000+00:00</time></trkpt><trkpt lat="34.8724634" lon="33.5998477"><ele>26.0</ele><time>2015-05-01T08:31:40.0000000+00:00</time></trkpt><trkpt lat="34.872415" lon="33.5998224"><ele>26.0</ele><time>2015-05-01T08:31:41.0000000+00:00</time></trkpt><trkpt lat="34.8723682" lon="33.5998047"><ele>26.0</ele><time>2015-05-01T08:31:42.0000000+00:00</time></trkpt><trkpt lat="34.8723239" lon="33.5997819"><ele>26.5</ele><time>2015-05-01T08:31:43.0000000+00:00</time></trkpt><trkpt lat="34.8722803" lon="33.5997615"><ele>26.8</ele><time>2015-05-01T08:31:44.0000000+00:00</time></trkpt><trkpt lat="34.8721866" lon="33.5997353"><ele>26.2</ele><time>2015-05-01T08:31:46.0000000+00:00</time></trkpt><trkpt lat="34.8720983" lon="33.5996945"><ele>25.8</ele><time>2015-05-01T08:31:48.0000000+00:00</time></trkpt><trkpt lat="34.8720089" lon="33.5996485"><ele>25.2</ele><time>2015-05-01T08:31:50.0000000+00:00</time></trkpt><trkpt lat="34.871931" lon="33.5996196"><ele>25.1</ele><time>2015-05-01T08:31:52.0000000+00:00</time></trkpt><trkpt lat="34.8718527" lon="33.5995729"><ele>25.0</ele><time>2015-05-01T08:31:54.0000000+00:00</time></trkpt><trkpt lat="34.8717734" lon="33.5995413"><ele>25.0</ele><time>2015-05-01T08:31:56.0000000+00:00</time></trkpt><trkpt lat="34.8717298" lon="33.5995258"><ele>25.0</ele><time>2015-05-01T08:31:57.0000000+00:00</time></trkpt><trkpt lat="34.8716764" lon="33.5994974"><ele>25.0</ele><time>2015-05-01T08:31:58.0000000+00:00</time></trkpt><trkpt lat="34.8716309" lon="33.5994768"><ele>25.0</ele><time>2015-05-01T08:31:59.0000000+00:00</time></trkpt><trkpt lat="34.8715828" lon="33.5994537"><ele>25.0</ele><time>2015-05-01T08:32:00.0000000+00:00</time></trkpt><trkpt lat="34.8715364" lon="33.5994272"><ele>24.5</ele><time>2015-05-01T08:32:01.0000000+00:00</time></trkpt><trkpt lat="34.871492" lon="33.5993998"><ele>24.3</ele><time>2015-05-01T08:32:02.0000000+00:00</time></trkpt><trkpt lat="34.8714464" lon="33.5993823"><ele>24.6</ele><time>2015-05-01T08:32:03.0000000+00:00</time></trkpt><trkpt lat="34.8713989" lon="33.5993526"><ele>24.8</ele><time>2015-05-01T08:32:04.0000000+00:00</time></trkpt><trkpt lat="34.8713515" lon="33.5993238"><ele>25.4</ele><time>2015-05-01T08:32:05.0000000+00:00</time></trkpt><trkpt lat="34.8713049" lon="33.5993044"><ele>25.2</ele><time>2015-05-01T08:32:06.0000000+00:00</time></trkpt><trkpt lat="34.8712627" lon="33.5992741"><ele>25.1</ele><time>2015-05-01T08:32:07.0000000+00:00</time></trkpt><trkpt lat="34.8712154" lon="33.5992552"><ele>25.1</ele><time>2015-05-01T08:32:08.0000000+00:00</time></trkpt><trkpt lat="34.8711712" lon="33.5992274"><ele>25.0</ele><time>2015-05-01T08:32:09.0000000+00:00</time></trkpt><trkpt lat="34.8711257" lon="33.5992065"><ele>25.0</ele><time>2015-05-01T08:32:10.0000000+00:00</time></trkpt><trkpt lat="34.8710777" lon="33.5991791"><ele>24.5</ele><time>2015-05-01T08:32:11.0000000+00:00</time></trkpt><trkpt lat="34.8710227" lon="33.5991504"><ele>24.3</ele><time>2015-05-01T08:32:12.0000000+00:00</time></trkpt><trkpt lat="34.8709678" lon="33.5991313"><ele>24.1</ele><time>2015-05-01T08:32:13.0000000+00:00</time></trkpt><trkpt lat="34.8709147" lon="33.5991122"><ele>24.1</ele><time>2015-05-01T08:32:14.0000000+00:00</time></trkpt><trkpt lat="34.8708639" lon="33.5990882"><ele>24.1</ele><time>2015-05-01T08:32:15.0000000+00:00</time></trkpt><trkpt lat="34.8708172" lon="33.5990534"><ele>24.5</ele><time>2015-05-01T08:32:16.0000000+00:00</time></trkpt><trkpt lat="34.8707711" lon="33.5990377"><ele>24.8</ele><time>2015-05-01T08:32:17.0000000+00:00</time></trkpt><trkpt lat="34.8707199" lon="33.5990122"><ele>24.4</ele><time>2015-05-01T08:32:18.0000000+00:00</time></trkpt><trkpt lat="34.8706764" lon="33.5989899"><ele>24.2</ele><time>2015-05-01T08:32:19.0000000+00:00</time></trkpt><trkpt lat="34.8705922" lon="33.5989473"><ele>23.3</ele><time>2015-05-01T08:32:21.0000000+00:00</time></trkpt><trkpt lat="34.8705499" lon="33.5989283"><ele>23.7</ele><time>2015-05-01T08:32:22.0000000+00:00</time></trkpt><trkpt lat="34.8704713" lon="33.5988905"><ele>24.9</ele><time>2015-05-01T08:32:24.0000000+00:00</time></trkpt><trkpt lat="34.870426" lon="33.5988664"><ele>25.5</ele><time>2015-05-01T08:32:25.0000000+00:00</time></trkpt><trkpt lat="34.8703792" lon="33.5988377"><ele>26.2</ele><time>2015-05-01T08:32:26.0000000+00:00</time></trkpt><trkpt lat="34.8703288" lon="33.598817"><ele>26.6</ele><time>2015-05-01T08:32:27.0000000+00:00</time></trkpt><trkpt lat="34.8702772" lon="33.59879"><ele>26.8</ele><time>2015-05-01T08:32:28.0000000+00:00</time></trkpt><trkpt lat="34.8702171" lon="33.5987751"><ele>26.9</ele><time>2015-05-01T08:32:29.0000000+00:00</time></trkpt><trkpt lat="34.8701698" lon="33.5987489"><ele>26.5</ele><time>2015-05-01T08:32:30.0000000+00:00</time></trkpt><trkpt lat="34.8701172" lon="33.598719"><ele>26.2</ele><time>2015-05-01T08:32:31.0000000+00:00</time></trkpt><trkpt lat="34.870068" lon="33.5986826"><ele>25.6</ele><time>2015-05-01T08:32:32.0000000+00:00</time></trkpt><trkpt lat="34.8700232" lon="33.5986663"><ele>25.3</ele><time>2015-05-01T08:32:33.0000000+00:00</time></trkpt><trkpt lat="34.869977" lon="33.598647"><ele>25.2</ele><time>2015-05-01T08:32:34.0000000+00:00</time></trkpt><trkpt lat="34.8698958" lon="33.5986052"><ele>24.3</ele><time>2015-05-01T08:32:36.0000000+00:00</time></trkpt><trkpt lat="34.8698483" lon="33.5985863"><ele>24.2</ele><time>2015-05-01T08:32:37.0000000+00:00</time></trkpt><trkpt lat="34.8697725" lon="33.5985492"><ele>23.8</ele><time>2015-05-01T08:32:39.0000000+00:00</time></trkpt><trkpt lat="34.869721" lon="33.5985274"><ele>23.4</ele><time>2015-05-01T08:32:40.0000000+00:00</time></trkpt><trkpt lat="34.86967" lon="33.5985087"><ele>23.2</ele><time>2015-05-01T08:32:41.0000000+00:00</time></trkpt><trkpt lat="34.8696148" lon="33.5984903"><ele>23.1</ele><time>2015-05-01T08:32:42.0000000+00:00</time></trkpt><trkpt lat="34.869569" lon="33.5984596"><ele>22.6</ele><time>2015-05-01T08:32:43.0000000+00:00</time></trkpt><trkpt lat="34.8695147" lon="33.5984343"><ele>22.3</ele><time>2015-05-01T08:32:44.0000000+00:00</time></trkpt><trkpt lat="34.86946" lon="33.5984019"><ele>22.2</ele><time>2015-05-01T08:32:45.0000000+00:00</time></trkpt><trkpt lat="34.8694" lon="33.5983773"><ele>22.1</ele><time>2015-05-01T08:32:46.0000000+00:00</time></trkpt><trkpt lat="34.8693535" lon="33.5983472"><ele>22.1</ele><time>2015-05-01T08:32:47.0000000+00:00</time></trkpt><trkpt lat="34.8693082" lon="33.5983222"><ele>22.0</ele><time>2015-05-01T08:32:48.0000000+00:00</time></trkpt><trkpt lat="34.8692601" lon="33.5982981"><ele>21.5</ele><time>2015-05-01T08:32:49.0000000+00:00</time></trkpt><trkpt lat="34.8692139" lon="33.5982676"><ele>21.8</ele><time>2015-05-01T08:32:50.0000000+00:00</time></trkpt><trkpt lat="34.8691699" lon="33.5982429"><ele>21.9</ele><time>2015-05-01T08:32:51.0000000+00:00</time></trkpt><trkpt lat="34.8690947" lon="33.5982015"><ele>22.7</ele><time>2015-05-01T08:32:53.0000000+00:00</time></trkpt><trkpt lat="34.8690185" lon="33.5981605"><ele>23.5</ele><time>2015-05-01T08:32:55.0000000+00:00</time></trkpt><trkpt lat="34.8689733" lon="33.5981368"><ele>23.7</ele><time>2015-05-01T08:32:56.0000000+00:00</time></trkpt><trkpt lat="34.8689252" lon="33.5981123"><ele>23.9</ele><time>2015-05-01T08:32:57.0000000+00:00</time></trkpt><trkpt lat="34.8688839" lon="33.5980868"><ele>23.9</ele><time>2015-05-01T08:32:58.0000000+00:00</time></trkpt><trkpt lat="34.8688329" lon="33.5980576"><ele>24.0</ele><time>2015-05-01T08:32:59.0000000+00:00</time></trkpt><trkpt lat="34.8687876" lon="33.5980328"><ele>24.0</ele><time>2015-05-01T08:33:00.0000000+00:00</time></trkpt><trkpt lat="34.8687115" lon="33.5979899"><ele>24.3</ele><time>2015-05-01T08:33:02.0000000+00:00</time></trkpt><trkpt lat="34.868659" lon="33.5979605"><ele>24.1</ele><time>2015-05-01T08:33:04.0000000+00:00</time></trkpt><trkpt lat="34.8685985" lon="33.597911"><ele>24.0</ele><time>2015-05-01T08:33:06.0000000+00:00</time></trkpt><trkpt lat="34.8685287" lon="33.5978851"><ele>24.3</ele><time>2015-05-01T08:33:08.0000000+00:00</time></trkpt><trkpt lat="34.8684467" lon="33.5978556"><ele>23.3</ele><time>2015-05-01T08:33:10.0000000+00:00</time></trkpt><trkpt lat="34.8683699" lon="33.5978133"><ele>22.6</ele><time>2015-05-01T08:33:12.0000000+00:00</time></trkpt><trkpt lat="34.8682991" lon="33.5977654"><ele>22.9</ele><time>2015-05-01T08:33:14.0000000+00:00</time></trkpt><trkpt lat="34.8682324" lon="33.5977208"><ele>23.0</ele><time>2015-05-01T08:33:16.0000000+00:00</time></trkpt><trkpt lat="34.8681676" lon="33.5976789"><ele>23.0</ele><time>2015-05-01T08:33:18.0000000+00:00</time></trkpt><trkpt lat="34.868101" lon="33.5976451"><ele>21.8</ele><time>2015-05-01T08:33:20.0000000+00:00</time></trkpt><trkpt lat="34.8680417" lon="33.5976106"><ele>21.2</ele><time>2015-05-01T08:33:22.0000000+00:00</time></trkpt><trkpt lat="34.8680585" lon="33.5975353"><ele>23.5</ele><time>2015-05-01T08:33:54.0000000+00:00</time></trkpt><trkpt lat="34.8680555" lon="33.5974671"><ele>22.4</ele><time>2015-05-01T08:33:56.0000000+00:00</time></trkpt><trkpt lat="34.8680441" lon="33.5974081"><ele>21.6</ele><time>2015-05-01T08:33:58.0000000+00:00</time></trkpt><trkpt lat="34.8680322" lon="33.5973386"><ele>21.3</ele><time>2015-05-01T08:34:01.0000000+00:00</time></trkpt><trkpt lat="34.8680444" lon="33.5972664"><ele>20.9</ele><time>2015-05-01T08:34:04.0000000+00:00</time></trkpt><trkpt lat="34.8680846" lon="33.5972044"><ele>21.9</ele><time>2015-05-01T08:34:07.0000000+00:00</time></trkpt><trkpt lat="34.8681167" lon="33.5971589"><ele>21.5</ele><time>2015-05-01T08:34:09.0000000+00:00</time></trkpt><trkpt lat="34.8681504" lon="33.5971104"><ele>21.1</ele><time>2015-05-01T08:34:11.0000000+00:00</time></trkpt><trkpt lat="34.8681899" lon="33.5970477"><ele>21.4</ele><time>2015-05-01T08:34:14.0000000+00:00</time></trkpt><trkpt lat="34.8682126" lon="33.5969856"><ele>21.1</ele><time>2015-05-01T08:34:17.0000000+00:00</time></trkpt><trkpt lat="34.8682204" lon="33.5969044"><ele>21.9</ele><time>2015-05-01T08:34:20.0000000+00:00</time></trkpt><trkpt lat="34.8682409" lon="33.5968362"><ele>22.7</ele><time>2015-05-01T08:34:22.0000000+00:00</time></trkpt><trkpt lat="34.8682846" lon="33.5967802"><ele>23.5</ele><time>2015-05-01T08:34:24.0000000+00:00</time></trkpt><trkpt lat="34.8683278" lon="33.5967331"><ele>23.9</ele><time>2015-05-01T08:34:26.0000000+00:00</time></trkpt><trkpt lat="34.8683715" lon="33.5966815"><ele>24.7</ele><time>2015-05-01T08:34:28.0000000+00:00</time></trkpt><trkpt lat="34.8684148" lon="33.5966173"><ele>25.4</ele><time>2015-05-01T08:34:30.0000000+00:00</time></trkpt><trkpt lat="34.8684672" lon="33.5965359"><ele>25.9</ele><time>2015-05-01T08:34:32.0000000+00:00</time></trkpt><trkpt lat="34.8685074" lon="33.5964638"><ele>25.4</ele><time>2015-05-01T08:34:33.0000000+00:00</time></trkpt><trkpt lat="34.8685343" lon="33.596419"><ele>25.7</ele><time>2015-05-01T08:34:34.0000000+00:00</time></trkpt><trkpt lat="34.8685545" lon="33.5963676"><ele>26.4</ele><time>2015-05-01T08:34:35.0000000+00:00</time></trkpt><trkpt lat="34.868585" lon="33.59632"><ele>26.7</ele><time>2015-05-01T08:34:36.0000000+00:00</time></trkpt><trkpt lat="34.8686413" lon="33.5962367"><ele>26.9</ele><time>2015-05-01T08:34:38.0000000+00:00</time></trkpt><trkpt lat="34.8686904" lon="33.5961543"><ele>26.3</ele><time>2015-05-01T08:34:40.0000000+00:00</time></trkpt><trkpt lat="34.8687299" lon="33.5960865"><ele>24.8</ele><time>2015-05-01T08:34:42.0000000+00:00</time></trkpt><trkpt lat="34.8687675" lon="33.5960079"><ele>25.0</ele><time>2015-05-01T08:34:44.0000000+00:00</time></trkpt><trkpt lat="34.8688163" lon="33.5959211"><ele>25.0</ele><time>2015-05-01T08:34:46.0000000+00:00</time></trkpt><trkpt lat="34.8688714" lon="33.5958325"><ele>25.0</ele><time>2015-05-01T08:34:48.0000000+00:00</time></trkpt><trkpt lat="34.8688937" lon="33.595781"><ele>25.5</ele><time>2015-05-01T08:34:49.0000000+00:00</time></trkpt><trkpt lat="34.8689204" lon="33.5957246"><ele>25.8</ele><time>2015-05-01T08:34:50.0000000+00:00</time></trkpt><trkpt lat="34.8689721" lon="33.5956156"><ele>26.0</ele><time>2015-05-01T08:34:52.0000000+00:00</time></trkpt><trkpt lat="34.8690039" lon="33.5955656"><ele>26.5</ele><time>2015-05-01T08:34:53.0000000+00:00</time></trkpt><trkpt lat="34.8690346" lon="33.5955206"><ele>26.3</ele><time>2015-05-01T08:34:54.0000000+00:00</time></trkpt><trkpt lat="34.8690567" lon="33.5954618"><ele>26.1</ele><time>2015-05-01T08:34:55.0000000+00:00</time></trkpt><trkpt lat="34.8690857" lon="33.5954066"><ele>26.6</ele><time>2015-05-01T08:34:56.0000000+00:00</time></trkpt><trkpt lat="34.8691141" lon="33.5953529"><ele>26.3</ele><time>2015-05-01T08:34:57.0000000+00:00</time></trkpt><trkpt lat="34.8691423" lon="33.5953021"><ele>26.7</ele><time>2015-05-01T08:34:58.0000000+00:00</time></trkpt><trkpt lat="34.8691618" lon="33.5952518"><ele>27.3</ele><time>2015-05-01T08:34:59.0000000+00:00</time></trkpt><trkpt lat="34.8691883" lon="33.5951843"><ele>27.7</ele><time>2015-05-01T08:35:00.0000000+00:00</time></trkpt><trkpt lat="34.8692166" lon="33.5951302"><ele>27.9</ele><time>2015-05-01T08:35:01.0000000+00:00</time></trkpt><trkpt lat="34.8692473" lon="33.5950752"><ele>28.4</ele><time>2015-05-01T08:35:02.0000000+00:00</time></trkpt><trkpt lat="34.8692696" lon="33.5950146"><ele>28.7</ele><time>2015-05-01T08:35:03.0000000+00:00</time></trkpt><trkpt lat="34.8692982" lon="33.5949505"><ele>28.9</ele><time>2015-05-01T08:35:04.0000000+00:00</time></trkpt><trkpt lat="34.8693231" lon="33.5948922"><ele>28.9</ele><time>2015-05-01T08:35:05.0000000+00:00</time></trkpt><trkpt lat="34.8693435" lon="33.5948269"><ele>28.5</ele><time>2015-05-01T08:35:06.0000000+00:00</time></trkpt><trkpt lat="34.8693691" lon="33.5947637"><ele>28.3</ele><time>2015-05-01T08:35:07.0000000+00:00</time></trkpt><trkpt lat="34.8693919" lon="33.594703"><ele>28.1</ele><time>2015-05-01T08:35:08.0000000+00:00</time></trkpt><trkpt lat="34.8694076" lon="33.5946412"><ele>28.6</ele><time>2015-05-01T08:35:09.0000000+00:00</time></trkpt><trkpt lat="34.8694256" lon="33.594577"><ele>28.3</ele><time>2015-05-01T08:35:10.0000000+00:00</time></trkpt><trkpt lat="34.8694468" lon="33.5945145"><ele>28.2</ele><time>2015-05-01T08:35:11.0000000+00:00</time></trkpt><trkpt lat="34.8694742" lon="33.594452"><ele>28.6</ele><time>2015-05-01T08:35:12.0000000+00:00</time></trkpt><trkpt lat="34.869503" lon="33.5944058"><ele>28.3</ele><time>2015-05-01T08:35:13.0000000+00:00</time></trkpt><trkpt lat="34.8695227" lon="33.5943413"><ele>28.2</ele><time>2015-05-01T08:35:14.0000000+00:00</time></trkpt><trkpt lat="34.8695444" lon="33.5942841"><ele>27.1</ele><time>2015-05-01T08:35:15.0000000+00:00</time></trkpt><trkpt lat="34.869563" lon="33.5942092"><ele>26.6</ele><time>2015-05-01T08:35:16.0000000+00:00</time></trkpt><trkpt lat="34.8695816" lon="33.5941462"><ele>26.3</ele><time>2015-05-01T08:35:17.0000000+00:00</time></trkpt><trkpt lat="34.8696005" lon="33.5940813"><ele>26.2</ele><time>2015-05-01T08:35:18.0000000+00:00</time></trkpt><trkpt lat="34.8696177" lon="33.5940265"><ele>26.1</ele><time>2015-05-01T08:35:19.0000000+00:00</time></trkpt><trkpt lat="34.8696392" lon="33.5939562"><ele>26.1</ele><time>2015-05-01T08:35:20.0000000+00:00</time></trkpt><trkpt lat="34.8696672" lon="33.5939056"><ele>27.0</ele><time>2015-05-01T08:35:21.0000000+00:00</time></trkpt><trkpt lat="34.8696952" lon="33.5937972"><ele>27.8</ele><time>2015-05-01T08:35:23.0000000+00:00</time></trkpt><trkpt lat="34.8697135" lon="33.5937357"><ele>27.9</ele><time>2015-05-01T08:35:24.0000000+00:00</time></trkpt><trkpt lat="34.8697356" lon="33.5936741"><ele>28.0</ele><time>2015-05-01T08:35:25.0000000+00:00</time></trkpt><trkpt lat="34.8697529" lon="33.5936185"><ele>28.5</ele><time>2015-05-01T08:35:26.0000000+00:00</time></trkpt><trkpt lat="34.8697705" lon="33.5935674"><ele>28.3</ele><time>2015-05-01T08:35:27.0000000+00:00</time></trkpt><trkpt lat="34.8697842" lon="33.5935097"><ele>28.1</ele><time>2015-05-01T08:35:28.0000000+00:00</time></trkpt><trkpt lat="34.8698081" lon="33.5934418"><ele>28.1</ele><time>2015-05-01T08:35:29.0000000+00:00</time></trkpt><trkpt lat="34.8698326" lon="33.5933818"><ele>28.6</ele><time>2015-05-01T08:35:30.0000000+00:00</time></trkpt><trkpt lat="34.8698504" lon="33.5933267"><ele>28.8</ele><time>2015-05-01T08:35:31.0000000+00:00</time></trkpt><trkpt lat="34.8698583" lon="33.5932656"><ele>28.4</ele><time>2015-05-01T08:35:32.0000000+00:00</time></trkpt><trkpt lat="34.8698746" lon="33.5932021"><ele>27.7</ele><time>2015-05-01T08:35:33.0000000+00:00</time></trkpt><trkpt lat="34.8698967" lon="33.5931443"><ele>27.4</ele><time>2015-05-01T08:35:34.0000000+00:00</time></trkpt><trkpt lat="34.8699129" lon="33.5930825"><ele>27.2</ele><time>2015-05-01T08:35:35.0000000+00:00</time></trkpt><trkpt lat="34.8699271" lon="33.5930168"><ele>27.6</ele><time>2015-05-01T08:35:36.0000000+00:00</time></trkpt><trkpt lat="34.8699468" lon="33.5929605"><ele>28.3</ele><time>2015-05-01T08:35:37.0000000+00:00</time></trkpt><trkpt lat="34.8699543" lon="33.5928937"><ele>28.2</ele><time>2015-05-01T08:35:38.0000000+00:00</time></trkpt><trkpt lat="34.8699716" lon="33.5928309"><ele>28.6</ele><time>2015-05-01T08:35:39.0000000+00:00</time></trkpt><trkpt lat="34.8699952" lon="33.5927668"><ele>28.8</ele><time>2015-05-01T08:35:40.0000000+00:00</time></trkpt><trkpt lat="34.8700145" lon="33.5927068"><ele>28.9</ele><time>2015-05-01T08:35:41.0000000+00:00</time></trkpt><trkpt lat="34.8700302" lon="33.5926387"><ele>29.0</ele><time>2015-05-01T08:35:42.0000000+00:00</time></trkpt><trkpt lat="34.8700502" lon="33.5925782"><ele>29.0</ele><time>2015-05-01T08:35:43.0000000+00:00</time></trkpt><trkpt lat="34.870063" lon="33.5925126"><ele>29.0</ele><time>2015-05-01T08:35:44.0000000+00:00</time></trkpt><trkpt lat="34.8700823" lon="33.5924461"><ele>29.0</ele><time>2015-05-01T08:35:45.0000000+00:00</time></trkpt><trkpt lat="34.8700915" lon="33.59238"><ele>29.5</ele><time>2015-05-01T08:35:46.0000000+00:00</time></trkpt><trkpt lat="34.8701065" lon="33.5923135"><ele>29.8</ele><time>2015-05-01T08:35:47.0000000+00:00</time></trkpt><trkpt lat="34.8701259" lon="33.5922602"><ele>30.4</ele><time>2015-05-01T08:35:48.0000000+00:00</time></trkpt><trkpt lat="34.8701439" lon="33.5921999"><ele>30.2</ele><time>2015-05-01T08:35:49.0000000+00:00</time></trkpt><trkpt lat="34.8701582" lon="33.5921472"><ele>30.6</ele><time>2015-05-01T08:35:50.0000000+00:00</time></trkpt><trkpt lat="34.8701769" lon="33.5920913"><ele>30.8</ele><time>2015-05-01T08:35:51.0000000+00:00</time></trkpt><trkpt lat="34.8701952" lon="33.5920329"><ele>30.9</ele><time>2015-05-01T08:35:52.0000000+00:00</time></trkpt><trkpt lat="34.8702109" lon="33.5919747"><ele>31.0</ele><time>2015-05-01T08:35:53.0000000+00:00</time></trkpt><trkpt lat="34.8702254" lon="33.591919"><ele>31.0</ele><time>2015-05-01T08:35:54.0000000+00:00</time></trkpt><trkpt lat="34.8702384" lon="33.5918592"><ele>31.0</ele><time>2015-05-01T08:35:55.0000000+00:00</time></trkpt><trkpt lat="34.870253" lon="33.5918008"><ele>31.0</ele><time>2015-05-01T08:35:56.0000000+00:00</time></trkpt><trkpt lat="34.8702588" lon="33.5917395"><ele>31.0</ele><time>2015-05-01T08:35:57.0000000+00:00</time></trkpt><trkpt lat="34.8702794" lon="33.5916382"><ele>30.3</ele><time>2015-05-01T08:35:59.0000000+00:00</time></trkpt><trkpt lat="34.8702829" lon="33.5915827"><ele>29.6</ele><time>2015-05-01T08:36:00.0000000+00:00</time></trkpt><trkpt lat="34.8702977" lon="33.5915102"><ele>28.7</ele><time>2015-05-01T08:36:02.0000000+00:00</time></trkpt><trkpt lat="34.870291" lon="33.5914338"><ele>26.9</ele><time>2015-05-01T08:36:04.0000000+00:00</time></trkpt><trkpt lat="34.8702619" lon="33.591362"><ele>26.2</ele><time>2015-05-01T08:36:06.0000000+00:00</time></trkpt><trkpt lat="34.8702061" lon="33.5913084"><ele>26.8</ele><time>2015-05-01T08:36:08.0000000+00:00</time></trkpt><trkpt lat="34.8701411" lon="33.5912697"><ele>28.2</ele><time>2015-05-01T08:36:10.0000000+00:00</time></trkpt><trkpt lat="34.8700693" lon="33.5912416"><ele>29.3</ele><time>2015-05-01T08:36:12.0000000+00:00</time></trkpt><trkpt lat="34.8699881" lon="33.5912172"><ele>28.6</ele><time>2015-05-01T08:36:14.0000000+00:00</time></trkpt><trkpt lat="34.8699153" lon="33.5911938"><ele>27.8</ele><time>2015-05-01T08:36:15.0000000+00:00</time></trkpt><trkpt lat="34.8698606" lon="33.5911742"><ele>27.4</ele><time>2015-05-01T08:36:16.0000000+00:00</time></trkpt><trkpt lat="34.8698112" lon="33.5911522"><ele>26.7</ele><time>2015-05-01T08:36:17.0000000+00:00</time></trkpt><trkpt lat="34.8697641" lon="33.5911389"><ele>26.4</ele><time>2015-05-01T08:36:18.0000000+00:00</time></trkpt><trkpt lat="34.8697128" lon="33.5911171"><ele>26.7</ele><time>2015-05-01T08:36:19.0000000+00:00</time></trkpt><trkpt lat="34.8696658" lon="33.591102"><ele>26.9</ele><time>2015-05-01T08:36:20.0000000+00:00</time></trkpt><trkpt lat="34.8696151" lon="33.5910829"><ele>26.9</ele><time>2015-05-01T08:36:21.0000000+00:00</time></trkpt><trkpt lat="34.869565" lon="33.591063"><ele>27.0</ele><time>2015-05-01T08:36:22.0000000+00:00</time></trkpt><trkpt lat="34.8695164" lon="33.5910341"><ele>27.0</ele><time>2015-05-01T08:36:23.0000000+00:00</time></trkpt><trkpt lat="34.8694584" lon="33.5910007"><ele>27.0</ele><time>2015-05-01T08:36:24.0000000+00:00</time></trkpt><trkpt lat="34.8693911" lon="33.590968"><ele>27.0</ele><time>2015-05-01T08:36:25.0000000+00:00</time></trkpt><trkpt lat="34.8693368" lon="33.5909303"><ele>27.0</ele><time>2015-05-01T08:36:26.0000000+00:00</time></trkpt><trkpt lat="34.8692868" lon="33.5908983"><ele>26.5</ele><time>2015-05-01T08:36:27.0000000+00:00</time></trkpt><trkpt lat="34.8692261" lon="33.5908574"><ele>26.3</ele><time>2015-05-01T08:36:28.0000000+00:00</time></trkpt><trkpt lat="34.8691613" lon="33.5908302"><ele>25.6</ele><time>2015-05-01T08:36:29.0000000+00:00</time></trkpt><trkpt lat="34.869103" lon="33.5907904"><ele>25.8</ele><time>2015-05-01T08:36:30.0000000+00:00</time></trkpt><trkpt lat="34.869048" lon="33.5907536"><ele>25.9</ele><time>2015-05-01T08:36:31.0000000+00:00</time></trkpt><trkpt lat="34.868987" lon="33.5907183"><ele>26.0</ele><time>2015-05-01T08:36:32.0000000+00:00</time></trkpt><trkpt lat="34.8689412" lon="33.5906748"><ele>26.0</ele><time>2015-05-01T08:36:33.0000000+00:00</time></trkpt><trkpt lat="34.8688926" lon="33.5906334"><ele>26.0</ele><time>2015-05-01T08:36:34.0000000+00:00</time></trkpt><trkpt lat="34.8688509" lon="33.5905918"><ele>26.0</ele><time>2015-05-01T08:36:35.0000000+00:00</time></trkpt><trkpt lat="34.868807" lon="33.590553"><ele>26.0</ele><time>2015-05-01T08:36:36.0000000+00:00</time></trkpt><trkpt lat="34.8687664" lon="33.5905215"><ele>26.0</ele><time>2015-05-01T08:36:37.0000000+00:00</time></trkpt><trkpt lat="34.8687288" lon="33.590484"><ele>26.5</ele><time>2015-05-01T08:36:38.0000000+00:00</time></trkpt><trkpt lat="34.8686827" lon="33.5904593"><ele>26.8</ele><time>2015-05-01T08:36:39.0000000+00:00</time></trkpt><trkpt lat="34.8686352" lon="33.5904266"><ele>26.9</ele><time>2015-05-01T08:36:40.0000000+00:00</time></trkpt><trkpt lat="34.8685891" lon="33.5903852"><ele>27.0</ele><time>2015-05-01T08:36:41.0000000+00:00</time></trkpt><trkpt lat="34.8685406" lon="33.590344"><ele>27.0</ele><time>2015-05-01T08:36:42.0000000+00:00</time></trkpt><trkpt lat="34.868496" lon="33.5903048"><ele>27.5</ele><time>2015-05-01T08:36:43.0000000+00:00</time></trkpt><trkpt lat="34.8684435" lon="33.5902747"><ele>27.8</ele><time>2015-05-01T08:36:44.0000000+00:00</time></trkpt><trkpt lat="34.8683996" lon="33.5902415"><ele>27.9</ele><time>2015-05-01T08:36:45.0000000+00:00</time></trkpt><trkpt lat="34.8683562" lon="33.5902114"><ele>28.5</ele><time>2015-05-01T08:36:46.0000000+00:00</time></trkpt><trkpt lat="34.8683148" lon="33.5901689"><ele>28.2</ele><time>2015-05-01T08:36:47.0000000+00:00</time></trkpt><trkpt lat="34.8682686" lon="33.5901285"><ele>28.1</ele><time>2015-05-01T08:36:48.0000000+00:00</time></trkpt><trkpt lat="34.8681817" lon="33.5900801"><ele>28.0</ele><time>2015-05-01T08:36:50.0000000+00:00</time></trkpt><trkpt lat="34.8681359" lon="33.590057"><ele>28.0</ele><time>2015-05-01T08:36:51.0000000+00:00</time></trkpt><trkpt lat="34.8680863" lon="33.5900304"><ele>28.0</ele><time>2015-05-01T08:36:52.0000000+00:00</time></trkpt><trkpt lat="34.8680431" lon="33.5899988"><ele>28.5</ele><time>2015-05-01T08:36:53.0000000+00:00</time></trkpt><trkpt lat="34.8680025" lon="33.5899699"><ele>28.3</ele><time>2015-05-01T08:36:54.0000000+00:00</time></trkpt><trkpt lat="34.8679627" lon="33.5899377"><ele>28.1</ele><time>2015-05-01T08:36:55.0000000+00:00</time></trkpt><trkpt lat="34.8679184" lon="33.5899142"><ele>28.6</ele><time>2015-05-01T08:36:56.0000000+00:00</time></trkpt><trkpt lat="34.8678796" lon="33.5898792"><ele>28.8</ele><time>2015-05-01T08:36:57.0000000+00:00</time></trkpt><trkpt lat="34.8677952" lon="33.58983"><ele>28.2</ele><time>2015-05-01T08:36:59.0000000+00:00</time></trkpt><trkpt lat="34.8677535" lon="33.5898059"><ele>28.1</ele><time>2015-05-01T08:37:00.0000000+00:00</time></trkpt><trkpt lat="34.8676847" lon="33.5897513"><ele>28.0</ele><time>2015-05-01T08:37:02.0000000+00:00</time></trkpt><trkpt lat="34.8676144" lon="33.5897004"><ele>28.5</ele><time>2015-05-01T08:37:04.0000000+00:00</time></trkpt><trkpt lat="34.8675488" lon="33.5896546"><ele>28.9</ele><time>2015-05-01T08:37:06.0000000+00:00</time></trkpt><trkpt lat="34.8674886" lon="33.5896069"><ele>28.2</ele><time>2015-05-01T08:37:08.0000000+00:00</time></trkpt><trkpt lat="34.8674235" lon="33.5895612"><ele>28.3</ele><time>2015-05-01T08:37:10.0000000+00:00</time></trkpt><trkpt lat="34.8673537" lon="33.5895345"><ele>28.1</ele><time>2015-05-01T08:37:12.0000000+00:00</time></trkpt><trkpt lat="34.867288" lon="33.5895449"><ele>29.8</ele><time>2015-05-01T08:37:14.0000000+00:00</time></trkpt><trkpt lat="34.8672366" lon="33.5896088"><ele>31.2</ele><time>2015-05-01T08:37:16.0000000+00:00</time></trkpt><trkpt lat="34.8671967" lon="33.5896888"><ele>31.8</ele><time>2015-05-01T08:37:18.0000000+00:00</time></trkpt><trkpt lat="34.8671661" lon="33.5897726"><ele>31.2</ele><time>2015-05-01T08:37:20.0000000+00:00</time></trkpt><trkpt lat="34.8671361" lon="33.5898559"><ele>31.1</ele><time>2015-05-01T08:37:22.0000000+00:00</time></trkpt><trkpt lat="34.8671013" lon="33.5899399"><ele>31.0</ele><time>2015-05-01T08:37:24.0000000+00:00</time></trkpt><trkpt lat="34.867081" lon="33.5899974"><ele>31.0</ele><time>2015-05-01T08:37:25.0000000+00:00</time></trkpt><trkpt lat="34.8670562" lon="33.5900513"><ele>31.0</ele><time>2015-05-01T08:37:26.0000000+00:00</time></trkpt><trkpt lat="34.8670293" lon="33.5901016"><ele>31.0</ele><time>2015-05-01T08:37:27.0000000+00:00</time></trkpt><trkpt lat="34.8670013" lon="33.5901566"><ele>31.5</ele><time>2015-05-01T08:37:28.0000000+00:00</time></trkpt><trkpt lat="34.8669762" lon="33.5902057"><ele>31.8</ele><time>2015-05-01T08:37:29.0000000+00:00</time></trkpt><trkpt lat="34.866949" lon="33.590257"><ele>31.4</ele><time>2015-05-01T08:37:30.0000000+00:00</time></trkpt><trkpt lat="34.8669256" lon="33.5903116"><ele>31.2</ele><time>2015-05-01T08:37:31.0000000+00:00</time></trkpt><trkpt lat="34.8668865" lon="33.590356"><ele>31.6</ele><time>2015-05-01T08:37:32.0000000+00:00</time></trkpt><trkpt lat="34.86686" lon="33.5904035"><ele>31.8</ele><time>2015-05-01T08:37:33.0000000+00:00</time></trkpt><trkpt lat="34.8668321" lon="33.590518"><ele>31.2</ele><time>2015-05-01T08:37:35.0000000+00:00</time></trkpt><trkpt lat="34.8668131" lon="33.5905764"><ele>31.1</ele><time>2015-05-01T08:37:36.0000000+00:00</time></trkpt><trkpt lat="34.8667965" lon="33.5906278"><ele>30.6</ele><time>2015-05-01T08:37:37.0000000+00:00</time></trkpt><trkpt lat="34.8667802" lon="33.5906866"><ele>30.3</ele><time>2015-05-01T08:37:38.0000000+00:00</time></trkpt><trkpt lat="34.8667742" lon="33.5907445"><ele>30.2</ele><time>2015-05-01T08:37:39.0000000+00:00</time></trkpt><trkpt lat="34.8667575" lon="33.5908382"><ele>30.1</ele><time>2015-05-01T08:37:41.0000000+00:00</time></trkpt><trkpt lat="34.8667436" lon="33.5909089"><ele>30.5</ele><time>2015-05-01T08:37:43.0000000+00:00</time></trkpt><trkpt lat="34.8666901" lon="33.5909524"><ele>30.4</ele><time>2015-05-01T08:37:45.0000000+00:00</time></trkpt><trkpt lat="34.8666298" lon="33.590949"><ele>30.1</ele><time>2015-05-01T08:37:47.0000000+00:00</time></trkpt><trkpt lat="34.8665584" lon="33.5909555"><ele>30.8</ele><time>2015-05-01T08:37:49.0000000+00:00</time></trkpt><trkpt lat="34.8664782" lon="33.5909558"><ele>31.0</ele><time>2015-05-01T08:37:51.0000000+00:00</time></trkpt><trkpt lat="34.8664298" lon="33.5909561"><ele>31.0</ele><time>2015-05-01T08:37:52.0000000+00:00</time></trkpt><trkpt lat="34.8663782" lon="33.5909558"><ele>31.0</ele><time>2015-05-01T08:37:53.0000000+00:00</time></trkpt><trkpt lat="34.8663234" lon="33.5909607"><ele>31.0</ele><time>2015-05-01T08:37:54.0000000+00:00</time></trkpt><trkpt lat="34.8662697" lon="33.5909617"><ele>30.5</ele><time>2015-05-01T08:37:55.0000000+00:00</time></trkpt><trkpt lat="34.8662232" lon="33.5909619"><ele>30.3</ele><time>2015-05-01T08:37:56.0000000+00:00</time></trkpt><trkpt lat="34.8661783" lon="33.5909667"><ele>29.6</ele><time>2015-05-01T08:37:57.0000000+00:00</time></trkpt><trkpt lat="34.8661291" lon="33.5909805"><ele>28.8</ele><time>2015-05-01T08:37:58.0000000+00:00</time></trkpt><trkpt lat="34.866067" lon="33.5909985"><ele>27.9</ele><time>2015-05-01T08:37:59.0000000+00:00</time></trkpt><trkpt lat="34.8660104" lon="33.5910092"><ele>28.0</ele><time>2015-05-01T08:38:00.0000000+00:00</time></trkpt><trkpt lat="34.8659554" lon="33.5910278"><ele>28.0</ele><time>2015-05-01T08:38:01.0000000+00:00</time></trkpt><trkpt lat="34.8659097" lon="33.5910331"><ele>28.0</ele><time>2015-05-01T08:38:02.0000000+00:00</time></trkpt><trkpt lat="34.8658563" lon="33.5910354"><ele>28.5</ele><time>2015-05-01T08:38:03.0000000+00:00</time></trkpt><trkpt lat="34.8658007" lon="33.5910346"><ele>28.8</ele><time>2015-05-01T08:38:04.0000000+00:00</time></trkpt><trkpt lat="34.8657474" lon="33.5910348"><ele>28.4</ele><time>2015-05-01T08:38:05.0000000+00:00</time></trkpt><trkpt lat="34.8656914" lon="33.5910315"><ele>28.2</ele><time>2015-05-01T08:38:06.0000000+00:00</time></trkpt><trkpt lat="34.865608" lon="33.5910251"><ele>28.6</ele><time>2015-05-01T08:38:08.0000000+00:00</time></trkpt><trkpt lat="34.8655625" lon="33.5910276"><ele>27.8</ele><time>2015-05-01T08:38:09.0000000+00:00</time></trkpt><trkpt lat="34.8655167" lon="33.5910015"><ele>27.4</ele><time>2015-05-01T08:38:10.0000000+00:00</time></trkpt><trkpt lat="34.8654685" lon="33.59097"><ele>27.2</ele><time>2015-05-01T08:38:11.0000000+00:00</time></trkpt><trkpt lat="34.865416" lon="33.5909323"><ele>27.1</ele><time>2015-05-01T08:38:12.0000000+00:00</time></trkpt><trkpt lat="34.865373" lon="33.5909034"><ele>27.1</ele><time>2015-05-01T08:38:13.0000000+00:00</time></trkpt><trkpt lat="34.8653335" lon="33.5908697"><ele>27.5</ele><time>2015-05-01T08:38:14.0000000+00:00</time></trkpt><trkpt lat="34.865289" lon="33.5908362"><ele>27.8</ele><time>2015-05-01T08:38:15.0000000+00:00</time></trkpt><trkpt lat="34.8652149" lon="33.5907714"><ele>28.5</ele><time>2015-05-01T08:38:17.0000000+00:00</time></trkpt><trkpt lat="34.8651471" lon="33.5907178"><ele>28.9</ele><time>2015-05-01T08:38:19.0000000+00:00</time></trkpt><trkpt lat="34.8650716" lon="33.5906588"><ele>29.0</ele><time>2015-05-01T08:38:21.0000000+00:00</time></trkpt><trkpt lat="34.8650188" lon="33.590618"><ele>29.5</ele><time>2015-05-01T08:38:22.0000000+00:00</time></trkpt><trkpt lat="34.8649801" lon="33.59058"><ele>29.3</ele><time>2015-05-01T08:38:23.0000000+00:00</time></trkpt><trkpt lat="34.8649381" lon="33.5905397"><ele>29.1</ele><time>2015-05-01T08:38:24.0000000+00:00</time></trkpt><trkpt lat="34.8648989" lon="33.5904951"><ele>29.1</ele><time>2015-05-01T08:38:25.0000000+00:00</time></trkpt><trkpt lat="34.8648584" lon="33.5904403"><ele>29.1</ele><time>2015-05-01T08:38:26.0000000+00:00</time></trkpt><trkpt lat="34.8648139" lon="33.5904107"><ele>29.0</ele><time>2015-05-01T08:38:27.0000000+00:00</time></trkpt><trkpt lat="34.8647671" lon="33.590368"><ele>28.5</ele><time>2015-05-01T08:38:28.0000000+00:00</time></trkpt><trkpt lat="34.8647228" lon="33.5903312"><ele>28.8</ele><time>2015-05-01T08:38:29.0000000+00:00</time></trkpt><trkpt lat="34.8646845" lon="33.590293"><ele>27.9</ele><time>2015-05-01T08:38:30.0000000+00:00</time></trkpt><trkpt lat="34.8646379" lon="33.5902596"><ele>28.0</ele><time>2015-05-01T08:38:31.0000000+00:00</time></trkpt><trkpt lat="34.8645998" lon="33.5902189"><ele>28.5</ele><time>2015-05-01T08:38:32.0000000+00:00</time></trkpt><trkpt lat="34.8645583" lon="33.5901783"><ele>28.3</ele><time>2015-05-01T08:38:33.0000000+00:00</time></trkpt><trkpt lat="34.8645159" lon="33.5901364"><ele>28.1</ele><time>2015-05-01T08:38:34.0000000+00:00</time></trkpt><trkpt lat="34.8644747" lon="33.5900838"><ele>27.6</ele><time>2015-05-01T08:38:35.0000000+00:00</time></trkpt><trkpt lat="34.8644332" lon="33.5900413"><ele>27.3</ele><time>2015-05-01T08:38:36.0000000+00:00</time></trkpt><trkpt lat="34.8643852" lon="33.5899882"><ele>27.2</ele><time>2015-05-01T08:38:37.0000000+00:00</time></trkpt><trkpt lat="34.8643309" lon="33.5899516"><ele>27.6</ele><time>2015-05-01T08:38:38.0000000+00:00</time></trkpt><trkpt lat="34.8642919" lon="33.5899167"><ele>27.3</ele><time>2015-05-01T08:38:39.0000000+00:00</time></trkpt><trkpt lat="34.8642479" lon="33.5898705"><ele>27.2</ele><time>2015-05-01T08:38:40.0000000+00:00</time></trkpt><trkpt lat="34.8642018" lon="33.5898308"><ele>27.1</ele><time>2015-05-01T08:38:41.0000000+00:00</time></trkpt><trkpt lat="34.8641616" lon="33.5897908"><ele>27.1</ele><time>2015-05-01T08:38:42.0000000+00:00</time></trkpt><trkpt lat="34.8641259" lon="33.5897516"><ele>27.0</ele><time>2015-05-01T08:38:43.0000000+00:00</time></trkpt><trkpt lat="34.8640817" lon="33.5897038"><ele>27.5</ele><time>2015-05-01T08:38:44.0000000+00:00</time></trkpt><trkpt lat="34.8640391" lon="33.5896624"><ele>27.3</ele><time>2015-05-01T08:38:45.0000000+00:00</time></trkpt><trkpt lat="34.8640092" lon="33.5896164"><ele>26.6</ele><time>2015-05-01T08:38:46.0000000+00:00</time></trkpt><trkpt lat="34.8639623" lon="33.5895497"><ele>26.7</ele><time>2015-05-01T08:38:48.0000000+00:00</time></trkpt><trkpt lat="34.8639497" lon="33.5894746"><ele>26.9</ele><time>2015-05-01T08:38:50.0000000+00:00</time></trkpt><trkpt lat="34.8639608" lon="33.5893899"><ele>27.0</ele><time>2015-05-01T08:38:52.0000000+00:00</time></trkpt><trkpt lat="34.8639954" lon="33.5893064"><ele>27.0</ele><time>2015-05-01T08:38:54.0000000+00:00</time></trkpt><trkpt lat="34.8640308" lon="33.5892269"><ele>27.5</ele><time>2015-05-01T08:38:56.0000000+00:00</time></trkpt><trkpt lat="34.8640707" lon="33.5891596"><ele>27.9</ele><time>2015-05-01T08:38:58.0000000+00:00</time></trkpt><trkpt lat="34.8641123" lon="33.5890949"><ele>28.5</ele><time>2015-05-01T08:39:00.0000000+00:00</time></trkpt><trkpt lat="34.864151" lon="33.5890159"><ele>28.1</ele><time>2015-05-01T08:39:02.0000000+00:00</time></trkpt><trkpt lat="34.8642095" lon="33.5889162"><ele>28.6</ele><time>2015-05-01T08:39:04.0000000+00:00</time></trkpt><trkpt lat="34.8642498" lon="33.5888326"><ele>28.9</ele><time>2015-05-01T08:39:06.0000000+00:00</time></trkpt><trkpt lat="34.8643018" lon="33.5887401"><ele>28.5</ele><time>2015-05-01T08:39:08.0000000+00:00</time></trkpt><trkpt lat="34.8643277" lon="33.588694"><ele>28.3</ele><time>2015-05-01T08:39:09.0000000+00:00</time></trkpt><trkpt lat="34.8643558" lon="33.5886395"><ele>28.1</ele><time>2015-05-01T08:39:10.0000000+00:00</time></trkpt><trkpt lat="34.8643822" lon="33.5885885"><ele>27.6</ele><time>2015-05-01T08:39:11.0000000+00:00</time></trkpt><trkpt lat="34.8644153" lon="33.588539"><ele>27.8</ele><time>2015-05-01T08:39:12.0000000+00:00</time></trkpt><trkpt lat="34.8644374" lon="33.5884854"><ele>27.9</ele><time>2015-05-01T08:39:13.0000000+00:00</time></trkpt><trkpt lat="34.8644801" lon="33.5883922"><ele>29.2</ele><time>2015-05-01T08:39:15.0000000+00:00</time></trkpt><trkpt lat="34.8645192" lon="33.5883045"><ele>29.3</ele><time>2015-05-01T08:39:17.0000000+00:00</time></trkpt><trkpt lat="34.8645696" lon="33.5882382"><ele>28.8</ele><time>2015-05-01T08:39:19.0000000+00:00</time></trkpt><trkpt lat="34.8646152" lon="33.5881536"><ele>28.5</ele><time>2015-05-01T08:39:21.0000000+00:00</time></trkpt><trkpt lat="34.8646601" lon="33.5880717"><ele>26.1</ele><time>2015-05-01T08:39:23.0000000+00:00</time></trkpt><trkpt lat="34.8646885" lon="33.5880278"><ele>25.1</ele><time>2015-05-01T08:39:24.0000000+00:00</time></trkpt><trkpt lat="34.8647212" lon="33.5879807"><ele>24.5</ele><time>2015-05-01T08:39:25.0000000+00:00</time></trkpt><trkpt lat="34.8647454" lon="33.5879344"><ele>24.8</ele><time>2015-05-01T08:39:26.0000000+00:00</time></trkpt><trkpt lat="34.8647918" lon="33.5878568"><ele>24.5</ele><time>2015-05-01T08:39:28.0000000+00:00</time></trkpt><trkpt lat="34.8648111" lon="33.5877484"><ele>23.6</ele><time>2015-05-01T08:39:30.0000000+00:00</time></trkpt><trkpt lat="34.8647906" lon="33.5876713"><ele>23.2</ele><time>2015-05-01T08:39:32.0000000+00:00</time></trkpt><trkpt lat="34.8647218" lon="33.5876212"><ele>23.1</ele><time>2015-05-01T08:39:34.0000000+00:00</time></trkpt><trkpt lat="34.8646433" lon="33.5875661"><ele>24.3</ele><time>2015-05-01T08:39:36.0000000+00:00</time></trkpt><trkpt lat="34.864605" lon="33.5875299"><ele>24.7</ele><time>2015-05-01T08:39:37.0000000+00:00</time></trkpt><trkpt lat="34.8645642" lon="33.5875013"><ele>24.8</ele><time>2015-05-01T08:39:38.0000000+00:00</time></trkpt><trkpt lat="34.8645234" lon="33.5874721"><ele>24.9</ele><time>2015-05-01T08:39:39.0000000+00:00</time></trkpt><trkpt lat="34.8644792" lon="33.5874386"><ele>25.0</ele><time>2015-05-01T08:39:40.0000000+00:00</time></trkpt><trkpt lat="34.864437" lon="33.587408"><ele>25.0</ele><time>2015-05-01T08:39:41.0000000+00:00</time></trkpt><trkpt lat="34.8643943" lon="33.5873768"><ele>25.0</ele><time>2015-05-01T08:39:42.0000000+00:00</time></trkpt><trkpt lat="34.8643543" lon="33.5873467"><ele>25.0</ele><time>2015-05-01T08:39:43.0000000+00:00</time></trkpt><trkpt lat="34.8643062" lon="33.5873136"><ele>25.0</ele><time>2015-05-01T08:39:44.0000000+00:00</time></trkpt><trkpt lat="34.8642637" lon="33.5872938"><ele>25.0</ele><time>2015-05-01T08:39:45.0000000+00:00</time></trkpt><trkpt lat="34.8641908" lon="33.5872285"><ele>23.5</ele><time>2015-05-01T08:39:47.0000000+00:00</time></trkpt><trkpt lat="34.8641487" lon="33.5872003"><ele>23.3</ele><time>2015-05-01T08:39:48.0000000+00:00</time></trkpt><trkpt lat="34.8641032" lon="33.5871784"><ele>23.1</ele><time>2015-05-01T08:39:49.0000000+00:00</time></trkpt><trkpt lat="34.8640239" lon="33.5871303"><ele>22.8</ele><time>2015-05-01T08:39:51.0000000+00:00</time></trkpt><trkpt lat="34.8639827" lon="33.5870904"><ele>23.4</ele><time>2015-05-01T08:39:52.0000000+00:00</time></trkpt><trkpt lat="34.8639444" lon="33.5870526"><ele>23.7</ele><time>2015-05-01T08:39:53.0000000+00:00</time></trkpt><trkpt lat="34.8638619" lon="33.5869954"><ele>24.4</ele><time>2015-05-01T08:39:55.0000000+00:00</time></trkpt><trkpt lat="34.8638228" lon="33.586968"><ele>24.7</ele><time>2015-05-01T08:39:56.0000000+00:00</time></trkpt><trkpt lat="34.8637839" lon="33.5869386"><ele>24.9</ele><time>2015-05-01T08:39:57.0000000+00:00</time></trkpt><trkpt lat="34.8637224" lon="33.5868876"><ele>25.7</ele><time>2015-05-01T08:39:59.0000000+00:00</time></trkpt><trkpt lat="34.8636496" lon="33.5868321"><ele>25.9</ele><time>2015-05-01T08:40:01.0000000+00:00</time></trkpt><trkpt lat="34.86359" lon="33.5867887"><ele>26.8</ele><time>2015-05-01T08:40:03.0000000+00:00</time></trkpt><trkpt lat="34.8635177" lon="33.5867392"><ele>27.0</ele><time>2015-05-01T08:40:05.0000000+00:00</time></trkpt><trkpt lat="34.863461" lon="33.5867014"><ele>27.8</ele><time>2015-05-01T08:40:07.0000000+00:00</time></trkpt><trkpt lat="34.8634226" lon="33.5866683"><ele>28.7</ele><time>2015-05-01T08:40:09.0000000+00:00</time></trkpt><trkpt lat="34.8633723" lon="33.5866301"><ele>29.1</ele><time>2015-05-01T08:40:12.0000000+00:00</time></trkpt><trkpt lat="34.8633157" lon="33.5865948"><ele>29.0</ele><time>2015-05-01T08:40:14.0000000+00:00</time></trkpt><trkpt lat="34.8632529" lon="33.586543"><ele>30.0</ele><time>2015-05-01T08:40:16.0000000+00:00</time></trkpt><trkpt lat="34.8632025" lon="33.5864956"><ele>30.5</ele><time>2015-05-01T08:40:17.0000000+00:00</time></trkpt><trkpt lat="34.8631291" lon="33.5864504"><ele>30.9</ele><time>2015-05-01T08:40:19.0000000+00:00</time></trkpt><trkpt lat="34.8630604" lon="33.586406"><ele>31.5</ele><time>2015-05-01T08:40:21.0000000+00:00</time></trkpt><trkpt lat="34.8629812" lon="33.5863472"><ele>31.9</ele><time>2015-05-01T08:40:23.0000000+00:00</time></trkpt><trkpt lat="34.8629393" lon="33.586317"><ele>32.0</ele><time>2015-05-01T08:40:24.0000000+00:00</time></trkpt><trkpt lat="34.8628932" lon="33.58628"><ele>32.0</ele><time>2015-05-01T08:40:25.0000000+00:00</time></trkpt><trkpt lat="34.8628528" lon="33.5862546"><ele>32.0</ele><time>2015-05-01T08:40:26.0000000+00:00</time></trkpt><trkpt lat="34.8628107" lon="33.586235"><ele>32.5</ele><time>2015-05-01T08:40:27.0000000+00:00</time></trkpt><trkpt lat="34.8627644" lon="33.5862024"><ele>32.8</ele><time>2015-05-01T08:40:28.0000000+00:00</time></trkpt><trkpt lat="34.8627159" lon="33.5861551"><ele>33.4</ele><time>2015-05-01T08:40:29.0000000+00:00</time></trkpt><trkpt lat="34.8626827" lon="33.586118"><ele>33.7</ele><time>2015-05-01T08:40:30.0000000+00:00</time></trkpt><trkpt lat="34.8626131" lon="33.5860628"><ele>32.9</ele><time>2015-05-01T08:40:32.0000000+00:00</time></trkpt><trkpt lat="34.8625433" lon="33.586014"><ele>34.3</ele><time>2015-05-01T08:40:34.0000000+00:00</time></trkpt><trkpt lat="34.8624788" lon="33.5859762"><ele>35.3</ele><time>2015-05-01T08:40:36.0000000+00:00</time></trkpt><trkpt lat="34.8624233" lon="33.5859472"><ele>35.1</ele><time>2015-05-01T08:40:38.0000000+00:00</time></trkpt><trkpt lat="34.8623679" lon="33.5859127"><ele>35.0</ele><time>2015-05-01T08:40:40.0000000+00:00</time></trkpt><trkpt lat="34.8623073" lon="33.5858754"><ele>35.0</ele><time>2015-05-01T08:40:42.0000000+00:00</time></trkpt><trkpt lat="34.8622416" lon="33.5858457"><ele>35.0</ele><time>2015-05-01T08:40:44.0000000+00:00</time></trkpt><trkpt lat="34.8621727" lon="33.5858506"><ele>35.5</ele><time>2015-05-01T08:40:46.0000000+00:00</time></trkpt><trkpt lat="34.8621196" lon="33.5859182"><ele>35.1</ele><time>2015-05-01T08:40:48.0000000+00:00</time></trkpt><trkpt lat="34.8621095" lon="33.5860133"><ele>35.1</ele><time>2015-05-01T08:40:49.0000000+00:00</time></trkpt><trkpt lat="34.8620885" lon="33.5860672"><ele>35.1</ele><time>2015-05-01T08:40:50.0000000+00:00</time></trkpt><trkpt lat="34.8620645" lon="33.5861222"><ele>35.0</ele><time>2015-05-01T08:40:51.0000000+00:00</time></trkpt><trkpt lat="34.8620414" lon="33.5861799"><ele>35.0</ele><time>2015-05-01T08:40:52.0000000+00:00</time></trkpt><trkpt lat="34.862015" lon="33.5862416"><ele>35.0</ele><time>2015-05-01T08:40:53.0000000+00:00</time></trkpt><trkpt lat="34.8619866" lon="33.5862894"><ele>35.0</ele><time>2015-05-01T08:40:54.0000000+00:00</time></trkpt><trkpt lat="34.8619608" lon="33.5863396"><ele>35.0</ele><time>2015-05-01T08:40:55.0000000+00:00</time></trkpt><trkpt lat="34.8619255" lon="33.5863844"><ele>34.5</ele><time>2015-05-01T08:40:56.0000000+00:00</time></trkpt><trkpt lat="34.8618734" lon="33.586431"><ele>34.3</ele><time>2015-05-01T08:40:57.0000000+00:00</time></trkpt><trkpt lat="34.8618317" lon="33.586474"><ele>33.6</ele><time>2015-05-01T08:40:58.0000000+00:00</time></trkpt><trkpt lat="34.8617888" lon="33.5865198"><ele>33.3</ele><time>2015-05-01T08:40:59.0000000+00:00</time></trkpt><trkpt lat="34.8617406" lon="33.5865619"><ele>33.2</ele><time>2015-05-01T08:41:00.0000000+00:00</time></trkpt><trkpt lat="34.8616995" lon="33.5865974"><ele>32.6</ele><time>2015-05-01T08:41:01.0000000+00:00</time></trkpt><trkpt lat="34.8616522" lon="33.5866328"><ele>32.3</ele><time>2015-05-01T08:41:02.0000000+00:00</time></trkpt><trkpt lat="34.8616114" lon="33.5866687"><ele>31.7</ele><time>2015-05-01T08:41:03.0000000+00:00</time></trkpt><trkpt lat="34.8615729" lon="33.5867032"><ele>31.3</ele><time>2015-05-01T08:41:04.0000000+00:00</time></trkpt><trkpt lat="34.8615339" lon="33.5867522"><ele>31.7</ele><time>2015-05-01T08:41:05.0000000+00:00</time></trkpt><trkpt lat="34.8615088" lon="33.5867992"><ele>31.9</ele><time>2015-05-01T08:41:06.0000000+00:00</time></trkpt><trkpt lat="34.861483" lon="33.5868491"><ele>31.9</ele><time>2015-05-01T08:41:07.0000000+00:00</time></trkpt><trkpt lat="34.8614547" lon="33.5869022"><ele>32.0</ele><time>2015-05-01T08:41:08.0000000+00:00</time></trkpt><trkpt lat="34.8614337" lon="33.5869582"><ele>31.5</ele><time>2015-05-01T08:41:09.0000000+00:00</time></trkpt><trkpt lat="34.8614112" lon="33.5870083"><ele>31.8</ele><time>2015-05-01T08:41:10.0000000+00:00</time></trkpt><trkpt lat="34.8613715" lon="33.5871103"><ele>31.2</ele><time>2015-05-01T08:41:12.0000000+00:00</time></trkpt><trkpt lat="34.8613497" lon="33.58716"><ele>31.1</ele><time>2015-05-01T08:41:13.0000000+00:00</time></trkpt><trkpt lat="34.8613237" lon="33.5872112"><ele>31.1</ele><time>2015-05-01T08:41:14.0000000+00:00</time></trkpt><trkpt lat="34.8612709" lon="33.5873023"><ele>31.8</ele><time>2015-05-01T08:41:16.0000000+00:00</time></trkpt><trkpt lat="34.8612268" lon="33.5873915"><ele>32.7</ele><time>2015-05-01T08:41:18.0000000+00:00</time></trkpt><trkpt lat="34.8611824" lon="33.587477"><ele>32.2</ele><time>2015-05-01T08:41:20.0000000+00:00</time></trkpt><trkpt lat="34.8611474" lon="33.5875239"><ele>32.1</ele><time>2015-05-01T08:41:21.0000000+00:00</time></trkpt><trkpt lat="34.86111" lon="33.5875702"><ele>32.1</ele><time>2015-05-01T08:41:22.0000000+00:00</time></trkpt><trkpt lat="34.8610862" lon="33.5876268"><ele>32.0</ele><time>2015-05-01T08:41:23.0000000+00:00</time></trkpt><trkpt lat="34.8610577" lon="33.587689"><ele>32.0</ele><time>2015-05-01T08:41:24.0000000+00:00</time></trkpt><trkpt lat="34.8610271" lon="33.5877499"><ele>32.0</ele><time>2015-05-01T08:41:25.0000000+00:00</time></trkpt><trkpt lat="34.8609936" lon="33.5878135"><ele>32.0</ele><time>2015-05-01T08:41:26.0000000+00:00</time></trkpt><trkpt lat="34.8609626" lon="33.5878845"><ele>32.0</ele><time>2015-05-01T08:41:27.0000000+00:00</time></trkpt><trkpt lat="34.8609232" lon="33.5879607"><ele>32.0</ele><time>2015-05-01T08:41:28.0000000+00:00</time></trkpt><trkpt lat="34.8608857" lon="33.5880398"><ele>32.5</ele><time>2015-05-01T08:41:29.0000000+00:00</time></trkpt><trkpt lat="34.860857" lon="33.5881069"><ele>32.8</ele><time>2015-05-01T08:41:30.0000000+00:00</time></trkpt><trkpt lat="34.8608354" lon="33.5881768"><ele>32.9</ele><time>2015-05-01T08:41:31.0000000+00:00</time></trkpt><trkpt lat="34.8608047" lon="33.5882504"><ele>33.0</ele><time>2015-05-01T08:41:32.0000000+00:00</time></trkpt><trkpt lat="34.8607754" lon="33.5883066"><ele>32.5</ele><time>2015-05-01T08:41:33.0000000+00:00</time></trkpt><trkpt lat="34.8607389" lon="33.5883789"><ele>32.3</ele><time>2015-05-01T08:41:34.0000000+00:00</time></trkpt><trkpt lat="34.8607008" lon="33.5884425"><ele>32.1</ele><time>2015-05-01T08:41:35.0000000+00:00</time></trkpt><trkpt lat="34.8606667" lon="33.5885084"><ele>32.1</ele><time>2015-05-01T08:41:36.0000000+00:00</time></trkpt><trkpt lat="34.8606355" lon="33.5885675"><ele>31.6</ele><time>2015-05-01T08:41:37.0000000+00:00</time></trkpt><trkpt lat="34.8606094" lon="33.5886268"><ele>30.8</ele><time>2015-05-01T08:41:38.0000000+00:00</time></trkpt><trkpt lat="34.8605708" lon="33.5887007"><ele>30.9</ele><time>2015-05-01T08:41:39.0000000+00:00</time></trkpt><trkpt lat="34.8605348" lon="33.588758"><ele>30.5</ele><time>2015-05-01T08:41:40.0000000+00:00</time></trkpt><trkpt lat="34.8605023" lon="33.5888315"><ele>30.2</ele><time>2015-05-01T08:41:41.0000000+00:00</time></trkpt><trkpt lat="34.8604715" lon="33.5889046"><ele>30.1</ele><time>2015-05-01T08:41:42.0000000+00:00</time></trkpt><trkpt lat="34.8604385" lon="33.5889729"><ele>30.1</ele><time>2015-05-01T08:41:43.0000000+00:00</time></trkpt><trkpt lat="34.8604052" lon="33.5890384"><ele>30.5</ele><time>2015-05-01T08:41:44.0000000+00:00</time></trkpt><trkpt lat="34.8603738" lon="33.589108"><ele>31.3</ele><time>2015-05-01T08:41:45.0000000+00:00</time></trkpt><trkpt lat="34.8603387" lon="33.5891815"><ele>31.7</ele><time>2015-05-01T08:41:46.0000000+00:00</time></trkpt><trkpt lat="34.8603168" lon="33.589237"><ele>31.8</ele><time>2015-05-01T08:41:47.0000000+00:00</time></trkpt><trkpt lat="34.8602864" lon="33.5893054"><ele>31.9</ele><time>2015-05-01T08:41:48.0000000+00:00</time></trkpt><trkpt lat="34.8602496" lon="33.5893679"><ele>32.0</ele><time>2015-05-01T08:41:49.0000000+00:00</time></trkpt><trkpt lat="34.8602198" lon="33.5894225"><ele>32.0</ele><time>2015-05-01T08:41:50.0000000+00:00</time></trkpt><trkpt lat="34.86019" lon="33.5894764"><ele>32.0</ele><time>2015-05-01T08:41:51.0000000+00:00</time></trkpt><trkpt lat="34.8601612" lon="33.5895265"><ele>31.5</ele><time>2015-05-01T08:41:52.0000000+00:00</time></trkpt><trkpt lat="34.8601246" lon="33.5895833"><ele>31.8</ele><time>2015-05-01T08:41:53.0000000+00:00</time></trkpt><trkpt lat="34.8600925" lon="33.5896337"><ele>31.9</ele><time>2015-05-01T08:41:54.0000000+00:00</time></trkpt><trkpt lat="34.8600672" lon="33.5896899"><ele>31.5</ele><time>2015-05-01T08:41:55.0000000+00:00</time></trkpt><trkpt lat="34.8600339" lon="33.5897428"><ele>31.2</ele><time>2015-05-01T08:41:56.0000000+00:00</time></trkpt><trkpt lat="34.8599983" lon="33.5897917"><ele>30.6</ele><time>2015-05-01T08:41:57.0000000+00:00</time></trkpt><trkpt lat="34.8599448" lon="33.5898756"><ele>30.2</ele><time>2015-05-01T08:41:59.0000000+00:00</time></trkpt><trkpt lat="34.8599247" lon="33.5899282"><ele>30.1</ele><time>2015-05-01T08:42:00.0000000+00:00</time></trkpt><trkpt lat="34.8598997" lon="33.5899767"><ele>30.1</ele><time>2015-05-01T08:42:01.0000000+00:00</time></trkpt><trkpt lat="34.8598608" lon="33.5900608"><ele>30.0</ele><time>2015-05-01T08:42:03.0000000+00:00</time></trkpt><trkpt lat="34.8598264" lon="33.5900976"><ele>30.5</ele><time>2015-05-01T08:42:04.0000000+00:00</time></trkpt><trkpt lat="34.8597871" lon="33.5901652"><ele>30.4</ele><time>2015-05-01T08:42:06.0000000+00:00</time></trkpt><trkpt lat="34.8597553" lon="33.5902154"><ele>30.9</ele><time>2015-05-01T08:42:08.0000000+00:00</time></trkpt><trkpt lat="34.8597258" lon="33.5902591"><ele>27.6</ele><time>2015-05-01T08:42:23.0000000+00:00</time></trkpt><trkpt lat="34.8596913" lon="33.5903061"><ele>27.8</ele><time>2015-05-01T08:42:36.0000000+00:00</time></trkpt><trkpt lat="34.8596304" lon="33.5903011"><ele>27.5</ele><time>2015-05-01T08:42:38.0000000+00:00</time></trkpt><trkpt lat="34.859578" lon="33.5902328"><ele>27.1</ele><time>2015-05-01T08:42:40.0000000+00:00</time></trkpt><trkpt lat="34.8595512" lon="33.5901325"><ele>26.3</ele><time>2015-05-01T08:42:42.0000000+00:00</time></trkpt><trkpt lat="34.8595291" lon="33.5900493"><ele>26.2</ele><time>2015-05-01T08:42:43.0000000+00:00</time></trkpt><trkpt lat="34.8595055" lon="33.5899974"><ele>25.6</ele><time>2015-05-01T08:42:44.0000000+00:00</time></trkpt><trkpt lat="34.8594755" lon="33.5899435"><ele>25.3</ele><time>2015-05-01T08:42:45.0000000+00:00</time></trkpt><trkpt lat="34.8594563" lon="33.5898842"><ele>25.2</ele><time>2015-05-01T08:42:46.0000000+00:00</time></trkpt><trkpt lat="34.8594287" lon="33.5898348"><ele>25.1</ele><time>2015-05-01T08:42:47.0000000+00:00</time></trkpt><trkpt lat="34.8593998" lon="33.5897755"><ele>25.1</ele><time>2015-05-01T08:42:48.0000000+00:00</time></trkpt><trkpt lat="34.8593677" lon="33.5897133"><ele>25.0</ele><time>2015-05-01T08:42:49.0000000+00:00</time></trkpt><trkpt lat="34.8593364" lon="33.5896483"><ele>25.0</ele><time>2015-05-01T08:42:50.0000000+00:00</time></trkpt><trkpt lat="34.8593104" lon="33.5896006"><ele>25.0</ele><time>2015-05-01T08:42:51.0000000+00:00</time></trkpt><trkpt lat="34.8592775" lon="33.5895472"><ele>25.5</ele><time>2015-05-01T08:42:52.0000000+00:00</time></trkpt><trkpt lat="34.8592507" lon="33.5894983"><ele>26.3</ele><time>2015-05-01T08:42:53.0000000+00:00</time></trkpt><trkpt lat="34.859215" lon="33.5894467"><ele>26.6</ele><time>2015-05-01T08:42:54.0000000+00:00</time></trkpt><trkpt lat="34.8591863" lon="33.5893999"><ele>27.3</ele><time>2015-05-01T08:42:55.0000000+00:00</time></trkpt><trkpt lat="34.8591518" lon="33.589348"><ele>28.2</ele><time>2015-05-01T08:42:56.0000000+00:00</time></trkpt><trkpt lat="34.859114" lon="33.5892794"><ele>28.6</ele><time>2015-05-01T08:42:57.0000000+00:00</time></trkpt><trkpt lat="34.8590829" lon="33.5892249"><ele>28.8</ele><time>2015-05-01T08:42:58.0000000+00:00</time></trkpt><trkpt lat="34.8590229" lon="33.5891199"><ele>29.0</ele><time>2015-05-01T08:43:00.0000000+00:00</time></trkpt><trkpt lat="34.8589932" lon="33.5890644"><ele>29.0</ele><time>2015-05-01T08:43:01.0000000+00:00</time></trkpt><trkpt lat="34.8589563" lon="33.5890025"><ele>29.0</ele><time>2015-05-01T08:43:02.0000000+00:00</time></trkpt><trkpt lat="34.8589226" lon="33.58895"><ele>29.5</ele><time>2015-05-01T08:43:03.0000000+00:00</time></trkpt><trkpt lat="34.8588826" lon="33.5889034"><ele>30.3</ele><time>2015-05-01T08:43:04.0000000+00:00</time></trkpt><trkpt lat="34.8588462" lon="33.5888352"><ele>31.1</ele><time>2015-05-01T08:43:05.0000000+00:00</time></trkpt><trkpt lat="34.8588203" lon="33.5887472"><ele>29.6</ele><time>2015-05-01T08:43:06.0000000+00:00</time></trkpt><trkpt lat="34.858795" lon="33.5886774"><ele>27.8</ele><time>2015-05-01T08:43:07.0000000+00:00</time></trkpt><trkpt lat="34.8587618" lon="33.588621"><ele>26.9</ele><time>2015-05-01T08:43:08.0000000+00:00</time></trkpt><trkpt lat="34.8587294" lon="33.5885664"><ele>27.0</ele><time>2015-05-01T08:43:09.0000000+00:00</time></trkpt><trkpt lat="34.858697" lon="33.5884989"><ele>27.0</ele><time>2015-05-01T08:43:10.0000000+00:00</time></trkpt><trkpt lat="34.858658" lon="33.5884309"><ele>27.0</ele><time>2015-05-01T08:43:11.0000000+00:00</time></trkpt><trkpt lat="34.85862" lon="33.5883718"><ele>27.0</ele><time>2015-05-01T08:43:12.0000000+00:00</time></trkpt><trkpt lat="34.8585868" lon="33.5883152"><ele>27.5</ele><time>2015-05-01T08:43:13.0000000+00:00</time></trkpt><trkpt lat="34.8585568" lon="33.5882571"><ele>28.3</ele><time>2015-05-01T08:43:14.0000000+00:00</time></trkpt><trkpt lat="34.858524" lon="33.588205"><ele>28.1</ele><time>2015-05-01T08:43:15.0000000+00:00</time></trkpt><trkpt lat="34.8584827" lon="33.5881538"><ele>28.1</ele><time>2015-05-01T08:43:16.0000000+00:00</time></trkpt><trkpt lat="34.858449" lon="33.5880958"><ele>27.6</ele><time>2015-05-01T08:43:17.0000000+00:00</time></trkpt><trkpt lat="34.8584148" lon="33.5880426"><ele>27.3</ele><time>2015-05-01T08:43:18.0000000+00:00</time></trkpt><trkpt lat="34.8583789" lon="33.5879891"><ele>26.2</ele><time>2015-05-01T08:43:19.0000000+00:00</time></trkpt><trkpt lat="34.8583496" lon="33.5879427"><ele>23.6</ele><time>2015-05-01T08:43:20.0000000+00:00</time></trkpt><trkpt lat="34.8583119" lon="33.5878856"><ele>22.8</ele><time>2015-05-01T08:43:21.0000000+00:00</time></trkpt><trkpt lat="34.8582624" lon="33.5878254"><ele>22.4</ele><time>2015-05-01T08:43:22.0000000+00:00</time></trkpt><trkpt lat="34.8582212" lon="33.5877808"><ele>22.7</ele><time>2015-05-01T08:43:23.0000000+00:00</time></trkpt><trkpt lat="34.8581796" lon="33.5877343"><ele>23.4</ele><time>2015-05-01T08:43:24.0000000+00:00</time></trkpt><trkpt lat="34.85814" lon="33.5876769"><ele>23.2</ele><time>2015-05-01T08:43:25.0000000+00:00</time></trkpt><trkpt lat="34.858101" lon="33.5876282"><ele>23.1</ele><time>2015-05-01T08:43:26.0000000+00:00</time></trkpt><trkpt lat="34.858058" lon="33.5875824"><ele>23.1</ele><time>2015-05-01T08:43:27.0000000+00:00</time></trkpt><trkpt lat="34.8580069" lon="33.587534"><ele>23.0</ele><time>2015-05-01T08:43:28.0000000+00:00</time></trkpt><trkpt lat="34.8579594" lon="33.5874948"><ele>23.5</ele><time>2015-05-01T08:43:29.0000000+00:00</time></trkpt><trkpt lat="34.8579164" lon="33.5874392"><ele>24.3</ele><time>2015-05-01T08:43:30.0000000+00:00</time></trkpt><trkpt lat="34.8578753" lon="33.5874005"><ele>25.1</ele><time>2015-05-01T08:43:31.0000000+00:00</time></trkpt><trkpt lat="34.8578358" lon="33.5873666"><ele>25.1</ele><time>2015-05-01T08:43:32.0000000+00:00</time></trkpt><trkpt lat="34.8577974" lon="33.587321"><ele>25.1</ele><time>2015-05-01T08:43:33.0000000+00:00</time></trkpt><trkpt lat="34.857752" lon="33.5872836"><ele>26.0</ele><time>2015-05-01T08:43:34.0000000+00:00</time></trkpt><trkpt lat="34.8577114" lon="33.5872343"><ele>27.0</ele><time>2015-05-01T08:43:35.0000000+00:00</time></trkpt><trkpt lat="34.8576678" lon="33.5871855"><ele>27.5</ele><time>2015-05-01T08:43:36.0000000+00:00</time></trkpt><trkpt lat="34.8576269" lon="33.5871277"><ele>27.3</ele><time>2015-05-01T08:43:37.0000000+00:00</time></trkpt><trkpt lat="34.857585" lon="33.5870742"><ele>27.1</ele><time>2015-05-01T08:43:38.0000000+00:00</time></trkpt><trkpt lat="34.8575395" lon="33.5870238"><ele>27.1</ele><time>2015-05-01T08:43:39.0000000+00:00</time></trkpt><trkpt lat="34.857497" lon="33.5869657"><ele>27.1</ele><time>2015-05-01T08:43:40.0000000+00:00</time></trkpt><trkpt lat="34.8574519" lon="33.5869114"><ele>27.5</ele><time>2015-05-01T08:43:41.0000000+00:00</time></trkpt><trkpt lat="34.8574044" lon="33.5868578"><ele>27.8</ele><time>2015-05-01T08:43:42.0000000+00:00</time></trkpt><trkpt lat="34.8573686" lon="33.5867978"><ele>27.4</ele><time>2015-05-01T08:43:43.0000000+00:00</time></trkpt><trkpt lat="34.8573256" lon="33.5867522"><ele>27.2</ele><time>2015-05-01T08:43:44.0000000+00:00</time></trkpt><trkpt lat="34.8572773" lon="33.5867063"><ele>27.6</ele><time>2015-05-01T08:43:45.0000000+00:00</time></trkpt><trkpt lat="34.8572349" lon="33.5866541"><ele>27.3</ele><time>2015-05-01T08:43:46.0000000+00:00</time></trkpt><trkpt lat="34.8571956" lon="33.5866156"><ele>27.7</ele><time>2015-05-01T08:43:47.0000000+00:00</time></trkpt><trkpt lat="34.8571519" lon="33.5865739"><ele>28.3</ele><time>2015-05-01T08:43:48.0000000+00:00</time></trkpt><trkpt lat="34.8571179" lon="33.586533"><ele>28.7</ele><time>2015-05-01T08:43:49.0000000+00:00</time></trkpt><trkpt lat="34.8570821" lon="33.5864927"><ele>29.9</ele><time>2015-05-01T08:43:50.0000000+00:00</time></trkpt><trkpt lat="34.8570078" lon="33.5864144"><ele>29.2</ele><time>2015-05-01T08:43:52.0000000+00:00</time></trkpt><trkpt lat="34.8569745" lon="33.5863635"><ele>28.6</ele><time>2015-05-01T08:43:53.0000000+00:00</time></trkpt><trkpt lat="34.8569104" lon="33.5862751"><ele>28.2</ele><time>2015-05-01T08:43:55.0000000+00:00</time></trkpt><trkpt lat="34.8568789" lon="33.5862319"><ele>27.6</ele><time>2015-05-01T08:43:56.0000000+00:00</time></trkpt><trkpt lat="34.8568436" lon="33.5861978"><ele>27.3</ele><time>2015-05-01T08:43:57.0000000+00:00</time></trkpt><trkpt lat="34.8568116" lon="33.5861457"><ele>26.7</ele><time>2015-05-01T08:43:58.0000000+00:00</time></trkpt><trkpt lat="34.8567771" lon="33.5861083"><ele>26.8</ele><time>2015-05-01T08:43:59.0000000+00:00</time></trkpt><trkpt lat="34.8567482" lon="33.5860632"><ele>27.4</ele><time>2015-05-01T08:44:00.0000000+00:00</time></trkpt><trkpt lat="34.8567302" lon="33.5859943"><ele>26.2</ele><time>2015-05-01T08:44:01.0000000+00:00</time></trkpt><trkpt lat="34.856699" lon="33.5859428"><ele>25.1</ele><time>2015-05-01T08:44:02.0000000+00:00</time></trkpt><trkpt lat="34.8566578" lon="33.585904"><ele>24.6</ele><time>2015-05-01T08:44:03.0000000+00:00</time></trkpt><trkpt lat="34.8566275" lon="33.5858506"><ele>24.3</ele><time>2015-05-01T08:44:04.0000000+00:00</time></trkpt><trkpt lat="34.8565618" lon="33.5857624"><ele>24.8</ele><time>2015-05-01T08:44:06.0000000+00:00</time></trkpt><trkpt lat="34.8565248" lon="33.5857292"><ele>25.4</ele><time>2015-05-01T08:44:07.0000000+00:00</time></trkpt><trkpt lat="34.8564827" lon="33.5856776"><ele>25.7</ele><time>2015-05-01T08:44:08.0000000+00:00</time></trkpt><trkpt lat="34.8564484" lon="33.5856362"><ele>26.4</ele><time>2015-05-01T08:44:09.0000000+00:00</time></trkpt><trkpt lat="34.8563836" lon="33.5855582"><ele>26.4</ele><time>2015-05-01T08:44:11.0000000+00:00</time></trkpt><trkpt lat="34.8563501" lon="33.5855059"><ele>26.2</ele><time>2015-05-01T08:44:12.0000000+00:00</time></trkpt><trkpt lat="34.8563134" lon="33.5854577"><ele>26.6</ele><time>2015-05-01T08:44:13.0000000+00:00</time></trkpt><trkpt lat="34.8562756" lon="33.5854127"><ele>26.8</ele><time>2015-05-01T08:44:14.0000000+00:00</time></trkpt><trkpt lat="34.8562444" lon="33.585373"><ele>26.9</ele><time>2015-05-01T08:44:15.0000000+00:00</time></trkpt><trkpt lat="34.8562124" lon="33.5853264"><ele>27.0</ele><time>2015-05-01T08:44:16.0000000+00:00</time></trkpt><trkpt lat="34.8561732" lon="33.5852874"><ele>27.5</ele><time>2015-05-01T08:44:17.0000000+00:00</time></trkpt><trkpt lat="34.856145" lon="33.585243"><ele>27.8</ele><time>2015-05-01T08:44:18.0000000+00:00</time></trkpt><trkpt lat="34.856115" lon="33.5851978"><ele>27.9</ele><time>2015-05-01T08:44:19.0000000+00:00</time></trkpt><trkpt lat="34.8560847" lon="33.5851483"><ele>28.0</ele><time>2015-05-01T08:44:20.0000000+00:00</time></trkpt><trkpt lat="34.8560593" lon="33.5850989"><ele>27.5</ele><time>2015-05-01T08:44:21.0000000+00:00</time></trkpt><trkpt lat="34.8560322" lon="33.585044"><ele>26.3</ele><time>2015-05-01T08:44:22.0000000+00:00</time></trkpt><trkpt lat="34.8560035" lon="33.5849912"><ele>25.6</ele><time>2015-05-01T08:44:23.0000000+00:00</time></trkpt><trkpt lat="34.8559672" lon="33.5849397"><ele>25.3</ele><time>2015-05-01T08:44:24.0000000+00:00</time></trkpt><trkpt lat="34.8559395" lon="33.5848891"><ele>25.7</ele><time>2015-05-01T08:44:25.0000000+00:00</time></trkpt><trkpt lat="34.855874" lon="33.5848134"><ele>26.7</ele><time>2015-05-01T08:44:27.0000000+00:00</time></trkpt><trkpt lat="34.8558397" lon="33.5847724"><ele>27.4</ele><time>2015-05-01T08:44:28.0000000+00:00</time></trkpt><trkpt lat="34.855809" lon="33.5847323"><ele>27.7</ele><time>2015-05-01T08:44:29.0000000+00:00</time></trkpt><trkpt lat="34.8557479" lon="33.5846592"><ele>28.4</ele><time>2015-05-01T08:44:31.0000000+00:00</time></trkpt><trkpt lat="34.855693" lon="33.5846024"><ele>29.6</ele><time>2015-05-01T08:44:33.0000000+00:00</time></trkpt><trkpt lat="34.8556574" lon="33.5845482"><ele>30.7</ele><time>2015-05-01T08:44:35.0000000+00:00</time></trkpt><trkpt lat="34.8556122" lon="33.5844863"><ele>30.2</ele><time>2015-05-01T08:44:37.0000000+00:00</time></trkpt><trkpt lat="34.8555644" lon="33.5844136"><ele>28.6</ele><time>2015-05-01T08:44:39.0000000+00:00</time></trkpt><trkpt lat="34.8555323" lon="33.5843747"><ele>28.8</ele><time>2015-05-01T08:44:40.0000000+00:00</time></trkpt><trkpt lat="34.8554694" lon="33.5843034"><ele>29.5</ele><time>2015-05-01T08:44:42.0000000+00:00</time></trkpt><trkpt lat="34.8554091" lon="33.5842288"><ele>29.4</ele><time>2015-05-01T08:44:44.0000000+00:00</time></trkpt><trkpt lat="34.8553536" lon="33.5841442"><ele>29.4</ele><time>2015-05-01T08:44:46.0000000+00:00</time></trkpt><trkpt lat="34.8553235" lon="33.5841017"><ele>29.2</ele><time>2015-05-01T08:44:47.0000000+00:00</time></trkpt><trkpt lat="34.8552494" lon="33.5840533"><ele>29.1</ele><time>2015-05-01T08:44:49.0000000+00:00</time></trkpt><trkpt lat="34.8552138" lon="33.5840097"><ele>29.5</ele><time>2015-05-01T08:44:50.0000000+00:00</time></trkpt><trkpt lat="34.8551852" lon="33.5839613"><ele>29.8</ele><time>2015-05-01T08:44:51.0000000+00:00</time></trkpt><trkpt lat="34.8551532" lon="33.5839153"><ele>29.9</ele><time>2015-05-01T08:44:52.0000000+00:00</time></trkpt><trkpt lat="34.8551233" lon="33.5838667"><ele>30.0</ele><time>2015-05-01T08:44:53.0000000+00:00</time></trkpt><trkpt lat="34.8550909" lon="33.5838155"><ele>30.5</ele><time>2015-05-01T08:44:54.0000000+00:00</time></trkpt><trkpt lat="34.855051" lon="33.5837677"><ele>31.3</ele><time>2015-05-01T08:44:55.0000000+00:00</time></trkpt><trkpt lat="34.8550129" lon="33.5837097"><ele>31.6</ele><time>2015-05-01T08:44:56.0000000+00:00</time></trkpt><trkpt lat="34.8549722" lon="33.5836657"><ele>31.8</ele><time>2015-05-01T08:44:57.0000000+00:00</time></trkpt><trkpt lat="34.8549406" lon="33.5836153"><ele>31.4</ele><time>2015-05-01T08:44:58.0000000+00:00</time></trkpt><trkpt lat="34.8549038" lon="33.5835651"><ele>30.7</ele><time>2015-05-01T08:44:59.0000000+00:00</time></trkpt><trkpt lat="34.8548634" lon="33.5835121"><ele>29.9</ele><time>2015-05-01T08:45:00.0000000+00:00</time></trkpt><trkpt lat="34.8548228" lon="33.5834531"><ele>29.4</ele><time>2015-05-01T08:45:01.0000000+00:00</time></trkpt><trkpt lat="34.8547835" lon="33.5834041"><ele>29.2</ele><time>2015-05-01T08:45:02.0000000+00:00</time></trkpt><trkpt lat="34.8547495" lon="33.5833647"><ele>29.1</ele><time>2015-05-01T08:45:03.0000000+00:00</time></trkpt><trkpt lat="34.8547106" lon="33.5833127"><ele>29.1</ele><time>2015-05-01T08:45:04.0000000+00:00</time></trkpt><trkpt lat="34.8546528" lon="33.5832197"><ele>29.0</ele><time>2015-05-01T08:45:06.0000000+00:00</time></trkpt><trkpt lat="34.8546176" lon="33.583172"><ele>29.0</ele><time>2015-05-01T08:45:07.0000000+00:00</time></trkpt><trkpt lat="34.8545828" lon="33.5831103"><ele>29.0</ele><time>2015-05-01T08:45:08.0000000+00:00</time></trkpt><trkpt lat="34.8545397" lon="33.5830638"><ele>29.5</ele><time>2015-05-01T08:45:09.0000000+00:00</time></trkpt><trkpt lat="34.8545068" lon="33.5830036"><ele>29.8</ele><time>2015-05-01T08:45:10.0000000+00:00</time></trkpt><trkpt lat="34.8544701" lon="33.5829611"><ele>29.9</ele><time>2015-05-01T08:45:11.0000000+00:00</time></trkpt><trkpt lat="34.8544317" lon="33.5829063"><ele>30.5</ele><time>2015-05-01T08:45:12.0000000+00:00</time></trkpt><trkpt lat="34.8543906" lon="33.5828558"><ele>31.7</ele><time>2015-05-01T08:45:13.0000000+00:00</time></trkpt><trkpt lat="34.8543571" lon="33.5828074"><ele>31.4</ele><time>2015-05-01T08:45:14.0000000+00:00</time></trkpt><trkpt lat="34.8543168" lon="33.582757"><ele>31.2</ele><time>2015-05-01T08:45:15.0000000+00:00</time></trkpt><trkpt lat="34.8542729" lon="33.5826978"><ele>30.6</ele><time>2015-05-01T08:45:16.0000000+00:00</time></trkpt><trkpt lat="34.8542378" lon="33.582648"><ele>30.3</ele><time>2015-05-01T08:45:17.0000000+00:00</time></trkpt><trkpt lat="34.8541964" lon="33.5826066"><ele>30.2</ele><time>2015-05-01T08:45:18.0000000+00:00</time></trkpt><trkpt lat="34.8541555" lon="33.5825638"><ele>29.1</ele><time>2015-05-01T08:45:19.0000000+00:00</time></trkpt><trkpt lat="34.8541209" lon="33.5825113"><ele>28.6</ele><time>2015-05-01T08:45:20.0000000+00:00</time></trkpt><trkpt lat="34.8540831" lon="33.5824572"><ele>28.8</ele><time>2015-05-01T08:45:21.0000000+00:00</time></trkpt><trkpt lat="34.854018" lon="33.5823764"><ele>30.2</ele><time>2015-05-01T08:45:23.0000000+00:00</time></trkpt><trkpt lat="34.8539764" lon="33.5823305"><ele>31.1</ele><time>2015-05-01T08:45:24.0000000+00:00</time></trkpt><trkpt lat="34.8539418" lon="33.582289"><ele>31.1</ele><time>2015-05-01T08:45:25.0000000+00:00</time></trkpt><trkpt lat="34.8539065" lon="33.5822396"><ele>30.5</ele><time>2015-05-01T08:45:26.0000000+00:00</time></trkpt><trkpt lat="34.8538686" lon="33.582196"><ele>30.3</ele><time>2015-05-01T08:45:27.0000000+00:00</time></trkpt><trkpt lat="34.8538276" lon="33.582155"><ele>30.7</ele><time>2015-05-01T08:45:28.0000000+00:00</time></trkpt><trkpt lat="34.8537919" lon="33.5821098"><ele>31.3</ele><time>2015-05-01T08:45:29.0000000+00:00</time></trkpt><trkpt lat="34.8537575" lon="33.5820572"><ele>31.7</ele><time>2015-05-01T08:45:30.0000000+00:00</time></trkpt><trkpt lat="34.853697" lon="33.581974"><ele>31.7</ele><time>2015-05-01T08:45:32.0000000+00:00</time></trkpt><trkpt lat="34.853669" lon="33.5819292"><ele>31.9</ele><time>2015-05-01T08:45:33.0000000+00:00</time></trkpt><trkpt lat="34.8536348" lon="33.5818822"><ele>31.4</ele><time>2015-05-01T08:45:34.0000000+00:00</time></trkpt><trkpt lat="34.8536005" lon="33.5818366"><ele>30.7</ele><time>2015-05-01T08:45:35.0000000+00:00</time></trkpt><trkpt lat="34.8535616" lon="33.5817984"><ele>30.4</ele><time>2015-05-01T08:45:36.0000000+00:00</time></trkpt><trkpt lat="34.8535198" lon="33.5817567"><ele>30.7</ele><time>2015-05-01T08:45:37.0000000+00:00</time></trkpt><trkpt lat="34.8534839" lon="33.5817091"><ele>30.9</ele><time>2015-05-01T08:45:38.0000000+00:00</time></trkpt><trkpt lat="34.8534437" lon="33.5816844"><ele>30.4</ele><time>2015-05-01T08:45:39.0000000+00:00</time></trkpt><trkpt lat="34.8533768" lon="33.5815998"><ele>30.9</ele><time>2015-05-01T08:45:41.0000000+00:00</time></trkpt><trkpt lat="34.8533423" lon="33.5815552"><ele>30.9</ele><time>2015-05-01T08:45:42.0000000+00:00</time></trkpt><trkpt lat="34.8533112" lon="33.581503"><ele>30.5</ele><time>2015-05-01T08:45:43.0000000+00:00</time></trkpt><trkpt lat="34.853271" lon="33.5814648"><ele>29.8</ele><time>2015-05-01T08:45:44.0000000+00:00</time></trkpt><trkpt lat="34.8532297" lon="33.5814395"><ele>29.9</ele><time>2015-05-01T08:45:45.0000000+00:00</time></trkpt><trkpt lat="34.8531942" lon="33.5814011"><ele>29.5</ele><time>2015-05-01T08:45:46.0000000+00:00</time></trkpt><trkpt lat="34.8531622" lon="33.5813575"><ele>29.7</ele><time>2015-05-01T08:45:47.0000000+00:00</time></trkpt><trkpt lat="34.8531236" lon="33.5813037"><ele>29.4</ele><time>2015-05-01T08:45:48.0000000+00:00</time></trkpt><trkpt lat="34.8530847" lon="33.5812582"><ele>28.7</ele><time>2015-05-01T08:45:49.0000000+00:00</time></trkpt><trkpt lat="34.8530535" lon="33.5812158"><ele>28.4</ele><time>2015-05-01T08:45:50.0000000+00:00</time></trkpt><trkpt lat="34.8530117" lon="33.5811778"><ele>28.7</ele><time>2015-05-01T08:45:51.0000000+00:00</time></trkpt><trkpt lat="34.8529791" lon="33.5811334"><ele>28.9</ele><time>2015-05-01T08:45:52.0000000+00:00</time></trkpt><trkpt lat="34.852911" lon="33.5810636"><ele>29.7</ele><time>2015-05-01T08:45:54.0000000+00:00</time></trkpt><trkpt lat="34.85288" lon="33.5810164"><ele>29.9</ele><time>2015-05-01T08:45:55.0000000+00:00</time></trkpt><trkpt lat="34.8528427" lon="33.5809655"><ele>30.4</ele><time>2015-05-01T08:45:56.0000000+00:00</time></trkpt><trkpt lat="34.8528053" lon="33.5809274"><ele>30.2</ele><time>2015-05-01T08:45:57.0000000+00:00</time></trkpt><trkpt lat="34.8527708" lon="33.5808787"><ele>30.6</ele><time>2015-05-01T08:45:58.0000000+00:00</time></trkpt><trkpt lat="34.8527377" lon="33.580829"><ele>30.3</ele><time>2015-05-01T08:45:59.0000000+00:00</time></trkpt><trkpt lat="34.8527048" lon="33.5807846"><ele>30.2</ele><time>2015-05-01T08:46:00.0000000+00:00</time></trkpt><trkpt lat="34.8526603" lon="33.5807406"><ele>29.6</ele><time>2015-05-01T08:46:01.0000000+00:00</time></trkpt><trkpt lat="34.8526235" lon="33.580695"><ele>29.3</ele><time>2015-05-01T08:46:02.0000000+00:00</time></trkpt><trkpt lat="34.8525915" lon="33.5806546"><ele>28.7</ele><time>2015-05-01T08:46:03.0000000+00:00</time></trkpt><trkpt lat="34.8525363" lon="33.5805722"><ele>28.2</ele><time>2015-05-01T08:46:05.0000000+00:00</time></trkpt><trkpt lat="34.852505" lon="33.5805329"><ele>28.6</ele><time>2015-05-01T08:46:06.0000000+00:00</time></trkpt><trkpt lat="34.8524698" lon="33.5804931"><ele>29.3</ele><time>2015-05-01T08:46:07.0000000+00:00</time></trkpt><trkpt lat="34.8524119" lon="33.5804316"><ele>30.3</ele><time>2015-05-01T08:46:09.0000000+00:00</time></trkpt><trkpt lat="34.8523798" lon="33.5803917"><ele>30.7</ele><time>2015-05-01T08:46:10.0000000+00:00</time></trkpt><trkpt lat="34.8523554" lon="33.5803401"><ele>30.4</ele><time>2015-05-01T08:46:11.0000000+00:00</time></trkpt><trkpt lat="34.8523244" lon="33.5802967"><ele>30.2</ele><time>2015-05-01T08:46:12.0000000+00:00</time></trkpt><trkpt lat="34.8522854" lon="33.5802546"><ele>30.6</ele><time>2015-05-01T08:46:13.0000000+00:00</time></trkpt><trkpt lat="34.8522258" lon="33.5801707"><ele>31.7</ele><time>2015-05-01T08:46:15.0000000+00:00</time></trkpt><trkpt lat="34.8521914" lon="33.5801213"><ele>32.3</ele><time>2015-05-01T08:46:16.0000000+00:00</time></trkpt><trkpt lat="34.8521582" lon="33.5800784"><ele>33.2</ele><time>2015-05-01T08:46:17.0000000+00:00</time></trkpt><trkpt lat="34.8521297" lon="33.5800256"><ele>33.1</ele><time>2015-05-01T08:46:18.0000000+00:00</time></trkpt><trkpt lat="34.8520998" lon="33.5799763"><ele>33.6</ele><time>2015-05-01T08:46:19.0000000+00:00</time></trkpt><trkpt lat="34.8520607" lon="33.5799288"><ele>33.8</ele><time>2015-05-01T08:46:20.0000000+00:00</time></trkpt><trkpt lat="34.8520335" lon="33.5798773"><ele>33.9</ele><time>2015-05-01T08:46:21.0000000+00:00</time></trkpt><trkpt lat="34.8520025" lon="33.5798286"><ele>34.0</ele><time>2015-05-01T08:46:22.0000000+00:00</time></trkpt><trkpt lat="34.8519741" lon="33.5797827"><ele>34.0</ele><time>2015-05-01T08:46:23.0000000+00:00</time></trkpt><trkpt lat="34.8519366" lon="33.5797306"><ele>34.5</ele><time>2015-05-01T08:46:24.0000000+00:00</time></trkpt><trkpt lat="34.8519034" lon="33.5796867"><ele>34.8</ele><time>2015-05-01T08:46:25.0000000+00:00</time></trkpt><trkpt lat="34.8518665" lon="33.5796276"><ele>34.9</ele><time>2015-05-01T08:46:26.0000000+00:00</time></trkpt><trkpt lat="34.8518314" lon="33.5795778"><ele>35.5</ele><time>2015-05-01T08:46:27.0000000+00:00</time></trkpt><trkpt lat="34.8518018" lon="33.5795171"><ele>35.2</ele><time>2015-05-01T08:46:28.0000000+00:00</time></trkpt><trkpt lat="34.8517732" lon="33.5794735"><ele>35.1</ele><time>2015-05-01T08:46:29.0000000+00:00</time></trkpt><trkpt lat="34.851718" lon="33.5793939"><ele>35.0</ele><time>2015-05-01T08:46:31.0000000+00:00</time></trkpt><trkpt lat="34.851685" lon="33.5793247"><ele>32.5</ele><time>2015-05-01T08:46:33.0000000+00:00</time></trkpt><trkpt lat="34.8516366" lon="33.579266"><ele>31.4</ele><time>2015-05-01T08:46:35.0000000+00:00</time></trkpt><trkpt lat="34.8516114" lon="33.5792188"><ele>31.2</ele><time>2015-05-01T08:46:36.0000000+00:00</time></trkpt><trkpt lat="34.851551" lon="33.5791514"><ele>31.1</ele><time>2015-05-01T08:46:38.0000000+00:00</time></trkpt><trkpt lat="34.8514996" lon="33.5790721"><ele>31.5</ele><time>2015-05-01T08:46:40.0000000+00:00</time></trkpt><trkpt lat="34.8514401" lon="33.5789981"><ele>31.9</ele><time>2015-05-01T08:46:42.0000000+00:00</time></trkpt><trkpt lat="34.8513756" lon="33.5789016"><ele>31.5</ele><time>2015-05-01T08:46:44.0000000+00:00</time></trkpt><trkpt lat="34.8513447" lon="33.5788475"><ele>31.3</ele><time>2015-05-01T08:46:45.0000000+00:00</time></trkpt><trkpt lat="34.8513166" lon="33.578788"><ele>30.6</ele><time>2015-05-01T08:46:46.0000000+00:00</time></trkpt><trkpt lat="34.8512765" lon="33.5787384"><ele>30.3</ele><time>2015-05-01T08:46:47.0000000+00:00</time></trkpt><trkpt lat="34.8512365" lon="33.5786869"><ele>30.7</ele><time>2015-05-01T08:46:48.0000000+00:00</time></trkpt><trkpt lat="34.8512043" lon="33.5786362"><ele>30.3</ele><time>2015-05-01T08:46:49.0000000+00:00</time></trkpt><trkpt lat="34.8511709" lon="33.5785872"><ele>30.2</ele><time>2015-05-01T08:46:50.0000000+00:00</time></trkpt><trkpt lat="34.8511373" lon="33.5785402"><ele>30.1</ele><time>2015-05-01T08:46:51.0000000+00:00</time></trkpt><trkpt lat="34.851105" lon="33.5784795"><ele>30.6</ele><time>2015-05-01T08:46:52.0000000+00:00</time></trkpt><trkpt lat="34.8510663" lon="33.5784343"><ele>30.3</ele><time>2015-05-01T08:46:53.0000000+00:00</time></trkpt><trkpt lat="34.8510258" lon="33.5783716"><ele>31.2</ele><time>2015-05-01T08:46:54.0000000+00:00</time></trkpt><trkpt lat="34.8509888" lon="33.5783237"><ele>31.6</ele><time>2015-05-01T08:46:55.0000000+00:00</time></trkpt><trkpt lat="34.8509347" lon="33.5782308"><ele>31.4</ele><time>2015-05-01T08:46:57.0000000+00:00</time></trkpt><trkpt lat="34.8508757" lon="33.578142"><ele>31.1</ele><time>2015-05-01T08:46:59.0000000+00:00</time></trkpt><trkpt lat="34.8508342" lon="33.5781024"><ele>31.6</ele><time>2015-05-01T08:47:00.0000000+00:00</time></trkpt><trkpt lat="34.8508046" lon="33.5780533"><ele>31.8</ele><time>2015-05-01T08:47:01.0000000+00:00</time></trkpt><trkpt lat="34.8507772" lon="33.5780053"><ele>31.4</ele><time>2015-05-01T08:47:02.0000000+00:00</time></trkpt><trkpt lat="34.8507485" lon="33.5779608"><ele>31.2</ele><time>2015-05-01T08:47:03.0000000+00:00</time></trkpt><trkpt lat="34.850717" lon="33.5779087"><ele>31.1</ele><time>2015-05-01T08:47:04.0000000+00:00</time></trkpt><trkpt lat="34.8506865" lon="33.5778585"><ele>31.1</ele><time>2015-05-01T08:47:05.0000000+00:00</time></trkpt><trkpt lat="34.8506508" lon="33.577816"><ele>31.0</ele><time>2015-05-01T08:47:06.0000000+00:00</time></trkpt><trkpt lat="34.8506206" lon="33.5777628"><ele>30.0</ele><time>2015-05-01T08:47:07.0000000+00:00</time></trkpt><trkpt lat="34.8505876" lon="33.5777153"><ele>30.5</ele><time>2015-05-01T08:47:08.0000000+00:00</time></trkpt><trkpt lat="34.8505239" lon="33.5776428"><ele>31.6</ele><time>2015-05-01T08:47:10.0000000+00:00</time></trkpt><trkpt lat="34.8504774" lon="33.5775698"><ele>32.7</ele><time>2015-05-01T08:47:12.0000000+00:00</time></trkpt><trkpt lat="34.8504275" lon="33.5774839"><ele>32.2</ele><time>2015-05-01T08:47:14.0000000+00:00</time></trkpt><trkpt lat="34.8503889" lon="33.5773843"><ele>30.6</ele><time>2015-05-01T08:47:16.0000000+00:00</time></trkpt><trkpt lat="34.8503275" lon="33.5773091"><ele>29.9</ele><time>2015-05-01T08:47:18.0000000+00:00</time></trkpt><trkpt lat="34.8502866" lon="33.5772542"><ele>30.0</ele><time>2015-05-01T08:47:19.0000000+00:00</time></trkpt><trkpt lat="34.8502583" lon="33.5771933"><ele>30.0</ele><time>2015-05-01T08:47:20.0000000+00:00</time></trkpt><trkpt lat="34.8502216" lon="33.5771535"><ele>30.5</ele><time>2015-05-01T08:47:21.0000000+00:00</time></trkpt><trkpt lat="34.8501889" lon="33.5771133"><ele>31.8</ele><time>2015-05-01T08:47:22.0000000+00:00</time></trkpt><trkpt lat="34.8501448" lon="33.5770858"><ele>32.4</ele><time>2015-05-01T08:47:23.0000000+00:00</time></trkpt><trkpt lat="34.8501058" lon="33.5770398"><ele>32.7</ele><time>2015-05-01T08:47:24.0000000+00:00</time></trkpt><trkpt lat="34.8500686" lon="33.5769817"><ele>32.4</ele><time>2015-05-01T08:47:25.0000000+00:00</time></trkpt><trkpt lat="34.8500357" lon="33.5769326"><ele>32.2</ele><time>2015-05-01T08:47:26.0000000+00:00</time></trkpt><trkpt lat="34.8499972" lon="33.5768806"><ele>32.1</ele><time>2015-05-01T08:47:27.0000000+00:00</time></trkpt><trkpt lat="34.8499623" lon="33.5768342"><ele>32.6</ele><time>2015-05-01T08:47:28.0000000+00:00</time></trkpt><trkpt lat="34.849931" lon="33.5767739"><ele>32.3</ele><time>2015-05-01T08:47:29.0000000+00:00</time></trkpt><trkpt lat="34.849901" lon="33.576717"><ele>32.2</ele><time>2015-05-01T08:47:30.0000000+00:00</time></trkpt><trkpt lat="34.8498719" lon="33.5766708"><ele>32.1</ele><time>2015-05-01T08:47:31.0000000+00:00</time></trkpt><trkpt lat="34.8498385" lon="33.5766196"><ele>32.6</ele><time>2015-05-01T08:47:32.0000000+00:00</time></trkpt><trkpt lat="34.8497901" lon="33.5765495"><ele>32.2</ele><time>2015-05-01T08:47:34.0000000+00:00</time></trkpt><trkpt lat="34.8497458" lon="33.5764662"><ele>32.1</ele><time>2015-05-01T08:47:36.0000000+00:00</time></trkpt><trkpt lat="34.8496788" lon="33.5763987"><ele>32.0</ele><time>2015-05-01T08:47:38.0000000+00:00</time></trkpt><trkpt lat="34.8496285" lon="33.5763118"><ele>32.0</ele><time>2015-05-01T08:47:40.0000000+00:00</time></trkpt><trkpt lat="34.8495971" lon="33.5762643"><ele>32.5</ele><time>2015-05-01T08:47:41.0000000+00:00</time></trkpt><trkpt lat="34.8495698" lon="33.5762118"><ele>33.8</ele><time>2015-05-01T08:47:42.0000000+00:00</time></trkpt><trkpt lat="34.8495453" lon="33.5761613"><ele>33.4</ele><time>2015-05-01T08:47:43.0000000+00:00</time></trkpt><trkpt lat="34.8495147" lon="33.5761081"><ele>33.2</ele><time>2015-05-01T08:47:44.0000000+00:00</time></trkpt><trkpt lat="34.849477" lon="33.5760477"><ele>33.1</ele><time>2015-05-01T08:47:45.0000000+00:00</time></trkpt><trkpt lat="34.8494458" lon="33.5760032"><ele>33.6</ele><time>2015-05-01T08:47:46.0000000+00:00</time></trkpt><trkpt lat="34.8494046" lon="33.5759682"><ele>32.8</ele><time>2015-05-01T08:47:47.0000000+00:00</time></trkpt><trkpt lat="34.8493704" lon="33.5759256"><ele>32.4</ele><time>2015-05-01T08:47:48.0000000+00:00</time></trkpt><trkpt lat="34.8493275" lon="33.5758717"><ele>32.2</ele><time>2015-05-01T08:47:49.0000000+00:00</time></trkpt><trkpt lat="34.8492806" lon="33.575785"><ele>32.1</ele><time>2015-05-01T08:47:51.0000000+00:00</time></trkpt><trkpt lat="34.8492273" lon="33.5757102"><ele>31.5</ele><time>2015-05-01T08:47:53.0000000+00:00</time></trkpt><trkpt lat="34.849202" lon="33.5756628"><ele>31.3</ele><time>2015-05-01T08:47:54.0000000+00:00</time></trkpt><trkpt lat="34.8491517" lon="33.5755846"><ele>29.6</ele><time>2015-05-01T08:47:56.0000000+00:00</time></trkpt><trkpt lat="34.8491194" lon="33.5755434"><ele>29.3</ele><time>2015-05-01T08:47:57.0000000+00:00</time></trkpt><trkpt lat="34.8490875" lon="33.575503"><ele>29.2</ele><time>2015-05-01T08:47:58.0000000+00:00</time></trkpt><trkpt lat="34.8490309" lon="33.5754326"><ele>29.6</ele><time>2015-05-01T08:48:00.0000000+00:00</time></trkpt><trkpt lat="34.8490088" lon="33.5753835"><ele>29.8</ele><time>2015-05-01T08:48:01.0000000+00:00</time></trkpt><trkpt lat="34.8489799" lon="33.5753391"><ele>29.9</ele><time>2015-05-01T08:48:02.0000000+00:00</time></trkpt><trkpt lat="34.8489263" lon="33.5752453"><ele>29.5</ele><time>2015-05-01T08:48:04.0000000+00:00</time></trkpt><trkpt lat="34.8488879" lon="33.5751811"><ele>29.8</ele><time>2015-05-01T08:48:05.0000000+00:00</time></trkpt><trkpt lat="34.8488572" lon="33.5751337"><ele>29.4</ele><time>2015-05-01T08:48:06.0000000+00:00</time></trkpt><trkpt lat="34.8488274" lon="33.5750908"><ele>29.7</ele><time>2015-05-01T08:48:07.0000000+00:00</time></trkpt><trkpt lat="34.8487781" lon="33.575005"><ele>30.7</ele><time>2015-05-01T08:48:09.0000000+00:00</time></trkpt><trkpt lat="34.8487396" lon="33.5749652"><ele>30.9</ele><time>2015-05-01T08:48:10.0000000+00:00</time></trkpt><trkpt lat="34.8486977" lon="33.5749153"><ele>31.4</ele><time>2015-05-01T08:48:11.0000000+00:00</time></trkpt><trkpt lat="34.8486585" lon="33.57486"><ele>31.7</ele><time>2015-05-01T08:48:12.0000000+00:00</time></trkpt><trkpt lat="34.84863" lon="33.5748054"><ele>31.4</ele><time>2015-05-01T08:48:13.0000000+00:00</time></trkpt><trkpt lat="34.8485938" lon="33.5747584"><ele>31.2</ele><time>2015-05-01T08:48:14.0000000+00:00</time></trkpt><trkpt lat="34.8485575" lon="33.5747148"><ele>31.1</ele><time>2015-05-01T08:48:15.0000000+00:00</time></trkpt><trkpt lat="34.8485128" lon="33.5746605"><ele>31.1</ele><time>2015-05-01T08:48:16.0000000+00:00</time></trkpt><trkpt lat="34.8484749" lon="33.5746046"><ele>31.0</ele><time>2015-05-01T08:48:17.0000000+00:00</time></trkpt><trkpt lat="34.848434" lon="33.5745577"><ele>30.5</ele><time>2015-05-01T08:48:18.0000000+00:00</time></trkpt><trkpt lat="34.8483946" lon="33.5745159"><ele>30.3</ele><time>2015-05-01T08:48:19.0000000+00:00</time></trkpt><trkpt lat="34.8483514" lon="33.5744614"><ele>30.1</ele><time>2015-05-01T08:48:20.0000000+00:00</time></trkpt><trkpt lat="34.848311" lon="33.5744161"><ele>30.6</ele><time>2015-05-01T08:48:21.0000000+00:00</time></trkpt><trkpt lat="34.8482376" lon="33.5743586"><ele>30.9</ele><time>2015-05-01T08:48:23.0000000+00:00</time></trkpt><trkpt lat="34.8481706" lon="33.5742971"><ele>30.2</ele><time>2015-05-01T08:48:25.0000000+00:00</time></trkpt><trkpt lat="34.848131" lon="33.5742611"><ele>29.6</ele><time>2015-05-01T08:48:26.0000000+00:00</time></trkpt><trkpt lat="34.8480968" lon="33.5742224"><ele>30.3</ele><time>2015-05-01T08:48:27.0000000+00:00</time></trkpt><trkpt lat="34.8480263" lon="33.5741645"><ele>30.8</ele><time>2015-05-01T08:48:29.0000000+00:00</time></trkpt><trkpt lat="34.8479815" lon="33.5741213"><ele>30.9</ele><time>2015-05-01T08:48:30.0000000+00:00</time></trkpt><trkpt lat="34.8479403" lon="33.57408"><ele>31.0</ele><time>2015-05-01T08:48:31.0000000+00:00</time></trkpt><trkpt lat="34.8478946" lon="33.5740388"><ele>30.5</ele><time>2015-05-01T08:48:32.0000000+00:00</time></trkpt><trkpt lat="34.8478502" lon="33.5739899"><ele>30.3</ele><time>2015-05-01T08:48:33.0000000+00:00</time></trkpt><trkpt lat="34.8478056" lon="33.5739455"><ele>30.1</ele><time>2015-05-01T08:48:34.0000000+00:00</time></trkpt><trkpt lat="34.847759" lon="33.5739009"><ele>30.1</ele><time>2015-05-01T08:48:35.0000000+00:00</time></trkpt><trkpt lat="34.8477163" lon="33.5738551"><ele>29.1</ele><time>2015-05-01T08:48:36.0000000+00:00</time></trkpt><trkpt lat="34.8476667" lon="33.5738064"><ele>28.5</ele><time>2015-05-01T08:48:37.0000000+00:00</time></trkpt><trkpt lat="34.8476288" lon="33.5737628"><ele>28.3</ele><time>2015-05-01T08:48:38.0000000+00:00</time></trkpt><trkpt lat="34.8475889" lon="33.5737251"><ele>27.6</ele><time>2015-05-01T08:48:39.0000000+00:00</time></trkpt><trkpt lat="34.8475489" lon="33.5736877"><ele>27.3</ele><time>2015-05-01T08:48:40.0000000+00:00</time></trkpt><trkpt lat="34.847514" lon="33.573645"><ele>27.2</ele><time>2015-05-01T08:48:41.0000000+00:00</time></trkpt><trkpt lat="34.8474751" lon="33.5736131"><ele>27.6</ele><time>2015-05-01T08:48:42.0000000+00:00</time></trkpt><trkpt lat="34.8474284" lon="33.5735712"><ele>27.8</ele><time>2015-05-01T08:48:43.0000000+00:00</time></trkpt><trkpt lat="34.8473801" lon="33.5735328"><ele>27.9</ele><time>2015-05-01T08:48:44.0000000+00:00</time></trkpt><trkpt lat="34.8473446" lon="33.5734861"><ele>28.0</ele><time>2015-05-01T08:48:45.0000000+00:00</time></trkpt><trkpt lat="34.8473055" lon="33.5734391"><ele>28.0</ele><time>2015-05-01T08:48:46.0000000+00:00</time></trkpt><trkpt lat="34.8472637" lon="33.5733848"><ele>28.0</ele><time>2015-05-01T08:48:47.0000000+00:00</time></trkpt><trkpt lat="34.8472276" lon="33.5733361"><ele>28.0</ele><time>2015-05-01T08:48:48.0000000+00:00</time></trkpt><trkpt lat="34.847156" lon="33.5732557"><ele>27.5</ele><time>2015-05-01T08:48:50.0000000+00:00</time></trkpt><trkpt lat="34.8471203" lon="33.5732125"><ele>27.3</ele><time>2015-05-01T08:48:51.0000000+00:00</time></trkpt><trkpt lat="34.8470502" lon="33.5731477"><ele>28.3</ele><time>2015-05-01T08:48:53.0000000+00:00</time></trkpt><trkpt lat="34.8470101" lon="33.5731091"><ele>28.7</ele><time>2015-05-01T08:48:54.0000000+00:00</time></trkpt><trkpt lat="34.8469474" lon="33.5730415"><ele>28.9</ele><time>2015-05-01T08:48:56.0000000+00:00</time></trkpt><trkpt lat="34.8468844" lon="33.5729758"><ele>28.7</ele><time>2015-05-01T08:48:58.0000000+00:00</time></trkpt><trkpt lat="34.846829" lon="33.5729177"><ele>27.7</ele><time>2015-05-01T08:49:00.0000000+00:00</time></trkpt><trkpt lat="34.8467771" lon="33.5728813"><ele>27.9</ele><time>2015-05-01T08:49:02.0000000+00:00</time></trkpt><trkpt lat="34.8467134" lon="33.5728454"><ele>27.5</ele><time>2015-05-01T08:49:04.0000000+00:00</time></trkpt><trkpt lat="34.8466572" lon="33.5728153"><ele>27.1</ele><time>2015-05-01T08:49:06.0000000+00:00</time></trkpt><trkpt lat="34.8466085" lon="33.5727759"><ele>27.6</ele><time>2015-05-01T08:49:08.0000000+00:00</time></trkpt><trkpt lat="34.8465601" lon="33.5727387"><ele>27.9</ele><time>2015-05-01T08:49:10.0000000+00:00</time></trkpt><trkpt lat="34.8465258" lon="33.5726881"><ele>27.5</ele><time>2015-05-01T08:49:12.0000000+00:00</time></trkpt><trkpt lat="34.8464912" lon="33.5726275"><ele>25.1</ele><time>2015-05-01T08:49:14.0000000+00:00</time></trkpt><trkpt lat="34.8464673" lon="33.5725556"><ele>24.6</ele><time>2015-05-01T08:49:16.0000000+00:00</time></trkpt><trkpt lat="34.8464777" lon="33.572494"><ele>23.7</ele><time>2015-05-01T08:49:18.0000000+00:00</time></trkpt><trkpt lat="34.8465209" lon="33.5724618"><ele>23.5</ele><time>2015-05-01T08:49:21.0000000+00:00</time></trkpt><trkpt lat="34.8465745" lon="33.572449"><ele>25.5</ele><time>2015-05-01T08:50:24.0000000+00:00</time></trkpt><trkpt lat="34.8466165" lon="33.5724027"><ele>25.1</ele><time>2015-05-01T08:50:26.0000000+00:00</time></trkpt><trkpt lat="34.8466683" lon="33.5723468"><ele>24.8</ele><time>2015-05-01T08:50:28.0000000+00:00</time></trkpt><trkpt lat="34.846726" lon="33.5722867"><ele>25.2</ele><time>2015-05-01T08:50:30.0000000+00:00</time></trkpt><trkpt lat="34.8467937" lon="33.5722204"><ele>25.6</ele><time>2015-05-01T08:50:32.0000000+00:00</time></trkpt><trkpt lat="34.8468537" lon="33.5721617"><ele>25.3</ele><time>2015-05-01T08:50:33.0000000+00:00</time></trkpt><trkpt lat="34.8469252" lon="33.5720912"><ele>25.1</ele><time>2015-05-01T08:50:35.0000000+00:00</time></trkpt><trkpt lat="34.8469622" lon="33.5720549"><ele>25.6</ele><time>2015-05-01T08:50:36.0000000+00:00</time></trkpt><trkpt lat="34.8469934" lon="33.5720144"><ele>26.3</ele><time>2015-05-01T08:50:37.0000000+00:00</time></trkpt><trkpt lat="34.8470309" lon="33.5719725"><ele>26.7</ele><time>2015-05-01T08:50:38.0000000+00:00</time></trkpt><trkpt lat="34.8470731" lon="33.5719404"><ele>26.3</ele><time>2015-05-01T08:50:39.0000000+00:00</time></trkpt><trkpt lat="34.8471146" lon="33.5719059"><ele>27.2</ele><time>2015-05-01T08:50:40.0000000+00:00</time></trkpt><trkpt lat="34.8471522" lon="33.5718653"><ele>27.6</ele><time>2015-05-01T08:50:41.0000000+00:00</time></trkpt><trkpt lat="34.8471909" lon="33.5718245"><ele>27.8</ele><time>2015-05-01T08:50:42.0000000+00:00</time></trkpt><trkpt lat="34.8472588" lon="33.5717497"><ele>28.0</ele><time>2015-05-01T08:50:44.0000000+00:00</time></trkpt><trkpt lat="34.8472993" lon="33.5717161"><ele>27.5</ele><time>2015-05-01T08:50:45.0000000+00:00</time></trkpt><trkpt lat="34.8473397" lon="33.5716774"><ele>26.8</ele><time>2015-05-01T08:50:46.0000000+00:00</time></trkpt><trkpt lat="34.8473816" lon="33.5716565"><ele>25.4</ele><time>2015-05-01T08:50:47.0000000+00:00</time></trkpt><trkpt lat="34.8474154" lon="33.5716198"><ele>24.7</ele><time>2015-05-01T08:50:48.0000000+00:00</time></trkpt><trkpt lat="34.847455" lon="33.5715903"><ele>24.4</ele><time>2015-05-01T08:50:49.0000000+00:00</time></trkpt><trkpt lat="34.8475262" lon="33.5715326"><ele>25.4</ele><time>2015-05-01T08:50:51.0000000+00:00</time></trkpt><trkpt lat="34.8475628" lon="33.5715005"><ele>26.2</ele><time>2015-05-01T08:50:52.0000000+00:00</time></trkpt><trkpt lat="34.8476274" lon="33.5714452"><ele>28.1</ele><time>2015-05-01T08:50:54.0000000+00:00</time></trkpt><trkpt lat="34.847688" lon="33.5713885"><ele>29.5</ele><time>2015-05-01T08:50:56.0000000+00:00</time></trkpt><trkpt lat="34.8477445" lon="33.5713429"><ele>30.1</ele><time>2015-05-01T08:50:58.0000000+00:00</time></trkpt><trkpt lat="34.8477922" lon="33.5713198"><ele>29.3</ele><time>2015-05-01T08:51:00.0000000+00:00</time></trkpt><trkpt lat="34.8478281" lon="33.5712797"><ele>29.8</ele><time>2015-05-01T08:51:02.0000000+00:00</time></trkpt><trkpt lat="34.8478665" lon="33.5712358"><ele>30.0</ele><time>2015-05-01T08:51:04.0000000+00:00</time></trkpt><trkpt lat="34.8479069" lon="33.5712004"><ele>28.3</ele><time>2015-05-01T08:51:06.0000000+00:00</time></trkpt><trkpt lat="34.8479523" lon="33.5711534"><ele>28.4</ele><time>2015-05-01T08:51:09.0000000+00:00</time></trkpt><trkpt lat="34.8479672" lon="33.5711006"><ele>29.8</ele><time>2015-05-01T08:51:16.0000000+00:00</time></trkpt><trkpt lat="34.847928" lon="33.5710643"><ele>30.0</ele><time>2015-05-01T08:51:21.0000000+00:00</time></trkpt><trkpt lat="34.8479521" lon="33.5710134"><ele>26.7</ele><time>2015-05-01T08:51:39.0000000+00:00</time></trkpt><trkpt lat="34.8479556" lon="33.5709529"><ele>27.4</ele><time>2015-05-01T08:51:48.0000000+00:00</time></trkpt><trkpt lat="34.8479485" lon="33.5708972"><ele>27.2</ele><time>2015-05-01T08:51:51.0000000+00:00</time></trkpt><trkpt lat="34.8479272" lon="33.5708309"><ele>24.9</ele><time>2015-05-01T08:51:54.0000000+00:00</time></trkpt><trkpt lat="34.8479002" lon="33.5707585"><ele>25.0</ele><time>2015-05-01T08:51:57.0000000+00:00</time></trkpt><trkpt lat="34.8478821" lon="33.5707064"><ele>25.3</ele><time>2015-05-01T08:51:59.0000000+00:00</time></trkpt><trkpt lat="34.8478418" lon="33.5706414"><ele>26.8</ele><time>2015-05-01T08:52:02.0000000+00:00</time></trkpt><trkpt lat="34.8477862" lon="33.5706095"><ele>27.2</ele><time>2015-05-01T08:52:05.0000000+00:00</time></trkpt><trkpt lat="34.8477398" lon="33.5706431"><ele>29.3</ele><time>2015-05-01T08:52:08.0000000+00:00</time></trkpt><trkpt lat="34.847687" lon="33.57066"><ele>29.1</ele><time>2015-05-01T08:52:11.0000000+00:00</time></trkpt><trkpt lat="34.8476399" lon="33.5706564"><ele>30.0</ele><time>2015-05-01T08:52:36.0000000+00:00</time></trkpt><trkpt lat="34.8475852" lon="33.5706772"><ele>29.7</ele><time>2015-05-01T08:52:41.0000000+00:00</time></trkpt><trkpt lat="34.8475346" lon="33.5706979"><ele>29.2</ele><time>2015-05-01T08:52:44.0000000+00:00</time></trkpt><trkpt lat="34.8474889" lon="33.5707352"><ele>29.9</ele><time>2015-05-01T08:52:47.0000000+00:00</time></trkpt><trkpt lat="34.8474553" lon="33.5707808"><ele>30.5</ele><time>2015-05-01T08:52:50.0000000+00:00</time></trkpt><trkpt lat="34.8474264" lon="33.5708252"><ele>31.0</ele><time>2015-05-01T08:52:53.0000000+00:00</time></trkpt><trkpt lat="34.8474108" lon="33.5708892"><ele>30.3</ele><time>2015-05-01T08:52:57.0000000+00:00</time></trkpt><trkpt lat="34.8474123" lon="33.5709457"><ele>29.3</ele><time>2015-05-01T08:53:54.0000000+00:00</time></trkpt><trkpt lat="34.8473908" lon="33.5710049"><ele>27.2</ele><time>2015-05-01T08:53:58.0000000+00:00</time></trkpt><trkpt lat="34.8473901" lon="33.5710782"><ele>26.5</ele><time>2015-05-01T08:54:01.0000000+00:00</time></trkpt><trkpt lat="34.8473868" lon="33.5711444"><ele>26.6</ele><time>2015-05-01T08:54:04.0000000+00:00</time></trkpt><trkpt lat="34.8474302" lon="33.5711764"><ele>28.4</ele><time>2015-05-01T08:54:10.0000000+00:00</time></trkpt><trkpt lat="34.8474771" lon="33.5711504"><ele>29.0</ele><time>2015-05-01T08:54:14.0000000+00:00</time></trkpt><trkpt lat="34.8475201" lon="33.5711313"><ele>27.6</ele><time>2015-05-01T08:54:18.0000000+00:00</time></trkpt><trkpt lat="34.8474768" lon="33.5711714"><ele>26.7</ele><time>2015-05-01T08:54:24.0000000+00:00</time></trkpt><trkpt lat="34.847424" lon="33.5711937"><ele>26.6</ele><time>2015-05-01T08:54:28.0000000+00:00</time></trkpt><trkpt lat="34.8474326" lon="33.5712478"><ele>27.0</ele><time>2015-05-01T08:54:45.0000000+00:00</time></trkpt><trkpt lat="34.8474507" lon="33.5713086"><ele>26.0</ele><time>2015-05-01T08:54:55.0000000+00:00</time></trkpt><trkpt lat="34.8474591" lon="33.5713633"><ele>25.3</ele><time>2015-05-01T08:54:59.0000000+00:00</time></trkpt><trkpt lat="34.8474733" lon="33.5714239"><ele>25.0</ele><time>2015-05-01T08:55:08.0000000+00:00</time></trkpt><trkpt lat="34.8474548" lon="33.5713562"><ele>29.8</ele><time>2015-05-01T08:55:58.0000000+00:00</time></trkpt><trkpt lat="34.8474461" lon="33.5712807"><ele>30.7</ele><time>2015-05-01T08:56:01.0000000+00:00</time></trkpt><trkpt lat="34.8474518" lon="33.5712235"><ele>31.7</ele><time>2015-05-01T08:56:03.0000000+00:00</time></trkpt><trkpt lat="34.8474487" lon="33.5711633"><ele>29.7</ele><time>2015-05-01T08:56:05.0000000+00:00</time></trkpt><trkpt lat="34.8474329" lon="33.5711103"><ele>28.4</ele><time>2015-05-01T08:56:07.0000000+00:00</time></trkpt><trkpt lat="34.8474107" lon="33.5710376"><ele>27.9</ele><time>2015-05-01T08:56:10.0000000+00:00</time></trkpt><trkpt lat="34.8473993" lon="33.5709785"><ele>28.4</ele><time>2015-05-01T08:56:13.0000000+00:00</time></trkpt><trkpt lat="34.8473516" lon="33.5710097"><ele>28.7</ele><time>2015-05-01T08:56:17.0000000+00:00</time></trkpt><trkpt lat="34.8473285" lon="33.5710674"><ele>30.9</ele><time>2015-05-01T08:56:20.0000000+00:00</time></trkpt><trkpt lat="34.8473316" lon="33.5711267"><ele>31.9</ele><time>2015-05-01T08:56:23.0000000+00:00</time></trkpt><trkpt lat="34.8473742" lon="33.5711521"><ele>32.0</ele><time>2015-05-01T08:56:26.0000000+00:00</time></trkpt><trkpt lat="34.8474086" lon="33.5710989"><ele>30.3</ele><time>2015-05-01T08:56:29.0000000+00:00</time></trkpt><trkpt lat="34.8474126" lon="33.5710409"><ele>30.1</ele><time>2015-05-01T08:56:31.0000000+00:00</time></trkpt><trkpt lat="34.8474254" lon="33.5709756"><ele>30.0</ele><time>2015-05-01T08:56:33.0000000+00:00</time></trkpt><trkpt lat="34.8474218" lon="33.5709041"><ele>29.5</ele><time>2015-05-01T08:56:36.0000000+00:00</time></trkpt><trkpt lat="34.8474677" lon="33.5708665"><ele>27.1</ele><time>2015-05-01T09:01:16.0000000+00:00</time></trkpt><trkpt lat="34.8475269" lon="33.5708464"><ele>26.8</ele><time>2015-05-01T09:01:19.0000000+00:00</time></trkpt><trkpt lat="34.847591" lon="33.5708231"><ele>26.2</ele><time>2015-05-01T09:01:22.0000000+00:00</time></trkpt><trkpt lat="34.8476528" lon="33.570851"><ele>27.4</ele><time>2015-05-01T09:01:25.0000000+00:00</time></trkpt><trkpt lat="34.847681" lon="33.5708973"><ele>27.1</ele><time>2015-05-01T09:01:27.0000000+00:00</time></trkpt><trkpt lat="34.8477195" lon="33.5709594"><ele>27.9</ele><time>2015-05-01T09:01:30.0000000+00:00</time></trkpt><trkpt lat="34.8477728" lon="33.5709412"><ele>28.1</ele><time>2015-05-01T09:01:40.0000000+00:00</time></trkpt><trkpt lat="34.8478205" lon="33.5709506"><ele>28.0</ele><time>2015-05-01T09:01:43.0000000+00:00</time></trkpt><trkpt lat="34.8478669" lon="33.5709863"><ele>29.4</ele><time>2015-05-01T09:01:46.0000000+00:00</time></trkpt><trkpt lat="34.8479036" lon="33.5710339"><ele>29.3</ele><time>2015-05-01T09:01:49.0000000+00:00</time></trkpt><trkpt lat="34.8479446" lon="33.5710722"><ele>29.1</ele><time>2015-05-01T09:01:52.0000000+00:00</time></trkpt><trkpt lat="34.8479741" lon="33.5711205"><ele>29.1</ele><time>2015-05-01T09:01:56.0000000+00:00</time></trkpt><trkpt lat="34.8480228" lon="33.5711004"><ele>29.0</ele><time>2015-05-01T09:02:00.0000000+00:00</time></trkpt><trkpt lat="34.8480702" lon="33.5710559"><ele>29.7</ele><time>2015-05-01T09:02:04.0000000+00:00</time></trkpt><trkpt lat="34.848107" lon="33.5710108"><ele>30.2</ele><time>2015-05-01T09:02:20.0000000+00:00</time></trkpt><trkpt lat="34.8481661" lon="33.5709768"><ele>30.5</ele><time>2015-05-01T09:02:23.0000000+00:00</time></trkpt><trkpt lat="34.8482134" lon="33.5709471"><ele>30.2</ele><time>2015-05-01T09:02:25.0000000+00:00</time></trkpt><trkpt lat="34.8482607" lon="33.5709036"><ele>31.3</ele><time>2015-05-01T09:02:27.0000000+00:00</time></trkpt><trkpt lat="34.8483091" lon="33.5708529"><ele>31.3</ele><time>2015-05-01T09:02:29.0000000+00:00</time></trkpt><trkpt lat="34.848356" lon="33.5707952"><ele>30.4</ele><time>2015-05-01T09:02:31.0000000+00:00</time></trkpt><trkpt lat="34.8484016" lon="33.5707283"><ele>30.1</ele><time>2015-05-01T09:02:33.0000000+00:00</time></trkpt><trkpt lat="34.8484399" lon="33.5706615"><ele>30.0</ele><time>2015-05-01T09:02:35.0000000+00:00</time></trkpt><trkpt lat="34.8484748" lon="33.5705909"><ele>29.3</ele><time>2015-05-01T09:02:37.0000000+00:00</time></trkpt><trkpt lat="34.8485047" lon="33.5705133"><ele>29.1</ele><time>2015-05-01T09:02:39.0000000+00:00</time></trkpt><trkpt lat="34.8485357" lon="33.5704285"><ele>29.5</ele><time>2015-05-01T09:02:41.0000000+00:00</time></trkpt><trkpt lat="34.848567" lon="33.5703445"><ele>29.9</ele><time>2015-05-01T09:02:43.0000000+00:00</time></trkpt><trkpt lat="34.8485965" lon="33.570252"><ele>30.0</ele><time>2015-05-01T09:02:45.0000000+00:00</time></trkpt><trkpt lat="34.8486182" lon="33.5701588"><ele>29.5</ele><time>2015-05-01T09:02:47.0000000+00:00</time></trkpt><trkpt lat="34.8486376" lon="33.5700616"><ele>29.1</ele><time>2015-05-01T09:02:49.0000000+00:00</time></trkpt><trkpt lat="34.8486563" lon="33.5699653"><ele>29.3</ele><time>2015-05-01T09:02:51.0000000+00:00</time></trkpt><trkpt lat="34.8486723" lon="33.5698647"><ele>29.1</ele><time>2015-05-01T09:02:53.0000000+00:00</time></trkpt><trkpt lat="34.8486915" lon="33.5697631"><ele>29.0</ele><time>2015-05-01T09:02:55.0000000+00:00</time></trkpt><trkpt lat="34.8487185" lon="33.5696609"><ele>29.5</ele><time>2015-05-01T09:02:57.0000000+00:00</time></trkpt><trkpt lat="34.8487449" lon="33.569561"><ele>28.6</ele><time>2015-05-01T09:02:59.0000000+00:00</time></trkpt><trkpt lat="34.8487629" lon="33.569466"><ele>28.2</ele><time>2015-05-01T09:03:01.0000000+00:00</time></trkpt><trkpt lat="34.8487883" lon="33.569363"><ele>28.1</ele><time>2015-05-01T09:03:03.0000000+00:00</time></trkpt><trkpt lat="34.8488121" lon="33.5692626"><ele>28.8</ele><time>2015-05-01T09:03:05.0000000+00:00</time></trkpt><trkpt lat="34.848832" lon="33.5691613"><ele>29.0</ele><time>2015-05-01T09:03:07.0000000+00:00</time></trkpt><trkpt lat="34.8488418" lon="33.5691035"><ele>29.0</ele><time>2015-05-01T09:03:08.0000000+00:00</time></trkpt><trkpt lat="34.8488504" lon="33.5690485"><ele>28.5</ele><time>2015-05-01T09:03:09.0000000+00:00</time></trkpt><trkpt lat="34.8488582" lon="33.568994"><ele>28.3</ele><time>2015-05-01T09:03:10.0000000+00:00</time></trkpt><trkpt lat="34.848865" lon="33.5689379"><ele>28.6</ele><time>2015-05-01T09:03:11.0000000+00:00</time></trkpt><trkpt lat="34.8488787" lon="33.5688322"><ele>28.9</ele><time>2015-05-01T09:03:13.0000000+00:00</time></trkpt><trkpt lat="34.8488852" lon="33.5687273"><ele>29.0</ele><time>2015-05-01T09:03:15.0000000+00:00</time></trkpt><trkpt lat="34.8488855" lon="33.5686214"><ele>29.0</ele><time>2015-05-01T09:03:17.0000000+00:00</time></trkpt><trkpt lat="34.8488778" lon="33.5685143"><ele>29.8</ele><time>2015-05-01T09:03:19.0000000+00:00</time></trkpt><trkpt lat="34.8488513" lon="33.56846"><ele>29.9</ele><time>2015-05-01T09:03:20.0000000+00:00</time></trkpt><trkpt lat="34.8488242" lon="33.5684136"><ele>30.0</ele><time>2015-05-01T09:03:21.0000000+00:00</time></trkpt><trkpt lat="34.8487779" lon="33.5683303"><ele>30.0</ele><time>2015-05-01T09:03:23.0000000+00:00</time></trkpt><trkpt lat="34.8487323" lon="33.5682507"><ele>29.5</ele><time>2015-05-01T09:03:25.0000000+00:00</time></trkpt><trkpt lat="34.8486751" lon="33.5681712"><ele>29.1</ele><time>2015-05-01T09:03:27.0000000+00:00</time></trkpt><trkpt lat="34.8486157" lon="33.5680903"><ele>29.1</ele><time>2015-05-01T09:03:29.0000000+00:00</time></trkpt><trkpt lat="34.8485858" lon="33.5680484"><ele>29.0</ele><time>2015-05-01T09:03:30.0000000+00:00</time></trkpt><trkpt lat="34.8485559" lon="33.568005"><ele>29.5</ele><time>2015-05-01T09:03:31.0000000+00:00</time></trkpt><trkpt lat="34.8485249" lon="33.5679615"><ele>29.3</ele><time>2015-05-01T09:03:32.0000000+00:00</time></trkpt><trkpt lat="34.8484991" lon="33.5679164"><ele>29.6</ele><time>2015-05-01T09:03:33.0000000+00:00</time></trkpt><trkpt lat="34.8484689" lon="33.5678703"><ele>29.8</ele><time>2015-05-01T09:03:34.0000000+00:00</time></trkpt><trkpt lat="34.848437" lon="33.5678292"><ele>29.9</ele><time>2015-05-01T09:03:35.0000000+00:00</time></trkpt><trkpt lat="34.8483805" lon="33.5677435"><ele>30.7</ele><time>2015-05-01T09:03:37.0000000+00:00</time></trkpt><trkpt lat="34.8483527" lon="33.5676973"><ele>31.9</ele><time>2015-05-01T09:03:38.0000000+00:00</time></trkpt><trkpt lat="34.848321" lon="33.5676442"><ele>32.5</ele><time>2015-05-01T09:03:39.0000000+00:00</time></trkpt><trkpt lat="34.848286" lon="33.5675914"><ele>32.2</ele><time>2015-05-01T09:03:40.0000000+00:00</time></trkpt><trkpt lat="34.848248" lon="33.5675592"><ele>32.1</ele><time>2015-05-01T09:03:41.0000000+00:00</time></trkpt><trkpt lat="34.8482218" lon="33.5675069"><ele>32.1</ele><time>2015-05-01T09:03:42.0000000+00:00</time></trkpt><trkpt lat="34.8481889" lon="33.5674641"><ele>32.0</ele><time>2015-05-01T09:03:43.0000000+00:00</time></trkpt><trkpt lat="34.848166" lon="33.5674168"><ele>32.0</ele><time>2015-05-01T09:03:44.0000000+00:00</time></trkpt><trkpt lat="34.8481301" lon="33.5673721"><ele>32.0</ele><time>2015-05-01T09:03:45.0000000+00:00</time></trkpt><trkpt lat="34.8480979" lon="33.5673261"><ele>32.0</ele><time>2015-05-01T09:03:46.0000000+00:00</time></trkpt><trkpt lat="34.8480285" lon="33.5672469"><ele>32.8</ele><time>2015-05-01T09:03:48.0000000+00:00</time></trkpt><trkpt lat="34.8479863" lon="33.5672045"><ele>32.9</ele><time>2015-05-01T09:03:49.0000000+00:00</time></trkpt><trkpt lat="34.8479249" lon="33.567117"><ele>32.5</ele><time>2015-05-01T09:03:51.0000000+00:00</time></trkpt><trkpt lat="34.847898" lon="33.5670706"><ele>32.3</ele><time>2015-05-01T09:03:52.0000000+00:00</time></trkpt><trkpt lat="34.8478633" lon="33.5670235"><ele>32.1</ele><time>2015-05-01T09:03:53.0000000+00:00</time></trkpt><trkpt lat="34.8478307" lon="33.566982"><ele>32.1</ele><time>2015-05-01T09:03:54.0000000+00:00</time></trkpt><trkpt lat="34.8477984" lon="33.5669405"><ele>32.1</ele><time>2015-05-01T09:03:55.0000000+00:00</time></trkpt><trkpt lat="34.8477652" lon="33.5668952"><ele>32.5</ele><time>2015-05-01T09:03:56.0000000+00:00</time></trkpt><trkpt lat="34.8477323" lon="33.5668402"><ele>31.8</ele><time>2015-05-01T09:03:57.0000000+00:00</time></trkpt><trkpt lat="34.8476976" lon="33.5667957"><ele>31.4</ele><time>2015-05-01T09:03:58.0000000+00:00</time></trkpt><trkpt lat="34.8476643" lon="33.566755"><ele>30.7</ele><time>2015-05-01T09:03:59.0000000+00:00</time></trkpt><trkpt lat="34.847632" lon="33.5667122"><ele>30.9</ele><time>2015-05-01T09:04:00.0000000+00:00</time></trkpt><trkpt lat="34.8475991" lon="33.5666673"><ele>30.4</ele><time>2015-05-01T09:04:01.0000000+00:00</time></trkpt><trkpt lat="34.8475655" lon="33.5666214"><ele>30.2</ele><time>2015-05-01T09:04:02.0000000+00:00</time></trkpt><trkpt lat="34.8475264" lon="33.5665811"><ele>30.1</ele><time>2015-05-01T09:04:03.0000000+00:00</time></trkpt><trkpt lat="34.8474918" lon="33.5665267"><ele>30.1</ele><time>2015-05-01T09:04:04.0000000+00:00</time></trkpt><trkpt lat="34.8474602" lon="33.5664822"><ele>30.0</ele><time>2015-05-01T09:04:05.0000000+00:00</time></trkpt><trkpt lat="34.8474216" lon="33.5664412"><ele>29.5</ele><time>2015-05-01T09:04:06.0000000+00:00</time></trkpt><trkpt lat="34.8473828" lon="33.5663857"><ele>29.3</ele><time>2015-05-01T09:04:07.0000000+00:00</time></trkpt><trkpt lat="34.8473493" lon="33.5663419"><ele>29.1</ele><time>2015-05-01T09:04:08.0000000+00:00</time></trkpt><trkpt lat="34.8473134" lon="33.5663053"><ele>29.1</ele><time>2015-05-01T09:04:09.0000000+00:00</time></trkpt><trkpt lat="34.8472787" lon="33.5662622"><ele>29.1</ele><time>2015-05-01T09:04:10.0000000+00:00</time></trkpt><trkpt lat="34.8472424" lon="33.5662121"><ele>29.0</ele><time>2015-05-01T09:04:11.0000000+00:00</time></trkpt><trkpt lat="34.8472009" lon="33.5661691"><ele>28.5</ele><time>2015-05-01T09:04:12.0000000+00:00</time></trkpt><trkpt lat="34.8471678" lon="33.566112"><ele>28.3</ele><time>2015-05-01T09:04:13.0000000+00:00</time></trkpt><trkpt lat="34.8471356" lon="33.5660579"><ele>27.1</ele><time>2015-05-01T09:04:14.0000000+00:00</time></trkpt><trkpt lat="34.8471004" lon="33.5660074"><ele>26.6</ele><time>2015-05-01T09:04:15.0000000+00:00</time></trkpt><trkpt lat="34.8470619" lon="33.5659678"><ele>26.3</ele><time>2015-05-01T09:04:16.0000000+00:00</time></trkpt><trkpt lat="34.8470322" lon="33.5659061"><ele>25.2</ele><time>2015-05-01T09:04:17.0000000+00:00</time></trkpt><trkpt lat="34.8469999" lon="33.5658507"><ele>24.6</ele><time>2015-05-01T09:04:18.0000000+00:00</time></trkpt><trkpt lat="34.8469654" lon="33.5658083"><ele>24.3</ele><time>2015-05-01T09:04:19.0000000+00:00</time></trkpt><trkpt lat="34.8469304" lon="33.5657606"><ele>23.7</ele><time>2015-05-01T09:04:20.0000000+00:00</time></trkpt><trkpt lat="34.8468913" lon="33.5657144"><ele>23.3</ele><time>2015-05-01T09:04:21.0000000+00:00</time></trkpt><trkpt lat="34.8468548" lon="33.5656718"><ele>23.2</ele><time>2015-05-01T09:04:22.0000000+00:00</time></trkpt><trkpt lat="34.846811" lon="33.5656244"><ele>23.6</ele><time>2015-05-01T09:04:23.0000000+00:00</time></trkpt><trkpt lat="34.846779" lon="33.5655765"><ele>24.3</ele><time>2015-05-01T09:04:24.0000000+00:00</time></trkpt><trkpt lat="34.8467436" lon="33.5655296"><ele>24.7</ele><time>2015-05-01T09:04:25.0000000+00:00</time></trkpt><trkpt lat="34.8467038" lon="33.5654962"><ele>25.3</ele><time>2015-05-01T09:04:26.0000000+00:00</time></trkpt><trkpt lat="34.8466701" lon="33.5654528"><ele>25.7</ele><time>2015-05-01T09:04:27.0000000+00:00</time></trkpt><trkpt lat="34.8466345" lon="33.565407"><ele>26.4</ele><time>2015-05-01T09:04:28.0000000+00:00</time></trkpt><trkpt lat="34.8465974" lon="33.5653626"><ele>26.7</ele><time>2015-05-01T09:04:29.0000000+00:00</time></trkpt><trkpt lat="34.8465609" lon="33.5653225"><ele>26.9</ele><time>2015-05-01T09:04:30.0000000+00:00</time></trkpt><trkpt lat="34.8465235" lon="33.5652694"><ele>26.4</ele><time>2015-05-01T09:04:31.0000000+00:00</time></trkpt><trkpt lat="34.8464859" lon="33.5652133"><ele>26.2</ele><time>2015-05-01T09:04:32.0000000+00:00</time></trkpt><trkpt lat="34.8464549" lon="33.5651602"><ele>26.1</ele><time>2015-05-01T09:04:33.0000000+00:00</time></trkpt><trkpt lat="34.8464159" lon="33.565106"><ele>26.6</ele><time>2015-05-01T09:04:34.0000000+00:00</time></trkpt><trkpt lat="34.846385" lon="33.5650601"><ele>27.3</ele><time>2015-05-01T09:04:35.0000000+00:00</time></trkpt><trkpt lat="34.846339" lon="33.5650136"><ele>27.7</ele><time>2015-05-01T09:04:36.0000000+00:00</time></trkpt><trkpt lat="34.8463014" lon="33.5649707"><ele>27.8</ele><time>2015-05-01T09:04:37.0000000+00:00</time></trkpt><trkpt lat="34.8462613" lon="33.5649221"><ele>27.9</ele><time>2015-05-01T09:04:38.0000000+00:00</time></trkpt><trkpt lat="34.8462264" lon="33.5648801"><ele>28.5</ele><time>2015-05-01T09:04:39.0000000+00:00</time></trkpt><trkpt lat="34.8461865" lon="33.5648337"><ele>28.7</ele><time>2015-05-01T09:04:40.0000000+00:00</time></trkpt><trkpt lat="34.8461509" lon="33.5647785"><ele>28.9</ele><time>2015-05-01T09:04:41.0000000+00:00</time></trkpt><trkpt lat="34.8461174" lon="33.5647266"><ele>28.5</ele><time>2015-05-01T09:04:42.0000000+00:00</time></trkpt><trkpt lat="34.8460878" lon="33.5646807"><ele>28.2</ele><time>2015-05-01T09:04:43.0000000+00:00</time></trkpt><trkpt lat="34.8460509" lon="33.5646373"><ele>28.1</ele><time>2015-05-01T09:04:44.0000000+00:00</time></trkpt><trkpt lat="34.8460197" lon="33.5645912"><ele>28.1</ele><time>2015-05-01T09:04:45.0000000+00:00</time></trkpt><trkpt lat="34.8459542" lon="33.564525"><ele>27.8</ele><time>2015-05-01T09:04:47.0000000+00:00</time></trkpt><trkpt lat="34.845911" lon="33.5644765"><ele>27.9</ele><time>2015-05-01T09:04:48.0000000+00:00</time></trkpt><trkpt lat="34.8458796" lon="33.5644268"><ele>27.5</ele><time>2015-05-01T09:04:49.0000000+00:00</time></trkpt><trkpt lat="34.8458419" lon="33.5643631"><ele>27.2</ele><time>2015-05-01T09:04:50.0000000+00:00</time></trkpt><trkpt lat="34.845806" lon="33.5643164"><ele>27.6</ele><time>2015-05-01T09:04:51.0000000+00:00</time></trkpt><trkpt lat="34.8457716" lon="33.5642665"><ele>27.8</ele><time>2015-05-01T09:04:52.0000000+00:00</time></trkpt><trkpt lat="34.8457333" lon="33.5642181"><ele>27.9</ele><time>2015-05-01T09:04:53.0000000+00:00</time></trkpt><trkpt lat="34.8457005" lon="33.5641754"><ele>28.0</ele><time>2015-05-01T09:04:54.0000000+00:00</time></trkpt><trkpt lat="34.8456616" lon="33.5641263"><ele>28.0</ele><time>2015-05-01T09:04:55.0000000+00:00</time></trkpt><trkpt lat="34.845629" lon="33.5640739"><ele>28.0</ele><time>2015-05-01T09:04:56.0000000+00:00</time></trkpt><trkpt lat="34.8455974" lon="33.5640299"><ele>27.5</ele><time>2015-05-01T09:04:57.0000000+00:00</time></trkpt><trkpt lat="34.8455617" lon="33.5639896"><ele>27.3</ele><time>2015-05-01T09:04:58.0000000+00:00</time></trkpt><trkpt lat="34.8455099" lon="33.5639122"><ele>27.6</ele><time>2015-05-01T09:05:00.0000000+00:00</time></trkpt><trkpt lat="34.8454522" lon="33.5638421"><ele>27.4</ele><time>2015-05-01T09:05:02.0000000+00:00</time></trkpt><trkpt lat="34.8454055" lon="33.5638112"><ele>27.0</ele><time>2015-05-01T09:05:30.0000000+00:00</time></trkpt><trkpt lat="34.8453627" lon="33.5637468"><ele>27.9</ele><time>2015-05-01T09:05:33.0000000+00:00</time></trkpt><trkpt lat="34.8453191" lon="33.5636794"><ele>28.0</ele><time>2015-05-01T09:05:35.0000000+00:00</time></trkpt><trkpt lat="34.8452445" lon="33.5635659"><ele>27.8</ele><time>2015-05-01T09:05:37.0000000+00:00</time></trkpt><trkpt lat="34.8452077" lon="33.5635208"><ele>27.9</ele><time>2015-05-01T09:05:38.0000000+00:00</time></trkpt><trkpt lat="34.8451721" lon="33.5634774"><ele>27.5</ele><time>2015-05-01T09:05:39.0000000+00:00</time></trkpt><trkpt lat="34.8451373" lon="33.5634283"><ele>27.7</ele><time>2015-05-01T09:05:40.0000000+00:00</time></trkpt><trkpt lat="34.845103" lon="33.5633807"><ele>27.9</ele><time>2015-05-01T09:05:41.0000000+00:00</time></trkpt><trkpt lat="34.8450652" lon="33.5633254"><ele>27.5</ele><time>2015-05-01T09:05:42.0000000+00:00</time></trkpt><trkpt lat="34.8450274" lon="33.5632755"><ele>26.7</ele><time>2015-05-01T09:05:43.0000000+00:00</time></trkpt><trkpt lat="34.8449921" lon="33.5632244"><ele>26.9</ele><time>2015-05-01T09:05:44.0000000+00:00</time></trkpt><trkpt lat="34.844954" lon="33.563168"><ele>26.9</ele><time>2015-05-01T09:05:45.0000000+00:00</time></trkpt><trkpt lat="34.8449136" lon="33.5631212"><ele>27.0</ele><time>2015-05-01T09:05:46.0000000+00:00</time></trkpt><trkpt lat="34.8448749" lon="33.5630726"><ele>26.5</ele><time>2015-05-01T09:05:47.0000000+00:00</time></trkpt><trkpt lat="34.8448284" lon="33.5630135"><ele>26.8</ele><time>2015-05-01T09:05:48.0000000+00:00</time></trkpt><trkpt lat="34.8447921" lon="33.5629571"><ele>26.9</ele><time>2015-05-01T09:05:49.0000000+00:00</time></trkpt><trkpt lat="34.8447585" lon="33.5629014"><ele>27.0</ele><time>2015-05-01T09:05:50.0000000+00:00</time></trkpt><trkpt lat="34.8447234" lon="33.5628538"><ele>26.5</ele><time>2015-05-01T09:05:51.0000000+00:00</time></trkpt><trkpt lat="34.844682" lon="33.5627995"><ele>26.3</ele><time>2015-05-01T09:05:52.0000000+00:00</time></trkpt><trkpt lat="34.8446472" lon="33.5627401"><ele>26.1</ele><time>2015-05-01T09:05:53.0000000+00:00</time></trkpt><trkpt lat="34.8446129" lon="33.562687"><ele>26.1</ele><time>2015-05-01T09:05:54.0000000+00:00</time></trkpt><trkpt lat="34.844571" lon="33.5626429"><ele>26.6</ele><time>2015-05-01T09:05:55.0000000+00:00</time></trkpt><trkpt lat="34.8445324" lon="33.5625848"><ele>26.3</ele><time>2015-05-01T09:05:56.0000000+00:00</time></trkpt><trkpt lat="34.8444934" lon="33.562524"><ele>26.2</ele><time>2015-05-01T09:05:57.0000000+00:00</time></trkpt><trkpt lat="34.8444506" lon="33.5624679"><ele>25.6</ele><time>2015-05-01T09:05:58.0000000+00:00</time></trkpt><trkpt lat="34.8444109" lon="33.5624284"><ele>25.3</ele><time>2015-05-01T09:05:59.0000000+00:00</time></trkpt><trkpt lat="34.8443677" lon="33.5623784"><ele>24.7</ele><time>2015-05-01T09:06:00.0000000+00:00</time></trkpt><trkpt lat="34.8443259" lon="33.562318"><ele>24.8</ele><time>2015-05-01T09:06:01.0000000+00:00</time></trkpt><trkpt lat="34.8442817" lon="33.5622708"><ele>24.9</ele><time>2015-05-01T09:06:02.0000000+00:00</time></trkpt><trkpt lat="34.8442416" lon="33.5622069"><ele>25.0</ele><time>2015-05-01T09:06:03.0000000+00:00</time></trkpt><trkpt lat="34.8441995" lon="33.5621514"><ele>25.0</ele><time>2015-05-01T09:06:04.0000000+00:00</time></trkpt><trkpt lat="34.8441559" lon="33.5620922"><ele>25.0</ele><time>2015-05-01T09:06:05.0000000+00:00</time></trkpt><trkpt lat="34.8441141" lon="33.5620379"><ele>25.5</ele><time>2015-05-01T09:06:06.0000000+00:00</time></trkpt><trkpt lat="34.8440733" lon="33.5619869"><ele>26.8</ele><time>2015-05-01T09:06:07.0000000+00:00</time></trkpt><trkpt lat="34.8440291" lon="33.5619282"><ele>26.9</ele><time>2015-05-01T09:06:08.0000000+00:00</time></trkpt><trkpt lat="34.8439912" lon="33.5618751"><ele>27.5</ele><time>2015-05-01T09:06:09.0000000+00:00</time></trkpt><trkpt lat="34.8439486" lon="33.5618258"><ele>28.2</ele><time>2015-05-01T09:06:10.0000000+00:00</time></trkpt><trkpt lat="34.8439159" lon="33.5617712"><ele>28.1</ele><time>2015-05-01T09:06:11.0000000+00:00</time></trkpt><trkpt lat="34.8438745" lon="33.5617193"><ele>28.1</ele><time>2015-05-01T09:06:12.0000000+00:00</time></trkpt><trkpt lat="34.84383" lon="33.5616732"><ele>27.5</ele><time>2015-05-01T09:06:13.0000000+00:00</time></trkpt><trkpt lat="34.8437948" lon="33.5616293"><ele>27.3</ele><time>2015-05-01T09:06:14.0000000+00:00</time></trkpt><trkpt lat="34.8437607" lon="33.5615757"><ele>27.2</ele><time>2015-05-01T09:06:15.0000000+00:00</time></trkpt><trkpt lat="34.8437207" lon="33.5615218"><ele>27.1</ele><time>2015-05-01T09:06:16.0000000+00:00</time></trkpt><trkpt lat="34.8436793" lon="33.5614687"><ele>27.1</ele><time>2015-05-01T09:06:17.0000000+00:00</time></trkpt><trkpt lat="34.8436367" lon="33.5614089"><ele>27.5</ele><time>2015-05-01T09:06:18.0000000+00:00</time></trkpt><trkpt lat="34.8435975" lon="33.5613616"><ele>27.3</ele><time>2015-05-01T09:06:19.0000000+00:00</time></trkpt><trkpt lat="34.8435647" lon="33.5612992"><ele>27.2</ele><time>2015-05-01T09:06:20.0000000+00:00</time></trkpt><trkpt lat="34.8435287" lon="33.5612612"><ele>27.1</ele><time>2015-05-01T09:06:21.0000000+00:00</time></trkpt><trkpt lat="34.8434934" lon="33.561219"><ele>27.1</ele><time>2015-05-01T09:06:22.0000000+00:00</time></trkpt><trkpt lat="34.8434588" lon="33.5611769"><ele>27.0</ele><time>2015-05-01T09:06:23.0000000+00:00</time></trkpt><trkpt lat="34.8434179" lon="33.5611165"><ele>27.0</ele><time>2015-05-01T09:06:24.0000000+00:00</time></trkpt><trkpt lat="34.8433829" lon="33.5610673"><ele>26.5</ele><time>2015-05-01T09:06:25.0000000+00:00</time></trkpt><trkpt lat="34.8433507" lon="33.5610247"><ele>26.3</ele><time>2015-05-01T09:06:26.0000000+00:00</time></trkpt><trkpt lat="34.8433158" lon="33.5609562"><ele>26.1</ele><time>2015-05-01T09:06:27.0000000+00:00</time></trkpt><trkpt lat="34.8432783" lon="33.5608994"><ele>26.1</ele><time>2015-05-01T09:06:28.0000000+00:00</time></trkpt><trkpt lat="34.8432384" lon="33.5608472"><ele>26.1</ele><time>2015-05-01T09:06:29.0000000+00:00</time></trkpt><trkpt lat="34.8431997" lon="33.5607938"><ele>25.5</ele><time>2015-05-01T09:06:30.0000000+00:00</time></trkpt><trkpt lat="34.8431622" lon="33.5607402"><ele>25.8</ele><time>2015-05-01T09:06:31.0000000+00:00</time></trkpt><trkpt lat="34.8431168" lon="33.5606883"><ele>25.9</ele><time>2015-05-01T09:06:32.0000000+00:00</time></trkpt><trkpt lat="34.8430732" lon="33.5606358"><ele>26.0</ele><time>2015-05-01T09:06:33.0000000+00:00</time></trkpt><trkpt lat="34.8430326" lon="33.5605813"><ele>26.0</ele><time>2015-05-01T09:06:34.0000000+00:00</time></trkpt><trkpt lat="34.8429978" lon="33.5605219"><ele>26.0</ele><time>2015-05-01T09:06:35.0000000+00:00</time></trkpt><trkpt lat="34.8429613" lon="33.5604818"><ele>25.5</ele><time>2015-05-01T09:06:36.0000000+00:00</time></trkpt><trkpt lat="34.842929" lon="33.5604343"><ele>24.8</ele><time>2015-05-01T09:06:37.0000000+00:00</time></trkpt><trkpt lat="34.8428938" lon="33.5603842"><ele>24.4</ele><time>2015-05-01T09:06:38.0000000+00:00</time></trkpt><trkpt lat="34.8428587" lon="33.5603383"><ele>24.2</ele><time>2015-05-01T09:06:39.0000000+00:00</time></trkpt><trkpt lat="34.8428191" lon="33.5602785"><ele>24.1</ele><time>2015-05-01T09:06:40.0000000+00:00</time></trkpt><trkpt lat="34.8427839" lon="33.560223"><ele>24.1</ele><time>2015-05-01T09:06:41.0000000+00:00</time></trkpt><trkpt lat="34.8427408" lon="33.5601872"><ele>23.5</ele><time>2015-05-01T09:06:42.0000000+00:00</time></trkpt><trkpt lat="34.8427041" lon="33.5601363"><ele>23.3</ele><time>2015-05-01T09:06:43.0000000+00:00</time></trkpt><trkpt lat="34.8426589" lon="33.5600887"><ele>23.2</ele><time>2015-05-01T09:06:44.0000000+00:00</time></trkpt><trkpt lat="34.8426223" lon="33.5600442"><ele>22.6</ele><time>2015-05-01T09:06:45.0000000+00:00</time></trkpt><trkpt lat="34.8425872" lon="33.5599936"><ele>22.3</ele><time>2015-05-01T09:06:46.0000000+00:00</time></trkpt><trkpt lat="34.8425461" lon="33.5599426"><ele>22.2</ele><time>2015-05-01T09:06:47.0000000+00:00</time></trkpt><trkpt lat="34.8425078" lon="33.5598936"><ele>22.1</ele><time>2015-05-01T09:06:48.0000000+00:00</time></trkpt><trkpt lat="34.8424755" lon="33.5598493"><ele>21.6</ele><time>2015-05-01T09:06:49.0000000+00:00</time></trkpt><trkpt lat="34.8424395" lon="33.5598016"><ele>21.3</ele><time>2015-05-01T09:06:50.0000000+00:00</time></trkpt><trkpt lat="34.8424064" lon="33.5597481"><ele>21.2</ele><time>2015-05-01T09:06:51.0000000+00:00</time></trkpt><trkpt lat="34.8423674" lon="33.5596987"><ele>21.1</ele><time>2015-05-01T09:06:52.0000000+00:00</time></trkpt><trkpt lat="34.8423293" lon="33.5596508"><ele>21.1</ele><time>2015-05-01T09:06:53.0000000+00:00</time></trkpt><trkpt lat="34.8422985" lon="33.5596"><ele>21.0</ele><time>2015-05-01T09:06:54.0000000+00:00</time></trkpt><trkpt lat="34.8422581" lon="33.5595487"><ele>21.0</ele><time>2015-05-01T09:06:55.0000000+00:00</time></trkpt><trkpt lat="34.842215" lon="33.5594963"><ele>21.0</ele><time>2015-05-01T09:06:56.0000000+00:00</time></trkpt><trkpt lat="34.8421767" lon="33.5594479"><ele>21.0</ele><time>2015-05-01T09:06:57.0000000+00:00</time></trkpt><trkpt lat="34.8421439" lon="33.5593949"><ele>21.0</ele><time>2015-05-01T09:06:58.0000000+00:00</time></trkpt><trkpt lat="34.8421042" lon="33.5593448"><ele>21.0</ele><time>2015-05-01T09:06:59.0000000+00:00</time></trkpt><trkpt lat="34.842063" lon="33.5592909"><ele>21.0</ele><time>2015-05-01T09:07:00.0000000+00:00</time></trkpt><trkpt lat="34.8420206" lon="33.5592387"><ele>21.0</ele><time>2015-05-01T09:07:01.0000000+00:00</time></trkpt><trkpt lat="34.8419832" lon="33.5591836"><ele>21.0</ele><time>2015-05-01T09:07:02.0000000+00:00</time></trkpt><trkpt lat="34.8419388" lon="33.5591316"><ele>21.0</ele><time>2015-05-01T09:07:03.0000000+00:00</time></trkpt><trkpt lat="34.8418981" lon="33.5590777"><ele>21.0</ele><time>2015-05-01T09:07:04.0000000+00:00</time></trkpt><trkpt lat="34.8418613" lon="33.5590234"><ele>21.0</ele><time>2015-05-01T09:07:05.0000000+00:00</time></trkpt><trkpt lat="34.8418222" lon="33.5589715"><ele>21.0</ele><time>2015-05-01T09:07:06.0000000+00:00</time></trkpt><trkpt lat="34.8417826" lon="33.5589244"><ele>21.0</ele><time>2015-05-01T09:07:07.0000000+00:00</time></trkpt><trkpt lat="34.8417404" lon="33.5588727"><ele>21.0</ele><time>2015-05-01T09:07:08.0000000+00:00</time></trkpt><trkpt lat="34.8417053" lon="33.5588232"><ele>21.0</ele><time>2015-05-01T09:07:09.0000000+00:00</time></trkpt><trkpt lat="34.8416684" lon="33.5587778"><ele>21.0</ele><time>2015-05-01T09:07:10.0000000+00:00</time></trkpt><trkpt lat="34.8416305" lon="33.5587269"><ele>21.0</ele><time>2015-05-01T09:07:11.0000000+00:00</time></trkpt><trkpt lat="34.8415921" lon="33.5586744"><ele>21.0</ele><time>2015-05-01T09:07:12.0000000+00:00</time></trkpt><trkpt lat="34.8415542" lon="33.558624"><ele>21.0</ele><time>2015-05-01T09:07:13.0000000+00:00</time></trkpt><trkpt lat="34.841514" lon="33.5585734"><ele>21.5</ele><time>2015-05-01T09:07:14.0000000+00:00</time></trkpt><trkpt lat="34.8414787" lon="33.5585266"><ele>21.8</ele><time>2015-05-01T09:07:15.0000000+00:00</time></trkpt><trkpt lat="34.8414327" lon="33.5584751"><ele>21.9</ele><time>2015-05-01T09:07:16.0000000+00:00</time></trkpt><trkpt lat="34.8413977" lon="33.5584251"><ele>22.0</ele><time>2015-05-01T09:07:17.0000000+00:00</time></trkpt><trkpt lat="34.8413566" lon="33.5583844"><ele>22.5</ele><time>2015-05-01T09:07:18.0000000+00:00</time></trkpt><trkpt lat="34.8413193" lon="33.558333"><ele>23.3</ele><time>2015-05-01T09:07:19.0000000+00:00</time></trkpt><trkpt lat="34.8412799" lon="33.5582827"><ele>23.6</ele><time>2015-05-01T09:07:20.0000000+00:00</time></trkpt><trkpt lat="34.8412497" lon="33.5582365"><ele>23.3</ele><time>2015-05-01T09:07:21.0000000+00:00</time></trkpt><trkpt lat="34.8412206" lon="33.5581941"><ele>22.7</ele><time>2015-05-01T09:07:22.0000000+00:00</time></trkpt><trkpt lat="34.8411621" lon="33.5581078"><ele>22.2</ele><time>2015-05-01T09:07:24.0000000+00:00</time></trkpt><trkpt lat="34.84113" lon="33.5580668"><ele>22.1</ele><time>2015-05-01T09:07:25.0000000+00:00</time></trkpt><trkpt lat="34.8410749" lon="33.5579872"><ele>22.8</ele><time>2015-05-01T09:07:27.0000000+00:00</time></trkpt><trkpt lat="34.8410426" lon="33.557941"><ele>22.9</ele><time>2015-05-01T09:07:28.0000000+00:00</time></trkpt><trkpt lat="34.8410028" lon="33.5579036"><ele>23.0</ele><time>2015-05-01T09:07:29.0000000+00:00</time></trkpt><trkpt lat="34.8409699" lon="33.5578641"><ele>23.0</ele><time>2015-05-01T09:07:30.0000000+00:00</time></trkpt><trkpt lat="34.840903" lon="33.557786"><ele>22.3</ele><time>2015-05-01T09:07:32.0000000+00:00</time></trkpt><trkpt lat="34.8408703" lon="33.5577445"><ele>21.6</ele><time>2015-05-01T09:07:33.0000000+00:00</time></trkpt><trkpt lat="34.8408333" lon="33.5577"><ele>21.3</ele><time>2015-05-01T09:07:34.0000000+00:00</time></trkpt><trkpt lat="34.8408012" lon="33.5576548"><ele>20.7</ele><time>2015-05-01T09:07:35.0000000+00:00</time></trkpt><trkpt lat="34.8407665" lon="33.5576113"><ele>20.3</ele><time>2015-05-01T09:07:36.0000000+00:00</time></trkpt><trkpt lat="34.840736" lon="33.5575693"><ele>20.2</ele><time>2015-05-01T09:07:37.0000000+00:00</time></trkpt><trkpt lat="34.8407015" lon="33.5575252"><ele>20.1</ele><time>2015-05-01T09:07:38.0000000+00:00</time></trkpt><trkpt lat="34.8406647" lon="33.5574781"><ele>19.6</ele><time>2015-05-01T09:07:39.0000000+00:00</time></trkpt><trkpt lat="34.8406279" lon="33.5574318"><ele>19.3</ele><time>2015-05-01T09:07:40.0000000+00:00</time></trkpt><trkpt lat="34.8405874" lon="33.5573875"><ele>19.7</ele><time>2015-05-01T09:07:41.0000000+00:00</time></trkpt><trkpt lat="34.8405526" lon="33.5573378"><ele>19.8</ele><time>2015-05-01T09:07:42.0000000+00:00</time></trkpt><trkpt lat="34.8405151" lon="33.5572914"><ele>19.9</ele><time>2015-05-01T09:07:43.0000000+00:00</time></trkpt><trkpt lat="34.8404758" lon="33.5572422"><ele>20.5</ele><time>2015-05-01T09:07:44.0000000+00:00</time></trkpt><trkpt lat="34.8404381" lon="33.5571949"><ele>20.7</ele><time>2015-05-01T09:07:45.0000000+00:00</time></trkpt><trkpt lat="34.8404008" lon="33.5571492"><ele>20.9</ele><time>2015-05-01T09:07:46.0000000+00:00</time></trkpt><trkpt lat="34.8403655" lon="33.5571078"><ele>21.0</ele><time>2015-05-01T09:07:47.0000000+00:00</time></trkpt><trkpt lat="34.8403347" lon="33.5570542"><ele>21.0</ele><time>2015-05-01T09:07:48.0000000+00:00</time></trkpt><trkpt lat="34.8402969" lon="33.5570087"><ele>21.5</ele><time>2015-05-01T09:07:49.0000000+00:00</time></trkpt><trkpt lat="34.8402552" lon="33.556967"><ele>21.8</ele><time>2015-05-01T09:07:50.0000000+00:00</time></trkpt><trkpt lat="34.8402248" lon="33.5569238"><ele>21.4</ele><time>2015-05-01T09:07:51.0000000+00:00</time></trkpt><trkpt lat="34.8401877" lon="33.556877"><ele>21.2</ele><time>2015-05-01T09:07:52.0000000+00:00</time></trkpt><trkpt lat="34.8401491" lon="33.5568326"><ele>21.1</ele><time>2015-05-01T09:07:53.0000000+00:00</time></trkpt><trkpt lat="34.8401129" lon="33.5567859"><ele>21.1</ele><time>2015-05-01T09:07:54.0000000+00:00</time></trkpt><trkpt lat="34.8400759" lon="33.5567414"><ele>21.0</ele><time>2015-05-01T09:07:55.0000000+00:00</time></trkpt><trkpt lat="34.8400423" lon="33.5566962"><ele>21.0</ele><time>2015-05-01T09:07:56.0000000+00:00</time></trkpt><trkpt lat="34.8400036" lon="33.5566479"><ele>21.0</ele><time>2015-05-01T09:07:57.0000000+00:00</time></trkpt><trkpt lat="34.8399666" lon="33.556601"><ele>21.0</ele><time>2015-05-01T09:07:58.0000000+00:00</time></trkpt><trkpt lat="34.8399309" lon="33.5565559"><ele>21.0</ele><time>2015-05-01T09:07:59.0000000+00:00</time></trkpt><trkpt lat="34.8398973" lon="33.5565106"><ele>20.5</ele><time>2015-05-01T09:08:00.0000000+00:00</time></trkpt><trkpt lat="34.8398619" lon="33.5564646"><ele>20.3</ele><time>2015-05-01T09:08:01.0000000+00:00</time></trkpt><trkpt lat="34.8398275" lon="33.5564198"><ele>20.1</ele><time>2015-05-01T09:08:02.0000000+00:00</time></trkpt><trkpt lat="34.8397915" lon="33.5563747"><ele>20.1</ele><time>2015-05-01T09:08:03.0000000+00:00</time></trkpt><trkpt lat="34.8397555" lon="33.5563302"><ele>20.1</ele><time>2015-05-01T09:08:04.0000000+00:00</time></trkpt><trkpt lat="34.8397295" lon="33.5562805"><ele>20.5</ele><time>2015-05-01T09:08:05.0000000+00:00</time></trkpt><trkpt lat="34.8396994" lon="33.5562365"><ele>20.8</ele><time>2015-05-01T09:08:06.0000000+00:00</time></trkpt><trkpt lat="34.8396402" lon="33.5561617"><ele>20.2</ele><time>2015-05-01T09:08:08.0000000+00:00</time></trkpt><trkpt lat="34.839607" lon="33.556121"><ele>20.1</ele><time>2015-05-01T09:08:09.0000000+00:00</time></trkpt><trkpt lat="34.8395742" lon="33.5560784"><ele>20.1</ele><time>2015-05-01T09:08:10.0000000+00:00</time></trkpt><trkpt lat="34.8395395" lon="33.5560398"><ele>20.0</ele><time>2015-05-01T09:08:11.0000000+00:00</time></trkpt><trkpt lat="34.8394997" lon="33.555996"><ele>20.0</ele><time>2015-05-01T09:08:12.0000000+00:00</time></trkpt><trkpt lat="34.839463" lon="33.5559515"><ele>20.0</ele><time>2015-05-01T09:08:13.0000000+00:00</time></trkpt><trkpt lat="34.8394099" lon="33.555865"><ele>20.0</ele><time>2015-05-01T09:08:15.0000000+00:00</time></trkpt><trkpt lat="34.8393761" lon="33.5558246"><ele>20.0</ele><time>2015-05-01T09:08:16.0000000+00:00</time></trkpt><trkpt lat="34.8393452" lon="33.555783"><ele>20.0</ele><time>2015-05-01T09:08:17.0000000+00:00</time></trkpt><trkpt lat="34.8393086" lon="33.5557412"><ele>19.5</ele><time>2015-05-01T09:08:18.0000000+00:00</time></trkpt><trkpt lat="34.8392776" lon="33.5556977"><ele>19.8</ele><time>2015-05-01T09:08:19.0000000+00:00</time></trkpt><trkpt lat="34.8392432" lon="33.5556605"><ele>19.4</ele><time>2015-05-01T09:08:20.0000000+00:00</time></trkpt><trkpt lat="34.8392112" lon="33.5556146"><ele>19.7</ele><time>2015-05-01T09:08:21.0000000+00:00</time></trkpt><trkpt lat="34.8391807" lon="33.5555718"><ele>19.4</ele><time>2015-05-01T09:08:22.0000000+00:00</time></trkpt><trkpt lat="34.8391187" lon="33.5554915"><ele>19.9</ele><time>2015-05-01T09:08:24.0000000+00:00</time></trkpt><trkpt lat="34.8390785" lon="33.555446"><ele>19.9</ele><time>2015-05-01T09:08:25.0000000+00:00</time></trkpt><trkpt lat="34.8390462" lon="33.5554039"><ele>20.0</ele><time>2015-05-01T09:08:26.0000000+00:00</time></trkpt><trkpt lat="34.8390119" lon="33.5553585"><ele>20.0</ele><time>2015-05-01T09:08:27.0000000+00:00</time></trkpt><trkpt lat="34.8389809" lon="33.5553144"><ele>20.0</ele><time>2015-05-01T09:08:28.0000000+00:00</time></trkpt><trkpt lat="34.8389467" lon="33.555273"><ele>20.0</ele><time>2015-05-01T09:08:29.0000000+00:00</time></trkpt><trkpt lat="34.8389098" lon="33.5552261"><ele>20.0</ele><time>2015-05-01T09:08:30.0000000+00:00</time></trkpt><trkpt lat="34.8388781" lon="33.5551802"><ele>20.0</ele><time>2015-05-01T09:08:31.0000000+00:00</time></trkpt><trkpt lat="34.8388146" lon="33.555098"><ele>20.0</ele><time>2015-05-01T09:08:33.0000000+00:00</time></trkpt><trkpt lat="34.838767" lon="33.5550141"><ele>20.0</ele><time>2015-05-01T09:08:35.0000000+00:00</time></trkpt><trkpt lat="34.8386976" lon="33.5549428"><ele>20.0</ele><time>2015-05-01T09:08:37.0000000+00:00</time></trkpt><trkpt lat="34.8386684" lon="33.5549"><ele>20.0</ele><time>2015-05-01T09:08:38.0000000+00:00</time></trkpt><trkpt lat="34.8386156" lon="33.5548208"><ele>20.0</ele><time>2015-05-01T09:08:40.0000000+00:00</time></trkpt><trkpt lat="34.8385818" lon="33.5547789"><ele>20.0</ele><time>2015-05-01T09:08:41.0000000+00:00</time></trkpt><trkpt lat="34.8385496" lon="33.5547385"><ele>20.0</ele><time>2015-05-01T09:08:42.0000000+00:00</time></trkpt><trkpt lat="34.8385187" lon="33.554694"><ele>20.0</ele><time>2015-05-01T09:08:43.0000000+00:00</time></trkpt><trkpt lat="34.8384814" lon="33.5546491"><ele>20.0</ele><time>2015-05-01T09:08:44.0000000+00:00</time></trkpt><trkpt lat="34.8384512" lon="33.5546024"><ele>20.0</ele><time>2015-05-01T09:08:45.0000000+00:00</time></trkpt><trkpt lat="34.8383911" lon="33.5545252"><ele>20.0</ele><time>2015-05-01T09:08:47.0000000+00:00</time></trkpt><trkpt lat="34.8383559" lon="33.5544823"><ele>20.0</ele><time>2015-05-01T09:08:48.0000000+00:00</time></trkpt><trkpt lat="34.8383247" lon="33.5544423"><ele>20.0</ele><time>2015-05-01T09:08:49.0000000+00:00</time></trkpt><trkpt lat="34.8382951" lon="33.5544007"><ele>20.0</ele><time>2015-05-01T09:08:50.0000000+00:00</time></trkpt><trkpt lat="34.8382661" lon="33.5543562"><ele>20.0</ele><time>2015-05-01T09:08:51.0000000+00:00</time></trkpt><trkpt lat="34.8382388" lon="33.5543085"><ele>20.0</ele><time>2015-05-01T09:08:52.0000000+00:00</time></trkpt><trkpt lat="34.8382" lon="33.5542702"><ele>20.0</ele><time>2015-05-01T09:08:53.0000000+00:00</time></trkpt><trkpt lat="34.8381404" lon="33.554184"><ele>20.3</ele><time>2015-05-01T09:08:55.0000000+00:00</time></trkpt><trkpt lat="34.8381052" lon="33.5541403"><ele>20.1</ele><time>2015-05-01T09:08:56.0000000+00:00</time></trkpt><trkpt lat="34.8380733" lon="33.5540956"><ele>20.6</ele><time>2015-05-01T09:08:57.0000000+00:00</time></trkpt><trkpt lat="34.8380399" lon="33.5540499"><ele>20.8</ele><time>2015-05-01T09:08:58.0000000+00:00</time></trkpt><trkpt lat="34.8380042" lon="33.5540025"><ele>20.4</ele><time>2015-05-01T09:08:59.0000000+00:00</time></trkpt><trkpt lat="34.8379722" lon="33.5539575"><ele>20.2</ele><time>2015-05-01T09:09:00.0000000+00:00</time></trkpt><trkpt lat="34.8379226" lon="33.553885"><ele>20.1</ele><time>2015-05-01T09:09:02.0000000+00:00</time></trkpt><trkpt lat="34.837875" lon="33.5538077"><ele>20.0</ele><time>2015-05-01T09:09:04.0000000+00:00</time></trkpt><trkpt lat="34.8378265" lon="33.5537416"><ele>20.5</ele><time>2015-05-01T09:09:06.0000000+00:00</time></trkpt><trkpt lat="34.8377654" lon="33.5536727"><ele>20.9</ele><time>2015-05-01T09:09:08.0000000+00:00</time></trkpt><trkpt lat="34.8377144" lon="33.5535896"><ele>20.5</ele><time>2015-05-01T09:09:10.0000000+00:00</time></trkpt><trkpt lat="34.8376772" lon="33.5535441"><ele>20.8</ele><time>2015-05-01T09:09:11.0000000+00:00</time></trkpt><trkpt lat="34.8376466" lon="33.5535024"><ele>20.9</ele><time>2015-05-01T09:09:12.0000000+00:00</time></trkpt><trkpt lat="34.8376055" lon="33.5534582"><ele>21.0</ele><time>2015-05-01T09:09:13.0000000+00:00</time></trkpt><trkpt lat="34.8375738" lon="33.5534168"><ele>21.0</ele><time>2015-05-01T09:09:14.0000000+00:00</time></trkpt><trkpt lat="34.8375074" lon="33.5533343"><ele>21.0</ele><time>2015-05-01T09:09:16.0000000+00:00</time></trkpt><trkpt lat="34.8374752" lon="33.5532889"><ele>21.0</ele><time>2015-05-01T09:09:17.0000000+00:00</time></trkpt><trkpt lat="34.8374466" lon="33.5532435"><ele>20.5</ele><time>2015-05-01T09:09:18.0000000+00:00</time></trkpt><trkpt lat="34.8374132" lon="33.553198"><ele>20.3</ele><time>2015-05-01T09:09:19.0000000+00:00</time></trkpt><trkpt lat="34.8373791" lon="33.5531516"><ele>20.1</ele><time>2015-05-01T09:09:20.0000000+00:00</time></trkpt><trkpt lat="34.837345" lon="33.5531067"><ele>20.1</ele><time>2015-05-01T09:09:21.0000000+00:00</time></trkpt><trkpt lat="34.8373108" lon="33.5530621"><ele>20.1</ele><time>2015-05-01T09:09:22.0000000+00:00</time></trkpt><trkpt lat="34.8372802" lon="33.553021"><ele>20.5</ele><time>2015-05-01T09:09:23.0000000+00:00</time></trkpt><trkpt lat="34.8372432" lon="33.5529766"><ele>20.8</ele><time>2015-05-01T09:09:24.0000000+00:00</time></trkpt><trkpt lat="34.8372055" lon="33.5529318"><ele>21.4</ele><time>2015-05-01T09:09:25.0000000+00:00</time></trkpt><trkpt lat="34.8371755" lon="33.5528857"><ele>21.2</ele><time>2015-05-01T09:09:26.0000000+00:00</time></trkpt><trkpt lat="34.8371417" lon="33.5528388"><ele>21.6</ele><time>2015-05-01T09:09:27.0000000+00:00</time></trkpt><trkpt lat="34.8371089" lon="33.5527934"><ele>21.8</ele><time>2015-05-01T09:09:28.0000000+00:00</time></trkpt><trkpt lat="34.8370627" lon="33.5527194"><ele>21.2</ele><time>2015-05-01T09:09:30.0000000+00:00</time></trkpt><trkpt lat="34.8370128" lon="33.5526495"><ele>21.6</ele><time>2015-05-01T09:09:32.0000000+00:00</time></trkpt><trkpt lat="34.8369616" lon="33.5525686"><ele>21.7</ele><time>2015-05-01T09:09:34.0000000+00:00</time></trkpt><trkpt lat="34.8369046" lon="33.5524911"><ele>21.9</ele><time>2015-05-01T09:09:36.0000000+00:00</time></trkpt><trkpt lat="34.8368474" lon="33.5524132"><ele>22.0</ele><time>2015-05-01T09:09:38.0000000+00:00</time></trkpt><trkpt lat="34.8367823" lon="33.5523287"><ele>22.0</ele><time>2015-05-01T09:09:40.0000000+00:00</time></trkpt><trkpt lat="34.8367497" lon="33.5522855"><ele>22.0</ele><time>2015-05-01T09:09:41.0000000+00:00</time></trkpt><trkpt lat="34.8366899" lon="33.5522085"><ele>22.0</ele><time>2015-05-01T09:09:43.0000000+00:00</time></trkpt><trkpt lat="34.8366581" lon="33.5521671"><ele>22.0</ele><time>2015-05-01T09:09:44.0000000+00:00</time></trkpt><trkpt lat="34.8366259" lon="33.552123"><ele>22.5</ele><time>2015-05-01T09:09:45.0000000+00:00</time></trkpt><trkpt lat="34.8365954" lon="33.5520824"><ele>22.8</ele><time>2015-05-01T09:09:46.0000000+00:00</time></trkpt><trkpt lat="34.8365328" lon="33.5520022"><ele>22.2</ele><time>2015-05-01T09:09:48.0000000+00:00</time></trkpt><trkpt lat="34.8364682" lon="33.5519174"><ele>22.1</ele><time>2015-05-01T09:09:50.0000000+00:00</time></trkpt><trkpt lat="34.8364364" lon="33.5518762"><ele>22.0</ele><time>2015-05-01T09:09:51.0000000+00:00</time></trkpt><trkpt lat="34.8364042" lon="33.5518291"><ele>22.0</ele><time>2015-05-01T09:09:52.0000000+00:00</time></trkpt><trkpt lat="34.836372" lon="33.5517856"><ele>22.0</ele><time>2015-05-01T09:09:53.0000000+00:00</time></trkpt><trkpt lat="34.8363377" lon="33.5517425"><ele>21.5</ele><time>2015-05-01T09:09:54.0000000+00:00</time></trkpt><trkpt lat="34.8362994" lon="33.5516978"><ele>21.3</ele><time>2015-05-01T09:09:55.0000000+00:00</time></trkpt><trkpt lat="34.8362637" lon="33.551651"><ele>21.1</ele><time>2015-05-01T09:09:56.0000000+00:00</time></trkpt><trkpt lat="34.8362297" lon="33.5516004"><ele>21.1</ele><time>2015-05-01T09:09:57.0000000+00:00</time></trkpt><trkpt lat="34.8361884" lon="33.5515506"><ele>21.1</ele><time>2015-05-01T09:09:58.0000000+00:00</time></trkpt><trkpt lat="34.8361542" lon="33.5515124"><ele>21.0</ele><time>2015-05-01T09:09:59.0000000+00:00</time></trkpt><trkpt lat="34.8361171" lon="33.5514653"><ele>21.0</ele><time>2015-05-01T09:10:00.0000000+00:00</time></trkpt><trkpt lat="34.8360886" lon="33.5514188"><ele>21.0</ele><time>2015-05-01T09:10:01.0000000+00:00</time></trkpt><trkpt lat="34.8360533" lon="33.551372"><ele>21.0</ele><time>2015-05-01T09:10:02.0000000+00:00</time></trkpt><trkpt lat="34.8360154" lon="33.551329"><ele>21.0</ele><time>2015-05-01T09:10:03.0000000+00:00</time></trkpt><trkpt lat="34.8359779" lon="33.5512774"><ele>21.0</ele><time>2015-05-01T09:10:04.0000000+00:00</time></trkpt><trkpt lat="34.8359382" lon="33.5512248"><ele>21.0</ele><time>2015-05-01T09:10:05.0000000+00:00</time></trkpt><trkpt lat="34.8358983" lon="33.5511752"><ele>21.0</ele><time>2015-05-01T09:10:06.0000000+00:00</time></trkpt><trkpt lat="34.8358604" lon="33.5511264"><ele>21.0</ele><time>2015-05-01T09:10:07.0000000+00:00</time></trkpt><trkpt lat="34.8358213" lon="33.5510734"><ele>21.0</ele><time>2015-05-01T09:10:08.0000000+00:00</time></trkpt><trkpt lat="34.8357834" lon="33.5510234"><ele>21.0</ele><time>2015-05-01T09:10:09.0000000+00:00</time></trkpt><trkpt lat="34.8357427" lon="33.5509706"><ele>21.0</ele><time>2015-05-01T09:10:10.0000000+00:00</time></trkpt><trkpt lat="34.8357061" lon="33.550922"><ele>21.0</ele><time>2015-05-01T09:10:11.0000000+00:00</time></trkpt><trkpt lat="34.8356674" lon="33.5508736"><ele>21.0</ele><time>2015-05-01T09:10:12.0000000+00:00</time></trkpt><trkpt lat="34.8356308" lon="33.5508256"><ele>21.0</ele><time>2015-05-01T09:10:13.0000000+00:00</time></trkpt><trkpt lat="34.8355987" lon="33.5507807"><ele>21.0</ele><time>2015-05-01T09:10:14.0000000+00:00</time></trkpt><trkpt lat="34.8355556" lon="33.5507287"><ele>21.0</ele><time>2015-05-01T09:10:15.0000000+00:00</time></trkpt><trkpt lat="34.8355181" lon="33.5506795"><ele>21.0</ele><time>2015-05-01T09:10:16.0000000+00:00</time></trkpt><trkpt lat="34.835489" lon="33.5506324"><ele>21.0</ele><time>2015-05-01T09:10:17.0000000+00:00</time></trkpt><trkpt lat="34.835452" lon="33.5505836"><ele>21.0</ele><time>2015-05-01T09:10:18.0000000+00:00</time></trkpt><trkpt lat="34.8354184" lon="33.5505404"><ele>21.0</ele><time>2015-05-01T09:10:19.0000000+00:00</time></trkpt><trkpt lat="34.8353844" lon="33.5504994"><ele>21.0</ele><time>2015-05-01T09:10:20.0000000+00:00</time></trkpt><trkpt lat="34.8353562" lon="33.5504553"><ele>21.0</ele><time>2015-05-01T09:10:21.0000000+00:00</time></trkpt><trkpt lat="34.835325" lon="33.5504155"><ele>21.0</ele><time>2015-05-01T09:10:22.0000000+00:00</time></trkpt><trkpt lat="34.8352912" lon="33.5503714"><ele>21.0</ele><time>2015-05-01T09:10:23.0000000+00:00</time></trkpt><trkpt lat="34.8352468" lon="33.5503201"><ele>20.5</ele><time>2015-05-01T09:10:24.0000000+00:00</time></trkpt><trkpt lat="34.8352111" lon="33.5502719"><ele>20.3</ele><time>2015-05-01T09:10:25.0000000+00:00</time></trkpt><trkpt lat="34.8351707" lon="33.5502218"><ele>20.1</ele><time>2015-05-01T09:10:26.0000000+00:00</time></trkpt><trkpt lat="34.835133" lon="33.5501723"><ele>20.1</ele><time>2015-05-01T09:10:27.0000000+00:00</time></trkpt><trkpt lat="34.8350987" lon="33.5501194"><ele>20.1</ele><time>2015-05-01T09:10:28.0000000+00:00</time></trkpt><trkpt lat="34.8350591" lon="33.5500677"><ele>19.5</ele><time>2015-05-01T09:10:29.0000000+00:00</time></trkpt><trkpt lat="34.8350205" lon="33.5500156"><ele>19.8</ele><time>2015-05-01T09:10:30.0000000+00:00</time></trkpt><trkpt lat="34.8349818" lon="33.5499704"><ele>19.9</ele><time>2015-05-01T09:10:31.0000000+00:00</time></trkpt><trkpt lat="34.8349431" lon="33.5499186"><ele>19.5</ele><time>2015-05-01T09:10:32.0000000+00:00</time></trkpt><trkpt lat="34.834904" lon="33.5498673"><ele>19.2</ele><time>2015-05-01T09:10:33.0000000+00:00</time></trkpt><trkpt lat="34.8348666" lon="33.5498185"><ele>19.1</ele><time>2015-05-01T09:10:34.0000000+00:00</time></trkpt><trkpt lat="34.8348336" lon="33.5497667"><ele>19.1</ele><time>2015-05-01T09:10:35.0000000+00:00</time></trkpt><trkpt lat="34.8347923" lon="33.5497107"><ele>19.0</ele><time>2015-05-01T09:10:36.0000000+00:00</time></trkpt><trkpt lat="34.8347532" lon="33.5496604"><ele>19.0</ele><time>2015-05-01T09:10:37.0000000+00:00</time></trkpt><trkpt lat="34.8347219" lon="33.5496074"><ele>19.0</ele><time>2015-05-01T09:10:38.0000000+00:00</time></trkpt><trkpt lat="34.834684" lon="33.5495562"><ele>19.0</ele><time>2015-05-01T09:10:39.0000000+00:00</time></trkpt><trkpt lat="34.8346386" lon="33.549506"><ele>19.0</ele><time>2015-05-01T09:10:40.0000000+00:00</time></trkpt><trkpt lat="34.8346" lon="33.5494542"><ele>19.0</ele><time>2015-05-01T09:10:41.0000000+00:00</time></trkpt><trkpt lat="34.8345588" lon="33.549404"><ele>19.0</ele><time>2015-05-01T09:10:42.0000000+00:00</time></trkpt><trkpt lat="34.8345198" lon="33.5493522"><ele>18.5</ele><time>2015-05-01T09:10:43.0000000+00:00</time></trkpt><trkpt lat="34.8344814" lon="33.5492888"><ele>18.3</ele><time>2015-05-01T09:10:44.0000000+00:00</time></trkpt><trkpt lat="34.8344461" lon="33.5492382"><ele>18.1</ele><time>2015-05-01T09:10:45.0000000+00:00</time></trkpt><trkpt lat="34.834411" lon="33.5491889"><ele>18.1</ele><time>2015-05-01T09:10:46.0000000+00:00</time></trkpt><trkpt lat="34.8343818" lon="33.5491462"><ele>18.1</ele><time>2015-05-01T09:10:47.0000000+00:00</time></trkpt><trkpt lat="34.8343464" lon="33.5490968"><ele>18.0</ele><time>2015-05-01T09:10:48.0000000+00:00</time></trkpt><trkpt lat="34.8342984" lon="33.5490425"><ele>17.5</ele><time>2015-05-01T09:10:49.0000000+00:00</time></trkpt><trkpt lat="34.8342594" lon="33.5489957"><ele>17.3</ele><time>2015-05-01T09:10:50.0000000+00:00</time></trkpt><trkpt lat="34.8342289" lon="33.5489452"><ele>17.1</ele><time>2015-05-01T09:10:51.0000000+00:00</time></trkpt><trkpt lat="34.8341881" lon="33.548892"><ele>17.6</ele><time>2015-05-01T09:10:52.0000000+00:00</time></trkpt><trkpt lat="34.8341482" lon="33.5488433"><ele>17.3</ele><time>2015-05-01T09:10:53.0000000+00:00</time></trkpt><trkpt lat="34.8341116" lon="33.5487995"><ele>17.7</ele><time>2015-05-01T09:10:54.0000000+00:00</time></trkpt><trkpt lat="34.834074" lon="33.5487524"><ele>17.8</ele><time>2015-05-01T09:10:55.0000000+00:00</time></trkpt><trkpt lat="34.8340423" lon="33.5487009"><ele>18.4</ele><time>2015-05-01T09:10:56.0000000+00:00</time></trkpt><trkpt lat="34.8340061" lon="33.5486538"><ele>18.2</ele><time>2015-05-01T09:10:57.0000000+00:00</time></trkpt><trkpt lat="34.8339698" lon="33.5486063"><ele>18.1</ele><time>2015-05-01T09:10:58.0000000+00:00</time></trkpt><trkpt lat="34.8339338" lon="33.5485566"><ele>18.6</ele><time>2015-05-01T09:10:59.0000000+00:00</time></trkpt><trkpt lat="34.8338992" lon="33.5485135"><ele>18.8</ele><time>2015-05-01T09:11:00.0000000+00:00</time></trkpt><trkpt lat="34.8338732" lon="33.5484612"><ele>18.9</ele><time>2015-05-01T09:11:01.0000000+00:00</time></trkpt><trkpt lat="34.8338173" lon="33.548391"><ele>18.2</ele><time>2015-05-01T09:11:03.0000000+00:00</time></trkpt><trkpt lat="34.833759" lon="33.5483179"><ele>18.1</ele><time>2015-05-01T09:11:05.0000000+00:00</time></trkpt><trkpt lat="34.8337045" lon="33.5482448"><ele>18.5</ele><time>2015-05-01T09:11:07.0000000+00:00</time></trkpt><trkpt lat="34.8336371" lon="33.5481695"><ele>18.9</ele><time>2015-05-01T09:11:09.0000000+00:00</time></trkpt><trkpt lat="34.833608" lon="33.5481231"><ele>18.5</ele><time>2015-05-01T09:11:10.0000000+00:00</time></trkpt><trkpt lat="34.833577" lon="33.5480786"><ele>18.2</ele><time>2015-05-01T09:11:11.0000000+00:00</time></trkpt><trkpt lat="34.8335395" lon="33.5480232"><ele>18.6</ele><time>2015-05-01T09:11:12.0000000+00:00</time></trkpt><trkpt lat="34.8335058" lon="33.5479782"><ele>18.3</ele><time>2015-05-01T09:11:13.0000000+00:00</time></trkpt><trkpt lat="34.8334678" lon="33.5479281"><ele>18.7</ele><time>2015-05-01T09:11:14.0000000+00:00</time></trkpt><trkpt lat="34.8334308" lon="33.5478865"><ele>18.3</ele><time>2015-05-01T09:11:15.0000000+00:00</time></trkpt><trkpt lat="34.8333973" lon="33.5478371"><ele>18.2</ele><time>2015-05-01T09:11:16.0000000+00:00</time></trkpt><trkpt lat="34.8333678" lon="33.5477945"><ele>18.1</ele><time>2015-05-01T09:11:17.0000000+00:00</time></trkpt><trkpt lat="34.833336" lon="33.5477507"><ele>18.1</ele><time>2015-05-01T09:11:18.0000000+00:00</time></trkpt><trkpt lat="34.8332732" lon="33.5476767"><ele>18.8</ele><time>2015-05-01T09:11:20.0000000+00:00</time></trkpt><trkpt lat="34.8332173" lon="33.5476004"><ele>19.0</ele><time>2015-05-01T09:11:22.0000000+00:00</time></trkpt><trkpt lat="34.8331882" lon="33.547557"><ele>19.0</ele><time>2015-05-01T09:11:23.0000000+00:00</time></trkpt><trkpt lat="34.8331542" lon="33.5475074"><ele>18.5</ele><time>2015-05-01T09:11:24.0000000+00:00</time></trkpt><trkpt lat="34.8331162" lon="33.5474587"><ele>18.8</ele><time>2015-05-01T09:11:25.0000000+00:00</time></trkpt><trkpt lat="34.833084" lon="33.5474049"><ele>18.9</ele><time>2015-05-01T09:11:26.0000000+00:00</time></trkpt><trkpt lat="34.8330536" lon="33.547358"><ele>19.0</ele><time>2015-05-01T09:11:27.0000000+00:00</time></trkpt><trkpt lat="34.8330177" lon="33.5473169"><ele>19.0</ele><time>2015-05-01T09:11:28.0000000+00:00</time></trkpt><trkpt lat="34.8329842" lon="33.5472777"><ele>19.0</ele><time>2015-05-01T09:11:29.0000000+00:00</time></trkpt><trkpt lat="34.8329566" lon="33.5472341"><ele>19.0</ele><time>2015-05-01T09:11:30.0000000+00:00</time></trkpt><trkpt lat="34.8329206" lon="33.5471877"><ele>19.0</ele><time>2015-05-01T09:11:31.0000000+00:00</time></trkpt><trkpt lat="34.8328846" lon="33.5471374"><ele>19.5</ele><time>2015-05-01T09:11:32.0000000+00:00</time></trkpt><trkpt lat="34.832847" lon="33.5470964"><ele>19.3</ele><time>2015-05-01T09:11:33.0000000+00:00</time></trkpt><trkpt lat="34.8328118" lon="33.5470516"><ele>19.1</ele><time>2015-05-01T09:11:34.0000000+00:00</time></trkpt><trkpt lat="34.832779" lon="33.5469968"><ele>18.6</ele><time>2015-05-01T09:11:35.0000000+00:00</time></trkpt><trkpt lat="34.8327436" lon="33.5469513"><ele>18.3</ele><time>2015-05-01T09:11:36.0000000+00:00</time></trkpt><trkpt lat="34.832709" lon="33.5469041"><ele>18.2</ele><time>2015-05-01T09:11:37.0000000+00:00</time></trkpt><trkpt lat="34.8326679" lon="33.546861"><ele>18.1</ele><time>2015-05-01T09:11:38.0000000+00:00</time></trkpt><trkpt lat="34.8326336" lon="33.5468145"><ele>18.6</ele><time>2015-05-01T09:11:39.0000000+00:00</time></trkpt><trkpt lat="34.8325963" lon="33.546761"><ele>18.3</ele><time>2015-05-01T09:11:40.0000000+00:00</time></trkpt><trkpt lat="34.8325583" lon="33.5467108"><ele>18.2</ele><time>2015-05-01T09:11:41.0000000+00:00</time></trkpt><trkpt lat="34.8325216" lon="33.5466629"><ele>18.1</ele><time>2015-05-01T09:11:42.0000000+00:00</time></trkpt><trkpt lat="34.8324879" lon="33.5466228"><ele>18.6</ele><time>2015-05-01T09:11:43.0000000+00:00</time></trkpt><trkpt lat="34.8324458" lon="33.5465771"><ele>18.8</ele><time>2015-05-01T09:11:44.0000000+00:00</time></trkpt><trkpt lat="34.8323932" lon="33.5464991"><ele>18.2</ele><time>2015-05-01T09:11:46.0000000+00:00</time></trkpt><trkpt lat="34.8323296" lon="33.5464212"><ele>18.1</ele><time>2015-05-01T09:11:48.0000000+00:00</time></trkpt><trkpt lat="34.8322717" lon="33.5463371"><ele>17.3</ele><time>2015-05-01T09:11:50.0000000+00:00</time></trkpt><trkpt lat="34.8322067" lon="33.5462537"><ele>17.1</ele><time>2015-05-01T09:11:52.0000000+00:00</time></trkpt><trkpt lat="34.8321506" lon="33.5461704"><ele>17.0</ele><time>2015-05-01T09:11:54.0000000+00:00</time></trkpt><trkpt lat="34.8320947" lon="33.5461"><ele>17.5</ele><time>2015-05-01T09:11:56.0000000+00:00</time></trkpt><trkpt lat="34.8320488" lon="33.546022"><ele>17.1</ele><time>2015-05-01T09:11:58.0000000+00:00</time></trkpt><trkpt lat="34.8319946" lon="33.5459386"><ele>17.1</ele><time>2015-05-01T09:12:00.0000000+00:00</time></trkpt><trkpt lat="34.8319627" lon="33.5458991"><ele>16.5</ele><time>2015-05-01T09:12:01.0000000+00:00</time></trkpt><trkpt lat="34.8319048" lon="33.545821"><ele>16.4</ele><time>2015-05-01T09:12:03.0000000+00:00</time></trkpt><trkpt lat="34.8318752" lon="33.5457795"><ele>16.2</ele><time>2015-05-01T09:12:04.0000000+00:00</time></trkpt><trkpt lat="34.8318429" lon="33.5457369"><ele>16.1</ele><time>2015-05-01T09:12:05.0000000+00:00</time></trkpt><trkpt lat="34.8318044" lon="33.545695"><ele>15.6</ele><time>2015-05-01T09:12:06.0000000+00:00</time></trkpt><trkpt lat="34.8317404" lon="33.5456112"><ele>15.2</ele><time>2015-05-01T09:12:08.0000000+00:00</time></trkpt><trkpt lat="34.8317074" lon="33.5455683"><ele>15.1</ele><time>2015-05-01T09:12:09.0000000+00:00</time></trkpt><trkpt lat="34.831675" lon="33.5455257"><ele>15.1</ele><time>2015-05-01T09:12:10.0000000+00:00</time></trkpt><trkpt lat="34.8316478" lon="33.5454807"><ele>15.0</ele><time>2015-05-01T09:12:11.0000000+00:00</time></trkpt><trkpt lat="34.8316108" lon="33.5454429"><ele>15.0</ele><time>2015-05-01T09:12:12.0000000+00:00</time></trkpt><trkpt lat="34.8315786" lon="33.5453938"><ele>15.0</ele><time>2015-05-01T09:12:13.0000000+00:00</time></trkpt><trkpt lat="34.8315187" lon="33.5453102"><ele>15.0</ele><time>2015-05-01T09:12:15.0000000+00:00</time></trkpt><trkpt lat="34.8314607" lon="33.5452364"><ele>15.8</ele><time>2015-05-01T09:12:17.0000000+00:00</time></trkpt><trkpt lat="34.8314141" lon="33.5451722"><ele>16.0</ele><time>2015-05-01T09:12:19.0000000+00:00</time></trkpt><trkpt lat="34.8313672" lon="33.5451092"><ele>15.5</ele><time>2015-05-01T09:12:21.0000000+00:00</time></trkpt><trkpt lat="34.8313186" lon="33.5450454"><ele>15.1</ele><time>2015-05-01T09:12:23.0000000+00:00</time></trkpt><trkpt lat="34.8312729" lon="33.5449755"><ele>14.6</ele><time>2015-05-01T09:12:25.0000000+00:00</time></trkpt><trkpt lat="34.8312284" lon="33.5449114"><ele>14.2</ele><time>2015-05-01T09:12:27.0000000+00:00</time></trkpt><trkpt lat="34.8311837" lon="33.5448506"><ele>14.1</ele><time>2015-05-01T09:12:29.0000000+00:00</time></trkpt><trkpt lat="34.8311443" lon="33.5447918"><ele>14.8</ele><time>2015-05-01T09:12:31.0000000+00:00</time></trkpt><trkpt lat="34.8310961" lon="33.5447361"><ele>15.0</ele><time>2015-05-01T09:12:33.0000000+00:00</time></trkpt><trkpt lat="34.8310399" lon="33.5446757"><ele>15.0</ele><time>2015-05-01T09:12:35.0000000+00:00</time></trkpt><trkpt lat="34.8309813" lon="33.5445988"><ele>15.0</ele><time>2015-05-01T09:12:37.0000000+00:00</time></trkpt><trkpt lat="34.8309196" lon="33.5445137"><ele>15.0</ele><time>2015-05-01T09:12:39.0000000+00:00</time></trkpt><trkpt lat="34.8308877" lon="33.5444702"><ele>15.0</ele><time>2015-05-01T09:12:40.0000000+00:00</time></trkpt><trkpt lat="34.8308506" lon="33.544422"><ele>15.0</ele><time>2015-05-01T09:12:41.0000000+00:00</time></trkpt><trkpt lat="34.8308168" lon="33.5443793"><ele>15.0</ele><time>2015-05-01T09:12:42.0000000+00:00</time></trkpt><trkpt lat="34.8307765" lon="33.5443318"><ele>14.5</ele><time>2015-05-01T09:12:43.0000000+00:00</time></trkpt><trkpt lat="34.8307414" lon="33.5442853"><ele>14.3</ele><time>2015-05-01T09:12:44.0000000+00:00</time></trkpt><trkpt lat="34.8307058" lon="33.5442381"><ele>14.6</ele><time>2015-05-01T09:12:45.0000000+00:00</time></trkpt><trkpt lat="34.8306754" lon="33.5441933"><ele>14.8</ele><time>2015-05-01T09:12:46.0000000+00:00</time></trkpt><trkpt lat="34.8306435" lon="33.5441476"><ele>14.9</ele><time>2015-05-01T09:12:47.0000000+00:00</time></trkpt><trkpt lat="34.8306154" lon="33.544098"><ele>15.0</ele><time>2015-05-01T09:12:48.0000000+00:00</time></trkpt><trkpt lat="34.8305809" lon="33.5440544"><ele>15.0</ele><time>2015-05-01T09:12:49.0000000+00:00</time></trkpt><trkpt lat="34.8305517" lon="33.5440087"><ele>15.0</ele><time>2015-05-01T09:12:50.0000000+00:00</time></trkpt><trkpt lat="34.8304958" lon="33.5439319"><ele>15.0</ele><time>2015-05-01T09:12:52.0000000+00:00</time></trkpt><trkpt lat="34.8304429" lon="33.5438519"><ele>15.0</ele><time>2015-05-01T09:12:54.0000000+00:00</time></trkpt><trkpt lat="34.8303902" lon="33.5437884"><ele>15.0</ele><time>2015-05-01T09:12:56.0000000+00:00</time></trkpt><trkpt lat="34.8303393" lon="33.543714"><ele>15.8</ele><time>2015-05-01T09:12:58.0000000+00:00</time></trkpt><trkpt lat="34.830276" lon="33.5436343"><ele>15.5</ele><time>2015-05-01T09:13:00.0000000+00:00</time></trkpt><trkpt lat="34.8302446" lon="33.543593"><ele>15.2</ele><time>2015-05-01T09:13:01.0000000+00:00</time></trkpt><trkpt lat="34.8301828" lon="33.5435127"><ele>15.1</ele><time>2015-05-01T09:13:03.0000000+00:00</time></trkpt><trkpt lat="34.8301467" lon="33.5434712"><ele>15.0</ele><time>2015-05-01T09:13:04.0000000+00:00</time></trkpt><trkpt lat="34.8301139" lon="33.5434322"><ele>15.0</ele><time>2015-05-01T09:13:05.0000000+00:00</time></trkpt><trkpt lat="34.830079" lon="33.543389"><ele>15.0</ele><time>2015-05-01T09:13:06.0000000+00:00</time></trkpt><trkpt lat="34.8300169" lon="33.5432983"><ele>15.0</ele><time>2015-05-01T09:13:08.0000000+00:00</time></trkpt><trkpt lat="34.8299851" lon="33.5432584"><ele>15.5</ele><time>2015-05-01T09:13:09.0000000+00:00</time></trkpt><trkpt lat="34.8299522" lon="33.5432143"><ele>15.8</ele><time>2015-05-01T09:13:10.0000000+00:00</time></trkpt><trkpt lat="34.8298899" lon="33.5431369"><ele>16.0</ele><time>2015-05-01T09:13:12.0000000+00:00</time></trkpt><trkpt lat="34.8298569" lon="33.543095"><ele>16.0</ele><time>2015-05-01T09:13:13.0000000+00:00</time></trkpt><trkpt lat="34.8298267" lon="33.5430538"><ele>16.0</ele><time>2015-05-01T09:13:14.0000000+00:00</time></trkpt><trkpt lat="34.8297946" lon="33.5430098"><ele>16.0</ele><time>2015-05-01T09:13:15.0000000+00:00</time></trkpt><trkpt lat="34.8297616" lon="33.5429625"><ele>16.0</ele><time>2015-05-01T09:13:16.0000000+00:00</time></trkpt><trkpt lat="34.8297318" lon="33.542916"><ele>15.5</ele><time>2015-05-01T09:13:17.0000000+00:00</time></trkpt><trkpt lat="34.829697" lon="33.5428677"><ele>15.3</ele><time>2015-05-01T09:13:18.0000000+00:00</time></trkpt><trkpt lat="34.8296616" lon="33.5428259"><ele>15.1</ele><time>2015-05-01T09:13:19.0000000+00:00</time></trkpt><trkpt lat="34.8296275" lon="33.5427772"><ele>15.1</ele><time>2015-05-01T09:13:20.0000000+00:00</time></trkpt><trkpt lat="34.8295938" lon="33.5427369"><ele>15.1</ele><time>2015-05-01T09:13:21.0000000+00:00</time></trkpt><trkpt lat="34.829537" lon="33.5426634"><ele>15.0</ele><time>2015-05-01T09:13:23.0000000+00:00</time></trkpt><trkpt lat="34.8294783" lon="33.542582"><ele>15.0</ele><time>2015-05-01T09:13:25.0000000+00:00</time></trkpt><trkpt lat="34.8294169" lon="33.5425109"><ele>15.5</ele><time>2015-05-01T09:13:27.0000000+00:00</time></trkpt><trkpt lat="34.8293857" lon="33.5424703"><ele>15.8</ele><time>2015-05-01T09:13:28.0000000+00:00</time></trkpt><trkpt lat="34.8293274" lon="33.5423883"><ele>16.0</ele><time>2015-05-01T09:13:30.0000000+00:00</time></trkpt><trkpt lat="34.8293016" lon="33.5423416"><ele>16.0</ele><time>2015-05-01T09:13:31.0000000+00:00</time></trkpt><trkpt lat="34.8292699" lon="33.5422987"><ele>16.0</ele><time>2015-05-01T09:13:32.0000000+00:00</time></trkpt><trkpt lat="34.8292403" lon="33.5422563"><ele>16.5</ele><time>2015-05-01T09:13:33.0000000+00:00</time></trkpt><trkpt lat="34.8292083" lon="33.542215"><ele>16.8</ele><time>2015-05-01T09:13:34.0000000+00:00</time></trkpt><trkpt lat="34.829149" lon="33.5421365"><ele>17.0</ele><time>2015-05-01T09:13:36.0000000+00:00</time></trkpt><trkpt lat="34.8291188" lon="33.5420958"><ele>17.0</ele><time>2015-05-01T09:13:37.0000000+00:00</time></trkpt><trkpt lat="34.8290897" lon="33.542051"><ele>17.0</ele><time>2015-05-01T09:13:38.0000000+00:00</time></trkpt><trkpt lat="34.8290603" lon="33.5420084"><ele>17.0</ele><time>2015-05-01T09:13:39.0000000+00:00</time></trkpt><trkpt lat="34.8289972" lon="33.5419307"><ele>17.0</ele><time>2015-05-01T09:13:41.0000000+00:00</time></trkpt><trkpt lat="34.8289658" lon="33.5418891"><ele>17.0</ele><time>2015-05-01T09:13:42.0000000+00:00</time></trkpt><trkpt lat="34.8289029" lon="33.5418041"><ele>17.0</ele><time>2015-05-01T09:13:44.0000000+00:00</time></trkpt><trkpt lat="34.8288659" lon="33.541759"><ele>17.0</ele><time>2015-05-01T09:13:45.0000000+00:00</time></trkpt><trkpt lat="34.8288307" lon="33.5417131"><ele>17.0</ele><time>2015-05-01T09:13:46.0000000+00:00</time></trkpt><trkpt lat="34.8287978" lon="33.5416678"><ele>17.0</ele><time>2015-05-01T09:13:47.0000000+00:00</time></trkpt><trkpt lat="34.8287637" lon="33.541621"><ele>17.0</ele><time>2015-05-01T09:13:48.0000000+00:00</time></trkpt><trkpt lat="34.8287246" lon="33.5415702"><ele>17.0</ele><time>2015-05-01T09:13:49.0000000+00:00</time></trkpt><trkpt lat="34.8286893" lon="33.5415255"><ele>17.0</ele><time>2015-05-01T09:13:50.0000000+00:00</time></trkpt><trkpt lat="34.8286581" lon="33.5414807"><ele>17.0</ele><time>2015-05-01T09:13:51.0000000+00:00</time></trkpt><trkpt lat="34.8286258" lon="33.5414321"><ele>17.0</ele><time>2015-05-01T09:13:52.0000000+00:00</time></trkpt><trkpt lat="34.8285915" lon="33.5413882"><ele>17.0</ele><time>2015-05-01T09:13:53.0000000+00:00</time></trkpt><trkpt lat="34.8285363" lon="33.5413183"><ele>16.5</ele><time>2015-05-01T09:13:55.0000000+00:00</time></trkpt><trkpt lat="34.8284842" lon="33.5412433"><ele>16.6</ele><time>2015-05-01T09:13:57.0000000+00:00</time></trkpt><trkpt lat="34.828441" lon="33.5411781"><ele>16.9</ele><time>2015-05-01T09:13:59.0000000+00:00</time></trkpt><trkpt lat="34.828405" lon="33.54112"><ele>17.0</ele><time>2015-05-01T09:14:01.0000000+00:00</time></trkpt><trkpt lat="34.828367" lon="33.5410627"><ele>17.0</ele><time>2015-05-01T09:14:03.0000000+00:00</time></trkpt><trkpt lat="34.8283178" lon="33.5410001"><ele>17.0</ele><time>2015-05-01T09:14:05.0000000+00:00</time></trkpt><trkpt lat="34.8282632" lon="33.5409316"><ele>17.0</ele><time>2015-05-01T09:14:07.0000000+00:00</time></trkpt><trkpt lat="34.8282051" lon="33.5408552"><ele>17.0</ele><time>2015-05-01T09:14:09.0000000+00:00</time></trkpt><trkpt lat="34.8281512" lon="33.5407773"><ele>17.0</ele><time>2015-05-01T09:14:11.0000000+00:00</time></trkpt><trkpt lat="34.8280933" lon="33.540697"><ele>17.0</ele><time>2015-05-01T09:14:13.0000000+00:00</time></trkpt><trkpt lat="34.8280584" lon="33.5406484"><ele>17.0</ele><time>2015-05-01T09:14:14.0000000+00:00</time></trkpt><trkpt lat="34.8279952" lon="33.5405642"><ele>17.0</ele><time>2015-05-01T09:14:16.0000000+00:00</time></trkpt><trkpt lat="34.8279636" lon="33.5405236"><ele>17.0</ele><time>2015-05-01T09:14:17.0000000+00:00</time></trkpt><trkpt lat="34.8279323" lon="33.5404802"><ele>17.0</ele><time>2015-05-01T09:14:18.0000000+00:00</time></trkpt><trkpt lat="34.827896" lon="33.5404416"><ele>17.5</ele><time>2015-05-01T09:14:19.0000000+00:00</time></trkpt><trkpt lat="34.8278622" lon="33.540398"><ele>17.8</ele><time>2015-05-01T09:14:20.0000000+00:00</time></trkpt><trkpt lat="34.8278284" lon="33.5403512"><ele>17.4</ele><time>2015-05-01T09:14:21.0000000+00:00</time></trkpt><trkpt lat="34.8277919" lon="33.5403073"><ele>17.2</ele><time>2015-05-01T09:14:22.0000000+00:00</time></trkpt><trkpt lat="34.8277628" lon="33.5402586"><ele>17.1</ele><time>2015-05-01T09:14:23.0000000+00:00</time></trkpt><trkpt lat="34.8277268" lon="33.5402104"><ele>17.1</ele><time>2015-05-01T09:14:24.0000000+00:00</time></trkpt><trkpt lat="34.8276942" lon="33.5401637"><ele>17.0</ele><time>2015-05-01T09:14:25.0000000+00:00</time></trkpt><trkpt lat="34.8276601" lon="33.5401182"><ele>17.0</ele><time>2015-05-01T09:14:26.0000000+00:00</time></trkpt><trkpt lat="34.8276324" lon="33.5400731"><ele>17.0</ele><time>2015-05-01T09:14:27.0000000+00:00</time></trkpt><trkpt lat="34.8275992" lon="33.5400322"><ele>17.0</ele><time>2015-05-01T09:14:28.0000000+00:00</time></trkpt><trkpt lat="34.8275599" lon="33.539995"><ele>16.5</ele><time>2015-05-01T09:14:29.0000000+00:00</time></trkpt><trkpt lat="34.8275021" lon="33.5399128"><ele>16.6</ele><time>2015-05-01T09:14:31.0000000+00:00</time></trkpt><trkpt lat="34.8274688" lon="33.5398676"><ele>16.8</ele><time>2015-05-01T09:14:32.0000000+00:00</time></trkpt><trkpt lat="34.8274357" lon="33.5398237"><ele>16.9</ele><time>2015-05-01T09:14:33.0000000+00:00</time></trkpt><trkpt lat="34.8274048" lon="33.5397813"><ele>17.0</ele><time>2015-05-01T09:14:34.0000000+00:00</time></trkpt><trkpt lat="34.8273441" lon="33.5396997"><ele>16.5</ele><time>2015-05-01T09:14:36.0000000+00:00</time></trkpt><trkpt lat="34.8273106" lon="33.5396569"><ele>16.3</ele><time>2015-05-01T09:14:37.0000000+00:00</time></trkpt><trkpt lat="34.8272504" lon="33.5395799"><ele>16.6</ele><time>2015-05-01T09:14:39.0000000+00:00</time></trkpt><trkpt lat="34.8272181" lon="33.5395372"><ele>16.3</ele><time>2015-05-01T09:14:40.0000000+00:00</time></trkpt><trkpt lat="34.8271925" lon="33.5394912"><ele>16.2</ele><time>2015-05-01T09:14:41.0000000+00:00</time></trkpt><trkpt lat="34.8271589" lon="33.5394466"><ele>16.1</ele><time>2015-05-01T09:14:42.0000000+00:00</time></trkpt><trkpt lat="34.8271318" lon="33.5394021"><ele>16.1</ele><time>2015-05-01T09:14:43.0000000+00:00</time></trkpt><trkpt lat="34.8271" lon="33.5393576"><ele>16.0</ele><time>2015-05-01T09:14:44.0000000+00:00</time></trkpt><trkpt lat="34.8270637" lon="33.5393166"><ele>15.5</ele><time>2015-05-01T09:14:45.0000000+00:00</time></trkpt><trkpt lat="34.8270261" lon="33.5392768"><ele>15.8</ele><time>2015-05-01T09:14:46.0000000+00:00</time></trkpt><trkpt lat="34.8269968" lon="33.5392267"><ele>15.9</ele><time>2015-05-01T09:14:47.0000000+00:00</time></trkpt><trkpt lat="34.8269604" lon="33.5391815"><ele>16.0</ele><time>2015-05-01T09:14:48.0000000+00:00</time></trkpt><trkpt lat="34.826927" lon="33.5391378"><ele>16.0</ele><time>2015-05-01T09:14:49.0000000+00:00</time></trkpt><trkpt lat="34.8268917" lon="33.5390857"><ele>16.0</ele><time>2015-05-01T09:14:50.0000000+00:00</time></trkpt><trkpt lat="34.8268587" lon="33.5390423"><ele>16.0</ele><time>2015-05-01T09:14:51.0000000+00:00</time></trkpt><trkpt lat="34.8268245" lon="33.5389954"><ele>16.0</ele><time>2015-05-01T09:14:52.0000000+00:00</time></trkpt><trkpt lat="34.8267935" lon="33.538954"><ele>16.0</ele><time>2015-05-01T09:14:53.0000000+00:00</time></trkpt><trkpt lat="34.8267581" lon="33.5389094"><ele>16.0</ele><time>2015-05-01T09:14:54.0000000+00:00</time></trkpt><trkpt lat="34.826726" lon="33.5388568"><ele>16.0</ele><time>2015-05-01T09:14:55.0000000+00:00</time></trkpt><trkpt lat="34.8266878" lon="33.53881"><ele>15.5</ele><time>2015-05-01T09:14:56.0000000+00:00</time></trkpt><trkpt lat="34.826652" lon="33.5387639"><ele>15.3</ele><time>2015-05-01T09:14:57.0000000+00:00</time></trkpt><trkpt lat="34.826617" lon="33.5387167"><ele>15.1</ele><time>2015-05-01T09:14:58.0000000+00:00</time></trkpt><trkpt lat="34.8265846" lon="33.5386673"><ele>15.6</ele><time>2015-05-01T09:14:59.0000000+00:00</time></trkpt><trkpt lat="34.8265445" lon="33.5386158"><ele>15.3</ele><time>2015-05-01T09:15:00.0000000+00:00</time></trkpt><trkpt lat="34.826508" lon="33.5385692"><ele>15.2</ele><time>2015-05-01T09:15:01.0000000+00:00</time></trkpt><trkpt lat="34.8264726" lon="33.5385216"><ele>15.1</ele><time>2015-05-01T09:15:02.0000000+00:00</time></trkpt><trkpt lat="34.8264388" lon="33.5384749"><ele>15.1</ele><time>2015-05-01T09:15:03.0000000+00:00</time></trkpt><trkpt lat="34.8263997" lon="33.5384282"><ele>15.0</ele><time>2015-05-01T09:15:04.0000000+00:00</time></trkpt><trkpt lat="34.826362" lon="33.5383783"><ele>15.0</ele><time>2015-05-01T09:15:05.0000000+00:00</time></trkpt><trkpt lat="34.8263282" lon="33.5383299"><ele>15.0</ele><time>2015-05-01T09:15:06.0000000+00:00</time></trkpt><trkpt lat="34.8262948" lon="33.5382826"><ele>15.0</ele><time>2015-05-01T09:15:07.0000000+00:00</time></trkpt><trkpt lat="34.8262608" lon="33.5382312"><ele>15.0</ele><time>2015-05-01T09:15:08.0000000+00:00</time></trkpt><trkpt lat="34.8262283" lon="33.5381862"><ele>15.0</ele><time>2015-05-01T09:15:09.0000000+00:00</time></trkpt><trkpt lat="34.8261889" lon="33.5381385"><ele>15.0</ele><time>2015-05-01T09:15:10.0000000+00:00</time></trkpt><trkpt lat="34.8261577" lon="33.538092"><ele>15.0</ele><time>2015-05-01T09:15:11.0000000+00:00</time></trkpt><trkpt lat="34.8261225" lon="33.5380453"><ele>15.0</ele><time>2015-05-01T09:15:12.0000000+00:00</time></trkpt><trkpt lat="34.8260595" lon="33.5379608"><ele>15.0</ele><time>2015-05-01T09:15:14.0000000+00:00</time></trkpt><trkpt lat="34.826028" lon="33.5379185"><ele>15.0</ele><time>2015-05-01T09:15:15.0000000+00:00</time></trkpt><trkpt lat="34.8259918" lon="33.5378764"><ele>15.0</ele><time>2015-05-01T09:15:16.0000000+00:00</time></trkpt><trkpt lat="34.8259601" lon="33.5378354"><ele>15.0</ele><time>2015-05-01T09:15:17.0000000+00:00</time></trkpt><trkpt lat="34.8258983" lon="33.5377587"><ele>15.0</ele><time>2015-05-01T09:15:19.0000000+00:00</time></trkpt><trkpt lat="34.8258646" lon="33.5377178"><ele>15.5</ele><time>2015-05-01T09:15:20.0000000+00:00</time></trkpt><trkpt lat="34.825834" lon="33.537674"><ele>15.8</ele><time>2015-05-01T09:15:21.0000000+00:00</time></trkpt><trkpt lat="34.8258007" lon="33.5376334"><ele>15.9</ele><time>2015-05-01T09:15:22.0000000+00:00</time></trkpt><trkpt lat="34.8257724" lon="33.5375893"><ele>16.0</ele><time>2015-05-01T09:15:23.0000000+00:00</time></trkpt><trkpt lat="34.8257449" lon="33.5375359"><ele>16.0</ele><time>2015-05-01T09:15:24.0000000+00:00</time></trkpt><trkpt lat="34.825715" lon="33.5374946"><ele>15.5</ele><time>2015-05-01T09:15:25.0000000+00:00</time></trkpt><trkpt lat="34.8256832" lon="33.537454"><ele>15.3</ele><time>2015-05-01T09:15:26.0000000+00:00</time></trkpt><trkpt lat="34.82562" lon="33.537376"><ele>15.1</ele><time>2015-05-01T09:15:28.0000000+00:00</time></trkpt><trkpt lat="34.825588" lon="33.5373373"><ele>15.1</ele><time>2015-05-01T09:15:29.0000000+00:00</time></trkpt><trkpt lat="34.8255281" lon="33.5372616"><ele>15.0</ele><time>2015-05-01T09:15:31.0000000+00:00</time></trkpt><trkpt lat="34.8254983" lon="33.5372181"><ele>15.0</ele><time>2015-05-01T09:15:32.0000000+00:00</time></trkpt><trkpt lat="34.8254675" lon="33.5371769"><ele>15.5</ele><time>2015-05-01T09:15:33.0000000+00:00</time></trkpt><trkpt lat="34.8254133" lon="33.5371039"><ele>15.9</ele><time>2015-05-01T09:15:35.0000000+00:00</time></trkpt><trkpt lat="34.8253498" lon="33.5370274"><ele>16.0</ele><time>2015-05-01T09:15:37.0000000+00:00</time></trkpt><trkpt lat="34.8252977" lon="33.5369516"><ele>16.0</ele><time>2015-05-01T09:15:39.0000000+00:00</time></trkpt><trkpt lat="34.8252417" lon="33.5368678"><ele>16.0</ele><time>2015-05-01T09:15:41.0000000+00:00</time></trkpt><trkpt lat="34.8251853" lon="33.5367961"><ele>16.0</ele><time>2015-05-01T09:15:43.0000000+00:00</time></trkpt><trkpt lat="34.8251265" lon="33.5367203"><ele>16.0</ele><time>2015-05-01T09:15:45.0000000+00:00</time></trkpt><trkpt lat="34.82507" lon="33.5366467"><ele>16.0</ele><time>2015-05-01T09:15:47.0000000+00:00</time></trkpt><trkpt lat="34.825012" lon="33.5365737"><ele>16.0</ele><time>2015-05-01T09:15:49.0000000+00:00</time></trkpt><trkpt lat="34.8249596" lon="33.5365003"><ele>16.0</ele><time>2015-05-01T09:15:51.0000000+00:00</time></trkpt><trkpt lat="34.8249037" lon="33.5364256"><ele>16.5</ele><time>2015-05-01T09:15:53.0000000+00:00</time></trkpt><trkpt lat="34.8248529" lon="33.5363557"><ele>16.9</ele><time>2015-05-01T09:15:55.0000000+00:00</time></trkpt><trkpt lat="34.8248009" lon="33.5362846"><ele>17.7</ele><time>2015-05-01T09:15:57.0000000+00:00</time></trkpt><trkpt lat="34.8247497" lon="33.536217"><ele>18.0</ele><time>2015-05-01T09:15:59.0000000+00:00</time></trkpt><trkpt lat="34.8246967" lon="33.536148"><ele>17.5</ele><time>2015-05-01T09:16:01.0000000+00:00</time></trkpt><trkpt lat="34.8246442" lon="33.5360836"><ele>17.6</ele><time>2015-05-01T09:16:03.0000000+00:00</time></trkpt><trkpt lat="34.8245921" lon="33.5360141"><ele>17.9</ele><time>2015-05-01T09:16:05.0000000+00:00</time></trkpt><trkpt lat="34.8245397" lon="33.5359483"><ele>18.0</ele><time>2015-05-01T09:16:07.0000000+00:00</time></trkpt><trkpt lat="34.8244841" lon="33.5358783"><ele>18.0</ele><time>2015-05-01T09:16:09.0000000+00:00</time></trkpt><trkpt lat="34.8244338" lon="33.5358088"><ele>18.0</ele><time>2015-05-01T09:16:11.0000000+00:00</time></trkpt><trkpt lat="34.8243808" lon="33.5357403"><ele>18.5</ele><time>2015-05-01T09:16:13.0000000+00:00</time></trkpt><trkpt lat="34.8243307" lon="33.5356735"><ele>18.9</ele><time>2015-05-01T09:16:15.0000000+00:00</time></trkpt><trkpt lat="34.8242807" lon="33.535605"><ele>19.0</ele><time>2015-05-01T09:16:17.0000000+00:00</time></trkpt><trkpt lat="34.8242336" lon="33.5355402"><ele>19.8</ele><time>2015-05-01T09:16:19.0000000+00:00</time></trkpt><trkpt lat="34.8241882" lon="33.5354798"><ele>20.0</ele><time>2015-05-01T09:16:21.0000000+00:00</time></trkpt><trkpt lat="34.8241427" lon="33.5354203"><ele>20.0</ele><time>2015-05-01T09:16:23.0000000+00:00</time></trkpt><trkpt lat="34.8240945" lon="33.5353557"><ele>20.8</ele><time>2015-05-01T09:16:25.0000000+00:00</time></trkpt><trkpt lat="34.8240463" lon="33.5352916"><ele>21.0</ele><time>2015-05-01T09:16:27.0000000+00:00</time></trkpt><trkpt lat="34.8239962" lon="33.5352312"><ele>21.5</ele><time>2015-05-01T09:16:29.0000000+00:00</time></trkpt><trkpt lat="34.8239555" lon="33.5351794"><ele>21.9</ele><time>2015-05-01T09:16:31.0000000+00:00</time></trkpt><trkpt lat="34.8239115" lon="33.5351188"><ele>22.0</ele><time>2015-05-01T09:16:33.0000000+00:00</time></trkpt><trkpt lat="34.8238661" lon="33.5350596"><ele>22.0</ele><time>2015-05-01T09:16:35.0000000+00:00</time></trkpt><trkpt lat="34.8238194" lon="33.5349969"><ele>22.0</ele><time>2015-05-01T09:16:37.0000000+00:00</time></trkpt><trkpt lat="34.8237733" lon="33.5349328"><ele>22.0</ele><time>2015-05-01T09:16:39.0000000+00:00</time></trkpt><trkpt lat="34.8237234" lon="33.5348639"><ele>22.0</ele><time>2015-05-01T09:16:41.0000000+00:00</time></trkpt><trkpt lat="34.823673" lon="33.5348014"><ele>22.0</ele><time>2015-05-01T09:16:43.0000000+00:00</time></trkpt><trkpt lat="34.8236256" lon="33.5347379"><ele>22.3</ele><time>2015-05-01T09:16:45.0000000+00:00</time></trkpt><trkpt lat="34.8235797" lon="33.5346752"><ele>22.1</ele><time>2015-05-01T09:16:47.0000000+00:00</time></trkpt><trkpt lat="34.8235284" lon="33.5346048"><ele>22.0</ele><time>2015-05-01T09:16:49.0000000+00:00</time></trkpt><trkpt lat="34.8234761" lon="33.5345343"><ele>22.0</ele><time>2015-05-01T09:16:51.0000000+00:00</time></trkpt><trkpt lat="34.8234203" lon="33.5344624"><ele>22.0</ele><time>2015-05-01T09:16:53.0000000+00:00</time></trkpt><trkpt lat="34.8233674" lon="33.5343935"><ele>22.0</ele><time>2015-05-01T09:16:55.0000000+00:00</time></trkpt><trkpt lat="34.8233152" lon="33.5343205"><ele>22.0</ele><time>2015-05-01T09:16:57.0000000+00:00</time></trkpt><trkpt lat="34.8232682" lon="33.5342565"><ele>22.0</ele><time>2015-05-01T09:16:59.0000000+00:00</time></trkpt><trkpt lat="34.823222" lon="33.5342183"><ele>22.0</ele><time>2015-05-01T09:17:33.0000000+00:00</time></trkpt><trkpt lat="34.823183" lon="33.5341656"><ele>22.0</ele><time>2015-05-01T09:17:35.0000000+00:00</time></trkpt><trkpt lat="34.8231305" lon="33.534096"><ele>22.0</ele><time>2015-05-01T09:17:37.0000000+00:00</time></trkpt><trkpt lat="34.8230775" lon="33.5340191"><ele>21.5</ele><time>2015-05-01T09:17:39.0000000+00:00</time></trkpt><trkpt lat="34.823028" lon="33.5339385"><ele>21.9</ele><time>2015-05-01T09:17:41.0000000+00:00</time></trkpt><trkpt lat="34.8229744" lon="33.533865"><ele>22.0</ele><time>2015-05-01T09:17:43.0000000+00:00</time></trkpt><trkpt lat="34.8229161" lon="33.5337925"><ele>22.0</ele><time>2015-05-01T09:17:45.0000000+00:00</time></trkpt><trkpt lat="34.8228631" lon="33.5337201"><ele>22.5</ele><time>2015-05-01T09:17:47.0000000+00:00</time></trkpt><trkpt lat="34.8228066" lon="33.5336487"><ele>22.9</ele><time>2015-05-01T09:17:49.0000000+00:00</time></trkpt><trkpt lat="34.8227523" lon="33.5335794"><ele>23.0</ele><time>2015-05-01T09:17:51.0000000+00:00</time></trkpt><trkpt lat="34.8226982" lon="33.5335035"><ele>23.0</ele><time>2015-05-01T09:17:53.0000000+00:00</time></trkpt><trkpt lat="34.822642" lon="33.5334307"><ele>23.3</ele><time>2015-05-01T09:17:55.0000000+00:00</time></trkpt><trkpt lat="34.8225828" lon="33.5333558"><ele>23.1</ele><time>2015-05-01T09:17:57.0000000+00:00</time></trkpt><trkpt lat="34.8225275" lon="33.5332822"><ele>23.0</ele><time>2015-05-01T09:17:59.0000000+00:00</time></trkpt><trkpt lat="34.8224703" lon="33.5332047"><ele>23.0</ele><time>2015-05-01T09:18:01.0000000+00:00</time></trkpt><trkpt lat="34.8224153" lon="33.5331309"><ele>23.5</ele><time>2015-05-01T09:18:03.0000000+00:00</time></trkpt><trkpt lat="34.8223566" lon="33.5330602"><ele>23.9</ele><time>2015-05-01T09:18:05.0000000+00:00</time></trkpt><trkpt lat="34.8223023" lon="33.5329904"><ele>24.0</ele><time>2015-05-01T09:18:07.0000000+00:00</time></trkpt><trkpt lat="34.8222449" lon="33.5329198"><ele>24.0</ele><time>2015-05-01T09:18:09.0000000+00:00</time></trkpt><trkpt lat="34.8221917" lon="33.5328516"><ele>24.0</ele><time>2015-05-01T09:18:11.0000000+00:00</time></trkpt><trkpt lat="34.8221407" lon="33.532778"><ele>24.0</ele><time>2015-05-01T09:18:13.0000000+00:00</time></trkpt><trkpt lat="34.8220899" lon="33.5327095"><ele>24.0</ele><time>2015-05-01T09:18:15.0000000+00:00</time></trkpt><trkpt lat="34.8220359" lon="33.532639"><ele>24.0</ele><time>2015-05-01T09:18:17.0000000+00:00</time></trkpt><trkpt lat="34.8219825" lon="33.532569"><ele>24.0</ele><time>2015-05-01T09:18:19.0000000+00:00</time></trkpt><trkpt lat="34.8219281" lon="33.532495"><ele>24.0</ele><time>2015-05-01T09:18:21.0000000+00:00</time></trkpt><trkpt lat="34.8218734" lon="33.5324218"><ele>24.0</ele><time>2015-05-01T09:18:23.0000000+00:00</time></trkpt><trkpt lat="34.8218149" lon="33.5323476"><ele>24.0</ele><time>2015-05-01T09:18:25.0000000+00:00</time></trkpt><trkpt lat="34.8217563" lon="33.532277"><ele>24.0</ele><time>2015-05-01T09:18:27.0000000+00:00</time></trkpt><trkpt lat="34.8216967" lon="33.5322017"><ele>24.0</ele><time>2015-05-01T09:18:29.0000000+00:00</time></trkpt><trkpt lat="34.8216391" lon="33.5321279"><ele>24.0</ele><time>2015-05-01T09:18:31.0000000+00:00</time></trkpt><trkpt lat="34.8215802" lon="33.5320515"><ele>24.0</ele><time>2015-05-01T09:18:33.0000000+00:00</time></trkpt><trkpt lat="34.8215231" lon="33.5319772"><ele>24.0</ele><time>2015-05-01T09:18:35.0000000+00:00</time></trkpt><trkpt lat="34.8214643" lon="33.5319"><ele>24.0</ele><time>2015-05-01T09:18:37.0000000+00:00</time></trkpt><trkpt lat="34.8214068" lon="33.5318235"><ele>24.0</ele><time>2015-05-01T09:18:39.0000000+00:00</time></trkpt><trkpt lat="34.8213452" lon="33.531741"><ele>24.0</ele><time>2015-05-01T09:18:41.0000000+00:00</time></trkpt><trkpt lat="34.8213111" lon="33.5316925"><ele>24.0</ele><time>2015-05-01T09:18:42.0000000+00:00</time></trkpt><trkpt lat="34.8212505" lon="33.5316131"><ele>24.0</ele><time>2015-05-01T09:18:44.0000000+00:00</time></trkpt><trkpt lat="34.8212204" lon="33.5315722"><ele>24.0</ele><time>2015-05-01T09:18:45.0000000+00:00</time></trkpt><trkpt lat="34.8211646" lon="33.5314937"><ele>24.0</ele><time>2015-05-01T09:18:47.0000000+00:00</time></trkpt><trkpt lat="34.8211338" lon="33.5314507"><ele>24.0</ele><time>2015-05-01T09:18:48.0000000+00:00</time></trkpt><trkpt lat="34.8211057" lon="33.5314058"><ele>24.0</ele><time>2015-05-01T09:18:49.0000000+00:00</time></trkpt><trkpt lat="34.8210762" lon="33.5313604"><ele>24.0</ele><time>2015-05-01T09:18:50.0000000+00:00</time></trkpt><trkpt lat="34.821045" lon="33.5313191"><ele>24.0</ele><time>2015-05-01T09:18:51.0000000+00:00</time></trkpt><trkpt lat="34.8210105" lon="33.5312811"><ele>24.0</ele><time>2015-05-01T09:18:52.0000000+00:00</time></trkpt><trkpt lat="34.8209499" lon="33.531205"><ele>24.0</ele><time>2015-05-01T09:18:54.0000000+00:00</time></trkpt><trkpt lat="34.820918" lon="33.5311629"><ele>24.0</ele><time>2015-05-01T09:18:55.0000000+00:00</time></trkpt><trkpt lat="34.8208874" lon="33.5311177"><ele>24.0</ele><time>2015-05-01T09:18:56.0000000+00:00</time></trkpt><trkpt lat="34.820856" lon="33.5310732"><ele>24.0</ele><time>2015-05-01T09:18:57.0000000+00:00</time></trkpt><trkpt lat="34.8208237" lon="33.531032"><ele>24.0</ele><time>2015-05-01T09:18:58.0000000+00:00</time></trkpt><trkpt lat="34.8207888" lon="33.530989"><ele>24.0</ele><time>2015-05-01T09:18:59.0000000+00:00</time></trkpt><trkpt lat="34.8207566" lon="33.5309452"><ele>24.0</ele><time>2015-05-01T09:19:00.0000000+00:00</time></trkpt><trkpt lat="34.8207256" lon="33.5309037"><ele>24.5</ele><time>2015-05-01T09:19:01.0000000+00:00</time></trkpt><trkpt lat="34.820688" lon="33.5308608"><ele>24.8</ele><time>2015-05-01T09:19:02.0000000+00:00</time></trkpt><trkpt lat="34.8206246" lon="33.5307841"><ele>25.0</ele><time>2015-05-01T09:19:04.0000000+00:00</time></trkpt><trkpt lat="34.8205614" lon="33.5307064"><ele>25.0</ele><time>2015-05-01T09:19:06.0000000+00:00</time></trkpt><trkpt lat="34.820526" lon="33.5306657"><ele>25.0</ele><time>2015-05-01T09:19:07.0000000+00:00</time></trkpt><trkpt lat="34.8204878" lon="33.5306217"><ele>25.0</ele><time>2015-05-01T09:19:08.0000000+00:00</time></trkpt><trkpt lat="34.8204544" lon="33.53058"><ele>25.0</ele><time>2015-05-01T09:19:09.0000000+00:00</time></trkpt><trkpt lat="34.8204224" lon="33.5305385"><ele>25.0</ele><time>2015-05-01T09:19:10.0000000+00:00</time></trkpt><trkpt lat="34.8203622" lon="33.5304555"><ele>25.8</ele><time>2015-05-01T09:19:12.0000000+00:00</time></trkpt><trkpt lat="34.8203069" lon="33.5303863"><ele>26.0</ele><time>2015-05-01T09:19:14.0000000+00:00</time></trkpt><trkpt lat="34.8202519" lon="33.5303107"><ele>26.0</ele><time>2015-05-01T09:19:16.0000000+00:00</time></trkpt><trkpt lat="34.8202119" lon="33.5302705"><ele>26.0</ele><time>2015-05-01T09:19:17.0000000+00:00</time></trkpt><trkpt lat="34.8201579" lon="33.5301956"><ele>25.5</ele><time>2015-05-01T09:19:19.0000000+00:00</time></trkpt><trkpt lat="34.8201248" lon="33.530157"><ele>25.3</ele><time>2015-05-01T09:19:20.0000000+00:00</time></trkpt><trkpt lat="34.8200668" lon="33.5300807"><ele>25.8</ele><time>2015-05-01T09:19:22.0000000+00:00</time></trkpt><trkpt lat="34.8200072" lon="33.5300048"><ele>26.0</ele><time>2015-05-01T09:19:24.0000000+00:00</time></trkpt><trkpt lat="34.8199478" lon="33.5299298"><ele>26.5</ele><time>2015-05-01T09:19:26.0000000+00:00</time></trkpt><trkpt lat="34.8198901" lon="33.529857"><ele>26.1</ele><time>2015-05-01T09:19:28.0000000+00:00</time></trkpt><trkpt lat="34.8198353" lon="33.5297858"><ele>26.1</ele><time>2015-05-01T09:19:30.0000000+00:00</time></trkpt><trkpt lat="34.8197819" lon="33.5297125"><ele>26.0</ele><time>2015-05-01T09:19:32.0000000+00:00</time></trkpt><trkpt lat="34.8197263" lon="33.5296429"><ele>26.8</ele><time>2015-05-01T09:19:34.0000000+00:00</time></trkpt><trkpt lat="34.8196703" lon="33.5295738"><ele>27.7</ele><time>2015-05-01T09:19:36.0000000+00:00</time></trkpt><trkpt lat="34.819616" lon="33.5295033"><ele>27.9</ele><time>2015-05-01T09:19:38.0000000+00:00</time></trkpt><trkpt lat="34.819561" lon="33.5294315"><ele>28.0</ele><time>2015-05-01T09:19:40.0000000+00:00</time></trkpt><trkpt lat="34.8195038" lon="33.5293603"><ele>28.0</ele><time>2015-05-01T09:19:42.0000000+00:00</time></trkpt><trkpt lat="34.8194474" lon="33.5292855"><ele>28.0</ele><time>2015-05-01T09:19:44.0000000+00:00</time></trkpt><trkpt lat="34.8193889" lon="33.529207"><ele>27.5</ele><time>2015-05-01T09:19:46.0000000+00:00</time></trkpt><trkpt lat="34.8193329" lon="33.5291334"><ele>27.6</ele><time>2015-05-01T09:19:48.0000000+00:00</time></trkpt><trkpt lat="34.8192786" lon="33.5290614"><ele>27.7</ele><time>2015-05-01T09:19:50.0000000+00:00</time></trkpt><trkpt lat="34.8192252" lon="33.5289894"><ele>27.9</ele><time>2015-05-01T09:19:52.0000000+00:00</time></trkpt><trkpt lat="34.8191686" lon="33.5289141"><ele>27.7</ele><time>2015-05-01T09:19:54.0000000+00:00</time></trkpt><trkpt lat="34.8191111" lon="33.5288389"><ele>28.0</ele><time>2015-05-01T09:19:56.0000000+00:00</time></trkpt><trkpt lat="34.8190716" lon="33.5287889"><ele>28.0</ele><time>2015-05-01T09:19:57.0000000+00:00</time></trkpt><trkpt lat="34.8190411" lon="33.5287464"><ele>28.0</ele><time>2015-05-01T09:19:58.0000000+00:00</time></trkpt><trkpt lat="34.8190078" lon="33.5287066"><ele>28.0</ele><time>2015-05-01T09:19:59.0000000+00:00</time></trkpt><trkpt lat="34.8189722" lon="33.528664"><ele>28.0</ele><time>2015-05-01T09:20:00.0000000+00:00</time></trkpt><trkpt lat="34.8189089" lon="33.5285872"><ele>28.0</ele><time>2015-05-01T09:20:02.0000000+00:00</time></trkpt><trkpt lat="34.818845" lon="33.5285074"><ele>28.0</ele><time>2015-05-01T09:20:04.0000000+00:00</time></trkpt><trkpt lat="34.8188122" lon="33.5284655"><ele>28.0</ele><time>2015-05-01T09:20:05.0000000+00:00</time></trkpt><trkpt lat="34.8187526" lon="33.5283881"><ele>28.0</ele><time>2015-05-01T09:20:07.0000000+00:00</time></trkpt><trkpt lat="34.8187166" lon="33.5283546"><ele>28.0</ele><time>2015-05-01T09:20:08.0000000+00:00</time></trkpt><trkpt lat="34.8186505" lon="33.528282"><ele>28.0</ele><time>2015-05-01T09:20:10.0000000+00:00</time></trkpt><trkpt lat="34.8185879" lon="33.5282046"><ele>28.8</ele><time>2015-05-01T09:20:12.0000000+00:00</time></trkpt><trkpt lat="34.8185532" lon="33.5281657"><ele>28.9</ele><time>2015-05-01T09:20:13.0000000+00:00</time></trkpt><trkpt lat="34.8185187" lon="33.5281272"><ele>29.0</ele><time>2015-05-01T09:20:14.0000000+00:00</time></trkpt><trkpt lat="34.8184845" lon="33.5280866"><ele>29.0</ele><time>2015-05-01T09:20:15.0000000+00:00</time></trkpt><trkpt lat="34.8184516" lon="33.528048"><ele>29.0</ele><time>2015-05-01T09:20:16.0000000+00:00</time></trkpt><trkpt lat="34.8183844" lon="33.5279834"><ele>29.0</ele><time>2015-05-01T09:20:18.0000000+00:00</time></trkpt><trkpt lat="34.8183175" lon="33.5279201"><ele>29.0</ele><time>2015-05-01T09:20:20.0000000+00:00</time></trkpt><trkpt lat="34.8182513" lon="33.527852"><ele>28.8</ele><time>2015-05-01T09:20:22.0000000+00:00</time></trkpt><trkpt lat="34.8181827" lon="33.5277829"><ele>29.0</ele><time>2015-05-01T09:20:24.0000000+00:00</time></trkpt><trkpt lat="34.8181136" lon="33.5277129"><ele>28.3</ele><time>2015-05-01T09:20:26.0000000+00:00</time></trkpt><trkpt lat="34.8180463" lon="33.5276418"><ele>28.1</ele><time>2015-05-01T09:20:28.0000000+00:00</time></trkpt><trkpt lat="34.8180103" lon="33.5276086"><ele>28.1</ele><time>2015-05-01T09:20:29.0000000+00:00</time></trkpt><trkpt lat="34.8179412" lon="33.5275413"><ele>28.0</ele><time>2015-05-01T09:20:31.0000000+00:00</time></trkpt><trkpt lat="34.817877" lon="33.5274767"><ele>28.0</ele><time>2015-05-01T09:20:33.0000000+00:00</time></trkpt><trkpt lat="34.8178226" lon="33.5274236"><ele>28.0</ele><time>2015-05-01T09:20:35.0000000+00:00</time></trkpt><trkpt lat="34.8177652" lon="33.5273698"><ele>28.0</ele><time>2015-05-01T09:20:37.0000000+00:00</time></trkpt><trkpt lat="34.8177126" lon="33.5273144"><ele>28.0</ele><time>2015-05-01T09:20:39.0000000+00:00</time></trkpt><trkpt lat="34.817663" lon="33.5272714"><ele>28.0</ele><time>2015-05-01T09:20:41.0000000+00:00</time></trkpt><trkpt lat="34.817609" lon="33.5272196"><ele>27.8</ele><time>2015-05-01T09:20:43.0000000+00:00</time></trkpt><trkpt lat="34.8175458" lon="33.5271604"><ele>28.0</ele><time>2015-05-01T09:20:45.0000000+00:00</time></trkpt><trkpt lat="34.8174806" lon="33.5271018"><ele>28.0</ele><time>2015-05-01T09:20:47.0000000+00:00</time></trkpt><trkpt lat="34.8174085" lon="33.5270443"><ele>28.0</ele><time>2015-05-01T09:20:49.0000000+00:00</time></trkpt><trkpt lat="34.8173389" lon="33.526983"><ele>28.0</ele><time>2015-05-01T09:20:51.0000000+00:00</time></trkpt><trkpt lat="34.8172561" lon="33.5269078"><ele>27.5</ele><time>2015-05-01T09:20:53.0000000+00:00</time></trkpt><trkpt lat="34.8172185" lon="33.5268766"><ele>27.3</ele><time>2015-05-01T09:20:54.0000000+00:00</time></trkpt><trkpt lat="34.8171802" lon="33.5268454"><ele>27.1</ele><time>2015-05-01T09:20:55.0000000+00:00</time></trkpt><trkpt lat="34.8171364" lon="33.5268093"><ele>27.1</ele><time>2015-05-01T09:20:56.0000000+00:00</time></trkpt><trkpt lat="34.8170993" lon="33.5267736"><ele>27.1</ele><time>2015-05-01T09:20:57.0000000+00:00</time></trkpt><trkpt lat="34.8170606" lon="33.5267382"><ele>27.0</ele><time>2015-05-01T09:20:58.0000000+00:00</time></trkpt><trkpt lat="34.8169946" lon="33.5266852"><ele>27.0</ele><time>2015-05-01T09:21:00.0000000+00:00</time></trkpt><trkpt lat="34.8169297" lon="33.5266366"><ele>27.0</ele><time>2015-05-01T09:21:02.0000000+00:00</time></trkpt><trkpt lat="34.8168741" lon="33.5265826"><ele>27.0</ele><time>2015-05-01T09:21:04.0000000+00:00</time></trkpt><trkpt lat="34.8168112" lon="33.526535"><ele>27.8</ele><time>2015-05-01T09:21:06.0000000+00:00</time></trkpt><trkpt lat="34.8167454" lon="33.526479"><ele>27.2</ele><time>2015-05-01T09:21:08.0000000+00:00</time></trkpt><trkpt lat="34.8166795" lon="33.5264211"><ele>27.1</ele><time>2015-05-01T09:21:10.0000000+00:00</time></trkpt><trkpt lat="34.8166117" lon="33.5263631"><ele>27.0</ele><time>2015-05-01T09:21:12.0000000+00:00</time></trkpt><trkpt lat="34.8165446" lon="33.5263032"><ele>26.3</ele><time>2015-05-01T09:21:14.0000000+00:00</time></trkpt><trkpt lat="34.816476" lon="33.5262461"><ele>26.3</ele><time>2015-05-01T09:21:16.0000000+00:00</time></trkpt><trkpt lat="34.8164075" lon="33.5261887"><ele>26.6</ele><time>2015-05-01T09:21:18.0000000+00:00</time></trkpt><trkpt lat="34.8163372" lon="33.5261318"><ele>26.9</ele><time>2015-05-01T09:21:20.0000000+00:00</time></trkpt><trkpt lat="34.8162995" lon="33.5261018"><ele>27.0</ele><time>2015-05-01T09:21:21.0000000+00:00</time></trkpt><trkpt lat="34.8162286" lon="33.5260416"><ele>27.0</ele><time>2015-05-01T09:21:23.0000000+00:00</time></trkpt><trkpt lat="34.8161479" lon="33.5259723"><ele>26.5</ele><time>2015-05-01T09:21:25.0000000+00:00</time></trkpt><trkpt lat="34.8161109" lon="33.5259398"><ele>26.3</ele><time>2015-05-01T09:21:26.0000000+00:00</time></trkpt><trkpt lat="34.8160367" lon="33.5258743"><ele>26.1</ele><time>2015-05-01T09:21:28.0000000+00:00</time></trkpt><trkpt lat="34.8159986" lon="33.5258438"><ele>26.1</ele><time>2015-05-01T09:21:29.0000000+00:00</time></trkpt><trkpt lat="34.81593" lon="33.5257805"><ele>26.0</ele><time>2015-05-01T09:21:31.0000000+00:00</time></trkpt><trkpt lat="34.815893" lon="33.5257492"><ele>26.0</ele><time>2015-05-01T09:21:32.0000000+00:00</time></trkpt><trkpt lat="34.8158309" lon="33.5256916"><ele>26.8</ele><time>2015-05-01T09:21:34.0000000+00:00</time></trkpt><trkpt lat="34.8157576" lon="33.5256323"><ele>27.0</ele><time>2015-05-01T09:21:36.0000000+00:00</time></trkpt><trkpt lat="34.8156874" lon="33.5255701"><ele>27.3</ele><time>2015-05-01T09:21:38.0000000+00:00</time></trkpt><trkpt lat="34.8156162" lon="33.5255087"><ele>27.1</ele><time>2015-05-01T09:21:40.0000000+00:00</time></trkpt><trkpt lat="34.8155488" lon="33.5254484"><ele>27.0</ele><time>2015-05-01T09:21:42.0000000+00:00</time></trkpt><trkpt lat="34.8154924" lon="33.5254007"><ele>27.0</ele><time>2015-05-01T09:21:44.0000000+00:00</time></trkpt><trkpt lat="34.8154446" lon="33.5253681"><ele>27.0</ele><time>2015-05-01T09:21:46.0000000+00:00</time></trkpt><trkpt lat="34.8153964" lon="33.5253429"><ele>26.3</ele><time>2015-05-01T09:21:48.0000000+00:00</time></trkpt><trkpt lat="34.8153557" lon="33.5253876"><ele>26.1</ele><time>2015-05-01T09:21:51.0000000+00:00</time></trkpt><trkpt lat="34.8153265" lon="33.5254323"><ele>26.0</ele><time>2015-05-01T09:21:53.0000000+00:00</time></trkpt><trkpt lat="34.8152864" lon="33.5254991"><ele>26.5</ele><time>2015-05-01T09:21:55.0000000+00:00</time></trkpt><trkpt lat="34.815242" lon="33.5255738"><ele>26.9</ele><time>2015-05-01T09:21:57.0000000+00:00</time></trkpt><trkpt lat="34.8151922" lon="33.5256504"><ele>27.0</ele><time>2015-05-01T09:21:59.0000000+00:00</time></trkpt><trkpt lat="34.8151398" lon="33.5257366"><ele>27.0</ele><time>2015-05-01T09:22:01.0000000+00:00</time></trkpt><trkpt lat="34.8150793" lon="33.5258264"><ele>27.0</ele><time>2015-05-01T09:22:03.0000000+00:00</time></trkpt><trkpt lat="34.8150435" lon="33.5258668"><ele>27.0</ele><time>2015-05-01T09:22:04.0000000+00:00</time></trkpt><trkpt lat="34.8150053" lon="33.5259081"><ele>26.5</ele><time>2015-05-01T09:22:05.0000000+00:00</time></trkpt><trkpt lat="34.8149665" lon="33.5259432"><ele>26.3</ele><time>2015-05-01T09:22:06.0000000+00:00</time></trkpt><trkpt lat="34.8149215" lon="33.5259801"><ele>26.1</ele><time>2015-05-01T09:22:07.0000000+00:00</time></trkpt><trkpt lat="34.8148774" lon="33.5260182"><ele>26.1</ele><time>2015-05-01T09:22:08.0000000+00:00</time></trkpt><trkpt lat="34.8148374" lon="33.5260564"><ele>26.1</ele><time>2015-05-01T09:22:09.0000000+00:00</time></trkpt><trkpt lat="34.8147917" lon="33.5260959"><ele>26.0</ele><time>2015-05-01T09:22:10.0000000+00:00</time></trkpt><trkpt lat="34.8147299" lon="33.52612"><ele>26.0</ele><time>2015-05-01T09:22:11.0000000+00:00</time></trkpt><trkpt lat="34.8146742" lon="33.5261527"><ele>26.0</ele><time>2015-05-01T09:22:12.0000000+00:00</time></trkpt><trkpt lat="34.8146214" lon="33.5261847"><ele>26.0</ele><time>2015-05-01T09:22:13.0000000+00:00</time></trkpt><trkpt lat="34.8145685" lon="33.5262161"><ele>26.0</ele><time>2015-05-01T09:22:14.0000000+00:00</time></trkpt><trkpt lat="34.8145139" lon="33.5262387"><ele>26.0</ele><time>2015-05-01T09:22:15.0000000+00:00</time></trkpt><trkpt lat="34.8144652" lon="33.526265"><ele>26.0</ele><time>2015-05-01T09:22:16.0000000+00:00</time></trkpt><trkpt lat="34.8144162" lon="33.526296"><ele>26.0</ele><time>2015-05-01T09:22:17.0000000+00:00</time></trkpt><trkpt lat="34.8143668" lon="33.5263215"><ele>26.0</ele><time>2015-05-01T09:22:18.0000000+00:00</time></trkpt><trkpt lat="34.8143153" lon="33.5263455"><ele>25.5</ele><time>2015-05-01T09:22:19.0000000+00:00</time></trkpt><trkpt lat="34.8142684" lon="33.5263709"><ele>25.3</ele><time>2015-05-01T09:22:20.0000000+00:00</time></trkpt><trkpt lat="34.8142162" lon="33.5264024"><ele>25.1</ele><time>2015-05-01T09:22:21.0000000+00:00</time></trkpt><trkpt lat="34.8141684" lon="33.5264299"><ele>25.1</ele><time>2015-05-01T09:22:22.0000000+00:00</time></trkpt><trkpt lat="34.8141185" lon="33.5264587"><ele>25.6</ele><time>2015-05-01T09:22:23.0000000+00:00</time></trkpt><trkpt lat="34.8140652" lon="33.5264852"><ele>25.3</ele><time>2015-05-01T09:22:24.0000000+00:00</time></trkpt><trkpt lat="34.8140105" lon="33.5265212"><ele>25.2</ele><time>2015-05-01T09:22:25.0000000+00:00</time></trkpt><trkpt lat="34.8139573" lon="33.5265481"><ele>24.6</ele><time>2015-05-01T09:22:26.0000000+00:00</time></trkpt><trkpt lat="34.8139006" lon="33.5265758"><ele>24.3</ele><time>2015-05-01T09:22:27.0000000+00:00</time></trkpt><trkpt lat="34.8138443" lon="33.526605"><ele>24.2</ele><time>2015-05-01T09:22:28.0000000+00:00</time></trkpt><trkpt lat="34.8137889" lon="33.5266373"><ele>24.1</ele><time>2015-05-01T09:22:29.0000000+00:00</time></trkpt><trkpt lat="34.8137372" lon="33.5266678"><ele>24.1</ele><time>2015-05-01T09:22:30.0000000+00:00</time></trkpt><trkpt lat="34.8136874" lon="33.5266869"><ele>24.0</ele><time>2015-05-01T09:22:31.0000000+00:00</time></trkpt><trkpt lat="34.8136372" lon="33.5267129"><ele>23.5</ele><time>2015-05-01T09:22:32.0000000+00:00</time></trkpt><trkpt lat="34.8135882" lon="33.5267449"><ele>23.3</ele><time>2015-05-01T09:22:33.0000000+00:00</time></trkpt><trkpt lat="34.8135393" lon="33.5267735"><ele>23.1</ele><time>2015-05-01T09:22:34.0000000+00:00</time></trkpt><trkpt lat="34.8134878" lon="33.5267877"><ele>23.1</ele><time>2015-05-01T09:22:35.0000000+00:00</time></trkpt><trkpt lat="34.8134362" lon="33.5268132"><ele>23.1</ele><time>2015-05-01T09:22:36.0000000+00:00</time></trkpt><trkpt lat="34.8133885" lon="33.5268406"><ele>23.0</ele><time>2015-05-01T09:22:37.0000000+00:00</time></trkpt><trkpt lat="34.8133367" lon="33.5268765"><ele>23.0</ele><time>2015-05-01T09:22:38.0000000+00:00</time></trkpt><trkpt lat="34.8132898" lon="33.5269065"><ele>23.0</ele><time>2015-05-01T09:22:39.0000000+00:00</time></trkpt><trkpt lat="34.8132375" lon="33.5269344"><ele>23.0</ele><time>2015-05-01T09:22:40.0000000+00:00</time></trkpt><trkpt lat="34.8131929" lon="33.5269652"><ele>23.0</ele><time>2015-05-01T09:22:41.0000000+00:00</time></trkpt><trkpt lat="34.8131434" lon="33.5269924"><ele>23.0</ele><time>2015-05-01T09:22:42.0000000+00:00</time></trkpt><trkpt lat="34.8130962" lon="33.5270195"><ele>23.0</ele><time>2015-05-01T09:22:43.0000000+00:00</time></trkpt><trkpt lat="34.8130414" lon="33.5270502"><ele>23.0</ele><time>2015-05-01T09:22:44.0000000+00:00</time></trkpt><trkpt lat="34.812991" lon="33.5270765"><ele>23.0</ele><time>2015-05-01T09:22:45.0000000+00:00</time></trkpt><trkpt lat="34.8129434" lon="33.5270982"><ele>23.0</ele><time>2015-05-01T09:22:46.0000000+00:00</time></trkpt><trkpt lat="34.8128964" lon="33.5271315"><ele>23.0</ele><time>2015-05-01T09:22:47.0000000+00:00</time></trkpt><trkpt lat="34.8128489" lon="33.5271658"><ele>22.5</ele><time>2015-05-01T09:22:48.0000000+00:00</time></trkpt><trkpt lat="34.8127959" lon="33.5271928"><ele>22.8</ele><time>2015-05-01T09:22:49.0000000+00:00</time></trkpt><trkpt lat="34.8127482" lon="33.5272202"><ele>22.4</ele><time>2015-05-01T09:22:50.0000000+00:00</time></trkpt><trkpt lat="34.812665" lon="33.5272794"><ele>22.1</ele><time>2015-05-01T09:22:52.0000000+00:00</time></trkpt><trkpt lat="34.8126088" lon="33.527314"><ele>22.6</ele><time>2015-05-01T09:22:53.0000000+00:00</time></trkpt><trkpt lat="34.8125633" lon="33.527346"><ele>22.3</ele><time>2015-05-01T09:22:54.0000000+00:00</time></trkpt><trkpt lat="34.8125132" lon="33.527379"><ele>22.2</ele><time>2015-05-01T09:22:55.0000000+00:00</time></trkpt><trkpt lat="34.812464" lon="33.5274145"><ele>22.1</ele><time>2015-05-01T09:22:56.0000000+00:00</time></trkpt><trkpt lat="34.8124183" lon="33.5274626"><ele>21.6</ele><time>2015-05-01T09:22:57.0000000+00:00</time></trkpt><trkpt lat="34.8123694" lon="33.527499"><ele>21.3</ele><time>2015-05-01T09:22:58.0000000+00:00</time></trkpt><trkpt lat="34.812321" lon="33.5275374"><ele>21.7</ele><time>2015-05-01T09:22:59.0000000+00:00</time></trkpt><trkpt lat="34.8122688" lon="33.5275775"><ele>21.8</ele><time>2015-05-01T09:23:00.0000000+00:00</time></trkpt><trkpt lat="34.8122186" lon="33.5276155"><ele>21.9</ele><time>2015-05-01T09:23:01.0000000+00:00</time></trkpt><trkpt lat="34.81217" lon="33.5276524"><ele>22.0</ele><time>2015-05-01T09:23:02.0000000+00:00</time></trkpt><trkpt lat="34.8121278" lon="33.527696"><ele>22.0</ele><time>2015-05-01T09:23:03.0000000+00:00</time></trkpt><trkpt lat="34.812081" lon="33.527734"><ele>22.0</ele><time>2015-05-01T09:23:04.0000000+00:00</time></trkpt><trkpt lat="34.812038" lon="33.527768"><ele>21.5</ele><time>2015-05-01T09:23:05.0000000+00:00</time></trkpt><trkpt lat="34.811992" lon="33.5278104"><ele>21.3</ele><time>2015-05-01T09:23:06.0000000+00:00</time></trkpt><trkpt lat="34.8119494" lon="33.5278519"><ele>21.1</ele><time>2015-05-01T09:23:07.0000000+00:00</time></trkpt><trkpt lat="34.8119055" lon="33.5278899"><ele>21.1</ele><time>2015-05-01T09:23:08.0000000+00:00</time></trkpt><trkpt lat="34.8118676" lon="33.5279215"><ele>21.1</ele><time>2015-05-01T09:23:09.0000000+00:00</time></trkpt><trkpt lat="34.8118265" lon="33.5279576"><ele>20.5</ele><time>2015-05-01T09:23:10.0000000+00:00</time></trkpt><trkpt lat="34.8117879" lon="33.5279858"><ele>20.8</ele><time>2015-05-01T09:23:11.0000000+00:00</time></trkpt><trkpt lat="34.8117498" lon="33.5280239"><ele>20.9</ele><time>2015-05-01T09:23:12.0000000+00:00</time></trkpt><trkpt lat="34.8116824" lon="33.5280948"><ele>20.2</ele><time>2015-05-01T09:23:14.0000000+00:00</time></trkpt><trkpt lat="34.8116438" lon="33.5281267"><ele>20.6</ele><time>2015-05-01T09:23:15.0000000+00:00</time></trkpt><trkpt lat="34.8116048" lon="33.5281594"><ele>20.8</ele><time>2015-05-01T09:23:16.0000000+00:00</time></trkpt><trkpt lat="34.8115692" lon="33.5281979"><ele>20.4</ele><time>2015-05-01T09:23:17.0000000+00:00</time></trkpt><trkpt lat="34.8115295" lon="33.5282378"><ele>20.2</ele><time>2015-05-01T09:23:18.0000000+00:00</time></trkpt><trkpt lat="34.8114936" lon="33.5282724"><ele>20.1</ele><time>2015-05-01T09:23:19.0000000+00:00</time></trkpt><trkpt lat="34.811454" lon="33.5283036"><ele>19.6</ele><time>2015-05-01T09:23:20.0000000+00:00</time></trkpt><trkpt lat="34.8113834" lon="33.5283652"><ele>19.2</ele><time>2015-05-01T09:23:22.0000000+00:00</time></trkpt><trkpt lat="34.8113127" lon="33.5284139"><ele>19.1</ele><time>2015-05-01T09:23:24.0000000+00:00</time></trkpt><trkpt lat="34.8112499" lon="33.5284754"><ele>18.3</ele><time>2015-05-01T09:23:26.0000000+00:00</time></trkpt><trkpt lat="34.8111895" lon="33.5285283"><ele>18.8</ele><time>2015-05-01T09:23:28.0000000+00:00</time></trkpt><trkpt lat="34.8111254" lon="33.5285823"><ele>19.0</ele><time>2015-05-01T09:23:30.0000000+00:00</time></trkpt><trkpt lat="34.811086" lon="33.5286107"><ele>18.5</ele><time>2015-05-01T09:23:31.0000000+00:00</time></trkpt><trkpt lat="34.8109958" lon="33.5286732"><ele>18.1</ele><time>2015-05-01T09:23:33.0000000+00:00</time></trkpt><trkpt lat="34.8109556" lon="33.5287009"><ele>18.1</ele><time>2015-05-01T09:23:34.0000000+00:00</time></trkpt><trkpt lat="34.8109118" lon="33.5287247"><ele>18.1</ele><time>2015-05-01T09:23:35.0000000+00:00</time></trkpt><trkpt lat="34.8108701" lon="33.5287468"><ele>18.5</ele><time>2015-05-01T09:23:36.0000000+00:00</time></trkpt><trkpt lat="34.8107923" lon="33.5287921"><ele>18.9</ele><time>2015-05-01T09:23:38.0000000+00:00</time></trkpt><trkpt lat="34.8107155" lon="33.5288219"><ele>18.2</ele><time>2015-05-01T09:23:40.0000000+00:00</time></trkpt><trkpt lat="34.8106519" lon="33.5288543"><ele>18.1</ele><time>2015-05-01T09:23:42.0000000+00:00</time></trkpt><trkpt lat="34.8105744" lon="33.5288877"><ele>17.3</ele><time>2015-05-01T09:23:44.0000000+00:00</time></trkpt><trkpt lat="34.8104898" lon="33.5289146"><ele>17.1</ele><time>2015-05-01T09:23:46.0000000+00:00</time></trkpt><trkpt lat="34.8104394" lon="33.5289245"><ele>17.1</ele><time>2015-05-01T09:23:47.0000000+00:00</time></trkpt><trkpt lat="34.8103953" lon="33.5289392"><ele>17.0</ele><time>2015-05-01T09:23:48.0000000+00:00</time></trkpt><trkpt lat="34.810314" lon="33.5289588"><ele>16.3</ele><time>2015-05-01T09:23:50.0000000+00:00</time></trkpt><trkpt lat="34.8102355" lon="33.5289746"><ele>16.1</ele><time>2015-05-01T09:23:52.0000000+00:00</time></trkpt><trkpt lat="34.8101628" lon="33.5289898"><ele>16.0</ele><time>2015-05-01T09:23:54.0000000+00:00</time></trkpt><trkpt lat="34.8100981" lon="33.5289973"><ele>16.0</ele><time>2015-05-01T09:23:56.0000000+00:00</time></trkpt><trkpt lat="34.8100378" lon="33.5290189"><ele>16.0</ele><time>2015-05-01T09:23:58.0000000+00:00</time></trkpt><trkpt lat="34.8099757" lon="33.5290308"><ele>16.0</ele><time>2015-05-01T09:24:00.0000000+00:00</time></trkpt><trkpt lat="34.8099113" lon="33.5290382"><ele>16.0</ele><time>2015-05-01T09:24:02.0000000+00:00</time></trkpt><trkpt lat="34.8098462" lon="33.529053"><ele>16.0</ele><time>2015-05-01T09:24:04.0000000+00:00</time></trkpt><trkpt lat="34.8097743" lon="33.5290886"><ele>16.0</ele><time>2015-05-01T09:24:06.0000000+00:00</time></trkpt><trkpt lat="34.8096997" lon="33.5291222"><ele>16.0</ele><time>2015-05-01T09:24:08.0000000+00:00</time></trkpt><trkpt lat="34.8096298" lon="33.52916"><ele>16.0</ele><time>2015-05-01T09:24:10.0000000+00:00</time></trkpt><trkpt lat="34.8095646" lon="33.5292014"><ele>16.0</ele><time>2015-05-01T09:24:12.0000000+00:00</time></trkpt><trkpt lat="34.8095094" lon="33.5292443"><ele>15.3</ele><time>2015-05-01T09:24:14.0000000+00:00</time></trkpt><trkpt lat="34.8094502" lon="33.5293024"><ele>15.1</ele><time>2015-05-01T09:24:16.0000000+00:00</time></trkpt><trkpt lat="34.8094123" lon="33.5293499"><ele>15.1</ele><time>2015-05-01T09:24:17.0000000+00:00</time></trkpt><trkpt lat="34.8093758" lon="33.529396"><ele>15.0</ele><time>2015-05-01T09:24:18.0000000+00:00</time></trkpt><trkpt lat="34.8093165" lon="33.5294692"><ele>15.0</ele><time>2015-05-01T09:24:20.0000000+00:00</time></trkpt><trkpt lat="34.8092707" lon="33.529551"><ele>15.0</ele><time>2015-05-01T09:24:22.0000000+00:00</time></trkpt><trkpt lat="34.8092283" lon="33.5296257"><ele>14.3</ele><time>2015-05-01T09:24:24.0000000+00:00</time></trkpt><trkpt lat="34.8091894" lon="33.5297004"><ele>14.3</ele><time>2015-05-01T09:24:26.0000000+00:00</time></trkpt><trkpt lat="34.8091554" lon="33.5297648"><ele>14.6</ele><time>2015-05-01T09:24:28.0000000+00:00</time></trkpt><trkpt lat="34.8091215" lon="33.5298193"><ele>14.2</ele><time>2015-05-01T09:24:30.0000000+00:00</time></trkpt><trkpt lat="34.8090903" lon="33.5298594"><ele>14.1</ele><time>2015-05-01T09:24:32.0000000+00:00</time></trkpt><trkpt lat="34.8090469" lon="33.5298842"><ele>14.0</ele><time>2015-05-01T09:24:34.0000000+00:00</time></trkpt><trkpt lat="34.8090022" lon="33.5299152"><ele>13.5</ele><time>2015-05-01T09:24:36.0000000+00:00</time></trkpt><trkpt lat="34.8089317" lon="33.5299387"><ele>13.9</ele><time>2015-05-01T09:24:38.0000000+00:00</time></trkpt><trkpt lat="34.8088741" lon="33.5299636"><ele>14.0</ele><time>2015-05-01T09:24:40.0000000+00:00</time></trkpt><trkpt lat="34.8088554" lon="33.5300245"><ele>14.0</ele><time>2015-05-01T09:24:44.0000000+00:00</time></trkpt><trkpt lat="34.8088489" lon="33.5299557"><ele>15.0</ele><time>2015-05-01T09:25:09.0000000+00:00</time></trkpt><trkpt lat="34.808818" lon="33.5299096"><ele>15.8</ele><time>2015-05-01T09:25:11.0000000+00:00</time></trkpt><trkpt lat="34.8087709" lon="33.5298632"><ele>16.0</ele><time>2015-05-01T09:25:13.0000000+00:00</time></trkpt><trkpt lat="34.8087148" lon="33.5298121"><ele>16.0</ele><time>2015-05-01T09:25:15.0000000+00:00</time></trkpt><trkpt lat="34.8086593" lon="33.5297594"><ele>16.0</ele><time>2015-05-01T09:25:17.0000000+00:00</time></trkpt><trkpt lat="34.8086049" lon="33.5297092"><ele>16.0</ele><time>2015-05-01T09:25:19.0000000+00:00</time></trkpt><trkpt lat="34.8085454" lon="33.5296527"><ele>16.0</ele><time>2015-05-01T09:25:21.0000000+00:00</time></trkpt><trkpt lat="34.8084914" lon="33.5295946"><ele>16.0</ele><time>2015-05-01T09:25:23.0000000+00:00</time></trkpt><trkpt lat="34.8084414" lon="33.5295387"><ele>16.0</ele><time>2015-05-01T09:25:25.0000000+00:00</time></trkpt><trkpt lat="34.8084752" lon="33.529593"><ele>15.0</ele><time>2015-05-01T09:32:38.0000000+00:00</time></trkpt><trkpt lat="34.8085235" lon="33.5296324"><ele>15.0</ele><time>2015-05-01T09:32:41.0000000+00:00</time></trkpt><trkpt lat="34.8085668" lon="33.5296718"><ele>15.0</ele><time>2015-05-01T09:32:44.0000000+00:00</time></trkpt><trkpt lat="34.8085987" lon="33.5297151"><ele>15.0</ele><time>2015-05-01T09:32:47.0000000+00:00</time></trkpt><trkpt lat="34.8086525" lon="33.5297456"><ele>15.1</ele><time>2015-05-01T09:34:04.0000000+00:00</time></trkpt><trkpt lat="34.8087057" lon="33.5297842"><ele>15.0</ele><time>2015-05-01T09:34:07.0000000+00:00</time></trkpt><trkpt lat="34.8087544" lon="33.5298371"><ele>15.0</ele><time>2015-05-01T09:34:09.0000000+00:00</time></trkpt><trkpt lat="34.8088024" lon="33.5298848"><ele>15.0</ele><time>2015-05-01T09:34:11.0000000+00:00</time></trkpt><trkpt lat="34.8088491" lon="33.5299325"><ele>15.0</ele><time>2015-05-01T09:34:13.0000000+00:00</time></trkpt><trkpt lat="34.8088972" lon="33.5299593"><ele>15.0</ele><time>2015-05-01T09:34:15.0000000+00:00</time></trkpt><trkpt lat="34.8089406" lon="33.5299065"><ele>14.1</ele><time>2015-05-01T09:34:18.0000000+00:00</time></trkpt><trkpt lat="34.8090034" lon="33.5298703"><ele>14.1</ele><time>2015-05-01T09:34:20.0000000+00:00</time></trkpt><trkpt lat="34.8090632" lon="33.5297944"><ele>14.0</ele><time>2015-05-01T09:34:22.0000000+00:00</time></trkpt><trkpt lat="34.8090774" lon="33.5297387"><ele>14.0</ele><time>2015-05-01T09:34:23.0000000+00:00</time></trkpt><trkpt lat="34.8091229" lon="33.5296527"><ele>14.8</ele><time>2015-05-01T09:34:25.0000000+00:00</time></trkpt><trkpt lat="34.8091714" lon="33.5295729"><ele>15.0</ele><time>2015-05-01T09:34:27.0000000+00:00</time></trkpt><trkpt lat="34.8092184" lon="33.5294881"><ele>15.8</ele><time>2015-05-01T09:34:29.0000000+00:00</time></trkpt><trkpt lat="34.8092696" lon="33.5294109"><ele>16.0</ele><time>2015-05-01T09:34:31.0000000+00:00</time></trkpt><trkpt lat="34.8093297" lon="33.5293366"><ele>16.0</ele><time>2015-05-01T09:34:33.0000000+00:00</time></trkpt><trkpt lat="34.8093648" lon="33.5292969"><ele>16.0</ele><time>2015-05-01T09:34:34.0000000+00:00</time></trkpt><trkpt lat="34.8094458" lon="33.5292187"><ele>16.0</ele><time>2015-05-01T09:34:36.0000000+00:00</time></trkpt><trkpt lat="34.8095206" lon="33.5291577"><ele>16.0</ele><time>2015-05-01T09:34:38.0000000+00:00</time></trkpt><trkpt lat="34.8095602" lon="33.5291293"><ele>16.0</ele><time>2015-05-01T09:34:39.0000000+00:00</time></trkpt><trkpt lat="34.8096016" lon="33.5290984"><ele>16.0</ele><time>2015-05-01T09:34:40.0000000+00:00</time></trkpt><trkpt lat="34.8096489" lon="33.5290784"><ele>16.0</ele><time>2015-05-01T09:34:41.0000000+00:00</time></trkpt><trkpt lat="34.8096911" lon="33.5290546"><ele>16.0</ele><time>2015-05-01T09:34:42.0000000+00:00</time></trkpt><trkpt lat="34.8097354" lon="33.5290392"><ele>16.0</ele><time>2015-05-01T09:34:43.0000000+00:00</time></trkpt><trkpt lat="34.8097804" lon="33.529018"><ele>16.0</ele><time>2015-05-01T09:34:44.0000000+00:00</time></trkpt><trkpt lat="34.8098266" lon="33.5290048"><ele>16.0</ele><time>2015-05-01T09:34:45.0000000+00:00</time></trkpt><trkpt lat="34.809871" lon="33.5289889"><ele>16.0</ele><time>2015-05-01T09:34:46.0000000+00:00</time></trkpt><trkpt lat="34.8099191" lon="33.5289828"><ele>16.0</ele><time>2015-05-01T09:34:47.0000000+00:00</time></trkpt><trkpt lat="34.8099706" lon="33.5289782"><ele>16.0</ele><time>2015-05-01T09:34:48.0000000+00:00</time></trkpt><trkpt lat="34.8100168" lon="33.5289698"><ele>16.0</ele><time>2015-05-01T09:34:49.0000000+00:00</time></trkpt><trkpt lat="34.8100634" lon="33.5289567"><ele>16.0</ele><time>2015-05-01T09:34:50.0000000+00:00</time></trkpt><trkpt lat="34.8101102" lon="33.5289443"><ele>16.0</ele><time>2015-05-01T09:34:51.0000000+00:00</time></trkpt><trkpt lat="34.8101612" lon="33.528937"><ele>16.0</ele><time>2015-05-01T09:34:52.0000000+00:00</time></trkpt><trkpt lat="34.8102085" lon="33.5289262"><ele>16.0</ele><time>2015-05-01T09:34:53.0000000+00:00</time></trkpt><trkpt lat="34.810257" lon="33.5289161"><ele>16.0</ele><time>2015-05-01T09:34:54.0000000+00:00</time></trkpt><trkpt lat="34.8103064" lon="33.5289013"><ele>16.0</ele><time>2015-05-01T09:34:55.0000000+00:00</time></trkpt><trkpt lat="34.8103562" lon="33.5288901"><ele>16.0</ele><time>2015-05-01T09:34:56.0000000+00:00</time></trkpt><trkpt lat="34.8104028" lon="33.5288764"><ele>16.0</ele><time>2015-05-01T09:34:57.0000000+00:00</time></trkpt><trkpt lat="34.8104509" lon="33.5288653"><ele>16.0</ele><time>2015-05-01T09:34:58.0000000+00:00</time></trkpt><trkpt lat="34.8104946" lon="33.528845"><ele>16.0</ele><time>2015-05-01T09:34:59.0000000+00:00</time></trkpt><trkpt lat="34.8105437" lon="33.5288305"><ele>16.5</ele><time>2015-05-01T09:35:00.0000000+00:00</time></trkpt><trkpt lat="34.8105909" lon="33.5288071"><ele>16.8</ele><time>2015-05-01T09:35:01.0000000+00:00</time></trkpt><trkpt lat="34.8106381" lon="33.5287904"><ele>16.9</ele><time>2015-05-01T09:35:02.0000000+00:00</time></trkpt><trkpt lat="34.8106827" lon="33.5287695"><ele>17.0</ele><time>2015-05-01T09:35:03.0000000+00:00</time></trkpt><trkpt lat="34.810731" lon="33.5287544"><ele>17.0</ele><time>2015-05-01T09:35:04.0000000+00:00</time></trkpt><trkpt lat="34.810819" lon="33.5287162"><ele>17.0</ele><time>2015-05-01T09:35:06.0000000+00:00</time></trkpt><trkpt lat="34.8108644" lon="33.5286915"><ele>17.0</ele><time>2015-05-01T09:35:07.0000000+00:00</time></trkpt><trkpt lat="34.8109091" lon="33.5286655"><ele>17.0</ele><time>2015-05-01T09:35:08.0000000+00:00</time></trkpt><trkpt lat="34.8109852" lon="33.5286009"><ele>17.0</ele><time>2015-05-01T09:35:10.0000000+00:00</time></trkpt><trkpt lat="34.8110269" lon="33.5285686"><ele>17.0</ele><time>2015-05-01T09:35:11.0000000+00:00</time></trkpt><trkpt lat="34.8110705" lon="33.5285376"><ele>17.0</ele><time>2015-05-01T09:35:12.0000000+00:00</time></trkpt><trkpt lat="34.8111115" lon="33.5285048"><ele>17.5</ele><time>2015-05-01T09:35:13.0000000+00:00</time></trkpt><trkpt lat="34.8111516" lon="33.5284713"><ele>17.8</ele><time>2015-05-01T09:35:14.0000000+00:00</time></trkpt><trkpt lat="34.8111899" lon="33.5284407"><ele>17.4</ele><time>2015-05-01T09:35:15.0000000+00:00</time></trkpt><trkpt lat="34.8112317" lon="33.5284068"><ele>17.7</ele><time>2015-05-01T09:35:16.0000000+00:00</time></trkpt><trkpt lat="34.8112759" lon="33.5283717"><ele>17.9</ele><time>2015-05-01T09:35:17.0000000+00:00</time></trkpt><trkpt lat="34.811315" lon="33.5283367"><ele>17.9</ele><time>2015-05-01T09:35:18.0000000+00:00</time></trkpt><trkpt lat="34.8113513" lon="33.5283009"><ele>18.0</ele><time>2015-05-01T09:35:19.0000000+00:00</time></trkpt><trkpt lat="34.8114048" lon="33.5282381"><ele>18.0</ele><time>2015-05-01T09:35:21.0000000+00:00</time></trkpt><trkpt lat="34.8114526" lon="33.5282242"><ele>18.8</ele><time>2015-05-01T09:36:28.0000000+00:00</time></trkpt><trkpt lat="34.8114955" lon="33.528175"><ele>19.0</ele><time>2015-05-01T09:36:31.0000000+00:00</time></trkpt><trkpt lat="34.8115471" lon="33.5281259"><ele>19.0</ele><time>2015-05-01T09:36:33.0000000+00:00</time></trkpt><trkpt lat="34.8116122" lon="33.5280755"><ele>19.0</ele><time>2015-05-01T09:36:35.0000000+00:00</time></trkpt><trkpt lat="34.8116763" lon="33.5280195"><ele>19.0</ele><time>2015-05-01T09:36:37.0000000+00:00</time></trkpt><trkpt lat="34.8117117" lon="33.5279852"><ele>19.0</ele><time>2015-05-01T09:36:38.0000000+00:00</time></trkpt><trkpt lat="34.8117857" lon="33.5279187"><ele>19.0</ele><time>2015-05-01T09:36:40.0000000+00:00</time></trkpt><trkpt lat="34.8118672" lon="33.5278419"><ele>19.5</ele><time>2015-05-01T09:36:42.0000000+00:00</time></trkpt><trkpt lat="34.8119045" lon="33.527808"><ele>19.8</ele><time>2015-05-01T09:36:43.0000000+00:00</time></trkpt><trkpt lat="34.8119435" lon="33.5277758"><ele>19.9</ele><time>2015-05-01T09:36:44.0000000+00:00</time></trkpt><trkpt lat="34.8119832" lon="33.5277402"><ele>20.0</ele><time>2015-05-01T09:36:45.0000000+00:00</time></trkpt><trkpt lat="34.8120279" lon="33.5277082"><ele>20.0</ele><time>2015-05-01T09:36:46.0000000+00:00</time></trkpt><trkpt lat="34.812068" lon="33.5276732"><ele>20.0</ele><time>2015-05-01T09:36:47.0000000+00:00</time></trkpt><trkpt lat="34.8121075" lon="33.5276323"><ele>20.0</ele><time>2015-05-01T09:36:48.0000000+00:00</time></trkpt><trkpt lat="34.812152" lon="33.5276001"><ele>20.0</ele><time>2015-05-01T09:36:49.0000000+00:00</time></trkpt><trkpt lat="34.812195" lon="33.5275662"><ele>20.0</ele><time>2015-05-01T09:36:50.0000000+00:00</time></trkpt><trkpt lat="34.8122364" lon="33.5275314"><ele>20.0</ele><time>2015-05-01T09:36:51.0000000+00:00</time></trkpt><trkpt lat="34.8122793" lon="33.5274971"><ele>20.0</ele><time>2015-05-01T09:36:52.0000000+00:00</time></trkpt><trkpt lat="34.8123222" lon="33.5274637"><ele>20.5</ele><time>2015-05-01T09:36:53.0000000+00:00</time></trkpt><trkpt lat="34.8123664" lon="33.5274315"><ele>20.3</ele><time>2015-05-01T09:36:54.0000000+00:00</time></trkpt><trkpt lat="34.8124078" lon="33.5274005"><ele>20.1</ele><time>2015-05-01T09:36:55.0000000+00:00</time></trkpt><trkpt lat="34.8124815" lon="33.5273518"><ele>20.1</ele><time>2015-05-01T09:36:57.0000000+00:00</time></trkpt><trkpt lat="34.8125223" lon="33.5273197"><ele>20.0</ele><time>2015-05-01T09:36:58.0000000+00:00</time></trkpt><trkpt lat="34.8125616" lon="33.5272898"><ele>20.5</ele><time>2015-05-01T09:36:59.0000000+00:00</time></trkpt><trkpt lat="34.8126104" lon="33.5272569"><ele>20.8</ele><time>2015-05-01T09:37:00.0000000+00:00</time></trkpt><trkpt lat="34.8126499" lon="33.5272276"><ele>20.9</ele><time>2015-05-01T09:37:01.0000000+00:00</time></trkpt><trkpt lat="34.8126924" lon="33.5271996"><ele>21.0</ele><time>2015-05-01T09:37:02.0000000+00:00</time></trkpt><trkpt lat="34.8127316" lon="33.5271695"><ele>21.0</ele><time>2015-05-01T09:37:03.0000000+00:00</time></trkpt><trkpt lat="34.812772" lon="33.5271384"><ele>21.5</ele><time>2015-05-01T09:37:04.0000000+00:00</time></trkpt><trkpt lat="34.8128528" lon="33.5270856"><ele>21.9</ele><time>2015-05-01T09:37:06.0000000+00:00</time></trkpt><trkpt lat="34.8128955" lon="33.5270587"><ele>22.0</ele><time>2015-05-01T09:37:07.0000000+00:00</time></trkpt><trkpt lat="34.8129451" lon="33.5270268"><ele>22.0</ele><time>2015-05-01T09:37:08.0000000+00:00</time></trkpt><trkpt lat="34.8129879" lon="33.5269993"><ele>22.0</ele><time>2015-05-01T09:37:09.0000000+00:00</time></trkpt><trkpt lat="34.8130306" lon="33.5269768"><ele>22.0</ele><time>2015-05-01T09:37:10.0000000+00:00</time></trkpt><trkpt lat="34.8130739" lon="33.5269534"><ele>22.0</ele><time>2015-05-01T09:37:11.0000000+00:00</time></trkpt><trkpt lat="34.8131553" lon="33.5269005"><ele>21.3</ele><time>2015-05-01T09:37:13.0000000+00:00</time></trkpt><trkpt lat="34.813204" lon="33.5268771"><ele>21.1</ele><time>2015-05-01T09:37:14.0000000+00:00</time></trkpt><trkpt lat="34.8132481" lon="33.5268536"><ele>21.1</ele><time>2015-05-01T09:37:15.0000000+00:00</time></trkpt><trkpt lat="34.8132982" lon="33.5268293"><ele>21.6</ele><time>2015-05-01T09:37:16.0000000+00:00</time></trkpt><trkpt lat="34.8133404" lon="33.5268023"><ele>21.8</ele><time>2015-05-01T09:37:17.0000000+00:00</time></trkpt><trkpt lat="34.8133853" lon="33.5267776"><ele>21.9</ele><time>2015-05-01T09:37:18.0000000+00:00</time></trkpt><trkpt lat="34.8134732" lon="33.526734"><ele>22.7</ele><time>2015-05-01T09:37:20.0000000+00:00</time></trkpt><trkpt lat="34.813523" lon="33.5267094"><ele>22.9</ele><time>2015-05-01T09:37:21.0000000+00:00</time></trkpt><trkpt lat="34.8135676" lon="33.5266857"><ele>23.0</ele><time>2015-05-01T09:37:22.0000000+00:00</time></trkpt><trkpt lat="34.8136122" lon="33.5266618"><ele>23.0</ele><time>2015-05-01T09:37:23.0000000+00:00</time></trkpt><trkpt lat="34.8136561" lon="33.5266322"><ele>23.5</ele><time>2015-05-01T09:37:24.0000000+00:00</time></trkpt><trkpt lat="34.8137008" lon="33.5266064"><ele>23.8</ele><time>2015-05-01T09:37:25.0000000+00:00</time></trkpt><trkpt lat="34.813744" lon="33.5265808"><ele>23.9</ele><time>2015-05-01T09:37:26.0000000+00:00</time></trkpt><trkpt lat="34.8137893" lon="33.5265557"><ele>24.0</ele><time>2015-05-01T09:37:27.0000000+00:00</time></trkpt><trkpt lat="34.8138345" lon="33.5265338"><ele>24.0</ele><time>2015-05-01T09:37:28.0000000+00:00</time></trkpt><trkpt lat="34.8138796" lon="33.526509"><ele>24.0</ele><time>2015-05-01T09:37:29.0000000+00:00</time></trkpt><trkpt lat="34.8139262" lon="33.5264885"><ele>24.0</ele><time>2015-05-01T09:37:30.0000000+00:00</time></trkpt><trkpt lat="34.8139706" lon="33.5264637"><ele>24.0</ele><time>2015-05-01T09:37:31.0000000+00:00</time></trkpt><trkpt lat="34.814018" lon="33.5264356"><ele>24.0</ele><time>2015-05-01T09:37:32.0000000+00:00</time></trkpt><trkpt lat="34.8140634" lon="33.5264101"><ele>24.0</ele><time>2015-05-01T09:37:33.0000000+00:00</time></trkpt><trkpt lat="34.8141074" lon="33.5263861"><ele>24.5</ele><time>2015-05-01T09:37:34.0000000+00:00</time></trkpt><trkpt lat="34.8141954" lon="33.5263454"><ele>24.9</ele><time>2015-05-01T09:37:36.0000000+00:00</time></trkpt><trkpt lat="34.8142393" lon="33.5263236"><ele>25.0</ele><time>2015-05-01T09:37:37.0000000+00:00</time></trkpt><trkpt lat="34.8142837" lon="33.5263001"><ele>25.0</ele><time>2015-05-01T09:37:38.0000000+00:00</time></trkpt><trkpt lat="34.814327" lon="33.526276"><ele>25.0</ele><time>2015-05-01T09:37:39.0000000+00:00</time></trkpt><trkpt lat="34.8143702" lon="33.5262528"><ele>25.0</ele><time>2015-05-01T09:37:40.0000000+00:00</time></trkpt><trkpt lat="34.8144124" lon="33.5262285"><ele>25.0</ele><time>2015-05-01T09:37:41.0000000+00:00</time></trkpt><trkpt lat="34.8144922" lon="33.5261847"><ele>25.0</ele><time>2015-05-01T09:37:43.0000000+00:00</time></trkpt><trkpt lat="34.8145383" lon="33.5261613"><ele>25.0</ele><time>2015-05-01T09:37:44.0000000+00:00</time></trkpt><trkpt lat="34.8145815" lon="33.5261396"><ele>25.0</ele><time>2015-05-01T09:37:45.0000000+00:00</time></trkpt><trkpt lat="34.8146232" lon="33.5261145"><ele>24.5</ele><time>2015-05-01T09:37:46.0000000+00:00</time></trkpt><trkpt lat="34.8146651" lon="33.5260897"><ele>24.3</ele><time>2015-05-01T09:37:47.0000000+00:00</time></trkpt><trkpt lat="34.8147121" lon="33.5260694"><ele>24.6</ele><time>2015-05-01T09:37:48.0000000+00:00</time></trkpt><trkpt lat="34.8147919" lon="33.5260184"><ele>24.9</ele><time>2015-05-01T09:37:50.0000000+00:00</time></trkpt><trkpt lat="34.8148332" lon="33.5259851"><ele>25.5</ele><time>2015-05-01T09:37:51.0000000+00:00</time></trkpt><trkpt lat="34.8148711" lon="33.525949"><ele>25.7</ele><time>2015-05-01T09:37:52.0000000+00:00</time></trkpt><trkpt lat="34.8149117" lon="33.5259145"><ele>25.9</ele><time>2015-05-01T09:37:53.0000000+00:00</time></trkpt><trkpt lat="34.8149512" lon="33.5258821"><ele>26.0</ele><time>2015-05-01T09:37:54.0000000+00:00</time></trkpt><trkpt lat="34.8149892" lon="33.5258399"><ele>26.0</ele><time>2015-05-01T09:37:55.0000000+00:00</time></trkpt><trkpt lat="34.8150236" lon="33.5258"><ele>26.0</ele><time>2015-05-01T09:37:56.0000000+00:00</time></trkpt><trkpt lat="34.8150607" lon="33.5257626"><ele>26.0</ele><time>2015-05-01T09:37:57.0000000+00:00</time></trkpt><trkpt lat="34.8151232" lon="33.5256835"><ele>26.0</ele><time>2015-05-01T09:37:59.0000000+00:00</time></trkpt><trkpt lat="34.8151844" lon="33.525606"><ele>25.3</ele><time>2015-05-01T09:38:01.0000000+00:00</time></trkpt><trkpt lat="34.815235" lon="33.5255215"><ele>25.6</ele><time>2015-05-01T09:38:03.0000000+00:00</time></trkpt><trkpt lat="34.8152764" lon="33.5254449"><ele>25.2</ele><time>2015-05-01T09:38:05.0000000+00:00</time></trkpt><trkpt lat="34.8153129" lon="33.5253631"><ele>25.1</ele><time>2015-05-01T09:38:07.0000000+00:00</time></trkpt><trkpt lat="34.8153166" lon="33.5252806"><ele>25.0</ele><time>2015-05-01T09:38:09.0000000+00:00</time></trkpt><trkpt lat="34.8152804" lon="33.5252142"><ele>25.0</ele><time>2015-05-01T09:38:11.0000000+00:00</time></trkpt><trkpt lat="34.8152344" lon="33.5251481"><ele>25.8</ele><time>2015-05-01T09:38:13.0000000+00:00</time></trkpt><trkpt lat="34.8151956" lon="33.5251159"><ele>25.9</ele><time>2015-05-01T09:38:14.0000000+00:00</time></trkpt><trkpt lat="34.8151235" lon="33.5250532"><ele>26.0</ele><time>2015-05-01T09:38:16.0000000+00:00</time></trkpt><trkpt lat="34.815038" lon="33.5249872"><ele>26.0</ele><time>2015-05-01T09:38:18.0000000+00:00</time></trkpt><trkpt lat="34.8150015" lon="33.5249552"><ele>26.0</ele><time>2015-05-01T09:38:19.0000000+00:00</time></trkpt><trkpt lat="34.8149277" lon="33.5248934"><ele>26.0</ele><time>2015-05-01T09:38:21.0000000+00:00</time></trkpt><trkpt lat="34.8148892" lon="33.5248611"><ele>26.0</ele><time>2015-05-01T09:38:22.0000000+00:00</time></trkpt><trkpt lat="34.8148191" lon="33.5248022"><ele>26.0</ele><time>2015-05-01T09:38:24.0000000+00:00</time></trkpt><trkpt lat="34.8147485" lon="33.5247462"><ele>25.3</ele><time>2015-05-01T09:38:26.0000000+00:00</time></trkpt><trkpt lat="34.8147109" lon="33.5247152"><ele>25.1</ele><time>2015-05-01T09:38:27.0000000+00:00</time></trkpt><trkpt lat="34.814673" lon="33.524684"><ele>25.1</ele><time>2015-05-01T09:38:28.0000000+00:00</time></trkpt><trkpt lat="34.8145998" lon="33.5246283"><ele>24.5</ele><time>2015-05-01T09:38:30.0000000+00:00</time></trkpt><trkpt lat="34.8145271" lon="33.5245647"><ele>24.1</ele><time>2015-05-01T09:38:32.0000000+00:00</time></trkpt><trkpt lat="34.8144553" lon="33.524499"><ele>24.1</ele><time>2015-05-01T09:38:34.0000000+00:00</time></trkpt><trkpt lat="34.8143827" lon="33.5244391"><ele>24.0</ele><time>2015-05-01T09:38:36.0000000+00:00</time></trkpt><trkpt lat="34.8143086" lon="33.5243772"><ele>24.0</ele><time>2015-05-01T09:38:38.0000000+00:00</time></trkpt><trkpt lat="34.8142346" lon="33.5243161"><ele>24.0</ele><time>2015-05-01T09:38:40.0000000+00:00</time></trkpt><trkpt lat="34.8141609" lon="33.5242564"><ele>24.0</ele><time>2015-05-01T09:38:42.0000000+00:00</time></trkpt><trkpt lat="34.8140904" lon="33.5241951"><ele>24.0</ele><time>2015-05-01T09:38:44.0000000+00:00</time></trkpt><trkpt lat="34.8140193" lon="33.5241354"><ele>24.0</ele><time>2015-05-01T09:38:46.0000000+00:00</time></trkpt><trkpt lat="34.8139483" lon="33.5240747"><ele>24.0</ele><time>2015-05-01T09:38:48.0000000+00:00</time></trkpt><trkpt lat="34.8138789" lon="33.5240118"><ele>24.0</ele><time>2015-05-01T09:38:50.0000000+00:00</time></trkpt><trkpt lat="34.8138083" lon="33.5239502"><ele>24.0</ele><time>2015-05-01T09:38:52.0000000+00:00</time></trkpt><trkpt lat="34.813737" lon="33.5238884"><ele>24.0</ele><time>2015-05-01T09:38:54.0000000+00:00</time></trkpt><trkpt lat="34.8136652" lon="33.5238267"><ele>24.0</ele><time>2015-05-01T09:38:56.0000000+00:00</time></trkpt><trkpt lat="34.8135955" lon="33.5237625"><ele>23.5</ele><time>2015-05-01T09:38:58.0000000+00:00</time></trkpt><trkpt lat="34.8135239" lon="33.5236974"><ele>23.1</ele><time>2015-05-01T09:39:00.0000000+00:00</time></trkpt><trkpt lat="34.8134523" lon="33.5236336"><ele>23.1</ele><time>2015-05-01T09:39:02.0000000+00:00</time></trkpt><trkpt lat="34.813376" lon="33.5235764"><ele>23.0</ele><time>2015-05-01T09:39:04.0000000+00:00</time></trkpt><trkpt lat="34.8133069" lon="33.5235115"><ele>23.0</ele><time>2015-05-01T09:39:06.0000000+00:00</time></trkpt><trkpt lat="34.8132339" lon="33.5234477"><ele>23.0</ele><time>2015-05-01T09:39:08.0000000+00:00</time></trkpt><trkpt lat="34.8131974" lon="33.5234152"><ele>23.0</ele><time>2015-05-01T09:39:09.0000000+00:00</time></trkpt><trkpt lat="34.8131611" lon="33.523381"><ele>23.0</ele><time>2015-05-01T09:39:10.0000000+00:00</time></trkpt><trkpt lat="34.8130957" lon="33.5233195"><ele>23.0</ele><time>2015-05-01T09:39:12.0000000+00:00</time></trkpt><trkpt lat="34.8130248" lon="33.5232569"><ele>23.0</ele><time>2015-05-01T09:39:14.0000000+00:00</time></trkpt><trkpt lat="34.8129536" lon="33.5231961"><ele>23.0</ele><time>2015-05-01T09:39:16.0000000+00:00</time></trkpt><trkpt lat="34.8129166" lon="33.5231649"><ele>23.0</ele><time>2015-05-01T09:39:17.0000000+00:00</time></trkpt><trkpt lat="34.8128767" lon="33.5231356"><ele>22.5</ele><time>2015-05-01T09:39:18.0000000+00:00</time></trkpt><trkpt lat="34.8128394" lon="33.523104"><ele>22.3</ele><time>2015-05-01T09:39:19.0000000+00:00</time></trkpt><trkpt lat="34.812768" lon="33.5230386"><ele>22.1</ele><time>2015-05-01T09:39:21.0000000+00:00</time></trkpt><trkpt lat="34.8127294" lon="33.5230091"><ele>22.1</ele><time>2015-05-01T09:39:22.0000000+00:00</time></trkpt><trkpt lat="34.812692" lon="33.522977"><ele>22.0</ele><time>2015-05-01T09:39:23.0000000+00:00</time></trkpt><trkpt lat="34.8126554" lon="33.5229397"><ele>22.0</ele><time>2015-05-01T09:39:24.0000000+00:00</time></trkpt><trkpt lat="34.8126178" lon="33.5229069"><ele>22.0</ele><time>2015-05-01T09:39:25.0000000+00:00</time></trkpt><trkpt lat="34.8125436" lon="33.5228489"><ele>22.0</ele><time>2015-05-01T09:39:27.0000000+00:00</time></trkpt><trkpt lat="34.8125026" lon="33.5228172"><ele>22.0</ele><time>2015-05-01T09:39:28.0000000+00:00</time></trkpt><trkpt lat="34.8124641" lon="33.5227832"><ele>22.5</ele><time>2015-05-01T09:39:29.0000000+00:00</time></trkpt><trkpt lat="34.8123917" lon="33.5227239"><ele>22.6</ele><time>2015-05-01T09:39:31.0000000+00:00</time></trkpt><trkpt lat="34.8123201" lon="33.5226635"><ele>22.9</ele><time>2015-05-01T09:39:33.0000000+00:00</time></trkpt><trkpt lat="34.8122476" lon="33.5226021"><ele>23.0</ele><time>2015-05-01T09:39:35.0000000+00:00</time></trkpt><trkpt lat="34.8121756" lon="33.5225386"><ele>23.0</ele><time>2015-05-01T09:39:37.0000000+00:00</time></trkpt><trkpt lat="34.8121341" lon="33.5225064"><ele>23.0</ele><time>2015-05-01T09:39:38.0000000+00:00</time></trkpt><trkpt lat="34.8120649" lon="33.5224432"><ele>23.0</ele><time>2015-05-01T09:39:40.0000000+00:00</time></trkpt><trkpt lat="34.8119955" lon="33.5223802"><ele>23.0</ele><time>2015-05-01T09:39:42.0000000+00:00</time></trkpt><trkpt lat="34.8119246" lon="33.5223163"><ele>23.0</ele><time>2015-05-01T09:39:44.0000000+00:00</time></trkpt><trkpt lat="34.8118532" lon="33.5222524"><ele>23.0</ele><time>2015-05-01T09:39:46.0000000+00:00</time></trkpt><trkpt lat="34.8118155" lon="33.5222215"><ele>23.0</ele><time>2015-05-01T09:39:47.0000000+00:00</time></trkpt><trkpt lat="34.8117473" lon="33.5221556"><ele>23.0</ele><time>2015-05-01T09:39:49.0000000+00:00</time></trkpt><trkpt lat="34.8117101" lon="33.5221216"><ele>23.0</ele><time>2015-05-01T09:39:50.0000000+00:00</time></trkpt><trkpt lat="34.8116352" lon="33.5220594"><ele>23.0</ele><time>2015-05-01T09:39:52.0000000+00:00</time></trkpt><trkpt lat="34.8115975" lon="33.5220277"><ele>22.5</ele><time>2015-05-01T09:39:53.0000000+00:00</time></trkpt><trkpt lat="34.8115563" lon="33.5219945"><ele>22.8</ele><time>2015-05-01T09:39:54.0000000+00:00</time></trkpt><trkpt lat="34.8115193" lon="33.5219612"><ele>22.9</ele><time>2015-05-01T09:39:55.0000000+00:00</time></trkpt><trkpt lat="34.8114575" lon="33.5219076"><ele>23.0</ele><time>2015-05-01T09:39:57.0000000+00:00</time></trkpt><trkpt lat="34.8113982" lon="33.5218501"><ele>23.0</ele><time>2015-05-01T09:39:59.0000000+00:00</time></trkpt><trkpt lat="34.81136" lon="33.5218199"><ele>23.0</ele><time>2015-05-01T09:40:00.0000000+00:00</time></trkpt><trkpt lat="34.8112932" lon="33.5217564"><ele>22.3</ele><time>2015-05-01T09:40:02.0000000+00:00</time></trkpt><trkpt lat="34.8112239" lon="33.5216956"><ele>22.8</ele><time>2015-05-01T09:40:04.0000000+00:00</time></trkpt><trkpt lat="34.8111605" lon="33.5216382"><ele>22.2</ele><time>2015-05-01T09:40:06.0000000+00:00</time></trkpt><trkpt lat="34.8110991" lon="33.5215865"><ele>22.1</ele><time>2015-05-01T09:40:08.0000000+00:00</time></trkpt><trkpt lat="34.8110344" lon="33.5215384"><ele>22.0</ele><time>2015-05-01T09:40:10.0000000+00:00</time></trkpt><trkpt lat="34.8109678" lon="33.5214848"><ele>22.5</ele><time>2015-05-01T09:40:12.0000000+00:00</time></trkpt><trkpt lat="34.8109004" lon="33.5214278"><ele>22.9</ele><time>2015-05-01T09:40:14.0000000+00:00</time></trkpt><trkpt lat="34.810832" lon="33.5213712"><ele>23.0</ele><time>2015-05-01T09:40:16.0000000+00:00</time></trkpt><trkpt lat="34.8107647" lon="33.521315"><ele>23.0</ele><time>2015-05-01T09:40:18.0000000+00:00</time></trkpt><trkpt lat="34.8106942" lon="33.5212544"><ele>22.3</ele><time>2015-05-01T09:40:20.0000000+00:00</time></trkpt><trkpt lat="34.8106271" lon="33.5211947"><ele>22.6</ele><time>2015-05-01T09:40:22.0000000+00:00</time></trkpt><trkpt lat="34.8105607" lon="33.5211332"><ele>22.4</ele><time>2015-05-01T09:40:24.0000000+00:00</time></trkpt><trkpt lat="34.8104915" lon="33.5210722"><ele>22.1</ele><time>2015-05-01T09:40:26.0000000+00:00</time></trkpt><trkpt lat="34.8104208" lon="33.5210093"><ele>22.0</ele><time>2015-05-01T09:40:28.0000000+00:00</time></trkpt><trkpt lat="34.8103383" lon="33.5209355"><ele>22.0</ele><time>2015-05-01T09:40:30.0000000+00:00</time></trkpt><trkpt lat="34.8103021" lon="33.5209018"><ele>22.0</ele><time>2015-05-01T09:40:31.0000000+00:00</time></trkpt><trkpt lat="34.8102613" lon="33.5208674"><ele>22.0</ele><time>2015-05-01T09:40:32.0000000+00:00</time></trkpt><trkpt lat="34.8102199" lon="33.5208372"><ele>22.0</ele><time>2015-05-01T09:40:33.0000000+00:00</time></trkpt><trkpt lat="34.8101792" lon="33.5207992"><ele>22.5</ele><time>2015-05-01T09:40:34.0000000+00:00</time></trkpt><trkpt lat="34.8101398" lon="33.5207647"><ele>22.8</ele><time>2015-05-01T09:40:35.0000000+00:00</time></trkpt><trkpt lat="34.8100986" lon="33.5207301"><ele>22.9</ele><time>2015-05-01T09:40:36.0000000+00:00</time></trkpt><trkpt lat="34.810058" lon="33.5206966"><ele>22.5</ele><time>2015-05-01T09:40:37.0000000+00:00</time></trkpt><trkpt lat="34.809985" lon="33.5206281"><ele>22.4</ele><time>2015-05-01T09:40:39.0000000+00:00</time></trkpt><trkpt lat="34.8099467" lon="33.5205994"><ele>22.2</ele><time>2015-05-01T09:40:40.0000000+00:00</time></trkpt><trkpt lat="34.8099088" lon="33.5205662"><ele>22.1</ele><time>2015-05-01T09:40:41.0000000+00:00</time></trkpt><trkpt lat="34.8098676" lon="33.5205346"><ele>22.1</ele><time>2015-05-01T09:40:42.0000000+00:00</time></trkpt><trkpt lat="34.8098294" lon="33.5205012"><ele>22.0</ele><time>2015-05-01T09:40:43.0000000+00:00</time></trkpt><trkpt lat="34.8097913" lon="33.520469"><ele>22.0</ele><time>2015-05-01T09:40:44.0000000+00:00</time></trkpt><trkpt lat="34.8097538" lon="33.5204344"><ele>22.0</ele><time>2015-05-01T09:40:45.0000000+00:00</time></trkpt><trkpt lat="34.8096866" lon="33.5203762"><ele>21.5</ele><time>2015-05-01T09:40:47.0000000+00:00</time></trkpt><trkpt lat="34.8096208" lon="33.5203126"><ele>21.9</ele><time>2015-05-01T09:40:49.0000000+00:00</time></trkpt><trkpt lat="34.8095629" lon="33.5202514"><ele>22.0</ele><time>2015-05-01T09:40:51.0000000+00:00</time></trkpt><trkpt lat="34.8094917" lon="33.5201908"><ele>22.0</ele><time>2015-05-01T09:40:53.0000000+00:00</time></trkpt><trkpt lat="34.8094523" lon="33.5201568"><ele>22.0</ele><time>2015-05-01T09:40:54.0000000+00:00</time></trkpt><trkpt lat="34.8093774" lon="33.5200941"><ele>22.0</ele><time>2015-05-01T09:40:56.0000000+00:00</time></trkpt><trkpt lat="34.8093401" lon="33.5200614"><ele>22.0</ele><time>2015-05-01T09:40:57.0000000+00:00</time></trkpt><trkpt lat="34.8093104" lon="33.5200182"><ele>22.0</ele><time>2015-05-01T09:40:58.0000000+00:00</time></trkpt><trkpt lat="34.8092744" lon="33.5199841"><ele>22.0</ele><time>2015-05-01T09:40:59.0000000+00:00</time></trkpt><trkpt lat="34.8092354" lon="33.5199457"><ele>21.5</ele><time>2015-05-01T09:41:00.0000000+00:00</time></trkpt><trkpt lat="34.8091983" lon="33.5199121"><ele>21.3</ele><time>2015-05-01T09:41:01.0000000+00:00</time></trkpt><trkpt lat="34.8091563" lon="33.5198721"><ele>21.1</ele><time>2015-05-01T09:41:02.0000000+00:00</time></trkpt><trkpt lat="34.8091194" lon="33.519837"><ele>21.1</ele><time>2015-05-01T09:41:03.0000000+00:00</time></trkpt><trkpt lat="34.8090771" lon="33.5197977"><ele>21.6</ele><time>2015-05-01T09:41:04.0000000+00:00</time></trkpt><trkpt lat="34.8090368" lon="33.5197609"><ele>21.3</ele><time>2015-05-01T09:41:05.0000000+00:00</time></trkpt><trkpt lat="34.8089972" lon="33.5197248"><ele>21.2</ele><time>2015-05-01T09:41:06.0000000+00:00</time></trkpt><trkpt lat="34.8089203" lon="33.5196619"><ele>21.8</ele><time>2015-05-01T09:41:08.0000000+00:00</time></trkpt><trkpt lat="34.8088804" lon="33.5196247"><ele>21.9</ele><time>2015-05-01T09:41:09.0000000+00:00</time></trkpt><trkpt lat="34.8088361" lon="33.5195873"><ele>22.0</ele><time>2015-05-01T09:41:10.0000000+00:00</time></trkpt><trkpt lat="34.8087952" lon="33.5195497"><ele>22.0</ele><time>2015-05-01T09:41:11.0000000+00:00</time></trkpt><trkpt lat="34.8087588" lon="33.5195078"><ele>22.0</ele><time>2015-05-01T09:41:12.0000000+00:00</time></trkpt><trkpt lat="34.8087186" lon="33.5194703"><ele>22.0</ele><time>2015-05-01T09:41:13.0000000+00:00</time></trkpt><trkpt lat="34.8086766" lon="33.5194382"><ele>22.0</ele><time>2015-05-01T09:41:14.0000000+00:00</time></trkpt><trkpt lat="34.8086368" lon="33.5194015"><ele>22.0</ele><time>2015-05-01T09:41:15.0000000+00:00</time></trkpt><trkpt lat="34.8085998" lon="33.5193702"><ele>22.0</ele><time>2015-05-01T09:41:16.0000000+00:00</time></trkpt><trkpt lat="34.808561" lon="33.5193348"><ele>22.0</ele><time>2015-05-01T09:41:17.0000000+00:00</time></trkpt><trkpt lat="34.8084948" lon="33.5192653"><ele>22.0</ele><time>2015-05-01T09:41:19.0000000+00:00</time></trkpt><trkpt lat="34.8084592" lon="33.5192264"><ele>22.0</ele><time>2015-05-01T09:41:20.0000000+00:00</time></trkpt><trkpt lat="34.8084157" lon="33.5191934"><ele>22.0</ele><time>2015-05-01T09:41:21.0000000+00:00</time></trkpt><trkpt lat="34.8083789" lon="33.5191533"><ele>22.5</ele><time>2015-05-01T09:41:22.0000000+00:00</time></trkpt><trkpt lat="34.808309" lon="33.519091"><ele>22.1</ele><time>2015-05-01T09:41:24.0000000+00:00</time></trkpt><trkpt lat="34.8082372" lon="33.5190202"><ele>22.6</ele><time>2015-05-01T09:41:26.0000000+00:00</time></trkpt><trkpt lat="34.8082023" lon="33.5189844"><ele>22.8</ele><time>2015-05-01T09:41:27.0000000+00:00</time></trkpt><trkpt lat="34.8081642" lon="33.5189478"><ele>22.9</ele><time>2015-05-01T09:41:28.0000000+00:00</time></trkpt><trkpt lat="34.8081276" lon="33.5189136"><ele>23.0</ele><time>2015-05-01T09:41:29.0000000+00:00</time></trkpt><trkpt lat="34.8080956" lon="33.5188711"><ele>23.0</ele><time>2015-05-01T09:41:30.0000000+00:00</time></trkpt><trkpt lat="34.8080603" lon="33.518836"><ele>23.0</ele><time>2015-05-01T09:41:31.0000000+00:00</time></trkpt><trkpt lat="34.8080215" lon="33.5188034"><ele>23.0</ele><time>2015-05-01T09:41:32.0000000+00:00</time></trkpt><trkpt lat="34.8079576" lon="33.5187348"><ele>23.0</ele><time>2015-05-01T09:41:34.0000000+00:00</time></trkpt><trkpt lat="34.8078954" lon="33.5186852"><ele>23.0</ele><time>2015-05-01T09:41:36.0000000+00:00</time></trkpt><trkpt lat="34.8078364" lon="33.5186144"><ele>23.0</ele><time>2015-05-01T09:41:38.0000000+00:00</time></trkpt><trkpt lat="34.8077743" lon="33.5185447"><ele>23.0</ele><time>2015-05-01T09:41:40.0000000+00:00</time></trkpt><trkpt lat="34.8077368" lon="33.5185124"><ele>23.0</ele><time>2015-05-01T09:41:41.0000000+00:00</time></trkpt><trkpt lat="34.8077015" lon="33.5184764"><ele>23.0</ele><time>2015-05-01T09:41:42.0000000+00:00</time></trkpt><trkpt lat="34.8076651" lon="33.5184398"><ele>23.0</ele><time>2015-05-01T09:41:43.0000000+00:00</time></trkpt><trkpt lat="34.8075951" lon="33.5183727"><ele>23.0</ele><time>2015-05-01T09:41:45.0000000+00:00</time></trkpt><trkpt lat="34.8075287" lon="33.5183024"><ele>23.0</ele><time>2015-05-01T09:41:47.0000000+00:00</time></trkpt><trkpt lat="34.8074941" lon="33.5182638"><ele>23.0</ele><time>2015-05-01T09:41:48.0000000+00:00</time></trkpt><trkpt lat="34.80742" lon="33.5182038"><ele>23.0</ele><time>2015-05-01T09:41:50.0000000+00:00</time></trkpt><trkpt lat="34.8073821" lon="33.5181737"><ele>23.0</ele><time>2015-05-01T09:41:51.0000000+00:00</time></trkpt><trkpt lat="34.8073398" lon="33.5181395"><ele>22.5</ele><time>2015-05-01T09:41:52.0000000+00:00</time></trkpt><trkpt lat="34.807301" lon="33.5181056"><ele>22.3</ele><time>2015-05-01T09:41:53.0000000+00:00</time></trkpt><trkpt lat="34.8072612" lon="33.5180697"><ele>22.1</ele><time>2015-05-01T09:41:54.0000000+00:00</time></trkpt><trkpt lat="34.8072209" lon="33.518033"><ele>21.6</ele><time>2015-05-01T09:41:55.0000000+00:00</time></trkpt><trkpt lat="34.807178" lon="33.5179938"><ele>21.3</ele><time>2015-05-01T09:41:56.0000000+00:00</time></trkpt><trkpt lat="34.8071358" lon="33.5179574"><ele>21.2</ele><time>2015-05-01T09:41:57.0000000+00:00</time></trkpt><trkpt lat="34.8070922" lon="33.5179222"><ele>21.1</ele><time>2015-05-01T09:41:58.0000000+00:00</time></trkpt><trkpt lat="34.8070498" lon="33.5178862"><ele>20.6</ele><time>2015-05-01T09:41:59.0000000+00:00</time></trkpt><trkpt lat="34.807003" lon="33.5178512"><ele>19.8</ele><time>2015-05-01T09:42:00.0000000+00:00</time></trkpt><trkpt lat="34.8069588" lon="33.5178138"><ele>19.4</ele><time>2015-05-01T09:42:01.0000000+00:00</time></trkpt><trkpt lat="34.8069121" lon="33.5177715"><ele>19.7</ele><time>2015-05-01T09:42:02.0000000+00:00</time></trkpt><trkpt lat="34.8068676" lon="33.517733"><ele>19.4</ele><time>2015-05-01T09:42:03.0000000+00:00</time></trkpt><trkpt lat="34.8068211" lon="33.5176936"><ele>19.7</ele><time>2015-05-01T09:42:04.0000000+00:00</time></trkpt><trkpt lat="34.8067752" lon="33.5176557"><ele>19.9</ele><time>2015-05-01T09:42:05.0000000+00:00</time></trkpt><trkpt lat="34.8067277" lon="33.5176244"><ele>19.9</ele><time>2015-05-01T09:42:06.0000000+00:00</time></trkpt><trkpt lat="34.8066822" lon="33.517588"><ele>20.0</ele><time>2015-05-01T09:42:07.0000000+00:00</time></trkpt><trkpt lat="34.8066404" lon="33.5175464"><ele>19.5</ele><time>2015-05-01T09:42:08.0000000+00:00</time></trkpt><trkpt lat="34.8066027" lon="33.5175019"><ele>19.8</ele><time>2015-05-01T09:42:09.0000000+00:00</time></trkpt><trkpt lat="34.8065566" lon="33.5174611"><ele>19.4</ele><time>2015-05-01T09:42:10.0000000+00:00</time></trkpt><trkpt lat="34.8065148" lon="33.5174236"><ele>19.2</ele><time>2015-05-01T09:42:11.0000000+00:00</time></trkpt><trkpt lat="34.8064673" lon="33.5173798"><ele>19.1</ele><time>2015-05-01T09:42:12.0000000+00:00</time></trkpt><trkpt lat="34.8064243" lon="33.5173379"><ele>19.1</ele><time>2015-05-01T09:42:13.0000000+00:00</time></trkpt><trkpt lat="34.8063805" lon="33.5172945"><ele>19.0</ele><time>2015-05-01T09:42:14.0000000+00:00</time></trkpt><trkpt lat="34.8063384" lon="33.517252"><ele>19.0</ele><time>2015-05-01T09:42:15.0000000+00:00</time></trkpt><trkpt lat="34.8062953" lon="33.5172105"><ele>19.5</ele><time>2015-05-01T09:42:16.0000000+00:00</time></trkpt><trkpt lat="34.8062542" lon="33.5171685"><ele>19.8</ele><time>2015-05-01T09:42:17.0000000+00:00</time></trkpt><trkpt lat="34.8062113" lon="33.5171293"><ele>19.9</ele><time>2015-05-01T09:42:18.0000000+00:00</time></trkpt><trkpt lat="34.8061712" lon="33.5170874"><ele>20.0</ele><time>2015-05-01T09:42:19.0000000+00:00</time></trkpt><trkpt lat="34.8061327" lon="33.5170409"><ele>20.0</ele><time>2015-05-01T09:42:20.0000000+00:00</time></trkpt><trkpt lat="34.8060922" lon="33.5169969"><ele>20.0</ele><time>2015-05-01T09:42:21.0000000+00:00</time></trkpt><trkpt lat="34.8060534" lon="33.5169463"><ele>20.0</ele><time>2015-05-01T09:42:22.0000000+00:00</time></trkpt><trkpt lat="34.80602" lon="33.5168966"><ele>20.0</ele><time>2015-05-01T09:42:23.0000000+00:00</time></trkpt><trkpt lat="34.8059805" lon="33.516846"><ele>20.0</ele><time>2015-05-01T09:42:24.0000000+00:00</time></trkpt><trkpt lat="34.8059366" lon="33.5167949"><ele>19.5</ele><time>2015-05-01T09:42:25.0000000+00:00</time></trkpt><trkpt lat="34.8058936" lon="33.516746"><ele>19.3</ele><time>2015-05-01T09:42:26.0000000+00:00</time></trkpt><trkpt lat="34.8058526" lon="33.516696"><ele>19.1</ele><time>2015-05-01T09:42:27.0000000+00:00</time></trkpt><trkpt lat="34.8058128" lon="33.5166512"><ele>19.1</ele><time>2015-05-01T09:42:28.0000000+00:00</time></trkpt><trkpt lat="34.8057739" lon="33.5166012"><ele>19.1</ele><time>2015-05-01T09:42:29.0000000+00:00</time></trkpt><trkpt lat="34.8057318" lon="33.5165511"><ele>19.0</ele><time>2015-05-01T09:42:30.0000000+00:00</time></trkpt><trkpt lat="34.8056923" lon="33.5165004"><ele>19.0</ele><time>2015-05-01T09:42:31.0000000+00:00</time></trkpt><trkpt lat="34.8056539" lon="33.5164442"><ele>19.0</ele><time>2015-05-01T09:42:32.0000000+00:00</time></trkpt><trkpt lat="34.8056168" lon="33.5163935"><ele>19.0</ele><time>2015-05-01T09:42:33.0000000+00:00</time></trkpt><trkpt lat="34.8055832" lon="33.5163398"><ele>19.0</ele><time>2015-05-01T09:42:34.0000000+00:00</time></trkpt><trkpt lat="34.805548" lon="33.5162889"><ele>19.0</ele><time>2015-05-01T09:42:35.0000000+00:00</time></trkpt><trkpt lat="34.805517" lon="33.5162353"><ele>19.5</ele><time>2015-05-01T09:42:36.0000000+00:00</time></trkpt><trkpt lat="34.8054823" lon="33.5161848"><ele>19.8</ele><time>2015-05-01T09:42:37.0000000+00:00</time></trkpt><trkpt lat="34.8054515" lon="33.516128"><ele>19.9</ele><time>2015-05-01T09:42:38.0000000+00:00</time></trkpt><trkpt lat="34.805421" lon="33.5160757"><ele>20.0</ele><time>2015-05-01T09:42:39.0000000+00:00</time></trkpt><trkpt lat="34.8053856" lon="33.5160183"><ele>20.0</ele><time>2015-05-01T09:42:40.0000000+00:00</time></trkpt><trkpt lat="34.8053576" lon="33.5159689"><ele>19.5</ele><time>2015-05-01T09:42:41.0000000+00:00</time></trkpt><trkpt lat="34.8053265" lon="33.515915"><ele>19.3</ele><time>2015-05-01T09:42:42.0000000+00:00</time></trkpt><trkpt lat="34.8052929" lon="33.51586"><ele>19.6</ele><time>2015-05-01T09:42:43.0000000+00:00</time></trkpt><trkpt lat="34.8052606" lon="33.5158025"><ele>19.8</ele><time>2015-05-01T09:42:44.0000000+00:00</time></trkpt><trkpt lat="34.8052287" lon="33.5157484"><ele>19.9</ele><time>2015-05-01T09:42:45.0000000+00:00</time></trkpt><trkpt lat="34.8052026" lon="33.515691"><ele>19.5</ele><time>2015-05-01T09:42:46.0000000+00:00</time></trkpt><trkpt lat="34.8051738" lon="33.5156361"><ele>19.2</ele><time>2015-05-01T09:42:47.0000000+00:00</time></trkpt><trkpt lat="34.8051423" lon="33.5155836"><ele>19.1</ele><time>2015-05-01T09:42:48.0000000+00:00</time></trkpt><trkpt lat="34.805113" lon="33.5155284"><ele>19.1</ele><time>2015-05-01T09:42:49.0000000+00:00</time></trkpt><trkpt lat="34.8050802" lon="33.5154724"><ele>19.0</ele><time>2015-05-01T09:42:50.0000000+00:00</time></trkpt><trkpt lat="34.8050519" lon="33.5154165"><ele>19.0</ele><time>2015-05-01T09:42:51.0000000+00:00</time></trkpt><trkpt lat="34.8050217" lon="33.5153532"><ele>18.5</ele><time>2015-05-01T09:42:52.0000000+00:00</time></trkpt><trkpt lat="34.8049904" lon="33.5153013"><ele>18.3</ele><time>2015-05-01T09:42:53.0000000+00:00</time></trkpt><trkpt lat="34.8049667" lon="33.5152496"><ele>18.1</ele><time>2015-05-01T09:42:54.0000000+00:00</time></trkpt><trkpt lat="34.804939" lon="33.5151948"><ele>18.1</ele><time>2015-05-01T09:42:55.0000000+00:00</time></trkpt><trkpt lat="34.8049203" lon="33.5151374"><ele>18.1</ele><time>2015-05-01T09:42:56.0000000+00:00</time></trkpt><trkpt lat="34.8048935" lon="33.5150826"><ele>18.0</ele><time>2015-05-01T09:42:57.0000000+00:00</time></trkpt><trkpt lat="34.8048746" lon="33.5150229"><ele>18.0</ele><time>2015-05-01T09:42:58.0000000+00:00</time></trkpt><trkpt lat="34.8048279" lon="33.5149269"><ele>18.0</ele><time>2015-05-01T09:43:00.0000000+00:00</time></trkpt><trkpt lat="34.804804" lon="33.5148735"><ele>18.0</ele><time>2015-05-01T09:43:01.0000000+00:00</time></trkpt><trkpt lat="34.8047844" lon="33.5148104"><ele>18.0</ele><time>2015-05-01T09:43:02.0000000+00:00</time></trkpt><trkpt lat="34.8047645" lon="33.514754"><ele>18.0</ele><time>2015-05-01T09:43:03.0000000+00:00</time></trkpt><trkpt lat="34.8047406" lon="33.5146918"><ele>19.0</ele><time>2015-05-01T09:43:04.0000000+00:00</time></trkpt><trkpt lat="34.804718" lon="33.5146366"><ele>19.5</ele><time>2015-05-01T09:43:05.0000000+00:00</time></trkpt><trkpt lat="34.8046919" lon="33.5145895"><ele>20.3</ele><time>2015-05-01T09:43:06.0000000+00:00</time></trkpt><trkpt lat="34.8046679" lon="33.5145343"><ele>20.6</ele><time>2015-05-01T09:43:07.0000000+00:00</time></trkpt><trkpt lat="34.8046461" lon="33.5144775"><ele>20.8</ele><time>2015-05-01T09:43:08.0000000+00:00</time></trkpt><trkpt lat="34.8046223" lon="33.5144216"><ele>20.9</ele><time>2015-05-01T09:43:09.0000000+00:00</time></trkpt><trkpt lat="34.8045914" lon="33.5143658"><ele>21.5</ele><time>2015-05-01T09:43:10.0000000+00:00</time></trkpt><trkpt lat="34.8045673" lon="33.5143122"><ele>21.7</ele><time>2015-05-01T09:43:11.0000000+00:00</time></trkpt><trkpt lat="34.8045515" lon="33.5142607"><ele>22.4</ele><time>2015-05-01T09:43:12.0000000+00:00</time></trkpt><trkpt lat="34.8045302" lon="33.514207"><ele>22.2</ele><time>2015-05-01T09:43:13.0000000+00:00</time></trkpt><trkpt lat="34.8045055" lon="33.5141561"><ele>22.1</ele><time>2015-05-01T09:43:14.0000000+00:00</time></trkpt><trkpt lat="34.8044791" lon="33.5141068"><ele>22.1</ele><time>2015-05-01T09:43:15.0000000+00:00</time></trkpt><trkpt lat="34.8044535" lon="33.5140548"><ele>22.0</ele><time>2015-05-01T09:43:16.0000000+00:00</time></trkpt><trkpt lat="34.8044298" lon="33.5139955"><ele>21.5</ele><time>2015-05-01T09:43:17.0000000+00:00</time></trkpt><trkpt lat="34.8044065" lon="33.513944"><ele>21.8</ele><time>2015-05-01T09:43:18.0000000+00:00</time></trkpt><trkpt lat="34.8043825" lon="33.5138942"><ele>21.9</ele><time>2015-05-01T09:43:19.0000000+00:00</time></trkpt><trkpt lat="34.8043622" lon="33.5138428"><ele>22.0</ele><time>2015-05-01T09:43:20.0000000+00:00</time></trkpt><trkpt lat="34.804321" lon="33.5137463"><ele>22.5</ele><time>2015-05-01T09:43:22.0000000+00:00</time></trkpt><trkpt lat="34.80428" lon="33.513656"><ele>22.9</ele><time>2015-05-01T09:43:24.0000000+00:00</time></trkpt><trkpt lat="34.8042383" lon="33.5135706"><ele>23.0</ele><time>2015-05-01T09:43:26.0000000+00:00</time></trkpt><trkpt lat="34.8041948" lon="33.513471"><ele>23.0</ele><time>2015-05-01T09:43:28.0000000+00:00</time></trkpt><trkpt lat="34.8041565" lon="33.5133715"><ele>23.0</ele><time>2015-05-01T09:43:30.0000000+00:00</time></trkpt><trkpt lat="34.8041156" lon="33.5132749"><ele>23.0</ele><time>2015-05-01T09:43:32.0000000+00:00</time></trkpt><trkpt lat="34.8040764" lon="33.5131783"><ele>23.0</ele><time>2015-05-01T09:43:34.0000000+00:00</time></trkpt><trkpt lat="34.8040385" lon="33.5130828"><ele>23.0</ele><time>2015-05-01T09:43:36.0000000+00:00</time></trkpt><trkpt lat="34.8039946" lon="33.5129906"><ele>23.0</ele><time>2015-05-01T09:43:38.0000000+00:00</time></trkpt><trkpt lat="34.8039506" lon="33.5128982"><ele>23.3</ele><time>2015-05-01T09:43:40.0000000+00:00</time></trkpt><trkpt lat="34.803909" lon="33.5128035"><ele>23.1</ele><time>2015-05-01T09:43:42.0000000+00:00</time></trkpt><trkpt lat="34.803866" lon="33.5127102"><ele>23.0</ele><time>2015-05-01T09:43:44.0000000+00:00</time></trkpt><trkpt lat="34.8038252" lon="33.5126178"><ele>23.0</ele><time>2015-05-01T09:43:46.0000000+00:00</time></trkpt><trkpt lat="34.8037857" lon="33.5125281"><ele>23.0</ele><time>2015-05-01T09:43:48.0000000+00:00</time></trkpt><trkpt lat="34.8037462" lon="33.5124379"><ele>22.5</ele><time>2015-05-01T09:43:50.0000000+00:00</time></trkpt><trkpt lat="34.8037096" lon="33.5123463"><ele>22.9</ele><time>2015-05-01T09:43:52.0000000+00:00</time></trkpt><trkpt lat="34.8036709" lon="33.5122546"><ele>23.0</ele><time>2015-05-01T09:43:54.0000000+00:00</time></trkpt><trkpt lat="34.8036353" lon="33.512167"><ele>23.0</ele><time>2015-05-01T09:43:56.0000000+00:00</time></trkpt><trkpt lat="34.8036066" lon="33.5121014"><ele>23.5</ele><time>2015-05-01T09:43:58.0000000+00:00</time></trkpt><trkpt lat="34.8035779" lon="33.5120415"><ele>23.9</ele><time>2015-05-01T09:44:00.0000000+00:00</time></trkpt><trkpt lat="34.8035565" lon="33.5119818"><ele>24.0</ele><time>2015-05-01T09:44:02.0000000+00:00</time></trkpt><trkpt lat="34.8035331" lon="33.5119264"><ele>24.0</ele><time>2015-05-01T09:44:04.0000000+00:00</time></trkpt><trkpt lat="34.8035085" lon="33.5118658"><ele>24.0</ele><time>2015-05-01T09:44:06.0000000+00:00</time></trkpt><trkpt lat="34.8034785" lon="33.5117896"><ele>24.0</ele><time>2015-05-01T09:44:08.0000000+00:00</time></trkpt><trkpt lat="34.8034412" lon="33.5117064"><ele>24.0</ele><time>2015-05-01T09:44:10.0000000+00:00</time></trkpt><trkpt lat="34.8034014" lon="33.5116174"><ele>24.0</ele><time>2015-05-01T09:44:12.0000000+00:00</time></trkpt><trkpt lat="34.8033618" lon="33.5115257"><ele>23.5</ele><time>2015-05-01T09:44:14.0000000+00:00</time></trkpt><trkpt lat="34.8033104" lon="33.5114176"><ele>23.6</ele><time>2015-05-01T09:44:16.0000000+00:00</time></trkpt><trkpt lat="34.8032672" lon="33.5113277"><ele>23.9</ele><time>2015-05-01T09:44:18.0000000+00:00</time></trkpt><trkpt lat="34.8032302" lon="33.5112462"><ele>24.0</ele><time>2015-05-01T09:44:20.0000000+00:00</time></trkpt><trkpt lat="34.8031972" lon="33.5111679"><ele>24.0</ele><time>2015-05-01T09:44:22.0000000+00:00</time></trkpt><trkpt lat="34.8031666" lon="33.5110852"><ele>24.0</ele><time>2015-05-01T09:44:24.0000000+00:00</time></trkpt><trkpt lat="34.8031277" lon="33.5110144"><ele>24.0</ele><time>2015-05-01T09:44:26.0000000+00:00</time></trkpt><trkpt lat="34.8030955" lon="33.5109374"><ele>24.5</ele><time>2015-05-01T09:44:28.0000000+00:00</time></trkpt><trkpt lat="34.8030658" lon="33.5108593"><ele>24.4</ele><time>2015-05-01T09:44:30.0000000+00:00</time></trkpt><trkpt lat="34.8030331" lon="33.5107803"><ele>24.4</ele><time>2015-05-01T09:44:32.0000000+00:00</time></trkpt><trkpt lat="34.8029965" lon="33.5107002"><ele>24.1</ele><time>2015-05-01T09:44:34.0000000+00:00</time></trkpt><trkpt lat="34.8029629" lon="33.5106213"><ele>24.0</ele><time>2015-05-01T09:44:36.0000000+00:00</time></trkpt><trkpt lat="34.8029364" lon="33.5105527"><ele>24.0</ele><time>2015-05-01T09:44:38.0000000+00:00</time></trkpt><trkpt lat="34.8029049" lon="33.5104792"><ele>24.0</ele><time>2015-05-01T09:44:40.0000000+00:00</time></trkpt><trkpt lat="34.8028718" lon="33.5104016"><ele>24.0</ele><time>2015-05-01T09:44:42.0000000+00:00</time></trkpt><trkpt lat="34.8028399" lon="33.5103253"><ele>24.0</ele><time>2015-05-01T09:44:44.0000000+00:00</time></trkpt><trkpt lat="34.8028068" lon="33.510251"><ele>24.0</ele><time>2015-05-01T09:44:46.0000000+00:00</time></trkpt><trkpt lat="34.8027701" lon="33.5101776"><ele>23.8</ele><time>2015-05-01T09:44:48.0000000+00:00</time></trkpt><trkpt lat="34.8027308" lon="33.5100859"><ele>23.5</ele><time>2015-05-01T09:44:50.0000000+00:00</time></trkpt><trkpt lat="34.8026881" lon="33.509983"><ele>23.1</ele><time>2015-05-01T09:44:52.0000000+00:00</time></trkpt><trkpt lat="34.8026533" lon="33.5098855"><ele>23.0</ele><time>2015-05-01T09:44:54.0000000+00:00</time></trkpt><trkpt lat="34.8026102" lon="33.5097937"><ele>23.0</ele><time>2015-05-01T09:44:56.0000000+00:00</time></trkpt><trkpt lat="34.8025904" lon="33.5097444"><ele>23.0</ele><time>2015-05-01T09:44:57.0000000+00:00</time></trkpt><trkpt lat="34.8025489" lon="33.5096506"><ele>23.0</ele><time>2015-05-01T09:44:59.0000000+00:00</time></trkpt><trkpt lat="34.8025238" lon="33.509596"><ele>23.0</ele><time>2015-05-01T09:45:00.0000000+00:00</time></trkpt><trkpt lat="34.8025031" lon="33.509545"><ele>23.0</ele><time>2015-05-01T09:45:01.0000000+00:00</time></trkpt><trkpt lat="34.8024775" lon="33.5094887"><ele>22.5</ele><time>2015-05-01T09:45:02.0000000+00:00</time></trkpt><trkpt lat="34.8024548" lon="33.5094363"><ele>22.3</ele><time>2015-05-01T09:45:03.0000000+00:00</time></trkpt><trkpt lat="34.8024158" lon="33.5093436"><ele>22.1</ele><time>2015-05-01T09:45:05.0000000+00:00</time></trkpt><trkpt lat="34.8023924" lon="33.5092942"><ele>22.1</ele><time>2015-05-01T09:45:06.0000000+00:00</time></trkpt><trkpt lat="34.8023567" lon="33.5092001"><ele>22.0</ele><time>2015-05-01T09:45:08.0000000+00:00</time></trkpt><trkpt lat="34.802311" lon="33.5090976"><ele>22.0</ele><time>2015-05-01T09:45:10.0000000+00:00</time></trkpt><trkpt lat="34.802288" lon="33.50905"><ele>22.0</ele><time>2015-05-01T09:45:11.0000000+00:00</time></trkpt><trkpt lat="34.8022639" lon="33.5089944"><ele>22.0</ele><time>2015-05-01T09:45:12.0000000+00:00</time></trkpt><trkpt lat="34.8022182" lon="33.5089019"><ele>22.0</ele><time>2015-05-01T09:45:14.0000000+00:00</time></trkpt><trkpt lat="34.802178" lon="33.5088064"><ele>22.0</ele><time>2015-05-01T09:45:16.0000000+00:00</time></trkpt><trkpt lat="34.802136" lon="33.5087052"><ele>22.0</ele><time>2015-05-01T09:45:18.0000000+00:00</time></trkpt><trkpt lat="34.8021141" lon="33.508657"><ele>22.0</ele><time>2015-05-01T09:45:19.0000000+00:00</time></trkpt><trkpt lat="34.8020715" lon="33.5085656"><ele>22.0</ele><time>2015-05-01T09:45:21.0000000+00:00</time></trkpt><trkpt lat="34.8020382" lon="33.5084919"><ele>22.8</ele><time>2015-05-01T09:45:23.0000000+00:00</time></trkpt><trkpt lat="34.8019948" lon="33.5084071"><ele>23.0</ele><time>2015-05-01T09:45:25.0000000+00:00</time></trkpt><trkpt lat="34.8019567" lon="33.5083157"><ele>23.0</ele><time>2015-05-01T09:45:27.0000000+00:00</time></trkpt><trkpt lat="34.8019349" lon="33.5082676"><ele>23.0</ele><time>2015-05-01T09:45:28.0000000+00:00</time></trkpt><trkpt lat="34.801892" lon="33.5081767"><ele>23.0</ele><time>2015-05-01T09:45:30.0000000+00:00</time></trkpt><trkpt lat="34.8018524" lon="33.5080872"><ele>23.5</ele><time>2015-05-01T09:45:32.0000000+00:00</time></trkpt><trkpt lat="34.8018146" lon="33.5079977"><ele>23.9</ele><time>2015-05-01T09:45:34.0000000+00:00</time></trkpt><trkpt lat="34.8017722" lon="33.5079108"><ele>24.7</ele><time>2015-05-01T09:45:36.0000000+00:00</time></trkpt><trkpt lat="34.8017284" lon="33.5078265"><ele>25.0</ele><time>2015-05-01T09:45:38.0000000+00:00</time></trkpt><trkpt lat="34.8016855" lon="33.5077477"><ele>25.8</ele><time>2015-05-01T09:45:40.0000000+00:00</time></trkpt><trkpt lat="34.8016491" lon="33.5076808"><ele>26.0</ele><time>2015-05-01T09:45:42.0000000+00:00</time></trkpt><trkpt lat="34.8016189" lon="33.5076271"><ele>26.0</ele><time>2015-05-01T09:45:44.0000000+00:00</time></trkpt><trkpt lat="34.801591" lon="33.5075777"><ele>27.3</ele><time>2015-05-01T09:45:46.0000000+00:00</time></trkpt><trkpt lat="34.8015592" lon="33.5075124"><ele>27.1</ele><time>2015-05-01T09:45:49.0000000+00:00</time></trkpt><trkpt lat="34.8015208" lon="33.5074591"><ele>27.9</ele><time>2015-05-01T09:45:53.0000000+00:00</time></trkpt><trkpt lat="34.8014883" lon="33.5074095"><ele>27.1</ele><time>2015-05-01T09:45:56.0000000+00:00</time></trkpt><trkpt lat="34.8014547" lon="33.507354"><ele>26.5</ele><time>2015-05-01T09:45:59.0000000+00:00</time></trkpt><trkpt lat="34.8014192" lon="33.5073019"><ele>27.7</ele><time>2015-05-01T09:46:03.0000000+00:00</time></trkpt><trkpt lat="34.8013812" lon="33.5072648"><ele>24.8</ele><time>2015-05-01T09:46:30.0000000+00:00</time></trkpt><trkpt lat="34.8013585" lon="33.507178"><ele>25.7</ele><time>2015-05-01T09:46:33.0000000+00:00</time></trkpt><trkpt lat="34.8013306" lon="33.5071147"><ele>26.7</ele><time>2015-05-01T09:46:35.0000000+00:00</time></trkpt><trkpt lat="34.8013083" lon="33.5070595"><ele>26.9</ele><time>2015-05-01T09:46:37.0000000+00:00</time></trkpt><trkpt lat="34.8012768" lon="33.5069894"><ele>26.4</ele><time>2015-05-01T09:46:40.0000000+00:00</time></trkpt><trkpt lat="34.8012402" lon="33.5069198"><ele>26.9</ele><time>2015-05-01T09:46:43.0000000+00:00</time></trkpt><trkpt lat="34.8012148" lon="33.5068729"><ele>25.8</ele><time>2015-05-01T09:46:45.0000000+00:00</time></trkpt><trkpt lat="34.8011906" lon="33.5068032"><ele>26.0</ele><time>2015-05-01T09:46:48.0000000+00:00</time></trkpt><trkpt lat="34.8011726" lon="33.5067413"><ele>27.6</ele><time>2015-05-01T09:46:51.0000000+00:00</time></trkpt><trkpt lat="34.8011499" lon="33.5066902"><ele>28.0</ele><time>2015-05-01T09:46:54.0000000+00:00</time></trkpt><trkpt lat="34.8011867" lon="33.5066473"><ele>27.1</ele><time>2015-05-01T09:46:58.0000000+00:00</time></trkpt><trkpt lat="34.8012425" lon="33.5066477"><ele>27.5</ele><time>2015-05-01T09:47:00.0000000+00:00</time></trkpt><trkpt lat="34.8013161" lon="33.506627"><ele>27.4</ele><time>2015-05-01T09:47:02.0000000+00:00</time></trkpt><trkpt lat="34.8013904" lon="33.5065861"><ele>27.6</ele><time>2015-05-01T09:47:04.0000000+00:00</time></trkpt><trkpt lat="34.8014659" lon="33.5065375"><ele>27.9</ele><time>2015-05-01T09:47:06.0000000+00:00</time></trkpt><trkpt lat="34.801542" lon="33.5064896"><ele>28.0</ele><time>2015-05-01T09:47:08.0000000+00:00</time></trkpt><trkpt lat="34.801619" lon="33.5064394"><ele>28.0</ele><time>2015-05-01T09:47:10.0000000+00:00</time></trkpt><trkpt lat="34.8016946" lon="33.5063839"><ele>27.8</ele><time>2015-05-01T09:47:12.0000000+00:00</time></trkpt><trkpt lat="34.8017591" lon="33.5063131"><ele>27.5</ele><time>2015-05-01T09:47:14.0000000+00:00</time></trkpt><trkpt lat="34.8018158" lon="33.5062313"><ele>27.4</ele><time>2015-05-01T09:47:16.0000000+00:00</time></trkpt><trkpt lat="34.8018447" lon="33.5061666"><ele>27.2</ele><time>2015-05-01T09:47:17.0000000+00:00</time></trkpt><trkpt lat="34.8018725" lon="33.5061219"><ele>27.6</ele><time>2015-05-01T09:47:18.0000000+00:00</time></trkpt><trkpt lat="34.8019206" lon="33.5060301"><ele>27.2</ele><time>2015-05-01T09:47:20.0000000+00:00</time></trkpt><trkpt lat="34.8019501" lon="33.505987"><ele>27.1</ele><time>2015-05-01T09:47:21.0000000+00:00</time></trkpt><trkpt lat="34.8019772" lon="33.5059356"><ele>27.6</ele><time>2015-05-01T09:47:22.0000000+00:00</time></trkpt><trkpt lat="34.8020161" lon="33.505833"><ele>27.2</ele><time>2015-05-01T09:47:24.0000000+00:00</time></trkpt><trkpt lat="34.8020592" lon="33.50575"><ele>27.1</ele><time>2015-05-01T09:47:26.0000000+00:00</time></trkpt><trkpt lat="34.8021055" lon="33.5056546"><ele>27.0</ele><time>2015-05-01T09:47:28.0000000+00:00</time></trkpt><trkpt lat="34.8021474" lon="33.5055602"><ele>27.0</ele><time>2015-05-01T09:47:30.0000000+00:00</time></trkpt><trkpt lat="34.8021749" lon="33.5055098"><ele>27.5</ele><time>2015-05-01T09:47:31.0000000+00:00</time></trkpt><trkpt lat="34.8022033" lon="33.5054647"><ele>27.3</ele><time>2015-05-01T09:47:32.0000000+00:00</time></trkpt><trkpt lat="34.802237" lon="33.5054156"><ele>27.1</ele><time>2015-05-01T09:47:33.0000000+00:00</time></trkpt><trkpt lat="34.8022655" lon="33.5053641"><ele>27.6</ele><time>2015-05-01T09:47:34.0000000+00:00</time></trkpt><trkpt lat="34.8022913" lon="33.5053154"><ele>27.8</ele><time>2015-05-01T09:47:35.0000000+00:00</time></trkpt><trkpt lat="34.8023144" lon="33.5052566"><ele>27.9</ele><time>2015-05-01T09:47:36.0000000+00:00</time></trkpt><trkpt lat="34.8023391" lon="33.505209"><ele>28.0</ele><time>2015-05-01T09:47:37.0000000+00:00</time></trkpt><trkpt lat="34.8023827" lon="33.5051256"><ele>28.5</ele><time>2015-05-01T09:47:39.0000000+00:00</time></trkpt><trkpt lat="34.8024116" lon="33.5050806"><ele>28.8</ele><time>2015-05-01T09:47:40.0000000+00:00</time></trkpt><trkpt lat="34.8024608" lon="33.504993"><ele>28.2</ele><time>2015-05-01T09:47:42.0000000+00:00</time></trkpt><trkpt lat="34.8025101" lon="33.5048972"><ele>28.1</ele><time>2015-05-01T09:47:44.0000000+00:00</time></trkpt><trkpt lat="34.8025394" lon="33.5048531"><ele>28.0</ele><time>2015-05-01T09:47:45.0000000+00:00</time></trkpt><trkpt lat="34.8025655" lon="33.5048023"><ele>27.5</ele><time>2015-05-01T09:47:46.0000000+00:00</time></trkpt><trkpt lat="34.8025904" lon="33.5047561"><ele>27.3</ele><time>2015-05-01T09:47:47.0000000+00:00</time></trkpt><trkpt lat="34.80264" lon="33.504663"><ele>27.6</ele><time>2015-05-01T09:47:49.0000000+00:00</time></trkpt><trkpt lat="34.8026625" lon="33.504612"><ele>27.8</ele><time>2015-05-01T09:47:50.0000000+00:00</time></trkpt><trkpt lat="34.8027158" lon="33.5045207"><ele>28.7</ele><time>2015-05-01T09:47:52.0000000+00:00</time></trkpt><trkpt lat="34.802741" lon="33.5044715"><ele>28.4</ele><time>2015-05-01T09:47:53.0000000+00:00</time></trkpt><trkpt lat="34.8027683" lon="33.5044234"><ele>28.2</ele><time>2015-05-01T09:47:54.0000000+00:00</time></trkpt><trkpt lat="34.8027937" lon="33.5043762"><ele>28.6</ele><time>2015-05-01T09:47:55.0000000+00:00</time></trkpt><trkpt lat="34.8028227" lon="33.504331"><ele>28.8</ele><time>2015-05-01T09:47:56.0000000+00:00</time></trkpt><trkpt lat="34.8028451" lon="33.5042825"><ele>28.9</ele><time>2015-05-01T09:47:57.0000000+00:00</time></trkpt><trkpt lat="34.8028675" lon="33.5042322"><ele>29.0</ele><time>2015-05-01T09:47:58.0000000+00:00</time></trkpt><trkpt lat="34.8029127" lon="33.5041499"><ele>29.5</ele><time>2015-05-01T09:48:00.0000000+00:00</time></trkpt><trkpt lat="34.8029576" lon="33.5040571"><ele>29.9</ele><time>2015-05-01T09:48:02.0000000+00:00</time></trkpt><trkpt lat="34.8030068" lon="33.5039677"><ele>29.2</ele><time>2015-05-01T09:48:04.0000000+00:00</time></trkpt><trkpt lat="34.8030312" lon="33.5039197"><ele>29.1</ele><time>2015-05-01T09:48:05.0000000+00:00</time></trkpt><trkpt lat="34.8030576" lon="33.5038646"><ele>29.1</ele><time>2015-05-01T09:48:06.0000000+00:00</time></trkpt><trkpt lat="34.8031043" lon="33.5037762"><ele>29.0</ele><time>2015-05-01T09:48:08.0000000+00:00</time></trkpt><trkpt lat="34.8031281" lon="33.503727"><ele>29.0</ele><time>2015-05-01T09:48:09.0000000+00:00</time></trkpt><trkpt lat="34.8031533" lon="33.5036746"><ele>29.0</ele><time>2015-05-01T09:48:10.0000000+00:00</time></trkpt><trkpt lat="34.8031769" lon="33.5036279"><ele>29.5</ele><time>2015-05-01T09:48:11.0000000+00:00</time></trkpt><trkpt lat="34.8032003" lon="33.5035776"><ele>30.3</ele><time>2015-05-01T09:48:12.0000000+00:00</time></trkpt><trkpt lat="34.8032239" lon="33.5035254"><ele>30.1</ele><time>2015-05-01T09:48:13.0000000+00:00</time></trkpt><trkpt lat="34.8032658" lon="33.5034364"><ele>30.6</ele><time>2015-05-01T09:48:15.0000000+00:00</time></trkpt><trkpt lat="34.803311" lon="33.5033397"><ele>31.4</ele><time>2015-05-01T09:48:17.0000000+00:00</time></trkpt><trkpt lat="34.8033328" lon="33.5032848"><ele>31.7</ele><time>2015-05-01T09:48:18.0000000+00:00</time></trkpt><trkpt lat="34.8033553" lon="33.5032373"><ele>31.9</ele><time>2015-05-01T09:48:19.0000000+00:00</time></trkpt><trkpt lat="34.8033835" lon="33.5031881"><ele>31.9</ele><time>2015-05-01T09:48:20.0000000+00:00</time></trkpt><trkpt lat="34.8034079" lon="33.5031376"><ele>32.5</ele><time>2015-05-01T09:48:21.0000000+00:00</time></trkpt><trkpt lat="34.8034309" lon="33.5030856"><ele>32.8</ele><time>2015-05-01T09:48:22.0000000+00:00</time></trkpt><trkpt lat="34.8034483" lon="33.5030306"><ele>32.9</ele><time>2015-05-01T09:48:23.0000000+00:00</time></trkpt><trkpt lat="34.8034736" lon="33.5029756"><ele>33.0</ele><time>2015-05-01T09:48:24.0000000+00:00</time></trkpt><trkpt lat="34.8034994" lon="33.5029269"><ele>33.0</ele><time>2015-05-01T09:48:25.0000000+00:00</time></trkpt><trkpt lat="34.8035221" lon="33.5028719"><ele>33.0</ele><time>2015-05-01T09:48:26.0000000+00:00</time></trkpt><trkpt lat="34.8035462" lon="33.5028214"><ele>33.0</ele><time>2015-05-01T09:48:27.0000000+00:00</time></trkpt><trkpt lat="34.8035763" lon="33.502736"><ele>32.5</ele><time>2015-05-01T09:48:29.0000000+00:00</time></trkpt><trkpt lat="34.803615" lon="33.5026506"><ele>32.6</ele><time>2015-05-01T09:48:31.0000000+00:00</time></trkpt><trkpt lat="34.8036449" lon="33.5025863"><ele>32.9</ele><time>2015-05-01T09:48:33.0000000+00:00</time></trkpt><trkpt lat="34.8036687" lon="33.5025194"><ele>33.0</ele><time>2015-05-01T09:48:35.0000000+00:00</time></trkpt><trkpt lat="34.8036963" lon="33.5024291"><ele>33.0</ele><time>2015-05-01T09:48:37.0000000+00:00</time></trkpt><trkpt lat="34.8037257" lon="33.5023452"><ele>33.0</ele><time>2015-05-01T09:48:39.0000000+00:00</time></trkpt><trkpt lat="34.8037526" lon="33.5022515"><ele>33.8</ele><time>2015-05-01T09:48:41.0000000+00:00</time></trkpt><trkpt lat="34.8037705" lon="33.5021538"><ele>34.0</ele><time>2015-05-01T09:48:43.0000000+00:00</time></trkpt><trkpt lat="34.8037822" lon="33.50205"><ele>34.0</ele><time>2015-05-01T09:48:45.0000000+00:00</time></trkpt><trkpt lat="34.8037846" lon="33.501953"><ele>34.0</ele><time>2015-05-01T09:48:47.0000000+00:00</time></trkpt><trkpt lat="34.8037792" lon="33.5018615"><ele>33.5</ele><time>2015-05-01T09:48:49.0000000+00:00</time></trkpt><trkpt lat="34.8037688" lon="33.5017758"><ele>33.6</ele><time>2015-05-01T09:48:51.0000000+00:00</time></trkpt><trkpt lat="34.803756" lon="33.5016855"><ele>33.4</ele><time>2015-05-01T09:48:53.0000000+00:00</time></trkpt><trkpt lat="34.8037393" lon="33.5015961"><ele>33.1</ele><time>2015-05-01T09:48:55.0000000+00:00</time></trkpt><trkpt lat="34.8037231" lon="33.5014987"><ele>33.0</ele><time>2015-05-01T09:48:57.0000000+00:00</time></trkpt><trkpt lat="34.8037024" lon="33.5014026"><ele>33.5</ele><time>2015-05-01T09:48:59.0000000+00:00</time></trkpt><trkpt lat="34.8036807" lon="33.5013004"><ele>33.9</ele><time>2015-05-01T09:49:01.0000000+00:00</time></trkpt><trkpt lat="34.803659" lon="33.5012002"><ele>34.0</ele><time>2015-05-01T09:49:03.0000000+00:00</time></trkpt><trkpt lat="34.8036384" lon="33.5011239"><ele>34.0</ele><time>2015-05-01T09:49:04.0000000+00:00</time></trkpt><trkpt lat="34.8036117" lon="33.5010391"><ele>34.0</ele><time>2015-05-01T09:49:06.0000000+00:00</time></trkpt><trkpt lat="34.8035842" lon="33.5009933"><ele>34.5</ele><time>2015-05-01T09:49:07.0000000+00:00</time></trkpt><trkpt lat="34.8035699" lon="33.500932"><ele>34.8</ele><time>2015-05-01T09:49:08.0000000+00:00</time></trkpt><trkpt lat="34.8035609" lon="33.5008708"><ele>34.9</ele><time>2015-05-01T09:49:09.0000000+00:00</time></trkpt><trkpt lat="34.80355" lon="33.5008152"><ele>35.0</ele><time>2015-05-01T09:49:10.0000000+00:00</time></trkpt><trkpt lat="34.8035198" lon="33.5007117"><ele>35.0</ele><time>2015-05-01T09:49:12.0000000+00:00</time></trkpt><trkpt lat="34.8034964" lon="33.5006148"><ele>35.5</ele><time>2015-05-01T09:49:14.0000000+00:00</time></trkpt><trkpt lat="34.8034732" lon="33.5005346"><ele>35.9</ele><time>2015-05-01T09:49:16.0000000+00:00</time></trkpt><trkpt lat="34.8034416" lon="33.5004538"><ele>36.0</ele><time>2015-05-01T09:49:18.0000000+00:00</time></trkpt><trkpt lat="34.8034147" lon="33.5003608"><ele>35.3</ele><time>2015-05-01T09:49:20.0000000+00:00</time></trkpt><trkpt lat="34.8033992" lon="33.5003081"><ele>35.1</ele><time>2015-05-01T09:49:21.0000000+00:00</time></trkpt><trkpt lat="34.803383" lon="33.5002567"><ele>34.6</ele><time>2015-05-01T09:49:22.0000000+00:00</time></trkpt><trkpt lat="34.8033656" lon="33.5002006"><ele>34.3</ele><time>2015-05-01T09:49:23.0000000+00:00</time></trkpt><trkpt lat="34.803343" lon="33.5001306"><ele>34.2</ele><time>2015-05-01T09:49:24.0000000+00:00</time></trkpt><trkpt lat="34.8033264" lon="33.5000708"><ele>34.1</ele><time>2015-05-01T09:49:25.0000000+00:00</time></trkpt><trkpt lat="34.8033103" lon="33.5000022"><ele>34.1</ele><time>2015-05-01T09:49:26.0000000+00:00</time></trkpt><trkpt lat="34.8032881" lon="33.4999427"><ele>33.5</ele><time>2015-05-01T09:49:27.0000000+00:00</time></trkpt><trkpt lat="34.8032703" lon="33.499866"><ele>32.8</ele><time>2015-05-01T09:49:28.0000000+00:00</time></trkpt><trkpt lat="34.8032493" lon="33.4997833"><ele>31.9</ele><time>2015-05-01T09:49:29.0000000+00:00</time></trkpt><trkpt lat="34.8032359" lon="33.4996955"><ele>31.0</ele><time>2015-05-01T09:49:30.0000000+00:00</time></trkpt><trkpt lat="34.8032267" lon="33.4996031"><ele>31.0</ele><time>2015-05-01T09:49:31.0000000+00:00</time></trkpt><trkpt lat="34.8032117" lon="33.4995164"><ele>31.0</ele><time>2015-05-01T09:49:32.0000000+00:00</time></trkpt><trkpt lat="34.8031958" lon="33.4994284"><ele>30.5</ele><time>2015-05-01T09:49:33.0000000+00:00</time></trkpt><trkpt lat="34.803185" lon="33.499344"><ele>30.3</ele><time>2015-05-01T09:49:34.0000000+00:00</time></trkpt><trkpt lat="34.8031755" lon="33.4992556"><ele>29.6</ele><time>2015-05-01T09:49:35.0000000+00:00</time></trkpt><trkpt lat="34.8031636" lon="33.4991781"><ele>29.3</ele><time>2015-05-01T09:49:36.0000000+00:00</time></trkpt><trkpt lat="34.8031505" lon="33.4990901"><ele>29.2</ele><time>2015-05-01T09:49:37.0000000+00:00</time></trkpt><trkpt lat="34.8031348" lon="33.4990052"><ele>28.6</ele><time>2015-05-01T09:49:38.0000000+00:00</time></trkpt><trkpt lat="34.8031342" lon="33.4989337"><ele>27.8</ele><time>2015-05-01T09:49:39.0000000+00:00</time></trkpt><trkpt lat="34.8031201" lon="33.4988516"><ele>27.4</ele><time>2015-05-01T09:49:40.0000000+00:00</time></trkpt><trkpt lat="34.8031108" lon="33.4987698"><ele>26.7</ele><time>2015-05-01T09:49:41.0000000+00:00</time></trkpt><trkpt lat="34.8030996" lon="33.4986937"><ele>26.4</ele><time>2015-05-01T09:49:42.0000000+00:00</time></trkpt><trkpt lat="34.8030823" lon="33.498619"><ele>26.2</ele><time>2015-05-01T09:49:43.0000000+00:00</time></trkpt><trkpt lat="34.8030693" lon="33.4985424"><ele>26.6</ele><time>2015-05-01T09:49:44.0000000+00:00</time></trkpt><trkpt lat="34.8030631" lon="33.4984661"><ele>26.8</ele><time>2015-05-01T09:49:45.0000000+00:00</time></trkpt><trkpt lat="34.8030563" lon="33.4983818"><ele>26.9</ele><time>2015-05-01T09:49:46.0000000+00:00</time></trkpt><trkpt lat="34.8030428" lon="33.4983106"><ele>27.0</ele><time>2015-05-01T09:49:47.0000000+00:00</time></trkpt><trkpt lat="34.8030278" lon="33.4982435"><ele>27.0</ele><time>2015-05-01T09:49:48.0000000+00:00</time></trkpt><trkpt lat="34.8030224" lon="33.4981747"><ele>27.0</ele><time>2015-05-01T09:49:49.0000000+00:00</time></trkpt><trkpt lat="34.803008" lon="33.4981172"><ele>27.5</ele><time>2015-05-01T09:49:50.0000000+00:00</time></trkpt><trkpt lat="34.8029952" lon="33.498061"><ele>27.8</ele><time>2015-05-01T09:49:51.0000000+00:00</time></trkpt><trkpt lat="34.8029851" lon="33.4980042"><ele>27.9</ele><time>2015-05-01T09:49:52.0000000+00:00</time></trkpt><trkpt lat="34.8029732" lon="33.4979468"><ele>28.5</ele><time>2015-05-01T09:49:53.0000000+00:00</time></trkpt><trkpt lat="34.8029827" lon="33.4978827"><ele>28.7</ele><time>2015-05-01T09:49:54.0000000+00:00</time></trkpt><trkpt lat="34.8029673" lon="33.4978265"><ele>29.4</ele><time>2015-05-01T09:49:55.0000000+00:00</time></trkpt><trkpt lat="34.8029409" lon="33.4977132"><ele>28.6</ele><time>2015-05-01T09:49:57.0000000+00:00</time></trkpt><trkpt lat="34.8029217" lon="33.4976542"><ele>28.3</ele><time>2015-05-01T09:49:58.0000000+00:00</time></trkpt><trkpt lat="34.8028939" lon="33.4975481"><ele>28.8</ele><time>2015-05-01T09:50:00.0000000+00:00</time></trkpt><trkpt lat="34.8028745" lon="33.4974986"><ele>28.9</ele><time>2015-05-01T09:50:01.0000000+00:00</time></trkpt><trkpt lat="34.8028466" lon="33.4974136"><ele>29.0</ele><time>2015-05-01T09:50:03.0000000+00:00</time></trkpt><trkpt lat="34.8028325" lon="33.4973576"><ele>29.0</ele><time>2015-05-01T09:50:04.0000000+00:00</time></trkpt><trkpt lat="34.8028064" lon="33.49727"><ele>29.0</ele><time>2015-05-01T09:50:06.0000000+00:00</time></trkpt><trkpt lat="34.8027612" lon="33.4971812"><ele>29.0</ele><time>2015-05-01T09:50:08.0000000+00:00</time></trkpt><trkpt lat="34.8027296" lon="33.4970936"><ele>29.8</ele><time>2015-05-01T09:50:10.0000000+00:00</time></trkpt><trkpt lat="34.8026944" lon="33.4970006"><ele>30.2</ele><time>2015-05-01T09:50:12.0000000+00:00</time></trkpt><trkpt lat="34.8026602" lon="33.4969113"><ele>30.8</ele><time>2015-05-01T09:50:14.0000000+00:00</time></trkpt><trkpt lat="34.8026268" lon="33.496821"><ele>31.0</ele><time>2015-05-01T09:50:16.0000000+00:00</time></trkpt><trkpt lat="34.8025973" lon="33.4967262"><ele>31.0</ele><time>2015-05-01T09:50:18.0000000+00:00</time></trkpt><trkpt lat="34.8025741" lon="33.4966329"><ele>30.5</ele><time>2015-05-01T09:50:20.0000000+00:00</time></trkpt><trkpt lat="34.8025566" lon="33.4965406"><ele>30.1</ele><time>2015-05-01T09:50:22.0000000+00:00</time></trkpt><trkpt lat="34.8025434" lon="33.4964429"><ele>29.6</ele><time>2015-05-01T09:50:24.0000000+00:00</time></trkpt><trkpt lat="34.8025324" lon="33.4963478"><ele>29.4</ele><time>2015-05-01T09:50:26.0000000+00:00</time></trkpt><trkpt lat="34.8025237" lon="33.4962577"><ele>29.1</ele><time>2015-05-01T09:50:28.0000000+00:00</time></trkpt><trkpt lat="34.8025179" lon="33.4961703"><ele>29.0</ele><time>2015-05-01T09:50:30.0000000+00:00</time></trkpt><trkpt lat="34.8025052" lon="33.4960886"><ele>29.0</ele><time>2015-05-01T09:50:32.0000000+00:00</time></trkpt><trkpt lat="34.802487" lon="33.4960144"><ele>30.0</ele><time>2015-05-01T09:50:34.0000000+00:00</time></trkpt><trkpt lat="34.8024681" lon="33.4959348"><ele>30.0</ele><time>2015-05-01T09:50:36.0000000+00:00</time></trkpt><trkpt lat="34.8024496" lon="33.4958795"><ele>29.5</ele><time>2015-05-01T09:50:38.0000000+00:00</time></trkpt><trkpt lat="34.8024256" lon="33.4958067"><ele>29.1</ele><time>2015-05-01T09:50:40.0000000+00:00</time></trkpt><trkpt lat="34.8023861" lon="33.4957155"><ele>28.6</ele><time>2015-05-01T09:50:42.0000000+00:00</time></trkpt><trkpt lat="34.8023646" lon="33.495659"><ele>28.3</ele><time>2015-05-01T09:50:43.0000000+00:00</time></trkpt><trkpt lat="34.8023393" lon="33.4955992"><ele>28.2</ele><time>2015-05-01T09:50:44.0000000+00:00</time></trkpt><trkpt lat="34.8023235" lon="33.495535"><ele>28.1</ele><time>2015-05-01T09:50:45.0000000+00:00</time></trkpt><trkpt lat="34.8023016" lon="33.4954716"><ele>28.1</ele><time>2015-05-01T09:50:46.0000000+00:00</time></trkpt><trkpt lat="34.8022827" lon="33.4954108"><ele>28.0</ele><time>2015-05-01T09:50:47.0000000+00:00</time></trkpt><trkpt lat="34.8022592" lon="33.4953509"><ele>28.5</ele><time>2015-05-01T09:50:48.0000000+00:00</time></trkpt><trkpt lat="34.8022452" lon="33.495291"><ele>28.8</ele><time>2015-05-01T09:50:49.0000000+00:00</time></trkpt><trkpt lat="34.8022423" lon="33.4952194"><ele>28.9</ele><time>2015-05-01T09:50:50.0000000+00:00</time></trkpt><trkpt lat="34.8022466" lon="33.4951416"><ele>29.0</ele><time>2015-05-01T09:50:51.0000000+00:00</time></trkpt><trkpt lat="34.8022511" lon="33.4950548"><ele>29.0</ele><time>2015-05-01T09:50:52.0000000+00:00</time></trkpt><trkpt lat="34.802257" lon="33.4949633"><ele>28.5</ele><time>2015-05-01T09:50:53.0000000+00:00</time></trkpt><trkpt lat="34.8022643" lon="33.4948888"><ele>27.8</ele><time>2015-05-01T09:50:54.0000000+00:00</time></trkpt><trkpt lat="34.8022759" lon="33.4947949"><ele>27.4</ele><time>2015-05-01T09:50:55.0000000+00:00</time></trkpt><trkpt lat="34.802294" lon="33.4947098"><ele>27.2</ele><time>2015-05-01T09:50:56.0000000+00:00</time></trkpt><trkpt lat="34.8023146" lon="33.4946249"><ele>26.6</ele><time>2015-05-01T09:50:57.0000000+00:00</time></trkpt><trkpt lat="34.8023388" lon="33.4945411"><ele>26.8</ele><time>2015-05-01T09:50:58.0000000+00:00</time></trkpt><trkpt lat="34.8023598" lon="33.4944528"><ele>25.9</ele><time>2015-05-01T09:50:59.0000000+00:00</time></trkpt><trkpt lat="34.8023865" lon="33.4943696"><ele>25.5</ele><time>2015-05-01T09:51:00.0000000+00:00</time></trkpt><trkpt lat="34.8024051" lon="33.4942935"><ele>24.7</ele><time>2015-05-01T09:51:01.0000000+00:00</time></trkpt><trkpt lat="34.8024122" lon="33.4942269"><ele>24.4</ele><time>2015-05-01T09:51:02.0000000+00:00</time></trkpt><trkpt lat="34.8024344" lon="33.4941663"><ele>23.7</ele><time>2015-05-01T09:51:03.0000000+00:00</time></trkpt><trkpt lat="34.8024513" lon="33.4940897"><ele>23.9</ele><time>2015-05-01T09:51:04.0000000+00:00</time></trkpt><trkpt lat="34.8024672" lon="33.4940235"><ele>23.4</ele><time>2015-05-01T09:51:05.0000000+00:00</time></trkpt><trkpt lat="34.8024883" lon="33.4939584"><ele>23.2</ele><time>2015-05-01T09:51:06.0000000+00:00</time></trkpt><trkpt lat="34.8025014" lon="33.4938894"><ele>23.1</ele><time>2015-05-01T09:51:07.0000000+00:00</time></trkpt><trkpt lat="34.8025165" lon="33.4938224"><ele>23.6</ele><time>2015-05-01T09:51:08.0000000+00:00</time></trkpt><trkpt lat="34.8025388" lon="33.4937604"><ele>23.8</ele><time>2015-05-01T09:51:09.0000000+00:00</time></trkpt><trkpt lat="34.802559" lon="33.4936978"><ele>23.9</ele><time>2015-05-01T09:51:10.0000000+00:00</time></trkpt><trkpt lat="34.8025732" lon="33.4936409"><ele>23.5</ele><time>2015-05-01T09:51:11.0000000+00:00</time></trkpt><trkpt lat="34.8025826" lon="33.4935802"><ele>23.7</ele><time>2015-05-01T09:51:12.0000000+00:00</time></trkpt><trkpt lat="34.8025904" lon="33.4935218"><ele>23.9</ele><time>2015-05-01T09:51:13.0000000+00:00</time></trkpt><trkpt lat="34.8026045" lon="33.4934629"><ele>24.0</ele><time>2015-05-01T09:51:14.0000000+00:00</time></trkpt><trkpt lat="34.8026264" lon="33.4934102"><ele>24.0</ele><time>2015-05-01T09:51:15.0000000+00:00</time></trkpt><trkpt lat="34.8026772" lon="33.4933037"><ele>23.3</ele><time>2015-05-01T09:51:17.0000000+00:00</time></trkpt><trkpt lat="34.8026943" lon="33.4932456"><ele>23.6</ele><time>2015-05-01T09:51:18.0000000+00:00</time></trkpt><trkpt lat="34.8027047" lon="33.4931849"><ele>23.8</ele><time>2015-05-01T09:51:19.0000000+00:00</time></trkpt><trkpt lat="34.8027338" lon="33.4930749"><ele>24.0</ele><time>2015-05-01T09:51:21.0000000+00:00</time></trkpt><trkpt lat="34.802745" lon="33.493017"><ele>23.5</ele><time>2015-05-01T09:51:22.0000000+00:00</time></trkpt><trkpt lat="34.8027633" lon="33.4929568"><ele>22.8</ele><time>2015-05-01T09:51:23.0000000+00:00</time></trkpt><trkpt lat="34.80279" lon="33.4928471"><ele>23.0</ele><time>2015-05-01T09:51:25.0000000+00:00</time></trkpt><trkpt lat="34.8027992" lon="33.4927928"><ele>23.5</ele><time>2015-05-01T09:51:26.0000000+00:00</time></trkpt><trkpt lat="34.8028068" lon="33.4927384"><ele>23.3</ele><time>2015-05-01T09:51:27.0000000+00:00</time></trkpt><trkpt lat="34.8028387" lon="33.4926423"><ele>23.8</ele><time>2015-05-01T09:51:29.0000000+00:00</time></trkpt><trkpt lat="34.8028679" lon="33.4925931"><ele>24.4</ele><time>2015-05-01T09:51:30.0000000+00:00</time></trkpt><trkpt lat="34.8028924" lon="33.4925414"><ele>24.7</ele><time>2015-05-01T09:51:31.0000000+00:00</time></trkpt><trkpt lat="34.8029215" lon="33.492496"><ele>24.9</ele><time>2015-05-01T09:51:32.0000000+00:00</time></trkpt><trkpt lat="34.8029568" lon="33.492453"><ele>24.4</ele><time>2015-05-01T09:51:33.0000000+00:00</time></trkpt><trkpt lat="34.8030158" lon="33.4923664"><ele>25.4</ele><time>2015-05-01T09:51:35.0000000+00:00</time></trkpt><trkpt lat="34.8030543" lon="33.4923266"><ele>25.7</ele><time>2015-05-01T09:51:36.0000000+00:00</time></trkpt><trkpt lat="34.8031273" lon="33.4922691"><ele>25.9</ele><time>2015-05-01T09:51:38.0000000+00:00</time></trkpt><trkpt lat="34.8031982" lon="33.492202"><ele>26.0</ele><time>2015-05-01T09:51:40.0000000+00:00</time></trkpt><trkpt lat="34.8032542" lon="33.4921399"><ele>26.0</ele><time>2015-05-01T09:51:42.0000000+00:00</time></trkpt><trkpt lat="34.8033113" lon="33.4921009"><ele>26.0</ele><time>2015-05-01T09:51:44.0000000+00:00</time></trkpt><trkpt lat="34.803355" lon="33.4920556"><ele>26.5</ele><time>2015-05-01T09:51:46.0000000+00:00</time></trkpt><trkpt lat="34.8033943" lon="33.4919994"><ele>26.9</ele><time>2015-05-01T09:51:48.0000000+00:00</time></trkpt><trkpt lat="34.803425" lon="33.4919474"><ele>26.5</ele><time>2015-05-01T09:51:50.0000000+00:00</time></trkpt><trkpt lat="34.8034572" lon="33.4919015"><ele>26.0</ele><time>2015-05-01T09:51:53.0000000+00:00</time></trkpt><trkpt lat="34.8034985" lon="33.4918538"><ele>25.9</ele><time>2015-05-01T09:51:58.0000000+00:00</time></trkpt><trkpt lat="34.8035311" lon="33.491815"><ele>27.4</ele><time>2015-05-01T09:52:01.0000000+00:00</time></trkpt><trkpt lat="34.8035624" lon="33.4917663"><ele>27.9</ele><time>2015-05-01T09:52:04.0000000+00:00</time></trkpt><trkpt lat="34.8035905" lon="33.4917041"><ele>27.2</ele><time>2015-05-01T09:52:08.0000000+00:00</time></trkpt><trkpt lat="34.8036133" lon="33.4916411"><ele>27.2</ele><time>2015-05-01T09:52:11.0000000+00:00</time></trkpt><trkpt lat="34.8036266" lon="33.4915661"><ele>26.3</ele><time>2015-05-01T09:52:14.0000000+00:00</time></trkpt><trkpt lat="34.8036366" lon="33.4915107"><ele>26.8</ele><time>2015-05-01T09:52:16.0000000+00:00</time></trkpt><trkpt lat="34.8036461" lon="33.4914564"><ele>28.5</ele><time>2015-05-01T09:52:18.0000000+00:00</time></trkpt><trkpt lat="34.8036559" lon="33.4913963"><ele>30.1</ele><time>2015-05-01T09:52:20.0000000+00:00</time></trkpt><trkpt lat="34.8036662" lon="33.4913341"><ele>30.8</ele><time>2015-05-01T09:52:22.0000000+00:00</time></trkpt><trkpt lat="34.8036741" lon="33.4912719"><ele>31.0</ele><time>2015-05-01T09:52:24.0000000+00:00</time></trkpt><trkpt lat="34.8036821" lon="33.4912076"><ele>31.0</ele><time>2015-05-01T09:52:26.0000000+00:00</time></trkpt><trkpt lat="34.8036874" lon="33.4911299"><ele>31.0</ele><time>2015-05-01T09:52:28.0000000+00:00</time></trkpt><trkpt lat="34.8036937" lon="33.4910468"><ele>30.5</ele><time>2015-05-01T09:52:30.0000000+00:00</time></trkpt><trkpt lat="34.8036968" lon="33.4909655"><ele>30.1</ele><time>2015-05-01T09:52:32.0000000+00:00</time></trkpt><trkpt lat="34.8036936" lon="33.4908854"><ele>30.1</ele><time>2015-05-01T09:52:34.0000000+00:00</time></trkpt><trkpt lat="34.8036857" lon="33.4908032"><ele>30.5</ele><time>2015-05-01T09:52:36.0000000+00:00</time></trkpt><trkpt lat="34.8036765" lon="33.4907265"><ele>30.6</ele><time>2015-05-01T09:52:38.0000000+00:00</time></trkpt><trkpt lat="34.803668" lon="33.4906523"><ele>30.9</ele><time>2015-05-01T09:52:40.0000000+00:00</time></trkpt><trkpt lat="34.8036606" lon="33.4905778"><ele>31.0</ele><time>2015-05-01T09:52:42.0000000+00:00</time></trkpt><trkpt lat="34.8036485" lon="33.4905027"><ele>32.3</ele><time>2015-05-01T09:52:44.0000000+00:00</time></trkpt><trkpt lat="34.8036339" lon="33.4904285"><ele>32.3</ele><time>2015-05-01T09:52:46.0000000+00:00</time></trkpt><trkpt lat="34.8036221" lon="33.4903546"><ele>32.1</ele><time>2015-05-01T09:52:48.0000000+00:00</time></trkpt><trkpt lat="34.8036136" lon="33.4902827"><ele>32.8</ele><time>2015-05-01T09:52:50.0000000+00:00</time></trkpt><trkpt lat="34.8036068" lon="33.4902108"><ele>33.0</ele><time>2015-05-01T09:52:52.0000000+00:00</time></trkpt><trkpt lat="34.803601" lon="33.4901351"><ele>33.0</ele><time>2015-05-01T09:52:54.0000000+00:00</time></trkpt><trkpt lat="34.8035955" lon="33.4900584"><ele>33.5</ele><time>2015-05-01T09:52:56.0000000+00:00</time></trkpt><trkpt lat="34.8035929" lon="33.4899792"><ele>33.1</ele><time>2015-05-01T09:52:58.0000000+00:00</time></trkpt><trkpt lat="34.8035946" lon="33.4898998"><ele>33.1</ele><time>2015-05-01T09:53:00.0000000+00:00</time></trkpt><trkpt lat="34.8035985" lon="33.489824"><ele>33.0</ele><time>2015-05-01T09:53:02.0000000+00:00</time></trkpt><trkpt lat="34.803605" lon="33.4897543"><ele>32.3</ele><time>2015-05-01T09:53:04.0000000+00:00</time></trkpt><trkpt lat="34.8036059" lon="33.4896836"><ele>31.6</ele><time>2015-05-01T09:53:07.0000000+00:00</time></trkpt><trkpt lat="34.8036113" lon="33.4896272"><ele>31.7</ele><time>2015-05-01T09:53:09.0000000+00:00</time></trkpt><trkpt lat="34.8036148" lon="33.4895714"><ele>31.9</ele><time>2015-05-01T09:53:11.0000000+00:00</time></trkpt><trkpt lat="34.8036204" lon="33.4895121"><ele>31.5</ele><time>2015-05-01T09:53:13.0000000+00:00</time></trkpt><trkpt lat="34.8036261" lon="33.4894529"><ele>31.1</ele><time>2015-05-01T09:53:15.0000000+00:00</time></trkpt><trkpt lat="34.8036268" lon="33.4893937"><ele>30.6</ele><time>2015-05-01T09:53:17.0000000+00:00</time></trkpt><trkpt lat="34.803636" lon="33.489339"><ele>29.7</ele><time>2015-05-01T09:53:19.0000000+00:00</time></trkpt><trkpt lat="34.803643" lon="33.4892789"><ele>27.9</ele><time>2015-05-01T09:53:21.0000000+00:00</time></trkpt><trkpt lat="34.8036565" lon="33.4892191"><ele>27.2</ele><time>2015-05-01T09:53:23.0000000+00:00</time></trkpt><trkpt lat="34.8036808" lon="33.489164"><ele>27.6</ele><time>2015-05-01T09:53:25.0000000+00:00</time></trkpt><trkpt lat="34.80371" lon="33.4891172"><ele>26.7</ele><time>2015-05-01T09:53:27.0000000+00:00</time></trkpt><trkpt lat="34.8037193" lon="33.489038"><ele>25.6</ele><time>2015-05-01T09:53:30.0000000+00:00</time></trkpt><trkpt lat="34.8037103" lon="33.4889611"><ele>25.0</ele><time>2015-05-01T09:53:33.0000000+00:00</time></trkpt><trkpt lat="34.8037036" lon="33.4888924"><ele>25.3</ele><time>2015-05-01T09:53:36.0000000+00:00</time></trkpt><trkpt lat="34.8037035" lon="33.4888136"><ele>26.7</ele><time>2015-05-01T09:53:39.0000000+00:00</time></trkpt><trkpt lat="34.8036966" lon="33.4887549"><ele>26.2</ele><time>2015-05-01T09:53:41.0000000+00:00</time></trkpt><trkpt lat="34.8036937" lon="33.4886906"><ele>26.8</ele><time>2015-05-01T09:53:43.0000000+00:00</time></trkpt><trkpt lat="34.8036836" lon="33.488627"><ele>26.7</ele><time>2015-05-01T09:53:45.0000000+00:00</time></trkpt><trkpt lat="34.8036697" lon="33.4885706"><ele>26.7</ele><time>2015-05-01T09:53:47.0000000+00:00</time></trkpt><trkpt lat="34.803658" lon="33.4884999"><ele>27.5</ele><time>2015-05-01T09:53:50.0000000+00:00</time></trkpt><trkpt lat="34.8036322" lon="33.4884549"><ele>27.9</ele><time>2015-05-01T09:54:08.0000000+00:00</time></trkpt><trkpt lat="34.8036128" lon="33.4883901"><ele>28.1</ele><time>2015-05-01T09:54:23.0000000+00:00</time></trkpt><trkpt lat="34.8035996" lon="33.4883218"><ele>28.0</ele><time>2015-05-01T09:54:25.0000000+00:00</time></trkpt><trkpt lat="34.8035979" lon="33.4882476"><ele>28.0</ele><time>2015-05-01T09:54:27.0000000+00:00</time></trkpt><trkpt lat="34.8036022" lon="33.4881727"><ele>29.3</ele><time>2015-05-01T09:54:29.0000000+00:00</time></trkpt><trkpt lat="34.8035984" lon="33.4881031"><ele>29.6</ele><time>2015-05-01T09:54:31.0000000+00:00</time></trkpt><trkpt lat="34.8035874" lon="33.488037"><ele>30.2</ele><time>2015-05-01T09:54:33.0000000+00:00</time></trkpt><trkpt lat="34.8035732" lon="33.4879776"><ele>30.3</ele><time>2015-05-01T09:54:35.0000000+00:00</time></trkpt><trkpt lat="34.80356" lon="33.4879202"><ele>28.8</ele><time>2015-05-01T09:54:37.0000000+00:00</time></trkpt><trkpt lat="34.8035332" lon="33.4878719"><ele>29.0</ele><time>2015-05-01T09:54:39.0000000+00:00</time></trkpt><trkpt lat="34.803512" lon="33.4878164"><ele>29.0</ele><time>2015-05-01T09:54:41.0000000+00:00</time></trkpt><trkpt lat="34.803494" lon="33.4877546"><ele>28.8</ele><time>2015-05-01T09:54:43.0000000+00:00</time></trkpt><trkpt lat="34.8034828" lon="33.4876766"><ele>28.2</ele><time>2015-05-01T09:54:45.0000000+00:00</time></trkpt><trkpt lat="34.8034753" lon="33.48758"><ele>27.8</ele><time>2015-05-01T09:54:47.0000000+00:00</time></trkpt><trkpt lat="34.8034786" lon="33.4874712"><ele>28.0</ele><time>2015-05-01T09:54:49.0000000+00:00</time></trkpt><trkpt lat="34.803489" lon="33.4873938"><ele>28.0</ele><time>2015-05-01T09:54:50.0000000+00:00</time></trkpt><trkpt lat="34.8035004" lon="33.4872955"><ele>27.3</ele><time>2015-05-01T09:54:52.0000000+00:00</time></trkpt><trkpt lat="34.8035186" lon="33.4872224"><ele>26.8</ele><time>2015-05-01T09:54:54.0000000+00:00</time></trkpt><trkpt lat="34.8035341" lon="33.4871607"><ele>26.2</ele><time>2015-05-01T09:54:56.0000000+00:00</time></trkpt><trkpt lat="34.8035348" lon="33.4870992"><ele>25.8</ele><time>2015-05-01T09:54:58.0000000+00:00</time></trkpt><trkpt lat="34.8035413" lon="33.4870257"><ele>27.6</ele><time>2015-05-01T09:55:01.0000000+00:00</time></trkpt><trkpt lat="34.8035867" lon="33.4869825"><ele>27.2</ele><time>2015-05-01T09:55:18.0000000+00:00</time></trkpt><trkpt lat="34.8036319" lon="33.4869924"><ele>27.3</ele><time>2015-05-01T09:55:20.0000000+00:00</time></trkpt><trkpt lat="34.8036835" lon="33.4870157"><ele>27.3</ele><time>2015-05-01T09:55:22.0000000+00:00</time></trkpt><trkpt lat="34.8037352" lon="33.4870468"><ele>27.9</ele><time>2015-05-01T09:55:24.0000000+00:00</time></trkpt><trkpt lat="34.8037802" lon="33.4870828"><ele>28.5</ele><time>2015-05-01T09:55:26.0000000+00:00</time></trkpt><trkpt lat="34.8038182" lon="33.4871148"><ele>28.9</ele><time>2015-05-01T09:55:28.0000000+00:00</time></trkpt><trkpt lat="34.8038589" lon="33.4871684"><ele>29.5</ele><time>2015-05-01T09:55:31.0000000+00:00</time></trkpt><trkpt lat="34.803913" lon="33.4871596"><ele>29.1</ele><time>2015-05-01T09:55:35.0000000+00:00</time></trkpt><trkpt lat="34.8039415" lon="33.487107"><ele>28.3</ele><time>2015-05-01T09:55:37.0000000+00:00</time></trkpt><trkpt lat="34.8039754" lon="33.4870566"><ele>27.3</ele><time>2015-05-01T09:55:39.0000000+00:00</time></trkpt><trkpt lat="34.8040167" lon="33.4870072"><ele>27.1</ele><time>2015-05-01T09:55:41.0000000+00:00</time></trkpt><trkpt lat="34.8040605" lon="33.4869617"><ele>27.8</ele><time>2015-05-01T09:55:43.0000000+00:00</time></trkpt><trkpt lat="34.804108" lon="33.4869124"><ele>28.5</ele><time>2015-05-01T09:55:45.0000000+00:00</time></trkpt><trkpt lat="34.8041643" lon="33.4868508"><ele>28.9</ele><time>2015-05-01T09:55:47.0000000+00:00</time></trkpt><trkpt lat="34.804227" lon="33.4867842"><ele>29.0</ele><time>2015-05-01T09:55:49.0000000+00:00</time></trkpt><trkpt lat="34.8042888" lon="33.4867164"><ele>29.5</ele><time>2015-05-01T09:55:51.0000000+00:00</time></trkpt><trkpt lat="34.8043463" lon="33.4866416"><ele>29.9</ele><time>2015-05-01T09:55:53.0000000+00:00</time></trkpt><trkpt lat="34.8043986" lon="33.4865703"><ele>30.0</ele><time>2015-05-01T09:55:55.0000000+00:00</time></trkpt><trkpt lat="34.8044478" lon="33.4864985"><ele>29.3</ele><time>2015-05-01T09:55:57.0000000+00:00</time></trkpt><trkpt lat="34.8044872" lon="33.4864245"><ele>28.3</ele><time>2015-05-01T09:55:59.0000000+00:00</time></trkpt><trkpt lat="34.8045253" lon="33.4863408"><ele>28.6</ele><time>2015-05-01T09:56:01.0000000+00:00</time></trkpt><trkpt lat="34.80456" lon="33.4862504"><ele>28.9</ele><time>2015-05-01T09:56:03.0000000+00:00</time></trkpt><trkpt lat="34.8045836" lon="33.4861715"><ele>29.0</ele><time>2015-05-01T09:56:04.0000000+00:00</time></trkpt><trkpt lat="34.8046083" lon="33.4860666"><ele>29.5</ele><time>2015-05-01T09:56:06.0000000+00:00</time></trkpt><trkpt lat="34.804628" lon="33.4859663"><ele>29.1</ele><time>2015-05-01T09:56:08.0000000+00:00</time></trkpt><trkpt lat="34.8046378" lon="33.4858666"><ele>28.3</ele><time>2015-05-01T09:56:10.0000000+00:00</time></trkpt><trkpt lat="34.8046364" lon="33.485808"><ele>28.7</ele><time>2015-05-01T09:56:11.0000000+00:00</time></trkpt><trkpt lat="34.8046346" lon="33.4857441"><ele>28.8</ele><time>2015-05-01T09:56:12.0000000+00:00</time></trkpt><trkpt lat="34.8046168" lon="33.4856881"><ele>28.4</ele><time>2015-05-01T09:56:13.0000000+00:00</time></trkpt><trkpt lat="34.8046094" lon="33.4856286"><ele>28.7</ele><time>2015-05-01T09:56:14.0000000+00:00</time></trkpt><trkpt lat="34.8046023" lon="33.4855735"><ele>28.9</ele><time>2015-05-01T09:56:15.0000000+00:00</time></trkpt><trkpt lat="34.8045944" lon="33.4855134"><ele>28.4</ele><time>2015-05-01T09:56:16.0000000+00:00</time></trkpt><trkpt lat="34.8045727" lon="33.4853979"><ele>27.9</ele><time>2015-05-01T09:56:18.0000000+00:00</time></trkpt><trkpt lat="34.8045708" lon="33.4853358"><ele>27.4</ele><time>2015-05-01T09:56:19.0000000+00:00</time></trkpt><trkpt lat="34.8045498" lon="33.4852799"><ele>27.2</ele><time>2015-05-01T09:56:20.0000000+00:00</time></trkpt><trkpt lat="34.8045419" lon="33.4852206"><ele>27.1</ele><time>2015-05-01T09:56:21.0000000+00:00</time></trkpt><trkpt lat="34.8045415" lon="33.4851641"><ele>27.6</ele><time>2015-05-01T09:56:22.0000000+00:00</time></trkpt><trkpt lat="34.8045445" lon="33.4851054"><ele>27.8</ele><time>2015-05-01T09:56:23.0000000+00:00</time></trkpt><trkpt lat="34.8045434" lon="33.48505"><ele>27.9</ele><time>2015-05-01T09:56:24.0000000+00:00</time></trkpt><trkpt lat="34.8045488" lon="33.4849533"><ele>26.7</ele><time>2015-05-01T09:56:26.0000000+00:00</time></trkpt><trkpt lat="34.8045709" lon="33.4848704"><ele>27.0</ele><time>2015-05-01T09:56:28.0000000+00:00</time></trkpt><trkpt lat="34.8046031" lon="33.4847875"><ele>28.0</ele><time>2015-05-01T09:56:30.0000000+00:00</time></trkpt><trkpt lat="34.8046273" lon="33.4846946"><ele>28.5</ele><time>2015-05-01T09:56:32.0000000+00:00</time></trkpt><trkpt lat="34.8046529" lon="33.484603"><ele>28.9</ele><time>2015-05-01T09:56:34.0000000+00:00</time></trkpt><trkpt lat="34.8046788" lon="33.4845124"><ele>29.0</ele><time>2015-05-01T09:56:36.0000000+00:00</time></trkpt><trkpt lat="34.8047044" lon="33.4844268"><ele>29.0</ele><time>2015-05-01T09:56:38.0000000+00:00</time></trkpt><trkpt lat="34.804732" lon="33.4843459"><ele>29.0</ele><time>2015-05-01T09:56:40.0000000+00:00</time></trkpt><trkpt lat="34.8047572" lon="33.484272"><ele>28.3</ele><time>2015-05-01T09:56:42.0000000+00:00</time></trkpt><trkpt lat="34.804782" lon="33.4841984"><ele>28.1</ele><time>2015-05-01T09:56:44.0000000+00:00</time></trkpt><trkpt lat="34.8048079" lon="33.4841198"><ele>28.0</ele><time>2015-05-01T09:56:46.0000000+00:00</time></trkpt><trkpt lat="34.8048329" lon="33.4840353"><ele>28.0</ele><time>2015-05-01T09:56:48.0000000+00:00</time></trkpt><trkpt lat="34.8048585" lon="33.4839438"><ele>28.0</ele><time>2015-05-01T09:56:50.0000000+00:00</time></trkpt><trkpt lat="34.8048757" lon="33.4838831"><ele>28.0</ele><time>2015-05-01T09:56:51.0000000+00:00</time></trkpt><trkpt lat="34.8048814" lon="33.4838278"><ele>27.5</ele><time>2015-05-01T09:56:52.0000000+00:00</time></trkpt><trkpt lat="34.8048893" lon="33.483772"><ele>27.3</ele><time>2015-05-01T09:56:53.0000000+00:00</time></trkpt><trkpt lat="34.8048919" lon="33.4837148"><ele>27.1</ele><time>2015-05-01T09:56:54.0000000+00:00</time></trkpt><trkpt lat="34.8048879" lon="33.4836491"><ele>27.1</ele><time>2015-05-01T09:56:55.0000000+00:00</time></trkpt><trkpt lat="34.8048888" lon="33.483581"><ele>27.6</ele><time>2015-05-01T09:56:56.0000000+00:00</time></trkpt><trkpt lat="34.8048878" lon="33.4835209"><ele>27.3</ele><time>2015-05-01T09:56:57.0000000+00:00</time></trkpt><trkpt lat="34.8048936" lon="33.4834656"><ele>27.7</ele><time>2015-05-01T09:56:58.0000000+00:00</time></trkpt><trkpt lat="34.8048946" lon="33.4834063"><ele>27.8</ele><time>2015-05-01T09:56:59.0000000+00:00</time></trkpt><trkpt lat="34.8048898" lon="33.4833436"><ele>27.9</ele><time>2015-05-01T09:57:00.0000000+00:00</time></trkpt><trkpt lat="34.8048844" lon="33.4832878"><ele>28.0</ele><time>2015-05-01T09:57:01.0000000+00:00</time></trkpt><trkpt lat="34.8048703" lon="33.4831876"><ele>27.5</ele><time>2015-05-01T09:57:03.0000000+00:00</time></trkpt><trkpt lat="34.8048617" lon="33.483092"><ele>27.1</ele><time>2015-05-01T09:57:05.0000000+00:00</time></trkpt><trkpt lat="34.8048457" lon="33.4829978"><ele>27.1</ele><time>2015-05-01T09:57:07.0000000+00:00</time></trkpt><trkpt lat="34.8048262" lon="33.482948"><ele>28.0</ele><time>2015-05-01T09:57:08.0000000+00:00</time></trkpt><trkpt lat="34.8048038" lon="33.4828979"><ele>29.0</ele><time>2015-05-01T09:57:09.0000000+00:00</time></trkpt><trkpt lat="34.80476" lon="33.4828158"><ele>30.5</ele><time>2015-05-01T09:57:11.0000000+00:00</time></trkpt><trkpt lat="34.8047342" lon="33.4827688"><ele>31.3</ele><time>2015-05-01T09:57:12.0000000+00:00</time></trkpt><trkpt lat="34.8046957" lon="33.4826676"><ele>31.8</ele><time>2015-05-01T09:57:14.0000000+00:00</time></trkpt><trkpt lat="34.8046624" lon="33.4825626"><ele>32.0</ele><time>2015-05-01T09:57:16.0000000+00:00</time></trkpt><trkpt lat="34.8046366" lon="33.4825113"><ele>32.0</ele><time>2015-05-01T09:57:17.0000000+00:00</time></trkpt><trkpt lat="34.8046106" lon="33.4824602"><ele>32.0</ele><time>2015-05-01T09:57:18.0000000+00:00</time></trkpt><trkpt lat="34.8045866" lon="33.4824046"><ele>32.0</ele><time>2015-05-01T09:57:19.0000000+00:00</time></trkpt><trkpt lat="34.8045559" lon="33.482303"><ele>32.5</ele><time>2015-05-01T09:57:21.0000000+00:00</time></trkpt><trkpt lat="34.8045263" lon="33.4822116"><ele>32.1</ele><time>2015-05-01T09:57:23.0000000+00:00</time></trkpt><trkpt lat="34.8045053" lon="33.4821568"><ele>32.1</ele><time>2015-05-01T09:57:24.0000000+00:00</time></trkpt><trkpt lat="34.8044726" lon="33.4820541"><ele>32.0</ele><time>2015-05-01T09:57:26.0000000+00:00</time></trkpt><trkpt lat="34.8044647" lon="33.4819543"><ele>32.0</ele><time>2015-05-01T09:57:28.0000000+00:00</time></trkpt><trkpt lat="34.8044671" lon="33.4818426"><ele>30.8</ele><time>2015-05-01T09:57:30.0000000+00:00</time></trkpt><trkpt lat="34.804455" lon="33.4817373"><ele>30.2</ele><time>2015-05-01T09:57:32.0000000+00:00</time></trkpt><trkpt lat="34.8044569" lon="33.4816405"><ele>31.3</ele><time>2015-05-01T09:57:34.0000000+00:00</time></trkpt><trkpt lat="34.804466" lon="33.4815369"><ele>32.3</ele><time>2015-05-01T09:57:36.0000000+00:00</time></trkpt><trkpt lat="34.8044805" lon="33.4814381"><ele>32.9</ele><time>2015-05-01T09:57:38.0000000+00:00</time></trkpt><trkpt lat="34.8045009" lon="33.4813376"><ele>32.5</ele><time>2015-05-01T09:57:40.0000000+00:00</time></trkpt><trkpt lat="34.8045202" lon="33.4812402"><ele>32.9</ele><time>2015-05-01T09:57:42.0000000+00:00</time></trkpt><trkpt lat="34.8045429" lon="33.4811412"><ele>32.2</ele><time>2015-05-01T09:57:44.0000000+00:00</time></trkpt><trkpt lat="34.8045632" lon="33.4810431"><ele>31.3</ele><time>2015-05-01T09:57:46.0000000+00:00</time></trkpt><trkpt lat="34.8045806" lon="33.4809432"><ele>31.8</ele><time>2015-05-01T09:57:48.0000000+00:00</time></trkpt><trkpt lat="34.804596" lon="33.4808488"><ele>32.0</ele><time>2015-05-01T09:57:50.0000000+00:00</time></trkpt><trkpt lat="34.8046098" lon="33.4807567"><ele>32.0</ele><time>2015-05-01T09:57:52.0000000+00:00</time></trkpt><trkpt lat="34.804621" lon="33.4806656"><ele>32.5</ele><time>2015-05-01T09:57:54.0000000+00:00</time></trkpt><trkpt lat="34.8046317" lon="33.4805694"><ele>32.6</ele><time>2015-05-01T09:57:56.0000000+00:00</time></trkpt><trkpt lat="34.8046436" lon="33.4804729"><ele>32.9</ele><time>2015-05-01T09:57:58.0000000+00:00</time></trkpt><trkpt lat="34.8046543" lon="33.4803762"><ele>32.5</ele><time>2015-05-01T09:58:00.0000000+00:00</time></trkpt><trkpt lat="34.8046578" lon="33.4802796"><ele>32.6</ele><time>2015-05-01T09:58:02.0000000+00:00</time></trkpt><trkpt lat="34.8046484" lon="33.4801818"><ele>32.9</ele><time>2015-05-01T09:58:04.0000000+00:00</time></trkpt><trkpt lat="34.8046389" lon="33.4800831"><ele>32.2</ele><time>2015-05-01T09:58:06.0000000+00:00</time></trkpt><trkpt lat="34.8046171" lon="33.4799805"><ele>33.3</ele><time>2015-05-01T09:58:08.0000000+00:00</time></trkpt><trkpt lat="34.8045888" lon="33.4798801"><ele>33.8</ele><time>2015-05-01T09:58:10.0000000+00:00</time></trkpt><trkpt lat="34.8045623" lon="33.4797792"><ele>33.2</ele><time>2015-05-01T09:58:12.0000000+00:00</time></trkpt><trkpt lat="34.8045337" lon="33.4796792"><ele>33.1</ele><time>2015-05-01T09:58:14.0000000+00:00</time></trkpt><trkpt lat="34.8045049" lon="33.4795807"><ele>33.0</ele><time>2015-05-01T09:58:16.0000000+00:00</time></trkpt><trkpt lat="34.8044812" lon="33.479484"><ele>32.8</ele><time>2015-05-01T09:58:18.0000000+00:00</time></trkpt><trkpt lat="34.8044546" lon="33.4793912"><ele>32.5</ele><time>2015-05-01T09:58:20.0000000+00:00</time></trkpt><trkpt lat="34.8044284" lon="33.4792968"><ele>32.1</ele><time>2015-05-01T09:58:22.0000000+00:00</time></trkpt><trkpt lat="34.8043999" lon="33.4792026"><ele>32.8</ele><time>2015-05-01T09:58:24.0000000+00:00</time></trkpt><trkpt lat="34.8043715" lon="33.47911"><ele>33.5</ele><time>2015-05-01T09:58:26.0000000+00:00</time></trkpt><trkpt lat="34.8043439" lon="33.4790164"><ele>33.9</ele><time>2015-05-01T09:58:28.0000000+00:00</time></trkpt><trkpt lat="34.8043168" lon="33.4789205"><ele>34.5</ele><time>2015-05-01T09:58:30.0000000+00:00</time></trkpt><trkpt lat="34.8042921" lon="33.4788234"><ele>34.1</ele><time>2015-05-01T09:58:32.0000000+00:00</time></trkpt><trkpt lat="34.8042695" lon="33.4787273"><ele>34.8</ele><time>2015-05-01T09:58:34.0000000+00:00</time></trkpt><trkpt lat="34.8042501" lon="33.4786337"><ele>35.0</ele><time>2015-05-01T09:58:36.0000000+00:00</time></trkpt><trkpt lat="34.80423" lon="33.4785414"><ele>35.5</ele><time>2015-05-01T09:58:38.0000000+00:00</time></trkpt><trkpt lat="34.8042061" lon="33.478454"><ele>35.6</ele><time>2015-05-01T09:58:40.0000000+00:00</time></trkpt><trkpt lat="34.8041848" lon="33.4783702"><ele>35.9</ele><time>2015-05-01T09:58:42.0000000+00:00</time></trkpt><trkpt lat="34.8041689" lon="33.4782964"><ele>35.5</ele><time>2015-05-01T09:58:44.0000000+00:00</time></trkpt><trkpt lat="34.8041514" lon="33.4782409"><ele>35.9</ele><time>2015-05-01T09:58:46.0000000+00:00</time></trkpt><trkpt lat="34.8041355" lon="33.4781893"><ele>36.2</ele><time>2015-05-01T09:58:48.0000000+00:00</time></trkpt><trkpt lat="34.8041228" lon="33.4781299"><ele>35.6</ele><time>2015-05-01T09:58:50.0000000+00:00</time></trkpt><trkpt lat="34.8041113" lon="33.4780628"><ele>35.4</ele><time>2015-05-01T09:58:52.0000000+00:00</time></trkpt><trkpt lat="34.8040985" lon="33.4779929"><ele>35.1</ele><time>2015-05-01T09:58:54.0000000+00:00</time></trkpt><trkpt lat="34.804084" lon="33.4779183"><ele>35.8</ele><time>2015-05-01T09:58:56.0000000+00:00</time></trkpt><trkpt lat="34.8040681" lon="33.4778416"><ele>36.7</ele><time>2015-05-01T09:58:58.0000000+00:00</time></trkpt><trkpt lat="34.8040565" lon="33.4777689"><ele>36.9</ele><time>2015-05-01T09:59:00.0000000+00:00</time></trkpt><trkpt lat="34.8040453" lon="33.4777027"><ele>37.0</ele><time>2015-05-01T09:59:02.0000000+00:00</time></trkpt><trkpt lat="34.8040344" lon="33.4776466"><ele>37.0</ele><time>2015-05-01T09:59:04.0000000+00:00</time></trkpt><trkpt lat="34.8040264" lon="33.4775831"><ele>37.0</ele><time>2015-05-01T09:59:07.0000000+00:00</time></trkpt><trkpt lat="34.8040144" lon="33.4775166"><ele>37.0</ele><time>2015-05-01T09:59:10.0000000+00:00</time></trkpt><trkpt lat="34.8040032" lon="33.4774435"><ele>37.0</ele><time>2015-05-01T09:59:13.0000000+00:00</time></trkpt><trkpt lat="34.8039903" lon="33.4773848"><ele>37.0</ele><time>2015-05-01T09:59:15.0000000+00:00</time></trkpt><trkpt lat="34.803977" lon="33.4773137"><ele>37.0</ele><time>2015-05-01T09:59:17.0000000+00:00</time></trkpt><trkpt lat="34.8039606" lon="33.4772284"><ele>37.0</ele><time>2015-05-01T09:59:19.0000000+00:00</time></trkpt><trkpt lat="34.8039495" lon="33.4771333"><ele>36.3</ele><time>2015-05-01T09:59:21.0000000+00:00</time></trkpt><trkpt lat="34.8039406" lon="33.4770453"><ele>35.8</ele><time>2015-05-01T09:59:23.0000000+00:00</time></trkpt><trkpt lat="34.803933" lon="33.4769538"><ele>35.2</ele><time>2015-05-01T09:59:25.0000000+00:00</time></trkpt><trkpt lat="34.8039181" lon="33.4768648"><ele>35.6</ele><time>2015-05-01T09:59:27.0000000+00:00</time></trkpt><trkpt lat="34.8039059" lon="33.4767753"><ele>35.9</ele><time>2015-05-01T09:59:29.0000000+00:00</time></trkpt><trkpt lat="34.8038945" lon="33.4766904"><ele>36.7</ele><time>2015-05-01T09:59:31.0000000+00:00</time></trkpt><trkpt lat="34.8038857" lon="33.4766036"><ele>37.0</ele><time>2015-05-01T09:59:33.0000000+00:00</time></trkpt><trkpt lat="34.8038783" lon="33.4765191"><ele>37.0</ele><time>2015-05-01T09:59:35.0000000+00:00</time></trkpt><trkpt lat="34.8038662" lon="33.4764359"><ele>37.0</ele><time>2015-05-01T09:59:37.0000000+00:00</time></trkpt><trkpt lat="34.8038523" lon="33.4763544"><ele>37.0</ele><time>2015-05-01T09:59:39.0000000+00:00</time></trkpt><trkpt lat="34.8038425" lon="33.476269"><ele>37.8</ele><time>2015-05-01T09:59:41.0000000+00:00</time></trkpt><trkpt lat="34.8038361" lon="33.4761828"><ele>37.5</ele><time>2015-05-01T09:59:43.0000000+00:00</time></trkpt><trkpt lat="34.803829" lon="33.4761082"><ele>37.1</ele><time>2015-05-01T09:59:45.0000000+00:00</time></trkpt><trkpt lat="34.8038208" lon="33.4760383"><ele>36.5</ele><time>2015-05-01T09:59:47.0000000+00:00</time></trkpt><trkpt lat="34.803813" lon="33.4759686"><ele>36.2</ele><time>2015-05-01T09:59:49.0000000+00:00</time></trkpt><trkpt lat="34.8038012" lon="33.4759039"><ele>35.6</ele><time>2015-05-01T09:59:51.0000000+00:00</time></trkpt><trkpt lat="34.8037938" lon="33.475835"><ele>35.9</ele><time>2015-05-01T09:59:53.0000000+00:00</time></trkpt><trkpt lat="34.8037862" lon="33.4757635"><ele>36.0</ele><time>2015-05-01T09:59:55.0000000+00:00</time></trkpt><trkpt lat="34.8037789" lon="33.475689"><ele>36.0</ele><time>2015-05-01T09:59:57.0000000+00:00</time></trkpt><trkpt lat="34.803769" lon="33.4756144"><ele>36.0</ele><time>2015-05-01T09:59:59.0000000+00:00</time></trkpt><trkpt lat="34.8037617" lon="33.4755408"><ele>36.0</ele><time>2015-05-01T10:00:01.0000000+00:00</time></trkpt><trkpt lat="34.8037538" lon="33.4754709"><ele>35.3</ele><time>2015-05-01T10:00:03.0000000+00:00</time></trkpt><trkpt lat="34.8037453" lon="33.4753999"><ele>35.1</ele><time>2015-05-01T10:00:05.0000000+00:00</time></trkpt><trkpt lat="34.8037349" lon="33.4753212"><ele>35.0</ele><time>2015-05-01T10:00:07.0000000+00:00</time></trkpt><trkpt lat="34.8037251" lon="33.4752382"><ele>35.0</ele><time>2015-05-01T10:00:09.0000000+00:00</time></trkpt><trkpt lat="34.8037206" lon="33.4751523"><ele>35.0</ele><time>2015-05-01T10:00:11.0000000+00:00</time></trkpt><trkpt lat="34.8037082" lon="33.4750649"><ele>35.0</ele><time>2015-05-01T10:00:13.0000000+00:00</time></trkpt><trkpt lat="34.803697" lon="33.4749812"><ele>35.0</ele><time>2015-05-01T10:00:15.0000000+00:00</time></trkpt><trkpt lat="34.803691" lon="33.474902"><ele>35.8</ele><time>2015-05-01T10:00:17.0000000+00:00</time></trkpt><trkpt lat="34.8036859" lon="33.474823"><ele>35.5</ele><time>2015-05-01T10:00:19.0000000+00:00</time></trkpt><trkpt lat="34.8036829" lon="33.4747413"><ele>35.9</ele><time>2015-05-01T10:00:21.0000000+00:00</time></trkpt><trkpt lat="34.80368" lon="33.4746576"><ele>36.5</ele><time>2015-05-01T10:00:23.0000000+00:00</time></trkpt><trkpt lat="34.8036788" lon="33.4745672"><ele>36.1</ele><time>2015-05-01T10:00:25.0000000+00:00</time></trkpt><trkpt lat="34.8036768" lon="33.4744796"><ele>36.1</ele><time>2015-05-01T10:00:27.0000000+00:00</time></trkpt><trkpt lat="34.8036734" lon="33.4743968"><ele>36.0</ele><time>2015-05-01T10:00:29.0000000+00:00</time></trkpt><trkpt lat="34.8036757" lon="33.4743316"><ele>36.0</ele><time>2015-05-01T10:00:31.0000000+00:00</time></trkpt><trkpt lat="34.8036785" lon="33.474256"><ele>36.0</ele><time>2015-05-01T10:00:33.0000000+00:00</time></trkpt><trkpt lat="34.8036845" lon="33.4741749"><ele>36.0</ele><time>2015-05-01T10:00:35.0000000+00:00</time></trkpt><trkpt lat="34.803694" lon="33.4740851"><ele>36.0</ele><time>2015-05-01T10:00:37.0000000+00:00</time></trkpt><trkpt lat="34.8037132" lon="33.4739973"><ele>36.0</ele><time>2015-05-01T10:00:39.0000000+00:00</time></trkpt><trkpt lat="34.8037297" lon="33.4739163"><ele>36.0</ele><time>2015-05-01T10:00:41.0000000+00:00</time></trkpt><trkpt lat="34.8037445" lon="33.4738369"><ele>35.3</ele><time>2015-05-01T10:00:43.0000000+00:00</time></trkpt><trkpt lat="34.8037596" lon="33.473758"><ele>35.8</ele><time>2015-05-01T10:00:45.0000000+00:00</time></trkpt><trkpt lat="34.8037762" lon="33.4736798"><ele>36.0</ele><time>2015-05-01T10:00:47.0000000+00:00</time></trkpt><trkpt lat="34.8037911" lon="33.4735994"><ele>36.0</ele><time>2015-05-01T10:00:49.0000000+00:00</time></trkpt><trkpt lat="34.8038041" lon="33.473525"><ele>36.0</ele><time>2015-05-01T10:00:51.0000000+00:00</time></trkpt><trkpt lat="34.8038162" lon="33.4734518"><ele>36.1</ele><time>2015-05-01T10:00:54.0000000+00:00</time></trkpt><trkpt lat="34.8038285" lon="33.4733987"><ele>36.1</ele><time>2015-05-01T10:00:56.0000000+00:00</time></trkpt><trkpt lat="34.8038373" lon="33.47333"><ele>36.0</ele><time>2015-05-01T10:00:58.0000000+00:00</time></trkpt><trkpt lat="34.8038482" lon="33.4732529"><ele>36.5</ele><time>2015-05-01T10:01:00.0000000+00:00</time></trkpt><trkpt lat="34.8038617" lon="33.4731753"><ele>36.9</ele><time>2015-05-01T10:01:02.0000000+00:00</time></trkpt><trkpt lat="34.8038736" lon="33.4730971"><ele>37.0</ele><time>2015-05-01T10:01:04.0000000+00:00</time></trkpt><trkpt lat="34.8038879" lon="33.4730193"><ele>37.0</ele><time>2015-05-01T10:01:06.0000000+00:00</time></trkpt><trkpt lat="34.8039047" lon="33.4729429"><ele>36.3</ele><time>2015-05-01T10:01:08.0000000+00:00</time></trkpt><trkpt lat="34.8039211" lon="33.4728674"><ele>36.1</ele><time>2015-05-01T10:01:10.0000000+00:00</time></trkpt><trkpt lat="34.8039382" lon="33.4727899"><ele>36.0</ele><time>2015-05-01T10:01:12.0000000+00:00</time></trkpt><trkpt lat="34.8039575" lon="33.4727117"><ele>36.3</ele><time>2015-05-01T10:01:14.0000000+00:00</time></trkpt><trkpt lat="34.8039776" lon="33.4726341"><ele>36.8</ele><time>2015-05-01T10:01:16.0000000+00:00</time></trkpt><trkpt lat="34.8039984" lon="33.4725554"><ele>37.0</ele><time>2015-05-01T10:01:18.0000000+00:00</time></trkpt><trkpt lat="34.8040211" lon="33.4724776"><ele>37.0</ele><time>2015-05-01T10:01:20.0000000+00:00</time></trkpt><trkpt lat="34.8040412" lon="33.4723994"><ele>37.0</ele><time>2015-05-01T10:01:22.0000000+00:00</time></trkpt><trkpt lat="34.8040639" lon="33.4723209"><ele>37.0</ele><time>2015-05-01T10:01:24.0000000+00:00</time></trkpt><trkpt lat="34.8040894" lon="33.4722438"><ele>37.5</ele><time>2015-05-01T10:01:26.0000000+00:00</time></trkpt><trkpt lat="34.8041113" lon="33.4721667"><ele>37.4</ele><time>2015-05-01T10:01:28.0000000+00:00</time></trkpt><trkpt lat="34.804136" lon="33.4720918"><ele>37.4</ele><time>2015-05-01T10:01:30.0000000+00:00</time></trkpt><trkpt lat="34.8041703" lon="33.472023"><ele>37.1</ele><time>2015-05-01T10:01:32.0000000+00:00</time></trkpt><trkpt lat="34.8042017" lon="33.4719523"><ele>37.5</ele><time>2015-05-01T10:01:34.0000000+00:00</time></trkpt><trkpt lat="34.804226" lon="33.4718742"><ele>37.9</ele><time>2015-05-01T10:01:36.0000000+00:00</time></trkpt><trkpt lat="34.8042541" lon="33.4717992"><ele>38.0</ele><time>2015-05-01T10:01:38.0000000+00:00</time></trkpt><trkpt lat="34.8042836" lon="33.4717238"><ele>38.0</ele><time>2015-05-01T10:01:40.0000000+00:00</time></trkpt><trkpt lat="34.8043147" lon="33.4716482"><ele>38.0</ele><time>2015-05-01T10:01:42.0000000+00:00</time></trkpt><trkpt lat="34.804348" lon="33.4715739"><ele>38.0</ele><time>2015-05-01T10:01:44.0000000+00:00</time></trkpt><trkpt lat="34.8043816" lon="33.4714979"><ele>38.5</ele><time>2015-05-01T10:01:46.0000000+00:00</time></trkpt><trkpt lat="34.8044149" lon="33.4714196"><ele>38.9</ele><time>2015-05-01T10:01:48.0000000+00:00</time></trkpt><trkpt lat="34.8044482" lon="33.4713395"><ele>39.0</ele><time>2015-05-01T10:01:50.0000000+00:00</time></trkpt><trkpt lat="34.804481" lon="33.4712596"><ele>39.0</ele><time>2015-05-01T10:01:52.0000000+00:00</time></trkpt><trkpt lat="34.8045174" lon="33.471177"><ele>39.8</ele><time>2015-05-01T10:01:54.0000000+00:00</time></trkpt><trkpt lat="34.8045499" lon="33.471101"><ele>40.0</ele><time>2015-05-01T10:01:56.0000000+00:00</time></trkpt><trkpt lat="34.804577" lon="33.4710353"><ele>40.0</ele><time>2015-05-01T10:01:58.0000000+00:00</time></trkpt><trkpt lat="34.8046108" lon="33.4709728"><ele>40.0</ele><time>2015-05-01T10:02:00.0000000+00:00</time></trkpt><trkpt lat="34.8046403" lon="33.4709125"><ele>40.8</ele><time>2015-05-01T10:02:02.0000000+00:00</time></trkpt><trkpt lat="34.8046649" lon="33.4708424"><ele>41.0</ele><time>2015-05-01T10:02:05.0000000+00:00</time></trkpt><trkpt lat="34.8046886" lon="33.470777"><ele>40.3</ele><time>2015-05-01T10:02:09.0000000+00:00</time></trkpt><trkpt lat="34.8047054" lon="33.4707206"><ele>40.2</ele><time>2015-05-01T10:02:12.0000000+00:00</time></trkpt><trkpt lat="34.8047279" lon="33.4706582"><ele>40.0</ele><time>2015-05-01T10:02:15.0000000+00:00</time></trkpt><trkpt lat="34.8047481" lon="33.4705909"><ele>40.0</ele><time>2015-05-01T10:02:18.0000000+00:00</time></trkpt><trkpt lat="34.8047708" lon="33.4705208"><ele>40.0</ele><time>2015-05-01T10:02:20.0000000+00:00</time></trkpt><trkpt lat="34.8047906" lon="33.4704493"><ele>40.0</ele><time>2015-05-01T10:02:22.0000000+00:00</time></trkpt><trkpt lat="34.8048121" lon="33.4703823"><ele>40.0</ele><time>2015-05-01T10:02:24.0000000+00:00</time></trkpt><trkpt lat="34.8048339" lon="33.4703153"><ele>40.8</ele><time>2015-05-01T10:02:26.0000000+00:00</time></trkpt><trkpt lat="34.804859" lon="33.4702385"><ele>41.0</ele><time>2015-05-01T10:02:28.0000000+00:00</time></trkpt><trkpt lat="34.8048846" lon="33.4701536"><ele>41.5</ele><time>2015-05-01T10:02:30.0000000+00:00</time></trkpt><trkpt lat="34.8049121" lon="33.4700678"><ele>41.9</ele><time>2015-05-01T10:02:32.0000000+00:00</time></trkpt><trkpt lat="34.804941" lon="33.4699819"><ele>42.0</ele><time>2015-05-01T10:02:34.0000000+00:00</time></trkpt><trkpt lat="34.8049701" lon="33.4698975"><ele>42.0</ele><time>2015-05-01T10:02:36.0000000+00:00</time></trkpt><trkpt lat="34.8049961" lon="33.4698128"><ele>42.5</ele><time>2015-05-01T10:02:38.0000000+00:00</time></trkpt><trkpt lat="34.8050206" lon="33.4697294"><ele>42.9</ele><time>2015-05-01T10:02:40.0000000+00:00</time></trkpt><trkpt lat="34.8050444" lon="33.4696486"><ele>43.0</ele><time>2015-05-01T10:02:42.0000000+00:00</time></trkpt><trkpt lat="34.8050707" lon="33.4695674"><ele>43.0</ele><time>2015-05-01T10:02:44.0000000+00:00</time></trkpt><trkpt lat="34.8050976" lon="33.4694944"><ele>43.3</ele><time>2015-05-01T10:02:46.0000000+00:00</time></trkpt><trkpt lat="34.8051235" lon="33.4694158"><ele>43.8</ele><time>2015-05-01T10:02:48.0000000+00:00</time></trkpt><trkpt lat="34.8051511" lon="33.4693366"><ele>43.7</ele><time>2015-05-01T10:02:50.0000000+00:00</time></trkpt><trkpt lat="34.8051796" lon="33.4692563"><ele>43.9</ele><time>2015-05-01T10:02:52.0000000+00:00</time></trkpt><trkpt lat="34.8052091" lon="33.4691809"><ele>44.0</ele><time>2015-05-01T10:02:54.0000000+00:00</time></trkpt><trkpt lat="34.8052392" lon="33.4691053"><ele>44.0</ele><time>2015-05-01T10:02:56.0000000+00:00</time></trkpt><trkpt lat="34.8052713" lon="33.4690321"><ele>44.0</ele><time>2015-05-01T10:02:58.0000000+00:00</time></trkpt><trkpt lat="34.8053003" lon="33.4689566"><ele>44.0</ele><time>2015-05-01T10:03:00.0000000+00:00</time></trkpt><trkpt lat="34.8053286" lon="33.468882"><ele>44.0</ele><time>2015-05-01T10:03:02.0000000+00:00</time></trkpt><trkpt lat="34.8053541" lon="33.4688184"><ele>44.0</ele><time>2015-05-01T10:03:04.0000000+00:00</time></trkpt><trkpt lat="34.8053765" lon="33.4687616"><ele>44.0</ele><time>2015-05-01T10:03:06.0000000+00:00</time></trkpt><trkpt lat="34.8054104" lon="33.4687004"><ele>43.1</ele><time>2015-05-01T10:03:09.0000000+00:00</time></trkpt><trkpt lat="34.8054358" lon="33.4686483"><ele>43.0</ele><time>2015-05-01T10:03:12.0000000+00:00</time></trkpt><trkpt lat="34.8054634" lon="33.4686036"><ele>43.0</ele><time>2015-05-01T10:03:15.0000000+00:00</time></trkpt><trkpt lat="34.8054926" lon="33.4685326"><ele>43.0</ele><time>2015-05-01T10:03:18.0000000+00:00</time></trkpt><trkpt lat="34.8055199" lon="33.4684696"><ele>43.0</ele><time>2015-05-01T10:03:21.0000000+00:00</time></trkpt><trkpt lat="34.8055442" lon="33.4684168"><ele>43.0</ele><time>2015-05-01T10:03:25.0000000+00:00</time></trkpt><trkpt lat="34.8055674" lon="33.4683446"><ele>43.0</ele><time>2015-05-01T10:03:28.0000000+00:00</time></trkpt><trkpt lat="34.8056002" lon="33.4682665"><ele>43.0</ele><time>2015-05-01T10:03:30.0000000+00:00</time></trkpt><trkpt lat="34.8056305" lon="33.4681845"><ele>43.0</ele><time>2015-05-01T10:03:32.0000000+00:00</time></trkpt><trkpt lat="34.8056598" lon="33.4681072"><ele>43.0</ele><time>2015-05-01T10:03:34.0000000+00:00</time></trkpt><trkpt lat="34.8056906" lon="33.4680243"><ele>43.0</ele><time>2015-05-01T10:03:36.0000000+00:00</time></trkpt><trkpt lat="34.8057206" lon="33.4679404"><ele>43.0</ele><time>2015-05-01T10:03:38.0000000+00:00</time></trkpt><trkpt lat="34.8057468" lon="33.4678576"><ele>43.8</ele><time>2015-05-01T10:03:40.0000000+00:00</time></trkpt><trkpt lat="34.8057643" lon="33.4677926"><ele>44.0</ele><time>2015-05-01T10:03:42.0000000+00:00</time></trkpt><trkpt lat="34.8057863" lon="33.467737"><ele>44.0</ele><time>2015-05-01T10:03:44.0000000+00:00</time></trkpt><trkpt lat="34.8058093" lon="33.4676724"><ele>44.0</ele><time>2015-05-01T10:03:47.0000000+00:00</time></trkpt><trkpt lat="34.8058199" lon="33.4675942"><ele>44.0</ele><time>2015-05-01T10:03:49.0000000+00:00</time></trkpt><trkpt lat="34.805837" lon="33.4675077"><ele>44.0</ele><time>2015-05-01T10:03:51.0000000+00:00</time></trkpt><trkpt lat="34.8058555" lon="33.4674302"><ele>44.0</ele><time>2015-05-01T10:03:53.0000000+00:00</time></trkpt><trkpt lat="34.8058669" lon="33.4673727"><ele>44.5</ele><time>2015-05-01T10:03:55.0000000+00:00</time></trkpt><trkpt lat="34.8058782" lon="33.467306"><ele>44.9</ele><time>2015-05-01T10:03:57.0000000+00:00</time></trkpt><trkpt lat="34.8058983" lon="33.4672167"><ele>45.0</ele><time>2015-05-01T10:03:59.0000000+00:00</time></trkpt><trkpt lat="34.805916" lon="33.46714"><ele>45.0</ele><time>2015-05-01T10:04:01.0000000+00:00</time></trkpt><trkpt lat="34.8059299" lon="33.4670645"><ele>45.0</ele><time>2015-05-01T10:04:03.0000000+00:00</time></trkpt><trkpt lat="34.8059471" lon="33.4669852"><ele>45.0</ele><time>2015-05-01T10:04:05.0000000+00:00</time></trkpt><trkpt lat="34.8059635" lon="33.4669065"><ele>45.5</ele><time>2015-05-01T10:04:07.0000000+00:00</time></trkpt><trkpt lat="34.805972" lon="33.4668429"><ele>45.1</ele><time>2015-05-01T10:04:09.0000000+00:00</time></trkpt><trkpt lat="34.8059892" lon="33.4667817"><ele>45.6</ele><time>2015-05-01T10:04:11.0000000+00:00</time></trkpt><trkpt lat="34.8060077" lon="33.4667126"><ele>45.9</ele><time>2015-05-01T10:04:13.0000000+00:00</time></trkpt><trkpt lat="34.8060236" lon="33.4666176"><ele>46.0</ele><time>2015-05-01T10:04:15.0000000+00:00</time></trkpt><trkpt lat="34.8060422" lon="33.466527"><ele>46.0</ele><time>2015-05-01T10:04:17.0000000+00:00</time></trkpt><trkpt lat="34.8060612" lon="33.4664411"><ele>46.0</ele><time>2015-05-01T10:04:19.0000000+00:00</time></trkpt><trkpt lat="34.8060661" lon="33.4663764"><ele>46.0</ele><time>2015-05-01T10:04:21.0000000+00:00</time></trkpt><trkpt lat="34.8060244" lon="33.4663525"><ele>46.0</ele><time>2015-05-01T10:04:31.0000000+00:00</time></trkpt><trkpt lat="34.80598" lon="33.466337"><ele>45.3</ele><time>2015-05-01T10:05:30.0000000+00:00</time></trkpt><trkpt lat="34.8059328" lon="33.4663402"><ele>45.3</ele><time>2015-05-01T10:05:43.0000000+00:00</time></trkpt><trkpt lat="34.8058836" lon="33.4663392"><ele>45.1</ele><time>2015-05-01T10:05:46.0000000+00:00</time></trkpt><trkpt lat="34.8058338" lon="33.4663456"><ele>44.3</ele><time>2015-05-01T10:05:49.0000000+00:00</time></trkpt><trkpt lat="34.8057812" lon="33.4663507"><ele>44.2</ele><time>2015-05-01T10:05:52.0000000+00:00</time></trkpt><trkpt lat="34.8057251" lon="33.4663546"><ele>44.8</ele><time>2015-05-01T10:05:55.0000000+00:00</time></trkpt><trkpt lat="34.8056593" lon="33.4663625"><ele>45.5</ele><time>2015-05-01T10:05:58.0000000+00:00</time></trkpt><trkpt lat="34.8056061" lon="33.4663626"><ele>45.9</ele><time>2015-05-01T10:06:00.0000000+00:00</time></trkpt><trkpt lat="34.8055547" lon="33.4663729"><ele>46.0</ele><time>2015-05-01T10:06:02.0000000+00:00</time></trkpt><trkpt lat="34.805504" lon="33.466394"><ele>46.8</ele><time>2015-05-01T10:06:04.0000000+00:00</time></trkpt><trkpt lat="34.8054523" lon="33.4664056"><ele>47.0</ele><time>2015-05-01T10:06:06.0000000+00:00</time></trkpt><trkpt lat="34.8054008" lon="33.4664154"><ele>47.8</ele><time>2015-05-01T10:06:08.0000000+00:00</time></trkpt><trkpt lat="34.8053534" lon="33.4664273"><ele>48.0</ele><time>2015-05-01T10:06:10.0000000+00:00</time></trkpt><trkpt lat="34.8053024" lon="33.4664292"><ele>48.0</ele><time>2015-05-01T10:06:13.0000000+00:00</time></trkpt><trkpt lat="34.8052509" lon="33.4664502"><ele>48.0</ele><time>2015-05-01T10:06:17.0000000+00:00</time></trkpt><trkpt lat="34.8052077" lon="33.4664781"><ele>48.0</ele><time>2015-05-01T10:06:20.0000000+00:00</time></trkpt><trkpt lat="34.8051663" lon="33.4665144"><ele>48.9</ele><time>2015-05-01T10:06:23.0000000+00:00</time></trkpt><trkpt lat="34.8051227" lon="33.4665483"><ele>49.0</ele><time>2015-05-01T10:06:26.0000000+00:00</time></trkpt><trkpt lat="34.8050872" lon="33.4665843"><ele>49.5</ele><time>2015-05-01T10:06:29.0000000+00:00</time></trkpt><trkpt lat="34.8050482" lon="33.4666189"><ele>50.8</ele><time>2015-05-01T10:06:32.0000000+00:00</time></trkpt><trkpt lat="34.8050126" lon="33.4666537"><ele>51.0</ele><time>2015-05-01T10:06:35.0000000+00:00</time></trkpt><trkpt lat="34.8049691" lon="33.4666948"><ele>52.0</ele><time>2015-05-01T10:06:39.0000000+00:00</time></trkpt><trkpt lat="34.8049331" lon="33.4667416"><ele>52.0</ele><time>2015-05-01T10:06:43.0000000+00:00</time></trkpt><trkpt lat="34.804897" lon="33.4667802"><ele>52.3</ele><time>2015-05-01T10:06:47.0000000+00:00</time></trkpt><trkpt lat="34.80487" lon="33.4668264"><ele>53.4</ele><time>2015-05-01T10:06:51.0000000+00:00</time></trkpt><trkpt lat="34.8048478" lon="33.4668778"><ele>54.0</ele><time>2015-05-01T10:06:55.0000000+00:00</time></trkpt><trkpt lat="34.8048315" lon="33.4669318"><ele>55.0</ele><time>2015-05-01T10:06:59.0000000+00:00</time></trkpt><trkpt lat="34.8048105" lon="33.4669848"><ele>56.6</ele><time>2015-05-01T10:07:03.0000000+00:00</time></trkpt><trkpt lat="34.804798" lon="33.4670424"><ele>57.0</ele><time>2015-05-01T10:07:07.0000000+00:00</time></trkpt><trkpt lat="34.8047793" lon="33.4670983"><ele>57.9</ele><time>2015-05-01T10:07:11.0000000+00:00</time></trkpt><trkpt lat="34.8047605" lon="33.4671576"><ele>58.9</ele><time>2015-05-01T10:07:15.0000000+00:00</time></trkpt><trkpt lat="34.8047247" lon="33.4672033"><ele>59.0</ele><time>2015-05-01T10:07:19.0000000+00:00</time></trkpt><trkpt lat="34.8046803" lon="33.4672398"><ele>59.8</ele><time>2015-05-01T10:07:23.0000000+00:00</time></trkpt><trkpt lat="34.8046297" lon="33.4672638"><ele>60.0</ele><time>2015-05-01T10:07:27.0000000+00:00</time></trkpt><trkpt lat="34.8045771" lon="33.4672718"><ele>61.4</ele><time>2015-05-01T10:07:31.0000000+00:00</time></trkpt><trkpt lat="34.8045237" lon="33.4672692"><ele>61.3</ele><time>2015-05-01T10:07:35.0000000+00:00</time></trkpt><trkpt lat="34.8044783" lon="33.4672671"><ele>62.0</ele><time>2015-05-01T10:08:00.0000000+00:00</time></trkpt><trkpt lat="34.8045447" lon="33.4672717"><ele>59.4</ele><time>2015-05-01T10:08:07.0000000+00:00</time></trkpt><trkpt lat="34.804604" lon="33.4672678"><ele>59.4</ele><time>2015-05-01T10:08:09.0000000+00:00</time></trkpt><trkpt lat="34.8046643" lon="33.4672466"><ele>58.9</ele><time>2015-05-01T10:08:11.0000000+00:00</time></trkpt><trkpt lat="34.8047197" lon="33.4672015"><ele>59.0</ele><time>2015-05-01T10:08:13.0000000+00:00</time></trkpt><trkpt lat="34.8047639" lon="33.4671401"><ele>57.8</ele><time>2015-05-01T10:08:15.0000000+00:00</time></trkpt><trkpt lat="34.8048002" lon="33.4670657"><ele>57.2</ele><time>2015-05-01T10:08:17.0000000+00:00</time></trkpt><trkpt lat="34.804824" lon="33.4669821"><ele>56.6</ele><time>2015-05-01T10:08:19.0000000+00:00</time></trkpt><trkpt lat="34.8048484" lon="33.4668983"><ele>56.2</ele><time>2015-05-01T10:08:21.0000000+00:00</time></trkpt><trkpt lat="34.804884" lon="33.4668125"><ele>54.6</ele><time>2015-05-01T10:08:23.0000000+00:00</time></trkpt><trkpt lat="34.8049416" lon="33.4667286"><ele>54.3</ele><time>2015-05-01T10:08:24.0000000+00:00</time></trkpt><trkpt lat="34.8049888" lon="33.466677"><ele>53.7</ele><time>2015-05-01T10:08:25.0000000+00:00</time></trkpt><trkpt lat="34.8050456" lon="33.4666213"><ele>52.8</ele><time>2015-05-01T10:08:26.0000000+00:00</time></trkpt><trkpt lat="34.8051031" lon="33.4665792"><ele>51.9</ele><time>2015-05-01T10:08:27.0000000+00:00</time></trkpt><trkpt lat="34.8051617" lon="33.4665281"><ele>51.0</ele><time>2015-05-01T10:08:28.0000000+00:00</time></trkpt><trkpt lat="34.8052256" lon="33.4664835"><ele>50.0</ele><time>2015-05-01T10:08:29.0000000+00:00</time></trkpt><trkpt lat="34.8052801" lon="33.4664482"><ele>49.0</ele><time>2015-05-01T10:08:30.0000000+00:00</time></trkpt><trkpt lat="34.8053292" lon="33.4664326"><ele>48.0</ele><time>2015-05-01T10:08:31.0000000+00:00</time></trkpt><trkpt lat="34.8053943" lon="33.4664162"><ele>47.5</ele><time>2015-05-01T10:08:32.0000000+00:00</time></trkpt><trkpt lat="34.8054525" lon="33.4663998"><ele>47.8</ele><time>2015-05-01T10:08:33.0000000+00:00</time></trkpt><trkpt lat="34.8055136" lon="33.4663901"><ele>48.4</ele><time>2015-05-01T10:08:34.0000000+00:00</time></trkpt><trkpt lat="34.8055644" lon="33.46639"><ele>48.7</ele><time>2015-05-01T10:08:35.0000000+00:00</time></trkpt><trkpt lat="34.805629" lon="33.466391"><ele>48.4</ele><time>2015-05-01T10:08:36.0000000+00:00</time></trkpt><trkpt lat="34.8056912" lon="33.4663898"><ele>47.2</ele><time>2015-05-01T10:08:37.0000000+00:00</time></trkpt><trkpt lat="34.8057579" lon="33.4663891"><ele>46.6</ele><time>2015-05-01T10:08:38.0000000+00:00</time></trkpt><trkpt lat="34.8058195" lon="33.4663848"><ele>46.3</ele><time>2015-05-01T10:08:39.0000000+00:00</time></trkpt><trkpt lat="34.8058795" lon="33.4663774"><ele>46.2</ele><time>2015-05-01T10:08:40.0000000+00:00</time></trkpt><trkpt lat="34.8059285" lon="33.4663758"><ele>46.1</ele><time>2015-05-01T10:08:41.0000000+00:00</time></trkpt><trkpt lat="34.8059931" lon="33.4663601"><ele>45.3</ele><time>2015-05-01T10:08:43.0000000+00:00</time></trkpt><trkpt lat="34.8060463" lon="33.466333"><ele>45.8</ele><time>2015-05-01T10:08:45.0000000+00:00</time></trkpt><trkpt lat="34.8060758" lon="33.4662905"><ele>45.2</ele><time>2015-05-01T10:08:47.0000000+00:00</time></trkpt><trkpt lat="34.8060997" lon="33.4662192"><ele>45.8</ele><time>2015-05-01T10:08:50.0000000+00:00</time></trkpt><trkpt lat="34.8061078" lon="33.4661372"><ele>46.7</ele><time>2015-05-01T10:08:53.0000000+00:00</time></trkpt><trkpt lat="34.8061192" lon="33.466073"><ele>46.2</ele><time>2015-05-01T10:08:55.0000000+00:00</time></trkpt><trkpt lat="34.8061313" lon="33.4660019"><ele>46.8</ele><time>2015-05-01T10:08:57.0000000+00:00</time></trkpt><trkpt lat="34.8061438" lon="33.4659269"><ele>47.0</ele><time>2015-05-01T10:08:59.0000000+00:00</time></trkpt><trkpt lat="34.8061601" lon="33.4658447"><ele>47.8</ele><time>2015-05-01T10:09:01.0000000+00:00</time></trkpt><trkpt lat="34.8061786" lon="33.4657633"><ele>48.0</ele><time>2015-05-01T10:09:03.0000000+00:00</time></trkpt><trkpt lat="34.8061948" lon="33.4656828"><ele>48.0</ele><time>2015-05-01T10:09:05.0000000+00:00</time></trkpt><trkpt lat="34.8062118" lon="33.4656137"><ele>48.8</ele><time>2015-05-01T10:09:07.0000000+00:00</time></trkpt><trkpt lat="34.8062382" lon="33.465548"><ele>49.2</ele><time>2015-05-01T10:09:09.0000000+00:00</time></trkpt><trkpt lat="34.806266" lon="33.4654839"><ele>49.1</ele><time>2015-05-01T10:09:11.0000000+00:00</time></trkpt><trkpt lat="34.8063017" lon="33.465422"><ele>49.0</ele><time>2015-05-01T10:09:13.0000000+00:00</time></trkpt><trkpt lat="34.8063452" lon="33.4653613"><ele>49.8</ele><time>2015-05-01T10:09:15.0000000+00:00</time></trkpt><trkpt lat="34.8064053" lon="33.4652985"><ele>50.0</ele><time>2015-05-01T10:09:17.0000000+00:00</time></trkpt><trkpt lat="34.8064745" lon="33.4652366"><ele>50.0</ele><time>2015-05-01T10:09:19.0000000+00:00</time></trkpt><trkpt lat="34.8065452" lon="33.4651842"><ele>50.0</ele><time>2015-05-01T10:09:21.0000000+00:00</time></trkpt><trkpt lat="34.8066123" lon="33.4651379"><ele>50.0</ele><time>2015-05-01T10:09:23.0000000+00:00</time></trkpt><trkpt lat="34.8066811" lon="33.4650909"><ele>50.8</ele><time>2015-05-01T10:09:25.0000000+00:00</time></trkpt><trkpt lat="34.8067494" lon="33.465046"><ele>50.5</ele><time>2015-05-01T10:09:27.0000000+00:00</time></trkpt><trkpt lat="34.8068399" lon="33.4649901"><ele>50.1</ele><time>2015-05-01T10:09:29.0000000+00:00</time></trkpt><trkpt lat="34.8068828" lon="33.4649672"><ele>50.1</ele><time>2015-05-01T10:09:30.0000000+00:00</time></trkpt><trkpt lat="34.8069229" lon="33.4649358"><ele>50.5</ele><time>2015-05-01T10:09:31.0000000+00:00</time></trkpt><trkpt lat="34.8069633" lon="33.4649056"><ele>50.8</ele><time>2015-05-01T10:09:32.0000000+00:00</time></trkpt><trkpt lat="34.8070009" lon="33.4648743"><ele>50.9</ele><time>2015-05-01T10:09:33.0000000+00:00</time></trkpt><trkpt lat="34.8070615" lon="33.4648236"><ele>51.5</ele><time>2015-05-01T10:09:35.0000000+00:00</time></trkpt><trkpt lat="34.8071334" lon="33.4647742"><ele>52.1</ele><time>2015-05-01T10:09:37.0000000+00:00</time></trkpt><trkpt lat="34.8071941" lon="33.4647231"><ele>52.8</ele><time>2015-05-01T10:09:39.0000000+00:00</time></trkpt><trkpt lat="34.8072595" lon="33.4646655"><ele>53.0</ele><time>2015-05-01T10:09:41.0000000+00:00</time></trkpt><trkpt lat="34.8073212" lon="33.4645975"><ele>53.0</ele><time>2015-05-01T10:09:43.0000000+00:00</time></trkpt><trkpt lat="34.8073829" lon="33.4645234"><ele>53.5</ele><time>2015-05-01T10:09:45.0000000+00:00</time></trkpt><trkpt lat="34.8074386" lon="33.4644497"><ele>53.6</ele><time>2015-05-01T10:09:47.0000000+00:00</time></trkpt><trkpt lat="34.8074932" lon="33.4643711"><ele>53.9</ele><time>2015-05-01T10:09:49.0000000+00:00</time></trkpt><trkpt lat="34.8075398" lon="33.464286"><ele>53.5</ele><time>2015-05-01T10:09:51.0000000+00:00</time></trkpt><trkpt lat="34.8075628" lon="33.4642383"><ele>53.8</ele><time>2015-05-01T10:09:52.0000000+00:00</time></trkpt><trkpt lat="34.8076007" lon="33.4641432"><ele>54.0</ele><time>2015-05-01T10:09:54.0000000+00:00</time></trkpt><trkpt lat="34.8076331" lon="33.4640436"><ele>54.5</ele><time>2015-05-01T10:09:56.0000000+00:00</time></trkpt><trkpt lat="34.807658" lon="33.4639416"><ele>54.9</ele><time>2015-05-01T10:09:58.0000000+00:00</time></trkpt><trkpt lat="34.8076822" lon="33.4638366"><ele>54.5</ele><time>2015-05-01T10:10:00.0000000+00:00</time></trkpt><trkpt lat="34.8077029" lon="33.4637342"><ele>54.1</ele><time>2015-05-01T10:10:02.0000000+00:00</time></trkpt><trkpt lat="34.807724" lon="33.4636339"><ele>54.8</ele><time>2015-05-01T10:10:04.0000000+00:00</time></trkpt><trkpt lat="34.8077406" lon="33.4635357"><ele>55.0</ele><time>2015-05-01T10:10:06.0000000+00:00</time></trkpt><trkpt lat="34.8077567" lon="33.4634345"><ele>54.5</ele><time>2015-05-01T10:10:08.0000000+00:00</time></trkpt><trkpt lat="34.807775" lon="33.4633383"><ele>54.1</ele><time>2015-05-01T10:10:10.0000000+00:00</time></trkpt><trkpt lat="34.8077927" lon="33.4632399"><ele>54.1</ele><time>2015-05-01T10:10:12.0000000+00:00</time></trkpt><trkpt lat="34.8078099" lon="33.4631463"><ele>54.0</ele><time>2015-05-01T10:10:14.0000000+00:00</time></trkpt><trkpt lat="34.8078327" lon="33.463051"><ele>54.0</ele><time>2015-05-01T10:10:16.0000000+00:00</time></trkpt><trkpt lat="34.8078523" lon="33.4629569"><ele>54.0</ele><time>2015-05-01T10:10:18.0000000+00:00</time></trkpt><trkpt lat="34.8078603" lon="33.4628648"><ele>54.0</ele><time>2015-05-01T10:10:20.0000000+00:00</time></trkpt><trkpt lat="34.807872" lon="33.4627812"><ele>54.5</ele><time>2015-05-01T10:10:22.0000000+00:00</time></trkpt><trkpt lat="34.807882" lon="33.4627147"><ele>54.9</ele><time>2015-05-01T10:10:24.0000000+00:00</time></trkpt><trkpt lat="34.8078966" lon="33.4626504"><ele>55.0</ele><time>2015-05-01T10:10:26.0000000+00:00</time></trkpt><trkpt lat="34.8079099" lon="33.4625738"><ele>54.8</ele><time>2015-05-01T10:10:28.0000000+00:00</time></trkpt><trkpt lat="34.8079192" lon="33.462492"><ele>54.2</ele><time>2015-05-01T10:10:30.0000000+00:00</time></trkpt><trkpt lat="34.8079372" lon="33.4624015"><ele>53.8</ele><time>2015-05-01T10:10:32.0000000+00:00</time></trkpt><trkpt lat="34.807957" lon="33.462308"><ele>53.7</ele><time>2015-05-01T10:10:34.0000000+00:00</time></trkpt><trkpt lat="34.8079742" lon="33.4622088"><ele>53.2</ele><time>2015-05-01T10:10:36.0000000+00:00</time></trkpt><trkpt lat="34.8079928" lon="33.4621082"><ele>52.3</ele><time>2015-05-01T10:10:38.0000000+00:00</time></trkpt><trkpt lat="34.8080073" lon="33.4620132"><ele>52.8</ele><time>2015-05-01T10:10:40.0000000+00:00</time></trkpt><trkpt lat="34.8080199" lon="33.4619304"><ele>53.0</ele><time>2015-05-01T10:10:42.0000000+00:00</time></trkpt><trkpt lat="34.8080291" lon="33.4618678"><ele>53.5</ele><time>2015-05-01T10:10:44.0000000+00:00</time></trkpt><trkpt lat="34.8080343" lon="33.4617924"><ele>54.5</ele><time>2015-05-01T10:10:47.0000000+00:00</time></trkpt><trkpt lat="34.808035" lon="33.4617143"><ele>55.0</ele><time>2015-05-01T10:10:50.0000000+00:00</time></trkpt><trkpt lat="34.8080396" lon="33.4616345"><ele>55.9</ele><time>2015-05-01T10:10:53.0000000+00:00</time></trkpt><trkpt lat="34.8080428" lon="33.4615714"><ele>56.0</ele><time>2015-05-01T10:10:55.0000000+00:00</time></trkpt><trkpt lat="34.808048" lon="33.4614926"><ele>56.0</ele><time>2015-05-01T10:10:57.0000000+00:00</time></trkpt><trkpt lat="34.8080528" lon="33.4613962"><ele>55.8</ele><time>2015-05-01T10:10:59.0000000+00:00</time></trkpt><trkpt lat="34.8080553" lon="33.4612948"><ele>56.5</ele><time>2015-05-01T10:11:01.0000000+00:00</time></trkpt><trkpt lat="34.8080586" lon="33.461195"><ele>56.1</ele><time>2015-05-01T10:11:03.0000000+00:00</time></trkpt><trkpt lat="34.808061" lon="33.4610938"><ele>56.0</ele><time>2015-05-01T10:11:05.0000000+00:00</time></trkpt><trkpt lat="34.8080594" lon="33.4609953"><ele>56.0</ele><time>2015-05-01T10:11:07.0000000+00:00</time></trkpt><trkpt lat="34.8080571" lon="33.4608943"><ele>55.3</ele><time>2015-05-01T10:11:09.0000000+00:00</time></trkpt><trkpt lat="34.8080576" lon="33.4607926"><ele>54.6</ele><time>2015-05-01T10:11:11.0000000+00:00</time></trkpt><trkpt lat="34.8080535" lon="33.460716"><ele>54.3</ele><time>2015-05-01T10:11:12.0000000+00:00</time></trkpt><trkpt lat="34.8080525" lon="33.4606512"><ele>54.7</ele><time>2015-05-01T10:11:13.0000000+00:00</time></trkpt><trkpt lat="34.8080556" lon="33.4605833"><ele>54.3</ele><time>2015-05-01T10:11:14.0000000+00:00</time></trkpt><trkpt lat="34.8080551" lon="33.460515"><ele>54.2</ele><time>2015-05-01T10:11:15.0000000+00:00</time></trkpt><trkpt lat="34.8080596" lon="33.4604485"><ele>54.1</ele><time>2015-05-01T10:11:16.0000000+00:00</time></trkpt><trkpt lat="34.8080624" lon="33.4603824"><ele>54.1</ele><time>2015-05-01T10:11:17.0000000+00:00</time></trkpt><trkpt lat="34.808064" lon="33.4603266"><ele>54.0</ele><time>2015-05-01T10:11:18.0000000+00:00</time></trkpt><trkpt lat="34.8080626" lon="33.4602633"><ele>54.0</ele><time>2015-05-01T10:11:19.0000000+00:00</time></trkpt><trkpt lat="34.8080606" lon="33.4602017"><ele>54.0</ele><time>2015-05-01T10:11:20.0000000+00:00</time></trkpt><trkpt lat="34.8080617" lon="33.4601341"><ele>54.5</ele><time>2015-05-01T10:11:21.0000000+00:00</time></trkpt><trkpt lat="34.8080666" lon="33.4600766"><ele>54.3</ele><time>2015-05-01T10:11:22.0000000+00:00</time></trkpt><trkpt lat="34.8080764" lon="33.4600037"><ele>54.1</ele><time>2015-05-01T10:11:23.0000000+00:00</time></trkpt><trkpt lat="34.8080687" lon="33.4599442"><ele>54.1</ele><time>2015-05-01T10:11:24.0000000+00:00</time></trkpt><trkpt lat="34.808074" lon="33.4598834"><ele>54.1</ele><time>2015-05-01T10:11:25.0000000+00:00</time></trkpt><trkpt lat="34.8080767" lon="33.4597806"><ele>53.5</ele><time>2015-05-01T10:11:27.0000000+00:00</time></trkpt><trkpt lat="34.8080874" lon="33.4597185"><ele>52.3</ele><time>2015-05-01T10:11:28.0000000+00:00</time></trkpt><trkpt lat="34.8080929" lon="33.4596574"><ele>52.1</ele><time>2015-05-01T10:11:29.0000000+00:00</time></trkpt><trkpt lat="34.8080848" lon="33.4596"><ele>52.1</ele><time>2015-05-01T10:11:30.0000000+00:00</time></trkpt><trkpt lat="34.8080827" lon="33.4594941"><ele>52.8</ele><time>2015-05-01T10:11:32.0000000+00:00</time></trkpt><trkpt lat="34.8080801" lon="33.4593861"><ele>52.2</ele><time>2015-05-01T10:11:34.0000000+00:00</time></trkpt><trkpt lat="34.8080878" lon="33.4593299"><ele>52.1</ele><time>2015-05-01T10:11:35.0000000+00:00</time></trkpt><trkpt lat="34.8080918" lon="33.459272"><ele>52.1</ele><time>2015-05-01T10:11:36.0000000+00:00</time></trkpt><trkpt lat="34.8080897" lon="33.4592149"><ele>52.0</ele><time>2015-05-01T10:11:37.0000000+00:00</time></trkpt><trkpt lat="34.8080851" lon="33.4591531"><ele>52.0</ele><time>2015-05-01T10:11:38.0000000+00:00</time></trkpt><trkpt lat="34.8080835" lon="33.4590875"><ele>52.0</ele><time>2015-05-01T10:11:39.0000000+00:00</time></trkpt><trkpt lat="34.8080835" lon="33.4590241"><ele>52.5</ele><time>2015-05-01T10:11:40.0000000+00:00</time></trkpt><trkpt lat="34.8080895" lon="33.4589627"><ele>53.3</ele><time>2015-05-01T10:11:41.0000000+00:00</time></trkpt><trkpt lat="34.808096" lon="33.4589017"><ele>53.1</ele><time>2015-05-01T10:11:42.0000000+00:00</time></trkpt><trkpt lat="34.8080982" lon="33.4588436"><ele>53.1</ele><time>2015-05-01T10:11:43.0000000+00:00</time></trkpt><trkpt lat="34.8080936" lon="33.4587878"><ele>53.1</ele><time>2015-05-01T10:11:44.0000000+00:00</time></trkpt><trkpt lat="34.8081046" lon="33.4587335"><ele>52.5</ele><time>2015-05-01T10:11:45.0000000+00:00</time></trkpt><trkpt lat="34.8081001" lon="33.4586766"><ele>52.3</ele><time>2015-05-01T10:11:46.0000000+00:00</time></trkpt><trkpt lat="34.8081006" lon="33.4585567"><ele>50.8</ele><time>2015-05-01T10:11:48.0000000+00:00</time></trkpt><trkpt lat="34.8081041" lon="33.4584994"><ele>50.4</ele><time>2015-05-01T10:11:49.0000000+00:00</time></trkpt><trkpt lat="34.8081104" lon="33.4583968"><ele>50.6</ele><time>2015-05-01T10:11:51.0000000+00:00</time></trkpt><trkpt lat="34.8081108" lon="33.4583388"><ele>50.8</ele><time>2015-05-01T10:11:52.0000000+00:00</time></trkpt><trkpt lat="34.808113" lon="33.4582358"><ele>51.2</ele><time>2015-05-01T10:11:54.0000000+00:00</time></trkpt><trkpt lat="34.8081209" lon="33.4581495"><ele>51.1</ele><time>2015-05-01T10:11:56.0000000+00:00</time></trkpt><trkpt lat="34.808115" lon="33.4580623"><ele>52.3</ele><time>2015-05-01T10:11:58.0000000+00:00</time></trkpt><trkpt lat="34.8081272" lon="33.457972"><ele>51.3</ele><time>2015-05-01T10:12:00.0000000+00:00</time></trkpt><trkpt lat="34.8081272" lon="33.4578803"><ele>52.3</ele><time>2015-05-01T10:12:02.0000000+00:00</time></trkpt><trkpt lat="34.8081342" lon="33.457781"><ele>53.6</ele><time>2015-05-01T10:12:04.0000000+00:00</time></trkpt><trkpt lat="34.8081365" lon="33.4576818"><ele>53.7</ele><time>2015-05-01T10:12:06.0000000+00:00</time></trkpt><trkpt lat="34.8081385" lon="33.457577"><ele>53.9</ele><time>2015-05-01T10:12:08.0000000+00:00</time></trkpt><trkpt lat="34.808132" lon="33.45746"><ele>54.0</ele><time>2015-05-01T10:12:10.0000000+00:00</time></trkpt><trkpt lat="34.8081352" lon="33.4574034"><ele>54.0</ele><time>2015-05-01T10:12:11.0000000+00:00</time></trkpt><trkpt lat="34.8081382" lon="33.4573461"><ele>54.0</ele><time>2015-05-01T10:12:12.0000000+00:00</time></trkpt><trkpt lat="34.808145" lon="33.4572844"><ele>53.5</ele><time>2015-05-01T10:12:13.0000000+00:00</time></trkpt><trkpt lat="34.8081472" lon="33.4572242"><ele>53.3</ele><time>2015-05-01T10:12:14.0000000+00:00</time></trkpt><trkpt lat="34.8081452" lon="33.4571619"><ele>53.1</ele><time>2015-05-01T10:12:15.0000000+00:00</time></trkpt><trkpt lat="34.8081475" lon="33.457104"><ele>53.1</ele><time>2015-05-01T10:12:16.0000000+00:00</time></trkpt><trkpt lat="34.8081516" lon="33.457047"><ele>53.1</ele><time>2015-05-01T10:12:17.0000000+00:00</time></trkpt><trkpt lat="34.8081546" lon="33.4569382"><ele>53.5</ele><time>2015-05-01T10:12:19.0000000+00:00</time></trkpt><trkpt lat="34.8081545" lon="33.456831"><ele>53.9</ele><time>2015-05-01T10:12:21.0000000+00:00</time></trkpt><trkpt lat="34.8081548" lon="33.4567757"><ele>54.0</ele><time>2015-05-01T10:12:22.0000000+00:00</time></trkpt><trkpt lat="34.8081548" lon="33.4566699"><ele>53.8</ele><time>2015-05-01T10:12:24.0000000+00:00</time></trkpt><trkpt lat="34.8081525" lon="33.4566141"><ele>54.4</ele><time>2015-05-01T10:12:25.0000000+00:00</time></trkpt><trkpt lat="34.8081626" lon="33.4565588"><ele>53.7</ele><time>2015-05-01T10:12:26.0000000+00:00</time></trkpt><trkpt lat="34.8081693" lon="33.4564514"><ele>53.2</ele><time>2015-05-01T10:12:28.0000000+00:00</time></trkpt><trkpt lat="34.808179" lon="33.4563514"><ele>53.1</ele><time>2015-05-01T10:12:30.0000000+00:00</time></trkpt><trkpt lat="34.8081786" lon="33.456254"><ele>53.0</ele><time>2015-05-01T10:12:32.0000000+00:00</time></trkpt><trkpt lat="34.8081792" lon="33.4561528"><ele>53.5</ele><time>2015-05-01T10:12:34.0000000+00:00</time></trkpt><trkpt lat="34.8081819" lon="33.4560486"><ele>54.1</ele><time>2015-05-01T10:12:36.0000000+00:00</time></trkpt><trkpt lat="34.8081831" lon="33.4559504"><ele>54.1</ele><time>2015-05-01T10:12:38.0000000+00:00</time></trkpt><trkpt lat="34.8081815" lon="33.4558533"><ele>54.8</ele><time>2015-05-01T10:12:40.0000000+00:00</time></trkpt><trkpt lat="34.8081883" lon="33.4557622"><ele>55.7</ele><time>2015-05-01T10:12:42.0000000+00:00</time></trkpt><trkpt lat="34.808194" lon="33.4556744"><ele>55.9</ele><time>2015-05-01T10:12:44.0000000+00:00</time></trkpt><trkpt lat="34.8081924" lon="33.45559"><ele>56.3</ele><time>2015-05-01T10:12:46.0000000+00:00</time></trkpt><trkpt lat="34.8081909" lon="33.4555048"><ele>56.1</ele><time>2015-05-01T10:12:48.0000000+00:00</time></trkpt><trkpt lat="34.8081931" lon="33.4554206"><ele>56.0</ele><time>2015-05-01T10:12:50.0000000+00:00</time></trkpt><trkpt lat="34.8081983" lon="33.4553376"><ele>57.3</ele><time>2015-05-01T10:12:52.0000000+00:00</time></trkpt><trkpt lat="34.8082" lon="33.4552572"><ele>57.8</ele><time>2015-05-01T10:12:54.0000000+00:00</time></trkpt><trkpt lat="34.8081972" lon="33.4551758"><ele>58.0</ele><time>2015-05-01T10:12:56.0000000+00:00</time></trkpt><trkpt lat="34.8081927" lon="33.4551021"><ele>58.0</ele><time>2015-05-01T10:12:58.0000000+00:00</time></trkpt><trkpt lat="34.8081934" lon="33.4550293"><ele>58.5</ele><time>2015-05-01T10:13:00.0000000+00:00</time></trkpt><trkpt lat="34.8081959" lon="33.4549608"><ele>58.9</ele><time>2015-05-01T10:13:02.0000000+00:00</time></trkpt><trkpt lat="34.8081995" lon="33.4548916"><ele>58.5</ele><time>2015-05-01T10:13:04.0000000+00:00</time></trkpt><trkpt lat="34.808205" lon="33.4548251"><ele>58.1</ele><time>2015-05-01T10:13:06.0000000+00:00</time></trkpt><trkpt lat="34.8082098" lon="33.4547575"><ele>58.1</ele><time>2015-05-01T10:13:08.0000000+00:00</time></trkpt><trkpt lat="34.8082118" lon="33.4546935"><ele>58.8</ele><time>2015-05-01T10:13:10.0000000+00:00</time></trkpt><trkpt lat="34.8082036" lon="33.4546307"><ele>58.2</ele><time>2015-05-01T10:13:12.0000000+00:00</time></trkpt><trkpt lat="34.8082015" lon="33.4545673"><ele>59.3</ele><time>2015-05-01T10:13:14.0000000+00:00</time></trkpt><trkpt lat="34.8082022" lon="33.4545008"><ele>60.3</ele><time>2015-05-01T10:13:16.0000000+00:00</time></trkpt><trkpt lat="34.8082022" lon="33.454434"><ele>60.9</ele><time>2015-05-01T10:13:18.0000000+00:00</time></trkpt><trkpt lat="34.8082028" lon="33.4543653"><ele>60.2</ele><time>2015-05-01T10:13:20.0000000+00:00</time></trkpt><trkpt lat="34.8082067" lon="33.4542944"><ele>60.1</ele><time>2015-05-01T10:13:22.0000000+00:00</time></trkpt><trkpt lat="34.8082074" lon="33.454222"><ele>61.3</ele><time>2015-05-01T10:13:24.0000000+00:00</time></trkpt><trkpt lat="34.8082036" lon="33.4541482"><ele>62.3</ele><time>2015-05-01T10:13:26.0000000+00:00</time></trkpt><trkpt lat="34.8082036" lon="33.454074"><ele>62.8</ele><time>2015-05-01T10:13:28.0000000+00:00</time></trkpt><trkpt lat="34.8082007" lon="33.4540011"><ele>63.0</ele><time>2015-05-01T10:13:30.0000000+00:00</time></trkpt><trkpt lat="34.8082018" lon="33.4539268"><ele>62.5</ele><time>2015-05-01T10:13:32.0000000+00:00</time></trkpt><trkpt lat="34.8082044" lon="33.4538524"><ele>62.1</ele><time>2015-05-01T10:13:34.0000000+00:00</time></trkpt><trkpt lat="34.8082049" lon="33.4537771"><ele>61.3</ele><time>2015-05-01T10:13:36.0000000+00:00</time></trkpt><trkpt lat="34.8082036" lon="33.4537005"><ele>61.1</ele><time>2015-05-01T10:13:38.0000000+00:00</time></trkpt><trkpt lat="34.8081983" lon="33.4536243"><ele>61.0</ele><time>2015-05-01T10:13:40.0000000+00:00</time></trkpt><trkpt lat="34.8081908" lon="33.453549"><ele>61.0</ele><time>2015-05-01T10:13:42.0000000+00:00</time></trkpt><trkpt lat="34.8081857" lon="33.4534723"><ele>60.8</ele><time>2015-05-01T10:13:44.0000000+00:00</time></trkpt><trkpt lat="34.8081791" lon="33.4533941"><ele>61.0</ele><time>2015-05-01T10:13:46.0000000+00:00</time></trkpt><trkpt lat="34.8081678" lon="33.4533168"><ele>61.0</ele><time>2015-05-01T10:13:48.0000000+00:00</time></trkpt><trkpt lat="34.8081556" lon="33.4532404"><ele>61.8</ele><time>2015-05-01T10:13:50.0000000+00:00</time></trkpt><trkpt lat="34.8081459" lon="33.4531657"><ele>62.2</ele><time>2015-05-01T10:13:52.0000000+00:00</time></trkpt><trkpt lat="34.8081332" lon="33.4530959"><ele>61.6</ele><time>2015-05-01T10:13:54.0000000+00:00</time></trkpt><trkpt lat="34.8081207" lon="33.453029"><ele>61.2</ele><time>2015-05-01T10:13:56.0000000+00:00</time></trkpt><trkpt lat="34.8081077" lon="33.4529618"><ele>61.8</ele><time>2015-05-01T10:13:58.0000000+00:00</time></trkpt><trkpt lat="34.8080947" lon="33.452894"><ele>62.0</ele><time>2015-05-01T10:14:00.0000000+00:00</time></trkpt><trkpt lat="34.8080819" lon="33.452826"><ele>62.0</ele><time>2015-05-01T10:14:02.0000000+00:00</time></trkpt><trkpt lat="34.8080694" lon="33.4527588"><ele>62.0</ele><time>2015-05-01T10:14:04.0000000+00:00</time></trkpt><trkpt lat="34.808057" lon="33.4526908"><ele>62.0</ele><time>2015-05-01T10:14:06.0000000+00:00</time></trkpt><trkpt lat="34.808042" lon="33.4526217"><ele>62.8</ele><time>2015-05-01T10:14:08.0000000+00:00</time></trkpt><trkpt lat="34.8080253" lon="33.4525489"><ele>63.7</ele><time>2015-05-01T10:14:10.0000000+00:00</time></trkpt><trkpt lat="34.8080113" lon="33.4524732"><ele>64.4</ele><time>2015-05-01T10:14:12.0000000+00:00</time></trkpt><trkpt lat="34.80799" lon="33.4524001"><ele>65.4</ele><time>2015-05-01T10:14:14.0000000+00:00</time></trkpt><trkpt lat="34.8079668" lon="33.4523257"><ele>67.1</ele><time>2015-05-01T10:14:16.0000000+00:00</time></trkpt><trkpt lat="34.8079497" lon="33.4522507"><ele>67.0</ele><time>2015-05-01T10:14:18.0000000+00:00</time></trkpt><trkpt lat="34.8079299" lon="33.4521775"><ele>66.8</ele><time>2015-05-01T10:14:20.0000000+00:00</time></trkpt><trkpt lat="34.8079037" lon="33.4521054"><ele>69.0</ele><time>2015-05-01T10:14:22.0000000+00:00</time></trkpt><trkpt lat="34.8078792" lon="33.4520422"><ele>69.8</ele><time>2015-05-01T10:14:24.0000000+00:00</time></trkpt><trkpt lat="34.8078647" lon="33.4519904"><ele>70.0</ele><time>2015-05-01T10:14:26.0000000+00:00</time></trkpt><trkpt lat="34.8078431" lon="33.4519401"><ele>69.3</ele><time>2015-05-01T10:14:30.0000000+00:00</time></trkpt><trkpt lat="34.8078188" lon="33.4518914"><ele>69.1</ele><time>2015-05-01T10:14:36.0000000+00:00</time></trkpt><trkpt lat="34.8078051" lon="33.4518271"><ele>63.3</ele><time>2015-05-01T10:15:07.0000000+00:00</time></trkpt><trkpt lat="34.8077908" lon="33.4517635"><ele>61.1</ele><time>2015-05-01T10:15:09.0000000+00:00</time></trkpt><trkpt lat="34.8077704" lon="33.451696"><ele>61.8</ele><time>2015-05-01T10:15:11.0000000+00:00</time></trkpt><trkpt lat="34.8077458" lon="33.4516236"><ele>62.5</ele><time>2015-05-01T10:15:13.0000000+00:00</time></trkpt><trkpt lat="34.8077203" lon="33.4515545"><ele>62.4</ele><time>2015-05-01T10:15:15.0000000+00:00</time></trkpt><trkpt lat="34.807691" lon="33.4514804"><ele>62.1</ele><time>2015-05-01T10:15:17.0000000+00:00</time></trkpt><trkpt lat="34.8076633" lon="33.4514033"><ele>61.3</ele><time>2015-05-01T10:15:19.0000000+00:00</time></trkpt><trkpt lat="34.8076355" lon="33.4513214"><ele>61.1</ele><time>2015-05-01T10:15:21.0000000+00:00</time></trkpt><trkpt lat="34.8076043" lon="33.4512362"><ele>62.3</ele><time>2015-05-01T10:15:23.0000000+00:00</time></trkpt><trkpt lat="34.8075672" lon="33.4511391"><ele>62.8</ele><time>2015-05-01T10:15:25.0000000+00:00</time></trkpt><trkpt lat="34.8075322" lon="33.4510429"><ele>63.5</ele><time>2015-05-01T10:15:27.0000000+00:00</time></trkpt><trkpt lat="34.8074973" lon="33.4509445"><ele>63.9</ele><time>2015-05-01T10:15:29.0000000+00:00</time></trkpt><trkpt lat="34.807462" lon="33.4508532"><ele>63.5</ele><time>2015-05-01T10:15:31.0000000+00:00</time></trkpt><trkpt lat="34.8074286" lon="33.4507598"><ele>63.1</ele><time>2015-05-01T10:15:33.0000000+00:00</time></trkpt><trkpt lat="34.807398" lon="33.4506645"><ele>63.1</ele><time>2015-05-01T10:15:35.0000000+00:00</time></trkpt><trkpt lat="34.807366" lon="33.4505646"><ele>63.0</ele><time>2015-05-01T10:15:37.0000000+00:00</time></trkpt><trkpt lat="34.8073336" lon="33.4504686"><ele>63.0</ele><time>2015-05-01T10:15:39.0000000+00:00</time></trkpt><trkpt lat="34.807315" lon="33.4504179"><ele>63.5</ele><time>2015-05-01T10:15:40.0000000+00:00</time></trkpt><trkpt lat="34.807289" lon="33.4503641"><ele>63.3</ele><time>2015-05-01T10:15:41.0000000+00:00</time></trkpt><trkpt lat="34.807263" lon="33.450283"><ele>62.1</ele><time>2015-05-01T10:15:43.0000000+00:00</time></trkpt><trkpt lat="34.8072299" lon="33.4501881"><ele>62.0</ele><time>2015-05-01T10:15:45.0000000+00:00</time></trkpt><trkpt lat="34.8071961" lon="33.450096"><ele>62.5</ele><time>2015-05-01T10:15:47.0000000+00:00</time></trkpt><trkpt lat="34.8071764" lon="33.4500028"><ele>61.9</ele><time>2015-05-01T10:15:49.0000000+00:00</time></trkpt><trkpt lat="34.807147" lon="33.449922"><ele>62.0</ele><time>2015-05-01T10:15:51.0000000+00:00</time></trkpt><trkpt lat="34.8071133" lon="33.4498314"><ele>62.5</ele><time>2015-05-01T10:15:53.0000000+00:00</time></trkpt><trkpt lat="34.8070798" lon="33.4497422"><ele>62.6</ele><time>2015-05-01T10:15:55.0000000+00:00</time></trkpt><trkpt lat="34.8070435" lon="33.4496444"><ele>62.4</ele><time>2015-05-01T10:15:57.0000000+00:00</time></trkpt><trkpt lat="34.8070025" lon="33.4495319"><ele>61.6</ele><time>2015-05-01T10:15:59.0000000+00:00</time></trkpt><trkpt lat="34.8069822" lon="33.4494694"><ele>61.8</ele><time>2015-05-01T10:16:00.0000000+00:00</time></trkpt><trkpt lat="34.8069623" lon="33.4494147"><ele>61.9</ele><time>2015-05-01T10:16:01.0000000+00:00</time></trkpt><trkpt lat="34.8069409" lon="33.4493596"><ele>62.0</ele><time>2015-05-01T10:16:02.0000000+00:00</time></trkpt><trkpt lat="34.8069194" lon="33.4493044"><ele>62.5</ele><time>2015-05-01T10:16:03.0000000+00:00</time></trkpt><trkpt lat="34.8068989" lon="33.4492478"><ele>63.3</ele><time>2015-05-01T10:16:04.0000000+00:00</time></trkpt><trkpt lat="34.8068772" lon="33.4491927"><ele>63.1</ele><time>2015-05-01T10:16:05.0000000+00:00</time></trkpt><trkpt lat="34.8068556" lon="33.4491328"><ele>63.1</ele><time>2015-05-01T10:16:06.0000000+00:00</time></trkpt><trkpt lat="34.8068372" lon="33.4490779"><ele>63.1</ele><time>2015-05-01T10:16:07.0000000+00:00</time></trkpt><trkpt lat="34.8068117" lon="33.4490172"><ele>63.0</ele><time>2015-05-01T10:16:08.0000000+00:00</time></trkpt><trkpt lat="34.8067777" lon="33.4489704"><ele>63.5</ele><time>2015-05-01T10:16:09.0000000+00:00</time></trkpt><trkpt lat="34.8067626" lon="33.4489118"><ele>63.8</ele><time>2015-05-01T10:16:10.0000000+00:00</time></trkpt><trkpt lat="34.806744" lon="33.448857"><ele>64.4</ele><time>2015-05-01T10:16:11.0000000+00:00</time></trkpt><trkpt lat="34.8067266" lon="33.4487977"><ele>64.7</ele><time>2015-05-01T10:16:12.0000000+00:00</time></trkpt><trkpt lat="34.8066859" lon="33.4486992"><ele>64.7</ele><time>2015-05-01T10:16:14.0000000+00:00</time></trkpt><trkpt lat="34.806648" lon="33.4485914"><ele>64.7</ele><time>2015-05-01T10:16:16.0000000+00:00</time></trkpt><trkpt lat="34.8066317" lon="33.448532"><ele>64.9</ele><time>2015-05-01T10:16:17.0000000+00:00</time></trkpt><trkpt lat="34.8066073" lon="33.4484816"><ele>64.9</ele><time>2015-05-01T10:16:18.0000000+00:00</time></trkpt><trkpt lat="34.8065921" lon="33.4484269"><ele>65.0</ele><time>2015-05-01T10:16:19.0000000+00:00</time></trkpt><trkpt lat="34.8065772" lon="33.4483698"><ele>65.0</ele><time>2015-05-01T10:16:20.0000000+00:00</time></trkpt><trkpt lat="34.8065571" lon="33.4483167"><ele>65.5</ele><time>2015-05-01T10:16:21.0000000+00:00</time></trkpt><trkpt lat="34.8065263" lon="33.4482242"><ele>65.9</ele><time>2015-05-01T10:16:23.0000000+00:00</time></trkpt><trkpt lat="34.806507" lon="33.4481694"><ele>66.0</ele><time>2015-05-01T10:16:24.0000000+00:00</time></trkpt><trkpt lat="34.8064753" lon="33.4480778"><ele>66.8</ele><time>2015-05-01T10:16:26.0000000+00:00</time></trkpt><trkpt lat="34.806461" lon="33.4479928"><ele>66.2</ele><time>2015-05-01T10:16:28.0000000+00:00</time></trkpt><trkpt lat="34.8064344" lon="33.4479018"><ele>66.1</ele><time>2015-05-01T10:16:30.0000000+00:00</time></trkpt><trkpt lat="34.8064045" lon="33.4478137"><ele>66.0</ele><time>2015-05-01T10:16:32.0000000+00:00</time></trkpt><trkpt lat="34.8063809" lon="33.4477289"><ele>66.0</ele><time>2015-05-01T10:16:34.0000000+00:00</time></trkpt><trkpt lat="34.8063634" lon="33.4476489"><ele>65.8</ele><time>2015-05-01T10:16:36.0000000+00:00</time></trkpt><trkpt lat="34.8063508" lon="33.4475718"><ele>65.7</ele><time>2015-05-01T10:16:38.0000000+00:00</time></trkpt><trkpt lat="34.8063367" lon="33.4474955"><ele>65.2</ele><time>2015-05-01T10:16:40.0000000+00:00</time></trkpt><trkpt lat="34.8063212" lon="33.4474194"><ele>65.6</ele><time>2015-05-01T10:16:42.0000000+00:00</time></trkpt><trkpt lat="34.8063124" lon="33.4473439"><ele>65.2</ele><time>2015-05-01T10:16:44.0000000+00:00</time></trkpt><trkpt lat="34.8063027" lon="33.4472698"><ele>65.8</ele><time>2015-05-01T10:16:46.0000000+00:00</time></trkpt><trkpt lat="34.8062944" lon="33.4471934"><ele>65.7</ele><time>2015-05-01T10:16:48.0000000+00:00</time></trkpt><trkpt lat="34.8062816" lon="33.4471142"><ele>65.9</ele><time>2015-05-01T10:16:50.0000000+00:00</time></trkpt><trkpt lat="34.8062682" lon="33.447034"><ele>66.0</ele><time>2015-05-01T10:16:52.0000000+00:00</time></trkpt><trkpt lat="34.8062579" lon="33.4469545"><ele>65.3</ele><time>2015-05-01T10:16:54.0000000+00:00</time></trkpt><trkpt lat="34.8062498" lon="33.4468718"><ele>66.3</ele><time>2015-05-01T10:16:56.0000000+00:00</time></trkpt><trkpt lat="34.8062407" lon="33.4467844"><ele>66.8</ele><time>2015-05-01T10:16:58.0000000+00:00</time></trkpt><trkpt lat="34.8062305" lon="33.446697"><ele>67.7</ele><time>2015-05-01T10:17:00.0000000+00:00</time></trkpt><trkpt lat="34.806224" lon="33.4466167"><ele>67.9</ele><time>2015-05-01T10:17:02.0000000+00:00</time></trkpt><trkpt lat="34.8062218" lon="33.4465429"><ele>68.0</ele><time>2015-05-01T10:17:04.0000000+00:00</time></trkpt><trkpt lat="34.806227" lon="33.4464822"><ele>67.3</ele><time>2015-05-01T10:17:06.0000000+00:00</time></trkpt><trkpt lat="34.80623" lon="33.4464219"><ele>67.6</ele><time>2015-05-01T10:17:08.0000000+00:00</time></trkpt><trkpt lat="34.8062336" lon="33.4463566"><ele>67.2</ele><time>2015-05-01T10:17:10.0000000+00:00</time></trkpt><trkpt lat="34.8062333" lon="33.4462849"><ele>67.6</ele><time>2015-05-01T10:17:12.0000000+00:00</time></trkpt><trkpt lat="34.8062292" lon="33.4462076"><ele>67.9</ele><time>2015-05-01T10:17:14.0000000+00:00</time></trkpt><trkpt lat="34.8062256" lon="33.4461307"><ele>68.7</ele><time>2015-05-01T10:17:16.0000000+00:00</time></trkpt><trkpt lat="34.8062235" lon="33.4460572"><ele>69.7</ele><time>2015-05-01T10:17:18.0000000+00:00</time></trkpt><trkpt lat="34.806223" lon="33.4459882"><ele>70.2</ele><time>2015-05-01T10:17:20.0000000+00:00</time></trkpt><trkpt lat="34.8062229" lon="33.4459228"><ele>70.6</ele><time>2015-05-01T10:17:22.0000000+00:00</time></trkpt><trkpt lat="34.8062196" lon="33.4458526"><ele>71.4</ele><time>2015-05-01T10:17:24.0000000+00:00</time></trkpt><trkpt lat="34.806216" lon="33.4457816"><ele>71.6</ele><time>2015-05-01T10:17:26.0000000+00:00</time></trkpt><trkpt lat="34.8062113" lon="33.4457085"><ele>72.4</ele><time>2015-05-01T10:17:28.0000000+00:00</time></trkpt><trkpt lat="34.8062085" lon="33.4456343"><ele>72.9</ele><time>2015-05-01T10:17:30.0000000+00:00</time></trkpt><trkpt lat="34.8062057" lon="33.4455589"><ele>73.0</ele><time>2015-05-01T10:17:32.0000000+00:00</time></trkpt><trkpt lat="34.8062082" lon="33.4454815"><ele>72.3</ele><time>2015-05-01T10:17:34.0000000+00:00</time></trkpt><trkpt lat="34.8062119" lon="33.4454009"><ele>71.6</ele><time>2015-05-01T10:17:36.0000000+00:00</time></trkpt><trkpt lat="34.8062146" lon="33.4453212"><ele>70.2</ele><time>2015-05-01T10:17:38.0000000+00:00</time></trkpt><trkpt lat="34.8062183" lon="33.4452429"><ele>68.3</ele><time>2015-05-01T10:17:40.0000000+00:00</time></trkpt><trkpt lat="34.8062216" lon="33.4451636"><ele>66.6</ele><time>2015-05-01T10:17:42.0000000+00:00</time></trkpt><trkpt lat="34.8062218" lon="33.4450867"><ele>65.9</ele><time>2015-05-01T10:17:44.0000000+00:00</time></trkpt><trkpt lat="34.8062268" lon="33.4450087"><ele>66.0</ele><time>2015-05-01T10:17:46.0000000+00:00</time></trkpt><trkpt lat="34.8062321" lon="33.4449315"><ele>66.3</ele><time>2015-05-01T10:17:48.0000000+00:00</time></trkpt><trkpt lat="34.8062334" lon="33.4448564"><ele>67.3</ele><time>2015-05-01T10:17:50.0000000+00:00</time></trkpt><trkpt lat="34.8062361" lon="33.4447815"><ele>67.8</ele><time>2015-05-01T10:17:52.0000000+00:00</time></trkpt><trkpt lat="34.8062388" lon="33.4447096"><ele>68.0</ele><time>2015-05-01T10:17:54.0000000+00:00</time></trkpt><trkpt lat="34.8062444" lon="33.4446376"><ele>68.0</ele><time>2015-05-01T10:17:56.0000000+00:00</time></trkpt><trkpt lat="34.8062536" lon="33.4445671"><ele>68.0</ele><time>2015-05-01T10:17:58.0000000+00:00</time></trkpt><trkpt lat="34.8062623" lon="33.4444957"><ele>69.3</ele><time>2015-05-01T10:18:00.0000000+00:00</time></trkpt><trkpt lat="34.8062674" lon="33.4444215"><ele>70.3</ele><time>2015-05-01T10:18:02.0000000+00:00</time></trkpt><trkpt lat="34.8062742" lon="33.4443436"><ele>71.3</ele><time>2015-05-01T10:18:04.0000000+00:00</time></trkpt><trkpt lat="34.806284" lon="33.4442674"><ele>72.1</ele><time>2015-05-01T10:18:06.0000000+00:00</time></trkpt><trkpt lat="34.8062926" lon="33.4441899"><ele>72.5</ele><time>2015-05-01T10:18:08.0000000+00:00</time></trkpt><trkpt lat="34.8062975" lon="33.444116"><ele>73.4</ele><time>2015-05-01T10:18:10.0000000+00:00</time></trkpt><trkpt lat="34.8063043" lon="33.4440407"><ele>74.1</ele><time>2015-05-01T10:18:12.0000000+00:00</time></trkpt><trkpt lat="34.806314" lon="33.4439658"><ele>74.0</ele><time>2015-05-01T10:18:14.0000000+00:00</time></trkpt><trkpt lat="34.806327" lon="33.4438946"><ele>74.0</ele><time>2015-05-01T10:18:16.0000000+00:00</time></trkpt><trkpt lat="34.8063372" lon="33.4438246"><ele>74.0</ele><time>2015-05-01T10:18:18.0000000+00:00</time></trkpt><trkpt lat="34.8063414" lon="33.4437532"><ele>74.8</ele><time>2015-05-01T10:18:20.0000000+00:00</time></trkpt><trkpt lat="34.8063452" lon="33.443683"><ele>75.0</ele><time>2015-05-01T10:18:22.0000000+00:00</time></trkpt><trkpt lat="34.8063535" lon="33.443615"><ele>75.0</ele><time>2015-05-01T10:18:24.0000000+00:00</time></trkpt><trkpt lat="34.8063614" lon="33.4435492"><ele>75.5</ele><time>2015-05-01T10:18:26.0000000+00:00</time></trkpt><trkpt lat="34.8063704" lon="33.4434842"><ele>76.4</ele><time>2015-05-01T10:18:28.0000000+00:00</time></trkpt><trkpt lat="34.8063814" lon="33.4434186"><ele>75.9</ele><time>2015-05-01T10:18:30.0000000+00:00</time></trkpt><trkpt lat="34.8063935" lon="33.4433503"><ele>75.2</ele><time>2015-05-01T10:18:32.0000000+00:00</time></trkpt><trkpt lat="34.8064038" lon="33.4432829"><ele>74.8</ele><time>2015-05-01T10:18:34.0000000+00:00</time></trkpt><trkpt lat="34.8064125" lon="33.4432146"><ele>75.0</ele><time>2015-05-01T10:18:36.0000000+00:00</time></trkpt><trkpt lat="34.8064232" lon="33.4431449"><ele>73.8</ele><time>2015-05-01T10:18:38.0000000+00:00</time></trkpt><trkpt lat="34.8064331" lon="33.4430746"><ele>72.5</ele><time>2015-05-01T10:18:40.0000000+00:00</time></trkpt><trkpt lat="34.8064432" lon="33.4429993"><ele>72.1</ele><time>2015-05-01T10:18:42.0000000+00:00</time></trkpt><trkpt lat="34.8064499" lon="33.4429208"><ele>72.8</ele><time>2015-05-01T10:18:44.0000000+00:00</time></trkpt><trkpt lat="34.8064577" lon="33.4428423"><ele>72.2</ele><time>2015-05-01T10:18:46.0000000+00:00</time></trkpt><trkpt lat="34.8064675" lon="33.4427625"><ele>72.1</ele><time>2015-05-01T10:18:48.0000000+00:00</time></trkpt><trkpt lat="34.8064724" lon="33.4426835"><ele>72.8</ele><time>2015-05-01T10:18:50.0000000+00:00</time></trkpt><trkpt lat="34.8064778" lon="33.4426018"><ele>73.0</ele><time>2015-05-01T10:18:52.0000000+00:00</time></trkpt><trkpt lat="34.8064886" lon="33.442517"><ele>71.3</ele><time>2015-05-01T10:18:54.0000000+00:00</time></trkpt><trkpt lat="34.8064991" lon="33.4424283"><ele>70.6</ele><time>2015-05-01T10:18:56.0000000+00:00</time></trkpt><trkpt lat="34.8065091" lon="33.4423369"><ele>69.2</ele><time>2015-05-01T10:18:58.0000000+00:00</time></trkpt><trkpt lat="34.8065137" lon="33.4422427"><ele>69.6</ele><time>2015-05-01T10:19:00.0000000+00:00</time></trkpt><trkpt lat="34.8065168" lon="33.4421501"><ele>69.4</ele><time>2015-05-01T10:19:02.0000000+00:00</time></trkpt><trkpt lat="34.8065239" lon="33.4420609"><ele>69.9</ele><time>2015-05-01T10:19:04.0000000+00:00</time></trkpt><trkpt lat="34.8065254" lon="33.4419806"><ele>69.2</ele><time>2015-05-01T10:19:06.0000000+00:00</time></trkpt><trkpt lat="34.8065288" lon="33.4419063"><ele>69.1</ele><time>2015-05-01T10:19:08.0000000+00:00</time></trkpt><trkpt lat="34.806537" lon="33.4418374"><ele>69.0</ele><time>2015-05-01T10:19:10.0000000+00:00</time></trkpt><trkpt lat="34.8065439" lon="33.4417661"><ele>69.8</ele><time>2015-05-01T10:19:12.0000000+00:00</time></trkpt><trkpt lat="34.8065466" lon="33.441691"><ele>69.7</ele><time>2015-05-01T10:19:14.0000000+00:00</time></trkpt><trkpt lat="34.8065474" lon="33.4416124"><ele>70.2</ele><time>2015-05-01T10:19:16.0000000+00:00</time></trkpt><trkpt lat="34.8065544" lon="33.4415299"><ele>70.1</ele><time>2015-05-01T10:19:18.0000000+00:00</time></trkpt><trkpt lat="34.806561" lon="33.4414444"><ele>70.3</ele><time>2015-05-01T10:19:20.0000000+00:00</time></trkpt><trkpt lat="34.8065698" lon="33.4413551"><ele>70.6</ele><time>2015-05-01T10:19:22.0000000+00:00</time></trkpt><trkpt lat="34.806575" lon="33.4412638"><ele>70.7</ele><time>2015-05-01T10:19:24.0000000+00:00</time></trkpt><trkpt lat="34.8065746" lon="33.4411709"><ele>71.7</ele><time>2015-05-01T10:19:26.0000000+00:00</time></trkpt><trkpt lat="34.8065716" lon="33.4410812"><ele>73.2</ele><time>2015-05-01T10:19:28.0000000+00:00</time></trkpt><trkpt lat="34.8065709" lon="33.4409939"><ele>73.8</ele><time>2015-05-01T10:19:30.0000000+00:00</time></trkpt><trkpt lat="34.8065666" lon="33.4409086"><ele>74.0</ele><time>2015-05-01T10:19:32.0000000+00:00</time></trkpt><trkpt lat="34.8065673" lon="33.4408179"><ele>74.8</ele><time>2015-05-01T10:19:34.0000000+00:00</time></trkpt><trkpt lat="34.8065684" lon="33.4407232"><ele>76.2</ele><time>2015-05-01T10:19:36.0000000+00:00</time></trkpt><trkpt lat="34.8065671" lon="33.4406263"><ele>77.3</ele><time>2015-05-01T10:19:38.0000000+00:00</time></trkpt><trkpt lat="34.8065698" lon="33.4405329"><ele>78.3</ele><time>2015-05-01T10:19:40.0000000+00:00</time></trkpt><trkpt lat="34.8065696" lon="33.4404437"><ele>78.1</ele><time>2015-05-01T10:19:42.0000000+00:00</time></trkpt><trkpt lat="34.806564" lon="33.44035"><ele>78.5</ele><time>2015-05-01T10:19:44.0000000+00:00</time></trkpt><trkpt lat="34.8065624" lon="33.4402564"><ele>78.7</ele><time>2015-05-01T10:19:46.0000000+00:00</time></trkpt><trkpt lat="34.8065631" lon="33.4401607"><ele>78.2</ele><time>2015-05-01T10:19:48.0000000+00:00</time></trkpt><trkpt lat="34.8065639" lon="33.4400621"><ele>78.1</ele><time>2015-05-01T10:19:50.0000000+00:00</time></trkpt><trkpt lat="34.8065653" lon="33.4399637"><ele>77.5</ele><time>2015-05-01T10:19:52.0000000+00:00</time></trkpt><trkpt lat="34.8065675" lon="33.4398676"><ele>77.1</ele><time>2015-05-01T10:19:54.0000000+00:00</time></trkpt><trkpt lat="34.8065723" lon="33.4397772"><ele>77.1</ele><time>2015-05-01T10:19:56.0000000+00:00</time></trkpt><trkpt lat="34.8065739" lon="33.4396884"><ele>77.8</ele><time>2015-05-01T10:19:58.0000000+00:00</time></trkpt><trkpt lat="34.806574" lon="33.4395972"><ele>77.2</ele><time>2015-05-01T10:20:00.0000000+00:00</time></trkpt><trkpt lat="34.8065731" lon="33.4395033"><ele>77.8</ele><time>2015-05-01T10:20:02.0000000+00:00</time></trkpt><trkpt lat="34.8065732" lon="33.4394091"><ele>78.5</ele><time>2015-05-01T10:20:04.0000000+00:00</time></trkpt><trkpt lat="34.8065726" lon="33.4393173"><ele>78.6</ele><time>2015-05-01T10:20:06.0000000+00:00</time></trkpt><trkpt lat="34.8065712" lon="33.4392329"><ele>79.4</ele><time>2015-05-01T10:20:08.0000000+00:00</time></trkpt><trkpt lat="34.8065702" lon="33.4391553"><ele>79.4</ele><time>2015-05-01T10:20:10.0000000+00:00</time></trkpt><trkpt lat="34.8065692" lon="33.439081"><ele>79.9</ele><time>2015-05-01T10:20:12.0000000+00:00</time></trkpt><trkpt lat="34.8065719" lon="33.4390103"><ele>80.2</ele><time>2015-05-01T10:20:14.0000000+00:00</time></trkpt><trkpt lat="34.8065741" lon="33.4389436"><ele>78.6</ele><time>2015-05-01T10:20:16.0000000+00:00</time></trkpt><trkpt lat="34.8065591" lon="33.4388685"><ele>79.0</ele><time>2015-05-01T10:20:19.0000000+00:00</time></trkpt><trkpt lat="34.8065567" lon="33.4387842"><ele>78.9</ele><time>2015-05-01T10:20:22.0000000+00:00</time></trkpt><trkpt lat="34.8065525" lon="33.4387166"><ele>79.2</ele><time>2015-05-01T10:20:24.0000000+00:00</time></trkpt><trkpt lat="34.8065466" lon="33.438643"><ele>78.3</ele><time>2015-05-01T10:20:26.0000000+00:00</time></trkpt><trkpt lat="34.8065386" lon="33.4385641"><ele>78.1</ele><time>2015-05-01T10:20:28.0000000+00:00</time></trkpt><trkpt lat="34.8065309" lon="33.4384815"><ele>77.3</ele><time>2015-05-01T10:20:30.0000000+00:00</time></trkpt><trkpt lat="34.8065204" lon="33.4384046"><ele>77.1</ele><time>2015-05-01T10:20:32.0000000+00:00</time></trkpt><trkpt lat="34.8065084" lon="33.4383366"><ele>77.0</ele><time>2015-05-01T10:20:34.0000000+00:00</time></trkpt><trkpt lat="34.8064944" lon="33.4382762"><ele>76.8</ele><time>2015-05-01T10:20:36.0000000+00:00</time></trkpt><trkpt lat="34.8064765" lon="33.4382124"><ele>77.0</ele><time>2015-05-01T10:20:38.0000000+00:00</time></trkpt><trkpt lat="34.806459" lon="33.4381427"><ele>77.0</ele><time>2015-05-01T10:20:40.0000000+00:00</time></trkpt><trkpt lat="34.8064443" lon="33.4380708"><ele>77.0</ele><time>2015-05-01T10:20:42.0000000+00:00</time></trkpt><trkpt lat="34.8064315" lon="33.4379957"><ele>77.0</ele><time>2015-05-01T10:20:44.0000000+00:00</time></trkpt><trkpt lat="34.8064158" lon="33.4379195"><ele>77.0</ele><time>2015-05-01T10:20:46.0000000+00:00</time></trkpt><trkpt lat="34.8063985" lon="33.4378461"><ele>77.3</ele><time>2015-05-01T10:20:48.0000000+00:00</time></trkpt><trkpt lat="34.8063844" lon="33.4377732"><ele>76.1</ele><time>2015-05-01T10:20:50.0000000+00:00</time></trkpt><trkpt lat="34.8063728" lon="33.4377027"><ele>75.3</ele><time>2015-05-01T10:20:52.0000000+00:00</time></trkpt><trkpt lat="34.8063622" lon="33.4376338"><ele>75.6</ele><time>2015-05-01T10:20:54.0000000+00:00</time></trkpt><trkpt lat="34.8063521" lon="33.4375694"><ele>73.7</ele><time>2015-05-01T10:20:56.0000000+00:00</time></trkpt><trkpt lat="34.8063395" lon="33.4375079"><ele>72.4</ele><time>2015-05-01T10:20:58.0000000+00:00</time></trkpt><trkpt lat="34.8063454" lon="33.4374518"><ele>74.4</ele><time>2015-05-01T10:21:09.0000000+00:00</time></trkpt><trkpt lat="34.8063881" lon="33.4373834"><ele>73.8</ele><time>2015-05-01T10:21:12.0000000+00:00</time></trkpt><trkpt lat="34.8064347" lon="33.4373536"><ele>74.0</ele><time>2015-05-01T10:21:14.0000000+00:00</time></trkpt><trkpt lat="34.8064816" lon="33.4373277"><ele>74.0</ele><time>2015-05-01T10:21:16.0000000+00:00</time></trkpt><trkpt lat="34.8065216" lon="33.4372931"><ele>73.8</ele><time>2015-05-01T10:21:18.0000000+00:00</time></trkpt><trkpt lat="34.8065638" lon="33.4372553"><ele>73.2</ele><time>2015-05-01T10:21:20.0000000+00:00</time></trkpt><trkpt lat="34.8066166" lon="33.4372223"><ele>73.8</ele><time>2015-05-01T10:21:22.0000000+00:00</time></trkpt><trkpt lat="34.806671" lon="33.4371867"><ele>74.5</ele><time>2015-05-01T10:21:24.0000000+00:00</time></trkpt><trkpt lat="34.8067243" lon="33.4371452"><ele>75.1</ele><time>2015-05-01T10:21:26.0000000+00:00</time></trkpt><trkpt lat="34.8067717" lon="33.4371"><ele>75.0</ele><time>2015-05-01T10:21:28.0000000+00:00</time></trkpt><trkpt lat="34.806833" lon="33.4370354"><ele>75.8</ele><time>2015-05-01T10:21:30.0000000+00:00</time></trkpt><trkpt lat="34.8068832" lon="33.4369753"><ele>75.2</ele><time>2015-05-01T10:21:32.0000000+00:00</time></trkpt><trkpt lat="34.8069295" lon="33.4369231"><ele>74.8</ele><time>2015-05-01T10:21:34.0000000+00:00</time></trkpt><trkpt lat="34.8069758" lon="33.4368776"><ele>75.2</ele><time>2015-05-01T10:21:36.0000000+00:00</time></trkpt><trkpt lat="34.8070158" lon="33.4368319"><ele>75.6</ele><time>2015-05-01T10:21:38.0000000+00:00</time></trkpt><trkpt lat="34.8070536" lon="33.4367866"><ele>75.4</ele><time>2015-05-01T10:21:40.0000000+00:00</time></trkpt><trkpt lat="34.807091" lon="33.4367438"><ele>74.6</ele><time>2015-05-01T10:21:42.0000000+00:00</time></trkpt><trkpt lat="34.80712" lon="33.4366938"><ele>74.2</ele><time>2015-05-01T10:21:44.0000000+00:00</time></trkpt><trkpt lat="34.8071443" lon="33.4366347"><ele>74.3</ele><time>2015-05-01T10:21:46.0000000+00:00</time></trkpt><trkpt lat="34.8071543" lon="33.4365592"><ele>73.3</ele><time>2015-05-01T10:21:48.0000000+00:00</time></trkpt><trkpt lat="34.807153" lon="33.4364753"><ele>73.1</ele><time>2015-05-01T10:21:50.0000000+00:00</time></trkpt><trkpt lat="34.807145" lon="33.436388"><ele>72.5</ele><time>2015-05-01T10:21:52.0000000+00:00</time></trkpt><trkpt lat="34.8071564" lon="33.4362915"><ele>71.2</ele><time>2015-05-01T10:21:54.0000000+00:00</time></trkpt><trkpt lat="34.8072029" lon="33.4362048"><ele>70.1</ele><time>2015-05-01T10:21:55.0000000+00:00</time></trkpt><trkpt lat="34.8072454" lon="33.4361698"><ele>69.6</ele><time>2015-05-01T10:21:56.0000000+00:00</time></trkpt><trkpt lat="34.8072834" lon="33.4361298"><ele>69.8</ele><time>2015-05-01T10:21:57.0000000+00:00</time></trkpt><trkpt lat="34.8073299" lon="33.4360854"><ele>69.9</ele><time>2015-05-01T10:21:58.0000000+00:00</time></trkpt><trkpt lat="34.8073777" lon="33.4360447"><ele>70.0</ele><time>2015-05-01T10:21:59.0000000+00:00</time></trkpt><trkpt lat="34.8074334" lon="33.4360044"><ele>70.0</ele><time>2015-05-01T10:22:00.0000000+00:00</time></trkpt><trkpt lat="34.8074913" lon="33.4359614"><ele>70.5</ele><time>2015-05-01T10:22:01.0000000+00:00</time></trkpt><trkpt lat="34.8075498" lon="33.4359266"><ele>70.8</ele><time>2015-05-01T10:22:02.0000000+00:00</time></trkpt><trkpt lat="34.807604" lon="33.4358764"><ele>70.9</ele><time>2015-05-01T10:22:03.0000000+00:00</time></trkpt><trkpt lat="34.8076642" lon="33.4358258"><ele>71.0</ele><time>2015-05-01T10:22:04.0000000+00:00</time></trkpt><trkpt lat="34.8077167" lon="33.435776"><ele>71.5</ele><time>2015-05-01T10:22:05.0000000+00:00</time></trkpt><trkpt lat="34.8077548" lon="33.4357383"><ele>72.3</ele><time>2015-05-01T10:22:06.0000000+00:00</time></trkpt><trkpt lat="34.8077947" lon="33.4357032"><ele>72.6</ele><time>2015-05-01T10:22:07.0000000+00:00</time></trkpt><trkpt lat="34.8078316" lon="33.4356716"><ele>72.8</ele><time>2015-05-01T10:22:08.0000000+00:00</time></trkpt><trkpt lat="34.80789" lon="33.4356241"><ele>73.7</ele><time>2015-05-01T10:22:10.0000000+00:00</time></trkpt><trkpt lat="34.807953" lon="33.435584"><ele>74.7</ele><time>2015-05-01T10:22:12.0000000+00:00</time></trkpt><trkpt lat="34.8080124" lon="33.4355375"><ele>74.7</ele><time>2015-05-01T10:22:14.0000000+00:00</time></trkpt><trkpt lat="34.808071" lon="33.4354899"><ele>75.7</ele><time>2015-05-01T10:22:16.0000000+00:00</time></trkpt><trkpt lat="34.8081247" lon="33.4354429"><ele>75.9</ele><time>2015-05-01T10:22:18.0000000+00:00</time></trkpt><trkpt lat="34.8081846" lon="33.4353932"><ele>76.0</ele><time>2015-05-01T10:22:20.0000000+00:00</time></trkpt><trkpt lat="34.808241" lon="33.4353355"><ele>76.0</ele><time>2015-05-01T10:22:22.0000000+00:00</time></trkpt><trkpt lat="34.808301" lon="33.4352748"><ele>76.0</ele><time>2015-05-01T10:22:24.0000000+00:00</time></trkpt><trkpt lat="34.8083627" lon="33.4352144"><ele>77.3</ele><time>2015-05-01T10:22:26.0000000+00:00</time></trkpt><trkpt lat="34.8084165" lon="33.4351576"><ele>78.3</ele><time>2015-05-01T10:22:28.0000000+00:00</time></trkpt><trkpt lat="34.808465" lon="33.435109"><ele>78.8</ele><time>2015-05-01T10:22:30.0000000+00:00</time></trkpt><trkpt lat="34.8085116" lon="33.4350626"><ele>78.7</ele><time>2015-05-01T10:22:32.0000000+00:00</time></trkpt><trkpt lat="34.8085585" lon="33.4350134"><ele>78.9</ele><time>2015-05-01T10:22:34.0000000+00:00</time></trkpt><trkpt lat="34.8086022" lon="33.434962"><ele>78.5</ele><time>2015-05-01T10:22:36.0000000+00:00</time></trkpt><trkpt lat="34.8086451" lon="33.4349078"><ele>78.1</ele><time>2015-05-01T10:22:38.0000000+00:00</time></trkpt><trkpt lat="34.8086912" lon="33.4348554"><ele>77.6</ele><time>2015-05-01T10:22:40.0000000+00:00</time></trkpt><trkpt lat="34.8087418" lon="33.4348054"><ele>77.2</ele><time>2015-05-01T10:22:42.0000000+00:00</time></trkpt><trkpt lat="34.8087963" lon="33.4347582"><ele>76.6</ele><time>2015-05-01T10:22:44.0000000+00:00</time></trkpt><trkpt lat="34.8088575" lon="33.4347122"><ele>76.2</ele><time>2015-05-01T10:22:46.0000000+00:00</time></trkpt><trkpt lat="34.8089255" lon="33.4346651"><ele>76.8</ele><time>2015-05-01T10:22:48.0000000+00:00</time></trkpt><trkpt lat="34.8090192" lon="33.434603"><ele>76.2</ele><time>2015-05-01T10:22:50.0000000+00:00</time></trkpt><trkpt lat="34.8090626" lon="33.4345741"><ele>76.1</ele><time>2015-05-01T10:22:51.0000000+00:00</time></trkpt><trkpt lat="34.8091097" lon="33.4345457"><ele>75.6</ele><time>2015-05-01T10:22:52.0000000+00:00</time></trkpt><trkpt lat="34.8091665" lon="33.4345183"><ele>75.3</ele><time>2015-05-01T10:22:53.0000000+00:00</time></trkpt><trkpt lat="34.8092112" lon="33.4344943"><ele>75.7</ele><time>2015-05-01T10:22:54.0000000+00:00</time></trkpt><trkpt lat="34.8092665" lon="33.4344581"><ele>75.3</ele><time>2015-05-01T10:22:55.0000000+00:00</time></trkpt><trkpt lat="34.8093178" lon="33.4344232"><ele>75.2</ele><time>2015-05-01T10:22:56.0000000+00:00</time></trkpt><trkpt lat="34.8093742" lon="33.4343899"><ele>75.1</ele><time>2015-05-01T10:22:57.0000000+00:00</time></trkpt><trkpt lat="34.809427" lon="33.4343606"><ele>75.1</ele><time>2015-05-01T10:22:58.0000000+00:00</time></trkpt><trkpt lat="34.8094735" lon="33.4343324"><ele>74.5</ele><time>2015-05-01T10:22:59.0000000+00:00</time></trkpt><trkpt lat="34.8095401" lon="33.4342924"><ele>74.3</ele><time>2015-05-01T10:23:00.0000000+00:00</time></trkpt><trkpt lat="34.8096005" lon="33.4342658"><ele>74.7</ele><time>2015-05-01T10:23:01.0000000+00:00</time></trkpt><trkpt lat="34.8096537" lon="33.4342142"><ele>75.3</ele><time>2015-05-01T10:23:02.0000000+00:00</time></trkpt><trkpt lat="34.809696" lon="33.434171"><ele>75.7</ele><time>2015-05-01T10:23:03.0000000+00:00</time></trkpt><trkpt lat="34.8097545" lon="33.4341202"><ele>75.8</ele><time>2015-05-01T10:23:04.0000000+00:00</time></trkpt><trkpt lat="34.8098024" lon="33.4340522"><ele>75.9</ele><time>2015-05-01T10:23:05.0000000+00:00</time></trkpt><trkpt lat="34.8098496" lon="33.4339914"><ele>76.0</ele><time>2015-05-01T10:23:06.0000000+00:00</time></trkpt><trkpt lat="34.8098954" lon="33.4339292"><ele>76.0</ele><time>2015-05-01T10:23:07.0000000+00:00</time></trkpt><trkpt lat="34.8099381" lon="33.4338678"><ele>76.0</ele><time>2015-05-01T10:23:08.0000000+00:00</time></trkpt><trkpt lat="34.8099858" lon="33.4338208"><ele>75.5</ele><time>2015-05-01T10:23:09.0000000+00:00</time></trkpt><trkpt lat="34.8100293" lon="33.4337623"><ele>75.3</ele><time>2015-05-01T10:23:10.0000000+00:00</time></trkpt><trkpt lat="34.8100682" lon="33.4337076"><ele>75.1</ele><time>2015-05-01T10:23:11.0000000+00:00</time></trkpt><trkpt lat="34.8101174" lon="33.4336475"><ele>75.1</ele><time>2015-05-01T10:23:12.0000000+00:00</time></trkpt><trkpt lat="34.8101658" lon="33.433586"><ele>74.6</ele><time>2015-05-01T10:23:13.0000000+00:00</time></trkpt><trkpt lat="34.8102088" lon="33.4335212"><ele>74.3</ele><time>2015-05-01T10:23:14.0000000+00:00</time></trkpt><trkpt lat="34.8102547" lon="33.433466"><ele>74.2</ele><time>2015-05-01T10:23:15.0000000+00:00</time></trkpt><trkpt lat="34.8102935" lon="33.4333999"><ele>74.1</ele><time>2015-05-01T10:23:16.0000000+00:00</time></trkpt><trkpt lat="34.8103318" lon="33.4333501"><ele>74.1</ele><time>2015-05-01T10:23:17.0000000+00:00</time></trkpt><trkpt lat="34.8103628" lon="33.433307"><ele>74.0</ele><time>2015-05-01T10:23:18.0000000+00:00</time></trkpt><trkpt lat="34.810428" lon="33.433225"><ele>74.0</ele><time>2015-05-01T10:23:20.0000000+00:00</time></trkpt><trkpt lat="34.8104874" lon="33.4331436"><ele>73.3</ele><time>2015-05-01T10:23:22.0000000+00:00</time></trkpt><trkpt lat="34.810528" lon="33.4330549"><ele>72.6</ele><time>2015-05-01T10:23:24.0000000+00:00</time></trkpt><trkpt lat="34.810557" lon="33.4329552"><ele>72.9</ele><time>2015-05-01T10:23:26.0000000+00:00</time></trkpt><trkpt lat="34.8105641" lon="33.4328732"><ele>73.7</ele><time>2015-05-01T10:23:28.0000000+00:00</time></trkpt><trkpt lat="34.810568" lon="33.4327957"><ele>74.0</ele><time>2015-05-01T10:23:30.0000000+00:00</time></trkpt><trkpt lat="34.8105806" lon="33.4327198"><ele>74.0</ele><time>2015-05-01T10:23:32.0000000+00:00</time></trkpt><trkpt lat="34.8106012" lon="33.4326368"><ele>73.8</ele><time>2015-05-01T10:23:34.0000000+00:00</time></trkpt><trkpt lat="34.8106128" lon="33.4325548"><ele>74.0</ele><time>2015-05-01T10:23:36.0000000+00:00</time></trkpt><trkpt lat="34.8106205" lon="33.4324736"><ele>74.8</ele><time>2015-05-01T10:23:38.0000000+00:00</time></trkpt><trkpt lat="34.8106298" lon="33.4323912"><ele>75.7</ele><time>2015-05-01T10:23:40.0000000+00:00</time></trkpt><trkpt lat="34.8106377" lon="33.4323117"><ele>76.2</ele><time>2015-05-01T10:23:42.0000000+00:00</time></trkpt><trkpt lat="34.8106477" lon="33.4322322"><ele>77.3</ele><time>2015-05-01T10:23:44.0000000+00:00</time></trkpt><trkpt lat="34.8106562" lon="33.4321592"><ele>78.1</ele><time>2015-05-01T10:23:46.0000000+00:00</time></trkpt><trkpt lat="34.8106655" lon="33.4320966"><ele>78.0</ele><time>2015-05-01T10:23:48.0000000+00:00</time></trkpt><trkpt lat="34.8106737" lon="33.4320191"><ele>78.0</ele><time>2015-05-01T10:23:51.0000000+00:00</time></trkpt><trkpt lat="34.8106869" lon="33.4319608"><ele>77.5</ele><time>2015-05-01T10:23:53.0000000+00:00</time></trkpt><trkpt lat="34.8107034" lon="33.4318978"><ele>77.4</ele><time>2015-05-01T10:23:55.0000000+00:00</time></trkpt><trkpt lat="34.8107259" lon="33.431833"><ele>78.4</ele><time>2015-05-01T10:23:57.0000000+00:00</time></trkpt><trkpt lat="34.8107486" lon="33.4317715"><ele>78.1</ele><time>2015-05-01T10:23:59.0000000+00:00</time></trkpt><trkpt lat="34.8107696" lon="33.4317154"><ele>78.3</ele><time>2015-05-01T10:24:01.0000000+00:00</time></trkpt><trkpt lat="34.8107929" lon="33.4316401"><ele>78.4</ele><time>2015-05-01T10:24:04.0000000+00:00</time></trkpt><trkpt lat="34.8108207" lon="33.4315666"><ele>77.8</ele><time>2015-05-01T10:24:07.0000000+00:00</time></trkpt><trkpt lat="34.8108444" lon="33.4315072"><ele>77.5</ele><time>2015-05-01T10:24:09.0000000+00:00</time></trkpt><trkpt lat="34.8108698" lon="33.431433"><ele>77.9</ele><time>2015-05-01T10:24:11.0000000+00:00</time></trkpt><trkpt lat="34.8108993" lon="33.4313351"><ele>77.2</ele><time>2015-05-01T10:24:13.0000000+00:00</time></trkpt><trkpt lat="34.8109282" lon="33.4312417"><ele>77.8</ele><time>2015-05-01T10:24:15.0000000+00:00</time></trkpt><trkpt lat="34.8109577" lon="33.4311516"><ele>78.7</ele><time>2015-05-01T10:24:17.0000000+00:00</time></trkpt><trkpt lat="34.8109823" lon="33.4310682"><ele>78.4</ele><time>2015-05-01T10:24:19.0000000+00:00</time></trkpt><trkpt lat="34.8110048" lon="33.4309861"><ele>77.6</ele><time>2015-05-01T10:24:21.0000000+00:00</time></trkpt><trkpt lat="34.8110274" lon="33.4309126"><ele>76.7</ele><time>2015-05-01T10:24:23.0000000+00:00</time></trkpt><trkpt lat="34.8110493" lon="33.4308373"><ele>76.9</ele><time>2015-05-01T10:24:25.0000000+00:00</time></trkpt><trkpt lat="34.8110694" lon="33.4307654"><ele>77.5</ele><time>2015-05-01T10:24:27.0000000+00:00</time></trkpt><trkpt lat="34.8110907" lon="33.4306907"><ele>77.6</ele><time>2015-05-01T10:24:29.0000000+00:00</time></trkpt><trkpt lat="34.8111114" lon="33.4306316"><ele>78.7</ele><time>2015-05-01T10:24:31.0000000+00:00</time></trkpt><trkpt lat="34.8111603" lon="33.4306378"><ele>78.2</ele><time>2015-05-01T10:24:34.0000000+00:00</time></trkpt><trkpt lat="34.8111916" lon="33.4306835"><ele>78.8</ele><time>2015-05-01T10:24:36.0000000+00:00</time></trkpt><trkpt lat="34.8111645" lon="33.430635"><ele>82.7</ele><time>2015-05-01T10:29:23.0000000+00:00</time></trkpt><trkpt lat="34.8111655" lon="33.4305722"><ele>80.9</ele><time>2015-05-01T10:29:26.0000000+00:00</time></trkpt><trkpt lat="34.811171" lon="33.4305156"><ele>79.7</ele><time>2015-05-01T10:29:28.0000000+00:00</time></trkpt><trkpt lat="34.8111916" lon="33.4304443"><ele>79.2</ele><time>2015-05-01T10:29:30.0000000+00:00</time></trkpt><trkpt lat="34.8112238" lon="33.4303778"><ele>77.8</ele><time>2015-05-01T10:29:32.0000000+00:00</time></trkpt><trkpt lat="34.8112597" lon="33.4303104"><ele>77.2</ele><time>2015-05-01T10:29:34.0000000+00:00</time></trkpt><trkpt lat="34.811296" lon="33.4302395"><ele>77.1</ele><time>2015-05-01T10:29:36.0000000+00:00</time></trkpt><trkpt lat="34.8113328" lon="33.430169"><ele>77.0</ele><time>2015-05-01T10:29:38.0000000+00:00</time></trkpt><trkpt lat="34.8113706" lon="33.4300949"><ele>76.5</ele><time>2015-05-01T10:29:40.0000000+00:00</time></trkpt><trkpt lat="34.8114097" lon="33.430019"><ele>76.9</ele><time>2015-05-01T10:29:42.0000000+00:00</time></trkpt><trkpt lat="34.8114491" lon="33.4299424"><ele>77.0</ele><time>2015-05-01T10:29:44.0000000+00:00</time></trkpt><trkpt lat="34.8114891" lon="33.42987"><ele>77.0</ele><time>2015-05-01T10:29:46.0000000+00:00</time></trkpt><trkpt lat="34.8115233" lon="33.4297984"><ele>77.0</ele><time>2015-05-01T10:29:48.0000000+00:00</time></trkpt><trkpt lat="34.8115563" lon="33.4297332"><ele>77.0</ele><time>2015-05-01T10:29:50.0000000+00:00</time></trkpt><trkpt lat="34.8115886" lon="33.4296742"><ele>77.8</ele><time>2015-05-01T10:29:52.0000000+00:00</time></trkpt><trkpt lat="34.8116215" lon="33.4296208"><ele>78.0</ele><time>2015-05-01T10:29:54.0000000+00:00</time></trkpt><trkpt lat="34.8116593" lon="33.4295646"><ele>78.5</ele><time>2015-05-01T10:29:56.0000000+00:00</time></trkpt><trkpt lat="34.811698" lon="33.4294984"><ele>78.6</ele><time>2015-05-01T10:29:58.0000000+00:00</time></trkpt><trkpt lat="34.8117403" lon="33.4294216"><ele>78.9</ele><time>2015-05-01T10:30:00.0000000+00:00</time></trkpt><trkpt lat="34.8118106" lon="33.4293046"><ele>79.0</ele><time>2015-05-01T10:30:02.0000000+00:00</time></trkpt><trkpt lat="34.8118542" lon="33.4292107"><ele>79.3</ele><time>2015-05-01T10:30:04.0000000+00:00</time></trkpt><trkpt lat="34.8118808" lon="33.4291636"><ele>79.1</ele><time>2015-05-01T10:30:05.0000000+00:00</time></trkpt><trkpt lat="34.8119223" lon="33.4290902"><ele>79.1</ele><time>2015-05-01T10:30:07.0000000+00:00</time></trkpt><trkpt lat="34.8119698" lon="33.4290102"><ele>79.5</ele><time>2015-05-01T10:30:09.0000000+00:00</time></trkpt><trkpt lat="34.812016" lon="33.4289254"><ele>79.9</ele><time>2015-05-01T10:30:11.0000000+00:00</time></trkpt><trkpt lat="34.8120596" lon="33.4288451"><ele>80.7</ele><time>2015-05-01T10:30:13.0000000+00:00</time></trkpt><trkpt lat="34.8120974" lon="33.4287528"><ele>81.0</ele><time>2015-05-01T10:30:15.0000000+00:00</time></trkpt><trkpt lat="34.8121221" lon="33.4287059"><ele>81.0</ele><time>2015-05-01T10:30:16.0000000+00:00</time></trkpt><trkpt lat="34.8121712" lon="33.4286144"><ele>81.0</ele><time>2015-05-01T10:30:18.0000000+00:00</time></trkpt><trkpt lat="34.8121952" lon="33.4285591"><ele>81.5</ele><time>2015-05-01T10:30:19.0000000+00:00</time></trkpt><trkpt lat="34.8122382" lon="33.4284666"><ele>81.9</ele><time>2015-05-01T10:30:21.0000000+00:00</time></trkpt><trkpt lat="34.8122696" lon="33.4283837"><ele>82.0</ele><time>2015-05-01T10:30:23.0000000+00:00</time></trkpt><trkpt lat="34.8122886" lon="33.4283042"><ele>82.0</ele><time>2015-05-01T10:30:25.0000000+00:00</time></trkpt><trkpt lat="34.8123199" lon="33.4282178"><ele>82.0</ele><time>2015-05-01T10:30:27.0000000+00:00</time></trkpt><trkpt lat="34.8123512" lon="33.4281264"><ele>82.8</ele><time>2015-05-01T10:30:29.0000000+00:00</time></trkpt><trkpt lat="34.8123775" lon="33.4280347"><ele>83.5</ele><time>2015-05-01T10:30:31.0000000+00:00</time></trkpt><trkpt lat="34.8124056" lon="33.4279397"><ele>83.9</ele><time>2015-05-01T10:30:33.0000000+00:00</time></trkpt><trkpt lat="34.812435" lon="33.4278433"><ele>83.2</ele><time>2015-05-01T10:30:35.0000000+00:00</time></trkpt><trkpt lat="34.8124682" lon="33.4277434"><ele>83.1</ele><time>2015-05-01T10:30:37.0000000+00:00</time></trkpt><trkpt lat="34.8125069" lon="33.4276515"><ele>83.0</ele><time>2015-05-01T10:30:39.0000000+00:00</time></trkpt><trkpt lat="34.8125473" lon="33.4275617"><ele>83.0</ele><time>2015-05-01T10:30:41.0000000+00:00</time></trkpt><trkpt lat="34.8125946" lon="33.4274777"><ele>82.5</ele><time>2015-05-01T10:30:43.0000000+00:00</time></trkpt><trkpt lat="34.8126215" lon="33.4274336"><ele>82.3</ele><time>2015-05-01T10:30:44.0000000+00:00</time></trkpt><trkpt lat="34.8126623" lon="33.4273737"><ele>81.6</ele><time>2015-05-01T10:30:45.0000000+00:00</time></trkpt><trkpt lat="34.8126845" lon="33.4273255"><ele>81.8</ele><time>2015-05-01T10:30:46.0000000+00:00</time></trkpt><trkpt lat="34.8127126" lon="33.4272819"><ele>81.9</ele><time>2015-05-01T10:30:47.0000000+00:00</time></trkpt><trkpt lat="34.8127424" lon="33.4272407"><ele>82.0</ele><time>2015-05-01T10:30:48.0000000+00:00</time></trkpt><trkpt lat="34.812773" lon="33.4271928"><ele>82.0</ele><time>2015-05-01T10:30:49.0000000+00:00</time></trkpt><trkpt lat="34.812796" lon="33.4271435"><ele>82.0</ele><time>2015-05-01T10:30:50.0000000+00:00</time></trkpt><trkpt lat="34.8128671" lon="33.4270542"><ele>81.0</ele><time>2015-05-01T10:30:52.0000000+00:00</time></trkpt><trkpt lat="34.8128979" lon="33.427004"><ele>81.0</ele><time>2015-05-01T10:30:53.0000000+00:00</time></trkpt><trkpt lat="34.8129282" lon="33.4269536"><ele>80.5</ele><time>2015-05-01T10:30:54.0000000+00:00</time></trkpt><trkpt lat="34.812958" lon="33.426902"><ele>80.3</ele><time>2015-05-01T10:30:55.0000000+00:00</time></trkpt><trkpt lat="34.8129906" lon="33.4268554"><ele>80.1</ele><time>2015-05-01T10:30:56.0000000+00:00</time></trkpt><trkpt lat="34.8130474" lon="33.4267711"><ele>79.8</ele><time>2015-05-01T10:30:58.0000000+00:00</time></trkpt><trkpt lat="34.813093" lon="33.426678"><ele>80.0</ele><time>2015-05-01T10:31:00.0000000+00:00</time></trkpt><trkpt lat="34.8131406" lon="33.4265981"><ele>80.0</ele><time>2015-05-01T10:31:02.0000000+00:00</time></trkpt><trkpt lat="34.8131869" lon="33.4265222"><ele>80.5</ele><time>2015-05-01T10:31:04.0000000+00:00</time></trkpt><trkpt lat="34.8132358" lon="33.426458"><ele>80.9</ele><time>2015-05-01T10:31:06.0000000+00:00</time></trkpt><trkpt lat="34.8132803" lon="33.4264031"><ele>80.5</ele><time>2015-05-01T10:31:08.0000000+00:00</time></trkpt><trkpt lat="34.813318" lon="33.4263521"><ele>79.4</ele><time>2015-05-01T10:31:10.0000000+00:00</time></trkpt><trkpt lat="34.8133478" lon="33.4263069"><ele>79.9</ele><time>2015-05-01T10:31:12.0000000+00:00</time></trkpt><trkpt lat="34.8133767" lon="33.426263"><ele>79.2</ele><time>2015-05-01T10:31:14.0000000+00:00</time></trkpt><trkpt lat="34.8134078" lon="33.4262137"><ele>78.8</ele><time>2015-05-01T10:31:16.0000000+00:00</time></trkpt><trkpt lat="34.813445" lon="33.4261576"><ele>79.5</ele><time>2015-05-01T10:31:18.0000000+00:00</time></trkpt><trkpt lat="34.8134896" lon="33.4260895"><ele>80.4</ele><time>2015-05-01T10:31:20.0000000+00:00</time></trkpt><trkpt lat="34.8135382" lon="33.4260106"><ele>80.9</ele><time>2015-05-01T10:31:22.0000000+00:00</time></trkpt><trkpt lat="34.8135897" lon="33.4259285"><ele>81.0</ele><time>2015-05-01T10:31:24.0000000+00:00</time></trkpt><trkpt lat="34.8136454" lon="33.4258439"><ele>80.3</ele><time>2015-05-01T10:31:26.0000000+00:00</time></trkpt><trkpt lat="34.813671" lon="33.4257895"><ele>80.6</ele><time>2015-05-01T10:31:27.0000000+00:00</time></trkpt><trkpt lat="34.8137188" lon="33.4256968"><ele>80.9</ele><time>2015-05-01T10:31:29.0000000+00:00</time></trkpt><trkpt lat="34.8137422" lon="33.425641"><ele>81.0</ele><time>2015-05-01T10:31:30.0000000+00:00</time></trkpt><trkpt lat="34.8137681" lon="33.4255699"><ele>81.5</ele><time>2015-05-01T10:31:31.0000000+00:00</time></trkpt><trkpt lat="34.8137972" lon="33.4255125"><ele>81.3</ele><time>2015-05-01T10:31:32.0000000+00:00</time></trkpt><trkpt lat="34.8138199" lon="33.4254604"><ele>80.6</ele><time>2015-05-01T10:31:33.0000000+00:00</time></trkpt><trkpt lat="34.8138378" lon="33.4253955"><ele>80.3</ele><time>2015-05-01T10:31:34.0000000+00:00</time></trkpt><trkpt lat="34.8138603" lon="33.4253391"><ele>79.7</ele><time>2015-05-01T10:31:35.0000000+00:00</time></trkpt><trkpt lat="34.8138754" lon="33.4252828"><ele>79.8</ele><time>2015-05-01T10:31:36.0000000+00:00</time></trkpt><trkpt lat="34.813889" lon="33.4252158"><ele>79.9</ele><time>2015-05-01T10:31:37.0000000+00:00</time></trkpt><trkpt lat="34.8139033" lon="33.4251604"><ele>80.0</ele><time>2015-05-01T10:31:38.0000000+00:00</time></trkpt><trkpt lat="34.8139229" lon="33.4251067"><ele>80.0</ele><time>2015-05-01T10:31:39.0000000+00:00</time></trkpt><trkpt lat="34.8139406" lon="33.4250448"><ele>80.0</ele><time>2015-05-01T10:31:40.0000000+00:00</time></trkpt><trkpt lat="34.8139694" lon="33.424936"><ele>80.0</ele><time>2015-05-01T10:31:42.0000000+00:00</time></trkpt><trkpt lat="34.8139738" lon="33.424876"><ele>80.0</ele><time>2015-05-01T10:31:43.0000000+00:00</time></trkpt><trkpt lat="34.813988" lon="33.4248131"><ele>80.0</ele><time>2015-05-01T10:31:44.0000000+00:00</time></trkpt><trkpt lat="34.814028" lon="33.4247239"><ele>80.0</ele><time>2015-05-01T10:31:46.0000000+00:00</time></trkpt><trkpt lat="34.8140378" lon="33.4246668"><ele>80.5</ele><time>2015-05-01T10:31:47.0000000+00:00</time></trkpt><trkpt lat="34.8140654" lon="33.4245726"><ele>81.6</ele><time>2015-05-01T10:31:49.0000000+00:00</time></trkpt><trkpt lat="34.8140964" lon="33.4244846"><ele>83.9</ele><time>2015-05-01T10:31:51.0000000+00:00</time></trkpt><trkpt lat="34.8141284" lon="33.4244091"><ele>85.2</ele><time>2015-05-01T10:31:53.0000000+00:00</time></trkpt><trkpt lat="34.8141504" lon="33.4243385"><ele>86.6</ele><time>2015-05-01T10:31:55.0000000+00:00</time></trkpt><trkpt lat="34.8141776" lon="33.4242861"><ele>86.2</ele><time>2015-05-01T10:31:57.0000000+00:00</time></trkpt><trkpt lat="34.8142055" lon="33.4242139"><ele>85.9</ele><time>2015-05-01T10:32:00.0000000+00:00</time></trkpt><trkpt lat="34.814219" lon="33.424158"><ele>86.0</ele><time>2015-05-01T10:32:02.0000000+00:00</time></trkpt><trkpt lat="34.814241" lon="33.4240818"><ele>85.1</ele><time>2015-05-01T10:32:05.0000000+00:00</time></trkpt><trkpt lat="34.8142611" lon="33.4240034"><ele>85.5</ele><time>2015-05-01T10:32:08.0000000+00:00</time></trkpt><trkpt lat="34.8142828" lon="33.4239256"><ele>87.3</ele><time>2015-05-01T10:32:11.0000000+00:00</time></trkpt><trkpt lat="34.8143033" lon="33.4238718"><ele>87.8</ele><time>2015-05-01T10:32:13.0000000+00:00</time></trkpt><trkpt lat="34.8143233" lon="33.4238124"><ele>88.5</ele><time>2015-05-01T10:32:15.0000000+00:00</time></trkpt><trkpt lat="34.8143477" lon="33.423749"><ele>89.6</ele><time>2015-05-01T10:32:17.0000000+00:00</time></trkpt><trkpt lat="34.8143728" lon="33.4236863"><ele>89.9</ele><time>2015-05-01T10:32:19.0000000+00:00</time></trkpt><trkpt lat="34.8143997" lon="33.4236226"><ele>90.0</ele><time>2015-05-01T10:32:21.0000000+00:00</time></trkpt><trkpt lat="34.8144285" lon="33.4235632"><ele>90.5</ele><time>2015-05-01T10:32:23.0000000+00:00</time></trkpt><trkpt lat="34.8144554" lon="33.4235097"><ele>91.6</ele><time>2015-05-01T10:32:25.0000000+00:00</time></trkpt><trkpt lat="34.8144765" lon="33.4234606"><ele>91.9</ele><time>2015-05-01T10:33:19.0000000+00:00</time></trkpt><trkpt lat="34.814498" lon="33.4234112"><ele>92.8</ele><time>2015-05-01T10:33:22.0000000+00:00</time></trkpt><trkpt lat="34.8145252" lon="33.4233339"><ele>92.7</ele><time>2015-05-01T10:33:25.0000000+00:00</time></trkpt><trkpt lat="34.8145476" lon="33.4232768"><ele>93.0</ele><time>2015-05-01T10:33:27.0000000+00:00</time></trkpt><trkpt lat="34.8145733" lon="33.4232163"><ele>93.3</ele><time>2015-05-01T10:33:29.0000000+00:00</time></trkpt><trkpt lat="34.8145965" lon="33.4231558"><ele>93.6</ele><time>2015-05-01T10:33:31.0000000+00:00</time></trkpt><trkpt lat="34.8146227" lon="33.4230941"><ele>94.7</ele><time>2015-05-01T10:33:33.0000000+00:00</time></trkpt><trkpt lat="34.814648" lon="33.42303"><ele>94.2</ele><time>2015-05-01T10:33:35.0000000+00:00</time></trkpt><trkpt lat="34.8146737" lon="33.4229608"><ele>94.6</ele><time>2015-05-01T10:33:37.0000000+00:00</time></trkpt><trkpt lat="34.814702" lon="33.4228905"><ele>94.2</ele><time>2015-05-01T10:33:39.0000000+00:00</time></trkpt><trkpt lat="34.8147305" lon="33.4228177"><ele>94.1</ele><time>2015-05-01T10:33:41.0000000+00:00</time></trkpt><trkpt lat="34.8147577" lon="33.4227534"><ele>94.0</ele><time>2015-05-01T10:33:43.0000000+00:00</time></trkpt><trkpt lat="34.8147844" lon="33.4226992"><ele>93.5</ele><time>2015-05-01T10:33:45.0000000+00:00</time></trkpt><trkpt lat="34.8148087" lon="33.4226506"><ele>93.1</ele><time>2015-05-01T10:33:47.0000000+00:00</time></trkpt><trkpt lat="34.8148328" lon="33.4226001"><ele>93.1</ele><time>2015-05-01T10:33:49.0000000+00:00</time></trkpt><trkpt lat="34.8148579" lon="33.422548"><ele>93.0</ele><time>2015-05-01T10:33:51.0000000+00:00</time></trkpt><trkpt lat="34.8148817" lon="33.4224896"><ele>93.0</ele><time>2015-05-01T10:33:53.0000000+00:00</time></trkpt><trkpt lat="34.8149034" lon="33.4224342"><ele>94.3</ele><time>2015-05-01T10:33:55.0000000+00:00</time></trkpt><trkpt lat="34.8149278" lon="33.4223764"><ele>94.3</ele><time>2015-05-01T10:33:57.0000000+00:00</time></trkpt><trkpt lat="34.8149555" lon="33.4223218"><ele>94.1</ele><time>2015-05-01T10:33:59.0000000+00:00</time></trkpt><trkpt lat="34.8149824" lon="33.4222621"><ele>94.5</ele><time>2015-05-01T10:34:01.0000000+00:00</time></trkpt><trkpt lat="34.8150103" lon="33.4222058"><ele>94.9</ele><time>2015-05-01T10:34:03.0000000+00:00</time></trkpt><trkpt lat="34.8150361" lon="33.4221422"><ele>95.0</ele><time>2015-05-01T10:34:05.0000000+00:00</time></trkpt><trkpt lat="34.815055" lon="33.4220764"><ele>95.0</ele><time>2015-05-01T10:34:07.0000000+00:00</time></trkpt><trkpt lat="34.8150779" lon="33.4220142"><ele>95.0</ele><time>2015-05-01T10:34:09.0000000+00:00</time></trkpt><trkpt lat="34.8150963" lon="33.4219527"><ele>95.3</ele><time>2015-05-01T10:34:11.0000000+00:00</time></trkpt><trkpt lat="34.8151191" lon="33.421889"><ele>95.8</ele><time>2015-05-01T10:34:13.0000000+00:00</time></trkpt><trkpt lat="34.8151428" lon="33.4218313"><ele>96.0</ele><time>2015-05-01T10:34:15.0000000+00:00</time></trkpt><trkpt lat="34.8151664" lon="33.4217702"><ele>96.0</ele><time>2015-05-01T10:34:17.0000000+00:00</time></trkpt><trkpt lat="34.8151878" lon="33.4217126"><ele>96.5</ele><time>2015-05-01T10:34:19.0000000+00:00</time></trkpt><trkpt lat="34.8152088" lon="33.4216532"><ele>96.9</ele><time>2015-05-01T10:34:21.0000000+00:00</time></trkpt><trkpt lat="34.8152271" lon="33.4215911"><ele>97.0</ele><time>2015-05-01T10:34:23.0000000+00:00</time></trkpt><trkpt lat="34.8152456" lon="33.4215254"><ele>97.3</ele><time>2015-05-01T10:34:25.0000000+00:00</time></trkpt><trkpt lat="34.8152687" lon="33.4214593"><ele>97.6</ele><time>2015-05-01T10:34:27.0000000+00:00</time></trkpt><trkpt lat="34.8152939" lon="33.4213949"><ele>97.9</ele><time>2015-05-01T10:34:29.0000000+00:00</time></trkpt><trkpt lat="34.8153156" lon="33.4213364"><ele>98.0</ele><time>2015-05-01T10:34:31.0000000+00:00</time></trkpt><trkpt lat="34.8153244" lon="33.42128"><ele>98.3</ele><time>2015-05-01T10:34:33.0000000+00:00</time></trkpt><trkpt lat="34.815346" lon="33.4212009"><ele>98.1</ele><time>2015-05-01T10:34:36.0000000+00:00</time></trkpt><trkpt lat="34.8153626" lon="33.421144"><ele>98.3</ele><time>2015-05-01T10:34:38.0000000+00:00</time></trkpt><trkpt lat="34.8153798" lon="33.4210818"><ele>97.8</ele><time>2015-05-01T10:34:40.0000000+00:00</time></trkpt><trkpt lat="34.8153949" lon="33.4210173"><ele>98.0</ele><time>2015-05-01T10:34:42.0000000+00:00</time></trkpt><trkpt lat="34.815411" lon="33.4209529"><ele>99.3</ele><time>2015-05-01T10:34:44.0000000+00:00</time></trkpt><trkpt lat="34.8154218" lon="33.4208869"><ele>100.1</ele><time>2015-05-01T10:34:46.0000000+00:00</time></trkpt><trkpt lat="34.8154344" lon="33.4208186"><ele>100.8</ele><time>2015-05-01T10:34:48.0000000+00:00</time></trkpt><trkpt lat="34.8154512" lon="33.4207495"><ele>101.0</ele><time>2015-05-01T10:34:50.0000000+00:00</time></trkpt><trkpt lat="34.8154664" lon="33.4206763"><ele>101.5</ele><time>2015-05-01T10:34:52.0000000+00:00</time></trkpt><trkpt lat="34.8154785" lon="33.4206043"><ele>102.6</ele><time>2015-05-01T10:34:54.0000000+00:00</time></trkpt><trkpt lat="34.815493" lon="33.4205316"><ele>102.9</ele><time>2015-05-01T10:34:56.0000000+00:00</time></trkpt><trkpt lat="34.8155135" lon="33.4204576"><ele>102.7</ele><time>2015-05-01T10:34:58.0000000+00:00</time></trkpt><trkpt lat="34.815533" lon="33.4203832"><ele>102.7</ele><time>2015-05-01T10:35:00.0000000+00:00</time></trkpt><trkpt lat="34.8155474" lon="33.4203051"><ele>103.2</ele><time>2015-05-01T10:35:02.0000000+00:00</time></trkpt><trkpt lat="34.8155611" lon="33.4202242"><ele>104.1</ele><time>2015-05-01T10:35:04.0000000+00:00</time></trkpt><trkpt lat="34.8155794" lon="33.4201441"><ele>104.8</ele><time>2015-05-01T10:35:06.0000000+00:00</time></trkpt><trkpt lat="34.8155988" lon="33.4200573"><ele>105.0</ele><time>2015-05-01T10:35:08.0000000+00:00</time></trkpt><trkpt lat="34.8156207" lon="33.4199635"><ele>104.5</ele><time>2015-05-01T10:35:10.0000000+00:00</time></trkpt><trkpt lat="34.8156425" lon="33.4198754"><ele>105.4</ele><time>2015-05-01T10:35:12.0000000+00:00</time></trkpt><trkpt lat="34.8156643" lon="33.4197958"><ele>104.6</ele><time>2015-05-01T10:35:14.0000000+00:00</time></trkpt><trkpt lat="34.8156803" lon="33.4197202"><ele>104.9</ele><time>2015-05-01T10:35:16.0000000+00:00</time></trkpt><trkpt lat="34.8156941" lon="33.4196503"><ele>105.0</ele><time>2015-05-01T10:35:18.0000000+00:00</time></trkpt><trkpt lat="34.815711" lon="33.419579"><ele>105.5</ele><time>2015-05-01T10:35:20.0000000+00:00</time></trkpt><trkpt lat="34.8157297" lon="33.4195028"><ele>105.6</ele><time>2015-05-01T10:35:22.0000000+00:00</time></trkpt><trkpt lat="34.8157494" lon="33.4194307"><ele>105.9</ele><time>2015-05-01T10:35:24.0000000+00:00</time></trkpt><trkpt lat="34.8157618" lon="33.4193584"><ele>106.7</ele><time>2015-05-01T10:35:26.0000000+00:00</time></trkpt><trkpt lat="34.815776" lon="33.4192821"><ele>107.0</ele><time>2015-05-01T10:35:28.0000000+00:00</time></trkpt><trkpt lat="34.815796" lon="33.4192026"><ele>107.0</ele><time>2015-05-01T10:35:30.0000000+00:00</time></trkpt><trkpt lat="34.8158167" lon="33.4191127"><ele>107.0</ele><time>2015-05-01T10:35:32.0000000+00:00</time></trkpt><trkpt lat="34.8158371" lon="33.4190103"><ele>106.5</ele><time>2015-05-01T10:35:34.0000000+00:00</time></trkpt><trkpt lat="34.8158594" lon="33.4189043"><ele>106.1</ele><time>2015-05-01T10:35:36.0000000+00:00</time></trkpt><trkpt lat="34.8158772" lon="33.4188329"><ele>105.6</ele><time>2015-05-01T10:35:37.0000000+00:00</time></trkpt><trkpt lat="34.8158901" lon="33.4187301"><ele>105.2</ele><time>2015-05-01T10:35:39.0000000+00:00</time></trkpt><trkpt lat="34.815914" lon="33.4186304"><ele>106.3</ele><time>2015-05-01T10:35:41.0000000+00:00</time></trkpt><trkpt lat="34.8159336" lon="33.4185657"><ele>106.7</ele><time>2015-05-01T10:35:42.0000000+00:00</time></trkpt><trkpt lat="34.8159414" lon="33.4185114"><ele>106.8</ele><time>2015-05-01T10:35:43.0000000+00:00</time></trkpt><trkpt lat="34.8159516" lon="33.4184453"><ele>106.4</ele><time>2015-05-01T10:35:44.0000000+00:00</time></trkpt><trkpt lat="34.8159628" lon="33.4183899"><ele>106.7</ele><time>2015-05-01T10:35:45.0000000+00:00</time></trkpt><trkpt lat="34.8159734" lon="33.4183287"><ele>106.9</ele><time>2015-05-01T10:35:46.0000000+00:00</time></trkpt><trkpt lat="34.8159735" lon="33.4182729"><ele>106.9</ele><time>2015-05-01T10:35:47.0000000+00:00</time></trkpt><trkpt lat="34.8159919" lon="33.4181668"><ele>106.3</ele><time>2015-05-01T10:35:49.0000000+00:00</time></trkpt><trkpt lat="34.81602" lon="33.4180757"><ele>105.6</ele><time>2015-05-01T10:35:51.0000000+00:00</time></trkpt><trkpt lat="34.8160435" lon="33.4179662"><ele>104.7</ele><time>2015-05-01T10:35:53.0000000+00:00</time></trkpt><trkpt lat="34.8160596" lon="33.4178648"><ele>104.2</ele><time>2015-05-01T10:35:55.0000000+00:00</time></trkpt><trkpt lat="34.8160747" lon="33.4178061"><ele>104.1</ele><time>2015-05-01T10:35:56.0000000+00:00</time></trkpt><trkpt lat="34.8160964" lon="33.4177071"><ele>104.0</ele><time>2015-05-01T10:35:58.0000000+00:00</time></trkpt><trkpt lat="34.8161023" lon="33.4176523"><ele>104.5</ele><time>2015-05-01T10:35:59.0000000+00:00</time></trkpt><trkpt lat="34.8161331" lon="33.4175621"><ele>105.4</ele><time>2015-05-01T10:36:01.0000000+00:00</time></trkpt><trkpt lat="34.8161488" lon="33.4174881"><ele>107.1</ele><time>2015-05-01T10:36:03.0000000+00:00</time></trkpt><trkpt lat="34.8161705" lon="33.4174234"><ele>107.8</ele><time>2015-05-01T10:36:05.0000000+00:00</time></trkpt><trkpt lat="34.8161878" lon="33.4173682"><ele>108.0</ele><time>2015-05-01T10:36:07.0000000+00:00</time></trkpt><trkpt lat="34.8161993" lon="33.4173108"><ele>107.3</ele><time>2015-05-01T10:36:09.0000000+00:00</time></trkpt><trkpt lat="34.816214" lon="33.4172519"><ele>106.3</ele><time>2015-05-01T10:36:11.0000000+00:00</time></trkpt><trkpt lat="34.8162288" lon="33.417181"><ele>106.1</ele><time>2015-05-01T10:36:13.0000000+00:00</time></trkpt><trkpt lat="34.8162408" lon="33.4171069"><ele>106.3</ele><time>2015-05-01T10:36:15.0000000+00:00</time></trkpt><trkpt lat="34.8162573" lon="33.4170242"><ele>107.6</ele><time>2015-05-01T10:36:17.0000000+00:00</time></trkpt><trkpt lat="34.8162741" lon="33.4169385"><ele>107.9</ele><time>2015-05-01T10:36:19.0000000+00:00</time></trkpt><trkpt lat="34.816293" lon="33.4168469"><ele>108.0</ele><time>2015-05-01T10:36:21.0000000+00:00</time></trkpt><trkpt lat="34.8163058" lon="33.4167524"><ele>108.0</ele><time>2015-05-01T10:36:23.0000000+00:00</time></trkpt><trkpt lat="34.8163204" lon="33.4166602"><ele>108.8</ele><time>2015-05-01T10:36:25.0000000+00:00</time></trkpt><trkpt lat="34.8163346" lon="33.4165749"><ele>109.0</ele><time>2015-05-01T10:36:27.0000000+00:00</time></trkpt><trkpt lat="34.8163428" lon="33.416495"><ele>109.8</ele><time>2015-05-01T10:36:29.0000000+00:00</time></trkpt><trkpt lat="34.8163537" lon="33.4164212"><ele>110.7</ele><time>2015-05-01T10:36:31.0000000+00:00</time></trkpt><trkpt lat="34.8163642" lon="33.4163466"><ele>110.9</ele><time>2015-05-01T10:36:33.0000000+00:00</time></trkpt><trkpt lat="34.8163798" lon="33.4162745"><ele>111.3</ele><time>2015-05-01T10:36:35.0000000+00:00</time></trkpt><trkpt lat="34.816398" lon="33.416198"><ele>111.1</ele><time>2015-05-01T10:36:37.0000000+00:00</time></trkpt><trkpt lat="34.8164112" lon="33.4161189"><ele>111.0</ele><time>2015-05-01T10:36:39.0000000+00:00</time></trkpt><trkpt lat="34.8164225" lon="33.4160348"><ele>110.5</ele><time>2015-05-01T10:36:41.0000000+00:00</time></trkpt><trkpt lat="34.8164335" lon="33.415955"><ele>110.1</ele><time>2015-05-01T10:36:43.0000000+00:00</time></trkpt><trkpt lat="34.816446" lon="33.4158712"><ele>110.1</ele><time>2015-05-01T10:36:45.0000000+00:00</time></trkpt><trkpt lat="34.8164578" lon="33.4157871"><ele>110.5</ele><time>2015-05-01T10:36:47.0000000+00:00</time></trkpt><trkpt lat="34.8164685" lon="33.4156971"><ele>110.1</ele><time>2015-05-01T10:36:49.0000000+00:00</time></trkpt><trkpt lat="34.8164807" lon="33.4156072"><ele>109.3</ele><time>2015-05-01T10:36:51.0000000+00:00</time></trkpt><trkpt lat="34.8164957" lon="33.4155148"><ele>108.8</ele><time>2015-05-01T10:36:53.0000000+00:00</time></trkpt><trkpt lat="34.81651" lon="33.4154254"><ele>107.7</ele><time>2015-05-01T10:36:55.0000000+00:00</time></trkpt><trkpt lat="34.8165217" lon="33.4153316"><ele>107.9</ele><time>2015-05-01T10:36:57.0000000+00:00</time></trkpt><trkpt lat="34.8165337" lon="33.4152412"><ele>108.0</ele><time>2015-05-01T10:36:59.0000000+00:00</time></trkpt><trkpt lat="34.8165428" lon="33.4151477"><ele>108.8</ele><time>2015-05-01T10:37:01.0000000+00:00</time></trkpt><trkpt lat="34.8165531" lon="33.4150557"><ele>109.0</ele><time>2015-05-01T10:37:03.0000000+00:00</time></trkpt><trkpt lat="34.8165664" lon="33.4149614"><ele>109.0</ele><time>2015-05-01T10:37:05.0000000+00:00</time></trkpt><trkpt lat="34.8165806" lon="33.4148716"><ele>109.3</ele><time>2015-05-01T10:37:07.0000000+00:00</time></trkpt><trkpt lat="34.8165954" lon="33.4147826"><ele>109.8</ele><time>2015-05-01T10:37:09.0000000+00:00</time></trkpt><trkpt lat="34.8166078" lon="33.4146918"><ele>108.7</ele><time>2015-05-01T10:37:11.0000000+00:00</time></trkpt><trkpt lat="34.8166201" lon="33.4145983"><ele>107.9</ele><time>2015-05-01T10:37:13.0000000+00:00</time></trkpt><trkpt lat="34.8166336" lon="33.4145083"><ele>107.5</ele><time>2015-05-01T10:37:15.0000000+00:00</time></trkpt><trkpt lat="34.8166461" lon="33.4144151"><ele>107.6</ele><time>2015-05-01T10:37:17.0000000+00:00</time></trkpt><trkpt lat="34.8166572" lon="33.4143273"><ele>107.2</ele><time>2015-05-01T10:37:19.0000000+00:00</time></trkpt><trkpt lat="34.8166721" lon="33.4142338"><ele>107.8</ele><time>2015-05-01T10:37:21.0000000+00:00</time></trkpt><trkpt lat="34.8166864" lon="33.4141432"><ele>108.7</ele><time>2015-05-01T10:37:23.0000000+00:00</time></trkpt><trkpt lat="34.8166944" lon="33.4140503"><ele>108.9</ele><time>2015-05-01T10:37:25.0000000+00:00</time></trkpt><trkpt lat="34.8167024" lon="33.4139569"><ele>108.8</ele><time>2015-05-01T10:37:27.0000000+00:00</time></trkpt><trkpt lat="34.8167154" lon="33.4138593"><ele>109.5</ele><time>2015-05-01T10:37:29.0000000+00:00</time></trkpt><trkpt lat="34.8167248" lon="33.4137624"><ele>110.6</ele><time>2015-05-01T10:37:31.0000000+00:00</time></trkpt><trkpt lat="34.8167401" lon="33.4136617"><ele>110.9</ele><time>2015-05-01T10:37:33.0000000+00:00</time></trkpt><trkpt lat="34.8167548" lon="33.413563"><ele>111.5</ele><time>2015-05-01T10:37:35.0000000+00:00</time></trkpt><trkpt lat="34.8167779" lon="33.4134751"><ele>111.3</ele><time>2015-05-01T10:37:36.0000000+00:00</time></trkpt><trkpt lat="34.81679" lon="33.4133831"><ele>111.3</ele><time>2015-05-01T10:37:38.0000000+00:00</time></trkpt><trkpt lat="34.8167979" lon="33.4132901"><ele>111.1</ele><time>2015-05-01T10:37:40.0000000+00:00</time></trkpt><trkpt lat="34.8168042" lon="33.4132144"><ele>111.8</ele><time>2015-05-01T10:37:42.0000000+00:00</time></trkpt><trkpt lat="34.8168029" lon="33.4131383"><ele>112.5</ele><time>2015-05-01T10:37:44.0000000+00:00</time></trkpt><trkpt lat="34.8168228" lon="33.4130649"><ele>112.9</ele><time>2015-05-01T10:37:46.0000000+00:00</time></trkpt><trkpt lat="34.8168348" lon="33.412981"><ele>113.7</ele><time>2015-05-01T10:37:48.0000000+00:00</time></trkpt><trkpt lat="34.8168456" lon="33.4128928"><ele>114.7</ele><time>2015-05-01T10:37:50.0000000+00:00</time></trkpt><trkpt lat="34.8168515" lon="33.4128032"><ele>115.7</ele><time>2015-05-01T10:37:52.0000000+00:00</time></trkpt><trkpt lat="34.8168624" lon="33.412719"><ele>115.9</ele><time>2015-05-01T10:37:54.0000000+00:00</time></trkpt><trkpt lat="34.8168699" lon="33.412643"><ele>116.0</ele><time>2015-05-01T10:37:56.0000000+00:00</time></trkpt><trkpt lat="34.8168753" lon="33.4125662"><ele>115.8</ele><time>2015-05-01T10:37:58.0000000+00:00</time></trkpt><trkpt lat="34.8168818" lon="33.4124902"><ele>117.0</ele><time>2015-05-01T10:38:00.0000000+00:00</time></trkpt><trkpt lat="34.8168902" lon="33.4124119"><ele>117.3</ele><time>2015-05-01T10:38:02.0000000+00:00</time></trkpt><trkpt lat="34.816904" lon="33.4123238"><ele>117.1</ele><time>2015-05-01T10:38:04.0000000+00:00</time></trkpt><trkpt lat="34.8169164" lon="33.4122318"><ele>118.3</ele><time>2015-05-01T10:38:06.0000000+00:00</time></trkpt><trkpt lat="34.8169281" lon="33.4121373"><ele>118.3</ele><time>2015-05-01T10:38:08.0000000+00:00</time></trkpt><trkpt lat="34.8169405" lon="33.4120422"><ele>118.9</ele><time>2015-05-01T10:38:10.0000000+00:00</time></trkpt><trkpt lat="34.8169554" lon="33.4119512"><ele>119.0</ele><time>2015-05-01T10:38:12.0000000+00:00</time></trkpt><trkpt lat="34.816972" lon="33.4118658"><ele>119.8</ele><time>2015-05-01T10:38:14.0000000+00:00</time></trkpt><trkpt lat="34.8169948" lon="33.4117777"><ele>119.2</ele><time>2015-05-01T10:38:16.0000000+00:00</time></trkpt><trkpt lat="34.8170186" lon="33.4116922"><ele>119.1</ele><time>2015-05-01T10:38:18.0000000+00:00</time></trkpt><trkpt lat="34.8170478" lon="33.411606"><ele>119.3</ele><time>2015-05-01T10:38:20.0000000+00:00</time></trkpt><trkpt lat="34.8170825" lon="33.4115203"><ele>120.6</ele><time>2015-05-01T10:38:22.0000000+00:00</time></trkpt><trkpt lat="34.8171171" lon="33.4114322"><ele>121.4</ele><time>2015-05-01T10:38:24.0000000+00:00</time></trkpt><trkpt lat="34.817154" lon="33.4113503"><ele>122.4</ele><time>2015-05-01T10:38:26.0000000+00:00</time></trkpt><trkpt lat="34.8171948" lon="33.4112818"><ele>123.1</ele><time>2015-05-01T10:38:28.0000000+00:00</time></trkpt><trkpt lat="34.8172288" lon="33.4112252"><ele>123.0</ele><time>2015-05-01T10:38:30.0000000+00:00</time></trkpt><trkpt lat="34.8172635" lon="33.4111645"><ele>123.8</ele><time>2015-05-01T10:38:33.0000000+00:00</time></trkpt><trkpt lat="34.8172858" lon="33.4110923"><ele>123.6</ele><time>2015-05-01T10:38:36.0000000+00:00</time></trkpt><trkpt lat="34.8173106" lon="33.4110393"><ele>123.7</ele><time>2015-05-01T10:38:38.0000000+00:00</time></trkpt><trkpt lat="34.8173442" lon="33.4109816"><ele>123.2</ele><time>2015-05-01T10:38:40.0000000+00:00</time></trkpt><trkpt lat="34.817381" lon="33.4109192"><ele>122.3</ele><time>2015-05-01T10:38:42.0000000+00:00</time></trkpt><trkpt lat="34.8174148" lon="33.4108486"><ele>121.6</ele><time>2015-05-01T10:38:44.0000000+00:00</time></trkpt><trkpt lat="34.8174491" lon="33.4107746"><ele>120.7</ele><time>2015-05-01T10:38:46.0000000+00:00</time></trkpt><trkpt lat="34.8174886" lon="33.4107054"><ele>120.9</ele><time>2015-05-01T10:38:48.0000000+00:00</time></trkpt><trkpt lat="34.8175306" lon="33.4106404"><ele>120.2</ele><time>2015-05-01T10:38:50.0000000+00:00</time></trkpt><trkpt lat="34.8175719" lon="33.4105691"><ele>120.8</ele><time>2015-05-01T10:38:52.0000000+00:00</time></trkpt><trkpt lat="34.8176147" lon="33.4104949"><ele>120.5</ele><time>2015-05-01T10:38:54.0000000+00:00</time></trkpt><trkpt lat="34.8176532" lon="33.4104167"><ele>120.6</ele><time>2015-05-01T10:38:56.0000000+00:00</time></trkpt><trkpt lat="34.8176929" lon="33.4103356"><ele>120.9</ele><time>2015-05-01T10:38:58.0000000+00:00</time></trkpt><trkpt lat="34.8177357" lon="33.4102566"><ele>121.0</ele><time>2015-05-01T10:39:00.0000000+00:00</time></trkpt><trkpt lat="34.8177798" lon="33.4101785"><ele>121.8</ele><time>2015-05-01T10:39:02.0000000+00:00</time></trkpt><trkpt lat="34.8178252" lon="33.410097"><ele>122.0</ele><time>2015-05-01T10:39:04.0000000+00:00</time></trkpt><trkpt lat="34.8178692" lon="33.4100125"><ele>122.0</ele><time>2015-05-01T10:39:06.0000000+00:00</time></trkpt><trkpt lat="34.8179164" lon="33.4099277"><ele>122.0</ele><time>2015-05-01T10:39:08.0000000+00:00</time></trkpt><trkpt lat="34.8179674" lon="33.4098423"><ele>122.0</ele><time>2015-05-01T10:39:10.0000000+00:00</time></trkpt><trkpt lat="34.8180191" lon="33.4097556"><ele>122.5</ele><time>2015-05-01T10:39:12.0000000+00:00</time></trkpt><trkpt lat="34.8180666" lon="33.4096704"><ele>122.6</ele><time>2015-05-01T10:39:14.0000000+00:00</time></trkpt><trkpt lat="34.81811" lon="33.4095835"><ele>123.7</ele><time>2015-05-01T10:39:16.0000000+00:00</time></trkpt><trkpt lat="34.8181518" lon="33.409501"><ele>124.4</ele><time>2015-05-01T10:39:18.0000000+00:00</time></trkpt><trkpt lat="34.8181962" lon="33.4094279"><ele>124.9</ele><time>2015-05-01T10:39:20.0000000+00:00</time></trkpt><trkpt lat="34.8182358" lon="33.4093586"><ele>125.0</ele><time>2015-05-01T10:39:22.0000000+00:00</time></trkpt><trkpt lat="34.8182698" lon="33.4092953"><ele>124.5</ele><time>2015-05-01T10:39:24.0000000+00:00</time></trkpt><trkpt lat="34.8183061" lon="33.4092364"><ele>124.1</ele><time>2015-05-01T10:39:26.0000000+00:00</time></trkpt><trkpt lat="34.8183366" lon="33.409173"><ele>124.1</ele><time>2015-05-01T10:39:28.0000000+00:00</time></trkpt><trkpt lat="34.8183683" lon="33.4091081"><ele>124.0</ele><time>2015-05-01T10:39:30.0000000+00:00</time></trkpt><trkpt lat="34.8184035" lon="33.4090431"><ele>123.5</ele><time>2015-05-01T10:39:32.0000000+00:00</time></trkpt><trkpt lat="34.8184334" lon="33.4089694"><ele>123.1</ele><time>2015-05-01T10:39:34.0000000+00:00</time></trkpt><trkpt lat="34.8184669" lon="33.408897"><ele>123.1</ele><time>2015-05-01T10:39:36.0000000+00:00</time></trkpt><trkpt lat="34.8185031" lon="33.4088287"><ele>123.0</ele><time>2015-05-01T10:39:38.0000000+00:00</time></trkpt><trkpt lat="34.8185349" lon="33.4087534"><ele>122.5</ele><time>2015-05-01T10:39:40.0000000+00:00</time></trkpt><trkpt lat="34.8185597" lon="33.4086678"><ele>122.9</ele><time>2015-05-01T10:39:42.0000000+00:00</time></trkpt><trkpt lat="34.8185808" lon="33.4085816"><ele>123.5</ele><time>2015-05-01T10:39:44.0000000+00:00</time></trkpt><trkpt lat="34.8185988" lon="33.4084953"><ele>123.9</ele><time>2015-05-01T10:39:46.0000000+00:00</time></trkpt><trkpt lat="34.8186118" lon="33.4084148"><ele>124.7</ele><time>2015-05-01T10:39:48.0000000+00:00</time></trkpt><trkpt lat="34.8186203" lon="33.4083343"><ele>124.5</ele><time>2015-05-01T10:39:50.0000000+00:00</time></trkpt><trkpt lat="34.8186313" lon="33.4082474"><ele>124.1</ele><time>2015-05-01T10:39:52.0000000+00:00</time></trkpt><trkpt lat="34.818642" lon="33.4081578"><ele>124.0</ele><time>2015-05-01T10:39:54.0000000+00:00</time></trkpt><trkpt lat="34.8186524" lon="33.4080749"><ele>124.0</ele><time>2015-05-01T10:39:56.0000000+00:00</time></trkpt><trkpt lat="34.8186593" lon="33.4080011"><ele>123.3</ele><time>2015-05-01T10:39:58.0000000+00:00</time></trkpt><trkpt lat="34.8186616" lon="33.4079405"><ele>123.8</ele><time>2015-05-01T10:40:00.0000000+00:00</time></trkpt><trkpt lat="34.8186692" lon="33.4078765"><ele>123.5</ele><time>2015-05-01T10:40:02.0000000+00:00</time></trkpt><trkpt lat="34.8186819" lon="33.4078028"><ele>123.1</ele><time>2015-05-01T10:40:04.0000000+00:00</time></trkpt><trkpt lat="34.8186952" lon="33.4077233"><ele>123.0</ele><time>2015-05-01T10:40:06.0000000+00:00</time></trkpt><trkpt lat="34.8187044" lon="33.407637"><ele>123.8</ele><time>2015-05-01T10:40:08.0000000+00:00</time></trkpt><trkpt lat="34.8187131" lon="33.4075458"><ele>124.5</ele><time>2015-05-01T10:40:10.0000000+00:00</time></trkpt><trkpt lat="34.8187237" lon="33.4074494"><ele>124.9</ele><time>2015-05-01T10:40:12.0000000+00:00</time></trkpt><trkpt lat="34.8187365" lon="33.4073516"><ele>124.5</ele><time>2015-05-01T10:40:14.0000000+00:00</time></trkpt><trkpt lat="34.8187524" lon="33.4072512"><ele>123.4</ele><time>2015-05-01T10:40:16.0000000+00:00</time></trkpt><trkpt lat="34.8187666" lon="33.4071484"><ele>123.6</ele><time>2015-05-01T10:40:18.0000000+00:00</time></trkpt><trkpt lat="34.8187768" lon="33.4070481"><ele>123.9</ele><time>2015-05-01T10:40:20.0000000+00:00</time></trkpt><trkpt lat="34.8187898" lon="33.4069563"><ele>123.2</ele><time>2015-05-01T10:40:22.0000000+00:00</time></trkpt><trkpt lat="34.8187982" lon="33.4068694"><ele>123.1</ele><time>2015-05-01T10:40:24.0000000+00:00</time></trkpt><trkpt lat="34.8188095" lon="33.4067946"><ele>123.0</ele><time>2015-05-01T10:40:26.0000000+00:00</time></trkpt><trkpt lat="34.8188338" lon="33.4067236"><ele>123.9</ele><time>2015-05-01T10:40:29.0000000+00:00</time></trkpt><trkpt lat="34.8188506" lon="33.4066571"><ele>125.0</ele><time>2015-05-01T10:40:33.0000000+00:00</time></trkpt><trkpt lat="34.8188614" lon="33.4065823"><ele>125.0</ele><time>2015-05-01T10:40:36.0000000+00:00</time></trkpt><trkpt lat="34.8188701" lon="33.4065209"><ele>125.5</ele><time>2015-05-01T10:40:38.0000000+00:00</time></trkpt><trkpt lat="34.8188865" lon="33.4064506"><ele>125.1</ele><time>2015-05-01T10:40:40.0000000+00:00</time></trkpt><trkpt lat="34.8189054" lon="33.4063677"><ele>126.3</ele><time>2015-05-01T10:40:42.0000000+00:00</time></trkpt><trkpt lat="34.8189181" lon="33.4062753"><ele>125.8</ele><time>2015-05-01T10:40:44.0000000+00:00</time></trkpt><trkpt lat="34.8189338" lon="33.4061788"><ele>125.2</ele><time>2015-05-01T10:40:46.0000000+00:00</time></trkpt><trkpt lat="34.818952" lon="33.4060787"><ele>125.6</ele><time>2015-05-01T10:40:48.0000000+00:00</time></trkpt><trkpt lat="34.8189799" lon="33.4059492"><ele>126.4</ele><time>2015-05-01T10:40:50.0000000+00:00</time></trkpt><trkpt lat="34.8189876" lon="33.4058899"><ele>127.2</ele><time>2015-05-01T10:40:51.0000000+00:00</time></trkpt><trkpt lat="34.8190117" lon="33.4058384"><ele>128.1</ele><time>2015-05-01T10:40:52.0000000+00:00</time></trkpt><trkpt lat="34.8190293" lon="33.4057766"><ele>128.6</ele><time>2015-05-01T10:40:53.0000000+00:00</time></trkpt><trkpt lat="34.8190548" lon="33.4057198"><ele>128.8</ele><time>2015-05-01T10:40:54.0000000+00:00</time></trkpt><trkpt lat="34.8190782" lon="33.4056146"><ele>129.0</ele><time>2015-05-01T10:40:56.0000000+00:00</time></trkpt><trkpt lat="34.8190976" lon="33.4055646"><ele>129.0</ele><time>2015-05-01T10:40:57.0000000+00:00</time></trkpt><trkpt lat="34.8191186" lon="33.4055127"><ele>128.5</ele><time>2015-05-01T10:40:58.0000000+00:00</time></trkpt><trkpt lat="34.8191318" lon="33.4054576"><ele>128.3</ele><time>2015-05-01T10:40:59.0000000+00:00</time></trkpt><trkpt lat="34.8191523" lon="33.4053695"><ele>128.3</ele><time>2015-05-01T10:41:01.0000000+00:00</time></trkpt><trkpt lat="34.8191744" lon="33.4052809"><ele>128.1</ele><time>2015-05-01T10:41:03.0000000+00:00</time></trkpt><trkpt lat="34.8192037" lon="33.4051961"><ele>128.0</ele><time>2015-05-01T10:41:05.0000000+00:00</time></trkpt><trkpt lat="34.8192339" lon="33.405107"><ele>128.0</ele><time>2015-05-01T10:41:07.0000000+00:00</time></trkpt><trkpt lat="34.8192687" lon="33.4050207"><ele>127.5</ele><time>2015-05-01T10:41:09.0000000+00:00</time></trkpt><trkpt lat="34.8192991" lon="33.4049318"><ele>127.1</ele><time>2015-05-01T10:41:11.0000000+00:00</time></trkpt><trkpt lat="34.8193309" lon="33.4048362"><ele>127.6</ele><time>2015-05-01T10:41:13.0000000+00:00</time></trkpt><trkpt lat="34.8193578" lon="33.40474"><ele>127.9</ele><time>2015-05-01T10:41:15.0000000+00:00</time></trkpt><trkpt lat="34.8193807" lon="33.404637"><ele>128.5</ele><time>2015-05-01T10:41:17.0000000+00:00</time></trkpt><trkpt lat="34.8194084" lon="33.4045203"><ele>129.6</ele><time>2015-05-01T10:41:19.0000000+00:00</time></trkpt><trkpt lat="34.8194264" lon="33.4044668"><ele>129.8</ele><time>2015-05-01T10:41:20.0000000+00:00</time></trkpt><trkpt lat="34.8194635" lon="33.4043696"><ele>130.0</ele><time>2015-05-01T10:41:22.0000000+00:00</time></trkpt><trkpt lat="34.819492" lon="33.4042659"><ele>130.5</ele><time>2015-05-01T10:41:24.0000000+00:00</time></trkpt><trkpt lat="34.8195233" lon="33.4041711"><ele>130.4</ele><time>2015-05-01T10:41:26.0000000+00:00</time></trkpt><trkpt lat="34.819547" lon="33.4040917"><ele>130.1</ele><time>2015-05-01T10:41:28.0000000+00:00</time></trkpt><trkpt lat="34.8195661" lon="33.4040211"><ele>130.5</ele><time>2015-05-01T10:41:30.0000000+00:00</time></trkpt><trkpt lat="34.8195824" lon="33.4039543"><ele>130.9</ele><time>2015-05-01T10:41:32.0000000+00:00</time></trkpt><trkpt lat="34.8196025" lon="33.4038881"><ele>131.0</ele><time>2015-05-01T10:41:34.0000000+00:00</time></trkpt><trkpt lat="34.8196254" lon="33.4038175"><ele>130.8</ele><time>2015-05-01T10:41:36.0000000+00:00</time></trkpt><trkpt lat="34.819647" lon="33.4037408"><ele>132.0</ele><time>2015-05-01T10:41:38.0000000+00:00</time></trkpt><trkpt lat="34.8196697" lon="33.4036533"><ele>132.0</ele><time>2015-05-01T10:41:40.0000000+00:00</time></trkpt><trkpt lat="34.8196976" lon="33.4035557"><ele>132.0</ele><time>2015-05-01T10:41:42.0000000+00:00</time></trkpt><trkpt lat="34.8197288" lon="33.4034565"><ele>132.0</ele><time>2015-05-01T10:41:44.0000000+00:00</time></trkpt><trkpt lat="34.819761" lon="33.4033649"><ele>132.5</ele><time>2015-05-01T10:41:46.0000000+00:00</time></trkpt><trkpt lat="34.8197912" lon="33.4032823"><ele>131.6</ele><time>2015-05-01T10:41:48.0000000+00:00</time></trkpt><trkpt lat="34.819813" lon="33.403206"><ele>131.4</ele><time>2015-05-01T10:41:50.0000000+00:00</time></trkpt><trkpt lat="34.8198326" lon="33.403127"><ele>131.1</ele><time>2015-05-01T10:41:52.0000000+00:00</time></trkpt><trkpt lat="34.8198587" lon="33.4030459"><ele>131.0</ele><time>2015-05-01T10:41:54.0000000+00:00</time></trkpt><trkpt lat="34.8198878" lon="33.4029622"><ele>131.0</ele><time>2015-05-01T10:41:56.0000000+00:00</time></trkpt><trkpt lat="34.8199162" lon="33.402875"><ele>131.0</ele><time>2015-05-01T10:41:58.0000000+00:00</time></trkpt><trkpt lat="34.819942" lon="33.4027872"><ele>130.5</ele><time>2015-05-01T10:42:00.0000000+00:00</time></trkpt><trkpt lat="34.8199667" lon="33.402706"><ele>130.4</ele><time>2015-05-01T10:42:02.0000000+00:00</time></trkpt><trkpt lat="34.8199876" lon="33.4026314"><ele>130.1</ele><time>2015-05-01T10:42:04.0000000+00:00</time></trkpt><trkpt lat="34.8200049" lon="33.4025575"><ele>130.0</ele><time>2015-05-01T10:42:06.0000000+00:00</time></trkpt><trkpt lat="34.8200348" lon="33.4024846"><ele>129.8</ele><time>2015-05-01T10:42:08.0000000+00:00</time></trkpt><trkpt lat="34.8200663" lon="33.4024159"><ele>130.5</ele><time>2015-05-01T10:42:10.0000000+00:00</time></trkpt><trkpt lat="34.8200971" lon="33.4023437"><ele>130.9</ele><time>2015-05-01T10:42:12.0000000+00:00</time></trkpt><trkpt lat="34.8201238" lon="33.4022666"><ele>132.2</ele><time>2015-05-01T10:42:14.0000000+00:00</time></trkpt><trkpt lat="34.8201495" lon="33.4021857"><ele>131.6</ele><time>2015-05-01T10:42:16.0000000+00:00</time></trkpt><trkpt lat="34.8201721" lon="33.4021053"><ele>132.7</ele><time>2015-05-01T10:42:18.0000000+00:00</time></trkpt><trkpt lat="34.8201886" lon="33.402029"><ele>133.7</ele><time>2015-05-01T10:42:20.0000000+00:00</time></trkpt><trkpt lat="34.820213" lon="33.4019588"><ele>133.9</ele><time>2015-05-01T10:42:22.0000000+00:00</time></trkpt><trkpt lat="34.8202387" lon="33.401895"><ele>134.0</ele><time>2015-05-01T10:42:24.0000000+00:00</time></trkpt><trkpt lat="34.8202644" lon="33.4018342"><ele>133.3</ele><time>2015-05-01T10:42:26.0000000+00:00</time></trkpt><trkpt lat="34.8202871" lon="33.4017703"><ele>133.6</ele><time>2015-05-01T10:42:28.0000000+00:00</time></trkpt><trkpt lat="34.8203102" lon="33.4017007"><ele>133.4</ele><time>2015-05-01T10:42:30.0000000+00:00</time></trkpt><trkpt lat="34.8203356" lon="33.4016275"><ele>133.1</ele><time>2015-05-01T10:42:32.0000000+00:00</time></trkpt><trkpt lat="34.8203609" lon="33.4015487"><ele>134.3</ele><time>2015-05-01T10:42:34.0000000+00:00</time></trkpt><trkpt lat="34.8203921" lon="33.4014681"><ele>134.8</ele><time>2015-05-01T10:42:36.0000000+00:00</time></trkpt><trkpt lat="34.8204279" lon="33.4013906"><ele>135.0</ele><time>2015-05-01T10:42:38.0000000+00:00</time></trkpt><trkpt lat="34.820468" lon="33.4013171"><ele>135.8</ele><time>2015-05-01T10:42:40.0000000+00:00</time></trkpt><trkpt lat="34.8205096" lon="33.4012446"><ele>135.2</ele><time>2015-05-01T10:42:42.0000000+00:00</time></trkpt><trkpt lat="34.8205496" lon="33.4011715"><ele>135.6</ele><time>2015-05-01T10:42:44.0000000+00:00</time></trkpt><trkpt lat="34.8205949" lon="33.4011037"><ele>135.4</ele><time>2015-05-01T10:42:46.0000000+00:00</time></trkpt><trkpt lat="34.8206392" lon="33.4010362"><ele>134.6</ele><time>2015-05-01T10:42:48.0000000+00:00</time></trkpt><trkpt lat="34.8206792" lon="33.4009717"><ele>134.9</ele><time>2015-05-01T10:42:50.0000000+00:00</time></trkpt><trkpt lat="34.8207237" lon="33.4009122"><ele>135.0</ele><time>2015-05-01T10:42:52.0000000+00:00</time></trkpt><trkpt lat="34.8207703" lon="33.4008534"><ele>135.5</ele><time>2015-05-01T10:42:54.0000000+00:00</time></trkpt><trkpt lat="34.8208132" lon="33.4007924"><ele>135.9</ele><time>2015-05-01T10:42:56.0000000+00:00</time></trkpt><trkpt lat="34.8208586" lon="33.4007308"><ele>136.0</ele><time>2015-05-01T10:42:58.0000000+00:00</time></trkpt><trkpt lat="34.8209037" lon="33.4006702"><ele>135.3</ele><time>2015-05-01T10:43:00.0000000+00:00</time></trkpt><trkpt lat="34.8209501" lon="33.400612"><ele>135.6</ele><time>2015-05-01T10:43:02.0000000+00:00</time></trkpt><trkpt lat="34.8209953" lon="33.4005494"><ele>135.9</ele><time>2015-05-01T10:43:04.0000000+00:00</time></trkpt><trkpt lat="34.821042" lon="33.4004891"><ele>136.0</ele><time>2015-05-01T10:43:06.0000000+00:00</time></trkpt><trkpt lat="34.8210886" lon="33.4004307"><ele>135.8</ele><time>2015-05-01T10:43:08.0000000+00:00</time></trkpt><trkpt lat="34.8211307" lon="33.4003703"><ele>136.0</ele><time>2015-05-01T10:43:10.0000000+00:00</time></trkpt><trkpt lat="34.8211767" lon="33.4003073"><ele>135.8</ele><time>2015-05-01T10:43:12.0000000+00:00</time></trkpt><trkpt lat="34.8212242" lon="33.4002449"><ele>136.5</ele><time>2015-05-01T10:43:14.0000000+00:00</time></trkpt><trkpt lat="34.8212734" lon="33.4001816"><ele>136.6</ele><time>2015-05-01T10:43:16.0000000+00:00</time></trkpt><trkpt lat="34.8213234" lon="33.4001149"><ele>137.7</ele><time>2015-05-01T10:43:18.0000000+00:00</time></trkpt><trkpt lat="34.8213743" lon="33.4000414"><ele>137.4</ele><time>2015-05-01T10:43:20.0000000+00:00</time></trkpt><trkpt lat="34.821422" lon="33.3999657"><ele>137.1</ele><time>2015-05-01T10:43:22.0000000+00:00</time></trkpt><trkpt lat="34.8214723" lon="33.3998891"><ele>137.0</ele><time>2015-05-01T10:43:24.0000000+00:00</time></trkpt><trkpt lat="34.8215272" lon="33.3998113"><ele>137.8</ele><time>2015-05-01T10:43:26.0000000+00:00</time></trkpt><trkpt lat="34.8215833" lon="33.3997324"><ele>138.2</ele><time>2015-05-01T10:43:28.0000000+00:00</time></trkpt><trkpt lat="34.8216398" lon="33.3996632"><ele>138.1</ele><time>2015-05-01T10:43:29.0000000+00:00</time></trkpt><trkpt lat="34.8216854" lon="33.3995969"><ele>138.0</ele><time>2015-05-01T10:43:31.0000000+00:00</time></trkpt><trkpt lat="34.8217138" lon="33.3995491"><ele>138.0</ele><time>2015-05-01T10:43:32.0000000+00:00</time></trkpt><trkpt lat="34.8217706" lon="33.3994714"><ele>138.0</ele><time>2015-05-01T10:43:34.0000000+00:00</time></trkpt><trkpt lat="34.8218259" lon="33.3993919"><ele>138.0</ele><time>2015-05-01T10:43:36.0000000+00:00</time></trkpt><trkpt lat="34.8218784" lon="33.3993076"><ele>138.0</ele><time>2015-05-01T10:43:38.0000000+00:00</time></trkpt><trkpt lat="34.8219345" lon="33.3992334"><ele>138.5</ele><time>2015-05-01T10:43:40.0000000+00:00</time></trkpt><trkpt lat="34.8219902" lon="33.3991617"><ele>139.6</ele><time>2015-05-01T10:43:42.0000000+00:00</time></trkpt><trkpt lat="34.8220388" lon="33.3990963"><ele>139.4</ele><time>2015-05-01T10:43:44.0000000+00:00</time></trkpt><trkpt lat="34.8220826" lon="33.3990484"><ele>139.9</ele><time>2015-05-01T10:43:46.0000000+00:00</time></trkpt><trkpt lat="34.822117" lon="33.3990111"><ele>139.5</ele><time>2015-05-01T10:43:48.0000000+00:00</time></trkpt><trkpt lat="34.8221507" lon="33.3989688"><ele>139.1</ele><time>2015-05-01T10:43:50.0000000+00:00</time></trkpt><trkpt lat="34.8221894" lon="33.3989232"><ele>139.8</ele><time>2015-05-01T10:43:52.0000000+00:00</time></trkpt><trkpt lat="34.822229" lon="33.398871"><ele>140.0</ele><time>2015-05-01T10:43:54.0000000+00:00</time></trkpt><trkpt lat="34.8222712" lon="33.3988164"><ele>140.8</ele><time>2015-05-01T10:43:56.0000000+00:00</time></trkpt><trkpt lat="34.8223124" lon="33.3987567"><ele>141.5</ele><time>2015-05-01T10:43:58.0000000+00:00</time></trkpt><trkpt lat="34.8223633" lon="33.398698"><ele>141.9</ele><time>2015-05-01T10:44:00.0000000+00:00</time></trkpt><trkpt lat="34.8224168" lon="33.3986395"><ele>142.5</ele><time>2015-05-01T10:44:02.0000000+00:00</time></trkpt><trkpt lat="34.8224724" lon="33.3985802"><ele>142.9</ele><time>2015-05-01T10:44:04.0000000+00:00</time></trkpt><trkpt lat="34.822525" lon="33.3985199"><ele>143.5</ele><time>2015-05-01T10:44:06.0000000+00:00</time></trkpt><trkpt lat="34.8225802" lon="33.3984578"><ele>143.1</ele><time>2015-05-01T10:44:08.0000000+00:00</time></trkpt><trkpt lat="34.8226373" lon="33.3983954"><ele>142.8</ele><time>2015-05-01T10:44:10.0000000+00:00</time></trkpt><trkpt lat="34.8226951" lon="33.3983296"><ele>142.2</ele><time>2015-05-01T10:44:12.0000000+00:00</time></trkpt><trkpt lat="34.8227526" lon="33.398262"><ele>142.8</ele><time>2015-05-01T10:44:14.0000000+00:00</time></trkpt><trkpt lat="34.822812" lon="33.3981978"><ele>143.7</ele><time>2015-05-01T10:44:16.0000000+00:00</time></trkpt><trkpt lat="34.8228717" lon="33.398133"><ele>143.9</ele><time>2015-05-01T10:44:18.0000000+00:00</time></trkpt><trkpt lat="34.8229298" lon="33.3980675"><ele>144.5</ele><time>2015-05-01T10:44:20.0000000+00:00</time></trkpt><trkpt lat="34.8229876" lon="33.3979986"><ele>144.9</ele><time>2015-05-01T10:44:22.0000000+00:00</time></trkpt><trkpt lat="34.8230453" lon="33.3979282"><ele>145.0</ele><time>2015-05-01T10:44:24.0000000+00:00</time></trkpt><trkpt lat="34.8231021" lon="33.3978648"><ele>144.5</ele><time>2015-05-01T10:44:26.0000000+00:00</time></trkpt><trkpt lat="34.823153" lon="33.3978083"><ele>144.9</ele><time>2015-05-01T10:44:28.0000000+00:00</time></trkpt><trkpt lat="34.8232028" lon="33.3977488"><ele>145.0</ele><time>2015-05-01T10:44:30.0000000+00:00</time></trkpt><trkpt lat="34.8232529" lon="33.3976895"><ele>146.3</ele><time>2015-05-01T10:44:32.0000000+00:00</time></trkpt><trkpt lat="34.823308" lon="33.3976276"><ele>146.6</ele><time>2015-05-01T10:44:34.0000000+00:00</time></trkpt><trkpt lat="34.8233643" lon="33.3975612"><ele>146.7</ele><time>2015-05-01T10:44:36.0000000+00:00</time></trkpt><trkpt lat="34.8234205" lon="33.3974957"><ele>146.2</ele><time>2015-05-01T10:44:38.0000000+00:00</time></trkpt><trkpt lat="34.8234746" lon="33.3974328"><ele>146.8</ele><time>2015-05-01T10:44:40.0000000+00:00</time></trkpt><trkpt lat="34.823528" lon="33.3973722"><ele>147.0</ele><time>2015-05-01T10:44:42.0000000+00:00</time></trkpt><trkpt lat="34.823579" lon="33.3973142"><ele>147.8</ele><time>2015-05-01T10:44:44.0000000+00:00</time></trkpt><trkpt lat="34.8236299" lon="33.3972527"><ele>147.7</ele><time>2015-05-01T10:44:46.0000000+00:00</time></trkpt><trkpt lat="34.823685" lon="33.3971906"><ele>147.2</ele><time>2015-05-01T10:44:48.0000000+00:00</time></trkpt><trkpt lat="34.8237397" lon="33.397127"><ele>147.6</ele><time>2015-05-01T10:44:50.0000000+00:00</time></trkpt><trkpt lat="34.8237921" lon="33.3970626"><ele>148.4</ele><time>2015-05-01T10:44:52.0000000+00:00</time></trkpt><trkpt lat="34.8238479" lon="33.3969952"><ele>148.9</ele><time>2015-05-01T10:44:54.0000000+00:00</time></trkpt><trkpt lat="34.8238908" lon="33.3969456"><ele>148.9</ele><time>2015-05-01T10:44:55.0000000+00:00</time></trkpt><trkpt lat="34.8239564" lon="33.3968743"><ele>149.0</ele><time>2015-05-01T10:44:57.0000000+00:00</time></trkpt><trkpt lat="34.8240177" lon="33.3968089"><ele>149.0</ele><time>2015-05-01T10:44:59.0000000+00:00</time></trkpt><trkpt lat="34.8240492" lon="33.3967658"><ele>149.0</ele><time>2015-05-01T10:45:00.0000000+00:00</time></trkpt><trkpt lat="34.8240998" lon="33.3967042"><ele>149.0</ele><time>2015-05-01T10:45:02.0000000+00:00</time></trkpt><trkpt lat="34.8241611" lon="33.3966297"><ele>149.5</ele><time>2015-05-01T10:45:04.0000000+00:00</time></trkpt><trkpt lat="34.8241932" lon="33.3965899"><ele>149.8</ele><time>2015-05-01T10:45:05.0000000+00:00</time></trkpt><trkpt lat="34.8242299" lon="33.396553"><ele>149.9</ele><time>2015-05-01T10:45:06.0000000+00:00</time></trkpt><trkpt lat="34.8242655" lon="33.3965099"><ele>149.5</ele><time>2015-05-01T10:45:07.0000000+00:00</time></trkpt><trkpt lat="34.8242982" lon="33.3964638"><ele>149.2</ele><time>2015-05-01T10:45:08.0000000+00:00</time></trkpt><trkpt lat="34.8243402" lon="33.3964332"><ele>149.1</ele><time>2015-05-01T10:45:09.0000000+00:00</time></trkpt><trkpt lat="34.8243873" lon="33.3963642"><ele>149.0</ele><time>2015-05-01T10:45:11.0000000+00:00</time></trkpt><trkpt lat="34.8244347" lon="33.3962911"><ele>148.3</ele><time>2015-05-01T10:45:13.0000000+00:00</time></trkpt><trkpt lat="34.8244755" lon="33.3962324"><ele>148.1</ele><time>2015-05-01T10:45:15.0000000+00:00</time></trkpt><trkpt lat="34.8245079" lon="33.3961817"><ele>147.5</ele><time>2015-05-01T10:45:17.0000000+00:00</time></trkpt><trkpt lat="34.8245486" lon="33.3961276"><ele>147.2</ele><time>2015-05-01T10:45:19.0000000+00:00</time></trkpt><trkpt lat="34.8245875" lon="33.3960626"><ele>147.1</ele><time>2015-05-01T10:45:21.0000000+00:00</time></trkpt><trkpt lat="34.8246284" lon="33.3959975"><ele>147.0</ele><time>2015-05-01T10:45:23.0000000+00:00</time></trkpt><trkpt lat="34.8246753" lon="33.3959254"><ele>147.8</ele><time>2015-05-01T10:45:25.0000000+00:00</time></trkpt><trkpt lat="34.8247244" lon="33.3958525"><ele>148.7</ele><time>2015-05-01T10:45:27.0000000+00:00</time></trkpt><trkpt lat="34.8247751" lon="33.3957771"><ele>148.9</ele><time>2015-05-01T10:45:29.0000000+00:00</time></trkpt><trkpt lat="34.8248082" lon="33.395704"><ele>150.3</ele><time>2015-05-01T10:45:31.0000000+00:00</time></trkpt><trkpt lat="34.8248193" lon="33.39564"><ele>150.8</ele><time>2015-05-01T10:45:33.0000000+00:00</time></trkpt><trkpt lat="34.8247892" lon="33.3955767"><ele>151.5</ele><time>2015-05-01T10:46:18.0000000+00:00</time></trkpt><trkpt lat="34.8256663" lon="33.3908565"><ele>167.0</ele><time>2015-05-01T10:49:45.0000000+00:00</time></trkpt><trkpt lat="34.8256726" lon="33.3908307"><ele>168.0</ele><time>2015-05-01T10:53:35.0000000+00:00</time></trkpt><trkpt lat="34.8256215" lon="33.3908338"><ele>168.0</ele><time>2015-05-01T10:53:56.0000000+00:00</time></trkpt><trkpt lat="34.8255767" lon="33.3908481"><ele>168.0</ele><time>2015-05-01T10:54:00.0000000+00:00</time></trkpt><trkpt lat="34.8255178" lon="33.3908294"><ele>168.0</ele><time>2015-05-01T10:54:03.0000000+00:00</time></trkpt><trkpt lat="34.8255126" lon="33.3907705"><ele>166.8</ele><time>2015-05-01T10:54:06.0000000+00:00</time></trkpt><trkpt lat="34.825528" lon="33.3907155"><ele>166.1</ele><time>2015-05-01T10:54:09.0000000+00:00</time></trkpt><trkpt lat="34.8254882" lon="33.3906631"><ele>166.0</ele><time>2015-05-01T10:54:12.0000000+00:00</time></trkpt><trkpt lat="34.825445" lon="33.390622"><ele>165.5</ele><time>2015-05-01T10:54:15.0000000+00:00</time></trkpt><trkpt lat="34.8254148" lon="33.3905751"><ele>165.1</ele><time>2015-05-01T10:54:18.0000000+00:00</time></trkpt><trkpt lat="34.8254008" lon="33.390522"><ele>165.5</ele><time>2015-05-01T10:54:21.0000000+00:00</time></trkpt><trkpt lat="34.8254606" lon="33.3905295"><ele>165.8</ele><time>2015-05-01T10:54:25.0000000+00:00</time></trkpt><trkpt lat="34.8255099" lon="33.3905647"><ele>164.7</ele><time>2015-05-01T10:54:27.0000000+00:00</time></trkpt><trkpt lat="34.82556" lon="33.39062"><ele>163.9</ele><time>2015-05-01T10:54:29.0000000+00:00</time></trkpt><trkpt lat="34.8256156" lon="33.3906804"><ele>163.5</ele><time>2015-05-01T10:54:31.0000000+00:00</time></trkpt><trkpt lat="34.8256729" lon="33.3907376"><ele>163.1</ele><time>2015-05-01T10:54:33.0000000+00:00</time></trkpt><trkpt lat="34.8257277" lon="33.3907957"><ele>163.6</ele><time>2015-05-01T10:54:35.0000000+00:00</time></trkpt><trkpt lat="34.8257922" lon="33.3908474"><ele>163.9</ele><time>2015-05-01T10:54:37.0000000+00:00</time></trkpt><trkpt lat="34.8258591" lon="33.3908918"><ele>164.7</ele><time>2015-05-01T10:54:39.0000000+00:00</time></trkpt><trkpt lat="34.8259265" lon="33.3909517"><ele>164.7</ele><time>2015-05-01T10:54:41.0000000+00:00</time></trkpt><trkpt lat="34.8259775" lon="33.3909938"><ele>164.4</ele><time>2015-05-01T10:54:42.0000000+00:00</time></trkpt><trkpt lat="34.826044" lon="33.3910571"><ele>164.1</ele><time>2015-05-01T10:54:44.0000000+00:00</time></trkpt><trkpt lat="34.8261113" lon="33.3911261"><ele>164.0</ele><time>2015-05-01T10:54:46.0000000+00:00</time></trkpt><trkpt lat="34.8261884" lon="33.3911951"><ele>164.0</ele><time>2015-05-01T10:54:48.0000000+00:00</time></trkpt><trkpt lat="34.8262314" lon="33.3912373"><ele>164.0</ele><time>2015-05-01T10:54:49.0000000+00:00</time></trkpt><trkpt lat="34.8262728" lon="33.391278"><ele>164.5</ele><time>2015-05-01T10:54:50.0000000+00:00</time></trkpt><trkpt lat="34.8263086" lon="33.3913184"><ele>164.8</ele><time>2015-05-01T10:54:51.0000000+00:00</time></trkpt><trkpt lat="34.8263736" lon="33.391381"><ele>163.9</ele><time>2015-05-01T10:54:52.0000000+00:00</time></trkpt><trkpt lat="34.8264294" lon="33.3914329"><ele>164.0</ele><time>2015-05-01T10:54:53.0000000+00:00</time></trkpt><trkpt lat="34.8264801" lon="33.39147"><ele>164.0</ele><time>2015-05-01T10:54:54.0000000+00:00</time></trkpt><trkpt lat="34.8265317" lon="33.3915048"><ele>163.5</ele><time>2015-05-01T10:54:55.0000000+00:00</time></trkpt><trkpt lat="34.826595" lon="33.3915424"><ele>163.3</ele><time>2015-05-01T10:54:56.0000000+00:00</time></trkpt><trkpt lat="34.826649" lon="33.3915824"><ele>163.1</ele><time>2015-05-01T10:54:57.0000000+00:00</time></trkpt><trkpt lat="34.8266904" lon="33.3916049"><ele>162.6</ele><time>2015-05-01T10:54:58.0000000+00:00</time></trkpt><trkpt lat="34.8267432" lon="33.3916429"><ele>162.8</ele><time>2015-05-01T10:54:59.0000000+00:00</time></trkpt><trkpt lat="34.826802" lon="33.3916869"><ele>163.4</ele><time>2015-05-01T10:55:00.0000000+00:00</time></trkpt><trkpt lat="34.8268627" lon="33.3917111"><ele>163.7</ele><time>2015-05-01T10:55:01.0000000+00:00</time></trkpt><trkpt lat="34.8269125" lon="33.3917433"><ele>163.9</ele><time>2015-05-01T10:55:02.0000000+00:00</time></trkpt><trkpt lat="34.8269642" lon="33.3917672"><ele>163.9</ele><time>2015-05-01T10:55:03.0000000+00:00</time></trkpt><trkpt lat="34.8270151" lon="33.391793"><ele>163.5</ele><time>2015-05-01T10:55:04.0000000+00:00</time></trkpt><trkpt lat="34.8270558" lon="33.3918187"><ele>163.8</ele><time>2015-05-01T10:55:05.0000000+00:00</time></trkpt><trkpt lat="34.8271014" lon="33.3918344"><ele>163.9</ele><time>2015-05-01T10:55:06.0000000+00:00</time></trkpt><trkpt lat="34.8271758" lon="33.3918714"><ele>163.5</ele><time>2015-05-01T10:55:08.0000000+00:00</time></trkpt><trkpt lat="34.8272566" lon="33.3919008"><ele>163.9</ele><time>2015-05-01T10:55:10.0000000+00:00</time></trkpt><trkpt lat="34.8273433" lon="33.3919301"><ele>164.0</ele><time>2015-05-01T10:55:12.0000000+00:00</time></trkpt><trkpt lat="34.8274092" lon="33.3919616"><ele>164.0</ele><time>2015-05-01T10:55:14.0000000+00:00</time></trkpt><trkpt lat="34.8274883" lon="33.3919808"><ele>164.0</ele><time>2015-05-01T10:55:16.0000000+00:00</time></trkpt><trkpt lat="34.8275339" lon="33.3919893"><ele>164.0</ele><time>2015-05-01T10:55:17.0000000+00:00</time></trkpt><trkpt lat="34.8276246" lon="33.3920088"><ele>163.0</ele><time>2015-05-01T10:55:19.0000000+00:00</time></trkpt><trkpt lat="34.8276741" lon="33.3920123"><ele>162.0</ele><time>2015-05-01T10:55:20.0000000+00:00</time></trkpt><trkpt lat="34.8277595" lon="33.3920144"><ele>161.3</ele><time>2015-05-01T10:55:22.0000000+00:00</time></trkpt><trkpt lat="34.82784" lon="33.392011"><ele>160.8</ele><time>2015-05-01T10:55:24.0000000+00:00</time></trkpt><trkpt lat="34.8279168" lon="33.3920069"><ele>161.0</ele><time>2015-05-01T10:55:26.0000000+00:00</time></trkpt><trkpt lat="34.8279996" lon="33.3919903"><ele>161.3</ele><time>2015-05-01T10:55:28.0000000+00:00</time></trkpt><trkpt lat="34.8280475" lon="33.3919838"><ele>160.6</ele><time>2015-05-01T10:55:29.0000000+00:00</time></trkpt><trkpt lat="34.8281224" lon="33.3919854"><ele>160.9</ele><time>2015-05-01T10:55:31.0000000+00:00</time></trkpt><trkpt lat="34.8281944" lon="33.3919725"><ele>162.2</ele><time>2015-05-01T10:55:33.0000000+00:00</time></trkpt><trkpt lat="34.8282651" lon="33.3919574"><ele>162.3</ele><time>2015-05-01T10:55:35.0000000+00:00</time></trkpt><trkpt lat="34.8282909" lon="33.3919077"><ele>162.6</ele><time>2015-05-01T10:55:38.0000000+00:00</time></trkpt><trkpt lat="34.8283478" lon="33.3919269"><ele>162.3</ele><time>2015-05-01T10:56:01.0000000+00:00</time></trkpt><trkpt lat="34.8284025" lon="33.3919298"><ele>161.5</ele><time>2015-05-01T10:56:05.0000000+00:00</time></trkpt><trkpt lat="34.828475" lon="33.3918943"><ele>161.6</ele><time>2015-05-01T10:56:09.0000000+00:00</time></trkpt><trkpt lat="34.82853" lon="33.391896"><ele>161.4</ele><time>2015-05-01T10:56:11.0000000+00:00</time></trkpt><trkpt lat="34.828584" lon="33.391911"><ele>161.4</ele><time>2015-05-01T10:56:13.0000000+00:00</time></trkpt><trkpt lat="34.8286375" lon="33.3919402"><ele>161.1</ele><time>2015-05-01T10:56:15.0000000+00:00</time></trkpt><trkpt lat="34.8287" lon="33.3919866"><ele>161.3</ele><time>2015-05-01T10:56:17.0000000+00:00</time></trkpt><trkpt lat="34.8287608" lon="33.3920324"><ele>161.6</ele><time>2015-05-01T10:56:19.0000000+00:00</time></trkpt><trkpt lat="34.8288252" lon="33.3920756"><ele>161.7</ele><time>2015-05-01T10:56:21.0000000+00:00</time></trkpt><trkpt lat="34.8288922" lon="33.392121"><ele>161.7</ele><time>2015-05-01T10:56:23.0000000+00:00</time></trkpt><trkpt lat="34.8289586" lon="33.3921719"><ele>161.9</ele><time>2015-05-01T10:56:25.0000000+00:00</time></trkpt><trkpt lat="34.8290223" lon="33.392221"><ele>161.7</ele><time>2015-05-01T10:56:27.0000000+00:00</time></trkpt><trkpt lat="34.8290894" lon="33.3922728"><ele>162.5</ele><time>2015-05-01T10:56:29.0000000+00:00</time></trkpt><trkpt lat="34.8291548" lon="33.3923305"><ele>163.4</ele><time>2015-05-01T10:56:31.0000000+00:00</time></trkpt><trkpt lat="34.8291942" lon="33.3923633"><ele>163.2</ele><time>2015-05-01T10:56:32.0000000+00:00</time></trkpt><trkpt lat="34.8292304" lon="33.3923959"><ele>163.6</ele><time>2015-05-01T10:56:33.0000000+00:00</time></trkpt><trkpt lat="34.8292991" lon="33.3924586"><ele>163.9</ele><time>2015-05-01T10:56:35.0000000+00:00</time></trkpt><trkpt lat="34.8293679" lon="33.3925173"><ele>164.0</ele><time>2015-05-01T10:56:37.0000000+00:00</time></trkpt><trkpt lat="34.8294285" lon="33.3925772"><ele>164.0</ele><time>2015-05-01T10:56:39.0000000+00:00</time></trkpt><trkpt lat="34.829488" lon="33.3926373"><ele>164.5</ele><time>2015-05-01T10:56:41.0000000+00:00</time></trkpt><trkpt lat="34.829542" lon="33.3926933"><ele>164.9</ele><time>2015-05-01T10:56:43.0000000+00:00</time></trkpt><trkpt lat="34.8295994" lon="33.3927539"><ele>165.2</ele><time>2015-05-01T10:56:45.0000000+00:00</time></trkpt><trkpt lat="34.8296569" lon="33.3928183"><ele>165.1</ele><time>2015-05-01T10:56:47.0000000+00:00</time></trkpt><trkpt lat="34.8296897" lon="33.392856"><ele>165.0</ele><time>2015-05-01T10:56:48.0000000+00:00</time></trkpt><trkpt lat="34.8297499" lon="33.3929296"><ele>164.5</ele><time>2015-05-01T10:56:50.0000000+00:00</time></trkpt><trkpt lat="34.8298095" lon="33.393001"><ele>164.6</ele><time>2015-05-01T10:56:52.0000000+00:00</time></trkpt><trkpt lat="34.82987" lon="33.3930626"><ele>164.2</ele><time>2015-05-01T10:56:54.0000000+00:00</time></trkpt><trkpt lat="34.8299249" lon="33.3931269"><ele>164.8</ele><time>2015-05-01T10:56:56.0000000+00:00</time></trkpt><trkpt lat="34.8299743" lon="33.3931974"><ele>165.0</ele><time>2015-05-01T10:56:58.0000000+00:00</time></trkpt><trkpt lat="34.8300305" lon="33.3932644"><ele>164.3</ele><time>2015-05-01T10:57:00.0000000+00:00</time></trkpt><trkpt lat="34.8300864" lon="33.3933302"><ele>164.1</ele><time>2015-05-01T10:57:02.0000000+00:00</time></trkpt><trkpt lat="34.8301495" lon="33.3933924"><ele>163.3</ele><time>2015-05-01T10:57:04.0000000+00:00</time></trkpt><trkpt lat="34.8302063" lon="33.3934558"><ele>162.6</ele><time>2015-05-01T10:57:06.0000000+00:00</time></trkpt><trkpt lat="34.8302633" lon="33.3935237"><ele>162.2</ele><time>2015-05-01T10:57:08.0000000+00:00</time></trkpt><trkpt lat="34.8303196" lon="33.3935914"><ele>162.8</ele><time>2015-05-01T10:57:10.0000000+00:00</time></trkpt><trkpt lat="34.8303804" lon="33.3936573"><ele>162.2</ele><time>2015-05-01T10:57:12.0000000+00:00</time></trkpt><trkpt lat="34.8304412" lon="33.3937176"><ele>162.8</ele><time>2015-05-01T10:57:14.0000000+00:00</time></trkpt><trkpt lat="34.8304957" lon="33.3937802"><ele>163.0</ele><time>2015-05-01T10:57:16.0000000+00:00</time></trkpt><trkpt lat="34.830535" lon="33.3938309"><ele>163.0</ele><time>2015-05-01T10:57:18.0000000+00:00</time></trkpt><trkpt lat="34.8305789" lon="33.3938904"><ele>162.5</ele><time>2015-05-01T10:57:20.0000000+00:00</time></trkpt><trkpt lat="34.8306252" lon="33.3939482"><ele>162.9</ele><time>2015-05-01T10:57:22.0000000+00:00</time></trkpt><trkpt lat="34.8306717" lon="33.3940109"><ele>163.0</ele><time>2015-05-01T10:57:24.0000000+00:00</time></trkpt><trkpt lat="34.8307197" lon="33.3940731"><ele>163.0</ele><time>2015-05-01T10:57:26.0000000+00:00</time></trkpt><trkpt lat="34.8307698" lon="33.3941313"><ele>163.0</ele><time>2015-05-01T10:57:28.0000000+00:00</time></trkpt><trkpt lat="34.8308225" lon="33.3941827"><ele>163.8</ele><time>2015-05-01T10:57:30.0000000+00:00</time></trkpt><trkpt lat="34.8308722" lon="33.3942414"><ele>163.2</ele><time>2015-05-01T10:57:32.0000000+00:00</time></trkpt><trkpt lat="34.8309203" lon="33.394305"><ele>163.1</ele><time>2015-05-01T10:57:34.0000000+00:00</time></trkpt><trkpt lat="34.8309745" lon="33.3943773"><ele>163.8</ele><time>2015-05-01T10:57:36.0000000+00:00</time></trkpt><trkpt lat="34.8310071" lon="33.3944184"><ele>163.4</ele><time>2015-05-01T10:57:37.0000000+00:00</time></trkpt><trkpt lat="34.8310386" lon="33.3944625"><ele>163.7</ele><time>2015-05-01T10:57:38.0000000+00:00</time></trkpt><trkpt lat="34.8311056" lon="33.3945432"><ele>163.2</ele><time>2015-05-01T10:57:40.0000000+00:00</time></trkpt><trkpt lat="34.8311692" lon="33.3946163"><ele>163.6</ele><time>2015-05-01T10:57:42.0000000+00:00</time></trkpt><trkpt lat="34.8312113" lon="33.394656"><ele>163.3</ele><time>2015-05-01T10:57:43.0000000+00:00</time></trkpt><trkpt lat="34.8312494" lon="33.3946985"><ele>163.2</ele><time>2015-05-01T10:57:44.0000000+00:00</time></trkpt><trkpt lat="34.8312822" lon="33.3947486"><ele>163.6</ele><time>2015-05-01T10:57:45.0000000+00:00</time></trkpt><trkpt lat="34.831325" lon="33.394788"><ele>163.3</ele><time>2015-05-01T10:57:46.0000000+00:00</time></trkpt><trkpt lat="34.8313664" lon="33.3948381"><ele>163.2</ele><time>2015-05-01T10:57:47.0000000+00:00</time></trkpt><trkpt lat="34.8314115" lon="33.394885"><ele>163.1</ele><time>2015-05-01T10:57:48.0000000+00:00</time></trkpt><trkpt lat="34.8314503" lon="33.3949346"><ele>163.1</ele><time>2015-05-01T10:57:49.0000000+00:00</time></trkpt><trkpt lat="34.8314919" lon="33.3949846"><ele>163.0</ele><time>2015-05-01T10:57:50.0000000+00:00</time></trkpt><trkpt lat="34.8315344" lon="33.3950376"><ele>163.0</ele><time>2015-05-01T10:57:51.0000000+00:00</time></trkpt><trkpt lat="34.8315799" lon="33.3950905"><ele>163.0</ele><time>2015-05-01T10:57:52.0000000+00:00</time></trkpt><trkpt lat="34.8316324" lon="33.3951419"><ele>163.0</ele><time>2015-05-01T10:57:53.0000000+00:00</time></trkpt><trkpt lat="34.8316782" lon="33.3951945"><ele>163.0</ele><time>2015-05-01T10:57:54.0000000+00:00</time></trkpt><trkpt lat="34.8317341" lon="33.3952439"><ele>162.5</ele><time>2015-05-01T10:57:55.0000000+00:00</time></trkpt><trkpt lat="34.8317849" lon="33.3952962"><ele>162.3</ele><time>2015-05-01T10:57:56.0000000+00:00</time></trkpt><trkpt lat="34.8318371" lon="33.3953518"><ele>162.1</ele><time>2015-05-01T10:57:57.0000000+00:00</time></trkpt><trkpt lat="34.8318872" lon="33.3954037"><ele>162.1</ele><time>2015-05-01T10:57:58.0000000+00:00</time></trkpt><trkpt lat="34.8319368" lon="33.3954517"><ele>162.1</ele><time>2015-05-01T10:57:59.0000000+00:00</time></trkpt><trkpt lat="34.8319903" lon="33.3955041"><ele>161.5</ele><time>2015-05-01T10:58:00.0000000+00:00</time></trkpt><trkpt lat="34.8320454" lon="33.395552"><ele>161.3</ele><time>2015-05-01T10:58:01.0000000+00:00</time></trkpt><trkpt lat="34.8320921" lon="33.3955986"><ele>161.1</ele><time>2015-05-01T10:58:02.0000000+00:00</time></trkpt><trkpt lat="34.8321451" lon="33.3956518"><ele>161.1</ele><time>2015-05-01T10:58:03.0000000+00:00</time></trkpt><trkpt lat="34.8322008" lon="33.3957013"><ele>160.6</ele><time>2015-05-01T10:58:04.0000000+00:00</time></trkpt><trkpt lat="34.8322624" lon="33.3957484"><ele>160.3</ele><time>2015-05-01T10:58:05.0000000+00:00</time></trkpt><trkpt lat="34.8323169" lon="33.3957959"><ele>160.2</ele><time>2015-05-01T10:58:06.0000000+00:00</time></trkpt><trkpt lat="34.8323744" lon="33.3958434"><ele>160.1</ele><time>2015-05-01T10:58:07.0000000+00:00</time></trkpt><trkpt lat="34.8324344" lon="33.3958925"><ele>160.1</ele><time>2015-05-01T10:58:08.0000000+00:00</time></trkpt><trkpt lat="34.8324863" lon="33.39595"><ele>159.5</ele><time>2015-05-01T10:58:09.0000000+00:00</time></trkpt><trkpt lat="34.832546" lon="33.396003"><ele>159.3</ele><time>2015-05-01T10:58:10.0000000+00:00</time></trkpt><trkpt lat="34.8326097" lon="33.3960573"><ele>159.2</ele><time>2015-05-01T10:58:11.0000000+00:00</time></trkpt><trkpt lat="34.8326733" lon="33.3961127"><ele>159.1</ele><time>2015-05-01T10:58:12.0000000+00:00</time></trkpt><trkpt lat="34.8327378" lon="33.3961687"><ele>159.1</ele><time>2015-05-01T10:58:13.0000000+00:00</time></trkpt><trkpt lat="34.8327989" lon="33.3962262"><ele>159.0</ele><time>2015-05-01T10:58:14.0000000+00:00</time></trkpt><trkpt lat="34.8328605" lon="33.3962837"><ele>159.0</ele><time>2015-05-01T10:58:15.0000000+00:00</time></trkpt><trkpt lat="34.8329181" lon="33.3963344"><ele>159.5</ele><time>2015-05-01T10:58:16.0000000+00:00</time></trkpt><trkpt lat="34.832979" lon="33.3963904"><ele>159.8</ele><time>2015-05-01T10:58:17.0000000+00:00</time></trkpt><trkpt lat="34.8330382" lon="33.396432"><ele>159.9</ele><time>2015-05-01T10:58:18.0000000+00:00</time></trkpt><trkpt lat="34.8330964" lon="33.3964757"><ele>160.5</ele><time>2015-05-01T10:58:19.0000000+00:00</time></trkpt><trkpt lat="34.8331437" lon="33.3965172"><ele>160.7</ele><time>2015-05-01T10:58:20.0000000+00:00</time></trkpt><trkpt lat="34.8331955" lon="33.3965552"><ele>161.4</ele><time>2015-05-01T10:58:21.0000000+00:00</time></trkpt><trkpt lat="34.8332374" lon="33.3965886"><ele>161.7</ele><time>2015-05-01T10:58:22.0000000+00:00</time></trkpt><trkpt lat="34.8333123" lon="33.3966477"><ele>163.4</ele><time>2015-05-01T10:58:24.0000000+00:00</time></trkpt><trkpt lat="34.8333748" lon="33.3966861"><ele>163.9</ele><time>2015-05-01T10:58:26.0000000+00:00</time></trkpt><trkpt lat="34.8334313" lon="33.3967221"><ele>164.5</ele><time>2015-05-01T10:58:28.0000000+00:00</time></trkpt><trkpt lat="34.8334858" lon="33.3967547"><ele>164.9</ele><time>2015-05-01T10:58:30.0000000+00:00</time></trkpt><trkpt lat="34.833525" lon="33.3968059"><ele>165.5</ele><time>2015-05-01T10:58:33.0000000+00:00</time></trkpt><trkpt lat="34.8335756" lon="33.3968273"><ele>166.0</ele><time>2015-05-01T10:58:36.0000000+00:00</time></trkpt><trkpt lat="34.833625" lon="33.3968651"><ele>166.0</ele><time>2015-05-01T10:58:39.0000000+00:00</time></trkpt><trkpt lat="34.8336772" lon="33.3969006"><ele>166.0</ele><time>2015-05-01T10:58:42.0000000+00:00</time></trkpt><trkpt lat="34.8337308" lon="33.3969418"><ele>166.0</ele><time>2015-05-01T10:58:45.0000000+00:00</time></trkpt><trkpt lat="34.8337854" lon="33.3969814"><ele>166.0</ele><time>2015-05-01T10:58:48.0000000+00:00</time></trkpt><trkpt lat="34.8338419" lon="33.3970227"><ele>165.3</ele><time>2015-05-01T10:58:51.0000000+00:00</time></trkpt><trkpt lat="34.8338839" lon="33.3970534"><ele>165.6</ele><time>2015-05-01T10:58:53.0000000+00:00</time></trkpt><trkpt lat="34.8339264" lon="33.3970909"><ele>166.0</ele><time>2015-05-01T10:58:56.0000000+00:00</time></trkpt><trkpt lat="34.8339771" lon="33.397128"><ele>166.0</ele><time>2015-05-01T10:59:00.0000000+00:00</time></trkpt><trkpt lat="34.8340524" lon="33.3971791"><ele>165.5</ele><time>2015-05-01T10:59:03.0000000+00:00</time></trkpt><trkpt lat="34.8341095" lon="33.3972219"><ele>165.1</ele><time>2015-05-01T10:59:05.0000000+00:00</time></trkpt><trkpt lat="34.8341621" lon="33.3972627"><ele>164.3</ele><time>2015-05-01T10:59:07.0000000+00:00</time></trkpt><trkpt lat="34.8342168" lon="33.3973029"><ele>164.1</ele><time>2015-05-01T10:59:09.0000000+00:00</time></trkpt><trkpt lat="34.8342686" lon="33.3973408"><ele>164.0</ele><time>2015-05-01T10:59:11.0000000+00:00</time></trkpt><trkpt lat="34.8343196" lon="33.3973798"><ele>163.5</ele><time>2015-05-01T10:59:13.0000000+00:00</time></trkpt><trkpt lat="34.8343671" lon="33.3974172"><ele>163.6</ele><time>2015-05-01T10:59:15.0000000+00:00</time></trkpt><trkpt lat="34.834417" lon="33.3974529"><ele>163.9</ele><time>2015-05-01T10:59:17.0000000+00:00</time></trkpt><trkpt lat="34.8344675" lon="33.3974877"><ele>163.2</ele><time>2015-05-01T10:59:19.0000000+00:00</time></trkpt><trkpt lat="34.8345201" lon="33.3975274"><ele>162.6</ele><time>2015-05-01T10:59:21.0000000+00:00</time></trkpt><trkpt lat="34.8345887" lon="33.3975757"><ele>162.4</ele><time>2015-05-01T10:59:23.0000000+00:00</time></trkpt><trkpt lat="34.8346608" lon="33.3976257"><ele>162.1</ele><time>2015-05-01T10:59:25.0000000+00:00</time></trkpt><trkpt lat="34.8347311" lon="33.3976819"><ele>162.0</ele><time>2015-05-01T10:59:27.0000000+00:00</time></trkpt><trkpt lat="34.8348318" lon="33.3977548"><ele>161.5</ele><time>2015-05-01T10:59:29.0000000+00:00</time></trkpt><trkpt lat="34.834876" lon="33.3977884"><ele>161.3</ele><time>2015-05-01T10:59:30.0000000+00:00</time></trkpt><trkpt lat="34.8349281" lon="33.3978366"><ele>160.6</ele><time>2015-05-01T10:59:31.0000000+00:00</time></trkpt><trkpt lat="34.8349822" lon="33.3978777"><ele>160.3</ele><time>2015-05-01T10:59:32.0000000+00:00</time></trkpt><trkpt lat="34.8350521" lon="33.3979184"><ele>160.2</ele><time>2015-05-01T10:59:33.0000000+00:00</time></trkpt><trkpt lat="34.8351109" lon="33.3979622"><ele>159.6</ele><time>2015-05-01T10:59:34.0000000+00:00</time></trkpt><trkpt lat="34.8351818" lon="33.3980125"><ele>159.3</ele><time>2015-05-01T10:59:35.0000000+00:00</time></trkpt><trkpt lat="34.8352498" lon="33.3980675"><ele>159.2</ele><time>2015-05-01T10:59:36.0000000+00:00</time></trkpt><trkpt lat="34.8353159" lon="33.3981176"><ele>159.1</ele><time>2015-05-01T10:59:37.0000000+00:00</time></trkpt><trkpt lat="34.8353843" lon="33.3981721"><ele>159.1</ele><time>2015-05-01T10:59:38.0000000+00:00</time></trkpt><trkpt lat="34.8354547" lon="33.3982271"><ele>159.0</ele><time>2015-05-01T10:59:39.0000000+00:00</time></trkpt><trkpt lat="34.8355268" lon="33.3982812"><ele>159.0</ele><time>2015-05-01T10:59:40.0000000+00:00</time></trkpt><trkpt lat="34.8355936" lon="33.3983339"><ele>159.0</ele><time>2015-05-01T10:59:41.0000000+00:00</time></trkpt><trkpt lat="34.8356642" lon="33.3983886"><ele>159.0</ele><time>2015-05-01T10:59:42.0000000+00:00</time></trkpt><trkpt lat="34.8357305" lon="33.3984448"><ele>159.0</ele><time>2015-05-01T10:59:43.0000000+00:00</time></trkpt><trkpt lat="34.8358013" lon="33.3984988"><ele>159.0</ele><time>2015-05-01T10:59:44.0000000+00:00</time></trkpt><trkpt lat="34.835864" lon="33.3985409"><ele>159.0</ele><time>2015-05-01T10:59:45.0000000+00:00</time></trkpt><trkpt lat="34.8359303" lon="33.3985902"><ele>159.0</ele><time>2015-05-01T10:59:46.0000000+00:00</time></trkpt><trkpt lat="34.8359864" lon="33.3986333"><ele>159.5</ele><time>2015-05-01T10:59:47.0000000+00:00</time></trkpt><trkpt lat="34.8360507" lon="33.3986826"><ele>159.8</ele><time>2015-05-01T10:59:48.0000000+00:00</time></trkpt><trkpt lat="34.8361105" lon="33.3987272"><ele>160.4</ele><time>2015-05-01T10:59:49.0000000+00:00</time></trkpt><trkpt lat="34.8361673" lon="33.398768"><ele>160.7</ele><time>2015-05-01T10:59:50.0000000+00:00</time></trkpt><trkpt lat="34.8362071" lon="33.3988025"><ele>161.9</ele><time>2015-05-01T10:59:51.0000000+00:00</time></trkpt><trkpt lat="34.8362577" lon="33.3988371"><ele>162.4</ele><time>2015-05-01T10:59:52.0000000+00:00</time></trkpt><trkpt lat="34.8363072" lon="33.398871"><ele>162.7</ele><time>2015-05-01T10:59:53.0000000+00:00</time></trkpt><trkpt lat="34.8363831" lon="33.3989244"><ele>162.4</ele><time>2015-05-01T10:59:55.0000000+00:00</time></trkpt><trkpt lat="34.8364252" lon="33.3989535"><ele>162.2</ele><time>2015-05-01T10:59:56.0000000+00:00</time></trkpt><trkpt lat="34.8364646" lon="33.3989906"><ele>162.6</ele><time>2015-05-01T10:59:57.0000000+00:00</time></trkpt><trkpt lat="34.8365038" lon="33.3990209"><ele>162.8</ele><time>2015-05-01T10:59:58.0000000+00:00</time></trkpt><trkpt lat="34.8365778" lon="33.3990775"><ele>163.0</ele><time>2015-05-01T11:00:00.0000000+00:00</time></trkpt><trkpt lat="34.8366146" lon="33.3991111"><ele>163.0</ele><time>2015-05-01T11:00:01.0000000+00:00</time></trkpt><trkpt lat="34.8366908" lon="33.3991624"><ele>163.0</ele><time>2015-05-01T11:00:03.0000000+00:00</time></trkpt><trkpt lat="34.8367291" lon="33.3991912"><ele>163.0</ele><time>2015-05-01T11:00:04.0000000+00:00</time></trkpt><trkpt lat="34.8368093" lon="33.3992352"><ele>163.0</ele><time>2015-05-01T11:00:06.0000000+00:00</time></trkpt><trkpt lat="34.8368889" lon="33.3992844"><ele>163.8</ele><time>2015-05-01T11:00:08.0000000+00:00</time></trkpt><trkpt lat="34.8369327" lon="33.3993207"><ele>163.9</ele><time>2015-05-01T11:00:09.0000000+00:00</time></trkpt><trkpt lat="34.8369965" lon="33.3993605"><ele>164.0</ele><time>2015-05-01T11:00:11.0000000+00:00</time></trkpt><trkpt lat="34.8370635" lon="33.399407"><ele>163.8</ele><time>2015-05-01T11:00:13.0000000+00:00</time></trkpt><trkpt lat="34.8371306" lon="33.3994525"><ele>163.5</ele><time>2015-05-01T11:00:15.0000000+00:00</time></trkpt><trkpt lat="34.8372008" lon="33.3994878"><ele>163.9</ele><time>2015-05-01T11:00:17.0000000+00:00</time></trkpt><trkpt lat="34.8372572" lon="33.3995222"><ele>164.5</ele><time>2015-05-01T11:00:19.0000000+00:00</time></trkpt><trkpt lat="34.8373093" lon="33.3995591"><ele>164.9</ele><time>2015-05-01T11:00:21.0000000+00:00</time></trkpt><trkpt lat="34.8373672" lon="33.3995943"><ele>164.1</ele><time>2015-05-01T11:00:24.0000000+00:00</time></trkpt><trkpt lat="34.8374111" lon="33.3996204"><ele>164.4</ele><time>2015-05-01T11:00:29.0000000+00:00</time></trkpt><trkpt lat="34.8374573" lon="33.399635"><ele>164.0</ele><time>2015-05-01T11:00:33.0000000+00:00</time></trkpt><trkpt lat="34.8375095" lon="33.3996614"><ele>164.0</ele><time>2015-05-01T11:00:35.0000000+00:00</time></trkpt><trkpt lat="34.8375436" lon="33.3997085"><ele>163.0</ele><time>2015-05-01T11:01:11.0000000+00:00</time></trkpt><trkpt lat="34.8375915" lon="33.3997646"><ele>163.0</ele><time>2015-05-01T11:01:13.0000000+00:00</time></trkpt><trkpt lat="34.8376446" lon="33.3998075"><ele>163.0</ele><time>2015-05-01T11:01:15.0000000+00:00</time></trkpt><trkpt lat="34.8376949" lon="33.3998361"><ele>163.0</ele><time>2015-05-01T11:01:17.0000000+00:00</time></trkpt><trkpt lat="34.8377498" lon="33.3998668"><ele>163.0</ele><time>2015-05-01T11:01:21.0000000+00:00</time></trkpt><trkpt lat="34.8378034" lon="33.3999028"><ele>162.8</ele><time>2015-05-01T11:01:25.0000000+00:00</time></trkpt><trkpt lat="34.8378494" lon="33.3999397"><ele>163.0</ele><time>2015-05-01T11:01:28.0000000+00:00</time></trkpt><trkpt lat="34.837898" lon="33.3999671"><ele>163.0</ele><time>2015-05-01T11:01:31.0000000+00:00</time></trkpt><trkpt lat="34.8379403" lon="33.4000008"><ele>164.4</ele><time>2015-05-01T11:01:34.0000000+00:00</time></trkpt><trkpt lat="34.8379804" lon="33.4000306"><ele>164.6</ele><time>2015-05-01T11:01:37.0000000+00:00</time></trkpt><trkpt lat="34.8380236" lon="33.4000593"><ele>164.5</ele><time>2015-05-01T11:01:40.0000000+00:00</time></trkpt><trkpt lat="34.8380658" lon="33.4000929"><ele>164.9</ele><time>2015-05-01T11:01:42.0000000+00:00</time></trkpt><trkpt lat="34.8380908" lon="33.4001519"><ele>165.0</ele><time>2015-05-01T11:01:44.0000000+00:00</time></trkpt><trkpt lat="34.8380851" lon="33.4002098"><ele>165.5</ele><time>2015-05-01T11:01:45.0000000+00:00</time></trkpt><trkpt lat="34.8380765" lon="33.4002998"><ele>165.9</ele><time>2015-05-01T11:01:47.0000000+00:00</time></trkpt><trkpt lat="34.8380863" lon="33.4003961"><ele>165.7</ele><time>2015-05-01T11:01:49.0000000+00:00</time></trkpt><trkpt lat="34.8381381" lon="33.4004657"><ele>166.5</ele><time>2015-05-01T11:01:51.0000000+00:00</time></trkpt><trkpt lat="34.8382101" lon="33.4005012"><ele>166.9</ele><time>2015-05-01T11:01:53.0000000+00:00</time></trkpt><trkpt lat="34.8382819" lon="33.4005156"><ele>167.0</ele><time>2015-05-01T11:01:55.0000000+00:00</time></trkpt><trkpt lat="34.8383578" lon="33.4005264"><ele>167.5</ele><time>2015-05-01T11:01:57.0000000+00:00</time></trkpt><trkpt lat="34.8384363" lon="33.4005485"><ele>167.9</ele><time>2015-05-01T11:01:59.0000000+00:00</time></trkpt><trkpt lat="34.8385214" lon="33.4005744"><ele>168.2</ele><time>2015-05-01T11:02:01.0000000+00:00</time></trkpt><trkpt lat="34.8386012" lon="33.4006067"><ele>168.1</ele><time>2015-05-01T11:02:03.0000000+00:00</time></trkpt><trkpt lat="34.8386808" lon="33.4006503"><ele>168.8</ele><time>2015-05-01T11:02:05.0000000+00:00</time></trkpt><trkpt lat="34.8387572" lon="33.4006985"><ele>169.0</ele><time>2015-05-01T11:02:07.0000000+00:00</time></trkpt><trkpt lat="34.8387962" lon="33.4007275"><ele>169.5</ele><time>2015-05-01T11:02:08.0000000+00:00</time></trkpt><trkpt lat="34.8388759" lon="33.4008062"><ele>169.9</ele><time>2015-05-01T11:02:10.0000000+00:00</time></trkpt><trkpt lat="34.8389144" lon="33.4008408"><ele>170.0</ele><time>2015-05-01T11:02:11.0000000+00:00</time></trkpt><trkpt lat="34.8389715" lon="33.4009019"><ele>170.0</ele><time>2015-05-01T11:02:13.0000000+00:00</time></trkpt><trkpt lat="34.8390182" lon="33.4009618"><ele>170.0</ele><time>2015-05-01T11:02:15.0000000+00:00</time></trkpt><trkpt lat="34.8390648" lon="33.4010297"><ele>170.5</ele><time>2015-05-01T11:02:17.0000000+00:00</time></trkpt><trkpt lat="34.8391204" lon="33.4011047"><ele>170.9</ele><time>2015-05-01T11:02:19.0000000+00:00</time></trkpt><trkpt lat="34.8391738" lon="33.4011909"><ele>171.5</ele><time>2015-05-01T11:02:21.0000000+00:00</time></trkpt><trkpt lat="34.8392193" lon="33.4012795"><ele>171.9</ele><time>2015-05-01T11:02:23.0000000+00:00</time></trkpt><trkpt lat="34.8392461" lon="33.4013265"><ele>172.0</ele><time>2015-05-01T11:02:24.0000000+00:00</time></trkpt><trkpt lat="34.8392774" lon="33.4013692"><ele>172.0</ele><time>2015-05-01T11:02:25.0000000+00:00</time></trkpt><trkpt lat="34.8393204" lon="33.4014476"><ele>172.0</ele><time>2015-05-01T11:02:27.0000000+00:00</time></trkpt><trkpt lat="34.8393579" lon="33.4015302"><ele>172.0</ele><time>2015-05-01T11:02:29.0000000+00:00</time></trkpt><trkpt lat="34.8393902" lon="33.4016009"><ele>172.5</ele><time>2015-05-01T11:02:31.0000000+00:00</time></trkpt><trkpt lat="34.839427" lon="33.4016708"><ele>172.9</ele><time>2015-05-01T11:02:33.0000000+00:00</time></trkpt><trkpt lat="34.8394501" lon="33.4017393"><ele>172.2</ele><time>2015-05-01T11:02:35.0000000+00:00</time></trkpt><trkpt lat="34.8394697" lon="33.401815"><ele>172.6</ele><time>2015-05-01T11:02:37.0000000+00:00</time></trkpt><trkpt lat="34.8394944" lon="33.4018897"><ele>172.7</ele><time>2015-05-01T11:02:39.0000000+00:00</time></trkpt><trkpt lat="34.8395256" lon="33.4019656"><ele>172.2</ele><time>2015-05-01T11:02:41.0000000+00:00</time></trkpt><trkpt lat="34.8395546" lon="33.4020394"><ele>172.1</ele><time>2015-05-01T11:02:43.0000000+00:00</time></trkpt><trkpt lat="34.8395824" lon="33.4021466"><ele>172.0</ele><time>2015-05-01T11:02:45.0000000+00:00</time></trkpt><trkpt lat="34.839616" lon="33.4022654"><ele>171.5</ele><time>2015-05-01T11:02:47.0000000+00:00</time></trkpt><trkpt lat="34.8396361" lon="33.4023238"><ele>171.3</ele><time>2015-05-01T11:02:48.0000000+00:00</time></trkpt><trkpt lat="34.8396581" lon="33.4023956"><ele>170.6</ele><time>2015-05-01T11:02:49.0000000+00:00</time></trkpt><trkpt lat="34.8396755" lon="33.40246"><ele>170.3</ele><time>2015-05-01T11:02:50.0000000+00:00</time></trkpt><trkpt lat="34.8396896" lon="33.4025383"><ele>170.2</ele><time>2015-05-01T11:02:51.0000000+00:00</time></trkpt><trkpt lat="34.8397077" lon="33.4026139"><ele>170.1</ele><time>2015-05-01T11:02:52.0000000+00:00</time></trkpt><trkpt lat="34.8397338" lon="33.4026965"><ele>169.6</ele><time>2015-05-01T11:02:53.0000000+00:00</time></trkpt><trkpt lat="34.8397576" lon="33.4027749"><ele>169.3</ele><time>2015-05-01T11:02:54.0000000+00:00</time></trkpt><trkpt lat="34.8397832" lon="33.4028576"><ele>169.2</ele><time>2015-05-01T11:02:55.0000000+00:00</time></trkpt><trkpt lat="34.8398099" lon="33.4029436"><ele>168.6</ele><time>2015-05-01T11:02:56.0000000+00:00</time></trkpt><trkpt lat="34.8398349" lon="33.4030272"><ele>168.3</ele><time>2015-05-01T11:02:57.0000000+00:00</time></trkpt><trkpt lat="34.8398677" lon="33.4031131"><ele>167.7</ele><time>2015-05-01T11:02:58.0000000+00:00</time></trkpt><trkpt lat="34.8398961" lon="33.403198"><ele>167.3</ele><time>2015-05-01T11:02:59.0000000+00:00</time></trkpt><trkpt lat="34.8399278" lon="33.403291"><ele>166.7</ele><time>2015-05-01T11:03:00.0000000+00:00</time></trkpt><trkpt lat="34.8399595" lon="33.4033864"><ele>166.4</ele><time>2015-05-01T11:03:01.0000000+00:00</time></trkpt><trkpt lat="34.8399897" lon="33.4034731"><ele>166.2</ele><time>2015-05-01T11:03:02.0000000+00:00</time></trkpt><trkpt lat="34.8400274" lon="33.4035548"><ele>166.1</ele><time>2015-05-01T11:03:03.0000000+00:00</time></trkpt><trkpt lat="34.8400613" lon="33.4036444"><ele>165.6</ele><time>2015-05-01T11:03:04.0000000+00:00</time></trkpt><trkpt lat="34.840096" lon="33.4037317"><ele>164.8</ele><time>2015-05-01T11:03:05.0000000+00:00</time></trkpt><trkpt lat="34.8401313" lon="33.4038204"><ele>164.4</ele><time>2015-05-01T11:03:06.0000000+00:00</time></trkpt><trkpt lat="34.8401744" lon="33.4039012"><ele>164.2</ele><time>2015-05-01T11:03:07.0000000+00:00</time></trkpt><trkpt lat="34.8402168" lon="33.4039901"><ele>164.1</ele><time>2015-05-01T11:03:08.0000000+00:00</time></trkpt><trkpt lat="34.8402658" lon="33.4040754"><ele>164.1</ele><time>2015-05-01T11:03:09.0000000+00:00</time></trkpt><trkpt lat="34.8403138" lon="33.4041552"><ele>164.0</ele><time>2015-05-01T11:03:10.0000000+00:00</time></trkpt><trkpt lat="34.8403649" lon="33.4042318"><ele>164.0</ele><time>2015-05-01T11:03:11.0000000+00:00</time></trkpt><trkpt lat="34.8404121" lon="33.404316"><ele>163.5</ele><time>2015-05-01T11:03:12.0000000+00:00</time></trkpt><trkpt lat="34.8404604" lon="33.404393"><ele>163.3</ele><time>2015-05-01T11:03:13.0000000+00:00</time></trkpt><trkpt lat="34.8405044" lon="33.4044618"><ele>163.1</ele><time>2015-05-01T11:03:14.0000000+00:00</time></trkpt><trkpt lat="34.8405537" lon="33.4045361"><ele>163.1</ele><time>2015-05-01T11:03:15.0000000+00:00</time></trkpt><trkpt lat="34.8406015" lon="33.4046052"><ele>163.1</ele><time>2015-05-01T11:03:16.0000000+00:00</time></trkpt><trkpt lat="34.8406535" lon="33.4046757"><ele>163.0</ele><time>2015-05-01T11:03:17.0000000+00:00</time></trkpt><trkpt lat="34.8407044" lon="33.4047449"><ele>163.0</ele><time>2015-05-01T11:03:18.0000000+00:00</time></trkpt><trkpt lat="34.8407575" lon="33.4048053"><ele>163.0</ele><time>2015-05-01T11:03:19.0000000+00:00</time></trkpt><trkpt lat="34.8408099" lon="33.4048759"><ele>163.0</ele><time>2015-05-01T11:03:20.0000000+00:00</time></trkpt><trkpt lat="34.8408716" lon="33.4049399"><ele>162.5</ele><time>2015-05-01T11:03:21.0000000+00:00</time></trkpt><trkpt lat="34.8409277" lon="33.4050038"><ele>162.3</ele><time>2015-05-01T11:03:22.0000000+00:00</time></trkpt><trkpt lat="34.8409862" lon="33.4050674"><ele>162.1</ele><time>2015-05-01T11:03:23.0000000+00:00</time></trkpt><trkpt lat="34.8410466" lon="33.4051316"><ele>162.1</ele><time>2015-05-01T11:03:24.0000000+00:00</time></trkpt><trkpt lat="34.8410988" lon="33.4051974"><ele>161.6</ele><time>2015-05-01T11:03:25.0000000+00:00</time></trkpt><trkpt lat="34.8411555" lon="33.4052515"><ele>161.8</ele><time>2015-05-01T11:03:26.0000000+00:00</time></trkpt><trkpt lat="34.8412107" lon="33.4053117"><ele>161.4</ele><time>2015-05-01T11:03:27.0000000+00:00</time></trkpt><trkpt lat="34.8412725" lon="33.4053692"><ele>161.2</ele><time>2015-05-01T11:03:28.0000000+00:00</time></trkpt><trkpt lat="34.8413336" lon="33.4054215"><ele>161.1</ele><time>2015-05-01T11:03:29.0000000+00:00</time></trkpt><trkpt lat="34.8413888" lon="33.4054711"><ele>161.1</ele><time>2015-05-01T11:03:30.0000000+00:00</time></trkpt><trkpt lat="34.8414428" lon="33.4055241"><ele>161.5</ele><time>2015-05-01T11:03:31.0000000+00:00</time></trkpt><trkpt lat="34.8415011" lon="33.4055774"><ele>161.8</ele><time>2015-05-01T11:03:32.0000000+00:00</time></trkpt><trkpt lat="34.8415561" lon="33.4056262"><ele>161.9</ele><time>2015-05-01T11:03:33.0000000+00:00</time></trkpt><trkpt lat="34.8416104" lon="33.405679"><ele>162.0</ele><time>2015-05-01T11:03:34.0000000+00:00</time></trkpt><trkpt lat="34.8416546" lon="33.4057377"><ele>162.0</ele><time>2015-05-01T11:03:35.0000000+00:00</time></trkpt><trkpt lat="34.8417071" lon="33.4057943"><ele>162.0</ele><time>2015-05-01T11:03:36.0000000+00:00</time></trkpt><trkpt lat="34.8417795" lon="33.405819"><ele>162.0</ele><time>2015-05-01T11:03:37.0000000+00:00</time></trkpt><trkpt lat="34.8418362" lon="33.4058613"><ele>162.0</ele><time>2015-05-01T11:03:38.0000000+00:00</time></trkpt><trkpt lat="34.841885" lon="33.4059125"><ele>162.0</ele><time>2015-05-01T11:03:39.0000000+00:00</time></trkpt><trkpt lat="34.8419386" lon="33.4059627"><ele>162.0</ele><time>2015-05-01T11:03:40.0000000+00:00</time></trkpt><trkpt lat="34.8419861" lon="33.4060142"><ele>161.5</ele><time>2015-05-01T11:03:41.0000000+00:00</time></trkpt><trkpt lat="34.84203" lon="33.4060612"><ele>161.8</ele><time>2015-05-01T11:03:42.0000000+00:00</time></trkpt><trkpt lat="34.8420797" lon="33.4061085"><ele>161.9</ele><time>2015-05-01T11:03:43.0000000+00:00</time></trkpt><trkpt lat="34.8421241" lon="33.4061607"><ele>162.0</ele><time>2015-05-01T11:03:44.0000000+00:00</time></trkpt><trkpt lat="34.8421762" lon="33.4061981"><ele>162.0</ele><time>2015-05-01T11:03:45.0000000+00:00</time></trkpt><trkpt lat="34.8422284" lon="33.4062341"><ele>161.5</ele><time>2015-05-01T11:03:46.0000000+00:00</time></trkpt><trkpt lat="34.8422768" lon="33.4062787"><ele>161.3</ele><time>2015-05-01T11:03:47.0000000+00:00</time></trkpt><trkpt lat="34.8423276" lon="33.4063208"><ele>161.1</ele><time>2015-05-01T11:03:48.0000000+00:00</time></trkpt><trkpt lat="34.8423757" lon="33.4063659"><ele>161.1</ele><time>2015-05-01T11:03:49.0000000+00:00</time></trkpt><trkpt lat="34.8424226" lon="33.4064096"><ele>161.1</ele><time>2015-05-01T11:03:50.0000000+00:00</time></trkpt><trkpt lat="34.8424682" lon="33.4064526"><ele>161.0</ele><time>2015-05-01T11:03:51.0000000+00:00</time></trkpt><trkpt lat="34.842516" lon="33.4064974"><ele>161.0</ele><time>2015-05-01T11:03:52.0000000+00:00</time></trkpt><trkpt lat="34.8425622" lon="33.4065409"><ele>161.0</ele><time>2015-05-01T11:03:53.0000000+00:00</time></trkpt><trkpt lat="34.8426078" lon="33.4065858"><ele>161.0</ele><time>2015-05-01T11:03:54.0000000+00:00</time></trkpt><trkpt lat="34.8426563" lon="33.4066371"><ele>161.0</ele><time>2015-05-01T11:03:55.0000000+00:00</time></trkpt><trkpt lat="34.8427058" lon="33.406684"><ele>161.0</ele><time>2015-05-01T11:03:56.0000000+00:00</time></trkpt><trkpt lat="34.8427564" lon="33.4067269"><ele>161.0</ele><time>2015-05-01T11:03:57.0000000+00:00</time></trkpt><trkpt lat="34.8428026" lon="33.4067678"><ele>161.5</ele><time>2015-05-01T11:03:58.0000000+00:00</time></trkpt><trkpt lat="34.8428554" lon="33.406807"><ele>161.8</ele><time>2015-05-01T11:03:59.0000000+00:00</time></trkpt><trkpt lat="34.8429083" lon="33.4068531"><ele>161.9</ele><time>2015-05-01T11:04:00.0000000+00:00</time></trkpt><trkpt lat="34.8429525" lon="33.4068997"><ele>162.0</ele><time>2015-05-01T11:04:01.0000000+00:00</time></trkpt><trkpt lat="34.8430002" lon="33.4069402"><ele>162.0</ele><time>2015-05-01T11:04:02.0000000+00:00</time></trkpt><trkpt lat="34.8430431" lon="33.4069813"><ele>162.0</ele><time>2015-05-01T11:04:03.0000000+00:00</time></trkpt><trkpt lat="34.843089" lon="33.4070226"><ele>162.0</ele><time>2015-05-01T11:04:04.0000000+00:00</time></trkpt><trkpt lat="34.8431217" lon="33.4070649"><ele>162.0</ele><time>2015-05-01T11:04:05.0000000+00:00</time></trkpt><trkpt lat="34.8431596" lon="33.4071035"><ele>162.5</ele><time>2015-05-01T11:04:06.0000000+00:00</time></trkpt><trkpt lat="34.8432021" lon="33.4071423"><ele>162.8</ele><time>2015-05-01T11:04:07.0000000+00:00</time></trkpt><trkpt lat="34.8432459" lon="33.4071806"><ele>162.9</ele><time>2015-05-01T11:04:08.0000000+00:00</time></trkpt><trkpt lat="34.8432934" lon="33.4072247"><ele>163.0</ele><time>2015-05-01T11:04:09.0000000+00:00</time></trkpt><trkpt lat="34.8433358" lon="33.4072633"><ele>163.0</ele><time>2015-05-01T11:04:10.0000000+00:00</time></trkpt><trkpt lat="34.8433785" lon="33.4073055"><ele>163.0</ele><time>2015-05-01T11:04:11.0000000+00:00</time></trkpt><trkpt lat="34.8434235" lon="33.4073482"><ele>163.0</ele><time>2015-05-01T11:04:12.0000000+00:00</time></trkpt><trkpt lat="34.8434737" lon="33.4073816"><ele>163.0</ele><time>2015-05-01T11:04:13.0000000+00:00</time></trkpt><trkpt lat="34.843513" lon="33.4074172"><ele>162.5</ele><time>2015-05-01T11:04:14.0000000+00:00</time></trkpt><trkpt lat="34.8435476" lon="33.4074583"><ele>162.8</ele><time>2015-05-01T11:04:15.0000000+00:00</time></trkpt><trkpt lat="34.843585" lon="33.4074969"><ele>162.9</ele><time>2015-05-01T11:04:16.0000000+00:00</time></trkpt><trkpt lat="34.8436228" lon="33.4075333"><ele>163.0</ele><time>2015-05-01T11:04:17.0000000+00:00</time></trkpt><trkpt lat="34.8436975" lon="33.4075942"><ele>163.0</ele><time>2015-05-01T11:04:19.0000000+00:00</time></trkpt><trkpt lat="34.843733" lon="33.4076332"><ele>163.0</ele><time>2015-05-01T11:04:20.0000000+00:00</time></trkpt><trkpt lat="34.843803" lon="33.4076772"><ele>163.0</ele><time>2015-05-01T11:04:22.0000000+00:00</time></trkpt><trkpt lat="34.8438716" lon="33.4077152"><ele>163.0</ele><time>2015-05-01T11:04:24.0000000+00:00</time></trkpt><trkpt lat="34.843929" lon="33.4077743"><ele>162.5</ele><time>2015-05-01T11:04:26.0000000+00:00</time></trkpt><trkpt lat="34.8440048" lon="33.4078222"><ele>162.1</ele><time>2015-05-01T11:04:28.0000000+00:00</time></trkpt><trkpt lat="34.8440766" lon="33.4078528"><ele>162.8</ele><time>2015-05-01T11:04:30.0000000+00:00</time></trkpt><trkpt lat="34.844159" lon="33.4078912"><ele>163.0</ele><time>2015-05-01T11:04:32.0000000+00:00</time></trkpt><trkpt lat="34.8442006" lon="33.4079133"><ele>163.0</ele><time>2015-05-01T11:04:33.0000000+00:00</time></trkpt><trkpt lat="34.8442533" lon="33.4079347"><ele>163.0</ele><time>2015-05-01T11:04:34.0000000+00:00</time></trkpt><trkpt lat="34.8442984" lon="33.4079539"><ele>163.5</ele><time>2015-05-01T11:04:35.0000000+00:00</time></trkpt><trkpt lat="34.8443473" lon="33.4079737"><ele>163.8</ele><time>2015-05-01T11:04:36.0000000+00:00</time></trkpt><trkpt lat="34.8444316" lon="33.4079876"><ele>164.2</ele><time>2015-05-01T11:04:38.0000000+00:00</time></trkpt><trkpt lat="34.844479" lon="33.4079995"><ele>164.1</ele><time>2015-05-01T11:04:39.0000000+00:00</time></trkpt><trkpt lat="34.8445282" lon="33.4080078"><ele>164.1</ele><time>2015-05-01T11:04:40.0000000+00:00</time></trkpt><trkpt lat="34.8445759" lon="33.408012"><ele>164.0</ele><time>2015-05-01T11:04:41.0000000+00:00</time></trkpt><trkpt lat="34.8446219" lon="33.4080192"><ele>164.0</ele><time>2015-05-01T11:04:42.0000000+00:00</time></trkpt><trkpt lat="34.8446714" lon="33.4080224"><ele>164.5</ele><time>2015-05-01T11:04:43.0000000+00:00</time></trkpt><trkpt lat="34.8447197" lon="33.4080246"><ele>164.8</ele><time>2015-05-01T11:04:44.0000000+00:00</time></trkpt><trkpt lat="34.8447719" lon="33.408025"><ele>164.9</ele><time>2015-05-01T11:04:45.0000000+00:00</time></trkpt><trkpt lat="34.8448642" lon="33.4080258"><ele>165.0</ele><time>2015-05-01T11:04:47.0000000+00:00</time></trkpt><trkpt lat="34.8449499" lon="33.4080258"><ele>165.0</ele><time>2015-05-01T11:04:49.0000000+00:00</time></trkpt><trkpt lat="34.845032" lon="33.4080151"><ele>165.8</ele><time>2015-05-01T11:04:51.0000000+00:00</time></trkpt><trkpt lat="34.8451003" lon="33.408006"><ele>166.0</ele><time>2015-05-01T11:04:53.0000000+00:00</time></trkpt><trkpt lat="34.845164" lon="33.4080012"><ele>166.0</ele><time>2015-05-01T11:04:55.0000000+00:00</time></trkpt><trkpt lat="34.8452206" lon="33.4079944"><ele>166.0</ele><time>2015-05-01T11:04:57.0000000+00:00</time></trkpt><trkpt lat="34.8452744" lon="33.4079781"><ele>166.0</ele><time>2015-05-01T11:04:59.0000000+00:00</time></trkpt><trkpt lat="34.8453292" lon="33.4079624"><ele>166.0</ele><time>2015-05-01T11:05:01.0000000+00:00</time></trkpt><trkpt lat="34.8453813" lon="33.4079537"><ele>166.0</ele><time>2015-05-01T11:05:03.0000000+00:00</time></trkpt><trkpt lat="34.8454345" lon="33.407943"><ele>166.0</ele><time>2015-05-01T11:05:05.0000000+00:00</time></trkpt><trkpt lat="34.8454829" lon="33.4079322"><ele>166.8</ele><time>2015-05-01T11:05:07.0000000+00:00</time></trkpt><trkpt lat="34.84554" lon="33.4079153"><ele>167.0</ele><time>2015-05-01T11:05:10.0000000+00:00</time></trkpt><trkpt lat="34.8455981" lon="33.4078878"><ele>167.0</ele><time>2015-05-01T11:05:13.0000000+00:00</time></trkpt><trkpt lat="34.845648" lon="33.407852"><ele>166.3</ele><time>2015-05-01T11:05:16.0000000+00:00</time></trkpt><trkpt lat="34.8456999" lon="33.407824"><ele>167.0</ele><time>2015-05-01T11:05:21.0000000+00:00</time></trkpt><trkpt lat="34.8457537" lon="33.4077915"><ele>168.0</ele><time>2015-05-01T11:05:25.0000000+00:00</time></trkpt><trkpt lat="34.8457945" lon="33.4077629"><ele>168.0</ele><time>2015-05-01T11:05:28.0000000+00:00</time></trkpt><trkpt lat="34.8458364" lon="33.4077298"><ele>167.9</ele><time>2015-05-01T11:05:31.0000000+00:00</time></trkpt><trkpt lat="34.8458805" lon="33.4076992"><ele>168.8</ele><time>2015-05-01T11:05:34.0000000+00:00</time></trkpt><trkpt lat="34.8459248" lon="33.4076722"><ele>169.0</ele><time>2015-05-01T11:05:37.0000000+00:00</time></trkpt><trkpt lat="34.8459599" lon="33.4076309"><ele>168.3</ele><time>2015-05-01T11:05:40.0000000+00:00</time></trkpt><trkpt lat="34.8460012" lon="33.407595"><ele>168.9</ele><time>2015-05-01T11:05:43.0000000+00:00</time></trkpt><trkpt lat="34.8460425" lon="33.4075592"><ele>169.0</ele><time>2015-05-01T11:05:46.0000000+00:00</time></trkpt><trkpt lat="34.8460811" lon="33.4075202"><ele>169.9</ele><time>2015-05-01T11:05:49.0000000+00:00</time></trkpt><trkpt lat="34.8461191" lon="33.4074786"><ele>170.6</ele><time>2015-05-01T11:05:52.0000000+00:00</time></trkpt><trkpt lat="34.8461536" lon="33.4074313"><ele>171.0</ele><time>2015-05-01T11:05:55.0000000+00:00</time></trkpt><trkpt lat="34.8461943" lon="33.4073832"><ele>171.0</ele><time>2015-05-01T11:05:58.0000000+00:00</time></trkpt><trkpt lat="34.8462378" lon="33.4073372"><ele>171.9</ele><time>2015-05-01T11:06:01.0000000+00:00</time></trkpt><trkpt lat="34.8462736" lon="33.4072863"><ele>172.0</ele><time>2015-05-01T11:06:04.0000000+00:00</time></trkpt><trkpt lat="34.8463101" lon="33.4072385"><ele>172.9</ele><time>2015-05-01T11:06:07.0000000+00:00</time></trkpt><trkpt lat="34.8463461" lon="33.407192"><ele>173.8</ele><time>2015-05-01T11:06:10.0000000+00:00</time></trkpt><trkpt lat="34.8463732" lon="33.4071465"><ele>174.0</ele><time>2015-05-01T11:06:13.0000000+00:00</time></trkpt><trkpt lat="34.8464107" lon="33.4071"><ele>174.0</ele><time>2015-05-01T11:08:05.0000000+00:00</time></trkpt><trkpt lat="34.8464364" lon="33.4070378"><ele>173.8</ele><time>2015-05-01T11:08:12.0000000+00:00</time></trkpt><trkpt lat="34.8464683" lon="33.406994"><ele>174.0</ele><time>2015-05-01T11:08:15.0000000+00:00</time></trkpt><trkpt lat="34.8464978" lon="33.4069491"><ele>174.0</ele><time>2015-05-01T11:08:18.0000000+00:00</time></trkpt><trkpt lat="34.8465331" lon="33.4068921"><ele>174.0</ele><time>2015-05-01T11:08:22.0000000+00:00</time></trkpt><trkpt lat="34.8465678" lon="33.4068421"><ele>174.0</ele><time>2015-05-01T11:08:26.0000000+00:00</time></trkpt><trkpt lat="34.8466009" lon="33.4067939"><ele>175.9</ele><time>2015-05-01T11:08:47.0000000+00:00</time></trkpt><trkpt lat="34.8466386" lon="33.4067404"><ele>177.6</ele><time>2015-05-01T11:08:50.0000000+00:00</time></trkpt><trkpt lat="34.8466731" lon="33.4066821"><ele>178.8</ele><time>2015-05-01T11:08:53.0000000+00:00</time></trkpt><trkpt lat="34.8467086" lon="33.4066261"><ele>179.7</ele><time>2015-05-01T11:08:56.0000000+00:00</time></trkpt><trkpt lat="34.8467394" lon="33.4065665"><ele>180.0</ele><time>2015-05-01T11:08:59.0000000+00:00</time></trkpt><trkpt lat="34.846767" lon="33.4065105"><ele>180.0</ele><time>2015-05-01T11:09:02.0000000+00:00</time></trkpt><trkpt lat="34.8467981" lon="33.406461"><ele>180.0</ele><time>2015-05-01T11:09:05.0000000+00:00</time></trkpt><trkpt lat="34.8468302" lon="33.4064115"><ele>180.8</ele><time>2015-05-01T11:09:08.0000000+00:00</time></trkpt><trkpt lat="34.8468605" lon="33.4063578"><ele>181.0</ele><time>2015-05-01T11:09:11.0000000+00:00</time></trkpt><trkpt lat="34.8468904" lon="33.4063016"><ele>181.9</ele><time>2015-05-01T11:09:14.0000000+00:00</time></trkpt><trkpt lat="34.8469255" lon="33.4062443"><ele>182.8</ele><time>2015-05-01T11:09:17.0000000+00:00</time></trkpt><trkpt lat="34.8469594" lon="33.4061858"><ele>183.0</ele><time>2015-05-01T11:09:20.0000000+00:00</time></trkpt><trkpt lat="34.8469919" lon="33.4061266"><ele>183.0</ele><time>2015-05-01T11:09:23.0000000+00:00</time></trkpt><trkpt lat="34.8470259" lon="33.4060697"><ele>184.6</ele><time>2015-05-01T11:09:26.0000000+00:00</time></trkpt><trkpt lat="34.8470584" lon="33.4060122"><ele>185.0</ele><time>2015-05-01T11:09:29.0000000+00:00</time></trkpt><trkpt lat="34.847091" lon="33.4059579"><ele>185.8</ele><time>2015-05-01T11:09:32.0000000+00:00</time></trkpt><trkpt lat="34.8471188" lon="33.4059011"><ele>186.5</ele><time>2015-05-01T11:09:35.0000000+00:00</time></trkpt><trkpt lat="34.8471502" lon="33.4058463"><ele>187.0</ele><time>2015-05-01T11:09:38.0000000+00:00</time></trkpt><trkpt lat="34.8471804" lon="33.4057897"><ele>187.0</ele><time>2015-05-01T11:09:41.0000000+00:00</time></trkpt><trkpt lat="34.847211" lon="33.4057347"><ele>187.8</ele><time>2015-05-01T11:09:44.0000000+00:00</time></trkpt><trkpt lat="34.847238" lon="33.4056781"><ele>188.0</ele><time>2015-05-01T11:09:47.0000000+00:00</time></trkpt><trkpt lat="34.8472677" lon="33.4056217"><ele>188.0</ele><time>2015-05-01T11:09:50.0000000+00:00</time></trkpt><trkpt lat="34.8473039" lon="33.4055675"><ele>188.5</ele><time>2015-05-01T11:09:53.0000000+00:00</time></trkpt><trkpt lat="34.8473363" lon="33.4055108"><ele>189.0</ele><time>2015-05-01T11:09:56.0000000+00:00</time></trkpt><trkpt lat="34.8473668" lon="33.4054543"><ele>189.8</ele><time>2015-05-01T11:09:59.0000000+00:00</time></trkpt><trkpt lat="34.847394" lon="33.4054059"><ele>190.0</ele><time>2015-05-01T11:10:02.0000000+00:00</time></trkpt><trkpt lat="34.8474254" lon="33.4053502"><ele>191.0</ele><time>2015-05-01T11:10:06.0000000+00:00</time></trkpt><trkpt lat="34.847456" lon="33.405295"><ele>191.0</ele><time>2015-05-01T11:10:10.0000000+00:00</time></trkpt><trkpt lat="34.8474827" lon="33.4052323"><ele>191.0</ele><time>2015-05-01T11:10:14.0000000+00:00</time></trkpt><trkpt lat="34.8475149" lon="33.4051727"><ele>192.0</ele><time>2015-05-01T11:10:18.0000000+00:00</time></trkpt><trkpt lat="34.8475453" lon="33.405114"><ele>192.0</ele><time>2015-05-01T11:10:22.0000000+00:00</time></trkpt><trkpt lat="34.8475826" lon="33.4050616"><ele>192.0</ele><time>2015-05-01T11:10:26.0000000+00:00</time></trkpt><trkpt lat="34.8476117" lon="33.4050084"><ele>192.0</ele><time>2015-05-01T11:10:30.0000000+00:00</time></trkpt><trkpt lat="34.8476466" lon="33.4049589"><ele>191.3</ele><time>2015-05-01T11:10:34.0000000+00:00</time></trkpt><trkpt lat="34.8476781" lon="33.4049063"><ele>191.0</ele><time>2015-05-01T11:10:38.0000000+00:00</time></trkpt><trkpt lat="34.8477111" lon="33.4048543"><ele>191.0</ele><time>2015-05-01T11:10:42.0000000+00:00</time></trkpt><trkpt lat="34.847748" lon="33.4048086"><ele>191.0</ele><time>2015-05-01T11:10:46.0000000+00:00</time></trkpt><trkpt lat="34.8477701" lon="33.4047563"><ele>190.3</ele><time>2015-05-01T11:10:50.0000000+00:00</time></trkpt><trkpt lat="34.8477963" lon="33.4046972"><ele>191.0</ele><time>2015-05-01T11:10:54.0000000+00:00</time></trkpt><trkpt lat="34.8478226" lon="33.404651"><ele>191.0</ele><time>2015-05-01T11:10:57.0000000+00:00</time></trkpt><trkpt lat="34.8478511" lon="33.4046004"><ele>191.0</ele><time>2015-05-01T11:11:00.0000000+00:00</time></trkpt><trkpt lat="34.8478813" lon="33.404553"><ele>191.0</ele><time>2015-05-01T11:11:03.0000000+00:00</time></trkpt><trkpt lat="34.8479126" lon="33.4045066"><ele>191.0</ele><time>2015-05-01T11:11:06.0000000+00:00</time></trkpt><trkpt lat="34.8479405" lon="33.4044579"><ele>190.5</ele><time>2015-05-01T11:11:09.0000000+00:00</time></trkpt><trkpt lat="34.8479684" lon="33.4044108"><ele>190.6</ele><time>2015-05-01T11:11:12.0000000+00:00</time></trkpt><trkpt lat="34.8480054" lon="33.4043754"><ele>191.5</ele><time>2015-05-01T11:11:15.0000000+00:00</time></trkpt><trkpt lat="34.848044" lon="33.4043232"><ele>191.1</ele><time>2015-05-01T11:11:19.0000000+00:00</time></trkpt><trkpt lat="34.8480782" lon="33.4042682"><ele>191.0</ele><time>2015-05-01T11:11:23.0000000+00:00</time></trkpt><trkpt lat="34.848118" lon="33.4042155"><ele>191.5</ele><time>2015-05-01T11:11:27.0000000+00:00</time></trkpt><trkpt lat="34.8481579" lon="33.4041631"><ele>191.9</ele><time>2015-05-01T11:11:31.0000000+00:00</time></trkpt><trkpt lat="34.848192" lon="33.4041245"><ele>192.0</ele><time>2015-05-01T11:11:34.0000000+00:00</time></trkpt><trkpt lat="34.8482513" lon="33.4041112"><ele>192.8</ele><time>2015-05-01T11:11:37.0000000+00:00</time></trkpt><trkpt lat="34.8483007" lon="33.4040853"><ele>193.5</ele><time>2015-05-01T11:11:39.0000000+00:00</time></trkpt><trkpt lat="34.8483487" lon="33.4040543"><ele>194.4</ele><time>2015-05-01T11:11:41.0000000+00:00</time></trkpt><trkpt lat="34.8483913" lon="33.4040337"><ele>194.9</ele><time>2015-05-01T11:11:43.0000000+00:00</time></trkpt><trkpt lat="34.8484006" lon="33.4039723"><ele>193.1</ele><time>2015-05-01T11:12:50.0000000+00:00</time></trkpt><trkpt lat="34.8483869" lon="33.4039164"><ele>193.1</ele><time>2015-05-01T11:12:55.0000000+00:00</time></trkpt><trkpt lat="34.848388" lon="33.4038498"><ele>193.0</ele><time>2015-05-01T11:13:00.0000000+00:00</time></trkpt><trkpt lat="34.8484218" lon="33.4038107"><ele>192.3</ele><time>2015-05-01T11:13:08.0000000+00:00</time></trkpt><trkpt lat="34.8484684" lon="33.4037638"><ele>192.2</ele><time>2015-05-01T11:13:12.0000000+00:00</time></trkpt><trkpt lat="34.8485065" lon="33.4037112"><ele>193.4</ele><time>2015-05-01T11:13:15.0000000+00:00</time></trkpt><trkpt lat="34.8485502" lon="33.4036644"><ele>194.4</ele><time>2015-05-01T11:13:18.0000000+00:00</time></trkpt><trkpt lat="34.8485918" lon="33.4036228"><ele>195.7</ele><time>2015-05-01T11:13:21.0000000+00:00</time></trkpt><trkpt lat="34.8486287" lon="33.4035826"><ele>196.7</ele><time>2015-05-01T11:13:24.0000000+00:00</time></trkpt><trkpt lat="34.8486627" lon="33.4035465"><ele>197.7</ele><time>2015-05-01T11:13:27.0000000+00:00</time></trkpt><trkpt lat="34.8487003" lon="33.4035155"><ele>198.0</ele><time>2015-05-01T11:13:30.0000000+00:00</time></trkpt><trkpt lat="34.8487345" lon="33.4034752"><ele>198.8</ele><time>2015-05-01T11:13:33.0000000+00:00</time></trkpt><trkpt lat="34.8487733" lon="33.4034339"><ele>199.5</ele><time>2015-05-01T11:13:36.0000000+00:00</time></trkpt><trkpt lat="34.8488143" lon="33.4033954"><ele>200.0</ele><time>2015-05-01T11:13:39.0000000+00:00</time></trkpt><trkpt lat="34.8488515" lon="33.4033516"><ele>200.9</ele><time>2015-05-01T11:13:42.0000000+00:00</time></trkpt><trkpt lat="34.848887" lon="33.4033027"><ele>201.0</ele><time>2015-05-01T11:13:45.0000000+00:00</time></trkpt><trkpt lat="34.8489285" lon="33.4032552"><ele>201.9</ele><time>2015-05-01T11:13:48.0000000+00:00</time></trkpt><trkpt lat="34.8489622" lon="33.4032088"><ele>202.5</ele><time>2015-05-01T11:13:50.0000000+00:00</time></trkpt><trkpt lat="34.849007" lon="33.4031566"><ele>203.0</ele><time>2015-05-01T11:13:53.0000000+00:00</time></trkpt><trkpt lat="34.849044" lon="33.4031077"><ele>203.9</ele><time>2015-05-01T11:13:57.0000000+00:00</time></trkpt><trkpt lat="34.8490807" lon="33.4030526"><ele>204.0</ele><time>2015-05-01T11:14:00.0000000+00:00</time></trkpt><trkpt lat="34.8491182" lon="33.403004"><ele>204.9</ele><time>2015-05-01T11:14:03.0000000+00:00</time></trkpt><trkpt lat="34.8491548" lon="33.4029498"><ele>205.0</ele><time>2015-05-01T11:14:06.0000000+00:00</time></trkpt><trkpt lat="34.8491836" lon="33.4029026"><ele>205.0</ele><time>2015-05-01T11:14:08.0000000+00:00</time></trkpt><trkpt lat="34.8492113" lon="33.4028593"><ele>205.8</ele><time>2015-05-01T11:14:10.0000000+00:00</time></trkpt><trkpt lat="34.8492363" lon="33.4028127"><ele>206.0</ele><time>2015-05-01T11:14:12.0000000+00:00</time></trkpt><trkpt lat="34.8492644" lon="33.4027588"><ele>206.0</ele><time>2015-05-01T11:14:15.0000000+00:00</time></trkpt><trkpt lat="34.849292" lon="33.4027038"><ele>206.0</ele><time>2015-05-01T11:14:18.0000000+00:00</time></trkpt><trkpt lat="34.8493241" lon="33.4026427"><ele>206.0</ele><time>2015-05-01T11:14:21.0000000+00:00</time></trkpt><trkpt lat="34.849359" lon="33.4025812"><ele>206.0</ele><time>2015-05-01T11:14:24.0000000+00:00</time></trkpt><trkpt lat="34.849396" lon="33.4025129"><ele>206.9</ele><time>2015-05-01T11:14:27.0000000+00:00</time></trkpt><trkpt lat="34.8494246" lon="33.4024541"><ele>207.0</ele><time>2015-05-01T11:14:29.0000000+00:00</time></trkpt><trkpt lat="34.8494486" lon="33.4024001"><ele>207.0</ele><time>2015-05-01T11:14:31.0000000+00:00</time></trkpt><trkpt lat="34.8494719" lon="33.4023464"><ele>207.0</ele><time>2015-05-01T11:14:33.0000000+00:00</time></trkpt><trkpt lat="34.8494977" lon="33.402297"><ele>207.5</ele><time>2015-05-01T11:14:35.0000000+00:00</time></trkpt><trkpt lat="34.8495238" lon="33.4022445"><ele>207.9</ele><time>2015-05-01T11:14:37.0000000+00:00</time></trkpt><trkpt lat="34.8495463" lon="33.402192"><ele>208.0</ele><time>2015-05-01T11:14:39.0000000+00:00</time></trkpt><trkpt lat="34.8495748" lon="33.4021413"><ele>208.8</ele><time>2015-05-01T11:14:41.0000000+00:00</time></trkpt><trkpt lat="34.8496017" lon="33.4020926"><ele>209.0</ele><time>2015-05-01T11:14:43.0000000+00:00</time></trkpt><trkpt lat="34.8496272" lon="33.4020399"><ele>209.0</ele><time>2015-05-01T11:14:45.0000000+00:00</time></trkpt><trkpt lat="34.849654" lon="33.4019893"><ele>209.0</ele><time>2015-05-01T11:14:47.0000000+00:00</time></trkpt><trkpt lat="34.8496828" lon="33.401937"><ele>209.8</ele><time>2015-05-01T11:14:49.0000000+00:00</time></trkpt><trkpt lat="34.8497112" lon="33.4018847"><ele>210.7</ele><time>2015-05-01T11:14:51.0000000+00:00</time></trkpt><trkpt lat="34.8497397" lon="33.4018295"><ele>211.7</ele><time>2015-05-01T11:14:53.0000000+00:00</time></trkpt><trkpt lat="34.8497655" lon="33.4017744"><ele>211.9</ele><time>2015-05-01T11:14:55.0000000+00:00</time></trkpt><trkpt lat="34.849794" lon="33.4017195"><ele>212.5</ele><time>2015-05-01T11:14:57.0000000+00:00</time></trkpt><trkpt lat="34.8498221" lon="33.4016686"><ele>212.9</ele><time>2015-05-01T11:14:59.0000000+00:00</time></trkpt><trkpt lat="34.8498475" lon="33.401619"><ele>213.0</ele><time>2015-05-01T11:15:01.0000000+00:00</time></trkpt><trkpt lat="34.8498716" lon="33.4015614"><ele>213.9</ele><time>2015-05-01T11:15:04.0000000+00:00</time></trkpt><trkpt lat="34.8499027" lon="33.4015031"><ele>214.8</ele><time>2015-05-01T11:15:07.0000000+00:00</time></trkpt><trkpt lat="34.8499329" lon="33.4014396"><ele>215.0</ele><time>2015-05-01T11:15:10.0000000+00:00</time></trkpt><trkpt lat="34.8499646" lon="33.4013742"><ele>215.0</ele><time>2015-05-01T11:15:13.0000000+00:00</time></trkpt><trkpt lat="34.8499961" lon="33.4013104"><ele>215.0</ele><time>2015-05-01T11:15:16.0000000+00:00</time></trkpt><trkpt lat="34.8500268" lon="33.4012495"><ele>215.9</ele><time>2015-05-01T11:15:19.0000000+00:00</time></trkpt><trkpt lat="34.8500643" lon="33.4011926"><ele>216.0</ele><time>2015-05-01T11:15:22.0000000+00:00</time></trkpt><trkpt lat="34.8500962" lon="33.4011272"><ele>216.0</ele><time>2015-05-01T11:15:25.0000000+00:00</time></trkpt><trkpt lat="34.8501268" lon="33.4010589"><ele>216.8</ele><time>2015-05-01T11:15:28.0000000+00:00</time></trkpt><trkpt lat="34.8501558" lon="33.4009886"><ele>217.0</ele><time>2015-05-01T11:15:31.0000000+00:00</time></trkpt><trkpt lat="34.8501806" lon="33.400942"><ele>217.0</ele><time>2015-05-01T11:15:33.0000000+00:00</time></trkpt><trkpt lat="34.8502041" lon="33.400895"><ele>217.0</ele><time>2015-05-01T11:15:35.0000000+00:00</time></trkpt><trkpt lat="34.8502267" lon="33.4008451"><ele>217.8</ele><time>2015-05-01T11:15:37.0000000+00:00</time></trkpt><trkpt lat="34.8502512" lon="33.4007952"><ele>218.0</ele><time>2015-05-01T11:15:39.0000000+00:00</time></trkpt><trkpt lat="34.8502831" lon="33.4007371"><ele>218.0</ele><time>2015-05-01T11:15:41.0000000+00:00</time></trkpt><trkpt lat="34.850315" lon="33.4006893"><ele>218.9</ele><time>2015-05-01T11:15:44.0000000+00:00</time></trkpt><trkpt lat="34.8503404" lon="33.4006343"><ele>218.3</ele><time>2015-05-01T11:15:48.0000000+00:00</time></trkpt><trkpt lat="34.8503762" lon="33.400575"><ele>218.9</ele><time>2015-05-01T11:15:51.0000000+00:00</time></trkpt><trkpt lat="34.8504068" lon="33.4005098"><ele>219.0</ele><time>2015-05-01T11:15:54.0000000+00:00</time></trkpt><trkpt lat="34.8504407" lon="33.4004412"><ele>219.0</ele><time>2015-05-01T11:15:57.0000000+00:00</time></trkpt><trkpt lat="34.8504672" lon="33.4003894"><ele>219.0</ele><time>2015-05-01T11:16:00.0000000+00:00</time></trkpt><trkpt lat="34.8504963" lon="33.4003326"><ele>219.0</ele><time>2015-05-01T11:16:04.0000000+00:00</time></trkpt><trkpt lat="34.8505211" lon="33.4002826"><ele>219.0</ele><time>2015-05-01T11:16:07.0000000+00:00</time></trkpt><trkpt lat="34.8505464" lon="33.400228"><ele>219.0</ele><time>2015-05-01T11:16:10.0000000+00:00</time></trkpt><trkpt lat="34.8505768" lon="33.4001705"><ele>219.0</ele><time>2015-05-01T11:16:13.0000000+00:00</time></trkpt><trkpt lat="34.8506082" lon="33.4001106"><ele>219.0</ele><time>2015-05-01T11:16:16.0000000+00:00</time></trkpt><trkpt lat="34.850636" lon="33.4000465"><ele>219.0</ele><time>2015-05-01T11:16:19.0000000+00:00</time></trkpt><trkpt lat="34.8506641" lon="33.3999828"><ele>219.0</ele><time>2015-05-01T11:16:22.0000000+00:00</time></trkpt><trkpt lat="34.8506892" lon="33.3999164"><ele>219.5</ele><time>2015-05-01T11:16:25.0000000+00:00</time></trkpt><trkpt lat="34.8507201" lon="33.3998582"><ele>219.7</ele><time>2015-05-01T11:16:28.0000000+00:00</time></trkpt><trkpt lat="34.8507419" lon="33.3997947"><ele>220.0</ele><time>2015-05-01T11:16:31.0000000+00:00</time></trkpt><trkpt lat="34.8507697" lon="33.399732"><ele>220.0</ele><time>2015-05-01T11:16:34.0000000+00:00</time></trkpt><trkpt lat="34.8508013" lon="33.3996711"><ele>220.0</ele><time>2015-05-01T11:16:37.0000000+00:00</time></trkpt><trkpt lat="34.8508392" lon="33.3996158"><ele>220.0</ele><time>2015-05-01T11:16:40.0000000+00:00</time></trkpt><trkpt lat="34.8508683" lon="33.3995408"><ele>220.5</ele><time>2015-05-01T11:16:43.0000000+00:00</time></trkpt><trkpt lat="34.8508924" lon="33.3994817"><ele>220.9</ele><time>2015-05-01T11:16:45.0000000+00:00</time></trkpt><trkpt lat="34.8509139" lon="33.3994322"><ele>221.0</ele><time>2015-05-01T11:16:47.0000000+00:00</time></trkpt><trkpt lat="34.8509473" lon="33.3993642"><ele>221.0</ele><time>2015-05-01T11:16:50.0000000+00:00</time></trkpt><trkpt lat="34.8509717" lon="33.3993167"><ele>221.0</ele><time>2015-05-01T11:16:52.0000000+00:00</time></trkpt><trkpt lat="34.8509966" lon="33.3992692"><ele>221.8</ele><time>2015-05-01T11:16:54.0000000+00:00</time></trkpt><trkpt lat="34.8510229" lon="33.399218"><ele>222.0</ele><time>2015-05-01T11:16:56.0000000+00:00</time></trkpt><trkpt lat="34.8510518" lon="33.3991697"><ele>222.0</ele><time>2015-05-01T11:16:58.0000000+00:00</time></trkpt><trkpt lat="34.8510814" lon="33.399119"><ele>222.8</ele><time>2015-05-01T11:17:00.0000000+00:00</time></trkpt><trkpt lat="34.8511096" lon="33.3990684"><ele>223.0</ele><time>2015-05-01T11:17:02.0000000+00:00</time></trkpt><trkpt lat="34.8511368" lon="33.3990152"><ele>223.0</ele><time>2015-05-01T11:17:04.0000000+00:00</time></trkpt><trkpt lat="34.8511663" lon="33.3989665"><ele>223.5</ele><time>2015-05-01T11:17:06.0000000+00:00</time></trkpt><trkpt lat="34.8511968" lon="33.3989159"><ele>223.9</ele><time>2015-05-01T11:17:08.0000000+00:00</time></trkpt><trkpt lat="34.8512279" lon="33.3988677"><ele>224.0</ele><time>2015-05-01T11:17:10.0000000+00:00</time></trkpt><trkpt lat="34.8512608" lon="33.3988178"><ele>224.5</ele><time>2015-05-01T11:17:12.0000000+00:00</time></trkpt><trkpt lat="34.8512905" lon="33.3987681"><ele>224.9</ele><time>2015-05-01T11:17:14.0000000+00:00</time></trkpt><trkpt lat="34.8513228" lon="33.3987194"><ele>225.0</ele><time>2015-05-01T11:17:16.0000000+00:00</time></trkpt><trkpt lat="34.8513523" lon="33.3986726"><ele>225.5</ele><time>2015-05-01T11:17:18.0000000+00:00</time></trkpt><trkpt lat="34.8513806" lon="33.3986169"><ele>226.0</ele><time>2015-05-01T11:17:22.0000000+00:00</time></trkpt><trkpt lat="34.8514148" lon="33.3985705"><ele>226.0</ele><time>2015-05-01T11:17:25.0000000+00:00</time></trkpt><trkpt lat="34.851459" lon="33.39851"><ele>226.0</ele><time>2015-05-01T11:17:28.0000000+00:00</time></trkpt><trkpt lat="34.8515014" lon="33.3984464"><ele>226.8</ele><time>2015-05-01T11:17:31.0000000+00:00</time></trkpt><trkpt lat="34.8515363" lon="33.3984066"><ele>227.5</ele><time>2015-05-01T11:17:33.0000000+00:00</time></trkpt><trkpt lat="34.8515663" lon="33.3983636"><ele>227.9</ele><time>2015-05-01T11:17:35.0000000+00:00</time></trkpt><trkpt lat="34.8516008" lon="33.3983233"><ele>228.0</ele><time>2015-05-01T11:17:37.0000000+00:00</time></trkpt><trkpt lat="34.8516327" lon="33.398283"><ele>228.5</ele><time>2015-05-01T11:17:39.0000000+00:00</time></trkpt><trkpt lat="34.8516643" lon="33.398239"><ele>228.9</ele><time>2015-05-01T11:17:41.0000000+00:00</time></trkpt><trkpt lat="34.851713" lon="33.3981817"><ele>229.5</ele><time>2015-05-01T11:17:44.0000000+00:00</time></trkpt><trkpt lat="34.8517548" lon="33.3981232"><ele>230.0</ele><time>2015-05-01T11:17:47.0000000+00:00</time></trkpt><trkpt lat="34.8517987" lon="33.3980787"><ele>229.8</ele><time>2015-05-01T11:17:51.0000000+00:00</time></trkpt><trkpt lat="34.8518416" lon="33.3980509"><ele>230.0</ele><time>2015-05-01T11:17:54.0000000+00:00</time></trkpt><trkpt lat="34.8518708" lon="33.397999"><ele>230.3</ele><time>2015-05-01T11:17:57.0000000+00:00</time></trkpt><trkpt lat="34.8519026" lon="33.3979483"><ele>230.7</ele><time>2015-05-01T11:18:00.0000000+00:00</time></trkpt><trkpt lat="34.8519455" lon="33.3978982"><ele>231.0</ele><time>2015-05-01T11:18:03.0000000+00:00</time></trkpt><trkpt lat="34.851987" lon="33.397837"><ele>231.5</ele><time>2015-05-01T11:18:06.0000000+00:00</time></trkpt><trkpt lat="34.8520289" lon="33.3977899"><ele>231.8</ele><time>2015-05-01T11:18:09.0000000+00:00</time></trkpt><trkpt lat="34.8520689" lon="33.3977389"><ele>231.9</ele><time>2015-05-01T11:18:13.0000000+00:00</time></trkpt><trkpt lat="34.8521001" lon="33.397696"><ele>232.0</ele><time>2015-05-01T11:18:16.0000000+00:00</time></trkpt><trkpt lat="34.8521454" lon="33.3976567"><ele>232.5</ele><time>2015-05-01T11:18:19.0000000+00:00</time></trkpt><trkpt lat="34.8521903" lon="33.3976046"><ele>233.0</ele><time>2015-05-01T11:18:22.0000000+00:00</time></trkpt><trkpt lat="34.8522301" lon="33.3975603"><ele>233.6</ele><time>2015-05-01T11:18:25.0000000+00:00</time></trkpt><trkpt lat="34.8522715" lon="33.3975146"><ele>234.0</ele><time>2015-05-01T11:18:28.0000000+00:00</time></trkpt><trkpt lat="34.8523136" lon="33.3974682"><ele>235.4</ele><time>2015-05-01T11:18:31.0000000+00:00</time></trkpt><trkpt lat="34.8523536" lon="33.3974198"><ele>235.9</ele><time>2015-05-01T11:18:34.0000000+00:00</time></trkpt><trkpt lat="34.8523925" lon="33.3973784"><ele>236.9</ele><time>2015-05-01T11:18:37.0000000+00:00</time></trkpt><trkpt lat="34.8524349" lon="33.3973398"><ele>237.5</ele><time>2015-05-01T11:18:40.0000000+00:00</time></trkpt><trkpt lat="34.8524775" lon="33.3972985"><ele>238.2</ele><time>2015-05-01T11:18:43.0000000+00:00</time></trkpt><trkpt lat="34.8525207" lon="33.3972592"><ele>238.9</ele><time>2015-05-01T11:18:46.0000000+00:00</time></trkpt><trkpt lat="34.8525634" lon="33.3972073"><ele>239.9</ele><time>2015-05-01T11:18:49.0000000+00:00</time></trkpt><trkpt lat="34.8526099" lon="33.3971722"><ele>240.0</ele><time>2015-05-01T11:18:52.0000000+00:00</time></trkpt><trkpt lat="34.8526506" lon="33.397125"><ele>240.8</ele><time>2015-05-01T11:18:56.0000000+00:00</time></trkpt><trkpt lat="34.8526841" lon="33.3970838"><ele>241.0</ele><time>2015-05-01T11:18:59.0000000+00:00</time></trkpt><trkpt lat="34.8527236" lon="33.3970508"><ele>241.0</ele><time>2015-05-01T11:19:02.0000000+00:00</time></trkpt><trkpt lat="34.8527656" lon="33.3970136"><ele>241.9</ele><time>2015-05-01T11:19:05.0000000+00:00</time></trkpt><trkpt lat="34.8528073" lon="33.3969702"><ele>242.0</ele><time>2015-05-01T11:19:08.0000000+00:00</time></trkpt><trkpt lat="34.8528489" lon="33.3969288"><ele>242.0</ele><time>2015-05-01T11:19:11.0000000+00:00</time></trkpt><trkpt lat="34.8528938" lon="33.3968861"><ele>242.0</ele><time>2015-05-01T11:19:14.0000000+00:00</time></trkpt><trkpt lat="34.8529419" lon="33.3968457"><ele>242.0</ele><time>2015-05-01T11:19:17.0000000+00:00</time></trkpt><trkpt lat="34.8529883" lon="33.3968055"><ele>242.0</ele><time>2015-05-01T11:19:20.0000000+00:00</time></trkpt><trkpt lat="34.8530291" lon="33.3967583"><ele>242.9</ele><time>2015-05-01T11:19:23.0000000+00:00</time></trkpt><trkpt lat="34.8530656" lon="33.3967261"><ele>243.0</ele><time>2015-05-01T11:19:25.0000000+00:00</time></trkpt><trkpt lat="34.8531031" lon="33.3966904"><ele>243.0</ele><time>2015-05-01T11:19:27.0000000+00:00</time></trkpt><trkpt lat="34.8531458" lon="33.3966504"><ele>243.0</ele><time>2015-05-01T11:19:29.0000000+00:00</time></trkpt><trkpt lat="34.8531966" lon="33.3966095"><ele>243.8</ele><time>2015-05-01T11:19:31.0000000+00:00</time></trkpt><trkpt lat="34.8532495" lon="33.3965705"><ele>243.7</ele><time>2015-05-01T11:19:33.0000000+00:00</time></trkpt><trkpt lat="34.8532993" lon="33.3965311"><ele>244.4</ele><time>2015-05-01T11:19:35.0000000+00:00</time></trkpt><trkpt lat="34.8533438" lon="33.3964927"><ele>245.4</ele><time>2015-05-01T11:19:37.0000000+00:00</time></trkpt><trkpt lat="34.8533979" lon="33.3964479"><ele>246.4</ele><time>2015-05-01T11:19:40.0000000+00:00</time></trkpt><trkpt lat="34.8534526" lon="33.3964072"><ele>247.4</ele><time>2015-05-01T11:19:43.0000000+00:00</time></trkpt><trkpt lat="34.8534916" lon="33.3963793"><ele>247.9</ele><time>2015-05-01T11:19:45.0000000+00:00</time></trkpt><trkpt lat="34.8535291" lon="33.3963483"><ele>248.7</ele><time>2015-05-01T11:19:47.0000000+00:00</time></trkpt><trkpt lat="34.8535816" lon="33.3963001"><ele>249.5</ele><time>2015-05-01T11:19:50.0000000+00:00</time></trkpt><trkpt lat="34.85362" lon="33.396271"><ele>249.9</ele><time>2015-05-01T11:19:52.0000000+00:00</time></trkpt><trkpt lat="34.8536597" lon="33.3962448"><ele>250.7</ele><time>2015-05-01T11:19:54.0000000+00:00</time></trkpt><trkpt lat="34.8537107" lon="33.396201"><ele>250.1</ele><time>2015-05-01T11:19:57.0000000+00:00</time></trkpt><trkpt lat="34.8537474" lon="33.3961668"><ele>251.0</ele><time>2015-05-01T11:20:01.0000000+00:00</time></trkpt><trkpt lat="34.8537853" lon="33.3961364"><ele>251.0</ele><time>2015-05-01T11:20:04.0000000+00:00</time></trkpt><trkpt lat="34.8538249" lon="33.3961104"><ele>251.0</ele><time>2015-05-01T11:20:06.0000000+00:00</time></trkpt><trkpt lat="34.8538666" lon="33.3960843"><ele>251.0</ele><time>2015-05-01T11:20:08.0000000+00:00</time></trkpt><trkpt lat="34.8539229" lon="33.3960399"><ele>251.0</ele><time>2015-05-01T11:20:11.0000000+00:00</time></trkpt><trkpt lat="34.8539797" lon="33.3959966"><ele>251.0</ele><time>2015-05-01T11:20:14.0000000+00:00</time></trkpt><trkpt lat="34.8540192" lon="33.3959701"><ele>251.5</ele><time>2015-05-01T11:20:16.0000000+00:00</time></trkpt><trkpt lat="34.8540634" lon="33.3959395"><ele>252.0</ele><time>2015-05-01T11:20:20.0000000+00:00</time></trkpt><trkpt lat="34.8541205" lon="33.3959125"><ele>250.5</ele><time>2015-05-01T11:22:11.0000000+00:00</time></trkpt><trkpt lat="34.8541668" lon="33.3958821"><ele>251.6</ele><time>2015-05-01T11:22:13.0000000+00:00</time></trkpt><trkpt lat="34.854213" lon="33.3958514"><ele>251.9</ele><time>2015-05-01T11:22:15.0000000+00:00</time></trkpt><trkpt lat="34.8542647" lon="33.3958265"><ele>252.0</ele><time>2015-05-01T11:22:17.0000000+00:00</time></trkpt><trkpt lat="34.8543163" lon="33.3958038"><ele>252.0</ele><time>2015-05-01T11:22:19.0000000+00:00</time></trkpt><trkpt lat="34.8543671" lon="33.3957795"><ele>252.0</ele><time>2015-05-01T11:22:21.0000000+00:00</time></trkpt><trkpt lat="34.8544143" lon="33.3957549"><ele>252.5</ele><time>2015-05-01T11:22:23.0000000+00:00</time></trkpt><trkpt lat="34.8544612" lon="33.3957274"><ele>252.9</ele><time>2015-05-01T11:22:25.0000000+00:00</time></trkpt><trkpt lat="34.8545055" lon="33.3957016"><ele>253.0</ele><time>2015-05-01T11:22:27.0000000+00:00</time></trkpt><trkpt lat="34.8545506" lon="33.3956728"><ele>253.0</ele><time>2015-05-01T11:22:29.0000000+00:00</time></trkpt><trkpt lat="34.8545947" lon="33.3956453"><ele>253.0</ele><time>2015-05-01T11:22:31.0000000+00:00</time></trkpt><trkpt lat="34.8546369" lon="33.395616"><ele>252.8</ele><time>2015-05-01T11:22:33.0000000+00:00</time></trkpt><trkpt lat="34.8546799" lon="33.3955911"><ele>253.7</ele><time>2015-05-01T11:22:35.0000000+00:00</time></trkpt><trkpt lat="34.8547239" lon="33.3955658"><ele>253.9</ele><time>2015-05-01T11:22:37.0000000+00:00</time></trkpt><trkpt lat="34.8547739" lon="33.395542"><ele>254.8</ele><time>2015-05-01T11:22:41.0000000+00:00</time></trkpt><trkpt lat="34.8548263" lon="33.3955203"><ele>256.2</ele><time>2015-05-01T11:22:44.0000000+00:00</time></trkpt><trkpt lat="34.8548889" lon="33.3954845"><ele>257.4</ele><time>2015-05-01T11:22:47.0000000+00:00</time></trkpt><trkpt lat="34.8549475" lon="33.395454"><ele>258.6</ele><time>2015-05-01T11:22:49.0000000+00:00</time></trkpt><trkpt lat="34.8549954" lon="33.3954261"><ele>258.9</ele><time>2015-05-01T11:22:51.0000000+00:00</time></trkpt><trkpt lat="34.8550448" lon="33.3954033"><ele>260.0</ele><time>2015-05-01T11:22:53.0000000+00:00</time></trkpt><trkpt lat="34.855091" lon="33.3953835"><ele>261.5</ele><time>2015-05-01T11:22:55.0000000+00:00</time></trkpt><trkpt lat="34.8551399" lon="33.3953637"><ele>261.1</ele><time>2015-05-01T11:22:57.0000000+00:00</time></trkpt><trkpt lat="34.8551863" lon="33.3953492"><ele>260.3</ele><time>2015-05-01T11:22:59.0000000+00:00</time></trkpt><trkpt lat="34.855235" lon="33.3953173"><ele>260.8</ele><time>2015-05-01T11:23:02.0000000+00:00</time></trkpt><trkpt lat="34.8552775" lon="33.3952957"><ele>262.2</ele><time>2015-05-01T11:23:04.0000000+00:00</time></trkpt><trkpt lat="34.8553294" lon="33.3952725"><ele>263.1</ele><time>2015-05-01T11:23:06.0000000+00:00</time></trkpt><trkpt lat="34.8553849" lon="33.3952458"><ele>262.5</ele><time>2015-05-01T11:23:08.0000000+00:00</time></trkpt><trkpt lat="34.8554358" lon="33.3952171"><ele>262.6</ele><time>2015-05-01T11:23:10.0000000+00:00</time></trkpt><trkpt lat="34.8554843" lon="33.3951864"><ele>262.9</ele><time>2015-05-01T11:23:12.0000000+00:00</time></trkpt><trkpt lat="34.8555325" lon="33.3951636"><ele>263.2</ele><time>2015-05-01T11:23:14.0000000+00:00</time></trkpt><trkpt lat="34.8555846" lon="33.3951398"><ele>263.1</ele><time>2015-05-01T11:23:16.0000000+00:00</time></trkpt><trkpt lat="34.8556354" lon="33.3951196"><ele>263.3</ele><time>2015-05-01T11:23:18.0000000+00:00</time></trkpt><trkpt lat="34.8556884" lon="33.3950988"><ele>263.1</ele><time>2015-05-01T11:23:20.0000000+00:00</time></trkpt><trkpt lat="34.8557421" lon="33.3950812"><ele>264.3</ele><time>2015-05-01T11:23:22.0000000+00:00</time></trkpt><trkpt lat="34.8557981" lon="33.3950639"><ele>266.1</ele><time>2015-05-01T11:23:24.0000000+00:00</time></trkpt><trkpt lat="34.8558533" lon="33.3950504"><ele>267.8</ele><time>2015-05-01T11:23:26.0000000+00:00</time></trkpt><trkpt lat="34.8559113" lon="33.3950315"><ele>269.7</ele><time>2015-05-01T11:23:28.0000000+00:00</time></trkpt><trkpt lat="34.8559687" lon="33.3950115"><ele>269.9</ele><time>2015-05-01T11:23:30.0000000+00:00</time></trkpt><trkpt lat="34.8560284" lon="33.3949893"><ele>270.5</ele><time>2015-05-01T11:23:32.0000000+00:00</time></trkpt><trkpt lat="34.8560875" lon="33.3949704"><ele>270.9</ele><time>2015-05-01T11:23:34.0000000+00:00</time></trkpt><trkpt lat="34.8561463" lon="33.3949503"><ele>271.7</ele><time>2015-05-01T11:23:36.0000000+00:00</time></trkpt><trkpt lat="34.8562014" lon="33.3949326"><ele>272.5</ele><time>2015-05-01T11:23:38.0000000+00:00</time></trkpt><trkpt lat="34.8562581" lon="33.3949131"><ele>272.9</ele><time>2015-05-01T11:23:40.0000000+00:00</time></trkpt><trkpt lat="34.8563123" lon="33.394891"><ele>273.7</ele><time>2015-05-01T11:23:42.0000000+00:00</time></trkpt><trkpt lat="34.8563683" lon="33.394872"><ele>275.2</ele><time>2015-05-01T11:23:44.0000000+00:00</time></trkpt><trkpt lat="34.8564215" lon="33.3948524"><ele>276.3</ele><time>2015-05-01T11:23:46.0000000+00:00</time></trkpt><trkpt lat="34.8564773" lon="33.3948335"><ele>277.6</ele><time>2015-05-01T11:23:48.0000000+00:00</time></trkpt><trkpt lat="34.8565322" lon="33.3948173"><ele>278.4</ele><time>2015-05-01T11:23:50.0000000+00:00</time></trkpt><trkpt lat="34.856591" lon="33.3948012"><ele>278.1</ele><time>2015-05-01T11:23:52.0000000+00:00</time></trkpt><trkpt lat="34.8566491" lon="33.3947854"><ele>279.3</ele><time>2015-05-01T11:23:54.0000000+00:00</time></trkpt><trkpt lat="34.8567103" lon="33.3947692"><ele>279.3</ele><time>2015-05-01T11:23:56.0000000+00:00</time></trkpt><trkpt lat="34.8567702" lon="33.3947545"><ele>279.1</ele><time>2015-05-01T11:23:58.0000000+00:00</time></trkpt><trkpt lat="34.8568307" lon="33.3947429"><ele>279.5</ele><time>2015-05-01T11:24:00.0000000+00:00</time></trkpt><trkpt lat="34.8568884" lon="33.3947353"><ele>279.9</ele><time>2015-05-01T11:24:02.0000000+00:00</time></trkpt><trkpt lat="34.8569477" lon="33.3947223"><ele>280.0</ele><time>2015-05-01T11:24:04.0000000+00:00</time></trkpt><trkpt lat="34.8570055" lon="33.3947112"><ele>279.5</ele><time>2015-05-01T11:24:06.0000000+00:00</time></trkpt><trkpt lat="34.857057" lon="33.3947028"><ele>278.6</ele><time>2015-05-01T11:24:08.0000000+00:00</time></trkpt><trkpt lat="34.857107" lon="33.3946877"><ele>278.2</ele><time>2015-05-01T11:24:11.0000000+00:00</time></trkpt><trkpt lat="34.857166" lon="33.3946757"><ele>278.0</ele><time>2015-05-01T11:24:14.0000000+00:00</time></trkpt><trkpt lat="34.8572116" lon="33.3946666"><ele>278.0</ele><time>2015-05-01T11:24:16.0000000+00:00</time></trkpt><trkpt lat="34.857257" lon="33.3946565"><ele>278.0</ele><time>2015-05-01T11:24:18.0000000+00:00</time></trkpt><trkpt lat="34.8573053" lon="33.394649"><ele>278.0</ele><time>2015-05-01T11:24:20.0000000+00:00</time></trkpt><trkpt lat="34.8573544" lon="33.3946419"><ele>278.0</ele><time>2015-05-01T11:24:22.0000000+00:00</time></trkpt><trkpt lat="34.8574059" lon="33.3946316"><ele>278.5</ele><time>2015-05-01T11:24:24.0000000+00:00</time></trkpt><trkpt lat="34.8574561" lon="33.3946225"><ele>278.9</ele><time>2015-05-01T11:24:26.0000000+00:00</time></trkpt><trkpt lat="34.8575077" lon="33.3946144"><ele>279.7</ele><time>2015-05-01T11:24:28.0000000+00:00</time></trkpt><trkpt lat="34.8575646" lon="33.3946041"><ele>280.7</ele><time>2015-05-01T11:24:30.0000000+00:00</time></trkpt><trkpt lat="34.8576238" lon="33.394595"><ele>281.7</ele><time>2015-05-01T11:24:32.0000000+00:00</time></trkpt><trkpt lat="34.8576802" lon="33.3945818"><ele>281.9</ele><time>2015-05-01T11:24:34.0000000+00:00</time></trkpt><trkpt lat="34.8577391" lon="33.3945696"><ele>282.0</ele><time>2015-05-01T11:24:36.0000000+00:00</time></trkpt><trkpt lat="34.8577971" lon="33.3945584"><ele>283.3</ele><time>2015-05-01T11:24:38.0000000+00:00</time></trkpt><trkpt lat="34.857855" lon="33.3945481"><ele>283.8</ele><time>2015-05-01T11:24:40.0000000+00:00</time></trkpt><trkpt lat="34.8579129" lon="33.3945424"><ele>283.2</ele><time>2015-05-01T11:24:42.0000000+00:00</time></trkpt><trkpt lat="34.8579737" lon="33.3945374"><ele>283.1</ele><time>2015-05-01T11:24:44.0000000+00:00</time></trkpt><trkpt lat="34.8580267" lon="33.3945362"><ele>283.5</ele><time>2015-05-01T11:24:47.0000000+00:00</time></trkpt><trkpt lat="34.8580821" lon="33.3945402"><ele>283.8</ele><time>2015-05-01T11:24:52.0000000+00:00</time></trkpt><trkpt lat="34.8581393" lon="33.3945311"><ele>284.5</ele><time>2015-05-01T11:24:55.0000000+00:00</time></trkpt><trkpt lat="34.8581904" lon="33.3945243"><ele>284.9</ele><time>2015-05-01T11:24:57.0000000+00:00</time></trkpt><trkpt lat="34.8582441" lon="33.3945166"><ele>284.2</ele><time>2015-05-01T11:24:59.0000000+00:00</time></trkpt><trkpt lat="34.8583117" lon="33.3945092"><ele>284.6</ele><time>2015-05-01T11:25:01.0000000+00:00</time></trkpt><trkpt lat="34.8583756" lon="33.3945028"><ele>285.7</ele><time>2015-05-01T11:25:03.0000000+00:00</time></trkpt><trkpt lat="34.8584342" lon="33.3945001"><ele>286.4</ele><time>2015-05-01T11:25:05.0000000+00:00</time></trkpt><trkpt lat="34.8584875" lon="33.3945017"><ele>286.9</ele><time>2015-05-01T11:25:07.0000000+00:00</time></trkpt><trkpt lat="34.858545" lon="33.3944981"><ele>287.5</ele><time>2015-05-01T11:25:09.0000000+00:00</time></trkpt><trkpt lat="34.8586028" lon="33.3944898"><ele>287.9</ele><time>2015-05-01T11:25:11.0000000+00:00</time></trkpt><trkpt lat="34.8586634" lon="33.3944849"><ele>288.5</ele><time>2015-05-01T11:25:13.0000000+00:00</time></trkpt><trkpt lat="34.8587218" lon="33.3944846"><ele>288.9</ele><time>2015-05-01T11:25:15.0000000+00:00</time></trkpt><trkpt lat="34.8587822" lon="33.3944837"><ele>289.5</ele><time>2015-05-01T11:25:17.0000000+00:00</time></trkpt><trkpt lat="34.8588489" lon="33.3944807"><ele>289.9</ele><time>2015-05-01T11:25:19.0000000+00:00</time></trkpt><trkpt lat="34.8589228" lon="33.3944784"><ele>290.7</ele><time>2015-05-01T11:25:21.0000000+00:00</time></trkpt><trkpt lat="34.8589892" lon="33.3944831"><ele>290.5</ele><time>2015-05-01T11:25:23.0000000+00:00</time></trkpt><trkpt lat="34.8590353" lon="33.3944852"><ele>290.1</ele><time>2015-05-01T11:25:25.0000000+00:00</time></trkpt><trkpt lat="34.8590835" lon="33.394488"><ele>290.0</ele><time>2015-05-01T11:25:27.0000000+00:00</time></trkpt><trkpt lat="34.8591437" lon="33.3944905"><ele>290.0</ele><time>2015-05-01T11:25:29.0000000+00:00</time></trkpt><trkpt lat="34.8592066" lon="33.3944959"><ele>289.3</ele><time>2015-05-01T11:25:31.0000000+00:00</time></trkpt><trkpt lat="34.8592721" lon="33.3945053"><ele>288.8</ele><time>2015-05-01T11:25:33.0000000+00:00</time></trkpt><trkpt lat="34.8593384" lon="33.3945095"><ele>289.0</ele><time>2015-05-01T11:25:35.0000000+00:00</time></trkpt><trkpt lat="34.8594096" lon="33.3945111"><ele>289.0</ele><time>2015-05-01T11:25:37.0000000+00:00</time></trkpt><trkpt lat="34.8594811" lon="33.3945118"><ele>289.8</ele><time>2015-05-01T11:25:39.0000000+00:00</time></trkpt><trkpt lat="34.8595547" lon="33.3945145"><ele>290.5</ele><time>2015-05-01T11:25:41.0000000+00:00</time></trkpt><trkpt lat="34.8596263" lon="33.394521"><ele>290.6</ele><time>2015-05-01T11:25:43.0000000+00:00</time></trkpt><trkpt lat="34.8597013" lon="33.3945317"><ele>290.9</ele><time>2015-05-01T11:25:45.0000000+00:00</time></trkpt><trkpt lat="34.8597796" lon="33.3945409"><ele>290.2</ele><time>2015-05-01T11:25:47.0000000+00:00</time></trkpt><trkpt lat="34.8598563" lon="33.3945466"><ele>290.1</ele><time>2015-05-01T11:25:49.0000000+00:00</time></trkpt><trkpt lat="34.8599149" lon="33.3945506"><ele>290.0</ele><time>2015-05-01T11:25:51.0000000+00:00</time></trkpt><trkpt lat="34.8599634" lon="33.3945518"><ele>289.5</ele><time>2015-05-01T11:25:53.0000000+00:00</time></trkpt><trkpt lat="34.8600091" lon="33.3945575"><ele>289.1</ele><time>2015-05-01T11:25:55.0000000+00:00</time></trkpt><trkpt lat="34.8600577" lon="33.3945613"><ele>289.1</ele><time>2015-05-01T11:25:57.0000000+00:00</time></trkpt><trkpt lat="34.8601089" lon="33.3945653"><ele>289.5</ele><time>2015-05-01T11:25:59.0000000+00:00</time></trkpt><trkpt lat="34.8601659" lon="33.39457"><ele>289.9</ele><time>2015-05-01T11:26:01.0000000+00:00</time></trkpt><trkpt lat="34.8602336" lon="33.3945759"><ele>290.0</ele><time>2015-05-01T11:26:03.0000000+00:00</time></trkpt><trkpt lat="34.8603047" lon="33.3945809"><ele>290.0</ele><time>2015-05-01T11:26:05.0000000+00:00</time></trkpt><trkpt lat="34.8603746" lon="33.3945864"><ele>290.5</ele><time>2015-05-01T11:26:07.0000000+00:00</time></trkpt><trkpt lat="34.8604476" lon="33.3945935"><ele>290.6</ele><time>2015-05-01T11:26:09.0000000+00:00</time></trkpt><trkpt lat="34.86052" lon="33.3946004"><ele>290.9</ele><time>2015-05-01T11:26:11.0000000+00:00</time></trkpt><trkpt lat="34.8605956" lon="33.3946124"><ele>291.5</ele><time>2015-05-01T11:26:13.0000000+00:00</time></trkpt><trkpt lat="34.8606711" lon="33.3946249"><ele>291.9</ele><time>2015-05-01T11:26:15.0000000+00:00</time></trkpt><trkpt lat="34.8607574" lon="33.3946368"><ele>291.5</ele><time>2015-05-01T11:26:17.0000000+00:00</time></trkpt><trkpt lat="34.860836" lon="33.3946446"><ele>291.1</ele><time>2015-05-01T11:26:19.0000000+00:00</time></trkpt><trkpt lat="34.8609006" lon="33.3946588"><ele>290.6</ele><time>2015-05-01T11:26:21.0000000+00:00</time></trkpt><trkpt lat="34.8609573" lon="33.3946704"><ele>289.7</ele><time>2015-05-01T11:26:23.0000000+00:00</time></trkpt><trkpt lat="34.8610178" lon="33.394692"><ele>288.7</ele><time>2015-05-01T11:26:25.0000000+00:00</time></trkpt><trkpt lat="34.861081" lon="33.3947073"><ele>287.4</ele><time>2015-05-01T11:26:27.0000000+00:00</time></trkpt><trkpt lat="34.8611505" lon="33.3947223"><ele>288.1</ele><time>2015-05-01T11:26:29.0000000+00:00</time></trkpt><trkpt lat="34.8612178" lon="33.3947372"><ele>288.0</ele><time>2015-05-01T11:26:31.0000000+00:00</time></trkpt><trkpt lat="34.8612856" lon="33.3947487"><ele>287.5</ele><time>2015-05-01T11:26:33.0000000+00:00</time></trkpt><trkpt lat="34.8613428" lon="33.394768"><ele>287.1</ele><time>2015-05-01T11:26:35.0000000+00:00</time></trkpt><trkpt lat="34.8614" lon="33.394789"><ele>287.1</ele><time>2015-05-01T11:26:37.0000000+00:00</time></trkpt><trkpt lat="34.8614559" lon="33.3948013"><ele>287.0</ele><time>2015-05-01T11:26:39.0000000+00:00</time></trkpt><trkpt lat="34.8615131" lon="33.3948146"><ele>287.3</ele><time>2015-05-01T11:26:41.0000000+00:00</time></trkpt><trkpt lat="34.8615692" lon="33.3948314"><ele>287.6</ele><time>2015-05-01T11:26:43.0000000+00:00</time></trkpt><trkpt lat="34.86163" lon="33.3948551"><ele>287.9</ele><time>2015-05-01T11:26:45.0000000+00:00</time></trkpt><trkpt lat="34.8616974" lon="33.3948747"><ele>288.7</ele><time>2015-05-01T11:26:47.0000000+00:00</time></trkpt><trkpt lat="34.861777" lon="33.3949071"><ele>288.7</ele><time>2015-05-01T11:26:49.0000000+00:00</time></trkpt><trkpt lat="34.8618511" lon="33.3949322"><ele>288.9</ele><time>2015-05-01T11:26:51.0000000+00:00</time></trkpt><trkpt lat="34.8619257" lon="33.3949614"><ele>289.0</ele><time>2015-05-01T11:26:53.0000000+00:00</time></trkpt><trkpt lat="34.8619941" lon="33.3949946"><ele>289.3</ele><time>2015-05-01T11:26:55.0000000+00:00</time></trkpt><trkpt lat="34.8620641" lon="33.3950257"><ele>289.8</ele><time>2015-05-01T11:26:57.0000000+00:00</time></trkpt><trkpt lat="34.862131" lon="33.39505"><ele>289.7</ele><time>2015-05-01T11:26:59.0000000+00:00</time></trkpt><trkpt lat="34.862197" lon="33.3950777"><ele>289.9</ele><time>2015-05-01T11:27:01.0000000+00:00</time></trkpt><trkpt lat="34.8622604" lon="33.3951036"><ele>290.0</ele><time>2015-05-01T11:27:03.0000000+00:00</time></trkpt><trkpt lat="34.8623272" lon="33.3951301"><ele>290.0</ele><time>2015-05-01T11:27:05.0000000+00:00</time></trkpt><trkpt lat="34.8623906" lon="33.3951613"><ele>289.8</ele><time>2015-05-01T11:27:07.0000000+00:00</time></trkpt><trkpt lat="34.8624597" lon="33.3951813"><ele>290.5</ele><time>2015-05-01T11:27:09.0000000+00:00</time></trkpt><trkpt lat="34.8625271" lon="33.3952016"><ele>290.9</ele><time>2015-05-01T11:27:11.0000000+00:00</time></trkpt><trkpt lat="34.8625978" lon="33.3952268"><ele>290.2</ele><time>2015-05-01T11:27:13.0000000+00:00</time></trkpt><trkpt lat="34.8626804" lon="33.3952503"><ele>290.1</ele><time>2015-05-01T11:27:15.0000000+00:00</time></trkpt><trkpt lat="34.8627252" lon="33.3952609"><ele>289.5</ele><time>2015-05-01T11:27:16.0000000+00:00</time></trkpt><trkpt lat="34.8627754" lon="33.3952707"><ele>289.8</ele><time>2015-05-01T11:27:17.0000000+00:00</time></trkpt><trkpt lat="34.8628226" lon="33.3952776"><ele>289.4</ele><time>2015-05-01T11:27:18.0000000+00:00</time></trkpt><trkpt lat="34.8628707" lon="33.3952906"><ele>289.2</ele><time>2015-05-01T11:27:19.0000000+00:00</time></trkpt><trkpt lat="34.8629202" lon="33.3952951"><ele>289.1</ele><time>2015-05-01T11:27:20.0000000+00:00</time></trkpt><trkpt lat="34.8629715" lon="33.3953012"><ele>289.1</ele><time>2015-05-01T11:27:21.0000000+00:00</time></trkpt><trkpt lat="34.8630236" lon="33.3953063"><ele>289.0</ele><time>2015-05-01T11:27:22.0000000+00:00</time></trkpt><trkpt lat="34.8630778" lon="33.3953098"><ele>288.5</ele><time>2015-05-01T11:27:23.0000000+00:00</time></trkpt><trkpt lat="34.8631343" lon="33.3953179"><ele>288.8</ele><time>2015-05-01T11:27:24.0000000+00:00</time></trkpt><trkpt lat="34.863192" lon="33.3953219"><ele>288.4</ele><time>2015-05-01T11:27:25.0000000+00:00</time></trkpt><trkpt lat="34.8632518" lon="33.3953317"><ele>288.2</ele><time>2015-05-01T11:27:26.0000000+00:00</time></trkpt><trkpt lat="34.8633114" lon="33.3953375"><ele>288.6</ele><time>2015-05-01T11:27:27.0000000+00:00</time></trkpt><trkpt lat="34.8633805" lon="33.3953354"><ele>288.3</ele><time>2015-05-01T11:27:28.0000000+00:00</time></trkpt><trkpt lat="34.8634438" lon="33.3953453"><ele>288.2</ele><time>2015-05-01T11:27:29.0000000+00:00</time></trkpt><trkpt lat="34.8635077" lon="33.3953494"><ele>288.1</ele><time>2015-05-01T11:27:30.0000000+00:00</time></trkpt><trkpt lat="34.8635753" lon="33.3953467"><ele>288.6</ele><time>2015-05-01T11:27:31.0000000+00:00</time></trkpt><trkpt lat="34.8636447" lon="33.3953479"><ele>288.8</ele><time>2015-05-01T11:27:32.0000000+00:00</time></trkpt><trkpt lat="34.8637141" lon="33.3953518"><ele>288.4</ele><time>2015-05-01T11:27:33.0000000+00:00</time></trkpt><trkpt lat="34.8637772" lon="33.395357"><ele>288.7</ele><time>2015-05-01T11:27:34.0000000+00:00</time></trkpt><trkpt lat="34.8638407" lon="33.3953567"><ele>288.4</ele><time>2015-05-01T11:27:35.0000000+00:00</time></trkpt><trkpt lat="34.8639134" lon="33.3953531"><ele>288.2</ele><time>2015-05-01T11:27:36.0000000+00:00</time></trkpt><trkpt lat="34.8639784" lon="33.395361"><ele>288.6</ele><time>2015-05-01T11:27:37.0000000+00:00</time></trkpt><trkpt lat="34.8640437" lon="33.3953629"><ele>288.3</ele><time>2015-05-01T11:27:38.0000000+00:00</time></trkpt><trkpt lat="34.8641092" lon="33.3953729"><ele>288.2</ele><time>2015-05-01T11:27:39.0000000+00:00</time></trkpt><trkpt lat="34.8641764" lon="33.3953776"><ele>288.1</ele><time>2015-05-01T11:27:40.0000000+00:00</time></trkpt><trkpt lat="34.8642331" lon="33.3953795"><ele>288.1</ele><time>2015-05-01T11:27:41.0000000+00:00</time></trkpt><trkpt lat="34.8642978" lon="33.395383"><ele>287.5</ele><time>2015-05-01T11:27:42.0000000+00:00</time></trkpt><trkpt lat="34.8643577" lon="33.3953883"><ele>287.3</ele><time>2015-05-01T11:27:43.0000000+00:00</time></trkpt><trkpt lat="34.8644208" lon="33.3953907"><ele>287.2</ele><time>2015-05-01T11:27:44.0000000+00:00</time></trkpt><trkpt lat="34.8644764" lon="33.3954"><ele>287.6</ele><time>2015-05-01T11:27:45.0000000+00:00</time></trkpt><trkpt lat="34.8645349" lon="33.3953995"><ele>287.8</ele><time>2015-05-01T11:27:46.0000000+00:00</time></trkpt><trkpt lat="34.8645981" lon="33.3953976"><ele>287.9</ele><time>2015-05-01T11:27:47.0000000+00:00</time></trkpt><trkpt lat="34.8646557" lon="33.3954071"><ele>288.0</ele><time>2015-05-01T11:27:48.0000000+00:00</time></trkpt><trkpt lat="34.8647184" lon="33.3954128"><ele>287.5</ele><time>2015-05-01T11:27:49.0000000+00:00</time></trkpt><trkpt lat="34.8647802" lon="33.3954135"><ele>287.3</ele><time>2015-05-01T11:27:50.0000000+00:00</time></trkpt><trkpt lat="34.8648386" lon="33.3954173"><ele>287.1</ele><time>2015-05-01T11:27:51.0000000+00:00</time></trkpt><trkpt lat="34.8649079" lon="33.3954184"><ele>287.6</ele><time>2015-05-01T11:27:52.0000000+00:00</time></trkpt><trkpt lat="34.8649749" lon="33.3954232"><ele>287.3</ele><time>2015-05-01T11:27:53.0000000+00:00</time></trkpt><trkpt lat="34.8650352" lon="33.3954307"><ele>287.7</ele><time>2015-05-01T11:27:54.0000000+00:00</time></trkpt><trkpt lat="34.8651109" lon="33.395439"><ele>287.8</ele><time>2015-05-01T11:27:55.0000000+00:00</time></trkpt><trkpt lat="34.8651784" lon="33.3954452"><ele>287.9</ele><time>2015-05-01T11:27:56.0000000+00:00</time></trkpt><trkpt lat="34.8652427" lon="33.3954556"><ele>288.5</ele><time>2015-05-01T11:27:57.0000000+00:00</time></trkpt><trkpt lat="34.865301" lon="33.3954603"><ele>288.7</ele><time>2015-05-01T11:27:58.0000000+00:00</time></trkpt><trkpt lat="34.865363" lon="33.3954642"><ele>288.9</ele><time>2015-05-01T11:27:59.0000000+00:00</time></trkpt><trkpt lat="34.865424" lon="33.3954643"><ele>289.0</ele><time>2015-05-01T11:28:00.0000000+00:00</time></trkpt><trkpt lat="34.8654854" lon="33.3954682"><ele>289.5</ele><time>2015-05-01T11:28:01.0000000+00:00</time></trkpt><trkpt lat="34.8655446" lon="33.395465"><ele>289.8</ele><time>2015-05-01T11:28:02.0000000+00:00</time></trkpt><trkpt lat="34.8656008" lon="33.3954721"><ele>289.9</ele><time>2015-05-01T11:28:03.0000000+00:00</time></trkpt><trkpt lat="34.8656667" lon="33.3954705"><ele>290.0</ele><time>2015-05-01T11:28:04.0000000+00:00</time></trkpt><trkpt lat="34.8657189" lon="33.3954734"><ele>290.5</ele><time>2015-05-01T11:28:05.0000000+00:00</time></trkpt><trkpt lat="34.8657753" lon="33.3954701"><ele>290.8</ele><time>2015-05-01T11:28:06.0000000+00:00</time></trkpt><trkpt lat="34.8658261" lon="33.3954724"><ele>290.9</ele><time>2015-05-01T11:28:07.0000000+00:00</time></trkpt><trkpt lat="34.8658825" lon="33.3954739"><ele>291.0</ele><time>2015-05-01T11:28:08.0000000+00:00</time></trkpt><trkpt lat="34.8659311" lon="33.3954807"><ele>291.0</ele><time>2015-05-01T11:28:09.0000000+00:00</time></trkpt><trkpt lat="34.8660152" lon="33.3954829"><ele>291.8</ele><time>2015-05-01T11:28:11.0000000+00:00</time></trkpt><trkpt lat="34.8660868" lon="33.3954866"><ele>292.7</ele><time>2015-05-01T11:28:13.0000000+00:00</time></trkpt><trkpt lat="34.8661584" lon="33.395495"><ele>293.4</ele><time>2015-05-01T11:28:15.0000000+00:00</time></trkpt><trkpt lat="34.866222" lon="33.3955045"><ele>293.9</ele><time>2015-05-01T11:28:17.0000000+00:00</time></trkpt><trkpt lat="34.8662944" lon="33.3954983"><ele>294.7</ele><time>2015-05-01T11:28:19.0000000+00:00</time></trkpt><trkpt lat="34.8663675" lon="33.3955078"><ele>295.4</ele><time>2015-05-01T11:28:21.0000000+00:00</time></trkpt><trkpt lat="34.8664498" lon="33.3955182"><ele>295.9</ele><time>2015-05-01T11:28:23.0000000+00:00</time></trkpt><trkpt lat="34.8665381" lon="33.3955281"><ele>296.5</ele><time>2015-05-01T11:28:25.0000000+00:00</time></trkpt><trkpt lat="34.8666235" lon="33.3955457"><ele>296.9</ele><time>2015-05-01T11:28:27.0000000+00:00</time></trkpt><trkpt lat="34.8666685" lon="33.3955559"><ele>297.0</ele><time>2015-05-01T11:28:28.0000000+00:00</time></trkpt><trkpt lat="34.8667545" lon="33.3955711"><ele>297.8</ele><time>2015-05-01T11:28:30.0000000+00:00</time></trkpt><trkpt lat="34.8668427" lon="33.3955897"><ele>298.0</ele><time>2015-05-01T11:28:32.0000000+00:00</time></trkpt><trkpt lat="34.8669223" lon="33.3956153"><ele>298.5</ele><time>2015-05-01T11:28:34.0000000+00:00</time></trkpt><trkpt lat="34.8669654" lon="33.3956538"><ele>295.1</ele><time>2015-05-01T11:28:57.0000000+00:00</time></trkpt><trkpt lat="34.867019" lon="33.3956656"><ele>295.0</ele><time>2015-05-01T11:29:00.0000000+00:00</time></trkpt><trkpt lat="34.8670837" lon="33.3956908"><ele>295.0</ele><time>2015-05-01T11:29:02.0000000+00:00</time></trkpt><trkpt lat="34.8671514" lon="33.3957159"><ele>294.3</ele><time>2015-05-01T11:29:04.0000000+00:00</time></trkpt><trkpt lat="34.8672191" lon="33.395741"><ele>293.3</ele><time>2015-05-01T11:29:06.0000000+00:00</time></trkpt><trkpt lat="34.867291" lon="33.395767"><ele>293.6</ele><time>2015-05-01T11:29:08.0000000+00:00</time></trkpt><trkpt lat="34.8673616" lon="33.3957895"><ele>293.4</ele><time>2015-05-01T11:29:10.0000000+00:00</time></trkpt><trkpt lat="34.8674332" lon="33.3958121"><ele>293.1</ele><time>2015-05-01T11:29:12.0000000+00:00</time></trkpt><trkpt lat="34.8675027" lon="33.3958369"><ele>293.0</ele><time>2015-05-01T11:29:14.0000000+00:00</time></trkpt><trkpt lat="34.8675739" lon="33.395862"><ele>293.0</ele><time>2015-05-01T11:29:16.0000000+00:00</time></trkpt><trkpt lat="34.8676452" lon="33.3958897"><ele>292.3</ele><time>2015-05-01T11:29:18.0000000+00:00</time></trkpt><trkpt lat="34.8677328" lon="33.3959219"><ele>292.1</ele><time>2015-05-01T11:29:20.0000000+00:00</time></trkpt><trkpt lat="34.8677765" lon="33.3959381"><ele>292.1</ele><time>2015-05-01T11:29:21.0000000+00:00</time></trkpt><trkpt lat="34.8678672" lon="33.3959726"><ele>292.0</ele><time>2015-05-01T11:29:23.0000000+00:00</time></trkpt><trkpt lat="34.867914" lon="33.3959907"><ele>292.0</ele><time>2015-05-01T11:29:24.0000000+00:00</time></trkpt><trkpt lat="34.86796" lon="33.3960055"><ele>292.0</ele><time>2015-05-01T11:29:25.0000000+00:00</time></trkpt><trkpt lat="34.8680474" lon="33.3960438"><ele>291.8</ele><time>2015-05-01T11:29:27.0000000+00:00</time></trkpt><trkpt lat="34.8680924" lon="33.3960615"><ele>291.9</ele><time>2015-05-01T11:29:28.0000000+00:00</time></trkpt><trkpt lat="34.868145" lon="33.3960751"><ele>292.0</ele><time>2015-05-01T11:29:29.0000000+00:00</time></trkpt><trkpt lat="34.8681942" lon="33.3960951"><ele>291.5</ele><time>2015-05-01T11:29:30.0000000+00:00</time></trkpt><trkpt lat="34.8682405" lon="33.3961146"><ele>291.3</ele><time>2015-05-01T11:29:31.0000000+00:00</time></trkpt><trkpt lat="34.8682923" lon="33.396139"><ele>291.1</ele><time>2015-05-01T11:29:32.0000000+00:00</time></trkpt><trkpt lat="34.8683387" lon="33.3961632"><ele>291.1</ele><time>2015-05-01T11:29:33.0000000+00:00</time></trkpt><trkpt lat="34.8683873" lon="33.3961797"><ele>291.1</ele><time>2015-05-01T11:29:34.0000000+00:00</time></trkpt><trkpt lat="34.8684408" lon="33.3962009"><ele>291.0</ele><time>2015-05-01T11:29:35.0000000+00:00</time></trkpt><trkpt lat="34.8684933" lon="33.3962242"><ele>291.0</ele><time>2015-05-01T11:29:36.0000000+00:00</time></trkpt><trkpt lat="34.8685383" lon="33.3962461"><ele>291.0</ele><time>2015-05-01T11:29:37.0000000+00:00</time></trkpt><trkpt lat="34.8685841" lon="33.3962655"><ele>291.0</ele><time>2015-05-01T11:29:38.0000000+00:00</time></trkpt><trkpt lat="34.8686747" lon="33.3962884"><ele>291.8</ele><time>2015-05-01T11:29:40.0000000+00:00</time></trkpt><trkpt lat="34.8687198" lon="33.3963058"><ele>291.9</ele><time>2015-05-01T11:29:41.0000000+00:00</time></trkpt><trkpt lat="34.8687658" lon="33.3963167"><ele>291.5</ele><time>2015-05-01T11:29:42.0000000+00:00</time></trkpt><trkpt lat="34.8688119" lon="33.3963323"><ele>291.2</ele><time>2015-05-01T11:29:43.0000000+00:00</time></trkpt><trkpt lat="34.8688608" lon="33.3963532"><ele>291.1</ele><time>2015-05-01T11:29:44.0000000+00:00</time></trkpt><trkpt lat="34.8689098" lon="33.3963739"><ele>291.1</ele><time>2015-05-01T11:29:45.0000000+00:00</time></trkpt><trkpt lat="34.8689584" lon="33.3963884"><ele>291.0</ele><time>2015-05-01T11:29:46.0000000+00:00</time></trkpt><trkpt lat="34.8690122" lon="33.3964123"><ele>291.0</ele><time>2015-05-01T11:29:47.0000000+00:00</time></trkpt><trkpt lat="34.8690688" lon="33.3964371"><ele>291.0</ele><time>2015-05-01T11:29:48.0000000+00:00</time></trkpt><trkpt lat="34.8691286" lon="33.3964595"><ele>291.0</ele><time>2015-05-01T11:29:49.0000000+00:00</time></trkpt><trkpt lat="34.8691825" lon="33.3964768"><ele>291.0</ele><time>2015-05-01T11:29:50.0000000+00:00</time></trkpt><trkpt lat="34.8692306" lon="33.3965023"><ele>291.0</ele><time>2015-05-01T11:29:51.0000000+00:00</time></trkpt><trkpt lat="34.8692842" lon="33.3965263"><ele>291.0</ele><time>2015-05-01T11:29:52.0000000+00:00</time></trkpt><trkpt lat="34.869338" lon="33.3965465"><ele>291.0</ele><time>2015-05-01T11:29:53.0000000+00:00</time></trkpt><trkpt lat="34.8693884" lon="33.3965615"><ele>291.0</ele><time>2015-05-01T11:29:54.0000000+00:00</time></trkpt><trkpt lat="34.8694386" lon="33.3965785"><ele>291.0</ele><time>2015-05-01T11:29:55.0000000+00:00</time></trkpt><trkpt lat="34.8694878" lon="33.3965963"><ele>291.0</ele><time>2015-05-01T11:29:56.0000000+00:00</time></trkpt><trkpt lat="34.8695731" lon="33.3966262"><ele>291.5</ele><time>2015-05-01T11:29:58.0000000+00:00</time></trkpt><trkpt lat="34.8696149" lon="33.3966491"><ele>291.8</ele><time>2015-05-01T11:29:59.0000000+00:00</time></trkpt><trkpt lat="34.8696585" lon="33.3966629"><ele>291.9</ele><time>2015-05-01T11:30:00.0000000+00:00</time></trkpt><trkpt lat="34.8697402" lon="33.3966915"><ele>292.2</ele><time>2015-05-01T11:30:02.0000000+00:00</time></trkpt><trkpt lat="34.8698145" lon="33.3967152"><ele>292.1</ele><time>2015-05-01T11:30:04.0000000+00:00</time></trkpt><trkpt lat="34.8698949" lon="33.3967443"><ele>292.0</ele><time>2015-05-01T11:30:06.0000000+00:00</time></trkpt><trkpt lat="34.8699785" lon="33.3967728"><ele>292.0</ele><time>2015-05-01T11:30:08.0000000+00:00</time></trkpt><trkpt lat="34.8700224" lon="33.3967874"><ele>291.5</ele><time>2015-05-01T11:30:09.0000000+00:00</time></trkpt><trkpt lat="34.8701071" lon="33.3968252"><ele>291.9</ele><time>2015-05-01T11:30:11.0000000+00:00</time></trkpt><trkpt lat="34.8701574" lon="33.3968411"><ele>292.0</ele><time>2015-05-01T11:30:12.0000000+00:00</time></trkpt><trkpt lat="34.8701994" lon="33.3968635"><ele>291.5</ele><time>2015-05-01T11:30:13.0000000+00:00</time></trkpt><trkpt lat="34.8702733" lon="33.3969"><ele>291.9</ele><time>2015-05-01T11:30:15.0000000+00:00</time></trkpt><trkpt lat="34.8703562" lon="33.396929"><ele>292.2</ele><time>2015-05-01T11:30:17.0000000+00:00</time></trkpt><trkpt lat="34.8704416" lon="33.3969527"><ele>292.1</ele><time>2015-05-01T11:30:19.0000000+00:00</time></trkpt><trkpt lat="34.870524" lon="33.3969813"><ele>291.5</ele><time>2015-05-01T11:30:21.0000000+00:00</time></trkpt><trkpt lat="34.8705936" lon="33.3970095"><ele>291.1</ele><time>2015-05-01T11:30:23.0000000+00:00</time></trkpt><trkpt lat="34.8706717" lon="33.3970364"><ele>291.1</ele><time>2015-05-01T11:30:25.0000000+00:00</time></trkpt><trkpt lat="34.8707452" lon="33.3970633"><ele>290.5</ele><time>2015-05-01T11:30:27.0000000+00:00</time></trkpt><trkpt lat="34.8708189" lon="33.3970918"><ele>290.1</ele><time>2015-05-01T11:30:29.0000000+00:00</time></trkpt><trkpt lat="34.8708908" lon="33.397118"><ele>290.6</ele><time>2015-05-01T11:30:31.0000000+00:00</time></trkpt><trkpt lat="34.8709642" lon="33.3971484"><ele>290.4</ele><time>2015-05-01T11:30:33.0000000+00:00</time></trkpt><trkpt lat="34.8710345" lon="33.3971771"><ele>290.4</ele><time>2015-05-01T11:30:35.0000000+00:00</time></trkpt><trkpt lat="34.8711054" lon="33.3972094"><ele>290.1</ele><time>2015-05-01T11:30:37.0000000+00:00</time></trkpt><trkpt lat="34.8711743" lon="33.3972477"><ele>290.8</ele><time>2015-05-01T11:30:39.0000000+00:00</time></trkpt><trkpt lat="34.8712484" lon="33.3972798"><ele>291.0</ele><time>2015-05-01T11:30:41.0000000+00:00</time></trkpt><trkpt lat="34.8713218" lon="33.3973097"><ele>291.5</ele><time>2015-05-01T11:30:43.0000000+00:00</time></trkpt><trkpt lat="34.8713988" lon="33.3973443"><ele>291.9</ele><time>2015-05-01T11:30:45.0000000+00:00</time></trkpt><trkpt lat="34.8714755" lon="33.3973834"><ele>292.5</ele><time>2015-05-01T11:30:47.0000000+00:00</time></trkpt><trkpt lat="34.8715534" lon="33.3974277"><ele>292.4</ele><time>2015-05-01T11:30:49.0000000+00:00</time></trkpt><trkpt lat="34.8716335" lon="33.3974707"><ele>292.1</ele><time>2015-05-01T11:30:51.0000000+00:00</time></trkpt><trkpt lat="34.8716807" lon="33.397493"><ele>291.6</ele><time>2015-05-01T11:30:52.0000000+00:00</time></trkpt><trkpt lat="34.8717302" lon="33.3975144"><ele>291.3</ele><time>2015-05-01T11:30:53.0000000+00:00</time></trkpt><trkpt lat="34.8718034" lon="33.3975529"><ele>290.6</ele><time>2015-05-01T11:30:55.0000000+00:00</time></trkpt><trkpt lat="34.8718438" lon="33.3975784"><ele>290.3</ele><time>2015-05-01T11:30:56.0000000+00:00</time></trkpt><trkpt lat="34.8719221" lon="33.3976273"><ele>290.8</ele><time>2015-05-01T11:30:58.0000000+00:00</time></trkpt><trkpt lat="34.8720019" lon="33.3976782"><ele>291.0</ele><time>2015-05-01T11:31:00.0000000+00:00</time></trkpt><trkpt lat="34.872041" lon="33.3977066"><ele>291.0</ele><time>2015-05-01T11:31:01.0000000+00:00</time></trkpt><trkpt lat="34.8721165" lon="33.3977534"><ele>290.5</ele><time>2015-05-01T11:31:03.0000000+00:00</time></trkpt><trkpt lat="34.8721955" lon="33.3978054"><ele>290.1</ele><time>2015-05-01T11:31:05.0000000+00:00</time></trkpt><trkpt lat="34.872276" lon="33.3978577"><ele>289.8</ele><time>2015-05-01T11:31:07.0000000+00:00</time></trkpt><trkpt lat="34.8723187" lon="33.3978784"><ele>289.9</ele><time>2015-05-01T11:31:08.0000000+00:00</time></trkpt><trkpt lat="34.8723632" lon="33.3979005"><ele>289.5</ele><time>2015-05-01T11:31:09.0000000+00:00</time></trkpt><trkpt lat="34.8724423" lon="33.3979453"><ele>289.1</ele><time>2015-05-01T11:31:11.0000000+00:00</time></trkpt><trkpt lat="34.8724842" lon="33.3979683"><ele>289.1</ele><time>2015-05-01T11:31:12.0000000+00:00</time></trkpt><trkpt lat="34.8725522" lon="33.3980169"><ele>289.0</ele><time>2015-05-01T11:31:14.0000000+00:00</time></trkpt><trkpt lat="34.8726138" lon="33.3980613"><ele>289.0</ele><time>2015-05-01T11:31:16.0000000+00:00</time></trkpt><trkpt lat="34.8726659" lon="33.3981041"><ele>289.5</ele><time>2015-05-01T11:31:18.0000000+00:00</time></trkpt><trkpt lat="34.8727207" lon="33.3981485"><ele>289.9</ele><time>2015-05-01T11:31:20.0000000+00:00</time></trkpt><trkpt lat="34.8727765" lon="33.3981873"><ele>290.7</ele><time>2015-05-01T11:31:22.0000000+00:00</time></trkpt><trkpt lat="34.8728351" lon="33.3982183"><ele>291.0</ele><time>2015-05-01T11:31:24.0000000+00:00</time></trkpt><trkpt lat="34.8728908" lon="33.3982484"><ele>291.0</ele><time>2015-05-01T11:31:26.0000000+00:00</time></trkpt><trkpt lat="34.8729434" lon="33.3982829"><ele>291.5</ele><time>2015-05-01T11:31:28.0000000+00:00</time></trkpt><trkpt lat="34.8729853" lon="33.3983146"><ele>291.9</ele><time>2015-05-01T11:31:30.0000000+00:00</time></trkpt><trkpt lat="34.8730277" lon="33.3983477"><ele>292.0</ele><time>2015-05-01T11:31:32.0000000+00:00</time></trkpt><trkpt lat="34.8730705" lon="33.3983787"><ele>292.8</ele><time>2015-05-01T11:31:34.0000000+00:00</time></trkpt><trkpt lat="34.8731154" lon="33.3984138"><ele>293.0</ele><time>2015-05-01T11:31:36.0000000+00:00</time></trkpt><trkpt lat="34.8731604" lon="33.3984501"><ele>293.5</ele><time>2015-05-01T11:31:38.0000000+00:00</time></trkpt><trkpt lat="34.8732096" lon="33.3984864"><ele>293.9</ele><time>2015-05-01T11:31:40.0000000+00:00</time></trkpt><trkpt lat="34.8732617" lon="33.3985301"><ele>294.2</ele><time>2015-05-01T11:31:42.0000000+00:00</time></trkpt><trkpt lat="34.8733194" lon="33.3985846"><ele>294.8</ele><time>2015-05-01T11:31:44.0000000+00:00</time></trkpt><trkpt lat="34.8733748" lon="33.3986324"><ele>295.7</ele><time>2015-05-01T11:31:46.0000000+00:00</time></trkpt><trkpt lat="34.8734325" lon="33.3986814"><ele>295.9</ele><time>2015-05-01T11:31:48.0000000+00:00</time></trkpt><trkpt lat="34.8734969" lon="33.398736"><ele>296.8</ele><time>2015-05-01T11:31:50.0000000+00:00</time></trkpt><trkpt lat="34.8735636" lon="33.3987955"><ele>297.5</ele><time>2015-05-01T11:31:52.0000000+00:00</time></trkpt><trkpt lat="34.8736184" lon="33.3988429"><ele>297.9</ele><time>2015-05-01T11:31:54.0000000+00:00</time></trkpt><trkpt lat="34.8736728" lon="33.398893"><ele>298.0</ele><time>2015-05-01T11:31:56.0000000+00:00</time></trkpt><trkpt lat="34.8737277" lon="33.398945"><ele>298.8</ele><time>2015-05-01T11:31:58.0000000+00:00</time></trkpt><trkpt lat="34.8737933" lon="33.3990028"><ele>299.0</ele><time>2015-05-01T11:32:00.0000000+00:00</time></trkpt><trkpt lat="34.8738584" lon="33.3990605"><ele>299.8</ele><time>2015-05-01T11:32:02.0000000+00:00</time></trkpt><trkpt lat="34.8739247" lon="33.3991179"><ele>300.0</ele><time>2015-05-01T11:32:04.0000000+00:00</time></trkpt><trkpt lat="34.8739897" lon="33.3991738"><ele>300.0</ele><time>2015-05-01T11:32:06.0000000+00:00</time></trkpt><trkpt lat="34.8740567" lon="33.3992339"><ele>300.0</ele><time>2015-05-01T11:32:08.0000000+00:00</time></trkpt><trkpt lat="34.87412" lon="33.3992877"><ele>300.8</ele><time>2015-05-01T11:32:10.0000000+00:00</time></trkpt><trkpt lat="34.8741856" lon="33.3993363"><ele>301.0</ele><time>2015-05-01T11:32:12.0000000+00:00</time></trkpt><trkpt lat="34.8742474" lon="33.3993864"><ele>301.5</ele><time>2015-05-01T11:32:14.0000000+00:00</time></trkpt><trkpt lat="34.8743149" lon="33.3994395"><ele>301.9</ele><time>2015-05-01T11:32:16.0000000+00:00</time></trkpt><trkpt lat="34.8743873" lon="33.3994994"><ele>302.7</ele><time>2015-05-01T11:32:18.0000000+00:00</time></trkpt><trkpt lat="34.8744239" lon="33.399532"><ele>302.9</ele><time>2015-05-01T11:32:19.0000000+00:00</time></trkpt><trkpt lat="34.8744685" lon="33.3995703"><ele>303.0</ele><time>2015-05-01T11:32:20.0000000+00:00</time></trkpt><trkpt lat="34.8745048" lon="33.3996034"><ele>303.5</ele><time>2015-05-01T11:32:21.0000000+00:00</time></trkpt><trkpt lat="34.8745734" lon="33.3996628"><ele>303.9</ele><time>2015-05-01T11:32:23.0000000+00:00</time></trkpt><trkpt lat="34.8746369" lon="33.3997163"><ele>304.0</ele><time>2015-05-01T11:32:25.0000000+00:00</time></trkpt><trkpt lat="34.8747017" lon="33.3997693"><ele>304.3</ele><time>2015-05-01T11:32:27.0000000+00:00</time></trkpt><trkpt lat="34.874768" lon="33.3998141"><ele>304.1</ele><time>2015-05-01T11:32:29.0000000+00:00</time></trkpt><trkpt lat="34.8748211" lon="33.3998453"><ele>304.5</ele><time>2015-05-01T11:32:31.0000000+00:00</time></trkpt><trkpt lat="34.8748697" lon="33.399877"><ele>304.9</ele><time>2015-05-01T11:32:33.0000000+00:00</time></trkpt><trkpt lat="34.8749297" lon="33.3999137"><ele>305.0</ele><time>2015-05-01T11:32:36.0000000+00:00</time></trkpt><trkpt lat="34.8749762" lon="33.3999397"><ele>305.0</ele><time>2015-05-01T11:32:38.0000000+00:00</time></trkpt><trkpt lat="34.875039" lon="33.3999706"><ele>305.5</ele><time>2015-05-01T11:32:40.0000000+00:00</time></trkpt><trkpt lat="34.8751014" lon="33.4000046"><ele>305.9</ele><time>2015-05-01T11:32:42.0000000+00:00</time></trkpt><trkpt lat="34.8751676" lon="33.4000422"><ele>306.0</ele><time>2015-05-01T11:32:44.0000000+00:00</time></trkpt><trkpt lat="34.875236" lon="33.4000751"><ele>306.5</ele><time>2015-05-01T11:32:46.0000000+00:00</time></trkpt><trkpt lat="34.875304" lon="33.400108"><ele>306.1</ele><time>2015-05-01T11:32:48.0000000+00:00</time></trkpt><trkpt lat="34.8753704" lon="33.4001307"><ele>306.1</ele><time>2015-05-01T11:32:50.0000000+00:00</time></trkpt><trkpt lat="34.8754376" lon="33.4001474"><ele>306.0</ele><time>2015-05-01T11:32:52.0000000+00:00</time></trkpt><trkpt lat="34.8755029" lon="33.4001607"><ele>306.0</ele><time>2015-05-01T11:32:54.0000000+00:00</time></trkpt><trkpt lat="34.87557" lon="33.4001762"><ele>306.8</ele><time>2015-05-01T11:32:56.0000000+00:00</time></trkpt><trkpt lat="34.8756349" lon="33.4001906"><ele>307.0</ele><time>2015-05-01T11:32:58.0000000+00:00</time></trkpt><trkpt lat="34.8757022" lon="33.4002046"><ele>307.0</ele><time>2015-05-01T11:33:00.0000000+00:00</time></trkpt><trkpt lat="34.875769" lon="33.4002136"><ele>307.0</ele><time>2015-05-01T11:33:02.0000000+00:00</time></trkpt><trkpt lat="34.8758379" lon="33.4002247"><ele>307.0</ele><time>2015-05-01T11:33:04.0000000+00:00</time></trkpt><trkpt lat="34.8759016" lon="33.4002357"><ele>307.0</ele><time>2015-05-01T11:33:06.0000000+00:00</time></trkpt><trkpt lat="34.8759511" lon="33.4002451"><ele>307.0</ele><time>2015-05-01T11:33:08.0000000+00:00</time></trkpt><trkpt lat="34.876009" lon="33.4002604"><ele>307.0</ele><time>2015-05-01T11:33:11.0000000+00:00</time></trkpt><trkpt lat="34.876057" lon="33.4002689"><ele>307.0</ele><time>2015-05-01T11:33:13.0000000+00:00</time></trkpt><trkpt lat="34.876114" lon="33.4002775"><ele>307.0</ele><time>2015-05-01T11:33:15.0000000+00:00</time></trkpt><trkpt lat="34.8761755" lon="33.4002796"><ele>307.8</ele><time>2015-05-01T11:33:17.0000000+00:00</time></trkpt><trkpt lat="34.8762332" lon="33.4002836"><ele>308.0</ele><time>2015-05-01T11:33:19.0000000+00:00</time></trkpt><trkpt lat="34.8762918" lon="33.4002863"><ele>308.0</ele><time>2015-05-01T11:33:21.0000000+00:00</time></trkpt><trkpt lat="34.8763465" lon="33.4002899"><ele>308.8</ele><time>2015-05-01T11:33:23.0000000+00:00</time></trkpt><trkpt lat="34.8764034" lon="33.4002954"><ele>309.0</ele><time>2015-05-01T11:33:25.0000000+00:00</time></trkpt><trkpt lat="34.8764596" lon="33.400298"><ele>309.0</ele><time>2015-05-01T11:33:27.0000000+00:00</time></trkpt><trkpt lat="34.8765169" lon="33.4003043"><ele>309.0</ele><time>2015-05-01T11:33:29.0000000+00:00</time></trkpt><trkpt lat="34.8765754" lon="33.4003104"><ele>309.0</ele><time>2015-05-01T11:33:31.0000000+00:00</time></trkpt><trkpt lat="34.8766359" lon="33.4003142"><ele>309.0</ele><time>2015-05-01T11:33:33.0000000+00:00</time></trkpt><trkpt lat="34.8766954" lon="33.4003167"><ele>308.3</ele><time>2015-05-01T11:33:35.0000000+00:00</time></trkpt><trkpt lat="34.8767588" lon="33.4003207"><ele>307.3</ele><time>2015-05-01T11:33:37.0000000+00:00</time></trkpt><trkpt lat="34.8768212" lon="33.4003247"><ele>306.6</ele><time>2015-05-01T11:33:39.0000000+00:00</time></trkpt><trkpt lat="34.8768839" lon="33.400336"><ele>306.9</ele><time>2015-05-01T11:33:41.0000000+00:00</time></trkpt><trkpt lat="34.8769417" lon="33.4003447"><ele>307.5</ele><time>2015-05-01T11:33:43.0000000+00:00</time></trkpt><trkpt lat="34.8769938" lon="33.4003522"><ele>307.9</ele><time>2015-05-01T11:33:45.0000000+00:00</time></trkpt><trkpt lat="34.8770483" lon="33.400352"><ele>308.0</ele><time>2015-05-01T11:33:47.0000000+00:00</time></trkpt><trkpt lat="34.8771079" lon="33.4003477"><ele>308.0</ele><time>2015-05-01T11:33:49.0000000+00:00</time></trkpt><trkpt lat="34.877169" lon="33.4003405"><ele>308.0</ele><time>2015-05-01T11:33:51.0000000+00:00</time></trkpt><trkpt lat="34.8772339" lon="33.4003388"><ele>308.3</ele><time>2015-05-01T11:33:53.0000000+00:00</time></trkpt><trkpt lat="34.8773058" lon="33.4003358"><ele>308.1</ele><time>2015-05-01T11:33:55.0000000+00:00</time></trkpt><trkpt lat="34.877387" lon="33.4003299"><ele>307.3</ele><time>2015-05-01T11:33:57.0000000+00:00</time></trkpt><trkpt lat="34.8774588" lon="33.4003235"><ele>307.8</ele><time>2015-05-01T11:33:59.0000000+00:00</time></trkpt><trkpt lat="34.8775188" lon="33.4003161"><ele>308.7</ele><time>2015-05-01T11:34:01.0000000+00:00</time></trkpt><trkpt lat="34.8775838" lon="33.4003066"><ele>309.4</ele><time>2015-05-01T11:34:03.0000000+00:00</time></trkpt><trkpt lat="34.8776483" lon="33.4002951"><ele>310.4</ele><time>2015-05-01T11:34:05.0000000+00:00</time></trkpt><trkpt lat="34.8776955" lon="33.4002798"><ele>311.4</ele><time>2015-05-01T11:34:07.0000000+00:00</time></trkpt><trkpt lat="34.8777423" lon="33.4002582"><ele>311.9</ele><time>2015-05-01T11:34:10.0000000+00:00</time></trkpt><trkpt lat="34.8777991" lon="33.4002574"><ele>312.9</ele><time>2015-05-01T11:34:13.0000000+00:00</time></trkpt><trkpt lat="34.8778605" lon="33.4002411"><ele>312.2</ele><time>2015-05-01T11:34:15.0000000+00:00</time></trkpt><trkpt lat="34.8779272" lon="33.4002172"><ele>312.6</ele><time>2015-05-01T11:34:17.0000000+00:00</time></trkpt><trkpt lat="34.8780006" lon="33.4001916"><ele>312.7</ele><time>2015-05-01T11:34:19.0000000+00:00</time></trkpt><trkpt lat="34.8780784" lon="33.400159"><ele>312.9</ele><time>2015-05-01T11:34:21.0000000+00:00</time></trkpt><trkpt lat="34.8781544" lon="33.4001238"><ele>313.5</ele><time>2015-05-01T11:34:23.0000000+00:00</time></trkpt><trkpt lat="34.8782333" lon="33.4000902"><ele>314.4</ele><time>2015-05-01T11:34:25.0000000+00:00</time></trkpt><trkpt lat="34.8783074" lon="33.400054"><ele>314.9</ele><time>2015-05-01T11:34:27.0000000+00:00</time></trkpt><trkpt lat="34.8783822" lon="33.4000151"><ele>315.5</ele><time>2015-05-01T11:34:29.0000000+00:00</time></trkpt><trkpt lat="34.8784554" lon="33.3999788"><ele>315.4</ele><time>2015-05-01T11:34:31.0000000+00:00</time></trkpt><trkpt lat="34.878532" lon="33.3999373"><ele>315.9</ele><time>2015-05-01T11:34:33.0000000+00:00</time></trkpt><trkpt lat="34.8786076" lon="33.3998955"><ele>316.0</ele><time>2015-05-01T11:34:35.0000000+00:00</time></trkpt><trkpt lat="34.8786813" lon="33.3998561"><ele>316.0</ele><time>2015-05-01T11:34:37.0000000+00:00</time></trkpt><trkpt lat="34.8787269" lon="33.3998318"><ele>316.0</ele><time>2015-05-01T11:34:39.0000000+00:00</time></trkpt><trkpt lat="34.8787784" lon="33.3997972"><ele>316.8</ele><time>2015-05-01T11:34:42.0000000+00:00</time></trkpt><trkpt lat="34.8788299" lon="33.3997896"><ele>317.0</ele><time>2015-05-01T11:34:58.0000000+00:00</time></trkpt><trkpt lat="34.8788835" lon="33.399767"><ele>317.0</ele><time>2015-05-01T11:35:01.0000000+00:00</time></trkpt><trkpt lat="34.8789408" lon="33.3997297"><ele>317.9</ele><time>2015-05-01T11:35:04.0000000+00:00</time></trkpt><trkpt lat="34.8789977" lon="33.399699"><ele>318.0</ele><time>2015-05-01T11:35:06.0000000+00:00</time></trkpt><trkpt lat="34.8790638" lon="33.3996691"><ele>318.8</ele><time>2015-05-01T11:35:08.0000000+00:00</time></trkpt><trkpt lat="34.8791209" lon="33.399644"><ele>319.0</ele><time>2015-05-01T11:35:10.0000000+00:00</time></trkpt><trkpt lat="34.8791747" lon="33.3996173"><ele>319.0</ele><time>2015-05-01T11:35:12.0000000+00:00</time></trkpt><trkpt lat="34.8792296" lon="33.3995926"><ele>319.0</ele><time>2015-05-01T11:35:14.0000000+00:00</time></trkpt><trkpt lat="34.8792936" lon="33.3995612"><ele>319.0</ele><time>2015-05-01T11:35:16.0000000+00:00</time></trkpt><trkpt lat="34.8793611" lon="33.3995251"><ele>319.8</ele><time>2015-05-01T11:35:18.0000000+00:00</time></trkpt><trkpt lat="34.8794313" lon="33.399483"><ele>320.5</ele><time>2015-05-01T11:35:20.0000000+00:00</time></trkpt><trkpt lat="34.8795024" lon="33.3994449"><ele>319.9</ele><time>2015-05-01T11:35:22.0000000+00:00</time></trkpt><trkpt lat="34.8795747" lon="33.3994082"><ele>320.0</ele><time>2015-05-01T11:35:24.0000000+00:00</time></trkpt><trkpt lat="34.8796394" lon="33.3993771"><ele>320.8</ele><time>2015-05-01T11:35:26.0000000+00:00</time></trkpt><trkpt lat="34.8797056" lon="33.3993461"><ele>321.0</ele><time>2015-05-01T11:35:28.0000000+00:00</time></trkpt><trkpt lat="34.8797702" lon="33.3993168"><ele>320.8</ele><time>2015-05-01T11:35:30.0000000+00:00</time></trkpt><trkpt lat="34.879839" lon="33.3992878"><ele>321.0</ele><time>2015-05-01T11:35:32.0000000+00:00</time></trkpt><trkpt lat="34.8799059" lon="33.3992639"><ele>320.8</ele><time>2015-05-01T11:35:34.0000000+00:00</time></trkpt><trkpt lat="34.8799621" lon="33.3992454"><ele>321.0</ele><time>2015-05-01T11:35:36.0000000+00:00</time></trkpt><trkpt lat="34.8800085" lon="33.3992281"><ele>321.8</ele><time>2015-05-01T11:35:38.0000000+00:00</time></trkpt><trkpt lat="34.8800622" lon="33.3992107"><ele>321.5</ele><time>2015-05-01T11:35:40.0000000+00:00</time></trkpt><trkpt lat="34.8801255" lon="33.3991853"><ele>321.1</ele><time>2015-05-01T11:35:42.0000000+00:00</time></trkpt><trkpt lat="34.8802004" lon="33.3991572"><ele>321.3</ele><time>2015-05-01T11:35:44.0000000+00:00</time></trkpt><trkpt lat="34.8802818" lon="33.3991261"><ele>321.8</ele><time>2015-05-01T11:35:46.0000000+00:00</time></trkpt><trkpt lat="34.8803658" lon="33.3990964"><ele>321.2</ele><time>2015-05-01T11:35:48.0000000+00:00</time></trkpt><trkpt lat="34.8804432" lon="33.3990743"><ele>320.6</ele><time>2015-05-01T11:35:50.0000000+00:00</time></trkpt><trkpt lat="34.880507" lon="33.3990554"><ele>320.4</ele><time>2015-05-01T11:35:52.0000000+00:00</time></trkpt><trkpt lat="34.8805575" lon="33.3990409"><ele>320.9</ele><time>2015-05-01T11:35:54.0000000+00:00</time></trkpt><trkpt lat="34.8806167" lon="33.3990202"><ele>321.1</ele><time>2015-05-01T11:35:57.0000000+00:00</time></trkpt><trkpt lat="34.8806764" lon="33.3990035"><ele>320.8</ele><time>2015-05-01T11:36:00.0000000+00:00</time></trkpt><trkpt lat="34.8807339" lon="33.3989885"><ele>321.0</ele><time>2015-05-01T11:36:02.0000000+00:00</time></trkpt><trkpt lat="34.88081" lon="33.3989656"><ele>321.0</ele><time>2015-05-01T11:36:04.0000000+00:00</time></trkpt><trkpt lat="34.8808853" lon="33.3989374"><ele>321.0</ele><time>2015-05-01T11:36:06.0000000+00:00</time></trkpt><trkpt lat="34.8809657" lon="33.3989052"><ele>321.0</ele><time>2015-05-01T11:36:08.0000000+00:00</time></trkpt><trkpt lat="34.881052" lon="33.3988769"><ele>321.0</ele><time>2015-05-01T11:36:10.0000000+00:00</time></trkpt><trkpt lat="34.8810978" lon="33.3988629"><ele>321.0</ele><time>2015-05-01T11:36:11.0000000+00:00</time></trkpt><trkpt lat="34.8811442" lon="33.3988486"><ele>321.0</ele><time>2015-05-01T11:36:12.0000000+00:00</time></trkpt><trkpt lat="34.8811893" lon="33.3988352"><ele>321.0</ele><time>2015-05-01T11:36:13.0000000+00:00</time></trkpt><trkpt lat="34.8812331" lon="33.3988223"><ele>321.5</ele><time>2015-05-01T11:36:14.0000000+00:00</time></trkpt><trkpt lat="34.8812772" lon="33.3988086"><ele>321.8</ele><time>2015-05-01T11:36:15.0000000+00:00</time></trkpt><trkpt lat="34.8813222" lon="33.3987945"><ele>321.9</ele><time>2015-05-01T11:36:16.0000000+00:00</time></trkpt><trkpt lat="34.8813689" lon="33.3987808"><ele>322.5</ele><time>2015-05-01T11:36:17.0000000+00:00</time></trkpt><trkpt lat="34.8814574" lon="33.398756"><ele>322.6</ele><time>2015-05-01T11:36:19.0000000+00:00</time></trkpt><trkpt lat="34.8815076" lon="33.3987421"><ele>322.8</ele><time>2015-05-01T11:36:20.0000000+00:00</time></trkpt><trkpt lat="34.881552" lon="33.3987267"><ele>322.9</ele><time>2015-05-01T11:36:21.0000000+00:00</time></trkpt><trkpt lat="34.881636" lon="33.398717"><ele>323.0</ele><time>2015-05-01T11:36:23.0000000+00:00</time></trkpt><trkpt lat="34.8817202" lon="33.3987041"><ele>323.5</ele><time>2015-05-01T11:36:25.0000000+00:00</time></trkpt><trkpt lat="34.8818001" lon="33.3986974"><ele>323.9</ele><time>2015-05-01T11:36:27.0000000+00:00</time></trkpt><trkpt lat="34.8818523" lon="33.3986964"><ele>324.0</ele><time>2015-05-01T11:36:28.0000000+00:00</time></trkpt><trkpt lat="34.8819418" lon="33.3986994"><ele>324.8</ele><time>2015-05-01T11:36:30.0000000+00:00</time></trkpt><trkpt lat="34.8820284" lon="33.3987086"><ele>325.0</ele><time>2015-05-01T11:36:32.0000000+00:00</time></trkpt><trkpt lat="34.8821139" lon="33.3987135"><ele>325.5</ele><time>2015-05-01T11:36:34.0000000+00:00</time></trkpt><trkpt lat="34.8821929" lon="33.3987182"><ele>326.6</ele><time>2015-05-01T11:36:36.0000000+00:00</time></trkpt><trkpt lat="34.8822641" lon="33.3987293"><ele>326.9</ele><time>2015-05-01T11:36:38.0000000+00:00</time></trkpt><trkpt lat="34.8823356" lon="33.3987511"><ele>327.7</ele><time>2015-05-01T11:36:40.0000000+00:00</time></trkpt><trkpt lat="34.8824042" lon="33.3987721"><ele>328.0</ele><time>2015-05-01T11:36:42.0000000+00:00</time></trkpt><trkpt lat="34.882474" lon="33.3987991"><ele>328.5</ele><time>2015-05-01T11:36:44.0000000+00:00</time></trkpt><trkpt lat="34.8825397" lon="33.3988307"><ele>328.9</ele><time>2015-05-01T11:36:46.0000000+00:00</time></trkpt><trkpt lat="34.8826064" lon="33.398865"><ele>329.0</ele><time>2015-05-01T11:36:48.0000000+00:00</time></trkpt><trkpt lat="34.8826726" lon="33.3988927"><ele>329.8</ele><time>2015-05-01T11:36:50.0000000+00:00</time></trkpt><trkpt lat="34.8827414" lon="33.39892"><ele>330.0</ele><time>2015-05-01T11:36:52.0000000+00:00</time></trkpt><trkpt lat="34.8828078" lon="33.398945"><ele>330.0</ele><time>2015-05-01T11:36:54.0000000+00:00</time></trkpt><trkpt lat="34.8828775" lon="33.3989673"><ele>330.0</ele><time>2015-05-01T11:36:56.0000000+00:00</time></trkpt><trkpt lat="34.8829434" lon="33.3989862"><ele>330.5</ele><time>2015-05-01T11:36:58.0000000+00:00</time></trkpt><trkpt lat="34.88301" lon="33.3990106"><ele>330.9</ele><time>2015-05-01T11:37:00.0000000+00:00</time></trkpt><trkpt lat="34.883073" lon="33.3990402"><ele>331.5</ele><time>2015-05-01T11:37:02.0000000+00:00</time></trkpt><trkpt lat="34.883139" lon="33.3990685"><ele>331.9</ele><time>2015-05-01T11:37:04.0000000+00:00</time></trkpt><trkpt lat="34.8832018" lon="33.3990937"><ele>332.0</ele><time>2015-05-01T11:37:06.0000000+00:00</time></trkpt><trkpt lat="34.8832551" lon="33.3991186"><ele>331.5</ele><time>2015-05-01T11:37:08.0000000+00:00</time></trkpt><trkpt lat="34.8833007" lon="33.3991391"><ele>331.1</ele><time>2015-05-01T11:37:10.0000000+00:00</time></trkpt><trkpt lat="34.8833508" lon="33.399157"><ele>331.1</ele><time>2015-05-01T11:37:12.0000000+00:00</time></trkpt><trkpt lat="34.8834022" lon="33.3991757"><ele>331.0</ele><time>2015-05-01T11:37:14.0000000+00:00</time></trkpt><trkpt lat="34.8834631" lon="33.3991992"><ele>331.0</ele><time>2015-05-01T11:37:16.0000000+00:00</time></trkpt><trkpt lat="34.8835198" lon="33.3992227"><ele>331.0</ele><time>2015-05-01T11:37:18.0000000+00:00</time></trkpt><trkpt lat="34.8835805" lon="33.3992485"><ele>331.0</ele><time>2015-05-01T11:37:20.0000000+00:00</time></trkpt><trkpt lat="34.8836391" lon="33.3992744"><ele>331.5</ele><time>2015-05-01T11:37:22.0000000+00:00</time></trkpt><trkpt lat="34.8836956" lon="33.3992968"><ele>331.9</ele><time>2015-05-01T11:37:24.0000000+00:00</time></trkpt><trkpt lat="34.8837613" lon="33.3993183"><ele>331.6</ele><time>2015-05-01T11:37:27.0000000+00:00</time></trkpt><trkpt lat="34.883821" lon="33.3993458"><ele>330.3</ele><time>2015-05-01T11:37:30.0000000+00:00</time></trkpt><trkpt lat="34.8838406" lon="33.3993975"><ele>333.9</ele><time>2015-05-01T11:41:51.0000000+00:00</time></trkpt><trkpt lat="34.8838884" lon="33.3993982"><ele>334.0</ele><time>2015-05-01T11:41:53.0000000+00:00</time></trkpt><trkpt lat="34.8839487" lon="33.3994156"><ele>334.0</ele><time>2015-05-01T11:41:56.0000000+00:00</time></trkpt><trkpt lat="34.8839993" lon="33.3994365"><ele>333.8</ele><time>2015-05-01T11:41:59.0000000+00:00</time></trkpt><trkpt lat="34.8840521" lon="33.3994492"><ele>333.6</ele><time>2015-05-01T11:42:02.0000000+00:00</time></trkpt><trkpt lat="34.8841055" lon="33.3994755"><ele>331.7</ele><time>2015-05-01T11:42:05.0000000+00:00</time></trkpt><trkpt lat="34.8841585" lon="33.3994985"><ele>331.9</ele><time>2015-05-01T11:42:08.0000000+00:00</time></trkpt><trkpt lat="34.8842091" lon="33.3995122"><ele>332.0</ele><time>2015-05-01T11:42:11.0000000+00:00</time></trkpt><trkpt lat="34.8842595" lon="33.3995338"><ele>332.9</ele><time>2015-05-01T11:42:14.0000000+00:00</time></trkpt><trkpt lat="34.8843135" lon="33.399555"><ele>333.3</ele><time>2015-05-01T11:42:17.0000000+00:00</time></trkpt><trkpt lat="34.8843665" lon="33.3995726"><ele>333.9</ele><time>2015-05-01T11:42:20.0000000+00:00</time></trkpt><trkpt lat="34.8844182" lon="33.399593"><ele>334.3</ele><time>2015-05-01T11:42:23.0000000+00:00</time></trkpt><trkpt lat="34.8844713" lon="33.3996153"><ele>334.4</ele><time>2015-05-01T11:42:26.0000000+00:00</time></trkpt><trkpt lat="34.8845287" lon="33.3996396"><ele>334.8</ele><time>2015-05-01T11:42:29.0000000+00:00</time></trkpt><trkpt lat="34.8845818" lon="33.3996812"><ele>333.9</ele><time>2015-05-01T11:43:41.0000000+00:00</time></trkpt><trkpt lat="34.8846284" lon="33.399695"><ele>334.7</ele><time>2015-05-01T11:43:43.0000000+00:00</time></trkpt><trkpt lat="34.8846753" lon="33.3997081"><ele>333.7</ele><time>2015-05-01T11:43:45.0000000+00:00</time></trkpt><trkpt lat="34.8847222" lon="33.3997234"><ele>332.4</ele><time>2015-05-01T11:43:47.0000000+00:00</time></trkpt><trkpt lat="34.8847711" lon="33.3997413"><ele>333.4</ele><time>2015-05-01T11:43:49.0000000+00:00</time></trkpt><trkpt lat="34.8848151" lon="33.3997546"><ele>331.9</ele><time>2015-05-01T11:43:51.0000000+00:00</time></trkpt><trkpt lat="34.8848594" lon="33.3997661"><ele>331.0</ele><time>2015-05-01T11:43:53.0000000+00:00</time></trkpt><trkpt lat="34.884921" lon="33.3997928"><ele>329.6</ele><time>2015-05-01T11:43:56.0000000+00:00</time></trkpt><trkpt lat="34.8849791" lon="33.399815"><ele>328.6</ele><time>2015-05-01T11:43:59.0000000+00:00</time></trkpt><trkpt lat="34.8850387" lon="33.3998317"><ele>327.6</ele><time>2015-05-01T11:44:02.0000000+00:00</time></trkpt><trkpt lat="34.8850828" lon="33.3998486"><ele>327.9</ele><time>2015-05-01T11:44:04.0000000+00:00</time></trkpt><trkpt lat="34.8851342" lon="33.3998702"><ele>328.0</ele><time>2015-05-01T11:44:06.0000000+00:00</time></trkpt><trkpt lat="34.8851877" lon="33.3998936"><ele>328.8</ele><time>2015-05-01T11:44:08.0000000+00:00</time></trkpt><trkpt lat="34.8852418" lon="33.3999161"><ele>329.7</ele><time>2015-05-01T11:44:10.0000000+00:00</time></trkpt><trkpt lat="34.8852998" lon="33.3999402"><ele>329.9</ele><time>2015-05-01T11:44:12.0000000+00:00</time></trkpt><trkpt lat="34.8853562" lon="33.399963"><ele>330.5</ele><time>2015-05-01T11:44:14.0000000+00:00</time></trkpt><trkpt lat="34.8854133" lon="33.3999894"><ele>330.9</ele><time>2015-05-01T11:44:16.0000000+00:00</time></trkpt><trkpt lat="34.8854691" lon="33.400014"><ele>331.5</ele><time>2015-05-01T11:44:18.0000000+00:00</time></trkpt><trkpt lat="34.885527" lon="33.4000384"><ele>331.9</ele><time>2015-05-01T11:44:20.0000000+00:00</time></trkpt><trkpt lat="34.8855833" lon="33.4000608"><ele>332.5</ele><time>2015-05-01T11:44:22.0000000+00:00</time></trkpt><trkpt lat="34.8856434" lon="33.4000834"><ele>333.6</ele><time>2015-05-01T11:44:24.0000000+00:00</time></trkpt><trkpt lat="34.8857016" lon="33.4001072"><ele>333.9</ele><time>2015-05-01T11:44:26.0000000+00:00</time></trkpt><trkpt lat="34.8857627" lon="33.4001307"><ele>334.0</ele><time>2015-05-01T11:44:28.0000000+00:00</time></trkpt><trkpt lat="34.8858219" lon="33.4001519"><ele>334.0</ele><time>2015-05-01T11:44:30.0000000+00:00</time></trkpt><trkpt lat="34.8858822" lon="33.4001697"><ele>334.8</ele><time>2015-05-01T11:44:32.0000000+00:00</time></trkpt><trkpt lat="34.8859392" lon="33.4001862"><ele>335.0</ele><time>2015-05-01T11:44:34.0000000+00:00</time></trkpt><trkpt lat="34.8859963" lon="33.4002033"><ele>335.8</ele><time>2015-05-01T11:44:36.0000000+00:00</time></trkpt><trkpt lat="34.886053" lon="33.4002178"><ele>336.7</ele><time>2015-05-01T11:44:38.0000000+00:00</time></trkpt><trkpt lat="34.8861125" lon="33.4002329"><ele>336.9</ele><time>2015-05-01T11:44:40.0000000+00:00</time></trkpt><trkpt lat="34.8861703" lon="33.4002473"><ele>337.8</ele><time>2015-05-01T11:44:42.0000000+00:00</time></trkpt><trkpt lat="34.8862291" lon="33.4002604"><ele>338.7</ele><time>2015-05-01T11:44:44.0000000+00:00</time></trkpt><trkpt lat="34.8862861" lon="33.4002706"><ele>339.7</ele><time>2015-05-01T11:44:46.0000000+00:00</time></trkpt><trkpt lat="34.8863436" lon="33.4002794"><ele>339.9</ele><time>2015-05-01T11:44:48.0000000+00:00</time></trkpt><trkpt lat="34.8864012" lon="33.4002868"><ele>340.8</ele><time>2015-05-01T11:44:50.0000000+00:00</time></trkpt><trkpt lat="34.8864615" lon="33.4002974"><ele>341.5</ele><time>2015-05-01T11:44:52.0000000+00:00</time></trkpt><trkpt lat="34.8865201" lon="33.4003046"><ele>342.4</ele><time>2015-05-01T11:44:54.0000000+00:00</time></trkpt><trkpt lat="34.8865822" lon="33.4003079"><ele>343.4</ele><time>2015-05-01T11:44:56.0000000+00:00</time></trkpt><trkpt lat="34.8866429" lon="33.4003124"><ele>343.9</ele><time>2015-05-01T11:44:58.0000000+00:00</time></trkpt><trkpt lat="34.8867061" lon="33.4003137"><ele>344.7</ele><time>2015-05-01T11:45:00.0000000+00:00</time></trkpt><trkpt lat="34.8867688" lon="33.4003139"><ele>345.4</ele><time>2015-05-01T11:45:02.0000000+00:00</time></trkpt><trkpt lat="34.8868328" lon="33.4003159"><ele>345.9</ele><time>2015-05-01T11:45:04.0000000+00:00</time></trkpt><trkpt lat="34.8868957" lon="33.4003156"><ele>346.5</ele><time>2015-05-01T11:45:06.0000000+00:00</time></trkpt><trkpt lat="34.8869588" lon="33.4003162"><ele>346.9</ele><time>2015-05-01T11:45:08.0000000+00:00</time></trkpt><trkpt lat="34.8870197" lon="33.400316"><ele>347.7</ele><time>2015-05-01T11:45:10.0000000+00:00</time></trkpt><trkpt lat="34.8870821" lon="33.4003116"><ele>348.7</ele><time>2015-05-01T11:45:12.0000000+00:00</time></trkpt><trkpt lat="34.8871441" lon="33.4003042"><ele>349.4</ele><time>2015-05-01T11:45:14.0000000+00:00</time></trkpt><trkpt lat="34.8872086" lon="33.4002936"><ele>350.4</ele><time>2015-05-01T11:45:16.0000000+00:00</time></trkpt><trkpt lat="34.8872704" lon="33.4002839"><ele>351.4</ele><time>2015-05-01T11:45:18.0000000+00:00</time></trkpt><trkpt lat="34.8873334" lon="33.4002727"><ele>351.9</ele><time>2015-05-01T11:45:20.0000000+00:00</time></trkpt><trkpt lat="34.8873927" lon="33.4002609"><ele>352.0</ele><time>2015-05-01T11:45:22.0000000+00:00</time></trkpt><trkpt lat="34.8874522" lon="33.4002437"><ele>352.8</ele><time>2015-05-01T11:45:24.0000000+00:00</time></trkpt><trkpt lat="34.8875049" lon="33.4002298"><ele>353.0</ele><time>2015-05-01T11:45:26.0000000+00:00</time></trkpt><trkpt lat="34.8875644" lon="33.4002144"><ele>353.9</ele><time>2015-05-01T11:45:29.0000000+00:00</time></trkpt><trkpt lat="34.8876096" lon="33.4002076"><ele>354.0</ele><time>2015-05-01T11:45:31.0000000+00:00</time></trkpt><trkpt lat="34.8876591" lon="33.4001982"><ele>354.8</ele><time>2015-05-01T11:45:33.0000000+00:00</time></trkpt><trkpt lat="34.887709" lon="33.4001872"><ele>355.0</ele><time>2015-05-01T11:45:35.0000000+00:00</time></trkpt><trkpt lat="34.8877626" lon="33.4001765"><ele>355.0</ele><time>2015-05-01T11:45:37.0000000+00:00</time></trkpt><trkpt lat="34.8878145" lon="33.4001631"><ele>355.8</ele><time>2015-05-01T11:45:39.0000000+00:00</time></trkpt><trkpt lat="34.8878675" lon="33.4001475"><ele>356.7</ele><time>2015-05-01T11:45:41.0000000+00:00</time></trkpt><trkpt lat="34.8879193" lon="33.4001321"><ele>356.9</ele><time>2015-05-01T11:45:43.0000000+00:00</time></trkpt><trkpt lat="34.8879712" lon="33.4001202"><ele>357.3</ele><time>2015-05-01T11:45:45.0000000+00:00</time></trkpt><trkpt lat="34.8880201" lon="33.4001106"><ele>357.5</ele><time>2015-05-01T11:45:48.0000000+00:00</time></trkpt><trkpt lat="34.8880758" lon="33.4000947"><ele>358.7</ele><time>2015-05-01T11:45:51.0000000+00:00</time></trkpt><trkpt lat="34.8881255" lon="33.4000817"><ele>358.2</ele><time>2015-05-01T11:45:53.0000000+00:00</time></trkpt><trkpt lat="34.8881772" lon="33.4000696"><ele>358.8</ele><time>2015-05-01T11:45:55.0000000+00:00</time></trkpt><trkpt lat="34.8882377" lon="33.400051"><ele>359.0</ele><time>2015-05-01T11:45:57.0000000+00:00</time></trkpt><trkpt lat="34.8882934" lon="33.4000347"><ele>359.0</ele><time>2015-05-01T11:45:59.0000000+00:00</time></trkpt><trkpt lat="34.8883445" lon="33.4000242"><ele>359.5</ele><time>2015-05-01T11:46:01.0000000+00:00</time></trkpt><trkpt lat="34.8883931" lon="33.4000154"><ele>359.6</ele><time>2015-05-01T11:46:03.0000000+00:00</time></trkpt><trkpt lat="34.8884494" lon="33.4000071"><ele>359.4</ele><time>2015-05-01T11:46:05.0000000+00:00</time></trkpt><trkpt lat="34.8885066" lon="33.3999976"><ele>359.1</ele><time>2015-05-01T11:46:07.0000000+00:00</time></trkpt><trkpt lat="34.8885653" lon="33.3999869"><ele>359.0</ele><time>2015-05-01T11:46:09.0000000+00:00</time></trkpt><trkpt lat="34.8886206" lon="33.3999814"><ele>359.5</ele><time>2015-05-01T11:46:11.0000000+00:00</time></trkpt><trkpt lat="34.888677" lon="33.3999732"><ele>359.9</ele><time>2015-05-01T11:46:13.0000000+00:00</time></trkpt><trkpt lat="34.8887316" lon="33.3999658"><ele>360.0</ele><time>2015-05-01T11:46:15.0000000+00:00</time></trkpt><trkpt lat="34.8887901" lon="33.3999625"><ele>360.0</ele><time>2015-05-01T11:46:17.0000000+00:00</time></trkpt><trkpt lat="34.8888454" lon="33.3999588"><ele>360.0</ele><time>2015-05-01T11:46:19.0000000+00:00</time></trkpt><trkpt lat="34.8889031" lon="33.3999552"><ele>360.8</ele><time>2015-05-01T11:46:21.0000000+00:00</time></trkpt><trkpt lat="34.8889602" lon="33.3999541"><ele>361.5</ele><time>2015-05-01T11:46:23.0000000+00:00</time></trkpt><trkpt lat="34.8890195" lon="33.3999518"><ele>361.9</ele><time>2015-05-01T11:46:25.0000000+00:00</time></trkpt><trkpt lat="34.8890763" lon="33.3999592"><ele>362.5</ele><time>2015-05-01T11:46:27.0000000+00:00</time></trkpt><trkpt lat="34.8891324" lon="33.3999697"><ele>362.9</ele><time>2015-05-01T11:46:29.0000000+00:00</time></trkpt><trkpt lat="34.8891857" lon="33.39998"><ele>363.0</ele><time>2015-05-01T11:46:31.0000000+00:00</time></trkpt><trkpt lat="34.8892406" lon="33.399991"><ele>363.5</ele><time>2015-05-01T11:46:33.0000000+00:00</time></trkpt><trkpt lat="34.8892921" lon="33.4000064"><ele>363.9</ele><time>2015-05-01T11:46:35.0000000+00:00</time></trkpt><trkpt lat="34.8893459" lon="33.4000162"><ele>364.0</ele><time>2015-05-01T11:46:37.0000000+00:00</time></trkpt><trkpt lat="34.8893984" lon="33.400025"><ele>364.0</ele><time>2015-05-01T11:46:39.0000000+00:00</time></trkpt><trkpt lat="34.8894545" lon="33.4000368"><ele>364.0</ele><time>2015-05-01T11:46:41.0000000+00:00</time></trkpt><trkpt lat="34.8895091" lon="33.4000528"><ele>364.0</ele><time>2015-05-01T11:46:43.0000000+00:00</time></trkpt><trkpt lat="34.889564" lon="33.4000698"><ele>364.5</ele><time>2015-05-01T11:46:45.0000000+00:00</time></trkpt><trkpt lat="34.8896162" lon="33.4000875"><ele>364.9</ele><time>2015-05-01T11:46:47.0000000+00:00</time></trkpt><trkpt lat="34.8896719" lon="33.4001039"><ele>365.0</ele><time>2015-05-01T11:46:49.0000000+00:00</time></trkpt><trkpt lat="34.8897262" lon="33.4001208"><ele>365.0</ele><time>2015-05-01T11:46:51.0000000+00:00</time></trkpt><trkpt lat="34.8897844" lon="33.4001388"><ele>365.3</ele><time>2015-05-01T11:46:53.0000000+00:00</time></trkpt><trkpt lat="34.8898428" lon="33.4001562"><ele>365.8</ele><time>2015-05-01T11:46:55.0000000+00:00</time></trkpt><trkpt lat="34.8899044" lon="33.4001758"><ele>366.5</ele><time>2015-05-01T11:46:57.0000000+00:00</time></trkpt><trkpt lat="34.8899633" lon="33.4001956"><ele>366.9</ele><time>2015-05-01T11:46:59.0000000+00:00</time></trkpt><trkpt lat="34.8900232" lon="33.4002128"><ele>367.0</ele><time>2015-05-01T11:47:01.0000000+00:00</time></trkpt><trkpt lat="34.8900771" lon="33.4002266"><ele>367.0</ele><time>2015-05-01T11:47:03.0000000+00:00</time></trkpt><trkpt lat="34.8901334" lon="33.4002414"><ele>367.8</ele><time>2015-05-01T11:47:05.0000000+00:00</time></trkpt><trkpt lat="34.8901883" lon="33.4002598"><ele>368.0</ele><time>2015-05-01T11:47:07.0000000+00:00</time></trkpt><trkpt lat="34.8902468" lon="33.4002773"><ele>368.5</ele><time>2015-05-01T11:47:09.0000000+00:00</time></trkpt><trkpt lat="34.890304" lon="33.4002941"><ele>368.9</ele><time>2015-05-01T11:47:11.0000000+00:00</time></trkpt><trkpt lat="34.890363" lon="33.4003107"><ele>369.5</ele><time>2015-05-01T11:47:13.0000000+00:00</time></trkpt><trkpt lat="34.8904203" lon="33.4003301"><ele>369.9</ele><time>2015-05-01T11:47:15.0000000+00:00</time></trkpt><trkpt lat="34.8904819" lon="33.4003468"><ele>370.0</ele><time>2015-05-01T11:47:17.0000000+00:00</time></trkpt><trkpt lat="34.8905403" lon="33.4003594"><ele>370.0</ele><time>2015-05-01T11:47:19.0000000+00:00</time></trkpt><trkpt lat="34.8906001" lon="33.4003724"><ele>370.0</ele><time>2015-05-01T11:47:21.0000000+00:00</time></trkpt><trkpt lat="34.8906557" lon="33.4003895"><ele>370.8</ele><time>2015-05-01T11:47:23.0000000+00:00</time></trkpt><trkpt lat="34.8907109" lon="33.4004044"><ele>371.5</ele><time>2015-05-01T11:47:25.0000000+00:00</time></trkpt><trkpt lat="34.8907676" lon="33.4004162"><ele>372.0</ele><time>2015-05-01T11:47:28.0000000+00:00</time></trkpt><trkpt lat="34.8908272" lon="33.4004268"><ele>372.9</ele><time>2015-05-01T11:47:32.0000000+00:00</time></trkpt><trkpt lat="34.8908906" lon="33.4004412"><ele>373.5</ele><time>2015-05-01T11:47:35.0000000+00:00</time></trkpt><trkpt lat="34.8909374" lon="33.400449"><ele>373.9</ele><time>2015-05-01T11:47:37.0000000+00:00</time></trkpt><trkpt lat="34.8909851" lon="33.4004519"><ele>374.7</ele><time>2015-05-01T11:47:39.0000000+00:00</time></trkpt><trkpt lat="34.8910363" lon="33.4004536"><ele>375.0</ele><time>2015-05-01T11:47:41.0000000+00:00</time></trkpt><trkpt lat="34.891086" lon="33.4004557"><ele>375.0</ele><time>2015-05-01T11:47:43.0000000+00:00</time></trkpt><trkpt lat="34.8911371" lon="33.4004559"><ele>375.5</ele><time>2015-05-01T11:47:45.0000000+00:00</time></trkpt><trkpt lat="34.8911855" lon="33.4004544"><ele>375.9</ele><time>2015-05-01T11:47:47.0000000+00:00</time></trkpt><trkpt lat="34.8912308" lon="33.4004519"><ele>376.0</ele><time>2015-05-01T11:47:49.0000000+00:00</time></trkpt><trkpt lat="34.8912809" lon="33.4004472"><ele>376.0</ele><time>2015-05-01T11:47:52.0000000+00:00</time></trkpt><trkpt lat="34.891335" lon="33.400439"><ele>376.0</ele><time>2015-05-01T11:47:55.0000000+00:00</time></trkpt><trkpt lat="34.8913948" lon="33.4004336"><ele>376.0</ele><time>2015-05-01T11:47:58.0000000+00:00</time></trkpt><trkpt lat="34.891458" lon="33.4004289"><ele>376.0</ele><time>2015-05-01T11:48:01.0000000+00:00</time></trkpt><trkpt lat="34.8915198" lon="33.4004201"><ele>376.8</ele><time>2015-05-01T11:48:04.0000000+00:00</time></trkpt><trkpt lat="34.891588" lon="33.4004107"><ele>376.2</ele><time>2015-05-01T11:48:07.0000000+00:00</time></trkpt><trkpt lat="34.8916441" lon="33.4003992"><ele>376.1</ele><time>2015-05-01T11:48:09.0000000+00:00</time></trkpt><trkpt lat="34.8916921" lon="33.4003957"><ele>376.0</ele><time>2015-05-01T11:48:11.0000000+00:00</time></trkpt><trkpt lat="34.8917393" lon="33.4003896"><ele>376.5</ele><time>2015-05-01T11:48:13.0000000+00:00</time></trkpt><trkpt lat="34.8917854" lon="33.4003809"><ele>376.9</ele><time>2015-05-01T11:48:15.0000000+00:00</time></trkpt><trkpt lat="34.891833" lon="33.400367"><ele>377.5</ele><time>2015-05-01T11:48:17.0000000+00:00</time></trkpt><trkpt lat="34.8918809" lon="33.4003566"><ele>377.9</ele><time>2015-05-01T11:48:19.0000000+00:00</time></trkpt><trkpt lat="34.8919314" lon="33.4003487"><ele>378.0</ele><time>2015-05-01T11:48:21.0000000+00:00</time></trkpt><trkpt lat="34.8919799" lon="33.400335"><ele>378.0</ele><time>2015-05-01T11:48:23.0000000+00:00</time></trkpt><trkpt lat="34.892029" lon="33.400326"><ele>378.0</ele><time>2015-05-01T11:48:25.0000000+00:00</time></trkpt><trkpt lat="34.8920951" lon="33.4003128"><ele>378.0</ele><time>2015-05-01T11:48:28.0000000+00:00</time></trkpt><trkpt lat="34.8921404" lon="33.4003029"><ele>378.3</ele><time>2015-05-01T11:48:30.0000000+00:00</time></trkpt><trkpt lat="34.8921915" lon="33.400294"><ele>378.1</ele><time>2015-05-01T11:48:32.0000000+00:00</time></trkpt><trkpt lat="34.8922504" lon="33.4002814"><ele>378.5</ele><time>2015-05-01T11:48:34.0000000+00:00</time></trkpt><trkpt lat="34.8923188" lon="33.400268"><ele>378.9</ele><time>2015-05-01T11:48:36.0000000+00:00</time></trkpt><trkpt lat="34.8923862" lon="33.400257"><ele>379.0</ele><time>2015-05-01T11:48:38.0000000+00:00</time></trkpt><trkpt lat="34.8924482" lon="33.4002418"><ele>379.0</ele><time>2015-05-01T11:48:40.0000000+00:00</time></trkpt><trkpt lat="34.8925091" lon="33.400229"><ele>379.8</ele><time>2015-05-01T11:48:42.0000000+00:00</time></trkpt><trkpt lat="34.8925751" lon="33.4002184"><ele>380.0</ele><time>2015-05-01T11:48:44.0000000+00:00</time></trkpt><trkpt lat="34.8926404" lon="33.4002036"><ele>380.0</ele><time>2015-05-01T11:48:46.0000000+00:00</time></trkpt><trkpt lat="34.8927099" lon="33.4001872"><ele>380.0</ele><time>2015-05-01T11:48:48.0000000+00:00</time></trkpt><trkpt lat="34.8927794" lon="33.4001739"><ele>380.0</ele><time>2015-05-01T11:48:50.0000000+00:00</time></trkpt><trkpt lat="34.8928604" lon="33.400159"><ele>380.0</ele><time>2015-05-01T11:48:52.0000000+00:00</time></trkpt><trkpt lat="34.8929061" lon="33.4001477"><ele>380.0</ele><time>2015-05-01T11:48:53.0000000+00:00</time></trkpt><trkpt lat="34.8929902" lon="33.4001254"><ele>380.0</ele><time>2015-05-01T11:48:55.0000000+00:00</time></trkpt><trkpt lat="34.8930723" lon="33.400108"><ele>380.8</ele><time>2015-05-01T11:48:57.0000000+00:00</time></trkpt><trkpt lat="34.8931398" lon="33.4000914"><ele>380.2</ele><time>2015-05-01T11:48:59.0000000+00:00</time></trkpt><trkpt lat="34.8932034" lon="33.4000839"><ele>380.8</ele><time>2015-05-01T11:49:01.0000000+00:00</time></trkpt><trkpt lat="34.8932614" lon="33.4000766"><ele>381.0</ele><time>2015-05-01T11:49:03.0000000+00:00</time></trkpt><trkpt lat="34.8933173" lon="33.4000617"><ele>381.8</ele><time>2015-05-01T11:49:05.0000000+00:00</time></trkpt><trkpt lat="34.8933688" lon="33.4000494"><ele>382.0</ele><time>2015-05-01T11:49:07.0000000+00:00</time></trkpt><trkpt lat="34.8934141" lon="33.4000382"><ele>382.0</ele><time>2015-05-01T11:49:09.0000000+00:00</time></trkpt><trkpt lat="34.8934775" lon="33.4000275"><ele>382.0</ele><time>2015-05-01T11:49:12.0000000+00:00</time></trkpt><trkpt lat="34.8935316" lon="33.4000112"><ele>382.0</ele><time>2015-05-01T11:49:15.0000000+00:00</time></trkpt><trkpt lat="34.8935861" lon="33.4000016"><ele>382.5</ele><time>2015-05-01T11:49:18.0000000+00:00</time></trkpt><trkpt lat="34.8936419" lon="33.3999881"><ele>382.9</ele><time>2015-05-01T11:49:20.0000000+00:00</time></trkpt><trkpt lat="34.8937145" lon="33.3999722"><ele>383.0</ele><time>2015-05-01T11:49:22.0000000+00:00</time></trkpt><trkpt lat="34.893796" lon="33.3999579"><ele>382.3</ele><time>2015-05-01T11:49:24.0000000+00:00</time></trkpt><trkpt lat="34.8938434" lon="33.3999481"><ele>382.1</ele><time>2015-05-01T11:49:25.0000000+00:00</time></trkpt><trkpt lat="34.8939011" lon="33.3999342"><ele>382.1</ele><time>2015-05-01T11:49:26.0000000+00:00</time></trkpt><trkpt lat="34.8939512" lon="33.3999278"><ele>381.6</ele><time>2015-05-01T11:49:27.0000000+00:00</time></trkpt><trkpt lat="34.8940024" lon="33.3999202"><ele>381.8</ele><time>2015-05-01T11:49:28.0000000+00:00</time></trkpt><trkpt lat="34.8940554" lon="33.3999099"><ele>381.9</ele><time>2015-05-01T11:49:29.0000000+00:00</time></trkpt><trkpt lat="34.8941094" lon="33.3998942"><ele>382.0</ele><time>2015-05-01T11:49:30.0000000+00:00</time></trkpt><trkpt lat="34.8941646" lon="33.3998793"><ele>381.5</ele><time>2015-05-01T11:49:31.0000000+00:00</time></trkpt><trkpt lat="34.8942199" lon="33.3998671"><ele>381.8</ele><time>2015-05-01T11:49:32.0000000+00:00</time></trkpt><trkpt lat="34.8942723" lon="33.3998579"><ele>381.4</ele><time>2015-05-01T11:49:33.0000000+00:00</time></trkpt><trkpt lat="34.8943248" lon="33.3998472"><ele>381.7</ele><time>2015-05-01T11:49:34.0000000+00:00</time></trkpt><trkpt lat="34.8943768" lon="33.3998417"><ele>381.9</ele><time>2015-05-01T11:49:35.0000000+00:00</time></trkpt><trkpt lat="34.8944253" lon="33.3998348"><ele>381.9</ele><time>2015-05-01T11:49:36.0000000+00:00</time></trkpt><trkpt lat="34.8944758" lon="33.3998217"><ele>382.5</ele><time>2015-05-01T11:49:37.0000000+00:00</time></trkpt><trkpt lat="34.894523" lon="33.399815"><ele>382.8</ele><time>2015-05-01T11:49:38.0000000+00:00</time></trkpt><trkpt lat="34.8945694" lon="33.3998097"><ele>382.9</ele><time>2015-05-01T11:49:39.0000000+00:00</time></trkpt><trkpt lat="34.8946142" lon="33.3998"><ele>383.0</ele><time>2015-05-01T11:49:40.0000000+00:00</time></trkpt><trkpt lat="34.8946626" lon="33.3997911"><ele>383.0</ele><time>2015-05-01T11:49:41.0000000+00:00</time></trkpt><trkpt lat="34.8947074" lon="33.3997824"><ele>382.5</ele><time>2015-05-01T11:49:42.0000000+00:00</time></trkpt><trkpt lat="34.8948035" lon="33.3997618"><ele>382.1</ele><time>2015-05-01T11:49:44.0000000+00:00</time></trkpt><trkpt lat="34.8948801" lon="33.3997467"><ele>382.1</ele><time>2015-05-01T11:49:46.0000000+00:00</time></trkpt><trkpt lat="34.894927" lon="33.3997427"><ele>382.0</ele><time>2015-05-01T11:49:47.0000000+00:00</time></trkpt><trkpt lat="34.8950111" lon="33.3997268"><ele>382.0</ele><time>2015-05-01T11:49:49.0000000+00:00</time></trkpt><trkpt lat="34.8950895" lon="33.3996996"><ele>382.0</ele><time>2015-05-01T11:49:51.0000000+00:00</time></trkpt><trkpt lat="34.8951776" lon="33.3996863"><ele>382.0</ele><time>2015-05-01T11:49:53.0000000+00:00</time></trkpt><trkpt lat="34.8952687" lon="33.3996618"><ele>382.0</ele><time>2015-05-01T11:49:55.0000000+00:00</time></trkpt><trkpt lat="34.895316" lon="33.3996534"><ele>382.0</ele><time>2015-05-01T11:49:56.0000000+00:00</time></trkpt><trkpt lat="34.8953618" lon="33.3996435"><ele>382.0</ele><time>2015-05-01T11:49:57.0000000+00:00</time></trkpt><trkpt lat="34.8954098" lon="33.3996346"><ele>382.0</ele><time>2015-05-01T11:49:58.0000000+00:00</time></trkpt><trkpt lat="34.8955036" lon="33.3996243"><ele>382.0</ele><time>2015-05-01T11:50:00.0000000+00:00</time></trkpt><trkpt lat="34.8955527" lon="33.3996151"><ele>382.0</ele><time>2015-05-01T11:50:01.0000000+00:00</time></trkpt><trkpt lat="34.895638" lon="33.3995937"><ele>382.0</ele><time>2015-05-01T11:50:03.0000000+00:00</time></trkpt><trkpt lat="34.8956886" lon="33.3995836"><ele>382.5</ele><time>2015-05-01T11:50:04.0000000+00:00</time></trkpt><trkpt lat="34.8957787" lon="33.399555"><ele>382.1</ele><time>2015-05-01T11:50:06.0000000+00:00</time></trkpt><trkpt lat="34.8958296" lon="33.3995461"><ele>382.1</ele><time>2015-05-01T11:50:07.0000000+00:00</time></trkpt><trkpt lat="34.8958804" lon="33.3995349"><ele>382.1</ele><time>2015-05-01T11:50:08.0000000+00:00</time></trkpt><trkpt lat="34.8959283" lon="33.39952"><ele>381.5</ele><time>2015-05-01T11:50:09.0000000+00:00</time></trkpt><trkpt lat="34.8959738" lon="33.3995039"><ele>381.3</ele><time>2015-05-01T11:50:10.0000000+00:00</time></trkpt><trkpt lat="34.8960203" lon="33.3994947"><ele>380.6</ele><time>2015-05-01T11:50:11.0000000+00:00</time></trkpt><trkpt lat="34.8960729" lon="33.399487"><ele>380.3</ele><time>2015-05-01T11:50:12.0000000+00:00</time></trkpt><trkpt lat="34.8961222" lon="33.3994789"><ele>380.2</ele><time>2015-05-01T11:50:13.0000000+00:00</time></trkpt><trkpt lat="34.8961729" lon="33.3994736"><ele>380.1</ele><time>2015-05-01T11:50:14.0000000+00:00</time></trkpt><trkpt lat="34.8962224" lon="33.3994705"><ele>379.6</ele><time>2015-05-01T11:50:15.0000000+00:00</time></trkpt><trkpt lat="34.8962703" lon="33.3994694"><ele>379.3</ele><time>2015-05-01T11:50:16.0000000+00:00</time></trkpt><trkpt lat="34.8963163" lon="33.3994575"><ele>379.2</ele><time>2015-05-01T11:50:17.0000000+00:00</time></trkpt><trkpt lat="34.8963658" lon="33.399444"><ele>379.1</ele><time>2015-05-01T11:50:18.0000000+00:00</time></trkpt><trkpt lat="34.8964148" lon="33.3994371"><ele>379.1</ele><time>2015-05-01T11:50:19.0000000+00:00</time></trkpt><trkpt lat="34.8964664" lon="33.3994278"><ele>378.5</ele><time>2015-05-01T11:50:20.0000000+00:00</time></trkpt><trkpt lat="34.8965249" lon="33.3994222"><ele>378.3</ele><time>2015-05-01T11:50:21.0000000+00:00</time></trkpt><trkpt lat="34.8965743" lon="33.3994182"><ele>378.2</ele><time>2015-05-01T11:50:22.0000000+00:00</time></trkpt><trkpt lat="34.8966344" lon="33.3994134"><ele>378.1</ele><time>2015-05-01T11:50:23.0000000+00:00</time></trkpt><trkpt lat="34.8967039" lon="33.3994083"><ele>378.1</ele><time>2015-05-01T11:50:24.0000000+00:00</time></trkpt><trkpt lat="34.8967723" lon="33.3994119"><ele>377.5</ele><time>2015-05-01T11:50:25.0000000+00:00</time></trkpt><trkpt lat="34.8968364" lon="33.3994216"><ele>377.3</ele><time>2015-05-01T11:50:26.0000000+00:00</time></trkpt><trkpt lat="34.8969089" lon="33.3994301"><ele>377.2</ele><time>2015-05-01T11:50:27.0000000+00:00</time></trkpt><trkpt lat="34.8969796" lon="33.3994439"><ele>377.1</ele><time>2015-05-01T11:50:28.0000000+00:00</time></trkpt><trkpt lat="34.8970503" lon="33.3994557"><ele>377.1</ele><time>2015-05-01T11:50:29.0000000+00:00</time></trkpt><trkpt lat="34.8971179" lon="33.3994702"><ele>377.0</ele><time>2015-05-01T11:50:30.0000000+00:00</time></trkpt><trkpt lat="34.8971885" lon="33.3994829"><ele>376.5</ele><time>2015-05-01T11:50:31.0000000+00:00</time></trkpt><trkpt lat="34.8972638" lon="33.3995005"><ele>376.3</ele><time>2015-05-01T11:50:32.0000000+00:00</time></trkpt><trkpt lat="34.8973365" lon="33.3995208"><ele>376.1</ele><time>2015-05-01T11:50:33.0000000+00:00</time></trkpt><trkpt lat="34.8974083" lon="33.3995464"><ele>376.1</ele><time>2015-05-01T11:50:34.0000000+00:00</time></trkpt><trkpt lat="34.8974836" lon="33.3995822"><ele>376.1</ele><time>2015-05-01T11:50:35.0000000+00:00</time></trkpt><trkpt lat="34.8975582" lon="33.3996266"><ele>376.0</ele><time>2015-05-01T11:50:36.0000000+00:00</time></trkpt><trkpt lat="34.8976285" lon="33.3996632"><ele>376.0</ele><time>2015-05-01T11:50:37.0000000+00:00</time></trkpt><trkpt lat="34.897702" lon="33.3997023"><ele>376.0</ele><time>2015-05-01T11:50:38.0000000+00:00</time></trkpt><trkpt lat="34.8977732" lon="33.3997542"><ele>376.0</ele><time>2015-05-01T11:50:39.0000000+00:00</time></trkpt><trkpt lat="34.8978479" lon="33.3998064"><ele>375.5</ele><time>2015-05-01T11:50:40.0000000+00:00</time></trkpt><trkpt lat="34.8979187" lon="33.399858"><ele>375.3</ele><time>2015-05-01T11:50:41.0000000+00:00</time></trkpt><trkpt lat="34.8979917" lon="33.3999058"><ele>375.1</ele><time>2015-05-01T11:50:42.0000000+00:00</time></trkpt><trkpt lat="34.8980623" lon="33.3999603"><ele>374.6</ele><time>2015-05-01T11:50:43.0000000+00:00</time></trkpt><trkpt lat="34.8981364" lon="33.4000209"><ele>374.3</ele><time>2015-05-01T11:50:44.0000000+00:00</time></trkpt><trkpt lat="34.8982036" lon="33.4000794"><ele>374.2</ele><time>2015-05-01T11:50:45.0000000+00:00</time></trkpt><trkpt lat="34.8982666" lon="33.4001403"><ele>374.1</ele><time>2015-05-01T11:50:46.0000000+00:00</time></trkpt><trkpt lat="34.8983302" lon="33.4002046"><ele>374.1</ele><time>2015-05-01T11:50:47.0000000+00:00</time></trkpt><trkpt lat="34.8983943" lon="33.400274"><ele>374.0</ele><time>2015-05-01T11:50:48.0000000+00:00</time></trkpt><trkpt lat="34.8984501" lon="33.4003426"><ele>374.0</ele><time>2015-05-01T11:50:49.0000000+00:00</time></trkpt><trkpt lat="34.898507" lon="33.4004092"><ele>374.5</ele><time>2015-05-01T11:50:50.0000000+00:00</time></trkpt><trkpt lat="34.8985536" lon="33.400481"><ele>374.8</ele><time>2015-05-01T11:50:51.0000000+00:00</time></trkpt><trkpt lat="34.8986075" lon="33.400549"><ele>374.9</ele><time>2015-05-01T11:50:52.0000000+00:00</time></trkpt><trkpt lat="34.8986605" lon="33.4006127"><ele>375.0</ele><time>2015-05-01T11:50:53.0000000+00:00</time></trkpt><trkpt lat="34.8987105" lon="33.4006779"><ele>375.0</ele><time>2015-05-01T11:50:54.0000000+00:00</time></trkpt><trkpt lat="34.8987643" lon="33.4007431"><ele>375.0</ele><time>2015-05-01T11:50:55.0000000+00:00</time></trkpt><trkpt lat="34.8988178" lon="33.4008125"><ele>375.5</ele><time>2015-05-01T11:50:56.0000000+00:00</time></trkpt><trkpt lat="34.8988652" lon="33.400878"><ele>375.8</ele><time>2015-05-01T11:50:57.0000000+00:00</time></trkpt><trkpt lat="34.8989105" lon="33.4009386"><ele>375.9</ele><time>2015-05-01T11:50:58.0000000+00:00</time></trkpt><trkpt lat="34.8989579" lon="33.4009976"><ele>376.0</ele><time>2015-05-01T11:50:59.0000000+00:00</time></trkpt><trkpt lat="34.8990064" lon="33.4010586"><ele>376.0</ele><time>2015-05-01T11:51:00.0000000+00:00</time></trkpt><trkpt lat="34.8990561" lon="33.4011183"><ele>376.0</ele><time>2015-05-01T11:51:01.0000000+00:00</time></trkpt><trkpt lat="34.8990959" lon="33.4011704"><ele>376.0</ele><time>2015-05-01T11:51:02.0000000+00:00</time></trkpt><trkpt lat="34.8991415" lon="33.4012264"><ele>375.5</ele><time>2015-05-01T11:51:03.0000000+00:00</time></trkpt><trkpt lat="34.8991923" lon="33.4012893"><ele>375.8</ele><time>2015-05-01T11:51:04.0000000+00:00</time></trkpt><trkpt lat="34.8992423" lon="33.4013423"><ele>375.4</ele><time>2015-05-01T11:51:05.0000000+00:00</time></trkpt><trkpt lat="34.8992777" lon="33.4014036"><ele>375.7</ele><time>2015-05-01T11:51:06.0000000+00:00</time></trkpt><trkpt lat="34.8993247" lon="33.4014566"><ele>375.9</ele><time>2015-05-01T11:51:07.0000000+00:00</time></trkpt><trkpt lat="34.8993821" lon="33.4015091"><ele>375.9</ele><time>2015-05-01T11:51:08.0000000+00:00</time></trkpt><trkpt lat="34.8994383" lon="33.4015606"><ele>376.0</ele><time>2015-05-01T11:51:09.0000000+00:00</time></trkpt><trkpt lat="34.8994788" lon="33.4016034"><ele>376.0</ele><time>2015-05-01T11:51:10.0000000+00:00</time></trkpt><trkpt lat="34.8995174" lon="33.4016409"><ele>376.0</ele><time>2015-05-01T11:51:12.0000000+00:00</time></trkpt><trkpt lat="34.8995572" lon="33.4016933"><ele>373.8</ele><time>2015-05-01T11:52:31.0000000+00:00</time></trkpt><trkpt lat="34.8995955" lon="33.4017228"><ele>374.0</ele><time>2015-05-01T11:52:33.0000000+00:00</time></trkpt><trkpt lat="34.8996466" lon="33.4017677"><ele>373.3</ele><time>2015-05-01T11:52:35.0000000+00:00</time></trkpt><trkpt lat="34.8997078" lon="33.4018164"><ele>373.1</ele><time>2015-05-01T11:52:37.0000000+00:00</time></trkpt><trkpt lat="34.8997821" lon="33.4018668"><ele>373.0</ele><time>2015-05-01T11:52:39.0000000+00:00</time></trkpt><trkpt lat="34.8998379" lon="33.4018944"><ele>372.5</ele><time>2015-05-01T11:52:40.0000000+00:00</time></trkpt><trkpt lat="34.8998804" lon="33.401921"><ele>372.3</ele><time>2015-05-01T11:52:41.0000000+00:00</time></trkpt><trkpt lat="34.8999626" lon="33.4019594"><ele>370.8</ele><time>2015-05-01T11:52:43.0000000+00:00</time></trkpt><trkpt lat="34.9000418" lon="33.4020035"><ele>370.9</ele><time>2015-05-01T11:52:44.0000000+00:00</time></trkpt><trkpt lat="34.9000946" lon="33.4020302"><ele>371.0</ele><time>2015-05-01T11:52:45.0000000+00:00</time></trkpt><trkpt lat="34.9001569" lon="33.402051"><ele>371.0</ele><time>2015-05-01T11:52:46.0000000+00:00</time></trkpt><trkpt lat="34.900212" lon="33.402082"><ele>371.0</ele><time>2015-05-01T11:52:47.0000000+00:00</time></trkpt><trkpt lat="34.9002727" lon="33.4021052"><ele>370.5</ele><time>2015-05-01T11:52:48.0000000+00:00</time></trkpt><trkpt lat="34.9003368" lon="33.4021302"><ele>370.3</ele><time>2015-05-01T11:52:49.0000000+00:00</time></trkpt><trkpt lat="34.9004023" lon="33.4021463"><ele>370.1</ele><time>2015-05-01T11:52:50.0000000+00:00</time></trkpt><trkpt lat="34.9004672" lon="33.4021649"><ele>369.1</ele><time>2015-05-01T11:52:51.0000000+00:00</time></trkpt><trkpt lat="34.9005356" lon="33.4021793"><ele>369.1</ele><time>2015-05-01T11:52:52.0000000+00:00</time></trkpt><trkpt lat="34.9006057" lon="33.4021939"><ele>368.5</ele><time>2015-05-01T11:52:53.0000000+00:00</time></trkpt><trkpt lat="34.9006684" lon="33.4022076"><ele>368.3</ele><time>2015-05-01T11:52:54.0000000+00:00</time></trkpt><trkpt lat="34.9007393" lon="33.4022048"><ele>368.1</ele><time>2015-05-01T11:52:55.0000000+00:00</time></trkpt><trkpt lat="34.900808" lon="33.402212"><ele>368.1</ele><time>2015-05-01T11:52:56.0000000+00:00</time></trkpt><trkpt lat="34.9008822" lon="33.4022217"><ele>367.6</ele><time>2015-05-01T11:52:57.0000000+00:00</time></trkpt><trkpt lat="34.9009431" lon="33.402231"><ele>368.3</ele><time>2015-05-01T11:52:58.0000000+00:00</time></trkpt><trkpt lat="34.9010172" lon="33.4022246"><ele>368.7</ele><time>2015-05-01T11:52:59.0000000+00:00</time></trkpt><trkpt lat="34.9010748" lon="33.4022226"><ele>368.8</ele><time>2015-05-01T11:53:00.0000000+00:00</time></trkpt><trkpt lat="34.901134" lon="33.4022141"><ele>368.9</ele><time>2015-05-01T11:53:01.0000000+00:00</time></trkpt><trkpt lat="34.9011969" lon="33.4022151"><ele>369.0</ele><time>2015-05-01T11:53:02.0000000+00:00</time></trkpt><trkpt lat="34.9012534" lon="33.4022133"><ele>369.0</ele><time>2015-05-01T11:53:03.0000000+00:00</time></trkpt><trkpt lat="34.9013121" lon="33.402211"><ele>369.5</ele><time>2015-05-01T11:53:04.0000000+00:00</time></trkpt><trkpt lat="34.9013736" lon="33.402223"><ele>370.3</ele><time>2015-05-01T11:53:05.0000000+00:00</time></trkpt><trkpt lat="34.9014332" lon="33.4022205"><ele>370.1</ele><time>2015-05-01T11:53:06.0000000+00:00</time></trkpt><trkpt lat="34.9015068" lon="33.4022253"><ele>370.6</ele><time>2015-05-01T11:53:07.0000000+00:00</time></trkpt><trkpt lat="34.9015719" lon="33.4022187"><ele>370.8</ele><time>2015-05-01T11:53:08.0000000+00:00</time></trkpt><trkpt lat="34.9016213" lon="33.4022226"><ele>370.9</ele><time>2015-05-01T11:53:09.0000000+00:00</time></trkpt><trkpt lat="34.901668" lon="33.4022113"><ele>370.5</ele><time>2015-05-01T11:53:10.0000000+00:00</time></trkpt><trkpt lat="34.9017302" lon="33.4022099"><ele>370.2</ele><time>2015-05-01T11:53:11.0000000+00:00</time></trkpt><trkpt lat="34.9017854" lon="33.4022161"><ele>370.1</ele><time>2015-05-01T11:53:12.0000000+00:00</time></trkpt><trkpt lat="34.9018422" lon="33.402217"><ele>370.1</ele><time>2015-05-01T11:53:13.0000000+00:00</time></trkpt><trkpt lat="34.9019014" lon="33.4022128"><ele>370.5</ele><time>2015-05-01T11:53:14.0000000+00:00</time></trkpt><trkpt lat="34.9019566" lon="33.4022113"><ele>370.3</ele><time>2015-05-01T11:53:15.0000000+00:00</time></trkpt><trkpt lat="34.9020157" lon="33.4022113"><ele>369.7</ele><time>2015-05-01T11:53:16.0000000+00:00</time></trkpt><trkpt lat="34.9020744" lon="33.4022067"><ele>369.3</ele><time>2015-05-01T11:53:17.0000000+00:00</time></trkpt><trkpt lat="34.9021403" lon="33.4022058"><ele>368.7</ele><time>2015-05-01T11:53:18.0000000+00:00</time></trkpt><trkpt lat="34.9021964" lon="33.4022043"><ele>368.4</ele><time>2015-05-01T11:53:19.0000000+00:00</time></trkpt><trkpt lat="34.902262" lon="33.4022058"><ele>367.7</ele><time>2015-05-01T11:53:20.0000000+00:00</time></trkpt><trkpt lat="34.9023261" lon="33.4022056"><ele>366.9</ele><time>2015-05-01T11:53:21.0000000+00:00</time></trkpt><trkpt lat="34.9023872" lon="33.4022045"><ele>366.4</ele><time>2015-05-01T11:53:22.0000000+00:00</time></trkpt><trkpt lat="34.9024456" lon="33.4022093"><ele>366.2</ele><time>2015-05-01T11:53:23.0000000+00:00</time></trkpt><trkpt lat="34.9025032" lon="33.4022066"><ele>366.1</ele><time>2015-05-01T11:53:24.0000000+00:00</time></trkpt><trkpt lat="34.9025647" lon="33.4021935"><ele>365.1</ele><time>2015-05-01T11:53:25.0000000+00:00</time></trkpt><trkpt lat="34.902612" lon="33.4021923"><ele>365.0</ele><time>2015-05-01T11:53:26.0000000+00:00</time></trkpt><trkpt lat="34.9026669" lon="33.4021898"><ele>365.0</ele><time>2015-05-01T11:53:27.0000000+00:00</time></trkpt><trkpt lat="34.9027291" lon="33.4021882"><ele>364.5</ele><time>2015-05-01T11:53:28.0000000+00:00</time></trkpt><trkpt lat="34.9027786" lon="33.4021865"><ele>364.8</ele><time>2015-05-01T11:53:29.0000000+00:00</time></trkpt><trkpt lat="34.902828" lon="33.4021885"><ele>364.9</ele><time>2015-05-01T11:53:30.0000000+00:00</time></trkpt><trkpt lat="34.9028789" lon="33.402186"><ele>365.0</ele><time>2015-05-01T11:53:31.0000000+00:00</time></trkpt><trkpt lat="34.902924" lon="33.4021774"><ele>365.0</ele><time>2015-05-01T11:53:32.0000000+00:00</time></trkpt><trkpt lat="34.9029753" lon="33.4021789"><ele>365.0</ele><time>2015-05-01T11:53:33.0000000+00:00</time></trkpt><trkpt lat="34.9030232" lon="33.4021784"><ele>365.0</ele><time>2015-05-01T11:53:34.0000000+00:00</time></trkpt><trkpt lat="34.9030722" lon="33.4021746"><ele>364.5</ele><time>2015-05-01T11:53:35.0000000+00:00</time></trkpt><trkpt lat="34.9031273" lon="33.4021694"><ele>364.8</ele><time>2015-05-01T11:53:36.0000000+00:00</time></trkpt><trkpt lat="34.9031838" lon="33.4021679"><ele>364.4</ele><time>2015-05-01T11:53:37.0000000+00:00</time></trkpt><trkpt lat="34.9032311" lon="33.4021663"><ele>363.7</ele><time>2015-05-01T11:53:38.0000000+00:00</time></trkpt><trkpt lat="34.9032772" lon="33.4021667"><ele>363.9</ele><time>2015-05-01T11:53:39.0000000+00:00</time></trkpt><trkpt lat="34.9033617" lon="33.4021684"><ele>364.0</ele><time>2015-05-01T11:53:41.0000000+00:00</time></trkpt><trkpt lat="34.9034152" lon="33.402166"><ele>364.5</ele><time>2015-05-01T11:53:43.0000000+00:00</time></trkpt><trkpt lat="34.9034612" lon="33.4021812"><ele>364.9</ele><time>2015-05-01T11:53:45.0000000+00:00</time></trkpt><trkpt lat="34.903472" lon="33.4022586"><ele>366.5</ele><time>2015-05-01T11:53:48.0000000+00:00</time></trkpt><trkpt lat="34.9034297" lon="33.402298"><ele>366.9</ele><time>2015-05-01T11:53:50.0000000+00:00</time></trkpt><trkpt lat="34.9033752" lon="33.4023163"><ele>367.5</ele><time>2015-05-01T11:53:52.0000000+00:00</time></trkpt><trkpt lat="34.9033176" lon="33.4023111"><ele>367.9</ele><time>2015-05-01T11:53:54.0000000+00:00</time></trkpt><trkpt lat="34.9032641" lon="33.4023005"><ele>368.0</ele><time>2015-05-01T11:53:56.0000000+00:00</time></trkpt><trkpt lat="34.9032135" lon="33.4022964"><ele>368.8</ele><time>2015-05-01T11:53:58.0000000+00:00</time></trkpt><trkpt lat="34.9031654" lon="33.4022977"><ele>369.5</ele><time>2015-05-01T11:54:01.0000000+00:00</time></trkpt><trkpt lat="34.9032217" lon="33.4023067"><ele>368.2</ele><time>2015-05-01T11:54:22.0000000+00:00</time></trkpt><trkpt lat="34.9032656" lon="33.4022932"><ele>367.6</ele><time>2015-05-01T11:54:24.0000000+00:00</time></trkpt><trkpt lat="34.9033308" lon="33.4022734"><ele>367.2</ele><time>2015-05-01T11:54:26.0000000+00:00</time></trkpt><trkpt lat="34.903405" lon="33.4022735"><ele>367.1</ele><time>2015-05-01T11:54:28.0000000+00:00</time></trkpt><trkpt lat="34.903471" lon="33.402275"><ele>366.3</ele><time>2015-05-01T11:54:30.0000000+00:00</time></trkpt><trkpt lat="34.9035228" lon="33.4022778"><ele>366.1</ele><time>2015-05-01T11:54:32.0000000+00:00</time></trkpt><trkpt lat="34.9035434" lon="33.4023282"><ele>365.5</ele><time>2015-05-01T11:54:34.0000000+00:00</time></trkpt><trkpt lat="34.9035082" lon="33.4023891"><ele>365.2</ele><time>2015-05-01T11:54:36.0000000+00:00</time></trkpt><trkpt lat="34.9034321" lon="33.4024205"><ele>364.6</ele><time>2015-05-01T11:54:38.0000000+00:00</time></trkpt><trkpt lat="34.9033605" lon="33.4024295"><ele>363.9</ele><time>2015-05-01T11:54:40.0000000+00:00</time></trkpt><trkpt lat="34.9032954" lon="33.4024497"><ele>364.0</ele><time>2015-05-01T11:54:42.0000000+00:00</time></trkpt><trkpt lat="34.9032415" lon="33.4024876"><ele>364.0</ele><time>2015-05-01T11:54:44.0000000+00:00</time></trkpt><trkpt lat="34.9032168" lon="33.4025412"><ele>363.5</ele><time>2015-05-01T11:54:46.0000000+00:00</time></trkpt><trkpt lat="34.9032265" lon="33.4025957"><ele>363.1</ele><time>2015-05-01T11:54:48.0000000+00:00</time></trkpt><trkpt lat="34.9032647" lon="33.4026266"><ele>363.1</ele><time>2015-05-01T11:54:50.0000000+00:00</time></trkpt><trkpt lat="34.903306" lon="33.4025673"><ele>362.1</ele><time>2015-05-01T11:54:53.0000000+00:00</time></trkpt><trkpt lat="34.9032894" lon="33.4024923"><ele>362.0</ele><time>2015-05-01T11:54:56.0000000+00:00</time></trkpt><trkpt lat="34.9032934" lon="33.4024234"><ele>363.3</ele><time>2015-05-01T11:55:01.0000000+00:00</time></trkpt><trkpt lat="34.903248" lon="33.4024156"><ele>363.0</ele><time>2015-05-01T11:55:08.0000000+00:00</time></trkpt><trkpt lat="34.9032085" lon="33.4024547"><ele>362.9</ele><time>2015-05-01T11:55:13.0000000+00:00</time></trkpt><trkpt lat="34.9032223" lon="33.4025078"><ele>362.8</ele><time>2015-05-01T11:55:37.0000000+00:00</time></trkpt><trkpt lat="34.903284" lon="33.4025038"><ele>362.1</ele><time>2015-05-01T11:55:40.0000000+00:00</time></trkpt><trkpt lat="34.9033124" lon="33.4024454"><ele>362.0</ele><time>2015-05-01T11:55:42.0000000+00:00</time></trkpt><trkpt lat="34.9033556" lon="33.4024088"><ele>362.5</ele><time>2015-05-01T11:55:44.0000000+00:00</time></trkpt><trkpt lat="34.9034222" lon="33.4024025"><ele>362.9</ele><time>2015-05-01T11:55:46.0000000+00:00</time></trkpt><trkpt lat="34.9034895" lon="33.4023844"><ele>364.2</ele><time>2015-05-01T11:55:48.0000000+00:00</time></trkpt><trkpt lat="34.903524" lon="33.4023414"><ele>364.8</ele><time>2015-05-01T11:55:50.0000000+00:00</time></trkpt><trkpt lat="34.9035445" lon="33.4022761"><ele>365.4</ele><time>2015-05-01T11:55:54.0000000+00:00</time></trkpt><trkpt lat="34.9035761" lon="33.4022318"><ele>365.1</ele><time>2015-05-01T11:55:57.0000000+00:00</time></trkpt><trkpt lat="34.9036156" lon="33.402183"><ele>365.0</ele><time>2015-05-01T11:55:59.0000000+00:00</time></trkpt><trkpt lat="34.9036786" lon="33.4021347"><ele>365.0</ele><time>2015-05-01T11:56:01.0000000+00:00</time></trkpt><trkpt lat="34.9037527" lon="33.4021333"><ele>365.0</ele><time>2015-05-01T11:56:03.0000000+00:00</time></trkpt><trkpt lat="34.9038313" lon="33.4021423"><ele>365.0</ele><time>2015-05-01T11:56:05.0000000+00:00</time></trkpt><trkpt lat="34.903914" lon="33.4021474"><ele>364.5</ele><time>2015-05-01T11:56:07.0000000+00:00</time></trkpt><trkpt lat="34.9039975" lon="33.4021466"><ele>364.1</ele><time>2015-05-01T11:56:09.0000000+00:00</time></trkpt><trkpt lat="34.9040795" lon="33.4021531"><ele>364.1</ele><time>2015-05-01T11:56:11.0000000+00:00</time></trkpt><trkpt lat="34.9041675" lon="33.4021639"><ele>364.0</ele><time>2015-05-01T11:56:13.0000000+00:00</time></trkpt><trkpt lat="34.9042198" lon="33.4021807"><ele>364.0</ele><time>2015-05-01T11:56:14.0000000+00:00</time></trkpt><trkpt lat="34.9042658" lon="33.40219"><ele>364.0</ele><time>2015-05-01T11:56:15.0000000+00:00</time></trkpt><trkpt lat="34.9043182" lon="33.4021928"><ele>364.0</ele><time>2015-05-01T11:56:16.0000000+00:00</time></trkpt><trkpt lat="34.9043699" lon="33.4022"><ele>364.0</ele><time>2015-05-01T11:56:17.0000000+00:00</time></trkpt><trkpt lat="34.9044177" lon="33.40221"><ele>364.0</ele><time>2015-05-01T11:56:18.0000000+00:00</time></trkpt><trkpt lat="34.9044706" lon="33.4022203"><ele>364.0</ele><time>2015-05-01T11:56:19.0000000+00:00</time></trkpt><trkpt lat="34.9045267" lon="33.402231"><ele>363.5</ele><time>2015-05-01T11:56:20.0000000+00:00</time></trkpt><trkpt lat="34.9045804" lon="33.4022434"><ele>363.3</ele><time>2015-05-01T11:56:21.0000000+00:00</time></trkpt><trkpt lat="34.9046363" lon="33.40226"><ele>363.1</ele><time>2015-05-01T11:56:22.0000000+00:00</time></trkpt><trkpt lat="34.9046871" lon="33.4022815"><ele>363.6</ele><time>2015-05-01T11:56:23.0000000+00:00</time></trkpt><trkpt lat="34.9047454" lon="33.4023016"><ele>363.3</ele><time>2015-05-01T11:56:24.0000000+00:00</time></trkpt><trkpt lat="34.9048016" lon="33.4023183"><ele>362.7</ele><time>2015-05-01T11:56:25.0000000+00:00</time></trkpt><trkpt lat="34.9048581" lon="33.4023349"><ele>362.8</ele><time>2015-05-01T11:56:26.0000000+00:00</time></trkpt><trkpt lat="34.9049117" lon="33.4023493"><ele>362.4</ele><time>2015-05-01T11:56:27.0000000+00:00</time></trkpt><trkpt lat="34.9049716" lon="33.4023654"><ele>362.2</ele><time>2015-05-01T11:56:28.0000000+00:00</time></trkpt><trkpt lat="34.9050288" lon="33.4023848"><ele>362.1</ele><time>2015-05-01T11:56:29.0000000+00:00</time></trkpt><trkpt lat="34.9050871" lon="33.4024063"><ele>362.6</ele><time>2015-05-01T11:56:30.0000000+00:00</time></trkpt><trkpt lat="34.905143" lon="33.4024371"><ele>362.8</ele><time>2015-05-01T11:56:31.0000000+00:00</time></trkpt><trkpt lat="34.9051915" lon="33.4024604"><ele>362.9</ele><time>2015-05-01T11:56:32.0000000+00:00</time></trkpt><trkpt lat="34.905249" lon="33.4024825"><ele>362.2</ele><time>2015-05-01T11:56:34.0000000+00:00</time></trkpt><trkpt lat="34.9053124" lon="33.4025434"><ele>360.5</ele><time>2015-05-01T11:58:26.0000000+00:00</time></trkpt><trkpt lat="34.9053843" lon="33.4025818"><ele>360.1</ele><time>2015-05-01T11:58:28.0000000+00:00</time></trkpt><trkpt lat="34.9054891" lon="33.4026278"><ele>360.3</ele><time>2015-05-01T11:58:30.0000000+00:00</time></trkpt><trkpt lat="34.9055342" lon="33.402649"><ele>360.2</ele><time>2015-05-01T11:58:31.0000000+00:00</time></trkpt><trkpt lat="34.9055872" lon="33.4026738"><ele>360.6</ele><time>2015-05-01T11:58:32.0000000+00:00</time></trkpt><trkpt lat="34.9056313" lon="33.4026956"><ele>360.8</ele><time>2015-05-01T11:58:33.0000000+00:00</time></trkpt><trkpt lat="34.905676" lon="33.4027231"><ele>360.9</ele><time>2015-05-01T11:58:34.0000000+00:00</time></trkpt><trkpt lat="34.9057303" lon="33.4027445"><ele>361.0</ele><time>2015-05-01T11:58:35.0000000+00:00</time></trkpt><trkpt lat="34.9057782" lon="33.402768"><ele>361.0</ele><time>2015-05-01T11:58:36.0000000+00:00</time></trkpt><trkpt lat="34.9058295" lon="33.4027905"><ele>360.5</ele><time>2015-05-01T11:58:37.0000000+00:00</time></trkpt><trkpt lat="34.90589" lon="33.4028115"><ele>360.3</ele><time>2015-05-01T11:58:38.0000000+00:00</time></trkpt><trkpt lat="34.9059401" lon="33.4028366"><ele>360.1</ele><time>2015-05-01T11:58:39.0000000+00:00</time></trkpt><trkpt lat="34.9059939" lon="33.402862"><ele>360.1</ele><time>2015-05-01T11:58:40.0000000+00:00</time></trkpt><trkpt lat="34.9060548" lon="33.4028877"><ele>360.1</ele><time>2015-05-01T11:58:41.0000000+00:00</time></trkpt><trkpt lat="34.9061098" lon="33.4029099"><ele>359.5</ele><time>2015-05-01T11:58:42.0000000+00:00</time></trkpt><trkpt lat="34.9061605" lon="33.4029356"><ele>359.3</ele><time>2015-05-01T11:58:43.0000000+00:00</time></trkpt><trkpt lat="34.9062166" lon="33.4029671"><ele>359.1</ele><time>2015-05-01T11:58:44.0000000+00:00</time></trkpt><trkpt lat="34.9062774" lon="33.4029969"><ele>359.1</ele><time>2015-05-01T11:58:45.0000000+00:00</time></trkpt><trkpt lat="34.9063369" lon="33.4030273"><ele>358.6</ele><time>2015-05-01T11:58:46.0000000+00:00</time></trkpt><trkpt lat="34.9063964" lon="33.4030604"><ele>358.8</ele><time>2015-05-01T11:58:47.0000000+00:00</time></trkpt><trkpt lat="34.9064587" lon="33.4030878"><ele>358.4</ele><time>2015-05-01T11:58:48.0000000+00:00</time></trkpt><trkpt lat="34.9065176" lon="33.403117"><ele>358.2</ele><time>2015-05-01T11:58:49.0000000+00:00</time></trkpt><trkpt lat="34.9065747" lon="33.4031397"><ele>357.6</ele><time>2015-05-01T11:58:50.0000000+00:00</time></trkpt><trkpt lat="34.9066358" lon="33.4031659"><ele>356.8</ele><time>2015-05-01T11:58:51.0000000+00:00</time></trkpt><trkpt lat="34.9067008" lon="33.4031947"><ele>356.4</ele><time>2015-05-01T11:58:52.0000000+00:00</time></trkpt><trkpt lat="34.9067658" lon="33.4032243"><ele>356.7</ele><time>2015-05-01T11:58:53.0000000+00:00</time></trkpt><trkpt lat="34.9068234" lon="33.4032555"><ele>356.9</ele><time>2015-05-01T11:58:54.0000000+00:00</time></trkpt><trkpt lat="34.9068846" lon="33.4032849"><ele>356.4</ele><time>2015-05-01T11:58:55.0000000+00:00</time></trkpt><trkpt lat="34.9069518" lon="33.4033172"><ele>356.2</ele><time>2015-05-01T11:58:56.0000000+00:00</time></trkpt><trkpt lat="34.9070193" lon="33.4033447"><ele>356.6</ele><time>2015-05-01T11:58:57.0000000+00:00</time></trkpt><trkpt lat="34.9070823" lon="33.4033745"><ele>356.8</ele><time>2015-05-01T11:58:58.0000000+00:00</time></trkpt><trkpt lat="34.907137" lon="33.4034092"><ele>356.9</ele><time>2015-05-01T11:58:59.0000000+00:00</time></trkpt><trkpt lat="34.9072031" lon="33.4034373"><ele>357.0</ele><time>2015-05-01T11:59:00.0000000+00:00</time></trkpt><trkpt lat="34.9072699" lon="33.4034651"><ele>357.0</ele><time>2015-05-01T11:59:01.0000000+00:00</time></trkpt><trkpt lat="34.9073243" lon="33.4034988"><ele>356.5</ele><time>2015-05-01T11:59:02.0000000+00:00</time></trkpt><trkpt lat="34.9073863" lon="33.4035299"><ele>356.3</ele><time>2015-05-01T11:59:03.0000000+00:00</time></trkpt><trkpt lat="34.9074494" lon="33.4035563"><ele>356.1</ele><time>2015-05-01T11:59:04.0000000+00:00</time></trkpt><trkpt lat="34.9075148" lon="33.4035894"><ele>356.1</ele><time>2015-05-01T11:59:05.0000000+00:00</time></trkpt><trkpt lat="34.9075772" lon="33.4036171"><ele>355.6</ele><time>2015-05-01T11:59:06.0000000+00:00</time></trkpt><trkpt lat="34.9076393" lon="33.4036522"><ele>355.3</ele><time>2015-05-01T11:59:07.0000000+00:00</time></trkpt><trkpt lat="34.907706" lon="33.4036893"><ele>354.7</ele><time>2015-05-01T11:59:08.0000000+00:00</time></trkpt><trkpt lat="34.9077724" lon="33.4037217"><ele>354.3</ele><time>2015-05-01T11:59:09.0000000+00:00</time></trkpt><trkpt lat="34.9078437" lon="33.4037567"><ele>354.2</ele><time>2015-05-01T11:59:10.0000000+00:00</time></trkpt><trkpt lat="34.9079122" lon="33.4037885"><ele>354.1</ele><time>2015-05-01T11:59:11.0000000+00:00</time></trkpt><trkpt lat="34.9079841" lon="33.4038232"><ele>353.6</ele><time>2015-05-01T11:59:12.0000000+00:00</time></trkpt><trkpt lat="34.9080576" lon="33.4038629"><ele>353.3</ele><time>2015-05-01T11:59:13.0000000+00:00</time></trkpt><trkpt lat="34.9081286" lon="33.4038958"><ele>353.2</ele><time>2015-05-01T11:59:14.0000000+00:00</time></trkpt><trkpt lat="34.9081948" lon="33.4039267"><ele>353.1</ele><time>2015-05-01T11:59:15.0000000+00:00</time></trkpt><trkpt lat="34.9082712" lon="33.4039596"><ele>353.1</ele><time>2015-05-01T11:59:16.0000000+00:00</time></trkpt><trkpt lat="34.9083475" lon="33.4039956"><ele>353.0</ele><time>2015-05-01T11:59:17.0000000+00:00</time></trkpt><trkpt lat="34.9084217" lon="33.4040303"><ele>353.5</ele><time>2015-05-01T11:59:18.0000000+00:00</time></trkpt><trkpt lat="34.9084937" lon="33.4040665"><ele>353.8</ele><time>2015-05-01T11:59:19.0000000+00:00</time></trkpt><trkpt lat="34.9085712" lon="33.4041036"><ele>353.9</ele><time>2015-05-01T11:59:20.0000000+00:00</time></trkpt><trkpt lat="34.9086442" lon="33.404138"><ele>354.0</ele><time>2015-05-01T11:59:21.0000000+00:00</time></trkpt><trkpt lat="34.9087247" lon="33.4041632"><ele>354.0</ele><time>2015-05-01T11:59:22.0000000+00:00</time></trkpt><trkpt lat="34.9087986" lon="33.4041943"><ele>353.5</ele><time>2015-05-01T11:59:23.0000000+00:00</time></trkpt><trkpt lat="34.9088674" lon="33.4042392"><ele>353.8</ele><time>2015-05-01T11:59:24.0000000+00:00</time></trkpt><trkpt lat="34.9089454" lon="33.4042823"><ele>353.9</ele><time>2015-05-01T11:59:25.0000000+00:00</time></trkpt><trkpt lat="34.9090231" lon="33.404322"><ele>354.0</ele><time>2015-05-01T11:59:26.0000000+00:00</time></trkpt><trkpt lat="34.9090949" lon="33.404361"><ele>354.0</ele><time>2015-05-01T11:59:27.0000000+00:00</time></trkpt><trkpt lat="34.90917" lon="33.4043965"><ele>353.5</ele><time>2015-05-01T11:59:28.0000000+00:00</time></trkpt><trkpt lat="34.9092431" lon="33.4044394"><ele>353.3</ele><time>2015-05-01T11:59:29.0000000+00:00</time></trkpt><trkpt lat="34.9093152" lon="33.4044846"><ele>353.1</ele><time>2015-05-01T11:59:30.0000000+00:00</time></trkpt><trkpt lat="34.9093746" lon="33.4045263"><ele>353.1</ele><time>2015-05-01T11:59:31.0000000+00:00</time></trkpt><trkpt lat="34.9094467" lon="33.404564"><ele>352.6</ele><time>2015-05-01T11:59:32.0000000+00:00</time></trkpt><trkpt lat="34.9095136" lon="33.4046049"><ele>352.3</ele><time>2015-05-01T11:59:33.0000000+00:00</time></trkpt><trkpt lat="34.9095816" lon="33.4046353"><ele>352.2</ele><time>2015-05-01T11:59:34.0000000+00:00</time></trkpt><trkpt lat="34.9096454" lon="33.4046737"><ele>351.6</ele><time>2015-05-01T11:59:35.0000000+00:00</time></trkpt><trkpt lat="34.9097065" lon="33.404704"><ele>351.3</ele><time>2015-05-01T11:59:36.0000000+00:00</time></trkpt><trkpt lat="34.9097695" lon="33.4047383"><ele>351.2</ele><time>2015-05-01T11:59:37.0000000+00:00</time></trkpt><trkpt lat="34.9098359" lon="33.4047807"><ele>350.6</ele><time>2015-05-01T11:59:38.0000000+00:00</time></trkpt><trkpt lat="34.9099013" lon="33.4048206"><ele>350.3</ele><time>2015-05-01T11:59:39.0000000+00:00</time></trkpt><trkpt lat="34.9099735" lon="33.4048575"><ele>349.7</ele><time>2015-05-01T11:59:40.0000000+00:00</time></trkpt><trkpt lat="34.9100415" lon="33.4048977"><ele>348.8</ele><time>2015-05-01T11:59:41.0000000+00:00</time></trkpt><trkpt lat="34.9101247" lon="33.4049456"><ele>348.4</ele><time>2015-05-01T11:59:42.0000000+00:00</time></trkpt><trkpt lat="34.9101994" lon="33.4049877"><ele>347.7</ele><time>2015-05-01T11:59:43.0000000+00:00</time></trkpt><trkpt lat="34.910293" lon="33.40503"><ele>346.9</ele><time>2015-05-01T11:59:44.0000000+00:00</time></trkpt><trkpt lat="34.91038" lon="33.4050721"><ele>346.4</ele><time>2015-05-01T11:59:45.0000000+00:00</time></trkpt><trkpt lat="34.9104726" lon="33.4051143"><ele>345.7</ele><time>2015-05-01T11:59:46.0000000+00:00</time></trkpt><trkpt lat="34.9105568" lon="33.4051494"><ele>345.4</ele><time>2015-05-01T11:59:47.0000000+00:00</time></trkpt><trkpt lat="34.9106534" lon="33.4051836"><ele>344.7</ele><time>2015-05-01T11:59:48.0000000+00:00</time></trkpt><trkpt lat="34.9107465" lon="33.4052184"><ele>343.9</ele><time>2015-05-01T11:59:49.0000000+00:00</time></trkpt><trkpt lat="34.9108464" lon="33.4052611"><ele>343.4</ele><time>2015-05-01T11:59:50.0000000+00:00</time></trkpt><trkpt lat="34.9109461" lon="33.4053004"><ele>342.7</ele><time>2015-05-01T11:59:51.0000000+00:00</time></trkpt><trkpt lat="34.9110534" lon="33.405334"><ele>342.4</ele><time>2015-05-01T11:59:52.0000000+00:00</time></trkpt><trkpt lat="34.9111576" lon="33.4053716"><ele>341.7</ele><time>2015-05-01T11:59:53.0000000+00:00</time></trkpt><trkpt lat="34.911257" lon="33.4054126"><ele>341.4</ele><time>2015-05-01T11:59:54.0000000+00:00</time></trkpt><trkpt lat="34.9113623" lon="33.4054473"><ele>341.7</ele><time>2015-05-01T11:59:55.0000000+00:00</time></trkpt><trkpt lat="34.9114633" lon="33.4054994"><ele>341.9</ele><time>2015-05-01T11:59:56.0000000+00:00</time></trkpt><trkpt lat="34.9115552" lon="33.40555"><ele>341.9</ele><time>2015-05-01T11:59:57.0000000+00:00</time></trkpt><trkpt lat="34.9116521" lon="33.4055967"><ele>342.0</ele><time>2015-05-01T11:59:58.0000000+00:00</time></trkpt><trkpt lat="34.9117498" lon="33.405643"><ele>342.0</ele><time>2015-05-01T11:59:59.0000000+00:00</time></trkpt><trkpt lat="34.9118458" lon="33.4056818"><ele>342.0</ele><time>2015-05-01T12:00:00.0000000+00:00</time></trkpt><trkpt lat="34.9119301" lon="33.4057292"><ele>341.5</ele><time>2015-05-01T12:00:01.0000000+00:00</time></trkpt><trkpt lat="34.912017" lon="33.4057774"><ele>341.8</ele><time>2015-05-01T12:00:02.0000000+00:00</time></trkpt><trkpt lat="34.9121012" lon="33.4058309"><ele>341.4</ele><time>2015-05-01T12:00:03.0000000+00:00</time></trkpt><trkpt lat="34.9121893" lon="33.4058886"><ele>341.2</ele><time>2015-05-01T12:00:04.0000000+00:00</time></trkpt><trkpt lat="34.912267" lon="33.4059429"><ele>341.1</ele><time>2015-05-01T12:00:05.0000000+00:00</time></trkpt><trkpt lat="34.9123396" lon="33.4060069"><ele>341.1</ele><time>2015-05-01T12:00:06.0000000+00:00</time></trkpt><trkpt lat="34.9124229" lon="33.4060641"><ele>341.0</ele><time>2015-05-01T12:00:07.0000000+00:00</time></trkpt><trkpt lat="34.9124984" lon="33.406133"><ele>341.5</ele><time>2015-05-01T12:00:08.0000000+00:00</time></trkpt><trkpt lat="34.9125642" lon="33.406212"><ele>342.3</ele><time>2015-05-01T12:00:09.0000000+00:00</time></trkpt><trkpt lat="34.9126309" lon="33.406279"><ele>342.1</ele><time>2015-05-01T12:00:10.0000000+00:00</time></trkpt><trkpt lat="34.912699" lon="33.4063462"><ele>342.1</ele><time>2015-05-01T12:00:11.0000000+00:00</time></trkpt><trkpt lat="34.9127677" lon="33.4064212"><ele>342.1</ele><time>2015-05-01T12:00:12.0000000+00:00</time></trkpt><trkpt lat="34.9128333" lon="33.4065025"><ele>342.0</ele><time>2015-05-01T12:00:13.0000000+00:00</time></trkpt><trkpt lat="34.9129009" lon="33.4065721"><ele>342.0</ele><time>2015-05-01T12:00:14.0000000+00:00</time></trkpt><trkpt lat="34.9129704" lon="33.4066407"><ele>341.5</ele><time>2015-05-01T12:00:15.0000000+00:00</time></trkpt><trkpt lat="34.9130416" lon="33.4067164"><ele>340.8</ele><time>2015-05-01T12:00:16.0000000+00:00</time></trkpt><trkpt lat="34.91311" lon="33.4067906"><ele>339.9</ele><time>2015-05-01T12:00:17.0000000+00:00</time></trkpt><trkpt lat="34.9131839" lon="33.4068665"><ele>339.0</ele><time>2015-05-01T12:00:18.0000000+00:00</time></trkpt><trkpt lat="34.9132558" lon="33.4069423"><ele>338.0</ele><time>2015-05-01T12:00:19.0000000+00:00</time></trkpt><trkpt lat="34.9133286" lon="33.4070224"><ele>337.5</ele><time>2015-05-01T12:00:20.0000000+00:00</time></trkpt><trkpt lat="34.913403" lon="33.4070947"><ele>337.8</ele><time>2015-05-01T12:00:21.0000000+00:00</time></trkpt><trkpt lat="34.9134707" lon="33.407166"><ele>338.9</ele><time>2015-05-01T12:00:22.0000000+00:00</time></trkpt><trkpt lat="34.9135418" lon="33.4072316"><ele>339.0</ele><time>2015-05-01T12:00:23.0000000+00:00</time></trkpt><trkpt lat="34.913614" lon="33.4072994"><ele>339.5</ele><time>2015-05-01T12:00:24.0000000+00:00</time></trkpt><trkpt lat="34.9136816" lon="33.4073672"><ele>339.8</ele><time>2015-05-01T12:00:25.0000000+00:00</time></trkpt><trkpt lat="34.913742" lon="33.4074448"><ele>339.9</ele><time>2015-05-01T12:00:26.0000000+00:00</time></trkpt><trkpt lat="34.9137967" lon="33.4075101"><ele>340.5</ele><time>2015-05-01T12:00:27.0000000+00:00</time></trkpt><trkpt lat="34.9138523" lon="33.4075764"><ele>341.2</ele><time>2015-05-01T12:00:28.0000000+00:00</time></trkpt><trkpt lat="34.9139057" lon="33.407648"><ele>341.6</ele><time>2015-05-01T12:00:29.0000000+00:00</time></trkpt><trkpt lat="34.9139562" lon="33.4077094"><ele>341.3</ele><time>2015-05-01T12:00:30.0000000+00:00</time></trkpt><trkpt lat="34.9140034" lon="33.40777"><ele>340.7</ele><time>2015-05-01T12:00:31.0000000+00:00</time></trkpt><trkpt lat="34.9140524" lon="33.4078319"><ele>339.8</ele><time>2015-05-01T12:00:32.0000000+00:00</time></trkpt><trkpt lat="34.9140947" lon="33.4078827"><ele>339.4</ele><time>2015-05-01T12:00:33.0000000+00:00</time></trkpt><trkpt lat="34.9141394" lon="33.4079354"><ele>339.2</ele><time>2015-05-01T12:00:34.0000000+00:00</time></trkpt><trkpt lat="34.914179" lon="33.4079834"><ele>339.1</ele><time>2015-05-01T12:00:35.0000000+00:00</time></trkpt><trkpt lat="34.91422" lon="33.4080323"><ele>338.1</ele><time>2015-05-01T12:00:36.0000000+00:00</time></trkpt><trkpt lat="34.9142579" lon="33.4080986"><ele>337.0</ele><time>2015-05-01T12:00:37.0000000+00:00</time></trkpt><trkpt lat="34.914304" lon="33.4081388"><ele>337.0</ele><time>2015-05-01T12:00:38.0000000+00:00</time></trkpt><trkpt lat="34.9143453" lon="33.4081854"><ele>337.0</ele><time>2015-05-01T12:00:39.0000000+00:00</time></trkpt><trkpt lat="34.9143854" lon="33.40823"><ele>337.0</ele><time>2015-05-01T12:00:40.0000000+00:00</time></trkpt><trkpt lat="34.9144262" lon="33.4082735"><ele>337.5</ele><time>2015-05-01T12:00:41.0000000+00:00</time></trkpt><trkpt lat="34.9144699" lon="33.4083107"><ele>337.3</ele><time>2015-05-01T12:00:42.0000000+00:00</time></trkpt><trkpt lat="34.914508" lon="33.4083544"><ele>336.6</ele><time>2015-05-01T12:00:43.0000000+00:00</time></trkpt><trkpt lat="34.914553" lon="33.4084044"><ele>336.8</ele><time>2015-05-01T12:00:44.0000000+00:00</time></trkpt><trkpt lat="34.9145916" lon="33.4084446"><ele>336.9</ele><time>2015-05-01T12:00:45.0000000+00:00</time></trkpt><trkpt lat="34.9146283" lon="33.408495"><ele>337.5</ele><time>2015-05-01T12:00:46.0000000+00:00</time></trkpt><trkpt lat="34.9147059" lon="33.4085672"><ele>337.1</ele><time>2015-05-01T12:00:48.0000000+00:00</time></trkpt><trkpt lat="34.9147522" lon="33.4086021"><ele>337.1</ele><time>2015-05-01T12:00:49.0000000+00:00</time></trkpt><trkpt lat="34.9147874" lon="33.4086437"><ele>337.0</ele><time>2015-05-01T12:00:50.0000000+00:00</time></trkpt><trkpt lat="34.9148251" lon="33.4086882"><ele>337.5</ele><time>2015-05-01T12:00:51.0000000+00:00</time></trkpt><trkpt lat="34.9148626" lon="33.4087258"><ele>337.3</ele><time>2015-05-01T12:00:52.0000000+00:00</time></trkpt><trkpt lat="34.9148969" lon="33.4087639"><ele>337.1</ele><time>2015-05-01T12:00:53.0000000+00:00</time></trkpt><trkpt lat="34.9149627" lon="33.4088224"><ele>337.1</ele><time>2015-05-01T12:00:55.0000000+00:00</time></trkpt><trkpt lat="34.9150002" lon="33.4088573"><ele>336.5</ele><time>2015-05-01T12:00:56.0000000+00:00</time></trkpt><trkpt lat="34.9150386" lon="33.4089027"><ele>336.3</ele><time>2015-05-01T12:00:57.0000000+00:00</time></trkpt><trkpt lat="34.9150815" lon="33.4089437"><ele>336.2</ele><time>2015-05-01T12:00:58.0000000+00:00</time></trkpt><trkpt lat="34.9151195" lon="33.4089829"><ele>336.1</ele><time>2015-05-01T12:00:59.0000000+00:00</time></trkpt><trkpt lat="34.9151963" lon="33.4090641"><ele>336.5</ele><time>2015-05-01T12:01:01.0000000+00:00</time></trkpt><trkpt lat="34.9152726" lon="33.4091398"><ele>336.2</ele><time>2015-05-01T12:01:03.0000000+00:00</time></trkpt><trkpt lat="34.9153214" lon="33.4091758"><ele>335.6</ele><time>2015-05-01T12:01:04.0000000+00:00</time></trkpt><trkpt lat="34.9153698" lon="33.4092162"><ele>335.3</ele><time>2015-05-01T12:01:05.0000000+00:00</time></trkpt><trkpt lat="34.9154131" lon="33.4092528"><ele>335.2</ele><time>2015-05-01T12:01:06.0000000+00:00</time></trkpt><trkpt lat="34.9154594" lon="33.4092875"><ele>337.1</ele><time>2015-05-01T12:01:07.0000000+00:00</time></trkpt><trkpt lat="34.9155064" lon="33.4093295"><ele>338.1</ele><time>2015-05-01T12:01:08.0000000+00:00</time></trkpt><trkpt lat="34.9155511" lon="33.4093744"><ele>338.5</ele><time>2015-05-01T12:01:09.0000000+00:00</time></trkpt><trkpt lat="34.9155976" lon="33.4094115"><ele>339.3</ele><time>2015-05-01T12:01:10.0000000+00:00</time></trkpt><trkpt lat="34.9156494" lon="33.4094516"><ele>339.7</ele><time>2015-05-01T12:01:11.0000000+00:00</time></trkpt><trkpt lat="34.9157027" lon="33.4094867"><ele>339.8</ele><time>2015-05-01T12:01:12.0000000+00:00</time></trkpt><trkpt lat="34.9157488" lon="33.4095148"><ele>339.4</ele><time>2015-05-01T12:01:13.0000000+00:00</time></trkpt><trkpt lat="34.9157943" lon="33.4095574"><ele>339.2</ele><time>2015-05-01T12:01:14.0000000+00:00</time></trkpt><trkpt lat="34.9158454" lon="33.409601"><ele>339.1</ele><time>2015-05-01T12:01:15.0000000+00:00</time></trkpt><trkpt lat="34.915903" lon="33.409638"><ele>339.1</ele><time>2015-05-01T12:01:16.0000000+00:00</time></trkpt><trkpt lat="34.9159493" lon="33.4096718"><ele>339.0</ele><time>2015-05-01T12:01:17.0000000+00:00</time></trkpt><trkpt lat="34.9160113" lon="33.4097001"><ele>339.0</ele><time>2015-05-01T12:01:18.0000000+00:00</time></trkpt><trkpt lat="34.9160642" lon="33.4097338"><ele>339.0</ele><time>2015-05-01T12:01:19.0000000+00:00</time></trkpt><trkpt lat="34.9161231" lon="33.4097709"><ele>339.0</ele><time>2015-05-01T12:01:20.0000000+00:00</time></trkpt><trkpt lat="34.9161781" lon="33.4098053"><ele>339.5</ele><time>2015-05-01T12:01:21.0000000+00:00</time></trkpt><trkpt lat="34.9162314" lon="33.4098364"><ele>339.8</ele><time>2015-05-01T12:01:22.0000000+00:00</time></trkpt><trkpt lat="34.9162839" lon="33.4098714"><ele>339.9</ele><time>2015-05-01T12:01:23.0000000+00:00</time></trkpt><trkpt lat="34.9163381" lon="33.4099013"><ele>339.5</ele><time>2015-05-01T12:01:24.0000000+00:00</time></trkpt><trkpt lat="34.9163873" lon="33.4099379"><ele>339.2</ele><time>2015-05-01T12:01:25.0000000+00:00</time></trkpt><trkpt lat="34.9164454" lon="33.409968"><ele>339.1</ele><time>2015-05-01T12:01:26.0000000+00:00</time></trkpt><trkpt lat="34.916493" lon="33.4099965"><ele>339.1</ele><time>2015-05-01T12:01:27.0000000+00:00</time></trkpt><trkpt lat="34.9165582" lon="33.4100274"><ele>339.0</ele><time>2015-05-01T12:01:28.0000000+00:00</time></trkpt><trkpt lat="34.9166184" lon="33.4100583"><ele>339.0</ele><time>2015-05-01T12:01:29.0000000+00:00</time></trkpt><trkpt lat="34.9166701" lon="33.4100907"><ele>339.0</ele><time>2015-05-01T12:01:30.0000000+00:00</time></trkpt><trkpt lat="34.9167283" lon="33.4101285"><ele>339.5</ele><time>2015-05-01T12:01:31.0000000+00:00</time></trkpt><trkpt lat="34.9167892" lon="33.4101585"><ele>339.8</ele><time>2015-05-01T12:01:32.0000000+00:00</time></trkpt><trkpt lat="34.9168403" lon="33.4101853"><ele>339.4</ele><time>2015-05-01T12:01:33.0000000+00:00</time></trkpt><trkpt lat="34.9168831" lon="33.4102249"><ele>338.7</ele><time>2015-05-01T12:01:34.0000000+00:00</time></trkpt><trkpt lat="34.9169402" lon="33.4102559"><ele>338.4</ele><time>2015-05-01T12:01:35.0000000+00:00</time></trkpt><trkpt lat="34.9169912" lon="33.410269"><ele>338.2</ele><time>2015-05-01T12:01:36.0000000+00:00</time></trkpt><trkpt lat="34.9170454" lon="33.4102934"><ele>338.6</ele><time>2015-05-01T12:01:37.0000000+00:00</time></trkpt><trkpt lat="34.9170913" lon="33.410315"><ele>338.8</ele><time>2015-05-01T12:01:38.0000000+00:00</time></trkpt><trkpt lat="34.9171452" lon="33.4103425"><ele>338.9</ele><time>2015-05-01T12:01:39.0000000+00:00</time></trkpt><trkpt lat="34.9171968" lon="33.410365"><ele>338.5</ele><time>2015-05-01T12:01:40.0000000+00:00</time></trkpt><trkpt lat="34.9172411" lon="33.4103915"><ele>338.2</ele><time>2015-05-01T12:01:41.0000000+00:00</time></trkpt><trkpt lat="34.9172876" lon="33.4104156"><ele>338.1</ele><time>2015-05-01T12:01:42.0000000+00:00</time></trkpt><trkpt lat="34.9173322" lon="33.4104327"><ele>338.6</ele><time>2015-05-01T12:01:43.0000000+00:00</time></trkpt><trkpt lat="34.9173814" lon="33.4104521"><ele>338.3</ele><time>2015-05-01T12:01:44.0000000+00:00</time></trkpt><trkpt lat="34.9174355" lon="33.4104811"><ele>338.2</ele><time>2015-05-01T12:01:45.0000000+00:00</time></trkpt><trkpt lat="34.9174852" lon="33.4105093"><ele>338.1</ele><time>2015-05-01T12:01:46.0000000+00:00</time></trkpt><trkpt lat="34.9175291" lon="33.4105218"><ele>338.1</ele><time>2015-05-01T12:01:47.0000000+00:00</time></trkpt><trkpt lat="34.9175771" lon="33.4105459"><ele>338.0</ele><time>2015-05-01T12:01:48.0000000+00:00</time></trkpt><trkpt lat="34.9176192" lon="33.4105685"><ele>338.0</ele><time>2015-05-01T12:01:49.0000000+00:00</time></trkpt><trkpt lat="34.9176649" lon="33.4105823"><ele>338.0</ele><time>2015-05-01T12:01:50.0000000+00:00</time></trkpt><trkpt lat="34.9177104" lon="33.4106026"><ele>338.0</ele><time>2015-05-01T12:01:51.0000000+00:00</time></trkpt><trkpt lat="34.9177602" lon="33.4106311"><ele>338.5</ele><time>2015-05-01T12:01:52.0000000+00:00</time></trkpt><trkpt lat="34.91785" lon="33.4106589"><ele>338.6</ele><time>2015-05-01T12:01:54.0000000+00:00</time></trkpt><trkpt lat="34.9179256" lon="33.4107005"><ele>338.2</ele><time>2015-05-01T12:01:56.0000000+00:00</time></trkpt><trkpt lat="34.9180044" lon="33.4107282"><ele>338.1</ele><time>2015-05-01T12:01:58.0000000+00:00</time></trkpt><trkpt lat="34.9180512" lon="33.410745"><ele>338.0</ele><time>2015-05-01T12:01:59.0000000+00:00</time></trkpt><trkpt lat="34.9181002" lon="33.4107618"><ele>338.0</ele><time>2015-05-01T12:02:00.0000000+00:00</time></trkpt><trkpt lat="34.9181508" lon="33.4107894"><ele>338.0</ele><time>2015-05-01T12:02:01.0000000+00:00</time></trkpt><trkpt lat="34.9182041" lon="33.4108027"><ele>338.0</ele><time>2015-05-01T12:02:02.0000000+00:00</time></trkpt><trkpt lat="34.9182517" lon="33.4108232"><ele>338.0</ele><time>2015-05-01T12:02:03.0000000+00:00</time></trkpt><trkpt lat="34.9182982" lon="33.4108374"><ele>338.0</ele><time>2015-05-01T12:02:04.0000000+00:00</time></trkpt><trkpt lat="34.9183436" lon="33.4108516"><ele>338.0</ele><time>2015-05-01T12:02:05.0000000+00:00</time></trkpt><trkpt lat="34.9184224" lon="33.4108918"><ele>338.3</ele><time>2015-05-01T12:02:07.0000000+00:00</time></trkpt><trkpt lat="34.918472" lon="33.410908"><ele>338.1</ele><time>2015-05-01T12:02:08.0000000+00:00</time></trkpt><trkpt lat="34.9185163" lon="33.410931"><ele>337.6</ele><time>2015-05-01T12:02:09.0000000+00:00</time></trkpt><trkpt lat="34.9185664" lon="33.4109543"><ele>337.3</ele><time>2015-05-01T12:02:10.0000000+00:00</time></trkpt><trkpt lat="34.9186365" lon="33.4109809"><ele>337.1</ele><time>2015-05-01T12:02:12.0000000+00:00</time></trkpt><trkpt lat="34.9186949" lon="33.4109873"><ele>330.2</ele><time>2015-05-01T12:03:12.0000000+00:00</time></trkpt><trkpt lat="34.9187374" lon="33.4110071"><ele>330.1</ele><time>2015-05-01T12:03:14.0000000+00:00</time></trkpt><trkpt lat="34.9187885" lon="33.4110298"><ele>330.3</ele><time>2015-05-01T12:03:16.0000000+00:00</time></trkpt><trkpt lat="34.9188472" lon="33.4110579"><ele>330.3</ele><time>2015-05-01T12:03:18.0000000+00:00</time></trkpt><trkpt lat="34.918913" lon="33.4110871"><ele>330.1</ele><time>2015-05-01T12:03:20.0000000+00:00</time></trkpt><trkpt lat="34.9189863" lon="33.4111167"><ele>330.0</ele><time>2015-05-01T12:03:22.0000000+00:00</time></trkpt><trkpt lat="34.9190723" lon="33.4111612"><ele>330.0</ele><time>2015-05-01T12:03:24.0000000+00:00</time></trkpt><trkpt lat="34.9191441" lon="33.411208"><ele>329.5</ele><time>2015-05-01T12:03:25.0000000+00:00</time></trkpt><trkpt lat="34.9191893" lon="33.4112338"><ele>329.3</ele><time>2015-05-01T12:03:26.0000000+00:00</time></trkpt><trkpt lat="34.9192432" lon="33.4112626"><ele>328.6</ele><time>2015-05-01T12:03:27.0000000+00:00</time></trkpt><trkpt lat="34.9192976" lon="33.4112913"><ele>328.3</ele><time>2015-05-01T12:03:28.0000000+00:00</time></trkpt><trkpt lat="34.9193455" lon="33.4113255"><ele>327.7</ele><time>2015-05-01T12:03:29.0000000+00:00</time></trkpt><trkpt lat="34.9194003" lon="33.4113479"><ele>326.8</ele><time>2015-05-01T12:03:30.0000000+00:00</time></trkpt><trkpt lat="34.9194507" lon="33.4113815"><ele>326.4</ele><time>2015-05-01T12:03:31.0000000+00:00</time></trkpt><trkpt lat="34.9195039" lon="33.4114119"><ele>325.7</ele><time>2015-05-01T12:03:32.0000000+00:00</time></trkpt><trkpt lat="34.9195621" lon="33.4114404"><ele>325.9</ele><time>2015-05-01T12:03:33.0000000+00:00</time></trkpt><trkpt lat="34.9196175" lon="33.4114667"><ele>325.9</ele><time>2015-05-01T12:03:34.0000000+00:00</time></trkpt><trkpt lat="34.9196715" lon="33.411496"><ele>325.5</ele><time>2015-05-01T12:03:35.0000000+00:00</time></trkpt><trkpt lat="34.9197246" lon="33.4115262"><ele>325.3</ele><time>2015-05-01T12:03:36.0000000+00:00</time></trkpt><trkpt lat="34.9197781" lon="33.4115644"><ele>324.6</ele><time>2015-05-01T12:03:37.0000000+00:00</time></trkpt><trkpt lat="34.9198359" lon="33.411595"><ele>324.8</ele><time>2015-05-01T12:03:38.0000000+00:00</time></trkpt><trkpt lat="34.9198909" lon="33.4116229"><ele>324.4</ele><time>2015-05-01T12:03:39.0000000+00:00</time></trkpt><trkpt lat="34.9199508" lon="33.4116503"><ele>324.2</ele><time>2015-05-01T12:03:40.0000000+00:00</time></trkpt><trkpt lat="34.9200107" lon="33.4116847"><ele>323.6</ele><time>2015-05-01T12:03:41.0000000+00:00</time></trkpt><trkpt lat="34.9200736" lon="33.4117257"><ele>323.3</ele><time>2015-05-01T12:03:42.0000000+00:00</time></trkpt><trkpt lat="34.9201323" lon="33.4117635"><ele>323.7</ele><time>2015-05-01T12:03:43.0000000+00:00</time></trkpt><trkpt lat="34.9201962" lon="33.4117906"><ele>323.8</ele><time>2015-05-01T12:03:44.0000000+00:00</time></trkpt><trkpt lat="34.9202577" lon="33.4118313"><ele>323.9</ele><time>2015-05-01T12:03:45.0000000+00:00</time></trkpt><trkpt lat="34.9203134" lon="33.4118655"><ele>323.5</ele><time>2015-05-01T12:03:46.0000000+00:00</time></trkpt><trkpt lat="34.920375" lon="33.4118988"><ele>323.7</ele><time>2015-05-01T12:03:47.0000000+00:00</time></trkpt><trkpt lat="34.9204348" lon="33.4119458"><ele>323.9</ele><time>2015-05-01T12:03:48.0000000+00:00</time></trkpt><trkpt lat="34.9204988" lon="33.4119891"><ele>324.0</ele><time>2015-05-01T12:03:49.0000000+00:00</time></trkpt><trkpt lat="34.9205616" lon="33.4120207"><ele>324.0</ele><time>2015-05-01T12:03:50.0000000+00:00</time></trkpt><trkpt lat="34.9206145" lon="33.4120579"><ele>324.0</ele><time>2015-05-01T12:03:51.0000000+00:00</time></trkpt><trkpt lat="34.9206672" lon="33.4121039"><ele>323.5</ele><time>2015-05-01T12:03:52.0000000+00:00</time></trkpt><trkpt lat="34.9207223" lon="33.4121501"><ele>322.8</ele><time>2015-05-01T12:03:53.0000000+00:00</time></trkpt><trkpt lat="34.920787" lon="33.4121855"><ele>322.4</ele><time>2015-05-01T12:03:54.0000000+00:00</time></trkpt><trkpt lat="34.9208413" lon="33.412221"><ele>322.2</ele><time>2015-05-01T12:03:55.0000000+00:00</time></trkpt><trkpt lat="34.9209001" lon="33.4122636"><ele>322.1</ele><time>2015-05-01T12:03:56.0000000+00:00</time></trkpt><trkpt lat="34.9209597" lon="33.4123059"><ele>322.1</ele><time>2015-05-01T12:03:57.0000000+00:00</time></trkpt><trkpt lat="34.9210109" lon="33.4123486"><ele>322.0</ele><time>2015-05-01T12:03:58.0000000+00:00</time></trkpt><trkpt lat="34.9210654" lon="33.4123857"><ele>321.5</ele><time>2015-05-01T12:03:59.0000000+00:00</time></trkpt><trkpt lat="34.9211184" lon="33.4124302"><ele>321.3</ele><time>2015-05-01T12:04:00.0000000+00:00</time></trkpt><trkpt lat="34.9211763" lon="33.4124696"><ele>321.6</ele><time>2015-05-01T12:04:01.0000000+00:00</time></trkpt><trkpt lat="34.921229" lon="33.4125137"><ele>321.8</ele><time>2015-05-01T12:04:02.0000000+00:00</time></trkpt><trkpt lat="34.9212755" lon="33.4125514"><ele>321.4</ele><time>2015-05-01T12:04:03.0000000+00:00</time></trkpt><trkpt lat="34.9213302" lon="33.4125897"><ele>321.2</ele><time>2015-05-01T12:04:04.0000000+00:00</time></trkpt><trkpt lat="34.9213805" lon="33.4126308"><ele>322.1</ele><time>2015-05-01T12:04:05.0000000+00:00</time></trkpt><trkpt lat="34.9214339" lon="33.4126696"><ele>322.6</ele><time>2015-05-01T12:04:06.0000000+00:00</time></trkpt><trkpt lat="34.921491" lon="33.4127086"><ele>322.8</ele><time>2015-05-01T12:04:07.0000000+00:00</time></trkpt><trkpt lat="34.9215421" lon="33.4127481"><ele>322.4</ele><time>2015-05-01T12:04:08.0000000+00:00</time></trkpt><trkpt lat="34.9215925" lon="33.4127846"><ele>322.2</ele><time>2015-05-01T12:04:09.0000000+00:00</time></trkpt><trkpt lat="34.9216281" lon="33.4128355"><ele>321.6</ele><time>2015-05-01T12:04:10.0000000+00:00</time></trkpt><trkpt lat="34.9216858" lon="33.4128724"><ele>321.3</ele><time>2015-05-01T12:04:11.0000000+00:00</time></trkpt><trkpt lat="34.9217416" lon="33.4129114"><ele>321.2</ele><time>2015-05-01T12:04:12.0000000+00:00</time></trkpt><trkpt lat="34.9217894" lon="33.4129474"><ele>320.6</ele><time>2015-05-01T12:04:13.0000000+00:00</time></trkpt><trkpt lat="34.9218393" lon="33.4129914"><ele>320.8</ele><time>2015-05-01T12:04:14.0000000+00:00</time></trkpt><trkpt lat="34.9218869" lon="33.4130318"><ele>320.9</ele><time>2015-05-01T12:04:15.0000000+00:00</time></trkpt><trkpt lat="34.9219356" lon="33.4130776"><ele>321.0</ele><time>2015-05-01T12:04:16.0000000+00:00</time></trkpt><trkpt lat="34.9219866" lon="33.4131222"><ele>321.0</ele><time>2015-05-01T12:04:17.0000000+00:00</time></trkpt><trkpt lat="34.922038" lon="33.4131712"><ele>320.5</ele><time>2015-05-01T12:04:18.0000000+00:00</time></trkpt><trkpt lat="34.9220823" lon="33.4131829"><ele>319.8</ele><time>2015-05-01T12:04:19.0000000+00:00</time></trkpt><trkpt lat="34.9221377" lon="33.4132359"><ele>319.4</ele><time>2015-05-01T12:04:20.0000000+00:00</time></trkpt><trkpt lat="34.9221945" lon="33.4132725"><ele>319.2</ele><time>2015-05-01T12:04:21.0000000+00:00</time></trkpt><trkpt lat="34.9222412" lon="33.4133055"><ele>319.1</ele><time>2015-05-01T12:04:22.0000000+00:00</time></trkpt><trkpt lat="34.9222875" lon="33.4133484"><ele>319.1</ele><time>2015-05-01T12:04:23.0000000+00:00</time></trkpt><trkpt lat="34.9223355" lon="33.4133874"><ele>319.0</ele><time>2015-05-01T12:04:24.0000000+00:00</time></trkpt><trkpt lat="34.9223719" lon="33.4134221"><ele>319.5</ele><time>2015-05-01T12:04:25.0000000+00:00</time></trkpt><trkpt lat="34.9224256" lon="33.4134522"><ele>319.8</ele><time>2015-05-01T12:04:26.0000000+00:00</time></trkpt><trkpt lat="34.9224665" lon="33.4134769"><ele>319.4</ele><time>2015-05-01T12:04:27.0000000+00:00</time></trkpt><trkpt lat="34.9225209" lon="33.4135106"><ele>319.2</ele><time>2015-05-01T12:04:28.0000000+00:00</time></trkpt><trkpt lat="34.922567" lon="33.4135433"><ele>318.6</ele><time>2015-05-01T12:04:29.0000000+00:00</time></trkpt><trkpt lat="34.9226167" lon="33.4135771"><ele>318.3</ele><time>2015-05-01T12:04:30.0000000+00:00</time></trkpt><trkpt lat="34.9226572" lon="33.4136046"><ele>317.7</ele><time>2015-05-01T12:04:31.0000000+00:00</time></trkpt><trkpt lat="34.9227136" lon="33.4136179"><ele>317.8</ele><time>2015-05-01T12:04:32.0000000+00:00</time></trkpt><trkpt lat="34.9227608" lon="33.4136452"><ele>317.4</ele><time>2015-05-01T12:04:33.0000000+00:00</time></trkpt><trkpt lat="34.9228139" lon="33.4136733"><ele>317.2</ele><time>2015-05-01T12:04:34.0000000+00:00</time></trkpt><trkpt lat="34.9228635" lon="33.4137022"><ele>316.6</ele><time>2015-05-01T12:04:35.0000000+00:00</time></trkpt><trkpt lat="34.9229211" lon="33.4137222"><ele>316.3</ele><time>2015-05-01T12:04:36.0000000+00:00</time></trkpt><trkpt lat="34.9229754" lon="33.4137503"><ele>315.7</ele><time>2015-05-01T12:04:37.0000000+00:00</time></trkpt><trkpt lat="34.9230267" lon="33.41377"><ele>315.8</ele><time>2015-05-01T12:04:38.0000000+00:00</time></trkpt><trkpt lat="34.9230957" lon="33.413785"><ele>315.4</ele><time>2015-05-01T12:04:39.0000000+00:00</time></trkpt><trkpt lat="34.9231534" lon="33.4138108"><ele>315.7</ele><time>2015-05-01T12:04:40.0000000+00:00</time></trkpt><trkpt lat="34.9232055" lon="33.4138322"><ele>315.9</ele><time>2015-05-01T12:04:41.0000000+00:00</time></trkpt><trkpt lat="34.923257" lon="33.4138477"><ele>315.4</ele><time>2015-05-01T12:04:42.0000000+00:00</time></trkpt><trkpt lat="34.9233059" lon="33.4138618"><ele>315.2</ele><time>2015-05-01T12:04:43.0000000+00:00</time></trkpt><trkpt lat="34.9233514" lon="33.4138818"><ele>315.1</ele><time>2015-05-01T12:04:44.0000000+00:00</time></trkpt><trkpt lat="34.9233999" lon="33.4138934"><ele>315.6</ele><time>2015-05-01T12:04:45.0000000+00:00</time></trkpt><trkpt lat="34.923451" lon="33.413902"><ele>316.3</ele><time>2015-05-01T12:04:46.0000000+00:00</time></trkpt><trkpt lat="34.9234998" lon="33.413914"><ele>316.2</ele><time>2015-05-01T12:04:47.0000000+00:00</time></trkpt><trkpt lat="34.9235489" lon="33.4139327"><ele>316.1</ele><time>2015-05-01T12:04:48.0000000+00:00</time></trkpt><trkpt lat="34.9236029" lon="33.413947"><ele>316.1</ele><time>2015-05-01T12:04:49.0000000+00:00</time></trkpt><trkpt lat="34.9236488" lon="33.4139511"><ele>315.5</ele><time>2015-05-01T12:04:50.0000000+00:00</time></trkpt><trkpt lat="34.9236952" lon="33.4139585"><ele>315.3</ele><time>2015-05-01T12:04:51.0000000+00:00</time></trkpt><trkpt lat="34.9237452" lon="33.413969"><ele>315.2</ele><time>2015-05-01T12:04:52.0000000+00:00</time></trkpt><trkpt lat="34.9238034" lon="33.4139855"><ele>314.6</ele><time>2015-05-01T12:04:53.0000000+00:00</time></trkpt><trkpt lat="34.9238499" lon="33.4139915"><ele>314.8</ele><time>2015-05-01T12:04:54.0000000+00:00</time></trkpt><trkpt lat="34.9238966" lon="33.4139936"><ele>314.9</ele><time>2015-05-01T12:04:55.0000000+00:00</time></trkpt><trkpt lat="34.9239454" lon="33.4140047"><ele>314.5</ele><time>2015-05-01T12:04:56.0000000+00:00</time></trkpt><trkpt lat="34.9239925" lon="33.4140111"><ele>314.2</ele><time>2015-05-01T12:04:57.0000000+00:00</time></trkpt><trkpt lat="34.9240407" lon="33.4140194"><ele>314.6</ele><time>2015-05-01T12:04:58.0000000+00:00</time></trkpt><trkpt lat="34.9241298" lon="33.4140315"><ele>314.9</ele><time>2015-05-01T12:05:00.0000000+00:00</time></trkpt><trkpt lat="34.9241854" lon="33.4140392"><ele>315.0</ele><time>2015-05-01T12:05:01.0000000+00:00</time></trkpt><trkpt lat="34.9242406" lon="33.4140443"><ele>314.5</ele><time>2015-05-01T12:05:02.0000000+00:00</time></trkpt><trkpt lat="34.9243013" lon="33.4140461"><ele>314.3</ele><time>2015-05-01T12:05:03.0000000+00:00</time></trkpt><trkpt lat="34.924348" lon="33.4140605"><ele>314.1</ele><time>2015-05-01T12:05:04.0000000+00:00</time></trkpt><trkpt lat="34.9243976" lon="33.414066"><ele>313.6</ele><time>2015-05-01T12:05:05.0000000+00:00</time></trkpt><trkpt lat="34.9244443" lon="33.4140679"><ele>313.8</ele><time>2015-05-01T12:05:06.0000000+00:00</time></trkpt><trkpt lat="34.9245421" lon="33.4140815"><ele>313.2</ele><time>2015-05-01T12:05:08.0000000+00:00</time></trkpt><trkpt lat="34.924592" lon="33.4140831"><ele>313.1</ele><time>2015-05-01T12:05:09.0000000+00:00</time></trkpt><trkpt lat="34.9246566" lon="33.4140784"><ele>313.1</ele><time>2015-05-01T12:05:10.0000000+00:00</time></trkpt><trkpt lat="34.924713" lon="33.4140813"><ele>313.0</ele><time>2015-05-01T12:05:11.0000000+00:00</time></trkpt><trkpt lat="34.9247668" lon="33.4140858"><ele>313.5</ele><time>2015-05-01T12:05:12.0000000+00:00</time></trkpt><trkpt lat="34.9248168" lon="33.4140913"><ele>313.3</ele><time>2015-05-01T12:05:13.0000000+00:00</time></trkpt><trkpt lat="34.92487" lon="33.4140907"><ele>313.1</ele><time>2015-05-01T12:05:14.0000000+00:00</time></trkpt><trkpt lat="34.9249328" lon="33.4140895"><ele>313.1</ele><time>2015-05-01T12:05:15.0000000+00:00</time></trkpt><trkpt lat="34.9249843" lon="33.4140808"><ele>313.1</ele><time>2015-05-01T12:05:16.0000000+00:00</time></trkpt><trkpt lat="34.9250447" lon="33.4140713"><ele>312.5</ele><time>2015-05-01T12:05:17.0000000+00:00</time></trkpt><trkpt lat="34.9251062" lon="33.414067"><ele>311.8</ele><time>2015-05-01T12:05:18.0000000+00:00</time></trkpt><trkpt lat="34.9251617" lon="33.4140593"><ele>310.9</ele><time>2015-05-01T12:05:19.0000000+00:00</time></trkpt><trkpt lat="34.9252223" lon="33.414053"><ele>310.5</ele><time>2015-05-01T12:05:20.0000000+00:00</time></trkpt><trkpt lat="34.9252811" lon="33.4140396"><ele>310.2</ele><time>2015-05-01T12:05:21.0000000+00:00</time></trkpt><trkpt lat="34.9253378" lon="33.4140227"><ele>309.6</ele><time>2015-05-01T12:05:22.0000000+00:00</time></trkpt><trkpt lat="34.9253987" lon="33.4140106"><ele>309.3</ele><time>2015-05-01T12:05:23.0000000+00:00</time></trkpt><trkpt lat="34.9254663" lon="33.4139923"><ele>309.2</ele><time>2015-05-01T12:05:24.0000000+00:00</time></trkpt><trkpt lat="34.9255295" lon="33.413974"><ele>308.6</ele><time>2015-05-01T12:05:25.0000000+00:00</time></trkpt><trkpt lat="34.9255825" lon="33.4139623"><ele>308.8</ele><time>2015-05-01T12:05:26.0000000+00:00</time></trkpt><trkpt lat="34.9256274" lon="33.4139452"><ele>309.4</ele><time>2015-05-01T12:05:27.0000000+00:00</time></trkpt><trkpt lat="34.9256726" lon="33.4139278"><ele>309.2</ele><time>2015-05-01T12:05:28.0000000+00:00</time></trkpt><trkpt lat="34.9257171" lon="33.4139046"><ele>309.1</ele><time>2015-05-01T12:05:30.0000000+00:00</time></trkpt><trkpt lat="34.9257627" lon="33.4138857"><ele>311.0</ele><time>2015-05-01T12:05:34.0000000+00:00</time></trkpt><trkpt lat="34.9258195" lon="33.4138812"><ele>315.0</ele><time>2015-05-01T12:06:18.0000000+00:00</time></trkpt><trkpt lat="34.9258641" lon="33.4138592"><ele>314.3</ele><time>2015-05-01T12:06:21.0000000+00:00</time></trkpt><trkpt lat="34.9259257" lon="33.4138328"><ele>314.1</ele><time>2015-05-01T12:06:24.0000000+00:00</time></trkpt><trkpt lat="34.9259931" lon="33.4138149"><ele>313.5</ele><time>2015-05-01T12:06:26.0000000+00:00</time></trkpt><trkpt lat="34.9260646" lon="33.4137958"><ele>312.8</ele><time>2015-05-01T12:06:27.0000000+00:00</time></trkpt><trkpt lat="34.9261609" lon="33.4137568"><ele>312.2</ele><time>2015-05-01T12:06:29.0000000+00:00</time></trkpt><trkpt lat="34.9262241" lon="33.4137387"><ele>311.1</ele><time>2015-05-01T12:06:30.0000000+00:00</time></trkpt><trkpt lat="34.9262797" lon="33.4137243"><ele>309.6</ele><time>2015-05-01T12:06:31.0000000+00:00</time></trkpt><trkpt lat="34.9263408" lon="33.4137055"><ele>308.8</ele><time>2015-05-01T12:06:32.0000000+00:00</time></trkpt><trkpt lat="34.9263914" lon="33.4136838"><ele>308.9</ele><time>2015-05-01T12:06:33.0000000+00:00</time></trkpt><trkpt lat="34.9264464" lon="33.4136548"><ele>310.0</ele><time>2015-05-01T12:06:34.0000000+00:00</time></trkpt><trkpt lat="34.9265035" lon="33.4136328"><ele>310.0</ele><time>2015-05-01T12:06:35.0000000+00:00</time></trkpt><trkpt lat="34.9265828" lon="33.4136104"><ele>310.0</ele><time>2015-05-01T12:06:36.0000000+00:00</time></trkpt><trkpt lat="34.9266555" lon="33.4135844"><ele>309.5</ele><time>2015-05-01T12:06:37.0000000+00:00</time></trkpt><trkpt lat="34.9267188" lon="33.4135559"><ele>308.8</ele><time>2015-05-01T12:06:38.0000000+00:00</time></trkpt><trkpt lat="34.9267851" lon="33.4135329"><ele>307.9</ele><time>2015-05-01T12:06:39.0000000+00:00</time></trkpt><trkpt lat="34.9268503" lon="33.4135088"><ele>307.0</ele><time>2015-05-01T12:06:40.0000000+00:00</time></trkpt><trkpt lat="34.9269146" lon="33.4134789"><ele>306.5</ele><time>2015-05-01T12:06:41.0000000+00:00</time></trkpt><trkpt lat="34.9269709" lon="33.4134496"><ele>306.3</ele><time>2015-05-01T12:06:42.0000000+00:00</time></trkpt><trkpt lat="34.9270424" lon="33.4134245"><ele>306.6</ele><time>2015-05-01T12:06:43.0000000+00:00</time></trkpt><trkpt lat="34.9271102" lon="33.4133983"><ele>306.3</ele><time>2015-05-01T12:06:44.0000000+00:00</time></trkpt><trkpt lat="34.9271754" lon="33.4133686"><ele>305.7</ele><time>2015-05-01T12:06:45.0000000+00:00</time></trkpt><trkpt lat="34.9272391" lon="33.4133436"><ele>304.8</ele><time>2015-05-01T12:06:46.0000000+00:00</time></trkpt><trkpt lat="34.9273034" lon="33.4133156"><ele>303.9</ele><time>2015-05-01T12:06:47.0000000+00:00</time></trkpt><trkpt lat="34.92737" lon="33.4132863"><ele>303.5</ele><time>2015-05-01T12:06:48.0000000+00:00</time></trkpt><trkpt lat="34.9274321" lon="33.4132483"><ele>303.2</ele><time>2015-05-01T12:06:49.0000000+00:00</time></trkpt><trkpt lat="34.9275052" lon="33.4132204"><ele>303.6</ele><time>2015-05-01T12:06:50.0000000+00:00</time></trkpt><trkpt lat="34.9275759" lon="33.4131944"><ele>303.3</ele><time>2015-05-01T12:06:51.0000000+00:00</time></trkpt><trkpt lat="34.9276475" lon="33.4131667"><ele>303.7</ele><time>2015-05-01T12:06:52.0000000+00:00</time></trkpt><trkpt lat="34.9277226" lon="33.413134"><ele>303.8</ele><time>2015-05-01T12:06:53.0000000+00:00</time></trkpt><trkpt lat="34.9277799" lon="33.4131013"><ele>303.4</ele><time>2015-05-01T12:06:54.0000000+00:00</time></trkpt><trkpt lat="34.9278581" lon="33.4130742"><ele>303.2</ele><time>2015-05-01T12:06:55.0000000+00:00</time></trkpt><trkpt lat="34.9279301" lon="33.4130454"><ele>303.1</ele><time>2015-05-01T12:06:56.0000000+00:00</time></trkpt><trkpt lat="34.9280074" lon="33.4130272"><ele>302.6</ele><time>2015-05-01T12:06:57.0000000+00:00</time></trkpt><trkpt lat="34.9280866" lon="33.4130098"><ele>303.3</ele><time>2015-05-01T12:06:58.0000000+00:00</time></trkpt><trkpt lat="34.928163" lon="33.4129852"><ele>303.7</ele><time>2015-05-01T12:06:59.0000000+00:00</time></trkpt><trkpt lat="34.9282323" lon="33.4129594"><ele>303.8</ele><time>2015-05-01T12:07:00.0000000+00:00</time></trkpt><trkpt lat="34.9282935" lon="33.4129304"><ele>303.9</ele><time>2015-05-01T12:07:01.0000000+00:00</time></trkpt><trkpt lat="34.9283579" lon="33.4128954"><ele>304.0</ele><time>2015-05-01T12:07:02.0000000+00:00</time></trkpt><trkpt lat="34.9284298" lon="33.4128687"><ele>304.0</ele><time>2015-05-01T12:07:03.0000000+00:00</time></trkpt><trkpt lat="34.9284966" lon="33.4128408"><ele>304.0</ele><time>2015-05-01T12:07:04.0000000+00:00</time></trkpt><trkpt lat="34.9285671" lon="33.4128182"><ele>304.0</ele><time>2015-05-01T12:07:05.0000000+00:00</time></trkpt><trkpt lat="34.9286359" lon="33.4127877"><ele>303.5</ele><time>2015-05-01T12:07:06.0000000+00:00</time></trkpt><trkpt lat="34.9287032" lon="33.4127597"><ele>303.3</ele><time>2015-05-01T12:07:07.0000000+00:00</time></trkpt><trkpt lat="34.9287729" lon="33.4127406"><ele>303.1</ele><time>2015-05-01T12:07:08.0000000+00:00</time></trkpt><trkpt lat="34.9288434" lon="33.4127165"><ele>303.1</ele><time>2015-05-01T12:07:09.0000000+00:00</time></trkpt><trkpt lat="34.92892" lon="33.4126945"><ele>302.6</ele><time>2015-05-01T12:07:10.0000000+00:00</time></trkpt><trkpt lat="34.9289756" lon="33.4126644"><ele>302.8</ele><time>2015-05-01T12:07:11.0000000+00:00</time></trkpt><trkpt lat="34.9290398" lon="33.4126338"><ele>302.4</ele><time>2015-05-01T12:07:12.0000000+00:00</time></trkpt><trkpt lat="34.929107" lon="33.4126123"><ele>303.2</ele><time>2015-05-01T12:07:13.0000000+00:00</time></trkpt><trkpt lat="34.9291785" lon="33.412581"><ele>303.1</ele><time>2015-05-01T12:07:14.0000000+00:00</time></trkpt><trkpt lat="34.9292471" lon="33.4125511"><ele>303.1</ele><time>2015-05-01T12:07:15.0000000+00:00</time></trkpt><trkpt lat="34.9293183" lon="33.4125279"><ele>302.5</ele><time>2015-05-01T12:07:16.0000000+00:00</time></trkpt><trkpt lat="34.9293946" lon="33.4125025"><ele>302.3</ele><time>2015-05-01T12:07:17.0000000+00:00</time></trkpt><trkpt lat="34.9294744" lon="33.4124792"><ele>302.2</ele><time>2015-05-01T12:07:18.0000000+00:00</time></trkpt><trkpt lat="34.929543" lon="33.4124481"><ele>302.1</ele><time>2015-05-01T12:07:19.0000000+00:00</time></trkpt><trkpt lat="34.9296118" lon="33.4124167"><ele>301.6</ele><time>2015-05-01T12:07:20.0000000+00:00</time></trkpt><trkpt lat="34.9296805" lon="33.4123907"><ele>300.8</ele><time>2015-05-01T12:07:21.0000000+00:00</time></trkpt><trkpt lat="34.9297462" lon="33.4123661"><ele>300.4</ele><time>2015-05-01T12:07:22.0000000+00:00</time></trkpt><trkpt lat="34.9298108" lon="33.4123437"><ele>299.7</ele><time>2015-05-01T12:07:23.0000000+00:00</time></trkpt><trkpt lat="34.9298762" lon="33.4123193"><ele>298.9</ele><time>2015-05-01T12:07:24.0000000+00:00</time></trkpt><trkpt lat="34.9299491" lon="33.4122918"><ele>299.4</ele><time>2015-05-01T12:07:25.0000000+00:00</time></trkpt><trkpt lat="34.9300096" lon="33.4122661"><ele>300.2</ele><time>2015-05-01T12:07:26.0000000+00:00</time></trkpt><trkpt lat="34.9300674" lon="33.4122412"><ele>300.1</ele><time>2015-05-01T12:07:27.0000000+00:00</time></trkpt><trkpt lat="34.9301284" lon="33.4122148"><ele>299.6</ele><time>2015-05-01T12:07:28.0000000+00:00</time></trkpt><trkpt lat="34.9301892" lon="33.4121946"><ele>298.8</ele><time>2015-05-01T12:07:29.0000000+00:00</time></trkpt><trkpt lat="34.9302496" lon="33.412171"><ele>298.4</ele><time>2015-05-01T12:07:30.0000000+00:00</time></trkpt><trkpt lat="34.930312" lon="33.412151"><ele>299.2</ele><time>2015-05-01T12:07:31.0000000+00:00</time></trkpt><trkpt lat="34.9303729" lon="33.4121307"><ele>299.1</ele><time>2015-05-01T12:07:32.0000000+00:00</time></trkpt><trkpt lat="34.9304243" lon="33.4121157"><ele>299.6</ele><time>2015-05-01T12:07:33.0000000+00:00</time></trkpt><trkpt lat="34.9304748" lon="33.4120942"><ele>299.8</ele><time>2015-05-01T12:07:34.0000000+00:00</time></trkpt><trkpt lat="34.9305348" lon="33.4120771"><ele>299.9</ele><time>2015-05-01T12:07:35.0000000+00:00</time></trkpt><trkpt lat="34.9306289" lon="33.4120471"><ele>300.7</ele><time>2015-05-01T12:07:37.0000000+00:00</time></trkpt><trkpt lat="34.930676" lon="33.4120295"><ele>300.4</ele><time>2015-05-01T12:07:38.0000000+00:00</time></trkpt><trkpt lat="34.9307396" lon="33.4120292"><ele>300.2</ele><time>2015-05-01T12:07:39.0000000+00:00</time></trkpt><trkpt lat="34.9307889" lon="33.4120095"><ele>300.1</ele><time>2015-05-01T12:07:40.0000000+00:00</time></trkpt><trkpt lat="34.93084" lon="33.4119943"><ele>300.1</ele><time>2015-05-01T12:07:41.0000000+00:00</time></trkpt><trkpt lat="34.9308893" lon="33.4119833"><ele>299.5</ele><time>2015-05-01T12:07:42.0000000+00:00</time></trkpt><trkpt lat="34.9309825" lon="33.4119707"><ele>299.2</ele><time>2015-05-01T12:07:44.0000000+00:00</time></trkpt><trkpt lat="34.9310296" lon="33.4119702"><ele>299.1</ele><time>2015-05-01T12:07:45.0000000+00:00</time></trkpt><trkpt lat="34.9310746" lon="33.4119663"><ele>299.6</ele><time>2015-05-01T12:07:46.0000000+00:00</time></trkpt><trkpt lat="34.9311688" lon="33.4119784"><ele>301.2</ele><time>2015-05-01T12:07:48.0000000+00:00</time></trkpt><trkpt lat="34.9312617" lon="33.4119756"><ele>301.8</ele><time>2015-05-01T12:07:50.0000000+00:00</time></trkpt><trkpt lat="34.9313455" lon="33.4119725"><ele>302.0</ele><time>2015-05-01T12:07:52.0000000+00:00</time></trkpt><trkpt lat="34.9313915" lon="33.4119711"><ele>302.0</ele><time>2015-05-01T12:07:53.0000000+00:00</time></trkpt><trkpt lat="34.9314527" lon="33.4119837"><ele>302.0</ele><time>2015-05-01T12:07:54.0000000+00:00</time></trkpt><trkpt lat="34.9315021" lon="33.4119848"><ele>302.0</ele><time>2015-05-01T12:07:55.0000000+00:00</time></trkpt><trkpt lat="34.9315521" lon="33.4119837"><ele>301.5</ele><time>2015-05-01T12:07:56.0000000+00:00</time></trkpt><trkpt lat="34.9316426" lon="33.4120042"><ele>301.1</ele><time>2015-05-01T12:07:58.0000000+00:00</time></trkpt><trkpt lat="34.9316967" lon="33.412014"><ele>301.1</ele><time>2015-05-01T12:07:59.0000000+00:00</time></trkpt><trkpt lat="34.9317425" lon="33.4120263"><ele>302.1</ele><time>2015-05-01T12:08:00.0000000+00:00</time></trkpt><trkpt lat="34.9317864" lon="33.4120437"><ele>302.0</ele><time>2015-05-01T12:08:01.0000000+00:00</time></trkpt><trkpt lat="34.9318444" lon="33.4120672"><ele>302.0</ele><time>2015-05-01T12:08:02.0000000+00:00</time></trkpt><trkpt lat="34.9318905" lon="33.4120892"><ele>302.5</ele><time>2015-05-01T12:08:03.0000000+00:00</time></trkpt><trkpt lat="34.9319503" lon="33.4121249"><ele>302.8</ele><time>2015-05-01T12:08:04.0000000+00:00</time></trkpt><trkpt lat="34.9320123" lon="33.4121576"><ele>302.4</ele><time>2015-05-01T12:08:05.0000000+00:00</time></trkpt><trkpt lat="34.9320552" lon="33.4121959"><ele>302.2</ele><time>2015-05-01T12:08:06.0000000+00:00</time></trkpt><trkpt lat="34.9321098" lon="33.4122336"><ele>302.1</ele><time>2015-05-01T12:08:07.0000000+00:00</time></trkpt><trkpt lat="34.9321875" lon="33.412285"><ele>303.6</ele><time>2015-05-01T12:08:08.0000000+00:00</time></trkpt><trkpt lat="34.9322345" lon="33.4123137"><ele>304.3</ele><time>2015-05-01T12:08:09.0000000+00:00</time></trkpt><trkpt lat="34.9322897" lon="33.4123553"><ele>304.2</ele><time>2015-05-01T12:08:10.0000000+00:00</time></trkpt><trkpt lat="34.9323459" lon="33.4124007"><ele>303.1</ele><time>2015-05-01T12:08:11.0000000+00:00</time></trkpt><trkpt lat="34.9323926" lon="33.4124532"><ele>302.1</ele><time>2015-05-01T12:08:12.0000000+00:00</time></trkpt><trkpt lat="34.932438" lon="33.4125136"><ele>301.0</ele><time>2015-05-01T12:08:13.0000000+00:00</time></trkpt><trkpt lat="34.9324888" lon="33.4125523"><ele>301.5</ele><time>2015-05-01T12:08:14.0000000+00:00</time></trkpt><trkpt lat="34.9325376" lon="33.4125896"><ele>301.8</ele><time>2015-05-01T12:08:15.0000000+00:00</time></trkpt><trkpt lat="34.9325851" lon="33.4126329"><ele>301.9</ele><time>2015-05-01T12:08:16.0000000+00:00</time></trkpt><trkpt lat="34.9326335" lon="33.4126796"><ele>302.0</ele><time>2015-05-01T12:08:17.0000000+00:00</time></trkpt><trkpt lat="34.9326756" lon="33.412723"><ele>301.5</ele><time>2015-05-01T12:08:18.0000000+00:00</time></trkpt><trkpt lat="34.932718" lon="33.4127598"><ele>301.8</ele><time>2015-05-01T12:08:19.0000000+00:00</time></trkpt><trkpt lat="34.9327648" lon="33.4127976"><ele>301.4</ele><time>2015-05-01T12:08:20.0000000+00:00</time></trkpt><trkpt lat="34.932815" lon="33.412841"><ele>300.7</ele><time>2015-05-01T12:08:21.0000000+00:00</time></trkpt><trkpt lat="34.9328809" lon="33.4128636"><ele>300.9</ele><time>2015-05-01T12:08:22.0000000+00:00</time></trkpt><trkpt lat="34.932933" lon="33.4129025"><ele>300.9</ele><time>2015-05-01T12:08:23.0000000+00:00</time></trkpt><trkpt lat="34.9329789" lon="33.4129313"><ele>301.0</ele><time>2015-05-01T12:08:24.0000000+00:00</time></trkpt><trkpt lat="34.9330331" lon="33.4129598"><ele>301.0</ele><time>2015-05-01T12:08:25.0000000+00:00</time></trkpt><trkpt lat="34.9330934" lon="33.4129832"><ele>300.5</ele><time>2015-05-01T12:08:26.0000000+00:00</time></trkpt><trkpt lat="34.9331422" lon="33.4130131"><ele>300.3</ele><time>2015-05-01T12:08:27.0000000+00:00</time></trkpt><trkpt lat="34.9331978" lon="33.4130376"><ele>299.6</ele><time>2015-05-01T12:08:28.0000000+00:00</time></trkpt><trkpt lat="34.9332517" lon="33.4130762"><ele>299.3</ele><time>2015-05-01T12:08:29.0000000+00:00</time></trkpt><trkpt lat="34.9333144" lon="33.4130998"><ele>298.7</ele><time>2015-05-01T12:08:30.0000000+00:00</time></trkpt><trkpt lat="34.9333744" lon="33.4131356"><ele>298.3</ele><time>2015-05-01T12:08:31.0000000+00:00</time></trkpt><trkpt lat="34.9334237" lon="33.4131615"><ele>298.7</ele><time>2015-05-01T12:08:32.0000000+00:00</time></trkpt><trkpt lat="34.933489" lon="33.4131838"><ele>299.4</ele><time>2015-05-01T12:08:33.0000000+00:00</time></trkpt><trkpt lat="34.9335499" lon="33.4131952"><ele>299.7</ele><time>2015-05-01T12:08:34.0000000+00:00</time></trkpt><trkpt lat="34.9336014" lon="33.4132144"><ele>299.9</ele><time>2015-05-01T12:08:35.0000000+00:00</time></trkpt><trkpt lat="34.9336604" lon="33.413231"><ele>299.9</ele><time>2015-05-01T12:08:36.0000000+00:00</time></trkpt><trkpt lat="34.9337136" lon="33.4132426"><ele>300.5</ele><time>2015-05-01T12:08:37.0000000+00:00</time></trkpt><trkpt lat="34.9337724" lon="33.4132525"><ele>300.3</ele><time>2015-05-01T12:08:38.0000000+00:00</time></trkpt><trkpt lat="34.9338288" lon="33.4132592"><ele>300.1</ele><time>2015-05-01T12:08:39.0000000+00:00</time></trkpt><trkpt lat="34.9338818" lon="33.4132631"><ele>299.1</ele><time>2015-05-01T12:08:40.0000000+00:00</time></trkpt><trkpt lat="34.933943" lon="33.4132681"><ele>298.0</ele><time>2015-05-01T12:08:41.0000000+00:00</time></trkpt><trkpt lat="34.934002" lon="33.413267"><ele>298.0</ele><time>2015-05-01T12:08:42.0000000+00:00</time></trkpt><trkpt lat="34.9340512" lon="33.4132707"><ele>298.0</ele><time>2015-05-01T12:08:43.0000000+00:00</time></trkpt><trkpt lat="34.9340982" lon="33.4132629"><ele>297.5</ele><time>2015-05-01T12:08:44.0000000+00:00</time></trkpt><trkpt lat="34.9341453" lon="33.4132542"><ele>297.3</ele><time>2015-05-01T12:08:45.0000000+00:00</time></trkpt><trkpt lat="34.9342003" lon="33.4132596"><ele>297.6</ele><time>2015-05-01T12:08:46.0000000+00:00</time></trkpt><trkpt lat="34.9342511" lon="33.4132468"><ele>297.8</ele><time>2015-05-01T12:08:47.0000000+00:00</time></trkpt><trkpt lat="34.9342981" lon="33.413237"><ele>297.4</ele><time>2015-05-01T12:08:48.0000000+00:00</time></trkpt><trkpt lat="34.9343482" lon="33.4132375"><ele>297.2</ele><time>2015-05-01T12:08:49.0000000+00:00</time></trkpt><trkpt lat="34.9343981" lon="33.4132307"><ele>296.6</ele><time>2015-05-01T12:08:50.0000000+00:00</time></trkpt><trkpt lat="34.9344826" lon="33.4132225"><ele>295.4</ele><time>2015-05-01T12:08:52.0000000+00:00</time></trkpt><trkpt lat="34.9345635" lon="33.4132074"><ele>295.4</ele><time>2015-05-01T12:08:54.0000000+00:00</time></trkpt><trkpt lat="34.9346535" lon="33.4131854"><ele>293.9</ele><time>2015-05-01T12:08:56.0000000+00:00</time></trkpt><trkpt lat="34.9347077" lon="33.413166"><ele>294.4</ele><time>2015-05-01T12:08:57.0000000+00:00</time></trkpt><trkpt lat="34.9347562" lon="33.4131508"><ele>294.7</ele><time>2015-05-01T12:08:58.0000000+00:00</time></trkpt><trkpt lat="34.9348116" lon="33.4131528"><ele>295.4</ele><time>2015-05-01T12:08:59.0000000+00:00</time></trkpt><trkpt lat="34.9348818" lon="33.4131305"><ele>295.9</ele><time>2015-05-01T12:09:01.0000000+00:00</time></trkpt><trkpt lat="34.9349543" lon="33.4131145"><ele>296.7</ele><time>2015-05-01T12:09:03.0000000+00:00</time></trkpt><trkpt lat="34.9350105" lon="33.41309"><ele>297.7</ele><time>2015-05-01T12:09:05.0000000+00:00</time></trkpt><trkpt lat="34.9350585" lon="33.413072"><ele>298.2</ele><time>2015-05-01T12:09:07.0000000+00:00</time></trkpt><trkpt lat="34.9351062" lon="33.4130454"><ele>294.1</ele><time>2015-05-01T12:09:32.0000000+00:00</time></trkpt><trkpt lat="34.9351565" lon="33.4130352"><ele>294.3</ele><time>2015-05-01T12:09:34.0000000+00:00</time></trkpt><trkpt lat="34.9352167" lon="33.4130168"><ele>295.1</ele><time>2015-05-01T12:09:36.0000000+00:00</time></trkpt><trkpt lat="34.9352815" lon="33.4130017"><ele>295.0</ele><time>2015-05-01T12:09:38.0000000+00:00</time></trkpt><trkpt lat="34.9353488" lon="33.4129885"><ele>295.0</ele><time>2015-05-01T12:09:40.0000000+00:00</time></trkpt><trkpt lat="34.9354168" lon="33.4129736"><ele>295.3</ele><time>2015-05-01T12:09:42.0000000+00:00</time></trkpt><trkpt lat="34.9354881" lon="33.412959"><ele>294.6</ele><time>2015-05-01T12:09:44.0000000+00:00</time></trkpt><trkpt lat="34.9355619" lon="33.4129436"><ele>294.2</ele><time>2015-05-01T12:09:46.0000000+00:00</time></trkpt><trkpt lat="34.935639" lon="33.4129252"><ele>292.8</ele><time>2015-05-01T12:09:48.0000000+00:00</time></trkpt><trkpt lat="34.9357173" lon="33.4129039"><ele>291.7</ele><time>2015-05-01T12:09:50.0000000+00:00</time></trkpt><trkpt lat="34.9357988" lon="33.4128835"><ele>291.2</ele><time>2015-05-01T12:09:52.0000000+00:00</time></trkpt><trkpt lat="34.9358823" lon="33.4128645"><ele>291.1</ele><time>2015-05-01T12:09:54.0000000+00:00</time></trkpt><trkpt lat="34.9359689" lon="33.412849"><ele>291.5</ele><time>2015-05-01T12:09:55.0000000+00:00</time></trkpt><trkpt lat="34.9360234" lon="33.41283"><ele>291.8</ele><time>2015-05-01T12:09:56.0000000+00:00</time></trkpt><trkpt lat="34.9360803" lon="33.4128146"><ele>291.9</ele><time>2015-05-01T12:09:57.0000000+00:00</time></trkpt><trkpt lat="34.9361259" lon="33.4128007"><ele>293.0</ele><time>2015-05-01T12:09:58.0000000+00:00</time></trkpt><trkpt lat="34.9362133" lon="33.4127819"><ele>294.3</ele><time>2015-05-01T12:10:00.0000000+00:00</time></trkpt><trkpt lat="34.9362577" lon="33.4127719"><ele>294.6</ele><time>2015-05-01T12:10:01.0000000+00:00</time></trkpt><trkpt lat="34.9363019" lon="33.41276"><ele>295.3</ele><time>2015-05-01T12:10:02.0000000+00:00</time></trkpt><trkpt lat="34.9363476" lon="33.4127515"><ele>295.7</ele><time>2015-05-01T12:10:03.0000000+00:00</time></trkpt><trkpt lat="34.9364101" lon="33.4127505"><ele>295.8</ele><time>2015-05-01T12:10:04.0000000+00:00</time></trkpt><trkpt lat="34.9364588" lon="33.4127365"><ele>294.9</ele><time>2015-05-01T12:10:05.0000000+00:00</time></trkpt><trkpt lat="34.9365061" lon="33.4127252"><ele>294.0</ele><time>2015-05-01T12:10:06.0000000+00:00</time></trkpt><trkpt lat="34.9365979" lon="33.4127047"><ele>294.8</ele><time>2015-05-01T12:10:08.0000000+00:00</time></trkpt><trkpt lat="34.9366784" lon="33.4126904"><ele>295.0</ele><time>2015-05-01T12:10:10.0000000+00:00</time></trkpt><trkpt lat="34.9367349" lon="33.4126834"><ele>295.5</ele><time>2015-05-01T12:10:11.0000000+00:00</time></trkpt><trkpt lat="34.9367852" lon="33.412675"><ele>295.3</ele><time>2015-05-01T12:10:12.0000000+00:00</time></trkpt><trkpt lat="34.9368338" lon="33.4126567"><ele>295.1</ele><time>2015-05-01T12:10:13.0000000+00:00</time></trkpt><trkpt lat="34.9369226" lon="33.4126313"><ele>293.6</ele><time>2015-05-01T12:10:15.0000000+00:00</time></trkpt><trkpt lat="34.9370031" lon="33.4126062"><ele>292.9</ele><time>2015-05-01T12:10:17.0000000+00:00</time></trkpt><trkpt lat="34.9370872" lon="33.4125918"><ele>292.7</ele><time>2015-05-01T12:10:19.0000000+00:00</time></trkpt><trkpt lat="34.9371601" lon="33.4125769"><ele>292.7</ele><time>2015-05-01T12:10:21.0000000+00:00</time></trkpt><trkpt lat="34.9372333" lon="33.4125586"><ele>292.4</ele><time>2015-05-01T12:10:23.0000000+00:00</time></trkpt><trkpt lat="34.9372994" lon="33.4125502"><ele>293.6</ele><time>2015-05-01T12:10:25.0000000+00:00</time></trkpt><trkpt lat="34.9373649" lon="33.4125419"><ele>293.7</ele><time>2015-05-01T12:10:27.0000000+00:00</time></trkpt><trkpt lat="34.9374336" lon="33.412535"><ele>293.2</ele><time>2015-05-01T12:10:29.0000000+00:00</time></trkpt><trkpt lat="34.9375048" lon="33.4125332"><ele>293.1</ele><time>2015-05-01T12:10:31.0000000+00:00</time></trkpt><trkpt lat="34.937581" lon="33.4125356"><ele>292.3</ele><time>2015-05-01T12:10:33.0000000+00:00</time></trkpt><trkpt lat="34.9376616" lon="33.4125373"><ele>292.1</ele><time>2015-05-01T12:10:35.0000000+00:00</time></trkpt><trkpt lat="34.9377277" lon="33.4125356"><ele>291.6</ele><time>2015-05-01T12:10:36.0000000+00:00</time></trkpt><trkpt lat="34.9378134" lon="33.412533"><ele>291.7</ele><time>2015-05-01T12:10:38.0000000+00:00</time></trkpt><trkpt lat="34.9378589" lon="33.4125284"><ele>291.8</ele><time>2015-05-01T12:10:39.0000000+00:00</time></trkpt><trkpt lat="34.9379086" lon="33.4125219"><ele>291.4</ele><time>2015-05-01T12:10:40.0000000+00:00</time></trkpt><trkpt lat="34.9379541" lon="33.4125123"><ele>292.2</ele><time>2015-05-01T12:10:41.0000000+00:00</time></trkpt><trkpt lat="34.9380383" lon="33.4125245"><ele>292.1</ele><time>2015-05-01T12:10:43.0000000+00:00</time></trkpt><trkpt lat="34.9380881" lon="33.412528"><ele>292.5</ele><time>2015-05-01T12:10:44.0000000+00:00</time></trkpt><trkpt lat="34.9381824" lon="33.4125307"><ele>292.4</ele><time>2015-05-01T12:10:46.0000000+00:00</time></trkpt><trkpt lat="34.9382281" lon="33.4125253"><ele>292.2</ele><time>2015-05-01T12:10:47.0000000+00:00</time></trkpt><trkpt lat="34.9382754" lon="33.4125195"><ele>291.6</ele><time>2015-05-01T12:10:48.0000000+00:00</time></trkpt><trkpt lat="34.9383201" lon="33.412527"><ele>291.3</ele><time>2015-05-01T12:10:49.0000000+00:00</time></trkpt><trkpt lat="34.9383731" lon="33.4125331"><ele>290.7</ele><time>2015-05-01T12:10:50.0000000+00:00</time></trkpt><trkpt lat="34.9384229" lon="33.4125374"><ele>290.3</ele><time>2015-05-01T12:10:51.0000000+00:00</time></trkpt><trkpt lat="34.9384798" lon="33.412532"><ele>290.2</ele><time>2015-05-01T12:10:52.0000000+00:00</time></trkpt><trkpt lat="34.9385272" lon="33.4125334"><ele>290.1</ele><time>2015-05-01T12:10:53.0000000+00:00</time></trkpt><trkpt lat="34.9385748" lon="33.4125384"><ele>290.6</ele><time>2015-05-01T12:10:54.0000000+00:00</time></trkpt><trkpt lat="34.9386705" lon="33.4125471"><ele>290.9</ele><time>2015-05-01T12:10:56.0000000+00:00</time></trkpt><trkpt lat="34.9387632" lon="33.4125413"><ele>287.0</ele><time>2015-05-01T12:10:58.0000000+00:00</time></trkpt><trkpt lat="34.9388106" lon="33.4125471"><ele>286.0</ele><time>2015-05-01T12:10:59.0000000+00:00</time></trkpt><trkpt lat="34.9388636" lon="33.4125474"><ele>285.0</ele><time>2015-05-01T12:11:00.0000000+00:00</time></trkpt><trkpt lat="34.9389109" lon="33.4125518"><ele>284.5</ele><time>2015-05-01T12:11:01.0000000+00:00</time></trkpt><trkpt lat="34.9389706" lon="33.4125628"><ele>284.3</ele><time>2015-05-01T12:11:02.0000000+00:00</time></trkpt><trkpt lat="34.939019" lon="33.4125592"><ele>284.1</ele><time>2015-05-01T12:11:03.0000000+00:00</time></trkpt><trkpt lat="34.939076" lon="33.4125628"><ele>283.6</ele><time>2015-05-01T12:11:04.0000000+00:00</time></trkpt><trkpt lat="34.9391301" lon="33.4125615"><ele>282.8</ele><time>2015-05-01T12:11:05.0000000+00:00</time></trkpt><trkpt lat="34.9391879" lon="33.4125664"><ele>281.9</ele><time>2015-05-01T12:11:06.0000000+00:00</time></trkpt><trkpt lat="34.9392421" lon="33.4125606"><ele>283.5</ele><time>2015-05-01T12:11:07.0000000+00:00</time></trkpt><trkpt lat="34.9392921" lon="33.4125576"><ele>284.7</ele><time>2015-05-01T12:11:08.0000000+00:00</time></trkpt><trkpt lat="34.9393417" lon="33.4125511"><ele>284.9</ele><time>2015-05-01T12:11:09.0000000+00:00</time></trkpt><trkpt lat="34.9394012" lon="33.4125583"><ele>285.0</ele><time>2015-05-01T12:11:10.0000000+00:00</time></trkpt><trkpt lat="34.9395001" lon="33.4125683"><ele>285.8</ele><time>2015-05-01T12:11:12.0000000+00:00</time></trkpt><trkpt lat="34.9395538" lon="33.4125701"><ele>285.4</ele><time>2015-05-01T12:11:13.0000000+00:00</time></trkpt><trkpt lat="34.939623" lon="33.4125825"><ele>285.7</ele><time>2015-05-01T12:11:14.0000000+00:00</time></trkpt><trkpt lat="34.9396747" lon="33.4125834"><ele>286.4</ele><time>2015-05-01T12:11:15.0000000+00:00</time></trkpt><trkpt lat="34.9397396" lon="33.4125799"><ele>286.7</ele><time>2015-05-01T12:11:16.0000000+00:00</time></trkpt><trkpt lat="34.9397966" lon="33.4125836"><ele>286.4</ele><time>2015-05-01T12:11:17.0000000+00:00</time></trkpt><trkpt lat="34.9398526" lon="33.4125892"><ele>286.2</ele><time>2015-05-01T12:11:18.0000000+00:00</time></trkpt><trkpt lat="34.9399163" lon="33.4125917"><ele>286.6</ele><time>2015-05-01T12:11:19.0000000+00:00</time></trkpt><trkpt lat="34.939981" lon="33.4125943"><ele>286.3</ele><time>2015-05-01T12:11:20.0000000+00:00</time></trkpt><trkpt lat="34.9400421" lon="33.4126044"><ele>286.2</ele><time>2015-05-01T12:11:21.0000000+00:00</time></trkpt><trkpt lat="34.9401038" lon="33.4126215"><ele>286.1</ele><time>2015-05-01T12:11:22.0000000+00:00</time></trkpt><trkpt lat="34.9401608" lon="33.4126341"><ele>285.6</ele><time>2015-05-01T12:11:23.0000000+00:00</time></trkpt><trkpt lat="34.94022" lon="33.4126422"><ele>285.3</ele><time>2015-05-01T12:11:24.0000000+00:00</time></trkpt><trkpt lat="34.9402724" lon="33.4126566"><ele>285.2</ele><time>2015-05-01T12:11:25.0000000+00:00</time></trkpt><trkpt lat="34.9403267" lon="33.4126739"><ele>284.6</ele><time>2015-05-01T12:11:26.0000000+00:00</time></trkpt><trkpt lat="34.9403762" lon="33.412693"><ele>284.8</ele><time>2015-05-01T12:11:27.0000000+00:00</time></trkpt><trkpt lat="34.9404374" lon="33.4127036"><ele>284.4</ele><time>2015-05-01T12:11:28.0000000+00:00</time></trkpt><trkpt lat="34.9405038" lon="33.4127231"><ele>284.2</ele><time>2015-05-01T12:11:29.0000000+00:00</time></trkpt><trkpt lat="34.9405534" lon="33.4127478"><ele>284.6</ele><time>2015-05-01T12:11:30.0000000+00:00</time></trkpt><trkpt lat="34.9406161" lon="33.4127613"><ele>284.8</ele><time>2015-05-01T12:11:31.0000000+00:00</time></trkpt><trkpt lat="34.9406655" lon="33.4127853"><ele>284.4</ele><time>2015-05-01T12:11:32.0000000+00:00</time></trkpt><trkpt lat="34.9407208" lon="33.4128122"><ele>283.7</ele><time>2015-05-01T12:11:33.0000000+00:00</time></trkpt><trkpt lat="34.9407751" lon="33.412831"><ele>283.4</ele><time>2015-05-01T12:11:34.0000000+00:00</time></trkpt><trkpt lat="34.940836" lon="33.4128517"><ele>283.7</ele><time>2015-05-01T12:11:35.0000000+00:00</time></trkpt><trkpt lat="34.9408995" lon="33.4128698"><ele>284.4</ele><time>2015-05-01T12:11:36.0000000+00:00</time></trkpt><trkpt lat="34.9409431" lon="33.4129006"><ele>286.7</ele><time>2015-05-01T12:11:37.0000000+00:00</time></trkpt><trkpt lat="34.9409965" lon="33.4129297"><ele>287.9</ele><time>2015-05-01T12:11:38.0000000+00:00</time></trkpt><trkpt lat="34.941048" lon="33.4129608"><ele>287.4</ele><time>2015-05-01T12:11:39.0000000+00:00</time></trkpt><trkpt lat="34.9411048" lon="33.4129935"><ele>286.7</ele><time>2015-05-01T12:11:40.0000000+00:00</time></trkpt><trkpt lat="34.941156" lon="33.4130138"><ele>286.4</ele><time>2015-05-01T12:11:41.0000000+00:00</time></trkpt><trkpt lat="34.9412088" lon="33.413046"><ele>286.2</ele><time>2015-05-01T12:11:42.0000000+00:00</time></trkpt><trkpt lat="34.9412643" lon="33.4130696"><ele>285.1</ele><time>2015-05-01T12:11:43.0000000+00:00</time></trkpt><trkpt lat="34.9413288" lon="33.4131032"><ele>284.1</ele><time>2015-05-01T12:11:44.0000000+00:00</time></trkpt><trkpt lat="34.9413883" lon="33.4131436"><ele>283.0</ele><time>2015-05-01T12:11:45.0000000+00:00</time></trkpt><trkpt lat="34.9414557" lon="33.4131709"><ele>283.0</ele><time>2015-05-01T12:11:46.0000000+00:00</time></trkpt><trkpt lat="34.9415232" lon="33.4131991"><ele>282.5</ele><time>2015-05-01T12:11:47.0000000+00:00</time></trkpt><trkpt lat="34.9415892" lon="33.4132364"><ele>281.8</ele><time>2015-05-01T12:11:48.0000000+00:00</time></trkpt><trkpt lat="34.9416462" lon="33.4132709"><ele>281.4</ele><time>2015-05-01T12:11:49.0000000+00:00</time></trkpt><trkpt lat="34.9416978" lon="33.4133016"><ele>280.7</ele><time>2015-05-01T12:11:50.0000000+00:00</time></trkpt><trkpt lat="34.9417575" lon="33.4133412"><ele>280.4</ele><time>2015-05-01T12:11:51.0000000+00:00</time></trkpt><trkpt lat="34.9418184" lon="33.4133734"><ele>280.2</ele><time>2015-05-01T12:11:52.0000000+00:00</time></trkpt><trkpt lat="34.9418737" lon="33.4133993"><ele>279.6</ele><time>2015-05-01T12:11:53.0000000+00:00</time></trkpt><trkpt lat="34.9419214" lon="33.4134212"><ele>279.3</ele><time>2015-05-01T12:11:54.0000000+00:00</time></trkpt><trkpt lat="34.9419776" lon="33.4134402"><ele>278.7</ele><time>2015-05-01T12:11:55.0000000+00:00</time></trkpt><trkpt lat="34.9420353" lon="33.4134657"><ele>277.8</ele><time>2015-05-01T12:11:56.0000000+00:00</time></trkpt><trkpt lat="34.9420932" lon="33.4134934"><ele>277.9</ele><time>2015-05-01T12:11:57.0000000+00:00</time></trkpt><trkpt lat="34.9421519" lon="33.4135169"><ele>278.0</ele><time>2015-05-01T12:11:58.0000000+00:00</time></trkpt><trkpt lat="34.9422062" lon="33.4135416"><ele>277.5</ele><time>2015-05-01T12:11:59.0000000+00:00</time></trkpt><trkpt lat="34.9422656" lon="33.4135808"><ele>277.3</ele><time>2015-05-01T12:12:00.0000000+00:00</time></trkpt><trkpt lat="34.9423179" lon="33.4136116"><ele>277.6</ele><time>2015-05-01T12:12:01.0000000+00:00</time></trkpt><trkpt lat="34.9423642" lon="33.4136444"><ele>277.8</ele><time>2015-05-01T12:12:02.0000000+00:00</time></trkpt><trkpt lat="34.9424131" lon="33.4136774"><ele>277.4</ele><time>2015-05-01T12:12:03.0000000+00:00</time></trkpt><trkpt lat="34.9424664" lon="33.4137094"><ele>277.7</ele><time>2015-05-01T12:12:04.0000000+00:00</time></trkpt><trkpt lat="34.9425078" lon="33.4137431"><ele>278.4</ele><time>2015-05-01T12:12:05.0000000+00:00</time></trkpt><trkpt lat="34.9425547" lon="33.4137643"><ele>278.7</ele><time>2015-05-01T12:12:06.0000000+00:00</time></trkpt><trkpt lat="34.9425978" lon="33.413783"><ele>278.9</ele><time>2015-05-01T12:12:07.0000000+00:00</time></trkpt><trkpt lat="34.9426464" lon="33.4138029"><ele>279.4</ele><time>2015-05-01T12:12:08.0000000+00:00</time></trkpt><trkpt lat="34.9426907" lon="33.4138261"><ele>279.7</ele><time>2015-05-01T12:12:09.0000000+00:00</time></trkpt><trkpt lat="34.9427592" lon="33.4138648"><ele>280.4</ele><time>2015-05-01T12:12:11.0000000+00:00</time></trkpt><trkpt lat="34.9428129" lon="33.4138992"><ele>281.4</ele><time>2015-05-01T12:12:13.0000000+00:00</time></trkpt><trkpt lat="34.9428565" lon="33.4139186"><ele>286.8</ele><time>2015-05-01T12:12:19.0000000+00:00</time></trkpt><trkpt lat="34.9428366" lon="33.4139859"><ele>283.9</ele><time>2015-05-01T12:12:44.0000000+00:00</time></trkpt><trkpt lat="34.9427782" lon="33.413977"><ele>282.8</ele><time>2015-05-01T12:12:47.0000000+00:00</time></trkpt><trkpt lat="34.9427185" lon="33.4139483"><ele>282.1</ele><time>2015-05-01T12:12:50.0000000+00:00</time></trkpt><trkpt lat="34.9426746" lon="33.4139337"><ele>282.8</ele><time>2015-05-01T12:12:52.0000000+00:00</time></trkpt><trkpt lat="34.9426336" lon="33.4139107"><ele>284.2</ele><time>2015-05-01T12:12:54.0000000+00:00</time></trkpt><trkpt lat="34.9425928" lon="33.4138841"><ele>285.6</ele><time>2015-05-01T12:12:56.0000000+00:00</time></trkpt><trkpt lat="34.9425423" lon="33.4138615"><ele>285.8</ele><time>2015-05-01T12:12:59.0000000+00:00</time></trkpt><trkpt lat="34.942519" lon="33.4139199"><ele>285.7</ele><time>2015-05-01T12:13:10.0000000+00:00</time></trkpt><trkpt lat="34.9424809" lon="33.4139772"><ele>285.5</ele><time>2015-05-01T12:13:13.0000000+00:00</time></trkpt><trkpt lat="34.9424426" lon="33.4140371"><ele>284.8</ele><time>2015-05-01T12:13:16.0000000+00:00</time></trkpt><trkpt lat="34.9424014" lon="33.414091"><ele>284.0</ele><time>2015-05-01T12:13:19.0000000+00:00</time></trkpt><trkpt lat="34.9423593" lon="33.4141524"><ele>284.1</ele><time>2015-05-01T12:13:22.0000000+00:00</time></trkpt><trkpt lat="34.9423304" lon="33.4141957"><ele>284.8</ele><time>2015-05-01T12:13:24.0000000+00:00</time></trkpt><trkpt lat="34.9423032" lon="33.4142452"><ele>285.0</ele><time>2015-05-01T12:13:26.0000000+00:00</time></trkpt><trkpt lat="34.9422649" lon="33.4143132"><ele>283.8</ele><time>2015-05-01T12:13:28.0000000+00:00</time></trkpt><trkpt lat="34.9422159" lon="33.4143882"><ele>282.5</ele><time>2015-05-01T12:13:30.0000000+00:00</time></trkpt><trkpt lat="34.9421768" lon="33.41445"><ele>283.1</ele><time>2015-05-01T12:13:32.0000000+00:00</time></trkpt><trkpt lat="34.942135" lon="33.4144924"><ele>283.0</ele><time>2015-05-01T12:13:36.0000000+00:00</time></trkpt><trkpt lat="34.9421353" lon="33.4145488"><ele>286.3</ele><time>2015-05-01T12:13:40.0000000+00:00</time></trkpt><trkpt lat="34.9421729" lon="33.4145176"><ele>288.5</ele><time>2015-05-01T12:13:44.0000000+00:00</time></trkpt><trkpt lat="34.9421883" lon="33.4144641"><ele>287.9</ele><time>2015-05-01T12:13:48.0000000+00:00</time></trkpt><trkpt lat="34.9422055" lon="33.4144102"><ele>285.5</ele><time>2015-05-01T12:13:52.0000000+00:00</time></trkpt><trkpt lat="34.9422225" lon="33.414354"><ele>284.7</ele><time>2015-05-01T12:13:58.0000000+00:00</time></trkpt><trkpt lat="34.9422364" lon="33.414297"><ele>281.1</ele><time>2015-05-01T12:14:03.0000000+00:00</time></trkpt><trkpt lat="34.9422629" lon="33.4142431"><ele>278.9</ele><time>2015-05-01T12:14:08.0000000+00:00</time></trkpt><trkpt lat="34.9423162" lon="33.4142138"><ele>280.7</ele><time>2015-05-01T12:14:14.0000000+00:00</time></trkpt><trkpt lat="34.9423518" lon="33.4141724"><ele>280.4</ele><time>2015-05-01T12:14:16.0000000+00:00</time></trkpt><trkpt lat="34.9423902" lon="33.4141089"><ele>280.4</ele><time>2015-05-01T12:14:18.0000000+00:00</time></trkpt><trkpt lat="34.9424314" lon="33.4140415"><ele>279.6</ele><time>2015-05-01T12:14:20.0000000+00:00</time></trkpt><trkpt lat="34.9424701" lon="33.4139807"><ele>279.9</ele><time>2015-05-01T12:14:22.0000000+00:00</time></trkpt><trkpt lat="34.9425129" lon="33.4139318"><ele>280.0</ele><time>2015-05-01T12:14:24.0000000+00:00</time></trkpt><trkpt lat="34.9425636" lon="33.4139118"><ele>280.5</ele><time>2015-05-01T12:14:26.0000000+00:00</time></trkpt><trkpt lat="34.9426163" lon="33.413912"><ele>280.9</ele><time>2015-05-01T12:14:28.0000000+00:00</time></trkpt><trkpt lat="34.9426659" lon="33.4139138"><ele>280.5</ele><time>2015-05-01T12:14:30.0000000+00:00</time></trkpt><trkpt lat="34.9427165" lon="33.413919"><ele>279.4</ele><time>2015-05-01T12:14:32.0000000+00:00</time></trkpt><trkpt lat="34.9427644" lon="33.4139428"><ele>279.9</ele><time>2015-05-01T12:14:34.0000000+00:00</time></trkpt><trkpt lat="34.9428059" lon="33.4139816"><ele>280.0</ele><time>2015-05-01T12:14:36.0000000+00:00</time></trkpt><trkpt lat="34.9428435" lon="33.4140136"><ele>280.8</ele><time>2015-05-01T12:14:38.0000000+00:00</time></trkpt><trkpt lat="34.9428964" lon="33.4140236"><ele>280.7</ele><time>2015-05-01T12:14:41.0000000+00:00</time></trkpt><trkpt lat="34.9429421" lon="33.4140012"><ele>290.2</ele><time>2015-05-01T12:14:50.0000000+00:00</time></trkpt><trkpt lat="34.9429941" lon="33.4139994"><ele>289.8</ele><time>2015-05-01T12:14:52.0000000+00:00</time></trkpt><trkpt lat="34.9430635" lon="33.4140158"><ele>290.5</ele><time>2015-05-01T12:14:54.0000000+00:00</time></trkpt><trkpt lat="34.9431379" lon="33.4140466"><ele>288.1</ele><time>2015-05-01T12:14:56.0000000+00:00</time></trkpt><trkpt lat="34.9432168" lon="33.4140831"><ele>286.0</ele><time>2015-05-01T12:14:58.0000000+00:00</time></trkpt><trkpt lat="34.9433272" lon="33.4141447"><ele>284.8</ele><time>2015-05-01T12:15:00.0000000+00:00</time></trkpt><trkpt lat="34.9434158" lon="33.4141735"><ele>282.7</ele><time>2015-05-01T12:15:02.0000000+00:00</time></trkpt><trkpt lat="34.943483" lon="33.4141998"><ele>281.2</ele><time>2015-05-01T12:15:04.0000000+00:00</time></trkpt><trkpt lat="34.9435521" lon="33.4142335"><ele>278.8</ele><time>2015-05-01T12:15:06.0000000+00:00</time></trkpt><trkpt lat="34.9436115" lon="33.4142748"><ele>277.5</ele><time>2015-05-01T12:15:08.0000000+00:00</time></trkpt><trkpt lat="34.9436641" lon="33.4142966"><ele>275.9</ele><time>2015-05-01T12:15:10.0000000+00:00</time></trkpt><trkpt lat="34.9437135" lon="33.4143203"><ele>275.2</ele><time>2015-05-01T12:15:12.0000000+00:00</time></trkpt><trkpt lat="34.9437612" lon="33.4143433"><ele>275.1</ele><time>2015-05-01T12:15:14.0000000+00:00</time></trkpt><trkpt lat="34.9438127" lon="33.4143673"><ele>275.5</ele><time>2015-05-01T12:15:16.0000000+00:00</time></trkpt><trkpt lat="34.9438687" lon="33.4143936"><ele>275.9</ele><time>2015-05-01T12:15:18.0000000+00:00</time></trkpt><trkpt lat="34.9439313" lon="33.4144234"><ele>279.0</ele><time>2015-05-01T12:15:20.0000000+00:00</time></trkpt><trkpt lat="34.9439975" lon="33.4144613"><ele>281.3</ele><time>2015-05-01T12:15:22.0000000+00:00</time></trkpt><trkpt lat="34.9440752" lon="33.414503"><ele>282.3</ele><time>2015-05-01T12:15:24.0000000+00:00</time></trkpt><trkpt lat="34.9441544" lon="33.4145358"><ele>282.3</ele><time>2015-05-01T12:15:26.0000000+00:00</time></trkpt><trkpt lat="34.944235" lon="33.4145726"><ele>282.1</ele><time>2015-05-01T12:15:28.0000000+00:00</time></trkpt><trkpt lat="34.9443168" lon="33.4146058"><ele>281.3</ele><time>2015-05-01T12:15:30.0000000+00:00</time></trkpt><trkpt lat="34.94436" lon="33.4146238"><ele>281.7</ele><time>2015-05-01T12:15:31.0000000+00:00</time></trkpt><trkpt lat="34.9444027" lon="33.4146428"><ele>281.8</ele><time>2015-05-01T12:15:32.0000000+00:00</time></trkpt><trkpt lat="34.9444845" lon="33.4146793"><ele>283.2</ele><time>2015-05-01T12:15:34.0000000+00:00</time></trkpt><trkpt lat="34.9445619" lon="33.414713"><ele>282.6</ele><time>2015-05-01T12:15:36.0000000+00:00</time></trkpt><trkpt lat="34.944633" lon="33.4147449"><ele>280.9</ele><time>2015-05-01T12:15:38.0000000+00:00</time></trkpt><trkpt lat="34.9447017" lon="33.4147768"><ele>280.7</ele><time>2015-05-01T12:15:40.0000000+00:00</time></trkpt><trkpt lat="34.9447661" lon="33.4148126"><ele>281.7</ele><time>2015-05-01T12:15:42.0000000+00:00</time></trkpt><trkpt lat="34.9448274" lon="33.4148443"><ele>280.7</ele><time>2015-05-01T12:15:44.0000000+00:00</time></trkpt><trkpt lat="34.9448905" lon="33.4148669"><ele>280.9</ele><time>2015-05-01T12:15:46.0000000+00:00</time></trkpt><trkpt lat="34.9449603" lon="33.4148901"><ele>281.8</ele><time>2015-05-01T12:15:48.0000000+00:00</time></trkpt><trkpt lat="34.945032" lon="33.4149172"><ele>282.0</ele><time>2015-05-01T12:15:50.0000000+00:00</time></trkpt><trkpt lat="34.9451053" lon="33.4149496"><ele>282.0</ele><time>2015-05-01T12:15:52.0000000+00:00</time></trkpt><trkpt lat="34.945155" lon="33.4149733"><ele>282.5</ele><time>2015-05-01T12:15:53.0000000+00:00</time></trkpt><trkpt lat="34.9452027" lon="33.4150003"><ele>283.3</ele><time>2015-05-01T12:15:54.0000000+00:00</time></trkpt><trkpt lat="34.9452526" lon="33.4150245"><ele>283.1</ele><time>2015-05-01T12:15:55.0000000+00:00</time></trkpt><trkpt lat="34.945302" lon="33.4150465"><ele>283.1</ele><time>2015-05-01T12:15:56.0000000+00:00</time></trkpt><trkpt lat="34.9453494" lon="33.4150722"><ele>283.1</ele><time>2015-05-01T12:15:57.0000000+00:00</time></trkpt><trkpt lat="34.9454357" lon="33.41512"><ele>282.8</ele><time>2015-05-01T12:15:59.0000000+00:00</time></trkpt><trkpt lat="34.9454766" lon="33.415151"><ele>282.9</ele><time>2015-05-01T12:16:00.0000000+00:00</time></trkpt><trkpt lat="34.9455178" lon="33.4151751"><ele>283.0</ele><time>2015-05-01T12:16:01.0000000+00:00</time></trkpt><trkpt lat="34.9455676" lon="33.4152051"><ele>282.5</ele><time>2015-05-01T12:16:02.0000000+00:00</time></trkpt><trkpt lat="34.9456168" lon="33.415233"><ele>282.3</ele><time>2015-05-01T12:16:03.0000000+00:00</time></trkpt><trkpt lat="34.9456558" lon="33.4152632"><ele>282.1</ele><time>2015-05-01T12:16:04.0000000+00:00</time></trkpt><trkpt lat="34.9457005" lon="33.4152925"><ele>281.6</ele><time>2015-05-01T12:16:05.0000000+00:00</time></trkpt><trkpt lat="34.945747" lon="33.4153197"><ele>280.8</ele><time>2015-05-01T12:16:06.0000000+00:00</time></trkpt><trkpt lat="34.945787" lon="33.4153459"><ele>280.4</ele><time>2015-05-01T12:16:07.0000000+00:00</time></trkpt><trkpt lat="34.945832" lon="33.4153701"><ele>279.7</ele><time>2015-05-01T12:16:08.0000000+00:00</time></trkpt><trkpt lat="34.9459103" lon="33.4154264"><ele>280.2</ele><time>2015-05-01T12:16:10.0000000+00:00</time></trkpt><trkpt lat="34.9459874" lon="33.4154833"><ele>281.3</ele><time>2015-05-01T12:16:12.0000000+00:00</time></trkpt><trkpt lat="34.9460787" lon="33.4155333"><ele>282.8</ele><time>2015-05-01T12:16:14.0000000+00:00</time></trkpt><trkpt lat="34.9461595" lon="33.4155922"><ele>282.5</ele><time>2015-05-01T12:16:16.0000000+00:00</time></trkpt><trkpt lat="34.9462076" lon="33.4156244"><ele>282.2</ele><time>2015-05-01T12:16:17.0000000+00:00</time></trkpt><trkpt lat="34.9462891" lon="33.4156889"><ele>283.8</ele><time>2015-05-01T12:16:19.0000000+00:00</time></trkpt><trkpt lat="34.946336" lon="33.4157121"><ele>283.9</ele><time>2015-05-01T12:16:20.0000000+00:00</time></trkpt><trkpt lat="34.9464145" lon="33.4157744"><ele>283.7</ele><time>2015-05-01T12:16:22.0000000+00:00</time></trkpt><trkpt lat="34.9464507" lon="33.4158096"><ele>283.4</ele><time>2015-05-01T12:16:23.0000000+00:00</time></trkpt><trkpt lat="34.9464882" lon="33.4158434"><ele>282.7</ele><time>2015-05-01T12:16:24.0000000+00:00</time></trkpt><trkpt lat="34.9465626" lon="33.415909"><ele>283.2</ele><time>2015-05-01T12:16:26.0000000+00:00</time></trkpt><trkpt lat="34.9466152" lon="33.4159289"><ele>283.1</ele><time>2015-05-01T12:16:27.0000000+00:00</time></trkpt><trkpt lat="34.9466695" lon="33.4159473"><ele>283.6</ele><time>2015-05-01T12:16:28.0000000+00:00</time></trkpt><trkpt lat="34.94673" lon="33.415999"><ele>281.2</ele><time>2015-05-01T12:16:30.0000000+00:00</time></trkpt><trkpt lat="34.9467886" lon="33.4160402"><ele>276.3</ele><time>2015-05-01T12:16:32.0000000+00:00</time></trkpt><trkpt lat="34.9468411" lon="33.4160856"><ele>272.1</ele><time>2015-05-01T12:16:34.0000000+00:00</time></trkpt><trkpt lat="34.9468816" lon="33.4161163"><ele>272.1</ele><time>2015-05-01T12:16:35.0000000+00:00</time></trkpt><trkpt lat="34.946949" lon="33.4161613"><ele>271.3</ele><time>2015-05-01T12:16:37.0000000+00:00</time></trkpt><trkpt lat="34.9470173" lon="33.4162139"><ele>271.8</ele><time>2015-05-01T12:16:39.0000000+00:00</time></trkpt><trkpt lat="34.9470906" lon="33.4162697"><ele>272.0</ele><time>2015-05-01T12:16:41.0000000+00:00</time></trkpt><trkpt lat="34.947163" lon="33.4163218"><ele>271.5</ele><time>2015-05-01T12:16:43.0000000+00:00</time></trkpt><trkpt lat="34.9472365" lon="33.4163766"><ele>271.1</ele><time>2015-05-01T12:16:45.0000000+00:00</time></trkpt><trkpt lat="34.9473096" lon="33.4164365"><ele>271.8</ele><time>2015-05-01T12:16:47.0000000+00:00</time></trkpt><trkpt lat="34.9473476" lon="33.4164672"><ele>271.4</ele><time>2015-05-01T12:16:48.0000000+00:00</time></trkpt><trkpt lat="34.94743" lon="33.4165235"><ele>271.1</ele><time>2015-05-01T12:16:50.0000000+00:00</time></trkpt><trkpt lat="34.9475047" lon="33.4165873"><ele>279.3</ele><time>2015-05-01T12:16:52.0000000+00:00</time></trkpt><trkpt lat="34.9475795" lon="33.4166433"><ele>281.8</ele><time>2015-05-01T12:16:54.0000000+00:00</time></trkpt><trkpt lat="34.9476186" lon="33.4166733"><ele>282.4</ele><time>2015-05-01T12:16:55.0000000+00:00</time></trkpt><trkpt lat="34.9476601" lon="33.4167006"><ele>283.2</ele><time>2015-05-01T12:16:56.0000000+00:00</time></trkpt><trkpt lat="34.9477282" lon="33.416747"><ele>282.6</ele><time>2015-05-01T12:16:58.0000000+00:00</time></trkpt><trkpt lat="34.9478012" lon="33.4168008"><ele>281.4</ele><time>2015-05-01T12:17:00.0000000+00:00</time></trkpt><trkpt lat="34.9478724" lon="33.4168593"><ele>280.4</ele><time>2015-05-01T12:17:02.0000000+00:00</time></trkpt><trkpt lat="34.9479459" lon="33.4169042"><ele>280.1</ele><time>2015-05-01T12:17:04.0000000+00:00</time></trkpt><trkpt lat="34.9480228" lon="33.416959"><ele>281.3</ele><time>2015-05-01T12:17:06.0000000+00:00</time></trkpt><trkpt lat="34.9480977" lon="33.4170129"><ele>281.1</ele><time>2015-05-01T12:17:08.0000000+00:00</time></trkpt><trkpt lat="34.9481682" lon="33.4170696"><ele>281.0</ele><time>2015-05-01T12:17:10.0000000+00:00</time></trkpt><trkpt lat="34.9482375" lon="33.4171231"><ele>282.3</ele><time>2015-05-01T12:17:12.0000000+00:00</time></trkpt><trkpt lat="34.9482997" lon="33.4171687"><ele>282.8</ele><time>2015-05-01T12:17:14.0000000+00:00</time></trkpt><trkpt lat="34.9483577" lon="33.4172116"><ele>282.5</ele><time>2015-05-01T12:17:16.0000000+00:00</time></trkpt><trkpt lat="34.9484166" lon="33.4172546"><ele>282.9</ele><time>2015-05-01T12:17:18.0000000+00:00</time></trkpt><trkpt lat="34.9484789" lon="33.4172964"><ele>282.5</ele><time>2015-05-01T12:17:20.0000000+00:00</time></trkpt><trkpt lat="34.9485471" lon="33.4173414"><ele>280.6</ele><time>2015-05-01T12:17:22.0000000+00:00</time></trkpt><trkpt lat="34.9486184" lon="33.4173911"><ele>278.9</ele><time>2015-05-01T12:17:24.0000000+00:00</time></trkpt><trkpt lat="34.9486666" lon="33.417424"><ele>278.5</ele><time>2015-05-01T12:17:25.0000000+00:00</time></trkpt><trkpt lat="34.9487029" lon="33.4174576"><ele>278.7</ele><time>2015-05-01T12:17:26.0000000+00:00</time></trkpt><trkpt lat="34.9487855" lon="33.4175114"><ele>279.0</ele><time>2015-05-01T12:17:28.0000000+00:00</time></trkpt><trkpt lat="34.9488477" lon="33.4175678"><ele>278.5</ele><time>2015-05-01T12:17:30.0000000+00:00</time></trkpt><trkpt lat="34.9489169" lon="33.4176141"><ele>278.1</ele><time>2015-05-01T12:17:32.0000000+00:00</time></trkpt><trkpt lat="34.9489765" lon="33.4176496"><ele>277.6</ele><time>2015-05-01T12:17:34.0000000+00:00</time></trkpt><trkpt lat="34.949032" lon="33.4176931"><ele>277.2</ele><time>2015-05-01T12:17:36.0000000+00:00</time></trkpt><trkpt lat="34.94909" lon="33.4177407"><ele>277.6</ele><time>2015-05-01T12:17:38.0000000+00:00</time></trkpt><trkpt lat="34.9491497" lon="33.4177823"><ele>277.4</ele><time>2015-05-01T12:17:40.0000000+00:00</time></trkpt><trkpt lat="34.9492054" lon="33.4178292"><ele>276.4</ele><time>2015-05-01T12:17:42.0000000+00:00</time></trkpt><trkpt lat="34.9492601" lon="33.4178845"><ele>276.1</ele><time>2015-05-01T12:17:44.0000000+00:00</time></trkpt><trkpt lat="34.949323" lon="33.4179366"><ele>276.0</ele><time>2015-05-01T12:17:46.0000000+00:00</time></trkpt><trkpt lat="34.9494257" lon="33.4179958"><ele>276.5</ele><time>2015-05-01T12:17:48.0000000+00:00</time></trkpt><trkpt lat="34.9494998" lon="33.4180427"><ele>277.6</ele><time>2015-05-01T12:17:50.0000000+00:00</time></trkpt><trkpt lat="34.9495416" lon="33.4180708"><ele>277.8</ele><time>2015-05-01T12:17:51.0000000+00:00</time></trkpt><trkpt lat="34.9496126" lon="33.4181136"><ele>278.7</ele><time>2015-05-01T12:17:53.0000000+00:00</time></trkpt><trkpt lat="34.949654" lon="33.4181363"><ele>278.9</ele><time>2015-05-01T12:17:54.0000000+00:00</time></trkpt><trkpt lat="34.9497245" lon="33.4181811"><ele>279.0</ele><time>2015-05-01T12:17:56.0000000+00:00</time></trkpt><trkpt lat="34.9497984" lon="33.4182181"><ele>278.5</ele><time>2015-05-01T12:17:58.0000000+00:00</time></trkpt><trkpt lat="34.949876" lon="33.4182449"><ele>278.1</ele><time>2015-05-01T12:18:00.0000000+00:00</time></trkpt><trkpt lat="34.9499579" lon="33.4182813"><ele>277.6</ele><time>2015-05-01T12:18:02.0000000+00:00</time></trkpt><trkpt lat="34.9500482" lon="33.4183236"><ele>277.2</ele><time>2015-05-01T12:18:04.0000000+00:00</time></trkpt><trkpt lat="34.9501344" lon="33.4183569"><ele>275.8</ele><time>2015-05-01T12:18:06.0000000+00:00</time></trkpt><trkpt lat="34.9501797" lon="33.4183654"><ele>275.4</ele><time>2015-05-01T12:18:07.0000000+00:00</time></trkpt><trkpt lat="34.9502236" lon="33.4183785"><ele>275.2</ele><time>2015-05-01T12:18:08.0000000+00:00</time></trkpt><trkpt lat="34.9502694" lon="33.4183944"><ele>275.1</ele><time>2015-05-01T12:18:09.0000000+00:00</time></trkpt><trkpt lat="34.9503185" lon="33.4184106"><ele>275.1</ele><time>2015-05-01T12:18:10.0000000+00:00</time></trkpt><trkpt lat="34.9503697" lon="33.4184215"><ele>274.5</ele><time>2015-05-01T12:18:11.0000000+00:00</time></trkpt><trkpt lat="34.9504209" lon="33.4184388"><ele>274.3</ele><time>2015-05-01T12:18:12.0000000+00:00</time></trkpt><trkpt lat="34.9504709" lon="33.4184544"><ele>274.2</ele><time>2015-05-01T12:18:13.0000000+00:00</time></trkpt><trkpt lat="34.9505233" lon="33.4184666"><ele>274.1</ele><time>2015-05-01T12:18:14.0000000+00:00</time></trkpt><trkpt lat="34.950585" lon="33.4184926"><ele>273.6</ele><time>2015-05-01T12:18:15.0000000+00:00</time></trkpt><trkpt lat="34.9506456" lon="33.4185106"><ele>273.3</ele><time>2015-05-01T12:18:16.0000000+00:00</time></trkpt><trkpt lat="34.9506988" lon="33.4185298"><ele>273.2</ele><time>2015-05-01T12:18:17.0000000+00:00</time></trkpt><trkpt lat="34.9507544" lon="33.4185469"><ele>273.1</ele><time>2015-05-01T12:18:18.0000000+00:00</time></trkpt><trkpt lat="34.9508055" lon="33.4185631"><ele>273.1</ele><time>2015-05-01T12:18:19.0000000+00:00</time></trkpt><trkpt lat="34.9508664" lon="33.418576"><ele>273.5</ele><time>2015-05-01T12:18:21.0000000+00:00</time></trkpt><trkpt lat="34.9508682" lon="33.4186334"><ele>272.3</ele><time>2015-05-01T12:18:42.0000000+00:00</time></trkpt><trkpt lat="34.9508049" lon="33.4186351"><ele>272.8</ele><time>2015-05-01T12:18:44.0000000+00:00</time></trkpt><trkpt lat="34.9507402" lon="33.4186556"><ele>272.2</ele><time>2015-05-01T12:18:46.0000000+00:00</time></trkpt><trkpt lat="34.9506733" lon="33.4187046"><ele>272.8</ele><time>2015-05-01T12:18:48.0000000+00:00</time></trkpt><trkpt lat="34.9506032" lon="33.4187513"><ele>272.2</ele><time>2015-05-01T12:18:50.0000000+00:00</time></trkpt><trkpt lat="34.9505226" lon="33.4187698"><ele>272.8</ele><time>2015-05-01T12:18:52.0000000+00:00</time></trkpt><trkpt lat="34.9504418" lon="33.4187824"><ele>274.0</ele><time>2015-05-01T12:18:54.0000000+00:00</time></trkpt><trkpt lat="34.950359" lon="33.4187994"><ele>275.3</ele><time>2015-05-01T12:18:56.0000000+00:00</time></trkpt><trkpt lat="34.9502804" lon="33.4188111"><ele>276.6</ele><time>2015-05-01T12:18:58.0000000+00:00</time></trkpt><trkpt lat="34.9502075" lon="33.4188165"><ele>276.9</ele><time>2015-05-01T12:19:00.0000000+00:00</time></trkpt><trkpt lat="34.9501397" lon="33.4188116"><ele>277.0</ele><time>2015-05-01T12:19:02.0000000+00:00</time></trkpt><trkpt lat="34.950077" lon="33.418805"><ele>276.3</ele><time>2015-05-01T12:19:04.0000000+00:00</time></trkpt><trkpt lat="34.9500183" lon="33.4187989"><ele>276.1</ele><time>2015-05-01T12:19:06.0000000+00:00</time></trkpt><trkpt lat="34.9499568" lon="33.4187844"><ele>276.8</ele><time>2015-05-01T12:19:08.0000000+00:00</time></trkpt><trkpt lat="34.9498971" lon="33.4187568"><ele>276.7</ele><time>2015-05-01T12:19:10.0000000+00:00</time></trkpt><trkpt lat="34.9498349" lon="33.4187208"><ele>277.4</ele><time>2015-05-01T12:19:12.0000000+00:00</time></trkpt><trkpt lat="34.9497685" lon="33.4186906"><ele>278.1</ele><time>2015-05-01T12:19:14.0000000+00:00</time></trkpt><trkpt lat="34.9496961" lon="33.4186944"><ele>277.8</ele><time>2015-05-01T12:19:16.0000000+00:00</time></trkpt><trkpt lat="34.9496285" lon="33.4187258"><ele>278.0</ele><time>2015-05-01T12:19:18.0000000+00:00</time></trkpt><trkpt lat="34.9495649" lon="33.4187651"><ele>278.0</ele><time>2015-05-01T12:19:20.0000000+00:00</time></trkpt><trkpt lat="34.9495026" lon="33.4188104"><ele>278.0</ele><time>2015-05-01T12:19:22.0000000+00:00</time></trkpt><trkpt lat="34.9494536" lon="33.4188705"><ele>277.5</ele><time>2015-05-01T12:19:24.0000000+00:00</time></trkpt><trkpt lat="34.9494168" lon="33.4189482"><ele>277.9</ele><time>2015-05-01T12:19:26.0000000+00:00</time></trkpt><trkpt lat="34.9493749" lon="33.419029"><ele>278.0</ele><time>2015-05-01T12:19:28.0000000+00:00</time></trkpt><trkpt lat="34.9493273" lon="33.4191054"><ele>277.3</ele><time>2015-05-01T12:19:30.0000000+00:00</time></trkpt><trkpt lat="34.9492726" lon="33.4191806"><ele>276.3</ele><time>2015-05-01T12:19:32.0000000+00:00</time></trkpt><trkpt lat="34.9492281" lon="33.4192358"><ele>276.7</ele><time>2015-05-01T12:19:33.0000000+00:00</time></trkpt><trkpt lat="34.9491942" lon="33.4192784"><ele>276.8</ele><time>2015-05-01T12:19:34.0000000+00:00</time></trkpt><trkpt lat="34.9491566" lon="33.4193102"><ele>276.9</ele><time>2015-05-01T12:19:35.0000000+00:00</time></trkpt><trkpt lat="34.9491238" lon="33.4193512"><ele>276.5</ele><time>2015-05-01T12:19:36.0000000+00:00</time></trkpt><trkpt lat="34.9490813" lon="33.4193943"><ele>275.7</ele><time>2015-05-01T12:19:37.0000000+00:00</time></trkpt><trkpt lat="34.9490424" lon="33.4194431"><ele>275.4</ele><time>2015-05-01T12:19:38.0000000+00:00</time></trkpt><trkpt lat="34.9490109" lon="33.4194983"><ele>275.2</ele><time>2015-05-01T12:19:39.0000000+00:00</time></trkpt><trkpt lat="34.9489682" lon="33.4195456"><ele>275.1</ele><time>2015-05-01T12:19:40.0000000+00:00</time></trkpt><trkpt lat="34.9489323" lon="33.4195956"><ele>274.6</ele><time>2015-05-01T12:19:41.0000000+00:00</time></trkpt><trkpt lat="34.9488929" lon="33.4196481"><ele>273.8</ele><time>2015-05-01T12:19:42.0000000+00:00</time></trkpt><trkpt lat="34.9488514" lon="33.4196998"><ele>272.9</ele><time>2015-05-01T12:19:43.0000000+00:00</time></trkpt><trkpt lat="34.9488028" lon="33.4197546"><ele>273.0</ele><time>2015-05-01T12:19:44.0000000+00:00</time></trkpt><trkpt lat="34.9487531" lon="33.4198067"><ele>273.0</ele><time>2015-05-01T12:19:45.0000000+00:00</time></trkpt><trkpt lat="34.9487048" lon="33.4198603"><ele>272.5</ele><time>2015-05-01T12:19:46.0000000+00:00</time></trkpt><trkpt lat="34.9486553" lon="33.4199147"><ele>277.3</ele><time>2015-05-01T12:19:47.0000000+00:00</time></trkpt><trkpt lat="34.9486111" lon="33.4199721"><ele>278.6</ele><time>2015-05-01T12:19:48.0000000+00:00</time></trkpt><trkpt lat="34.9485686" lon="33.420029"><ele>278.8</ele><time>2015-05-01T12:19:49.0000000+00:00</time></trkpt><trkpt lat="34.9485347" lon="33.4200771"><ele>278.4</ele><time>2015-05-01T12:19:50.0000000+00:00</time></trkpt><trkpt lat="34.9485046" lon="33.4201226"><ele>279.7</ele><time>2015-05-01T12:19:51.0000000+00:00</time></trkpt><trkpt lat="34.9484599" lon="33.4201751"><ele>280.2</ele><time>2015-05-01T12:19:53.0000000+00:00</time></trkpt><trkpt lat="34.9484217" lon="33.4202203"><ele>278.4</ele><time>2015-05-01T12:19:56.0000000+00:00</time></trkpt><trkpt lat="34.9483876" lon="33.4202658"><ele>273.8</ele><time>2015-05-01T12:20:01.0000000+00:00</time></trkpt><trkpt lat="34.9483549" lon="33.4203136"><ele>272.0</ele><time>2015-05-01T12:20:13.0000000+00:00</time></trkpt><trkpt lat="34.9483193" lon="33.4203625"><ele>272.0</ele><time>2015-05-01T12:20:15.0000000+00:00</time></trkpt><trkpt lat="34.9482824" lon="33.4204174"><ele>271.5</ele><time>2015-05-01T12:20:17.0000000+00:00</time></trkpt><trkpt lat="34.9482393" lon="33.4204742"><ele>270.6</ele><time>2015-05-01T12:20:19.0000000+00:00</time></trkpt><trkpt lat="34.9481926" lon="33.4205339"><ele>269.4</ele><time>2015-05-01T12:20:21.0000000+00:00</time></trkpt><trkpt lat="34.9481276" lon="33.4206036"><ele>269.2</ele><time>2015-05-01T12:20:22.0000000+00:00</time></trkpt><trkpt lat="34.9480896" lon="33.4206534"><ele>269.1</ele><time>2015-05-01T12:20:23.0000000+00:00</time></trkpt><trkpt lat="34.9480473" lon="33.4207012"><ele>269.1</ele><time>2015-05-01T12:20:24.0000000+00:00</time></trkpt><trkpt lat="34.9480128" lon="33.4207607"><ele>269.0</ele><time>2015-05-01T12:20:25.0000000+00:00</time></trkpt><trkpt lat="34.9479728" lon="33.4208179"><ele>268.5</ele><time>2015-05-01T12:20:26.0000000+00:00</time></trkpt><trkpt lat="34.9479295" lon="33.4208681"><ele>268.3</ele><time>2015-05-01T12:20:27.0000000+00:00</time></trkpt><trkpt lat="34.9478922" lon="33.4209205"><ele>267.6</ele><time>2015-05-01T12:20:28.0000000+00:00</time></trkpt><trkpt lat="34.94785" lon="33.4209692"><ele>267.3</ele><time>2015-05-01T12:20:29.0000000+00:00</time></trkpt><trkpt lat="34.9478061" lon="33.4210273"><ele>266.7</ele><time>2015-05-01T12:20:30.0000000+00:00</time></trkpt><trkpt lat="34.9477643" lon="33.4210807"><ele>265.8</ele><time>2015-05-01T12:20:31.0000000+00:00</time></trkpt><trkpt lat="34.9477206" lon="33.4211344"><ele>265.4</ele><time>2015-05-01T12:20:32.0000000+00:00</time></trkpt><trkpt lat="34.9476923" lon="33.4211815"><ele>265.2</ele><time>2015-05-01T12:20:33.0000000+00:00</time></trkpt><trkpt lat="34.9476575" lon="33.4212166"><ele>265.1</ele><time>2015-05-01T12:20:34.0000000+00:00</time></trkpt><trkpt lat="34.9475995" lon="33.4212743"><ele>264.5</ele><time>2015-05-01T12:20:36.0000000+00:00</time></trkpt><trkpt lat="34.9475504" lon="33.4213334"><ele>263.4</ele><time>2015-05-01T12:20:38.0000000+00:00</time></trkpt><trkpt lat="34.9475179" lon="33.4213875"><ele>262.9</ele><time>2015-05-01T12:20:40.0000000+00:00</time></trkpt><trkpt lat="34.9474881" lon="33.4214327"><ele>262.2</ele><time>2015-05-01T12:20:42.0000000+00:00</time></trkpt><trkpt lat="34.9474608" lon="33.4214863"><ele>262.2</ele><time>2015-05-01T12:20:45.0000000+00:00</time></trkpt><trkpt lat="34.9474326" lon="33.4215423"><ele>263.3</ele><time>2015-05-01T12:20:48.0000000+00:00</time></trkpt><trkpt lat="34.9474121" lon="33.4215966"><ele>263.4</ele><time>2015-05-01T12:20:51.0000000+00:00</time></trkpt><trkpt lat="34.9473912" lon="33.4216527"><ele>262.4</ele><time>2015-05-01T12:20:54.0000000+00:00</time></trkpt><trkpt lat="34.9473623" lon="33.4216976"><ele>262.6</ele><time>2015-05-01T12:20:57.0000000+00:00</time></trkpt><trkpt lat="34.9473457" lon="33.4217507"><ele>262.1</ele><time>2015-05-01T12:21:01.0000000+00:00</time></trkpt><trkpt lat="34.9473089" lon="33.421798"><ele>262.0</ele><time>2015-05-01T12:21:05.0000000+00:00</time></trkpt><trkpt lat="34.9472637" lon="33.421838"><ele>261.8</ele><time>2015-05-01T12:21:08.0000000+00:00</time></trkpt><trkpt lat="34.9472279" lon="33.4218722"><ele>261.7</ele><time>2015-05-01T12:21:10.0000000+00:00</time></trkpt><trkpt lat="34.9471742" lon="33.4219282"><ele>261.9</ele><time>2015-05-01T12:21:12.0000000+00:00</time></trkpt><trkpt lat="34.9471104" lon="33.4219972"><ele>261.8</ele><time>2015-05-01T12:21:14.0000000+00:00</time></trkpt><trkpt lat="34.9470774" lon="33.422035"><ele>261.9</ele><time>2015-05-01T12:21:15.0000000+00:00</time></trkpt><trkpt lat="34.947045" lon="33.4220776"><ele>262.0</ele><time>2015-05-01T12:21:16.0000000+00:00</time></trkpt><trkpt lat="34.9470172" lon="33.4221211"><ele>261.5</ele><time>2015-05-01T12:21:17.0000000+00:00</time></trkpt><trkpt lat="34.9469929" lon="33.4221679"><ele>261.3</ele><time>2015-05-01T12:21:18.0000000+00:00</time></trkpt><trkpt lat="34.9469553" lon="33.4222554"><ele>260.3</ele><time>2015-05-01T12:21:20.0000000+00:00</time></trkpt><trkpt lat="34.9469269" lon="33.4223265"><ele>260.1</ele><time>2015-05-01T12:21:22.0000000+00:00</time></trkpt><trkpt lat="34.9469047" lon="33.4223841"><ele>261.5</ele><time>2015-05-01T12:21:24.0000000+00:00</time></trkpt><trkpt lat="34.9468879" lon="33.4224421"><ele>261.7</ele><time>2015-05-01T12:21:27.0000000+00:00</time></trkpt><trkpt lat="34.946843" lon="33.4224324"><ele>263.4</ele><time>2015-05-01T12:21:40.0000000+00:00</time></trkpt><trkpt lat="34.9467877" lon="33.422444"><ele>263.1</ele><time>2015-05-01T12:22:11.0000000+00:00</time></trkpt><trkpt lat="34.9467379" lon="33.4224512"><ele>263.5</ele><time>2015-05-01T12:22:13.0000000+00:00</time></trkpt><trkpt lat="34.9466724" lon="33.4224485"><ele>263.4</ele><time>2015-05-01T12:22:15.0000000+00:00</time></trkpt><trkpt lat="34.9466017" lon="33.4224378"><ele>262.4</ele><time>2015-05-01T12:22:17.0000000+00:00</time></trkpt><trkpt lat="34.9465383" lon="33.4224307"><ele>262.1</ele><time>2015-05-01T12:22:19.0000000+00:00</time></trkpt><trkpt lat="34.9464771" lon="33.4224268"><ele>262.8</ele><time>2015-05-01T12:22:21.0000000+00:00</time></trkpt><trkpt lat="34.9464141" lon="33.4224263"><ele>262.5</ele><time>2015-05-01T12:22:23.0000000+00:00</time></trkpt><trkpt lat="34.9463491" lon="33.4224256"><ele>262.1</ele><time>2015-05-01T12:22:25.0000000+00:00</time></trkpt><trkpt lat="34.9462869" lon="33.4224263"><ele>262.0</ele><time>2015-05-01T12:22:27.0000000+00:00</time></trkpt><trkpt lat="34.9462254" lon="33.4224271"><ele>262.0</ele><time>2015-05-01T12:22:29.0000000+00:00</time></trkpt><trkpt lat="34.9461696" lon="33.422431"><ele>262.0</ele><time>2015-05-01T12:22:31.0000000+00:00</time></trkpt><trkpt lat="34.9461132" lon="33.4224442"><ele>262.0</ele><time>2015-05-01T12:22:33.0000000+00:00</time></trkpt><trkpt lat="34.9460552" lon="33.4224545"><ele>263.0</ele><time>2015-05-01T12:22:35.0000000+00:00</time></trkpt><trkpt lat="34.945997" lon="33.422464"><ele>263.8</ele><time>2015-05-01T12:22:37.0000000+00:00</time></trkpt><trkpt lat="34.9459411" lon="33.4224747"><ele>264.0</ele><time>2015-05-01T12:22:39.0000000+00:00</time></trkpt><trkpt lat="34.9458858" lon="33.4224874"><ele>264.3</ele><time>2015-05-01T12:22:41.0000000+00:00</time></trkpt><trkpt lat="34.9458345" lon="33.4225039"><ele>264.6</ele><time>2015-05-01T12:22:43.0000000+00:00</time></trkpt><trkpt lat="34.9457818" lon="33.4225219"><ele>265.4</ele><time>2015-05-01T12:22:45.0000000+00:00</time></trkpt><trkpt lat="34.9457324" lon="33.4225341"><ele>266.1</ele><time>2015-05-01T12:22:47.0000000+00:00</time></trkpt><trkpt lat="34.9456825" lon="33.4225513"><ele>267.3</ele><time>2015-05-01T12:22:49.0000000+00:00</time></trkpt><trkpt lat="34.9456297" lon="33.4225712"><ele>267.3</ele><time>2015-05-01T12:22:51.0000000+00:00</time></trkpt><trkpt lat="34.9455764" lon="33.4225931"><ele>267.1</ele><time>2015-05-01T12:22:53.0000000+00:00</time></trkpt><trkpt lat="34.9455212" lon="33.4226181"><ele>266.5</ele><time>2015-05-01T12:22:55.0000000+00:00</time></trkpt><trkpt lat="34.9454648" lon="33.4226433"><ele>266.9</ele><time>2015-05-01T12:22:57.0000000+00:00</time></trkpt><trkpt lat="34.9454175" lon="33.4226634"><ele>267.0</ele><time>2015-05-01T12:22:59.0000000+00:00</time></trkpt><trkpt lat="34.9453663" lon="33.4226921"><ele>267.8</ele><time>2015-05-01T12:23:02.0000000+00:00</time></trkpt><trkpt lat="34.9453185" lon="33.42271"><ele>266.5</ele><time>2015-05-01T12:23:05.0000000+00:00</time></trkpt><trkpt lat="34.9452718" lon="33.4227162"><ele>265.0</ele><time>2015-05-01T12:23:08.0000000+00:00</time></trkpt><trkpt lat="34.9452227" lon="33.4227318"><ele>265.0</ele><time>2015-05-01T12:23:12.0000000+00:00</time></trkpt><trkpt lat="34.9451736" lon="33.422738"><ele>265.1</ele><time>2015-05-01T12:23:16.0000000+00:00</time></trkpt><trkpt lat="34.9451258" lon="33.4227148"><ele>265.3</ele><time>2015-05-01T12:23:20.0000000+00:00</time></trkpt><trkpt lat="34.9450792" lon="33.4227049"><ele>264.8</ele><time>2015-05-01T12:23:23.0000000+00:00</time></trkpt><trkpt lat="34.9450294" lon="33.4226767"><ele>265.2</ele><time>2015-05-01T12:23:26.0000000+00:00</time></trkpt><trkpt lat="34.9449707" lon="33.4226376"><ele>265.0</ele><time>2015-05-01T12:23:29.0000000+00:00</time></trkpt><trkpt lat="34.9449007" lon="33.4225923"><ele>263.3</ele><time>2015-05-01T12:23:32.0000000+00:00</time></trkpt><trkpt lat="34.9448416" lon="33.4225341"><ele>261.8</ele><time>2015-05-01T12:23:34.0000000+00:00</time></trkpt><trkpt lat="34.9448066" lon="33.4224917"><ele>261.4</ele><time>2015-05-01T12:23:35.0000000+00:00</time></trkpt><trkpt lat="34.9447406" lon="33.4224174"><ele>261.2</ele><time>2015-05-01T12:23:36.0000000+00:00</time></trkpt><trkpt lat="34.9446946" lon="33.4223714"><ele>260.1</ele><time>2015-05-01T12:23:37.0000000+00:00</time></trkpt><trkpt lat="34.9446478" lon="33.4223306"><ele>259.6</ele><time>2015-05-01T12:23:38.0000000+00:00</time></trkpt><trkpt lat="34.9445985" lon="33.4222829"><ele>259.8</ele><time>2015-05-01T12:23:39.0000000+00:00</time></trkpt><trkpt lat="34.9445406" lon="33.4222414"><ele>260.4</ele><time>2015-05-01T12:23:40.0000000+00:00</time></trkpt><trkpt lat="34.9444891" lon="33.4222081"><ele>261.2</ele><time>2015-05-01T12:23:41.0000000+00:00</time></trkpt><trkpt lat="34.9444333" lon="33.4221765"><ele>262.1</ele><time>2015-05-01T12:23:42.0000000+00:00</time></trkpt><trkpt lat="34.9443684" lon="33.4221383"><ele>262.1</ele><time>2015-05-01T12:23:43.0000000+00:00</time></trkpt><trkpt lat="34.9443135" lon="33.4221081"><ele>262.0</ele><time>2015-05-01T12:23:44.0000000+00:00</time></trkpt><trkpt lat="34.9442712" lon="33.4220817"><ele>263.0</ele><time>2015-05-01T12:23:45.0000000+00:00</time></trkpt><trkpt lat="34.9442224" lon="33.4220579"><ele>263.0</ele><time>2015-05-01T12:23:46.0000000+00:00</time></trkpt><trkpt lat="34.9441822" lon="33.4220212"><ele>264.8</ele><time>2015-05-01T12:23:48.0000000+00:00</time></trkpt><trkpt lat="34.9441363" lon="33.4220009"><ele>266.4</ele><time>2015-05-01T12:23:51.0000000+00:00</time></trkpt><trkpt lat="34.9440857" lon="33.4219913"><ele>267.0</ele><time>2015-05-01T12:23:55.0000000+00:00</time></trkpt><trkpt lat="34.9440402" lon="33.4219871"><ele>266.9</ele><time>2015-05-01T12:23:58.0000000+00:00</time></trkpt><trkpt lat="34.9439966" lon="33.4220308"><ele>266.1</ele><time>2015-05-01T12:24:02.0000000+00:00</time></trkpt><trkpt lat="34.9439644" lon="33.4220786"><ele>264.9</ele><time>2015-05-01T12:24:05.0000000+00:00</time></trkpt><trkpt lat="34.9439279" lon="33.4221249"><ele>265.9</ele><time>2015-05-01T12:24:08.0000000+00:00</time></trkpt><trkpt lat="34.9438968" lon="33.4221761"><ele>265.8</ele><time>2015-05-01T12:24:11.0000000+00:00</time></trkpt><trkpt lat="34.9438676" lon="33.4222295"><ele>266.9</ele><time>2015-05-01T12:24:14.0000000+00:00</time></trkpt><trkpt lat="34.9438412" lon="33.4222852"><ele>268.4</ele><time>2015-05-01T12:24:17.0000000+00:00</time></trkpt><trkpt lat="34.9438188" lon="33.4223385"><ele>269.7</ele><time>2015-05-01T12:24:20.0000000+00:00</time></trkpt><trkpt lat="34.9438051" lon="33.4224054"><ele>271.3</ele><time>2015-05-01T12:24:24.0000000+00:00</time></trkpt><trkpt lat="34.9437975" lon="33.4224598"><ele>269.2</ele><time>2015-05-01T12:24:28.0000000+00:00</time></trkpt><trkpt lat="34.9437965" lon="33.4225227"><ele>267.2</ele><time>2015-05-01T12:24:55.0000000+00:00</time></trkpt><trkpt lat="34.9437996" lon="33.4225919"><ele>267.3</ele><time>2015-05-01T12:24:57.0000000+00:00</time></trkpt><trkpt lat="34.9438083" lon="33.4226844"><ele>266.6</ele><time>2015-05-01T12:24:59.0000000+00:00</time></trkpt><trkpt lat="34.9438206" lon="33.4228314"><ele>266.2</ele><time>2015-05-01T12:25:01.0000000+00:00</time></trkpt><trkpt lat="34.9438141" lon="33.4228904"><ele>265.6</ele><time>2015-05-01T12:25:02.0000000+00:00</time></trkpt><trkpt lat="34.9438307" lon="33.4229558"><ele>265.8</ele><time>2015-05-01T12:25:03.0000000+00:00</time></trkpt><trkpt lat="34.9438544" lon="33.4230656"><ele>265.2</ele><time>2015-05-01T12:25:05.0000000+00:00</time></trkpt><trkpt lat="34.9438908" lon="33.4231121"><ele>266.1</ele><time>2015-05-01T12:25:06.0000000+00:00</time></trkpt><trkpt lat="34.9439233" lon="33.423175"><ele>266.5</ele><time>2015-05-01T12:25:08.0000000+00:00</time></trkpt><trkpt lat="34.943955" lon="33.4232139"><ele>266.2</ele><time>2015-05-01T12:25:10.0000000+00:00</time></trkpt><trkpt lat="34.9439877" lon="33.4232559"><ele>263.6</ele><time>2015-05-01T12:25:12.0000000+00:00</time></trkpt><trkpt lat="34.9440057" lon="33.4233146"><ele>260.7</ele><time>2015-05-01T12:25:14.0000000+00:00</time></trkpt><trkpt lat="34.9440396" lon="33.4233554"><ele>263.6</ele><time>2015-05-01T12:25:29.0000000+00:00</time></trkpt><trkpt lat="34.9440731" lon="33.4234032"><ele>262.3</ele><time>2015-05-01T12:25:32.0000000+00:00</time></trkpt><trkpt lat="34.9441173" lon="33.4234525"><ele>261.6</ele><time>2015-05-01T12:25:34.0000000+00:00</time></trkpt><trkpt lat="34.9441585" lon="33.4235047"><ele>261.2</ele><time>2015-05-01T12:25:36.0000000+00:00</time></trkpt><trkpt lat="34.9442017" lon="33.4235653"><ele>260.3</ele><time>2015-05-01T12:25:38.0000000+00:00</time></trkpt><trkpt lat="34.9442397" lon="33.4236146"><ele>260.1</ele><time>2015-05-01T12:25:40.0000000+00:00</time></trkpt><trkpt lat="34.944271" lon="33.4236566"><ele>260.8</ele><time>2015-05-01T12:25:42.0000000+00:00</time></trkpt><trkpt lat="34.9443137" lon="33.4237013"><ele>260.6</ele><time>2015-05-01T12:25:45.0000000+00:00</time></trkpt><trkpt lat="34.9442745" lon="33.4236551"><ele>259.8</ele><time>2015-05-01T12:25:58.0000000+00:00</time></trkpt><trkpt lat="34.9442762" lon="33.4235893"><ele>259.1</ele><time>2015-05-01T12:26:01.0000000+00:00</time></trkpt><trkpt lat="34.9443316" lon="33.4236158"><ele>259.9</ele><time>2015-05-01T12:26:04.0000000+00:00</time></trkpt><trkpt lat="34.9443822" lon="33.4236447"><ele>259.9</ele><time>2015-05-01T12:26:07.0000000+00:00</time></trkpt><trkpt lat="34.9444347" lon="33.4236736"><ele>259.8</ele><time>2015-05-01T12:26:10.0000000+00:00</time></trkpt><trkpt lat="34.9444933" lon="33.4236858"><ele>259.1</ele><time>2015-05-01T12:26:13.0000000+00:00</time></trkpt><trkpt lat="34.9445503" lon="33.4236948"><ele>259.0</ele><time>2015-05-01T12:26:15.0000000+00:00</time></trkpt><trkpt lat="34.9446192" lon="33.4237096"><ele>259.0</ele><time>2015-05-01T12:26:17.0000000+00:00</time></trkpt><trkpt lat="34.9446924" lon="33.4237209"><ele>259.8</ele><time>2015-05-01T12:26:19.0000000+00:00</time></trkpt><trkpt lat="34.9447715" lon="33.4237284"><ele>260.0</ele><time>2015-05-01T12:26:21.0000000+00:00</time></trkpt><trkpt lat="34.9448483" lon="33.4237295"><ele>260.0</ele><time>2015-05-01T12:26:23.0000000+00:00</time></trkpt><trkpt lat="34.9449286" lon="33.4237223"><ele>260.0</ele><time>2015-05-01T12:26:25.0000000+00:00</time></trkpt><trkpt lat="34.9450088" lon="33.4237181"><ele>260.0</ele><time>2015-05-01T12:26:27.0000000+00:00</time></trkpt><trkpt lat="34.9450931" lon="33.4237204"><ele>260.5</ele><time>2015-05-01T12:26:29.0000000+00:00</time></trkpt><trkpt lat="34.9451756" lon="33.4237226"><ele>260.1</ele><time>2015-05-01T12:26:31.0000000+00:00</time></trkpt><trkpt lat="34.9452605" lon="33.4237267"><ele>260.3</ele><time>2015-05-01T12:26:33.0000000+00:00</time></trkpt><trkpt lat="34.945356" lon="33.4237378"><ele>260.8</ele><time>2015-05-01T12:26:35.0000000+00:00</time></trkpt><trkpt lat="34.9454444" lon="33.4237398"><ele>261.0</ele><time>2015-05-01T12:26:37.0000000+00:00</time></trkpt><trkpt lat="34.9455235" lon="33.4237415"><ele>261.0</ele><time>2015-05-01T12:26:39.0000000+00:00</time></trkpt><trkpt lat="34.9455974" lon="33.4237482"><ele>261.8</ele><time>2015-05-01T12:26:41.0000000+00:00</time></trkpt><trkpt lat="34.945678" lon="33.4237613"><ele>261.5</ele><time>2015-05-01T12:26:43.0000000+00:00</time></trkpt><trkpt lat="34.9457542" lon="33.4237952"><ele>260.6</ele><time>2015-05-01T12:26:45.0000000+00:00</time></trkpt><trkpt lat="34.9458163" lon="33.4238354"><ele>260.2</ele><time>2015-05-01T12:26:47.0000000+00:00</time></trkpt><trkpt lat="34.9458744" lon="33.4238907"><ele>259.6</ele><time>2015-05-01T12:26:49.0000000+00:00</time></trkpt><trkpt lat="34.9459242" lon="33.4239545"><ele>259.7</ele><time>2015-05-01T12:26:51.0000000+00:00</time></trkpt><trkpt lat="34.9459805" lon="33.4240178"><ele>259.9</ele><time>2015-05-01T12:26:53.0000000+00:00</time></trkpt><trkpt lat="34.9460316" lon="33.4240863"><ele>260.0</ele><time>2015-05-01T12:26:55.0000000+00:00</time></trkpt><trkpt lat="34.9460795" lon="33.4241653"><ele>259.3</ele><time>2015-05-01T12:26:57.0000000+00:00</time></trkpt><trkpt lat="34.9461225" lon="33.424249"><ele>259.8</ele><time>2015-05-01T12:26:59.0000000+00:00</time></trkpt><trkpt lat="34.9461646" lon="33.4243353"><ele>259.2</ele><time>2015-05-01T12:27:01.0000000+00:00</time></trkpt><trkpt lat="34.9462034" lon="33.4244183"><ele>259.1</ele><time>2015-05-01T12:27:03.0000000+00:00</time></trkpt><trkpt lat="34.9462461" lon="33.4245029"><ele>259.0</ele><time>2015-05-01T12:27:05.0000000+00:00</time></trkpt><trkpt lat="34.9462898" lon="33.4245833"><ele>259.0</ele><time>2015-05-01T12:27:07.0000000+00:00</time></trkpt><trkpt lat="34.9463331" lon="33.4246679"><ele>259.0</ele><time>2015-05-01T12:27:09.0000000+00:00</time></trkpt><trkpt lat="34.9463744" lon="33.4247473"><ele>259.5</ele><time>2015-05-01T12:27:11.0000000+00:00</time></trkpt><trkpt lat="34.9464184" lon="33.4248117"><ele>259.9</ele><time>2015-05-01T12:27:13.0000000+00:00</time></trkpt><trkpt lat="34.9464467" lon="33.4248688"><ele>259.5</ele><time>2015-05-01T12:27:15.0000000+00:00</time></trkpt><trkpt lat="34.9464713" lon="33.424933"><ele>259.1</ele><time>2015-05-01T12:27:17.0000000+00:00</time></trkpt><trkpt lat="34.9465023" lon="33.4250038"><ele>258.3</ele><time>2015-05-01T12:27:19.0000000+00:00</time></trkpt><trkpt lat="34.9465404" lon="33.4250786"><ele>258.1</ele><time>2015-05-01T12:27:21.0000000+00:00</time></trkpt><trkpt lat="34.9465848" lon="33.4251464"><ele>257.3</ele><time>2015-05-01T12:27:23.0000000+00:00</time></trkpt><trkpt lat="34.946639" lon="33.4252154"><ele>257.8</ele><time>2015-05-01T12:27:25.0000000+00:00</time></trkpt><trkpt lat="34.9466865" lon="33.4252785"><ele>257.2</ele><time>2015-05-01T12:27:27.0000000+00:00</time></trkpt><trkpt lat="34.9467225" lon="33.4253303"><ele>256.3</ele><time>2015-05-01T12:27:29.0000000+00:00</time></trkpt><trkpt lat="34.9467553" lon="33.4253816"><ele>256.1</ele><time>2015-05-01T12:27:31.0000000+00:00</time></trkpt><trkpt lat="34.9467963" lon="33.4254316"><ele>256.0</ele><time>2015-05-01T12:27:33.0000000+00:00</time></trkpt><trkpt lat="34.9468378" lon="33.4254928"><ele>255.5</ele><time>2015-05-01T12:27:35.0000000+00:00</time></trkpt><trkpt lat="34.9468641" lon="33.4255375"><ele>255.3</ele><time>2015-05-01T12:27:36.0000000+00:00</time></trkpt><trkpt lat="34.9468896" lon="33.4255831"><ele>255.1</ele><time>2015-05-01T12:27:37.0000000+00:00</time></trkpt><trkpt lat="34.9469114" lon="33.4256513"><ele>254.6</ele><time>2015-05-01T12:27:38.0000000+00:00</time></trkpt><trkpt lat="34.9469365" lon="33.4257064"><ele>254.8</ele><time>2015-05-01T12:27:39.0000000+00:00</time></trkpt><trkpt lat="34.9469563" lon="33.4257658"><ele>254.9</ele><time>2015-05-01T12:27:40.0000000+00:00</time></trkpt><trkpt lat="34.9469701" lon="33.4258334"><ele>254.5</ele><time>2015-05-01T12:27:41.0000000+00:00</time></trkpt><trkpt lat="34.9469814" lon="33.4259046"><ele>254.2</ele><time>2015-05-01T12:27:42.0000000+00:00</time></trkpt><trkpt lat="34.9469866" lon="33.4259747"><ele>254.1</ele><time>2015-05-01T12:27:43.0000000+00:00</time></trkpt><trkpt lat="34.9469968" lon="33.4260525"><ele>254.1</ele><time>2015-05-01T12:27:44.0000000+00:00</time></trkpt><trkpt lat="34.947005" lon="33.4261309"><ele>253.5</ele><time>2015-05-01T12:27:45.0000000+00:00</time></trkpt><trkpt lat="34.9470162" lon="33.4262081"><ele>253.3</ele><time>2015-05-01T12:27:46.0000000+00:00</time></trkpt><trkpt lat="34.9470257" lon="33.4262856"><ele>253.2</ele><time>2015-05-01T12:27:47.0000000+00:00</time></trkpt><trkpt lat="34.9470312" lon="33.426363"><ele>253.1</ele><time>2015-05-01T12:27:48.0000000+00:00</time></trkpt><trkpt lat="34.9470633" lon="33.4264604"><ele>253.0</ele><time>2015-05-01T12:27:50.0000000+00:00</time></trkpt><trkpt lat="34.9471038" lon="33.4265203"><ele>251.8</ele><time>2015-05-01T12:27:52.0000000+00:00</time></trkpt><trkpt lat="34.9471962" lon="33.4265396"><ele>250.5</ele><time>2015-05-01T12:27:54.0000000+00:00</time></trkpt><trkpt lat="34.9472464" lon="33.426545"><ele>250.2</ele><time>2015-05-01T12:27:55.0000000+00:00</time></trkpt><trkpt lat="34.9473036" lon="33.4265506"><ele>249.6</ele><time>2015-05-01T12:27:56.0000000+00:00</time></trkpt><trkpt lat="34.9473787" lon="33.426558"><ele>249.3</ele><time>2015-05-01T12:27:57.0000000+00:00</time></trkpt><trkpt lat="34.9474359" lon="33.4265823"><ele>248.7</ele><time>2015-05-01T12:27:58.0000000+00:00</time></trkpt><trkpt lat="34.9474995" lon="33.4265958"><ele>248.3</ele><time>2015-05-01T12:27:59.0000000+00:00</time></trkpt><trkpt lat="34.9475702" lon="33.4266185"><ele>248.2</ele><time>2015-05-01T12:28:00.0000000+00:00</time></trkpt><trkpt lat="34.9476333" lon="33.4266522"><ele>248.1</ele><time>2015-05-01T12:28:01.0000000+00:00</time></trkpt><trkpt lat="34.9476978" lon="33.4266946"><ele>248.6</ele><time>2015-05-01T12:28:02.0000000+00:00</time></trkpt><trkpt lat="34.947747" lon="33.4267318"><ele>248.8</ele><time>2015-05-01T12:28:03.0000000+00:00</time></trkpt><trkpt lat="34.9477989" lon="33.4267682"><ele>248.4</ele><time>2015-05-01T12:28:04.0000000+00:00</time></trkpt><trkpt lat="34.9478371" lon="33.4268013"><ele>248.2</ele><time>2015-05-01T12:28:05.0000000+00:00</time></trkpt><trkpt lat="34.9479002" lon="33.4268521"><ele>249.3</ele><time>2015-05-01T12:28:07.0000000+00:00</time></trkpt><trkpt lat="34.947954" lon="33.4268784"><ele>250.6</ele><time>2015-05-01T12:28:09.0000000+00:00</time></trkpt><trkpt lat="34.9480038" lon="33.4268864"><ele>251.4</ele><time>2015-05-01T12:28:11.0000000+00:00</time></trkpt><trkpt lat="34.9480594" lon="33.4269015"><ele>251.9</ele><time>2015-05-01T12:28:13.0000000+00:00</time></trkpt><trkpt lat="34.948113" lon="33.4269168"><ele>252.0</ele><time>2015-05-01T12:28:15.0000000+00:00</time></trkpt><trkpt lat="34.9481707" lon="33.426927"><ele>253.3</ele><time>2015-05-01T12:28:17.0000000+00:00</time></trkpt><trkpt lat="34.9482252" lon="33.4269348"><ele>253.8</ele><time>2015-05-01T12:28:19.0000000+00:00</time></trkpt><trkpt lat="34.9482785" lon="33.4269358"><ele>255.2</ele><time>2015-05-01T12:28:21.0000000+00:00</time></trkpt><trkpt lat="34.9483286" lon="33.4269264"><ele>255.9</ele><time>2015-05-01T12:28:24.0000000+00:00</time></trkpt><trkpt lat="34.9483775" lon="33.426945"><ele>256.9</ele><time>2015-05-01T12:28:29.0000000+00:00</time></trkpt><trkpt lat="34.9483794" lon="33.4270084"><ele>257.5</ele><time>2015-05-01T12:28:33.0000000+00:00</time></trkpt><trkpt lat="34.9484191" lon="33.4270786"><ele>257.9</ele><time>2015-05-01T12:28:37.0000000+00:00</time></trkpt><trkpt lat="34.9484527" lon="33.4271368"><ele>258.0</ele><time>2015-05-01T12:28:39.0000000+00:00</time></trkpt><trkpt lat="34.9484711" lon="33.4272128"><ele>258.0</ele><time>2015-05-01T12:28:41.0000000+00:00</time></trkpt><trkpt lat="34.948476" lon="33.4272919"><ele>258.0</ele><time>2015-05-01T12:28:43.0000000+00:00</time></trkpt><trkpt lat="34.9484861" lon="33.4273832"><ele>257.3</ele><time>2015-05-01T12:28:45.0000000+00:00</time></trkpt><trkpt lat="34.9485009" lon="33.4274773"><ele>257.1</ele><time>2015-05-01T12:28:47.0000000+00:00</time></trkpt><trkpt lat="34.9485162" lon="33.427579"><ele>257.8</ele><time>2015-05-01T12:28:49.0000000+00:00</time></trkpt><trkpt lat="34.9485345" lon="33.4276971"><ele>258.0</ele><time>2015-05-01T12:28:51.0000000+00:00</time></trkpt><trkpt lat="34.9485576" lon="33.427801"><ele>258.0</ele><time>2015-05-01T12:28:53.0000000+00:00</time></trkpt><trkpt lat="34.9485957" lon="33.4278904"><ele>258.0</ele><time>2015-05-01T12:28:55.0000000+00:00</time></trkpt><trkpt lat="34.9486218" lon="33.4279384"><ele>258.0</ele><time>2015-05-01T12:28:56.0000000+00:00</time></trkpt><trkpt lat="34.948677" lon="33.4280263"><ele>258.0</ele><time>2015-05-01T12:28:58.0000000+00:00</time></trkpt><trkpt lat="34.9487481" lon="33.4280908"><ele>257.3</ele><time>2015-05-01T12:29:00.0000000+00:00</time></trkpt><trkpt lat="34.9487907" lon="33.4281117"><ele>257.1</ele><time>2015-05-01T12:29:01.0000000+00:00</time></trkpt><trkpt lat="34.9488736" lon="33.4281231"><ele>257.1</ele><time>2015-05-01T12:29:03.0000000+00:00</time></trkpt><trkpt lat="34.948951" lon="33.4281194"><ele>257.0</ele><time>2015-05-01T12:29:05.0000000+00:00</time></trkpt><trkpt lat="34.9490104" lon="33.4281144"><ele>257.0</ele><time>2015-05-01T12:29:07.0000000+00:00</time></trkpt><trkpt lat="34.9490564" lon="33.428109"><ele>257.5</ele><time>2015-05-01T12:29:09.0000000+00:00</time></trkpt><trkpt lat="34.9491134" lon="33.428101"><ele>257.8</ele><time>2015-05-01T12:29:12.0000000+00:00</time></trkpt><trkpt lat="34.9491591" lon="33.4280925"><ele>258.0</ele><time>2015-05-01T12:29:15.0000000+00:00</time></trkpt><trkpt lat="34.9492046" lon="33.4281024"><ele>256.8</ele><time>2015-05-01T12:29:37.0000000+00:00</time></trkpt><trkpt lat="34.9492711" lon="33.4280994"><ele>256.2</ele><time>2015-05-01T12:29:40.0000000+00:00</time></trkpt><trkpt lat="34.9493251" lon="33.428104"><ele>255.1</ele><time>2015-05-01T12:29:42.0000000+00:00</time></trkpt><trkpt lat="34.9493862" lon="33.4281247"><ele>255.0</ele><time>2015-05-01T12:29:44.0000000+00:00</time></trkpt><trkpt lat="34.9494496" lon="33.4281857"><ele>253.8</ele><time>2015-05-01T12:29:46.0000000+00:00</time></trkpt><trkpt lat="34.9494894" lon="33.428239"><ele>253.7</ele><time>2015-05-01T12:29:48.0000000+00:00</time></trkpt><trkpt lat="34.9495159" lon="33.4282854"><ele>253.9</ele><time>2015-05-01T12:29:51.0000000+00:00</time></trkpt><trkpt lat="34.9495481" lon="33.4283247"><ele>253.3</ele><time>2015-05-01T12:29:54.0000000+00:00</time></trkpt><trkpt lat="34.9495902" lon="33.4283688"><ele>252.2</ele><time>2015-05-01T12:29:57.0000000+00:00</time></trkpt><trkpt lat="34.9496347" lon="33.4283932"><ele>253.3</ele><time>2015-05-01T12:29:59.0000000+00:00</time></trkpt><trkpt lat="34.9496802" lon="33.4284099"><ele>253.8</ele><time>2015-05-01T12:30:01.0000000+00:00</time></trkpt><trkpt lat="34.9497446" lon="33.4284348"><ele>254.9</ele><time>2015-05-01T12:30:04.0000000+00:00</time></trkpt><trkpt lat="34.9497909" lon="33.4284378"><ele>255.0</ele><time>2015-05-01T12:30:06.0000000+00:00</time></trkpt><trkpt lat="34.9498371" lon="33.428447"><ele>256.3</ele><time>2015-05-01T12:30:08.0000000+00:00</time></trkpt><trkpt lat="34.9498801" lon="33.4284657"><ele>256.8</ele><time>2015-05-01T12:30:10.0000000+00:00</time></trkpt><trkpt lat="34.9499352" lon="33.4284726"><ele>257.9</ele><time>2015-05-01T12:30:13.0000000+00:00</time></trkpt><trkpt lat="34.9499718" lon="33.4284388"><ele>257.8</ele><time>2015-05-01T12:30:16.0000000+00:00</time></trkpt><trkpt lat="34.9500255" lon="33.4284286"><ele>255.6</ele><time>2015-05-01T12:30:21.0000000+00:00</time></trkpt><trkpt lat="34.9500644" lon="33.4284697"><ele>255.5</ele><time>2015-05-01T12:30:24.0000000+00:00</time></trkpt><trkpt lat="34.9501122" lon="33.428495"><ele>255.8</ele><time>2015-05-01T12:30:27.0000000+00:00</time></trkpt><trkpt lat="34.9500442" lon="33.428452"><ele>256.0</ele><time>2015-05-01T12:30:32.0000000+00:00</time></trkpt><trkpt lat="34.9499843" lon="33.4283959"><ele>254.5</ele><time>2015-05-01T12:30:34.0000000+00:00</time></trkpt><trkpt lat="34.9499664" lon="33.4283159"><ele>252.9</ele><time>2015-05-01T12:30:36.0000000+00:00</time></trkpt><trkpt lat="34.9499847" lon="33.4282308"><ele>252.2</ele><time>2015-05-01T12:30:38.0000000+00:00</time></trkpt><trkpt lat="34.9500166" lon="33.4281547"><ele>253.6</ele><time>2015-05-01T12:30:40.0000000+00:00</time></trkpt><trkpt lat="34.9500563" lon="33.4281007"><ele>253.9</ele><time>2015-05-01T12:30:42.0000000+00:00</time></trkpt><trkpt lat="34.9500249" lon="33.4281447"><ele>258.8</ele><time>2015-05-01T12:31:07.0000000+00:00</time></trkpt><trkpt lat="34.9499989" lon="33.4280904"><ele>260.9</ele><time>2015-05-01T12:31:16.0000000+00:00</time></trkpt><trkpt lat="34.9499782" lon="33.4280153"><ele>261.0</ele><time>2015-05-01T12:31:19.0000000+00:00</time></trkpt><trkpt lat="34.9499514" lon="33.4279614"><ele>260.8</ele><time>2015-05-01T12:31:21.0000000+00:00</time></trkpt><trkpt lat="34.9499173" lon="33.4279001"><ele>260.5</ele><time>2015-05-01T12:31:23.0000000+00:00</time></trkpt><trkpt lat="34.9498792" lon="33.4278387"><ele>260.1</ele><time>2015-05-01T12:31:25.0000000+00:00</time></trkpt><trkpt lat="34.9498412" lon="33.4277783"><ele>261.5</ele><time>2015-05-01T12:31:27.0000000+00:00</time></trkpt><trkpt lat="34.949809" lon="33.4277147"><ele>261.9</ele><time>2015-05-01T12:31:29.0000000+00:00</time></trkpt><trkpt lat="34.949782" lon="33.427669"><ele>261.7</ele><time>2015-05-01T12:31:31.0000000+00:00</time></trkpt><trkpt lat="34.9497349" lon="33.427621"><ele>261.6</ele><time>2015-05-01T12:31:34.0000000+00:00</time></trkpt><trkpt lat="34.9496988" lon="33.4275726"><ele>261.7</ele><time>2015-05-01T12:31:37.0000000+00:00</time></trkpt><trkpt lat="34.9496985" lon="33.4275052"><ele>263.0</ele><time>2015-05-01T12:31:40.0000000+00:00</time></trkpt><trkpt lat="34.9497125" lon="33.4274435"><ele>261.4</ele><time>2015-05-01T12:31:43.0000000+00:00</time></trkpt><trkpt lat="34.9497436" lon="33.4273839"><ele>260.3</ele><time>2015-05-01T12:31:46.0000000+00:00</time></trkpt><trkpt lat="34.9497844" lon="33.4273358"><ele>257.8</ele><time>2015-05-01T12:31:49.0000000+00:00</time></trkpt><trkpt lat="34.9498256" lon="33.4272753"><ele>257.9</ele><time>2015-05-01T12:31:52.0000000+00:00</time></trkpt><trkpt lat="34.9498583" lon="33.4272293"><ele>258.5</ele><time>2015-05-01T12:31:54.0000000+00:00</time></trkpt><trkpt lat="34.949892" lon="33.4271873"><ele>259.9</ele><time>2015-05-01T12:31:56.0000000+00:00</time></trkpt><trkpt lat="34.9499249" lon="33.4271491"><ele>261.5</ele><time>2015-05-01T12:31:58.0000000+00:00</time></trkpt><trkpt lat="34.9499657" lon="33.4270942"><ele>262.7</ele><time>2015-05-01T12:32:01.0000000+00:00</time></trkpt><trkpt lat="34.9500047" lon="33.4270469"><ele>264.4</ele><time>2015-05-01T12:32:04.0000000+00:00</time></trkpt><trkpt lat="34.9500255" lon="33.4269882"><ele>264.2</ele><time>2015-05-01T12:32:08.0000000+00:00</time></trkpt><trkpt lat="34.9500095" lon="33.4269363"><ele>267.0</ele><time>2015-05-01T12:32:11.0000000+00:00</time></trkpt><trkpt lat="34.9499641" lon="33.4268888"><ele>267.1</ele><time>2015-05-01T12:32:14.0000000+00:00</time></trkpt><trkpt lat="34.9500084" lon="33.4269502"><ele>266.4</ele><time>2015-05-01T12:32:25.0000000+00:00</time></trkpt><trkpt lat="34.9500351" lon="33.4270108"><ele>266.1</ele><time>2015-05-01T12:32:27.0000000+00:00</time></trkpt><trkpt lat="34.950081" lon="33.4271016"><ele>265.8</ele><time>2015-05-01T12:32:29.0000000+00:00</time></trkpt><trkpt lat="34.9501385" lon="33.4271748"><ele>263.7</ele><time>2015-05-01T12:32:31.0000000+00:00</time></trkpt><trkpt lat="34.9502148" lon="33.4272236"><ele>261.9</ele><time>2015-05-01T12:32:33.0000000+00:00</time></trkpt><trkpt lat="34.9502932" lon="33.4272579"><ele>262.0</ele><time>2015-05-01T12:32:35.0000000+00:00</time></trkpt><trkpt lat="34.9503692" lon="33.4272881"><ele>261.5</ele><time>2015-05-01T12:32:37.0000000+00:00</time></trkpt><trkpt lat="34.9504241" lon="33.4272975"><ele>260.9</ele><time>2015-05-01T12:32:39.0000000+00:00</time></trkpt><trkpt lat="34.9504779" lon="33.4272682"><ele>259.8</ele><time>2015-05-01T12:32:42.0000000+00:00</time></trkpt><trkpt lat="34.9504923" lon="33.4272086"><ele>258.7</ele><time>2015-05-01T12:32:44.0000000+00:00</time></trkpt><trkpt lat="34.950498" lon="33.4271422"><ele>258.2</ele><time>2015-05-01T12:32:46.0000000+00:00</time></trkpt><trkpt lat="34.9505041" lon="33.4270799"><ele>258.1</ele><time>2015-05-01T12:32:48.0000000+00:00</time></trkpt><trkpt lat="34.9505131" lon="33.427023"><ele>257.5</ele><time>2015-05-01T12:32:50.0000000+00:00</time></trkpt><trkpt lat="34.9505208" lon="33.4269573"><ele>257.9</ele><time>2015-05-01T12:32:52.0000000+00:00</time></trkpt><trkpt lat="34.9505385" lon="33.4268551"><ele>257.5</ele><time>2015-05-01T12:32:54.0000000+00:00</time></trkpt><trkpt lat="34.9505593" lon="33.4267507"><ele>257.1</ele><time>2015-05-01T12:32:56.0000000+00:00</time></trkpt><trkpt lat="34.9505825" lon="33.426646"><ele>257.6</ele><time>2015-05-01T12:32:58.0000000+00:00</time></trkpt><trkpt lat="34.9506117" lon="33.4265223"><ele>257.2</ele><time>2015-05-01T12:33:00.0000000+00:00</time></trkpt><trkpt lat="34.950641" lon="33.4264197"><ele>257.1</ele><time>2015-05-01T12:33:02.0000000+00:00</time></trkpt><trkpt lat="34.9506543" lon="33.426365"><ele>257.0</ele><time>2015-05-01T12:33:03.0000000+00:00</time></trkpt><trkpt lat="34.9506692" lon="33.4263103"><ele>257.0</ele><time>2015-05-01T12:33:04.0000000+00:00</time></trkpt><trkpt lat="34.9507033" lon="33.4262173"><ele>257.8</ele><time>2015-05-01T12:33:06.0000000+00:00</time></trkpt><trkpt lat="34.950736" lon="33.4261345"><ele>258.0</ele><time>2015-05-01T12:33:08.0000000+00:00</time></trkpt><trkpt lat="34.9507587" lon="33.4260588"><ele>258.0</ele><time>2015-05-01T12:33:10.0000000+00:00</time></trkpt><trkpt lat="34.9507841" lon="33.4259761"><ele>258.5</ele><time>2015-05-01T12:33:12.0000000+00:00</time></trkpt><trkpt lat="34.9508137" lon="33.4258856"><ele>258.9</ele><time>2015-05-01T12:33:14.0000000+00:00</time></trkpt><trkpt lat="34.9508431" lon="33.4257908"><ele>259.0</ele><time>2015-05-01T12:33:16.0000000+00:00</time></trkpt><trkpt lat="34.9508731" lon="33.4256939"><ele>259.0</ele><time>2015-05-01T12:33:18.0000000+00:00</time></trkpt><trkpt lat="34.9509033" lon="33.4256002"><ele>259.8</ele><time>2015-05-01T12:33:20.0000000+00:00</time></trkpt><trkpt lat="34.9509319" lon="33.4255223"><ele>260.0</ele><time>2015-05-01T12:33:22.0000000+00:00</time></trkpt><trkpt lat="34.9509613" lon="33.4254521"><ele>260.0</ele><time>2015-05-01T12:33:24.0000000+00:00</time></trkpt><trkpt lat="34.9509873" lon="33.4253743"><ele>260.8</ele><time>2015-05-01T12:33:26.0000000+00:00</time></trkpt><trkpt lat="34.9510143" lon="33.425291"><ele>261.5</ele><time>2015-05-01T12:33:28.0000000+00:00</time></trkpt><trkpt lat="34.9510477" lon="33.4252001"><ele>261.4</ele><time>2015-05-01T12:33:30.0000000+00:00</time></trkpt><trkpt lat="34.9510825" lon="33.4251022"><ele>261.9</ele><time>2015-05-01T12:33:32.0000000+00:00</time></trkpt><trkpt lat="34.9511196" lon="33.4250059"><ele>262.0</ele><time>2015-05-01T12:33:34.0000000+00:00</time></trkpt><trkpt lat="34.9511579" lon="33.4249121"><ele>262.0</ele><time>2015-05-01T12:33:36.0000000+00:00</time></trkpt><trkpt lat="34.9511957" lon="33.4248169"><ele>262.0</ele><time>2015-05-01T12:33:38.0000000+00:00</time></trkpt><trkpt lat="34.9512296" lon="33.4247188"><ele>262.0</ele><time>2015-05-01T12:33:40.0000000+00:00</time></trkpt><trkpt lat="34.9512627" lon="33.4246172"><ele>262.0</ele><time>2015-05-01T12:33:42.0000000+00:00</time></trkpt><trkpt lat="34.9512868" lon="33.4245554"><ele>262.5</ele><time>2015-05-01T12:33:43.0000000+00:00</time></trkpt><trkpt lat="34.9513054" lon="33.4245037"><ele>262.8</ele><time>2015-05-01T12:33:44.0000000+00:00</time></trkpt><trkpt lat="34.9513198" lon="33.4244502"><ele>262.9</ele><time>2015-05-01T12:33:45.0000000+00:00</time></trkpt><trkpt lat="34.9513365" lon="33.4243917"><ele>263.0</ele><time>2015-05-01T12:33:46.0000000+00:00</time></trkpt><trkpt lat="34.9513546" lon="33.4243394"><ele>263.5</ele><time>2015-05-01T12:33:47.0000000+00:00</time></trkpt><trkpt lat="34.9513698" lon="33.4242862"><ele>263.8</ele><time>2015-05-01T12:33:48.0000000+00:00</time></trkpt><trkpt lat="34.9513979" lon="33.4241951"><ele>264.0</ele><time>2015-05-01T12:33:50.0000000+00:00</time></trkpt><trkpt lat="34.9514184" lon="33.4241176"><ele>264.0</ele><time>2015-05-01T12:33:52.0000000+00:00</time></trkpt><trkpt lat="34.9514404" lon="33.4240458"><ele>264.5</ele><time>2015-05-01T12:33:54.0000000+00:00</time></trkpt><trkpt lat="34.9514584" lon="33.4239736"><ele>264.6</ele><time>2015-05-01T12:33:56.0000000+00:00</time></trkpt><trkpt lat="34.9514834" lon="33.423898"><ele>264.9</ele><time>2015-05-01T12:33:58.0000000+00:00</time></trkpt><trkpt lat="34.951504" lon="33.4238175"><ele>265.0</ele><time>2015-05-01T12:34:00.0000000+00:00</time></trkpt><trkpt lat="34.9515275" lon="33.4237339"><ele>265.8</ele><time>2015-05-01T12:34:02.0000000+00:00</time></trkpt><trkpt lat="34.9515486" lon="33.4236477"><ele>266.0</ele><time>2015-05-01T12:34:04.0000000+00:00</time></trkpt><trkpt lat="34.9515714" lon="33.4235592"><ele>265.5</ele><time>2015-05-01T12:34:06.0000000+00:00</time></trkpt><trkpt lat="34.9515906" lon="33.4234757"><ele>265.9</ele><time>2015-05-01T12:34:08.0000000+00:00</time></trkpt><trkpt lat="34.9516051" lon="33.423405"><ele>266.2</ele><time>2015-05-01T12:34:10.0000000+00:00</time></trkpt><trkpt lat="34.9516135" lon="33.423347"><ele>266.6</ele><time>2015-05-01T12:34:12.0000000+00:00</time></trkpt><trkpt lat="34.9516273" lon="33.423289"><ele>266.7</ele><time>2015-05-01T12:34:14.0000000+00:00</time></trkpt><trkpt lat="34.9516462" lon="33.423223"><ele>266.7</ele><time>2015-05-01T12:34:16.0000000+00:00</time></trkpt><trkpt lat="34.9516668" lon="33.4231478"><ele>265.7</ele><time>2015-05-01T12:34:18.0000000+00:00</time></trkpt><trkpt lat="34.9516898" lon="33.4230577"><ele>265.4</ele><time>2015-05-01T12:34:20.0000000+00:00</time></trkpt><trkpt lat="34.9517111" lon="33.4229604"><ele>264.9</ele><time>2015-05-01T12:34:22.0000000+00:00</time></trkpt><trkpt lat="34.9517293" lon="33.4228705"><ele>265.0</ele><time>2015-05-01T12:34:24.0000000+00:00</time></trkpt><trkpt lat="34.9517426" lon="33.4227876"><ele>265.8</ele><time>2015-05-01T12:34:26.0000000+00:00</time></trkpt><trkpt lat="34.9517553" lon="33.422706"><ele>265.2</ele><time>2015-05-01T12:34:28.0000000+00:00</time></trkpt><trkpt lat="34.9517671" lon="33.4226278"><ele>265.8</ele><time>2015-05-01T12:34:30.0000000+00:00</time></trkpt><trkpt lat="34.9517768" lon="33.4225456"><ele>265.2</ele><time>2015-05-01T12:34:32.0000000+00:00</time></trkpt><trkpt lat="34.9517817" lon="33.4224626"><ele>265.6</ele><time>2015-05-01T12:34:34.0000000+00:00</time></trkpt><trkpt lat="34.9517808" lon="33.4223757"><ele>264.7</ele><time>2015-05-01T12:34:36.0000000+00:00</time></trkpt><trkpt lat="34.9517798" lon="33.4222877"><ele>264.9</ele><time>2015-05-01T12:34:38.0000000+00:00</time></trkpt><trkpt lat="34.9517748" lon="33.4221945"><ele>265.5</ele><time>2015-05-01T12:34:40.0000000+00:00</time></trkpt><trkpt lat="34.9517662" lon="33.4221036"><ele>266.1</ele><time>2015-05-01T12:34:42.0000000+00:00</time></trkpt><trkpt lat="34.9517593" lon="33.4220059"><ele>266.3</ele><time>2015-05-01T12:34:44.0000000+00:00</time></trkpt><trkpt lat="34.9517554" lon="33.4219079"><ele>266.8</ele><time>2015-05-01T12:34:46.0000000+00:00</time></trkpt><trkpt lat="34.9517493" lon="33.4218034"><ele>267.0</ele><time>2015-05-01T12:34:48.0000000+00:00</time></trkpt><trkpt lat="34.9517426" lon="33.421722"><ele>267.0</ele><time>2015-05-01T12:34:49.0000000+00:00</time></trkpt><trkpt lat="34.9517401" lon="33.4216662"><ele>267.5</ele><time>2015-05-01T12:34:50.0000000+00:00</time></trkpt><trkpt lat="34.951739" lon="33.4216083"><ele>267.8</ele><time>2015-05-01T12:34:51.0000000+00:00</time></trkpt><trkpt lat="34.9517322" lon="33.4215405"><ele>267.4</ele><time>2015-05-01T12:34:52.0000000+00:00</time></trkpt><trkpt lat="34.9517337" lon="33.4214434"><ele>268.4</ele><time>2015-05-01T12:34:54.0000000+00:00</time></trkpt><trkpt lat="34.9517276" lon="33.4213448"><ele>268.9</ele><time>2015-05-01T12:34:56.0000000+00:00</time></trkpt><trkpt lat="34.9517159" lon="33.4212582"><ele>268.0</ele><time>2015-05-01T12:34:58.0000000+00:00</time></trkpt><trkpt lat="34.9517161" lon="33.421156"><ele>268.5</ele><time>2015-05-01T12:35:00.0000000+00:00</time></trkpt><trkpt lat="34.9517038" lon="33.4210583"><ele>268.9</ele><time>2015-05-01T12:35:02.0000000+00:00</time></trkpt><trkpt lat="34.9516963" lon="33.4209542"><ele>268.2</ele><time>2015-05-01T12:35:04.0000000+00:00</time></trkpt><trkpt lat="34.9516897" lon="33.4208574"><ele>268.1</ele><time>2015-05-01T12:35:06.0000000+00:00</time></trkpt><trkpt lat="34.9516839" lon="33.4207672"><ele>268.0</ele><time>2015-05-01T12:35:08.0000000+00:00</time></trkpt><trkpt lat="34.951676" lon="33.4206827"><ele>268.0</ele><time>2015-05-01T12:35:10.0000000+00:00</time></trkpt><trkpt lat="34.9516685" lon="33.4205992"><ele>268.0</ele><time>2015-05-01T12:35:12.0000000+00:00</time></trkpt><trkpt lat="34.9516615" lon="33.4205157"><ele>268.0</ele><time>2015-05-01T12:35:14.0000000+00:00</time></trkpt><trkpt lat="34.9516537" lon="33.4204286"><ele>269.0</ele><time>2015-05-01T12:35:16.0000000+00:00</time></trkpt><trkpt lat="34.9516449" lon="33.4203454"><ele>269.3</ele><time>2015-05-01T12:35:18.0000000+00:00</time></trkpt><trkpt lat="34.9516351" lon="33.4202672"><ele>269.8</ele><time>2015-05-01T12:35:20.0000000+00:00</time></trkpt><trkpt lat="34.951626" lon="33.4201945"><ele>269.2</ele><time>2015-05-01T12:35:22.0000000+00:00</time></trkpt><trkpt lat="34.9516183" lon="33.4201236"><ele>269.1</ele><time>2015-05-01T12:35:24.0000000+00:00</time></trkpt><trkpt lat="34.951614" lon="33.4200556"><ele>269.8</ele><time>2015-05-01T12:35:26.0000000+00:00</time></trkpt><trkpt lat="34.9516124" lon="33.4199835"><ele>270.5</ele><time>2015-05-01T12:35:28.0000000+00:00</time></trkpt><trkpt lat="34.9516076" lon="33.419914"><ele>270.4</ele><time>2015-05-01T12:35:30.0000000+00:00</time></trkpt><trkpt lat="34.9516004" lon="33.4198479"><ele>270.4</ele><time>2015-05-01T12:35:32.0000000+00:00</time></trkpt><trkpt lat="34.9515927" lon="33.4197839"><ele>270.1</ele><time>2015-05-01T12:35:34.0000000+00:00</time></trkpt><trkpt lat="34.9515853" lon="33.4197164"><ele>269.5</ele><time>2015-05-01T12:35:36.0000000+00:00</time></trkpt><trkpt lat="34.951582" lon="33.4196443"><ele>269.2</ele><time>2015-05-01T12:35:38.0000000+00:00</time></trkpt><trkpt lat="34.9515747" lon="33.4195632"><ele>269.1</ele><time>2015-05-01T12:35:40.0000000+00:00</time></trkpt><trkpt lat="34.9515638" lon="33.4194763"><ele>269.5</ele><time>2015-05-01T12:35:42.0000000+00:00</time></trkpt><trkpt lat="34.951558" lon="33.4193835"><ele>269.9</ele><time>2015-05-01T12:35:44.0000000+00:00</time></trkpt><trkpt lat="34.951552" lon="33.4192887"><ele>270.2</ele><time>2015-05-01T12:35:46.0000000+00:00</time></trkpt><trkpt lat="34.9515436" lon="33.4191978"><ele>270.8</ele><time>2015-05-01T12:35:48.0000000+00:00</time></trkpt><trkpt lat="34.951531" lon="33.4191137"><ele>271.5</ele><time>2015-05-01T12:35:50.0000000+00:00</time></trkpt><trkpt lat="34.9515045" lon="33.4190336"><ele>271.9</ele><time>2015-05-01T12:35:52.0000000+00:00</time></trkpt><trkpt lat="34.951464" lon="33.418962"><ele>272.0</ele><time>2015-05-01T12:35:54.0000000+00:00</time></trkpt><trkpt lat="34.9514282" lon="33.4188868"><ele>272.3</ele><time>2015-05-01T12:35:56.0000000+00:00</time></trkpt><trkpt lat="34.9514053" lon="33.418809"><ele>272.8</ele><time>2015-05-01T12:35:58.0000000+00:00</time></trkpt><trkpt lat="34.9514177" lon="33.4187311"><ele>273.7</ele><time>2015-05-01T12:36:00.0000000+00:00</time></trkpt><trkpt lat="34.9514644" lon="33.4186692"><ele>273.9</ele><time>2015-05-01T12:36:02.0000000+00:00</time></trkpt><trkpt lat="34.9515281" lon="33.4186375"><ele>273.3</ele><time>2015-05-01T12:36:04.0000000+00:00</time></trkpt><trkpt lat="34.9515979" lon="33.4186471"><ele>272.3</ele><time>2015-05-01T12:36:06.0000000+00:00</time></trkpt><trkpt lat="34.9516591" lon="33.41869"><ele>272.1</ele><time>2015-05-01T12:36:08.0000000+00:00</time></trkpt><trkpt lat="34.9517121" lon="33.4187441"><ele>270.8</ele><time>2015-05-01T12:36:10.0000000+00:00</time></trkpt><trkpt lat="34.9517636" lon="33.4187861"><ele>271.0</ele><time>2015-05-01T12:36:12.0000000+00:00</time></trkpt><trkpt lat="34.9518154" lon="33.4188195"><ele>271.8</ele><time>2015-05-01T12:36:14.0000000+00:00</time></trkpt><trkpt lat="34.9518628" lon="33.4188405"><ele>272.5</ele><time>2015-05-01T12:36:16.0000000+00:00</time></trkpt><trkpt lat="34.9519101" lon="33.4188586"><ele>273.0</ele><time>2015-05-01T12:36:19.0000000+00:00</time></trkpt><trkpt lat="34.9519612" lon="33.4188735"><ele>274.0</ele><time>2015-05-01T12:36:23.0000000+00:00</time></trkpt><trkpt lat="34.952007" lon="33.4188737"><ele>273.1</ele><time>2015-05-01T12:36:26.0000000+00:00</time></trkpt><trkpt lat="34.9520672" lon="33.4188792"><ele>270.9</ele><time>2015-05-01T12:36:30.0000000+00:00</time></trkpt><trkpt lat="34.9521168" lon="33.4188838"><ele>269.8</ele><time>2015-05-01T12:36:33.0000000+00:00</time></trkpt><trkpt lat="34.9521695" lon="33.4188937"><ele>269.6</ele><time>2015-05-01T12:36:36.0000000+00:00</time></trkpt><trkpt lat="34.9522208" lon="33.41891"><ele>270.0</ele><time>2015-05-01T12:36:39.0000000+00:00</time></trkpt><trkpt lat="34.9522762" lon="33.4189305"><ele>270.0</ele><time>2015-05-01T12:36:42.0000000+00:00</time></trkpt><trkpt lat="34.952322" lon="33.4189425"><ele>270.3</ele><time>2015-05-01T12:36:44.0000000+00:00</time></trkpt><trkpt lat="34.952376" lon="33.4189626"><ele>272.1</ele><time>2015-05-01T12:36:46.0000000+00:00</time></trkpt><trkpt lat="34.9524399" lon="33.4189818"><ele>273.3</ele><time>2015-05-01T12:36:48.0000000+00:00</time></trkpt><trkpt lat="34.9525051" lon="33.4189989"><ele>274.6</ele><time>2015-05-01T12:36:50.0000000+00:00</time></trkpt><trkpt lat="34.952568" lon="33.4190187"><ele>275.7</ele><time>2015-05-01T12:36:52.0000000+00:00</time></trkpt><trkpt lat="34.9526334" lon="33.4190334"><ele>276.4</ele><time>2015-05-01T12:36:54.0000000+00:00</time></trkpt><trkpt lat="34.9526982" lon="33.4190496"><ele>277.6</ele><time>2015-05-01T12:36:56.0000000+00:00</time></trkpt><trkpt lat="34.9527596" lon="33.4190696"><ele>278.7</ele><time>2015-05-01T12:36:58.0000000+00:00</time></trkpt><trkpt lat="34.9528199" lon="33.4190904"><ele>278.4</ele><time>2015-05-01T12:37:00.0000000+00:00</time></trkpt><trkpt lat="34.9528814" lon="33.4191097"><ele>278.1</ele><time>2015-05-01T12:37:02.0000000+00:00</time></trkpt><trkpt lat="34.952945" lon="33.4191259"><ele>277.5</ele><time>2015-05-01T12:37:04.0000000+00:00</time></trkpt><trkpt lat="34.9530088" lon="33.419142"><ele>277.9</ele><time>2015-05-01T12:37:06.0000000+00:00</time></trkpt><trkpt lat="34.9530749" lon="33.4191573"><ele>278.0</ele><time>2015-05-01T12:37:08.0000000+00:00</time></trkpt><trkpt lat="34.9531429" lon="33.4191745"><ele>278.0</ele><time>2015-05-01T12:37:10.0000000+00:00</time></trkpt><trkpt lat="34.953212" lon="33.4191942"><ele>277.3</ele><time>2015-05-01T12:37:12.0000000+00:00</time></trkpt><trkpt lat="34.9532834" lon="33.4192137"><ele>276.3</ele><time>2015-05-01T12:37:14.0000000+00:00</time></trkpt><trkpt lat="34.9533517" lon="33.4192308"><ele>276.8</ele><time>2015-05-01T12:37:16.0000000+00:00</time></trkpt><trkpt lat="34.9534136" lon="33.4192378"><ele>276.2</ele><time>2015-05-01T12:37:18.0000000+00:00</time></trkpt><trkpt lat="34.9534671" lon="33.4192392"><ele>276.6</ele><time>2015-05-01T12:37:20.0000000+00:00</time></trkpt><trkpt lat="34.9535337" lon="33.4192348"><ele>277.0</ele><time>2015-05-01T12:37:23.0000000+00:00</time></trkpt><trkpt lat="34.9535843" lon="33.4192378"><ele>276.5</ele><time>2015-05-01T12:37:25.0000000+00:00</time></trkpt><trkpt lat="34.9536302" lon="33.4192627"><ele>275.6</ele><time>2015-05-01T12:37:27.0000000+00:00</time></trkpt><trkpt lat="34.9536732" lon="33.4192907"><ele>275.9</ele><time>2015-05-01T12:37:29.0000000+00:00</time></trkpt><trkpt lat="34.9537218" lon="33.419305"><ele>276.0</ele><time>2015-05-01T12:37:31.0000000+00:00</time></trkpt><trkpt lat="34.9537737" lon="33.4193071"><ele>276.0</ele><time>2015-05-01T12:37:33.0000000+00:00</time></trkpt><trkpt lat="34.9538228" lon="33.4193198"><ele>276.5</ele><time>2015-05-01T12:37:35.0000000+00:00</time></trkpt><trkpt lat="34.9538726" lon="33.4193382"><ele>276.9</ele><time>2015-05-01T12:37:37.0000000+00:00</time></trkpt><trkpt lat="34.9539267" lon="33.4193449"><ele>277.2</ele><time>2015-05-01T12:37:39.0000000+00:00</time></trkpt><trkpt lat="34.9539829" lon="33.4193518"><ele>277.1</ele><time>2015-05-01T12:37:41.0000000+00:00</time></trkpt><trkpt lat="34.9540435" lon="33.4193567"><ele>276.3</ele><time>2015-05-01T12:37:43.0000000+00:00</time></trkpt><trkpt lat="34.9541248" lon="33.4193579"><ele>276.1</ele><time>2015-05-01T12:37:45.0000000+00:00</time></trkpt><trkpt lat="34.9541712" lon="33.4193594"><ele>276.6</ele><time>2015-05-01T12:37:46.0000000+00:00</time></trkpt><trkpt lat="34.9542168" lon="33.4193614"><ele>276.8</ele><time>2015-05-01T12:37:47.0000000+00:00</time></trkpt><trkpt lat="34.9542648" lon="33.4193629"><ele>276.9</ele><time>2015-05-01T12:37:48.0000000+00:00</time></trkpt><trkpt lat="34.9543119" lon="33.4193632"><ele>277.0</ele><time>2015-05-01T12:37:49.0000000+00:00</time></trkpt><trkpt lat="34.9543602" lon="33.4193621"><ele>277.0</ele><time>2015-05-01T12:37:50.0000000+00:00</time></trkpt><trkpt lat="34.9544056" lon="33.419358"><ele>276.5</ele><time>2015-05-01T12:37:51.0000000+00:00</time></trkpt><trkpt lat="34.9544537" lon="33.4193508"><ele>276.3</ele><time>2015-05-01T12:37:52.0000000+00:00</time></trkpt><trkpt lat="34.9545183" lon="33.4193297"><ele>276.1</ele><time>2015-05-01T12:37:53.0000000+00:00</time></trkpt><trkpt lat="34.9546046" lon="33.4193039"><ele>275.6</ele><time>2015-05-01T12:37:55.0000000+00:00</time></trkpt><trkpt lat="34.9546901" lon="33.4192899"><ele>275.2</ele><time>2015-05-01T12:37:57.0000000+00:00</time></trkpt><trkpt lat="34.9547714" lon="33.4192606"><ele>275.1</ele><time>2015-05-01T12:37:59.0000000+00:00</time></trkpt><trkpt lat="34.9548175" lon="33.4192381"><ele>275.0</ele><time>2015-05-01T12:38:00.0000000+00:00</time></trkpt><trkpt lat="34.9549016" lon="33.4192088"><ele>275.0</ele><time>2015-05-01T12:38:02.0000000+00:00</time></trkpt><trkpt lat="34.9549835" lon="33.4191716"><ele>275.0</ele><time>2015-05-01T12:38:04.0000000+00:00</time></trkpt><trkpt lat="34.9550714" lon="33.419136"><ele>273.8</ele><time>2015-05-01T12:38:06.0000000+00:00</time></trkpt><trkpt lat="34.955153" lon="33.4190991"><ele>273.7</ele><time>2015-05-01T12:38:08.0000000+00:00</time></trkpt><trkpt lat="34.955226" lon="33.4190638"><ele>273.9</ele><time>2015-05-01T12:38:10.0000000+00:00</time></trkpt><trkpt lat="34.9552967" lon="33.419036"><ele>274.0</ele><time>2015-05-01T12:38:12.0000000+00:00</time></trkpt><trkpt lat="34.9553515" lon="33.4189961"><ele>274.0</ele><time>2015-05-01T12:38:14.0000000+00:00</time></trkpt><trkpt lat="34.9554189" lon="33.4189521"><ele>273.5</ele><time>2015-05-01T12:38:16.0000000+00:00</time></trkpt><trkpt lat="34.9554748" lon="33.418919"><ele>273.1</ele><time>2015-05-01T12:38:18.0000000+00:00</time></trkpt><trkpt lat="34.9555201" lon="33.4188945"><ele>273.1</ele><time>2015-05-01T12:38:20.0000000+00:00</time></trkpt><trkpt lat="34.9555782" lon="33.4188528"><ele>271.8</ele><time>2015-05-01T12:38:23.0000000+00:00</time></trkpt><trkpt lat="34.9556234" lon="33.4188288"><ele>271.7</ele><time>2015-05-01T12:38:25.0000000+00:00</time></trkpt><trkpt lat="34.9556673" lon="33.4188008"><ele>272.7</ele><time>2015-05-01T12:38:27.0000000+00:00</time></trkpt><trkpt lat="34.9557151" lon="33.4187708"><ele>273.4</ele><time>2015-05-01T12:38:29.0000000+00:00</time></trkpt><trkpt lat="34.9557628" lon="33.4187413"><ele>273.9</ele><time>2015-05-01T12:38:31.0000000+00:00</time></trkpt><trkpt lat="34.955807" lon="33.4187112"><ele>273.2</ele><time>2015-05-01T12:38:33.0000000+00:00</time></trkpt><trkpt lat="34.9558462" lon="33.4186832"><ele>273.1</ele><time>2015-05-01T12:38:35.0000000+00:00</time></trkpt><trkpt lat="34.9558865" lon="33.4186501"><ele>274.3</ele><time>2015-05-01T12:38:37.0000000+00:00</time></trkpt><trkpt lat="34.9559353" lon="33.4186188"><ele>274.8</ele><time>2015-05-01T12:38:39.0000000+00:00</time></trkpt><trkpt lat="34.9559896" lon="33.4185831"><ele>275.0</ele><time>2015-05-01T12:38:41.0000000+00:00</time></trkpt><trkpt lat="34.9560461" lon="33.4185466"><ele>275.0</ele><time>2015-05-01T12:38:43.0000000+00:00</time></trkpt><trkpt lat="34.9561073" lon="33.4185091"><ele>275.0</ele><time>2015-05-01T12:38:45.0000000+00:00</time></trkpt><trkpt lat="34.9561732" lon="33.4184679"><ele>274.8</ele><time>2015-05-01T12:38:47.0000000+00:00</time></trkpt><trkpt lat="34.9562492" lon="33.4184195"><ele>274.2</ele><time>2015-05-01T12:38:49.0000000+00:00</time></trkpt><trkpt lat="34.9563211" lon="33.4183644"><ele>274.1</ele><time>2015-05-01T12:38:51.0000000+00:00</time></trkpt><trkpt lat="34.9563614" lon="33.4183366"><ele>273.5</ele><time>2015-05-01T12:38:52.0000000+00:00</time></trkpt><trkpt lat="34.9564248" lon="33.4183029"><ele>272.8</ele><time>2015-05-01T12:38:53.0000000+00:00</time></trkpt><trkpt lat="34.956466" lon="33.4182805"><ele>272.4</ele><time>2015-05-01T12:38:54.0000000+00:00</time></trkpt><trkpt lat="34.9565428" lon="33.4182119"><ele>271.6</ele><time>2015-05-01T12:38:56.0000000+00:00</time></trkpt><trkpt lat="34.956588" lon="33.4181887"><ele>270.8</ele><time>2015-05-01T12:38:57.0000000+00:00</time></trkpt><trkpt lat="34.9566317" lon="33.4181579"><ele>270.4</ele><time>2015-05-01T12:38:58.0000000+00:00</time></trkpt><trkpt lat="34.9566768" lon="33.4181241"><ele>269.7</ele><time>2015-05-01T12:38:59.0000000+00:00</time></trkpt><trkpt lat="34.9567212" lon="33.4180909"><ele>269.9</ele><time>2015-05-01T12:39:00.0000000+00:00</time></trkpt><trkpt lat="34.9567685" lon="33.4180613"><ele>269.9</ele><time>2015-05-01T12:39:01.0000000+00:00</time></trkpt><trkpt lat="34.9568171" lon="33.4180346"><ele>269.5</ele><time>2015-05-01T12:39:02.0000000+00:00</time></trkpt><trkpt lat="34.956864" lon="33.4179982"><ele>269.3</ele><time>2015-05-01T12:39:03.0000000+00:00</time></trkpt><trkpt lat="34.9569209" lon="33.4179634"><ele>269.6</ele><time>2015-05-01T12:39:04.0000000+00:00</time></trkpt><trkpt lat="34.9569752" lon="33.4179348"><ele>269.3</ele><time>2015-05-01T12:39:05.0000000+00:00</time></trkpt><trkpt lat="34.9570345" lon="33.4178823"><ele>270.2</ele><time>2015-05-01T12:39:06.0000000+00:00</time></trkpt><trkpt lat="34.957087" lon="33.4178535"><ele>270.6</ele><time>2015-05-01T12:39:07.0000000+00:00</time></trkpt><trkpt lat="34.957145" lon="33.4178114"><ele>270.8</ele><time>2015-05-01T12:39:08.0000000+00:00</time></trkpt><trkpt lat="34.9572049" lon="33.4177619"><ele>270.9</ele><time>2015-05-01T12:39:09.0000000+00:00</time></trkpt><trkpt lat="34.957262" lon="33.4177232"><ele>271.5</ele><time>2015-05-01T12:39:10.0000000+00:00</time></trkpt><trkpt lat="34.9573129" lon="33.4176883"><ele>270.7</ele><time>2015-05-01T12:39:11.0000000+00:00</time></trkpt><trkpt lat="34.9573762" lon="33.4176556"><ele>269.9</ele><time>2015-05-01T12:39:12.0000000+00:00</time></trkpt><trkpt lat="34.9574322" lon="33.417616"><ele>269.5</ele><time>2015-05-01T12:39:13.0000000+00:00</time></trkpt><trkpt lat="34.9574904" lon="33.4175742"><ele>269.7</ele><time>2015-05-01T12:39:14.0000000+00:00</time></trkpt><trkpt lat="34.9575563" lon="33.4175389"><ele>269.4</ele><time>2015-05-01T12:39:15.0000000+00:00</time></trkpt><trkpt lat="34.9576191" lon="33.4174927"><ele>268.2</ele><time>2015-05-01T12:39:16.0000000+00:00</time></trkpt><trkpt lat="34.9576756" lon="33.4174463"><ele>267.6</ele><time>2015-05-01T12:39:17.0000000+00:00</time></trkpt><trkpt lat="34.9577468" lon="33.4174038"><ele>267.3</ele><time>2015-05-01T12:39:18.0000000+00:00</time></trkpt><trkpt lat="34.9577981" lon="33.4173626"><ele>266.7</ele><time>2015-05-01T12:39:19.0000000+00:00</time></trkpt><trkpt lat="34.9578655" lon="33.4173202"><ele>265.8</ele><time>2015-05-01T12:39:20.0000000+00:00</time></trkpt><trkpt lat="34.9579298" lon="33.4172803"><ele>265.4</ele><time>2015-05-01T12:39:21.0000000+00:00</time></trkpt><trkpt lat="34.9579902" lon="33.4172369"><ele>265.7</ele><time>2015-05-01T12:39:22.0000000+00:00</time></trkpt><trkpt lat="34.9580436" lon="33.4171928"><ele>265.4</ele><time>2015-05-01T12:39:23.0000000+00:00</time></trkpt><trkpt lat="34.9580997" lon="33.4171509"><ele>265.2</ele><time>2015-05-01T12:39:24.0000000+00:00</time></trkpt><trkpt lat="34.9581518" lon="33.4171089"><ele>264.6</ele><time>2015-05-01T12:39:25.0000000+00:00</time></trkpt><trkpt lat="34.9582101" lon="33.4170768"><ele>263.3</ele><time>2015-05-01T12:39:26.0000000+00:00</time></trkpt><trkpt lat="34.9582644" lon="33.4170274"><ele>262.7</ele><time>2015-05-01T12:39:27.0000000+00:00</time></trkpt><trkpt lat="34.9583138" lon="33.416991"><ele>262.3</ele><time>2015-05-01T12:39:28.0000000+00:00</time></trkpt><trkpt lat="34.958376" lon="33.416949"><ele>262.7</ele><time>2015-05-01T12:39:29.0000000+00:00</time></trkpt><trkpt lat="34.958427" lon="33.4169104"><ele>261.9</ele><time>2015-05-01T12:39:30.0000000+00:00</time></trkpt><trkpt lat="34.9584707" lon="33.4168762"><ele>261.9</ele><time>2015-05-01T12:39:31.0000000+00:00</time></trkpt><trkpt lat="34.9585251" lon="33.4168343"><ele>262.0</ele><time>2015-05-01T12:39:32.0000000+00:00</time></trkpt><trkpt lat="34.9585703" lon="33.4168055"><ele>261.5</ele><time>2015-05-01T12:39:33.0000000+00:00</time></trkpt><trkpt lat="34.9586263" lon="33.4167706"><ele>260.8</ele><time>2015-05-01T12:39:34.0000000+00:00</time></trkpt><trkpt lat="34.9586739" lon="33.4167448"><ele>259.9</ele><time>2015-05-01T12:39:35.0000000+00:00</time></trkpt><trkpt lat="34.958718" lon="33.4167094"><ele>259.5</ele><time>2015-05-01T12:39:36.0000000+00:00</time></trkpt><trkpt lat="34.9587584" lon="33.4166833"><ele>258.7</ele><time>2015-05-01T12:39:37.0000000+00:00</time></trkpt><trkpt lat="34.9587995" lon="33.4166572"><ele>258.9</ele><time>2015-05-01T12:39:38.0000000+00:00</time></trkpt><trkpt lat="34.9588438" lon="33.4166264"><ele>259.0</ele><time>2015-05-01T12:39:39.0000000+00:00</time></trkpt><trkpt lat="34.9588846" lon="33.4165925"><ele>259.0</ele><time>2015-05-01T12:39:40.0000000+00:00</time></trkpt><trkpt lat="34.9589306" lon="33.4165607"><ele>258.0</ele><time>2015-05-01T12:39:41.0000000+00:00</time></trkpt><trkpt lat="34.9589781" lon="33.4165352"><ele>257.5</ele><time>2015-05-01T12:39:42.0000000+00:00</time></trkpt><trkpt lat="34.9590556" lon="33.4164803"><ele>257.1</ele><time>2015-05-01T12:39:44.0000000+00:00</time></trkpt><trkpt lat="34.9590926" lon="33.4164473"><ele>257.1</ele><time>2015-05-01T12:39:45.0000000+00:00</time></trkpt><trkpt lat="34.959141" lon="33.416419"><ele>257.1</ele><time>2015-05-01T12:39:46.0000000+00:00</time></trkpt><trkpt lat="34.9591875" lon="33.4163989"><ele>256.5</ele><time>2015-05-01T12:39:47.0000000+00:00</time></trkpt><trkpt lat="34.959235" lon="33.4163746"><ele>256.8</ele><time>2015-05-01T12:39:48.0000000+00:00</time></trkpt><trkpt lat="34.9592879" lon="33.4163457"><ele>257.4</ele><time>2015-05-01T12:39:49.0000000+00:00</time></trkpt><trkpt lat="34.9593339" lon="33.416314"><ele>257.7</ele><time>2015-05-01T12:39:50.0000000+00:00</time></trkpt><trkpt lat="34.9594098" lon="33.4162603"><ele>258.2</ele><time>2015-05-01T12:39:52.0000000+00:00</time></trkpt><trkpt lat="34.9594817" lon="33.4162264"><ele>258.1</ele><time>2015-05-01T12:39:54.0000000+00:00</time></trkpt><trkpt lat="34.9595608" lon="33.416183"><ele>258.5</ele><time>2015-05-01T12:39:56.0000000+00:00</time></trkpt><trkpt lat="34.9596315" lon="33.416145"><ele>258.4</ele><time>2015-05-01T12:39:58.0000000+00:00</time></trkpt><trkpt lat="34.9597077" lon="33.4161153"><ele>257.6</ele><time>2015-05-01T12:40:00.0000000+00:00</time></trkpt><trkpt lat="34.959788" lon="33.4160872"><ele>257.2</ele><time>2015-05-01T12:40:02.0000000+00:00</time></trkpt><trkpt lat="34.9598683" lon="33.4160551"><ele>258.1</ele><time>2015-05-01T12:40:04.0000000+00:00</time></trkpt><trkpt lat="34.9599138" lon="33.4160482"><ele>257.5</ele><time>2015-05-01T12:40:05.0000000+00:00</time></trkpt><trkpt lat="34.9599616" lon="33.4160314"><ele>256.8</ele><time>2015-05-01T12:40:06.0000000+00:00</time></trkpt><trkpt lat="34.9600103" lon="33.4160164"><ele>256.9</ele><time>2015-05-01T12:40:07.0000000+00:00</time></trkpt><trkpt lat="34.9600639" lon="33.4160131"><ele>257.5</ele><time>2015-05-01T12:40:08.0000000+00:00</time></trkpt><trkpt lat="34.9601232" lon="33.4160177"><ele>257.2</ele><time>2015-05-01T12:40:09.0000000+00:00</time></trkpt><trkpt lat="34.9601684" lon="33.4160065"><ele>257.1</ele><time>2015-05-01T12:40:10.0000000+00:00</time></trkpt><trkpt lat="34.9602195" lon="33.4159887"><ele>256.6</ele><time>2015-05-01T12:40:11.0000000+00:00</time></trkpt><trkpt lat="34.9602707" lon="33.4159843"><ele>256.3</ele><time>2015-05-01T12:40:12.0000000+00:00</time></trkpt><trkpt lat="34.9603292" lon="33.4159711"><ele>256.2</ele><time>2015-05-01T12:40:13.0000000+00:00</time></trkpt><trkpt lat="34.9603784" lon="33.415952"><ele>256.1</ele><time>2015-05-01T12:40:14.0000000+00:00</time></trkpt><trkpt lat="34.9604335" lon="33.4159358"><ele>256.1</ele><time>2015-05-01T12:40:15.0000000+00:00</time></trkpt><trkpt lat="34.9604899" lon="33.415924"><ele>256.0</ele><time>2015-05-01T12:40:16.0000000+00:00</time></trkpt><trkpt lat="34.9605429" lon="33.4159123"><ele>256.0</ele><time>2015-05-01T12:40:17.0000000+00:00</time></trkpt><trkpt lat="34.9605956" lon="33.415901"><ele>256.5</ele><time>2015-05-01T12:40:18.0000000+00:00</time></trkpt><trkpt lat="34.9606509" lon="33.415886"><ele>256.3</ele><time>2015-05-01T12:40:19.0000000+00:00</time></trkpt><trkpt lat="34.9607134" lon="33.4158754"><ele>255.6</ele><time>2015-05-01T12:40:20.0000000+00:00</time></trkpt><trkpt lat="34.9607637" lon="33.4158621"><ele>255.3</ele><time>2015-05-01T12:40:21.0000000+00:00</time></trkpt><trkpt lat="34.9608233" lon="33.4158572"><ele>255.2</ele><time>2015-05-01T12:40:22.0000000+00:00</time></trkpt><trkpt lat="34.9608718" lon="33.4158492"><ele>255.6</ele><time>2015-05-01T12:40:23.0000000+00:00</time></trkpt><trkpt lat="34.9609196" lon="33.4158375"><ele>255.8</ele><time>2015-05-01T12:40:24.0000000+00:00</time></trkpt><trkpt lat="34.9610064" lon="33.415821"><ele>255.5</ele><time>2015-05-01T12:40:26.0000000+00:00</time></trkpt><trkpt lat="34.9610538" lon="33.4158095"><ele>255.2</ele><time>2015-05-01T12:40:27.0000000+00:00</time></trkpt><trkpt lat="34.9611438" lon="33.4157678"><ele>254.1</ele><time>2015-05-01T12:40:29.0000000+00:00</time></trkpt><trkpt lat="34.9612233" lon="33.415745"><ele>253.8</ele><time>2015-05-01T12:40:31.0000000+00:00</time></trkpt><trkpt lat="34.9613017" lon="33.4157237"><ele>253.2</ele><time>2015-05-01T12:40:33.0000000+00:00</time></trkpt><trkpt lat="34.9613489" lon="33.4157098"><ele>253.6</ele><time>2015-05-01T12:40:34.0000000+00:00</time></trkpt><trkpt lat="34.9614309" lon="33.4156827"><ele>253.7</ele><time>2015-05-01T12:40:36.0000000+00:00</time></trkpt><trkpt lat="34.9615084" lon="33.4156532"><ele>253.4</ele><time>2015-05-01T12:40:38.0000000+00:00</time></trkpt><trkpt lat="34.9615879" lon="33.4156085"><ele>253.1</ele><time>2015-05-01T12:40:40.0000000+00:00</time></trkpt><trkpt lat="34.9616778" lon="33.4155642"><ele>254.5</ele><time>2015-05-01T12:40:42.0000000+00:00</time></trkpt><trkpt lat="34.9617252" lon="33.4155445"><ele>254.8</ele><time>2015-05-01T12:40:43.0000000+00:00</time></trkpt><trkpt lat="34.9617706" lon="33.4155026"><ele>254.9</ele><time>2015-05-01T12:40:44.0000000+00:00</time></trkpt><trkpt lat="34.9618203" lon="33.4154687"><ele>255.0</ele><time>2015-05-01T12:40:45.0000000+00:00</time></trkpt><trkpt lat="34.96186" lon="33.4154407"><ele>255.0</ele><time>2015-05-01T12:40:46.0000000+00:00</time></trkpt><trkpt lat="34.9619428" lon="33.4153967"><ele>254.3</ele><time>2015-05-01T12:40:48.0000000+00:00</time></trkpt><trkpt lat="34.9620194" lon="33.4153469"><ele>253.6</ele><time>2015-05-01T12:40:50.0000000+00:00</time></trkpt><trkpt lat="34.962095" lon="33.4152999"><ele>253.4</ele><time>2015-05-01T12:40:52.0000000+00:00</time></trkpt><trkpt lat="34.9621694" lon="33.4152507"><ele>252.6</ele><time>2015-05-01T12:40:54.0000000+00:00</time></trkpt><trkpt lat="34.9622483" lon="33.4152"><ele>252.2</ele><time>2015-05-01T12:40:56.0000000+00:00</time></trkpt><trkpt lat="34.9623242" lon="33.4151544"><ele>252.1</ele><time>2015-05-01T12:40:58.0000000+00:00</time></trkpt><trkpt lat="34.9623928" lon="33.4151097"><ele>252.0</ele><time>2015-05-01T12:41:00.0000000+00:00</time></trkpt><trkpt lat="34.962434" lon="33.4150799"><ele>252.0</ele><time>2015-05-01T12:41:01.0000000+00:00</time></trkpt><trkpt lat="34.9624723" lon="33.4150487"><ele>252.0</ele><time>2015-05-01T12:41:02.0000000+00:00</time></trkpt><trkpt lat="34.9625504" lon="33.4149886"><ele>252.0</ele><time>2015-05-01T12:41:04.0000000+00:00</time></trkpt><trkpt lat="34.9625994" lon="33.4149603"><ele>252.0</ele><time>2015-05-01T12:41:05.0000000+00:00</time></trkpt><trkpt lat="34.962682" lon="33.4149036"><ele>253.3</ele><time>2015-05-01T12:41:07.0000000+00:00</time></trkpt><trkpt lat="34.9627237" lon="33.4148755"><ele>253.6</ele><time>2015-05-01T12:41:08.0000000+00:00</time></trkpt><trkpt lat="34.9628074" lon="33.4148282"><ele>254.2</ele><time>2015-05-01T12:41:10.0000000+00:00</time></trkpt><trkpt lat="34.9628474" lon="33.414799"><ele>254.1</ele><time>2015-05-01T12:41:11.0000000+00:00</time></trkpt><trkpt lat="34.9629168" lon="33.4147355"><ele>254.0</ele><time>2015-05-01T12:41:13.0000000+00:00</time></trkpt><trkpt lat="34.9629371" lon="33.4146611"><ele>253.3</ele><time>2015-05-01T12:41:15.0000000+00:00</time></trkpt><trkpt lat="34.9629574" lon="33.4145961"><ele>253.8</ele><time>2015-05-01T12:41:17.0000000+00:00</time></trkpt><trkpt lat="34.9629654" lon="33.4145418"><ele>253.2</ele><time>2015-05-01T12:41:19.0000000+00:00</time></trkpt><trkpt lat="34.9629723" lon="33.4144845"><ele>253.1</ele><time>2015-05-01T12:41:21.0000000+00:00</time></trkpt><trkpt lat="34.9629915" lon="33.4144268"><ele>253.3</ele><time>2015-05-01T12:41:23.0000000+00:00</time></trkpt><trkpt lat="34.96302" lon="33.4143719"><ele>253.6</ele><time>2015-05-01T12:41:25.0000000+00:00</time></trkpt><trkpt lat="34.9630489" lon="33.4143217"><ele>253.2</ele><time>2015-05-01T12:41:27.0000000+00:00</time></trkpt><trkpt lat="34.9630716" lon="33.4142665"><ele>252.3</ele><time>2015-05-01T12:41:29.0000000+00:00</time></trkpt><trkpt lat="34.9630942" lon="33.4142128"><ele>251.1</ele><time>2015-05-01T12:41:31.0000000+00:00</time></trkpt><trkpt lat="34.9631199" lon="33.414159"><ele>251.5</ele><time>2015-05-01T12:41:33.0000000+00:00</time></trkpt><trkpt lat="34.9631429" lon="33.4141096"><ele>252.4</ele><time>2015-05-01T12:41:35.0000000+00:00</time></trkpt><trkpt lat="34.9631678" lon="33.4140637"><ele>252.9</ele><time>2015-05-01T12:41:37.0000000+00:00</time></trkpt><trkpt lat="34.963195" lon="33.4140192"><ele>253.2</ele><time>2015-05-01T12:41:39.0000000+00:00</time></trkpt><trkpt lat="34.9632228" lon="33.4139697"><ele>253.1</ele><time>2015-05-01T12:41:41.0000000+00:00</time></trkpt><trkpt lat="34.9632467" lon="33.4139194"><ele>253.0</ele><time>2015-05-01T12:41:43.0000000+00:00</time></trkpt><trkpt lat="34.9632761" lon="33.4138705"><ele>254.3</ele><time>2015-05-01T12:41:45.0000000+00:00</time></trkpt><trkpt lat="34.963304" lon="33.4138239"><ele>256.1</ele><time>2015-05-01T12:41:47.0000000+00:00</time></trkpt><trkpt lat="34.9633342" lon="33.4137742"><ele>256.8</ele><time>2015-05-01T12:41:49.0000000+00:00</time></trkpt><trkpt lat="34.9633633" lon="33.4137238"><ele>257.0</ele><time>2015-05-01T12:41:51.0000000+00:00</time></trkpt><trkpt lat="34.9633895" lon="33.4136719"><ele>257.0</ele><time>2015-05-01T12:41:53.0000000+00:00</time></trkpt><trkpt lat="34.9633993" lon="33.4136166"><ele>255.3</ele><time>2015-05-01T12:41:55.0000000+00:00</time></trkpt><trkpt lat="34.9633812" lon="33.413563"><ele>254.3</ele><time>2015-05-01T12:41:57.0000000+00:00</time></trkpt><trkpt lat="34.9633485" lon="33.413515"><ele>253.8</ele><time>2015-05-01T12:41:59.0000000+00:00</time></trkpt><trkpt lat="34.9633137" lon="33.4134651"><ele>254.7</ele><time>2015-05-01T12:42:01.0000000+00:00</time></trkpt><trkpt lat="34.9632509" lon="33.4134195"><ele>255.4</ele><time>2015-05-01T12:42:03.0000000+00:00</time></trkpt><trkpt lat="34.9631896" lon="33.4134138"><ele>256.4</ele><time>2015-05-01T12:42:05.0000000+00:00</time></trkpt><trkpt lat="34.9631399" lon="33.413431"><ele>256.6</ele><time>2015-05-01T12:42:07.0000000+00:00</time></trkpt><trkpt lat="34.9630987" lon="33.4134587"><ele>257.9</ele><time>2015-05-01T12:42:09.0000000+00:00</time></trkpt><trkpt lat="34.9630478" lon="33.4134804"><ele>258.9</ele><time>2015-05-01T12:42:12.0000000+00:00</time></trkpt><trkpt lat="34.9629897" lon="33.4134912"><ele>258.5</ele><time>2015-05-01T12:42:22.0000000+00:00</time></trkpt><trkpt lat="34.962943" lon="33.4135052"><ele>258.9</ele><time>2015-05-01T12:42:24.0000000+00:00</time></trkpt><trkpt lat="34.9628698" lon="33.4135353"><ele>258.7</ele><time>2015-05-01T12:42:26.0000000+00:00</time></trkpt><trkpt lat="34.9628004" lon="33.4135566"><ele>259.7</ele><time>2015-05-01T12:42:28.0000000+00:00</time></trkpt><trkpt lat="34.9627519" lon="33.4135669"><ele>260.7</ele><time>2015-05-01T12:42:30.0000000+00:00</time></trkpt><trkpt lat="34.9627065" lon="33.4135749"><ele>261.0</ele><time>2015-05-01T12:42:34.0000000+00:00</time></trkpt><trkpt lat="34.9627498" lon="33.4135501"><ele>260.8</ele><time>2015-05-01T12:43:43.0000000+00:00</time></trkpt><trkpt lat="34.9628102" lon="33.4135344"><ele>258.6</ele><time>2015-05-01T12:43:52.0000000+00:00</time></trkpt><trkpt lat="34.9628702" lon="33.4135175"><ele>257.4</ele><time>2015-05-01T12:43:54.0000000+00:00</time></trkpt><trkpt lat="34.9629351" lon="33.4134968"><ele>257.1</ele><time>2015-05-01T12:43:56.0000000+00:00</time></trkpt><trkpt lat="34.9629984" lon="33.413477"><ele>257.5</ele><time>2015-05-01T12:43:58.0000000+00:00</time></trkpt><trkpt lat="34.963059" lon="33.4134629"><ele>257.9</ele><time>2015-05-01T12:44:00.0000000+00:00</time></trkpt><trkpt lat="34.9631186" lon="33.4134431"><ele>258.7</ele><time>2015-05-01T12:44:02.0000000+00:00</time></trkpt><trkpt lat="34.9631825" lon="33.4134193"><ele>258.2</ele><time>2015-05-01T12:44:04.0000000+00:00</time></trkpt><trkpt lat="34.9632487" lon="33.4134138"><ele>258.1</ele><time>2015-05-01T12:44:06.0000000+00:00</time></trkpt><trkpt lat="34.9633154" lon="33.4134561"><ele>258.0</ele><time>2015-05-01T12:44:08.0000000+00:00</time></trkpt><trkpt lat="34.96337" lon="33.4135305"><ele>258.0</ele><time>2015-05-01T12:44:10.0000000+00:00</time></trkpt><trkpt lat="34.9634099" lon="33.4136077"><ele>258.8</ele><time>2015-05-01T12:44:12.0000000+00:00</time></trkpt><trkpt lat="34.9634335" lon="33.4136772"><ele>259.0</ele><time>2015-05-01T12:44:14.0000000+00:00</time></trkpt><trkpt lat="34.9634294" lon="33.413747"><ele>258.5</ele><time>2015-05-01T12:44:16.0000000+00:00</time></trkpt><trkpt lat="34.9633883" lon="33.4137961"><ele>258.6</ele><time>2015-05-01T12:44:18.0000000+00:00</time></trkpt><trkpt lat="34.9633402" lon="33.4138363"><ele>258.2</ele><time>2015-05-01T12:44:20.0000000+00:00</time></trkpt><trkpt lat="34.9632985" lon="33.4138832"><ele>258.1</ele><time>2015-05-01T12:44:22.0000000+00:00</time></trkpt><trkpt lat="34.9632566" lon="33.4139381"><ele>258.0</ele><time>2015-05-01T12:44:24.0000000+00:00</time></trkpt><trkpt lat="34.9632065" lon="33.4140092"><ele>258.0</ele><time>2015-05-01T12:44:26.0000000+00:00</time></trkpt><trkpt lat="34.9631556" lon="33.4140776"><ele>258.0</ele><time>2015-05-01T12:44:27.0000000+00:00</time></trkpt><trkpt lat="34.9631257" lon="33.4141432"><ele>258.0</ele><time>2015-05-01T12:44:28.0000000+00:00</time></trkpt><trkpt lat="34.9630963" lon="33.4141979"><ele>257.5</ele><time>2015-05-01T12:44:29.0000000+00:00</time></trkpt><trkpt lat="34.9630562" lon="33.4142589"><ele>257.8</ele><time>2015-05-01T12:44:30.0000000+00:00</time></trkpt><trkpt lat="34.9630279" lon="33.4143173"><ele>257.4</ele><time>2015-05-01T12:44:31.0000000+00:00</time></trkpt><trkpt lat="34.9630014" lon="33.4143894"><ele>257.7</ele><time>2015-05-01T12:44:32.0000000+00:00</time></trkpt><trkpt lat="34.9629762" lon="33.4144597"><ele>257.9</ele><time>2015-05-01T12:44:33.0000000+00:00</time></trkpt><trkpt lat="34.9629584" lon="33.4145199"><ele>257.9</ele><time>2015-05-01T12:44:34.0000000+00:00</time></trkpt><trkpt lat="34.9629512" lon="33.4145949"><ele>258.3</ele><time>2015-05-01T12:44:36.0000000+00:00</time></trkpt><trkpt lat="34.9629751" lon="33.4146572"><ele>258.1</ele><time>2015-05-01T12:44:38.0000000+00:00</time></trkpt><trkpt lat="34.9630271" lon="33.4146746"><ele>256.8</ele><time>2015-05-01T12:44:45.0000000+00:00</time></trkpt><trkpt lat="34.963078" lon="33.414638"><ele>256.5</ele><time>2015-05-01T12:44:47.0000000+00:00</time></trkpt><trkpt lat="34.9631323" lon="33.4145904"><ele>255.4</ele><time>2015-05-01T12:44:49.0000000+00:00</time></trkpt><trkpt lat="34.9631908" lon="33.4145442"><ele>255.1</ele><time>2015-05-01T12:44:51.0000000+00:00</time></trkpt><trkpt lat="34.9632642" lon="33.414498"><ele>255.8</ele><time>2015-05-01T12:44:53.0000000+00:00</time></trkpt><trkpt lat="34.9633231" lon="33.4144514"><ele>255.4</ele><time>2015-05-01T12:44:54.0000000+00:00</time></trkpt><trkpt lat="34.9633676" lon="33.4144149"><ele>255.7</ele><time>2015-05-01T12:44:55.0000000+00:00</time></trkpt><trkpt lat="34.9634183" lon="33.41438"><ele>255.4</ele><time>2015-05-01T12:44:56.0000000+00:00</time></trkpt><trkpt lat="34.963461" lon="33.4143426"><ele>255.2</ele><time>2015-05-01T12:44:57.0000000+00:00</time></trkpt><trkpt lat="34.9635067" lon="33.4143103"><ele>254.6</ele><time>2015-05-01T12:44:58.0000000+00:00</time></trkpt><trkpt lat="34.9635518" lon="33.4142723"><ele>254.3</ele><time>2015-05-01T12:44:59.0000000+00:00</time></trkpt><trkpt lat="34.9636008" lon="33.4142239"><ele>254.2</ele><time>2015-05-01T12:45:00.0000000+00:00</time></trkpt><trkpt lat="34.9636452" lon="33.4141837"><ele>254.1</ele><time>2015-05-01T12:45:01.0000000+00:00</time></trkpt><trkpt lat="34.9636911" lon="33.4141494"><ele>253.6</ele><time>2015-05-01T12:45:02.0000000+00:00</time></trkpt><trkpt lat="34.9637358" lon="33.4141163"><ele>253.3</ele><time>2015-05-01T12:45:03.0000000+00:00</time></trkpt><trkpt lat="34.9637893" lon="33.4140743"><ele>252.7</ele><time>2015-05-01T12:45:04.0000000+00:00</time></trkpt><trkpt lat="34.9638402" lon="33.4140377"><ele>251.8</ele><time>2015-05-01T12:45:05.0000000+00:00</time></trkpt><trkpt lat="34.9638861" lon="33.4140071"><ele>251.4</ele><time>2015-05-01T12:45:06.0000000+00:00</time></trkpt><trkpt lat="34.9639336" lon="33.413969"><ele>251.7</ele><time>2015-05-01T12:45:07.0000000+00:00</time></trkpt><trkpt lat="34.9639815" lon="33.4139287"><ele>251.9</ele><time>2015-05-01T12:45:08.0000000+00:00</time></trkpt><trkpt lat="34.964036" lon="33.4138878"><ele>251.9</ele><time>2015-05-01T12:45:09.0000000+00:00</time></trkpt><trkpt lat="34.9640872" lon="33.4138529"><ele>252.0</ele><time>2015-05-01T12:45:10.0000000+00:00</time></trkpt><trkpt lat="34.9641363" lon="33.4138241"><ele>252.0</ele><time>2015-05-01T12:45:11.0000000+00:00</time></trkpt><trkpt lat="34.964191" lon="33.4137897"><ele>251.5</ele><time>2015-05-01T12:45:12.0000000+00:00</time></trkpt><trkpt lat="34.9642451" lon="33.4137515"><ele>251.3</ele><time>2015-05-01T12:45:13.0000000+00:00</time></trkpt><trkpt lat="34.9642934" lon="33.4137185"><ele>250.6</ele><time>2015-05-01T12:45:14.0000000+00:00</time></trkpt><trkpt lat="34.9643437" lon="33.4136804"><ele>251.3</ele><time>2015-05-01T12:45:15.0000000+00:00</time></trkpt><trkpt lat="34.9644004" lon="33.4136524"><ele>251.7</ele><time>2015-05-01T12:45:16.0000000+00:00</time></trkpt><trkpt lat="34.9644533" lon="33.413608"><ele>251.3</ele><time>2015-05-01T12:45:17.0000000+00:00</time></trkpt><trkpt lat="34.9645012" lon="33.4135737"><ele>251.2</ele><time>2015-05-01T12:45:18.0000000+00:00</time></trkpt><trkpt lat="34.9645576" lon="33.41353"><ele>251.1</ele><time>2015-05-01T12:45:19.0000000+00:00</time></trkpt><trkpt lat="34.9646162" lon="33.4134863"><ele>251.6</ele><time>2015-05-01T12:45:20.0000000+00:00</time></trkpt><trkpt lat="34.9646784" lon="33.4134423"><ele>251.3</ele><time>2015-05-01T12:45:21.0000000+00:00</time></trkpt><trkpt lat="34.9647332" lon="33.4133975"><ele>251.2</ele><time>2015-05-01T12:45:22.0000000+00:00</time></trkpt><trkpt lat="34.9647877" lon="33.4133476"><ele>251.1</ele><time>2015-05-01T12:45:23.0000000+00:00</time></trkpt><trkpt lat="34.96485" lon="33.4132988"><ele>250.6</ele><time>2015-05-01T12:45:24.0000000+00:00</time></trkpt><trkpt lat="34.9649136" lon="33.4132569"><ele>249.8</ele><time>2015-05-01T12:45:25.0000000+00:00</time></trkpt><trkpt lat="34.9649716" lon="33.4132109"><ele>248.9</ele><time>2015-05-01T12:45:26.0000000+00:00</time></trkpt><trkpt lat="34.9650333" lon="33.4131738"><ele>248.5</ele><time>2015-05-01T12:45:27.0000000+00:00</time></trkpt><trkpt lat="34.9650901" lon="33.4131308"><ele>248.2</ele><time>2015-05-01T12:45:28.0000000+00:00</time></trkpt><trkpt lat="34.9651468" lon="33.4130906"><ele>248.1</ele><time>2015-05-01T12:45:29.0000000+00:00</time></trkpt><trkpt lat="34.9652048" lon="33.4130513"><ele>248.6</ele><time>2015-05-01T12:45:30.0000000+00:00</time></trkpt><trkpt lat="34.9652704" lon="33.4130076"><ele>248.3</ele><time>2015-05-01T12:45:31.0000000+00:00</time></trkpt><trkpt lat="34.9653366" lon="33.4129621"><ele>247.7</ele><time>2015-05-01T12:45:32.0000000+00:00</time></trkpt><trkpt lat="34.9654021" lon="33.4129189"><ele>247.3</ele><time>2015-05-01T12:45:33.0000000+00:00</time></trkpt><trkpt lat="34.9654652" lon="33.4128778"><ele>246.7</ele><time>2015-05-01T12:45:34.0000000+00:00</time></trkpt><trkpt lat="34.9655295" lon="33.4128339"><ele>246.9</ele><time>2015-05-01T12:45:35.0000000+00:00</time></trkpt><trkpt lat="34.9655922" lon="33.4127967"><ele>246.9</ele><time>2015-05-01T12:45:36.0000000+00:00</time></trkpt><trkpt lat="34.9656655" lon="33.4127595"><ele>247.5</ele><time>2015-05-01T12:45:37.0000000+00:00</time></trkpt><trkpt lat="34.9657291" lon="33.4127156"><ele>247.7</ele><time>2015-05-01T12:45:38.0000000+00:00</time></trkpt><trkpt lat="34.9657981" lon="33.4126724"><ele>247.9</ele><time>2015-05-01T12:45:39.0000000+00:00</time></trkpt><trkpt lat="34.9658645" lon="33.4126393"><ele>248.0</ele><time>2015-05-01T12:45:40.0000000+00:00</time></trkpt><trkpt lat="34.9659276" lon="33.4126016"><ele>247.5</ele><time>2015-05-01T12:45:41.0000000+00:00</time></trkpt><trkpt lat="34.9659918" lon="33.4125695"><ele>247.3</ele><time>2015-05-01T12:45:42.0000000+00:00</time></trkpt><trkpt lat="34.966059" lon="33.4125489"><ele>248.1</ele><time>2015-05-01T12:45:43.0000000+00:00</time></trkpt><trkpt lat="34.96613" lon="33.4125218"><ele>248.6</ele><time>2015-05-01T12:45:44.0000000+00:00</time></trkpt><trkpt lat="34.9662022" lon="33.4125019"><ele>248.3</ele><time>2015-05-01T12:45:45.0000000+00:00</time></trkpt><trkpt lat="34.966271" lon="33.41247"><ele>248.7</ele><time>2015-05-01T12:45:46.0000000+00:00</time></trkpt><trkpt lat="34.9663302" lon="33.4124536"><ele>248.3</ele><time>2015-05-01T12:45:47.0000000+00:00</time></trkpt><trkpt lat="34.9663988" lon="33.4124363"><ele>248.2</ele><time>2015-05-01T12:45:48.0000000+00:00</time></trkpt><trkpt lat="34.9664612" lon="33.412423"><ele>248.1</ele><time>2015-05-01T12:45:49.0000000+00:00</time></trkpt><trkpt lat="34.9665281" lon="33.4124059"><ele>247.6</ele><time>2015-05-01T12:45:50.0000000+00:00</time></trkpt><trkpt lat="34.9665942" lon="33.4123954"><ele>246.8</ele><time>2015-05-01T12:45:51.0000000+00:00</time></trkpt><trkpt lat="34.9666586" lon="33.4123847"><ele>246.4</ele><time>2015-05-01T12:45:52.0000000+00:00</time></trkpt><trkpt lat="34.9667214" lon="33.4123828"><ele>246.2</ele><time>2015-05-01T12:45:53.0000000+00:00</time></trkpt><trkpt lat="34.9667957" lon="33.4123808"><ele>246.6</ele><time>2015-05-01T12:45:54.0000000+00:00</time></trkpt><trkpt lat="34.966857" lon="33.4123715"><ele>246.8</ele><time>2015-05-01T12:45:55.0000000+00:00</time></trkpt><trkpt lat="34.9669353" lon="33.4123677"><ele>246.4</ele><time>2015-05-01T12:45:56.0000000+00:00</time></trkpt><trkpt lat="34.967002" lon="33.4123564"><ele>246.2</ele><time>2015-05-01T12:45:57.0000000+00:00</time></trkpt><trkpt lat="34.9670756" lon="33.4123484"><ele>245.6</ele><time>2015-05-01T12:45:58.0000000+00:00</time></trkpt><trkpt lat="34.9671415" lon="33.412342"><ele>244.8</ele><time>2015-05-01T12:45:59.0000000+00:00</time></trkpt><trkpt lat="34.9672115" lon="33.4123317"><ele>243.9</ele><time>2015-05-01T12:46:00.0000000+00:00</time></trkpt><trkpt lat="34.9672712" lon="33.4123275"><ele>244.0</ele><time>2015-05-01T12:46:01.0000000+00:00</time></trkpt><trkpt lat="34.9673325" lon="33.4123329"><ele>245.0</ele><time>2015-05-01T12:46:02.0000000+00:00</time></trkpt><trkpt lat="34.9673992" lon="33.4123329"><ele>246.0</ele><time>2015-05-01T12:46:03.0000000+00:00</time></trkpt><trkpt lat="34.9674652" lon="33.4123245"><ele>246.5</ele><time>2015-05-01T12:46:04.0000000+00:00</time></trkpt><trkpt lat="34.9675405" lon="33.4123207"><ele>246.8</ele><time>2015-05-01T12:46:05.0000000+00:00</time></trkpt><trkpt lat="34.9676054" lon="33.4123226"><ele>246.9</ele><time>2015-05-01T12:46:06.0000000+00:00</time></trkpt><trkpt lat="34.9676679" lon="33.4123232"><ele>246.5</ele><time>2015-05-01T12:46:07.0000000+00:00</time></trkpt><trkpt lat="34.9677349" lon="33.412322"><ele>245.7</ele><time>2015-05-01T12:46:08.0000000+00:00</time></trkpt><trkpt lat="34.9678016" lon="33.4123112"><ele>245.9</ele><time>2015-05-01T12:46:09.0000000+00:00</time></trkpt><trkpt lat="34.9678695" lon="33.4123113"><ele>245.5</ele><time>2015-05-01T12:46:10.0000000+00:00</time></trkpt><trkpt lat="34.9679373" lon="33.4123056"><ele>246.2</ele><time>2015-05-01T12:46:11.0000000+00:00</time></trkpt><trkpt lat="34.9680095" lon="33.4123028"><ele>246.6</ele><time>2015-05-01T12:46:12.0000000+00:00</time></trkpt><trkpt lat="34.9680842" lon="33.412316"><ele>246.8</ele><time>2015-05-01T12:46:13.0000000+00:00</time></trkpt><trkpt lat="34.9681512" lon="33.4123111"><ele>246.4</ele><time>2015-05-01T12:46:14.0000000+00:00</time></trkpt><trkpt lat="34.9682118" lon="33.4123038"><ele>245.7</ele><time>2015-05-01T12:46:15.0000000+00:00</time></trkpt><trkpt lat="34.9682806" lon="33.4123042"><ele>245.9</ele><time>2015-05-01T12:46:16.0000000+00:00</time></trkpt><trkpt lat="34.9683424" lon="33.4122958"><ele>245.9</ele><time>2015-05-01T12:46:17.0000000+00:00</time></trkpt><trkpt lat="34.9684002" lon="33.4122903"><ele>246.5</ele><time>2015-05-01T12:46:18.0000000+00:00</time></trkpt><trkpt lat="34.9684612" lon="33.412296"><ele>246.3</ele><time>2015-05-01T12:46:19.0000000+00:00</time></trkpt><trkpt lat="34.9685299" lon="33.4123"><ele>246.1</ele><time>2015-05-01T12:46:20.0000000+00:00</time></trkpt><trkpt lat="34.9685854" lon="33.4122832"><ele>246.1</ele><time>2015-05-01T12:46:21.0000000+00:00</time></trkpt><trkpt lat="34.9686464" lon="33.4122859"><ele>246.5</ele><time>2015-05-01T12:46:22.0000000+00:00</time></trkpt><trkpt lat="34.9687102" lon="33.4122907"><ele>246.8</ele><time>2015-05-01T12:46:23.0000000+00:00</time></trkpt><trkpt lat="34.968767" lon="33.412288"><ele>246.9</ele><time>2015-05-01T12:46:24.0000000+00:00</time></trkpt><trkpt lat="34.9688246" lon="33.4122888"><ele>247.5</ele><time>2015-05-01T12:46:25.0000000+00:00</time></trkpt><trkpt lat="34.9688814" lon="33.4122867"><ele>247.2</ele><time>2015-05-01T12:46:26.0000000+00:00</time></trkpt><trkpt lat="34.9689311" lon="33.4122835"><ele>246.6</ele><time>2015-05-01T12:46:27.0000000+00:00</time></trkpt><trkpt lat="34.9689846" lon="33.4122831"><ele>245.8</ele><time>2015-05-01T12:46:28.0000000+00:00</time></trkpt><trkpt lat="34.9690352" lon="33.4122882"><ele>245.4</ele><time>2015-05-01T12:46:29.0000000+00:00</time></trkpt><trkpt lat="34.9690917" lon="33.4122891"><ele>244.7</ele><time>2015-05-01T12:46:30.0000000+00:00</time></trkpt><trkpt lat="34.9691433" lon="33.4122903"><ele>244.9</ele><time>2015-05-01T12:46:31.0000000+00:00</time></trkpt><trkpt lat="34.9691964" lon="33.4122829"><ele>244.4</ele><time>2015-05-01T12:46:32.0000000+00:00</time></trkpt><trkpt lat="34.9692455" lon="33.4122762"><ele>244.2</ele><time>2015-05-01T12:46:33.0000000+00:00</time></trkpt><trkpt lat="34.969299" lon="33.4122752"><ele>244.6</ele><time>2015-05-01T12:46:34.0000000+00:00</time></trkpt><trkpt lat="34.9693516" lon="33.4122681"><ele>244.8</ele><time>2015-05-01T12:46:35.0000000+00:00</time></trkpt><trkpt lat="34.9694075" lon="33.4122652"><ele>245.4</ele><time>2015-05-01T12:46:36.0000000+00:00</time></trkpt><trkpt lat="34.9694615" lon="33.4122577"><ele>245.2</ele><time>2015-05-01T12:46:37.0000000+00:00</time></trkpt><trkpt lat="34.9695156" lon="33.4122552"><ele>246.1</ele><time>2015-05-01T12:46:38.0000000+00:00</time></trkpt><trkpt lat="34.9695775" lon="33.4122554"><ele>247.1</ele><time>2015-05-01T12:46:39.0000000+00:00</time></trkpt><trkpt lat="34.9696371" lon="33.4122485"><ele>247.0</ele><time>2015-05-01T12:46:40.0000000+00:00</time></trkpt><trkpt lat="34.9696964" lon="33.41224"><ele>247.0</ele><time>2015-05-01T12:46:41.0000000+00:00</time></trkpt><trkpt lat="34.9697522" lon="33.412243"><ele>246.5</ele><time>2015-05-01T12:46:42.0000000+00:00</time></trkpt><trkpt lat="34.9698075" lon="33.4122436"><ele>245.8</ele><time>2015-05-01T12:46:43.0000000+00:00</time></trkpt><trkpt lat="34.9698644" lon="33.4122439"><ele>245.4</ele><time>2015-05-01T12:46:44.0000000+00:00</time></trkpt><trkpt lat="34.9699184" lon="33.4122468"><ele>245.2</ele><time>2015-05-01T12:46:45.0000000+00:00</time></trkpt><trkpt lat="34.9699779" lon="33.4122489"><ele>244.6</ele><time>2015-05-01T12:46:46.0000000+00:00</time></trkpt><trkpt lat="34.9700312" lon="33.4122419"><ele>243.3</ele><time>2015-05-01T12:46:47.0000000+00:00</time></trkpt><trkpt lat="34.9700856" lon="33.4122333"><ele>242.7</ele><time>2015-05-01T12:46:48.0000000+00:00</time></trkpt><trkpt lat="34.970147" lon="33.4122365"><ele>242.3</ele><time>2015-05-01T12:46:49.0000000+00:00</time></trkpt><trkpt lat="34.9702073" lon="33.412236"><ele>242.2</ele><time>2015-05-01T12:46:50.0000000+00:00</time></trkpt><trkpt lat="34.970266" lon="33.4122351"><ele>242.1</ele><time>2015-05-01T12:46:51.0000000+00:00</time></trkpt><trkpt lat="34.970328" lon="33.4122323"><ele>241.6</ele><time>2015-05-01T12:46:52.0000000+00:00</time></trkpt><trkpt lat="34.9704" lon="33.4122407"><ele>242.3</ele><time>2015-05-01T12:46:53.0000000+00:00</time></trkpt><trkpt lat="34.9704685" lon="33.412235"><ele>242.2</ele><time>2015-05-01T12:46:54.0000000+00:00</time></trkpt><trkpt lat="34.9705375" lon="33.4122322"><ele>242.6</ele><time>2015-05-01T12:46:55.0000000+00:00</time></trkpt><trkpt lat="34.9706155" lon="33.4122374"><ele>242.8</ele><time>2015-05-01T12:46:56.0000000+00:00</time></trkpt><trkpt lat="34.9706844" lon="33.4122302"><ele>242.4</ele><time>2015-05-01T12:46:57.0000000+00:00</time></trkpt><trkpt lat="34.9707648" lon="33.4122315"><ele>241.7</ele><time>2015-05-01T12:46:58.0000000+00:00</time></trkpt><trkpt lat="34.9708302" lon="33.4122262"><ele>241.4</ele><time>2015-05-01T12:46:59.0000000+00:00</time></trkpt><trkpt lat="34.9709081" lon="33.4122345"><ele>241.7</ele><time>2015-05-01T12:47:00.0000000+00:00</time></trkpt><trkpt lat="34.9709697" lon="33.4122361"><ele>241.9</ele><time>2015-05-01T12:47:01.0000000+00:00</time></trkpt><trkpt lat="34.9710342" lon="33.4122345"><ele>240.9</ele><time>2015-05-01T12:47:02.0000000+00:00</time></trkpt><trkpt lat="34.9710942" lon="33.4122359"><ele>240.5</ele><time>2015-05-01T12:47:03.0000000+00:00</time></trkpt><trkpt lat="34.9711539" lon="33.4122344"><ele>238.8</ele><time>2015-05-01T12:47:04.0000000+00:00</time></trkpt><trkpt lat="34.9712144" lon="33.4122313"><ele>236.9</ele><time>2015-05-01T12:47:05.0000000+00:00</time></trkpt><trkpt lat="34.9712698" lon="33.4122318"><ele>235.0</ele><time>2015-05-01T12:47:06.0000000+00:00</time></trkpt><trkpt lat="34.97135" lon="33.412232"><ele>235.0</ele><time>2015-05-01T12:47:07.0000000+00:00</time></trkpt><trkpt lat="34.971417" lon="33.4122222"><ele>234.0</ele><time>2015-05-01T12:47:08.0000000+00:00</time></trkpt><trkpt lat="34.9714812" lon="33.4122165"><ele>233.5</ele><time>2015-05-01T12:47:09.0000000+00:00</time></trkpt><trkpt lat="34.9715446" lon="33.4122258"><ele>232.3</ele><time>2015-05-01T12:47:10.0000000+00:00</time></trkpt><trkpt lat="34.971612" lon="33.4122205"><ele>232.1</ele><time>2015-05-01T12:47:11.0000000+00:00</time></trkpt><trkpt lat="34.9716848" lon="33.4122102"><ele>232.1</ele><time>2015-05-01T12:47:12.0000000+00:00</time></trkpt><trkpt lat="34.9717554" lon="33.4122036"><ele>232.6</ele><time>2015-05-01T12:47:13.0000000+00:00</time></trkpt><trkpt lat="34.9718215" lon="33.4122098"><ele>232.8</ele><time>2015-05-01T12:47:14.0000000+00:00</time></trkpt><trkpt lat="34.9718838" lon="33.412204"><ele>233.4</ele><time>2015-05-01T12:47:15.0000000+00:00</time></trkpt><trkpt lat="34.9719489" lon="33.4122056"><ele>234.7</ele><time>2015-05-01T12:47:16.0000000+00:00</time></trkpt><trkpt lat="34.972007" lon="33.4122134"><ele>235.4</ele><time>2015-05-01T12:47:17.0000000+00:00</time></trkpt><trkpt lat="34.9720638" lon="33.4122157"><ele>235.2</ele><time>2015-05-01T12:47:18.0000000+00:00</time></trkpt><trkpt lat="34.972122" lon="33.4122134"><ele>235.1</ele><time>2015-05-01T12:47:19.0000000+00:00</time></trkpt><trkpt lat="34.9721875" lon="33.412208"><ele>235.6</ele><time>2015-05-01T12:47:20.0000000+00:00</time></trkpt><trkpt lat="34.9722444" lon="33.4122032"><ele>235.8</ele><time>2015-05-01T12:47:21.0000000+00:00</time></trkpt><trkpt lat="34.9723116" lon="33.4122178"><ele>235.4</ele><time>2015-05-01T12:47:22.0000000+00:00</time></trkpt><trkpt lat="34.9723707" lon="33.4122113"><ele>234.7</ele><time>2015-05-01T12:47:23.0000000+00:00</time></trkpt><trkpt lat="34.9724298" lon="33.412209"><ele>233.9</ele><time>2015-05-01T12:47:24.0000000+00:00</time></trkpt><trkpt lat="34.9724913" lon="33.4122109"><ele>233.4</ele><time>2015-05-01T12:47:25.0000000+00:00</time></trkpt><trkpt lat="34.9725572" lon="33.4122011"><ele>233.2</ele><time>2015-05-01T12:47:26.0000000+00:00</time></trkpt><trkpt lat="34.9726159" lon="33.412196"><ele>233.6</ele><time>2015-05-01T12:47:27.0000000+00:00</time></trkpt><trkpt lat="34.9726898" lon="33.4121971"><ele>234.3</ele><time>2015-05-01T12:47:28.0000000+00:00</time></trkpt><trkpt lat="34.9727578" lon="33.4121926"><ele>235.2</ele><time>2015-05-01T12:47:29.0000000+00:00</time></trkpt><trkpt lat="34.9728219" lon="33.4121881"><ele>235.6</ele><time>2015-05-01T12:47:30.0000000+00:00</time></trkpt><trkpt lat="34.9728765" lon="33.41219"><ele>235.8</ele><time>2015-05-01T12:47:31.0000000+00:00</time></trkpt><trkpt lat="34.9729385" lon="33.41219"><ele>236.4</ele><time>2015-05-01T12:47:32.0000000+00:00</time></trkpt><trkpt lat="34.9730046" lon="33.4121883"><ele>236.7</ele><time>2015-05-01T12:47:33.0000000+00:00</time></trkpt><trkpt lat="34.973062" lon="33.4121816"><ele>237.4</ele><time>2015-05-01T12:47:34.0000000+00:00</time></trkpt><trkpt lat="34.9731219" lon="33.4121758"><ele>238.2</ele><time>2015-05-01T12:47:35.0000000+00:00</time></trkpt><trkpt lat="34.9731775" lon="33.4121815"><ele>238.6</ele><time>2015-05-01T12:47:36.0000000+00:00</time></trkpt><trkpt lat="34.9732281" lon="33.4121798"><ele>238.8</ele><time>2015-05-01T12:47:37.0000000+00:00</time></trkpt><trkpt lat="34.9732802" lon="33.4121868"><ele>238.9</ele><time>2015-05-01T12:47:38.0000000+00:00</time></trkpt><trkpt lat="34.9733289" lon="33.4121858"><ele>239.5</ele><time>2015-05-01T12:47:39.0000000+00:00</time></trkpt><trkpt lat="34.9733768" lon="33.4121866"><ele>239.7</ele><time>2015-05-01T12:47:40.0000000+00:00</time></trkpt><trkpt lat="34.973426" lon="33.4121838"><ele>239.9</ele><time>2015-05-01T12:47:41.0000000+00:00</time></trkpt><trkpt lat="34.97348" lon="33.4121898"><ele>240.5</ele><time>2015-05-01T12:47:42.0000000+00:00</time></trkpt><trkpt lat="34.9735243" lon="33.412204"><ele>240.7</ele><time>2015-05-01T12:47:43.0000000+00:00</time></trkpt><trkpt lat="34.9736158" lon="33.412216"><ele>241.4</ele><time>2015-05-01T12:47:45.0000000+00:00</time></trkpt><trkpt lat="34.973665" lon="33.412217"><ele>241.7</ele><time>2015-05-01T12:47:46.0000000+00:00</time></trkpt><trkpt lat="34.9737564" lon="33.4122289"><ele>242.7</ele><time>2015-05-01T12:47:48.0000000+00:00</time></trkpt><trkpt lat="34.973803" lon="33.4122269"><ele>242.9</ele><time>2015-05-01T12:47:49.0000000+00:00</time></trkpt><trkpt lat="34.9738508" lon="33.4122324"><ele>242.9</ele><time>2015-05-01T12:47:50.0000000+00:00</time></trkpt><trkpt lat="34.9739339" lon="33.4122492"><ele>244.3</ele><time>2015-05-01T12:47:52.0000000+00:00</time></trkpt><trkpt lat="34.9740104" lon="33.41226"><ele>245.3</ele><time>2015-05-01T12:47:54.0000000+00:00</time></trkpt><trkpt lat="34.974077" lon="33.4122841"><ele>245.1</ele><time>2015-05-01T12:47:56.0000000+00:00</time></trkpt><trkpt lat="34.9741497" lon="33.4123029"><ele>245.5</ele><time>2015-05-01T12:47:58.0000000+00:00</time></trkpt><trkpt lat="34.9742311" lon="33.4123238"><ele>245.4</ele><time>2015-05-01T12:48:00.0000000+00:00</time></trkpt><trkpt lat="34.9743054" lon="33.4123378"><ele>245.1</ele><time>2015-05-01T12:48:02.0000000+00:00</time></trkpt><trkpt lat="34.9743771" lon="33.412357"><ele>245.0</ele><time>2015-05-01T12:48:04.0000000+00:00</time></trkpt><trkpt lat="34.9744396" lon="33.4123811"><ele>244.3</ele><time>2015-05-01T12:48:06.0000000+00:00</time></trkpt><trkpt lat="34.9744992" lon="33.4124021"><ele>244.1</ele><time>2015-05-01T12:48:08.0000000+00:00</time></trkpt><trkpt lat="34.9745623" lon="33.4124161"><ele>244.0</ele><time>2015-05-01T12:48:10.0000000+00:00</time></trkpt><trkpt lat="34.9746269" lon="33.4124336"><ele>244.0</ele><time>2015-05-01T12:48:12.0000000+00:00</time></trkpt><trkpt lat="34.9746925" lon="33.4124558"><ele>244.8</ele><time>2015-05-01T12:48:14.0000000+00:00</time></trkpt><trkpt lat="34.9747927" lon="33.4124804"><ele>245.0</ele><time>2015-05-01T12:48:16.0000000+00:00</time></trkpt><trkpt lat="34.9748871" lon="33.4125003"><ele>245.0</ele><time>2015-05-01T12:48:18.0000000+00:00</time></trkpt><trkpt lat="34.9749359" lon="33.4125105"><ele>246.0</ele><time>2015-05-01T12:48:19.0000000+00:00</time></trkpt><trkpt lat="34.9749906" lon="33.412526"><ele>246.5</ele><time>2015-05-01T12:48:20.0000000+00:00</time></trkpt><trkpt lat="34.9750434" lon="33.4125446"><ele>246.8</ele><time>2015-05-01T12:48:21.0000000+00:00</time></trkpt><trkpt lat="34.9751021" lon="33.412557"><ele>246.9</ele><time>2015-05-01T12:48:22.0000000+00:00</time></trkpt><trkpt lat="34.9751543" lon="33.4125664"><ele>247.5</ele><time>2015-05-01T12:48:23.0000000+00:00</time></trkpt><trkpt lat="34.9752147" lon="33.4125855"><ele>247.7</ele><time>2015-05-01T12:48:24.0000000+00:00</time></trkpt><trkpt lat="34.9752741" lon="33.4125998"><ele>247.4</ele><time>2015-05-01T12:48:25.0000000+00:00</time></trkpt><trkpt lat="34.9753327" lon="33.4126179"><ele>247.2</ele><time>2015-05-01T12:48:26.0000000+00:00</time></trkpt><trkpt lat="34.975388" lon="33.4126273"><ele>247.6</ele><time>2015-05-01T12:48:27.0000000+00:00</time></trkpt><trkpt lat="34.9754399" lon="33.4126377"><ele>247.8</ele><time>2015-05-01T12:48:28.0000000+00:00</time></trkpt><trkpt lat="34.9754907" lon="33.4126504"><ele>247.4</ele><time>2015-05-01T12:48:29.0000000+00:00</time></trkpt><trkpt lat="34.9755448" lon="33.4126524"><ele>247.2</ele><time>2015-05-01T12:48:30.0000000+00:00</time></trkpt><trkpt lat="34.9755914" lon="33.4126534"><ele>247.1</ele><time>2015-05-01T12:48:31.0000000+00:00</time></trkpt><trkpt lat="34.9756477" lon="33.4126482"><ele>247.6</ele><time>2015-05-01T12:48:32.0000000+00:00</time></trkpt><trkpt lat="34.9757083" lon="33.4126464"><ele>247.3</ele><time>2015-05-01T12:48:33.0000000+00:00</time></trkpt><trkpt lat="34.975775" lon="33.412652"><ele>247.7</ele><time>2015-05-01T12:48:34.0000000+00:00</time></trkpt><trkpt lat="34.9758243" lon="33.4126478"><ele>247.3</ele><time>2015-05-01T12:48:35.0000000+00:00</time></trkpt><trkpt lat="34.9758786" lon="33.4126459"><ele>247.2</ele><time>2015-05-01T12:48:36.0000000+00:00</time></trkpt><trkpt lat="34.9759335" lon="33.4126408"><ele>246.6</ele><time>2015-05-01T12:48:37.0000000+00:00</time></trkpt><trkpt lat="34.9759817" lon="33.4126304"><ele>246.3</ele><time>2015-05-01T12:48:38.0000000+00:00</time></trkpt><trkpt lat="34.9760317" lon="33.4126167"><ele>245.7</ele><time>2015-05-01T12:48:39.0000000+00:00</time></trkpt><trkpt lat="34.9760828" lon="33.4126021"><ele>244.8</ele><time>2015-05-01T12:48:40.0000000+00:00</time></trkpt><trkpt lat="34.976134" lon="33.4125917"><ele>244.4</ele><time>2015-05-01T12:48:41.0000000+00:00</time></trkpt><trkpt lat="34.9761784" lon="33.4125806"><ele>243.2</ele><time>2015-05-01T12:48:42.0000000+00:00</time></trkpt><trkpt lat="34.9762281" lon="33.4125672"><ele>242.6</ele><time>2015-05-01T12:48:43.0000000+00:00</time></trkpt><trkpt lat="34.976278" lon="33.4125538"><ele>241.8</ele><time>2015-05-01T12:48:44.0000000+00:00</time></trkpt><trkpt lat="34.9763458" lon="33.4125448"><ele>241.9</ele><time>2015-05-01T12:48:45.0000000+00:00</time></trkpt><trkpt lat="34.9763952" lon="33.412531"><ele>242.0</ele><time>2015-05-01T12:48:46.0000000+00:00</time></trkpt><trkpt lat="34.9764926" lon="33.4125125"><ele>242.0</ele><time>2015-05-01T12:48:48.0000000+00:00</time></trkpt><trkpt lat="34.9765837" lon="33.4125093"><ele>242.8</ele><time>2015-05-01T12:48:50.0000000+00:00</time></trkpt><trkpt lat="34.976664" lon="33.4124761"><ele>244.2</ele><time>2015-05-01T12:48:52.0000000+00:00</time></trkpt><trkpt lat="34.9767333" lon="33.4124418"><ele>244.3</ele><time>2015-05-01T12:48:54.0000000+00:00</time></trkpt><trkpt lat="34.9767997" lon="33.4124086"><ele>243.3</ele><time>2015-05-01T12:48:56.0000000+00:00</time></trkpt><trkpt lat="34.9768787" lon="33.4123953"><ele>242.4</ele><time>2015-05-01T12:48:58.0000000+00:00</time></trkpt><trkpt lat="34.9769603" lon="33.412372"><ele>242.6</ele><time>2015-05-01T12:49:00.0000000+00:00</time></trkpt><trkpt lat="34.9770372" lon="33.4123506"><ele>243.4</ele><time>2015-05-01T12:49:02.0000000+00:00</time></trkpt><trkpt lat="34.9771162" lon="33.4123278"><ele>244.6</ele><time>2015-05-01T12:49:04.0000000+00:00</time></trkpt><trkpt lat="34.977198" lon="33.4123061"><ele>245.9</ele><time>2015-05-01T12:49:06.0000000+00:00</time></trkpt><trkpt lat="34.9772802" lon="33.412283"><ele>246.7</ele><time>2015-05-01T12:49:08.0000000+00:00</time></trkpt><trkpt lat="34.977358" lon="33.4122583"><ele>247.5</ele><time>2015-05-01T12:49:10.0000000+00:00</time></trkpt><trkpt lat="34.9774351" lon="33.4122326"><ele>247.4</ele><time>2015-05-01T12:49:12.0000000+00:00</time></trkpt><trkpt lat="34.9775055" lon="33.4122116"><ele>247.1</ele><time>2015-05-01T12:49:14.0000000+00:00</time></trkpt><trkpt lat="34.977574" lon="33.4121969"><ele>246.3</ele><time>2015-05-01T12:49:16.0000000+00:00</time></trkpt><trkpt lat="34.9776435" lon="33.4121843"><ele>246.6</ele><time>2015-05-01T12:49:18.0000000+00:00</time></trkpt><trkpt lat="34.9777162" lon="33.4121707"><ele>246.4</ele><time>2015-05-01T12:49:20.0000000+00:00</time></trkpt><trkpt lat="34.9777886" lon="33.4121608"><ele>244.6</ele><time>2015-05-01T12:49:22.0000000+00:00</time></trkpt><trkpt lat="34.977853" lon="33.4121526"><ele>245.4</ele><time>2015-05-01T12:49:24.0000000+00:00</time></trkpt><trkpt lat="34.977909" lon="33.4121472"><ele>246.9</ele><time>2015-05-01T12:49:26.0000000+00:00</time></trkpt><trkpt lat="34.9779673" lon="33.4121379"><ele>248.2</ele><time>2015-05-01T12:49:28.0000000+00:00</time></trkpt><trkpt lat="34.9780234" lon="33.412127"><ele>249.6</ele><time>2015-05-01T12:49:30.0000000+00:00</time></trkpt><trkpt lat="34.978068" lon="33.4121168"><ele>250.7</ele><time>2015-05-01T12:49:32.0000000+00:00</time></trkpt><trkpt lat="34.9781326" lon="33.4121092"><ele>251.6</ele><time>2015-05-01T12:49:35.0000000+00:00</time></trkpt><trkpt lat="34.9781891" lon="33.4121078"><ele>251.9</ele><time>2015-05-01T12:49:37.0000000+00:00</time></trkpt><trkpt lat="34.9782536" lon="33.4121021"><ele>252.7</ele><time>2015-05-01T12:49:39.0000000+00:00</time></trkpt><trkpt lat="34.9783261" lon="33.4120936"><ele>253.0</ele><time>2015-05-01T12:49:41.0000000+00:00</time></trkpt><trkpt lat="34.9784026" lon="33.4120863"><ele>253.0</ele><time>2015-05-01T12:49:43.0000000+00:00</time></trkpt><trkpt lat="34.978482" lon="33.412076"><ele>253.0</ele><time>2015-05-01T12:49:45.0000000+00:00</time></trkpt><trkpt lat="34.9785557" lon="33.4120675"><ele>253.0</ele><time>2015-05-01T12:49:47.0000000+00:00</time></trkpt><trkpt lat="34.9786302" lon="33.4120639"><ele>253.0</ele><time>2015-05-01T12:49:49.0000000+00:00</time></trkpt><trkpt lat="34.9787015" lon="33.4120607"><ele>253.0</ele><time>2015-05-01T12:49:51.0000000+00:00</time></trkpt><trkpt lat="34.9787734" lon="33.4120542"><ele>253.5</ele><time>2015-05-01T12:49:53.0000000+00:00</time></trkpt><trkpt lat="34.9788379" lon="33.4120482"><ele>253.4</ele><time>2015-05-01T12:49:55.0000000+00:00</time></trkpt><trkpt lat="34.9788867" lon="33.4120393"><ele>253.1</ele><time>2015-05-01T12:49:57.0000000+00:00</time></trkpt><trkpt lat="34.9789487" lon="33.412034"><ele>253.5</ele><time>2015-05-01T12:50:00.0000000+00:00</time></trkpt><trkpt lat="34.9789958" lon="33.4120394"><ele>253.1</ele><time>2015-05-01T12:50:02.0000000+00:00</time></trkpt><trkpt lat="34.9790472" lon="33.4120318"><ele>253.1</ele><time>2015-05-01T12:50:04.0000000+00:00</time></trkpt><trkpt lat="34.9791002" lon="33.4120221"><ele>253.0</ele><time>2015-05-01T12:50:06.0000000+00:00</time></trkpt><trkpt lat="34.9791608" lon="33.412016"><ele>253.8</ele><time>2015-05-01T12:50:08.0000000+00:00</time></trkpt><trkpt lat="34.9792264" lon="33.4120154"><ele>254.5</ele><time>2015-05-01T12:50:10.0000000+00:00</time></trkpt><trkpt lat="34.9792969" lon="33.412008"><ele>254.4</ele><time>2015-05-01T12:50:12.0000000+00:00</time></trkpt><trkpt lat="34.979381" lon="33.4119977"><ele>254.4</ele><time>2015-05-01T12:50:14.0000000+00:00</time></trkpt><trkpt lat="34.9794695" lon="33.4119892"><ele>254.1</ele><time>2015-05-01T12:50:16.0000000+00:00</time></trkpt><trkpt lat="34.9795556" lon="33.4119793"><ele>254.5</ele><time>2015-05-01T12:50:18.0000000+00:00</time></trkpt><trkpt lat="34.9796438" lon="33.4119692"><ele>254.9</ele><time>2015-05-01T12:50:20.0000000+00:00</time></trkpt><trkpt lat="34.9797047" lon="33.4119621"><ele>255.0</ele><time>2015-05-01T12:50:21.0000000+00:00</time></trkpt><trkpt lat="34.9797923" lon="33.4119607"><ele>254.5</ele><time>2015-05-01T12:50:23.0000000+00:00</time></trkpt><trkpt lat="34.9798743" lon="33.4119381"><ele>254.1</ele><time>2015-05-01T12:50:25.0000000+00:00</time></trkpt><trkpt lat="34.9799492" lon="33.411933"><ele>254.1</ele><time>2015-05-01T12:50:27.0000000+00:00</time></trkpt><trkpt lat="34.9800303" lon="33.411928"><ele>253.5</ele><time>2015-05-01T12:50:29.0000000+00:00</time></trkpt><trkpt lat="34.9801058" lon="33.4119087"><ele>253.1</ele><time>2015-05-01T12:50:31.0000000+00:00</time></trkpt><trkpt lat="34.9801824" lon="33.411893"><ele>252.6</ele><time>2015-05-01T12:50:33.0000000+00:00</time></trkpt><trkpt lat="34.9802604" lon="33.4118718"><ele>253.4</ele><time>2015-05-01T12:50:35.0000000+00:00</time></trkpt><trkpt lat="34.9803542" lon="33.4118307"><ele>253.1</ele><time>2015-05-01T12:50:37.0000000+00:00</time></trkpt><trkpt lat="34.9804334" lon="33.4118044"><ele>253.0</ele><time>2015-05-01T12:50:39.0000000+00:00</time></trkpt><trkpt lat="34.9805013" lon="33.4117685"><ele>252.3</ele><time>2015-05-01T12:50:41.0000000+00:00</time></trkpt><trkpt lat="34.9805587" lon="33.411742"><ele>252.1</ele><time>2015-05-01T12:50:43.0000000+00:00</time></trkpt><trkpt lat="34.98061" lon="33.4117322"><ele>251.5</ele><time>2015-05-01T12:50:45.0000000+00:00</time></trkpt><trkpt lat="34.9806599" lon="33.4117064"><ele>252.4</ele><time>2015-05-01T12:50:47.0000000+00:00</time></trkpt><trkpt lat="34.9807135" lon="33.4116793"><ele>253.4</ele><time>2015-05-01T12:50:49.0000000+00:00</time></trkpt><trkpt lat="34.9807695" lon="33.4116482"><ele>253.4</ele><time>2015-05-01T12:50:51.0000000+00:00</time></trkpt><trkpt lat="34.9808322" lon="33.4116126"><ele>251.1</ele><time>2015-05-01T12:50:53.0000000+00:00</time></trkpt><trkpt lat="34.980896" lon="33.411577"><ele>249.8</ele><time>2015-05-01T12:50:55.0000000+00:00</time></trkpt><trkpt lat="34.9809594" lon="33.41154"><ele>249.2</ele><time>2015-05-01T12:50:57.0000000+00:00</time></trkpt><trkpt lat="34.9810222" lon="33.4115015"><ele>248.3</ele><time>2015-05-01T12:50:59.0000000+00:00</time></trkpt><trkpt lat="34.981088" lon="33.4114621"><ele>246.1</ele><time>2015-05-01T12:51:01.0000000+00:00</time></trkpt><trkpt lat="34.9811515" lon="33.411424"><ele>245.0</ele><time>2015-05-01T12:51:03.0000000+00:00</time></trkpt><trkpt lat="34.9812179" lon="33.4113799"><ele>243.0</ele><time>2015-05-01T12:51:05.0000000+00:00</time></trkpt><trkpt lat="34.9812823" lon="33.4113461"><ele>242.3</ele><time>2015-05-01T12:51:07.0000000+00:00</time></trkpt><trkpt lat="34.9813472" lon="33.4113119"><ele>243.3</ele><time>2015-05-01T12:51:09.0000000+00:00</time></trkpt><trkpt lat="34.9814048" lon="33.411275"><ele>243.8</ele><time>2015-05-01T12:51:11.0000000+00:00</time></trkpt><trkpt lat="34.9814597" lon="33.4112351"><ele>244.2</ele><time>2015-05-01T12:51:13.0000000+00:00</time></trkpt><trkpt lat="34.9815117" lon="33.4111983"><ele>247.2</ele><time>2015-05-01T12:51:16.0000000+00:00</time></trkpt><trkpt lat="34.9815517" lon="33.4111671"><ele>249.2</ele><time>2015-05-01T12:51:19.0000000+00:00</time></trkpt><trkpt lat="34.981606" lon="33.4111319"><ele>251.7</ele><time>2015-05-01T12:51:22.0000000+00:00</time></trkpt><trkpt lat="34.9816506" lon="33.4111168"><ele>251.2</ele><time>2015-05-01T12:51:24.0000000+00:00</time></trkpt><trkpt lat="34.9817032" lon="33.4110892"><ele>250.3</ele><time>2015-05-01T12:51:26.0000000+00:00</time></trkpt><trkpt lat="34.9817703" lon="33.4110543"><ele>249.6</ele><time>2015-05-01T12:51:28.0000000+00:00</time></trkpt><trkpt lat="34.9818464" lon="33.41102"><ele>250.9</ele><time>2015-05-01T12:51:30.0000000+00:00</time></trkpt><trkpt lat="34.981922" lon="33.4109765"><ele>251.7</ele><time>2015-05-01T12:51:32.0000000+00:00</time></trkpt><trkpt lat="34.9819987" lon="33.4109345"><ele>252.0</ele><time>2015-05-01T12:51:34.0000000+00:00</time></trkpt><trkpt lat="34.9820765" lon="33.4108928"><ele>253.8</ele><time>2015-05-01T12:51:36.0000000+00:00</time></trkpt><trkpt lat="34.9821808" lon="33.410846"><ele>254.7</ele><time>2015-05-01T12:51:38.0000000+00:00</time></trkpt><trkpt lat="34.9822206" lon="33.4108186"><ele>254.9</ele><time>2015-05-01T12:51:39.0000000+00:00</time></trkpt><trkpt lat="34.9822956" lon="33.4107729"><ele>255.5</ele><time>2015-05-01T12:51:41.0000000+00:00</time></trkpt><trkpt lat="34.9823711" lon="33.4107336"><ele>253.9</ele><time>2015-05-01T12:51:43.0000000+00:00</time></trkpt><trkpt lat="34.9824421" lon="33.4106881"><ele>253.2</ele><time>2015-05-01T12:51:45.0000000+00:00</time></trkpt><trkpt lat="34.9825113" lon="33.410644"><ele>252.6</ele><time>2015-05-01T12:51:47.0000000+00:00</time></trkpt><trkpt lat="34.9825936" lon="33.4106035"><ele>251.9</ele><time>2015-05-01T12:51:49.0000000+00:00</time></trkpt><trkpt lat="34.9826359" lon="33.4105783"><ele>252.5</ele><time>2015-05-01T12:51:50.0000000+00:00</time></trkpt><trkpt lat="34.9826767" lon="33.4105492"><ele>252.7</ele><time>2015-05-01T12:51:51.0000000+00:00</time></trkpt><trkpt lat="34.9827213" lon="33.4105165"><ele>252.9</ele><time>2015-05-01T12:51:52.0000000+00:00</time></trkpt><trkpt lat="34.9827794" lon="33.4104865"><ele>253.0</ele><time>2015-05-01T12:51:53.0000000+00:00</time></trkpt><trkpt lat="34.982826" lon="33.4104635"><ele>252.5</ele><time>2015-05-01T12:51:54.0000000+00:00</time></trkpt><trkpt lat="34.9828757" lon="33.4104328"><ele>251.8</ele><time>2015-05-01T12:51:55.0000000+00:00</time></trkpt><trkpt lat="34.9829198" lon="33.4104045"><ele>251.9</ele><time>2015-05-01T12:51:56.0000000+00:00</time></trkpt><trkpt lat="34.9829676" lon="33.4103794"><ele>251.5</ele><time>2015-05-01T12:51:57.0000000+00:00</time></trkpt><trkpt lat="34.9830222" lon="33.4103416"><ele>253.2</ele><time>2015-05-01T12:51:58.0000000+00:00</time></trkpt><trkpt lat="34.9830639" lon="33.4103133"><ele>253.6</ele><time>2015-05-01T12:51:59.0000000+00:00</time></trkpt><trkpt lat="34.9831122" lon="33.410287"><ele>253.8</ele><time>2015-05-01T12:52:00.0000000+00:00</time></trkpt><trkpt lat="34.9831584" lon="33.4102591"><ele>253.9</ele><time>2015-05-01T12:52:01.0000000+00:00</time></trkpt><trkpt lat="34.9832366" lon="33.4102092"><ele>254.0</ele><time>2015-05-01T12:52:03.0000000+00:00</time></trkpt><trkpt lat="34.9832897" lon="33.4101696"><ele>253.0</ele><time>2015-05-01T12:52:04.0000000+00:00</time></trkpt><trkpt lat="34.9833351" lon="33.4101442"><ele>252.0</ele><time>2015-05-01T12:52:05.0000000+00:00</time></trkpt><trkpt lat="34.9833845" lon="33.4101206"><ele>251.5</ele><time>2015-05-01T12:52:06.0000000+00:00</time></trkpt><trkpt lat="34.9834301" lon="33.4101007"><ele>250.3</ele><time>2015-05-01T12:52:07.0000000+00:00</time></trkpt><trkpt lat="34.9834775" lon="33.4100729"><ele>249.6</ele><time>2015-05-01T12:52:08.0000000+00:00</time></trkpt><trkpt lat="34.9835699" lon="33.4100233"><ele>249.7</ele><time>2015-05-01T12:52:10.0000000+00:00</time></trkpt><trkpt lat="34.9836124" lon="33.4099987"><ele>249.3</ele><time>2015-05-01T12:52:11.0000000+00:00</time></trkpt><trkpt lat="34.9836974" lon="33.4099555"><ele>248.9</ele><time>2015-05-01T12:52:13.0000000+00:00</time></trkpt><trkpt lat="34.9837448" lon="33.4099382"><ele>248.4</ele><time>2015-05-01T12:52:14.0000000+00:00</time></trkpt><trkpt lat="34.9837885" lon="33.4099157"><ele>247.7</ele><time>2015-05-01T12:52:15.0000000+00:00</time></trkpt><trkpt lat="34.9838357" lon="33.4098831"><ele>246.9</ele><time>2015-05-01T12:52:16.0000000+00:00</time></trkpt><trkpt lat="34.9839022" lon="33.4098461"><ele>248.0</ele><time>2015-05-01T12:52:18.0000000+00:00</time></trkpt><trkpt lat="34.9839578" lon="33.4098711"><ele>248.8</ele><time>2015-05-01T12:52:33.0000000+00:00</time></trkpt><trkpt lat="34.9840062" lon="33.4098569"><ele>248.7</ele><time>2015-05-01T12:52:36.0000000+00:00</time></trkpt><trkpt lat="34.9840507" lon="33.4098429"><ele>248.0</ele><time>2015-05-01T12:54:11.0000000+00:00</time></trkpt><trkpt lat="34.9840991" lon="33.409792"><ele>250.1</ele><time>2015-05-01T12:54:15.0000000+00:00</time></trkpt><trkpt lat="34.9841458" lon="33.409734"><ele>249.8</ele><time>2015-05-01T12:54:17.0000000+00:00</time></trkpt><trkpt lat="34.9842063" lon="33.4096967"><ele>249.7</ele><time>2015-05-01T12:54:19.0000000+00:00</time></trkpt><trkpt lat="34.9842735" lon="33.4096626"><ele>249.9</ele><time>2015-05-01T12:54:21.0000000+00:00</time></trkpt><trkpt lat="34.9843394" lon="33.4096224"><ele>250.0</ele><time>2015-05-01T12:54:23.0000000+00:00</time></trkpt><trkpt lat="34.9844094" lon="33.4095789"><ele>249.8</ele><time>2015-05-01T12:54:25.0000000+00:00</time></trkpt><trkpt lat="34.9844883" lon="33.4095333"><ele>250.0</ele><time>2015-05-01T12:54:27.0000000+00:00</time></trkpt><trkpt lat="34.984554" lon="33.4094901"><ele>249.5</ele><time>2015-05-01T12:54:28.0000000+00:00</time></trkpt><trkpt lat="34.9845965" lon="33.4094664"><ele>249.3</ele><time>2015-05-01T12:54:29.0000000+00:00</time></trkpt><trkpt lat="34.984679" lon="33.4094241"><ele>248.6</ele><time>2015-05-01T12:54:31.0000000+00:00</time></trkpt><trkpt lat="34.9847253" lon="33.4093991"><ele>248.3</ele><time>2015-05-01T12:54:32.0000000+00:00</time></trkpt><trkpt lat="34.9847797" lon="33.4093709"><ele>248.7</ele><time>2015-05-01T12:54:33.0000000+00:00</time></trkpt><trkpt lat="34.9848242" lon="33.4093416"><ele>248.8</ele><time>2015-05-01T12:54:34.0000000+00:00</time></trkpt><trkpt lat="34.9849061" lon="33.4092956"><ele>248.2</ele><time>2015-05-01T12:54:36.0000000+00:00</time></trkpt><trkpt lat="34.9849864" lon="33.4092531"><ele>248.1</ele><time>2015-05-01T12:54:38.0000000+00:00</time></trkpt><trkpt lat="34.9850301" lon="33.4092276"><ele>248.0</ele><time>2015-05-01T12:54:39.0000000+00:00</time></trkpt><trkpt lat="34.985073" lon="33.4092012"><ele>248.0</ele><time>2015-05-01T12:54:40.0000000+00:00</time></trkpt><trkpt lat="34.9851164" lon="33.409179"><ele>248.0</ele><time>2015-05-01T12:54:41.0000000+00:00</time></trkpt><trkpt lat="34.9851958" lon="33.4091384"><ele>247.5</ele><time>2015-05-01T12:54:43.0000000+00:00</time></trkpt><trkpt lat="34.9852618" lon="33.4090949"><ele>247.1</ele><time>2015-05-01T12:54:45.0000000+00:00</time></trkpt><trkpt lat="34.9853347" lon="33.4090525"><ele>246.6</ele><time>2015-05-01T12:54:47.0000000+00:00</time></trkpt><trkpt lat="34.9854148" lon="33.4090136"><ele>245.7</ele><time>2015-05-01T12:54:49.0000000+00:00</time></trkpt><trkpt lat="34.9854929" lon="33.4089704"><ele>245.2</ele><time>2015-05-01T12:54:51.0000000+00:00</time></trkpt><trkpt lat="34.985567" lon="33.4089288"><ele>245.8</ele><time>2015-05-01T12:54:53.0000000+00:00</time></trkpt><trkpt lat="34.985645" lon="33.4088897"><ele>246.7</ele><time>2015-05-01T12:54:55.0000000+00:00</time></trkpt><trkpt lat="34.9856881" lon="33.4088674"><ele>247.4</ele><time>2015-05-01T12:54:56.0000000+00:00</time></trkpt><trkpt lat="34.9857275" lon="33.4088406"><ele>247.7</ele><time>2015-05-01T12:54:57.0000000+00:00</time></trkpt><trkpt lat="34.9857708" lon="33.4088139"><ele>247.9</ele><time>2015-05-01T12:54:58.0000000+00:00</time></trkpt><trkpt lat="34.9858502" lon="33.4087649"><ele>248.0</ele><time>2015-05-01T12:55:00.0000000+00:00</time></trkpt><trkpt lat="34.9858941" lon="33.4087424"><ele>248.0</ele><time>2015-05-01T12:55:01.0000000+00:00</time></trkpt><trkpt lat="34.9859421" lon="33.4087242"><ele>248.0</ele><time>2015-05-01T12:55:02.0000000+00:00</time></trkpt><trkpt lat="34.9860204" lon="33.4086743"><ele>248.0</ele><time>2015-05-01T12:55:04.0000000+00:00</time></trkpt><trkpt lat="34.9860704" lon="33.4086546"><ele>248.5</ele><time>2015-05-01T12:55:05.0000000+00:00</time></trkpt><trkpt lat="34.9861414" lon="33.4086167"><ele>248.1</ele><time>2015-05-01T12:55:07.0000000+00:00</time></trkpt><trkpt lat="34.9862084" lon="33.4085717"><ele>248.6</ele><time>2015-05-01T12:55:09.0000000+00:00</time></trkpt><trkpt lat="34.9862872" lon="33.4085313"><ele>248.9</ele><time>2015-05-01T12:55:11.0000000+00:00</time></trkpt><trkpt lat="34.9863298" lon="33.4085068"><ele>249.0</ele><time>2015-05-01T12:55:12.0000000+00:00</time></trkpt><trkpt lat="34.9863722" lon="33.4084779"><ele>248.5</ele><time>2015-05-01T12:55:13.0000000+00:00</time></trkpt><trkpt lat="34.9864135" lon="33.4084498"><ele>247.8</ele><time>2015-05-01T12:55:14.0000000+00:00</time></trkpt><trkpt lat="34.9865051" lon="33.4084061"><ele>248.2</ele><time>2015-05-01T12:55:16.0000000+00:00</time></trkpt><trkpt lat="34.9865468" lon="33.4083836"><ele>248.6</ele><time>2015-05-01T12:55:17.0000000+00:00</time></trkpt><trkpt lat="34.9866154" lon="33.408348"><ele>249.7</ele><time>2015-05-01T12:55:19.0000000+00:00</time></trkpt><trkpt lat="34.9866831" lon="33.4083093"><ele>251.9</ele><time>2015-05-01T12:55:21.0000000+00:00</time></trkpt><trkpt lat="34.9867485" lon="33.4082677"><ele>252.2</ele><time>2015-05-01T12:55:23.0000000+00:00</time></trkpt><trkpt lat="34.9868156" lon="33.4082276"><ele>252.8</ele><time>2015-05-01T12:55:25.0000000+00:00</time></trkpt><trkpt lat="34.9868806" lon="33.4081924"><ele>254.2</ele><time>2015-05-01T12:55:27.0000000+00:00</time></trkpt><trkpt lat="34.9869467" lon="33.408156"><ele>255.6</ele><time>2015-05-01T12:55:29.0000000+00:00</time></trkpt><trkpt lat="34.9870124" lon="33.4081182"><ele>255.9</ele><time>2015-05-01T12:55:31.0000000+00:00</time></trkpt><trkpt lat="34.9870822" lon="33.4080792"><ele>256.2</ele><time>2015-05-01T12:55:33.0000000+00:00</time></trkpt><trkpt lat="34.9871544" lon="33.4080386"><ele>256.6</ele><time>2015-05-01T12:55:35.0000000+00:00</time></trkpt><trkpt lat="34.9872281" lon="33.408"><ele>257.7</ele><time>2015-05-01T12:55:37.0000000+00:00</time></trkpt><trkpt lat="34.9872974" lon="33.407966"><ele>257.4</ele><time>2015-05-01T12:55:39.0000000+00:00</time></trkpt><trkpt lat="34.9873588" lon="33.4079348"><ele>256.9</ele><time>2015-05-01T12:55:41.0000000+00:00</time></trkpt><trkpt lat="34.9874119" lon="33.4079054"><ele>256.2</ele><time>2015-05-01T12:55:43.0000000+00:00</time></trkpt><trkpt lat="34.9874682" lon="33.4078753"><ele>256.1</ele><time>2015-05-01T12:55:45.0000000+00:00</time></trkpt><trkpt lat="34.9875215" lon="33.4078491"><ele>257.3</ele><time>2015-05-01T12:55:47.0000000+00:00</time></trkpt><trkpt lat="34.9875719" lon="33.4078204"><ele>257.8</ele><time>2015-05-01T12:55:49.0000000+00:00</time></trkpt><trkpt lat="34.9876255" lon="33.4077958"><ele>258.2</ele><time>2015-05-01T12:55:51.0000000+00:00</time></trkpt><trkpt lat="34.9876865" lon="33.4077655"><ele>258.8</ele><time>2015-05-01T12:55:53.0000000+00:00</time></trkpt><trkpt lat="34.9877503" lon="33.407732"><ele>259.0</ele><time>2015-05-01T12:55:55.0000000+00:00</time></trkpt><trkpt lat="34.9878323" lon="33.4076924"><ele>259.8</ele><time>2015-05-01T12:55:57.0000000+00:00</time></trkpt><trkpt lat="34.9878912" lon="33.407657"><ele>259.9</ele><time>2015-05-01T12:55:58.0000000+00:00</time></trkpt><trkpt lat="34.9879379" lon="33.4076306"><ele>260.0</ele><time>2015-05-01T12:55:59.0000000+00:00</time></trkpt><trkpt lat="34.9879856" lon="33.4076116"><ele>260.0</ele><time>2015-05-01T12:56:00.0000000+00:00</time></trkpt><trkpt lat="34.9880372" lon="33.4075929"><ele>260.0</ele><time>2015-05-01T12:56:01.0000000+00:00</time></trkpt><trkpt lat="34.9880843" lon="33.4075759"><ele>260.0</ele><time>2015-05-01T12:56:02.0000000+00:00</time></trkpt><trkpt lat="34.9881324" lon="33.4075536"><ele>260.0</ele><time>2015-05-01T12:56:03.0000000+00:00</time></trkpt><trkpt lat="34.9881812" lon="33.4075355"><ele>259.5</ele><time>2015-05-01T12:56:04.0000000+00:00</time></trkpt><trkpt lat="34.9882345" lon="33.4075219"><ele>258.8</ele><time>2015-05-01T12:56:05.0000000+00:00</time></trkpt><trkpt lat="34.988289" lon="33.4075068"><ele>258.4</ele><time>2015-05-01T12:56:06.0000000+00:00</time></trkpt><trkpt lat="34.9883367" lon="33.4074836"><ele>257.7</ele><time>2015-05-01T12:56:07.0000000+00:00</time></trkpt><trkpt lat="34.9883847" lon="33.4074671"><ele>257.4</ele><time>2015-05-01T12:56:08.0000000+00:00</time></trkpt><trkpt lat="34.9884332" lon="33.4074631"><ele>257.2</ele><time>2015-05-01T12:56:09.0000000+00:00</time></trkpt><trkpt lat="34.98848" lon="33.4074407"><ele>256.6</ele><time>2015-05-01T12:56:10.0000000+00:00</time></trkpt><trkpt lat="34.9885622" lon="33.4074202"><ele>256.2</ele><time>2015-05-01T12:56:12.0000000+00:00</time></trkpt><trkpt lat="34.9886464" lon="33.4073956"><ele>256.1</ele><time>2015-05-01T12:56:14.0000000+00:00</time></trkpt><trkpt lat="34.9887325" lon="33.4073644"><ele>256.0</ele><time>2015-05-01T12:56:16.0000000+00:00</time></trkpt><trkpt lat="34.9887825" lon="33.4073514"><ele>255.5</ele><time>2015-05-01T12:56:17.0000000+00:00</time></trkpt><trkpt lat="34.9888261" lon="33.4073332"><ele>255.8</ele><time>2015-05-01T12:56:18.0000000+00:00</time></trkpt><trkpt lat="34.9888731" lon="33.4073226"><ele>255.4</ele><time>2015-05-01T12:56:19.0000000+00:00</time></trkpt><trkpt lat="34.9889213" lon="33.407307"><ele>255.2</ele><time>2015-05-01T12:56:20.0000000+00:00</time></trkpt><trkpt lat="34.9889692" lon="33.4072881"><ele>254.6</ele><time>2015-05-01T12:56:21.0000000+00:00</time></trkpt><trkpt lat="34.98904" lon="33.4072699"><ele>254.8</ele><time>2015-05-01T12:56:22.0000000+00:00</time></trkpt><trkpt lat="34.9890906" lon="33.407248"><ele>254.4</ele><time>2015-05-01T12:56:23.0000000+00:00</time></trkpt><trkpt lat="34.9891501" lon="33.4072205"><ele>254.2</ele><time>2015-05-01T12:56:24.0000000+00:00</time></trkpt><trkpt lat="34.9892082" lon="33.4072034"><ele>255.1</ele><time>2015-05-01T12:56:25.0000000+00:00</time></trkpt><trkpt lat="34.9892594" lon="33.4071928"><ele>255.1</ele><time>2015-05-01T12:56:26.0000000+00:00</time></trkpt><trkpt lat="34.9893086" lon="33.40717"><ele>254.5</ele><time>2015-05-01T12:56:27.0000000+00:00</time></trkpt><trkpt lat="34.9894004" lon="33.4071423"><ele>255.7</ele><time>2015-05-01T12:56:29.0000000+00:00</time></trkpt><trkpt lat="34.9894526" lon="33.4071174"><ele>255.8</ele><time>2015-05-01T12:56:30.0000000+00:00</time></trkpt><trkpt lat="34.9895001" lon="33.4070945"><ele>255.9</ele><time>2015-05-01T12:56:31.0000000+00:00</time></trkpt><trkpt lat="34.9895547" lon="33.407069"><ele>255.5</ele><time>2015-05-01T12:56:32.0000000+00:00</time></trkpt><trkpt lat="34.9895997" lon="33.4070506"><ele>255.2</ele><time>2015-05-01T12:56:33.0000000+00:00</time></trkpt><trkpt lat="34.9896444" lon="33.4070349"><ele>255.1</ele><time>2015-05-01T12:56:34.0000000+00:00</time></trkpt><trkpt lat="34.9896982" lon="33.407021"><ele>255.6</ele><time>2015-05-01T12:56:35.0000000+00:00</time></trkpt><trkpt lat="34.9897575" lon="33.4070076"><ele>255.8</ele><time>2015-05-01T12:56:36.0000000+00:00</time></trkpt><trkpt lat="34.9898058" lon="33.4070011"><ele>255.9</ele><time>2015-05-01T12:56:37.0000000+00:00</time></trkpt><trkpt lat="34.9898932" lon="33.4069759"><ele>256.5</ele><time>2015-05-01T12:56:39.0000000+00:00</time></trkpt><trkpt lat="34.9899381" lon="33.4069643"><ele>256.8</ele><time>2015-05-01T12:56:40.0000000+00:00</time></trkpt><trkpt lat="34.9900217" lon="33.4069501"><ele>257.5</ele><time>2015-05-01T12:56:42.0000000+00:00</time></trkpt><trkpt lat="34.9900954" lon="33.4069216"><ele>257.9</ele><time>2015-05-01T12:56:44.0000000+00:00</time></trkpt><trkpt lat="34.9901683" lon="33.4068987"><ele>257.2</ele><time>2015-05-01T12:56:46.0000000+00:00</time></trkpt><trkpt lat="34.9902148" lon="33.4068846"><ele>256.6</ele><time>2015-05-01T12:56:47.0000000+00:00</time></trkpt><trkpt lat="34.9902632" lon="33.4068679"><ele>256.3</ele><time>2015-05-01T12:56:48.0000000+00:00</time></trkpt><trkpt lat="34.99031" lon="33.4068406"><ele>256.2</ele><time>2015-05-01T12:56:49.0000000+00:00</time></trkpt><trkpt lat="34.9903561" lon="33.406815"><ele>255.6</ele><time>2015-05-01T12:56:50.0000000+00:00</time></trkpt><trkpt lat="34.9904079" lon="33.4067904"><ele>255.3</ele><time>2015-05-01T12:56:51.0000000+00:00</time></trkpt><trkpt lat="34.9904623" lon="33.406763"><ele>255.2</ele><time>2015-05-01T12:56:52.0000000+00:00</time></trkpt><trkpt lat="34.9905071" lon="33.4067496"><ele>256.1</ele><time>2015-05-01T12:56:53.0000000+00:00</time></trkpt><trkpt lat="34.9905832" lon="33.4067252"><ele>256.0</ele><time>2015-05-01T12:56:55.0000000+00:00</time></trkpt><trkpt lat="34.9906629" lon="33.4066835"><ele>256.8</ele><time>2015-05-01T12:56:57.0000000+00:00</time></trkpt><trkpt lat="34.9907371" lon="33.4066405"><ele>256.2</ele><time>2015-05-01T12:56:59.0000000+00:00</time></trkpt><trkpt lat="34.9907793" lon="33.4066181"><ele>256.1</ele><time>2015-05-01T12:57:00.0000000+00:00</time></trkpt><trkpt lat="34.9908236" lon="33.4065903"><ele>256.1</ele><time>2015-05-01T12:57:01.0000000+00:00</time></trkpt><trkpt lat="34.9908754" lon="33.4065712"><ele>256.5</ele><time>2015-05-01T12:57:02.0000000+00:00</time></trkpt><trkpt lat="34.9909622" lon="33.4065241"><ele>256.9</ele><time>2015-05-01T12:57:04.0000000+00:00</time></trkpt><trkpt lat="34.9910066" lon="33.4065079"><ele>257.0</ele><time>2015-05-01T12:57:05.0000000+00:00</time></trkpt><trkpt lat="34.9910811" lon="33.4064545"><ele>256.5</ele><time>2015-05-01T12:57:07.0000000+00:00</time></trkpt><trkpt lat="34.9911514" lon="33.4064089"><ele>257.9</ele><time>2015-05-01T12:57:09.0000000+00:00</time></trkpt><trkpt lat="34.9912299" lon="33.406375"><ele>258.7</ele><time>2015-05-01T12:57:11.0000000+00:00</time></trkpt><trkpt lat="34.9913139" lon="33.4063332"><ele>259.0</ele><time>2015-05-01T12:57:13.0000000+00:00</time></trkpt><trkpt lat="34.9913585" lon="33.4063093"><ele>259.0</ele><time>2015-05-01T12:57:14.0000000+00:00</time></trkpt><trkpt lat="34.9914" lon="33.4062804"><ele>259.0</ele><time>2015-05-01T12:57:15.0000000+00:00</time></trkpt><trkpt lat="34.9914532" lon="33.4062579"><ele>259.0</ele><time>2015-05-01T12:57:16.0000000+00:00</time></trkpt><trkpt lat="34.9914935" lon="33.4062328"><ele>259.0</ele><time>2015-05-01T12:57:17.0000000+00:00</time></trkpt><trkpt lat="34.9915628" lon="33.4061908"><ele>259.5</ele><time>2015-05-01T12:57:19.0000000+00:00</time></trkpt><trkpt lat="34.9916123" lon="33.4061552"><ele>260.4</ele><time>2015-05-01T12:57:21.0000000+00:00</time></trkpt><trkpt lat="34.9916739" lon="33.4061102"><ele>261.4</ele><time>2015-05-01T12:57:23.0000000+00:00</time></trkpt><trkpt lat="34.9917469" lon="33.4060766"><ele>261.9</ele><time>2015-05-01T12:57:25.0000000+00:00</time></trkpt><trkpt lat="34.9918221" lon="33.4060339"><ele>262.0</ele><time>2015-05-01T12:57:27.0000000+00:00</time></trkpt><trkpt lat="34.9918989" lon="33.40599"><ele>261.3</ele><time>2015-05-01T12:57:29.0000000+00:00</time></trkpt><trkpt lat="34.9919778" lon="33.4059475"><ele>260.3</ele><time>2015-05-01T12:57:31.0000000+00:00</time></trkpt><trkpt lat="34.9920192" lon="33.4059248"><ele>259.7</ele><time>2015-05-01T12:57:32.0000000+00:00</time></trkpt><trkpt lat="34.9920904" lon="33.4058829"><ele>259.7</ele><time>2015-05-01T12:57:34.0000000+00:00</time></trkpt><trkpt lat="34.9921522" lon="33.4058442"><ele>259.2</ele><time>2015-05-01T12:57:36.0000000+00:00</time></trkpt><trkpt lat="34.9922043" lon="33.4058215"><ele>258.8</ele><time>2015-05-01T12:57:38.0000000+00:00</time></trkpt><trkpt lat="34.9922507" lon="33.4058073"><ele>259.0</ele><time>2015-05-01T12:57:40.0000000+00:00</time></trkpt><trkpt lat="34.9923122" lon="33.4057806"><ele>259.0</ele><time>2015-05-01T12:57:43.0000000+00:00</time></trkpt><trkpt lat="34.9923571" lon="33.4057545"><ele>259.0</ele><time>2015-05-01T12:57:45.0000000+00:00</time></trkpt><trkpt lat="34.9924046" lon="33.4057205"><ele>257.8</ele><time>2015-05-01T12:57:47.0000000+00:00</time></trkpt><trkpt lat="34.9924628" lon="33.4056831"><ele>258.0</ele><time>2015-05-01T12:57:49.0000000+00:00</time></trkpt><trkpt lat="34.9925258" lon="33.4056507"><ele>258.0</ele><time>2015-05-01T12:57:51.0000000+00:00</time></trkpt><trkpt lat="34.9925877" lon="33.4056136"><ele>258.0</ele><time>2015-05-01T12:57:53.0000000+00:00</time></trkpt><trkpt lat="34.992643" lon="33.405582"><ele>257.5</ele><time>2015-05-01T12:57:55.0000000+00:00</time></trkpt><trkpt lat="34.9927037" lon="33.4055571"><ele>259.6</ele><time>2015-05-01T12:57:57.0000000+00:00</time></trkpt><trkpt lat="34.9927669" lon="33.4055328"><ele>260.9</ele><time>2015-05-01T12:57:59.0000000+00:00</time></trkpt><trkpt lat="34.9928334" lon="33.405502"><ele>263.2</ele><time>2015-05-01T12:58:01.0000000+00:00</time></trkpt><trkpt lat="34.9929004" lon="33.4054673"><ele>263.8</ele><time>2015-05-01T12:58:03.0000000+00:00</time></trkpt><trkpt lat="34.9929702" lon="33.4054285"><ele>264.5</ele><time>2015-05-01T12:58:05.0000000+00:00</time></trkpt><trkpt lat="34.9930383" lon="33.4053835"><ele>263.6</ele><time>2015-05-01T12:58:07.0000000+00:00</time></trkpt><trkpt lat="34.9931075" lon="33.4053414"><ele>263.4</ele><time>2015-05-01T12:58:09.0000000+00:00</time></trkpt><trkpt lat="34.9931759" lon="33.4052973"><ele>262.1</ele><time>2015-05-01T12:58:11.0000000+00:00</time></trkpt><trkpt lat="34.9932463" lon="33.4052525"><ele>262.5</ele><time>2015-05-01T12:58:13.0000000+00:00</time></trkpt><trkpt lat="34.9933151" lon="33.4052178"><ele>262.9</ele><time>2015-05-01T12:58:15.0000000+00:00</time></trkpt><trkpt lat="34.9933806" lon="33.4051809"><ele>263.0</ele><time>2015-05-01T12:58:17.0000000+00:00</time></trkpt><trkpt lat="34.9934418" lon="33.4051496"><ele>263.8</ele><time>2015-05-01T12:58:19.0000000+00:00</time></trkpt><trkpt lat="34.9935007" lon="33.4051204"><ele>264.5</ele><time>2015-05-01T12:58:21.0000000+00:00</time></trkpt><trkpt lat="34.9935534" lon="33.4050919"><ele>265.6</ele><time>2015-05-01T12:58:23.0000000+00:00</time></trkpt><trkpt lat="34.9936088" lon="33.4050661"><ele>265.4</ele><time>2015-05-01T12:58:25.0000000+00:00</time></trkpt><trkpt lat="34.9936657" lon="33.4050352"><ele>265.1</ele><time>2015-05-01T12:58:27.0000000+00:00</time></trkpt><trkpt lat="34.9937177" lon="33.4050026"><ele>264.3</ele><time>2015-05-01T12:58:29.0000000+00:00</time></trkpt><trkpt lat="34.9937695" lon="33.4049711"><ele>264.1</ele><time>2015-05-01T12:58:31.0000000+00:00</time></trkpt><trkpt lat="34.9938226" lon="33.404941"><ele>263.5</ele><time>2015-05-01T12:58:33.0000000+00:00</time></trkpt><trkpt lat="34.9938804" lon="33.4049083"><ele>265.4</ele><time>2015-05-01T12:58:35.0000000+00:00</time></trkpt><trkpt lat="34.9939381" lon="33.4048732"><ele>264.6</ele><time>2015-05-01T12:58:37.0000000+00:00</time></trkpt><trkpt lat="34.993995" lon="33.4048398"><ele>264.2</ele><time>2015-05-01T12:58:39.0000000+00:00</time></trkpt><trkpt lat="34.9940504" lon="33.404803"><ele>262.8</ele><time>2015-05-01T12:58:41.0000000+00:00</time></trkpt><trkpt lat="34.9941027" lon="33.4047621"><ele>261.5</ele><time>2015-05-01T12:58:43.0000000+00:00</time></trkpt><trkpt lat="34.9941606" lon="33.4047281"><ele>262.1</ele><time>2015-05-01T12:58:45.0000000+00:00</time></trkpt><trkpt lat="34.9942212" lon="33.4047009"><ele>262.0</ele><time>2015-05-01T12:58:47.0000000+00:00</time></trkpt><trkpt lat="34.9942834" lon="33.4046675"><ele>261.0</ele><time>2015-05-01T12:58:49.0000000+00:00</time></trkpt><trkpt lat="34.994341" lon="33.4046278"><ele>262.0</ele><time>2015-05-01T12:58:51.0000000+00:00</time></trkpt><trkpt lat="34.9943984" lon="33.4045926"><ele>262.8</ele><time>2015-05-01T12:58:53.0000000+00:00</time></trkpt><trkpt lat="34.9944514" lon="33.4045659"><ele>263.0</ele><time>2015-05-01T12:58:55.0000000+00:00</time></trkpt><trkpt lat="34.9944926" lon="33.4045377"><ele>262.3</ele><time>2015-05-01T12:58:57.0000000+00:00</time></trkpt><trkpt lat="34.994553" lon="33.4045031"><ele>264.2</ele><time>2015-05-01T12:59:00.0000000+00:00</time></trkpt><trkpt lat="34.9945943" lon="33.4044712"><ele>264.8</ele><time>2015-05-01T12:59:02.0000000+00:00</time></trkpt><trkpt lat="34.9946327" lon="33.4044285"><ele>264.7</ele><time>2015-05-01T12:59:04.0000000+00:00</time></trkpt><trkpt lat="34.9946674" lon="33.4043844"><ele>264.4</ele><time>2015-05-01T12:59:06.0000000+00:00</time></trkpt><trkpt lat="34.9947055" lon="33.4043454"><ele>265.4</ele><time>2015-05-01T12:59:08.0000000+00:00</time></trkpt><trkpt lat="34.994754" lon="33.4043328"><ele>266.4</ele><time>2015-05-01T12:59:10.0000000+00:00</time></trkpt><trkpt lat="34.994807" lon="33.404316"><ele>267.4</ele><time>2015-05-01T12:59:12.0000000+00:00</time></trkpt><trkpt lat="34.9948573" lon="33.4042805"><ele>269.1</ele><time>2015-05-01T12:59:14.0000000+00:00</time></trkpt><trkpt lat="34.9949076" lon="33.4042378"><ele>269.8</ele><time>2015-05-01T12:59:16.0000000+00:00</time></trkpt><trkpt lat="34.9949597" lon="33.4041889"><ele>268.7</ele><time>2015-05-01T12:59:18.0000000+00:00</time></trkpt><trkpt lat="34.9950166" lon="33.4041432"><ele>267.9</ele><time>2015-05-01T12:59:20.0000000+00:00</time></trkpt><trkpt lat="34.9950775" lon="33.4040933"><ele>267.5</ele><time>2015-05-01T12:59:22.0000000+00:00</time></trkpt><trkpt lat="34.9951444" lon="33.4040347"><ele>267.9</ele><time>2015-05-01T12:59:24.0000000+00:00</time></trkpt><trkpt lat="34.9952078" lon="33.4039779"><ele>267.2</ele><time>2015-05-01T12:59:26.0000000+00:00</time></trkpt><trkpt lat="34.9952673" lon="33.4039321"><ele>267.6</ele><time>2015-05-01T12:59:28.0000000+00:00</time></trkpt><trkpt lat="34.9953183" lon="33.4038945"><ele>267.2</ele><time>2015-05-01T12:59:30.0000000+00:00</time></trkpt><trkpt lat="34.9953678" lon="33.4038505"><ele>266.3</ele><time>2015-05-01T12:59:32.0000000+00:00</time></trkpt><trkpt lat="34.9954215" lon="33.4038081"><ele>266.1</ele><time>2015-05-01T12:59:34.0000000+00:00</time></trkpt><trkpt lat="34.9954824" lon="33.4037661"><ele>266.8</ele><time>2015-05-01T12:59:36.0000000+00:00</time></trkpt><trkpt lat="34.9955446" lon="33.4037203"><ele>266.5</ele><time>2015-05-01T12:59:38.0000000+00:00</time></trkpt><trkpt lat="34.9956062" lon="33.403672"><ele>267.1</ele><time>2015-05-01T12:59:40.0000000+00:00</time></trkpt><trkpt lat="34.995665" lon="33.4036249"><ele>267.8</ele><time>2015-05-01T12:59:42.0000000+00:00</time></trkpt><trkpt lat="34.9957226" lon="33.4035833"><ele>267.5</ele><time>2015-05-01T12:59:44.0000000+00:00</time></trkpt><trkpt lat="34.9957799" lon="33.4035408"><ele>266.9</ele><time>2015-05-01T12:59:46.0000000+00:00</time></trkpt><trkpt lat="34.9958379" lon="33.4034933"><ele>265.5</ele><time>2015-05-01T12:59:48.0000000+00:00</time></trkpt><trkpt lat="34.9959002" lon="33.4034414"><ele>263.9</ele><time>2015-05-01T12:59:50.0000000+00:00</time></trkpt><trkpt lat="34.9959868" lon="33.4033771"><ele>264.0</ele><time>2015-05-01T12:59:52.0000000+00:00</time></trkpt><trkpt lat="34.9960504" lon="33.403324"><ele>264.0</ele><time>2015-05-01T12:59:54.0000000+00:00</time></trkpt><trkpt lat="34.9961054" lon="33.4032794"><ele>263.5</ele><time>2015-05-01T12:59:56.0000000+00:00</time></trkpt><trkpt lat="34.9961752" lon="33.4032337"><ele>263.6</ele><time>2015-05-01T12:59:58.0000000+00:00</time></trkpt><trkpt lat="34.9962476" lon="33.4031861"><ele>264.7</ele><time>2015-05-01T13:00:00.0000000+00:00</time></trkpt><trkpt lat="34.9963208" lon="33.4031323"><ele>266.4</ele><time>2015-05-01T13:00:02.0000000+00:00</time></trkpt><trkpt lat="34.9963583" lon="33.4031019"><ele>266.2</ele><time>2015-05-01T13:00:03.0000000+00:00</time></trkpt><trkpt lat="34.9964302" lon="33.4030319"><ele>266.1</ele><time>2015-05-01T13:00:05.0000000+00:00</time></trkpt><trkpt lat="34.9965057" lon="33.4029791"><ele>267.0</ele><time>2015-05-01T13:00:07.0000000+00:00</time></trkpt><trkpt lat="34.9965669" lon="33.4029277"><ele>268.3</ele><time>2015-05-01T13:00:09.0000000+00:00</time></trkpt><trkpt lat="34.996626" lon="33.4028824"><ele>268.6</ele><time>2015-05-01T13:00:11.0000000+00:00</time></trkpt><trkpt lat="34.9966929" lon="33.4028356"><ele>268.9</ele><time>2015-05-01T13:00:13.0000000+00:00</time></trkpt><trkpt lat="34.9967325" lon="33.402807"><ele>269.5</ele><time>2015-05-01T13:00:14.0000000+00:00</time></trkpt><trkpt lat="34.9968036" lon="33.4027529"><ele>269.9</ele><time>2015-05-01T13:00:16.0000000+00:00</time></trkpt><trkpt lat="34.9968797" lon="33.4027022"><ele>271.2</ele><time>2015-05-01T13:00:18.0000000+00:00</time></trkpt><trkpt lat="34.9969195" lon="33.40267"><ele>272.1</ele><time>2015-05-01T13:00:19.0000000+00:00</time></trkpt><trkpt lat="34.996983" lon="33.4026265"><ele>272.8</ele><time>2015-05-01T13:00:21.0000000+00:00</time></trkpt><trkpt lat="34.997031" lon="33.4025824"><ele>273.0</ele><time>2015-05-01T13:00:23.0000000+00:00</time></trkpt><trkpt lat="34.9970866" lon="33.4025381"><ele>271.8</ele><time>2015-05-01T13:00:26.0000000+00:00</time></trkpt><trkpt lat="34.997129" lon="33.402503"><ele>271.2</ele><time>2015-05-01T13:00:28.0000000+00:00</time></trkpt><trkpt lat="34.9971737" lon="33.4024679"><ele>271.8</ele><time>2015-05-01T13:00:30.0000000+00:00</time></trkpt><trkpt lat="34.9972263" lon="33.4024344"><ele>271.5</ele><time>2015-05-01T13:00:32.0000000+00:00</time></trkpt><trkpt lat="34.9972821" lon="33.4023967"><ele>271.9</ele><time>2015-05-01T13:00:34.0000000+00:00</time></trkpt><trkpt lat="34.9973362" lon="33.4023502"><ele>271.2</ele><time>2015-05-01T13:00:36.0000000+00:00</time></trkpt><trkpt lat="34.9973896" lon="33.4023022"><ele>271.1</ele><time>2015-05-01T13:00:38.0000000+00:00</time></trkpt><trkpt lat="34.9974474" lon="33.4022514"><ele>269.8</ele><time>2015-05-01T13:00:40.0000000+00:00</time></trkpt><trkpt lat="34.9975058" lon="33.4022003"><ele>270.7</ele><time>2015-05-01T13:00:42.0000000+00:00</time></trkpt><trkpt lat="34.9975611" lon="33.4021418"><ele>270.2</ele><time>2015-05-01T13:00:44.0000000+00:00</time></trkpt><trkpt lat="34.9976149" lon="33.4020821"><ele>270.1</ele><time>2015-05-01T13:00:46.0000000+00:00</time></trkpt><trkpt lat="34.9976685" lon="33.4020185"><ele>269.5</ele><time>2015-05-01T13:00:48.0000000+00:00</time></trkpt><trkpt lat="34.9977178" lon="33.4019564"><ele>269.9</ele><time>2015-05-01T13:00:50.0000000+00:00</time></trkpt><trkpt lat="34.9977654" lon="33.4019004"><ele>270.7</ele><time>2015-05-01T13:00:52.0000000+00:00</time></trkpt><trkpt lat="34.9978073" lon="33.401842"><ele>271.0</ele><time>2015-05-01T13:00:54.0000000+00:00</time></trkpt><trkpt lat="34.9978542" lon="33.4017797"><ele>271.3</ele><time>2015-05-01T13:00:56.0000000+00:00</time></trkpt><trkpt lat="34.9979052" lon="33.4017125"><ele>271.1</ele><time>2015-05-01T13:00:58.0000000+00:00</time></trkpt><trkpt lat="34.9979592" lon="33.4016381"><ele>271.0</ele><time>2015-05-01T13:01:00.0000000+00:00</time></trkpt><trkpt lat="34.9980155" lon="33.4015608"><ele>270.5</ele><time>2015-05-01T13:01:02.0000000+00:00</time></trkpt><trkpt lat="34.9980709" lon="33.4014816"><ele>269.6</ele><time>2015-05-01T13:01:04.0000000+00:00</time></trkpt><trkpt lat="34.9981216" lon="33.4014016"><ele>269.2</ele><time>2015-05-01T13:01:06.0000000+00:00</time></trkpt><trkpt lat="34.9981734" lon="33.4013195"><ele>268.3</ele><time>2015-05-01T13:01:08.0000000+00:00</time></trkpt><trkpt lat="34.9981997" lon="33.4012669"><ele>267.7</ele><time>2015-05-01T13:01:09.0000000+00:00</time></trkpt><trkpt lat="34.9982277" lon="33.4012192"><ele>267.3</ele><time>2015-05-01T13:01:10.0000000+00:00</time></trkpt><trkpt lat="34.9982591" lon="33.4011718"><ele>267.7</ele><time>2015-05-01T13:01:11.0000000+00:00</time></trkpt><trkpt lat="34.9983054" lon="33.4010944"><ele>267.9</ele><time>2015-05-01T13:01:13.0000000+00:00</time></trkpt><trkpt lat="34.9983425" lon="33.4010284"><ele>268.5</ele><time>2015-05-01T13:01:15.0000000+00:00</time></trkpt><trkpt lat="34.9983822" lon="33.4009707"><ele>268.1</ele><time>2015-05-01T13:01:17.0000000+00:00</time></trkpt><trkpt lat="34.9984203" lon="33.4009042"><ele>268.1</ele><time>2015-05-01T13:01:19.0000000+00:00</time></trkpt><trkpt lat="34.9984491" lon="33.4008589"><ele>268.5</ele><time>2015-05-01T13:01:20.0000000+00:00</time></trkpt><trkpt lat="34.9985069" lon="33.4007702"><ele>270.4</ele><time>2015-05-01T13:01:22.0000000+00:00</time></trkpt><trkpt lat="34.9985352" lon="33.4007241"><ele>270.7</ele><time>2015-05-01T13:01:23.0000000+00:00</time></trkpt><trkpt lat="34.9985651" lon="33.4006777"><ele>271.4</ele><time>2015-05-01T13:01:24.0000000+00:00</time></trkpt><trkpt lat="34.9985909" lon="33.4006319"><ele>271.7</ele><time>2015-05-01T13:01:25.0000000+00:00</time></trkpt><trkpt lat="34.9986286" lon="33.400584"><ele>272.9</ele><time>2015-05-01T13:01:26.0000000+00:00</time></trkpt><trkpt lat="34.9986691" lon="33.4005025"><ele>273.7</ele><time>2015-05-01T13:01:28.0000000+00:00</time></trkpt><trkpt lat="34.9987176" lon="33.4004269"><ele>275.4</ele><time>2015-05-01T13:01:30.0000000+00:00</time></trkpt><trkpt lat="34.9987524" lon="33.4003493"><ele>275.9</ele><time>2015-05-01T13:01:32.0000000+00:00</time></trkpt><trkpt lat="34.9987988" lon="33.4002681"><ele>276.7</ele><time>2015-05-01T13:01:34.0000000+00:00</time></trkpt><trkpt lat="34.9988487" lon="33.4001793"><ele>276.2</ele><time>2015-05-01T13:01:36.0000000+00:00</time></trkpt><trkpt lat="34.9989098" lon="33.4000975"><ele>273.3</ele><time>2015-05-01T13:01:38.0000000+00:00</time></trkpt><trkpt lat="34.9989572" lon="33.400023"><ele>270.3</ele><time>2015-05-01T13:01:40.0000000+00:00</time></trkpt><trkpt lat="34.9989918" lon="33.3999498"><ele>269.4</ele><time>2015-05-01T13:01:42.0000000+00:00</time></trkpt><trkpt lat="34.9990232" lon="33.3999094"><ele>269.2</ele><time>2015-05-01T13:01:43.0000000+00:00</time></trkpt><trkpt lat="34.9990723" lon="33.3998308"><ele>269.8</ele><time>2015-05-01T13:01:45.0000000+00:00</time></trkpt><trkpt lat="34.9991248" lon="33.3997466"><ele>270.7</ele><time>2015-05-01T13:01:47.0000000+00:00</time></trkpt><trkpt lat="34.9991518" lon="33.3996994"><ele>270.9</ele><time>2015-05-01T13:01:48.0000000+00:00</time></trkpt><trkpt lat="34.9991984" lon="33.3996056"><ele>271.0</ele><time>2015-05-01T13:01:50.0000000+00:00</time></trkpt><trkpt lat="34.9992248" lon="33.3995601"><ele>271.0</ele><time>2015-05-01T13:01:51.0000000+00:00</time></trkpt><trkpt lat="34.9992515" lon="33.3995107"><ele>271.0</ele><time>2015-05-01T13:01:52.0000000+00:00</time></trkpt><trkpt lat="34.9992964" lon="33.3994296"><ele>271.5</ele><time>2015-05-01T13:01:54.0000000+00:00</time></trkpt><trkpt lat="34.9993382" lon="33.3993382"><ele>271.9</ele><time>2015-05-01T13:01:56.0000000+00:00</time></trkpt><trkpt lat="34.999363" lon="33.3992894"><ele>272.0</ele><time>2015-05-01T13:01:57.0000000+00:00</time></trkpt><trkpt lat="34.9993943" lon="33.3992482"><ele>272.0</ele><time>2015-05-01T13:01:58.0000000+00:00</time></trkpt><trkpt lat="34.9994254" lon="33.399208"><ele>272.0</ele><time>2015-05-01T13:01:59.0000000+00:00</time></trkpt><trkpt lat="34.9994728" lon="33.3991263"><ele>272.5</ele><time>2015-05-01T13:02:01.0000000+00:00</time></trkpt><trkpt lat="34.9995145" lon="33.399051"><ele>272.4</ele><time>2015-05-01T13:02:03.0000000+00:00</time></trkpt><trkpt lat="34.9995391" lon="33.3989828"><ele>272.1</ele><time>2015-05-01T13:02:05.0000000+00:00</time></trkpt><trkpt lat="34.9995501" lon="33.3989254"><ele>272.8</ele><time>2015-05-01T13:02:08.0000000+00:00</time></trkpt><trkpt lat="34.9996021" lon="33.3988702"><ele>272.2</ele><time>2015-05-01T13:02:11.0000000+00:00</time></trkpt><trkpt lat="34.9996399" lon="33.398805"><ele>272.1</ele><time>2015-05-01T13:02:13.0000000+00:00</time></trkpt><trkpt lat="34.9996805" lon="33.3987293"><ele>271.3</ele><time>2015-05-01T13:02:15.0000000+00:00</time></trkpt><trkpt lat="34.9997223" lon="33.3986513"><ele>271.6</ele><time>2015-05-01T13:02:17.0000000+00:00</time></trkpt><trkpt lat="34.999768" lon="33.39857"><ele>270.7</ele><time>2015-05-01T13:02:19.0000000+00:00</time></trkpt><trkpt lat="34.9998019" lon="33.3985059"><ele>270.3</ele><time>2015-05-01T13:02:20.0000000+00:00</time></trkpt><trkpt lat="34.9998326" lon="33.3984657"><ele>270.7</ele><time>2015-05-01T13:02:21.0000000+00:00</time></trkpt><trkpt lat="34.9998843" lon="33.3983752"><ele>270.9</ele><time>2015-05-01T13:02:23.0000000+00:00</time></trkpt><trkpt lat="34.9999105" lon="33.398325"><ele>271.0</ele><time>2015-05-01T13:02:24.0000000+00:00</time></trkpt><trkpt lat="34.9999398" lon="33.3982803"><ele>271.0</ele><time>2015-05-01T13:02:25.0000000+00:00</time></trkpt><trkpt lat="34.9999649" lon="33.3982314"><ele>270.5</ele><time>2015-05-01T13:02:26.0000000+00:00</time></trkpt><trkpt lat="35.0000174" lon="33.3981554"><ele>269.1</ele><time>2015-05-01T13:02:28.0000000+00:00</time></trkpt><trkpt lat="35.0000427" lon="33.3981046"><ele>268.6</ele><time>2015-05-01T13:02:29.0000000+00:00</time></trkpt><trkpt lat="35.0000835" lon="33.3980508"><ele>268.8</ele><time>2015-05-01T13:02:30.0000000+00:00</time></trkpt><trkpt lat="35.0001416" lon="33.3979556"><ele>268.2</ele><time>2015-05-01T13:02:32.0000000+00:00</time></trkpt><trkpt lat="35.0001821" lon="33.3979018"><ele>268.6</ele><time>2015-05-01T13:02:33.0000000+00:00</time></trkpt><trkpt lat="35.0002345" lon="33.3978072"><ele>268.2</ele><time>2015-05-01T13:02:35.0000000+00:00</time></trkpt><trkpt lat="35.0002665" lon="33.3977554"><ele>268.6</ele><time>2015-05-01T13:02:36.0000000+00:00</time></trkpt><trkpt lat="35.0003145" lon="33.3976563"><ele>268.9</ele><time>2015-05-01T13:02:38.0000000+00:00</time></trkpt><trkpt lat="35.0003358" lon="33.3976075"><ele>269.0</ele><time>2015-05-01T13:02:39.0000000+00:00</time></trkpt><trkpt lat="35.0003657" lon="33.3975579"><ele>269.0</ele><time>2015-05-01T13:02:40.0000000+00:00</time></trkpt><trkpt lat="35.00039" lon="33.3975062"><ele>269.0</ele><time>2015-05-01T13:02:41.0000000+00:00</time></trkpt><trkpt lat="35.0004166" lon="33.3974566"><ele>269.0</ele><time>2015-05-01T13:02:42.0000000+00:00</time></trkpt><trkpt lat="35.0004453" lon="33.397412"><ele>269.5</ele><time>2015-05-01T13:02:43.0000000+00:00</time></trkpt><trkpt lat="35.0004781" lon="33.3973732"><ele>269.8</ele><time>2015-05-01T13:02:44.0000000+00:00</time></trkpt><trkpt lat="35.0005258" lon="33.3972798"><ele>270.0</ele><time>2015-05-01T13:02:46.0000000+00:00</time></trkpt><trkpt lat="35.0005519" lon="33.3972274"><ele>269.5</ele><time>2015-05-01T13:02:47.0000000+00:00</time></trkpt><trkpt lat="35.000579" lon="33.3971768"><ele>269.8</ele><time>2015-05-01T13:02:48.0000000+00:00</time></trkpt><trkpt lat="35.0006134" lon="33.3971262"><ele>269.4</ele><time>2015-05-01T13:02:49.0000000+00:00</time></trkpt><trkpt lat="35.0006583" lon="33.3970439"><ele>269.1</ele><time>2015-05-01T13:02:51.0000000+00:00</time></trkpt><trkpt lat="35.0006902" lon="33.3969928"><ele>269.1</ele><time>2015-05-01T13:02:52.0000000+00:00</time></trkpt><trkpt lat="35.0007285" lon="33.3969519"><ele>269.0</ele><time>2015-05-01T13:02:53.0000000+00:00</time></trkpt><trkpt lat="35.0007729" lon="33.3968706"><ele>269.3</ele><time>2015-05-01T13:02:55.0000000+00:00</time></trkpt><trkpt lat="35.000799" lon="33.396822"><ele>269.1</ele><time>2015-05-01T13:02:56.0000000+00:00</time></trkpt><trkpt lat="35.0008419" lon="33.3967348"><ele>268.6</ele><time>2015-05-01T13:02:58.0000000+00:00</time></trkpt><trkpt lat="35.0008686" lon="33.3966893"><ele>268.3</ele><time>2015-05-01T13:02:59.0000000+00:00</time></trkpt><trkpt lat="35.0009173" lon="33.3966052"><ele>268.6</ele><time>2015-05-01T13:03:01.0000000+00:00</time></trkpt><trkpt lat="35.000962" lon="33.3965214"><ele>269.2</ele><time>2015-05-01T13:03:03.0000000+00:00</time></trkpt><trkpt lat="35.0009883" lon="33.396475"><ele>269.1</ele><time>2015-05-01T13:03:04.0000000+00:00</time></trkpt><trkpt lat="35.0010117" lon="33.3964271"><ele>269.1</ele><time>2015-05-01T13:03:05.0000000+00:00</time></trkpt><trkpt lat="35.0010447" lon="33.3963722"><ele>269.0</ele><time>2015-05-01T13:03:06.0000000+00:00</time></trkpt><trkpt lat="35.0010706" lon="33.3963244"><ele>268.5</ele><time>2015-05-01T13:03:07.0000000+00:00</time></trkpt><trkpt lat="35.0010999" lon="33.3962734"><ele>268.8</ele><time>2015-05-01T13:03:08.0000000+00:00</time></trkpt><trkpt lat="35.0011335" lon="33.3962233"><ele>268.9</ele><time>2015-05-01T13:03:09.0000000+00:00</time></trkpt><trkpt lat="35.001163" lon="33.396173"><ele>269.0</ele><time>2015-05-01T13:03:10.0000000+00:00</time></trkpt><trkpt lat="35.0011862" lon="33.396121"><ele>269.0</ele><time>2015-05-01T13:03:11.0000000+00:00</time></trkpt><trkpt lat="35.0012148" lon="33.3960705"><ele>269.0</ele><time>2015-05-01T13:03:12.0000000+00:00</time></trkpt><trkpt lat="35.0012402" lon="33.3960165"><ele>269.0</ele><time>2015-05-01T13:03:13.0000000+00:00</time></trkpt><trkpt lat="35.0012682" lon="33.3959701"><ele>269.5</ele><time>2015-05-01T13:03:14.0000000+00:00</time></trkpt><trkpt lat="35.0012923" lon="33.3959208"><ele>269.8</ele><time>2015-05-01T13:03:15.0000000+00:00</time></trkpt><trkpt lat="35.0013231" lon="33.3958802"><ele>269.9</ele><time>2015-05-01T13:03:16.0000000+00:00</time></trkpt><trkpt lat="35.0013525" lon="33.395838"><ele>270.5</ele><time>2015-05-01T13:03:17.0000000+00:00</time></trkpt><trkpt lat="35.0014061" lon="33.3957688"><ele>270.9</ele><time>2015-05-01T13:03:19.0000000+00:00</time></trkpt><trkpt lat="35.0014552" lon="33.3957034"><ele>271.7</ele><time>2015-05-01T13:03:21.0000000+00:00</time></trkpt><trkpt lat="35.0014992" lon="33.3956535"><ele>271.9</ele><time>2015-05-01T13:03:23.0000000+00:00</time></trkpt><trkpt lat="35.0015496" lon="33.3955862"><ele>272.5</ele><time>2015-05-01T13:03:25.0000000+00:00</time></trkpt><trkpt lat="35.0016055" lon="33.3955157"><ele>272.9</ele><time>2015-05-01T13:03:27.0000000+00:00</time></trkpt><trkpt lat="35.0016637" lon="33.3954388"><ele>272.2</ele><time>2015-05-01T13:03:29.0000000+00:00</time></trkpt><trkpt lat="35.0016961" lon="33.3953951"><ele>272.1</ele><time>2015-05-01T13:03:30.0000000+00:00</time></trkpt><trkpt lat="35.0017254" lon="33.3953475"><ele>272.1</ele><time>2015-05-01T13:03:31.0000000+00:00</time></trkpt><trkpt lat="35.0017573" lon="33.3953004"><ele>272.0</ele><time>2015-05-01T13:03:32.0000000+00:00</time></trkpt><trkpt lat="35.0017884" lon="33.3952571"><ele>272.0</ele><time>2015-05-01T13:03:33.0000000+00:00</time></trkpt><trkpt lat="35.0018261" lon="33.3952079"><ele>272.5</ele><time>2015-05-01T13:03:34.0000000+00:00</time></trkpt><trkpt lat="35.0018582" lon="33.3951662"><ele>272.8</ele><time>2015-05-01T13:03:35.0000000+00:00</time></trkpt><trkpt lat="35.001894" lon="33.3951201"><ele>272.9</ele><time>2015-05-01T13:03:36.0000000+00:00</time></trkpt><trkpt lat="35.0019274" lon="33.395077"><ele>273.0</ele><time>2015-05-01T13:03:37.0000000+00:00</time></trkpt><trkpt lat="35.0019647" lon="33.395015"><ele>273.0</ele><time>2015-05-01T13:03:38.0000000+00:00</time></trkpt><trkpt lat="35.0019964" lon="33.3949702"><ele>273.5</ele><time>2015-05-01T13:03:39.0000000+00:00</time></trkpt><trkpt lat="35.0020354" lon="33.3949234"><ele>273.8</ele><time>2015-05-01T13:03:40.0000000+00:00</time></trkpt><trkpt lat="35.0020676" lon="33.3948801"><ele>273.4</ele><time>2015-05-01T13:03:41.0000000+00:00</time></trkpt><trkpt lat="35.0021029" lon="33.3948313"><ele>272.7</ele><time>2015-05-01T13:03:42.0000000+00:00</time></trkpt><trkpt lat="35.0021374" lon="33.3947816"><ele>272.4</ele><time>2015-05-01T13:03:43.0000000+00:00</time></trkpt><trkpt lat="35.002177" lon="33.3947285"><ele>272.2</ele><time>2015-05-01T13:03:44.0000000+00:00</time></trkpt><trkpt lat="35.0022181" lon="33.3946837"><ele>272.1</ele><time>2015-05-01T13:03:45.0000000+00:00</time></trkpt><trkpt lat="35.0022613" lon="33.3946331"><ele>272.6</ele><time>2015-05-01T13:03:46.0000000+00:00</time></trkpt><trkpt lat="35.0023014" lon="33.3945901"><ele>272.8</ele><time>2015-05-01T13:03:47.0000000+00:00</time></trkpt><trkpt lat="35.0023737" lon="33.3945228"><ele>273.0</ele><time>2015-05-01T13:03:49.0000000+00:00</time></trkpt><trkpt lat="35.002411" lon="33.39448"><ele>272.5</ele><time>2015-05-01T13:03:50.0000000+00:00</time></trkpt><trkpt lat="35.0024786" lon="33.3944197"><ele>272.1</ele><time>2015-05-01T13:03:52.0000000+00:00</time></trkpt><trkpt lat="35.0025198" lon="33.3943814"><ele>272.1</ele><time>2015-05-01T13:03:53.0000000+00:00</time></trkpt><trkpt lat="35.0025712" lon="33.3943367"><ele>270.3</ele><time>2015-05-01T13:03:55.0000000+00:00</time></trkpt><trkpt lat="35.0026414" lon="33.3942921"><ele>269.8</ele><time>2015-05-01T13:03:57.0000000+00:00</time></trkpt><trkpt lat="35.0026983" lon="33.3942764"><ele>269.5</ele><time>2015-05-01T13:03:59.0000000+00:00</time></trkpt><trkpt lat="35.0027495" lon="33.3942524"><ele>270.4</ele><time>2015-05-01T13:04:01.0000000+00:00</time></trkpt><trkpt lat="35.0027964" lon="33.3942268"><ele>271.4</ele><time>2015-05-01T13:04:03.0000000+00:00</time></trkpt><trkpt lat="35.0028416" lon="33.3942021"><ele>271.1</ele><time>2015-05-01T13:04:05.0000000+00:00</time></trkpt><trkpt lat="35.0028937" lon="33.3941727"><ele>271.9</ele><time>2015-05-01T13:04:08.0000000+00:00</time></trkpt><trkpt lat="35.0029415" lon="33.3941493"><ele>272.0</ele><time>2015-05-01T13:04:13.0000000+00:00</time></trkpt><trkpt lat="35.0030072" lon="33.3941369"><ele>272.9</ele><time>2015-05-01T13:04:16.0000000+00:00</time></trkpt><trkpt lat="35.0030812" lon="33.39412"><ele>273.7</ele><time>2015-05-01T13:04:18.0000000+00:00</time></trkpt><trkpt lat="35.0031657" lon="33.3941104"><ele>273.5</ele><time>2015-05-01T13:04:20.0000000+00:00</time></trkpt><trkpt lat="35.0032517" lon="33.3941008"><ele>272.9</ele><time>2015-05-01T13:04:22.0000000+00:00</time></trkpt><trkpt lat="35.003337" lon="33.3940822"><ele>273.5</ele><time>2015-05-01T13:04:24.0000000+00:00</time></trkpt><trkpt lat="35.003414" lon="33.394068"><ele>273.9</ele><time>2015-05-01T13:04:26.0000000+00:00</time></trkpt><trkpt lat="35.0034862" lon="33.3940661"><ele>274.5</ele><time>2015-05-01T13:04:28.0000000+00:00</time></trkpt><trkpt lat="35.0035498" lon="33.3940667"><ele>279.7</ele><time>2015-05-01T13:04:31.0000000+00:00</time></trkpt><trkpt lat="35.0036152" lon="33.3940736"><ele>281.2</ele><time>2015-05-01T13:04:33.0000000+00:00</time></trkpt><trkpt lat="35.0036795" lon="33.3940848"><ele>281.8</ele><time>2015-05-01T13:04:35.0000000+00:00</time></trkpt><trkpt lat="35.0037215" lon="33.3941112"><ele>283.0</ele><time>2015-05-01T13:04:38.0000000+00:00</time></trkpt><trkpt lat="35.003771" lon="33.394121"><ele>279.9</ele><time>2015-05-01T13:04:41.0000000+00:00</time></trkpt><trkpt lat="35.003842" lon="33.3940831"><ele>280.5</ele><time>2015-05-01T13:04:43.0000000+00:00</time></trkpt><trkpt lat="35.0039219" lon="33.3940511"><ele>280.4</ele><time>2015-05-01T13:04:45.0000000+00:00</time></trkpt><trkpt lat="35.0040072" lon="33.394024"><ele>280.1</ele><time>2015-05-01T13:04:47.0000000+00:00</time></trkpt><trkpt lat="35.0040508" lon="33.3939924"><ele>280.1</ele><time>2015-05-01T13:04:48.0000000+00:00</time></trkpt><trkpt lat="35.0040983" lon="33.3939811"><ele>280.0</ele><time>2015-05-01T13:04:49.0000000+00:00</time></trkpt><trkpt lat="35.0041456" lon="33.3939712"><ele>280.5</ele><time>2015-05-01T13:04:50.0000000+00:00</time></trkpt><trkpt lat="35.0041952" lon="33.3939608"><ele>280.8</ele><time>2015-05-01T13:04:51.0000000+00:00</time></trkpt><trkpt lat="35.0042487" lon="33.3939486"><ele>280.4</ele><time>2015-05-01T13:04:52.0000000+00:00</time></trkpt><trkpt lat="35.0043011" lon="33.3939402"><ele>280.7</ele><time>2015-05-01T13:04:53.0000000+00:00</time></trkpt><trkpt lat="35.0043525" lon="33.3939348"><ele>280.9</ele><time>2015-05-01T13:04:54.0000000+00:00</time></trkpt><trkpt lat="35.0044042" lon="33.3939178"><ele>280.4</ele><time>2015-05-01T13:04:55.0000000+00:00</time></trkpt><trkpt lat="35.0044633" lon="33.3939072"><ele>280.2</ele><time>2015-05-01T13:04:56.0000000+00:00</time></trkpt><trkpt lat="35.0045198" lon="33.393896"><ele>279.6</ele><time>2015-05-01T13:04:57.0000000+00:00</time></trkpt><trkpt lat="35.0045759" lon="33.3938881"><ele>279.8</ele><time>2015-05-01T13:04:58.0000000+00:00</time></trkpt><trkpt lat="35.0046198" lon="33.3938747"><ele>279.9</ele><time>2015-05-01T13:04:59.0000000+00:00</time></trkpt><trkpt lat="35.0046997" lon="33.3938594"><ele>279.5</ele><time>2015-05-01T13:05:01.0000000+00:00</time></trkpt><trkpt lat="35.0047641" lon="33.3938549"><ele>278.9</ele><time>2015-05-01T13:05:03.0000000+00:00</time></trkpt><trkpt lat="35.0048284" lon="33.3938419"><ele>280.0</ele><time>2015-05-01T13:05:05.0000000+00:00</time></trkpt><trkpt lat="35.0048919" lon="33.39383"><ele>280.0</ele><time>2015-05-01T13:05:07.0000000+00:00</time></trkpt><trkpt lat="35.0049514" lon="33.3938177"><ele>280.0</ele><time>2015-05-01T13:05:09.0000000+00:00</time></trkpt><trkpt lat="35.0049991" lon="33.3938193"><ele>280.8</ele><time>2015-05-01T13:05:11.0000000+00:00</time></trkpt><trkpt lat="35.0050448" lon="33.3938176"><ele>281.0</ele><time>2015-05-01T13:05:13.0000000+00:00</time></trkpt><trkpt lat="35.0050969" lon="33.3938095"><ele>281.3</ele><time>2015-05-01T13:05:15.0000000+00:00</time></trkpt><trkpt lat="35.0051628" lon="33.3938035"><ele>281.6</ele><time>2015-05-01T13:05:17.0000000+00:00</time></trkpt><trkpt lat="35.0052499" lon="33.3937987"><ele>282.4</ele><time>2015-05-01T13:05:19.0000000+00:00</time></trkpt><trkpt lat="35.0053195" lon="33.3937916"><ele>282.2</ele><time>2015-05-01T13:05:20.0000000+00:00</time></trkpt><trkpt lat="35.0053741" lon="33.3937931"><ele>282.1</ele><time>2015-05-01T13:05:21.0000000+00:00</time></trkpt><trkpt lat="35.0054275" lon="33.3937899"><ele>282.1</ele><time>2015-05-01T13:05:22.0000000+00:00</time></trkpt><trkpt lat="35.005481" lon="33.3937944"><ele>282.5</ele><time>2015-05-01T13:05:23.0000000+00:00</time></trkpt><trkpt lat="35.0055381" lon="33.3937898"><ele>282.3</ele><time>2015-05-01T13:05:24.0000000+00:00</time></trkpt><trkpt lat="35.0055947" lon="33.3937913"><ele>282.7</ele><time>2015-05-01T13:05:25.0000000+00:00</time></trkpt><trkpt lat="35.0056425" lon="33.3937977"><ele>283.3</ele><time>2015-05-01T13:05:26.0000000+00:00</time></trkpt><trkpt lat="35.0056936" lon="33.3937964"><ele>283.2</ele><time>2015-05-01T13:05:27.0000000+00:00</time></trkpt><trkpt lat="35.0057447" lon="33.3937998"><ele>283.6</ele><time>2015-05-01T13:05:28.0000000+00:00</time></trkpt><trkpt lat="35.0058245" lon="33.393804"><ele>282.7</ele><time>2015-05-01T13:05:30.0000000+00:00</time></trkpt><trkpt lat="35.0058757" lon="33.3938015"><ele>282.3</ele><time>2015-05-01T13:05:31.0000000+00:00</time></trkpt><trkpt lat="35.0059237" lon="33.3938101"><ele>281.7</ele><time>2015-05-01T13:05:32.0000000+00:00</time></trkpt><trkpt lat="35.0059752" lon="33.393815"><ele>281.4</ele><time>2015-05-01T13:05:33.0000000+00:00</time></trkpt><trkpt lat="35.0060345" lon="33.3938254"><ele>279.7</ele><time>2015-05-01T13:05:34.0000000+00:00</time></trkpt><trkpt lat="35.0060978" lon="33.3938339"><ele>278.4</ele><time>2015-05-01T13:05:35.0000000+00:00</time></trkpt><trkpt lat="35.0061612" lon="33.3938445"><ele>277.2</ele><time>2015-05-01T13:05:36.0000000+00:00</time></trkpt><trkpt lat="35.006222" lon="33.3938466"><ele>276.6</ele><time>2015-05-01T13:05:37.0000000+00:00</time></trkpt><trkpt lat="35.0062803" lon="33.3938545"><ele>276.3</ele><time>2015-05-01T13:05:38.0000000+00:00</time></trkpt><trkpt lat="35.0063376" lon="33.3938648"><ele>276.2</ele><time>2015-05-01T13:05:39.0000000+00:00</time></trkpt><trkpt lat="35.0063968" lon="33.3938702"><ele>276.1</ele><time>2015-05-01T13:05:40.0000000+00:00</time></trkpt><trkpt lat="35.006456" lon="33.3938738"><ele>276.1</ele><time>2015-05-01T13:05:41.0000000+00:00</time></trkpt><trkpt lat="35.0065313" lon="33.393893"><ele>276.0</ele><time>2015-05-01T13:05:42.0000000+00:00</time></trkpt><trkpt lat="35.0065825" lon="33.3939"><ele>276.0</ele><time>2015-05-01T13:05:43.0000000+00:00</time></trkpt><trkpt lat="35.0066447" lon="33.3939084"><ele>277.5</ele><time>2015-05-01T13:05:44.0000000+00:00</time></trkpt><trkpt lat="35.0067036" lon="33.3939227"><ele>278.3</ele><time>2015-05-01T13:05:45.0000000+00:00</time></trkpt><trkpt lat="35.0067605" lon="33.3939297"><ele>278.6</ele><time>2015-05-01T13:05:46.0000000+00:00</time></trkpt><trkpt lat="35.0068165" lon="33.393938"><ele>278.8</ele><time>2015-05-01T13:05:47.0000000+00:00</time></trkpt><trkpt lat="35.0068698" lon="33.3939499"><ele>278.9</ele><time>2015-05-01T13:05:48.0000000+00:00</time></trkpt><trkpt lat="35.0069201" lon="33.3939584"><ele>279.0</ele><time>2015-05-01T13:05:49.0000000+00:00</time></trkpt><trkpt lat="35.0069725" lon="33.393957"><ele>279.0</ele><time>2015-05-01T13:05:50.0000000+00:00</time></trkpt><trkpt lat="35.0070192" lon="33.3939646"><ele>279.0</ele><time>2015-05-01T13:05:51.0000000+00:00</time></trkpt><trkpt lat="35.0070725" lon="33.3939705"><ele>279.0</ele><time>2015-05-01T13:05:52.0000000+00:00</time></trkpt><trkpt lat="35.0071223" lon="33.3939726"><ele>279.0</ele><time>2015-05-01T13:05:53.0000000+00:00</time></trkpt><trkpt lat="35.0071712" lon="33.3939761"><ele>279.0</ele><time>2015-05-01T13:05:54.0000000+00:00</time></trkpt><trkpt lat="35.0072495" lon="33.3939849"><ele>279.5</ele><time>2015-05-01T13:05:56.0000000+00:00</time></trkpt><trkpt lat="35.0073187" lon="33.393991"><ele>279.9</ele><time>2015-05-01T13:05:58.0000000+00:00</time></trkpt><trkpt lat="35.00741" lon="33.3939887"><ele>279.7</ele><time>2015-05-01T13:06:00.0000000+00:00</time></trkpt><trkpt lat="35.007462" lon="33.3939955"><ele>279.9</ele><time>2015-05-01T13:06:01.0000000+00:00</time></trkpt><trkpt lat="35.0075172" lon="33.3940026"><ele>280.0</ele><time>2015-05-01T13:06:02.0000000+00:00</time></trkpt><trkpt lat="35.0075731" lon="33.3940084"><ele>279.5</ele><time>2015-05-01T13:06:03.0000000+00:00</time></trkpt><trkpt lat="35.0076275" lon="33.3940125"><ele>279.8</ele><time>2015-05-01T13:06:04.0000000+00:00</time></trkpt><trkpt lat="35.0076787" lon="33.3940108"><ele>279.4</ele><time>2015-05-01T13:06:05.0000000+00:00</time></trkpt><trkpt lat="35.007735" lon="33.3940057"><ele>279.7</ele><time>2015-05-01T13:06:06.0000000+00:00</time></trkpt><trkpt lat="35.0077865" lon="33.3940028"><ele>279.9</ele><time>2015-05-01T13:06:07.0000000+00:00</time></trkpt><trkpt lat="35.0078453" lon="33.3939945"><ele>279.9</ele><time>2015-05-01T13:06:08.0000000+00:00</time></trkpt><trkpt lat="35.0079018" lon="33.3939958"><ele>280.0</ele><time>2015-05-01T13:06:09.0000000+00:00</time></trkpt><trkpt lat="35.0079483" lon="33.3939934"><ele>279.5</ele><time>2015-05-01T13:06:10.0000000+00:00</time></trkpt><trkpt lat="35.0080007" lon="33.3939936"><ele>279.3</ele><time>2015-05-01T13:06:11.0000000+00:00</time></trkpt><trkpt lat="35.0080524" lon="33.3939874"><ele>279.1</ele><time>2015-05-01T13:06:12.0000000+00:00</time></trkpt><trkpt lat="35.008105" lon="33.3939869"><ele>279.1</ele><time>2015-05-01T13:06:13.0000000+00:00</time></trkpt><trkpt lat="35.008154" lon="33.3939857"><ele>279.6</ele><time>2015-05-01T13:06:14.0000000+00:00</time></trkpt><trkpt lat="35.0081992" lon="33.393981"><ele>279.8</ele><time>2015-05-01T13:06:15.0000000+00:00</time></trkpt><trkpt lat="35.0082439" lon="33.3939734"><ele>279.9</ele><time>2015-05-01T13:06:16.0000000+00:00</time></trkpt><trkpt lat="35.0083265" lon="33.393966"><ele>279.2</ele><time>2015-05-01T13:06:18.0000000+00:00</time></trkpt><trkpt lat="35.0083757" lon="33.3939709"><ele>278.6</ele><time>2015-05-01T13:06:19.0000000+00:00</time></trkpt><trkpt lat="35.0084268" lon="33.393961"><ele>278.2</ele><time>2015-05-01T13:06:21.0000000+00:00</time></trkpt><trkpt lat="35.0084733" lon="33.3939635"><ele>278.1</ele><time>2015-05-01T13:06:23.0000000+00:00</time></trkpt><trkpt lat="35.0085063" lon="33.3940168"><ele>278.0</ele><time>2015-05-01T13:06:26.0000000+00:00</time></trkpt><trkpt lat="35.0085339" lon="33.3940714"><ele>278.0</ele><time>2015-05-01T13:06:28.0000000+00:00</time></trkpt><trkpt lat="35.0085806" lon="33.3941145"><ele>278.0</ele><time>2015-05-01T13:06:30.0000000+00:00</time></trkpt><trkpt lat="35.0086463" lon="33.3941268"><ele>278.0</ele><time>2015-05-01T13:06:32.0000000+00:00</time></trkpt><trkpt lat="35.0087137" lon="33.3941247"><ele>278.0</ele><time>2015-05-01T13:06:34.0000000+00:00</time></trkpt><trkpt lat="35.0087765" lon="33.3941191"><ele>278.0</ele><time>2015-05-01T13:06:36.0000000+00:00</time></trkpt><trkpt lat="35.0088297" lon="33.3941197"><ele>278.0</ele><time>2015-05-01T13:06:38.0000000+00:00</time></trkpt><trkpt lat="35.0088741" lon="33.3941054"><ele>270.6</ele><time>2015-05-01T13:08:42.0000000+00:00</time></trkpt><trkpt lat="35.0089097" lon="33.3940372"><ele>270.9</ele><time>2015-05-01T13:08:46.0000000+00:00</time></trkpt><trkpt lat="35.0089278" lon="33.3939687"><ele>270.6</ele><time>2015-05-01T13:08:49.0000000+00:00</time></trkpt><trkpt lat="35.0089796" lon="33.3939444"><ele>269.4</ele><time>2015-05-01T13:08:54.0000000+00:00</time></trkpt><trkpt lat="35.0090331" lon="33.3939406"><ele>271.5</ele><time>2015-05-01T13:08:59.0000000+00:00</time></trkpt><trkpt lat="35.0090853" lon="33.3939246"><ele>272.8</ele><time>2015-05-01T13:09:03.0000000+00:00</time></trkpt><trkpt lat="35.0091314" lon="33.3938854"><ele>273.2</ele><time>2015-05-01T13:09:06.0000000+00:00</time></trkpt><trkpt lat="35.0091733" lon="33.3938345"><ele>273.9</ele><time>2015-05-01T13:09:09.0000000+00:00</time></trkpt><trkpt lat="35.0092331" lon="33.3938066"><ele>274.0</ele><time>2015-05-01T13:09:33.0000000+00:00</time></trkpt><trkpt lat="35.0093045" lon="33.3937983"><ele>274.0</ele><time>2015-05-01T13:09:35.0000000+00:00</time></trkpt><trkpt lat="35.0093895" lon="33.3937807"><ele>274.0</ele><time>2015-05-01T13:09:37.0000000+00:00</time></trkpt><trkpt lat="35.0094348" lon="33.3937706"><ele>274.0</ele><time>2015-05-01T13:09:38.0000000+00:00</time></trkpt><trkpt lat="35.0095122" lon="33.3937581"><ele>274.0</ele><time>2015-05-01T13:09:39.0000000+00:00</time></trkpt><trkpt lat="35.0095595" lon="33.3937513"><ele>274.0</ele><time>2015-05-01T13:09:40.0000000+00:00</time></trkpt><trkpt lat="35.0096138" lon="33.3937528"><ele>274.0</ele><time>2015-05-01T13:09:41.0000000+00:00</time></trkpt><trkpt lat="35.0096618" lon="33.3937499"><ele>274.0</ele><time>2015-05-01T13:09:42.0000000+00:00</time></trkpt><trkpt lat="35.0097492" lon="33.3937431"><ele>274.0</ele><time>2015-05-01T13:09:44.0000000+00:00</time></trkpt><trkpt lat="35.0097981" lon="33.3937429"><ele>274.0</ele><time>2015-05-01T13:09:45.0000000+00:00</time></trkpt><trkpt lat="35.0098433" lon="33.3937411"><ele>274.0</ele><time>2015-05-01T13:09:46.0000000+00:00</time></trkpt><trkpt lat="35.0098888" lon="33.393735"><ele>274.0</ele><time>2015-05-01T13:09:47.0000000+00:00</time></trkpt><trkpt lat="35.0099408" lon="33.3937308"><ele>274.0</ele><time>2015-05-01T13:09:48.0000000+00:00</time></trkpt><trkpt lat="35.009986" lon="33.3937288"><ele>274.0</ele><time>2015-05-01T13:09:49.0000000+00:00</time></trkpt><trkpt lat="35.01007" lon="33.3937178"><ele>274.0</ele><time>2015-05-01T13:09:51.0000000+00:00</time></trkpt><trkpt lat="35.0101514" lon="33.3937001"><ele>274.0</ele><time>2015-05-01T13:09:53.0000000+00:00</time></trkpt><trkpt lat="35.0102294" lon="33.3936794"><ele>274.0</ele><time>2015-05-01T13:09:55.0000000+00:00</time></trkpt><trkpt lat="35.0102883" lon="33.3936768"><ele>273.5</ele><time>2015-05-01T13:09:56.0000000+00:00</time></trkpt><trkpt lat="35.0103683" lon="33.3936662"><ele>273.9</ele><time>2015-05-01T13:09:58.0000000+00:00</time></trkpt><trkpt lat="35.0104451" lon="33.3936527"><ele>274.0</ele><time>2015-05-01T13:10:00.0000000+00:00</time></trkpt><trkpt lat="35.0105203" lon="33.393641"><ele>273.8</ele><time>2015-05-01T13:10:02.0000000+00:00</time></trkpt><trkpt lat="35.0106007" lon="33.3936242"><ele>274.0</ele><time>2015-05-01T13:10:04.0000000+00:00</time></trkpt><trkpt lat="35.0106468" lon="33.3936132"><ele>274.0</ele><time>2015-05-01T13:10:05.0000000+00:00</time></trkpt><trkpt lat="35.0106958" lon="33.3936029"><ele>274.0</ele><time>2015-05-01T13:10:06.0000000+00:00</time></trkpt><trkpt lat="35.0107504" lon="33.393602"><ele>274.0</ele><time>2015-05-01T13:10:07.0000000+00:00</time></trkpt><trkpt lat="35.0108036" lon="33.3935978"><ele>274.0</ele><time>2015-05-01T13:10:08.0000000+00:00</time></trkpt><trkpt lat="35.0108543" lon="33.3935882"><ele>274.0</ele><time>2015-05-01T13:10:09.0000000+00:00</time></trkpt><trkpt lat="35.0109003" lon="33.3935816"><ele>274.0</ele><time>2015-05-01T13:10:10.0000000+00:00</time></trkpt><trkpt lat="35.0109793" lon="33.3935763"><ele>274.0</ele><time>2015-05-01T13:10:12.0000000+00:00</time></trkpt><trkpt lat="35.0110246" lon="33.3935684"><ele>274.0</ele><time>2015-05-01T13:10:13.0000000+00:00</time></trkpt><trkpt lat="35.0111034" lon="33.3935557"><ele>274.0</ele><time>2015-05-01T13:10:15.0000000+00:00</time></trkpt><trkpt lat="35.0111518" lon="33.3935428"><ele>274.0</ele><time>2015-05-01T13:10:16.0000000+00:00</time></trkpt><trkpt lat="35.0112034" lon="33.3935456"><ele>274.0</ele><time>2015-05-01T13:10:17.0000000+00:00</time></trkpt><trkpt lat="35.011293" lon="33.3935472"><ele>274.0</ele><time>2015-05-01T13:10:19.0000000+00:00</time></trkpt><trkpt lat="35.0113442" lon="33.393547"><ele>274.0</ele><time>2015-05-01T13:10:20.0000000+00:00</time></trkpt><trkpt lat="35.0113969" lon="33.3935423"><ele>274.0</ele><time>2015-05-01T13:10:21.0000000+00:00</time></trkpt><trkpt lat="35.0114445" lon="33.3935381"><ele>273.5</ele><time>2015-05-01T13:10:22.0000000+00:00</time></trkpt><trkpt lat="35.0114978" lon="33.3935275"><ele>273.3</ele><time>2015-05-01T13:10:23.0000000+00:00</time></trkpt><trkpt lat="35.0115518" lon="33.3935229"><ele>273.1</ele><time>2015-05-01T13:10:24.0000000+00:00</time></trkpt><trkpt lat="35.0116025" lon="33.3935264"><ele>272.6</ele><time>2015-05-01T13:10:25.0000000+00:00</time></trkpt><trkpt lat="35.0116541" lon="33.3935331"><ele>272.3</ele><time>2015-05-01T13:10:26.0000000+00:00</time></trkpt><trkpt lat="35.0117033" lon="33.3935349"><ele>272.2</ele><time>2015-05-01T13:10:27.0000000+00:00</time></trkpt><trkpt lat="35.0117562" lon="33.393546"><ele>272.6</ele><time>2015-05-01T13:10:28.0000000+00:00</time></trkpt><trkpt lat="35.0118116" lon="33.3935572"><ele>272.8</ele><time>2015-05-01T13:10:29.0000000+00:00</time></trkpt><trkpt lat="35.0118678" lon="33.3935668"><ele>272.4</ele><time>2015-05-01T13:10:30.0000000+00:00</time></trkpt><trkpt lat="35.011915" lon="33.3935758"><ele>272.2</ele><time>2015-05-01T13:10:31.0000000+00:00</time></trkpt><trkpt lat="35.0119715" lon="33.393578"><ele>272.1</ele><time>2015-05-01T13:10:32.0000000+00:00</time></trkpt><trkpt lat="35.0120229" lon="33.3935801"><ele>272.6</ele><time>2015-05-01T13:10:33.0000000+00:00</time></trkpt><trkpt lat="35.012075" lon="33.3935906"><ele>272.8</ele><time>2015-05-01T13:10:34.0000000+00:00</time></trkpt><trkpt lat="35.0121242" lon="33.3935985"><ele>272.9</ele><time>2015-05-01T13:10:35.0000000+00:00</time></trkpt><trkpt lat="35.0121788" lon="33.3936136"><ele>273.0</ele><time>2015-05-01T13:10:36.0000000+00:00</time></trkpt><trkpt lat="35.0122268" lon="33.393636"><ele>273.0</ele><time>2015-05-01T13:10:37.0000000+00:00</time></trkpt><trkpt lat="35.0122791" lon="33.3936419"><ele>273.0</ele><time>2015-05-01T13:10:38.0000000+00:00</time></trkpt><trkpt lat="35.012329" lon="33.3936527"><ele>273.0</ele><time>2015-05-01T13:10:39.0000000+00:00</time></trkpt><trkpt lat="35.012381" lon="33.3936738"><ele>273.0</ele><time>2015-05-01T13:10:40.0000000+00:00</time></trkpt><trkpt lat="35.0124299" lon="33.3936832"><ele>273.0</ele><time>2015-05-01T13:10:41.0000000+00:00</time></trkpt><trkpt lat="35.012485" lon="33.3936984"><ele>273.0</ele><time>2015-05-01T13:10:42.0000000+00:00</time></trkpt><trkpt lat="35.0125746" lon="33.3937197"><ele>273.0</ele><time>2015-05-01T13:10:44.0000000+00:00</time></trkpt><trkpt lat="35.0126578" lon="33.3937428"><ele>273.0</ele><time>2015-05-01T13:10:46.0000000+00:00</time></trkpt><trkpt lat="35.0127424" lon="33.3937672"><ele>273.8</ele><time>2015-05-01T13:10:48.0000000+00:00</time></trkpt><trkpt lat="35.012818" lon="33.3937788"><ele>274.0</ele><time>2015-05-01T13:10:50.0000000+00:00</time></trkpt><trkpt lat="35.0129042" lon="33.3937918"><ele>274.0</ele><time>2015-05-01T13:10:52.0000000+00:00</time></trkpt><trkpt lat="35.0129841" lon="33.3938021"><ele>274.0</ele><time>2015-05-01T13:10:54.0000000+00:00</time></trkpt><trkpt lat="35.0130625" lon="33.3938277"><ele>274.0</ele><time>2015-05-01T13:10:56.0000000+00:00</time></trkpt><trkpt lat="35.0131456" lon="33.3938462"><ele>273.5</ele><time>2015-05-01T13:10:58.0000000+00:00</time></trkpt><trkpt lat="35.0132295" lon="33.3938609"><ele>273.1</ele><time>2015-05-01T13:11:00.0000000+00:00</time></trkpt><trkpt lat="35.0133126" lon="33.3938695"><ele>273.1</ele><time>2015-05-01T13:11:02.0000000+00:00</time></trkpt><trkpt lat="35.0133996" lon="33.3938843"><ele>272.5</ele><time>2015-05-01T13:11:04.0000000+00:00</time></trkpt><trkpt lat="35.0134823" lon="33.3938953"><ele>272.6</ele><time>2015-05-01T13:11:06.0000000+00:00</time></trkpt><trkpt lat="35.0135616" lon="33.3939012"><ele>272.2</ele><time>2015-05-01T13:11:08.0000000+00:00</time></trkpt><trkpt lat="35.0136345" lon="33.3939097"><ele>272.1</ele><time>2015-05-01T13:11:10.0000000+00:00</time></trkpt><trkpt lat="35.0136947" lon="33.3939168"><ele>272.5</ele><time>2015-05-01T13:11:12.0000000+00:00</time></trkpt><trkpt lat="35.0137495" lon="33.3939136"><ele>272.9</ele><time>2015-05-01T13:11:14.0000000+00:00</time></trkpt><trkpt lat="35.0138001" lon="33.3939157"><ele>272.5</ele><time>2015-05-01T13:11:16.0000000+00:00</time></trkpt><trkpt lat="35.0138456" lon="33.3939367"><ele>272.1</ele><time>2015-05-01T13:11:18.0000000+00:00</time></trkpt><trkpt lat="35.0138874" lon="33.3939643"><ele>272.1</ele><time>2015-05-01T13:11:20.0000000+00:00</time></trkpt><trkpt lat="35.0139427" lon="33.3939783"><ele>273.6</ele><time>2015-05-01T13:11:23.0000000+00:00</time></trkpt><trkpt lat="35.013897" lon="33.3939378"><ele>273.1</ele><time>2015-05-01T13:11:33.0000000+00:00</time></trkpt><trkpt lat="35.0138389" lon="33.393924"><ele>273.3</ele><time>2015-05-01T13:11:35.0000000+00:00</time></trkpt><trkpt lat="35.0137769" lon="33.3939148"><ele>273.1</ele><time>2015-05-01T13:11:37.0000000+00:00</time></trkpt><trkpt lat="35.0137247" lon="33.3938934"><ele>273.0</ele><time>2015-05-01T13:11:39.0000000+00:00</time></trkpt><trkpt lat="35.0137298" lon="33.3938353"><ele>273.3</ele><time>2015-05-01T13:11:54.0000000+00:00</time></trkpt><trkpt lat="35.0137352" lon="33.3938986"><ele>273.0</ele><time>2015-05-01T13:12:00.0000000+00:00</time></trkpt><trkpt lat="35.0136774" lon="33.3939166"><ele>273.0</ele><time>2015-05-01T13:12:03.0000000+00:00</time></trkpt><trkpt lat="35.013633" lon="33.3939058"><ele>273.0</ele><time>2015-05-01T13:12:05.0000000+00:00</time></trkpt><trkpt lat="35.0135836" lon="33.3938855"><ele>272.5</ele><time>2015-05-01T13:12:07.0000000+00:00</time></trkpt><trkpt lat="35.0135265" lon="33.3938692"><ele>272.4</ele><time>2015-05-01T13:12:09.0000000+00:00</time></trkpt><trkpt lat="35.013477" lon="33.393857"><ele>272.1</ele><time>2015-05-01T13:12:11.0000000+00:00</time></trkpt><trkpt lat="35.0134195" lon="33.3938634"><ele>272.0</ele><time>2015-05-01T13:12:14.0000000+00:00</time></trkpt><trkpt lat="35.0133614" lon="33.3938673"><ele>271.5</ele><time>2015-05-01T13:12:17.0000000+00:00</time></trkpt><trkpt lat="35.0133119" lon="33.3938615"><ele>271.4</ele><time>2015-05-01T13:12:19.0000000+00:00</time></trkpt><trkpt lat="35.0132453" lon="33.3938448"><ele>271.1</ele><time>2015-05-01T13:12:21.0000000+00:00</time></trkpt><trkpt lat="35.0131773" lon="33.3938206"><ele>271.8</ele><time>2015-05-01T13:12:23.0000000+00:00</time></trkpt><trkpt lat="35.0131138" lon="33.3937937"><ele>272.0</ele><time>2015-05-01T13:12:25.0000000+00:00</time></trkpt><trkpt lat="35.0130645" lon="33.3937571"><ele>272.8</ele><time>2015-05-01T13:12:27.0000000+00:00</time></trkpt><trkpt lat="35.0130393" lon="33.3937069"><ele>273.0</ele><time>2015-05-01T13:12:29.0000000+00:00</time></trkpt><trkpt lat="35.013025" lon="33.3936532"><ele>273.0</ele><time>2015-05-01T13:12:31.0000000+00:00</time></trkpt><trkpt lat="35.0130208" lon="33.3935964"><ele>273.0</ele><time>2015-05-01T13:12:33.0000000+00:00</time></trkpt><trkpt lat="35.0130165" lon="33.39354"><ele>273.0</ele><time>2015-05-01T13:13:01.0000000+00:00</time></trkpt><trkpt lat="35.012972" lon="33.3935192"><ele>273.0</ele><time>2015-05-01T13:13:09.0000000+00:00</time></trkpt><trkpt lat="35.0129781" lon="33.3935838"><ele>273.0</ele><time>2015-05-01T13:13:12.0000000+00:00</time></trkpt><trkpt lat="35.0130027" lon="33.3936483"><ele>273.0</ele><time>2015-05-01T13:13:14.0000000+00:00</time></trkpt><trkpt lat="35.0130259" lon="33.3937139"><ele>273.0</ele><time>2015-05-01T13:13:16.0000000+00:00</time></trkpt><trkpt lat="35.0130556" lon="33.3937715"><ele>273.0</ele><time>2015-05-01T13:13:18.0000000+00:00</time></trkpt><trkpt lat="35.0130981" lon="33.393813"><ele>273.0</ele><time>2015-05-01T13:13:20.0000000+00:00</time></trkpt><trkpt lat="35.0131539" lon="33.3938354"><ele>273.0</ele><time>2015-05-01T13:13:22.0000000+00:00</time></trkpt><trkpt lat="35.0132131" lon="33.3938484"><ele>273.0</ele><time>2015-05-01T13:13:24.0000000+00:00</time></trkpt><trkpt lat="35.0132741" lon="33.39386"><ele>273.0</ele><time>2015-05-01T13:13:26.0000000+00:00</time></trkpt><trkpt lat="35.0133398" lon="33.3938731"><ele>273.0</ele><time>2015-05-01T13:13:28.0000000+00:00</time></trkpt><trkpt lat="35.013419" lon="33.3938872"><ele>272.5</ele><time>2015-05-01T13:13:30.0000000+00:00</time></trkpt><trkpt lat="35.0135016" lon="33.3939042"><ele>272.1</ele><time>2015-05-01T13:13:32.0000000+00:00</time></trkpt><trkpt lat="35.0135876" lon="33.3939228"><ele>271.8</ele><time>2015-05-01T13:13:34.0000000+00:00</time></trkpt><trkpt lat="35.0136772" lon="33.3939421"><ele>272.0</ele><time>2015-05-01T13:13:36.0000000+00:00</time></trkpt><trkpt lat="35.0137653" lon="33.3939636"><ele>272.5</ele><time>2015-05-01T13:13:38.0000000+00:00</time></trkpt><trkpt lat="35.0138542" lon="33.3939766"><ele>272.4</ele><time>2015-05-01T13:13:40.0000000+00:00</time></trkpt><trkpt lat="35.0139358" lon="33.3939785"><ele>272.1</ele><time>2015-05-01T13:13:42.0000000+00:00</time></trkpt><trkpt lat="35.0140131" lon="33.3939782"><ele>272.5</ele><time>2015-05-01T13:13:44.0000000+00:00</time></trkpt><trkpt lat="35.0140823" lon="33.3939889"><ele>273.4</ele><time>2015-05-01T13:13:46.0000000+00:00</time></trkpt><trkpt lat="35.0141371" lon="33.3939989"><ele>273.9</ele><time>2015-05-01T13:13:48.0000000+00:00</time></trkpt><trkpt lat="35.0141854" lon="33.394003"><ele>274.0</ele><time>2015-05-01T13:13:50.0000000+00:00</time></trkpt><trkpt lat="35.014249" lon="33.393987"><ele>274.0</ele><time>2015-05-01T13:13:53.0000000+00:00</time></trkpt><trkpt lat="35.0142924" lon="33.3939301"><ele>274.0</ele><time>2015-05-01T13:13:56.0000000+00:00</time></trkpt><trkpt lat="35.0143267" lon="33.3938678"><ele>273.8</ele><time>2015-05-01T13:13:59.0000000+00:00</time></trkpt><trkpt lat="35.0143451" lon="33.3938157"><ele>273.2</ele><time>2015-05-01T13:14:01.0000000+00:00</time></trkpt><trkpt lat="35.0143558" lon="33.3937604"><ele>273.1</ele><time>2015-05-01T13:14:03.0000000+00:00</time></trkpt><trkpt lat="35.0143588" lon="33.3936964"><ele>273.0</ele><time>2015-05-01T13:14:05.0000000+00:00</time></trkpt><trkpt lat="35.0143515" lon="33.3936286"><ele>272.5</ele><time>2015-05-01T13:14:07.0000000+00:00</time></trkpt><trkpt lat="35.0143392" lon="33.39354"><ele>272.1</ele><time>2015-05-01T13:14:09.0000000+00:00</time></trkpt><trkpt lat="35.0143252" lon="33.3934434"><ele>272.6</ele><time>2015-05-01T13:14:11.0000000+00:00</time></trkpt><trkpt lat="35.0143035" lon="33.3933487"><ele>272.3</ele><time>2015-05-01T13:14:12.0000000+00:00</time></trkpt><trkpt lat="35.0142902" lon="33.3932943"><ele>272.2</ele><time>2015-05-01T13:14:13.0000000+00:00</time></trkpt><trkpt lat="35.0142856" lon="33.39323"><ele>272.1</ele><time>2015-05-01T13:14:14.0000000+00:00</time></trkpt><trkpt lat="35.0142772" lon="33.3931731"><ele>272.6</ele><time>2015-05-01T13:14:15.0000000+00:00</time></trkpt><trkpt lat="35.0142736" lon="33.3931131"><ele>272.3</ele><time>2015-05-01T13:14:16.0000000+00:00</time></trkpt><trkpt lat="35.014264" lon="33.3930566"><ele>272.2</ele><time>2015-05-01T13:14:17.0000000+00:00</time></trkpt><trkpt lat="35.0142558" lon="33.3929977"><ele>272.1</ele><time>2015-05-01T13:14:18.0000000+00:00</time></trkpt><trkpt lat="35.0142408" lon="33.392909"><ele>271.5</ele><time>2015-05-01T13:14:20.0000000+00:00</time></trkpt><trkpt lat="35.0142263" lon="33.3928091"><ele>271.2</ele><time>2015-05-01T13:14:22.0000000+00:00</time></trkpt><trkpt lat="35.0142111" lon="33.3926949"><ele>271.1</ele><time>2015-05-01T13:14:24.0000000+00:00</time></trkpt><trkpt lat="35.0142097" lon="33.3926328"><ele>270.5</ele><time>2015-05-01T13:14:25.0000000+00:00</time></trkpt><trkpt lat="35.0142055" lon="33.3925712"><ele>270.8</ele><time>2015-05-01T13:14:26.0000000+00:00</time></trkpt><trkpt lat="35.0141998" lon="33.3925148"><ele>270.9</ele><time>2015-05-01T13:14:27.0000000+00:00</time></trkpt><trkpt lat="35.0141904" lon="33.3924597"><ele>270.5</ele><time>2015-05-01T13:14:28.0000000+00:00</time></trkpt><trkpt lat="35.014171" lon="33.3923499"><ele>270.1</ele><time>2015-05-01T13:14:30.0000000+00:00</time></trkpt><trkpt lat="35.0141619" lon="33.392295"><ele>270.6</ele><time>2015-05-01T13:14:31.0000000+00:00</time></trkpt><trkpt lat="35.0141513" lon="33.3922352"><ele>270.3</ele><time>2015-05-01T13:14:32.0000000+00:00</time></trkpt><trkpt lat="35.0141462" lon="33.3921729"><ele>270.7</ele><time>2015-05-01T13:14:33.0000000+00:00</time></trkpt><trkpt lat="35.0141388" lon="33.3921153"><ele>270.8</ele><time>2015-05-01T13:14:34.0000000+00:00</time></trkpt><trkpt lat="35.0141292" lon="33.3920586"><ele>270.9</ele><time>2015-05-01T13:14:35.0000000+00:00</time></trkpt><trkpt lat="35.0141207" lon="33.3919958"><ele>271.0</ele><time>2015-05-01T13:14:36.0000000+00:00</time></trkpt><trkpt lat="35.0141188" lon="33.3919408"><ele>270.5</ele><time>2015-05-01T13:14:37.0000000+00:00</time></trkpt><trkpt lat="35.0141106" lon="33.3918821"><ele>270.3</ele><time>2015-05-01T13:14:38.0000000+00:00</time></trkpt><trkpt lat="35.014103" lon="33.3918174"><ele>270.1</ele><time>2015-05-01T13:14:39.0000000+00:00</time></trkpt><trkpt lat="35.0140938" lon="33.3917574"><ele>270.6</ele><time>2015-05-01T13:14:40.0000000+00:00</time></trkpt><trkpt lat="35.0140832" lon="33.3916989"><ele>270.8</ele><time>2015-05-01T13:14:41.0000000+00:00</time></trkpt><trkpt lat="35.0140768" lon="33.3916436"><ele>270.9</ele><time>2015-05-01T13:14:42.0000000+00:00</time></trkpt><trkpt lat="35.0140647" lon="33.3915455"><ele>271.0</ele><time>2015-05-01T13:14:44.0000000+00:00</time></trkpt><trkpt lat="35.0140488" lon="33.3914584"><ele>271.8</ele><time>2015-05-01T13:14:46.0000000+00:00</time></trkpt><trkpt lat="35.0140298" lon="33.3913757"><ele>272.0</ele><time>2015-05-01T13:14:48.0000000+00:00</time></trkpt><trkpt lat="35.0140096" lon="33.391283"><ele>271.3</ele><time>2015-05-01T13:14:50.0000000+00:00</time></trkpt><trkpt lat="35.0139883" lon="33.3911926"><ele>271.1</ele><time>2015-05-01T13:14:52.0000000+00:00</time></trkpt><trkpt lat="35.0139612" lon="33.3910968"><ele>270.5</ele><time>2015-05-01T13:14:54.0000000+00:00</time></trkpt><trkpt lat="35.0139364" lon="33.3910013"><ele>270.1</ele><time>2015-05-01T13:14:56.0000000+00:00</time></trkpt><trkpt lat="35.0139174" lon="33.3909067"><ele>269.8</ele><time>2015-05-01T13:14:58.0000000+00:00</time></trkpt><trkpt lat="35.0139019" lon="33.3908145"><ele>270.5</ele><time>2015-05-01T13:15:00.0000000+00:00</time></trkpt><trkpt lat="35.0138781" lon="33.39073"><ele>270.9</ele><time>2015-05-01T13:15:02.0000000+00:00</time></trkpt><trkpt lat="35.0138495" lon="33.3906447"><ele>271.0</ele><time>2015-05-01T13:15:04.0000000+00:00</time></trkpt><trkpt lat="35.0138174" lon="33.3905577"><ele>271.0</ele><time>2015-05-01T13:15:06.0000000+00:00</time></trkpt><trkpt lat="35.0137823" lon="33.3904725"><ele>271.0</ele><time>2015-05-01T13:15:08.0000000+00:00</time></trkpt><trkpt lat="35.0137565" lon="33.3903848"><ele>271.0</ele><time>2015-05-01T13:15:10.0000000+00:00</time></trkpt><trkpt lat="35.0137204" lon="33.390297"><ele>270.5</ele><time>2015-05-01T13:15:12.0000000+00:00</time></trkpt><trkpt lat="35.0136741" lon="33.3902514"><ele>271.3</ele><time>2015-05-01T13:15:13.0000000+00:00</time></trkpt><trkpt lat="35.0136428" lon="33.3902042"><ele>271.1</ele><time>2015-05-01T13:15:14.0000000+00:00</time></trkpt><trkpt lat="35.0136069" lon="33.3901518"><ele>271.1</ele><time>2015-05-01T13:15:15.0000000+00:00</time></trkpt><trkpt lat="35.0135711" lon="33.3900894"><ele>271.1</ele><time>2015-05-01T13:15:16.0000000+00:00</time></trkpt><trkpt lat="35.0135485" lon="33.3900361"><ele>271.5</ele><time>2015-05-01T13:15:17.0000000+00:00</time></trkpt><trkpt lat="35.0135321" lon="33.389977"><ele>271.8</ele><time>2015-05-01T13:15:18.0000000+00:00</time></trkpt><trkpt lat="35.0135444" lon="33.3898632"><ele>271.2</ele><time>2015-05-01T13:15:20.0000000+00:00</time></trkpt><trkpt lat="35.013552" lon="33.3897522"><ele>270.3</ele><time>2015-05-01T13:15:22.0000000+00:00</time></trkpt><trkpt lat="35.0135529" lon="33.38969"><ele>270.2</ele><time>2015-05-01T13:15:23.0000000+00:00</time></trkpt><trkpt lat="35.0135505" lon="33.3896341"><ele>270.1</ele><time>2015-05-01T13:15:24.0000000+00:00</time></trkpt><trkpt lat="35.0135586" lon="33.389576"><ele>270.1</ele><time>2015-05-01T13:15:25.0000000+00:00</time></trkpt><trkpt lat="35.0135615" lon="33.3895156"><ele>270.5</ele><time>2015-05-01T13:15:26.0000000+00:00</time></trkpt><trkpt lat="35.013586" lon="33.3894597"><ele>270.3</ele><time>2015-05-01T13:15:27.0000000+00:00</time></trkpt><trkpt lat="35.0136055" lon="33.3893966"><ele>270.2</ele><time>2015-05-01T13:15:28.0000000+00:00</time></trkpt><trkpt lat="35.0136266" lon="33.3893305"><ele>270.1</ele><time>2015-05-01T13:15:29.0000000+00:00</time></trkpt><trkpt lat="35.0136368" lon="33.389272"><ele>270.1</ele><time>2015-05-01T13:15:30.0000000+00:00</time></trkpt><trkpt lat="35.0136289" lon="33.3892039"><ele>270.3</ele><time>2015-05-01T13:15:32.0000000+00:00</time></trkpt><trkpt lat="35.013596" lon="33.389139"><ele>271.8</ele><time>2015-05-01T13:15:35.0000000+00:00</time></trkpt><trkpt lat="35.0136035" lon="33.3890819"><ele>271.7</ele><time>2015-05-01T13:15:37.0000000+00:00</time></trkpt><trkpt lat="35.0135974" lon="33.3890053"><ele>271.1</ele><time>2015-05-01T13:15:40.0000000+00:00</time></trkpt><trkpt lat="35.013592" lon="33.3889322"><ele>271.0</ele><time>2015-05-01T13:15:43.0000000+00:00</time></trkpt><trkpt lat="35.0135905" lon="33.3888681"><ele>260.7</ele><time>2015-05-01T13:16:05.0000000+00:00</time></trkpt><trkpt lat="35.0136228" lon="33.3889189"><ele>260.5</ele><time>2015-05-01T13:16:12.0000000+00:00</time></trkpt><trkpt lat="35.0136168" lon="33.3889804"><ele>258.5</ele><time>2015-05-01T13:16:15.0000000+00:00</time></trkpt><trkpt lat="35.0136179" lon="33.3890436"><ele>257.6</ele><time>2015-05-01T13:16:17.0000000+00:00</time></trkpt><trkpt lat="35.0136234" lon="33.3891129"><ele>256.9</ele><time>2015-05-01T13:16:19.0000000+00:00</time></trkpt><trkpt lat="35.013641" lon="33.3891734"><ele>256.2</ele><time>2015-05-01T13:16:21.0000000+00:00</time></trkpt><trkpt lat="35.0136808" lon="33.3892047"><ele>255.3</ele><time>2015-05-01T13:16:23.0000000+00:00</time></trkpt><trkpt lat="35.0137319" lon="33.3891987"><ele>255.1</ele><time>2015-05-01T13:16:25.0000000+00:00</time></trkpt><trkpt lat="35.0137778" lon="33.389186"><ele>254.3</ele><time>2015-05-01T13:16:27.0000000+00:00</time></trkpt><trkpt lat="35.01383" lon="33.3891499"><ele>254.8</ele><time>2015-05-01T13:16:30.0000000+00:00</time></trkpt><trkpt lat="35.0138668" lon="33.3891179"><ele>256.7</ele><time>2015-05-01T13:16:32.0000000+00:00</time></trkpt><trkpt lat="35.0139264" lon="33.389113"><ele>257.4</ele><time>2015-05-01T13:16:34.0000000+00:00</time></trkpt><trkpt lat="35.0139905" lon="33.3891304"><ele>258.6</ele><time>2015-05-01T13:16:36.0000000+00:00</time></trkpt><trkpt lat="35.0140521" lon="33.3891446"><ele>257.7</ele><time>2015-05-01T13:16:38.0000000+00:00</time></trkpt><trkpt lat="35.0141083" lon="33.3891616"><ele>257.4</ele><time>2015-05-01T13:16:40.0000000+00:00</time></trkpt><trkpt lat="35.0141652" lon="33.3891752"><ele>256.6</ele><time>2015-05-01T13:16:42.0000000+00:00</time></trkpt><trkpt lat="35.0142244" lon="33.3891818"><ele>255.7</ele><time>2015-05-01T13:16:44.0000000+00:00</time></trkpt><trkpt lat="35.0142833" lon="33.3891841"><ele>254.9</ele><time>2015-05-01T13:16:46.0000000+00:00</time></trkpt><trkpt lat="35.0143272" lon="33.3892159"><ele>253.3</ele><time>2015-05-01T13:16:50.0000000+00:00</time></trkpt><trkpt lat="35.0143304" lon="33.3892826"><ele>253.6</ele><time>2015-05-01T13:16:52.0000000+00:00</time></trkpt><trkpt lat="35.0142995" lon="33.3893761"><ele>252.7</ele><time>2015-05-01T13:16:54.0000000+00:00</time></trkpt><trkpt lat="35.0142575" lon="33.3894692"><ele>252.2</ele><time>2015-05-01T13:16:56.0000000+00:00</time></trkpt><trkpt lat="35.014225" lon="33.389566"><ele>253.3</ele><time>2015-05-01T13:16:58.0000000+00:00</time></trkpt><trkpt lat="35.0141965" lon="33.3896521"><ele>253.8</ele><time>2015-05-01T13:17:00.0000000+00:00</time></trkpt><trkpt lat="35.0141742" lon="33.3897114"><ele>254.7</ele><time>2015-05-01T13:17:02.0000000+00:00</time></trkpt><trkpt lat="35.014171" lon="33.389767"><ele>254.9</ele><time>2015-05-01T13:17:04.0000000+00:00</time></trkpt><trkpt lat="35.0141999" lon="33.3898176"><ele>254.0</ele><time>2015-05-01T13:17:06.0000000+00:00</time></trkpt><trkpt lat="35.0142476" lon="33.3898658"><ele>253.3</ele><time>2015-05-01T13:17:08.0000000+00:00</time></trkpt><trkpt lat="35.0142842" lon="33.3899041"><ele>253.1</ele><time>2015-05-01T13:17:09.0000000+00:00</time></trkpt><trkpt lat="35.0143208" lon="33.3899472"><ele>253.1</ele><time>2015-05-01T13:17:10.0000000+00:00</time></trkpt><trkpt lat="35.014372" lon="33.390002"><ele>253.1</ele><time>2015-05-01T13:17:11.0000000+00:00</time></trkpt><trkpt lat="35.0144022" lon="33.3900521"><ele>252.5</ele><time>2015-05-01T13:17:12.0000000+00:00</time></trkpt><trkpt lat="35.0144339" lon="33.3901004"><ele>252.3</ele><time>2015-05-01T13:17:13.0000000+00:00</time></trkpt><trkpt lat="35.0144654" lon="33.3901551"><ele>252.1</ele><time>2015-05-01T13:17:14.0000000+00:00</time></trkpt><trkpt lat="35.0144922" lon="33.3902135"><ele>252.1</ele><time>2015-05-01T13:17:15.0000000+00:00</time></trkpt><trkpt lat="35.0145174" lon="33.3902729"><ele>252.1</ele><time>2015-05-01T13:17:16.0000000+00:00</time></trkpt><trkpt lat="35.0145443" lon="33.3903332"><ele>252.0</ele><time>2015-05-01T13:17:17.0000000+00:00</time></trkpt><trkpt lat="35.0145766" lon="33.3903961"><ele>252.5</ele><time>2015-05-01T13:17:18.0000000+00:00</time></trkpt><trkpt lat="35.014603" lon="33.3904622"><ele>253.3</ele><time>2015-05-01T13:17:19.0000000+00:00</time></trkpt><trkpt lat="35.0146349" lon="33.3905278"><ele>253.1</ele><time>2015-05-01T13:17:20.0000000+00:00</time></trkpt><trkpt lat="35.0146679" lon="33.3905952"><ele>253.1</ele><time>2015-05-01T13:17:21.0000000+00:00</time></trkpt><trkpt lat="35.0147023" lon="33.3906625"><ele>253.1</ele><time>2015-05-01T13:17:22.0000000+00:00</time></trkpt><trkpt lat="35.014734" lon="33.3907316"><ele>253.5</ele><time>2015-05-01T13:17:23.0000000+00:00</time></trkpt><trkpt lat="35.0147702" lon="33.390801"><ele>254.3</ele><time>2015-05-01T13:17:24.0000000+00:00</time></trkpt><trkpt lat="35.0148005" lon="33.3908662"><ele>254.6</ele><time>2015-05-01T13:17:25.0000000+00:00</time></trkpt><trkpt lat="35.0148313" lon="33.3909296"><ele>254.8</ele><time>2015-05-01T13:17:26.0000000+00:00</time></trkpt><trkpt lat="35.0148601" lon="33.3909887"><ele>255.4</ele><time>2015-05-01T13:17:27.0000000+00:00</time></trkpt><trkpt lat="35.0148883" lon="33.3910533"><ele>255.7</ele><time>2015-05-01T13:17:28.0000000+00:00</time></trkpt><trkpt lat="35.0149183" lon="33.391114"><ele>255.9</ele><time>2015-05-01T13:17:29.0000000+00:00</time></trkpt><trkpt lat="35.0149469" lon="33.3911687"><ele>255.4</ele><time>2015-05-01T13:17:30.0000000+00:00</time></trkpt><trkpt lat="35.0149758" lon="33.3912203"><ele>255.7</ele><time>2015-05-01T13:17:31.0000000+00:00</time></trkpt><trkpt lat="35.0150016" lon="33.3912768"><ele>255.9</ele><time>2015-05-01T13:17:32.0000000+00:00</time></trkpt><trkpt lat="35.0150274" lon="33.3913305"><ele>255.9</ele><time>2015-05-01T13:17:33.0000000+00:00</time></trkpt><trkpt lat="35.0150553" lon="33.3913836"><ele>256.0</ele><time>2015-05-01T13:17:34.0000000+00:00</time></trkpt><trkpt lat="35.015084" lon="33.3914391"><ele>256.0</ele><time>2015-05-01T13:17:35.0000000+00:00</time></trkpt><trkpt lat="35.0151164" lon="33.3914974"><ele>256.0</ele><time>2015-05-01T13:17:36.0000000+00:00</time></trkpt><trkpt lat="35.0151447" lon="33.3915577"><ele>256.0</ele><time>2015-05-01T13:17:37.0000000+00:00</time></trkpt><trkpt lat="35.0151723" lon="33.3916168"><ele>256.0</ele><time>2015-05-01T13:17:38.0000000+00:00</time></trkpt><trkpt lat="35.0151984" lon="33.3916784"><ele>256.0</ele><time>2015-05-01T13:17:39.0000000+00:00</time></trkpt><trkpt lat="35.015228" lon="33.3917449"><ele>256.0</ele><time>2015-05-01T13:17:40.0000000+00:00</time></trkpt><trkpt lat="35.0152543" lon="33.3918063"><ele>256.0</ele><time>2015-05-01T13:17:41.0000000+00:00</time></trkpt><trkpt lat="35.0152839" lon="33.3918625"><ele>256.0</ele><time>2015-05-01T13:17:42.0000000+00:00</time></trkpt><trkpt lat="35.0153116" lon="33.3919142"><ele>256.0</ele><time>2015-05-01T13:17:43.0000000+00:00</time></trkpt><trkpt lat="35.0153386" lon="33.3919703"><ele>256.0</ele><time>2015-05-01T13:17:44.0000000+00:00</time></trkpt><trkpt lat="35.0153651" lon="33.3920201"><ele>256.5</ele><time>2015-05-01T13:17:45.0000000+00:00</time></trkpt><trkpt lat="35.0153892" lon="33.3920725"><ele>256.8</ele><time>2015-05-01T13:17:46.0000000+00:00</time></trkpt><trkpt lat="35.015418" lon="33.3921148"><ele>256.9</ele><time>2015-05-01T13:17:47.0000000+00:00</time></trkpt><trkpt lat="35.0154686" lon="33.3921931"><ele>257.0</ele><time>2015-05-01T13:17:49.0000000+00:00</time></trkpt><trkpt lat="35.0155189" lon="33.3922595"><ele>257.0</ele><time>2015-05-01T13:17:51.0000000+00:00</time></trkpt><trkpt lat="35.015554" lon="33.3923068"><ele>257.0</ele><time>2015-05-01T13:17:53.0000000+00:00</time></trkpt><trkpt lat="35.0155765" lon="33.3923548"><ele>256.0</ele><time>2015-05-01T13:18:05.0000000+00:00</time></trkpt><trkpt lat="35.0155933" lon="33.3924077"><ele>255.3</ele><time>2015-05-01T13:18:09.0000000+00:00</time></trkpt><trkpt lat="35.0155563" lon="33.3924827"><ele>255.7</ele><time>2015-05-01T13:18:12.0000000+00:00</time></trkpt><trkpt lat="35.0154457" lon="33.3925386"><ele>255.2</ele><time>2015-05-01T13:18:14.0000000+00:00</time></trkpt><trkpt lat="35.0153427" lon="33.3925563"><ele>255.8</ele><time>2015-05-01T13:18:16.0000000+00:00</time></trkpt><trkpt lat="35.0152928" lon="33.3925737"><ele>256.4</ele><time>2015-05-01T13:18:17.0000000+00:00</time></trkpt><trkpt lat="35.0152371" lon="33.3925948"><ele>256.7</ele><time>2015-05-01T13:18:18.0000000+00:00</time></trkpt><trkpt lat="35.0151808" lon="33.3926078"><ele>256.9</ele><time>2015-05-01T13:18:19.0000000+00:00</time></trkpt><trkpt lat="35.015118" lon="33.3926173"><ele>256.9</ele><time>2015-05-01T13:18:20.0000000+00:00</time></trkpt><trkpt lat="35.0150604" lon="33.3926343"><ele>257.0</ele><time>2015-05-01T13:18:21.0000000+00:00</time></trkpt><trkpt lat="35.0149982" lon="33.3926423"><ele>256.5</ele><time>2015-05-01T13:18:22.0000000+00:00</time></trkpt><trkpt lat="35.0149441" lon="33.3926488"><ele>256.3</ele><time>2015-05-01T13:18:23.0000000+00:00</time></trkpt><trkpt lat="35.0148855" lon="33.3926558"><ele>255.6</ele><time>2015-05-01T13:18:24.0000000+00:00</time></trkpt><trkpt lat="35.0148291" lon="33.3926665"><ele>255.8</ele><time>2015-05-01T13:18:25.0000000+00:00</time></trkpt><trkpt lat="35.0147786" lon="33.3926789"><ele>255.4</ele><time>2015-05-01T13:18:26.0000000+00:00</time></trkpt><trkpt lat="35.0147264" lon="33.3927044"><ele>255.7</ele><time>2015-05-01T13:18:27.0000000+00:00</time></trkpt><trkpt lat="35.0146807" lon="33.3927176"><ele>255.4</ele><time>2015-05-01T13:18:28.0000000+00:00</time></trkpt><trkpt lat="35.0146357" lon="33.3927318"><ele>254.7</ele><time>2015-05-01T13:18:29.0000000+00:00</time></trkpt><trkpt lat="35.0145588" lon="33.39274"><ele>253.4</ele><time>2015-05-01T13:18:31.0000000+00:00</time></trkpt><trkpt lat="35.0144878" lon="33.3927527"><ele>253.6</ele><time>2015-05-01T13:18:33.0000000+00:00</time></trkpt><trkpt lat="35.0144182" lon="33.3927732"><ele>254.4</ele><time>2015-05-01T13:18:35.0000000+00:00</time></trkpt><trkpt lat="35.0143617" lon="33.3927841"><ele>255.4</ele><time>2015-05-01T13:18:37.0000000+00:00</time></trkpt><trkpt lat="35.0143169" lon="33.392799"><ele>255.9</ele><time>2015-05-01T13:18:39.0000000+00:00</time></trkpt><trkpt lat="35.0142773" lon="33.3928314"><ele>256.8</ele><time>2015-05-01T13:18:42.0000000+00:00</time></trkpt><trkpt lat="35.014257" lon="33.3928914"><ele>259.6</ele><time>2015-05-01T13:18:46.0000000+00:00</time></trkpt><trkpt lat="35.0142687" lon="33.3929482"><ele>258.9</ele><time>2015-05-01T13:18:48.0000000+00:00</time></trkpt><trkpt lat="35.0142897" lon="33.3930314"><ele>257.7</ele><time>2015-05-01T13:18:50.0000000+00:00</time></trkpt><trkpt lat="35.0143105" lon="33.3931184"><ele>257.5</ele><time>2015-05-01T13:18:52.0000000+00:00</time></trkpt><trkpt lat="35.0143266" lon="33.3932017"><ele>257.4</ele><time>2015-05-01T13:18:54.0000000+00:00</time></trkpt><trkpt lat="35.0143386" lon="33.3932822"><ele>256.9</ele><time>2015-05-01T13:18:56.0000000+00:00</time></trkpt><trkpt lat="35.014349" lon="33.3933498"><ele>257.0</ele><time>2015-05-01T13:18:58.0000000+00:00</time></trkpt><trkpt lat="35.0143544" lon="33.3934108"><ele>257.5</ele><time>2015-05-01T13:19:00.0000000+00:00</time></trkpt><trkpt lat="35.0143569" lon="33.3934697"><ele>258.1</ele><time>2015-05-01T13:19:02.0000000+00:00</time></trkpt><trkpt lat="35.0143605" lon="33.3935314"><ele>258.6</ele><time>2015-05-01T13:19:04.0000000+00:00</time></trkpt><trkpt lat="35.0143712" lon="33.3935918"><ele>258.9</ele><time>2015-05-01T13:19:06.0000000+00:00</time></trkpt><trkpt lat="35.0143785" lon="33.3936544"><ele>259.7</ele><time>2015-05-01T13:19:08.0000000+00:00</time></trkpt><trkpt lat="35.0143804" lon="33.3937161"><ele>260.2</ele><time>2015-05-01T13:19:10.0000000+00:00</time></trkpt><trkpt lat="35.0143886" lon="33.3937755"><ele>260.1</ele><time>2015-05-01T13:19:12.0000000+00:00</time></trkpt><trkpt lat="35.014398" lon="33.3938348"><ele>260.0</ele><time>2015-05-01T13:19:14.0000000+00:00</time></trkpt><trkpt lat="35.0144015" lon="33.3938974"><ele>261.5</ele><time>2015-05-01T13:19:16.0000000+00:00</time></trkpt><trkpt lat="35.0143995" lon="33.3939589"><ele>261.1</ele><time>2015-05-01T13:19:18.0000000+00:00</time></trkpt><trkpt lat="35.014405" lon="33.394017"><ele>259.8</ele><time>2015-05-01T13:19:20.0000000+00:00</time></trkpt><trkpt lat="35.0143758" lon="33.393961"><ele>255.1</ele><time>2015-05-01T13:19:49.0000000+00:00</time></trkpt><trkpt lat="35.014371" lon="33.3938953"><ele>255.8</ele><time>2015-05-01T13:19:51.0000000+00:00</time></trkpt><trkpt lat="35.0143569" lon="33.3938201"><ele>255.7</ele><time>2015-05-01T13:19:53.0000000+00:00</time></trkpt><trkpt lat="35.0143502" lon="33.3937393"><ele>256.7</ele><time>2015-05-01T13:19:55.0000000+00:00</time></trkpt><trkpt lat="35.0143444" lon="33.3936516"><ele>256.2</ele><time>2015-05-01T13:19:57.0000000+00:00</time></trkpt><trkpt lat="35.0143339" lon="33.3935527"><ele>255.3</ele><time>2015-05-01T13:19:59.0000000+00:00</time></trkpt><trkpt lat="35.0143264" lon="33.3934518"><ele>254.3</ele><time>2015-05-01T13:20:01.0000000+00:00</time></trkpt><trkpt lat="35.0143154" lon="33.3933576"><ele>254.6</ele><time>2015-05-01T13:20:03.0000000+00:00</time></trkpt><trkpt lat="35.0143023" lon="33.3932585"><ele>254.7</ele><time>2015-05-01T13:20:05.0000000+00:00</time></trkpt><trkpt lat="35.0142909" lon="33.3931594"><ele>255.4</ele><time>2015-05-01T13:20:07.0000000+00:00</time></trkpt><trkpt lat="35.0142823" lon="33.3930685"><ele>256.6</ele><time>2015-05-01T13:20:09.0000000+00:00</time></trkpt><trkpt lat="35.0142737" lon="33.393001"><ele>255.9</ele><time>2015-05-01T13:20:11.0000000+00:00</time></trkpt><trkpt lat="35.0142368" lon="33.3929624"><ele>253.8</ele><time>2015-05-01T13:20:16.0000000+00:00</time></trkpt><trkpt lat="35.0141944" lon="33.3929338"><ele>256.1</ele><time>2015-05-01T13:20:25.0000000+00:00</time></trkpt><trkpt lat="35.014235" lon="33.392905"><ele>251.0</ele><time>2015-05-01T13:20:55.0000000+00:00</time></trkpt><trkpt lat="35.0142599" lon="33.3929598"><ele>251.0</ele><time>2015-05-01T13:20:59.0000000+00:00</time></trkpt><trkpt lat="35.0142735" lon="33.3930187"><ele>250.5</ele><time>2015-05-01T13:21:01.0000000+00:00</time></trkpt><trkpt lat="35.0142801" lon="33.3930901"><ele>250.9</ele><time>2015-05-01T13:21:03.0000000+00:00</time></trkpt><trkpt lat="35.0142887" lon="33.3931577"><ele>251.2</ele><time>2015-05-01T13:21:05.0000000+00:00</time></trkpt><trkpt lat="35.0143" lon="33.3932242"><ele>251.8</ele><time>2015-05-01T13:21:07.0000000+00:00</time></trkpt><trkpt lat="35.0143237" lon="33.3932873"><ele>252.7</ele><time>2015-05-01T13:21:09.0000000+00:00</time></trkpt><trkpt lat="35.014344" lon="33.3933536"><ele>253.4</ele><time>2015-05-01T13:21:11.0000000+00:00</time></trkpt><trkpt lat="35.0143531" lon="33.3934278"><ele>254.4</ele><time>2015-05-01T13:21:13.0000000+00:00</time></trkpt><trkpt lat="35.0143641" lon="33.3935237"><ele>254.9</ele><time>2015-05-01T13:21:15.0000000+00:00</time></trkpt><trkpt lat="35.0143745" lon="33.3936153"><ele>255.0</ele><time>2015-05-01T13:21:17.0000000+00:00</time></trkpt><trkpt lat="35.0143809" lon="33.3937016"><ele>255.5</ele><time>2015-05-01T13:21:19.0000000+00:00</time></trkpt><trkpt lat="35.0143787" lon="33.3937704"><ele>255.9</ele><time>2015-05-01T13:21:21.0000000+00:00</time></trkpt><trkpt lat="35.0143785" lon="33.3938315"><ele>256.5</ele><time>2015-05-01T13:21:23.0000000+00:00</time></trkpt><trkpt lat="35.01438" lon="33.3938948"><ele>257.4</ele><time>2015-05-01T13:21:25.0000000+00:00</time></trkpt><trkpt lat="35.0143813" lon="33.3939608"><ele>258.4</ele><time>2015-05-01T13:21:27.0000000+00:00</time></trkpt><trkpt lat="35.014387" lon="33.3940256"><ele>258.9</ele><time>2015-05-01T13:21:29.0000000+00:00</time></trkpt><trkpt lat="35.0144073" lon="33.3940746"><ele>258.2</ele><time>2015-05-01T13:21:31.0000000+00:00</time></trkpt><trkpt lat="35.0144492" lon="33.3940486"><ele>257.0</ele><time>2015-05-01T13:21:56.0000000+00:00</time></trkpt><trkpt lat="35.0144958" lon="33.3940357"><ele>258.5</ele><time>2015-05-01T13:22:11.0000000+00:00</time></trkpt><trkpt lat="35.0145547" lon="33.3940281"><ele>260.8</ele><time>2015-05-01T13:22:15.0000000+00:00</time></trkpt><trkpt lat="35.014613" lon="33.3940339"><ele>260.5</ele><time>2015-05-01T13:22:18.0000000+00:00</time></trkpt><trkpt lat="35.0146708" lon="33.3940529"><ele>260.3</ele><time>2015-05-01T13:22:21.0000000+00:00</time></trkpt><trkpt lat="35.014729" lon="33.3940799"><ele>260.6</ele><time>2015-05-01T13:22:24.0000000+00:00</time></trkpt><trkpt lat="35.0147818" lon="33.3941108"><ele>259.6</ele><time>2015-05-01T13:22:27.0000000+00:00</time></trkpt><trkpt lat="35.0148183" lon="33.3941602"><ele>260.3</ele><time>2015-05-01T13:23:17.0000000+00:00</time></trkpt><trkpt lat="35.0148755" lon="33.3941726"><ele>260.0</ele><time>2015-05-01T13:23:21.0000000+00:00</time></trkpt><trkpt lat="35.0149236" lon="33.3941781"><ele>259.8</ele><time>2015-05-01T13:23:24.0000000+00:00</time></trkpt><trkpt lat="35.0149901" lon="33.3941883"><ele>259.6</ele><time>2015-05-01T13:23:27.0000000+00:00</time></trkpt><trkpt lat="35.0150463" lon="33.3941985"><ele>260.4</ele><time>2015-05-01T13:23:29.0000000+00:00</time></trkpt><trkpt lat="35.0150976" lon="33.3942057"><ele>262.1</ele><time>2015-05-01T13:23:31.0000000+00:00</time></trkpt><trkpt lat="35.0151481" lon="33.3942088"><ele>263.5</ele><time>2015-05-01T13:23:33.0000000+00:00</time></trkpt><trkpt lat="35.0152072" lon="33.3942196"><ele>262.2</ele><time>2015-05-01T13:23:36.0000000+00:00</time></trkpt><trkpt lat="35.0152565" lon="33.3942362"><ele>260.4</ele><time>2015-05-01T13:23:39.0000000+00:00</time></trkpt><trkpt lat="35.0153085" lon="33.3942488"><ele>258.2</ele><time>2015-05-01T13:23:44.0000000+00:00</time></trkpt><trkpt lat="35.0153623" lon="33.3942472"><ele>256.9</ele><time>2015-05-01T13:23:50.0000000+00:00</time></trkpt><trkpt lat="35.0154111" lon="33.394269"><ele>260.2</ele><time>2015-05-01T13:23:55.0000000+00:00</time></trkpt><trkpt lat="35.015467" lon="33.3942726"><ele>257.1</ele><time>2015-05-01T13:24:18.0000000+00:00</time></trkpt><trkpt lat="35.0155286" lon="33.394297"><ele>258.5</ele><time>2015-05-01T13:24:20.0000000+00:00</time></trkpt><trkpt lat="35.0155789" lon="33.3943127"><ele>258.9</ele><time>2015-05-01T13:24:22.0000000+00:00</time></trkpt><trkpt lat="35.0156409" lon="33.3943353"><ele>257.5</ele><time>2015-05-01T13:24:24.0000000+00:00</time></trkpt><trkpt lat="35.0157222" lon="33.3943546"><ele>255.9</ele><time>2015-05-01T13:24:26.0000000+00:00</time></trkpt><trkpt lat="35.0158018" lon="33.3943772"><ele>254.7</ele><time>2015-05-01T13:24:28.0000000+00:00</time></trkpt><trkpt lat="35.0158808" lon="33.3944034"><ele>254.5</ele><time>2015-05-01T13:24:30.0000000+00:00</time></trkpt><trkpt lat="35.0159697" lon="33.3944241"><ele>253.4</ele><time>2015-05-01T13:24:32.0000000+00:00</time></trkpt><trkpt lat="35.0160273" lon="33.3944401"><ele>253.7</ele><time>2015-05-01T13:24:33.0000000+00:00</time></trkpt><trkpt lat="35.0160758" lon="33.3944477"><ele>253.9</ele><time>2015-05-01T13:24:34.0000000+00:00</time></trkpt><trkpt lat="35.0161256" lon="33.3944595"><ele>253.9</ele><time>2015-05-01T13:24:35.0000000+00:00</time></trkpt><trkpt lat="35.0161759" lon="33.3944697"><ele>254.0</ele><time>2015-05-01T13:24:36.0000000+00:00</time></trkpt><trkpt lat="35.0162229" lon="33.3944826"><ele>254.0</ele><time>2015-05-01T13:24:37.0000000+00:00</time></trkpt><trkpt lat="35.0162709" lon="33.3944954"><ele>254.5</ele><time>2015-05-01T13:24:38.0000000+00:00</time></trkpt><trkpt lat="35.0163196" lon="33.3945066"><ele>254.3</ele><time>2015-05-01T13:24:39.0000000+00:00</time></trkpt><trkpt lat="35.0163708" lon="33.3945096"><ele>253.6</ele><time>2015-05-01T13:24:40.0000000+00:00</time></trkpt><trkpt lat="35.016421" lon="33.3945198"><ele>253.3</ele><time>2015-05-01T13:24:41.0000000+00:00</time></trkpt><trkpt lat="35.0164687" lon="33.3945279"><ele>253.2</ele><time>2015-05-01T13:24:42.0000000+00:00</time></trkpt><trkpt lat="35.0165148" lon="33.3945336"><ele>253.1</ele><time>2015-05-01T13:24:43.0000000+00:00</time></trkpt><trkpt lat="35.0165684" lon="33.3945388"><ele>252.6</ele><time>2015-05-01T13:24:44.0000000+00:00</time></trkpt><trkpt lat="35.0166226" lon="33.3945476"><ele>252.3</ele><time>2015-05-01T13:24:45.0000000+00:00</time></trkpt><trkpt lat="35.0166792" lon="33.394561"><ele>252.7</ele><time>2015-05-01T13:24:46.0000000+00:00</time></trkpt><trkpt lat="35.0167344" lon="33.3945781"><ele>252.8</ele><time>2015-05-01T13:24:47.0000000+00:00</time></trkpt><trkpt lat="35.0167954" lon="33.3945925"><ele>252.9</ele><time>2015-05-01T13:24:48.0000000+00:00</time></trkpt><trkpt lat="35.016848" lon="33.3946074"><ele>253.0</ele><time>2015-05-01T13:24:49.0000000+00:00</time></trkpt><trkpt lat="35.0168975" lon="33.39462"><ele>253.0</ele><time>2015-05-01T13:24:50.0000000+00:00</time></trkpt><trkpt lat="35.016971" lon="33.3946302"><ele>253.0</ele><time>2015-05-01T13:24:52.0000000+00:00</time></trkpt><trkpt lat="35.0170233" lon="33.3946343"><ele>253.0</ele><time>2015-05-01T13:24:54.0000000+00:00</time></trkpt><trkpt lat="35.0170677" lon="33.3946447"><ele>252.5</ele><time>2015-05-01T13:24:57.0000000+00:00</time></trkpt><trkpt lat="35.0171269" lon="33.3946581"><ele>252.1</ele><time>2015-05-01T13:25:01.0000000+00:00</time></trkpt><trkpt lat="35.0171806" lon="33.3946761"><ele>252.8</ele><time>2015-05-01T13:25:04.0000000+00:00</time></trkpt><trkpt lat="35.0172299" lon="33.3946845"><ele>253.0</ele><time>2015-05-01T13:25:06.0000000+00:00</time></trkpt><trkpt lat="35.0172811" lon="33.3946919"><ele>252.3</ele><time>2015-05-01T13:25:08.0000000+00:00</time></trkpt><trkpt lat="35.017329" lon="33.3947051"><ele>252.6</ele><time>2015-05-01T13:25:10.0000000+00:00</time></trkpt><trkpt lat="35.0173763" lon="33.3947195"><ele>252.9</ele><time>2015-05-01T13:25:12.0000000+00:00</time></trkpt><trkpt lat="35.0174224" lon="33.3947316"><ele>252.2</ele><time>2015-05-01T13:25:14.0000000+00:00</time></trkpt><trkpt lat="35.0174671" lon="33.3947448"><ele>252.6</ele><time>2015-05-01T13:25:16.0000000+00:00</time></trkpt><trkpt lat="35.0174742" lon="33.3948127"><ele>253.2</ele><time>2015-05-01T13:25:19.0000000+00:00</time></trkpt><trkpt lat="35.0174141" lon="33.394821"><ele>253.1</ele><time>2015-05-01T13:25:21.0000000+00:00</time></trkpt><trkpt lat="35.0173462" lon="33.3948031"><ele>253.0</ele><time>2015-05-01T13:25:23.0000000+00:00</time></trkpt><trkpt lat="35.0172581" lon="33.3947862"><ele>252.8</ele><time>2015-05-01T13:25:25.0000000+00:00</time></trkpt><trkpt lat="35.0172108" lon="33.3947773"><ele>252.9</ele><time>2015-05-01T13:25:26.0000000+00:00</time></trkpt><trkpt lat="35.0171388" lon="33.3947655"><ele>252.5</ele><time>2015-05-01T13:25:27.0000000+00:00</time></trkpt><trkpt lat="35.0170935" lon="33.3947544"><ele>252.7</ele><time>2015-05-01T13:25:28.0000000+00:00</time></trkpt><trkpt lat="35.0170132" lon="33.3947372"><ele>252.5</ele><time>2015-05-01T13:25:30.0000000+00:00</time></trkpt><trkpt lat="35.0169407" lon="33.3947219"><ele>252.6</ele><time>2015-05-01T13:25:32.0000000+00:00</time></trkpt><trkpt lat="35.0168766" lon="33.3947073"><ele>252.2</ele><time>2015-05-01T13:25:34.0000000+00:00</time></trkpt><trkpt lat="35.0168029" lon="33.3947011"><ele>252.1</ele><time>2015-05-01T13:25:36.0000000+00:00</time></trkpt><trkpt lat="35.0167255" lon="33.3946834"><ele>252.0</ele><time>2015-05-01T13:25:38.0000000+00:00</time></trkpt><trkpt lat="35.0166464" lon="33.3946644"><ele>251.5</ele><time>2015-05-01T13:25:40.0000000+00:00</time></trkpt><trkpt lat="35.0165672" lon="33.394641"><ele>251.6</ele><time>2015-05-01T13:25:42.0000000+00:00</time></trkpt><trkpt lat="35.0164842" lon="33.3946232"><ele>251.9</ele><time>2015-05-01T13:25:44.0000000+00:00</time></trkpt><trkpt lat="35.0164022" lon="33.3946062"><ele>252.0</ele><time>2015-05-01T13:25:46.0000000+00:00</time></trkpt><trkpt lat="35.0163184" lon="33.3945898"><ele>252.0</ele><time>2015-05-01T13:25:48.0000000+00:00</time></trkpt><trkpt lat="35.0162411" lon="33.3945712"><ele>252.0</ele><time>2015-05-01T13:25:50.0000000+00:00</time></trkpt><trkpt lat="35.0161643" lon="33.3945477"><ele>252.0</ele><time>2015-05-01T13:25:52.0000000+00:00</time></trkpt><trkpt lat="35.0160858" lon="33.3945312"><ele>252.0</ele><time>2015-05-01T13:25:54.0000000+00:00</time></trkpt><trkpt lat="35.0159946" lon="33.3945136"><ele>252.0</ele><time>2015-05-01T13:25:56.0000000+00:00</time></trkpt><trkpt lat="35.0159486" lon="33.3945076"><ele>252.0</ele><time>2015-05-01T13:25:57.0000000+00:00</time></trkpt><trkpt lat="35.0159022" lon="33.3944989"><ele>252.0</ele><time>2015-05-01T13:25:58.0000000+00:00</time></trkpt><trkpt lat="35.0158562" lon="33.3944892"><ele>252.5</ele><time>2015-05-01T13:25:59.0000000+00:00</time></trkpt><trkpt lat="35.01581" lon="33.3944813"><ele>252.8</ele><time>2015-05-01T13:26:00.0000000+00:00</time></trkpt><trkpt lat="35.0157637" lon="33.3944754"><ele>252.4</ele><time>2015-05-01T13:26:01.0000000+00:00</time></trkpt><trkpt lat="35.0156831" lon="33.3944586"><ele>251.6</ele><time>2015-05-01T13:26:03.0000000+00:00</time></trkpt><trkpt lat="35.0156376" lon="33.3944484"><ele>251.3</ele><time>2015-05-01T13:26:04.0000000+00:00</time></trkpt><trkpt lat="35.0155523" lon="33.3944369"><ele>251.1</ele><time>2015-05-01T13:26:06.0000000+00:00</time></trkpt><trkpt lat="35.0155062" lon="33.3944359"><ele>251.6</ele><time>2015-05-01T13:26:07.0000000+00:00</time></trkpt><trkpt lat="35.0154581" lon="33.3944277"><ele>251.8</ele><time>2015-05-01T13:26:08.0000000+00:00</time></trkpt><trkpt lat="35.0154134" lon="33.3944195"><ele>251.9</ele><time>2015-05-01T13:26:09.0000000+00:00</time></trkpt><trkpt lat="35.0153637" lon="33.3944173"><ele>252.5</ele><time>2015-05-01T13:26:10.0000000+00:00</time></trkpt><trkpt lat="35.0153157" lon="33.3944147"><ele>252.7</ele><time>2015-05-01T13:26:11.0000000+00:00</time></trkpt><trkpt lat="35.0152701" lon="33.3944123"><ele>252.9</ele><time>2015-05-01T13:26:12.0000000+00:00</time></trkpt><trkpt lat="35.0152014" lon="33.3944058"><ele>252.2</ele><time>2015-05-01T13:26:14.0000000+00:00</time></trkpt><trkpt lat="35.0151481" lon="33.394408"><ele>253.6</ele><time>2015-05-01T13:26:16.0000000+00:00</time></trkpt><trkpt lat="35.0150939" lon="33.3943895"><ele>255.6</ele><time>2015-05-01T13:26:19.0000000+00:00</time></trkpt><trkpt lat="35.0150691" lon="33.3943426"><ele>257.8</ele><time>2015-05-01T13:36:29.0000000+00:00</time></trkpt><trkpt lat="35.0150248" lon="33.3943267"><ele>259.4</ele><time>2015-05-01T13:37:27.0000000+00:00</time></trkpt><trkpt lat="35.0149752" lon="33.3943152"><ele>259.1</ele><time>2015-05-01T13:37:29.0000000+00:00</time></trkpt><trkpt lat="35.014926" lon="33.3943174"><ele>259.3</ele><time>2015-05-01T13:37:31.0000000+00:00</time></trkpt><trkpt lat="35.014878" lon="33.394318"><ele>259.1</ele><time>2015-05-01T13:37:33.0000000+00:00</time></trkpt><trkpt lat="35.0148237" lon="33.3943325"><ele>258.3</ele><time>2015-05-01T13:37:36.0000000+00:00</time></trkpt><trkpt lat="35.0147703" lon="33.3943554"><ele>258.1</ele><time>2015-05-01T13:37:39.0000000+00:00</time></trkpt><trkpt lat="35.0147139" lon="33.3943947"><ele>258.0</ele><time>2015-05-01T13:37:42.0000000+00:00</time></trkpt><trkpt lat="35.0146675" lon="33.3944517"><ele>258.8</ele><time>2015-05-01T13:37:45.0000000+00:00</time></trkpt><trkpt lat="35.0146532" lon="33.3945043"><ele>259.5</ele><time>2015-05-01T13:37:47.0000000+00:00</time></trkpt><trkpt lat="35.0146474" lon="33.3945614"><ele>259.9</ele><time>2015-05-01T13:37:49.0000000+00:00</time></trkpt><trkpt lat="35.014644" lon="33.3946196"><ele>259.5</ele><time>2015-05-01T13:37:51.0000000+00:00</time></trkpt><trkpt lat="35.0146432" lon="33.3946854"><ele>259.1</ele><time>2015-05-01T13:37:53.0000000+00:00</time></trkpt><trkpt lat="35.014647" lon="33.3947505"><ele>258.6</ele><time>2015-05-01T13:37:55.0000000+00:00</time></trkpt><trkpt lat="35.014653" lon="33.3948176"><ele>257.7</ele><time>2015-05-01T13:37:57.0000000+00:00</time></trkpt><trkpt lat="35.0146509" lon="33.3948875"><ele>256.4</ele><time>2015-05-01T13:37:59.0000000+00:00</time></trkpt><trkpt lat="35.0146442" lon="33.3949713"><ele>256.9</ele><time>2015-05-01T13:38:01.0000000+00:00</time></trkpt><trkpt lat="35.0146467" lon="33.3950537"><ele>256.2</ele><time>2015-05-01T13:38:03.0000000+00:00</time></trkpt><trkpt lat="35.0146502" lon="33.3951415"><ele>257.3</ele><time>2015-05-01T13:38:05.0000000+00:00</time></trkpt><trkpt lat="35.0146513" lon="33.3952345"><ele>257.8</ele><time>2015-05-01T13:38:07.0000000+00:00</time></trkpt><trkpt lat="35.0146666" lon="33.3953788"><ele>258.0</ele><time>2015-05-01T13:38:09.0000000+00:00</time></trkpt><trkpt lat="35.0146682" lon="33.3954838"><ele>258.0</ele><time>2015-05-01T13:38:11.0000000+00:00</time></trkpt><trkpt lat="35.0146685" lon="33.3955734"><ele>258.0</ele><time>2015-05-01T13:38:13.0000000+00:00</time></trkpt><trkpt lat="35.014687" lon="33.3956553"><ele>257.8</ele><time>2015-05-01T13:38:15.0000000+00:00</time></trkpt><trkpt lat="35.0146965" lon="33.3957118"><ele>258.4</ele><time>2015-05-01T13:38:16.0000000+00:00</time></trkpt><trkpt lat="35.0147138" lon="33.3958032"><ele>258.4</ele><time>2015-05-01T13:38:18.0000000+00:00</time></trkpt><trkpt lat="35.0147329" lon="33.3958989"><ele>258.1</ele><time>2015-05-01T13:38:20.0000000+00:00</time></trkpt><trkpt lat="35.0147493" lon="33.3959899"><ele>257.5</ele><time>2015-05-01T13:38:22.0000000+00:00</time></trkpt><trkpt lat="35.0147715" lon="33.3960856"><ele>256.7</ele><time>2015-05-01T13:38:24.0000000+00:00</time></trkpt><trkpt lat="35.0148014" lon="33.3961946"><ele>255.7</ele><time>2015-05-01T13:38:26.0000000+00:00</time></trkpt><trkpt lat="35.0148154" lon="33.3962968"><ele>255.7</ele><time>2015-05-01T13:38:28.0000000+00:00</time></trkpt><trkpt lat="35.0148273" lon="33.3963514"><ele>255.9</ele><time>2015-05-01T13:38:29.0000000+00:00</time></trkpt><trkpt lat="35.0148516" lon="33.3964488"><ele>256.7</ele><time>2015-05-01T13:38:31.0000000+00:00</time></trkpt><trkpt lat="35.0148608" lon="33.3965045"><ele>256.9</ele><time>2015-05-01T13:38:32.0000000+00:00</time></trkpt><trkpt lat="35.0148714" lon="33.3965612"><ele>257.4</ele><time>2015-05-01T13:38:33.0000000+00:00</time></trkpt><trkpt lat="35.0148938" lon="33.3966554"><ele>255.6</ele><time>2015-05-01T13:38:35.0000000+00:00</time></trkpt><trkpt lat="35.0149112" lon="33.396759"><ele>254.4</ele><time>2015-05-01T13:38:37.0000000+00:00</time></trkpt><trkpt lat="35.0149276" lon="33.3968562"><ele>253.6</ele><time>2015-05-01T13:38:39.0000000+00:00</time></trkpt><trkpt lat="35.0149493" lon="33.3969598"><ele>253.9</ele><time>2015-05-01T13:38:41.0000000+00:00</time></trkpt><trkpt lat="35.0149738" lon="33.3970614"><ele>254.5</ele><time>2015-05-01T13:38:43.0000000+00:00</time></trkpt><trkpt lat="35.0149975" lon="33.3971255"><ele>254.8</ele><time>2015-05-01T13:38:44.0000000+00:00</time></trkpt><trkpt lat="35.0150185" lon="33.3972296"><ele>254.2</ele><time>2015-05-01T13:38:46.0000000+00:00</time></trkpt><trkpt lat="35.015026" lon="33.3972843"><ele>254.1</ele><time>2015-05-01T13:38:47.0000000+00:00</time></trkpt><trkpt lat="35.0150463" lon="33.3973894"><ele>254.8</ele><time>2015-05-01T13:38:49.0000000+00:00</time></trkpt><trkpt lat="35.0150841" lon="33.3974924"><ele>256.0</ele><time>2015-05-01T13:38:51.0000000+00:00</time></trkpt><trkpt lat="35.0150943" lon="33.3975478"><ele>256.5</ele><time>2015-05-01T13:38:52.0000000+00:00</time></trkpt><trkpt lat="35.0151081" lon="33.3976439"><ele>257.4</ele><time>2015-05-01T13:38:54.0000000+00:00</time></trkpt><trkpt lat="35.0151328" lon="33.3977297"><ele>257.4</ele><time>2015-05-01T13:38:56.0000000+00:00</time></trkpt><trkpt lat="35.0151601" lon="33.3978115"><ele>257.4</ele><time>2015-05-01T13:38:58.0000000+00:00</time></trkpt><trkpt lat="35.0151705" lon="33.3978999"><ele>257.9</ele><time>2015-05-01T13:39:00.0000000+00:00</time></trkpt><trkpt lat="35.0151812" lon="33.3979836"><ele>258.0</ele><time>2015-05-01T13:39:02.0000000+00:00</time></trkpt><trkpt lat="35.0151979" lon="33.3980615"><ele>258.0</ele><time>2015-05-01T13:39:04.0000000+00:00</time></trkpt><trkpt lat="35.0152185" lon="33.3981382"><ele>257.3</ele><time>2015-05-01T13:39:06.0000000+00:00</time></trkpt><trkpt lat="35.0152367" lon="33.398206"><ele>256.3</ele><time>2015-05-01T13:39:08.0000000+00:00</time></trkpt><trkpt lat="35.0152521" lon="33.3982638"><ele>256.8</ele><time>2015-05-01T13:39:10.0000000+00:00</time></trkpt><trkpt lat="35.0152576" lon="33.3983318"><ele>256.9</ele><time>2015-05-01T13:39:14.0000000+00:00</time></trkpt><trkpt lat="35.0152573" lon="33.3983888"><ele>256.5</ele><time>2015-05-01T13:39:17.0000000+00:00</time></trkpt><trkpt lat="35.0152674" lon="33.3984672"><ele>255.6</ele><time>2015-05-01T13:39:20.0000000+00:00</time></trkpt><trkpt lat="35.0152738" lon="33.3985473"><ele>255.2</ele><time>2015-05-01T13:39:22.0000000+00:00</time></trkpt><trkpt lat="35.0152833" lon="33.3986421"><ele>258.3</ele><time>2015-05-01T13:39:24.0000000+00:00</time></trkpt><trkpt lat="35.0153018" lon="33.3987387"><ele>260.8</ele><time>2015-05-01T13:39:26.0000000+00:00</time></trkpt><trkpt lat="35.0153261" lon="33.3988401"><ele>261.2</ele><time>2015-05-01T13:39:28.0000000+00:00</time></trkpt><trkpt lat="35.0153534" lon="33.3989393"><ele>260.8</ele><time>2015-05-01T13:39:30.0000000+00:00</time></trkpt><trkpt lat="35.0153831" lon="33.399037"><ele>261.0</ele><time>2015-05-01T13:39:32.0000000+00:00</time></trkpt><trkpt lat="35.0154054" lon="33.3991264"><ele>260.3</ele><time>2015-05-01T13:39:34.0000000+00:00</time></trkpt><trkpt lat="35.0154245" lon="33.3992181"><ele>260.6</ele><time>2015-05-01T13:39:36.0000000+00:00</time></trkpt><trkpt lat="35.015447" lon="33.3993124"><ele>258.9</ele><time>2015-05-01T13:39:38.0000000+00:00</time></trkpt><trkpt lat="35.0154626" lon="33.3993762"><ele>258.5</ele><time>2015-05-01T13:39:39.0000000+00:00</time></trkpt><trkpt lat="35.0154684" lon="33.399439"><ele>258.2</ele><time>2015-05-01T13:39:40.0000000+00:00</time></trkpt><trkpt lat="35.0154747" lon="33.399497"><ele>258.6</ele><time>2015-05-01T13:39:41.0000000+00:00</time></trkpt><trkpt lat="35.0154971" lon="33.3995486"><ele>258.3</ele><time>2015-05-01T13:39:42.0000000+00:00</time></trkpt><trkpt lat="35.0155194" lon="33.3996396"><ele>257.1</ele><time>2015-05-01T13:39:44.0000000+00:00</time></trkpt><trkpt lat="35.0155268" lon="33.399704"><ele>257.6</ele><time>2015-05-01T13:39:45.0000000+00:00</time></trkpt><trkpt lat="35.0155385" lon="33.3997595"><ele>258.3</ele><time>2015-05-01T13:39:46.0000000+00:00</time></trkpt><trkpt lat="35.0155729" lon="33.3998472"><ele>257.8</ele><time>2015-05-01T13:39:48.0000000+00:00</time></trkpt><trkpt lat="35.0156003" lon="33.3999295"><ele>255.5</ele><time>2015-05-01T13:39:50.0000000+00:00</time></trkpt><trkpt lat="35.0156237" lon="33.4000169"><ele>254.6</ele><time>2015-05-01T13:39:52.0000000+00:00</time></trkpt><trkpt lat="35.0156379" lon="33.4001101"><ele>254.2</ele><time>2015-05-01T13:39:54.0000000+00:00</time></trkpt><trkpt lat="35.0156558" lon="33.4002153"><ele>254.1</ele><time>2015-05-01T13:39:56.0000000+00:00</time></trkpt><trkpt lat="35.0156606" lon="33.4002745"><ele>254.0</ele><time>2015-05-01T13:39:57.0000000+00:00</time></trkpt><trkpt lat="35.0156794" lon="33.4003757"><ele>254.0</ele><time>2015-05-01T13:39:59.0000000+00:00</time></trkpt><trkpt lat="35.0156832" lon="33.4004345"><ele>253.5</ele><time>2015-05-01T13:40:00.0000000+00:00</time></trkpt><trkpt lat="35.0156946" lon="33.4005387"><ele>252.6</ele><time>2015-05-01T13:40:02.0000000+00:00</time></trkpt><trkpt lat="35.0157092" lon="33.4006478"><ele>252.7</ele><time>2015-05-01T13:40:04.0000000+00:00</time></trkpt><trkpt lat="35.0157118" lon="33.4007028"><ele>252.8</ele><time>2015-05-01T13:40:05.0000000+00:00</time></trkpt><trkpt lat="35.015724" lon="33.4007569"><ele>252.9</ele><time>2015-05-01T13:40:06.0000000+00:00</time></trkpt><trkpt lat="35.0157301" lon="33.4008128"><ele>253.5</ele><time>2015-05-01T13:40:07.0000000+00:00</time></trkpt><trkpt lat="35.0157319" lon="33.400878"><ele>253.7</ele><time>2015-05-01T13:40:08.0000000+00:00</time></trkpt><trkpt lat="35.0157509" lon="33.4009365"><ele>253.9</ele><time>2015-05-01T13:40:09.0000000+00:00</time></trkpt><trkpt lat="35.0157709" lon="33.4010431"><ele>254.0</ele><time>2015-05-01T13:40:11.0000000+00:00</time></trkpt><trkpt lat="35.0157992" lon="33.4011353"><ele>254.8</ele><time>2015-05-01T13:40:13.0000000+00:00</time></trkpt><trkpt lat="35.015827" lon="33.4012241"><ele>253.0</ele><time>2015-05-01T13:40:15.0000000+00:00</time></trkpt><trkpt lat="35.0158497" lon="33.4013222"><ele>251.8</ele><time>2015-05-01T13:40:17.0000000+00:00</time></trkpt><trkpt lat="35.0158706" lon="33.4013966"><ele>249.7</ele><time>2015-05-01T13:40:19.0000000+00:00</time></trkpt><trkpt lat="35.0158977" lon="33.401456"><ele>249.2</ele><time>2015-05-01T13:40:21.0000000+00:00</time></trkpt><trkpt lat="35.0159203" lon="33.4015242"><ele>248.4</ele><time>2015-05-01T13:40:24.0000000+00:00</time></trkpt><trkpt lat="35.0159415" lon="33.4015848"><ele>248.9</ele><time>2015-05-01T13:40:27.0000000+00:00</time></trkpt><trkpt lat="35.0159404" lon="33.401675"><ele>249.4</ele><time>2015-05-01T13:40:30.0000000+00:00</time></trkpt><trkpt lat="35.0159423" lon="33.4017778"><ele>250.6</ele><time>2015-05-01T13:40:32.0000000+00:00</time></trkpt><trkpt lat="35.0159592" lon="33.4018494"><ele>251.8</ele><time>2015-05-01T13:40:33.0000000+00:00</time></trkpt><trkpt lat="35.0159935" lon="33.4019354"><ele>252.7</ele><time>2015-05-01T13:40:35.0000000+00:00</time></trkpt><trkpt lat="35.016021" lon="33.402021"><ele>252.7</ele><time>2015-05-01T13:40:37.0000000+00:00</time></trkpt><trkpt lat="35.0160405" lon="33.4021174"><ele>252.7</ele><time>2015-05-01T13:40:39.0000000+00:00</time></trkpt><trkpt lat="35.0160488" lon="33.402172"><ele>252.9</ele><time>2015-05-01T13:40:40.0000000+00:00</time></trkpt><trkpt lat="35.0160542" lon="33.4022267"><ele>253.4</ele><time>2015-05-01T13:40:41.0000000+00:00</time></trkpt><trkpt lat="35.016063" lon="33.4022885"><ele>253.7</ele><time>2015-05-01T13:40:42.0000000+00:00</time></trkpt><trkpt lat="35.016079" lon="33.4023884"><ele>253.2</ele><time>2015-05-01T13:40:44.0000000+00:00</time></trkpt><trkpt lat="35.016086" lon="33.4024516"><ele>253.6</ele><time>2015-05-01T13:40:45.0000000+00:00</time></trkpt><trkpt lat="35.0161036" lon="33.4025538"><ele>253.4</ele><time>2015-05-01T13:40:47.0000000+00:00</time></trkpt><trkpt lat="35.0161186" lon="33.4026073"><ele>253.2</ele><time>2015-05-01T13:40:48.0000000+00:00</time></trkpt><trkpt lat="35.0161386" lon="33.4027041"><ele>252.3</ele><time>2015-05-01T13:40:50.0000000+00:00</time></trkpt><trkpt lat="35.016157" lon="33.4028165"><ele>252.1</ele><time>2015-05-01T13:40:52.0000000+00:00</time></trkpt><trkpt lat="35.0161781" lon="33.4029239"><ele>251.8</ele><time>2015-05-01T13:40:54.0000000+00:00</time></trkpt><trkpt lat="35.0162086" lon="33.4030303"><ele>252.0</ele><time>2015-05-01T13:40:56.0000000+00:00</time></trkpt><trkpt lat="35.0162329" lon="33.4030828"><ele>251.5</ele><time>2015-05-01T13:40:57.0000000+00:00</time></trkpt><trkpt lat="35.016239" lon="33.4031426"><ele>250.8</ele><time>2015-05-01T13:40:58.0000000+00:00</time></trkpt><trkpt lat="35.0162417" lon="33.4032029"><ele>250.4</ele><time>2015-05-01T13:40:59.0000000+00:00</time></trkpt><trkpt lat="35.0162529" lon="33.4032741"><ele>249.7</ele><time>2015-05-01T13:41:00.0000000+00:00</time></trkpt><trkpt lat="35.0162597" lon="33.4033382"><ele>249.4</ele><time>2015-05-01T13:41:01.0000000+00:00</time></trkpt><trkpt lat="35.0162753" lon="33.4034045"><ele>249.7</ele><time>2015-05-01T13:41:02.0000000+00:00</time></trkpt><trkpt lat="35.0162858" lon="33.4034646"><ele>250.9</ele><time>2015-05-01T13:41:03.0000000+00:00</time></trkpt><trkpt lat="35.0162903" lon="33.4035371"><ele>251.9</ele><time>2015-05-01T13:41:04.0000000+00:00</time></trkpt><trkpt lat="35.0162965" lon="33.4036024"><ele>252.5</ele><time>2015-05-01T13:41:05.0000000+00:00</time></trkpt><trkpt lat="35.0163134" lon="33.403664"><ele>252.8</ele><time>2015-05-01T13:41:06.0000000+00:00</time></trkpt><trkpt lat="35.016321" lon="33.403723"><ele>252.9</ele><time>2015-05-01T13:41:07.0000000+00:00</time></trkpt><trkpt lat="35.0163319" lon="33.4037917"><ele>253.5</ele><time>2015-05-01T13:41:08.0000000+00:00</time></trkpt><trkpt lat="35.0163381" lon="33.4038549"><ele>254.2</ele><time>2015-05-01T13:41:09.0000000+00:00</time></trkpt><trkpt lat="35.0163558" lon="33.4039718"><ele>255.3</ele><time>2015-05-01T13:41:11.0000000+00:00</time></trkpt><trkpt lat="35.0163677" lon="33.4040399"><ele>255.7</ele><time>2015-05-01T13:41:12.0000000+00:00</time></trkpt><trkpt lat="35.0163751" lon="33.4041084"><ele>255.8</ele><time>2015-05-01T13:41:13.0000000+00:00</time></trkpt><trkpt lat="35.0163989" lon="33.4041644"><ele>255.9</ele><time>2015-05-01T13:41:14.0000000+00:00</time></trkpt><trkpt lat="35.0164173" lon="33.4042327"><ele>255.5</ele><time>2015-05-01T13:41:15.0000000+00:00</time></trkpt><trkpt lat="35.0164291" lon="33.4043022"><ele>255.7</ele><time>2015-05-01T13:41:16.0000000+00:00</time></trkpt><trkpt lat="35.016441" lon="33.4043685"><ele>255.4</ele><time>2015-05-01T13:41:17.0000000+00:00</time></trkpt><trkpt lat="35.0164471" lon="33.4044242"><ele>254.7</ele><time>2015-05-01T13:41:18.0000000+00:00</time></trkpt><trkpt lat="35.0164621" lon="33.4045412"><ele>253.4</ele><time>2015-05-01T13:41:20.0000000+00:00</time></trkpt><trkpt lat="35.0164653" lon="33.4046138"><ele>253.7</ele><time>2015-05-01T13:41:21.0000000+00:00</time></trkpt><trkpt lat="35.0164775" lon="33.4046704"><ele>253.4</ele><time>2015-05-01T13:41:22.0000000+00:00</time></trkpt><trkpt lat="35.016485" lon="33.404731"><ele>253.2</ele><time>2015-05-01T13:41:23.0000000+00:00</time></trkpt><trkpt lat="35.016521" lon="33.4048353"><ele>252.6</ele><time>2015-05-01T13:41:25.0000000+00:00</time></trkpt><trkpt lat="35.0165382" lon="33.4048871"><ele>252.3</ele><time>2015-05-01T13:41:26.0000000+00:00</time></trkpt><trkpt lat="35.0165471" lon="33.4049563"><ele>252.7</ele><time>2015-05-01T13:41:27.0000000+00:00</time></trkpt><trkpt lat="35.0165623" lon="33.4050319"><ele>252.3</ele><time>2015-05-01T13:41:28.0000000+00:00</time></trkpt><trkpt lat="35.0165781" lon="33.405101"><ele>252.2</ele><time>2015-05-01T13:41:29.0000000+00:00</time></trkpt><trkpt lat="35.0165892" lon="33.4051668"><ele>252.1</ele><time>2015-05-01T13:41:30.0000000+00:00</time></trkpt><trkpt lat="35.0166003" lon="33.4052299"><ele>252.1</ele><time>2015-05-01T13:41:31.0000000+00:00</time></trkpt><trkpt lat="35.0166083" lon="33.405295"><ele>252.5</ele><time>2015-05-01T13:41:32.0000000+00:00</time></trkpt><trkpt lat="35.0166188" lon="33.4053557"><ele>252.8</ele><time>2015-05-01T13:41:33.0000000+00:00</time></trkpt><trkpt lat="35.0166251" lon="33.4054188"><ele>253.4</ele><time>2015-05-01T13:41:34.0000000+00:00</time></trkpt><trkpt lat="35.0166323" lon="33.4054746"><ele>252.7</ele><time>2015-05-01T13:41:35.0000000+00:00</time></trkpt><trkpt lat="35.0166438" lon="33.4055349"><ele>251.9</ele><time>2015-05-01T13:41:36.0000000+00:00</time></trkpt><trkpt lat="35.0166634" lon="33.4056263"><ele>250.5</ele><time>2015-05-01T13:41:38.0000000+00:00</time></trkpt><trkpt lat="35.016687" lon="33.4057159"><ele>250.1</ele><time>2015-05-01T13:41:40.0000000+00:00</time></trkpt><trkpt lat="35.0166984" lon="33.4057701"><ele>250.1</ele><time>2015-05-01T13:41:41.0000000+00:00</time></trkpt><trkpt lat="35.0167371" lon="33.4058522"><ele>247.3</ele><time>2015-05-01T13:41:43.0000000+00:00</time></trkpt><trkpt lat="35.0167499" lon="33.4059074"><ele>246.2</ele><time>2015-05-01T13:41:44.0000000+00:00</time></trkpt><trkpt lat="35.0167627" lon="33.4059628"><ele>246.1</ele><time>2015-05-01T13:41:45.0000000+00:00</time></trkpt><trkpt lat="35.0167719" lon="33.4060235"><ele>246.1</ele><time>2015-05-01T13:41:46.0000000+00:00</time></trkpt><trkpt lat="35.0167803" lon="33.4060866"><ele>246.5</ele><time>2015-05-01T13:41:47.0000000+00:00</time></trkpt><trkpt lat="35.016797" lon="33.4061425"><ele>246.3</ele><time>2015-05-01T13:41:48.0000000+00:00</time></trkpt><trkpt lat="35.0168029" lon="33.4062126"><ele>246.7</ele><time>2015-05-01T13:41:49.0000000+00:00</time></trkpt><trkpt lat="35.0168167" lon="33.4062723"><ele>246.8</ele><time>2015-05-01T13:41:50.0000000+00:00</time></trkpt><trkpt lat="35.0168308" lon="33.406326"><ele>246.9</ele><time>2015-05-01T13:41:51.0000000+00:00</time></trkpt><trkpt lat="35.016844" lon="33.4063932"><ele>247.0</ele><time>2015-05-01T13:41:52.0000000+00:00</time></trkpt><trkpt lat="35.0168603" lon="33.4064737"><ele>248.5</ele><time>2015-05-01T13:41:53.0000000+00:00</time></trkpt><trkpt lat="35.0168738" lon="33.4065507"><ele>249.8</ele><time>2015-05-01T13:41:54.0000000+00:00</time></trkpt><trkpt lat="35.0168874" lon="33.4066292"><ele>250.9</ele><time>2015-05-01T13:41:55.0000000+00:00</time></trkpt><trkpt lat="35.0168955" lon="33.4067142"><ele>252.0</ele><time>2015-05-01T13:41:56.0000000+00:00</time></trkpt><trkpt lat="35.0169174" lon="33.4067861"><ele>253.0</ele><time>2015-05-01T13:41:57.0000000+00:00</time></trkpt><trkpt lat="35.0169278" lon="33.4068622"><ele>253.5</ele><time>2015-05-01T13:41:58.0000000+00:00</time></trkpt><trkpt lat="35.016938" lon="33.4069435"><ele>253.8</ele><time>2015-05-01T13:41:59.0000000+00:00</time></trkpt><trkpt lat="35.0169533" lon="33.4070116"><ele>253.4</ele><time>2015-05-01T13:42:00.0000000+00:00</time></trkpt><trkpt lat="35.0169688" lon="33.407083"><ele>253.2</ele><time>2015-05-01T13:42:01.0000000+00:00</time></trkpt><trkpt lat="35.01699" lon="33.4071562"><ele>253.1</ele><time>2015-05-01T13:42:02.0000000+00:00</time></trkpt><trkpt lat="35.0170053" lon="33.4072344"><ele>253.1</ele><time>2015-05-01T13:42:03.0000000+00:00</time></trkpt><trkpt lat="35.0170196" lon="33.4073103"><ele>253.0</ele><time>2015-05-01T13:42:04.0000000+00:00</time></trkpt><trkpt lat="35.017039" lon="33.4073818"><ele>253.0</ele><time>2015-05-01T13:42:05.0000000+00:00</time></trkpt><trkpt lat="35.0170506" lon="33.4074627"><ele>253.0</ele><time>2015-05-01T13:42:06.0000000+00:00</time></trkpt><trkpt lat="35.0170642" lon="33.4075431"><ele>253.0</ele><time>2015-05-01T13:42:07.0000000+00:00</time></trkpt><trkpt lat="35.017078" lon="33.4076144"><ele>253.0</ele><time>2015-05-01T13:42:08.0000000+00:00</time></trkpt><trkpt lat="35.0170882" lon="33.407691"><ele>253.0</ele><time>2015-05-01T13:42:09.0000000+00:00</time></trkpt><trkpt lat="35.0171038" lon="33.4077672"><ele>253.0</ele><time>2015-05-01T13:42:10.0000000+00:00</time></trkpt><trkpt lat="35.0171084" lon="33.4078283"><ele>253.0</ele><time>2015-05-01T13:42:11.0000000+00:00</time></trkpt><trkpt lat="35.0171449" lon="33.4079301"><ele>251.8</ele><time>2015-05-01T13:42:13.0000000+00:00</time></trkpt><trkpt lat="35.0171523" lon="33.4079973"><ele>250.9</ele><time>2015-05-01T13:42:14.0000000+00:00</time></trkpt><trkpt lat="35.0171696" lon="33.4080589"><ele>250.0</ele><time>2015-05-01T13:42:15.0000000+00:00</time></trkpt><trkpt lat="35.0171838" lon="33.4081222"><ele>249.5</ele><time>2015-05-01T13:42:16.0000000+00:00</time></trkpt><trkpt lat="35.0171915" lon="33.4081873"><ele>249.8</ele><time>2015-05-01T13:42:17.0000000+00:00</time></trkpt><trkpt lat="35.0172019" lon="33.4082517"><ele>249.4</ele><time>2015-05-01T13:42:18.0000000+00:00</time></trkpt><trkpt lat="35.017212" lon="33.4083139"><ele>249.2</ele><time>2015-05-01T13:42:19.0000000+00:00</time></trkpt><trkpt lat="35.0172204" lon="33.4083927"><ele>249.1</ele><time>2015-05-01T13:42:20.0000000+00:00</time></trkpt><trkpt lat="35.0172345" lon="33.4084605"><ele>249.1</ele><time>2015-05-01T13:42:21.0000000+00:00</time></trkpt><trkpt lat="35.017248" lon="33.4085399"><ele>248.5</ele><time>2015-05-01T13:42:22.0000000+00:00</time></trkpt><trkpt lat="35.0172571" lon="33.408613"><ele>248.3</ele><time>2015-05-01T13:42:23.0000000+00:00</time></trkpt><trkpt lat="35.0172706" lon="33.4086873"><ele>248.2</ele><time>2015-05-01T13:42:24.0000000+00:00</time></trkpt><trkpt lat="35.0172857" lon="33.4087595"><ele>248.6</ele><time>2015-05-01T13:42:25.0000000+00:00</time></trkpt><trkpt lat="35.0173182" lon="33.408824"><ele>248.3</ele><time>2015-05-01T13:42:26.0000000+00:00</time></trkpt><trkpt lat="35.0173435" lon="33.4088865"><ele>248.7</ele><time>2015-05-01T13:42:27.0000000+00:00</time></trkpt><trkpt lat="35.0173535" lon="33.4089571"><ele>248.8</ele><time>2015-05-01T13:42:28.0000000+00:00</time></trkpt><trkpt lat="35.0173625" lon="33.4090221"><ele>249.4</ele><time>2015-05-01T13:42:29.0000000+00:00</time></trkpt><trkpt lat="35.0173697" lon="33.4090852"><ele>249.7</ele><time>2015-05-01T13:42:30.0000000+00:00</time></trkpt><trkpt lat="35.0173761" lon="33.409153"><ele>249.9</ele><time>2015-05-01T13:42:31.0000000+00:00</time></trkpt><trkpt lat="35.017393" lon="33.4092114"><ele>249.4</ele><time>2015-05-01T13:42:32.0000000+00:00</time></trkpt><trkpt lat="35.0174088" lon="33.4092629"><ele>249.7</ele><time>2015-05-01T13:42:33.0000000+00:00</time></trkpt><trkpt lat="35.0174354" lon="33.4093205"><ele>249.4</ele><time>2015-05-01T13:42:34.0000000+00:00</time></trkpt><trkpt lat="35.01745" lon="33.4094421"><ele>249.1</ele><time>2015-05-01T13:42:36.0000000+00:00</time></trkpt><trkpt lat="35.0174596" lon="33.409512"><ele>249.1</ele><time>2015-05-01T13:42:37.0000000+00:00</time></trkpt><trkpt lat="35.017475" lon="33.4095899"><ele>249.0</ele><time>2015-05-01T13:42:38.0000000+00:00</time></trkpt><trkpt lat="35.0174895" lon="33.4096558"><ele>249.0</ele><time>2015-05-01T13:42:39.0000000+00:00</time></trkpt><trkpt lat="35.0175072" lon="33.4097167"><ele>249.0</ele><time>2015-05-01T13:42:40.0000000+00:00</time></trkpt><trkpt lat="35.0175172" lon="33.4097842"><ele>249.0</ele><time>2015-05-01T13:42:41.0000000+00:00</time></trkpt><trkpt lat="35.0175302" lon="33.4098529"><ele>249.0</ele><time>2015-05-01T13:42:42.0000000+00:00</time></trkpt><trkpt lat="35.0175436" lon="33.4099286"><ele>249.0</ele><time>2015-05-01T13:42:43.0000000+00:00</time></trkpt><trkpt lat="35.0175517" lon="33.410006"><ele>249.0</ele><time>2015-05-01T13:42:44.0000000+00:00</time></trkpt><trkpt lat="35.017569" lon="33.4100802"><ele>249.0</ele><time>2015-05-01T13:42:45.0000000+00:00</time></trkpt><trkpt lat="35.0175804" lon="33.4101477"><ele>249.0</ele><time>2015-05-01T13:42:46.0000000+00:00</time></trkpt><trkpt lat="35.0175943" lon="33.4102118"><ele>249.0</ele><time>2015-05-01T13:42:47.0000000+00:00</time></trkpt><trkpt lat="35.017616" lon="33.4102725"><ele>249.0</ele><time>2015-05-01T13:42:48.0000000+00:00</time></trkpt><trkpt lat="35.0176386" lon="33.4103274"><ele>249.0</ele><time>2015-05-01T13:42:49.0000000+00:00</time></trkpt><trkpt lat="35.0176502" lon="33.4103915"><ele>249.0</ele><time>2015-05-01T13:42:50.0000000+00:00</time></trkpt><trkpt lat="35.0176624" lon="33.4104495"><ele>249.0</ele><time>2015-05-01T13:42:51.0000000+00:00</time></trkpt><trkpt lat="35.0176801" lon="33.4105179"><ele>249.5</ele><time>2015-05-01T13:42:52.0000000+00:00</time></trkpt><trkpt lat="35.0176916" lon="33.4105868"><ele>249.8</ele><time>2015-05-01T13:42:53.0000000+00:00</time></trkpt><trkpt lat="35.0177061" lon="33.4106392"><ele>249.9</ele><time>2015-05-01T13:42:54.0000000+00:00</time></trkpt><trkpt lat="35.0177144" lon="33.4107077"><ele>250.0</ele><time>2015-05-01T13:42:55.0000000+00:00</time></trkpt><trkpt lat="35.0177266" lon="33.4107756"><ele>250.0</ele><time>2015-05-01T13:42:56.0000000+00:00</time></trkpt><trkpt lat="35.0177371" lon="33.4108438"><ele>250.0</ele><time>2015-05-01T13:42:57.0000000+00:00</time></trkpt><trkpt lat="35.0177442" lon="33.4109123"><ele>250.0</ele><time>2015-05-01T13:42:58.0000000+00:00</time></trkpt><trkpt lat="35.0177654" lon="33.4109621"><ele>250.0</ele><time>2015-05-01T13:42:59.0000000+00:00</time></trkpt><trkpt lat="35.017776" lon="33.4110324"><ele>250.0</ele><time>2015-05-01T13:43:00.0000000+00:00</time></trkpt><trkpt lat="35.0177807" lon="33.4111026"><ele>250.0</ele><time>2015-05-01T13:43:01.0000000+00:00</time></trkpt><trkpt lat="35.017795" lon="33.4111734"><ele>250.0</ele><time>2015-05-01T13:43:02.0000000+00:00</time></trkpt><trkpt lat="35.017812" lon="33.4112481"><ele>250.0</ele><time>2015-05-01T13:43:03.0000000+00:00</time></trkpt><trkpt lat="35.017829" lon="33.4113198"><ele>250.0</ele><time>2015-05-01T13:43:04.0000000+00:00</time></trkpt><trkpt lat="35.0178332" lon="33.4113848"><ele>249.5</ele><time>2015-05-01T13:43:05.0000000+00:00</time></trkpt><trkpt lat="35.0178463" lon="33.4114439"><ele>249.3</ele><time>2015-05-01T13:43:06.0000000+00:00</time></trkpt><trkpt lat="35.0178563" lon="33.4115178"><ele>249.1</ele><time>2015-05-01T13:43:07.0000000+00:00</time></trkpt><trkpt lat="35.0178662" lon="33.4115885"><ele>249.1</ele><time>2015-05-01T13:43:08.0000000+00:00</time></trkpt><trkpt lat="35.017879" lon="33.4116548"><ele>249.1</ele><time>2015-05-01T13:43:09.0000000+00:00</time></trkpt><trkpt lat="35.0178927" lon="33.4117322"><ele>249.0</ele><time>2015-05-01T13:43:10.0000000+00:00</time></trkpt><trkpt lat="35.0179055" lon="33.4118003"><ele>249.5</ele><time>2015-05-01T13:43:11.0000000+00:00</time></trkpt><trkpt lat="35.0179253" lon="33.4118722"><ele>249.8</ele><time>2015-05-01T13:43:12.0000000+00:00</time></trkpt><trkpt lat="35.0179463" lon="33.4119526"><ele>249.4</ele><time>2015-05-01T13:43:13.0000000+00:00</time></trkpt><trkpt lat="35.017962" lon="33.4120279"><ele>249.2</ele><time>2015-05-01T13:43:14.0000000+00:00</time></trkpt><trkpt lat="35.0179758" lon="33.4121025"><ele>249.1</ele><time>2015-05-01T13:43:15.0000000+00:00</time></trkpt><trkpt lat="35.0179871" lon="33.412185"><ele>249.1</ele><time>2015-05-01T13:43:16.0000000+00:00</time></trkpt><trkpt lat="35.0179963" lon="33.4122653"><ele>249.0</ele><time>2015-05-01T13:43:17.0000000+00:00</time></trkpt><trkpt lat="35.0180118" lon="33.4123411"><ele>249.5</ele><time>2015-05-01T13:43:18.0000000+00:00</time></trkpt><trkpt lat="35.0180288" lon="33.4124181"><ele>249.8</ele><time>2015-05-01T13:43:19.0000000+00:00</time></trkpt><trkpt lat="35.0180618" lon="33.4124915"><ele>249.9</ele><time>2015-05-01T13:43:20.0000000+00:00</time></trkpt><trkpt lat="35.018083" lon="33.4125661"><ele>250.0</ele><time>2015-05-01T13:43:21.0000000+00:00</time></trkpt><trkpt lat="35.0180977" lon="33.4126435"><ele>250.0</ele><time>2015-05-01T13:43:22.0000000+00:00</time></trkpt><trkpt lat="35.0181135" lon="33.4127088"><ele>249.5</ele><time>2015-05-01T13:43:23.0000000+00:00</time></trkpt><trkpt lat="35.0181298" lon="33.4127817"><ele>249.3</ele><time>2015-05-01T13:43:24.0000000+00:00</time></trkpt><trkpt lat="35.0181335" lon="33.4128583"><ele>249.1</ele><time>2015-05-01T13:43:25.0000000+00:00</time></trkpt><trkpt lat="35.0181381" lon="33.4129371"><ele>249.6</ele><time>2015-05-01T13:43:26.0000000+00:00</time></trkpt><trkpt lat="35.0181459" lon="33.4130071"><ele>249.3</ele><time>2015-05-01T13:43:27.0000000+00:00</time></trkpt><trkpt lat="35.0181492" lon="33.4130768"><ele>249.7</ele><time>2015-05-01T13:43:28.0000000+00:00</time></trkpt><trkpt lat="35.0181741" lon="33.4131314"><ele>249.3</ele><time>2015-05-01T13:43:29.0000000+00:00</time></trkpt><trkpt lat="35.0181925" lon="33.4131928"><ele>249.2</ele><time>2015-05-01T13:43:30.0000000+00:00</time></trkpt><trkpt lat="35.0182047" lon="33.4132579"><ele>249.1</ele><time>2015-05-01T13:43:31.0000000+00:00</time></trkpt><trkpt lat="35.0182211" lon="33.4133155"><ele>249.1</ele><time>2015-05-01T13:43:32.0000000+00:00</time></trkpt><trkpt lat="35.0182335" lon="33.4133772"><ele>249.0</ele><time>2015-05-01T13:43:33.0000000+00:00</time></trkpt><trkpt lat="35.0182489" lon="33.4134319"><ele>249.0</ele><time>2015-05-01T13:43:34.0000000+00:00</time></trkpt><trkpt lat="35.018263" lon="33.4134962"><ele>249.5</ele><time>2015-05-01T13:43:35.0000000+00:00</time></trkpt><trkpt lat="35.0182787" lon="33.4135479"><ele>249.3</ele><time>2015-05-01T13:43:36.0000000+00:00</time></trkpt><trkpt lat="35.0182963" lon="33.4136018"><ele>249.1</ele><time>2015-05-01T13:43:37.0000000+00:00</time></trkpt><trkpt lat="35.0183168" lon="33.4137227"><ele>249.1</ele><time>2015-05-01T13:43:39.0000000+00:00</time></trkpt><trkpt lat="35.0183208" lon="33.4137845"><ele>249.0</ele><time>2015-05-01T13:43:40.0000000+00:00</time></trkpt><trkpt lat="35.0183421" lon="33.4138942"><ele>249.8</ele><time>2015-05-01T13:43:42.0000000+00:00</time></trkpt><trkpt lat="35.0183485" lon="33.413953"><ele>249.9</ele><time>2015-05-01T13:43:43.0000000+00:00</time></trkpt><trkpt lat="35.0183603" lon="33.414009"><ele>250.0</ele><time>2015-05-01T13:43:44.0000000+00:00</time></trkpt><trkpt lat="35.01837" lon="33.4140659"><ele>250.0</ele><time>2015-05-01T13:43:45.0000000+00:00</time></trkpt><trkpt lat="35.0183804" lon="33.4141208"><ele>249.5</ele><time>2015-05-01T13:43:46.0000000+00:00</time></trkpt><trkpt lat="35.018408" lon="33.4142101"><ele>248.6</ele><time>2015-05-01T13:43:48.0000000+00:00</time></trkpt><trkpt lat="35.0184083" lon="33.4142721"><ele>248.3</ele><time>2015-05-01T13:43:49.0000000+00:00</time></trkpt><trkpt lat="35.0184176" lon="33.4143339"><ele>248.7</ele><time>2015-05-01T13:43:50.0000000+00:00</time></trkpt><trkpt lat="35.0184344" lon="33.4143965"><ele>248.8</ele><time>2015-05-01T13:43:51.0000000+00:00</time></trkpt><trkpt lat="35.0184741" lon="33.4144281"><ele>248.9</ele><time>2015-05-01T13:43:52.0000000+00:00</time></trkpt><trkpt lat="35.018484" lon="33.4145016"><ele>249.0</ele><time>2015-05-01T13:43:53.0000000+00:00</time></trkpt><trkpt lat="35.0184949" lon="33.4145753"><ele>249.0</ele><time>2015-05-01T13:43:54.0000000+00:00</time></trkpt><trkpt lat="35.0185127" lon="33.4146399"><ele>249.0</ele><time>2015-05-01T13:43:55.0000000+00:00</time></trkpt><trkpt lat="35.0185219" lon="33.4147202"><ele>249.0</ele><time>2015-05-01T13:43:56.0000000+00:00</time></trkpt><trkpt lat="35.0185292" lon="33.4147984"><ele>249.0</ele><time>2015-05-01T13:43:57.0000000+00:00</time></trkpt><trkpt lat="35.0185405" lon="33.4148697"><ele>249.0</ele><time>2015-05-01T13:43:58.0000000+00:00</time></trkpt><trkpt lat="35.0185654" lon="33.4149368"><ele>249.0</ele><time>2015-05-01T13:43:59.0000000+00:00</time></trkpt><trkpt lat="35.0185823" lon="33.4150137"><ele>249.0</ele><time>2015-05-01T13:44:00.0000000+00:00</time></trkpt><trkpt lat="35.0186036" lon="33.4150828"><ele>249.5</ele><time>2015-05-01T13:44:01.0000000+00:00</time></trkpt><trkpt lat="35.0186275" lon="33.4151471"><ele>249.8</ele><time>2015-05-01T13:44:02.0000000+00:00</time></trkpt><trkpt lat="35.0186479" lon="33.4152092"><ele>249.9</ele><time>2015-05-01T13:44:03.0000000+00:00</time></trkpt><trkpt lat="35.0186692" lon="33.4152711"><ele>250.0</ele><time>2015-05-01T13:44:04.0000000+00:00</time></trkpt><trkpt lat="35.0186882" lon="33.415332"><ele>250.0</ele><time>2015-05-01T13:44:05.0000000+00:00</time></trkpt><trkpt lat="35.0187037" lon="33.4153931"><ele>249.5</ele><time>2015-05-01T13:44:06.0000000+00:00</time></trkpt><trkpt lat="35.018726" lon="33.4154506"><ele>249.3</ele><time>2015-05-01T13:44:07.0000000+00:00</time></trkpt><trkpt lat="35.0187438" lon="33.4155082"><ele>249.6</ele><time>2015-05-01T13:44:08.0000000+00:00</time></trkpt><trkpt lat="35.0187831" lon="33.4156092"><ele>249.2</ele><time>2015-05-01T13:44:10.0000000+00:00</time></trkpt><trkpt lat="35.0188036" lon="33.4156648"><ele>249.1</ele><time>2015-05-01T13:44:11.0000000+00:00</time></trkpt><trkpt lat="35.0188298" lon="33.4157255"><ele>249.1</ele><time>2015-05-01T13:44:12.0000000+00:00</time></trkpt><trkpt lat="35.0188581" lon="33.4157858"><ele>248.5</ele><time>2015-05-01T13:44:13.0000000+00:00</time></trkpt><trkpt lat="35.0188846" lon="33.4158426"><ele>248.3</ele><time>2015-05-01T13:44:14.0000000+00:00</time></trkpt><trkpt lat="35.018908" lon="33.4159071"><ele>248.2</ele><time>2015-05-01T13:44:15.0000000+00:00</time></trkpt><trkpt lat="35.0189362" lon="33.4159722"><ele>248.1</ele><time>2015-05-01T13:44:16.0000000+00:00</time></trkpt><trkpt lat="35.018952" lon="33.416041"><ele>248.1</ele><time>2015-05-01T13:44:17.0000000+00:00</time></trkpt><trkpt lat="35.0189737" lon="33.416109"><ele>247.5</ele><time>2015-05-01T13:44:18.0000000+00:00</time></trkpt><trkpt lat="35.0189945" lon="33.4161622"><ele>247.3</ele><time>2015-05-01T13:44:19.0000000+00:00</time></trkpt><trkpt lat="35.0190274" lon="33.4162028"><ele>244.7</ele><time>2015-05-01T13:44:20.0000000+00:00</time></trkpt><trkpt lat="35.0190472" lon="33.4162689"><ele>243.8</ele><time>2015-05-01T13:44:21.0000000+00:00</time></trkpt><trkpt lat="35.0190612" lon="33.4163295"><ele>243.4</ele><time>2015-05-01T13:44:22.0000000+00:00</time></trkpt><trkpt lat="35.0190862" lon="33.4163854"><ele>243.2</ele><time>2015-05-01T13:44:23.0000000+00:00</time></trkpt><trkpt lat="35.0191013" lon="33.4164522"><ele>243.1</ele><time>2015-05-01T13:44:24.0000000+00:00</time></trkpt><trkpt lat="35.0191067" lon="33.416527"><ele>243.6</ele><time>2015-05-01T13:44:25.0000000+00:00</time></trkpt><trkpt lat="35.0191086" lon="33.4166012"><ele>243.8</ele><time>2015-05-01T13:44:26.0000000+00:00</time></trkpt><trkpt lat="35.0191074" lon="33.4166731"><ele>244.4</ele><time>2015-05-01T13:44:27.0000000+00:00</time></trkpt><trkpt lat="35.0191047" lon="33.4167484"><ele>244.7</ele><time>2015-05-01T13:44:28.0000000+00:00</time></trkpt><trkpt lat="35.0191106" lon="33.4168237"><ele>244.4</ele><time>2015-05-01T13:44:29.0000000+00:00</time></trkpt><trkpt lat="35.0191057" lon="33.4168954"><ele>244.2</ele><time>2015-05-01T13:44:30.0000000+00:00</time></trkpt><trkpt lat="35.0191026" lon="33.4169606"><ele>243.6</ele><time>2015-05-01T13:44:31.0000000+00:00</time></trkpt><trkpt lat="35.0191028" lon="33.417032"><ele>243.3</ele><time>2015-05-01T13:44:32.0000000+00:00</time></trkpt><trkpt lat="35.0191001" lon="33.417103"><ele>243.7</ele><time>2015-05-01T13:44:33.0000000+00:00</time></trkpt><trkpt lat="35.0191132" lon="33.417163"><ele>243.8</ele><time>2015-05-01T13:44:34.0000000+00:00</time></trkpt><trkpt lat="35.0191154" lon="33.4172318"><ele>243.9</ele><time>2015-05-01T13:44:35.0000000+00:00</time></trkpt><trkpt lat="35.0191216" lon="33.4172991"><ele>244.5</ele><time>2015-05-01T13:44:36.0000000+00:00</time></trkpt><trkpt lat="35.0191253" lon="33.4173696"><ele>244.7</ele><time>2015-05-01T13:44:37.0000000+00:00</time></trkpt><trkpt lat="35.0191175" lon="33.417448"><ele>244.4</ele><time>2015-05-01T13:44:38.0000000+00:00</time></trkpt><trkpt lat="35.0191207" lon="33.4175117"><ele>244.2</ele><time>2015-05-01T13:44:39.0000000+00:00</time></trkpt><trkpt lat="35.0191198" lon="33.4175842"><ele>244.1</ele><time>2015-05-01T13:44:40.0000000+00:00</time></trkpt><trkpt lat="35.0191195" lon="33.4176617"><ele>244.6</ele><time>2015-05-01T13:44:41.0000000+00:00</time></trkpt><trkpt lat="35.0191239" lon="33.4177327"><ele>244.8</ele><time>2015-05-01T13:44:42.0000000+00:00</time></trkpt><trkpt lat="35.0191246" lon="33.4178158"><ele>245.4</ele><time>2015-05-01T13:44:43.0000000+00:00</time></trkpt><trkpt lat="35.0191262" lon="33.4178932"><ele>245.2</ele><time>2015-05-01T13:44:44.0000000+00:00</time></trkpt><trkpt lat="35.0191409" lon="33.4179632"><ele>245.1</ele><time>2015-05-01T13:44:45.0000000+00:00</time></trkpt><trkpt lat="35.0191528" lon="33.4180432"><ele>245.6</ele><time>2015-05-01T13:44:46.0000000+00:00</time></trkpt><trkpt lat="35.0191824" lon="33.4181145"><ele>245.3</ele><time>2015-05-01T13:44:47.0000000+00:00</time></trkpt><trkpt lat="35.0191988" lon="33.4181912"><ele>245.2</ele><time>2015-05-01T13:44:48.0000000+00:00</time></trkpt><trkpt lat="35.0192188" lon="33.418263"><ele>245.1</ele><time>2015-05-01T13:44:49.0000000+00:00</time></trkpt><trkpt lat="35.0192439" lon="33.4183529"><ele>245.0</ele><time>2015-05-01T13:44:51.0000000+00:00</time></trkpt><trkpt lat="35.0192586" lon="33.418413"><ele>245.0</ele><time>2015-05-01T13:44:53.0000000+00:00</time></trkpt><trkpt lat="35.0192823" lon="33.4184659"><ele>244.1</ele><time>2015-05-01T13:44:57.0000000+00:00</time></trkpt><trkpt lat="35.0193091" lon="33.4185166"><ele>242.8</ele><time>2015-05-01T13:45:18.0000000+00:00</time></trkpt><trkpt lat="35.0193452" lon="33.4185933"><ele>243.0</ele><time>2015-05-01T13:45:21.0000000+00:00</time></trkpt><trkpt lat="35.0193824" lon="33.4186653"><ele>243.0</ele><time>2015-05-01T13:45:23.0000000+00:00</time></trkpt><trkpt lat="35.0194242" lon="33.4187453"><ele>243.8</ele><time>2015-05-01T13:45:25.0000000+00:00</time></trkpt><trkpt lat="35.0194636" lon="33.4188234"><ele>243.5</ele><time>2015-05-01T13:45:27.0000000+00:00</time></trkpt><trkpt lat="35.0195045" lon="33.4189077"><ele>243.1</ele><time>2015-05-01T13:45:29.0000000+00:00</time></trkpt><trkpt lat="35.0195439" lon="33.4189994"><ele>243.0</ele><time>2015-05-01T13:45:31.0000000+00:00</time></trkpt><trkpt lat="35.0195765" lon="33.4190985"><ele>242.5</ele><time>2015-05-01T13:45:33.0000000+00:00</time></trkpt><trkpt lat="35.019588" lon="33.4192189"><ele>242.1</ele><time>2015-05-01T13:45:35.0000000+00:00</time></trkpt><trkpt lat="35.0195953" lon="33.4192814"><ele>242.6</ele><time>2015-05-01T13:45:36.0000000+00:00</time></trkpt><trkpt lat="35.0195959" lon="33.4193442"><ele>242.3</ele><time>2015-05-01T13:45:37.0000000+00:00</time></trkpt><trkpt lat="35.019593" lon="33.419404"><ele>242.2</ele><time>2015-05-01T13:45:38.0000000+00:00</time></trkpt><trkpt lat="35.019596" lon="33.4195157"><ele>242.1</ele><time>2015-05-01T13:45:40.0000000+00:00</time></trkpt><trkpt lat="35.0195952" lon="33.4195719"><ele>242.5</ele><time>2015-05-01T13:45:41.0000000+00:00</time></trkpt><trkpt lat="35.0195954" lon="33.4196898"><ele>242.7</ele><time>2015-05-01T13:45:43.0000000+00:00</time></trkpt><trkpt lat="35.0195961" lon="33.4197529"><ele>243.3</ele><time>2015-05-01T13:45:44.0000000+00:00</time></trkpt><trkpt lat="35.0196024" lon="33.4198606"><ele>243.8</ele><time>2015-05-01T13:45:46.0000000+00:00</time></trkpt><trkpt lat="35.0196095" lon="33.4199526"><ele>244.0</ele><time>2015-05-01T13:45:48.0000000+00:00</time></trkpt><trkpt lat="35.0196047" lon="33.4200395"><ele>244.0</ele><time>2015-05-01T13:45:50.0000000+00:00</time></trkpt><trkpt lat="35.0196053" lon="33.4201402"><ele>244.8</ele><time>2015-05-01T13:45:52.0000000+00:00</time></trkpt><trkpt lat="35.0195997" lon="33.4202459"><ele>246.0</ele><time>2015-05-01T13:45:54.0000000+00:00</time></trkpt><trkpt lat="35.0196036" lon="33.4203498"><ele>246.0</ele><time>2015-05-01T13:45:56.0000000+00:00</time></trkpt><trkpt lat="35.0196152" lon="33.4204524"><ele>245.5</ele><time>2015-05-01T13:45:58.0000000+00:00</time></trkpt><trkpt lat="35.0196069" lon="33.4205851"><ele>244.4</ele><time>2015-05-01T13:46:00.0000000+00:00</time></trkpt><trkpt lat="35.0196064" lon="33.4206484"><ele>244.2</ele><time>2015-05-01T13:46:01.0000000+00:00</time></trkpt><trkpt lat="35.0196075" lon="33.4207116"><ele>244.1</ele><time>2015-05-01T13:46:02.0000000+00:00</time></trkpt><trkpt lat="35.0196084" lon="33.4207719"><ele>244.6</ele><time>2015-05-01T13:46:03.0000000+00:00</time></trkpt><trkpt lat="35.0196062" lon="33.4208317"><ele>245.3</ele><time>2015-05-01T13:46:04.0000000+00:00</time></trkpt><trkpt lat="35.0196117" lon="33.4208881"><ele>245.2</ele><time>2015-05-01T13:46:05.0000000+00:00</time></trkpt><trkpt lat="35.0196142" lon="33.4209466"><ele>245.1</ele><time>2015-05-01T13:46:06.0000000+00:00</time></trkpt><trkpt lat="35.019614" lon="33.4210091"><ele>245.1</ele><time>2015-05-01T13:46:07.0000000+00:00</time></trkpt><trkpt lat="35.0196141" lon="33.4210691"><ele>245.0</ele><time>2015-05-01T13:46:08.0000000+00:00</time></trkpt><trkpt lat="35.0196138" lon="33.4211294"><ele>245.0</ele><time>2015-05-01T13:46:09.0000000+00:00</time></trkpt><trkpt lat="35.0196228" lon="33.42123"><ele>245.0</ele><time>2015-05-01T13:46:11.0000000+00:00</time></trkpt><trkpt lat="35.0196245" lon="33.4213387"><ele>245.0</ele><time>2015-05-01T13:46:13.0000000+00:00</time></trkpt><trkpt lat="35.0196299" lon="33.4214297"><ele>245.8</ele><time>2015-05-01T13:46:15.0000000+00:00</time></trkpt><trkpt lat="35.0196226" lon="33.4215294"><ele>246.5</ele><time>2015-05-01T13:46:17.0000000+00:00</time></trkpt><trkpt lat="35.0196242" lon="33.4216079"><ele>246.9</ele><time>2015-05-01T13:46:19.0000000+00:00</time></trkpt><trkpt lat="35.0196278" lon="33.4216703"><ele>247.0</ele><time>2015-05-01T13:46:21.0000000+00:00</time></trkpt><trkpt lat="35.0196266" lon="33.4217539"><ele>247.0</ele><time>2015-05-01T13:46:24.0000000+00:00</time></trkpt><trkpt lat="35.0196335" lon="33.4218309"><ele>246.5</ele><time>2015-05-01T13:46:27.0000000+00:00</time></trkpt><trkpt lat="35.0196447" lon="33.4218986"><ele>246.0</ele><time>2015-05-01T13:46:30.0000000+00:00</time></trkpt><trkpt lat="35.0196505" lon="33.4219678"><ele>246.0</ele><time>2015-05-01T13:46:34.0000000+00:00</time></trkpt><trkpt lat="35.0196457" lon="33.4220273"><ele>247.8</ele><time>2015-05-01T13:46:37.0000000+00:00</time></trkpt><trkpt lat="35.0196507" lon="33.4221038"><ele>248.1</ele><time>2015-05-01T13:46:40.0000000+00:00</time></trkpt><trkpt lat="35.019653" lon="33.4221738"><ele>249.7</ele><time>2015-05-01T13:46:43.0000000+00:00</time></trkpt><trkpt lat="35.0196557" lon="33.4222418"><ele>250.7</ele><time>2015-05-01T13:46:46.0000000+00:00</time></trkpt><trkpt lat="35.0196572" lon="33.4223036"><ele>250.9</ele><time>2015-05-01T13:46:48.0000000+00:00</time></trkpt><trkpt lat="35.0196596" lon="33.4223695"><ele>251.0</ele><time>2015-05-01T13:46:50.0000000+00:00</time></trkpt><trkpt lat="35.0196618" lon="33.4224372"><ele>251.0</ele><time>2015-05-01T13:46:52.0000000+00:00</time></trkpt><trkpt lat="35.0196652" lon="33.4225027"><ele>251.0</ele><time>2015-05-01T13:46:54.0000000+00:00</time></trkpt><trkpt lat="35.0196642" lon="33.4225649"><ele>251.8</ele><time>2015-05-01T13:46:56.0000000+00:00</time></trkpt><trkpt lat="35.0196565" lon="33.422623"><ele>252.0</ele><time>2015-05-01T13:46:58.0000000+00:00</time></trkpt><trkpt lat="35.019654" lon="33.4227055"><ele>252.5</ele><time>2015-05-01T13:47:01.0000000+00:00</time></trkpt><trkpt lat="35.019658" lon="33.4227825"><ele>252.9</ele><time>2015-05-01T13:47:03.0000000+00:00</time></trkpt><trkpt lat="35.0196627" lon="33.422884"><ele>253.0</ele><time>2015-05-01T13:47:05.0000000+00:00</time></trkpt><trkpt lat="35.0196631" lon="33.4229809"><ele>252.3</ele><time>2015-05-01T13:47:07.0000000+00:00</time></trkpt><trkpt lat="35.019667" lon="33.4230718"><ele>251.3</ele><time>2015-05-01T13:47:09.0000000+00:00</time></trkpt><trkpt lat="35.0196714" lon="33.4231425"><ele>250.8</ele><time>2015-05-01T13:47:11.0000000+00:00</time></trkpt><trkpt lat="35.0196763" lon="33.423211"><ele>250.5</ele><time>2015-05-01T13:47:13.0000000+00:00</time></trkpt><trkpt lat="35.0196852" lon="33.4232912"><ele>250.1</ele><time>2015-05-01T13:47:16.0000000+00:00</time></trkpt><trkpt lat="35.019692" lon="33.4233459"><ele>250.5</ele><time>2015-05-01T13:47:18.0000000+00:00</time></trkpt><trkpt lat="35.0196956" lon="33.4234049"><ele>250.9</ele><time>2015-05-01T13:47:20.0000000+00:00</time></trkpt><trkpt lat="35.0196867" lon="33.423466"><ele>251.7</ele><time>2015-05-01T13:47:22.0000000+00:00</time></trkpt><trkpt lat="35.0196518" lon="33.4235187"><ele>251.7</ele><time>2015-05-01T13:47:24.0000000+00:00</time></trkpt><trkpt lat="35.0196136" lon="33.4235641"><ele>250.4</ele><time>2015-05-01T13:47:26.0000000+00:00</time></trkpt><trkpt lat="35.0196041" lon="33.4236231"><ele>248.7</ele><time>2015-05-01T13:47:30.0000000+00:00</time></trkpt><trkpt lat="35.0196176" lon="33.4236878"><ele>249.0</ele><time>2015-05-01T13:47:34.0000000+00:00</time></trkpt><trkpt lat="35.0196218" lon="33.4237486"><ele>249.0</ele><time>2015-05-01T13:47:36.0000000+00:00</time></trkpt><trkpt lat="35.0196308" lon="33.4238131"><ele>249.0</ele><time>2015-05-01T13:47:38.0000000+00:00</time></trkpt><trkpt lat="35.0196331" lon="33.4238826"><ele>248.3</ele><time>2015-05-01T13:47:40.0000000+00:00</time></trkpt><trkpt lat="35.0196319" lon="33.4239498"><ele>247.6</ele><time>2015-05-01T13:47:42.0000000+00:00</time></trkpt><trkpt lat="35.0196334" lon="33.424016"><ele>247.2</ele><time>2015-05-01T13:47:44.0000000+00:00</time></trkpt><trkpt lat="35.0196225" lon="33.424082"><ele>246.6</ele><time>2015-05-01T13:47:46.0000000+00:00</time></trkpt><trkpt lat="35.0195842" lon="33.424114"><ele>245.3</ele><time>2015-05-01T13:47:49.0000000+00:00</time></trkpt><trkpt lat="35.0195445" lon="33.4241425"><ele>247.0</ele><time>2015-05-01T13:48:21.0000000+00:00</time></trkpt><trkpt lat="35.0195075" lon="33.4241811"><ele>248.3</ele><time>2015-05-01T13:48:28.0000000+00:00</time></trkpt><trkpt lat="35.0194768" lon="33.4242289"><ele>248.8</ele><time>2015-05-01T13:48:32.0000000+00:00</time></trkpt><trkpt lat="35.0195086" lon="33.4242726"><ele>248.4</ele><time>2015-05-01T13:48:33.0000000+00:00</time></trkpt><trkpt lat="35.0195703" lon="33.424281"><ele>248.1</ele><time>2015-05-01T13:48:35.0000000+00:00</time></trkpt><trkpt lat="35.0196425" lon="33.4242676"><ele>247.5</ele><time>2015-05-01T13:48:37.0000000+00:00</time></trkpt><trkpt lat="35.0196982" lon="33.4242681"><ele>246.8</ele><time>2015-05-01T13:48:38.0000000+00:00</time></trkpt><trkpt lat="35.0197531" lon="33.4242458"><ele>246.4</ele><time>2015-05-01T13:48:39.0000000+00:00</time></trkpt><trkpt lat="35.0197332" lon="33.4241862"><ele>246.1</ele><time>2015-05-01T13:48:41.0000000+00:00</time></trkpt><trkpt lat="35.0196948" lon="33.4241312"><ele>245.3</ele><time>2015-05-01T13:48:43.0000000+00:00</time></trkpt><trkpt lat="35.0196692" lon="33.4240448"><ele>245.1</ele><time>2015-05-01T13:48:45.0000000+00:00</time></trkpt><trkpt lat="35.0196494" lon="33.4239934"><ele>244.6</ele><time>2015-05-01T13:48:46.0000000+00:00</time></trkpt><trkpt lat="35.0196311" lon="33.4239385"><ele>244.3</ele><time>2015-05-01T13:48:47.0000000+00:00</time></trkpt><trkpt lat="35.0196217" lon="33.423878"><ele>243.7</ele><time>2015-05-01T13:48:48.0000000+00:00</time></trkpt><trkpt lat="35.0196187" lon="33.4238213"><ele>243.3</ele><time>2015-05-01T13:48:49.0000000+00:00</time></trkpt><trkpt lat="35.0196164" lon="33.4237616"><ele>243.2</ele><time>2015-05-01T13:48:50.0000000+00:00</time></trkpt><trkpt lat="35.0196171" lon="33.4237026"><ele>242.6</ele><time>2015-05-01T13:48:51.0000000+00:00</time></trkpt><trkpt lat="35.019615" lon="33.4236411"><ele>242.3</ele><time>2015-05-01T13:48:52.0000000+00:00</time></trkpt><trkpt lat="35.019611" lon="33.4235844"><ele>242.2</ele><time>2015-05-01T13:48:53.0000000+00:00</time></trkpt><trkpt lat="35.0196127" lon="33.4235292"><ele>242.1</ele><time>2015-05-01T13:48:54.0000000+00:00</time></trkpt><trkpt lat="35.0196104" lon="33.4234266"><ele>242.0</ele><time>2015-05-01T13:48:56.0000000+00:00</time></trkpt><trkpt lat="35.0196054" lon="33.4233304"><ele>241.5</ele><time>2015-05-01T13:48:58.0000000+00:00</time></trkpt><trkpt lat="35.0196045" lon="33.4232486"><ele>241.1</ele><time>2015-05-01T13:49:00.0000000+00:00</time></trkpt><trkpt lat="35.0196064" lon="33.4231596"><ele>241.7</ele><time>2015-05-01T13:49:03.0000000+00:00</time></trkpt><trkpt lat="35.0195943" lon="33.4230778"><ele>241.7</ele><time>2015-05-01T13:49:05.0000000+00:00</time></trkpt><trkpt lat="35.0195798" lon="33.4229917"><ele>241.9</ele><time>2015-05-01T13:49:07.0000000+00:00</time></trkpt><trkpt lat="35.0195768" lon="33.4228978"><ele>242.0</ele><time>2015-05-01T13:49:09.0000000+00:00</time></trkpt><trkpt lat="35.019582" lon="33.4228009"><ele>242.0</ele><time>2015-05-01T13:49:11.0000000+00:00</time></trkpt><trkpt lat="35.019583" lon="33.4227402"><ele>242.0</ele><time>2015-05-01T13:49:12.0000000+00:00</time></trkpt><trkpt lat="35.0195847" lon="33.4226702"><ele>242.0</ele><time>2015-05-01T13:49:13.0000000+00:00</time></trkpt><trkpt lat="35.0195789" lon="33.4226123"><ele>242.0</ele><time>2015-05-01T13:49:14.0000000+00:00</time></trkpt><trkpt lat="35.0195717" lon="33.4225108"><ele>241.8</ele><time>2015-05-01T13:49:16.0000000+00:00</time></trkpt><trkpt lat="35.0195665" lon="33.4224062"><ele>241.2</ele><time>2015-05-01T13:49:18.0000000+00:00</time></trkpt><trkpt lat="35.0195638" lon="33.4222995"><ele>241.1</ele><time>2015-05-01T13:49:20.0000000+00:00</time></trkpt><trkpt lat="35.0195628" lon="33.4222439"><ele>241.0</ele><time>2015-05-01T13:49:21.0000000+00:00</time></trkpt><trkpt lat="35.0195637" lon="33.4221391"><ele>241.0</ele><time>2015-05-01T13:49:23.0000000+00:00</time></trkpt><trkpt lat="35.0195474" lon="33.4220621"><ele>240.3</ele><time>2015-05-01T13:49:25.0000000+00:00</time></trkpt><trkpt lat="35.0195133" lon="33.4220184"><ele>240.8</ele><time>2015-05-01T13:49:27.0000000+00:00</time></trkpt><trkpt lat="35.0194684" lon="33.4219895"><ele>241.7</ele><time>2015-05-01T13:49:29.0000000+00:00</time></trkpt><trkpt lat="35.0194276" lon="33.4219475"><ele>242.4</ele><time>2015-05-01T13:49:31.0000000+00:00</time></trkpt><trkpt lat="35.0193755" lon="33.4218854"><ele>244.1</ele><time>2015-05-01T13:49:33.0000000+00:00</time></trkpt><trkpt lat="35.0193341" lon="33.4218241"><ele>244.3</ele><time>2015-05-01T13:49:35.0000000+00:00</time></trkpt><trkpt lat="35.0192808" lon="33.4217957"><ele>244.8</ele><time>2015-05-01T13:49:37.0000000+00:00</time></trkpt><trkpt lat="35.0192304" lon="33.4218123"><ele>245.0</ele><time>2015-05-01T13:49:39.0000000+00:00</time></trkpt><trkpt lat="35.0191964" lon="33.4218648"><ele>245.0</ele><time>2015-05-01T13:49:41.0000000+00:00</time></trkpt><trkpt lat="35.0191908" lon="33.421939"><ele>245.5</ele><time>2015-05-01T13:49:43.0000000+00:00</time></trkpt><trkpt lat="35.0191988" lon="33.422017"><ele>245.4</ele><time>2015-05-01T13:49:45.0000000+00:00</time></trkpt><trkpt lat="35.0192028" lon="33.4220833"><ele>244.9</ele><time>2015-05-01T13:49:47.0000000+00:00</time></trkpt><trkpt lat="35.0192017" lon="33.422159"><ele>244.9</ele><time>2015-05-01T13:49:53.0000000+00:00</time></trkpt><trkpt lat="35.0192002" lon="33.4222145"><ele>245.0</ele><time>2015-05-01T13:49:55.0000000+00:00</time></trkpt><trkpt lat="35.019202" lon="33.4222699"><ele>245.0</ele><time>2015-05-01T13:49:57.0000000+00:00</time></trkpt><trkpt lat="35.0191966" lon="33.4223445"><ele>245.5</ele><time>2015-05-01T13:50:00.0000000+00:00</time></trkpt><trkpt lat="35.0192043" lon="33.4224207"><ele>244.6</ele><time>2015-05-01T13:50:04.0000000+00:00</time></trkpt><trkpt lat="35.0192327" lon="33.4224754"><ele>244.9</ele><time>2015-05-01T13:50:06.0000000+00:00</time></trkpt><trkpt lat="35.0192764" lon="33.4225395"><ele>245.0</ele><time>2015-05-01T13:50:08.0000000+00:00</time></trkpt><trkpt lat="35.0193164" lon="33.4226031"><ele>245.0</ele><time>2015-05-01T13:50:10.0000000+00:00</time></trkpt><trkpt lat="35.019354" lon="33.422667"><ele>245.0</ele><time>2015-05-01T13:50:12.0000000+00:00</time></trkpt><trkpt lat="35.0193933" lon="33.4227301"><ele>245.0</ele><time>2015-05-01T13:50:14.0000000+00:00</time></trkpt><trkpt lat="35.0194077" lon="33.4228105"><ele>246.5</ele><time>2015-05-01T13:50:16.0000000+00:00</time></trkpt><trkpt lat="35.0194118" lon="33.422888"><ele>247.6</ele><time>2015-05-01T13:50:18.0000000+00:00</time></trkpt><trkpt lat="35.0194138" lon="33.4229478"><ele>247.9</ele><time>2015-05-01T13:50:20.0000000+00:00</time></trkpt><trkpt lat="35.019395" lon="33.4230004"><ele>247.9</ele><time>2015-05-01T13:50:26.0000000+00:00</time></trkpt><trkpt lat="35.0193454" lon="33.4230318"><ele>248.0</ele><time>2015-05-01T13:50:29.0000000+00:00</time></trkpt><trkpt lat="35.0192976" lon="33.4230581"><ele>247.5</ele><time>2015-05-01T13:50:31.0000000+00:00</time></trkpt><trkpt lat="35.0192371" lon="33.4230891"><ele>247.1</ele><time>2015-05-01T13:50:33.0000000+00:00</time></trkpt><trkpt lat="35.0191804" lon="33.4231167"><ele>247.1</ele><time>2015-05-01T13:50:35.0000000+00:00</time></trkpt><trkpt lat="35.0191308" lon="33.423152"><ele>247.0</ele><time>2015-05-01T13:50:37.0000000+00:00</time></trkpt><trkpt lat="35.0190814" lon="33.4231815"><ele>247.0</ele><time>2015-05-01T13:50:39.0000000+00:00</time></trkpt><trkpt lat="35.0190342" lon="33.4232109"><ele>247.0</ele><time>2015-05-01T13:50:41.0000000+00:00</time></trkpt><trkpt lat="35.0190106" lon="33.4232646"><ele>247.0</ele><time>2015-05-01T13:50:43.0000000+00:00</time></trkpt><trkpt lat="35.019004" lon="33.423327"><ele>247.0</ele><time>2015-05-01T13:50:45.0000000+00:00</time></trkpt><trkpt lat="35.0189623" lon="33.4233656"><ele>247.0</ele><time>2015-05-01T13:50:49.0000000+00:00</time></trkpt><trkpt lat="35.018908" lon="33.4233638"><ele>247.5</ele><time>2015-05-01T13:50:51.0000000+00:00</time></trkpt><trkpt lat="35.018842" lon="33.4233618"><ele>247.9</ele><time>2015-05-01T13:50:53.0000000+00:00</time></trkpt><trkpt lat="35.0187756" lon="33.423361"><ele>248.0</ele><time>2015-05-01T13:50:55.0000000+00:00</time></trkpt><trkpt lat="35.0187054" lon="33.4233624"><ele>248.0</ele><time>2015-05-01T13:50:57.0000000+00:00</time></trkpt><trkpt lat="35.0186305" lon="33.4233632"><ele>248.0</ele><time>2015-05-01T13:50:59.0000000+00:00</time></trkpt><trkpt lat="35.0185546" lon="33.4233686"><ele>248.8</ele><time>2015-05-01T13:51:01.0000000+00:00</time></trkpt><trkpt lat="35.0184822" lon="33.4233708"><ele>249.0</ele><time>2015-05-01T13:51:03.0000000+00:00</time></trkpt><trkpt lat="35.0184105" lon="33.423376"><ele>249.5</ele><time>2015-05-01T13:51:05.0000000+00:00</time></trkpt><trkpt lat="35.0183458" lon="33.4233991"><ele>249.9</ele><time>2015-05-01T13:51:07.0000000+00:00</time></trkpt><trkpt lat="35.018285" lon="33.4234278"><ele>250.0</ele><time>2015-05-01T13:51:09.0000000+00:00</time></trkpt><trkpt lat="35.0182344" lon="33.4234358"><ele>250.0</ele><time>2015-05-01T13:51:11.0000000+00:00</time></trkpt><trkpt lat="35.0181783" lon="33.4234394"><ele>250.0</ele><time>2015-05-01T13:51:13.0000000+00:00</time></trkpt><trkpt lat="35.0181196" lon="33.4234416"><ele>250.5</ele><time>2015-05-01T13:51:15.0000000+00:00</time></trkpt><trkpt lat="35.0180543" lon="33.4234436"><ele>250.9</ele><time>2015-05-01T13:51:17.0000000+00:00</time></trkpt><trkpt lat="35.0179877" lon="33.4234441"><ele>251.0</ele><time>2015-05-01T13:51:19.0000000+00:00</time></trkpt><trkpt lat="35.0179175" lon="33.4234455"><ele>251.0</ele><time>2015-05-01T13:51:21.0000000+00:00</time></trkpt><trkpt lat="35.0178498" lon="33.4234468"><ele>251.8</ele><time>2015-05-01T13:51:23.0000000+00:00</time></trkpt><trkpt lat="35.0177807" lon="33.4234495"><ele>252.7</ele><time>2015-05-01T13:51:25.0000000+00:00</time></trkpt><trkpt lat="35.0177132" lon="33.4234354"><ele>252.9</ele><time>2015-05-01T13:51:27.0000000+00:00</time></trkpt><trkpt lat="35.0176454" lon="33.423412"><ele>253.0</ele><time>2015-05-01T13:51:29.0000000+00:00</time></trkpt><trkpt lat="35.0175786" lon="33.4234055"><ele>253.0</ele><time>2015-05-01T13:51:31.0000000+00:00</time></trkpt><trkpt lat="35.017509" lon="33.4234086"><ele>253.0</ele><time>2015-05-01T13:51:33.0000000+00:00</time></trkpt><trkpt lat="35.0174436" lon="33.4234145"><ele>253.8</ele><time>2015-05-01T13:51:35.0000000+00:00</time></trkpt><trkpt lat="35.0173939" lon="33.4234178"><ele>254.0</ele><time>2015-05-01T13:51:37.0000000+00:00</time></trkpt><trkpt lat="35.017344" lon="33.4234181"><ele>254.0</ele><time>2015-05-01T13:51:39.0000000+00:00</time></trkpt><trkpt lat="35.017288" lon="33.4234218"><ele>254.5</ele><time>2015-05-01T13:51:41.0000000+00:00</time></trkpt><trkpt lat="35.0172295" lon="33.4234217"><ele>254.9</ele><time>2015-05-01T13:51:43.0000000+00:00</time></trkpt><trkpt lat="35.0171701" lon="33.4234138"><ele>255.0</ele><time>2015-05-01T13:51:45.0000000+00:00</time></trkpt><trkpt lat="35.0171137" lon="33.4234075"><ele>255.8</ele><time>2015-05-01T13:51:47.0000000+00:00</time></trkpt><trkpt lat="35.017058" lon="33.4233989"><ele>256.5</ele><time>2015-05-01T13:51:49.0000000+00:00</time></trkpt><trkpt lat="35.0170073" lon="33.4233908"><ele>256.9</ele><time>2015-05-01T13:51:51.0000000+00:00</time></trkpt><trkpt lat="35.0169572" lon="33.4233934"><ele>257.0</ele><time>2015-05-01T13:51:53.0000000+00:00</time></trkpt><trkpt lat="35.0169119" lon="33.4233976"><ele>257.0</ele><time>2015-05-01T13:51:57.0000000+00:00</time></trkpt><trkpt lat="35.0168668" lon="33.4233982"><ele>257.5</ele><time>2015-05-01T13:52:01.0000000+00:00</time></trkpt><trkpt lat="35.0168133" lon="33.4234098"><ele>258.0</ele><time>2015-05-01T13:52:04.0000000+00:00</time></trkpt><trkpt lat="35.0167509" lon="33.4234173"><ele>258.0</ele><time>2015-05-01T13:52:07.0000000+00:00</time></trkpt><trkpt lat="35.0166851" lon="33.4234134"><ele>258.8</ele><time>2015-05-01T13:52:10.0000000+00:00</time></trkpt><trkpt lat="35.01662" lon="33.4234123"><ele>259.0</ele><time>2015-05-01T13:52:13.0000000+00:00</time></trkpt><trkpt lat="35.0165593" lon="33.4234136"><ele>259.5</ele><time>2015-05-01T13:52:16.0000000+00:00</time></trkpt><trkpt lat="35.0165026" lon="33.4234158"><ele>260.0</ele><time>2015-05-01T13:52:19.0000000+00:00</time></trkpt><trkpt lat="35.0164443" lon="33.4234221"><ele>260.8</ele><time>2015-05-01T13:52:22.0000000+00:00</time></trkpt><trkpt lat="35.0163894" lon="33.4234197"><ele>260.9</ele><time>2015-05-01T13:52:25.0000000+00:00</time></trkpt><trkpt lat="35.016348" lon="33.4234598"><ele>260.3</ele><time>2015-05-01T13:52:28.0000000+00:00</time></trkpt><trkpt lat="35.0163258" lon="33.4235129"><ele>260.5</ele><time>2015-05-01T13:52:32.0000000+00:00</time></trkpt><trkpt lat="35.0162842" lon="33.4235738"><ele>261.7</ele><time>2015-05-01T13:52:36.0000000+00:00</time></trkpt><trkpt lat="35.0162655" lon="33.4236359"><ele>262.0</ele><time>2015-05-01T13:52:39.0000000+00:00</time></trkpt><trkpt lat="35.0162395" lon="33.4236941"><ele>262.6</ele><time>2015-05-01T13:52:42.0000000+00:00</time></trkpt><trkpt lat="35.0162028" lon="33.4237367"><ele>263.5</ele><time>2015-05-01T13:52:45.0000000+00:00</time></trkpt><trkpt lat="35.0161551" lon="33.423772"><ele>264.0</ele><time>2015-05-01T13:52:49.0000000+00:00</time></trkpt><trkpt lat="35.0161197" lon="33.4237282"><ele>264.0</ele><time>2015-05-01T13:52:52.0000000+00:00</time></trkpt><trkpt lat="35.0161008" lon="33.42367"><ele>264.0</ele><time>2015-05-01T13:52:55.0000000+00:00</time></trkpt><trkpt lat="35.0160799" lon="33.4236072"><ele>264.9</ele><time>2015-05-01T13:52:58.0000000+00:00</time></trkpt><trkpt lat="35.016059" lon="33.4235477"><ele>266.4</ele><time>2015-05-01T13:53:01.0000000+00:00</time></trkpt><trkpt lat="35.016035" lon="33.4235007"><ele>267.4</ele><time>2015-05-01T13:53:04.0000000+00:00</time></trkpt><trkpt lat="35.0160077" lon="33.4234438"><ele>268.9</ele><time>2015-05-01T13:53:08.0000000+00:00</time></trkpt><trkpt lat="35.0159637" lon="33.4234322"><ele>269.0</ele><time>2015-05-01T13:53:45.0000000+00:00</time></trkpt><trkpt lat="35.0159848" lon="33.4234853"><ele>267.3</ele><time>2015-05-01T13:54:05.0000000+00:00</time></trkpt><trkpt lat="35.0160127" lon="33.4235382"><ele>265.8</ele><time>2015-05-01T13:54:07.0000000+00:00</time></trkpt><trkpt lat="35.0160483" lon="33.4235867"><ele>264.5</ele><time>2015-05-01T13:54:09.0000000+00:00</time></trkpt><trkpt lat="35.016072" lon="33.4236458"><ele>263.6</ele><time>2015-05-01T13:54:11.0000000+00:00</time></trkpt><trkpt lat="35.0160977" lon="33.4237159"><ele>261.9</ele><time>2015-05-01T13:54:13.0000000+00:00</time></trkpt><trkpt lat="35.0161287" lon="33.4237735"><ele>261.7</ele><time>2015-05-01T13:54:15.0000000+00:00</time></trkpt><trkpt lat="35.0161771" lon="33.4237828"><ele>261.5</ele><time>2015-05-01T13:54:17.0000000+00:00</time></trkpt><trkpt lat="35.0161899" lon="33.4237275"><ele>263.3</ele><time>2015-05-01T13:55:00.0000000+00:00</time></trkpt><trkpt lat="35.016169" lon="33.4236763"><ele>262.1</ele><time>2015-05-01T13:55:04.0000000+00:00</time></trkpt><trkpt lat="35.0162158" lon="33.4236646"><ele>255.0</ele><time>2015-05-01T14:03:36.0000000+00:00</time></trkpt><trkpt lat="35.0162548" lon="33.423607"><ele>255.0</ele><time>2015-05-01T14:03:38.0000000+00:00</time></trkpt><trkpt lat="35.0162792" lon="33.4235519"><ele>255.0</ele><time>2015-05-01T14:03:40.0000000+00:00</time></trkpt><trkpt lat="35.0163003" lon="33.4235033"><ele>254.5</ele><time>2015-05-01T14:03:42.0000000+00:00</time></trkpt><trkpt lat="35.0163371" lon="33.4234471"><ele>253.2</ele><time>2015-05-01T14:03:46.0000000+00:00</time></trkpt><trkpt lat="35.0163794" lon="33.4234018"><ele>253.0</ele><time>2015-05-01T14:03:50.0000000+00:00</time></trkpt><trkpt lat="35.0164301" lon="33.4234135"><ele>252.4</ele><time>2015-05-01T14:04:13.0000000+00:00</time></trkpt><trkpt lat="35.0164865" lon="33.4234074"><ele>252.1</ele><time>2015-05-01T14:04:15.0000000+00:00</time></trkpt><trkpt lat="35.016548" lon="33.4234076"><ele>251.5</ele><time>2015-05-01T14:04:17.0000000+00:00</time></trkpt><trkpt lat="35.0166021" lon="33.4234105"><ele>251.2</ele><time>2015-05-01T14:04:19.0000000+00:00</time></trkpt><trkpt lat="35.0166666" lon="33.4234048"><ele>251.1</ele><time>2015-05-01T14:04:55.0000000+00:00</time></trkpt><trkpt lat="35.0167351" lon="33.4234044"><ele>250.5</ele><time>2015-05-01T14:04:57.0000000+00:00</time></trkpt><trkpt lat="35.0168048" lon="33.42341"><ele>249.4</ele><time>2015-05-01T14:04:59.0000000+00:00</time></trkpt><trkpt lat="35.0168832" lon="33.4234135"><ele>249.1</ele><time>2015-05-01T14:05:01.0000000+00:00</time></trkpt><trkpt lat="35.0169335" lon="33.423411"><ele>249.1</ele><time>2015-05-01T14:05:02.0000000+00:00</time></trkpt><trkpt lat="35.016995" lon="33.4234036"><ele>249.0</ele><time>2015-05-01T14:05:03.0000000+00:00</time></trkpt><trkpt lat="35.0170469" lon="33.4234012"><ele>248.5</ele><time>2015-05-01T14:05:04.0000000+00:00</time></trkpt><trkpt lat="35.0170952" lon="33.4234057"><ele>248.3</ele><time>2015-05-01T14:05:05.0000000+00:00</time></trkpt><trkpt lat="35.0171427" lon="33.4234145"><ele>248.1</ele><time>2015-05-01T14:05:06.0000000+00:00</time></trkpt><trkpt lat="35.0172196" lon="33.4234303"><ele>248.1</ele><time>2015-05-01T14:05:08.0000000+00:00</time></trkpt><trkpt lat="35.0172999" lon="33.4234235"><ele>248.0</ele><time>2015-05-01T14:05:10.0000000+00:00</time></trkpt><trkpt lat="35.0173767" lon="33.4234176"><ele>247.3</ele><time>2015-05-01T14:05:12.0000000+00:00</time></trkpt><trkpt lat="35.0174537" lon="33.4234106"><ele>246.6</ele><time>2015-05-01T14:05:14.0000000+00:00</time></trkpt><trkpt lat="35.0175457" lon="33.4234032"><ele>246.2</ele><time>2015-05-01T14:05:16.0000000+00:00</time></trkpt><trkpt lat="35.0175963" lon="33.4234022"><ele>246.1</ele><time>2015-05-01T14:05:17.0000000+00:00</time></trkpt><trkpt lat="35.0176443" lon="33.423408"><ele>246.1</ele><time>2015-05-01T14:05:18.0000000+00:00</time></trkpt><trkpt lat="35.0176916" lon="33.4234189"><ele>246.0</ele><time>2015-05-01T14:05:19.0000000+00:00</time></trkpt><trkpt lat="35.0177444" lon="33.4234322"><ele>246.0</ele><time>2015-05-01T14:05:20.0000000+00:00</time></trkpt><trkpt lat="35.0178379" lon="33.4234473"><ele>245.5</ele><time>2015-05-01T14:05:22.0000000+00:00</time></trkpt><trkpt lat="35.0178886" lon="33.4234468"><ele>245.3</ele><time>2015-05-01T14:05:23.0000000+00:00</time></trkpt><trkpt lat="35.017943" lon="33.4234359"><ele>245.1</ele><time>2015-05-01T14:05:24.0000000+00:00</time></trkpt><trkpt lat="35.0179954" lon="33.4234393"><ele>245.1</ele><time>2015-05-01T14:05:25.0000000+00:00</time></trkpt><trkpt lat="35.0180489" lon="33.4234366"><ele>245.1</ele><time>2015-05-01T14:05:26.0000000+00:00</time></trkpt><trkpt lat="35.0181042" lon="33.423433"><ele>245.0</ele><time>2015-05-01T14:05:27.0000000+00:00</time></trkpt><trkpt lat="35.0181624" lon="33.4234369"><ele>244.5</ele><time>2015-05-01T14:05:28.0000000+00:00</time></trkpt><trkpt lat="35.018222" lon="33.4234289"><ele>245.3</ele><time>2015-05-01T14:05:29.0000000+00:00</time></trkpt><trkpt lat="35.0182734" lon="33.4234194"><ele>245.1</ele><time>2015-05-01T14:05:30.0000000+00:00</time></trkpt><trkpt lat="35.0183622" lon="33.423396"><ele>244.3</ele><time>2015-05-01T14:05:32.0000000+00:00</time></trkpt><trkpt lat="35.0184443" lon="33.4233651"><ele>243.3</ele><time>2015-05-01T14:05:34.0000000+00:00</time></trkpt><trkpt lat="35.0184892" lon="33.4233558"><ele>242.7</ele><time>2015-05-01T14:05:35.0000000+00:00</time></trkpt><trkpt lat="35.0185822" lon="33.4233515"><ele>242.2</ele><time>2015-05-01T14:05:37.0000000+00:00</time></trkpt><trkpt lat="35.0186292" lon="33.423347"><ele>242.1</ele><time>2015-05-01T14:05:38.0000000+00:00</time></trkpt><trkpt lat="35.0186769" lon="33.423342"><ele>242.1</ele><time>2015-05-01T14:05:39.0000000+00:00</time></trkpt><trkpt lat="35.0187341" lon="33.4233442"><ele>241.5</ele><time>2015-05-01T14:05:40.0000000+00:00</time></trkpt><trkpt lat="35.01883" lon="33.4233377"><ele>241.2</ele><time>2015-05-01T14:05:42.0000000+00:00</time></trkpt><trkpt lat="35.0189074" lon="33.4233348"><ele>240.3</ele><time>2015-05-01T14:05:44.0000000+00:00</time></trkpt><trkpt lat="35.0189672" lon="33.4233295"><ele>240.1</ele><time>2015-05-01T14:05:46.0000000+00:00</time></trkpt><trkpt lat="35.0190077" lon="33.4232766"><ele>240.0</ele><time>2015-05-01T14:05:48.0000000+00:00</time></trkpt><trkpt lat="35.0190183" lon="33.4232126"><ele>240.0</ele><time>2015-05-01T14:05:50.0000000+00:00</time></trkpt><trkpt lat="35.0190707" lon="33.4231708"><ele>239.9</ele><time>2015-05-01T14:05:53.0000000+00:00</time></trkpt><trkpt lat="35.0191224" lon="33.4231441"><ele>240.0</ele><time>2015-05-01T14:05:56.0000000+00:00</time></trkpt><trkpt lat="35.0191787" lon="33.4231145"><ele>238.5</ele><time>2015-05-01T14:06:04.0000000+00:00</time></trkpt><trkpt lat="35.0192287" lon="33.4230832"><ele>239.0</ele><time>2015-05-01T14:06:07.0000000+00:00</time></trkpt><trkpt lat="35.0192806" lon="33.4230731"><ele>239.0</ele><time>2015-05-01T14:06:10.0000000+00:00</time></trkpt><trkpt lat="35.01934" lon="33.4230387"><ele>239.0</ele><time>2015-05-01T14:06:13.0000000+00:00</time></trkpt><trkpt lat="35.0193961" lon="33.4230071"><ele>239.0</ele><time>2015-05-01T14:06:16.0000000+00:00</time></trkpt><trkpt lat="35.0194157" lon="33.4229364"><ele>240.0</ele><time>2015-05-01T14:06:20.0000000+00:00</time></trkpt><trkpt lat="35.0194112" lon="33.4228642"><ele>240.0</ele><time>2015-05-01T14:06:22.0000000+00:00</time></trkpt><trkpt lat="35.0194027" lon="33.4227876"><ele>240.0</ele><time>2015-05-01T14:06:24.0000000+00:00</time></trkpt><trkpt lat="35.0193816" lon="33.4227101"><ele>240.5</ele><time>2015-05-01T14:06:26.0000000+00:00</time></trkpt><trkpt lat="35.0193404" lon="33.4226426"><ele>240.6</ele><time>2015-05-01T14:06:28.0000000+00:00</time></trkpt><trkpt lat="35.0192922" lon="33.4225838"><ele>240.9</ele><time>2015-05-01T14:06:30.0000000+00:00</time></trkpt><trkpt lat="35.0192512" lon="33.4225278"><ele>241.0</ele><time>2015-05-01T14:06:32.0000000+00:00</time></trkpt><trkpt lat="35.0192173" lon="33.4224759"><ele>241.8</ele><time>2015-05-01T14:06:34.0000000+00:00</time></trkpt><trkpt lat="35.0191917" lon="33.4224074"><ele>241.5</ele><time>2015-05-01T14:06:36.0000000+00:00</time></trkpt><trkpt lat="35.0191894" lon="33.4223123"><ele>241.1</ele><time>2015-05-01T14:06:38.0000000+00:00</time></trkpt><trkpt lat="35.019197" lon="33.4222239"><ele>241.0</ele><time>2015-05-01T14:06:40.0000000+00:00</time></trkpt><trkpt lat="35.0192008" lon="33.4221475"><ele>241.0</ele><time>2015-05-01T14:06:42.0000000+00:00</time></trkpt><trkpt lat="35.019211" lon="33.4220829"><ele>240.5</ele><time>2015-05-01T14:06:44.0000000+00:00</time></trkpt><trkpt lat="35.0192333" lon="33.4220143"><ele>240.1</ele><time>2015-05-01T14:06:47.0000000+00:00</time></trkpt><trkpt lat="35.0192962" lon="33.422001"><ele>240.0</ele><time>2015-05-01T14:06:50.0000000+00:00</time></trkpt><trkpt lat="35.0193606" lon="33.4220168"><ele>239.3</ele><time>2015-05-01T14:06:53.0000000+00:00</time></trkpt><trkpt lat="35.019421" lon="33.4220378"><ele>239.1</ele><time>2015-05-01T14:06:56.0000000+00:00</time></trkpt><trkpt lat="35.0194882" lon="33.4220516"><ele>239.5</ele><time>2015-05-01T14:06:59.0000000+00:00</time></trkpt><trkpt lat="35.0195375" lon="33.4220669"><ele>239.9</ele><time>2015-05-01T14:07:01.0000000+00:00</time></trkpt><trkpt lat="35.019577" lon="33.42211"><ele>239.1</ele><time>2015-05-01T14:07:04.0000000+00:00</time></trkpt><trkpt lat="35.0195896" lon="33.4221716"><ele>239.0</ele><time>2015-05-01T14:07:08.0000000+00:00</time></trkpt><trkpt lat="35.0196259" lon="33.4222279"><ele>239.3</ele><time>2015-05-01T14:07:10.0000000+00:00</time></trkpt><trkpt lat="35.0196618" lon="33.4223026"><ele>239.1</ele><time>2015-05-01T14:07:12.0000000+00:00</time></trkpt><trkpt lat="35.0196744" lon="33.4223842"><ele>239.0</ele><time>2015-05-01T14:07:14.0000000+00:00</time></trkpt><trkpt lat="35.0196702" lon="33.4224634"><ele>239.0</ele><time>2015-05-01T14:07:16.0000000+00:00</time></trkpt><trkpt lat="35.0196695" lon="33.4225491"><ele>239.0</ele><time>2015-05-01T14:07:18.0000000+00:00</time></trkpt><trkpt lat="35.0196696" lon="33.4226371"><ele>238.3</ele><time>2015-05-01T14:07:20.0000000+00:00</time></trkpt><trkpt lat="35.0196752" lon="33.4227351"><ele>238.1</ele><time>2015-05-01T14:07:22.0000000+00:00</time></trkpt><trkpt lat="35.0196818" lon="33.4228402"><ele>238.8</ele><time>2015-05-01T14:07:24.0000000+00:00</time></trkpt><trkpt lat="35.0196857" lon="33.4229441"><ele>239.7</ele><time>2015-05-01T14:07:26.0000000+00:00</time></trkpt><trkpt lat="35.0196859" lon="33.4230468"><ele>240.7</ele><time>2015-05-01T14:07:28.0000000+00:00</time></trkpt><trkpt lat="35.0196895" lon="33.4231523"><ele>240.9</ele><time>2015-05-01T14:07:30.0000000+00:00</time></trkpt><trkpt lat="35.0196916" lon="33.4232562"><ele>241.8</ele><time>2015-05-01T14:07:32.0000000+00:00</time></trkpt><trkpt lat="35.0196926" lon="33.4233535"><ele>242.2</ele><time>2015-05-01T14:07:34.0000000+00:00</time></trkpt><trkpt lat="35.0196958" lon="33.4234355"><ele>242.8</ele><time>2015-05-01T14:07:36.0000000+00:00</time></trkpt><trkpt lat="35.0196963" lon="33.4235124"><ele>243.0</ele><time>2015-05-01T14:07:38.0000000+00:00</time></trkpt><trkpt lat="35.0196999" lon="33.4235872"><ele>242.3</ele><time>2015-05-01T14:07:40.0000000+00:00</time></trkpt><trkpt lat="35.019706" lon="33.4236644"><ele>242.1</ele><time>2015-05-01T14:07:42.0000000+00:00</time></trkpt><trkpt lat="35.0197127" lon="33.4237426"><ele>242.0</ele><time>2015-05-01T14:07:44.0000000+00:00</time></trkpt><trkpt lat="35.0197179" lon="33.4238224"><ele>241.5</ele><time>2015-05-01T14:07:46.0000000+00:00</time></trkpt><trkpt lat="35.0197264" lon="33.4239016"><ele>241.1</ele><time>2015-05-01T14:07:48.0000000+00:00</time></trkpt><trkpt lat="35.0197543" lon="33.4239742"><ele>241.1</ele><time>2015-05-01T14:07:50.0000000+00:00</time></trkpt><trkpt lat="35.0198064" lon="33.4240205"><ele>241.0</ele><time>2015-05-01T14:07:52.0000000+00:00</time></trkpt><trkpt lat="35.0198541" lon="33.424071"><ele>241.0</ele><time>2015-05-01T14:07:54.0000000+00:00</time></trkpt><trkpt lat="35.0198719" lon="33.4241488"><ele>241.0</ele><time>2015-05-01T14:07:56.0000000+00:00</time></trkpt><trkpt lat="35.0198352" lon="33.4242326"><ele>240.5</ele><time>2015-05-01T14:07:58.0000000+00:00</time></trkpt><trkpt lat="35.0197658" lon="33.4242714"><ele>240.1</ele><time>2015-05-01T14:08:00.0000000+00:00</time></trkpt><trkpt lat="35.0196956" lon="33.4242745"><ele>240.8</ele><time>2015-05-01T14:08:02.0000000+00:00</time></trkpt><trkpt lat="35.019626" lon="33.4242684"><ele>240.5</ele><time>2015-05-01T14:08:04.0000000+00:00</time></trkpt><trkpt lat="35.0195527" lon="33.4242882"><ele>240.1</ele><time>2015-05-01T14:08:06.0000000+00:00</time></trkpt><trkpt lat="35.0194828" lon="33.4243407"><ele>240.5</ele><time>2015-05-01T14:08:08.0000000+00:00</time></trkpt><trkpt lat="35.0194101" lon="33.4244002"><ele>240.2</ele><time>2015-05-01T14:08:10.0000000+00:00</time></trkpt><trkpt lat="35.0193359" lon="33.4244586"><ele>240.1</ele><time>2015-05-01T14:08:12.0000000+00:00</time></trkpt><trkpt lat="35.0192616" lon="33.4245112"><ele>240.8</ele><time>2015-05-01T14:08:14.0000000+00:00</time></trkpt><trkpt lat="35.0192022" lon="33.4245582"><ele>240.7</ele><time>2015-05-01T14:08:16.0000000+00:00</time></trkpt><trkpt lat="35.0191737" lon="33.4246072"><ele>242.0</ele><time>2015-05-01T14:08:50.0000000+00:00</time></trkpt><trkpt lat="35.0191278" lon="33.4246266"><ele>242.0</ele><time>2015-05-01T14:08:53.0000000+00:00</time></trkpt><trkpt lat="35.0190802" lon="33.4246676"><ele>242.0</ele><time>2015-05-01T14:08:56.0000000+00:00</time></trkpt><trkpt lat="35.0190379" lon="33.4247115"><ele>242.0</ele><time>2015-05-01T14:09:01.0000000+00:00</time></trkpt><trkpt lat="35.0190009" lon="33.4247533"><ele>242.1</ele><time>2015-05-01T14:09:05.0000000+00:00</time></trkpt><trkpt lat="35.0189438" lon="33.4248013"><ele>242.8</ele><time>2015-05-01T14:09:08.0000000+00:00</time></trkpt><trkpt lat="35.0189034" lon="33.4248352"><ele>243.0</ele><time>2015-05-01T14:09:10.0000000+00:00</time></trkpt><trkpt lat="35.0188583" lon="33.424865"><ele>243.0</ele><time>2015-05-01T14:09:12.0000000+00:00</time></trkpt><trkpt lat="35.0187983" lon="33.4248861"><ele>243.0</ele><time>2015-05-01T14:09:14.0000000+00:00</time></trkpt><trkpt lat="35.0187406" lon="33.4249146"><ele>243.0</ele><time>2015-05-01T14:09:16.0000000+00:00</time></trkpt><trkpt lat="35.0186885" lon="33.4249369"><ele>243.0</ele><time>2015-05-01T14:09:18.0000000+00:00</time></trkpt><trkpt lat="35.0186311" lon="33.424967"><ele>243.0</ele><time>2015-05-01T14:09:21.0000000+00:00</time></trkpt><trkpt lat="35.0185753" lon="33.4249901"><ele>243.0</ele><time>2015-05-01T14:09:23.0000000+00:00</time></trkpt><trkpt lat="35.0185113" lon="33.4250143"><ele>243.0</ele><time>2015-05-01T14:09:25.0000000+00:00</time></trkpt><trkpt lat="35.0184531" lon="33.425037"><ele>243.0</ele><time>2015-05-01T14:09:27.0000000+00:00</time></trkpt><trkpt lat="35.0183922" lon="33.425059"><ele>243.0</ele><time>2015-05-01T14:09:29.0000000+00:00</time></trkpt><trkpt lat="35.018328" lon="33.4250803"><ele>243.0</ele><time>2015-05-01T14:09:31.0000000+00:00</time></trkpt><trkpt lat="35.0182584" lon="33.4251064"><ele>242.3</ele><time>2015-05-01T14:09:33.0000000+00:00</time></trkpt><trkpt lat="35.0181884" lon="33.4251324"><ele>242.8</ele><time>2015-05-01T14:09:35.0000000+00:00</time></trkpt><trkpt lat="35.0181139" lon="33.4251518"><ele>243.5</ele><time>2015-05-01T14:09:37.0000000+00:00</time></trkpt><trkpt lat="35.0180373" lon="33.4251703"><ele>243.9</ele><time>2015-05-01T14:09:39.0000000+00:00</time></trkpt><trkpt lat="35.0179536" lon="33.4251898"><ele>244.0</ele><time>2015-05-01T14:09:41.0000000+00:00</time></trkpt><trkpt lat="35.0178694" lon="33.4252069"><ele>244.5</ele><time>2015-05-01T14:09:43.0000000+00:00</time></trkpt><trkpt lat="35.0177888" lon="33.4252203"><ele>244.9</ele><time>2015-05-01T14:09:45.0000000+00:00</time></trkpt><trkpt lat="35.017712" lon="33.4252319"><ele>245.7</ele><time>2015-05-01T14:09:47.0000000+00:00</time></trkpt><trkpt lat="35.0176293" lon="33.4252428"><ele>245.5</ele><time>2015-05-01T14:09:49.0000000+00:00</time></trkpt><trkpt lat="35.0175445" lon="33.4252576"><ele>245.1</ele><time>2015-05-01T14:09:51.0000000+00:00</time></trkpt><trkpt lat="35.0175002" lon="33.4252678"><ele>245.1</ele><time>2015-05-01T14:09:52.0000000+00:00</time></trkpt><trkpt lat="35.017415" lon="33.425289"><ele>245.3</ele><time>2015-05-01T14:09:54.0000000+00:00</time></trkpt><trkpt lat="35.0173371" lon="33.425304"><ele>245.1</ele><time>2015-05-01T14:09:56.0000000+00:00</time></trkpt><trkpt lat="35.0172622" lon="33.4253047"><ele>245.0</ele><time>2015-05-01T14:09:58.0000000+00:00</time></trkpt><trkpt lat="35.0171887" lon="33.4252938"><ele>245.8</ele><time>2015-05-01T14:10:00.0000000+00:00</time></trkpt><trkpt lat="35.0171183" lon="33.4252819"><ele>246.0</ele><time>2015-05-01T14:10:02.0000000+00:00</time></trkpt><trkpt lat="35.0170585" lon="33.4252746"><ele>245.5</ele><time>2015-05-01T14:10:04.0000000+00:00</time></trkpt><trkpt lat="35.0170024" lon="33.4252717"><ele>244.6</ele><time>2015-05-01T14:10:07.0000000+00:00</time></trkpt><trkpt lat="35.0169516" lon="33.4252633"><ele>244.1</ele><time>2015-05-01T14:10:10.0000000+00:00</time></trkpt><trkpt lat="35.016894" lon="33.4252613"><ele>244.0</ele><time>2015-05-01T14:10:13.0000000+00:00</time></trkpt><trkpt lat="35.0168403" lon="33.4252582"><ele>244.0</ele><time>2015-05-01T14:10:15.0000000+00:00</time></trkpt><trkpt lat="35.0167668" lon="33.4252595"><ele>244.0</ele><time>2015-05-01T14:10:17.0000000+00:00</time></trkpt><trkpt lat="35.0166891" lon="33.4252651"><ele>244.0</ele><time>2015-05-01T14:10:19.0000000+00:00</time></trkpt><trkpt lat="35.0166042" lon="33.4252707"><ele>244.0</ele><time>2015-05-01T14:10:21.0000000+00:00</time></trkpt><trkpt lat="35.0165178" lon="33.4252818"><ele>244.0</ele><time>2015-05-01T14:10:23.0000000+00:00</time></trkpt><trkpt lat="35.0164725" lon="33.4252901"><ele>244.0</ele><time>2015-05-01T14:10:24.0000000+00:00</time></trkpt><trkpt lat="35.0163853" lon="33.4253062"><ele>244.0</ele><time>2015-05-01T14:10:26.0000000+00:00</time></trkpt><trkpt lat="35.0163037" lon="33.4253241"><ele>244.0</ele><time>2015-05-01T14:10:28.0000000+00:00</time></trkpt><trkpt lat="35.0162305" lon="33.425346"><ele>244.0</ele><time>2015-05-01T14:10:30.0000000+00:00</time></trkpt><trkpt lat="35.0161692" lon="33.4253635"><ele>244.0</ele><time>2015-05-01T14:10:32.0000000+00:00</time></trkpt><trkpt lat="35.0161135" lon="33.4253741"><ele>244.5</ele><time>2015-05-01T14:10:34.0000000+00:00</time></trkpt><trkpt lat="35.0160506" lon="33.4253871"><ele>244.9</ele><time>2015-05-01T14:10:36.0000000+00:00</time></trkpt><trkpt lat="35.0159789" lon="33.4254058"><ele>245.0</ele><time>2015-05-01T14:10:38.0000000+00:00</time></trkpt><trkpt lat="35.0159003" lon="33.4254179"><ele>245.8</ele><time>2015-05-01T14:10:40.0000000+00:00</time></trkpt><trkpt lat="35.0158196" lon="33.4254257"><ele>246.0</ele><time>2015-05-01T14:10:42.0000000+00:00</time></trkpt><trkpt lat="35.015739" lon="33.4254361"><ele>246.0</ele><time>2015-05-01T14:10:44.0000000+00:00</time></trkpt><trkpt lat="35.0156595" lon="33.4254515"><ele>245.3</ele><time>2015-05-01T14:10:46.0000000+00:00</time></trkpt><trkpt lat="35.0155749" lon="33.4254643"><ele>245.6</ele><time>2015-05-01T14:10:48.0000000+00:00</time></trkpt><trkpt lat="35.0154867" lon="33.425475"><ele>245.7</ele><time>2015-05-01T14:10:50.0000000+00:00</time></trkpt><trkpt lat="35.0154008" lon="33.4254879"><ele>245.9</ele><time>2015-05-01T14:10:52.0000000+00:00</time></trkpt><trkpt lat="35.0153178" lon="33.4254994"><ele>246.7</ele><time>2015-05-01T14:10:54.0000000+00:00</time></trkpt><trkpt lat="35.0152398" lon="33.425507"><ele>247.0</ele><time>2015-05-01T14:10:56.0000000+00:00</time></trkpt><trkpt lat="35.0151695" lon="33.4255166"><ele>247.0</ele><time>2015-05-01T14:10:58.0000000+00:00</time></trkpt><trkpt lat="35.0151127" lon="33.4255291"><ele>247.0</ele><time>2015-05-01T14:11:00.0000000+00:00</time></trkpt><trkpt lat="35.0150621" lon="33.4255369"><ele>247.0</ele><time>2015-05-01T14:11:02.0000000+00:00</time></trkpt><trkpt lat="35.0149889" lon="33.4255425"><ele>250.6</ele><time>2015-05-01T14:11:21.0000000+00:00</time></trkpt><trkpt lat="35.0149057" lon="33.4255516"><ele>251.7</ele><time>2015-05-01T14:11:23.0000000+00:00</time></trkpt><trkpt lat="35.0148238" lon="33.4255683"><ele>251.9</ele><time>2015-05-01T14:11:25.0000000+00:00</time></trkpt><trkpt lat="35.0147471" lon="33.4255887"><ele>251.2</ele><time>2015-05-01T14:11:27.0000000+00:00</time></trkpt><trkpt lat="35.0146661" lon="33.4256074"><ele>251.1</ele><time>2015-05-01T14:11:29.0000000+00:00</time></trkpt><trkpt lat="35.0145671" lon="33.4256333"><ele>250.3</ele><time>2015-05-01T14:11:31.0000000+00:00</time></trkpt><trkpt lat="35.0144946" lon="33.4256548"><ele>250.1</ele><time>2015-05-01T14:11:33.0000000+00:00</time></trkpt><trkpt lat="35.0144271" lon="33.4256794"><ele>250.3</ele><time>2015-05-01T14:11:35.0000000+00:00</time></trkpt><trkpt lat="35.014353" lon="33.4257089"><ele>250.6</ele><time>2015-05-01T14:11:37.0000000+00:00</time></trkpt><trkpt lat="35.0142901" lon="33.4257352"><ele>251.4</ele><time>2015-05-01T14:11:39.0000000+00:00</time></trkpt><trkpt lat="35.0142265" lon="33.4257625"><ele>251.9</ele><time>2015-05-01T14:11:41.0000000+00:00</time></trkpt><trkpt lat="35.0141713" lon="33.4257915"><ele>250.7</ele><time>2015-05-01T14:11:43.0000000+00:00</time></trkpt><trkpt lat="35.0141221" lon="33.4258216"><ele>250.2</ele><time>2015-05-01T14:11:45.0000000+00:00</time></trkpt><trkpt lat="35.0140778" lon="33.4258514"><ele>250.1</ele><time>2015-05-01T14:11:47.0000000+00:00</time></trkpt><trkpt lat="35.0140309" lon="33.4258773"><ele>250.5</ele><time>2015-05-01T14:11:49.0000000+00:00</time></trkpt><trkpt lat="35.0139871" lon="33.4259002"><ele>250.9</ele><time>2015-05-01T14:11:51.0000000+00:00</time></trkpt><trkpt lat="35.0139397" lon="33.4259282"><ele>250.5</ele><time>2015-05-01T14:11:53.0000000+00:00</time></trkpt><trkpt lat="35.0138903" lon="33.4259628"><ele>249.4</ele><time>2015-05-01T14:11:55.0000000+00:00</time></trkpt><trkpt lat="35.0138305" lon="33.4260002"><ele>248.4</ele><time>2015-05-01T14:11:57.0000000+00:00</time></trkpt><trkpt lat="35.0137645" lon="33.4260359"><ele>248.9</ele><time>2015-05-01T14:11:59.0000000+00:00</time></trkpt><trkpt lat="35.01365" lon="33.4260835"><ele>249.0</ele><time>2015-05-01T14:12:01.0000000+00:00</time></trkpt><trkpt lat="35.0136014" lon="33.4261028"><ele>249.0</ele><time>2015-05-01T14:12:02.0000000+00:00</time></trkpt><trkpt lat="35.0135582" lon="33.4261259"><ele>249.5</ele><time>2015-05-01T14:12:03.0000000+00:00</time></trkpt><trkpt lat="35.0135122" lon="33.4261493"><ele>249.8</ele><time>2015-05-01T14:12:04.0000000+00:00</time></trkpt><trkpt lat="35.0134649" lon="33.4261675"><ele>249.9</ele><time>2015-05-01T14:12:05.0000000+00:00</time></trkpt><trkpt lat="35.0134147" lon="33.4261832"><ele>250.0</ele><time>2015-05-01T14:12:06.0000000+00:00</time></trkpt><trkpt lat="35.0133736" lon="33.4262074"><ele>250.5</ele><time>2015-05-01T14:12:07.0000000+00:00</time></trkpt><trkpt lat="35.0133302" lon="33.4262251"><ele>250.8</ele><time>2015-05-01T14:12:08.0000000+00:00</time></trkpt><trkpt lat="35.0132435" lon="33.4262697"><ele>251.0</ele><time>2015-05-01T14:12:10.0000000+00:00</time></trkpt><trkpt lat="35.0131693" lon="33.4263162"><ele>251.0</ele><time>2015-05-01T14:12:12.0000000+00:00</time></trkpt><trkpt lat="35.0131065" lon="33.4263765"><ele>251.8</ele><time>2015-05-01T14:12:14.0000000+00:00</time></trkpt><trkpt lat="35.0130453" lon="33.4264133"><ele>252.7</ele><time>2015-05-01T14:12:16.0000000+00:00</time></trkpt><trkpt lat="35.0129929" lon="33.4264579"><ele>252.9</ele><time>2015-05-01T14:12:18.0000000+00:00</time></trkpt><trkpt lat="35.0129369" lon="33.4264986"><ele>253.8</ele><time>2015-05-01T14:12:20.0000000+00:00</time></trkpt><trkpt lat="35.0128848" lon="33.4265464"><ele>254.7</ele><time>2015-05-01T14:12:22.0000000+00:00</time></trkpt><trkpt lat="35.0128262" lon="33.4265991"><ele>253.4</ele><time>2015-05-01T14:12:24.0000000+00:00</time></trkpt><trkpt lat="35.0127594" lon="33.4266528"><ele>253.1</ele><time>2015-05-01T14:12:26.0000000+00:00</time></trkpt><trkpt lat="35.0126755" lon="33.4267308"><ele>253.8</ele><time>2015-05-01T14:12:28.0000000+00:00</time></trkpt><trkpt lat="35.0126317" lon="33.4267552"><ele>253.9</ele><time>2015-05-01T14:12:29.0000000+00:00</time></trkpt><trkpt lat="35.0125889" lon="33.4267836"><ele>254.0</ele><time>2015-05-01T14:12:30.0000000+00:00</time></trkpt><trkpt lat="35.0125472" lon="33.426813"><ele>254.0</ele><time>2015-05-01T14:12:31.0000000+00:00</time></trkpt><trkpt lat="35.0124962" lon="33.4268358"><ele>253.5</ele><time>2015-05-01T14:12:32.0000000+00:00</time></trkpt><trkpt lat="35.0124453" lon="33.4268641"><ele>253.3</ele><time>2015-05-01T14:12:33.0000000+00:00</time></trkpt><trkpt lat="35.0123964" lon="33.4268881"><ele>253.6</ele><time>2015-05-01T14:12:34.0000000+00:00</time></trkpt><trkpt lat="35.01235" lon="33.4269125"><ele>253.8</ele><time>2015-05-01T14:12:35.0000000+00:00</time></trkpt><trkpt lat="35.0122972" lon="33.4269374"><ele>254.4</ele><time>2015-05-01T14:12:36.0000000+00:00</time></trkpt><trkpt lat="35.0122502" lon="33.4269606"><ele>254.7</ele><time>2015-05-01T14:12:37.0000000+00:00</time></trkpt><trkpt lat="35.0122018" lon="33.4269753"><ele>255.4</ele><time>2015-05-01T14:12:38.0000000+00:00</time></trkpt><trkpt lat="35.0121513" lon="33.4269824"><ele>253.2</ele><time>2015-05-01T14:12:39.0000000+00:00</time></trkpt><trkpt lat="35.0121032" lon="33.4269817"><ele>251.6</ele><time>2015-05-01T14:12:40.0000000+00:00</time></trkpt><trkpt lat="35.0120555" lon="33.426987"><ele>250.8</ele><time>2015-05-01T14:12:41.0000000+00:00</time></trkpt><trkpt lat="35.0119983" lon="33.426993"><ele>250.4</ele><time>2015-05-01T14:12:42.0000000+00:00</time></trkpt><trkpt lat="35.0119525" lon="33.4270175"><ele>250.7</ele><time>2015-05-01T14:12:43.0000000+00:00</time></trkpt><trkpt lat="35.0118966" lon="33.4270394"><ele>250.4</ele><time>2015-05-01T14:12:44.0000000+00:00</time></trkpt><trkpt lat="35.0118444" lon="33.42706"><ele>250.2</ele><time>2015-05-01T14:12:45.0000000+00:00</time></trkpt><trkpt lat="35.0117554" lon="33.4270833"><ele>250.6</ele><time>2015-05-01T14:12:47.0000000+00:00</time></trkpt><trkpt lat="35.011708" lon="33.427091"><ele>250.8</ele><time>2015-05-01T14:12:48.0000000+00:00</time></trkpt><trkpt lat="35.0116201" lon="33.4271118"><ele>250.7</ele><time>2015-05-01T14:12:50.0000000+00:00</time></trkpt><trkpt lat="35.0115337" lon="33.4271374"><ele>250.2</ele><time>2015-05-01T14:12:52.0000000+00:00</time></trkpt><trkpt lat="35.0114828" lon="33.4271547"><ele>249.6</ele><time>2015-05-01T14:12:53.0000000+00:00</time></trkpt><trkpt lat="35.0114298" lon="33.4271733"><ele>249.3</ele><time>2015-05-01T14:12:54.0000000+00:00</time></trkpt><trkpt lat="35.0113758" lon="33.4271876"><ele>249.7</ele><time>2015-05-01T14:12:55.0000000+00:00</time></trkpt><trkpt lat="35.0113163" lon="33.427196"><ele>249.3</ele><time>2015-05-01T14:12:56.0000000+00:00</time></trkpt><trkpt lat="35.0112588" lon="33.4272052"><ele>249.2</ele><time>2015-05-01T14:12:57.0000000+00:00</time></trkpt><trkpt lat="35.0112126" lon="33.4272094"><ele>249.1</ele><time>2015-05-01T14:12:58.0000000+00:00</time></trkpt><trkpt lat="35.0111665" lon="33.427218"><ele>249.1</ele><time>2015-05-01T14:12:59.0000000+00:00</time></trkpt><trkpt lat="35.0111186" lon="33.4272329"><ele>249.0</ele><time>2015-05-01T14:13:00.0000000+00:00</time></trkpt><trkpt lat="35.011069" lon="33.4272456"><ele>248.5</ele><time>2015-05-01T14:13:01.0000000+00:00</time></trkpt><trkpt lat="35.0110186" lon="33.4272532"><ele>248.3</ele><time>2015-05-01T14:13:02.0000000+00:00</time></trkpt><trkpt lat="35.0109262" lon="33.4272786"><ele>248.1</ele><time>2015-05-01T14:13:04.0000000+00:00</time></trkpt><trkpt lat="35.010877" lon="33.4272869"><ele>248.6</ele><time>2015-05-01T14:13:05.0000000+00:00</time></trkpt><trkpt lat="35.0108304" lon="33.4273031"><ele>248.3</ele><time>2015-05-01T14:13:06.0000000+00:00</time></trkpt><trkpt lat="35.010746" lon="33.4273345"><ele>248.1</ele><time>2015-05-01T14:13:08.0000000+00:00</time></trkpt><trkpt lat="35.0107006" lon="33.4273517"><ele>248.6</ele><time>2015-05-01T14:13:09.0000000+00:00</time></trkpt><trkpt lat="35.0106157" lon="33.4273832"><ele>248.9</ele><time>2015-05-01T14:13:11.0000000+00:00</time></trkpt><trkpt lat="35.0105676" lon="33.4274019"><ele>249.5</ele><time>2015-05-01T14:13:12.0000000+00:00</time></trkpt><trkpt lat="35.0105192" lon="33.4274217"><ele>249.7</ele><time>2015-05-01T14:13:13.0000000+00:00</time></trkpt><trkpt lat="35.0104647" lon="33.427442"><ele>249.9</ele><time>2015-05-01T14:13:14.0000000+00:00</time></trkpt><trkpt lat="35.0104097" lon="33.4274638"><ele>250.5</ele><time>2015-05-01T14:13:15.0000000+00:00</time></trkpt><trkpt lat="35.010352" lon="33.4274882"><ele>250.7</ele><time>2015-05-01T14:13:16.0000000+00:00</time></trkpt><trkpt lat="35.0102951" lon="33.4275086"><ele>250.9</ele><time>2015-05-01T14:13:17.0000000+00:00</time></trkpt><trkpt lat="35.010244" lon="33.4275174"><ele>250.9</ele><time>2015-05-01T14:13:18.0000000+00:00</time></trkpt><trkpt lat="35.0101926" lon="33.4275433"><ele>250.5</ele><time>2015-05-01T14:13:19.0000000+00:00</time></trkpt><trkpt lat="35.0101362" lon="33.4275655"><ele>250.3</ele><time>2015-05-01T14:13:20.0000000+00:00</time></trkpt><trkpt lat="35.0100809" lon="33.4275834"><ele>249.6</ele><time>2015-05-01T14:13:21.0000000+00:00</time></trkpt><trkpt lat="35.0100278" lon="33.4276079"><ele>249.3</ele><time>2015-05-01T14:13:22.0000000+00:00</time></trkpt><trkpt lat="35.0099667" lon="33.427624"><ele>248.7</ele><time>2015-05-01T14:13:23.0000000+00:00</time></trkpt><trkpt lat="35.00991" lon="33.4276536"><ele>248.8</ele><time>2015-05-01T14:13:24.0000000+00:00</time></trkpt><trkpt lat="35.0098489" lon="33.4276736"><ele>248.4</ele><time>2015-05-01T14:13:25.0000000+00:00</time></trkpt><trkpt lat="35.0097836" lon="33.4277044"><ele>248.2</ele><time>2015-05-01T14:13:26.0000000+00:00</time></trkpt><trkpt lat="35.0097237" lon="33.4277266"><ele>248.1</ele><time>2015-05-01T14:13:27.0000000+00:00</time></trkpt><trkpt lat="35.0096521" lon="33.4277554"><ele>248.1</ele><time>2015-05-01T14:13:28.0000000+00:00</time></trkpt><trkpt lat="35.0095889" lon="33.4277791"><ele>248.0</ele><time>2015-05-01T14:13:29.0000000+00:00</time></trkpt><trkpt lat="35.009523" lon="33.4278094"><ele>248.0</ele><time>2015-05-01T14:13:30.0000000+00:00</time></trkpt><trkpt lat="35.0094571" lon="33.4278398"><ele>248.0</ele><time>2015-05-01T14:13:31.0000000+00:00</time></trkpt><trkpt lat="35.0093873" lon="33.4278764"><ele>248.0</ele><time>2015-05-01T14:13:32.0000000+00:00</time></trkpt><trkpt lat="35.0093187" lon="33.4279037"><ele>248.0</ele><time>2015-05-01T14:13:33.0000000+00:00</time></trkpt><trkpt lat="35.0092487" lon="33.4279354"><ele>248.5</ele><time>2015-05-01T14:13:34.0000000+00:00</time></trkpt><trkpt lat="35.0091837" lon="33.4279603"><ele>248.8</ele><time>2015-05-01T14:13:35.0000000+00:00</time></trkpt><trkpt lat="35.0091146" lon="33.4279861"><ele>248.9</ele><time>2015-05-01T14:13:36.0000000+00:00</time></trkpt><trkpt lat="35.0090482" lon="33.4280192"><ele>249.0</ele><time>2015-05-01T14:13:37.0000000+00:00</time></trkpt><trkpt lat="35.0089768" lon="33.4280487"><ele>249.0</ele><time>2015-05-01T14:13:38.0000000+00:00</time></trkpt><trkpt lat="35.0089165" lon="33.4280716"><ele>249.0</ele><time>2015-05-01T14:13:39.0000000+00:00</time></trkpt><trkpt lat="35.0088491" lon="33.4281072"><ele>249.5</ele><time>2015-05-01T14:13:40.0000000+00:00</time></trkpt><trkpt lat="35.0087827" lon="33.4281444"><ele>249.3</ele><time>2015-05-01T14:13:41.0000000+00:00</time></trkpt><trkpt lat="35.008715" lon="33.4281765"><ele>248.6</ele><time>2015-05-01T14:13:42.0000000+00:00</time></trkpt><trkpt lat="35.0086522" lon="33.4282096"><ele>248.3</ele><time>2015-05-01T14:13:43.0000000+00:00</time></trkpt><trkpt lat="35.0085865" lon="33.4282463"><ele>248.2</ele><time>2015-05-01T14:13:44.0000000+00:00</time></trkpt><trkpt lat="35.0085285" lon="33.4282748"><ele>247.6</ele><time>2015-05-01T14:13:45.0000000+00:00</time></trkpt><trkpt lat="35.0084602" lon="33.4283084"><ele>247.3</ele><time>2015-05-01T14:13:46.0000000+00:00</time></trkpt><trkpt lat="35.0083959" lon="33.4283418"><ele>247.2</ele><time>2015-05-01T14:13:47.0000000+00:00</time></trkpt><trkpt lat="35.0083298" lon="33.4283819"><ele>247.6</ele><time>2015-05-01T14:13:48.0000000+00:00</time></trkpt><trkpt lat="35.0082647" lon="33.428417"><ele>247.3</ele><time>2015-05-01T14:13:49.0000000+00:00</time></trkpt><trkpt lat="35.0082231" lon="33.4284381"><ele>247.2</ele><time>2015-05-01T14:13:50.0000000+00:00</time></trkpt><trkpt lat="35.0081751" lon="33.4284646"><ele>247.9</ele><time>2015-05-01T14:14:12.0000000+00:00</time></trkpt><trkpt lat="35.0081136" lon="33.4285027"><ele>248.4</ele><time>2015-05-01T14:14:15.0000000+00:00</time></trkpt><trkpt lat="35.0080567" lon="33.4285394"><ele>247.4</ele><time>2015-05-01T14:14:17.0000000+00:00</time></trkpt><trkpt lat="35.0079866" lon="33.4285866"><ele>246.4</ele><time>2015-05-01T14:14:19.0000000+00:00</time></trkpt><trkpt lat="35.0079342" lon="33.4286262"><ele>246.7</ele><time>2015-05-01T14:14:20.0000000+00:00</time></trkpt><trkpt lat="35.0078951" lon="33.4286555"><ele>246.9</ele><time>2015-05-01T14:14:21.0000000+00:00</time></trkpt><trkpt lat="35.0078563" lon="33.4286915"><ele>246.9</ele><time>2015-05-01T14:14:22.0000000+00:00</time></trkpt><trkpt lat="35.0077767" lon="33.4287481"><ele>247.0</ele><time>2015-05-01T14:14:24.0000000+00:00</time></trkpt><trkpt lat="35.0077329" lon="33.428779"><ele>247.0</ele><time>2015-05-01T14:14:25.0000000+00:00</time></trkpt><trkpt lat="35.0076814" lon="33.4288149"><ele>247.0</ele><time>2015-05-01T14:14:26.0000000+00:00</time></trkpt><trkpt lat="35.0076359" lon="33.4288542"><ele>247.0</ele><time>2015-05-01T14:14:27.0000000+00:00</time></trkpt><trkpt lat="35.0075835" lon="33.428895"><ele>247.0</ele><time>2015-05-01T14:14:28.0000000+00:00</time></trkpt><trkpt lat="35.0075361" lon="33.4289277"><ele>247.0</ele><time>2015-05-01T14:14:29.0000000+00:00</time></trkpt><trkpt lat="35.0074899" lon="33.428963"><ele>247.5</ele><time>2015-05-01T14:14:30.0000000+00:00</time></trkpt><trkpt lat="35.0074499" lon="33.4290008"><ele>247.8</ele><time>2015-05-01T14:14:31.0000000+00:00</time></trkpt><trkpt lat="35.0074052" lon="33.4290436"><ele>247.9</ele><time>2015-05-01T14:14:32.0000000+00:00</time></trkpt><trkpt lat="35.0073595" lon="33.4290714"><ele>248.0</ele><time>2015-05-01T14:14:33.0000000+00:00</time></trkpt><trkpt lat="35.0073156" lon="33.429108"><ele>247.5</ele><time>2015-05-01T14:14:34.0000000+00:00</time></trkpt><trkpt lat="35.0072723" lon="33.4291404"><ele>247.8</ele><time>2015-05-01T14:14:35.0000000+00:00</time></trkpt><trkpt lat="35.0072249" lon="33.4291759"><ele>247.9</ele><time>2015-05-01T14:14:36.0000000+00:00</time></trkpt><trkpt lat="35.0071809" lon="33.429213"><ele>248.0</ele><time>2015-05-01T14:14:37.0000000+00:00</time></trkpt><trkpt lat="35.0071364" lon="33.429247"><ele>248.0</ele><time>2015-05-01T14:14:38.0000000+00:00</time></trkpt><trkpt lat="35.0070864" lon="33.4292899"><ele>248.0</ele><time>2015-05-01T14:14:39.0000000+00:00</time></trkpt><trkpt lat="35.0070375" lon="33.429327"><ele>248.0</ele><time>2015-05-01T14:14:40.0000000+00:00</time></trkpt><trkpt lat="35.0069885" lon="33.4293666"><ele>248.0</ele><time>2015-05-01T14:14:41.0000000+00:00</time></trkpt><trkpt lat="35.006936" lon="33.4294122"><ele>248.0</ele><time>2015-05-01T14:14:42.0000000+00:00</time></trkpt><trkpt lat="35.0068841" lon="33.429446"><ele>247.5</ele><time>2015-05-01T14:14:43.0000000+00:00</time></trkpt><trkpt lat="35.0068278" lon="33.4294864"><ele>247.3</ele><time>2015-05-01T14:14:44.0000000+00:00</time></trkpt><trkpt lat="35.006775" lon="33.4295224"><ele>247.1</ele><time>2015-05-01T14:14:45.0000000+00:00</time></trkpt><trkpt lat="35.006727" lon="33.4295628"><ele>247.1</ele><time>2015-05-01T14:14:46.0000000+00:00</time></trkpt><trkpt lat="35.0066766" lon="33.4296061"><ele>247.6</ele><time>2015-05-01T14:14:47.0000000+00:00</time></trkpt><trkpt lat="35.0066229" lon="33.4296504"><ele>247.8</ele><time>2015-05-01T14:14:48.0000000+00:00</time></trkpt><trkpt lat="35.0065761" lon="33.4296847"><ele>247.9</ele><time>2015-05-01T14:14:49.0000000+00:00</time></trkpt><trkpt lat="35.006526" lon="33.4297237"><ele>247.5</ele><time>2015-05-01T14:14:50.0000000+00:00</time></trkpt><trkpt lat="35.0064752" lon="33.4297553"><ele>247.2</ele><time>2015-05-01T14:14:51.0000000+00:00</time></trkpt><trkpt lat="35.0064177" lon="33.4298068"><ele>247.1</ele><time>2015-05-01T14:14:52.0000000+00:00</time></trkpt><trkpt lat="35.0063672" lon="33.4298549"><ele>247.1</ele><time>2015-05-01T14:14:53.0000000+00:00</time></trkpt><trkpt lat="35.0063203" lon="33.429905"><ele>247.5</ele><time>2015-05-01T14:14:54.0000000+00:00</time></trkpt><trkpt lat="35.0062756" lon="33.4299543"><ele>247.3</ele><time>2015-05-01T14:14:55.0000000+00:00</time></trkpt><trkpt lat="35.0062266" lon="33.430014"><ele>247.7</ele><time>2015-05-01T14:14:56.0000000+00:00</time></trkpt><trkpt lat="35.0061759" lon="33.4300728"><ele>247.8</ele><time>2015-05-01T14:14:57.0000000+00:00</time></trkpt><trkpt lat="35.0061293" lon="33.4301367"><ele>247.9</ele><time>2015-05-01T14:14:58.0000000+00:00</time></trkpt><trkpt lat="35.0060842" lon="33.4301966"><ele>248.0</ele><time>2015-05-01T14:14:59.0000000+00:00</time></trkpt><trkpt lat="35.0060361" lon="33.4302561"><ele>248.0</ele><time>2015-05-01T14:15:00.0000000+00:00</time></trkpt><trkpt lat="35.0059934" lon="33.430319"><ele>248.0</ele><time>2015-05-01T14:15:01.0000000+00:00</time></trkpt><trkpt lat="35.0059498" lon="33.4303779"><ele>248.0</ele><time>2015-05-01T14:15:02.0000000+00:00</time></trkpt><trkpt lat="35.0059105" lon="33.4304275"><ele>248.0</ele><time>2015-05-01T14:15:03.0000000+00:00</time></trkpt><trkpt lat="35.0058731" lon="33.4304814"><ele>248.0</ele><time>2015-05-01T14:15:04.0000000+00:00</time></trkpt><trkpt lat="35.0058349" lon="33.4305365"><ele>248.0</ele><time>2015-05-01T14:15:05.0000000+00:00</time></trkpt><trkpt lat="35.0058005" lon="33.430587"><ele>248.0</ele><time>2015-05-01T14:15:06.0000000+00:00</time></trkpt><trkpt lat="35.0057647" lon="33.4306381"><ele>247.5</ele><time>2015-05-01T14:15:07.0000000+00:00</time></trkpt><trkpt lat="35.0057254" lon="33.4306992"><ele>247.3</ele><time>2015-05-01T14:15:08.0000000+00:00</time></trkpt><trkpt lat="35.0056874" lon="33.4307538"><ele>247.1</ele><time>2015-05-01T14:15:09.0000000+00:00</time></trkpt><trkpt lat="35.005659" lon="33.4308088"><ele>247.1</ele><time>2015-05-01T14:15:10.0000000+00:00</time></trkpt><trkpt lat="35.0056229" lon="33.4308657"><ele>247.1</ele><time>2015-05-01T14:15:11.0000000+00:00</time></trkpt><trkpt lat="35.0055909" lon="33.4309189"><ele>247.0</ele><time>2015-05-01T14:15:12.0000000+00:00</time></trkpt><trkpt lat="35.0055611" lon="33.4309714"><ele>247.0</ele><time>2015-05-01T14:15:13.0000000+00:00</time></trkpt><trkpt lat="35.0055294" lon="33.4310275"><ele>247.0</ele><time>2015-05-01T14:15:14.0000000+00:00</time></trkpt><trkpt lat="35.0054982" lon="33.4310767"><ele>247.0</ele><time>2015-05-01T14:15:15.0000000+00:00</time></trkpt><trkpt lat="35.0054605" lon="33.4311371"><ele>247.0</ele><time>2015-05-01T14:15:16.0000000+00:00</time></trkpt><trkpt lat="35.0054249" lon="33.431191"><ele>247.0</ele><time>2015-05-01T14:15:17.0000000+00:00</time></trkpt><trkpt lat="35.005403" lon="33.4312474"><ele>246.5</ele><time>2015-05-01T14:15:18.0000000+00:00</time></trkpt><trkpt lat="35.0053665" lon="33.4312997"><ele>246.3</ele><time>2015-05-01T14:15:19.0000000+00:00</time></trkpt><trkpt lat="35.0053399" lon="33.4313637"><ele>246.1</ele><time>2015-05-01T14:15:20.0000000+00:00</time></trkpt><trkpt lat="35.0053025" lon="33.4314191"><ele>246.1</ele><time>2015-05-01T14:15:21.0000000+00:00</time></trkpt><trkpt lat="35.0052747" lon="33.4314744"><ele>246.6</ele><time>2015-05-01T14:15:22.0000000+00:00</time></trkpt><trkpt lat="35.0052454" lon="33.4315284"><ele>246.8</ele><time>2015-05-01T14:15:23.0000000+00:00</time></trkpt><trkpt lat="35.0052084" lon="33.4315851"><ele>246.9</ele><time>2015-05-01T14:15:24.0000000+00:00</time></trkpt><trkpt lat="35.0051784" lon="33.4316386"><ele>247.0</ele><time>2015-05-01T14:15:25.0000000+00:00</time></trkpt><trkpt lat="35.0051475" lon="33.4316969"><ele>247.0</ele><time>2015-05-01T14:15:26.0000000+00:00</time></trkpt><trkpt lat="35.0051182" lon="33.4317588"><ele>247.5</ele><time>2015-05-01T14:15:27.0000000+00:00</time></trkpt><trkpt lat="35.0050891" lon="33.4318186"><ele>247.8</ele><time>2015-05-01T14:15:28.0000000+00:00</time></trkpt><trkpt lat="35.0050606" lon="33.43188"><ele>247.9</ele><time>2015-05-01T14:15:29.0000000+00:00</time></trkpt><trkpt lat="35.0050328" lon="33.4319338"><ele>248.5</ele><time>2015-05-01T14:15:30.0000000+00:00</time></trkpt><trkpt lat="35.0050052" lon="33.4319865"><ele>248.2</ele><time>2015-05-01T14:15:31.0000000+00:00</time></trkpt><trkpt lat="35.0049796" lon="33.432039"><ele>248.1</ele><time>2015-05-01T14:15:32.0000000+00:00</time></trkpt><trkpt lat="35.004956" lon="33.4320988"><ele>248.1</ele><time>2015-05-01T14:15:33.0000000+00:00</time></trkpt><trkpt lat="35.0049344" lon="33.4321527"><ele>248.0</ele><time>2015-05-01T14:15:34.0000000+00:00</time></trkpt><trkpt lat="35.004921" lon="33.4322126"><ele>248.0</ele><time>2015-05-01T14:15:35.0000000+00:00</time></trkpt><trkpt lat="35.0048978" lon="33.4322728"><ele>248.0</ele><time>2015-05-01T14:15:36.0000000+00:00</time></trkpt><trkpt lat="35.0048811" lon="33.4323367"><ele>247.5</ele><time>2015-05-01T14:15:37.0000000+00:00</time></trkpt><trkpt lat="35.004865" lon="33.4323912"><ele>247.3</ele><time>2015-05-01T14:15:38.0000000+00:00</time></trkpt><trkpt lat="35.0048466" lon="33.432444"><ele>247.1</ele><time>2015-05-01T14:15:39.0000000+00:00</time></trkpt><trkpt lat="35.0048299" lon="33.4325028"><ele>247.1</ele><time>2015-05-01T14:15:40.0000000+00:00</time></trkpt><trkpt lat="35.00482" lon="33.432557"><ele>247.1</ele><time>2015-05-01T14:15:41.0000000+00:00</time></trkpt><trkpt lat="35.0048072" lon="33.4326142"><ele>247.0</ele><time>2015-05-01T14:15:42.0000000+00:00</time></trkpt><trkpt lat="35.0047781" lon="33.4327103"><ele>246.8</ele><time>2015-05-01T14:15:44.0000000+00:00</time></trkpt><trkpt lat="35.0047746" lon="33.4327748"><ele>246.9</ele><time>2015-05-01T14:15:45.0000000+00:00</time></trkpt><trkpt lat="35.004766" lon="33.4328307"><ele>247.5</ele><time>2015-05-01T14:15:46.0000000+00:00</time></trkpt><trkpt lat="35.0047617" lon="33.4328899"><ele>247.2</ele><time>2015-05-01T14:15:47.0000000+00:00</time></trkpt><trkpt lat="35.0047453" lon="33.4329962"><ele>246.6</ele><time>2015-05-01T14:15:49.0000000+00:00</time></trkpt><trkpt lat="35.0047378" lon="33.4330525"><ele>246.3</ele><time>2015-05-01T14:15:50.0000000+00:00</time></trkpt><trkpt lat="35.0047282" lon="33.4331124"><ele>246.2</ele><time>2015-05-01T14:15:51.0000000+00:00</time></trkpt><trkpt lat="35.0047125" lon="33.4331704"><ele>246.1</ele><time>2015-05-01T14:15:52.0000000+00:00</time></trkpt><trkpt lat="35.0046951" lon="33.4332769"><ele>245.5</ele><time>2015-05-01T14:15:54.0000000+00:00</time></trkpt><trkpt lat="35.004666" lon="33.4333856"><ele>245.2</ele><time>2015-05-01T14:15:56.0000000+00:00</time></trkpt><trkpt lat="35.0046518" lon="33.4334431"><ele>245.1</ele><time>2015-05-01T14:15:57.0000000+00:00</time></trkpt><trkpt lat="35.0046305" lon="33.4335597"><ele>245.0</ele><time>2015-05-01T14:15:59.0000000+00:00</time></trkpt><trkpt lat="35.004624" lon="33.4336225"><ele>245.0</ele><time>2015-05-01T14:16:00.0000000+00:00</time></trkpt><trkpt lat="35.0046066" lon="33.4337351"><ele>245.0</ele><time>2015-05-01T14:16:02.0000000+00:00</time></trkpt><trkpt lat="35.0045904" lon="33.4337954"><ele>245.5</ele><time>2015-05-01T14:16:03.0000000+00:00</time></trkpt><trkpt lat="35.0045841" lon="33.4338509"><ele>245.8</ele><time>2015-05-01T14:16:04.0000000+00:00</time></trkpt><trkpt lat="35.0045669" lon="33.4339173"><ele>245.9</ele><time>2015-05-01T14:16:05.0000000+00:00</time></trkpt><trkpt lat="35.0045528" lon="33.4339856"><ele>246.0</ele><time>2015-05-01T14:16:06.0000000+00:00</time></trkpt><trkpt lat="35.0045418" lon="33.4340538"><ele>246.0</ele><time>2015-05-01T14:16:07.0000000+00:00</time></trkpt><trkpt lat="35.0045349" lon="33.4341171"><ele>246.0</ele><time>2015-05-01T14:16:08.0000000+00:00</time></trkpt><trkpt lat="35.0045207" lon="33.4341869"><ele>246.5</ele><time>2015-05-01T14:16:09.0000000+00:00</time></trkpt><trkpt lat="35.0045079" lon="33.4342521"><ele>246.3</ele><time>2015-05-01T14:16:10.0000000+00:00</time></trkpt><trkpt lat="35.0044994" lon="33.4343144"><ele>246.1</ele><time>2015-05-01T14:16:11.0000000+00:00</time></trkpt><trkpt lat="35.0044826" lon="33.4343788"><ele>246.1</ele><time>2015-05-01T14:16:12.0000000+00:00</time></trkpt><trkpt lat="35.0044771" lon="33.434485"><ele>245.5</ele><time>2015-05-01T14:16:14.0000000+00:00</time></trkpt><trkpt lat="35.0044624" lon="33.4345403"><ele>245.3</ele><time>2015-05-01T14:16:15.0000000+00:00</time></trkpt><trkpt lat="35.0044494" lon="33.4346"><ele>245.1</ele><time>2015-05-01T14:16:16.0000000+00:00</time></trkpt><trkpt lat="35.0044407" lon="33.4347054"><ele>245.6</ele><time>2015-05-01T14:16:18.0000000+00:00</time></trkpt><trkpt lat="35.0044252" lon="33.4347649"><ele>245.8</ele><time>2015-05-01T14:16:19.0000000+00:00</time></trkpt><trkpt lat="35.0044121" lon="33.43483"><ele>245.9</ele><time>2015-05-01T14:16:20.0000000+00:00</time></trkpt><trkpt lat="35.0043778" lon="33.4349394"><ele>246.0</ele><time>2015-05-01T14:16:22.0000000+00:00</time></trkpt><trkpt lat="35.0043555" lon="33.4350026"><ele>246.0</ele><time>2015-05-01T14:16:23.0000000+00:00</time></trkpt><trkpt lat="35.0043354" lon="33.435065"><ele>246.0</ele><time>2015-05-01T14:16:24.0000000+00:00</time></trkpt><trkpt lat="35.0043012" lon="33.4351753"><ele>246.0</ele><time>2015-05-01T14:16:26.0000000+00:00</time></trkpt><trkpt lat="35.0042657" lon="33.4352726"><ele>246.3</ele><time>2015-05-01T14:16:28.0000000+00:00</time></trkpt><trkpt lat="35.0042417" lon="33.4353196"><ele>246.6</ele><time>2015-05-01T14:16:29.0000000+00:00</time></trkpt><trkpt lat="35.0042206" lon="33.4353697"><ele>246.8</ele><time>2015-05-01T14:16:30.0000000+00:00</time></trkpt><trkpt lat="35.0041926" lon="33.4354145"><ele>246.4</ele><time>2015-05-01T14:16:31.0000000+00:00</time></trkpt><trkpt lat="35.0041756" lon="33.4354718"><ele>246.2</ele><time>2015-05-01T14:16:32.0000000+00:00</time></trkpt><trkpt lat="35.0041403" lon="33.4355455"><ele>245.3</ele><time>2015-05-01T14:16:34.0000000+00:00</time></trkpt><trkpt lat="35.0040935" lon="33.4356424"><ele>244.6</ele><time>2015-05-01T14:16:36.0000000+00:00</time></trkpt><trkpt lat="35.0040699" lon="33.4356917"><ele>244.3</ele><time>2015-05-01T14:16:37.0000000+00:00</time></trkpt><trkpt lat="35.0040456" lon="33.4357414"><ele>244.2</ele><time>2015-05-01T14:16:38.0000000+00:00</time></trkpt><trkpt lat="35.0040202" lon="33.4357951"><ele>244.1</ele><time>2015-05-01T14:16:39.0000000+00:00</time></trkpt><trkpt lat="35.0039931" lon="33.4358521"><ele>244.1</ele><time>2015-05-01T14:16:40.0000000+00:00</time></trkpt><trkpt lat="35.003954" lon="33.4359402"><ele>244.5</ele><time>2015-05-01T14:16:42.0000000+00:00</time></trkpt><trkpt lat="35.0039318" lon="33.4359906"><ele>244.8</ele><time>2015-05-01T14:16:43.0000000+00:00</time></trkpt><trkpt lat="35.0039017" lon="33.4360478"><ele>245.4</ele><time>2015-05-01T14:16:44.0000000+00:00</time></trkpt><trkpt lat="35.0038701" lon="33.4361134"><ele>245.7</ele><time>2015-05-01T14:16:45.0000000+00:00</time></trkpt><trkpt lat="35.0038454" lon="33.4361721"><ele>245.9</ele><time>2015-05-01T14:16:46.0000000+00:00</time></trkpt><trkpt lat="35.0038277" lon="33.4362323"><ele>245.4</ele><time>2015-05-01T14:16:47.0000000+00:00</time></trkpt><trkpt lat="35.0038016" lon="33.4362937"><ele>245.2</ele><time>2015-05-01T14:16:48.0000000+00:00</time></trkpt><trkpt lat="35.0037794" lon="33.4363503"><ele>245.1</ele><time>2015-05-01T14:16:49.0000000+00:00</time></trkpt><trkpt lat="35.0037555" lon="33.4364061"><ele>245.1</ele><time>2015-05-01T14:16:50.0000000+00:00</time></trkpt><trkpt lat="35.0037209" lon="33.4364941"><ele>245.8</ele><time>2015-05-01T14:16:52.0000000+00:00</time></trkpt><trkpt lat="35.0036919" lon="33.436585"><ele>245.7</ele><time>2015-05-01T14:16:54.0000000+00:00</time></trkpt><trkpt lat="35.0036717" lon="33.4366614"><ele>245.7</ele><time>2015-05-01T14:16:56.0000000+00:00</time></trkpt><trkpt lat="35.003654" lon="33.4367447"><ele>245.9</ele><time>2015-05-01T14:16:58.0000000+00:00</time></trkpt><trkpt lat="35.0036375" lon="33.4368134"><ele>246.0</ele><time>2015-05-01T14:17:00.0000000+00:00</time></trkpt><trkpt lat="35.0036279" lon="33.4368744"><ele>246.0</ele><time>2015-05-01T14:17:02.0000000+00:00</time></trkpt><trkpt lat="35.0036166" lon="33.4369321"><ele>245.3</ele><time>2015-05-01T14:17:04.0000000+00:00</time></trkpt><trkpt lat="35.0036069" lon="33.4369881"><ele>245.1</ele><time>2015-05-01T14:17:06.0000000+00:00</time></trkpt><trkpt lat="35.0035984" lon="33.4370721"><ele>245.0</ele><time>2015-05-01T14:17:09.0000000+00:00</time></trkpt><trkpt lat="35.0035863" lon="33.43715"><ele>244.3</ele><time>2015-05-01T14:17:11.0000000+00:00</time></trkpt><trkpt lat="35.0035701" lon="33.4372378"><ele>244.8</ele><time>2015-05-01T14:17:13.0000000+00:00</time></trkpt><trkpt lat="35.0035568" lon="33.4373235"><ele>245.0</ele><time>2015-05-01T14:17:15.0000000+00:00</time></trkpt><trkpt lat="35.0035446" lon="33.4374124"><ele>245.8</ele><time>2015-05-01T14:17:17.0000000+00:00</time></trkpt><trkpt lat="35.0035286" lon="33.4375018"><ele>246.7</ele><time>2015-05-01T14:17:19.0000000+00:00</time></trkpt><trkpt lat="35.0035155" lon="33.4375983"><ele>245.7</ele><time>2015-05-01T14:17:21.0000000+00:00</time></trkpt><trkpt lat="35.0035111" lon="33.4376738"><ele>245.4</ele><time>2015-05-01T14:17:22.0000000+00:00</time></trkpt><trkpt lat="35.0035042" lon="33.4377304"><ele>245.2</ele><time>2015-05-01T14:17:23.0000000+00:00</time></trkpt><trkpt lat="35.0035051" lon="33.4377867"><ele>245.1</ele><time>2015-05-01T14:17:24.0000000+00:00</time></trkpt><trkpt lat="35.0034914" lon="33.4378953"><ele>245.0</ele><time>2015-05-01T14:17:26.0000000+00:00</time></trkpt><trkpt lat="35.0034732" lon="33.4380049"><ele>245.5</ele><time>2015-05-01T14:17:28.0000000+00:00</time></trkpt><trkpt lat="35.0034559" lon="33.4381032"><ele>245.1</ele><time>2015-05-01T14:17:30.0000000+00:00</time></trkpt><trkpt lat="35.0034478" lon="33.4381575"><ele>245.1</ele><time>2015-05-01T14:17:31.0000000+00:00</time></trkpt><trkpt lat="35.0034413" lon="33.4382158"><ele>244.6</ele><time>2015-05-01T14:17:32.0000000+00:00</time></trkpt><trkpt lat="35.0034312" lon="33.4382694"><ele>244.3</ele><time>2015-05-01T14:17:33.0000000+00:00</time></trkpt><trkpt lat="35.0034213" lon="33.4383317"><ele>244.2</ele><time>2015-05-01T14:17:34.0000000+00:00</time></trkpt><trkpt lat="35.0034038" lon="33.4384359"><ele>244.1</ele><time>2015-05-01T14:17:36.0000000+00:00</time></trkpt><trkpt lat="35.0033754" lon="33.4385245"><ele>244.5</ele><time>2015-05-01T14:17:38.0000000+00:00</time></trkpt><trkpt lat="35.0033606" lon="33.4386005"><ele>245.4</ele><time>2015-05-01T14:17:40.0000000+00:00</time></trkpt><trkpt lat="35.0034056" lon="33.4386307"><ele>244.6</ele><time>2015-05-01T14:17:42.0000000+00:00</time></trkpt><trkpt lat="35.0034634" lon="33.4386022"><ele>243.4</ele><time>2015-05-01T14:17:44.0000000+00:00</time></trkpt><trkpt lat="35.0035153" lon="33.4385979"><ele>243.1</ele><time>2015-05-01T14:17:46.0000000+00:00</time></trkpt><trkpt lat="35.0035558" lon="33.4386253"><ele>243.0</ele><time>2015-05-01T14:17:48.0000000+00:00</time></trkpt><trkpt lat="35.0035871" lon="33.4386663"><ele>243.5</ele><time>2015-05-01T14:17:50.0000000+00:00</time></trkpt><trkpt lat="35.0036102" lon="33.4387395"><ele>244.7</ele><time>2015-05-01T14:17:53.0000000+00:00</time></trkpt><trkpt lat="35.0036386" lon="33.4388122"><ele>245.0</ele><time>2015-05-01T14:17:56.0000000+00:00</time></trkpt><trkpt lat="35.0036718" lon="33.4388503"><ele>245.0</ele><time>2015-05-01T14:17:58.0000000+00:00</time></trkpt><trkpt lat="35.003716" lon="33.438903"><ele>245.3</ele><time>2015-05-01T14:18:01.0000000+00:00</time></trkpt><trkpt lat="35.0037603" lon="33.4389539"><ele>245.1</ele><time>2015-05-01T14:18:04.0000000+00:00</time></trkpt><trkpt lat="35.0038147" lon="33.4389897"><ele>246.6</ele><time>2015-05-01T14:18:07.0000000+00:00</time></trkpt><trkpt lat="35.0038717" lon="33.4390328"><ele>247.7</ele><time>2015-05-01T14:18:10.0000000+00:00</time></trkpt><trkpt lat="35.0039158" lon="33.4390486"><ele>248.2</ele><time>2015-05-01T14:18:12.0000000+00:00</time></trkpt><trkpt lat="35.0039812" lon="33.4390602"><ele>248.5</ele><time>2015-05-01T14:18:15.0000000+00:00</time></trkpt><trkpt lat="35.004028" lon="33.4390668"><ele>248.7</ele><time>2015-05-01T14:18:17.0000000+00:00</time></trkpt><trkpt lat="35.004076" lon="33.4390714"><ele>249.7</ele><time>2015-05-01T14:18:19.0000000+00:00</time></trkpt><trkpt lat="35.0041267" lon="33.4390746"><ele>249.4</ele><time>2015-05-01T14:18:21.0000000+00:00</time></trkpt><trkpt lat="35.004177" lon="33.4390781"><ele>249.1</ele><time>2015-05-01T14:18:23.0000000+00:00</time></trkpt><trkpt lat="35.0042339" lon="33.4390805"><ele>249.0</ele><time>2015-05-01T14:18:25.0000000+00:00</time></trkpt><trkpt lat="35.0042898" lon="33.439086"><ele>249.0</ele><time>2015-05-01T14:18:27.0000000+00:00</time></trkpt><trkpt lat="35.0043441" lon="33.4390984"><ele>247.5</ele><time>2015-05-01T14:18:29.0000000+00:00</time></trkpt><trkpt lat="35.0043961" lon="33.4391105"><ele>247.9</ele><time>2015-05-01T14:18:31.0000000+00:00</time></trkpt><trkpt lat="35.0044468" lon="33.4391211"><ele>248.0</ele><time>2015-05-01T14:18:33.0000000+00:00</time></trkpt><trkpt lat="35.0044931" lon="33.4391401"><ele>247.8</ele><time>2015-05-01T14:18:35.0000000+00:00</time></trkpt><trkpt lat="35.0045372" lon="33.4391642"><ele>248.0</ele><time>2015-05-01T14:18:37.0000000+00:00</time></trkpt><trkpt lat="35.004584" lon="33.4392037"><ele>248.0</ele><time>2015-05-01T14:18:40.0000000+00:00</time></trkpt><trkpt lat="35.0045549" lon="33.4391553"><ele>252.0</ele><time>2015-05-01T14:24:16.0000000+00:00</time></trkpt><trkpt lat="35.0045193" lon="33.4391217"><ele>250.8</ele><time>2015-05-01T14:24:20.0000000+00:00</time></trkpt><trkpt lat="35.0044624" lon="33.4391035"><ele>251.0</ele><time>2015-05-01T14:24:23.0000000+00:00</time></trkpt><trkpt lat="35.0043844" lon="33.4390927"><ele>251.0</ele><time>2015-05-01T14:24:25.0000000+00:00</time></trkpt><trkpt lat="35.0043394" lon="33.4390832"><ele>251.0</ele><time>2015-05-01T14:24:26.0000000+00:00</time></trkpt><trkpt lat="35.0042505" lon="33.4390694"><ele>251.0</ele><time>2015-05-01T14:24:28.0000000+00:00</time></trkpt><trkpt lat="35.0041655" lon="33.4390627"><ele>250.5</ele><time>2015-05-01T14:24:30.0000000+00:00</time></trkpt><trkpt lat="35.0040886" lon="33.4390566"><ele>250.9</ele><time>2015-05-01T14:24:32.0000000+00:00</time></trkpt><trkpt lat="35.0040219" lon="33.4390485"><ele>250.7</ele><time>2015-05-01T14:24:34.0000000+00:00</time></trkpt><trkpt lat="35.0039553" lon="33.439038"><ele>251.0</ele><time>2015-05-01T14:24:36.0000000+00:00</time></trkpt><trkpt lat="35.0038874" lon="33.4390237"><ele>251.0</ele><time>2015-05-01T14:24:38.0000000+00:00</time></trkpt><trkpt lat="35.0038174" lon="33.4389903"><ele>251.0</ele><time>2015-05-01T14:24:40.0000000+00:00</time></trkpt><trkpt lat="35.0037688" lon="33.438948"><ele>250.5</ele><time>2015-05-01T14:24:41.0000000+00:00</time></trkpt><trkpt lat="35.0037049" lon="33.4388966"><ele>250.1</ele><time>2015-05-01T14:24:43.0000000+00:00</time></trkpt><trkpt lat="35.0036644" lon="33.4388301"><ele>249.6</ele><time>2015-05-01T14:24:45.0000000+00:00</time></trkpt><trkpt lat="35.0036279" lon="33.4387553"><ele>248.7</ele><time>2015-05-01T14:24:47.0000000+00:00</time></trkpt><trkpt lat="35.0036084" lon="33.4387017"><ele>248.3</ele><time>2015-05-01T14:24:48.0000000+00:00</time></trkpt><trkpt lat="35.003569" lon="33.4386241"><ele>248.1</ele><time>2015-05-01T14:24:50.0000000+00:00</time></trkpt><trkpt lat="35.003514" lon="33.4385709"><ele>248.0</ele><time>2015-05-01T14:24:52.0000000+00:00</time></trkpt><trkpt lat="35.0034616" lon="33.438548"><ele>248.0</ele><time>2015-05-01T14:24:54.0000000+00:00</time></trkpt><trkpt lat="35.0034231" lon="33.4385992"><ele>247.3</ele><time>2015-05-01T14:24:57.0000000+00:00</time></trkpt><trkpt lat="35.003398" lon="33.4386742"><ele>247.1</ele><time>2015-05-01T14:25:00.0000000+00:00</time></trkpt><trkpt lat="35.0033743" lon="33.4387275"><ele>247.0</ele><time>2015-05-01T14:25:02.0000000+00:00</time></trkpt><trkpt lat="35.003342" lon="33.4387898"><ele>246.3</ele><time>2015-05-01T14:25:04.0000000+00:00</time></trkpt><trkpt lat="35.003308" lon="33.4388447"><ele>246.8</ele><time>2015-05-01T14:25:06.0000000+00:00</time></trkpt><trkpt lat="35.0032667" lon="33.4388883"><ele>246.5</ele><time>2015-05-01T14:25:08.0000000+00:00</time></trkpt><trkpt lat="35.0032261" lon="33.4389392"><ele>246.4</ele><time>2015-05-01T14:25:10.0000000+00:00</time></trkpt><trkpt lat="35.0031895" lon="33.4390027"><ele>246.6</ele><time>2015-05-01T14:25:12.0000000+00:00</time></trkpt><trkpt lat="35.0031473" lon="33.439073"><ele>246.9</ele><time>2015-05-01T14:25:14.0000000+00:00</time></trkpt><trkpt lat="35.0030812" lon="33.4391945"><ele>246.5</ele><time>2015-05-01T14:25:16.0000000+00:00</time></trkpt><trkpt lat="35.0030547" lon="33.4392475"><ele>246.3</ele><time>2015-05-01T14:25:17.0000000+00:00</time></trkpt><trkpt lat="35.0030237" lon="33.4392913"><ele>246.6</ele><time>2015-05-01T14:25:18.0000000+00:00</time></trkpt><trkpt lat="35.0029934" lon="33.4393387"><ele>246.8</ele><time>2015-05-01T14:25:19.0000000+00:00</time></trkpt><trkpt lat="35.0029641" lon="33.4393876"><ele>246.4</ele><time>2015-05-01T14:25:20.0000000+00:00</time></trkpt><trkpt lat="35.002937" lon="33.4394387"><ele>246.7</ele><time>2015-05-01T14:25:21.0000000+00:00</time></trkpt><trkpt lat="35.0029044" lon="33.4394856"><ele>246.9</ele><time>2015-05-01T14:25:22.0000000+00:00</time></trkpt><trkpt lat="35.0028793" lon="33.439534"><ele>246.9</ele><time>2015-05-01T14:25:23.0000000+00:00</time></trkpt><trkpt lat="35.0028549" lon="33.4395861"><ele>247.0</ele><time>2015-05-01T14:25:24.0000000+00:00</time></trkpt><trkpt lat="35.0028305" lon="33.4396394"><ele>247.5</ele><time>2015-05-01T14:25:25.0000000+00:00</time></trkpt><trkpt lat="35.0028075" lon="33.43969"><ele>247.8</ele><time>2015-05-01T14:25:26.0000000+00:00</time></trkpt><trkpt lat="35.0027938" lon="33.4397453"><ele>247.4</ele><time>2015-05-01T14:25:27.0000000+00:00</time></trkpt><trkpt lat="35.0027564" lon="33.4398506"><ele>247.4</ele><time>2015-05-01T14:25:29.0000000+00:00</time></trkpt><trkpt lat="35.0027326" lon="33.4399002"><ele>247.7</ele><time>2015-05-01T14:25:30.0000000+00:00</time></trkpt><trkpt lat="35.0027003" lon="33.4400108"><ele>247.7</ele><time>2015-05-01T14:25:32.0000000+00:00</time></trkpt><trkpt lat="35.0026763" lon="33.4401192"><ele>248.2</ele><time>2015-05-01T14:25:34.0000000+00:00</time></trkpt><trkpt lat="35.0026595" lon="33.440174"><ele>248.1</ele><time>2015-05-01T14:25:35.0000000+00:00</time></trkpt><trkpt lat="35.0026403" lon="33.4402331"><ele>248.1</ele><time>2015-05-01T14:25:36.0000000+00:00</time></trkpt><trkpt lat="35.0026258" lon="33.4402952"><ele>248.0</ele><time>2015-05-01T14:25:37.0000000+00:00</time></trkpt><trkpt lat="35.0026124" lon="33.4403526"><ele>248.0</ele><time>2015-05-01T14:25:38.0000000+00:00</time></trkpt><trkpt lat="35.002605" lon="33.4404137"><ele>248.0</ele><time>2015-05-01T14:25:39.0000000+00:00</time></trkpt><trkpt lat="35.0025923" lon="33.4404766"><ele>248.0</ele><time>2015-05-01T14:25:40.0000000+00:00</time></trkpt><trkpt lat="35.0025841" lon="33.4405418"><ele>248.0</ele><time>2015-05-01T14:25:41.0000000+00:00</time></trkpt><trkpt lat="35.0025714" lon="33.4406045"><ele>248.0</ele><time>2015-05-01T14:25:42.0000000+00:00</time></trkpt><trkpt lat="35.0025617" lon="33.4406674"><ele>247.5</ele><time>2015-05-01T14:25:43.0000000+00:00</time></trkpt><trkpt lat="35.0025486" lon="33.4407318"><ele>247.3</ele><time>2015-05-01T14:25:44.0000000+00:00</time></trkpt><trkpt lat="35.002545" lon="33.4407997"><ele>247.1</ele><time>2015-05-01T14:25:45.0000000+00:00</time></trkpt><trkpt lat="35.0025345" lon="33.4408669"><ele>247.1</ele><time>2015-05-01T14:25:46.0000000+00:00</time></trkpt><trkpt lat="35.0025254" lon="33.4409314"><ele>247.1</ele><time>2015-05-01T14:25:47.0000000+00:00</time></trkpt><trkpt lat="35.0025239" lon="33.441004"><ele>247.0</ele><time>2015-05-01T14:25:48.0000000+00:00</time></trkpt><trkpt lat="35.0025188" lon="33.4410769"><ele>247.0</ele><time>2015-05-01T14:25:49.0000000+00:00</time></trkpt><trkpt lat="35.0025112" lon="33.4411449"><ele>247.5</ele><time>2015-05-01T14:25:50.0000000+00:00</time></trkpt><trkpt lat="35.0025048" lon="33.4412202"><ele>247.8</ele><time>2015-05-01T14:25:51.0000000+00:00</time></trkpt><trkpt lat="35.0025018" lon="33.4412914"><ele>247.9</ele><time>2015-05-01T14:25:52.0000000+00:00</time></trkpt><trkpt lat="35.0024996" lon="33.4413686"><ele>248.0</ele><time>2015-05-01T14:25:53.0000000+00:00</time></trkpt><trkpt lat="35.0024968" lon="33.441444"><ele>248.0</ele><time>2015-05-01T14:25:54.0000000+00:00</time></trkpt><trkpt lat="35.0024917" lon="33.4415177"><ele>248.0</ele><time>2015-05-01T14:25:55.0000000+00:00</time></trkpt><trkpt lat="35.0024885" lon="33.4415952"><ele>248.0</ele><time>2015-05-01T14:25:56.0000000+00:00</time></trkpt><trkpt lat="35.0024892" lon="33.4416678"><ele>248.5</ele><time>2015-05-01T14:25:57.0000000+00:00</time></trkpt><trkpt lat="35.0024771" lon="33.4417531"><ele>248.8</ele><time>2015-05-01T14:25:58.0000000+00:00</time></trkpt><trkpt lat="35.0024711" lon="33.4418282"><ele>248.9</ele><time>2015-05-01T14:25:59.0000000+00:00</time></trkpt><trkpt lat="35.0024628" lon="33.4419045"><ele>249.0</ele><time>2015-05-01T14:26:00.0000000+00:00</time></trkpt><trkpt lat="35.0024636" lon="33.4419713"><ele>249.0</ele><time>2015-05-01T14:26:01.0000000+00:00</time></trkpt><trkpt lat="35.0024584" lon="33.4420435"><ele>249.0</ele><time>2015-05-01T14:26:02.0000000+00:00</time></trkpt><trkpt lat="35.0024516" lon="33.4421189"><ele>249.0</ele><time>2015-05-01T14:26:03.0000000+00:00</time></trkpt><trkpt lat="35.0024456" lon="33.4421976"><ele>249.0</ele><time>2015-05-01T14:26:04.0000000+00:00</time></trkpt><trkpt lat="35.0024331" lon="33.4422693"><ele>249.0</ele><time>2015-05-01T14:26:05.0000000+00:00</time></trkpt><trkpt lat="35.0024313" lon="33.442337"><ele>249.0</ele><time>2015-05-01T14:26:06.0000000+00:00</time></trkpt><trkpt lat="35.0024253" lon="33.4424051"><ele>249.0</ele><time>2015-05-01T14:26:07.0000000+00:00</time></trkpt><trkpt lat="35.002421" lon="33.4424777"><ele>249.0</ele><time>2015-05-01T14:26:08.0000000+00:00</time></trkpt><trkpt lat="35.0024104" lon="33.442551"><ele>249.0</ele><time>2015-05-01T14:26:09.0000000+00:00</time></trkpt><trkpt lat="35.0023938" lon="33.4426161"><ele>249.0</ele><time>2015-05-01T14:26:10.0000000+00:00</time></trkpt><trkpt lat="35.0023794" lon="33.4426863"><ele>249.0</ele><time>2015-05-01T14:26:11.0000000+00:00</time></trkpt><trkpt lat="35.0023616" lon="33.4427673"><ele>249.5</ele><time>2015-05-01T14:26:12.0000000+00:00</time></trkpt><trkpt lat="35.0023541" lon="33.4428365"><ele>249.8</ele><time>2015-05-01T14:26:13.0000000+00:00</time></trkpt><trkpt lat="35.0023449" lon="33.4429102"><ele>249.9</ele><time>2015-05-01T14:26:14.0000000+00:00</time></trkpt><trkpt lat="35.0023303" lon="33.4429805"><ele>249.5</ele><time>2015-05-01T14:26:15.0000000+00:00</time></trkpt><trkpt lat="35.0023172" lon="33.4430528"><ele>249.2</ele><time>2015-05-01T14:26:16.0000000+00:00</time></trkpt><trkpt lat="35.0023047" lon="33.4431282"><ele>249.1</ele><time>2015-05-01T14:26:17.0000000+00:00</time></trkpt><trkpt lat="35.002282" lon="33.4432037"><ele>249.6</ele><time>2015-05-01T14:26:18.0000000+00:00</time></trkpt><trkpt lat="35.002265" lon="33.4432726"><ele>249.8</ele><time>2015-05-01T14:26:19.0000000+00:00</time></trkpt><trkpt lat="35.00224" lon="33.4433394"><ele>248.9</ele><time>2015-05-01T14:26:20.0000000+00:00</time></trkpt><trkpt lat="35.0022323" lon="33.4434052"><ele>247.5</ele><time>2015-05-01T14:26:21.0000000+00:00</time></trkpt><trkpt lat="35.0022161" lon="33.4434856"><ele>246.7</ele><time>2015-05-01T14:26:22.0000000+00:00</time></trkpt><trkpt lat="35.0022035" lon="33.4435544"><ele>246.4</ele><time>2015-05-01T14:26:23.0000000+00:00</time></trkpt><trkpt lat="35.002181" lon="33.4436301"><ele>246.2</ele><time>2015-05-01T14:26:24.0000000+00:00</time></trkpt><trkpt lat="35.002168" lon="33.4436989"><ele>246.1</ele><time>2015-05-01T14:26:25.0000000+00:00</time></trkpt><trkpt lat="35.0021514" lon="33.4437694"><ele>246.1</ele><time>2015-05-01T14:26:26.0000000+00:00</time></trkpt><trkpt lat="35.0021393" lon="33.4438409"><ele>246.0</ele><time>2015-05-01T14:26:27.0000000+00:00</time></trkpt><trkpt lat="35.0021283" lon="33.4439206"><ele>246.0</ele><time>2015-05-01T14:26:28.0000000+00:00</time></trkpt><trkpt lat="35.0021133" lon="33.4439896"><ele>246.0</ele><time>2015-05-01T14:26:29.0000000+00:00</time></trkpt><trkpt lat="35.002096" lon="33.4440643"><ele>246.0</ele><time>2015-05-01T14:26:30.0000000+00:00</time></trkpt><trkpt lat="35.002084" lon="33.4441262"><ele>246.0</ele><time>2015-05-01T14:26:31.0000000+00:00</time></trkpt><trkpt lat="35.0020706" lon="33.4441915"><ele>246.0</ele><time>2015-05-01T14:26:32.0000000+00:00</time></trkpt><trkpt lat="35.002069" lon="33.4442469"><ele>246.0</ele><time>2015-05-01T14:26:33.0000000+00:00</time></trkpt><trkpt lat="35.0020616" lon="33.4443554"><ele>246.0</ele><time>2015-05-01T14:26:35.0000000+00:00</time></trkpt><trkpt lat="35.0020397" lon="33.4444254"><ele>246.0</ele><time>2015-05-01T14:26:36.0000000+00:00</time></trkpt><trkpt lat="35.0020248" lon="33.4444951"><ele>246.0</ele><time>2015-05-01T14:26:37.0000000+00:00</time></trkpt><trkpt lat="35.0020017" lon="33.4445665"><ele>246.0</ele><time>2015-05-01T14:26:38.0000000+00:00</time></trkpt><trkpt lat="35.0019907" lon="33.4446312"><ele>246.5</ele><time>2015-05-01T14:26:39.0000000+00:00</time></trkpt><trkpt lat="35.0019682" lon="33.4447095"><ele>246.3</ele><time>2015-05-01T14:26:40.0000000+00:00</time></trkpt><trkpt lat="35.0019665" lon="33.4447674"><ele>246.1</ele><time>2015-05-01T14:26:41.0000000+00:00</time></trkpt><trkpt lat="35.0019537" lon="33.4448298"><ele>246.6</ele><time>2015-05-01T14:26:42.0000000+00:00</time></trkpt><trkpt lat="35.0019363" lon="33.4448955"><ele>247.3</ele><time>2015-05-01T14:26:43.0000000+00:00</time></trkpt><trkpt lat="35.001917" lon="33.4449679"><ele>247.7</ele><time>2015-05-01T14:26:44.0000000+00:00</time></trkpt><trkpt lat="35.001909" lon="33.4450306"><ele>247.8</ele><time>2015-05-01T14:26:45.0000000+00:00</time></trkpt><trkpt lat="35.0018944" lon="33.4450986"><ele>247.9</ele><time>2015-05-01T14:26:46.0000000+00:00</time></trkpt><trkpt lat="35.0018898" lon="33.4451596"><ele>247.0</ele><time>2015-05-01T14:26:47.0000000+00:00</time></trkpt><trkpt lat="35.0018675" lon="33.4452295"><ele>246.5</ele><time>2015-05-01T14:26:48.0000000+00:00</time></trkpt><trkpt lat="35.0018506" lon="33.4452971"><ele>246.3</ele><time>2015-05-01T14:26:49.0000000+00:00</time></trkpt><trkpt lat="35.0018254" lon="33.4453628"><ele>246.1</ele><time>2015-05-01T14:26:50.0000000+00:00</time></trkpt><trkpt lat="35.0018002" lon="33.4454213"><ele>246.1</ele><time>2015-05-01T14:26:51.0000000+00:00</time></trkpt><trkpt lat="35.0017804" lon="33.4454881"><ele>246.1</ele><time>2015-05-01T14:26:52.0000000+00:00</time></trkpt><trkpt lat="35.0017594" lon="33.4455519"><ele>246.5</ele><time>2015-05-01T14:26:53.0000000+00:00</time></trkpt><trkpt lat="35.0017367" lon="33.4456182"><ele>246.8</ele><time>2015-05-01T14:26:54.0000000+00:00</time></trkpt><trkpt lat="35.001725" lon="33.445676"><ele>246.9</ele><time>2015-05-01T14:26:55.0000000+00:00</time></trkpt><trkpt lat="35.0017042" lon="33.4457455"><ele>247.0</ele><time>2015-05-01T14:26:56.0000000+00:00</time></trkpt><trkpt lat="35.001689" lon="33.4458084"><ele>247.0</ele><time>2015-05-01T14:26:57.0000000+00:00</time></trkpt><trkpt lat="35.0016707" lon="33.4458705"><ele>247.5</ele><time>2015-05-01T14:26:58.0000000+00:00</time></trkpt><trkpt lat="35.001652" lon="33.4459327"><ele>247.8</ele><time>2015-05-01T14:26:59.0000000+00:00</time></trkpt><trkpt lat="35.001635" lon="33.445994"><ele>247.9</ele><time>2015-05-01T14:27:00.0000000+00:00</time></trkpt><trkpt lat="35.0016261" lon="33.4460498"><ele>248.0</ele><time>2015-05-01T14:27:01.0000000+00:00</time></trkpt><trkpt lat="35.0016316" lon="33.4461498"><ele>248.0</ele><time>2015-05-01T14:27:03.0000000+00:00</time></trkpt><trkpt lat="35.0016371" lon="33.4462052"><ele>247.5</ele><time>2015-05-01T14:27:04.0000000+00:00</time></trkpt><trkpt lat="35.0016191" lon="33.4462722"><ele>247.3</ele><time>2015-05-01T14:27:05.0000000+00:00</time></trkpt><trkpt lat="35.0016048" lon="33.4463432"><ele>247.1</ele><time>2015-05-01T14:27:06.0000000+00:00</time></trkpt><trkpt lat="35.0015909" lon="33.4464124"><ele>247.6</ele><time>2015-05-01T14:27:07.0000000+00:00</time></trkpt><trkpt lat="35.0015787" lon="33.4464733"><ele>247.8</ele><time>2015-05-01T14:27:08.0000000+00:00</time></trkpt><trkpt lat="35.0015773" lon="33.4465339"><ele>247.4</ele><time>2015-05-01T14:27:09.0000000+00:00</time></trkpt><trkpt lat="35.0015552" lon="33.4466467"><ele>247.6</ele><time>2015-05-01T14:27:11.0000000+00:00</time></trkpt><trkpt lat="35.0015352" lon="33.4467522"><ele>247.9</ele><time>2015-05-01T14:27:13.0000000+00:00</time></trkpt><trkpt lat="35.0015257" lon="33.4468168"><ele>248.0</ele><time>2015-05-01T14:27:14.0000000+00:00</time></trkpt><trkpt lat="35.0015171" lon="33.4468823"><ele>248.5</ele><time>2015-05-01T14:27:15.0000000+00:00</time></trkpt><trkpt lat="35.0015048" lon="33.4469961"><ele>248.4</ele><time>2015-05-01T14:27:17.0000000+00:00</time></trkpt><trkpt lat="35.0014906" lon="33.4470559"><ele>248.7</ele><time>2015-05-01T14:27:18.0000000+00:00</time></trkpt><trkpt lat="35.0014786" lon="33.44711"><ele>248.9</ele><time>2015-05-01T14:27:19.0000000+00:00</time></trkpt><trkpt lat="35.0014585" lon="33.4472141"><ele>249.5</ele><time>2015-05-01T14:27:21.0000000+00:00</time></trkpt><trkpt lat="35.0014503" lon="33.4473173"><ele>249.9</ele><time>2015-05-01T14:27:23.0000000+00:00</time></trkpt><trkpt lat="35.0014371" lon="33.4473786"><ele>250.0</ele><time>2015-05-01T14:27:24.0000000+00:00</time></trkpt><trkpt lat="35.001418" lon="33.4474739"><ele>249.3</ele><time>2015-05-01T14:27:26.0000000+00:00</time></trkpt><trkpt lat="35.0013986" lon="33.4475775"><ele>248.3</ele><time>2015-05-01T14:27:28.0000000+00:00</time></trkpt><trkpt lat="35.0013885" lon="33.447636"><ele>248.2</ele><time>2015-05-01T14:27:29.0000000+00:00</time></trkpt><trkpt lat="35.0013653" lon="33.4477519"><ele>248.1</ele><time>2015-05-01T14:27:31.0000000+00:00</time></trkpt><trkpt lat="35.0013532" lon="33.4478134"><ele>248.0</ele><time>2015-05-01T14:27:32.0000000+00:00</time></trkpt><trkpt lat="35.0013374" lon="33.4478759"><ele>248.0</ele><time>2015-05-01T14:27:33.0000000+00:00</time></trkpt><trkpt lat="35.0013217" lon="33.4479365"><ele>248.0</ele><time>2015-05-01T14:27:34.0000000+00:00</time></trkpt><trkpt lat="35.0013187" lon="33.4479934"><ele>247.5</ele><time>2015-05-01T14:27:35.0000000+00:00</time></trkpt><trkpt lat="35.0013056" lon="33.4480576"><ele>247.3</ele><time>2015-05-01T14:27:36.0000000+00:00</time></trkpt><trkpt lat="35.0012986" lon="33.448119"><ele>247.1</ele><time>2015-05-01T14:27:37.0000000+00:00</time></trkpt><trkpt lat="35.0012933" lon="33.4481759"><ele>247.6</ele><time>2015-05-01T14:27:38.0000000+00:00</time></trkpt><trkpt lat="35.0012725" lon="33.4482841"><ele>247.7</ele><time>2015-05-01T14:27:40.0000000+00:00</time></trkpt><trkpt lat="35.0012636" lon="33.448342"><ele>247.8</ele><time>2015-05-01T14:27:41.0000000+00:00</time></trkpt><trkpt lat="35.0012471" lon="33.4484462"><ele>248.7</ele><time>2015-05-01T14:27:43.0000000+00:00</time></trkpt><trkpt lat="35.001225" lon="33.4485443"><ele>248.9</ele><time>2015-05-01T14:27:45.0000000+00:00</time></trkpt><trkpt lat="35.0012078" lon="33.4486314"><ele>248.8</ele><time>2015-05-01T14:27:47.0000000+00:00</time></trkpt><trkpt lat="35.0011997" lon="33.4487138"><ele>248.5</ele><time>2015-05-01T14:27:49.0000000+00:00</time></trkpt><trkpt lat="35.0011752" lon="33.4488091"><ele>248.9</ele><time>2015-05-01T14:27:51.0000000+00:00</time></trkpt><trkpt lat="35.0011602" lon="33.4489159"><ele>248.0</ele><time>2015-05-01T14:27:53.0000000+00:00</time></trkpt><trkpt lat="35.0011452" lon="33.4489776"><ele>248.0</ele><time>2015-05-01T14:27:54.0000000+00:00</time></trkpt><trkpt lat="35.0011154" lon="33.4490866"><ele>248.0</ele><time>2015-05-01T14:27:56.0000000+00:00</time></trkpt><trkpt lat="35.0010964" lon="33.4491491"><ele>248.0</ele><time>2015-05-01T14:27:57.0000000+00:00</time></trkpt><trkpt lat="35.001075" lon="33.4492054"><ele>248.0</ele><time>2015-05-01T14:27:58.0000000+00:00</time></trkpt><trkpt lat="35.0010494" lon="33.449264"><ele>248.0</ele><time>2015-05-01T14:27:59.0000000+00:00</time></trkpt><trkpt lat="35.0010178" lon="33.4493289"><ele>248.5</ele><time>2015-05-01T14:28:00.0000000+00:00</time></trkpt><trkpt lat="35.0009814" lon="33.4494293"><ele>249.6</ele><time>2015-05-01T14:28:02.0000000+00:00</time></trkpt><trkpt lat="35.0009615" lon="33.4495159"><ele>249.2</ele><time>2015-05-01T14:28:04.0000000+00:00</time></trkpt><trkpt lat="35.0009299" lon="33.4496032"><ele>249.1</ele><time>2015-05-01T14:28:06.0000000+00:00</time></trkpt><trkpt lat="35.0009102" lon="33.4496823"><ele>247.8</ele><time>2015-05-01T14:28:08.0000000+00:00</time></trkpt><trkpt lat="35.0008953" lon="33.449755"><ele>248.5</ele><time>2015-05-01T14:28:10.0000000+00:00</time></trkpt><trkpt lat="35.0008658" lon="33.4498323"><ele>247.6</ele><time>2015-05-01T14:28:12.0000000+00:00</time></trkpt><trkpt lat="35.000839" lon="33.4499136"><ele>247.7</ele><time>2015-05-01T14:28:14.0000000+00:00</time></trkpt><trkpt lat="35.0008141" lon="33.45"><ele>247.4</ele><time>2015-05-01T14:28:16.0000000+00:00</time></trkpt><trkpt lat="35.0007868" lon="33.450084"><ele>246.6</ele><time>2015-05-01T14:28:18.0000000+00:00</time></trkpt><trkpt lat="35.0007521" lon="33.4501692"><ele>246.9</ele><time>2015-05-01T14:28:20.0000000+00:00</time></trkpt><trkpt lat="35.0007198" lon="33.4502625"><ele>245.5</ele><time>2015-05-01T14:28:22.0000000+00:00</time></trkpt><trkpt lat="35.0006823" lon="33.4503561"><ele>247.4</ele><time>2015-05-01T14:28:24.0000000+00:00</time></trkpt><trkpt lat="35.0006394" lon="33.4504462"><ele>246.6</ele><time>2015-05-01T14:28:26.0000000+00:00</time></trkpt><trkpt lat="35.0005788" lon="33.4505588"><ele>247.7</ele><time>2015-05-01T14:28:28.0000000+00:00</time></trkpt><trkpt lat="35.0005534" lon="33.4506158"><ele>247.8</ele><time>2015-05-01T14:28:29.0000000+00:00</time></trkpt><trkpt lat="35.0005332" lon="33.4506697"><ele>247.9</ele><time>2015-05-01T14:28:30.0000000+00:00</time></trkpt><trkpt lat="35.0004946" lon="33.4507689"><ele>248.5</ele><time>2015-05-01T14:28:32.0000000+00:00</time></trkpt><trkpt lat="35.000461" lon="33.4508626"><ele>248.9</ele><time>2015-05-01T14:28:34.0000000+00:00</time></trkpt><trkpt lat="35.0004295" lon="33.4509635"><ele>249.0</ele><time>2015-05-01T14:28:36.0000000+00:00</time></trkpt><trkpt lat="35.0003953" lon="33.4510664"><ele>249.0</ele><time>2015-05-01T14:28:38.0000000+00:00</time></trkpt><trkpt lat="35.0003734" lon="33.4511214"><ele>249.0</ele><time>2015-05-01T14:28:39.0000000+00:00</time></trkpt><trkpt lat="35.0003537" lon="33.4511831"><ele>249.0</ele><time>2015-05-01T14:28:40.0000000+00:00</time></trkpt><trkpt lat="35.0003365" lon="33.4512373"><ele>249.0</ele><time>2015-05-01T14:28:41.0000000+00:00</time></trkpt><trkpt lat="35.0003158" lon="33.4512918"><ele>249.0</ele><time>2015-05-01T14:28:42.0000000+00:00</time></trkpt><trkpt lat="35.0002968" lon="33.4513949"><ele>249.0</ele><time>2015-05-01T14:28:44.0000000+00:00</time></trkpt><trkpt lat="35.0002794" lon="33.4514505"><ele>249.0</ele><time>2015-05-01T14:28:45.0000000+00:00</time></trkpt><trkpt lat="35.0002641" lon="33.4515044"><ele>249.0</ele><time>2015-05-01T14:28:46.0000000+00:00</time></trkpt><trkpt lat="35.0002498" lon="33.4515568"><ele>249.5</ele><time>2015-05-01T14:28:47.0000000+00:00</time></trkpt><trkpt lat="35.0002317" lon="33.4516248"><ele>249.3</ele><time>2015-05-01T14:28:48.0000000+00:00</time></trkpt><trkpt lat="35.0002185" lon="33.4516878"><ele>249.1</ele><time>2015-05-01T14:28:49.0000000+00:00</time></trkpt><trkpt lat="35.0001974" lon="33.4517465"><ele>248.6</ele><time>2015-05-01T14:28:50.0000000+00:00</time></trkpt><trkpt lat="35.0001766" lon="33.4518008"><ele>248.8</ele><time>2015-05-01T14:28:51.0000000+00:00</time></trkpt><trkpt lat="35.0001594" lon="33.451858"><ele>248.9</ele><time>2015-05-01T14:28:52.0000000+00:00</time></trkpt><trkpt lat="35.0001436" lon="33.4519153"><ele>249.0</ele><time>2015-05-01T14:28:53.0000000+00:00</time></trkpt><trkpt lat="35.0001297" lon="33.4519739"><ele>249.5</ele><time>2015-05-01T14:28:54.0000000+00:00</time></trkpt><trkpt lat="35.0001096" lon="33.4520275"><ele>249.8</ele><time>2015-05-01T14:28:55.0000000+00:00</time></trkpt><trkpt lat="35.0000734" lon="33.4521246"><ele>250.7</ele><time>2015-05-01T14:28:57.0000000+00:00</time></trkpt><trkpt lat="35.0000433" lon="33.4522212"><ele>250.9</ele><time>2015-05-01T14:28:59.0000000+00:00</time></trkpt><trkpt lat="35.0000119" lon="33.4523174"><ele>251.3</ele><time>2015-05-01T14:29:01.0000000+00:00</time></trkpt><trkpt lat="34.9999922" lon="33.4524002"><ele>251.1</ele><time>2015-05-01T14:29:03.0000000+00:00</time></trkpt><trkpt lat="34.9999637" lon="33.4525003"><ele>251.5</ele><time>2015-05-01T14:29:05.0000000+00:00</time></trkpt><trkpt lat="34.9999489" lon="33.4525538"><ele>251.8</ele><time>2015-05-01T14:29:06.0000000+00:00</time></trkpt><trkpt lat="34.9999292" lon="33.4526039"><ele>251.4</ele><time>2015-05-01T14:29:07.0000000+00:00</time></trkpt><trkpt lat="34.9999068" lon="33.4526895"><ele>251.1</ele><time>2015-05-01T14:29:09.0000000+00:00</time></trkpt><trkpt lat="34.9998756" lon="33.4527773"><ele>251.0</ele><time>2015-05-01T14:29:11.0000000+00:00</time></trkpt><trkpt lat="34.9998604" lon="33.452829"><ele>251.0</ele><time>2015-05-01T14:29:12.0000000+00:00</time></trkpt><trkpt lat="34.9998172" lon="33.452927"><ele>251.5</ele><time>2015-05-01T14:29:14.0000000+00:00</time></trkpt><trkpt lat="34.999768" lon="33.4530215"><ele>251.4</ele><time>2015-05-01T14:29:16.0000000+00:00</time></trkpt><trkpt lat="34.9997241" lon="33.4531136"><ele>251.9</ele><time>2015-05-01T14:29:18.0000000+00:00</time></trkpt><trkpt lat="34.9996833" lon="33.4532037"><ele>251.7</ele><time>2015-05-01T14:29:20.0000000+00:00</time></trkpt><trkpt lat="34.999628" lon="33.4532884"><ele>251.4</ele><time>2015-05-01T14:29:22.0000000+00:00</time></trkpt><trkpt lat="34.9995786" lon="33.4533675"><ele>251.1</ele><time>2015-05-01T14:29:24.0000000+00:00</time></trkpt><trkpt lat="34.9995227" lon="33.4534358"><ele>251.5</ele><time>2015-05-01T14:29:26.0000000+00:00</time></trkpt><trkpt lat="34.9994689" lon="33.4535078"><ele>251.7</ele><time>2015-05-01T14:29:28.0000000+00:00</time></trkpt><trkpt lat="34.9994149" lon="33.4535764"><ele>251.9</ele><time>2015-05-01T14:29:30.0000000+00:00</time></trkpt><trkpt lat="34.9993701" lon="33.4536362"><ele>251.7</ele><time>2015-05-01T14:29:32.0000000+00:00</time></trkpt><trkpt lat="34.9993216" lon="33.4536887"><ele>251.5</ele><time>2015-05-01T14:29:34.0000000+00:00</time></trkpt><trkpt lat="34.9992749" lon="33.4537402"><ele>251.1</ele><time>2015-05-01T14:29:36.0000000+00:00</time></trkpt><trkpt lat="34.9992356" lon="33.4537894"><ele>251.0</ele><time>2015-05-01T14:29:38.0000000+00:00</time></trkpt><trkpt lat="34.9991998" lon="33.4538406"><ele>251.0</ele><time>2015-05-01T14:29:40.0000000+00:00</time></trkpt><trkpt lat="34.9991596" lon="33.4538964"><ele>251.5</ele><time>2015-05-01T14:29:42.0000000+00:00</time></trkpt><trkpt lat="34.9991039" lon="33.4539398"><ele>253.9</ele><time>2015-05-01T14:29:44.0000000+00:00</time></trkpt><trkpt lat="34.9990377" lon="33.453983"><ele>255.0</ele><time>2015-05-01T14:29:46.0000000+00:00</time></trkpt><trkpt lat="34.9989691" lon="33.4540411"><ele>255.5</ele><time>2015-05-01T14:29:48.0000000+00:00</time></trkpt><trkpt lat="34.998901" lon="33.4540993"><ele>255.9</ele><time>2015-05-01T14:29:50.0000000+00:00</time></trkpt><trkpt lat="34.9988314" lon="33.454154"><ele>256.0</ele><time>2015-05-01T14:29:52.0000000+00:00</time></trkpt><trkpt lat="34.9987794" lon="33.4541863"><ele>255.5</ele><time>2015-05-01T14:29:53.0000000+00:00</time></trkpt><trkpt lat="34.9987368" lon="33.4542148"><ele>254.8</ele><time>2015-05-01T14:29:54.0000000+00:00</time></trkpt><trkpt lat="34.9986932" lon="33.4542422"><ele>254.9</ele><time>2015-05-01T14:29:55.0000000+00:00</time></trkpt><trkpt lat="34.9986498" lon="33.4542684"><ele>255.0</ele><time>2015-05-01T14:29:56.0000000+00:00</time></trkpt><trkpt lat="34.9986036" lon="33.4542953"><ele>254.5</ele><time>2015-05-01T14:29:57.0000000+00:00</time></trkpt><trkpt lat="34.9985464" lon="33.4543284"><ele>254.3</ele><time>2015-05-01T14:29:58.0000000+00:00</time></trkpt><trkpt lat="34.9984988" lon="33.4543596"><ele>254.1</ele><time>2015-05-01T14:29:59.0000000+00:00</time></trkpt><trkpt lat="34.998448" lon="33.4543879"><ele>254.1</ele><time>2015-05-01T14:30:00.0000000+00:00</time></trkpt><trkpt lat="34.9983901" lon="33.4544136"><ele>254.1</ele><time>2015-05-01T14:30:01.0000000+00:00</time></trkpt><trkpt lat="34.9983452" lon="33.4544421"><ele>253.5</ele><time>2015-05-01T14:30:02.0000000+00:00</time></trkpt><trkpt lat="34.9983015" lon="33.4544735"><ele>253.8</ele><time>2015-05-01T14:30:03.0000000+00:00</time></trkpt><trkpt lat="34.998255" lon="33.4545013"><ele>254.4</ele><time>2015-05-01T14:30:04.0000000+00:00</time></trkpt><trkpt lat="34.9982098" lon="33.4545292"><ele>254.7</ele><time>2015-05-01T14:30:05.0000000+00:00</time></trkpt><trkpt lat="34.9981648" lon="33.4545512"><ele>254.9</ele><time>2015-05-01T14:30:06.0000000+00:00</time></trkpt><trkpt lat="34.9981177" lon="33.4545789"><ele>254.4</ele><time>2015-05-01T14:30:07.0000000+00:00</time></trkpt><trkpt lat="34.9980701" lon="33.4546033"><ele>254.7</ele><time>2015-05-01T14:30:08.0000000+00:00</time></trkpt><trkpt lat="34.9980295" lon="33.4546288"><ele>254.4</ele><time>2015-05-01T14:30:09.0000000+00:00</time></trkpt><trkpt lat="34.997992" lon="33.4546627"><ele>254.2</ele><time>2015-05-01T14:30:10.0000000+00:00</time></trkpt><trkpt lat="34.9979446" lon="33.4546918"><ele>254.6</ele><time>2015-05-01T14:30:11.0000000+00:00</time></trkpt><trkpt lat="34.9978983" lon="33.4547182"><ele>254.3</ele><time>2015-05-01T14:30:12.0000000+00:00</time></trkpt><trkpt lat="34.9978513" lon="33.4547528"><ele>254.2</ele><time>2015-05-01T14:30:13.0000000+00:00</time></trkpt><trkpt lat="34.9977976" lon="33.4547907"><ele>254.1</ele><time>2015-05-01T14:30:14.0000000+00:00</time></trkpt><trkpt lat="34.9977524" lon="33.4548203"><ele>254.1</ele><time>2015-05-01T14:30:15.0000000+00:00</time></trkpt><trkpt lat="34.9977004" lon="33.4548518"><ele>253.5</ele><time>2015-05-01T14:30:16.0000000+00:00</time></trkpt><trkpt lat="34.9976387" lon="33.4548719"><ele>252.8</ele><time>2015-05-01T14:30:17.0000000+00:00</time></trkpt><trkpt lat="34.9975878" lon="33.4549013"><ele>252.4</ele><time>2015-05-01T14:30:18.0000000+00:00</time></trkpt><trkpt lat="34.9975341" lon="33.4549305"><ele>252.2</ele><time>2015-05-01T14:30:19.0000000+00:00</time></trkpt><trkpt lat="34.9974789" lon="33.4549595"><ele>252.1</ele><time>2015-05-01T14:30:20.0000000+00:00</time></trkpt><trkpt lat="34.997425" lon="33.4549985"><ele>252.1</ele><time>2015-05-01T14:30:21.0000000+00:00</time></trkpt><trkpt lat="34.9973619" lon="33.4550157"><ele>251.0</ele><time>2015-05-01T14:30:22.0000000+00:00</time></trkpt><trkpt lat="34.9973067" lon="33.4550515"><ele>251.0</ele><time>2015-05-01T14:30:23.0000000+00:00</time></trkpt><trkpt lat="34.9972479" lon="33.455085"><ele>251.0</ele><time>2015-05-01T14:30:24.0000000+00:00</time></trkpt><trkpt lat="34.9971977" lon="33.4551096"><ele>251.5</ele><time>2015-05-01T14:30:25.0000000+00:00</time></trkpt><trkpt lat="34.9971423" lon="33.4551433"><ele>251.3</ele><time>2015-05-01T14:30:26.0000000+00:00</time></trkpt><trkpt lat="34.997094" lon="33.4551746"><ele>251.1</ele><time>2015-05-01T14:30:27.0000000+00:00</time></trkpt><trkpt lat="34.9970426" lon="33.4552023"><ele>251.6</ele><time>2015-05-01T14:30:28.0000000+00:00</time></trkpt><trkpt lat="34.9970027" lon="33.4552324"><ele>251.8</ele><time>2015-05-01T14:30:29.0000000+00:00</time></trkpt><trkpt lat="34.9969632" lon="33.4552597"><ele>251.9</ele><time>2015-05-01T14:30:30.0000000+00:00</time></trkpt><trkpt lat="34.996886" lon="33.4552945"><ele>251.0</ele><time>2015-05-01T14:30:32.0000000+00:00</time></trkpt><trkpt lat="34.9968335" lon="33.4553078"><ele>250.5</ele><time>2015-05-01T14:30:33.0000000+00:00</time></trkpt><trkpt lat="34.9967882" lon="33.4553363"><ele>250.3</ele><time>2015-05-01T14:30:34.0000000+00:00</time></trkpt><trkpt lat="34.9967064" lon="33.4553781"><ele>249.8</ele><time>2015-05-01T14:30:36.0000000+00:00</time></trkpt><trkpt lat="34.9966584" lon="33.455397"><ele>249.9</ele><time>2015-05-01T14:30:37.0000000+00:00</time></trkpt><trkpt lat="34.9966111" lon="33.4554218"><ele>250.5</ele><time>2015-05-01T14:30:38.0000000+00:00</time></trkpt><trkpt lat="34.9965666" lon="33.455446"><ele>251.2</ele><time>2015-05-01T14:30:39.0000000+00:00</time></trkpt><trkpt lat="34.9965206" lon="33.4554688"><ele>251.6</ele><time>2015-05-01T14:30:40.0000000+00:00</time></trkpt><trkpt lat="34.9964762" lon="33.4554946"><ele>252.3</ele><time>2015-05-01T14:30:41.0000000+00:00</time></trkpt><trkpt lat="34.996433" lon="33.4555174"><ele>253.2</ele><time>2015-05-01T14:30:42.0000000+00:00</time></trkpt><trkpt lat="34.9963886" lon="33.4555374"><ele>254.1</ele><time>2015-05-01T14:30:43.0000000+00:00</time></trkpt><trkpt lat="34.9963527" lon="33.4555783"><ele>254.6</ele><time>2015-05-01T14:30:44.0000000+00:00</time></trkpt><trkpt lat="34.9963118" lon="33.4556027"><ele>254.8</ele><time>2015-05-01T14:30:45.0000000+00:00</time></trkpt><trkpt lat="34.9962296" lon="33.4556408"><ele>256.2</ele><time>2015-05-01T14:30:47.0000000+00:00</time></trkpt><trkpt lat="34.9961541" lon="33.4556684"><ele>256.8</ele><time>2015-05-01T14:30:49.0000000+00:00</time></trkpt><trkpt lat="34.9961031" lon="33.455718"><ele>256.2</ele><time>2015-05-01T14:30:51.0000000+00:00</time></trkpt><trkpt lat="34.9960468" lon="33.4557579"><ele>256.6</ele><time>2015-05-01T14:30:53.0000000+00:00</time></trkpt><trkpt lat="34.99598" lon="33.4558024"><ele>257.4</ele><time>2015-05-01T14:30:55.0000000+00:00</time></trkpt><trkpt lat="34.9959184" lon="33.4558373"><ele>257.4</ele><time>2015-05-01T14:30:57.0000000+00:00</time></trkpt><trkpt lat="34.9958584" lon="33.4558699"><ele>258.6</ele><time>2015-05-01T14:30:59.0000000+00:00</time></trkpt><trkpt lat="34.9957986" lon="33.455904"><ele>258.9</ele><time>2015-05-01T14:31:01.0000000+00:00</time></trkpt><trkpt lat="34.995737" lon="33.4559343"><ele>259.0</ele><time>2015-05-01T14:31:03.0000000+00:00</time></trkpt><trkpt lat="34.9956707" lon="33.4559692"><ele>259.0</ele><time>2015-05-01T14:31:05.0000000+00:00</time></trkpt><trkpt lat="34.9956036" lon="33.4560074"><ele>258.5</ele><time>2015-05-01T14:31:07.0000000+00:00</time></trkpt><trkpt lat="34.9955284" lon="33.4560471"><ele>258.6</ele><time>2015-05-01T14:31:09.0000000+00:00</time></trkpt><trkpt lat="34.9954664" lon="33.4560798"><ele>258.8</ele><time>2015-05-01T14:31:10.0000000+00:00</time></trkpt><trkpt lat="34.9953815" lon="33.4561263"><ele>259.5</ele><time>2015-05-01T14:31:12.0000000+00:00</time></trkpt><trkpt lat="34.9953064" lon="33.4561592"><ele>259.4</ele><time>2015-05-01T14:31:14.0000000+00:00</time></trkpt><trkpt lat="34.9952267" lon="33.4562114"><ele>259.9</ele><time>2015-05-01T14:31:16.0000000+00:00</time></trkpt><trkpt lat="34.9951881" lon="33.4562434"><ele>259.9</ele><time>2015-05-01T14:31:17.0000000+00:00</time></trkpt><trkpt lat="34.9951131" lon="33.4562881"><ele>260.0</ele><time>2015-05-01T14:31:19.0000000+00:00</time></trkpt><trkpt lat="34.995038" lon="33.4563438"><ele>260.5</ele><time>2015-05-01T14:31:21.0000000+00:00</time></trkpt><trkpt lat="34.9949718" lon="33.4564018"><ele>260.1</ele><time>2015-05-01T14:31:23.0000000+00:00</time></trkpt><trkpt lat="34.9949085" lon="33.4564622"><ele>259.6</ele><time>2015-05-01T14:31:25.0000000+00:00</time></trkpt><trkpt lat="34.9948413" lon="33.4565249"><ele>259.2</ele><time>2015-05-01T14:31:27.0000000+00:00</time></trkpt><trkpt lat="34.9948035" lon="33.4565657"><ele>259.1</ele><time>2015-05-01T14:31:28.0000000+00:00</time></trkpt><trkpt lat="34.9947695" lon="33.4566028"><ele>259.1</ele><time>2015-05-01T14:31:29.0000000+00:00</time></trkpt><trkpt lat="34.9947277" lon="33.456642"><ele>258.5</ele><time>2015-05-01T14:31:30.0000000+00:00</time></trkpt><trkpt lat="34.9946897" lon="33.4566757"><ele>258.3</ele><time>2015-05-01T14:31:31.0000000+00:00</time></trkpt><trkpt lat="34.9946456" lon="33.4567238"><ele>258.2</ele><time>2015-05-01T14:31:32.0000000+00:00</time></trkpt><trkpt lat="34.9946064" lon="33.4567662"><ele>258.1</ele><time>2015-05-01T14:31:33.0000000+00:00</time></trkpt><trkpt lat="34.9945623" lon="33.4568098"><ele>258.1</ele><time>2015-05-01T14:31:34.0000000+00:00</time></trkpt><trkpt lat="34.9945203" lon="33.4568413"><ele>258.0</ele><time>2015-05-01T14:31:35.0000000+00:00</time></trkpt><trkpt lat="34.9944812" lon="33.456886"><ele>258.5</ele><time>2015-05-01T14:31:36.0000000+00:00</time></trkpt><trkpt lat="34.9944344" lon="33.4569416"><ele>258.8</ele><time>2015-05-01T14:31:37.0000000+00:00</time></trkpt><trkpt lat="34.9943782" lon="33.4570064"><ele>258.4</ele><time>2015-05-01T14:31:38.0000000+00:00</time></trkpt><trkpt lat="34.9943225" lon="33.4570718"><ele>257.7</ele><time>2015-05-01T14:31:39.0000000+00:00</time></trkpt><trkpt lat="34.994277" lon="33.4571396"><ele>257.4</ele><time>2015-05-01T14:31:40.0000000+00:00</time></trkpt><trkpt lat="34.9942289" lon="33.4572114"><ele>257.2</ele><time>2015-05-01T14:31:41.0000000+00:00</time></trkpt><trkpt lat="34.9941906" lon="33.4572761"><ele>257.1</ele><time>2015-05-01T14:31:42.0000000+00:00</time></trkpt><trkpt lat="34.9941424" lon="33.4573645"><ele>257.1</ele><time>2015-05-01T14:31:43.0000000+00:00</time></trkpt><trkpt lat="34.9940921" lon="33.4574436"><ele>257.0</ele><time>2015-05-01T14:31:44.0000000+00:00</time></trkpt><trkpt lat="34.9940946" lon="33.4575136"><ele>257.5</ele><time>2015-05-01T14:31:45.0000000+00:00</time></trkpt><trkpt lat="34.9940516" lon="33.4576024"><ele>257.8</ele><time>2015-05-01T14:31:46.0000000+00:00</time></trkpt><trkpt lat="34.994012" lon="33.4576838"><ele>257.4</ele><time>2015-05-01T14:31:47.0000000+00:00</time></trkpt><trkpt lat="34.9939581" lon="33.4577708"><ele>256.7</ele><time>2015-05-01T14:31:48.0000000+00:00</time></trkpt><trkpt lat="34.9939167" lon="33.4578535"><ele>255.9</ele><time>2015-05-01T14:31:49.0000000+00:00</time></trkpt><trkpt lat="34.9938742" lon="33.4579314"><ele>254.9</ele><time>2015-05-01T14:31:50.0000000+00:00</time></trkpt><trkpt lat="34.9938373" lon="33.4580097"><ele>254.5</ele><time>2015-05-01T14:31:51.0000000+00:00</time></trkpt><trkpt lat="34.9937974" lon="33.4580872"><ele>254.3</ele><time>2015-05-01T14:31:52.0000000+00:00</time></trkpt><trkpt lat="34.9937719" lon="33.4581648"><ele>253.6</ele><time>2015-05-01T14:31:53.0000000+00:00</time></trkpt><trkpt lat="34.9937415" lon="33.4582439"><ele>253.3</ele><time>2015-05-01T14:31:54.0000000+00:00</time></trkpt><trkpt lat="34.9937099" lon="33.458329"><ele>252.7</ele><time>2015-05-01T14:31:55.0000000+00:00</time></trkpt><trkpt lat="34.9936748" lon="33.4584183"><ele>251.8</ele><time>2015-05-01T14:31:56.0000000+00:00</time></trkpt><trkpt lat="34.9936488" lon="33.4585034"><ele>250.9</ele><time>2015-05-01T14:31:57.0000000+00:00</time></trkpt><trkpt lat="34.9936239" lon="33.4585904"><ele>250.5</ele><time>2015-05-01T14:31:58.0000000+00:00</time></trkpt><trkpt lat="34.9936123" lon="33.4586695"><ele>250.2</ele><time>2015-05-01T14:31:59.0000000+00:00</time></trkpt><trkpt lat="34.9935924" lon="33.4587503"><ele>250.6</ele><time>2015-05-01T14:32:00.0000000+00:00</time></trkpt><trkpt lat="34.993582" lon="33.4588252"><ele>250.8</ele><time>2015-05-01T14:32:01.0000000+00:00</time></trkpt><trkpt lat="34.9935838" lon="33.4588956"><ele>250.4</ele><time>2015-05-01T14:32:02.0000000+00:00</time></trkpt><trkpt lat="34.9935974" lon="33.4589575"><ele>250.2</ele><time>2015-05-01T14:32:03.0000000+00:00</time></trkpt><trkpt lat="34.9936163" lon="33.4590258"><ele>250.1</ele><time>2015-05-01T14:32:04.0000000+00:00</time></trkpt><trkpt lat="34.9936384" lon="33.4590864"><ele>249.6</ele><time>2015-05-01T14:32:05.0000000+00:00</time></trkpt><trkpt lat="34.9936525" lon="33.4591437"><ele>249.3</ele><time>2015-05-01T14:32:06.0000000+00:00</time></trkpt><trkpt lat="34.9936516" lon="33.4592048"><ele>249.7</ele><time>2015-05-01T14:32:07.0000000+00:00</time></trkpt><trkpt lat="34.9936461" lon="33.4592618"><ele>249.8</ele><time>2015-05-01T14:32:08.0000000+00:00</time></trkpt><trkpt lat="34.9936276" lon="33.4593133"><ele>249.9</ele><time>2015-05-01T14:32:09.0000000+00:00</time></trkpt><trkpt lat="34.9936073" lon="33.459365"><ele>250.0</ele><time>2015-05-01T14:32:10.0000000+00:00</time></trkpt><trkpt lat="34.9935738" lon="33.4594109"><ele>249.5</ele><time>2015-05-01T14:32:11.0000000+00:00</time></trkpt><trkpt lat="34.9935151" lon="33.4594918"><ele>248.6</ele><time>2015-05-01T14:32:13.0000000+00:00</time></trkpt><trkpt lat="34.993486" lon="33.4595392"><ele>248.3</ele><time>2015-05-01T14:32:14.0000000+00:00</time></trkpt><trkpt lat="34.9934663" lon="33.4595897"><ele>248.2</ele><time>2015-05-01T14:32:15.0000000+00:00</time></trkpt><trkpt lat="34.9934491" lon="33.4596926"><ele>248.1</ele><time>2015-05-01T14:32:17.0000000+00:00</time></trkpt><trkpt lat="34.9934406" lon="33.4598"><ele>248.0</ele><time>2015-05-01T14:32:19.0000000+00:00</time></trkpt><trkpt lat="34.9934471" lon="33.45986"><ele>248.0</ele><time>2015-05-01T14:32:20.0000000+00:00</time></trkpt><trkpt lat="34.9934372" lon="33.4599644"><ele>248.5</ele><time>2015-05-01T14:32:22.0000000+00:00</time></trkpt><trkpt lat="34.9934383" lon="33.4600732"><ele>248.6</ele><time>2015-05-01T14:32:24.0000000+00:00</time></trkpt><trkpt lat="34.9934344" lon="33.4601345"><ele>248.8</ele><time>2015-05-01T14:32:25.0000000+00:00</time></trkpt><trkpt lat="34.9934448" lon="33.4602276"><ele>248.5</ele><time>2015-05-01T14:32:27.0000000+00:00</time></trkpt><trkpt lat="34.9934444" lon="33.4602828"><ele>248.2</ele><time>2015-05-01T14:32:28.0000000+00:00</time></trkpt><trkpt lat="34.9934426" lon="33.4603697"><ele>248.8</ele><time>2015-05-01T14:32:30.0000000+00:00</time></trkpt><trkpt lat="34.9934334" lon="33.460462"><ele>249.5</ele><time>2015-05-01T14:32:32.0000000+00:00</time></trkpt><trkpt lat="34.9934442" lon="33.4605369"><ele>249.9</ele><time>2015-05-01T14:32:34.0000000+00:00</time></trkpt><trkpt lat="34.9934591" lon="33.460593"><ele>250.5</ele><time>2015-05-01T14:32:36.0000000+00:00</time></trkpt><trkpt lat="34.9934716" lon="33.4606554"><ele>250.9</ele><time>2015-05-01T14:32:38.0000000+00:00</time></trkpt><trkpt lat="34.9934808" lon="33.4607163"><ele>251.5</ele><time>2015-05-01T14:32:40.0000000+00:00</time></trkpt><trkpt lat="34.9934809" lon="33.4607796"><ele>252.6</ele><time>2015-05-01T14:32:42.0000000+00:00</time></trkpt><trkpt lat="34.993486" lon="33.4608373"><ele>253.4</ele><time>2015-05-01T14:32:44.0000000+00:00</time></trkpt><trkpt lat="34.9934937" lon="33.4608918"><ele>254.6</ele><time>2015-05-01T14:32:46.0000000+00:00</time></trkpt><trkpt lat="34.9935033" lon="33.4609476"><ele>255.7</ele><time>2015-05-01T14:32:48.0000000+00:00</time></trkpt><trkpt lat="34.9935172" lon="33.4610038"><ele>255.4</ele><time>2015-05-01T14:32:50.0000000+00:00</time></trkpt><trkpt lat="34.9935329" lon="33.46106"><ele>255.9</ele><time>2015-05-01T14:32:52.0000000+00:00</time></trkpt><trkpt lat="34.9935535" lon="33.4611302"><ele>255.3</ele><time>2015-05-01T14:32:55.0000000+00:00</time></trkpt><trkpt lat="34.9935657" lon="33.4612025"><ele>254.2</ele><time>2015-05-01T14:32:58.0000000+00:00</time></trkpt><trkpt lat="34.9935824" lon="33.4612816"><ele>254.0</ele><time>2015-05-01T14:33:01.0000000+00:00</time></trkpt><trkpt lat="34.9936009" lon="33.4613365"><ele>254.0</ele><time>2015-05-01T14:33:03.0000000+00:00</time></trkpt><trkpt lat="34.9936223" lon="33.4613926"><ele>253.3</ele><time>2015-05-01T14:33:05.0000000+00:00</time></trkpt><trkpt lat="34.9936445" lon="33.4614468"><ele>253.1</ele><time>2015-05-01T14:33:07.0000000+00:00</time></trkpt><trkpt lat="34.9936677" lon="33.4615008"><ele>253.0</ele><time>2015-05-01T14:33:09.0000000+00:00</time></trkpt><trkpt lat="34.9936865" lon="33.4615528"><ele>253.5</ele><time>2015-05-01T14:33:11.0000000+00:00</time></trkpt><trkpt lat="34.993701" lon="33.4616082"><ele>253.9</ele><time>2015-05-01T14:33:13.0000000+00:00</time></trkpt><trkpt lat="34.99371" lon="33.4616633"><ele>255.2</ele><time>2015-05-01T14:33:15.0000000+00:00</time></trkpt><trkpt lat="34.9937226" lon="33.461719"><ele>254.6</ele><time>2015-05-01T14:33:17.0000000+00:00</time></trkpt><trkpt lat="34.9937374" lon="33.4617975"><ele>254.8</ele><time>2015-05-01T14:33:20.0000000+00:00</time></trkpt><trkpt lat="34.9937518" lon="33.4618684"><ele>255.1</ele><time>2015-05-01T14:33:23.0000000+00:00</time></trkpt><trkpt lat="34.9937635" lon="33.4619422"><ele>256.7</ele><time>2015-05-01T14:33:26.0000000+00:00</time></trkpt><trkpt lat="34.9937829" lon="33.4620168"><ele>257.7</ele><time>2015-05-01T14:33:29.0000000+00:00</time></trkpt><trkpt lat="34.9937977" lon="33.4620955"><ele>258.5</ele><time>2015-05-01T14:33:32.0000000+00:00</time></trkpt><trkpt lat="34.9938073" lon="33.4621721"><ele>259.0</ele><time>2015-05-01T14:33:35.0000000+00:00</time></trkpt><trkpt lat="34.993815" lon="33.4622264"><ele>259.0</ele><time>2015-05-01T14:33:37.0000000+00:00</time></trkpt><trkpt lat="34.9938354" lon="33.4623022"><ele>259.9</ele><time>2015-05-01T14:33:40.0000000+00:00</time></trkpt><trkpt lat="34.9938525" lon="33.4623794"><ele>260.9</ele><time>2015-05-01T14:33:43.0000000+00:00</time></trkpt><trkpt lat="34.9938616" lon="33.4624339"><ele>261.0</ele><time>2015-05-01T14:33:45.0000000+00:00</time></trkpt><trkpt lat="34.9938817" lon="33.4625144"><ele>261.4</ele><time>2015-05-01T14:33:48.0000000+00:00</time></trkpt><trkpt lat="34.9938944" lon="33.462569"><ele>261.1</ele><time>2015-05-01T14:33:50.0000000+00:00</time></trkpt><trkpt lat="34.9939025" lon="33.4626259"><ele>261.0</ele><time>2015-05-01T14:33:52.0000000+00:00</time></trkpt><trkpt lat="34.9939124" lon="33.4626849"><ele>261.0</ele><time>2015-05-01T14:33:54.0000000+00:00</time></trkpt><trkpt lat="34.9939252" lon="33.4627431"><ele>261.8</ele><time>2015-05-01T14:33:56.0000000+00:00</time></trkpt><trkpt lat="34.9939396" lon="33.4627974"><ele>263.2</ele><time>2015-05-01T14:33:58.0000000+00:00</time></trkpt><trkpt lat="34.9939528" lon="33.4628513"><ele>263.8</ele><time>2015-05-01T14:34:00.0000000+00:00</time></trkpt><trkpt lat="34.9939625" lon="33.4629086"><ele>264.0</ele><time>2015-05-01T14:34:02.0000000+00:00</time></trkpt><trkpt lat="34.993975" lon="33.4629679"><ele>264.0</ele><time>2015-05-01T14:34:04.0000000+00:00</time></trkpt><trkpt lat="34.9939901" lon="33.4630296"><ele>264.0</ele><time>2015-05-01T14:34:06.0000000+00:00</time></trkpt><trkpt lat="34.994007" lon="33.4630895"><ele>264.8</ele><time>2015-05-01T14:34:08.0000000+00:00</time></trkpt><trkpt lat="34.9940201" lon="33.4631536"><ele>264.2</ele><time>2015-05-01T14:34:10.0000000+00:00</time></trkpt><trkpt lat="34.9940327" lon="33.4632187"><ele>264.3</ele><time>2015-05-01T14:34:12.0000000+00:00</time></trkpt><trkpt lat="34.9940504" lon="33.4632834"><ele>264.1</ele><time>2015-05-01T14:34:14.0000000+00:00</time></trkpt><trkpt lat="34.9940672" lon="33.4633477"><ele>264.0</ele><time>2015-05-01T14:34:16.0000000+00:00</time></trkpt><trkpt lat="34.9940861" lon="33.4634142"><ele>263.3</ele><time>2015-05-01T14:34:18.0000000+00:00</time></trkpt><trkpt lat="34.9941023" lon="33.463478"><ele>262.6</ele><time>2015-05-01T14:34:20.0000000+00:00</time></trkpt><trkpt lat="34.9941166" lon="33.4635422"><ele>262.9</ele><time>2015-05-01T14:34:22.0000000+00:00</time></trkpt><trkpt lat="34.994131" lon="33.4636082"><ele>263.0</ele><time>2015-05-01T14:34:24.0000000+00:00</time></trkpt><trkpt lat="34.9941452" lon="33.4636747"><ele>263.0</ele><time>2015-05-01T14:34:26.0000000+00:00</time></trkpt><trkpt lat="34.9941678" lon="33.4637371"><ele>263.3</ele><time>2015-05-01T14:34:28.0000000+00:00</time></trkpt><trkpt lat="34.9942002" lon="33.4637913"><ele>263.6</ele><time>2015-05-01T14:34:30.0000000+00:00</time></trkpt><trkpt lat="34.994222" lon="33.4638492"><ele>263.9</ele><time>2015-05-01T14:34:32.0000000+00:00</time></trkpt><trkpt lat="34.9942291" lon="33.4639085"><ele>264.5</ele><time>2015-05-01T14:34:34.0000000+00:00</time></trkpt><trkpt lat="34.9942426" lon="33.4639688"><ele>264.9</ele><time>2015-05-01T14:34:36.0000000+00:00</time></trkpt><trkpt lat="34.9942627" lon="33.4640316"><ele>264.7</ele><time>2015-05-01T14:34:38.0000000+00:00</time></trkpt><trkpt lat="34.9942793" lon="33.4640998"><ele>265.5</ele><time>2015-05-01T14:34:40.0000000+00:00</time></trkpt><trkpt lat="34.9942924" lon="33.4641691"><ele>266.4</ele><time>2015-05-01T14:34:42.0000000+00:00</time></trkpt><trkpt lat="34.994312" lon="33.46424"><ele>266.6</ele><time>2015-05-01T14:34:44.0000000+00:00</time></trkpt><trkpt lat="34.9943302" lon="33.4643126"><ele>267.4</ele><time>2015-05-01T14:34:46.0000000+00:00</time></trkpt><trkpt lat="34.9943414" lon="33.4643846"><ele>268.4</ele><time>2015-05-01T14:34:48.0000000+00:00</time></trkpt><trkpt lat="34.9943519" lon="33.4644499"><ele>268.1</ele><time>2015-05-01T14:34:50.0000000+00:00</time></trkpt><trkpt lat="34.9943691" lon="33.4645084"><ele>267.3</ele><time>2015-05-01T14:34:52.0000000+00:00</time></trkpt><trkpt lat="34.9943838" lon="33.464562"><ele>267.1</ele><time>2015-05-01T14:34:54.0000000+00:00</time></trkpt><trkpt lat="34.9943966" lon="33.4646216"><ele>267.0</ele><time>2015-05-01T14:34:56.0000000+00:00</time></trkpt><trkpt lat="34.9944109" lon="33.4646926"><ele>267.8</ele><time>2015-05-01T14:34:58.0000000+00:00</time></trkpt><trkpt lat="34.9944378" lon="33.4647863"><ele>266.7</ele><time>2015-05-01T14:35:00.0000000+00:00</time></trkpt><trkpt lat="34.994468" lon="33.4648841"><ele>266.2</ele><time>2015-05-01T14:35:02.0000000+00:00</time></trkpt><trkpt lat="34.9944959" lon="33.4649732"><ele>265.8</ele><time>2015-05-01T14:35:04.0000000+00:00</time></trkpt><trkpt lat="34.9945194" lon="33.4650379"><ele>266.0</ele><time>2015-05-01T14:35:06.0000000+00:00</time></trkpt><trkpt lat="34.9945274" lon="33.4651179"><ele>266.9</ele><time>2015-05-01T14:35:09.0000000+00:00</time></trkpt><trkpt lat="34.9945251" lon="33.4651745"><ele>267.0</ele><time>2015-05-01T14:35:11.0000000+00:00</time></trkpt><trkpt lat="34.9945392" lon="33.465245"><ele>266.5</ele><time>2015-05-01T14:35:13.0000000+00:00</time></trkpt><trkpt lat="34.9945618" lon="33.4653347"><ele>266.9</ele><time>2015-05-01T14:35:15.0000000+00:00</time></trkpt><trkpt lat="34.9945857" lon="33.4654325"><ele>266.2</ele><time>2015-05-01T14:35:17.0000000+00:00</time></trkpt><trkpt lat="34.9946059" lon="33.4655323"><ele>266.6</ele><time>2015-05-01T14:35:19.0000000+00:00</time></trkpt><trkpt lat="34.9946259" lon="33.4656378"><ele>266.9</ele><time>2015-05-01T14:35:21.0000000+00:00</time></trkpt><trkpt lat="34.9946444" lon="33.4657615"><ele>267.0</ele><time>2015-05-01T14:35:23.0000000+00:00</time></trkpt><trkpt lat="34.9946615" lon="33.4658192"><ele>267.0</ele><time>2015-05-01T14:35:24.0000000+00:00</time></trkpt><trkpt lat="34.9946744" lon="33.4658766"><ele>267.0</ele><time>2015-05-01T14:35:25.0000000+00:00</time></trkpt><trkpt lat="34.9946894" lon="33.4659358"><ele>267.0</ele><time>2015-05-01T14:35:26.0000000+00:00</time></trkpt><trkpt lat="34.9947005" lon="33.4659985"><ele>267.0</ele><time>2015-05-01T14:35:27.0000000+00:00</time></trkpt><trkpt lat="34.9947161" lon="33.4661055"><ele>267.0</ele><time>2015-05-01T14:35:29.0000000+00:00</time></trkpt><trkpt lat="34.9947354" lon="33.4661991"><ele>267.5</ele><time>2015-05-01T14:35:31.0000000+00:00</time></trkpt><trkpt lat="34.9947498" lon="33.4662952"><ele>268.4</ele><time>2015-05-01T14:35:33.0000000+00:00</time></trkpt><trkpt lat="34.9947752" lon="33.4663989"><ele>268.1</ele><time>2015-05-01T14:35:35.0000000+00:00</time></trkpt><trkpt lat="34.9947893" lon="33.4664956"><ele>268.0</ele><time>2015-05-01T14:35:37.0000000+00:00</time></trkpt><trkpt lat="34.9948076" lon="33.4665989"><ele>268.0</ele><time>2015-05-01T14:35:39.0000000+00:00</time></trkpt><trkpt lat="34.9948188" lon="33.4666528"><ele>268.0</ele><time>2015-05-01T14:35:40.0000000+00:00</time></trkpt><trkpt lat="34.9948292" lon="33.4667122"><ele>268.5</ele><time>2015-05-01T14:35:41.0000000+00:00</time></trkpt><trkpt lat="34.9948394" lon="33.4667728"><ele>268.8</ele><time>2015-05-01T14:35:42.0000000+00:00</time></trkpt><trkpt lat="34.9948511" lon="33.4668299"><ele>268.9</ele><time>2015-05-01T14:35:43.0000000+00:00</time></trkpt><trkpt lat="34.9948618" lon="33.466892"><ele>269.0</ele><time>2015-05-01T14:35:44.0000000+00:00</time></trkpt><trkpt lat="34.9948771" lon="33.4670009"><ele>267.8</ele><time>2015-05-01T14:35:46.0000000+00:00</time></trkpt><trkpt lat="34.994892" lon="33.4671129"><ele>267.2</ele><time>2015-05-01T14:35:48.0000000+00:00</time></trkpt><trkpt lat="34.9948994" lon="33.4671701"><ele>267.1</ele><time>2015-05-01T14:35:49.0000000+00:00</time></trkpt><trkpt lat="34.9949098" lon="33.4672322"><ele>267.6</ele><time>2015-05-01T14:35:50.0000000+00:00</time></trkpt><trkpt lat="34.9949237" lon="33.4672865"><ele>267.3</ele><time>2015-05-01T14:35:51.0000000+00:00</time></trkpt><trkpt lat="34.9949308" lon="33.4673548"><ele>266.7</ele><time>2015-05-01T14:35:52.0000000+00:00</time></trkpt><trkpt lat="34.9949345" lon="33.467425"><ele>266.3</ele><time>2015-05-01T14:35:53.0000000+00:00</time></trkpt><trkpt lat="34.9949387" lon="33.4674927"><ele>266.2</ele><time>2015-05-01T14:35:54.0000000+00:00</time></trkpt><trkpt lat="34.9949483" lon="33.4675518"><ele>266.1</ele><time>2015-05-01T14:35:55.0000000+00:00</time></trkpt><trkpt lat="34.9949526" lon="33.4676181"><ele>266.6</ele><time>2015-05-01T14:35:56.0000000+00:00</time></trkpt><trkpt lat="34.9949544" lon="33.4676796"><ele>266.3</ele><time>2015-05-01T14:35:57.0000000+00:00</time></trkpt><trkpt lat="34.9949604" lon="33.4677369"><ele>266.7</ele><time>2015-05-01T14:35:58.0000000+00:00</time></trkpt><trkpt lat="34.9949574" lon="33.4678035"><ele>266.3</ele><time>2015-05-01T14:35:59.0000000+00:00</time></trkpt><trkpt lat="34.9949588" lon="33.4678774"><ele>266.2</ele><time>2015-05-01T14:36:00.0000000+00:00</time></trkpt><trkpt lat="34.994957" lon="33.4679421"><ele>266.1</ele><time>2015-05-01T14:36:01.0000000+00:00</time></trkpt><trkpt lat="34.9949486" lon="33.4680081"><ele>266.1</ele><time>2015-05-01T14:36:02.0000000+00:00</time></trkpt><trkpt lat="34.9949438" lon="33.4680661"><ele>266.0</ele><time>2015-05-01T14:36:03.0000000+00:00</time></trkpt><trkpt lat="34.9949432" lon="33.4681347"><ele>266.0</ele><time>2015-05-01T14:36:04.0000000+00:00</time></trkpt><trkpt lat="34.9949387" lon="33.4681966"><ele>266.5</ele><time>2015-05-01T14:36:05.0000000+00:00</time></trkpt><trkpt lat="34.9949358" lon="33.4682517"><ele>266.3</ele><time>2015-05-01T14:36:06.0000000+00:00</time></trkpt><trkpt lat="34.994933" lon="33.4683128"><ele>266.6</ele><time>2015-05-01T14:36:07.0000000+00:00</time></trkpt><trkpt lat="34.9949295" lon="33.4683804"><ele>266.8</ele><time>2015-05-01T14:36:08.0000000+00:00</time></trkpt><trkpt lat="34.9949232" lon="33.4684456"><ele>266.9</ele><time>2015-05-01T14:36:09.0000000+00:00</time></trkpt><trkpt lat="34.994913" lon="33.4685593"><ele>266.5</ele><time>2015-05-01T14:36:11.0000000+00:00</time></trkpt><trkpt lat="34.9949129" lon="33.468618"><ele>266.3</ele><time>2015-05-01T14:36:12.0000000+00:00</time></trkpt><trkpt lat="34.9949055" lon="33.4686732"><ele>266.1</ele><time>2015-05-01T14:36:13.0000000+00:00</time></trkpt><trkpt lat="34.9948975" lon="33.4687341"><ele>266.1</ele><time>2015-05-01T14:36:14.0000000+00:00</time></trkpt><trkpt lat="34.9948786" lon="33.4688431"><ele>265.3</ele><time>2015-05-01T14:36:16.0000000+00:00</time></trkpt><trkpt lat="34.9948758" lon="33.468899"><ele>265.7</ele><time>2015-05-01T14:36:17.0000000+00:00</time></trkpt><trkpt lat="34.9948673" lon="33.4689639"><ele>265.8</ele><time>2015-05-01T14:36:18.0000000+00:00</time></trkpt><trkpt lat="34.9948636" lon="33.4690221"><ele>265.9</ele><time>2015-05-01T14:36:19.0000000+00:00</time></trkpt><trkpt lat="34.9948566" lon="33.4690875"><ele>266.5</ele><time>2015-05-01T14:36:20.0000000+00:00</time></trkpt><trkpt lat="34.9948473" lon="33.4691563"><ele>266.7</ele><time>2015-05-01T14:36:21.0000000+00:00</time></trkpt><trkpt lat="34.994837" lon="33.4692286"><ele>266.9</ele><time>2015-05-01T14:36:22.0000000+00:00</time></trkpt><trkpt lat="34.9948239" lon="33.4692943"><ele>267.0</ele><time>2015-05-01T14:36:23.0000000+00:00</time></trkpt><trkpt lat="34.9948164" lon="33.4693614"><ele>267.0</ele><time>2015-05-01T14:36:24.0000000+00:00</time></trkpt><trkpt lat="34.9948039" lon="33.4694303"><ele>267.0</ele><time>2015-05-01T14:36:25.0000000+00:00</time></trkpt><trkpt lat="34.9947926" lon="33.4694996"><ele>267.0</ele><time>2015-05-01T14:36:26.0000000+00:00</time></trkpt><trkpt lat="34.9947821" lon="33.4695646"><ele>267.0</ele><time>2015-05-01T14:36:27.0000000+00:00</time></trkpt><trkpt lat="34.9947754" lon="33.469634"><ele>267.0</ele><time>2015-05-01T14:36:28.0000000+00:00</time></trkpt><trkpt lat="34.9947685" lon="33.4696935"><ele>266.5</ele><time>2015-05-01T14:36:29.0000000+00:00</time></trkpt><trkpt lat="34.9947584" lon="33.4697545"><ele>266.3</ele><time>2015-05-01T14:36:30.0000000+00:00</time></trkpt><trkpt lat="34.9947545" lon="33.4698673"><ele>265.6</ele><time>2015-05-01T14:36:32.0000000+00:00</time></trkpt><trkpt lat="34.9947426" lon="33.4699218"><ele>265.3</ele><time>2015-05-01T14:36:33.0000000+00:00</time></trkpt><trkpt lat="34.9947202" lon="33.4699761"><ele>265.2</ele><time>2015-05-01T14:36:34.0000000+00:00</time></trkpt><trkpt lat="34.9947015" lon="33.4700413"><ele>265.1</ele><time>2015-05-01T14:36:35.0000000+00:00</time></trkpt><trkpt lat="34.9946885" lon="33.470106"><ele>265.1</ele><time>2015-05-01T14:36:36.0000000+00:00</time></trkpt><trkpt lat="34.9946759" lon="33.4701786"><ele>265.5</ele><time>2015-05-01T14:36:37.0000000+00:00</time></trkpt><trkpt lat="34.9946638" lon="33.4702403"><ele>261.8</ele><time>2015-05-01T14:36:38.0000000+00:00</time></trkpt><trkpt lat="34.9946536" lon="33.4702966"><ele>260.4</ele><time>2015-05-01T14:36:39.0000000+00:00</time></trkpt><trkpt lat="34.9946377" lon="33.4703581"><ele>259.2</ele><time>2015-05-01T14:36:40.0000000+00:00</time></trkpt><trkpt lat="34.9946301" lon="33.4704136"><ele>258.1</ele><time>2015-05-01T14:36:41.0000000+00:00</time></trkpt><trkpt lat="34.9946239" lon="33.4704725"><ele>258.1</ele><time>2015-05-01T14:36:42.0000000+00:00</time></trkpt><trkpt lat="34.9946161" lon="33.4705405"><ele>257.5</ele><time>2015-05-01T14:36:43.0000000+00:00</time></trkpt><trkpt lat="34.9946018" lon="33.470603"><ele>257.8</ele><time>2015-05-01T14:36:44.0000000+00:00</time></trkpt><trkpt lat="34.9945859" lon="33.470658"><ele>258.4</ele><time>2015-05-01T14:36:45.0000000+00:00</time></trkpt><trkpt lat="34.9945636" lon="33.470766"><ele>259.1</ele><time>2015-05-01T14:36:47.0000000+00:00</time></trkpt><trkpt lat="34.9945508" lon="33.4708281"><ele>259.1</ele><time>2015-05-01T14:36:48.0000000+00:00</time></trkpt><trkpt lat="34.9945186" lon="33.4709254"><ele>258.3</ele><time>2015-05-01T14:36:50.0000000+00:00</time></trkpt><trkpt lat="34.9944979" lon="33.471028"><ele>258.1</ele><time>2015-05-01T14:36:52.0000000+00:00</time></trkpt><trkpt lat="34.9944841" lon="33.4710812"><ele>258.1</ele><time>2015-05-01T14:36:53.0000000+00:00</time></trkpt><trkpt lat="34.9944648" lon="33.4711323"><ele>258.0</ele><time>2015-05-01T14:36:54.0000000+00:00</time></trkpt><trkpt lat="34.9944488" lon="33.4711888"><ele>258.5</ele><time>2015-05-01T14:36:55.0000000+00:00</time></trkpt><trkpt lat="34.9944295" lon="33.4712554"><ele>258.3</ele><time>2015-05-01T14:36:56.0000000+00:00</time></trkpt><trkpt lat="34.9944196" lon="33.4713727"><ele>256.6</ele><time>2015-05-01T14:36:58.0000000+00:00</time></trkpt><trkpt lat="34.9944088" lon="33.4714338"><ele>256.3</ele><time>2015-05-01T14:36:59.0000000+00:00</time></trkpt><trkpt lat="34.9943964" lon="33.4715072"><ele>256.7</ele><time>2015-05-01T14:37:00.0000000+00:00</time></trkpt><trkpt lat="34.9943834" lon="33.4715884"><ele>256.8</ele><time>2015-05-01T14:37:01.0000000+00:00</time></trkpt><trkpt lat="34.9943758" lon="33.471667"><ele>256.4</ele><time>2015-05-01T14:37:02.0000000+00:00</time></trkpt><trkpt lat="34.9943673" lon="33.4717391"><ele>256.7</ele><time>2015-05-01T14:37:03.0000000+00:00</time></trkpt><trkpt lat="34.9943566" lon="33.4718221"><ele>256.9</ele><time>2015-05-01T14:37:04.0000000+00:00</time></trkpt><trkpt lat="34.9943458" lon="33.4719072"><ele>256.9</ele><time>2015-05-01T14:37:05.0000000+00:00</time></trkpt><trkpt lat="34.9943456" lon="33.4719782"><ele>257.0</ele><time>2015-05-01T14:37:06.0000000+00:00</time></trkpt><trkpt lat="34.9943418" lon="33.4720604"><ele>257.5</ele><time>2015-05-01T14:37:07.0000000+00:00</time></trkpt><trkpt lat="34.9943401" lon="33.4721484"><ele>257.8</ele><time>2015-05-01T14:37:08.0000000+00:00</time></trkpt><trkpt lat="34.9943322" lon="33.4722266"><ele>257.4</ele><time>2015-05-01T14:37:09.0000000+00:00</time></trkpt><trkpt lat="34.9943281" lon="33.4723143"><ele>256.7</ele><time>2015-05-01T14:37:10.0000000+00:00</time></trkpt><trkpt lat="34.9943174" lon="33.472393"><ele>257.4</ele><time>2015-05-01T14:37:11.0000000+00:00</time></trkpt><trkpt lat="34.9943076" lon="33.4724858"><ele>256.7</ele><time>2015-05-01T14:37:12.0000000+00:00</time></trkpt><trkpt lat="34.9943021" lon="33.472568"><ele>256.9</ele><time>2015-05-01T14:37:13.0000000+00:00</time></trkpt><trkpt lat="34.9942966" lon="33.4726525"><ele>256.4</ele><time>2015-05-01T14:37:14.0000000+00:00</time></trkpt><trkpt lat="34.9942916" lon="33.4727421"><ele>256.2</ele><time>2015-05-01T14:37:15.0000000+00:00</time></trkpt><trkpt lat="34.9942886" lon="33.4728331"><ele>256.1</ele><time>2015-05-01T14:37:16.0000000+00:00</time></trkpt><trkpt lat="34.9942892" lon="33.4729117"><ele>256.1</ele><time>2015-05-01T14:37:17.0000000+00:00</time></trkpt><trkpt lat="34.99429" lon="33.4729927"><ele>256.0</ele><time>2015-05-01T14:37:18.0000000+00:00</time></trkpt><trkpt lat="34.9942864" lon="33.473079"><ele>256.5</ele><time>2015-05-01T14:37:19.0000000+00:00</time></trkpt><trkpt lat="34.9942896" lon="33.4731697"><ele>256.3</ele><time>2015-05-01T14:37:20.0000000+00:00</time></trkpt><trkpt lat="34.9942972" lon="33.4732528"><ele>256.6</ele><time>2015-05-01T14:37:21.0000000+00:00</time></trkpt><trkpt lat="34.9943104" lon="33.4733254"><ele>256.3</ele><time>2015-05-01T14:37:22.0000000+00:00</time></trkpt><trkpt lat="34.9943213" lon="33.4734052"><ele>256.7</ele><time>2015-05-01T14:37:23.0000000+00:00</time></trkpt><trkpt lat="34.9943302" lon="33.4734915"><ele>256.8</ele><time>2015-05-01T14:37:24.0000000+00:00</time></trkpt><trkpt lat="34.994335" lon="33.4735723"><ele>257.4</ele><time>2015-05-01T14:37:25.0000000+00:00</time></trkpt><trkpt lat="34.9943456" lon="33.4736522"><ele>257.7</ele><time>2015-05-01T14:37:26.0000000+00:00</time></trkpt><trkpt lat="34.9943541" lon="33.4737291"><ele>257.9</ele><time>2015-05-01T14:37:27.0000000+00:00</time></trkpt><trkpt lat="34.9943617" lon="33.4738145"><ele>258.4</ele><time>2015-05-01T14:37:28.0000000+00:00</time></trkpt><trkpt lat="34.9943669" lon="33.4738949"><ele>258.7</ele><time>2015-05-01T14:37:29.0000000+00:00</time></trkpt><trkpt lat="34.9943735" lon="33.4739757"><ele>258.9</ele><time>2015-05-01T14:37:30.0000000+00:00</time></trkpt><trkpt lat="34.9943786" lon="33.4740584"><ele>258.9</ele><time>2015-05-01T14:37:31.0000000+00:00</time></trkpt><trkpt lat="34.9943851" lon="33.4741382"><ele>258.5</ele><time>2015-05-01T14:37:32.0000000+00:00</time></trkpt><trkpt lat="34.9943851" lon="33.4742127"><ele>258.3</ele><time>2015-05-01T14:37:33.0000000+00:00</time></trkpt><trkpt lat="34.9943759" lon="33.4742912"><ele>258.6</ele><time>2015-05-01T14:37:34.0000000+00:00</time></trkpt><trkpt lat="34.9943646" lon="33.474378"><ele>258.8</ele><time>2015-05-01T14:37:35.0000000+00:00</time></trkpt><trkpt lat="34.9943566" lon="33.4744613"><ele>258.4</ele><time>2015-05-01T14:37:36.0000000+00:00</time></trkpt><trkpt lat="34.9943414" lon="33.4745452"><ele>258.2</ele><time>2015-05-01T14:37:37.0000000+00:00</time></trkpt><trkpt lat="34.9943223" lon="33.4746296"><ele>257.6</ele><time>2015-05-01T14:37:38.0000000+00:00</time></trkpt><trkpt lat="34.9943018" lon="33.4747024"><ele>257.3</ele><time>2015-05-01T14:37:39.0000000+00:00</time></trkpt><trkpt lat="34.9942802" lon="33.4747928"><ele>257.2</ele><time>2015-05-01T14:37:40.0000000+00:00</time></trkpt><trkpt lat="34.9942615" lon="33.4748802"><ele>257.1</ele><time>2015-05-01T14:37:41.0000000+00:00</time></trkpt><trkpt lat="34.9942492" lon="33.4749682"><ele>257.1</ele><time>2015-05-01T14:37:42.0000000+00:00</time></trkpt><trkpt lat="34.9942338" lon="33.4750586"><ele>256.5</ele><time>2015-05-01T14:37:43.0000000+00:00</time></trkpt><trkpt lat="34.9942243" lon="33.4751568"><ele>256.3</ele><time>2015-05-01T14:37:44.0000000+00:00</time></trkpt><trkpt lat="34.9942217" lon="33.4752586"><ele>256.2</ele><time>2015-05-01T14:37:45.0000000+00:00</time></trkpt><trkpt lat="34.9942285" lon="33.4753626"><ele>256.6</ele><time>2015-05-01T14:37:46.0000000+00:00</time></trkpt><trkpt lat="34.9942415" lon="33.4754641"><ele>256.3</ele><time>2015-05-01T14:37:47.0000000+00:00</time></trkpt><trkpt lat="34.9942397" lon="33.4755666"><ele>256.7</ele><time>2015-05-01T14:37:48.0000000+00:00</time></trkpt><trkpt lat="34.9942487" lon="33.475677"><ele>256.8</ele><time>2015-05-01T14:37:49.0000000+00:00</time></trkpt><trkpt lat="34.9942539" lon="33.4757947"><ele>256.9</ele><time>2015-05-01T14:37:50.0000000+00:00</time></trkpt><trkpt lat="34.9942688" lon="33.475911"><ele>256.5</ele><time>2015-05-01T14:37:51.0000000+00:00</time></trkpt><trkpt lat="34.9942831" lon="33.4760289"><ele>256.2</ele><time>2015-05-01T14:37:52.0000000+00:00</time></trkpt><trkpt lat="34.9942901" lon="33.4761465"><ele>256.1</ele><time>2015-05-01T14:37:53.0000000+00:00</time></trkpt><trkpt lat="34.9943014" lon="33.4762653"><ele>256.1</ele><time>2015-05-01T14:37:54.0000000+00:00</time></trkpt><trkpt lat="34.9943082" lon="33.4763814"><ele>255.5</ele><time>2015-05-01T14:37:55.0000000+00:00</time></trkpt><trkpt lat="34.9943176" lon="33.4764972"><ele>255.3</ele><time>2015-05-01T14:37:56.0000000+00:00</time></trkpt><trkpt lat="34.994323" lon="33.4766071"><ele>255.2</ele><time>2015-05-01T14:37:57.0000000+00:00</time></trkpt><trkpt lat="34.9943318" lon="33.4767153"><ele>255.1</ele><time>2015-05-01T14:37:58.0000000+00:00</time></trkpt><trkpt lat="34.9943259" lon="33.476828"><ele>255.1</ele><time>2015-05-01T14:37:59.0000000+00:00</time></trkpt><trkpt lat="34.9943272" lon="33.476936"><ele>255.0</ele><time>2015-05-01T14:38:00.0000000+00:00</time></trkpt><trkpt lat="34.994326" lon="33.4770493"><ele>255.5</ele><time>2015-05-01T14:38:01.0000000+00:00</time></trkpt><trkpt lat="34.9943306" lon="33.4771586"><ele>255.8</ele><time>2015-05-01T14:38:02.0000000+00:00</time></trkpt><trkpt lat="34.9943315" lon="33.4772622"><ele>255.4</ele><time>2015-05-01T14:38:03.0000000+00:00</time></trkpt><trkpt lat="34.99433" lon="33.4773688"><ele>255.2</ele><time>2015-05-01T14:38:04.0000000+00:00</time></trkpt><trkpt lat="34.9943301" lon="33.4774717"><ele>255.1</ele><time>2015-05-01T14:38:05.0000000+00:00</time></trkpt><trkpt lat="34.9943322" lon="33.4775723"><ele>255.1</ele><time>2015-05-01T14:38:06.0000000+00:00</time></trkpt><trkpt lat="34.9943338" lon="33.4776625"><ele>254.5</ele><time>2015-05-01T14:38:07.0000000+00:00</time></trkpt><trkpt lat="34.9943362" lon="33.4777687"><ele>254.3</ele><time>2015-05-01T14:38:08.0000000+00:00</time></trkpt><trkpt lat="34.9943395" lon="33.477867"><ele>254.2</ele><time>2015-05-01T14:38:09.0000000+00:00</time></trkpt><trkpt lat="34.9943456" lon="33.4779645"><ele>253.6</ele><time>2015-05-01T14:38:10.0000000+00:00</time></trkpt><trkpt lat="34.9943505" lon="33.4780682"><ele>253.3</ele><time>2015-05-01T14:38:11.0000000+00:00</time></trkpt><trkpt lat="34.994366" lon="33.4781639"><ele>252.7</ele><time>2015-05-01T14:38:12.0000000+00:00</time></trkpt><trkpt lat="34.9943759" lon="33.4782569"><ele>252.3</ele><time>2015-05-01T14:38:13.0000000+00:00</time></trkpt><trkpt lat="34.9943911" lon="33.4783534"><ele>252.2</ele><time>2015-05-01T14:38:14.0000000+00:00</time></trkpt><trkpt lat="34.9944065" lon="33.4784461"><ele>252.1</ele><time>2015-05-01T14:38:15.0000000+00:00</time></trkpt><trkpt lat="34.9944187" lon="33.478538"><ele>252.1</ele><time>2015-05-01T14:38:16.0000000+00:00</time></trkpt><trkpt lat="34.9944317" lon="33.4786298"><ele>251.5</ele><time>2015-05-01T14:38:17.0000000+00:00</time></trkpt><trkpt lat="34.9944536" lon="33.4787252"><ele>251.3</ele><time>2015-05-01T14:38:18.0000000+00:00</time></trkpt><trkpt lat="34.9944596" lon="33.4788122"><ele>251.2</ele><time>2015-05-01T14:38:19.0000000+00:00</time></trkpt><trkpt lat="34.9944672" lon="33.478918"><ele>251.1</ele><time>2015-05-01T14:38:20.0000000+00:00</time></trkpt><trkpt lat="34.9944797" lon="33.4790095"><ele>251.1</ele><time>2015-05-01T14:38:21.0000000+00:00</time></trkpt><trkpt lat="34.9944866" lon="33.4791021"><ele>251.0</ele><time>2015-05-01T14:38:22.0000000+00:00</time></trkpt><trkpt lat="34.9944988" lon="33.479184"><ele>251.0</ele><time>2015-05-01T14:38:23.0000000+00:00</time></trkpt><trkpt lat="34.994506" lon="33.479285"><ele>251.0</ele><time>2015-05-01T14:38:24.0000000+00:00</time></trkpt><trkpt lat="34.9945122" lon="33.4793788"><ele>251.5</ele><time>2015-05-01T14:38:25.0000000+00:00</time></trkpt><trkpt lat="34.9945126" lon="33.4794653"><ele>251.8</ele><time>2015-05-01T14:38:26.0000000+00:00</time></trkpt><trkpt lat="34.994511" lon="33.4795542"><ele>251.9</ele><time>2015-05-01T14:38:27.0000000+00:00</time></trkpt><trkpt lat="34.9945152" lon="33.4796481"><ele>251.5</ele><time>2015-05-01T14:38:28.0000000+00:00</time></trkpt><trkpt lat="34.9945196" lon="33.4797249"><ele>251.2</ele><time>2015-05-01T14:38:29.0000000+00:00</time></trkpt><trkpt lat="34.994517" lon="33.47981"><ele>251.1</ele><time>2015-05-01T14:38:30.0000000+00:00</time></trkpt><trkpt lat="34.994513" lon="33.4798953"><ele>251.6</ele><time>2015-05-01T14:38:31.0000000+00:00</time></trkpt><trkpt lat="34.9945013" lon="33.4799696"><ele>251.8</ele><time>2015-05-01T14:38:32.0000000+00:00</time></trkpt><trkpt lat="34.994497" lon="33.4800593"><ele>251.4</ele><time>2015-05-01T14:38:33.0000000+00:00</time></trkpt><trkpt lat="34.9945024" lon="33.4801357"><ele>250.7</ele><time>2015-05-01T14:38:34.0000000+00:00</time></trkpt><trkpt lat="34.9944985" lon="33.4802234"><ele>250.4</ele><time>2015-05-01T14:38:35.0000000+00:00</time></trkpt><trkpt lat="34.9944875" lon="33.4803123"><ele>250.2</ele><time>2015-05-01T14:38:36.0000000+00:00</time></trkpt><trkpt lat="34.9944839" lon="33.4803973"><ele>250.1</ele><time>2015-05-01T14:38:37.0000000+00:00</time></trkpt><trkpt lat="34.9944786" lon="33.48049"><ele>250.1</ele><time>2015-05-01T14:38:38.0000000+00:00</time></trkpt><trkpt lat="34.994474" lon="33.4805757"><ele>250.0</ele><time>2015-05-01T14:38:39.0000000+00:00</time></trkpt><trkpt lat="34.9944651" lon="33.4806686"><ele>250.0</ele><time>2015-05-01T14:38:40.0000000+00:00</time></trkpt><trkpt lat="34.994463" lon="33.4807462"><ele>250.0</ele><time>2015-05-01T14:38:41.0000000+00:00</time></trkpt><trkpt lat="34.9944532" lon="33.4808279"><ele>250.0</ele><time>2015-05-01T14:38:42.0000000+00:00</time></trkpt><trkpt lat="34.9944472" lon="33.4809091"><ele>250.5</ele><time>2015-05-01T14:38:43.0000000+00:00</time></trkpt><trkpt lat="34.9944427" lon="33.4809922"><ele>250.8</ele><time>2015-05-01T14:38:44.0000000+00:00</time></trkpt><trkpt lat="34.9944344" lon="33.4810656"><ele>250.9</ele><time>2015-05-01T14:38:45.0000000+00:00</time></trkpt><trkpt lat="34.9944287" lon="33.4811425"><ele>251.0</ele><time>2015-05-01T14:38:46.0000000+00:00</time></trkpt><trkpt lat="34.9944254" lon="33.4812197"><ele>251.0</ele><time>2015-05-01T14:38:47.0000000+00:00</time></trkpt><trkpt lat="34.9944291" lon="33.4812998"><ele>251.0</ele><time>2015-05-01T14:38:48.0000000+00:00</time></trkpt><trkpt lat="34.9944242" lon="33.4813737"><ele>250.5</ele><time>2015-05-01T14:38:49.0000000+00:00</time></trkpt><trkpt lat="34.9944198" lon="33.4814532"><ele>250.3</ele><time>2015-05-01T14:38:50.0000000+00:00</time></trkpt><trkpt lat="34.9944222" lon="33.481534"><ele>250.1</ele><time>2015-05-01T14:38:51.0000000+00:00</time></trkpt><trkpt lat="34.9944207" lon="33.4816244"><ele>250.1</ele><time>2015-05-01T14:38:52.0000000+00:00</time></trkpt><trkpt lat="34.9944206" lon="33.4816965"><ele>250.1</ele><time>2015-05-01T14:38:53.0000000+00:00</time></trkpt><trkpt lat="34.9944177" lon="33.4817769"><ele>250.0</ele><time>2015-05-01T14:38:54.0000000+00:00</time></trkpt><trkpt lat="34.9944237" lon="33.481851"><ele>250.0</ele><time>2015-05-01T14:38:55.0000000+00:00</time></trkpt><trkpt lat="34.9944194" lon="33.4819304"><ele>250.0</ele><time>2015-05-01T14:38:56.0000000+00:00</time></trkpt><trkpt lat="34.9944195" lon="33.482006"><ele>250.0</ele><time>2015-05-01T14:38:57.0000000+00:00</time></trkpt><trkpt lat="34.9944198" lon="33.4820822"><ele>250.0</ele><time>2015-05-01T14:38:58.0000000+00:00</time></trkpt><trkpt lat="34.9944291" lon="33.4821581"><ele>250.0</ele><time>2015-05-01T14:38:59.0000000+00:00</time></trkpt><trkpt lat="34.9944338" lon="33.4822369"><ele>250.0</ele><time>2015-05-01T14:39:00.0000000+00:00</time></trkpt><trkpt lat="34.994446" lon="33.4823169"><ele>250.0</ele><time>2015-05-01T14:39:01.0000000+00:00</time></trkpt><trkpt lat="34.9944602" lon="33.4823921"><ele>250.0</ele><time>2015-05-01T14:39:02.0000000+00:00</time></trkpt><trkpt lat="34.9944701" lon="33.4824672"><ele>249.5</ele><time>2015-05-01T14:39:03.0000000+00:00</time></trkpt><trkpt lat="34.9944887" lon="33.4825453"><ele>249.3</ele><time>2015-05-01T14:39:04.0000000+00:00</time></trkpt><trkpt lat="34.9945124" lon="33.4826398"><ele>248.6</ele><time>2015-05-01T14:39:05.0000000+00:00</time></trkpt><trkpt lat="34.9945272" lon="33.4827106"><ele>248.3</ele><time>2015-05-01T14:39:06.0000000+00:00</time></trkpt><trkpt lat="34.9945438" lon="33.4827819"><ele>248.2</ele><time>2015-05-01T14:39:07.0000000+00:00</time></trkpt><trkpt lat="34.9945574" lon="33.482858"><ele>248.1</ele><time>2015-05-01T14:39:08.0000000+00:00</time></trkpt><trkpt lat="34.9945771" lon="33.4829396"><ele>248.1</ele><time>2015-05-01T14:39:09.0000000+00:00</time></trkpt><trkpt lat="34.994594" lon="33.4830133"><ele>248.0</ele><time>2015-05-01T14:39:10.0000000+00:00</time></trkpt><trkpt lat="34.9946142" lon="33.4830846"><ele>247.5</ele><time>2015-05-01T14:39:11.0000000+00:00</time></trkpt><trkpt lat="34.9946268" lon="33.4831654"><ele>247.3</ele><time>2015-05-01T14:39:12.0000000+00:00</time></trkpt><trkpt lat="34.9946433" lon="33.4832375"><ele>247.1</ele><time>2015-05-01T14:39:13.0000000+00:00</time></trkpt><trkpt lat="34.9946582" lon="33.4833076"><ele>247.1</ele><time>2015-05-01T14:39:14.0000000+00:00</time></trkpt><trkpt lat="34.9946741" lon="33.4833786"><ele>246.6</ele><time>2015-05-01T14:39:15.0000000+00:00</time></trkpt><trkpt lat="34.994691" lon="33.4834627"><ele>246.3</ele><time>2015-05-01T14:39:16.0000000+00:00</time></trkpt><trkpt lat="34.9947106" lon="33.4835262"><ele>246.2</ele><time>2015-05-01T14:39:17.0000000+00:00</time></trkpt><trkpt lat="34.9947308" lon="33.4836005"><ele>246.6</ele><time>2015-05-01T14:39:18.0000000+00:00</time></trkpt><trkpt lat="34.994757" lon="33.4836675"><ele>246.3</ele><time>2015-05-01T14:39:19.0000000+00:00</time></trkpt><trkpt lat="34.9947812" lon="33.4837424"><ele>246.2</ele><time>2015-05-01T14:39:20.0000000+00:00</time></trkpt><trkpt lat="34.9947994" lon="33.4838244"><ele>246.6</ele><time>2015-05-01T14:39:21.0000000+00:00</time></trkpt><trkpt lat="34.9948111" lon="33.4838957"><ele>246.8</ele><time>2015-05-01T14:39:22.0000000+00:00</time></trkpt><trkpt lat="34.9948304" lon="33.4839649"><ele>246.9</ele><time>2015-05-01T14:39:23.0000000+00:00</time></trkpt><trkpt lat="34.9948444" lon="33.4840377"><ele>247.0</ele><time>2015-05-01T14:39:24.0000000+00:00</time></trkpt><trkpt lat="34.9948591" lon="33.4841006"><ele>247.0</ele><time>2015-05-01T14:39:25.0000000+00:00</time></trkpt><trkpt lat="34.9948775" lon="33.4841716"><ele>247.0</ele><time>2015-05-01T14:39:26.0000000+00:00</time></trkpt><trkpt lat="34.9948967" lon="33.4842403"><ele>247.0</ele><time>2015-05-01T14:39:27.0000000+00:00</time></trkpt><trkpt lat="34.9949154" lon="33.4843195"><ele>247.0</ele><time>2015-05-01T14:39:28.0000000+00:00</time></trkpt><trkpt lat="34.9949256" lon="33.4843927"><ele>247.5</ele><time>2015-05-01T14:39:29.0000000+00:00</time></trkpt><trkpt lat="34.9949482" lon="33.4844744"><ele>247.3</ele><time>2015-05-01T14:39:30.0000000+00:00</time></trkpt><trkpt lat="34.9949652" lon="33.484549"><ele>247.1</ele><time>2015-05-01T14:39:31.0000000+00:00</time></trkpt><trkpt lat="34.9949907" lon="33.4846218"><ele>247.1</ele><time>2015-05-01T14:39:32.0000000+00:00</time></trkpt><trkpt lat="34.9950143" lon="33.4847094"><ele>247.1</ele><time>2015-05-01T14:39:33.0000000+00:00</time></trkpt><trkpt lat="34.995035" lon="33.4847855"><ele>247.0</ele><time>2015-05-01T14:39:34.0000000+00:00</time></trkpt><trkpt lat="34.9950595" lon="33.4848678"><ele>247.0</ele><time>2015-05-01T14:39:35.0000000+00:00</time></trkpt><trkpt lat="34.9950785" lon="33.4849508"><ele>247.5</ele><time>2015-05-01T14:39:36.0000000+00:00</time></trkpt><trkpt lat="34.9951041" lon="33.4850129"><ele>247.8</ele><time>2015-05-01T14:39:37.0000000+00:00</time></trkpt><trkpt lat="34.9951304" lon="33.4850764"><ele>247.9</ele><time>2015-05-01T14:39:38.0000000+00:00</time></trkpt><trkpt lat="34.9951537" lon="33.4851419"><ele>248.0</ele><time>2015-05-01T14:39:39.0000000+00:00</time></trkpt><trkpt lat="34.9951828" lon="33.4852074"><ele>248.0</ele><time>2015-05-01T14:39:40.0000000+00:00</time></trkpt><trkpt lat="34.9952029" lon="33.4852731"><ele>248.0</ele><time>2015-05-01T14:39:41.0000000+00:00</time></trkpt><trkpt lat="34.9952364" lon="33.4853392"><ele>248.0</ele><time>2015-05-01T14:39:42.0000000+00:00</time></trkpt><trkpt lat="34.9952635" lon="33.4854057"><ele>247.5</ele><time>2015-05-01T14:39:43.0000000+00:00</time></trkpt><trkpt lat="34.9952915" lon="33.4854727"><ele>247.3</ele><time>2015-05-01T14:39:44.0000000+00:00</time></trkpt><trkpt lat="34.9953204" lon="33.485544"><ele>247.1</ele><time>2015-05-01T14:39:45.0000000+00:00</time></trkpt><trkpt lat="34.9953495" lon="33.4856156"><ele>247.1</ele><time>2015-05-01T14:39:46.0000000+00:00</time></trkpt><trkpt lat="34.9953751" lon="33.4856786"><ele>247.1</ele><time>2015-05-01T14:39:47.0000000+00:00</time></trkpt><trkpt lat="34.9954026" lon="33.4857494"><ele>247.0</ele><time>2015-05-01T14:39:48.0000000+00:00</time></trkpt><trkpt lat="34.9954331" lon="33.4858116"><ele>247.0</ele><time>2015-05-01T14:39:49.0000000+00:00</time></trkpt><trkpt lat="34.995459" lon="33.4858711"><ele>247.0</ele><time>2015-05-01T14:39:50.0000000+00:00</time></trkpt><trkpt lat="34.9954925" lon="33.4859319"><ele>247.0</ele><time>2015-05-01T14:39:51.0000000+00:00</time></trkpt><trkpt lat="34.9955287" lon="33.4860004"><ele>247.0</ele><time>2015-05-01T14:39:52.0000000+00:00</time></trkpt><trkpt lat="34.9955629" lon="33.4860649"><ele>247.0</ele><time>2015-05-01T14:39:53.0000000+00:00</time></trkpt><trkpt lat="34.9955922" lon="33.4861301"><ele>247.0</ele><time>2015-05-01T14:39:54.0000000+00:00</time></trkpt><trkpt lat="34.995624" lon="33.4861959"><ele>247.0</ele><time>2015-05-01T14:39:55.0000000+00:00</time></trkpt><trkpt lat="34.9956529" lon="33.486247"><ele>247.0</ele><time>2015-05-01T14:39:56.0000000+00:00</time></trkpt><trkpt lat="34.9956877" lon="33.4863065"><ele>247.0</ele><time>2015-05-01T14:39:57.0000000+00:00</time></trkpt><trkpt lat="34.9957264" lon="33.4863681"><ele>247.0</ele><time>2015-05-01T14:39:58.0000000+00:00</time></trkpt><trkpt lat="34.9957667" lon="33.4864275"><ele>246.5</ele><time>2015-05-01T14:39:59.0000000+00:00</time></trkpt><trkpt lat="34.9958108" lon="33.4864789"><ele>246.3</ele><time>2015-05-01T14:40:00.0000000+00:00</time></trkpt><trkpt lat="34.9958615" lon="33.4865303"><ele>246.1</ele><time>2015-05-01T14:40:01.0000000+00:00</time></trkpt><trkpt lat="34.9959002" lon="33.4865912"><ele>246.1</ele><time>2015-05-01T14:40:02.0000000+00:00</time></trkpt><trkpt lat="34.9959491" lon="33.4866494"><ele>246.1</ele><time>2015-05-01T14:40:03.0000000+00:00</time></trkpt><trkpt lat="34.9960005" lon="33.4867135"><ele>246.5</ele><time>2015-05-01T14:40:04.0000000+00:00</time></trkpt><trkpt lat="34.9960452" lon="33.4867668"><ele>246.8</ele><time>2015-05-01T14:40:05.0000000+00:00</time></trkpt><trkpt lat="34.9960974" lon="33.4868181"><ele>246.9</ele><time>2015-05-01T14:40:06.0000000+00:00</time></trkpt><trkpt lat="34.9961464" lon="33.4868709"><ele>247.0</ele><time>2015-05-01T14:40:07.0000000+00:00</time></trkpt><trkpt lat="34.9961926" lon="33.4869243"><ele>246.5</ele><time>2015-05-01T14:40:08.0000000+00:00</time></trkpt><trkpt lat="34.9962332" lon="33.4869828"><ele>246.3</ele><time>2015-05-01T14:40:09.0000000+00:00</time></trkpt><trkpt lat="34.9962768" lon="33.4870343"><ele>246.1</ele><time>2015-05-01T14:40:10.0000000+00:00</time></trkpt><trkpt lat="34.9963205" lon="33.487082"><ele>246.1</ele><time>2015-05-01T14:40:11.0000000+00:00</time></trkpt><trkpt lat="34.9963714" lon="33.4871207"><ele>245.6</ele><time>2015-05-01T14:40:12.0000000+00:00</time></trkpt><trkpt lat="34.9964251" lon="33.4871676"><ele>245.8</ele><time>2015-05-01T14:40:13.0000000+00:00</time></trkpt><trkpt lat="34.9964865" lon="33.4872102"><ele>246.9</ele><time>2015-05-01T14:40:14.0000000+00:00</time></trkpt><trkpt lat="34.996528" lon="33.4872562"><ele>247.5</ele><time>2015-05-01T14:40:15.0000000+00:00</time></trkpt><trkpt lat="34.9965765" lon="33.487302"><ele>247.7</ele><time>2015-05-01T14:40:16.0000000+00:00</time></trkpt><trkpt lat="34.9966152" lon="33.487343"><ele>247.9</ele><time>2015-05-01T14:40:17.0000000+00:00</time></trkpt><trkpt lat="34.9966511" lon="33.4873843"><ele>248.0</ele><time>2015-05-01T14:40:18.0000000+00:00</time></trkpt><trkpt lat="34.9966994" lon="33.4874208"><ele>248.0</ele><time>2015-05-01T14:40:19.0000000+00:00</time></trkpt><trkpt lat="34.9967391" lon="33.4874592"><ele>248.0</ele><time>2015-05-01T14:40:20.0000000+00:00</time></trkpt><trkpt lat="34.996775" lon="33.487496"><ele>248.0</ele><time>2015-05-01T14:40:21.0000000+00:00</time></trkpt><trkpt lat="34.996825" lon="33.4875364"><ele>248.5</ele><time>2015-05-01T14:40:22.0000000+00:00</time></trkpt><trkpt lat="34.9968644" lon="33.4875774"><ele>248.8</ele><time>2015-05-01T14:40:23.0000000+00:00</time></trkpt><trkpt lat="34.9969116" lon="33.4876261"><ele>248.9</ele><time>2015-05-01T14:40:24.0000000+00:00</time></trkpt><trkpt lat="34.9969618" lon="33.4876651"><ele>249.0</ele><time>2015-05-01T14:40:25.0000000+00:00</time></trkpt><trkpt lat="34.9970158" lon="33.4877076"><ele>249.0</ele><time>2015-05-01T14:40:26.0000000+00:00</time></trkpt><trkpt lat="34.9970634" lon="33.4877553"><ele>249.0</ele><time>2015-05-01T14:40:27.0000000+00:00</time></trkpt><trkpt lat="34.9971166" lon="33.4878074"><ele>249.0</ele><time>2015-05-01T14:40:28.0000000+00:00</time></trkpt><trkpt lat="34.9971656" lon="33.4878588"><ele>249.5</ele><time>2015-05-01T14:40:29.0000000+00:00</time></trkpt><trkpt lat="34.9972221" lon="33.4879032"><ele>249.8</ele><time>2015-05-01T14:40:30.0000000+00:00</time></trkpt><trkpt lat="34.9972688" lon="33.4879506"><ele>249.4</ele><time>2015-05-01T14:40:31.0000000+00:00</time></trkpt><trkpt lat="34.9973231" lon="33.4879952"><ele>249.2</ele><time>2015-05-01T14:40:32.0000000+00:00</time></trkpt><trkpt lat="34.9973746" lon="33.488048"><ele>249.6</ele><time>2015-05-01T14:40:33.0000000+00:00</time></trkpt><trkpt lat="34.9974262" lon="33.4880885"><ele>249.8</ele><time>2015-05-01T14:40:34.0000000+00:00</time></trkpt><trkpt lat="34.9974745" lon="33.4881371"><ele>249.4</ele><time>2015-05-01T14:40:35.0000000+00:00</time></trkpt><trkpt lat="34.9975248" lon="33.4881795"><ele>249.2</ele><time>2015-05-01T14:40:36.0000000+00:00</time></trkpt><trkpt lat="34.997578" lon="33.4882251"><ele>249.6</ele><time>2015-05-01T14:40:37.0000000+00:00</time></trkpt><trkpt lat="34.9976255" lon="33.48827"><ele>249.3</ele><time>2015-05-01T14:40:38.0000000+00:00</time></trkpt><trkpt lat="34.9976686" lon="33.4883126"><ele>249.2</ele><time>2015-05-01T14:40:39.0000000+00:00</time></trkpt><trkpt lat="34.9977228" lon="33.4883667"><ele>249.6</ele><time>2015-05-01T14:40:40.0000000+00:00</time></trkpt><trkpt lat="34.9977639" lon="33.488407"><ele>249.8</ele><time>2015-05-01T14:40:41.0000000+00:00</time></trkpt><trkpt lat="34.9978014" lon="33.4884487"><ele>249.4</ele><time>2015-05-01T14:40:42.0000000+00:00</time></trkpt><trkpt lat="34.9978521" lon="33.488485"><ele>249.2</ele><time>2015-05-01T14:40:43.0000000+00:00</time></trkpt><trkpt lat="34.9978975" lon="33.4885236"><ele>249.1</ele><time>2015-05-01T14:40:44.0000000+00:00</time></trkpt><trkpt lat="34.9979406" lon="33.4885615"><ele>249.1</ele><time>2015-05-01T14:40:45.0000000+00:00</time></trkpt><trkpt lat="34.997984" lon="33.4886005"><ele>248.5</ele><time>2015-05-01T14:40:46.0000000+00:00</time></trkpt><trkpt lat="34.9980228" lon="33.4886396"><ele>248.3</ele><time>2015-05-01T14:40:47.0000000+00:00</time></trkpt><trkpt lat="34.9980634" lon="33.4886805"><ele>247.7</ele><time>2015-05-01T14:40:48.0000000+00:00</time></trkpt><trkpt lat="34.9981068" lon="33.4887258"><ele>247.8</ele><time>2015-05-01T14:40:49.0000000+00:00</time></trkpt><trkpt lat="34.9981568" lon="33.4887703"><ele>247.9</ele><time>2015-05-01T14:40:50.0000000+00:00</time></trkpt><trkpt lat="34.9982046" lon="33.4888276"><ele>247.5</ele><time>2015-05-01T14:40:51.0000000+00:00</time></trkpt><trkpt lat="34.9982564" lon="33.4888752"><ele>247.2</ele><time>2015-05-01T14:40:52.0000000+00:00</time></trkpt><trkpt lat="34.9983096" lon="33.4889293"><ele>247.1</ele><time>2015-05-01T14:40:53.0000000+00:00</time></trkpt><trkpt lat="34.9983593" lon="33.4889799"><ele>247.6</ele><time>2015-05-01T14:40:54.0000000+00:00</time></trkpt><trkpt lat="34.9984221" lon="33.4890301"><ele>247.8</ele><time>2015-05-01T14:40:55.0000000+00:00</time></trkpt><trkpt lat="34.9984798" lon="33.4890791"><ele>247.9</ele><time>2015-05-01T14:40:56.0000000+00:00</time></trkpt><trkpt lat="34.9985369" lon="33.4891232"><ele>248.0</ele><time>2015-05-01T14:40:57.0000000+00:00</time></trkpt><trkpt lat="34.9985922" lon="33.4891702"><ele>247.5</ele><time>2015-05-01T14:40:58.0000000+00:00</time></trkpt><trkpt lat="34.9986325" lon="33.489221"><ele>246.8</ele><time>2015-05-01T14:40:59.0000000+00:00</time></trkpt><trkpt lat="34.9986914" lon="33.4892772"><ele>246.4</ele><time>2015-05-01T14:41:00.0000000+00:00</time></trkpt><trkpt lat="34.9987502" lon="33.4893342"><ele>246.2</ele><time>2015-05-01T14:41:01.0000000+00:00</time></trkpt><trkpt lat="34.9988175" lon="33.4893734"><ele>246.1</ele><time>2015-05-01T14:41:02.0000000+00:00</time></trkpt><trkpt lat="34.9988802" lon="33.4894252"><ele>245.6</ele><time>2015-05-01T14:41:03.0000000+00:00</time></trkpt><trkpt lat="34.998955" lon="33.4894715"><ele>244.8</ele><time>2015-05-01T14:41:04.0000000+00:00</time></trkpt><trkpt lat="34.9990246" lon="33.4895212"><ele>243.9</ele><time>2015-05-01T14:41:05.0000000+00:00</time></trkpt><trkpt lat="34.9990873" lon="33.4895922"><ele>243.5</ele><time>2015-05-01T14:41:06.0000000+00:00</time></trkpt><trkpt lat="34.999158" lon="33.489666"><ele>242.7</ele><time>2015-05-01T14:41:07.0000000+00:00</time></trkpt><trkpt lat="34.9992224" lon="33.4897229"><ele>241.9</ele><time>2015-05-01T14:41:08.0000000+00:00</time></trkpt><trkpt lat="34.9992878" lon="33.489786"><ele>241.0</ele><time>2015-05-01T14:41:09.0000000+00:00</time></trkpt><trkpt lat="34.9993547" lon="33.4898495"><ele>240.5</ele><time>2015-05-01T14:41:10.0000000+00:00</time></trkpt><trkpt lat="34.9994166" lon="33.4899076"><ele>239.8</ele><time>2015-05-01T14:41:11.0000000+00:00</time></trkpt><trkpt lat="34.9994893" lon="33.4899804"><ele>239.4</ele><time>2015-05-01T14:41:12.0000000+00:00</time></trkpt><trkpt lat="34.9995671" lon="33.4900409"><ele>239.2</ele><time>2015-05-01T14:41:13.0000000+00:00</time></trkpt><trkpt lat="34.9996461" lon="33.4901027"><ele>238.6</ele><time>2015-05-01T14:41:14.0000000+00:00</time></trkpt><trkpt lat="34.9997206" lon="33.4901722"><ele>238.3</ele><time>2015-05-01T14:41:15.0000000+00:00</time></trkpt><trkpt lat="34.9997917" lon="33.4902507"><ele>237.7</ele><time>2015-05-01T14:41:16.0000000+00:00</time></trkpt><trkpt lat="34.9998802" lon="33.4903112"><ele>236.8</ele><time>2015-05-01T14:41:17.0000000+00:00</time></trkpt><trkpt lat="34.9999506" lon="33.4903893"><ele>236.4</ele><time>2015-05-01T14:41:18.0000000+00:00</time></trkpt><trkpt lat="35.000014" lon="33.490472"><ele>236.2</ele><time>2015-05-01T14:41:19.0000000+00:00</time></trkpt><trkpt lat="35.0000954" lon="33.4905593"><ele>236.1</ele><time>2015-05-01T14:41:20.0000000+00:00</time></trkpt><trkpt lat="35.0001622" lon="33.4906436"><ele>235.6</ele><time>2015-05-01T14:41:21.0000000+00:00</time></trkpt><trkpt lat="35.0002438" lon="33.490722"><ele>234.8</ele><time>2015-05-01T14:41:22.0000000+00:00</time></trkpt><trkpt lat="35.0003133" lon="33.4908091"><ele>234.9</ele><time>2015-05-01T14:41:23.0000000+00:00</time></trkpt><trkpt lat="35.0003842" lon="33.4909013"><ele>234.5</ele><time>2015-05-01T14:41:24.0000000+00:00</time></trkpt><trkpt lat="35.0004626" lon="33.4909936"><ele>234.2</ele><time>2015-05-01T14:41:25.0000000+00:00</time></trkpt><trkpt lat="35.0005299" lon="33.4910757"><ele>233.6</ele><time>2015-05-01T14:41:26.0000000+00:00</time></trkpt><trkpt lat="35.0005929" lon="33.4911586"><ele>232.8</ele><time>2015-05-01T14:41:27.0000000+00:00</time></trkpt><trkpt lat="35.0006525" lon="33.4912469"><ele>231.9</ele><time>2015-05-01T14:41:28.0000000+00:00</time></trkpt><trkpt lat="35.0007124" lon="33.4913343"><ele>231.0</ele><time>2015-05-01T14:41:29.0000000+00:00</time></trkpt><trkpt lat="35.0007692" lon="33.4914259"><ele>230.5</ele><time>2015-05-01T14:41:30.0000000+00:00</time></trkpt><trkpt lat="35.000825" lon="33.4915184"><ele>230.3</ele><time>2015-05-01T14:41:31.0000000+00:00</time></trkpt><trkpt lat="35.0008779" lon="33.4916173"><ele>230.1</ele><time>2015-05-01T14:41:32.0000000+00:00</time></trkpt><trkpt lat="35.0009274" lon="33.4917075"><ele>230.1</ele><time>2015-05-01T14:41:33.0000000+00:00</time></trkpt><trkpt lat="35.0009802" lon="33.4918027"><ele>229.6</ele><time>2015-05-01T14:41:34.0000000+00:00</time></trkpt><trkpt lat="35.0010242" lon="33.491885"><ele>229.3</ele><time>2015-05-01T14:41:35.0000000+00:00</time></trkpt><trkpt lat="35.00107" lon="33.4919787"><ele>229.2</ele><time>2015-05-01T14:41:36.0000000+00:00</time></trkpt><trkpt lat="35.0011118" lon="33.4920653"><ele>229.1</ele><time>2015-05-01T14:41:37.0000000+00:00</time></trkpt><trkpt lat="35.0011521" lon="33.49215"><ele>229.1</ele><time>2015-05-01T14:41:38.0000000+00:00</time></trkpt><trkpt lat="35.0011835" lon="33.4922283"><ele>229.0</ele><time>2015-05-01T14:41:39.0000000+00:00</time></trkpt><trkpt lat="35.0012135" lon="33.4923181"><ele>229.5</ele><time>2015-05-01T14:41:40.0000000+00:00</time></trkpt><trkpt lat="35.0012521" lon="33.4924145"><ele>229.8</ele><time>2015-05-01T14:41:41.0000000+00:00</time></trkpt><trkpt lat="35.0012862" lon="33.4924903"><ele>229.9</ele><time>2015-05-01T14:41:42.0000000+00:00</time></trkpt><trkpt lat="35.0013168" lon="33.4925511"><ele>229.5</ele><time>2015-05-01T14:41:43.0000000+00:00</time></trkpt><trkpt lat="35.0013499" lon="33.492614"><ele>229.2</ele><time>2015-05-01T14:41:44.0000000+00:00</time></trkpt><trkpt lat="35.0013765" lon="33.4926885"><ele>229.1</ele><time>2015-05-01T14:41:45.0000000+00:00</time></trkpt><trkpt lat="35.0013964" lon="33.4927552"><ele>229.1</ele><time>2015-05-01T14:41:46.0000000+00:00</time></trkpt><trkpt lat="35.001418" lon="33.4928193"><ele>229.0</ele><time>2015-05-01T14:41:47.0000000+00:00</time></trkpt><trkpt lat="35.0014462" lon="33.4928804"><ele>229.0</ele><time>2015-05-01T14:41:48.0000000+00:00</time></trkpt><trkpt lat="35.0014683" lon="33.4929527"><ele>229.0</ele><time>2015-05-01T14:41:49.0000000+00:00</time></trkpt><trkpt lat="35.0014862" lon="33.493018"><ele>229.5</ele><time>2015-05-01T14:41:50.0000000+00:00</time></trkpt><trkpt lat="35.0015047" lon="33.4930819"><ele>229.8</ele><time>2015-05-01T14:41:51.0000000+00:00</time></trkpt><trkpt lat="35.0015304" lon="33.4931474"><ele>229.9</ele><time>2015-05-01T14:41:52.0000000+00:00</time></trkpt><trkpt lat="35.0015411" lon="33.493213"><ele>230.0</ele><time>2015-05-01T14:41:53.0000000+00:00</time></trkpt><trkpt lat="35.0015599" lon="33.4932763"><ele>230.0</ele><time>2015-05-01T14:41:54.0000000+00:00</time></trkpt><trkpt lat="35.0015745" lon="33.4933389"><ele>230.0</ele><time>2015-05-01T14:41:55.0000000+00:00</time></trkpt><trkpt lat="35.0015914" lon="33.493404"><ele>230.5</ele><time>2015-05-01T14:41:56.0000000+00:00</time></trkpt><trkpt lat="35.0016046" lon="33.4934679"><ele>230.8</ele><time>2015-05-01T14:41:57.0000000+00:00</time></trkpt><trkpt lat="35.0016196" lon="33.4935342"><ele>230.9</ele><time>2015-05-01T14:41:58.0000000+00:00</time></trkpt><trkpt lat="35.0016332" lon="33.4936062"><ele>231.0</ele><time>2015-05-01T14:41:59.0000000+00:00</time></trkpt><trkpt lat="35.0016454" lon="33.4936831"><ele>231.0</ele><time>2015-05-01T14:42:00.0000000+00:00</time></trkpt><trkpt lat="35.0016606" lon="33.4937436"><ele>233.5</ele><time>2015-05-01T14:42:01.0000000+00:00</time></trkpt><trkpt lat="35.0016789" lon="33.4938624"><ele>235.4</ele><time>2015-05-01T14:42:03.0000000+00:00</time></trkpt><trkpt lat="35.0017003" lon="33.4939712"><ele>235.9</ele><time>2015-05-01T14:42:05.0000000+00:00</time></trkpt><trkpt lat="35.0017112" lon="33.4940334"><ele>236.4</ele><time>2015-05-01T14:42:06.0000000+00:00</time></trkpt><trkpt lat="35.0017211" lon="33.4940953"><ele>237.2</ele><time>2015-05-01T14:42:07.0000000+00:00</time></trkpt><trkpt lat="35.0017327" lon="33.4941622"><ele>237.6</ele><time>2015-05-01T14:42:08.0000000+00:00</time></trkpt><trkpt lat="35.0017416" lon="33.4942166"><ele>237.8</ele><time>2015-05-01T14:42:09.0000000+00:00</time></trkpt><trkpt lat="35.001745" lon="33.4942861"><ele>237.9</ele><time>2015-05-01T14:42:10.0000000+00:00</time></trkpt><trkpt lat="35.0017536" lon="33.4943421"><ele>238.0</ele><time>2015-05-01T14:42:11.0000000+00:00</time></trkpt><trkpt lat="35.0017659" lon="33.4944045"><ele>238.0</ele><time>2015-05-01T14:42:12.0000000+00:00</time></trkpt><trkpt lat="35.0017668" lon="33.4944622"><ele>238.0</ele><time>2015-05-01T14:42:13.0000000+00:00</time></trkpt><trkpt lat="35.0017819" lon="33.4945491"><ele>237.3</ele><time>2015-05-01T14:42:15.0000000+00:00</time></trkpt><trkpt lat="35.0017873" lon="33.4946065"><ele>237.6</ele><time>2015-05-01T14:42:16.0000000+00:00</time></trkpt><trkpt lat="35.0018027" lon="33.4947134"><ele>237.4</ele><time>2015-05-01T14:42:18.0000000+00:00</time></trkpt><trkpt lat="35.0018068" lon="33.4947752"><ele>237.2</ele><time>2015-05-01T14:42:19.0000000+00:00</time></trkpt><trkpt lat="35.0018118" lon="33.4948898"><ele>237.1</ele><time>2015-05-01T14:42:21.0000000+00:00</time></trkpt><trkpt lat="35.0018159" lon="33.4949576"><ele>237.0</ele><time>2015-05-01T14:42:22.0000000+00:00</time></trkpt><trkpt lat="35.0018348" lon="33.4950712"><ele>237.0</ele><time>2015-05-01T14:42:24.0000000+00:00</time></trkpt><trkpt lat="35.001836" lon="33.4951311"><ele>237.0</ele><time>2015-05-01T14:42:25.0000000+00:00</time></trkpt><trkpt lat="35.0018505" lon="33.4951853"><ele>237.0</ele><time>2015-05-01T14:42:26.0000000+00:00</time></trkpt><trkpt lat="35.0018636" lon="33.4952414"><ele>236.5</ele><time>2015-05-01T14:42:27.0000000+00:00</time></trkpt><trkpt lat="35.0018714" lon="33.495304"><ele>236.8</ele><time>2015-05-01T14:42:28.0000000+00:00</time></trkpt><trkpt lat="35.0018805" lon="33.4953651"><ele>236.9</ele><time>2015-05-01T14:42:29.0000000+00:00</time></trkpt><trkpt lat="35.0018843" lon="33.495425"><ele>237.0</ele><time>2015-05-01T14:42:30.0000000+00:00</time></trkpt><trkpt lat="35.0018946" lon="33.4954799"><ele>237.0</ele><time>2015-05-01T14:42:31.0000000+00:00</time></trkpt><trkpt lat="35.0019067" lon="33.4955381"><ele>237.0</ele><time>2015-05-01T14:42:32.0000000+00:00</time></trkpt><trkpt lat="35.0019239" lon="33.495638"><ele>237.5</ele><time>2015-05-01T14:42:34.0000000+00:00</time></trkpt><trkpt lat="35.0019351" lon="33.4957415"><ele>237.4</ele><time>2015-05-01T14:42:36.0000000+00:00</time></trkpt><trkpt lat="35.0019405" lon="33.4958071"><ele>237.2</ele><time>2015-05-01T14:42:37.0000000+00:00</time></trkpt><trkpt lat="35.001942" lon="33.4958651"><ele>237.1</ele><time>2015-05-01T14:42:38.0000000+00:00</time></trkpt><trkpt lat="35.0019508" lon="33.4959269"><ele>237.1</ele><time>2015-05-01T14:42:39.0000000+00:00</time></trkpt><trkpt lat="35.0019569" lon="33.495987"><ele>237.0</ele><time>2015-05-01T14:42:40.0000000+00:00</time></trkpt><trkpt lat="35.0019615" lon="33.4960456"><ele>237.5</ele><time>2015-05-01T14:42:41.0000000+00:00</time></trkpt><trkpt lat="35.0019718" lon="33.4961078"><ele>237.8</ele><time>2015-05-01T14:42:42.0000000+00:00</time></trkpt><trkpt lat="35.0019834" lon="33.4961737"><ele>237.4</ele><time>2015-05-01T14:42:43.0000000+00:00</time></trkpt><trkpt lat="35.0019927" lon="33.4962425"><ele>237.7</ele><time>2015-05-01T14:42:44.0000000+00:00</time></trkpt><trkpt lat="35.0019899" lon="33.4963086"><ele>237.9</ele><time>2015-05-01T14:42:45.0000000+00:00</time></trkpt><trkpt lat="35.0020005" lon="33.4963745"><ele>238.4</ele><time>2015-05-01T14:42:46.0000000+00:00</time></trkpt><trkpt lat="35.0020091" lon="33.4964433"><ele>238.2</ele><time>2015-05-01T14:42:47.0000000+00:00</time></trkpt><trkpt lat="35.002023" lon="33.4965164"><ele>238.1</ele><time>2015-05-01T14:42:48.0000000+00:00</time></trkpt><trkpt lat="35.0020337" lon="33.4965918"><ele>238.1</ele><time>2015-05-01T14:42:49.0000000+00:00</time></trkpt><trkpt lat="35.0020486" lon="33.4966581"><ele>238.0</ele><time>2015-05-01T14:42:50.0000000+00:00</time></trkpt><trkpt lat="35.0020567" lon="33.4967214"><ele>238.0</ele><time>2015-05-01T14:42:51.0000000+00:00</time></trkpt><trkpt lat="35.0020629" lon="33.4968029"><ele>238.5</ele><time>2015-05-01T14:42:52.0000000+00:00</time></trkpt><trkpt lat="35.0020754" lon="33.4968819"><ele>238.8</ele><time>2015-05-01T14:42:53.0000000+00:00</time></trkpt><trkpt lat="35.0020872" lon="33.496957"><ele>238.4</ele><time>2015-05-01T14:42:54.0000000+00:00</time></trkpt><trkpt lat="35.0020925" lon="33.497074"><ele>238.6</ele><time>2015-05-01T14:42:56.0000000+00:00</time></trkpt><trkpt lat="35.0021032" lon="33.4971298"><ele>238.3</ele><time>2015-05-01T14:42:57.0000000+00:00</time></trkpt><trkpt lat="35.0021173" lon="33.4971856"><ele>238.2</ele><time>2015-05-01T14:42:58.0000000+00:00</time></trkpt><trkpt lat="35.0021319" lon="33.4972942"><ele>238.1</ele><time>2015-05-01T14:43:00.0000000+00:00</time></trkpt><trkpt lat="35.0021352" lon="33.4973531"><ele>238.0</ele><time>2015-05-01T14:43:01.0000000+00:00</time></trkpt><trkpt lat="35.0021392" lon="33.4974554"><ele>238.0</ele><time>2015-05-01T14:43:03.0000000+00:00</time></trkpt><trkpt lat="35.0021459" lon="33.4975133"><ele>238.0</ele><time>2015-05-01T14:43:04.0000000+00:00</time></trkpt><trkpt lat="35.0021526" lon="33.4975718"><ele>238.0</ele><time>2015-05-01T14:43:05.0000000+00:00</time></trkpt><trkpt lat="35.0021613" lon="33.4976307"><ele>238.0</ele><time>2015-05-01T14:43:06.0000000+00:00</time></trkpt><trkpt lat="35.0021737" lon="33.4976839"><ele>238.5</ele><time>2015-05-01T14:43:07.0000000+00:00</time></trkpt><trkpt lat="35.0021723" lon="33.4977944"><ele>236.9</ele><time>2015-05-01T14:43:09.0000000+00:00</time></trkpt><trkpt lat="35.0021862" lon="33.4978484"><ele>236.0</ele><time>2015-05-01T14:43:10.0000000+00:00</time></trkpt><trkpt lat="35.0021922" lon="33.4979101"><ele>235.5</ele><time>2015-05-01T14:43:11.0000000+00:00</time></trkpt><trkpt lat="35.002198" lon="33.4979664"><ele>235.3</ele><time>2015-05-01T14:43:12.0000000+00:00</time></trkpt><trkpt lat="35.0022035" lon="33.4980302"><ele>235.1</ele><time>2015-05-01T14:43:13.0000000+00:00</time></trkpt><trkpt lat="35.0022093" lon="33.498095"><ele>235.1</ele><time>2015-05-01T14:43:14.0000000+00:00</time></trkpt><trkpt lat="35.0022253" lon="33.4982107"><ele>236.3</ele><time>2015-05-01T14:43:16.0000000+00:00</time></trkpt><trkpt lat="35.0022315" lon="33.4982682"><ele>236.7</ele><time>2015-05-01T14:43:17.0000000+00:00</time></trkpt><trkpt lat="35.0022402" lon="33.4983243"><ele>237.3</ele><time>2015-05-01T14:43:18.0000000+00:00</time></trkpt><trkpt lat="35.0022426" lon="33.4984145"><ele>237.9</ele><time>2015-05-01T14:43:20.0000000+00:00</time></trkpt><trkpt lat="35.0022546" lon="33.498499"><ele>238.0</ele><time>2015-05-01T14:43:22.0000000+00:00</time></trkpt><trkpt lat="35.0022698" lon="33.4985679"><ele>238.8</ele><time>2015-05-01T14:43:24.0000000+00:00</time></trkpt><trkpt lat="35.0022734" lon="33.4986524"><ele>238.2</ele><time>2015-05-01T14:43:26.0000000+00:00</time></trkpt><trkpt lat="35.0022843" lon="33.4987395"><ele>236.8</ele><time>2015-05-01T14:43:28.0000000+00:00</time></trkpt><trkpt lat="35.0022973" lon="33.4988283"><ele>237.0</ele><time>2015-05-01T14:43:30.0000000+00:00</time></trkpt><trkpt lat="35.0023132" lon="33.4989182"><ele>236.3</ele><time>2015-05-01T14:43:32.0000000+00:00</time></trkpt><trkpt lat="35.0023258" lon="33.4990117"><ele>236.1</ele><time>2015-05-01T14:43:34.0000000+00:00</time></trkpt><trkpt lat="35.0023401" lon="33.4991086"><ele>236.3</ele><time>2015-05-01T14:43:36.0000000+00:00</time></trkpt><trkpt lat="35.0023534" lon="33.4992013"><ele>236.1</ele><time>2015-05-01T14:43:38.0000000+00:00</time></trkpt><trkpt lat="35.0023638" lon="33.4992931"><ele>235.5</ele><time>2015-05-01T14:43:40.0000000+00:00</time></trkpt><trkpt lat="35.0023785" lon="33.4993679"><ele>235.7</ele><time>2015-05-01T14:43:42.0000000+00:00</time></trkpt><trkpt lat="35.002404" lon="33.4994226"><ele>236.0</ele><time>2015-05-01T14:43:45.0000000+00:00</time></trkpt><trkpt lat="35.0024083" lon="33.4994779"><ele>237.6</ele><time>2015-05-01T14:44:14.0000000+00:00</time></trkpt><trkpt lat="35.002419" lon="33.4995327"><ele>236.9</ele><time>2015-05-01T14:44:28.0000000+00:00</time></trkpt><trkpt lat="35.0023854" lon="33.4995913"><ele>236.3</ele><time>2015-05-01T14:44:31.0000000+00:00</time></trkpt><trkpt lat="35.0023302" lon="33.4996296"><ele>235.3</ele><time>2015-05-01T14:44:33.0000000+00:00</time></trkpt><trkpt lat="35.0022598" lon="33.4996696"><ele>234.3</ele><time>2015-05-01T14:44:35.0000000+00:00</time></trkpt><trkpt lat="35.0022134" lon="33.4996934"><ele>234.7</ele><time>2015-05-01T14:44:36.0000000+00:00</time></trkpt><trkpt lat="35.0021453" lon="33.4997239"><ele>235.4</ele><time>2015-05-01T14:44:37.0000000+00:00</time></trkpt><trkpt lat="35.0020966" lon="33.4997622"><ele>235.2</ele><time>2015-05-01T14:44:38.0000000+00:00</time></trkpt><trkpt lat="35.0020092" lon="33.499829"><ele>234.6</ele><time>2015-05-01T14:44:40.0000000+00:00</time></trkpt><trkpt lat="35.0019576" lon="33.4998642"><ele>234.3</ele><time>2015-05-01T14:44:41.0000000+00:00</time></trkpt><trkpt lat="35.0018986" lon="33.4998985"><ele>233.7</ele><time>2015-05-01T14:44:42.0000000+00:00</time></trkpt><trkpt lat="35.0018462" lon="33.4999327"><ele>233.3</ele><time>2015-05-01T14:44:43.0000000+00:00</time></trkpt><trkpt lat="35.0017908" lon="33.4999673"><ele>232.7</ele><time>2015-05-01T14:44:44.0000000+00:00</time></trkpt><trkpt lat="35.0017354" lon="33.5000104"><ele>231.9</ele><time>2015-05-01T14:44:45.0000000+00:00</time></trkpt><trkpt lat="35.0016723" lon="33.5000535"><ele>231.4</ele><time>2015-05-01T14:44:46.0000000+00:00</time></trkpt><trkpt lat="35.0016166" lon="33.5000928"><ele>230.7</ele><time>2015-05-01T14:44:47.0000000+00:00</time></trkpt><trkpt lat="35.0015539" lon="33.5001348"><ele>229.9</ele><time>2015-05-01T14:44:48.0000000+00:00</time></trkpt><trkpt lat="35.0014909" lon="33.500173"><ele>229.9</ele><time>2015-05-01T14:44:49.0000000+00:00</time></trkpt><trkpt lat="35.0014178" lon="33.5002135"><ele>230.5</ele><time>2015-05-01T14:44:50.0000000+00:00</time></trkpt><trkpt lat="35.0013504" lon="33.5002548"><ele>230.3</ele><time>2015-05-01T14:44:51.0000000+00:00</time></trkpt><trkpt lat="35.0012811" lon="33.5002864"><ele>230.1</ele><time>2015-05-01T14:44:52.0000000+00:00</time></trkpt><trkpt lat="35.0012147" lon="33.5003313"><ele>230.1</ele><time>2015-05-01T14:44:53.0000000+00:00</time></trkpt><trkpt lat="35.0011394" lon="33.50037"><ele>230.0</ele><time>2015-05-01T14:44:54.0000000+00:00</time></trkpt><trkpt lat="35.0010741" lon="33.5004126"><ele>229.5</ele><time>2015-05-01T14:44:55.0000000+00:00</time></trkpt><trkpt lat="35.0010085" lon="33.5004516"><ele>229.3</ele><time>2015-05-01T14:44:56.0000000+00:00</time></trkpt><trkpt lat="35.0009355" lon="33.5004854"><ele>229.1</ele><time>2015-05-01T14:44:57.0000000+00:00</time></trkpt><trkpt lat="35.0008587" lon="33.5005148"><ele>228.6</ele><time>2015-05-01T14:44:58.0000000+00:00</time></trkpt><trkpt lat="35.0007998" lon="33.5005495"><ele>228.8</ele><time>2015-05-01T14:44:59.0000000+00:00</time></trkpt><trkpt lat="35.0007284" lon="33.5005685"><ele>228.9</ele><time>2015-05-01T14:45:00.0000000+00:00</time></trkpt><trkpt lat="35.0006561" lon="33.5006184"><ele>229.0</ele><time>2015-05-01T14:45:01.0000000+00:00</time></trkpt><trkpt lat="35.0005896" lon="33.5006596"><ele>229.0</ele><time>2015-05-01T14:45:02.0000000+00:00</time></trkpt><trkpt lat="35.0005308" lon="33.5007002"><ele>229.5</ele><time>2015-05-01T14:45:03.0000000+00:00</time></trkpt><trkpt lat="35.0004683" lon="33.5007415"><ele>229.3</ele><time>2015-05-01T14:45:04.0000000+00:00</time></trkpt><trkpt lat="35.0004002" lon="33.5007784"><ele>229.1</ele><time>2015-05-01T14:45:05.0000000+00:00</time></trkpt><trkpt lat="35.0003319" lon="33.5008182"><ele>229.1</ele><time>2015-05-01T14:45:06.0000000+00:00</time></trkpt><trkpt lat="35.0002671" lon="33.5008599"><ele>228.6</ele><time>2015-05-01T14:45:07.0000000+00:00</time></trkpt><trkpt lat="35.0001966" lon="33.5008931"><ele>227.8</ele><time>2015-05-01T14:45:08.0000000+00:00</time></trkpt><trkpt lat="35.0001386" lon="33.5009334"><ele>227.4</ele><time>2015-05-01T14:45:09.0000000+00:00</time></trkpt><trkpt lat="35.0000751" lon="33.5009741"><ele>227.2</ele><time>2015-05-01T14:45:10.0000000+00:00</time></trkpt><trkpt lat="35.0000196" lon="33.501011"><ele>227.6</ele><time>2015-05-01T14:45:11.0000000+00:00</time></trkpt><trkpt lat="34.9999591" lon="33.5010496"><ele>227.8</ele><time>2015-05-01T14:45:12.0000000+00:00</time></trkpt><trkpt lat="34.9998976" lon="33.5010876"><ele>227.9</ele><time>2015-05-01T14:45:13.0000000+00:00</time></trkpt><trkpt lat="34.9998421" lon="33.5011199"><ele>228.0</ele><time>2015-05-01T14:45:14.0000000+00:00</time></trkpt><trkpt lat="34.9997857" lon="33.5011523"><ele>228.5</ele><time>2015-05-01T14:45:15.0000000+00:00</time></trkpt><trkpt lat="34.9997281" lon="33.5011906"><ele>228.8</ele><time>2015-05-01T14:45:16.0000000+00:00</time></trkpt><trkpt lat="34.9996711" lon="33.5012251"><ele>228.9</ele><time>2015-05-01T14:45:17.0000000+00:00</time></trkpt><trkpt lat="34.9996094" lon="33.5012646"><ele>228.5</ele><time>2015-05-01T14:45:18.0000000+00:00</time></trkpt><trkpt lat="34.9995558" lon="33.5012986"><ele>228.2</ele><time>2015-05-01T14:45:19.0000000+00:00</time></trkpt><trkpt lat="34.999492" lon="33.5013319"><ele>227.6</ele><time>2015-05-01T14:45:20.0000000+00:00</time></trkpt><trkpt lat="34.9994237" lon="33.5013641"><ele>227.8</ele><time>2015-05-01T14:45:21.0000000+00:00</time></trkpt><trkpt lat="34.9993618" lon="33.5014082"><ele>227.9</ele><time>2015-05-01T14:45:22.0000000+00:00</time></trkpt><trkpt lat="34.9992976" lon="33.5014526"><ele>228.5</ele><time>2015-05-01T14:45:23.0000000+00:00</time></trkpt><trkpt lat="34.9992322" lon="33.5014957"><ele>228.7</ele><time>2015-05-01T14:45:24.0000000+00:00</time></trkpt><trkpt lat="34.9991706" lon="33.5015315"><ele>228.9</ele><time>2015-05-01T14:45:25.0000000+00:00</time></trkpt><trkpt lat="34.9991147" lon="33.5015709"><ele>229.0</ele><time>2015-05-01T14:45:26.0000000+00:00</time></trkpt><trkpt lat="34.9990637" lon="33.501619"><ele>228.5</ele><time>2015-05-01T14:45:27.0000000+00:00</time></trkpt><trkpt lat="34.9990065" lon="33.5016607"><ele>228.3</ele><time>2015-05-01T14:45:28.0000000+00:00</time></trkpt><trkpt lat="34.9989463" lon="33.501694"><ele>228.1</ele><time>2015-05-01T14:45:29.0000000+00:00</time></trkpt><trkpt lat="34.9988869" lon="33.5017279"><ele>228.1</ele><time>2015-05-01T14:45:30.0000000+00:00</time></trkpt><trkpt lat="34.9988273" lon="33.5017676"><ele>228.1</ele><time>2015-05-01T14:45:31.0000000+00:00</time></trkpt><trkpt lat="34.9987605" lon="33.5018053"><ele>228.5</ele><time>2015-05-01T14:45:32.0000000+00:00</time></trkpt><trkpt lat="34.9987079" lon="33.5018357"><ele>228.8</ele><time>2015-05-01T14:45:33.0000000+00:00</time></trkpt><trkpt lat="34.9986519" lon="33.5018695"><ele>228.4</ele><time>2015-05-01T14:45:34.0000000+00:00</time></trkpt><trkpt lat="34.9986015" lon="33.5019052"><ele>228.2</ele><time>2015-05-01T14:45:35.0000000+00:00</time></trkpt><trkpt lat="34.9985457" lon="33.5019461"><ele>228.1</ele><time>2015-05-01T14:45:36.0000000+00:00</time></trkpt><trkpt lat="34.9984905" lon="33.501972"><ele>228.1</ele><time>2015-05-01T14:45:37.0000000+00:00</time></trkpt><trkpt lat="34.9984326" lon="33.5020005"><ele>227.5</ele><time>2015-05-01T14:45:38.0000000+00:00</time></trkpt><trkpt lat="34.9983822" lon="33.5020329"><ele>227.3</ele><time>2015-05-01T14:45:39.0000000+00:00</time></trkpt><trkpt lat="34.9983273" lon="33.5020642"><ele>226.7</ele><time>2015-05-01T14:45:40.0000000+00:00</time></trkpt><trkpt lat="34.998266" lon="33.502099"><ele>226.8</ele><time>2015-05-01T14:45:41.0000000+00:00</time></trkpt><trkpt lat="34.9982118" lon="33.5021371"><ele>227.4</ele><time>2015-05-01T14:45:42.0000000+00:00</time></trkpt><trkpt lat="34.9981608" lon="33.5021676"><ele>227.7</ele><time>2015-05-01T14:45:43.0000000+00:00</time></trkpt><trkpt lat="34.9980994" lon="33.5022096"><ele>227.9</ele><time>2015-05-01T14:45:44.0000000+00:00</time></trkpt><trkpt lat="34.998041" lon="33.5022463"><ele>227.9</ele><time>2015-05-01T14:45:45.0000000+00:00</time></trkpt><trkpt lat="34.9979822" lon="33.5022893"><ele>228.0</ele><time>2015-05-01T14:45:46.0000000+00:00</time></trkpt><trkpt lat="34.9979336" lon="33.5023248"><ele>227.5</ele><time>2015-05-01T14:45:47.0000000+00:00</time></trkpt><trkpt lat="34.9978736" lon="33.5023691"><ele>227.8</ele><time>2015-05-01T14:45:48.0000000+00:00</time></trkpt><trkpt lat="34.9978117" lon="33.5024086"><ele>227.4</ele><time>2015-05-01T14:45:49.0000000+00:00</time></trkpt><trkpt lat="34.9977574" lon="33.5024531"><ele>227.7</ele><time>2015-05-01T14:45:50.0000000+00:00</time></trkpt><trkpt lat="34.9976988" lon="33.5025001"><ele>227.9</ele><time>2015-05-01T14:45:51.0000000+00:00</time></trkpt><trkpt lat="34.9976505" lon="33.5025432"><ele>227.9</ele><time>2015-05-01T14:45:52.0000000+00:00</time></trkpt><trkpt lat="34.9975985" lon="33.5025907"><ele>227.5</ele><time>2015-05-01T14:45:53.0000000+00:00</time></trkpt><trkpt lat="34.997544" lon="33.5026458"><ele>227.3</ele><time>2015-05-01T14:45:54.0000000+00:00</time></trkpt><trkpt lat="34.9974891" lon="33.5026932"><ele>227.1</ele><time>2015-05-01T14:45:55.0000000+00:00</time></trkpt><trkpt lat="34.9974323" lon="33.5027436"><ele>227.1</ele><time>2015-05-01T14:45:56.0000000+00:00</time></trkpt><trkpt lat="34.9973784" lon="33.502783"><ele>227.0</ele><time>2015-05-01T14:45:57.0000000+00:00</time></trkpt><trkpt lat="34.9973232" lon="33.5028351"><ele>227.0</ele><time>2015-05-01T14:45:58.0000000+00:00</time></trkpt><trkpt lat="34.9972668" lon="33.5028841"><ele>226.5</ele><time>2015-05-01T14:45:59.0000000+00:00</time></trkpt><trkpt lat="34.9972056" lon="33.5029369"><ele>225.8</ele><time>2015-05-01T14:46:00.0000000+00:00</time></trkpt><trkpt lat="34.9971482" lon="33.5029918"><ele>224.9</ele><time>2015-05-01T14:46:01.0000000+00:00</time></trkpt><trkpt lat="34.9970885" lon="33.5030493"><ele>224.5</ele><time>2015-05-01T14:46:02.0000000+00:00</time></trkpt><trkpt lat="34.9970321" lon="33.503104"><ele>224.2</ele><time>2015-05-01T14:46:03.0000000+00:00</time></trkpt><trkpt lat="34.9969776" lon="33.5031591"><ele>224.1</ele><time>2015-05-01T14:46:04.0000000+00:00</time></trkpt><trkpt lat="34.996926" lon="33.503222"><ele>224.1</ele><time>2015-05-01T14:46:05.0000000+00:00</time></trkpt><trkpt lat="34.9968711" lon="33.5032841"><ele>224.0</ele><time>2015-05-01T14:46:06.0000000+00:00</time></trkpt><trkpt lat="34.9968168" lon="33.5033389"><ele>223.5</ele><time>2015-05-01T14:46:07.0000000+00:00</time></trkpt><trkpt lat="34.9967555" lon="33.5033979"><ele>224.3</ele><time>2015-05-01T14:46:08.0000000+00:00</time></trkpt><trkpt lat="34.9966987" lon="33.5034539"><ele>224.6</ele><time>2015-05-01T14:46:09.0000000+00:00</time></trkpt><trkpt lat="34.9966462" lon="33.5035077"><ele>224.8</ele><time>2015-05-01T14:46:10.0000000+00:00</time></trkpt><trkpt lat="34.9965891" lon="33.5035702"><ele>224.9</ele><time>2015-05-01T14:46:11.0000000+00:00</time></trkpt><trkpt lat="34.9965354" lon="33.5036347"><ele>225.5</ele><time>2015-05-01T14:46:12.0000000+00:00</time></trkpt><trkpt lat="34.9964838" lon="33.5036942"><ele>225.7</ele><time>2015-05-01T14:46:13.0000000+00:00</time></trkpt><trkpt lat="34.9964278" lon="33.5037561"><ele>225.9</ele><time>2015-05-01T14:46:14.0000000+00:00</time></trkpt><trkpt lat="34.9963761" lon="33.5038072"><ele>226.0</ele><time>2015-05-01T14:46:15.0000000+00:00</time></trkpt><trkpt lat="34.9963215" lon="33.5038614"><ele>226.0</ele><time>2015-05-01T14:46:16.0000000+00:00</time></trkpt><trkpt lat="34.9962772" lon="33.5039241"><ele>226.0</ele><time>2015-05-01T14:46:17.0000000+00:00</time></trkpt><trkpt lat="34.996233" lon="33.5039902"><ele>226.0</ele><time>2015-05-01T14:46:18.0000000+00:00</time></trkpt><trkpt lat="34.9961881" lon="33.5040548"><ele>226.0</ele><time>2015-05-01T14:46:19.0000000+00:00</time></trkpt><trkpt lat="34.9961326" lon="33.5041173"><ele>225.5</ele><time>2015-05-01T14:46:20.0000000+00:00</time></trkpt><trkpt lat="34.9960854" lon="33.5041645"><ele>225.3</ele><time>2015-05-01T14:46:21.0000000+00:00</time></trkpt><trkpt lat="34.9960367" lon="33.5042391"><ele>224.6</ele><time>2015-05-01T14:46:22.0000000+00:00</time></trkpt><trkpt lat="34.995986" lon="33.5043088"><ele>224.3</ele><time>2015-05-01T14:46:23.0000000+00:00</time></trkpt><trkpt lat="34.9959305" lon="33.5043819"><ele>223.7</ele><time>2015-05-01T14:46:24.0000000+00:00</time></trkpt><trkpt lat="34.9958795" lon="33.5044482"><ele>226.8</ele><time>2015-05-01T14:46:25.0000000+00:00</time></trkpt><trkpt lat="34.9958326" lon="33.5045194"><ele>228.9</ele><time>2015-05-01T14:46:26.0000000+00:00</time></trkpt><trkpt lat="34.9957793" lon="33.5045855"><ele>230.5</ele><time>2015-05-01T14:46:27.0000000+00:00</time></trkpt><trkpt lat="34.995723" lon="33.5046558"><ele>231.2</ele><time>2015-05-01T14:46:28.0000000+00:00</time></trkpt><trkpt lat="34.9956618" lon="33.5047244"><ele>231.6</ele><time>2015-05-01T14:46:29.0000000+00:00</time></trkpt><trkpt lat="34.9956035" lon="33.5047959"><ele>231.3</ele><time>2015-05-01T14:46:30.0000000+00:00</time></trkpt><trkpt lat="34.9955446" lon="33.5048669"><ele>231.2</ele><time>2015-05-01T14:46:31.0000000+00:00</time></trkpt><trkpt lat="34.9954826" lon="33.504939"><ele>230.6</ele><time>2015-05-01T14:46:32.0000000+00:00</time></trkpt><trkpt lat="34.9954292" lon="33.5049982"><ele>230.3</ele><time>2015-05-01T14:46:33.0000000+00:00</time></trkpt><trkpt lat="34.9953721" lon="33.5050676"><ele>230.7</ele><time>2015-05-01T14:46:34.0000000+00:00</time></trkpt><trkpt lat="34.9953178" lon="33.5051271"><ele>230.8</ele><time>2015-05-01T14:46:35.0000000+00:00</time></trkpt><trkpt lat="34.9952726" lon="33.5052064"><ele>230.9</ele><time>2015-05-01T14:46:36.0000000+00:00</time></trkpt><trkpt lat="34.9952222" lon="33.5052738"><ele>231.5</ele><time>2015-05-01T14:46:37.0000000+00:00</time></trkpt><trkpt lat="34.9951758" lon="33.5053376"><ele>231.7</ele><time>2015-05-01T14:46:38.0000000+00:00</time></trkpt><trkpt lat="34.9951239" lon="33.5053952"><ele>231.9</ele><time>2015-05-01T14:46:39.0000000+00:00</time></trkpt><trkpt lat="34.9950671" lon="33.5054617"><ele>231.5</ele><time>2015-05-01T14:46:40.0000000+00:00</time></trkpt><trkpt lat="34.9950101" lon="33.5055285"><ele>231.2</ele><time>2015-05-01T14:46:41.0000000+00:00</time></trkpt><trkpt lat="34.9949643" lon="33.5055906"><ele>231.1</ele><time>2015-05-01T14:46:42.0000000+00:00</time></trkpt><trkpt lat="34.9949041" lon="33.5056564"><ele>231.6</ele><time>2015-05-01T14:46:43.0000000+00:00</time></trkpt><trkpt lat="34.9948418" lon="33.5057255"><ele>231.3</ele><time>2015-05-01T14:46:44.0000000+00:00</time></trkpt><trkpt lat="34.9947857" lon="33.5057954"><ele>231.2</ele><time>2015-05-01T14:46:45.0000000+00:00</time></trkpt><trkpt lat="34.9947344" lon="33.5058518"><ele>231.1</ele><time>2015-05-01T14:46:46.0000000+00:00</time></trkpt><trkpt lat="34.9946873" lon="33.5059102"><ele>230.1</ele><time>2015-05-01T14:46:47.0000000+00:00</time></trkpt><trkpt lat="34.9946363" lon="33.5059672"><ele>229.5</ele><time>2015-05-01T14:46:48.0000000+00:00</time></trkpt><trkpt lat="34.9945877" lon="33.5060266"><ele>229.8</ele><time>2015-05-01T14:46:49.0000000+00:00</time></trkpt><trkpt lat="34.9945276" lon="33.5060875"><ele>229.4</ele><time>2015-05-01T14:46:50.0000000+00:00</time></trkpt><trkpt lat="34.9944711" lon="33.5061513"><ele>229.2</ele><time>2015-05-01T14:46:51.0000000+00:00</time></trkpt><trkpt lat="34.9944097" lon="33.506218"><ele>229.6</ele><time>2015-05-01T14:46:52.0000000+00:00</time></trkpt><trkpt lat="34.9943519" lon="33.5062786"><ele>229.8</ele><time>2015-05-01T14:46:53.0000000+00:00</time></trkpt><trkpt lat="34.9942953" lon="33.5063317"><ele>229.9</ele><time>2015-05-01T14:46:54.0000000+00:00</time></trkpt><trkpt lat="34.9942398" lon="33.5063874"><ele>230.0</ele><time>2015-05-01T14:46:55.0000000+00:00</time></trkpt><trkpt lat="34.9941899" lon="33.5064518"><ele>229.5</ele><time>2015-05-01T14:46:56.0000000+00:00</time></trkpt><trkpt lat="34.9941222" lon="33.5064933"><ele>229.3</ele><time>2015-05-01T14:46:57.0000000+00:00</time></trkpt><trkpt lat="34.9940582" lon="33.5065293"><ele>228.6</ele><time>2015-05-01T14:46:58.0000000+00:00</time></trkpt><trkpt lat="34.9940064" lon="33.5065822"><ele>228.3</ele><time>2015-05-01T14:46:59.0000000+00:00</time></trkpt><trkpt lat="34.9939418" lon="33.5066318"><ele>228.2</ele><time>2015-05-01T14:47:00.0000000+00:00</time></trkpt><trkpt lat="34.9938755" lon="33.5066785"><ele>228.1</ele><time>2015-05-01T14:47:01.0000000+00:00</time></trkpt><trkpt lat="34.993815" lon="33.5067231"><ele>228.1</ele><time>2015-05-01T14:47:02.0000000+00:00</time></trkpt><trkpt lat="34.9937471" lon="33.5067496"><ele>227.5</ele><time>2015-05-01T14:47:03.0000000+00:00</time></trkpt><trkpt lat="34.9936756" lon="33.506793"><ele>227.8</ele><time>2015-05-01T14:47:04.0000000+00:00</time></trkpt><trkpt lat="34.9936097" lon="33.5068218"><ele>227.4</ele><time>2015-05-01T14:47:05.0000000+00:00</time></trkpt><trkpt lat="34.9935399" lon="33.5068625"><ele>227.2</ele><time>2015-05-01T14:47:06.0000000+00:00</time></trkpt><trkpt lat="34.9934655" lon="33.506903"><ele>227.1</ele><time>2015-05-01T14:47:07.0000000+00:00</time></trkpt><trkpt lat="34.9933845" lon="33.5069378"><ele>226.6</ele><time>2015-05-01T14:47:08.0000000+00:00</time></trkpt><trkpt lat="34.9933108" lon="33.5069722"><ele>225.8</ele><time>2015-05-01T14:47:09.0000000+00:00</time></trkpt><trkpt lat="34.9932397" lon="33.5070005"><ele>225.4</ele><time>2015-05-01T14:47:10.0000000+00:00</time></trkpt><trkpt lat="34.9931731" lon="33.5070309"><ele>225.2</ele><time>2015-05-01T14:47:11.0000000+00:00</time></trkpt><trkpt lat="34.9930884" lon="33.5070647"><ele>224.6</ele><time>2015-05-01T14:47:12.0000000+00:00</time></trkpt><trkpt lat="34.9930132" lon="33.5070968"><ele>223.8</ele><time>2015-05-01T14:47:13.0000000+00:00</time></trkpt><trkpt lat="34.9929367" lon="33.5071276"><ele>223.9</ele><time>2015-05-01T14:47:14.0000000+00:00</time></trkpt><trkpt lat="34.9928596" lon="33.5071652"><ele>224.5</ele><time>2015-05-01T14:47:15.0000000+00:00</time></trkpt><trkpt lat="34.9927782" lon="33.507202"><ele>224.7</ele><time>2015-05-01T14:47:16.0000000+00:00</time></trkpt><trkpt lat="34.992696" lon="33.5072352"><ele>224.4</ele><time>2015-05-01T14:47:17.0000000+00:00</time></trkpt><trkpt lat="34.9926052" lon="33.507263"><ele>224.2</ele><time>2015-05-01T14:47:18.0000000+00:00</time></trkpt><trkpt lat="34.9925307" lon="33.5073041"><ele>224.1</ele><time>2015-05-01T14:47:19.0000000+00:00</time></trkpt><trkpt lat="34.9924482" lon="33.507337"><ele>223.6</ele><time>2015-05-01T14:47:20.0000000+00:00</time></trkpt><trkpt lat="34.9923648" lon="33.5073601"><ele>223.3</ele><time>2015-05-01T14:47:21.0000000+00:00</time></trkpt><trkpt lat="34.9922837" lon="33.5073952"><ele>223.7</ele><time>2015-05-01T14:47:22.0000000+00:00</time></trkpt><trkpt lat="34.9921911" lon="33.507434"><ele>224.3</ele><time>2015-05-01T14:47:23.0000000+00:00</time></trkpt><trkpt lat="34.9920957" lon="33.5074724"><ele>225.2</ele><time>2015-05-01T14:47:24.0000000+00:00</time></trkpt><trkpt lat="34.9919906" lon="33.5075117"><ele>225.1</ele><time>2015-05-01T14:47:25.0000000+00:00</time></trkpt><trkpt lat="34.9918734" lon="33.5075545"><ele>225.1</ele><time>2015-05-01T14:47:26.0000000+00:00</time></trkpt><trkpt lat="34.9917614" lon="33.5075977"><ele>224.5</ele><time>2015-05-01T14:47:27.0000000+00:00</time></trkpt><trkpt lat="34.9916405" lon="33.5076412"><ele>224.8</ele><time>2015-05-01T14:47:28.0000000+00:00</time></trkpt><trkpt lat="34.9915193" lon="33.507692"><ele>223.9</ele><time>2015-05-01T14:47:29.0000000+00:00</time></trkpt><trkpt lat="34.9913866" lon="33.5077394"><ele>224.0</ele><time>2015-05-01T14:47:30.0000000+00:00</time></trkpt><trkpt lat="34.9912565" lon="33.5077969"><ele>223.0</ele><time>2015-05-01T14:47:31.0000000+00:00</time></trkpt><trkpt lat="34.9911172" lon="33.5078557"><ele>222.5</ele><time>2015-05-01T14:47:32.0000000+00:00</time></trkpt><trkpt lat="34.9909884" lon="33.5079099"><ele>221.8</ele><time>2015-05-01T14:47:33.0000000+00:00</time></trkpt><trkpt lat="34.9908566" lon="33.5079649"><ele>220.9</ele><time>2015-05-01T14:47:34.0000000+00:00</time></trkpt><trkpt lat="34.9907229" lon="33.5080049"><ele>221.0</ele><time>2015-05-01T14:47:35.0000000+00:00</time></trkpt><trkpt lat="34.9905901" lon="33.508072"><ele>221.0</ele><time>2015-05-01T14:47:36.0000000+00:00</time></trkpt><trkpt lat="34.990466" lon="33.5081185"><ele>220.0</ele><time>2015-05-01T14:47:37.0000000+00:00</time></trkpt><trkpt lat="34.9903403" lon="33.5081693"><ele>220.5</ele><time>2015-05-01T14:47:38.0000000+00:00</time></trkpt><trkpt lat="34.9902214" lon="33.5082202"><ele>220.8</ele><time>2015-05-01T14:47:39.0000000+00:00</time></trkpt><trkpt lat="34.99009" lon="33.5082703"><ele>221.9</ele><time>2015-05-01T14:47:40.0000000+00:00</time></trkpt><trkpt lat="34.9899685" lon="33.5083261"><ele>222.0</ele><time>2015-05-01T14:47:41.0000000+00:00</time></trkpt><trkpt lat="34.9898403" lon="33.5083796"><ele>222.0</ele><time>2015-05-01T14:47:42.0000000+00:00</time></trkpt><trkpt lat="34.9897208" lon="33.5084227"><ele>222.5</ele><time>2015-05-01T14:47:43.0000000+00:00</time></trkpt><trkpt lat="34.9895967" lon="33.5084757"><ele>223.3</ele><time>2015-05-01T14:47:44.0000000+00:00</time></trkpt><trkpt lat="34.9894807" lon="33.508531"><ele>224.1</ele><time>2015-05-01T14:47:45.0000000+00:00</time></trkpt><trkpt lat="34.9893587" lon="33.508583"><ele>225.1</ele><time>2015-05-01T14:47:46.0000000+00:00</time></trkpt><trkpt lat="34.9892439" lon="33.5086228"><ele>225.6</ele><time>2015-05-01T14:47:47.0000000+00:00</time></trkpt><trkpt lat="34.9891239" lon="33.5086651"><ele>225.3</ele><time>2015-05-01T14:47:48.0000000+00:00</time></trkpt><trkpt lat="34.9890193" lon="33.5087095"><ele>224.7</ele><time>2015-05-01T14:47:49.0000000+00:00</time></trkpt><trkpt lat="34.9889085" lon="33.5087502"><ele>224.3</ele><time>2015-05-01T14:47:50.0000000+00:00</time></trkpt><trkpt lat="34.9888082" lon="33.5087946"><ele>224.7</ele><time>2015-05-01T14:47:51.0000000+00:00</time></trkpt><trkpt lat="34.9887004" lon="33.508841"><ele>224.4</ele><time>2015-05-01T14:47:52.0000000+00:00</time></trkpt><trkpt lat="34.9885994" lon="33.508884"><ele>224.2</ele><time>2015-05-01T14:47:53.0000000+00:00</time></trkpt><trkpt lat="34.9885012" lon="33.5089239"><ele>223.6</ele><time>2015-05-01T14:47:54.0000000+00:00</time></trkpt><trkpt lat="34.9884098" lon="33.5089686"><ele>222.8</ele><time>2015-05-01T14:47:55.0000000+00:00</time></trkpt><trkpt lat="34.9883191" lon="33.5090152"><ele>222.4</ele><time>2015-05-01T14:47:56.0000000+00:00</time></trkpt><trkpt lat="34.988218" lon="33.5090459"><ele>222.7</ele><time>2015-05-01T14:47:57.0000000+00:00</time></trkpt><trkpt lat="34.9881216" lon="33.509088"><ele>221.9</ele><time>2015-05-01T14:47:58.0000000+00:00</time></trkpt><trkpt lat="34.9880292" lon="33.5091266"><ele>221.9</ele><time>2015-05-01T14:47:59.0000000+00:00</time></trkpt><trkpt lat="34.987934" lon="33.5091706"><ele>221.5</ele><time>2015-05-01T14:48:00.0000000+00:00</time></trkpt><trkpt lat="34.9878431" lon="33.5092018"><ele>221.8</ele><time>2015-05-01T14:48:01.0000000+00:00</time></trkpt><trkpt lat="34.98776" lon="33.5092361"><ele>221.4</ele><time>2015-05-01T14:48:02.0000000+00:00</time></trkpt><trkpt lat="34.9876713" lon="33.5092718"><ele>221.2</ele><time>2015-05-01T14:48:03.0000000+00:00</time></trkpt><trkpt lat="34.9875871" lon="33.5093195"><ele>220.1</ele><time>2015-05-01T14:48:04.0000000+00:00</time></trkpt><trkpt lat="34.9875145" lon="33.5093612"><ele>218.6</ele><time>2015-05-01T14:48:05.0000000+00:00</time></trkpt><trkpt lat="34.9874405" lon="33.5094068"><ele>217.8</ele><time>2015-05-01T14:48:06.0000000+00:00</time></trkpt><trkpt lat="34.9873717" lon="33.509453"><ele>216.9</ele><time>2015-05-01T14:48:07.0000000+00:00</time></trkpt><trkpt lat="34.987298" lon="33.509514"><ele>216.5</ele><time>2015-05-01T14:48:08.0000000+00:00</time></trkpt><trkpt lat="34.9872236" lon="33.5095607"><ele>215.7</ele><time>2015-05-01T14:48:09.0000000+00:00</time></trkpt><trkpt lat="34.9871576" lon="33.5096088"><ele>215.4</ele><time>2015-05-01T14:48:10.0000000+00:00</time></trkpt><trkpt lat="34.9870909" lon="33.5096559"><ele>216.7</ele><time>2015-05-01T14:48:11.0000000+00:00</time></trkpt><trkpt lat="34.9870186" lon="33.5097085"><ele>218.4</ele><time>2015-05-01T14:48:12.0000000+00:00</time></trkpt><trkpt lat="34.9869533" lon="33.5097402"><ele>219.2</ele><time>2015-05-01T14:48:13.0000000+00:00</time></trkpt><trkpt lat="34.9868883" lon="33.5097904"><ele>219.1</ele><time>2015-05-01T14:48:14.0000000+00:00</time></trkpt><trkpt lat="34.9868269" lon="33.5098355"><ele>218.6</ele><time>2015-05-01T14:48:15.0000000+00:00</time></trkpt><trkpt lat="34.9867723" lon="33.5098941"><ele>218.8</ele><time>2015-05-01T14:48:16.0000000+00:00</time></trkpt><trkpt lat="34.9867156" lon="33.5099508"><ele>218.9</ele><time>2015-05-01T14:48:17.0000000+00:00</time></trkpt><trkpt lat="34.9866649" lon="33.5099976"><ele>219.5</ele><time>2015-05-01T14:48:18.0000000+00:00</time></trkpt><trkpt lat="34.986607" lon="33.510053"><ele>220.2</ele><time>2015-05-01T14:48:19.0000000+00:00</time></trkpt><trkpt lat="34.9865486" lon="33.5101071"><ele>221.6</ele><time>2015-05-01T14:48:20.0000000+00:00</time></trkpt><trkpt lat="34.9864884" lon="33.5101701"><ele>221.8</ele><time>2015-05-01T14:48:21.0000000+00:00</time></trkpt><trkpt lat="34.986437" lon="33.5102241"><ele>220.4</ele><time>2015-05-01T14:48:22.0000000+00:00</time></trkpt><trkpt lat="34.9863857" lon="33.5102776"><ele>218.7</ele><time>2015-05-01T14:48:23.0000000+00:00</time></trkpt><trkpt lat="34.9863318" lon="33.5103389"><ele>217.9</ele><time>2015-05-01T14:48:24.0000000+00:00</time></trkpt><trkpt lat="34.9862814" lon="33.510401"><ele>217.4</ele><time>2015-05-01T14:48:25.0000000+00:00</time></trkpt><trkpt lat="34.9862292" lon="33.5104642"><ele>216.7</ele><time>2015-05-01T14:48:26.0000000+00:00</time></trkpt><trkpt lat="34.9861735" lon="33.5105284"><ele>215.4</ele><time>2015-05-01T14:48:27.0000000+00:00</time></trkpt><trkpt lat="34.9861218" lon="33.5105886"><ele>214.2</ele><time>2015-05-01T14:48:28.0000000+00:00</time></trkpt><trkpt lat="34.9860704" lon="33.5106537"><ele>213.1</ele><time>2015-05-01T14:48:29.0000000+00:00</time></trkpt><trkpt lat="34.9860202" lon="33.5107247"><ele>213.6</ele><time>2015-05-01T14:48:30.0000000+00:00</time></trkpt><trkpt lat="34.9859697" lon="33.510792"><ele>214.3</ele><time>2015-05-01T14:48:31.0000000+00:00</time></trkpt><trkpt lat="34.9859143" lon="33.5108611"><ele>215.2</ele><time>2015-05-01T14:48:32.0000000+00:00</time></trkpt><trkpt lat="34.9858607" lon="33.5109372"><ele>215.6</ele><time>2015-05-01T14:48:33.0000000+00:00</time></trkpt><trkpt lat="34.985807" lon="33.5110051"><ele>215.3</ele><time>2015-05-01T14:48:34.0000000+00:00</time></trkpt><trkpt lat="34.9857593" lon="33.5110829"><ele>215.2</ele><time>2015-05-01T14:48:35.0000000+00:00</time></trkpt><trkpt lat="34.9857134" lon="33.5111557"><ele>214.1</ele><time>2015-05-01T14:48:36.0000000+00:00</time></trkpt><trkpt lat="34.9856654" lon="33.5112356"><ele>215.6</ele><time>2015-05-01T14:48:37.0000000+00:00</time></trkpt><trkpt lat="34.9856188" lon="33.5113118"><ele>215.8</ele><time>2015-05-01T14:48:38.0000000+00:00</time></trkpt><trkpt lat="34.985571" lon="33.5113908"><ele>217.9</ele><time>2015-05-01T14:48:39.0000000+00:00</time></trkpt><trkpt lat="34.9855204" lon="33.5114667"><ele>219.0</ele><time>2015-05-01T14:48:40.0000000+00:00</time></trkpt><trkpt lat="34.9854725" lon="33.5115448"><ele>220.5</ele><time>2015-05-01T14:48:41.0000000+00:00</time></trkpt><trkpt lat="34.9854277" lon="33.511627"><ele>222.3</ele><time>2015-05-01T14:48:42.0000000+00:00</time></trkpt><trkpt lat="34.9853806" lon="33.5117028"><ele>223.1</ele><time>2015-05-01T14:48:43.0000000+00:00</time></trkpt><trkpt lat="34.985334" lon="33.511774"><ele>223.6</ele><time>2015-05-01T14:48:44.0000000+00:00</time></trkpt><trkpt lat="34.985291" lon="33.5118421"><ele>224.3</ele><time>2015-05-01T14:48:45.0000000+00:00</time></trkpt><trkpt lat="34.98525" lon="33.5119074"><ele>224.7</ele><time>2015-05-01T14:48:46.0000000+00:00</time></trkpt><trkpt lat="34.9852156" lon="33.5119644"><ele>224.3</ele><time>2015-05-01T14:48:47.0000000+00:00</time></trkpt><trkpt lat="34.9851894" lon="33.5120209"><ele>223.7</ele><time>2015-05-01T14:48:48.0000000+00:00</time></trkpt><trkpt lat="34.9851475" lon="33.512099"><ele>222.9</ele><time>2015-05-01T14:48:50.0000000+00:00</time></trkpt><trkpt lat="34.985118" lon="33.5121451"><ele>222.5</ele><time>2015-05-01T14:48:52.0000000+00:00</time></trkpt><trkpt lat="34.9851048" lon="33.5122149"><ele>190.9</ele><time>2015-05-01T14:49:13.0000000+00:00</time></trkpt><trkpt lat="34.9850619" lon="33.5122805"><ele>190.9</ele><time>2015-05-01T14:49:16.0000000+00:00</time></trkpt><trkpt lat="34.9850289" lon="33.5123283"><ele>191.0</ele><time>2015-05-01T14:49:18.0000000+00:00</time></trkpt><trkpt lat="34.9849899" lon="33.5123789"><ele>191.0</ele><time>2015-05-01T14:49:20.0000000+00:00</time></trkpt><trkpt lat="34.9849446" lon="33.512438"><ele>190.3</ele><time>2015-05-01T14:49:22.0000000+00:00</time></trkpt><trkpt lat="34.9848925" lon="33.5125112"><ele>189.6</ele><time>2015-05-01T14:49:24.0000000+00:00</time></trkpt><trkpt lat="34.9848376" lon="33.5125922"><ele>189.7</ele><time>2015-05-01T14:49:26.0000000+00:00</time></trkpt><trkpt lat="34.9848092" lon="33.5126348"><ele>189.3</ele><time>2015-05-01T14:49:27.0000000+00:00</time></trkpt><trkpt lat="34.9847562" lon="33.5127124"><ele>189.2</ele><time>2015-05-01T14:49:28.0000000+00:00</time></trkpt><trkpt lat="34.9847227" lon="33.512765"><ele>189.1</ele><time>2015-05-01T14:49:29.0000000+00:00</time></trkpt><trkpt lat="34.9846866" lon="33.5128104"><ele>189.1</ele><time>2015-05-01T14:49:30.0000000+00:00</time></trkpt><trkpt lat="34.9846487" lon="33.512866"><ele>189.0</ele><time>2015-05-01T14:49:31.0000000+00:00</time></trkpt><trkpt lat="34.9846056" lon="33.5129276"><ele>188.5</ele><time>2015-05-01T14:49:32.0000000+00:00</time></trkpt><trkpt lat="34.9845714" lon="33.5129814"><ele>188.3</ele><time>2015-05-01T14:49:33.0000000+00:00</time></trkpt><trkpt lat="34.9845343" lon="33.5130415"><ele>187.6</ele><time>2015-05-01T14:49:34.0000000+00:00</time></trkpt><trkpt lat="34.9844924" lon="33.5131018"><ele>187.3</ele><time>2015-05-01T14:49:35.0000000+00:00</time></trkpt><trkpt lat="34.98445" lon="33.5131701"><ele>187.2</ele><time>2015-05-01T14:49:36.0000000+00:00</time></trkpt><trkpt lat="34.9844099" lon="33.5132313"><ele>187.1</ele><time>2015-05-01T14:49:37.0000000+00:00</time></trkpt><trkpt lat="34.9843677" lon="33.5133008"><ele>187.6</ele><time>2015-05-01T14:49:38.0000000+00:00</time></trkpt><trkpt lat="34.9843227" lon="33.513374"><ele>187.8</ele><time>2015-05-01T14:49:39.0000000+00:00</time></trkpt><trkpt lat="34.9842762" lon="33.5134448"><ele>187.4</ele><time>2015-05-01T14:49:40.0000000+00:00</time></trkpt><trkpt lat="34.9842335" lon="33.5135188"><ele>187.2</ele><time>2015-05-01T14:49:41.0000000+00:00</time></trkpt><trkpt lat="34.9841894" lon="33.5135868"><ele>187.1</ele><time>2015-05-01T14:49:42.0000000+00:00</time></trkpt><trkpt lat="34.9841424" lon="33.513653"><ele>186.6</ele><time>2015-05-01T14:49:43.0000000+00:00</time></trkpt><trkpt lat="34.9840958" lon="33.5137267"><ele>186.3</ele><time>2015-05-01T14:49:44.0000000+00:00</time></trkpt><trkpt lat="34.9840434" lon="33.5137985"><ele>186.2</ele><time>2015-05-01T14:49:45.0000000+00:00</time></trkpt><trkpt lat="34.9839911" lon="33.5138676"><ele>185.6</ele><time>2015-05-01T14:49:46.0000000+00:00</time></trkpt><trkpt lat="34.983944" lon="33.5139527"><ele>185.3</ele><time>2015-05-01T14:49:47.0000000+00:00</time></trkpt><trkpt lat="34.9838921" lon="33.5140321"><ele>185.2</ele><time>2015-05-01T14:49:48.0000000+00:00</time></trkpt><trkpt lat="34.9838416" lon="33.5141032"><ele>185.1</ele><time>2015-05-01T14:49:49.0000000+00:00</time></trkpt><trkpt lat="34.9837997" lon="33.5141766"><ele>184.6</ele><time>2015-05-01T14:49:50.0000000+00:00</time></trkpt><trkpt lat="34.9837467" lon="33.514254"><ele>184.3</ele><time>2015-05-01T14:49:51.0000000+00:00</time></trkpt><trkpt lat="34.9836937" lon="33.5143354"><ele>184.2</ele><time>2015-05-01T14:49:52.0000000+00:00</time></trkpt><trkpt lat="34.9836443" lon="33.5144185"><ele>183.6</ele><time>2015-05-01T14:49:53.0000000+00:00</time></trkpt><trkpt lat="34.9835964" lon="33.5144923"><ele>183.3</ele><time>2015-05-01T14:49:54.0000000+00:00</time></trkpt><trkpt lat="34.9835435" lon="33.5145647"><ele>183.7</ele><time>2015-05-01T14:49:55.0000000+00:00</time></trkpt><trkpt lat="34.9834927" lon="33.5146434"><ele>183.3</ele><time>2015-05-01T14:49:56.0000000+00:00</time></trkpt><trkpt lat="34.9834502" lon="33.5147334"><ele>183.2</ele><time>2015-05-01T14:49:57.0000000+00:00</time></trkpt><trkpt lat="34.9834022" lon="33.5148187"><ele>183.1</ele><time>2015-05-01T14:49:58.0000000+00:00</time></trkpt><trkpt lat="34.9833528" lon="33.5148869"><ele>183.1</ele><time>2015-05-01T14:49:59.0000000+00:00</time></trkpt><trkpt lat="34.9833" lon="33.5149697"><ele>183.0</ele><time>2015-05-01T14:50:00.0000000+00:00</time></trkpt><trkpt lat="34.9832531" lon="33.5150405"><ele>182.5</ele><time>2015-05-01T14:50:01.0000000+00:00</time></trkpt><trkpt lat="34.9831961" lon="33.5151063"><ele>181.8</ele><time>2015-05-01T14:50:02.0000000+00:00</time></trkpt><trkpt lat="34.9831385" lon="33.5151743"><ele>181.4</ele><time>2015-05-01T14:50:03.0000000+00:00</time></trkpt><trkpt lat="34.983078" lon="33.5152441"><ele>181.2</ele><time>2015-05-01T14:50:04.0000000+00:00</time></trkpt><trkpt lat="34.9830124" lon="33.5152931"><ele>180.1</ele><time>2015-05-01T14:50:05.0000000+00:00</time></trkpt><trkpt lat="34.9829548" lon="33.5153433"><ele>179.1</ele><time>2015-05-01T14:50:06.0000000+00:00</time></trkpt><trkpt lat="34.9828994" lon="33.5153853"><ele>178.0</ele><time>2015-05-01T14:50:07.0000000+00:00</time></trkpt><trkpt lat="34.9828556" lon="33.5154272"><ele>177.5</ele><time>2015-05-01T14:50:08.0000000+00:00</time></trkpt><trkpt lat="34.9828087" lon="33.5154572"><ele>176.8</ele><time>2015-05-01T14:50:09.0000000+00:00</time></trkpt><trkpt lat="34.9827656" lon="33.5154848"><ele>175.9</ele><time>2015-05-01T14:50:10.0000000+00:00</time></trkpt><trkpt lat="34.9827203" lon="33.5155103"><ele>175.5</ele><time>2015-05-01T14:50:11.0000000+00:00</time></trkpt><trkpt lat="34.9826746" lon="33.515535"><ele>175.7</ele><time>2015-05-01T14:50:12.0000000+00:00</time></trkpt><trkpt lat="34.9826282" lon="33.5155542"><ele>175.9</ele><time>2015-05-01T14:50:13.0000000+00:00</time></trkpt><trkpt lat="34.9825784" lon="33.5155751"><ele>176.0</ele><time>2015-05-01T14:50:14.0000000+00:00</time></trkpt><trkpt lat="34.9825314" lon="33.5155877"><ele>176.5</ele><time>2015-05-01T14:50:15.0000000+00:00</time></trkpt><trkpt lat="34.9824786" lon="33.5156023"><ele>176.8</ele><time>2015-05-01T14:50:16.0000000+00:00</time></trkpt><trkpt lat="34.9824231" lon="33.5156069"><ele>176.9</ele><time>2015-05-01T14:50:17.0000000+00:00</time></trkpt><trkpt lat="34.9823665" lon="33.5156181"><ele>177.0</ele><time>2015-05-01T14:50:18.0000000+00:00</time></trkpt><trkpt lat="34.9823135" lon="33.5156275"><ele>177.5</ele><time>2015-05-01T14:50:19.0000000+00:00</time></trkpt><trkpt lat="34.9822608" lon="33.5156336"><ele>177.8</ele><time>2015-05-01T14:50:20.0000000+00:00</time></trkpt><trkpt lat="34.9822128" lon="33.5156386"><ele>177.9</ele><time>2015-05-01T14:50:21.0000000+00:00</time></trkpt><trkpt lat="34.9821592" lon="33.5156405"><ele>178.0</ele><time>2015-05-01T14:50:22.0000000+00:00</time></trkpt><trkpt lat="34.982068" lon="33.5156482"><ele>178.5</ele><time>2015-05-01T14:50:24.0000000+00:00</time></trkpt><trkpt lat="34.9820202" lon="33.5156546"><ele>178.8</ele><time>2015-05-01T14:50:25.0000000+00:00</time></trkpt><trkpt lat="34.981966" lon="33.5156594"><ele>179.4</ele><time>2015-05-01T14:50:26.0000000+00:00</time></trkpt><trkpt lat="34.9818744" lon="33.5156817"><ele>182.9</ele><time>2015-05-01T14:50:29.0000000+00:00</time></trkpt><trkpt lat="34.9818131" lon="33.5156899"><ele>183.5</ele><time>2015-05-01T14:50:30.0000000+00:00</time></trkpt><trkpt lat="34.9817544" lon="33.5156981"><ele>184.3</ele><time>2015-05-01T14:50:31.0000000+00:00</time></trkpt><trkpt lat="34.9817008" lon="33.5157065"><ele>184.6</ele><time>2015-05-01T14:50:32.0000000+00:00</time></trkpt><trkpt lat="34.9816522" lon="33.5157226"><ele>184.3</ele><time>2015-05-01T14:50:33.0000000+00:00</time></trkpt><trkpt lat="34.9816027" lon="33.5157394"><ele>184.2</ele><time>2015-05-01T14:50:34.0000000+00:00</time></trkpt><trkpt lat="34.9815541" lon="33.5157571"><ele>184.1</ele><time>2015-05-01T14:50:35.0000000+00:00</time></trkpt><trkpt lat="34.9815034" lon="33.5157738"><ele>184.1</ele><time>2015-05-01T14:50:36.0000000+00:00</time></trkpt><trkpt lat="34.9814561" lon="33.5157961"><ele>183.5</ele><time>2015-05-01T14:50:37.0000000+00:00</time></trkpt><trkpt lat="34.9814044" lon="33.5158121"><ele>183.3</ele><time>2015-05-01T14:50:38.0000000+00:00</time></trkpt><trkpt lat="34.9813583" lon="33.5158415"><ele>183.2</ele><time>2015-05-01T14:50:39.0000000+00:00</time></trkpt><trkpt lat="34.9813124" lon="33.5158666"><ele>183.1</ele><time>2015-05-01T14:50:40.0000000+00:00</time></trkpt><trkpt lat="34.981267" lon="33.5158979"><ele>183.1</ele><time>2015-05-01T14:50:41.0000000+00:00</time></trkpt><trkpt lat="34.9812238" lon="33.5159325"><ele>182.5</ele><time>2015-05-01T14:50:42.0000000+00:00</time></trkpt><trkpt lat="34.9811777" lon="33.5159628"><ele>182.3</ele><time>2015-05-01T14:50:43.0000000+00:00</time></trkpt><trkpt lat="34.9811365" lon="33.5160007"><ele>182.2</ele><time>2015-05-01T14:50:44.0000000+00:00</time></trkpt><trkpt lat="34.9810995" lon="33.516036"><ele>182.1</ele><time>2015-05-01T14:50:45.0000000+00:00</time></trkpt><trkpt lat="34.9810636" lon="33.5160782"><ele>181.6</ele><time>2015-05-01T14:50:46.0000000+00:00</time></trkpt><trkpt lat="34.9810274" lon="33.5161208"><ele>181.8</ele><time>2015-05-01T14:50:47.0000000+00:00</time></trkpt><trkpt lat="34.9809882" lon="33.5161532"><ele>181.9</ele><time>2015-05-01T14:50:48.0000000+00:00</time></trkpt><trkpt lat="34.9809518" lon="33.5161887"><ele>181.5</ele><time>2015-05-01T14:50:49.0000000+00:00</time></trkpt><trkpt lat="34.9809173" lon="33.5162293"><ele>181.2</ele><time>2015-05-01T14:50:50.0000000+00:00</time></trkpt><trkpt lat="34.9808556" lon="33.5163136"><ele>181.1</ele><time>2015-05-01T14:50:52.0000000+00:00</time></trkpt><trkpt lat="34.9807961" lon="33.5164026"><ele>181.0</ele><time>2015-05-01T14:50:54.0000000+00:00</time></trkpt><trkpt lat="34.9807681" lon="33.5164475"><ele>181.0</ele><time>2015-05-01T14:50:55.0000000+00:00</time></trkpt><trkpt lat="34.98072" lon="33.5165293"><ele>181.8</ele><time>2015-05-01T14:50:57.0000000+00:00</time></trkpt><trkpt lat="34.9806978" lon="33.5165816"><ele>181.4</ele><time>2015-05-01T14:50:58.0000000+00:00</time></trkpt><trkpt lat="34.9806758" lon="33.516637"><ele>181.2</ele><time>2015-05-01T14:50:59.0000000+00:00</time></trkpt><trkpt lat="34.9806254" lon="33.5167202"><ele>180.6</ele><time>2015-05-01T14:51:01.0000000+00:00</time></trkpt><trkpt lat="34.9805801" lon="33.5168031"><ele>180.2</ele><time>2015-05-01T14:51:03.0000000+00:00</time></trkpt><trkpt lat="34.9805221" lon="33.5168877"><ele>180.1</ele><time>2015-05-01T14:51:05.0000000+00:00</time></trkpt><trkpt lat="34.9804837" lon="33.5169549"><ele>180.0</ele><time>2015-05-01T14:51:07.0000000+00:00</time></trkpt><trkpt lat="34.9804482" lon="33.5170331"><ele>180.3</ele><time>2015-05-01T14:51:09.0000000+00:00</time></trkpt><trkpt lat="34.9804092" lon="33.5171126"><ele>179.8</ele><time>2015-05-01T14:51:11.0000000+00:00</time></trkpt><trkpt lat="34.9803634" lon="33.5171968"><ele>180.0</ele><time>2015-05-01T14:51:13.0000000+00:00</time></trkpt><trkpt lat="34.9803189" lon="33.5172691"><ele>180.8</ele><time>2015-05-01T14:51:15.0000000+00:00</time></trkpt><trkpt lat="34.980297" lon="33.517341"><ele>182.8</ele><time>2015-05-01T14:52:02.0000000+00:00</time></trkpt><trkpt lat="34.9802599" lon="33.5174056"><ele>183.5</ele><time>2015-05-01T14:52:04.0000000+00:00</time></trkpt><trkpt lat="34.9802134" lon="33.5174887"><ele>183.9</ele><time>2015-05-01T14:52:06.0000000+00:00</time></trkpt><trkpt lat="34.9801879" lon="33.5175345"><ele>184.0</ele><time>2015-05-01T14:52:07.0000000+00:00</time></trkpt><trkpt lat="34.9801607" lon="33.5175838"><ele>184.0</ele><time>2015-05-01T14:52:08.0000000+00:00</time></trkpt><trkpt lat="34.9801143" lon="33.5176618"><ele>184.5</ele><time>2015-05-01T14:52:09.0000000+00:00</time></trkpt><trkpt lat="34.9800864" lon="33.5177131"><ele>184.8</ele><time>2015-05-01T14:52:10.0000000+00:00</time></trkpt><trkpt lat="34.9800591" lon="33.5177592"><ele>184.9</ele><time>2015-05-01T14:52:11.0000000+00:00</time></trkpt><trkpt lat="34.9800017" lon="33.5178378"><ele>185.0</ele><time>2015-05-01T14:52:13.0000000+00:00</time></trkpt><trkpt lat="34.9799644" lon="33.517917"><ele>184.3</ele><time>2015-05-01T14:52:15.0000000+00:00</time></trkpt><trkpt lat="34.9799122" lon="33.5179849"><ele>184.1</ele><time>2015-05-01T14:52:17.0000000+00:00</time></trkpt><trkpt lat="34.9798733" lon="33.5180526"><ele>184.0</ele><time>2015-05-01T14:52:19.0000000+00:00</time></trkpt><trkpt lat="34.979839" lon="33.5181272"><ele>184.3</ele><time>2015-05-01T14:52:21.0000000+00:00</time></trkpt><trkpt lat="34.9797976" lon="33.5182037"><ele>184.1</ele><time>2015-05-01T14:52:23.0000000+00:00</time></trkpt><trkpt lat="34.9797476" lon="33.5182829"><ele>184.3</ele><time>2015-05-01T14:52:25.0000000+00:00</time></trkpt><trkpt lat="34.9796986" lon="33.518366"><ele>184.8</ele><time>2015-05-01T14:52:27.0000000+00:00</time></trkpt><trkpt lat="34.9796556" lon="33.5184276"><ele>184.9</ele><time>2015-05-01T14:52:28.0000000+00:00</time></trkpt><trkpt lat="34.9796254" lon="33.5184825"><ele>185.0</ele><time>2015-05-01T14:52:29.0000000+00:00</time></trkpt><trkpt lat="34.9795907" lon="33.5185279"><ele>185.0</ele><time>2015-05-01T14:52:30.0000000+00:00</time></trkpt><trkpt lat="34.979555" lon="33.5185784"><ele>184.5</ele><time>2015-05-01T14:52:31.0000000+00:00</time></trkpt><trkpt lat="34.9795256" lon="33.5186372"><ele>184.3</ele><time>2015-05-01T14:52:32.0000000+00:00</time></trkpt><trkpt lat="34.979506" lon="33.518687"><ele>184.6</ele><time>2015-05-01T14:52:33.0000000+00:00</time></trkpt><trkpt lat="34.9794725" lon="33.5187398"><ele>184.3</ele><time>2015-05-01T14:52:34.0000000+00:00</time></trkpt><trkpt lat="34.9794485" lon="33.5187871"><ele>184.2</ele><time>2015-05-01T14:52:35.0000000+00:00</time></trkpt><trkpt lat="34.9794162" lon="33.5188375"><ele>184.1</ele><time>2015-05-01T14:52:36.0000000+00:00</time></trkpt><trkpt lat="34.9793869" lon="33.5188903"><ele>183.6</ele><time>2015-05-01T14:52:37.0000000+00:00</time></trkpt><trkpt lat="34.9793534" lon="33.518939"><ele>183.3</ele><time>2015-05-01T14:52:38.0000000+00:00</time></trkpt><trkpt lat="34.9793207" lon="33.5189868"><ele>182.7</ele><time>2015-05-01T14:52:39.0000000+00:00</time></trkpt><trkpt lat="34.9792959" lon="33.5190394"><ele>182.3</ele><time>2015-05-01T14:52:40.0000000+00:00</time></trkpt><trkpt lat="34.9792663" lon="33.5190874"><ele>182.2</ele><time>2015-05-01T14:52:41.0000000+00:00</time></trkpt><trkpt lat="34.9791949" lon="33.5191742"><ele>182.1</ele><time>2015-05-01T14:52:43.0000000+00:00</time></trkpt><trkpt lat="34.9791618" lon="33.5192268"><ele>182.5</ele><time>2015-05-01T14:52:44.0000000+00:00</time></trkpt><trkpt lat="34.9791334" lon="33.5192788"><ele>182.3</ele><time>2015-05-01T14:52:45.0000000+00:00</time></trkpt><trkpt lat="34.979108" lon="33.5193327"><ele>182.2</ele><time>2015-05-01T14:52:46.0000000+00:00</time></trkpt><trkpt lat="34.9790817" lon="33.519387"><ele>182.1</ele><time>2015-05-01T14:52:47.0000000+00:00</time></trkpt><trkpt lat="34.9790566" lon="33.5194472"><ele>181.6</ele><time>2015-05-01T14:52:48.0000000+00:00</time></trkpt><trkpt lat="34.979032" lon="33.519498"><ele>181.3</ele><time>2015-05-01T14:52:49.0000000+00:00</time></trkpt><trkpt lat="34.9789999" lon="33.5195499"><ele>181.2</ele><time>2015-05-01T14:52:50.0000000+00:00</time></trkpt><trkpt lat="34.9789728" lon="33.5195955"><ele>181.6</ele><time>2015-05-01T14:52:51.0000000+00:00</time></trkpt><trkpt lat="34.978936" lon="33.5196527"><ele>181.8</ele><time>2015-05-01T14:52:52.0000000+00:00</time></trkpt><trkpt lat="34.9789168" lon="33.5197074"><ele>181.4</ele><time>2015-05-01T14:52:53.0000000+00:00</time></trkpt><trkpt lat="34.9788907" lon="33.5197609"><ele>181.2</ele><time>2015-05-01T14:52:54.0000000+00:00</time></trkpt><trkpt lat="34.9788655" lon="33.5198182"><ele>181.1</ele><time>2015-05-01T14:52:55.0000000+00:00</time></trkpt><trkpt lat="34.9788451" lon="33.5198716"><ele>181.6</ele><time>2015-05-01T14:52:56.0000000+00:00</time></trkpt><trkpt lat="34.978819" lon="33.51993"><ele>181.8</ele><time>2015-05-01T14:52:57.0000000+00:00</time></trkpt><trkpt lat="34.9787903" lon="33.5199849"><ele>181.9</ele><time>2015-05-01T14:52:58.0000000+00:00</time></trkpt><trkpt lat="34.9787688" lon="33.5200392"><ele>181.5</ele><time>2015-05-01T14:52:59.0000000+00:00</time></trkpt><trkpt lat="34.9787401" lon="33.5201008"><ele>181.2</ele><time>2015-05-01T14:53:00.0000000+00:00</time></trkpt><trkpt lat="34.9787134" lon="33.5201592"><ele>181.1</ele><time>2015-05-01T14:53:01.0000000+00:00</time></trkpt><trkpt lat="34.9786872" lon="33.5202173"><ele>181.1</ele><time>2015-05-01T14:53:02.0000000+00:00</time></trkpt><trkpt lat="34.9786598" lon="33.5202687"><ele>181.0</ele><time>2015-05-01T14:53:03.0000000+00:00</time></trkpt><trkpt lat="34.978635" lon="33.520327"><ele>180.5</ele><time>2015-05-01T14:53:04.0000000+00:00</time></trkpt><trkpt lat="34.9786086" lon="33.5203914"><ele>180.3</ele><time>2015-05-01T14:53:05.0000000+00:00</time></trkpt><trkpt lat="34.9785869" lon="33.5204638"><ele>180.1</ele><time>2015-05-01T14:53:06.0000000+00:00</time></trkpt><trkpt lat="34.978558" lon="33.520532"><ele>180.1</ele><time>2015-05-01T14:53:07.0000000+00:00</time></trkpt><trkpt lat="34.9785189" lon="33.5206064"><ele>180.1</ele><time>2015-05-01T14:53:08.0000000+00:00</time></trkpt><trkpt lat="34.9784929" lon="33.5206815"><ele>179.5</ele><time>2015-05-01T14:53:09.0000000+00:00</time></trkpt><trkpt lat="34.9784692" lon="33.5207571"><ele>179.3</ele><time>2015-05-01T14:53:10.0000000+00:00</time></trkpt><trkpt lat="34.9784365" lon="33.5208344"><ele>179.2</ele><time>2015-05-01T14:53:11.0000000+00:00</time></trkpt><trkpt lat="34.9784075" lon="33.5209107"><ele>179.1</ele><time>2015-05-01T14:53:12.0000000+00:00</time></trkpt><trkpt lat="34.9783801" lon="33.5209871"><ele>179.1</ele><time>2015-05-01T14:53:13.0000000+00:00</time></trkpt><trkpt lat="34.9783494" lon="33.5210777"><ele>179.0</ele><time>2015-05-01T14:53:14.0000000+00:00</time></trkpt><trkpt lat="34.9783213" lon="33.5211556"><ele>179.5</ele><time>2015-05-01T14:53:15.0000000+00:00</time></trkpt><trkpt lat="34.978291" lon="33.5212398"><ele>179.8</ele><time>2015-05-01T14:53:16.0000000+00:00</time></trkpt><trkpt lat="34.9782635" lon="33.5213162"><ele>179.9</ele><time>2015-05-01T14:53:17.0000000+00:00</time></trkpt><trkpt lat="34.9782418" lon="33.5213944"><ele>180.0</ele><time>2015-05-01T14:53:18.0000000+00:00</time></trkpt><trkpt lat="34.978211" lon="33.5214759"><ele>180.0</ele><time>2015-05-01T14:53:19.0000000+00:00</time></trkpt><trkpt lat="34.9781792" lon="33.5215683"><ele>180.0</ele><time>2015-05-01T14:53:20.0000000+00:00</time></trkpt><trkpt lat="34.9781621" lon="33.521652"><ele>180.0</ele><time>2015-05-01T14:53:21.0000000+00:00</time></trkpt><trkpt lat="34.9781354" lon="33.5217309"><ele>180.0</ele><time>2015-05-01T14:53:22.0000000+00:00</time></trkpt><trkpt lat="34.9781023" lon="33.5218144"><ele>180.0</ele><time>2015-05-01T14:53:23.0000000+00:00</time></trkpt><trkpt lat="34.9780735" lon="33.5219083"><ele>180.0</ele><time>2015-05-01T14:53:24.0000000+00:00</time></trkpt><trkpt lat="34.978048" lon="33.5219922"><ele>180.0</ele><time>2015-05-01T14:53:25.0000000+00:00</time></trkpt><trkpt lat="34.9780179" lon="33.5220792"><ele>180.0</ele><time>2015-05-01T14:53:26.0000000+00:00</time></trkpt><trkpt lat="34.9779902" lon="33.522172"><ele>180.0</ele><time>2015-05-01T14:53:27.0000000+00:00</time></trkpt><trkpt lat="34.977957" lon="33.5222674"><ele>180.0</ele><time>2015-05-01T14:53:28.0000000+00:00</time></trkpt><trkpt lat="34.9779244" lon="33.5223672"><ele>180.0</ele><time>2015-05-01T14:53:29.0000000+00:00</time></trkpt><trkpt lat="34.977895" lon="33.5224624"><ele>180.0</ele><time>2015-05-01T14:53:30.0000000+00:00</time></trkpt><trkpt lat="34.9778657" lon="33.5225552"><ele>180.5</ele><time>2015-05-01T14:53:31.0000000+00:00</time></trkpt><trkpt lat="34.9778355" lon="33.5226508"><ele>180.8</ele><time>2015-05-01T14:53:32.0000000+00:00</time></trkpt><trkpt lat="34.977821" lon="33.5227361"><ele>180.4</ele><time>2015-05-01T14:53:33.0000000+00:00</time></trkpt><trkpt lat="34.9777896" lon="33.5228225"><ele>180.2</ele><time>2015-05-01T14:53:34.0000000+00:00</time></trkpt><trkpt lat="34.9777615" lon="33.522909"><ele>180.1</ele><time>2015-05-01T14:53:35.0000000+00:00</time></trkpt><trkpt lat="34.9777266" lon="33.5229922"><ele>180.1</ele><time>2015-05-01T14:53:36.0000000+00:00</time></trkpt><trkpt lat="34.9776996" lon="33.5230734"><ele>180.5</ele><time>2015-05-01T14:53:37.0000000+00:00</time></trkpt><trkpt lat="34.9776665" lon="33.5231609"><ele>180.8</ele><time>2015-05-01T14:53:38.0000000+00:00</time></trkpt><trkpt lat="34.9776413" lon="33.5232428"><ele>180.9</ele><time>2015-05-01T14:53:39.0000000+00:00</time></trkpt><trkpt lat="34.9776169" lon="33.5233318"><ele>181.0</ele><time>2015-05-01T14:53:40.0000000+00:00</time></trkpt><trkpt lat="34.9775948" lon="33.5234268"><ele>181.0</ele><time>2015-05-01T14:53:41.0000000+00:00</time></trkpt><trkpt lat="34.9775728" lon="33.5235101"><ele>181.0</ele><time>2015-05-01T14:53:42.0000000+00:00</time></trkpt><trkpt lat="34.9775544" lon="33.5235708"><ele>181.0</ele><time>2015-05-01T14:53:43.0000000+00:00</time></trkpt><trkpt lat="34.9775432" lon="33.5236323"><ele>181.0</ele><time>2015-05-01T14:53:44.0000000+00:00</time></trkpt><trkpt lat="34.9775313" lon="33.5236869"><ele>181.0</ele><time>2015-05-01T14:53:45.0000000+00:00</time></trkpt><trkpt lat="34.9775085" lon="33.5237517"><ele>181.0</ele><time>2015-05-01T14:53:47.0000000+00:00</time></trkpt><trkpt lat="34.9774743" lon="33.5238009"><ele>177.0</ele><time>2015-05-01T14:54:04.0000000+00:00</time></trkpt><trkpt lat="34.9774517" lon="33.523852"><ele>176.3</ele><time>2015-05-01T14:54:15.0000000+00:00</time></trkpt><trkpt lat="34.9774383" lon="33.5239126"><ele>176.8</ele><time>2015-05-01T14:54:18.0000000+00:00</time></trkpt><trkpt lat="34.9774175" lon="33.5239889"><ele>177.0</ele><time>2015-05-01T14:54:20.0000000+00:00</time></trkpt><trkpt lat="34.9773838" lon="33.5240866"><ele>177.0</ele><time>2015-05-01T14:54:22.0000000+00:00</time></trkpt><trkpt lat="34.9773616" lon="33.5241383"><ele>177.0</ele><time>2015-05-01T14:54:23.0000000+00:00</time></trkpt><trkpt lat="34.97733" lon="33.5242047"><ele>177.0</ele><time>2015-05-01T14:54:24.0000000+00:00</time></trkpt><trkpt lat="34.9772987" lon="33.5243017"><ele>175.5</ele><time>2015-05-01T14:54:26.0000000+00:00</time></trkpt><trkpt lat="34.9772798" lon="33.5243555"><ele>175.3</ele><time>2015-05-01T14:54:27.0000000+00:00</time></trkpt><trkpt lat="34.9772636" lon="33.5244096"><ele>174.6</ele><time>2015-05-01T14:54:28.0000000+00:00</time></trkpt><trkpt lat="34.9772447" lon="33.5244618"><ele>174.3</ele><time>2015-05-01T14:54:29.0000000+00:00</time></trkpt><trkpt lat="34.9772276" lon="33.5245133"><ele>174.2</ele><time>2015-05-01T14:54:30.0000000+00:00</time></trkpt><trkpt lat="34.9772068" lon="33.524563"><ele>174.1</ele><time>2015-05-01T14:54:31.0000000+00:00</time></trkpt><trkpt lat="34.9771868" lon="33.524622"><ele>174.1</ele><time>2015-05-01T14:54:32.0000000+00:00</time></trkpt><trkpt lat="34.9771662" lon="33.5246886"><ele>173.5</ele><time>2015-05-01T14:54:33.0000000+00:00</time></trkpt><trkpt lat="34.9771439" lon="33.5247442"><ele>173.3</ele><time>2015-05-01T14:54:34.0000000+00:00</time></trkpt><trkpt lat="34.9771228" lon="33.5248078"><ele>173.2</ele><time>2015-05-01T14:54:35.0000000+00:00</time></trkpt><trkpt lat="34.9770998" lon="33.5248801"><ele>173.1</ele><time>2015-05-01T14:54:36.0000000+00:00</time></trkpt><trkpt lat="34.977074" lon="33.5249471"><ele>173.1</ele><time>2015-05-01T14:54:37.0000000+00:00</time></trkpt><trkpt lat="34.9770519" lon="33.5250058"><ele>173.0</ele><time>2015-05-01T14:54:38.0000000+00:00</time></trkpt><trkpt lat="34.9770309" lon="33.5250653"><ele>173.0</ele><time>2015-05-01T14:54:39.0000000+00:00</time></trkpt><trkpt lat="34.9770112" lon="33.525134"><ele>173.0</ele><time>2015-05-01T14:54:40.0000000+00:00</time></trkpt><trkpt lat="34.9769879" lon="33.5252004"><ele>173.5</ele><time>2015-05-01T14:54:41.0000000+00:00</time></trkpt><trkpt lat="34.9769636" lon="33.5252656"><ele>173.3</ele><time>2015-05-01T14:54:42.0000000+00:00</time></trkpt><trkpt lat="34.9769415" lon="33.5253275"><ele>173.1</ele><time>2015-05-01T14:54:43.0000000+00:00</time></trkpt><trkpt lat="34.9769138" lon="33.525402"><ele>173.1</ele><time>2015-05-01T14:54:44.0000000+00:00</time></trkpt><trkpt lat="34.9768885" lon="33.5254559"><ele>173.1</ele><time>2015-05-01T14:54:45.0000000+00:00</time></trkpt><trkpt lat="34.976863" lon="33.5255072"><ele>173.0</ele><time>2015-05-01T14:54:46.0000000+00:00</time></trkpt><trkpt lat="34.9768218" lon="33.525616"><ele>172.3</ele><time>2015-05-01T14:54:48.0000000+00:00</time></trkpt><trkpt lat="34.9768022" lon="33.5256778"><ele>172.1</ele><time>2015-05-01T14:54:49.0000000+00:00</time></trkpt><trkpt lat="34.9767816" lon="33.5257378"><ele>172.1</ele><time>2015-05-01T14:54:50.0000000+00:00</time></trkpt><trkpt lat="34.9767635" lon="33.5257943"><ele>172.1</ele><time>2015-05-01T14:54:51.0000000+00:00</time></trkpt><trkpt lat="34.9767415" lon="33.5258557"><ele>172.0</ele><time>2015-05-01T14:54:52.0000000+00:00</time></trkpt><trkpt lat="34.9767132" lon="33.5259136"><ele>172.0</ele><time>2015-05-01T14:54:53.0000000+00:00</time></trkpt><trkpt lat="34.9766871" lon="33.5259792"><ele>172.0</ele><time>2015-05-01T14:54:54.0000000+00:00</time></trkpt><trkpt lat="34.9766632" lon="33.5260425"><ele>172.0</ele><time>2015-05-01T14:54:55.0000000+00:00</time></trkpt><trkpt lat="34.9766396" lon="33.5261073"><ele>172.5</ele><time>2015-05-01T14:54:56.0000000+00:00</time></trkpt><trkpt lat="34.9766162" lon="33.5261719"><ele>172.8</ele><time>2015-05-01T14:54:57.0000000+00:00</time></trkpt><trkpt lat="34.9765944" lon="33.526233"><ele>172.9</ele><time>2015-05-01T14:54:58.0000000+00:00</time></trkpt><trkpt lat="34.976575" lon="33.5262854"><ele>173.0</ele><time>2015-05-01T14:54:59.0000000+00:00</time></trkpt><trkpt lat="34.9765578" lon="33.5263413"><ele>173.0</ele><time>2015-05-01T14:55:00.0000000+00:00</time></trkpt><trkpt lat="34.9765196" lon="33.5264387"><ele>171.8</ele><time>2015-05-01T14:55:02.0000000+00:00</time></trkpt><trkpt lat="34.9764808" lon="33.5265386"><ele>171.5</ele><time>2015-05-01T14:55:04.0000000+00:00</time></trkpt><trkpt lat="34.9764574" lon="33.5265962"><ele>171.2</ele><time>2015-05-01T14:55:05.0000000+00:00</time></trkpt><trkpt lat="34.9764325" lon="33.526653"><ele>171.1</ele><time>2015-05-01T14:55:06.0000000+00:00</time></trkpt><trkpt lat="34.9764065" lon="33.5267055"><ele>171.1</ele><time>2015-05-01T14:55:07.0000000+00:00</time></trkpt><trkpt lat="34.9763798" lon="33.5267686"><ele>171.0</ele><time>2015-05-01T14:55:08.0000000+00:00</time></trkpt><trkpt lat="34.9763565" lon="33.5268238"><ele>171.5</ele><time>2015-05-01T14:55:09.0000000+00:00</time></trkpt><trkpt lat="34.9763276" lon="33.5268877"><ele>171.8</ele><time>2015-05-01T14:55:10.0000000+00:00</time></trkpt><trkpt lat="34.9763012" lon="33.5269473"><ele>171.4</ele><time>2015-05-01T14:55:11.0000000+00:00</time></trkpt><trkpt lat="34.9762682" lon="33.5270146"><ele>171.2</ele><time>2015-05-01T14:55:12.0000000+00:00</time></trkpt><trkpt lat="34.9762393" lon="33.5270777"><ele>171.1</ele><time>2015-05-01T14:55:13.0000000+00:00</time></trkpt><trkpt lat="34.9762066" lon="33.5271349"><ele>171.1</ele><time>2015-05-01T14:55:14.0000000+00:00</time></trkpt><trkpt lat="34.976176" lon="33.527191"><ele>171.0</ele><time>2015-05-01T14:55:15.0000000+00:00</time></trkpt><trkpt lat="34.976142" lon="33.5272506"><ele>171.0</ele><time>2015-05-01T14:55:16.0000000+00:00</time></trkpt><trkpt lat="34.9761094" lon="33.52731"><ele>171.0</ele><time>2015-05-01T14:55:17.0000000+00:00</time></trkpt><trkpt lat="34.9760754" lon="33.5273676"><ele>170.5</ele><time>2015-05-01T14:55:18.0000000+00:00</time></trkpt><trkpt lat="34.9760411" lon="33.5274215"><ele>170.3</ele><time>2015-05-01T14:55:19.0000000+00:00</time></trkpt><trkpt lat="34.9760016" lon="33.5274724"><ele>170.1</ele><time>2015-05-01T14:55:20.0000000+00:00</time></trkpt><trkpt lat="34.9759664" lon="33.5275258"><ele>170.1</ele><time>2015-05-01T14:55:21.0000000+00:00</time></trkpt><trkpt lat="34.9759348" lon="33.5275804"><ele>169.6</ele><time>2015-05-01T14:55:22.0000000+00:00</time></trkpt><trkpt lat="34.9759001" lon="33.527633"><ele>169.3</ele><time>2015-05-01T14:55:23.0000000+00:00</time></trkpt><trkpt lat="34.97586" lon="33.5276878"><ele>169.2</ele><time>2015-05-01T14:55:24.0000000+00:00</time></trkpt><trkpt lat="34.9758231" lon="33.5277385"><ele>168.6</ele><time>2015-05-01T14:55:25.0000000+00:00</time></trkpt><trkpt lat="34.9757875" lon="33.5277909"><ele>168.3</ele><time>2015-05-01T14:55:26.0000000+00:00</time></trkpt><trkpt lat="34.9757519" lon="33.527842"><ele>168.2</ele><time>2015-05-01T14:55:27.0000000+00:00</time></trkpt><trkpt lat="34.9757155" lon="33.5278979"><ele>168.1</ele><time>2015-05-01T14:55:28.0000000+00:00</time></trkpt><trkpt lat="34.975682" lon="33.5279476"><ele>168.1</ele><time>2015-05-01T14:55:29.0000000+00:00</time></trkpt><trkpt lat="34.9756444" lon="33.5280007"><ele>167.5</ele><time>2015-05-01T14:55:30.0000000+00:00</time></trkpt><trkpt lat="34.9756045" lon="33.5280543"><ele>167.3</ele><time>2015-05-01T14:55:31.0000000+00:00</time></trkpt><trkpt lat="34.9755617" lon="33.5281166"><ele>167.2</ele><time>2015-05-01T14:55:32.0000000+00:00</time></trkpt><trkpt lat="34.9755155" lon="33.5281764"><ele>167.1</ele><time>2015-05-01T14:55:33.0000000+00:00</time></trkpt><trkpt lat="34.9754683" lon="33.528238"><ele>167.1</ele><time>2015-05-01T14:55:34.0000000+00:00</time></trkpt><trkpt lat="34.9754339" lon="33.5283046"><ele>167.0</ele><time>2015-05-01T14:55:35.0000000+00:00</time></trkpt><trkpt lat="34.9753883" lon="33.5283671"><ele>167.5</ele><time>2015-05-01T14:55:36.0000000+00:00</time></trkpt><trkpt lat="34.9753408" lon="33.5284285"><ele>167.8</ele><time>2015-05-01T14:55:37.0000000+00:00</time></trkpt><trkpt lat="34.9752944" lon="33.5284813"><ele>167.9</ele><time>2015-05-01T14:55:38.0000000+00:00</time></trkpt><trkpt lat="34.9752479" lon="33.5285321"><ele>168.0</ele><time>2015-05-01T14:55:39.0000000+00:00</time></trkpt><trkpt lat="34.9751993" lon="33.5286"><ele>168.5</ele><time>2015-05-01T14:55:40.0000000+00:00</time></trkpt><trkpt lat="34.9751563" lon="33.5286578"><ele>168.3</ele><time>2015-05-01T14:55:41.0000000+00:00</time></trkpt><trkpt lat="34.9751114" lon="33.5287238"><ele>168.6</ele><time>2015-05-01T14:55:42.0000000+00:00</time></trkpt><trkpt lat="34.9750653" lon="33.5287848"><ele>168.3</ele><time>2015-05-01T14:55:43.0000000+00:00</time></trkpt><trkpt lat="34.9750205" lon="33.5288499"><ele>168.2</ele><time>2015-05-01T14:55:44.0000000+00:00</time></trkpt><trkpt lat="34.9749754" lon="33.5289065"><ele>168.6</ele><time>2015-05-01T14:55:45.0000000+00:00</time></trkpt><trkpt lat="34.974932" lon="33.5289718"><ele>168.3</ele><time>2015-05-01T14:55:46.0000000+00:00</time></trkpt><trkpt lat="34.9748884" lon="33.5290332"><ele>168.2</ele><time>2015-05-01T14:55:47.0000000+00:00</time></trkpt><trkpt lat="34.974838" lon="33.5290942"><ele>168.6</ele><time>2015-05-01T14:55:48.0000000+00:00</time></trkpt><trkpt lat="34.9747924" lon="33.529153"><ele>168.3</ele><time>2015-05-01T14:55:49.0000000+00:00</time></trkpt><trkpt lat="34.974751" lon="33.5292042"><ele>168.2</ele><time>2015-05-01T14:55:50.0000000+00:00</time></trkpt><trkpt lat="34.9747083" lon="33.5292632"><ele>167.6</ele><time>2015-05-01T14:55:51.0000000+00:00</time></trkpt><trkpt lat="34.9746687" lon="33.5293238"><ele>167.3</ele><time>2015-05-01T14:55:52.0000000+00:00</time></trkpt><trkpt lat="34.9746202" lon="33.5293932"><ele>167.2</ele><time>2015-05-01T14:55:53.0000000+00:00</time></trkpt><trkpt lat="34.9745754" lon="33.5294558"><ele>167.1</ele><time>2015-05-01T14:55:54.0000000+00:00</time></trkpt><trkpt lat="34.9745294" lon="33.5295186"><ele>167.1</ele><time>2015-05-01T14:55:55.0000000+00:00</time></trkpt><trkpt lat="34.9744762" lon="33.5295842"><ele>167.0</ele><time>2015-05-01T14:55:56.0000000+00:00</time></trkpt><trkpt lat="34.9744242" lon="33.5296488"><ele>167.0</ele><time>2015-05-01T14:55:57.0000000+00:00</time></trkpt><trkpt lat="34.9743791" lon="33.5297158"><ele>166.5</ele><time>2015-05-01T14:55:58.0000000+00:00</time></trkpt><trkpt lat="34.9743266" lon="33.5297821"><ele>166.3</ele><time>2015-05-01T14:55:59.0000000+00:00</time></trkpt><trkpt lat="34.9742736" lon="33.5298516"><ele>166.1</ele><time>2015-05-01T14:56:00.0000000+00:00</time></trkpt><trkpt lat="34.9742208" lon="33.5299238"><ele>165.1</ele><time>2015-05-01T14:56:01.0000000+00:00</time></trkpt><trkpt lat="34.97417" lon="33.5299976"><ele>164.6</ele><time>2015-05-01T14:56:02.0000000+00:00</time></trkpt><trkpt lat="34.9741236" lon="33.5300757"><ele>164.3</ele><time>2015-05-01T14:56:03.0000000+00:00</time></trkpt><trkpt lat="34.9740704" lon="33.5301532"><ele>164.2</ele><time>2015-05-01T14:56:04.0000000+00:00</time></trkpt><trkpt lat="34.9740103" lon="33.5302321"><ele>164.1</ele><time>2015-05-01T14:56:05.0000000+00:00</time></trkpt><trkpt lat="34.9739541" lon="33.5303126"><ele>163.6</ele><time>2015-05-01T14:56:06.0000000+00:00</time></trkpt><trkpt lat="34.9739012" lon="33.5303982"><ele>163.3</ele><time>2015-05-01T14:56:07.0000000+00:00</time></trkpt><trkpt lat="34.9738465" lon="33.5304915"><ele>163.2</ele><time>2015-05-01T14:56:08.0000000+00:00</time></trkpt><trkpt lat="34.9737939" lon="33.5305877"><ele>162.6</ele><time>2015-05-01T14:56:09.0000000+00:00</time></trkpt><trkpt lat="34.9737445" lon="33.5306796"><ele>162.3</ele><time>2015-05-01T14:56:10.0000000+00:00</time></trkpt><trkpt lat="34.9736923" lon="33.5307697"><ele>162.2</ele><time>2015-05-01T14:56:11.0000000+00:00</time></trkpt><trkpt lat="34.9736349" lon="33.5308762"><ele>161.6</ele><time>2015-05-01T14:56:12.0000000+00:00</time></trkpt><trkpt lat="34.9735841" lon="33.5309792"><ele>161.3</ele><time>2015-05-01T14:56:13.0000000+00:00</time></trkpt><trkpt lat="34.9735288" lon="33.5310864"><ele>160.7</ele><time>2015-05-01T14:56:14.0000000+00:00</time></trkpt><trkpt lat="34.9734856" lon="33.5312"><ele>159.8</ele><time>2015-05-01T14:56:15.0000000+00:00</time></trkpt><trkpt lat="34.9734379" lon="33.5313105"><ele>158.9</ele><time>2015-05-01T14:56:16.0000000+00:00</time></trkpt><trkpt lat="34.9733908" lon="33.531422"><ele>158.0</ele><time>2015-05-01T14:56:17.0000000+00:00</time></trkpt><trkpt lat="34.9733553" lon="33.5315445"><ele>157.0</ele><time>2015-05-01T14:56:18.0000000+00:00</time></trkpt><trkpt lat="34.9733179" lon="33.5316509"><ele>156.0</ele><time>2015-05-01T14:56:19.0000000+00:00</time></trkpt><trkpt lat="34.9732768" lon="33.5317728"><ele>155.0</ele><time>2015-05-01T14:56:20.0000000+00:00</time></trkpt><trkpt lat="34.9732474" lon="33.5319075"><ele>155.5</ele><time>2015-05-01T14:56:21.0000000+00:00</time></trkpt><trkpt lat="34.9732068" lon="33.532023"><ele>155.3</ele><time>2015-05-01T14:56:22.0000000+00:00</time></trkpt><trkpt lat="34.9731688" lon="33.5321488"><ele>154.6</ele><time>2015-05-01T14:56:23.0000000+00:00</time></trkpt><trkpt lat="34.9731278" lon="33.532277"><ele>153.8</ele><time>2015-05-01T14:56:24.0000000+00:00</time></trkpt><trkpt lat="34.9730893" lon="33.5324104"><ele>152.9</ele><time>2015-05-01T14:56:25.0000000+00:00</time></trkpt><trkpt lat="34.973056" lon="33.5325324"><ele>152.0</ele><time>2015-05-01T14:56:26.0000000+00:00</time></trkpt><trkpt lat="34.9730181" lon="33.5326596"><ele>151.5</ele><time>2015-05-01T14:56:27.0000000+00:00</time></trkpt><trkpt lat="34.9729894" lon="33.5327967"><ele>150.8</ele><time>2015-05-01T14:56:28.0000000+00:00</time></trkpt><trkpt lat="34.972953" lon="33.5329277"><ele>150.4</ele><time>2015-05-01T14:56:29.0000000+00:00</time></trkpt><trkpt lat="34.9729134" lon="33.5330595"><ele>150.2</ele><time>2015-05-01T14:56:30.0000000+00:00</time></trkpt><trkpt lat="34.9728788" lon="33.5332005"><ele>149.6</ele><time>2015-05-01T14:56:31.0000000+00:00</time></trkpt><trkpt lat="34.9728445" lon="33.5333394"><ele>148.8</ele><time>2015-05-01T14:56:32.0000000+00:00</time></trkpt><trkpt lat="34.9728022" lon="33.5334762"><ele>148.4</ele><time>2015-05-01T14:56:33.0000000+00:00</time></trkpt><trkpt lat="34.9727605" lon="33.5336102"><ele>148.2</ele><time>2015-05-01T14:56:34.0000000+00:00</time></trkpt><trkpt lat="34.9727232" lon="33.5337605"><ele>147.1</ele><time>2015-05-01T14:56:35.0000000+00:00</time></trkpt><trkpt lat="34.9726844" lon="33.533906"><ele>146.6</ele><time>2015-05-01T14:56:36.0000000+00:00</time></trkpt><trkpt lat="34.9726393" lon="33.5340452"><ele>145.8</ele><time>2015-05-01T14:56:37.0000000+00:00</time></trkpt><trkpt lat="34.9725995" lon="33.5341784"><ele>144.9</ele><time>2015-05-01T14:56:38.0000000+00:00</time></trkpt><trkpt lat="34.9725558" lon="33.5343111"><ele>144.5</ele><time>2015-05-01T14:56:39.0000000+00:00</time></trkpt><trkpt lat="34.9725078" lon="33.5344505"><ele>144.2</ele><time>2015-05-01T14:56:40.0000000+00:00</time></trkpt><trkpt lat="34.9724679" lon="33.5345831"><ele>144.1</ele><time>2015-05-01T14:56:41.0000000+00:00</time></trkpt><trkpt lat="34.9724308" lon="33.5347131"><ele>143.6</ele><time>2015-05-01T14:56:42.0000000+00:00</time></trkpt><trkpt lat="34.9723904" lon="33.5348478"><ele>142.8</ele><time>2015-05-01T14:56:43.0000000+00:00</time></trkpt><trkpt lat="34.9723548" lon="33.5349805"><ele>143.4</ele><time>2015-05-01T14:56:44.0000000+00:00</time></trkpt><trkpt lat="34.9723198" lon="33.5351168"><ele>143.7</ele><time>2015-05-01T14:56:45.0000000+00:00</time></trkpt><trkpt lat="34.9722843" lon="33.5352338"><ele>144.4</ele><time>2015-05-01T14:56:46.0000000+00:00</time></trkpt><trkpt lat="34.9722526" lon="33.535361"><ele>144.2</ele><time>2015-05-01T14:56:47.0000000+00:00</time></trkpt><trkpt lat="34.9722153" lon="33.5354888"><ele>144.1</ele><time>2015-05-01T14:56:48.0000000+00:00</time></trkpt><trkpt lat="34.9721778" lon="33.5356135"><ele>144.1</ele><time>2015-05-01T14:56:49.0000000+00:00</time></trkpt><trkpt lat="34.9721381" lon="33.5357382"><ele>144.0</ele><time>2015-05-01T14:56:50.0000000+00:00</time></trkpt><trkpt lat="34.9721057" lon="33.535865"><ele>144.0</ele><time>2015-05-01T14:56:51.0000000+00:00</time></trkpt><trkpt lat="34.9720709" lon="33.5359788"><ele>144.0</ele><time>2015-05-01T14:56:52.0000000+00:00</time></trkpt><trkpt lat="34.9720359" lon="33.5360911"><ele>144.0</ele><time>2015-05-01T14:56:53.0000000+00:00</time></trkpt><trkpt lat="34.9719958" lon="33.5362019"><ele>144.0</ele><time>2015-05-01T14:56:54.0000000+00:00</time></trkpt><trkpt lat="34.971965" lon="33.536313"><ele>144.0</ele><time>2015-05-01T14:56:55.0000000+00:00</time></trkpt><trkpt lat="34.9719268" lon="33.5364321"><ele>144.0</ele><time>2015-05-01T14:56:56.0000000+00:00</time></trkpt><trkpt lat="34.9718898" lon="33.5365283"><ele>144.5</ele><time>2015-05-01T14:56:57.0000000+00:00</time></trkpt><trkpt lat="34.9718553" lon="33.5366468"><ele>144.8</ele><time>2015-05-01T14:56:58.0000000+00:00</time></trkpt><trkpt lat="34.9718279" lon="33.5367591"><ele>144.4</ele><time>2015-05-01T14:56:59.0000000+00:00</time></trkpt><trkpt lat="34.9717946" lon="33.5368694"><ele>144.7</ele><time>2015-05-01T14:57:00.0000000+00:00</time></trkpt><trkpt lat="34.9717664" lon="33.5369762"><ele>144.9</ele><time>2015-05-01T14:57:01.0000000+00:00</time></trkpt><trkpt lat="34.9717287" lon="33.537075"><ele>144.4</ele><time>2015-05-01T14:57:02.0000000+00:00</time></trkpt><trkpt lat="34.9717092" lon="33.5371921"><ele>144.2</ele><time>2015-05-01T14:57:03.0000000+00:00</time></trkpt><trkpt lat="34.9716702" lon="33.5372986"><ele>144.1</ele><time>2015-05-01T14:57:04.0000000+00:00</time></trkpt><trkpt lat="34.9716373" lon="33.537405"><ele>144.1</ele><time>2015-05-01T14:57:05.0000000+00:00</time></trkpt><trkpt lat="34.9716026" lon="33.5375074"><ele>144.0</ele><time>2015-05-01T14:57:06.0000000+00:00</time></trkpt><trkpt lat="34.9715722" lon="33.5376045"><ele>143.0</ele><time>2015-05-01T14:57:07.0000000+00:00</time></trkpt><trkpt lat="34.9715409" lon="33.5377102"><ele>142.0</ele><time>2015-05-01T14:57:08.0000000+00:00</time></trkpt><trkpt lat="34.9715065" lon="33.5377965"><ele>141.0</ele><time>2015-05-01T14:57:09.0000000+00:00</time></trkpt><trkpt lat="34.9714761" lon="33.5378901"><ele>140.5</ele><time>2015-05-01T14:57:10.0000000+00:00</time></trkpt><trkpt lat="34.9714428" lon="33.537976"><ele>140.3</ele><time>2015-05-01T14:57:11.0000000+00:00</time></trkpt><trkpt lat="34.9714045" lon="33.5380708"><ele>140.1</ele><time>2015-05-01T14:57:12.0000000+00:00</time></trkpt><trkpt lat="34.9713755" lon="33.5381628"><ele>139.1</ele><time>2015-05-01T14:57:13.0000000+00:00</time></trkpt><trkpt lat="34.9713432" lon="33.5382475"><ele>139.1</ele><time>2015-05-01T14:57:14.0000000+00:00</time></trkpt><trkpt lat="34.9713023" lon="33.5383371"><ele>138.5</ele><time>2015-05-01T14:57:15.0000000+00:00</time></trkpt><trkpt lat="34.9712613" lon="33.5384287"><ele>138.3</ele><time>2015-05-01T14:57:16.0000000+00:00</time></trkpt><trkpt lat="34.9712235" lon="33.5385198"><ele>138.1</ele><time>2015-05-01T14:57:17.0000000+00:00</time></trkpt><trkpt lat="34.9711901" lon="33.5385994"><ele>137.6</ele><time>2015-05-01T14:57:18.0000000+00:00</time></trkpt><trkpt lat="34.9711592" lon="33.5386762"><ele>137.3</ele><time>2015-05-01T14:57:19.0000000+00:00</time></trkpt><trkpt lat="34.9711277" lon="33.5387356"><ele>137.1</ele><time>2015-05-01T14:57:21.0000000+00:00</time></trkpt><trkpt lat="34.9710821" lon="33.5388205"><ele>135.3</ele><time>2015-05-01T14:57:42.0000000+00:00</time></trkpt><trkpt lat="34.9710406" lon="33.5389086"><ele>135.3</ele><time>2015-05-01T14:57:44.0000000+00:00</time></trkpt><trkpt lat="34.9710082" lon="33.538956"><ele>135.7</ele><time>2015-05-01T14:57:45.0000000+00:00</time></trkpt><trkpt lat="34.9709815" lon="33.5390023"><ele>135.8</ele><time>2015-05-01T14:57:46.0000000+00:00</time></trkpt><trkpt lat="34.9709561" lon="33.5390509"><ele>136.4</ele><time>2015-05-01T14:57:47.0000000+00:00</time></trkpt><trkpt lat="34.9709203" lon="33.5391052"><ele>136.2</ele><time>2015-05-01T14:57:48.0000000+00:00</time></trkpt><trkpt lat="34.9708812" lon="33.5391545"><ele>136.1</ele><time>2015-05-01T14:57:49.0000000+00:00</time></trkpt><trkpt lat="34.9708475" lon="33.5392017"><ele>136.1</ele><time>2015-05-01T14:57:50.0000000+00:00</time></trkpt><trkpt lat="34.9708119" lon="33.5392535"><ele>136.0</ele><time>2015-05-01T14:57:51.0000000+00:00</time></trkpt><trkpt lat="34.9707727" lon="33.5393069"><ele>135.5</ele><time>2015-05-01T14:57:52.0000000+00:00</time></trkpt><trkpt lat="34.9707314" lon="33.5393651"><ele>134.8</ele><time>2015-05-01T14:57:53.0000000+00:00</time></trkpt><trkpt lat="34.9706857" lon="33.5394148"><ele>133.9</ele><time>2015-05-01T14:57:54.0000000+00:00</time></trkpt><trkpt lat="34.9706472" lon="33.5394737"><ele>133.5</ele><time>2015-05-01T14:57:55.0000000+00:00</time></trkpt><trkpt lat="34.9706037" lon="33.5395323"><ele>133.2</ele><time>2015-05-01T14:57:56.0000000+00:00</time></trkpt><trkpt lat="34.9705654" lon="33.5395854"><ele>132.6</ele><time>2015-05-01T14:57:57.0000000+00:00</time></trkpt><trkpt lat="34.9705264" lon="33.5396385"><ele>132.3</ele><time>2015-05-01T14:57:58.0000000+00:00</time></trkpt><trkpt lat="34.9704859" lon="33.5396867"><ele>131.2</ele><time>2015-05-01T14:57:59.0000000+00:00</time></trkpt><trkpt lat="34.9704472" lon="33.539744"><ele>130.6</ele><time>2015-05-01T14:58:00.0000000+00:00</time></trkpt><trkpt lat="34.970402" lon="33.5398026"><ele>130.3</ele><time>2015-05-01T14:58:01.0000000+00:00</time></trkpt><trkpt lat="34.9703724" lon="33.5398602"><ele>129.7</ele><time>2015-05-01T14:58:02.0000000+00:00</time></trkpt><trkpt lat="34.9703227" lon="33.5399276"><ele>129.3</ele><time>2015-05-01T14:58:03.0000000+00:00</time></trkpt><trkpt lat="34.9702782" lon="33.5399965"><ele>129.2</ele><time>2015-05-01T14:58:04.0000000+00:00</time></trkpt><trkpt lat="34.9702437" lon="33.5400605"><ele>128.6</ele><time>2015-05-01T14:58:05.0000000+00:00</time></trkpt><trkpt lat="34.9702047" lon="33.5401228"><ele>127.8</ele><time>2015-05-01T14:58:06.0000000+00:00</time></trkpt><trkpt lat="34.9701595" lon="33.5401749"><ele>127.4</ele><time>2015-05-01T14:58:07.0000000+00:00</time></trkpt><trkpt lat="34.9701141" lon="33.5402315"><ele>127.2</ele><time>2015-05-01T14:58:08.0000000+00:00</time></trkpt><trkpt lat="34.9700795" lon="33.5402842"><ele>126.6</ele><time>2015-05-01T14:58:09.0000000+00:00</time></trkpt><trkpt lat="34.9700412" lon="33.5403431"><ele>126.3</ele><time>2015-05-01T14:58:10.0000000+00:00</time></trkpt><trkpt lat="34.9700029" lon="33.5403971"><ele>127.2</ele><time>2015-05-01T14:58:11.0000000+00:00</time></trkpt><trkpt lat="34.969956" lon="33.5404577"><ele>127.6</ele><time>2015-05-01T14:58:12.0000000+00:00</time></trkpt><trkpt lat="34.969915" lon="33.5405093"><ele>127.8</ele><time>2015-05-01T14:58:13.0000000+00:00</time></trkpt><trkpt lat="34.9698757" lon="33.5405623"><ele>127.9</ele><time>2015-05-01T14:58:14.0000000+00:00</time></trkpt><trkpt lat="34.969838" lon="33.5406217"><ele>128.0</ele><time>2015-05-01T14:58:15.0000000+00:00</time></trkpt><trkpt lat="34.9697984" lon="33.5406878"><ele>128.0</ele><time>2015-05-01T14:58:16.0000000+00:00</time></trkpt><trkpt lat="34.9697614" lon="33.5407428"><ele>127.5</ele><time>2015-05-01T14:58:17.0000000+00:00</time></trkpt><trkpt lat="34.9697175" lon="33.5407897"><ele>126.8</ele><time>2015-05-01T14:58:18.0000000+00:00</time></trkpt><trkpt lat="34.9696766" lon="33.540855"><ele>126.4</ele><time>2015-05-01T14:58:19.0000000+00:00</time></trkpt><trkpt lat="34.969637" lon="33.5409114"><ele>125.7</ele><time>2015-05-01T14:58:20.0000000+00:00</time></trkpt><trkpt lat="34.9695888" lon="33.5409628"><ele>125.4</ele><time>2015-05-01T14:58:21.0000000+00:00</time></trkpt><trkpt lat="34.9695521" lon="33.5410132"><ele>125.7</ele><time>2015-05-01T14:58:22.0000000+00:00</time></trkpt><trkpt lat="34.9695105" lon="33.5410728"><ele>125.9</ele><time>2015-05-01T14:58:23.0000000+00:00</time></trkpt><trkpt lat="34.9694642" lon="33.5411314"><ele>125.9</ele><time>2015-05-01T14:58:24.0000000+00:00</time></trkpt><trkpt lat="34.9694155" lon="33.541193"><ele>125.5</ele><time>2015-05-01T14:58:25.0000000+00:00</time></trkpt><trkpt lat="34.9693645" lon="33.5412533"><ele>124.8</ele><time>2015-05-01T14:58:26.0000000+00:00</time></trkpt><trkpt lat="34.9693101" lon="33.5413222"><ele>124.9</ele><time>2015-05-01T14:58:27.0000000+00:00</time></trkpt><trkpt lat="34.9692588" lon="33.541379"><ele>125.0</ele><time>2015-05-01T14:58:28.0000000+00:00</time></trkpt><trkpt lat="34.9692079" lon="33.5414405"><ele>125.0</ele><time>2015-05-01T14:58:29.0000000+00:00</time></trkpt><trkpt lat="34.9691553" lon="33.5415071"><ele>124.5</ele><time>2015-05-01T14:58:30.0000000+00:00</time></trkpt><trkpt lat="34.9691084" lon="33.541569"><ele>124.3</ele><time>2015-05-01T14:58:31.0000000+00:00</time></trkpt><trkpt lat="34.9690583" lon="33.5416262"><ele>124.1</ele><time>2015-05-01T14:58:32.0000000+00:00</time></trkpt><trkpt lat="34.9690092" lon="33.5416949"><ele>124.1</ele><time>2015-05-01T14:58:33.0000000+00:00</time></trkpt><trkpt lat="34.968955" lon="33.541747"><ele>124.1</ele><time>2015-05-01T14:58:34.0000000+00:00</time></trkpt><trkpt lat="34.9688947" lon="33.5418111"><ele>123.5</ele><time>2015-05-01T14:58:35.0000000+00:00</time></trkpt><trkpt lat="34.9688437" lon="33.5418719"><ele>123.8</ele><time>2015-05-01T14:58:36.0000000+00:00</time></trkpt><trkpt lat="34.9687905" lon="33.5419365"><ele>122.9</ele><time>2015-05-01T14:58:37.0000000+00:00</time></trkpt><trkpt lat="34.9687395" lon="33.5419968"><ele>122.0</ele><time>2015-05-01T14:58:38.0000000+00:00</time></trkpt><trkpt lat="34.9686822" lon="33.5420541"><ele>121.5</ele><time>2015-05-01T14:58:39.0000000+00:00</time></trkpt><trkpt lat="34.9686277" lon="33.542116"><ele>121.3</ele><time>2015-05-01T14:58:40.0000000+00:00</time></trkpt><trkpt lat="34.968577" lon="33.5421809"><ele>121.1</ele><time>2015-05-01T14:58:41.0000000+00:00</time></trkpt><trkpt lat="34.9685218" lon="33.5422462"><ele>121.1</ele><time>2015-05-01T14:58:42.0000000+00:00</time></trkpt><trkpt lat="34.9684637" lon="33.5423114"><ele>121.1</ele><time>2015-05-01T14:58:43.0000000+00:00</time></trkpt><trkpt lat="34.9684042" lon="33.5423726"><ele>120.5</ele><time>2015-05-01T14:58:44.0000000+00:00</time></trkpt><trkpt lat="34.9683596" lon="33.5424344"><ele>119.3</ele><time>2015-05-01T14:58:45.0000000+00:00</time></trkpt><trkpt lat="34.9683077" lon="33.5425022"><ele>119.1</ele><time>2015-05-01T14:58:46.0000000+00:00</time></trkpt><trkpt lat="34.9682491" lon="33.5425673"><ele>119.1</ele><time>2015-05-01T14:58:47.0000000+00:00</time></trkpt><trkpt lat="34.9682014" lon="33.5426362"><ele>119.6</ele><time>2015-05-01T14:58:48.0000000+00:00</time></trkpt><trkpt lat="34.9681484" lon="33.5427063"><ele>119.3</ele><time>2015-05-01T14:58:49.0000000+00:00</time></trkpt><trkpt lat="34.968099" lon="33.5427668"><ele>119.2</ele><time>2015-05-01T14:58:50.0000000+00:00</time></trkpt><trkpt lat="34.9680514" lon="33.5428358"><ele>119.1</ele><time>2015-05-01T14:58:51.0000000+00:00</time></trkpt><trkpt lat="34.9680005" lon="33.5429016"><ele>119.1</ele><time>2015-05-01T14:58:52.0000000+00:00</time></trkpt><trkpt lat="34.9679528" lon="33.5429714"><ele>118.5</ele><time>2015-05-01T14:58:53.0000000+00:00</time></trkpt><trkpt lat="34.9679042" lon="33.5430303"><ele>118.3</ele><time>2015-05-01T14:58:54.0000000+00:00</time></trkpt><trkpt lat="34.9678493" lon="33.543093"><ele>118.2</ele><time>2015-05-01T14:58:55.0000000+00:00</time></trkpt><trkpt lat="34.9677948" lon="33.5431555"><ele>118.1</ele><time>2015-05-01T14:58:56.0000000+00:00</time></trkpt><trkpt lat="34.96774" lon="33.543224"><ele>118.1</ele><time>2015-05-01T14:58:57.0000000+00:00</time></trkpt><trkpt lat="34.9676671" lon="33.543286"><ele>117.5</ele><time>2015-05-01T14:58:58.0000000+00:00</time></trkpt><trkpt lat="34.9676106" lon="33.5433582"><ele>117.3</ele><time>2015-05-01T14:58:59.0000000+00:00</time></trkpt><trkpt lat="34.9675568" lon="33.5434356"><ele>117.2</ele><time>2015-05-01T14:59:00.0000000+00:00</time></trkpt><trkpt lat="34.9675018" lon="33.5435125"><ele>117.1</ele><time>2015-05-01T14:59:01.0000000+00:00</time></trkpt><trkpt lat="34.9674502" lon="33.5435872"><ele>116.6</ele><time>2015-05-01T14:59:02.0000000+00:00</time></trkpt><trkpt lat="34.9673929" lon="33.5436648"><ele>116.8</ele><time>2015-05-01T14:59:03.0000000+00:00</time></trkpt><trkpt lat="34.9673425" lon="33.5437485"><ele>116.9</ele><time>2015-05-01T14:59:04.0000000+00:00</time></trkpt><trkpt lat="34.9672829" lon="33.54382"><ele>116.5</ele><time>2015-05-01T14:59:05.0000000+00:00</time></trkpt><trkpt lat="34.9672313" lon="33.5438957"><ele>116.2</ele><time>2015-05-01T14:59:06.0000000+00:00</time></trkpt><trkpt lat="34.9671823" lon="33.543969"><ele>116.1</ele><time>2015-05-01T14:59:07.0000000+00:00</time></trkpt><trkpt lat="34.9671316" lon="33.5440456"><ele>116.1</ele><time>2015-05-01T14:59:08.0000000+00:00</time></trkpt><trkpt lat="34.9670716" lon="33.5441063"><ele>116.0</ele><time>2015-05-01T14:59:09.0000000+00:00</time></trkpt><trkpt lat="34.9670142" lon="33.5441725"><ele>115.5</ele><time>2015-05-01T14:59:10.0000000+00:00</time></trkpt><trkpt lat="34.9669655" lon="33.5442498"><ele>115.3</ele><time>2015-05-01T14:59:11.0000000+00:00</time></trkpt><trkpt lat="34.9669109" lon="33.5443243"><ele>114.6</ele><time>2015-05-01T14:59:12.0000000+00:00</time></trkpt><trkpt lat="34.9668697" lon="33.5443976"><ele>114.3</ele><time>2015-05-01T14:59:13.0000000+00:00</time></trkpt><trkpt lat="34.9668234" lon="33.5444751"><ele>114.2</ele><time>2015-05-01T14:59:14.0000000+00:00</time></trkpt><trkpt lat="34.9667807" lon="33.5445575"><ele>114.1</ele><time>2015-05-01T14:59:15.0000000+00:00</time></trkpt><trkpt lat="34.9667414" lon="33.5446438"><ele>113.6</ele><time>2015-05-01T14:59:16.0000000+00:00</time></trkpt><trkpt lat="34.9667037" lon="33.5447287"><ele>112.8</ele><time>2015-05-01T14:59:17.0000000+00:00</time></trkpt><trkpt lat="34.9666596" lon="33.5448029"><ele>112.9</ele><time>2015-05-01T14:59:18.0000000+00:00</time></trkpt><trkpt lat="34.9666278" lon="33.5448767"><ele>113.0</ele><time>2015-05-01T14:59:19.0000000+00:00</time></trkpt><trkpt lat="34.9665882" lon="33.5449567"><ele>113.0</ele><time>2015-05-01T14:59:20.0000000+00:00</time></trkpt><trkpt lat="34.9665488" lon="33.545033"><ele>113.0</ele><time>2015-05-01T14:59:21.0000000+00:00</time></trkpt><trkpt lat="34.9665078" lon="33.54511"><ele>113.0</ele><time>2015-05-01T14:59:22.0000000+00:00</time></trkpt><trkpt lat="34.966468" lon="33.5451764"><ele>113.5</ele><time>2015-05-01T14:59:23.0000000+00:00</time></trkpt><trkpt lat="34.9664306" lon="33.5452542"><ele>113.8</ele><time>2015-05-01T14:59:24.0000000+00:00</time></trkpt><trkpt lat="34.9663954" lon="33.5453218"><ele>113.9</ele><time>2015-05-01T14:59:25.0000000+00:00</time></trkpt><trkpt lat="34.9663635" lon="33.5453949"><ele>114.0</ele><time>2015-05-01T14:59:26.0000000+00:00</time></trkpt><trkpt lat="34.9663268" lon="33.5454715"><ele>114.0</ele><time>2015-05-01T14:59:27.0000000+00:00</time></trkpt><trkpt lat="34.9662955" lon="33.5455536"><ele>113.5</ele><time>2015-05-01T14:59:28.0000000+00:00</time></trkpt><trkpt lat="34.9662569" lon="33.5456285"><ele>113.8</ele><time>2015-05-01T14:59:29.0000000+00:00</time></trkpt><trkpt lat="34.9662223" lon="33.5456999"><ele>113.9</ele><time>2015-05-01T14:59:30.0000000+00:00</time></trkpt><trkpt lat="34.9661859" lon="33.5457773"><ele>114.0</ele><time>2015-05-01T14:59:31.0000000+00:00</time></trkpt><trkpt lat="34.9661448" lon="33.5458621"><ele>114.0</ele><time>2015-05-01T14:59:32.0000000+00:00</time></trkpt><trkpt lat="34.9661056" lon="33.5459476"><ele>113.5</ele><time>2015-05-01T14:59:33.0000000+00:00</time></trkpt><trkpt lat="34.9660646" lon="33.5460313"><ele>113.3</ele><time>2015-05-01T14:59:34.0000000+00:00</time></trkpt><trkpt lat="34.9660197" lon="33.5461193"><ele>113.1</ele><time>2015-05-01T14:59:35.0000000+00:00</time></trkpt><trkpt lat="34.9659685" lon="33.5462065"><ele>113.1</ele><time>2015-05-01T14:59:36.0000000+00:00</time></trkpt><trkpt lat="34.9659289" lon="33.5462913"><ele>112.6</ele><time>2015-05-01T14:59:37.0000000+00:00</time></trkpt><trkpt lat="34.9658877" lon="33.5463824"><ele>112.3</ele><time>2015-05-01T14:59:38.0000000+00:00</time></trkpt><trkpt lat="34.9658469" lon="33.5464672"><ele>112.2</ele><time>2015-05-01T14:59:39.0000000+00:00</time></trkpt><trkpt lat="34.965803" lon="33.5465618"><ele>111.6</ele><time>2015-05-01T14:59:40.0000000+00:00</time></trkpt><trkpt lat="34.965757" lon="33.5466468"><ele>111.3</ele><time>2015-05-01T14:59:41.0000000+00:00</time></trkpt><trkpt lat="34.9657139" lon="33.5467292"><ele>111.2</ele><time>2015-05-01T14:59:42.0000000+00:00</time></trkpt><trkpt lat="34.9656716" lon="33.5468144"><ele>111.1</ele><time>2015-05-01T14:59:43.0000000+00:00</time></trkpt><trkpt lat="34.9656351" lon="33.546892"><ele>111.1</ele><time>2015-05-01T14:59:44.0000000+00:00</time></trkpt><trkpt lat="34.9655886" lon="33.5469644"><ele>110.5</ele><time>2015-05-01T14:59:45.0000000+00:00</time></trkpt><trkpt lat="34.965552" lon="33.5470441"><ele>110.8</ele><time>2015-05-01T14:59:46.0000000+00:00</time></trkpt><trkpt lat="34.9655154" lon="33.5471247"><ele>110.9</ele><time>2015-05-01T14:59:47.0000000+00:00</time></trkpt><trkpt lat="34.9654738" lon="33.547204"><ele>111.0</ele><time>2015-05-01T14:59:48.0000000+00:00</time></trkpt><trkpt lat="34.9654351" lon="33.5472885"><ele>111.0</ele><time>2015-05-01T14:59:49.0000000+00:00</time></trkpt><trkpt lat="34.965396" lon="33.5473652"><ele>111.0</ele><time>2015-05-01T14:59:50.0000000+00:00</time></trkpt><trkpt lat="34.9653526" lon="33.5474408"><ele>111.0</ele><time>2015-05-01T14:59:51.0000000+00:00</time></trkpt><trkpt lat="34.9653133" lon="33.5475196"><ele>111.0</ele><time>2015-05-01T14:59:52.0000000+00:00</time></trkpt><trkpt lat="34.9652781" lon="33.5475906"><ele>111.5</ele><time>2015-05-01T14:59:53.0000000+00:00</time></trkpt><trkpt lat="34.9652466" lon="33.547664"><ele>111.8</ele><time>2015-05-01T14:59:54.0000000+00:00</time></trkpt><trkpt lat="34.9652211" lon="33.5477385"><ele>111.9</ele><time>2015-05-01T14:59:55.0000000+00:00</time></trkpt><trkpt lat="34.96519" lon="33.5478094"><ele>112.0</ele><time>2015-05-01T14:59:56.0000000+00:00</time></trkpt><trkpt lat="34.9651543" lon="33.5478694"><ele>111.5</ele><time>2015-05-01T14:59:57.0000000+00:00</time></trkpt><trkpt lat="34.9651294" lon="33.5479376"><ele>110.8</ele><time>2015-05-01T14:59:58.0000000+00:00</time></trkpt><trkpt lat="34.9651072" lon="33.5480007"><ele>110.9</ele><time>2015-05-01T14:59:59.0000000+00:00</time></trkpt><trkpt lat="34.96509" lon="33.5480658"><ele>111.5</ele><time>2015-05-01T15:00:00.0000000+00:00</time></trkpt><trkpt lat="34.9650632" lon="33.5481306"><ele>111.7</ele><time>2015-05-01T15:00:01.0000000+00:00</time></trkpt><trkpt lat="34.9650462" lon="33.5481927"><ele>111.9</ele><time>2015-05-01T15:00:02.0000000+00:00</time></trkpt><trkpt lat="34.9650235" lon="33.5482584"><ele>112.0</ele><time>2015-05-01T15:00:03.0000000+00:00</time></trkpt><trkpt lat="34.9650013" lon="33.5483344"><ele>112.0</ele><time>2015-05-01T15:00:04.0000000+00:00</time></trkpt><trkpt lat="34.9649718" lon="33.5483998"><ele>111.5</ele><time>2015-05-01T15:00:05.0000000+00:00</time></trkpt><trkpt lat="34.9649617" lon="33.5484664"><ele>111.8</ele><time>2015-05-01T15:00:06.0000000+00:00</time></trkpt><trkpt lat="34.9649387" lon="33.5485371"><ele>111.9</ele><time>2015-05-01T15:00:07.0000000+00:00</time></trkpt><trkpt lat="34.9649199" lon="33.5486074"><ele>112.0</ele><time>2015-05-01T15:00:08.0000000+00:00</time></trkpt><trkpt lat="34.9648949" lon="33.5486783"><ele>111.5</ele><time>2015-05-01T15:00:09.0000000+00:00</time></trkpt><trkpt lat="34.9648701" lon="33.5487451"><ele>111.3</ele><time>2015-05-01T15:00:10.0000000+00:00</time></trkpt><trkpt lat="34.9648506" lon="33.5488196"><ele>111.1</ele><time>2015-05-01T15:00:11.0000000+00:00</time></trkpt><trkpt lat="34.964838" lon="33.5488839"><ele>110.6</ele><time>2015-05-01T15:00:12.0000000+00:00</time></trkpt><trkpt lat="34.9648227" lon="33.5489516"><ele>110.8</ele><time>2015-05-01T15:00:13.0000000+00:00</time></trkpt><trkpt lat="34.964805" lon="33.549015"><ele>109.9</ele><time>2015-05-01T15:00:14.0000000+00:00</time></trkpt><trkpt lat="34.9647826" lon="33.5490829"><ele>109.5</ele><time>2015-05-01T15:00:15.0000000+00:00</time></trkpt><trkpt lat="34.9647599" lon="33.5491633"><ele>109.2</ele><time>2015-05-01T15:00:16.0000000+00:00</time></trkpt><trkpt lat="34.9647353" lon="33.5492332"><ele>109.1</ele><time>2015-05-01T15:00:17.0000000+00:00</time></trkpt><trkpt lat="34.9647103" lon="33.5493006"><ele>109.1</ele><time>2015-05-01T15:00:18.0000000+00:00</time></trkpt><trkpt lat="34.9646854" lon="33.5493728"><ele>109.0</ele><time>2015-05-01T15:00:19.0000000+00:00</time></trkpt><trkpt lat="34.9646599" lon="33.5494494"><ele>109.0</ele><time>2015-05-01T15:00:20.0000000+00:00</time></trkpt><trkpt lat="34.9646383" lon="33.5495248"><ele>109.0</ele><time>2015-05-01T15:00:21.0000000+00:00</time></trkpt><trkpt lat="34.964618" lon="33.549603"><ele>108.5</ele><time>2015-05-01T15:00:22.0000000+00:00</time></trkpt><trkpt lat="34.9645935" lon="33.5496709"><ele>108.3</ele><time>2015-05-01T15:00:23.0000000+00:00</time></trkpt><trkpt lat="34.9645708" lon="33.5497541"><ele>108.1</ele><time>2015-05-01T15:00:24.0000000+00:00</time></trkpt><trkpt lat="34.9645484" lon="33.5498475"><ele>107.6</ele><time>2015-05-01T15:00:25.0000000+00:00</time></trkpt><trkpt lat="34.9645252" lon="33.5499328"><ele>107.3</ele><time>2015-05-01T15:00:26.0000000+00:00</time></trkpt><trkpt lat="34.9644987" lon="33.5500136"><ele>107.2</ele><time>2015-05-01T15:00:27.0000000+00:00</time></trkpt><trkpt lat="34.9644741" lon="33.5501039"><ele>106.6</ele><time>2015-05-01T15:00:28.0000000+00:00</time></trkpt><trkpt lat="34.9644508" lon="33.550193"><ele>106.3</ele><time>2015-05-01T15:00:29.0000000+00:00</time></trkpt><trkpt lat="34.9644256" lon="33.55028"><ele>105.7</ele><time>2015-05-01T15:00:30.0000000+00:00</time></trkpt><trkpt lat="34.9643938" lon="33.5503593"><ele>105.3</ele><time>2015-05-01T15:00:31.0000000+00:00</time></trkpt><trkpt lat="34.9643603" lon="33.5504469"><ele>105.2</ele><time>2015-05-01T15:00:32.0000000+00:00</time></trkpt><trkpt lat="34.9643461" lon="33.5505296"><ele>105.6</ele><time>2015-05-01T15:00:33.0000000+00:00</time></trkpt><trkpt lat="34.9643157" lon="33.5506214"><ele>105.3</ele><time>2015-05-01T15:00:34.0000000+00:00</time></trkpt><trkpt lat="34.9642922" lon="33.5507109"><ele>105.2</ele><time>2015-05-01T15:00:35.0000000+00:00</time></trkpt><trkpt lat="34.9642665" lon="33.550821"><ele>104.6</ele><time>2015-05-01T15:00:36.0000000+00:00</time></trkpt><trkpt lat="34.9642391" lon="33.5509157"><ele>104.3</ele><time>2015-05-01T15:00:37.0000000+00:00</time></trkpt><trkpt lat="34.96421" lon="33.5510103"><ele>103.7</ele><time>2015-05-01T15:00:38.0000000+00:00</time></trkpt><trkpt lat="34.964187" lon="33.5511025"><ele>103.3</ele><time>2015-05-01T15:00:39.0000000+00:00</time></trkpt><trkpt lat="34.9641575" lon="33.5512041"><ele>102.7</ele><time>2015-05-01T15:00:40.0000000+00:00</time></trkpt><trkpt lat="34.9641256" lon="33.5512985"><ele>102.4</ele><time>2015-05-01T15:00:41.0000000+00:00</time></trkpt><trkpt lat="34.9640966" lon="33.551388"><ele>102.7</ele><time>2015-05-01T15:00:42.0000000+00:00</time></trkpt><trkpt lat="34.9640707" lon="33.5514891"><ele>102.4</ele><time>2015-05-01T15:00:43.0000000+00:00</time></trkpt><trkpt lat="34.9640468" lon="33.5515928"><ele>102.2</ele><time>2015-05-01T15:00:44.0000000+00:00</time></trkpt><trkpt lat="34.9640349" lon="33.551691"><ele>102.1</ele><time>2015-05-01T15:00:45.0000000+00:00</time></trkpt><trkpt lat="34.9640203" lon="33.5517875"><ele>102.1</ele><time>2015-05-01T15:00:46.0000000+00:00</time></trkpt><trkpt lat="34.964018" lon="33.5518776"><ele>101.5</ele><time>2015-05-01T15:00:47.0000000+00:00</time></trkpt><trkpt lat="34.9640213" lon="33.5519736"><ele>101.3</ele><time>2015-05-01T15:00:48.0000000+00:00</time></trkpt><trkpt lat="34.9640232" lon="33.5520586"><ele>101.7</ele><time>2015-05-01T15:00:49.0000000+00:00</time></trkpt><trkpt lat="34.9640236" lon="33.5521515"><ele>101.8</ele><time>2015-05-01T15:00:50.0000000+00:00</time></trkpt><trkpt lat="34.9640211" lon="33.552244"><ele>101.9</ele><time>2015-05-01T15:00:51.0000000+00:00</time></trkpt><trkpt lat="34.964022" lon="33.552336"><ele>102.5</ele><time>2015-05-01T15:00:52.0000000+00:00</time></trkpt><trkpt lat="34.9640224" lon="33.5524249"><ele>102.7</ele><time>2015-05-01T15:00:53.0000000+00:00</time></trkpt><trkpt lat="34.9640264" lon="33.5525049"><ele>102.9</ele><time>2015-05-01T15:00:54.0000000+00:00</time></trkpt><trkpt lat="34.9640277" lon="33.5525955"><ele>103.0</ele><time>2015-05-01T15:00:55.0000000+00:00</time></trkpt><trkpt lat="34.9640341" lon="33.5526809"><ele>103.0</ele><time>2015-05-01T15:00:56.0000000+00:00</time></trkpt><trkpt lat="34.9640368" lon="33.5527665"><ele>103.5</ele><time>2015-05-01T15:00:57.0000000+00:00</time></trkpt><trkpt lat="34.9640442" lon="33.5528425"><ele>102.8</ele><time>2015-05-01T15:00:58.0000000+00:00</time></trkpt><trkpt lat="34.9640527" lon="33.5529252"><ele>102.9</ele><time>2015-05-01T15:00:59.0000000+00:00</time></trkpt><trkpt lat="34.9640588" lon="33.5530057"><ele>102.5</ele><time>2015-05-01T15:01:00.0000000+00:00</time></trkpt><trkpt lat="34.9640633" lon="33.5530865"><ele>101.7</ele><time>2015-05-01T15:01:01.0000000+00:00</time></trkpt><trkpt lat="34.9640698" lon="33.5531694"><ele>101.9</ele><time>2015-05-01T15:01:02.0000000+00:00</time></trkpt><trkpt lat="34.9640757" lon="33.5532512"><ele>101.5</ele><time>2015-05-01T15:01:03.0000000+00:00</time></trkpt><trkpt lat="34.9640833" lon="33.5533361"><ele>101.7</ele><time>2015-05-01T15:01:04.0000000+00:00</time></trkpt><trkpt lat="34.964084" lon="33.5534302"><ele>101.4</ele><time>2015-05-01T15:01:05.0000000+00:00</time></trkpt><trkpt lat="34.9640905" lon="33.5535007"><ele>101.2</ele><time>2015-05-01T15:01:06.0000000+00:00</time></trkpt><trkpt lat="34.9640921" lon="33.5535719"><ele>101.1</ele><time>2015-05-01T15:01:07.0000000+00:00</time></trkpt><trkpt lat="34.9640934" lon="33.553666"><ele>101.1</ele><time>2015-05-01T15:01:08.0000000+00:00</time></trkpt><trkpt lat="34.9640941" lon="33.5537404"><ele>101.5</ele><time>2015-05-01T15:01:09.0000000+00:00</time></trkpt><trkpt lat="34.9640976" lon="33.5538232"><ele>101.8</ele><time>2015-05-01T15:01:10.0000000+00:00</time></trkpt><trkpt lat="34.964102" lon="33.5539101"><ele>101.4</ele><time>2015-05-01T15:01:11.0000000+00:00</time></trkpt><trkpt lat="34.9641059" lon="33.5539934"><ele>101.7</ele><time>2015-05-01T15:01:12.0000000+00:00</time></trkpt><trkpt lat="34.96411" lon="33.5540744"><ele>101.9</ele><time>2015-05-01T15:01:13.0000000+00:00</time></trkpt><trkpt lat="34.9641118" lon="33.5541632"><ele>101.9</ele><time>2015-05-01T15:01:14.0000000+00:00</time></trkpt><trkpt lat="34.964107" lon="33.5542516"><ele>102.0</ele><time>2015-05-01T15:01:15.0000000+00:00</time></trkpt><trkpt lat="34.9641072" lon="33.5543344"><ele>102.0</ele><time>2015-05-01T15:01:16.0000000+00:00</time></trkpt><trkpt lat="34.9641031" lon="33.5544152"><ele>102.0</ele><time>2015-05-01T15:01:17.0000000+00:00</time></trkpt><trkpt lat="34.9641049" lon="33.5544912"><ele>102.0</ele><time>2015-05-01T15:01:18.0000000+00:00</time></trkpt><trkpt lat="34.964106" lon="33.5545741"><ele>101.5</ele><time>2015-05-01T15:01:19.0000000+00:00</time></trkpt><trkpt lat="34.9641013" lon="33.5546564"><ele>101.3</ele><time>2015-05-01T15:01:20.0000000+00:00</time></trkpt><trkpt lat="34.9640943" lon="33.5547353"><ele>101.1</ele><time>2015-05-01T15:01:21.0000000+00:00</time></trkpt><trkpt lat="34.9640949" lon="33.5548116"><ele>101.6</ele><time>2015-05-01T15:01:22.0000000+00:00</time></trkpt><trkpt lat="34.9640894" lon="33.5548828"><ele>101.3</ele><time>2015-05-01T15:01:23.0000000+00:00</time></trkpt><trkpt lat="34.9640941" lon="33.5549496"><ele>101.7</ele><time>2015-05-01T15:01:24.0000000+00:00</time></trkpt><trkpt lat="34.9640929" lon="33.5550233"><ele>101.8</ele><time>2015-05-01T15:01:25.0000000+00:00</time></trkpt><trkpt lat="34.964091" lon="33.5550975"><ele>101.9</ele><time>2015-05-01T15:01:26.0000000+00:00</time></trkpt><trkpt lat="34.9640889" lon="33.5551683"><ele>102.0</ele><time>2015-05-01T15:01:27.0000000+00:00</time></trkpt><trkpt lat="34.9640816" lon="33.5552442"><ele>102.5</ele><time>2015-05-01T15:01:28.0000000+00:00</time></trkpt><trkpt lat="34.9640807" lon="33.5553238"><ele>102.8</ele><time>2015-05-01T15:01:29.0000000+00:00</time></trkpt><trkpt lat="34.9640756" lon="33.5554033"><ele>102.9</ele><time>2015-05-01T15:01:30.0000000+00:00</time></trkpt><trkpt lat="34.964071" lon="33.5554837"><ele>103.0</ele><time>2015-05-01T15:01:31.0000000+00:00</time></trkpt><trkpt lat="34.9640682" lon="33.5555697"><ele>103.0</ele><time>2015-05-01T15:01:32.0000000+00:00</time></trkpt><trkpt lat="34.9640687" lon="33.5556511"><ele>103.5</ele><time>2015-05-01T15:01:33.0000000+00:00</time></trkpt><trkpt lat="34.9640684" lon="33.5557288"><ele>103.8</ele><time>2015-05-01T15:01:34.0000000+00:00</time></trkpt><trkpt lat="34.9640628" lon="33.5558125"><ele>103.9</ele><time>2015-05-01T15:01:35.0000000+00:00</time></trkpt><trkpt lat="34.964061" lon="33.5558968"><ele>103.5</ele><time>2015-05-01T15:01:36.0000000+00:00</time></trkpt><trkpt lat="34.9640619" lon="33.5559868"><ele>103.7</ele><time>2015-05-01T15:01:37.0000000+00:00</time></trkpt><trkpt lat="34.9640599" lon="33.5560645"><ele>103.9</ele><time>2015-05-01T15:01:38.0000000+00:00</time></trkpt><trkpt lat="34.9640528" lon="33.5561454"><ele>103.5</ele><time>2015-05-01T15:01:39.0000000+00:00</time></trkpt><trkpt lat="34.9640219" lon="33.556211"><ele>102.7</ele><time>2015-05-01T15:01:40.0000000+00:00</time></trkpt><trkpt lat="34.964012" lon="33.5562784"><ele>102.4</ele><time>2015-05-01T15:01:41.0000000+00:00</time></trkpt><trkpt lat="34.9640035" lon="33.5563546"><ele>102.2</ele><time>2015-05-01T15:01:42.0000000+00:00</time></trkpt><trkpt lat="34.9639962" lon="33.5564304"><ele>101.6</ele><time>2015-05-01T15:01:43.0000000+00:00</time></trkpt><trkpt lat="34.963992" lon="33.5565124"><ele>101.3</ele><time>2015-05-01T15:01:44.0000000+00:00</time></trkpt><trkpt lat="34.963976" lon="33.5565841"><ele>101.2</ele><time>2015-05-01T15:01:45.0000000+00:00</time></trkpt><trkpt lat="34.9639687" lon="33.5566659"><ele>101.6</ele><time>2015-05-01T15:01:46.0000000+00:00</time></trkpt><trkpt lat="34.9639639" lon="33.5567487"><ele>101.8</ele><time>2015-05-01T15:01:47.0000000+00:00</time></trkpt><trkpt lat="34.9639494" lon="33.5568346"><ele>100.9</ele><time>2015-05-01T15:01:48.0000000+00:00</time></trkpt><trkpt lat="34.9639366" lon="33.5569147"><ele>101.0</ele><time>2015-05-01T15:01:49.0000000+00:00</time></trkpt><trkpt lat="34.9639249" lon="33.5569951"><ele>100.5</ele><time>2015-05-01T15:01:50.0000000+00:00</time></trkpt><trkpt lat="34.9639037" lon="33.557079"><ele>100.3</ele><time>2015-05-01T15:01:51.0000000+00:00</time></trkpt><trkpt lat="34.963893" lon="33.557156"><ele>100.1</ele><time>2015-05-01T15:01:52.0000000+00:00</time></trkpt><trkpt lat="34.9638806" lon="33.5572279"><ele>100.1</ele><time>2015-05-01T15:01:53.0000000+00:00</time></trkpt><trkpt lat="34.9638662" lon="33.5573077"><ele>99.6</ele><time>2015-05-01T15:01:54.0000000+00:00</time></trkpt><trkpt lat="34.9638427" lon="33.5573981"><ele>99.3</ele><time>2015-05-01T15:01:55.0000000+00:00</time></trkpt><trkpt lat="34.9638178" lon="33.5574846"><ele>99.2</ele><time>2015-05-01T15:01:56.0000000+00:00</time></trkpt><trkpt lat="34.9637932" lon="33.5575684"><ele>99.1</ele><time>2015-05-01T15:01:57.0000000+00:00</time></trkpt><trkpt lat="34.963771" lon="33.5576474"><ele>98.1</ele><time>2015-05-01T15:01:58.0000000+00:00</time></trkpt><trkpt lat="34.9637421" lon="33.5577192"><ele>98.0</ele><time>2015-05-01T15:01:59.0000000+00:00</time></trkpt><trkpt lat="34.9637125" lon="33.5578099"><ele>98.0</ele><time>2015-05-01T15:02:00.0000000+00:00</time></trkpt><trkpt lat="34.9636812" lon="33.5578891"><ele>98.0</ele><time>2015-05-01T15:02:01.0000000+00:00</time></trkpt><trkpt lat="34.9636498" lon="33.5579667"><ele>98.0</ele><time>2015-05-01T15:02:02.0000000+00:00</time></trkpt><trkpt lat="34.9636227" lon="33.5580433"><ele>97.5</ele><time>2015-05-01T15:02:03.0000000+00:00</time></trkpt><trkpt lat="34.9635841" lon="33.558118"><ele>96.8</ele><time>2015-05-01T15:02:04.0000000+00:00</time></trkpt><trkpt lat="34.9635479" lon="33.5581844"><ele>96.4</ele><time>2015-05-01T15:02:05.0000000+00:00</time></trkpt><trkpt lat="34.9635135" lon="33.5582607"><ele>96.2</ele><time>2015-05-01T15:02:06.0000000+00:00</time></trkpt><trkpt lat="34.9634809" lon="33.5583413"><ele>96.1</ele><time>2015-05-01T15:02:07.0000000+00:00</time></trkpt><trkpt lat="34.9634465" lon="33.5584207"><ele>96.1</ele><time>2015-05-01T15:02:08.0000000+00:00</time></trkpt><trkpt lat="34.9634108" lon="33.5584891"><ele>96.0</ele><time>2015-05-01T15:02:09.0000000+00:00</time></trkpt><trkpt lat="34.963376" lon="33.5585684"><ele>96.0</ele><time>2015-05-01T15:02:10.0000000+00:00</time></trkpt><trkpt lat="34.9633495" lon="33.5586346"><ele>95.5</ele><time>2015-05-01T15:02:11.0000000+00:00</time></trkpt><trkpt lat="34.9633143" lon="33.5587077"><ele>95.3</ele><time>2015-05-01T15:02:12.0000000+00:00</time></trkpt><trkpt lat="34.9632836" lon="33.5587759"><ele>95.1</ele><time>2015-05-01T15:02:13.0000000+00:00</time></trkpt><trkpt lat="34.963256" lon="33.5588487"><ele>95.1</ele><time>2015-05-01T15:02:14.0000000+00:00</time></trkpt><trkpt lat="34.9632227" lon="33.5589221"><ele>94.6</ele><time>2015-05-01T15:02:15.0000000+00:00</time></trkpt><trkpt lat="34.9631929" lon="33.5589998"><ele>93.8</ele><time>2015-05-01T15:02:16.0000000+00:00</time></trkpt><trkpt lat="34.9631541" lon="33.55907"><ele>93.4</ele><time>2015-05-01T15:02:17.0000000+00:00</time></trkpt><trkpt lat="34.9631224" lon="33.5591441"><ele>93.7</ele><time>2015-05-01T15:02:18.0000000+00:00</time></trkpt><trkpt lat="34.9630945" lon="33.5592165"><ele>93.9</ele><time>2015-05-01T15:02:19.0000000+00:00</time></trkpt><trkpt lat="34.9630659" lon="33.5592912"><ele>93.9</ele><time>2015-05-01T15:02:20.0000000+00:00</time></trkpt><trkpt lat="34.9630355" lon="33.559366"><ele>93.5</ele><time>2015-05-01T15:02:21.0000000+00:00</time></trkpt><trkpt lat="34.9630025" lon="33.5594406"><ele>93.3</ele><time>2015-05-01T15:02:22.0000000+00:00</time></trkpt><trkpt lat="34.9629672" lon="33.559509"><ele>93.1</ele><time>2015-05-01T15:02:23.0000000+00:00</time></trkpt><trkpt lat="34.9629322" lon="33.5595831"><ele>93.1</ele><time>2015-05-01T15:02:24.0000000+00:00</time></trkpt><trkpt lat="34.9628889" lon="33.5596599"><ele>92.5</ele><time>2015-05-01T15:02:25.0000000+00:00</time></trkpt><trkpt lat="34.9628517" lon="33.5597346"><ele>92.3</ele><time>2015-05-01T15:02:26.0000000+00:00</time></trkpt><trkpt lat="34.9628265" lon="33.5597944"><ele>91.7</ele><time>2015-05-01T15:02:27.0000000+00:00</time></trkpt><trkpt lat="34.9627944" lon="33.5598656"><ele>91.3</ele><time>2015-05-01T15:02:28.0000000+00:00</time></trkpt><trkpt lat="34.9627541" lon="33.5599302"><ele>91.2</ele><time>2015-05-01T15:02:29.0000000+00:00</time></trkpt><trkpt lat="34.9627154" lon="33.5599901"><ele>91.6</ele><time>2015-05-01T15:02:30.0000000+00:00</time></trkpt><trkpt lat="34.9626773" lon="33.5600518"><ele>91.3</ele><time>2015-05-01T15:02:31.0000000+00:00</time></trkpt><trkpt lat="34.9626373" lon="33.5601153"><ele>91.2</ele><time>2015-05-01T15:02:32.0000000+00:00</time></trkpt><trkpt lat="34.9625973" lon="33.5601743"><ele>90.6</ele><time>2015-05-01T15:02:33.0000000+00:00</time></trkpt><trkpt lat="34.9625567" lon="33.5602333"><ele>90.8</ele><time>2015-05-01T15:02:34.0000000+00:00</time></trkpt><trkpt lat="34.9625198" lon="33.5602857"><ele>90.9</ele><time>2015-05-01T15:02:35.0000000+00:00</time></trkpt><trkpt lat="34.9624791" lon="33.5603497"><ele>91.0</ele><time>2015-05-01T15:02:36.0000000+00:00</time></trkpt><trkpt lat="34.9624411" lon="33.5604068"><ele>91.0</ele><time>2015-05-01T15:02:37.0000000+00:00</time></trkpt><trkpt lat="34.9624025" lon="33.5604682"><ele>92.0</ele><time>2015-05-01T15:02:38.0000000+00:00</time></trkpt><trkpt lat="34.9623636" lon="33.5605154"><ele>92.5</ele><time>2015-05-01T15:02:39.0000000+00:00</time></trkpt><trkpt lat="34.9623204" lon="33.5605693"><ele>93.3</ele><time>2015-05-01T15:02:40.0000000+00:00</time></trkpt><trkpt lat="34.9622858" lon="33.5606272"><ele>93.6</ele><time>2015-05-01T15:02:41.0000000+00:00</time></trkpt><trkpt lat="34.9622469" lon="33.5606788"><ele>93.8</ele><time>2015-05-01T15:02:42.0000000+00:00</time></trkpt><trkpt lat="34.9622085" lon="33.560733"><ele>93.9</ele><time>2015-05-01T15:02:43.0000000+00:00</time></trkpt><trkpt lat="34.9621675" lon="33.5607881"><ele>93.5</ele><time>2015-05-01T15:02:44.0000000+00:00</time></trkpt><trkpt lat="34.9621362" lon="33.5608345"><ele>93.2</ele><time>2015-05-01T15:02:45.0000000+00:00</time></trkpt><trkpt lat="34.9620975" lon="33.560892"><ele>92.6</ele><time>2015-05-01T15:02:46.0000000+00:00</time></trkpt><trkpt lat="34.9620505" lon="33.5609442"><ele>91.8</ele><time>2015-05-01T15:02:47.0000000+00:00</time></trkpt><trkpt lat="34.9619993" lon="33.5609981"><ele>91.4</ele><time>2015-05-01T15:02:48.0000000+00:00</time></trkpt><trkpt lat="34.9619521" lon="33.5610555"><ele>91.2</ele><time>2015-05-01T15:02:49.0000000+00:00</time></trkpt><trkpt lat="34.9619112" lon="33.5611101"><ele>91.1</ele><time>2015-05-01T15:02:50.0000000+00:00</time></trkpt><trkpt lat="34.9618716" lon="33.5611574"><ele>91.6</ele><time>2015-05-01T15:02:51.0000000+00:00</time></trkpt><trkpt lat="34.9618263" lon="33.5612136"><ele>92.3</ele><time>2015-05-01T15:02:52.0000000+00:00</time></trkpt><trkpt lat="34.9617883" lon="33.5612685"><ele>92.7</ele><time>2015-05-01T15:02:53.0000000+00:00</time></trkpt><trkpt lat="34.9617532" lon="33.5613199"><ele>93.3</ele><time>2015-05-01T15:02:54.0000000+00:00</time></trkpt><trkpt lat="34.9617147" lon="33.5613715"><ele>93.2</ele><time>2015-05-01T15:02:55.0000000+00:00</time></trkpt><trkpt lat="34.9616745" lon="33.5614274"><ele>93.1</ele><time>2015-05-01T15:02:56.0000000+00:00</time></trkpt><trkpt lat="34.9616342" lon="33.5614774"><ele>93.1</ele><time>2015-05-01T15:02:57.0000000+00:00</time></trkpt><trkpt lat="34.9615969" lon="33.5615293"><ele>93.0</ele><time>2015-05-01T15:02:58.0000000+00:00</time></trkpt><trkpt lat="34.9615524" lon="33.5615797"><ele>93.0</ele><time>2015-05-01T15:02:59.0000000+00:00</time></trkpt><trkpt lat="34.9615095" lon="33.5616286"><ele>92.5</ele><time>2015-05-01T15:03:00.0000000+00:00</time></trkpt><trkpt lat="34.9614661" lon="33.5616813"><ele>92.3</ele><time>2015-05-01T15:03:01.0000000+00:00</time></trkpt><trkpt lat="34.9614202" lon="33.5617248"><ele>92.1</ele><time>2015-05-01T15:03:02.0000000+00:00</time></trkpt><trkpt lat="34.9613759" lon="33.5617749"><ele>91.6</ele><time>2015-05-01T15:03:03.0000000+00:00</time></trkpt><trkpt lat="34.961329" lon="33.5618258"><ele>91.3</ele><time>2015-05-01T15:03:04.0000000+00:00</time></trkpt><trkpt lat="34.9612813" lon="33.5618744"><ele>91.7</ele><time>2015-05-01T15:03:05.0000000+00:00</time></trkpt><trkpt lat="34.9612358" lon="33.5619208"><ele>91.8</ele><time>2015-05-01T15:03:06.0000000+00:00</time></trkpt><trkpt lat="34.9611903" lon="33.5619648"><ele>91.9</ele><time>2015-05-01T15:03:07.0000000+00:00</time></trkpt><trkpt lat="34.9611476" lon="33.5620131"><ele>92.0</ele><time>2015-05-01T15:03:08.0000000+00:00</time></trkpt><trkpt lat="34.9610989" lon="33.5620609"><ele>92.0</ele><time>2015-05-01T15:03:09.0000000+00:00</time></trkpt><trkpt lat="34.9610547" lon="33.5621086"><ele>91.0</ele><time>2015-05-01T15:03:10.0000000+00:00</time></trkpt><trkpt lat="34.9610127" lon="33.5621539"><ele>90.5</ele><time>2015-05-01T15:03:11.0000000+00:00</time></trkpt><trkpt lat="34.9609612" lon="33.5622025"><ele>90.3</ele><time>2015-05-01T15:03:12.0000000+00:00</time></trkpt><trkpt lat="34.9609157" lon="33.5622458"><ele>89.6</ele><time>2015-05-01T15:03:13.0000000+00:00</time></trkpt><trkpt lat="34.9608687" lon="33.5622878"><ele>88.8</ele><time>2015-05-01T15:03:14.0000000+00:00</time></trkpt><trkpt lat="34.96082" lon="33.5623339"><ele>88.4</ele><time>2015-05-01T15:03:15.0000000+00:00</time></trkpt><trkpt lat="34.9607675" lon="33.5623843"><ele>87.7</ele><time>2015-05-01T15:03:16.0000000+00:00</time></trkpt><trkpt lat="34.9607167" lon="33.5624328"><ele>87.4</ele><time>2015-05-01T15:03:17.0000000+00:00</time></trkpt><trkpt lat="34.9606702" lon="33.5624838"><ele>87.2</ele><time>2015-05-01T15:03:18.0000000+00:00</time></trkpt><trkpt lat="34.960625" lon="33.562532"><ele>87.1</ele><time>2015-05-01T15:03:19.0000000+00:00</time></trkpt><trkpt lat="34.9605769" lon="33.5625823"><ele>87.1</ele><time>2015-05-01T15:03:20.0000000+00:00</time></trkpt><trkpt lat="34.9605291" lon="33.5626319"><ele>86.5</ele><time>2015-05-01T15:03:21.0000000+00:00</time></trkpt><trkpt lat="34.9604746" lon="33.5626808"><ele>86.3</ele><time>2015-05-01T15:03:22.0000000+00:00</time></trkpt><trkpt lat="34.9604278" lon="33.5627332"><ele>85.7</ele><time>2015-05-01T15:03:23.0000000+00:00</time></trkpt><trkpt lat="34.9603765" lon="33.5627835"><ele>85.3</ele><time>2015-05-01T15:03:24.0000000+00:00</time></trkpt><trkpt lat="34.9603251" lon="33.5628355"><ele>85.2</ele><time>2015-05-01T15:03:25.0000000+00:00</time></trkpt><trkpt lat="34.9602753" lon="33.5628848"><ele>85.1</ele><time>2015-05-01T15:03:26.0000000+00:00</time></trkpt><trkpt lat="34.960224" lon="33.5629301"><ele>85.1</ele><time>2015-05-01T15:03:27.0000000+00:00</time></trkpt><trkpt lat="34.9601708" lon="33.562987"><ele>85.0</ele><time>2015-05-01T15:03:28.0000000+00:00</time></trkpt><trkpt lat="34.960121" lon="33.5630325"><ele>85.0</ele><time>2015-05-01T15:03:29.0000000+00:00</time></trkpt><trkpt lat="34.9600665" lon="33.563083"><ele>85.0</ele><time>2015-05-01T15:03:30.0000000+00:00</time></trkpt><trkpt lat="34.9600138" lon="33.5631351"><ele>84.5</ele><time>2015-05-01T15:03:31.0000000+00:00</time></trkpt><trkpt lat="34.9599595" lon="33.5631874"><ele>84.3</ele><time>2015-05-01T15:03:32.0000000+00:00</time></trkpt><trkpt lat="34.9599066" lon="33.5632371"><ele>84.1</ele><time>2015-05-01T15:03:33.0000000+00:00</time></trkpt><trkpt lat="34.9598515" lon="33.5632882"><ele>84.1</ele><time>2015-05-01T15:03:34.0000000+00:00</time></trkpt><trkpt lat="34.9597967" lon="33.5633325"><ele>84.1</ele><time>2015-05-01T15:03:35.0000000+00:00</time></trkpt><trkpt lat="34.9597458" lon="33.5633796"><ele>83.5</ele><time>2015-05-01T15:03:36.0000000+00:00</time></trkpt><trkpt lat="34.9596934" lon="33.5634301"><ele>83.8</ele><time>2015-05-01T15:03:37.0000000+00:00</time></trkpt><trkpt lat="34.9596444" lon="33.5634856"><ele>83.9</ele><time>2015-05-01T15:03:38.0000000+00:00</time></trkpt><trkpt lat="34.9595982" lon="33.5635388"><ele>83.5</ele><time>2015-05-01T15:03:39.0000000+00:00</time></trkpt><trkpt lat="34.9595488" lon="33.5635863"><ele>83.2</ele><time>2015-05-01T15:03:40.0000000+00:00</time></trkpt><trkpt lat="34.9594992" lon="33.5636303"><ele>83.1</ele><time>2015-05-01T15:03:41.0000000+00:00</time></trkpt><trkpt lat="34.9594445" lon="33.5636776"><ele>83.6</ele><time>2015-05-01T15:03:42.0000000+00:00</time></trkpt><trkpt lat="34.959401" lon="33.5637256"><ele>83.3</ele><time>2015-05-01T15:03:43.0000000+00:00</time></trkpt><trkpt lat="34.9593535" lon="33.5637775"><ele>83.2</ele><time>2015-05-01T15:03:44.0000000+00:00</time></trkpt><trkpt lat="34.9592991" lon="33.5638298"><ele>83.1</ele><time>2015-05-01T15:03:45.0000000+00:00</time></trkpt><trkpt lat="34.9592497" lon="33.5638734"><ele>82.6</ele><time>2015-05-01T15:03:46.0000000+00:00</time></trkpt><trkpt lat="34.9592052" lon="33.5639164"><ele>82.3</ele><time>2015-05-01T15:03:47.0000000+00:00</time></trkpt><trkpt lat="34.9591528" lon="33.5639691"><ele>82.2</ele><time>2015-05-01T15:03:48.0000000+00:00</time></trkpt><trkpt lat="34.9591054" lon="33.5640096"><ele>81.6</ele><time>2015-05-01T15:03:49.0000000+00:00</time></trkpt><trkpt lat="34.959049" lon="33.5640594"><ele>81.3</ele><time>2015-05-01T15:03:50.0000000+00:00</time></trkpt><trkpt lat="34.9590022" lon="33.564103"><ele>80.7</ele><time>2015-05-01T15:03:51.0000000+00:00</time></trkpt><trkpt lat="34.9589499" lon="33.5641507"><ele>80.8</ele><time>2015-05-01T15:03:52.0000000+00:00</time></trkpt><trkpt lat="34.9589024" lon="33.5641892"><ele>80.9</ele><time>2015-05-01T15:03:53.0000000+00:00</time></trkpt><trkpt lat="34.9588509" lon="33.5642334"><ele>81.0</ele><time>2015-05-01T15:03:54.0000000+00:00</time></trkpt><trkpt lat="34.9587985" lon="33.5642738"><ele>81.0</ele><time>2015-05-01T15:03:55.0000000+00:00</time></trkpt><trkpt lat="34.9587484" lon="33.5643138"><ele>81.0</ele><time>2015-05-01T15:03:56.0000000+00:00</time></trkpt><trkpt lat="34.9586913" lon="33.5643543"><ele>81.5</ele><time>2015-05-01T15:03:57.0000000+00:00</time></trkpt><trkpt lat="34.9586414" lon="33.564392"><ele>81.8</ele><time>2015-05-01T15:03:58.0000000+00:00</time></trkpt><trkpt lat="34.9585869" lon="33.5644275"><ele>81.9</ele><time>2015-05-01T15:03:59.0000000+00:00</time></trkpt><trkpt lat="34.9585347" lon="33.5644575"><ele>82.0</ele><time>2015-05-01T15:04:00.0000000+00:00</time></trkpt><trkpt lat="34.9584845" lon="33.5644909"><ele>82.0</ele><time>2015-05-01T15:04:01.0000000+00:00</time></trkpt><trkpt lat="34.9584288" lon="33.5645319"><ele>82.0</ele><time>2015-05-01T15:04:02.0000000+00:00</time></trkpt><trkpt lat="34.9583726" lon="33.564568"><ele>81.5</ele><time>2015-05-01T15:04:03.0000000+00:00</time></trkpt><trkpt lat="34.9583174" lon="33.5645942"><ele>81.3</ele><time>2015-05-01T15:04:04.0000000+00:00</time></trkpt><trkpt lat="34.9582574" lon="33.5646119"><ele>81.1</ele><time>2015-05-01T15:04:05.0000000+00:00</time></trkpt><trkpt lat="34.958204" lon="33.5646386"><ele>81.1</ele><time>2015-05-01T15:04:06.0000000+00:00</time></trkpt><trkpt lat="34.9581417" lon="33.5646533"><ele>81.1</ele><time>2015-05-01T15:04:07.0000000+00:00</time></trkpt><trkpt lat="34.9580838" lon="33.5646761"><ele>81.5</ele><time>2015-05-01T15:04:08.0000000+00:00</time></trkpt><trkpt lat="34.9580241" lon="33.5646964"><ele>81.8</ele><time>2015-05-01T15:04:09.0000000+00:00</time></trkpt><trkpt lat="34.9579654" lon="33.564717"><ele>81.9</ele><time>2015-05-01T15:04:10.0000000+00:00</time></trkpt><trkpt lat="34.9579099" lon="33.564743"><ele>81.0</ele><time>2015-05-01T15:04:11.0000000+00:00</time></trkpt><trkpt lat="34.957851" lon="33.5647687"><ele>80.5</ele><time>2015-05-01T15:04:12.0000000+00:00</time></trkpt><trkpt lat="34.9577927" lon="33.5647906"><ele>80.3</ele><time>2015-05-01T15:04:13.0000000+00:00</time></trkpt><trkpt lat="34.9577401" lon="33.5648193"><ele>80.1</ele><time>2015-05-01T15:04:14.0000000+00:00</time></trkpt><trkpt lat="34.9576786" lon="33.5648379"><ele>80.1</ele><time>2015-05-01T15:04:15.0000000+00:00</time></trkpt><trkpt lat="34.9576228" lon="33.5648515"><ele>80.6</ele><time>2015-05-01T15:04:16.0000000+00:00</time></trkpt><trkpt lat="34.9575633" lon="33.5648639"><ele>80.8</ele><time>2015-05-01T15:04:17.0000000+00:00</time></trkpt><trkpt lat="34.9575023" lon="33.5648791"><ele>80.9</ele><time>2015-05-01T15:04:18.0000000+00:00</time></trkpt><trkpt lat="34.9574441" lon="33.5649032"><ele>81.5</ele><time>2015-05-01T15:04:19.0000000+00:00</time></trkpt><trkpt lat="34.9573885" lon="33.5649328"><ele>81.2</ele><time>2015-05-01T15:04:20.0000000+00:00</time></trkpt><trkpt lat="34.9573336" lon="33.5649561"><ele>81.1</ele><time>2015-05-01T15:04:21.0000000+00:00</time></trkpt><trkpt lat="34.9572729" lon="33.564978"><ele>81.1</ele><time>2015-05-01T15:04:22.0000000+00:00</time></trkpt><trkpt lat="34.9572131" lon="33.5649978"><ele>81.0</ele><time>2015-05-01T15:04:23.0000000+00:00</time></trkpt><trkpt lat="34.9571523" lon="33.5650193"><ele>81.0</ele><time>2015-05-01T15:04:24.0000000+00:00</time></trkpt><trkpt lat="34.957093" lon="33.5650431"><ele>80.5</ele><time>2015-05-01T15:04:25.0000000+00:00</time></trkpt><trkpt lat="34.957031" lon="33.5650567"><ele>80.8</ele><time>2015-05-01T15:04:26.0000000+00:00</time></trkpt><trkpt lat="34.9569727" lon="33.56508"><ele>81.4</ele><time>2015-05-01T15:04:27.0000000+00:00</time></trkpt><trkpt lat="34.9569144" lon="33.565102"><ele>81.7</ele><time>2015-05-01T15:04:28.0000000+00:00</time></trkpt><trkpt lat="34.9568571" lon="33.5651223"><ele>81.9</ele><time>2015-05-01T15:04:29.0000000+00:00</time></trkpt><trkpt lat="34.9567944" lon="33.5651412"><ele>81.9</ele><time>2015-05-01T15:04:30.0000000+00:00</time></trkpt><trkpt lat="34.9567311" lon="33.5651556"><ele>81.5</ele><time>2015-05-01T15:04:31.0000000+00:00</time></trkpt><trkpt lat="34.9566679" lon="33.5651709"><ele>81.3</ele><time>2015-05-01T15:04:32.0000000+00:00</time></trkpt><trkpt lat="34.9566068" lon="33.565189"><ele>81.1</ele><time>2015-05-01T15:04:33.0000000+00:00</time></trkpt><trkpt lat="34.9565547" lon="33.5652203"><ele>80.1</ele><time>2015-05-01T15:04:34.0000000+00:00</time></trkpt><trkpt lat="34.956501" lon="33.5652463"><ele>79.5</ele><time>2015-05-01T15:04:35.0000000+00:00</time></trkpt><trkpt lat="34.9564447" lon="33.5652664"><ele>79.3</ele><time>2015-05-01T15:04:36.0000000+00:00</time></trkpt><trkpt lat="34.9563833" lon="33.5652842"><ele>79.2</ele><time>2015-05-01T15:04:37.0000000+00:00</time></trkpt><trkpt lat="34.9563216" lon="33.5653034"><ele>79.1</ele><time>2015-05-01T15:04:38.0000000+00:00</time></trkpt><trkpt lat="34.9562644" lon="33.565336"><ele>79.1</ele><time>2015-05-01T15:04:39.0000000+00:00</time></trkpt><trkpt lat="34.9561976" lon="33.5653645"><ele>79.0</ele><time>2015-05-01T15:04:40.0000000+00:00</time></trkpt><trkpt lat="34.9561322" lon="33.5653912"><ele>79.5</ele><time>2015-05-01T15:04:41.0000000+00:00</time></trkpt><trkpt lat="34.9560708" lon="33.5654221"><ele>79.8</ele><time>2015-05-01T15:04:42.0000000+00:00</time></trkpt><trkpt lat="34.956014" lon="33.5654511"><ele>79.9</ele><time>2015-05-01T15:04:43.0000000+00:00</time></trkpt><trkpt lat="34.9559548" lon="33.5654814"><ele>80.0</ele><time>2015-05-01T15:04:44.0000000+00:00</time></trkpt><trkpt lat="34.955891" lon="33.5655137"><ele>80.0</ele><time>2015-05-01T15:04:45.0000000+00:00</time></trkpt><trkpt lat="34.9558367" lon="33.565551"><ele>80.0</ele><time>2015-05-01T15:04:46.0000000+00:00</time></trkpt><trkpt lat="34.9557805" lon="33.5655826"><ele>80.0</ele><time>2015-05-01T15:04:47.0000000+00:00</time></trkpt><trkpt lat="34.9557283" lon="33.5656054"><ele>80.0</ele><time>2015-05-01T15:04:48.0000000+00:00</time></trkpt><trkpt lat="34.9556745" lon="33.5656453"><ele>80.0</ele><time>2015-05-01T15:04:49.0000000+00:00</time></trkpt><trkpt lat="34.95562" lon="33.565689"><ele>80.0</ele><time>2015-05-01T15:04:50.0000000+00:00</time></trkpt><trkpt lat="34.9555665" lon="33.5657293"><ele>80.0</ele><time>2015-05-01T15:04:51.0000000+00:00</time></trkpt><trkpt lat="34.9555134" lon="33.5657655"><ele>80.0</ele><time>2015-05-01T15:04:52.0000000+00:00</time></trkpt><trkpt lat="34.9554681" lon="33.5658033"><ele>80.0</ele><time>2015-05-01T15:04:53.0000000+00:00</time></trkpt><trkpt lat="34.9554209" lon="33.5658479"><ele>80.0</ele><time>2015-05-01T15:04:54.0000000+00:00</time></trkpt><trkpt lat="34.9553745" lon="33.5658814"><ele>79.5</ele><time>2015-05-01T15:04:55.0000000+00:00</time></trkpt><trkpt lat="34.9553229" lon="33.5659203"><ele>79.3</ele><time>2015-05-01T15:04:56.0000000+00:00</time></trkpt><trkpt lat="34.9552815" lon="33.5659571"><ele>78.6</ele><time>2015-05-01T15:04:57.0000000+00:00</time></trkpt><trkpt lat="34.9552364" lon="33.5659962"><ele>78.8</ele><time>2015-05-01T15:04:58.0000000+00:00</time></trkpt><trkpt lat="34.9551913" lon="33.5660402"><ele>78.4</ele><time>2015-05-01T15:04:59.0000000+00:00</time></trkpt><trkpt lat="34.9551491" lon="33.5660817"><ele>78.2</ele><time>2015-05-01T15:05:00.0000000+00:00</time></trkpt><trkpt lat="34.9551123" lon="33.5661255"><ele>78.1</ele><time>2015-05-01T15:05:01.0000000+00:00</time></trkpt><trkpt lat="34.9550755" lon="33.5661638"><ele>78.1</ele><time>2015-05-01T15:05:02.0000000+00:00</time></trkpt><trkpt lat="34.9550402" lon="33.5662074"><ele>78.0</ele><time>2015-05-01T15:05:03.0000000+00:00</time></trkpt><trkpt lat="34.954996" lon="33.5662422"><ele>78.0</ele><time>2015-05-01T15:05:04.0000000+00:00</time></trkpt><trkpt lat="34.954958" lon="33.5662775"><ele>78.0</ele><time>2015-05-01T15:05:05.0000000+00:00</time></trkpt><trkpt lat="34.954919" lon="33.5663156"><ele>78.0</ele><time>2015-05-01T15:05:06.0000000+00:00</time></trkpt><trkpt lat="34.9548818" lon="33.5663549"><ele>77.5</ele><time>2015-05-01T15:05:07.0000000+00:00</time></trkpt><trkpt lat="34.9548418" lon="33.5663969"><ele>76.8</ele><time>2015-05-01T15:05:08.0000000+00:00</time></trkpt><trkpt lat="34.9548062" lon="33.5664367"><ele>76.4</ele><time>2015-05-01T15:05:09.0000000+00:00</time></trkpt><trkpt lat="34.9547669" lon="33.5664777"><ele>76.2</ele><time>2015-05-01T15:05:10.0000000+00:00</time></trkpt><trkpt lat="34.9547274" lon="33.566516"><ele>76.1</ele><time>2015-05-01T15:05:11.0000000+00:00</time></trkpt><trkpt lat="34.9546903" lon="33.5665561"><ele>76.6</ele><time>2015-05-01T15:05:12.0000000+00:00</time></trkpt><trkpt lat="34.9546527" lon="33.5665934"><ele>76.8</ele><time>2015-05-01T15:05:13.0000000+00:00</time></trkpt><trkpt lat="34.954616" lon="33.5666287"><ele>76.9</ele><time>2015-05-01T15:05:14.0000000+00:00</time></trkpt><trkpt lat="34.9545783" lon="33.5666681"><ele>77.5</ele><time>2015-05-01T15:05:15.0000000+00:00</time></trkpt><trkpt lat="34.9545439" lon="33.5667069"><ele>77.7</ele><time>2015-05-01T15:05:16.0000000+00:00</time></trkpt><trkpt lat="34.9545073" lon="33.5667492"><ele>77.9</ele><time>2015-05-01T15:05:17.0000000+00:00</time></trkpt><trkpt lat="34.9544742" lon="33.5667901"><ele>78.0</ele><time>2015-05-01T15:05:18.0000000+00:00</time></trkpt><trkpt lat="34.9544361" lon="33.5668368"><ele>77.5</ele><time>2015-05-01T15:05:19.0000000+00:00</time></trkpt><trkpt lat="34.9543954" lon="33.5668754"><ele>77.8</ele><time>2015-05-01T15:05:20.0000000+00:00</time></trkpt><trkpt lat="34.954357" lon="33.5669147"><ele>77.9</ele><time>2015-05-01T15:05:21.0000000+00:00</time></trkpt><trkpt lat="34.9543159" lon="33.5669524"><ele>78.0</ele><time>2015-05-01T15:05:22.0000000+00:00</time></trkpt><trkpt lat="34.9542813" lon="33.566995"><ele>78.0</ele><time>2015-05-01T15:05:23.0000000+00:00</time></trkpt><trkpt lat="34.9542462" lon="33.5670368"><ele>77.5</ele><time>2015-05-01T15:05:24.0000000+00:00</time></trkpt><trkpt lat="34.9542135" lon="33.5670762"><ele>77.3</ele><time>2015-05-01T15:05:25.0000000+00:00</time></trkpt><trkpt lat="34.9541764" lon="33.5671169"><ele>77.1</ele><time>2015-05-01T15:05:26.0000000+00:00</time></trkpt><trkpt lat="34.9541335" lon="33.5671507"><ele>77.1</ele><time>2015-05-01T15:05:27.0000000+00:00</time></trkpt><trkpt lat="34.9540927" lon="33.5671884"><ele>77.1</ele><time>2015-05-01T15:05:28.0000000+00:00</time></trkpt><trkpt lat="34.9540535" lon="33.5672226"><ele>77.0</ele><time>2015-05-01T15:05:29.0000000+00:00</time></trkpt><trkpt lat="34.9540154" lon="33.5672582"><ele>76.5</ele><time>2015-05-01T15:05:30.0000000+00:00</time></trkpt><trkpt lat="34.953982" lon="33.5673012"><ele>76.3</ele><time>2015-05-01T15:05:31.0000000+00:00</time></trkpt><trkpt lat="34.9539452" lon="33.5673403"><ele>76.1</ele><time>2015-05-01T15:05:32.0000000+00:00</time></trkpt><trkpt lat="34.9539126" lon="33.5673795"><ele>76.1</ele><time>2015-05-01T15:05:33.0000000+00:00</time></trkpt><trkpt lat="34.9538732" lon="33.5674178"><ele>76.6</ele><time>2015-05-01T15:05:34.0000000+00:00</time></trkpt><trkpt lat="34.9538061" lon="33.5674874"><ele>76.2</ele><time>2015-05-01T15:05:36.0000000+00:00</time></trkpt><trkpt lat="34.9537706" lon="33.5675215"><ele>76.1</ele><time>2015-05-01T15:05:37.0000000+00:00</time></trkpt><trkpt lat="34.9536989" lon="33.5675942"><ele>76.5</ele><time>2015-05-01T15:05:39.0000000+00:00</time></trkpt><trkpt lat="34.9536632" lon="33.5676299"><ele>76.3</ele><time>2015-05-01T15:05:40.0000000+00:00</time></trkpt><trkpt lat="34.9535904" lon="33.5677031"><ele>76.8</ele><time>2015-05-01T15:05:42.0000000+00:00</time></trkpt><trkpt lat="34.9535206" lon="33.5677744"><ele>76.2</ele><time>2015-05-01T15:05:44.0000000+00:00</time></trkpt><trkpt lat="34.9534854" lon="33.5678119"><ele>76.6</ele><time>2015-05-01T15:05:45.0000000+00:00</time></trkpt><trkpt lat="34.9534439" lon="33.5678442"><ele>76.8</ele><time>2015-05-01T15:05:46.0000000+00:00</time></trkpt><trkpt lat="34.9534028" lon="33.567873"><ele>76.9</ele><time>2015-05-01T15:05:47.0000000+00:00</time></trkpt><trkpt lat="34.9533635" lon="33.5679052"><ele>77.0</ele><time>2015-05-01T15:05:48.0000000+00:00</time></trkpt><trkpt lat="34.9532973" lon="33.5679805"><ele>77.8</ele><time>2015-05-01T15:05:50.0000000+00:00</time></trkpt><trkpt lat="34.9532263" lon="33.5680585"><ele>78.0</ele><time>2015-05-01T15:05:52.0000000+00:00</time></trkpt><trkpt lat="34.9531538" lon="33.568127"><ele>78.3</ele><time>2015-05-01T15:05:54.0000000+00:00</time></trkpt><trkpt lat="34.9531109" lon="33.5681692"><ele>78.6</ele><time>2015-05-01T15:05:55.0000000+00:00</time></trkpt><trkpt lat="34.953069" lon="33.5682139"><ele>78.8</ele><time>2015-05-01T15:05:56.0000000+00:00</time></trkpt><trkpt lat="34.9530349" lon="33.5682586"><ele>79.4</ele><time>2015-05-01T15:05:57.0000000+00:00</time></trkpt><trkpt lat="34.9529936" lon="33.568302"><ele>79.7</ele><time>2015-05-01T15:05:58.0000000+00:00</time></trkpt><trkpt lat="34.9529513" lon="33.5683494"><ele>79.4</ele><time>2015-05-01T15:05:59.0000000+00:00</time></trkpt><trkpt lat="34.9529119" lon="33.5683988"><ele>78.7</ele><time>2015-05-01T15:06:00.0000000+00:00</time></trkpt><trkpt lat="34.9528746" lon="33.568444"><ele>78.9</ele><time>2015-05-01T15:06:01.0000000+00:00</time></trkpt><trkpt lat="34.9528396" lon="33.5684938"><ele>78.4</ele><time>2015-05-01T15:06:02.0000000+00:00</time></trkpt><trkpt lat="34.9527967" lon="33.5685279"><ele>78.2</ele><time>2015-05-01T15:06:03.0000000+00:00</time></trkpt><trkpt lat="34.9527516" lon="33.5685774"><ele>78.1</ele><time>2015-05-01T15:06:04.0000000+00:00</time></trkpt><trkpt lat="34.9526746" lon="33.5686597"><ele>78.0</ele><time>2015-05-01T15:06:06.0000000+00:00</time></trkpt><trkpt lat="34.9526179" lon="33.5686997"><ele>77.5</ele><time>2015-05-01T15:06:07.0000000+00:00</time></trkpt><trkpt lat="34.9525688" lon="33.5687529"><ele>77.3</ele><time>2015-05-01T15:06:08.0000000+00:00</time></trkpt><trkpt lat="34.9525222" lon="33.5688015"><ele>77.1</ele><time>2015-05-01T15:06:09.0000000+00:00</time></trkpt><trkpt lat="34.952474" lon="33.568856"><ele>77.6</ele><time>2015-05-01T15:06:10.0000000+00:00</time></trkpt><trkpt lat="34.9524265" lon="33.5689217"><ele>77.3</ele><time>2015-05-01T15:06:11.0000000+00:00</time></trkpt><trkpt lat="34.9523646" lon="33.5689772"><ele>77.2</ele><time>2015-05-01T15:06:12.0000000+00:00</time></trkpt><trkpt lat="34.9523135" lon="33.5690267"><ele>77.1</ele><time>2015-05-01T15:06:13.0000000+00:00</time></trkpt><trkpt lat="34.9522548" lon="33.5690884"><ele>76.6</ele><time>2015-05-01T15:06:14.0000000+00:00</time></trkpt><trkpt lat="34.952194" lon="33.5691497"><ele>76.3</ele><time>2015-05-01T15:06:15.0000000+00:00</time></trkpt><trkpt lat="34.9521309" lon="33.5692133"><ele>75.7</ele><time>2015-05-01T15:06:16.0000000+00:00</time></trkpt><trkpt lat="34.9520606" lon="33.5692745"><ele>74.3</ele><time>2015-05-01T15:06:17.0000000+00:00</time></trkpt><trkpt lat="34.9519941" lon="33.5693356"><ele>73.7</ele><time>2015-05-01T15:06:18.0000000+00:00</time></trkpt><trkpt lat="34.9519346" lon="33.5694046"><ele>72.9</ele><time>2015-05-01T15:06:19.0000000+00:00</time></trkpt><trkpt lat="34.9518706" lon="33.5694735"><ele>72.4</ele><time>2015-05-01T15:06:20.0000000+00:00</time></trkpt><trkpt lat="34.9518111" lon="33.5695404"><ele>72.2</ele><time>2015-05-01T15:06:21.0000000+00:00</time></trkpt><trkpt lat="34.9517516" lon="33.5696036"><ele>72.1</ele><time>2015-05-01T15:06:22.0000000+00:00</time></trkpt><trkpt lat="34.9516218" lon="33.569766"><ele>72.1</ele><time>2015-05-01T15:06:24.0000000+00:00</time></trkpt><trkpt lat="34.9515554" lon="33.5698311"><ele>72.0</ele><time>2015-05-01T15:06:25.0000000+00:00</time></trkpt><trkpt lat="34.9514848" lon="33.5698786"><ele>73.0</ele><time>2015-05-01T15:06:27.0000000+00:00</time></trkpt><trkpt lat="34.9514205" lon="33.5699468"><ele>73.0</ele><time>2015-05-01T15:06:28.0000000+00:00</time></trkpt><trkpt lat="34.9513568" lon="33.5700101"><ele>73.5</ele><time>2015-05-01T15:06:29.0000000+00:00</time></trkpt><trkpt lat="34.9513142" lon="33.5700668"><ele>73.8</ele><time>2015-05-01T15:06:30.0000000+00:00</time></trkpt><trkpt lat="34.9512658" lon="33.5701142"><ele>73.9</ele><time>2015-05-01T15:06:31.0000000+00:00</time></trkpt><trkpt lat="34.9512183" lon="33.5701504"><ele>73.5</ele><time>2015-05-01T15:06:32.0000000+00:00</time></trkpt><trkpt lat="34.951183" lon="33.5701984"><ele>73.7</ele><time>2015-05-01T15:06:33.0000000+00:00</time></trkpt><trkpt lat="34.9511413" lon="33.5702435"><ele>73.9</ele><time>2015-05-01T15:06:34.0000000+00:00</time></trkpt><trkpt lat="34.9511017" lon="33.5702921"><ele>74.5</ele><time>2015-05-01T15:06:35.0000000+00:00</time></trkpt><trkpt lat="34.9510627" lon="33.5703376"><ele>74.7</ele><time>2015-05-01T15:06:36.0000000+00:00</time></trkpt><trkpt lat="34.9510268" lon="33.5703812"><ele>74.9</ele><time>2015-05-01T15:06:37.0000000+00:00</time></trkpt><trkpt lat="34.9509826" lon="33.5704241"><ele>74.4</ele><time>2015-05-01T15:06:38.0000000+00:00</time></trkpt><trkpt lat="34.9509563" lon="33.5704695"><ele>74.7</ele><time>2015-05-01T15:06:39.0000000+00:00</time></trkpt><trkpt lat="34.9509221" lon="33.5705247"><ele>74.9</ele><time>2015-05-01T15:06:40.0000000+00:00</time></trkpt><trkpt lat="34.9508889" lon="33.5705756"><ele>74.9</ele><time>2015-05-01T15:06:41.0000000+00:00</time></trkpt><trkpt lat="34.9508608" lon="33.5706222"><ele>75.5</ele><time>2015-05-01T15:06:42.0000000+00:00</time></trkpt><trkpt lat="34.9508327" lon="33.5706682"><ele>76.3</ele><time>2015-05-01T15:06:43.0000000+00:00</time></trkpt><trkpt lat="34.950797" lon="33.5707147"><ele>76.1</ele><time>2015-05-01T15:06:44.0000000+00:00</time></trkpt><trkpt lat="34.9507484" lon="33.5707976"><ele>76.6</ele><time>2015-05-01T15:06:46.0000000+00:00</time></trkpt><trkpt lat="34.950705" lon="33.5708706"><ele>76.9</ele><time>2015-05-01T15:06:48.0000000+00:00</time></trkpt><trkpt lat="34.9506599" lon="33.5709534"><ele>77.7</ele><time>2015-05-01T15:06:50.0000000+00:00</time></trkpt><trkpt lat="34.9506326" lon="33.5709973"><ele>77.4</ele><time>2015-05-01T15:06:51.0000000+00:00</time></trkpt><trkpt lat="34.9506008" lon="33.5710477"><ele>77.2</ele><time>2015-05-01T15:06:52.0000000+00:00</time></trkpt><trkpt lat="34.9505677" lon="33.5710933"><ele>77.1</ele><time>2015-05-01T15:06:53.0000000+00:00</time></trkpt><trkpt lat="34.9505445" lon="33.5711446"><ele>77.6</ele><time>2015-05-01T15:06:54.0000000+00:00</time></trkpt><trkpt lat="34.9505139" lon="33.5711999"><ele>77.3</ele><time>2015-05-01T15:06:55.0000000+00:00</time></trkpt><trkpt lat="34.9504884" lon="33.5712543"><ele>77.7</ele><time>2015-05-01T15:06:56.0000000+00:00</time></trkpt><trkpt lat="34.9504615" lon="33.5713206"><ele>77.8</ele><time>2015-05-01T15:06:57.0000000+00:00</time></trkpt><trkpt lat="34.9504378" lon="33.5713792"><ele>77.9</ele><time>2015-05-01T15:06:58.0000000+00:00</time></trkpt><trkpt lat="34.9504157" lon="33.5714369"><ele>78.0</ele><time>2015-05-01T15:06:59.0000000+00:00</time></trkpt><trkpt lat="34.9503768" lon="33.5715453"><ele>78.0</ele><time>2015-05-01T15:07:01.0000000+00:00</time></trkpt><trkpt lat="34.9503549" lon="33.5716024"><ele>78.0</ele><time>2015-05-01T15:07:02.0000000+00:00</time></trkpt><trkpt lat="34.9503402" lon="33.5716583"><ele>78.0</ele><time>2015-05-01T15:07:03.0000000+00:00</time></trkpt><trkpt lat="34.9503248" lon="33.5717152"><ele>78.0</ele><time>2015-05-01T15:07:04.0000000+00:00</time></trkpt><trkpt lat="34.9503038" lon="33.5717714"><ele>77.5</ele><time>2015-05-01T15:07:05.0000000+00:00</time></trkpt><trkpt lat="34.9502915" lon="33.571826"><ele>77.8</ele><time>2015-05-01T15:07:06.0000000+00:00</time></trkpt><trkpt lat="34.9502536" lon="33.5719271"><ele>78.0</ele><time>2015-05-01T15:07:08.0000000+00:00</time></trkpt><trkpt lat="34.9502307" lon="33.5719785"><ele>78.0</ele><time>2015-05-01T15:07:09.0000000+00:00</time></trkpt><trkpt lat="34.9502018" lon="33.5720661"><ele>78.0</ele><time>2015-05-01T15:07:11.0000000+00:00</time></trkpt><trkpt lat="34.9501805" lon="33.5721473"><ele>78.0</ele><time>2015-05-01T15:07:13.0000000+00:00</time></trkpt><trkpt lat="34.9501758" lon="33.5722117"><ele>78.3</ele><time>2015-05-01T15:07:15.0000000+00:00</time></trkpt><trkpt lat="34.9501612" lon="33.5722671"><ele>78.0</ele><time>2015-05-01T15:08:02.0000000+00:00</time></trkpt><trkpt lat="34.9501405" lon="33.5723195"><ele>78.0</ele><time>2015-05-01T15:08:04.0000000+00:00</time></trkpt><trkpt lat="34.9501159" lon="33.5724075"><ele>78.0</ele><time>2015-05-01T15:08:06.0000000+00:00</time></trkpt><trkpt lat="34.9500877" lon="33.5724992"><ele>78.0</ele><time>2015-05-01T15:08:08.0000000+00:00</time></trkpt><trkpt lat="34.9500657" lon="33.5725734"><ele>77.5</ele><time>2015-05-01T15:08:10.0000000+00:00</time></trkpt><trkpt lat="34.9500285" lon="33.5726265"><ele>76.9</ele><time>2015-05-01T15:08:39.0000000+00:00</time></trkpt><trkpt lat="34.9500031" lon="33.5726931"><ele>77.0</ele><time>2015-05-01T15:08:41.0000000+00:00</time></trkpt><trkpt lat="34.9499723" lon="33.572782"><ele>77.0</ele><time>2015-05-01T15:08:43.0000000+00:00</time></trkpt><trkpt lat="34.949938" lon="33.572877"><ele>76.5</ele><time>2015-05-01T15:08:45.0000000+00:00</time></trkpt><trkpt lat="34.9499051" lon="33.5729561"><ele>76.8</ele><time>2015-05-01T15:08:46.0000000+00:00</time></trkpt><trkpt lat="34.9498826" lon="33.5730116"><ele>76.9</ele><time>2015-05-01T15:08:47.0000000+00:00</time></trkpt><trkpt lat="34.9498657" lon="33.5730726"><ele>77.0</ele><time>2015-05-01T15:08:48.0000000+00:00</time></trkpt><trkpt lat="34.9498487" lon="33.5731304"><ele>77.0</ele><time>2015-05-01T15:08:49.0000000+00:00</time></trkpt><trkpt lat="34.9498313" lon="33.5731843"><ele>77.0</ele><time>2015-05-01T15:08:50.0000000+00:00</time></trkpt><trkpt lat="34.9498173" lon="33.5732495"><ele>77.0</ele><time>2015-05-01T15:08:51.0000000+00:00</time></trkpt><trkpt lat="34.9497906" lon="33.5733114"><ele>77.0</ele><time>2015-05-01T15:08:52.0000000+00:00</time></trkpt><trkpt lat="34.9497599" lon="33.5734098"><ele>77.0</ele><time>2015-05-01T15:08:54.0000000+00:00</time></trkpt><trkpt lat="34.9497328" lon="33.5735124"><ele>77.0</ele><time>2015-05-01T15:08:56.0000000+00:00</time></trkpt><trkpt lat="34.9497129" lon="33.5735968"><ele>77.0</ele><time>2015-05-01T15:08:58.0000000+00:00</time></trkpt><trkpt lat="34.9496856" lon="33.5736416"><ele>77.0</ele><time>2015-05-01T15:09:01.0000000+00:00</time></trkpt><trkpt lat="34.949639" lon="33.5736622"><ele>78.4</ele><time>2015-05-01T15:10:14.0000000+00:00</time></trkpt><trkpt lat="34.9495757" lon="33.5736308"><ele>77.9</ele><time>2015-05-01T15:10:16.0000000+00:00</time></trkpt><trkpt lat="34.9495318" lon="33.5736098"><ele>77.4</ele><time>2015-05-01T15:10:17.0000000+00:00</time></trkpt><trkpt lat="34.9494884" lon="33.5735866"><ele>77.2</ele><time>2015-05-01T15:10:18.0000000+00:00</time></trkpt><trkpt lat="34.949443" lon="33.5735619"><ele>76.6</ele><time>2015-05-01T15:10:19.0000000+00:00</time></trkpt><trkpt lat="34.949383" lon="33.5735334"><ele>76.8</ele><time>2015-05-01T15:10:20.0000000+00:00</time></trkpt><trkpt lat="34.9493349" lon="33.5735244"><ele>76.4</ele><time>2015-05-01T15:10:21.0000000+00:00</time></trkpt><trkpt lat="34.9492914" lon="33.5735081"><ele>76.2</ele><time>2015-05-01T15:10:22.0000000+00:00</time></trkpt><trkpt lat="34.9492509" lon="33.5734835"><ele>75.6</ele><time>2015-05-01T15:10:23.0000000+00:00</time></trkpt><trkpt lat="34.9492062" lon="33.5734557"><ele>75.3</ele><time>2015-05-01T15:10:24.0000000+00:00</time></trkpt><trkpt lat="34.9491699" lon="33.5733977"><ele>75.1</ele><time>2015-05-01T15:10:26.0000000+00:00</time></trkpt><trkpt lat="34.9491938" lon="33.5734598"><ele>71.6</ele><time>2015-05-01T15:11:45.0000000+00:00</time></trkpt><trkpt lat="34.949223" lon="33.5735081"><ele>71.7</ele><time>2015-05-01T15:11:47.0000000+00:00</time></trkpt><trkpt lat="34.9492666" lon="33.5735802"><ele>71.9</ele><time>2015-05-01T15:11:49.0000000+00:00</time></trkpt><trkpt lat="34.9493235" lon="33.573658"><ele>72.0</ele><time>2015-05-01T15:11:51.0000000+00:00</time></trkpt><trkpt lat="34.9493767" lon="33.5737307"><ele>72.5</ele><time>2015-05-01T15:11:53.0000000+00:00</time></trkpt><trkpt lat="34.9493385" lon="33.573684"><ele>70.1</ele><time>2015-05-01T15:13:48.0000000+00:00</time></trkpt><trkpt lat="34.9492742" lon="33.5736033"><ele>69.3</ele><time>2015-05-01T15:13:50.0000000+00:00</time></trkpt><trkpt lat="34.949227" lon="33.5735248"><ele>69.2</ele><time>2015-05-01T15:13:51.0000000+00:00</time></trkpt><trkpt lat="34.9491984" lon="33.5734749"><ele>69.1</ele><time>2015-05-01T15:13:52.0000000+00:00</time></trkpt><trkpt lat="34.9491738" lon="33.5734251"><ele>69.1</ele><time>2015-05-01T15:13:53.0000000+00:00</time></trkpt><trkpt lat="34.9491536" lon="33.5733747"><ele>69.0</ele><time>2015-05-01T15:13:54.0000000+00:00</time></trkpt><trkpt lat="34.9491265" lon="33.5733288"><ele>68.5</ele><time>2015-05-01T15:13:55.0000000+00:00</time></trkpt><trkpt lat="34.9490764" lon="33.5732355"><ele>68.4</ele><time>2015-05-01T15:13:57.0000000+00:00</time></trkpt><trkpt lat="34.9490513" lon="33.5731881"><ele>68.2</ele><time>2015-05-01T15:13:58.0000000+00:00</time></trkpt><trkpt lat="34.949021" lon="33.573146"><ele>68.1</ele><time>2015-05-01T15:13:59.0000000+00:00</time></trkpt><trkpt lat="34.9489915" lon="33.5731046"><ele>68.1</ele><time>2015-05-01T15:14:00.0000000+00:00</time></trkpt><trkpt lat="34.9489273" lon="33.5730317"><ele>68.0</ele><time>2015-05-01T15:14:02.0000000+00:00</time></trkpt><trkpt lat="34.9488686" lon="33.5729991"><ele>67.3</ele><time>2015-05-01T15:14:04.0000000+00:00</time></trkpt><trkpt lat="34.9488244" lon="33.5730422"><ele>68.3</ele><time>2015-05-01T15:14:06.0000000+00:00</time></trkpt><trkpt lat="34.9488224" lon="33.5731058"><ele>68.6</ele><time>2015-05-01T15:14:08.0000000+00:00</time></trkpt><trkpt lat="34.9487753" lon="33.5731458"><ele>69.0</ele><time>2015-05-01T15:14:11.0000000+00:00</time></trkpt><trkpt lat="34.9487967" lon="33.5730886"><ele>69.5</ele><time>2015-05-01T15:14:14.0000000+00:00</time></trkpt><trkpt lat="34.9488341" lon="33.5730287"><ele>69.9</ele><time>2015-05-01T15:14:16.0000000+00:00</time></trkpt><trkpt lat="34.9488417" lon="33.5729394"><ele>68.7</ele><time>2015-05-01T15:14:18.0000000+00:00</time></trkpt><trkpt lat="34.9488048" lon="33.5728531"><ele>68.2</ele><time>2015-05-01T15:14:20.0000000+00:00</time></trkpt><trkpt lat="34.9487687" lon="33.5728089"><ele>68.6</ele><time>2015-05-01T15:14:21.0000000+00:00</time></trkpt><trkpt lat="34.9487089" lon="33.5727671"><ele>68.8</ele><time>2015-05-01T15:14:22.0000000+00:00</time></trkpt><trkpt lat="34.9486705" lon="33.5727187"><ele>68.9</ele><time>2015-05-01T15:14:23.0000000+00:00</time></trkpt><trkpt lat="34.9486325" lon="33.5726733"><ele>69.0</ele><time>2015-05-01T15:14:24.0000000+00:00</time></trkpt><trkpt lat="34.9485976" lon="33.5726261"><ele>68.5</ele><time>2015-05-01T15:14:25.0000000+00:00</time></trkpt><trkpt lat="34.9485651" lon="33.5725763"><ele>68.3</ele><time>2015-05-01T15:14:26.0000000+00:00</time></trkpt><trkpt lat="34.9485345" lon="33.5725247"><ele>68.6</ele><time>2015-05-01T15:14:27.0000000+00:00</time></trkpt><trkpt lat="34.9484991" lon="33.572473"><ele>68.3</ele><time>2015-05-01T15:14:28.0000000+00:00</time></trkpt><trkpt lat="34.9484635" lon="33.5724268"><ele>68.2</ele><time>2015-05-01T15:14:29.0000000+00:00</time></trkpt><trkpt lat="34.9484297" lon="33.5723706"><ele>68.1</ele><time>2015-05-01T15:14:30.0000000+00:00</time></trkpt><trkpt lat="34.9483978" lon="33.5723154"><ele>67.6</ele><time>2015-05-01T15:14:31.0000000+00:00</time></trkpt><trkpt lat="34.9483657" lon="33.5722604"><ele>67.8</ele><time>2015-05-01T15:14:32.0000000+00:00</time></trkpt><trkpt lat="34.9483415" lon="33.5722044"><ele>67.9</ele><time>2015-05-01T15:14:33.0000000+00:00</time></trkpt><trkpt lat="34.948315" lon="33.5721492"><ele>68.0</ele><time>2015-05-01T15:14:34.0000000+00:00</time></trkpt><trkpt lat="34.9482882" lon="33.5720913"><ele>67.5</ele><time>2015-05-01T15:14:35.0000000+00:00</time></trkpt><trkpt lat="34.9482677" lon="33.5720286"><ele>67.3</ele><time>2015-05-01T15:14:36.0000000+00:00</time></trkpt><trkpt lat="34.9482452" lon="33.5719705"><ele>67.1</ele><time>2015-05-01T15:14:37.0000000+00:00</time></trkpt><trkpt lat="34.9482314" lon="33.5719049"><ele>66.6</ele><time>2015-05-01T15:14:38.0000000+00:00</time></trkpt><trkpt lat="34.9482171" lon="33.5718412"><ele>66.3</ele><time>2015-05-01T15:14:39.0000000+00:00</time></trkpt><trkpt lat="34.9482037" lon="33.5717802"><ele>66.2</ele><time>2015-05-01T15:14:40.0000000+00:00</time></trkpt><trkpt lat="34.9481906" lon="33.5717172"><ele>66.1</ele><time>2015-05-01T15:14:41.0000000+00:00</time></trkpt><trkpt lat="34.9481724" lon="33.5716611"><ele>66.1</ele><time>2015-05-01T15:14:42.0000000+00:00</time></trkpt><trkpt lat="34.9481621" lon="33.5715988"><ele>66.0</ele><time>2015-05-01T15:14:43.0000000+00:00</time></trkpt><trkpt lat="34.9481549" lon="33.5715381"><ele>66.0</ele><time>2015-05-01T15:14:44.0000000+00:00</time></trkpt><trkpt lat="34.948147" lon="33.5714809"><ele>66.0</ele><time>2015-05-01T15:14:45.0000000+00:00</time></trkpt><trkpt lat="34.9481398" lon="33.5714221"><ele>66.5</ele><time>2015-05-01T15:14:46.0000000+00:00</time></trkpt><trkpt lat="34.9481284" lon="33.5713668"><ele>66.8</ele><time>2015-05-01T15:14:47.0000000+00:00</time></trkpt><trkpt lat="34.9481126" lon="33.5713063"><ele>66.9</ele><time>2015-05-01T15:14:48.0000000+00:00</time></trkpt><trkpt lat="34.9480961" lon="33.5712428"><ele>67.0</ele><time>2015-05-01T15:14:49.0000000+00:00</time></trkpt><trkpt lat="34.9480834" lon="33.5711788"><ele>67.0</ele><time>2015-05-01T15:14:50.0000000+00:00</time></trkpt><trkpt lat="34.9480668" lon="33.5711165"><ele>67.5</ele><time>2015-05-01T15:14:51.0000000+00:00</time></trkpt><trkpt lat="34.9480545" lon="33.5710564"><ele>67.8</ele><time>2015-05-01T15:14:52.0000000+00:00</time></trkpt><trkpt lat="34.9480335" lon="33.5710012"><ele>67.4</ele><time>2015-05-01T15:14:53.0000000+00:00</time></trkpt><trkpt lat="34.9480097" lon="33.5709364"><ele>67.2</ele><time>2015-05-01T15:14:54.0000000+00:00</time></trkpt><trkpt lat="34.9479874" lon="33.5708704"><ele>67.1</ele><time>2015-05-01T15:14:55.0000000+00:00</time></trkpt><trkpt lat="34.9479673" lon="33.5707986"><ele>67.6</ele><time>2015-05-01T15:14:56.0000000+00:00</time></trkpt><trkpt lat="34.9479421" lon="33.570735"><ele>68.3</ele><time>2015-05-01T15:14:57.0000000+00:00</time></trkpt><trkpt lat="34.9479177" lon="33.5706739"><ele>68.2</ele><time>2015-05-01T15:14:58.0000000+00:00</time></trkpt><trkpt lat="34.9478905" lon="33.5706193"><ele>68.1</ele><time>2015-05-01T15:14:59.0000000+00:00</time></trkpt><trkpt lat="34.9478632" lon="33.5705684"><ele>68.1</ele><time>2015-05-01T15:15:00.0000000+00:00</time></trkpt><trkpt lat="34.9478404" lon="33.5705182"><ele>68.5</ele><time>2015-05-01T15:15:01.0000000+00:00</time></trkpt><trkpt lat="34.947815" lon="33.5704643"><ele>68.8</ele><time>2015-05-01T15:15:02.0000000+00:00</time></trkpt><trkpt lat="34.9477969" lon="33.5704107"><ele>68.9</ele><time>2015-05-01T15:15:03.0000000+00:00</time></trkpt><trkpt lat="34.9477719" lon="33.5703543"><ele>69.0</ele><time>2015-05-01T15:15:04.0000000+00:00</time></trkpt><trkpt lat="34.9477438" lon="33.5703029"><ele>68.5</ele><time>2015-05-01T15:15:05.0000000+00:00</time></trkpt><trkpt lat="34.9477122" lon="33.5702513"><ele>68.3</ele><time>2015-05-01T15:15:06.0000000+00:00</time></trkpt><trkpt lat="34.9476836" lon="33.5701968"><ele>68.1</ele><time>2015-05-01T15:15:07.0000000+00:00</time></trkpt><trkpt lat="34.9476558" lon="33.5701387"><ele>68.1</ele><time>2015-05-01T15:15:08.0000000+00:00</time></trkpt><trkpt lat="34.9476262" lon="33.5700849"><ele>68.1</ele><time>2015-05-01T15:15:09.0000000+00:00</time></trkpt><trkpt lat="34.9475994" lon="33.570037"><ele>68.5</ele><time>2015-05-01T15:15:10.0000000+00:00</time></trkpt><trkpt lat="34.9475721" lon="33.5699878"><ele>68.8</ele><time>2015-05-01T15:15:11.0000000+00:00</time></trkpt><trkpt lat="34.9475306" lon="33.5698997"><ele>69.5</ele><time>2015-05-01T15:15:13.0000000+00:00</time></trkpt><trkpt lat="34.9474863" lon="33.5698324"><ele>70.1</ele><time>2015-05-01T15:15:15.0000000+00:00</time></trkpt><trkpt lat="34.9474424" lon="33.5697613"><ele>70.8</ele><time>2015-05-01T15:15:17.0000000+00:00</time></trkpt><trkpt lat="34.947399" lon="33.5696704"><ele>71.0</ele><time>2015-05-01T15:15:19.0000000+00:00</time></trkpt><trkpt lat="34.9473712" lon="33.5696191"><ele>71.0</ele><time>2015-05-01T15:15:20.0000000+00:00</time></trkpt><trkpt lat="34.947342" lon="33.5695688"><ele>71.0</ele><time>2015-05-01T15:15:21.0000000+00:00</time></trkpt><trkpt lat="34.9472948" lon="33.5694848"><ele>71.5</ele><time>2015-05-01T15:15:23.0000000+00:00</time></trkpt><trkpt lat="34.9472467" lon="33.5694006"><ele>71.4</ele><time>2015-05-01T15:15:25.0000000+00:00</time></trkpt><trkpt lat="34.9472239" lon="33.5693516"><ele>71.7</ele><time>2015-05-01T15:15:26.0000000+00:00</time></trkpt><trkpt lat="34.9472017" lon="33.5693036"><ele>71.9</ele><time>2015-05-01T15:15:27.0000000+00:00</time></trkpt><trkpt lat="34.9471509" lon="33.5692113"><ele>71.5</ele><time>2015-05-01T15:15:29.0000000+00:00</time></trkpt><trkpt lat="34.9471191" lon="33.5691641"><ele>70.8</ele><time>2015-05-01T15:15:30.0000000+00:00</time></trkpt><trkpt lat="34.9470913" lon="33.5691101"><ele>70.4</ele><time>2015-05-01T15:15:31.0000000+00:00</time></trkpt><trkpt lat="34.947064" lon="33.5690493"><ele>70.7</ele><time>2015-05-01T15:15:32.0000000+00:00</time></trkpt><trkpt lat="34.9470421" lon="33.5689949"><ele>70.9</ele><time>2015-05-01T15:15:33.0000000+00:00</time></trkpt><trkpt lat="34.9470132" lon="33.5689371"><ele>70.9</ele><time>2015-05-01T15:15:34.0000000+00:00</time></trkpt><trkpt lat="34.9469889" lon="33.5688874"><ele>70.5</ele><time>2015-05-01T15:15:35.0000000+00:00</time></trkpt><trkpt lat="34.9469631" lon="33.5688316"><ele>70.8</ele><time>2015-05-01T15:15:36.0000000+00:00</time></trkpt><trkpt lat="34.9469355" lon="33.5687814"><ele>70.9</ele><time>2015-05-01T15:15:37.0000000+00:00</time></trkpt><trkpt lat="34.9468953" lon="33.5687004"><ele>70.5</ele><time>2015-05-01T15:15:39.0000000+00:00</time></trkpt><trkpt lat="34.9468493" lon="33.5686063"><ele>70.6</ele><time>2015-05-01T15:15:41.0000000+00:00</time></trkpt><trkpt lat="34.9468238" lon="33.5685535"><ele>70.8</ele><time>2015-05-01T15:15:42.0000000+00:00</time></trkpt><trkpt lat="34.9467993" lon="33.5685021"><ele>70.9</ele><time>2015-05-01T15:15:43.0000000+00:00</time></trkpt><trkpt lat="34.9467716" lon="33.5684528"><ele>71.0</ele><time>2015-05-01T15:15:44.0000000+00:00</time></trkpt><trkpt lat="34.9467416" lon="33.5683943"><ele>71.5</ele><time>2015-05-01T15:15:45.0000000+00:00</time></trkpt><trkpt lat="34.9467104" lon="33.5683469"><ele>71.8</ele><time>2015-05-01T15:15:46.0000000+00:00</time></trkpt><trkpt lat="34.9466831" lon="33.5682935"><ele>71.9</ele><time>2015-05-01T15:15:47.0000000+00:00</time></trkpt><trkpt lat="34.9466597" lon="33.5682385"><ele>72.5</ele><time>2015-05-01T15:15:48.0000000+00:00</time></trkpt><trkpt lat="34.9466306" lon="33.5681936"><ele>72.7</ele><time>2015-05-01T15:15:49.0000000+00:00</time></trkpt><trkpt lat="34.9465866" lon="33.5681005"><ele>73.0</ele><time>2015-05-01T15:15:51.0000000+00:00</time></trkpt><trkpt lat="34.9465586" lon="33.5680432"><ele>73.0</ele><time>2015-05-01T15:15:52.0000000+00:00</time></trkpt><trkpt lat="34.9465236" lon="33.5679937"><ele>73.0</ele><time>2015-05-01T15:15:53.0000000+00:00</time></trkpt><trkpt lat="34.9465004" lon="33.5679429"><ele>73.0</ele><time>2015-05-01T15:15:54.0000000+00:00</time></trkpt><trkpt lat="34.9464718" lon="33.5678881"><ele>73.0</ele><time>2015-05-01T15:15:55.0000000+00:00</time></trkpt><trkpt lat="34.946439" lon="33.5678394"><ele>73.0</ele><time>2015-05-01T15:15:56.0000000+00:00</time></trkpt><trkpt lat="34.9464177" lon="33.5677838"><ele>73.0</ele><time>2015-05-01T15:15:57.0000000+00:00</time></trkpt><trkpt lat="34.9463964" lon="33.567726"><ele>72.5</ele><time>2015-05-01T15:15:58.0000000+00:00</time></trkpt><trkpt lat="34.9463738" lon="33.5676745"><ele>72.3</ele><time>2015-05-01T15:15:59.0000000+00:00</time></trkpt><trkpt lat="34.9463471" lon="33.5676237"><ele>72.1</ele><time>2015-05-01T15:16:00.0000000+00:00</time></trkpt><trkpt lat="34.9463048" lon="33.5675285"><ele>72.1</ele><time>2015-05-01T15:16:02.0000000+00:00</time></trkpt><trkpt lat="34.9462591" lon="33.5674388"><ele>72.0</ele><time>2015-05-01T15:16:04.0000000+00:00</time></trkpt><trkpt lat="34.9462315" lon="33.5673878"><ele>72.0</ele><time>2015-05-01T15:16:05.0000000+00:00</time></trkpt><trkpt lat="34.9462056" lon="33.5673348"><ele>72.0</ele><time>2015-05-01T15:16:06.0000000+00:00</time></trkpt><trkpt lat="34.9461817" lon="33.5672824"><ele>72.0</ele><time>2015-05-01T15:16:07.0000000+00:00</time></trkpt><trkpt lat="34.9461531" lon="33.5672228"><ele>72.0</ele><time>2015-05-01T15:16:08.0000000+00:00</time></trkpt><trkpt lat="34.9461245" lon="33.567168"><ele>72.0</ele><time>2015-05-01T15:16:09.0000000+00:00</time></trkpt><trkpt lat="34.946095" lon="33.5671176"><ele>72.0</ele><time>2015-05-01T15:16:10.0000000+00:00</time></trkpt><trkpt lat="34.9460733" lon="33.5670662"><ele>72.0</ele><time>2015-05-01T15:16:11.0000000+00:00</time></trkpt><trkpt lat="34.9460448" lon="33.5670161"><ele>72.0</ele><time>2015-05-01T15:16:12.0000000+00:00</time></trkpt><trkpt lat="34.9460019" lon="33.5669201"><ele>72.0</ele><time>2015-05-01T15:16:14.0000000+00:00</time></trkpt><trkpt lat="34.9459745" lon="33.5668761"><ele>72.5</ele><time>2015-05-01T15:16:15.0000000+00:00</time></trkpt><trkpt lat="34.9459383" lon="33.566793"><ele>72.9</ele><time>2015-05-01T15:16:17.0000000+00:00</time></trkpt><trkpt lat="34.9459102" lon="33.5667176"><ele>73.7</ele><time>2015-05-01T15:16:19.0000000+00:00</time></trkpt><trkpt lat="34.9458693" lon="33.5666678"><ele>74.2</ele><time>2015-05-01T15:16:21.0000000+00:00</time></trkpt><trkpt lat="34.9458375" lon="33.5666191"><ele>74.3</ele><time>2015-05-01T15:16:24.0000000+00:00</time></trkpt><trkpt lat="34.9458016" lon="33.5665628"><ele>74.1</ele><time>2015-05-01T15:16:27.0000000+00:00</time></trkpt><trkpt lat="34.9457677" lon="33.5665091"><ele>74.5</ele><time>2015-05-01T15:16:30.0000000+00:00</time></trkpt><trkpt lat="34.9457359" lon="33.566446"><ele>75.5</ele><time>2015-05-01T15:16:33.0000000+00:00</time></trkpt><trkpt lat="34.9457027" lon="33.5663716"><ele>77.3</ele><time>2015-05-01T15:16:36.0000000+00:00</time></trkpt><trkpt lat="34.9456753" lon="33.5663156"><ele>77.8</ele><time>2015-05-01T15:16:38.0000000+00:00</time></trkpt><trkpt lat="34.9456458" lon="33.5662559"><ele>78.0</ele><time>2015-05-01T15:16:40.0000000+00:00</time></trkpt><trkpt lat="34.9456124" lon="33.5661863"><ele>78.8</ele><time>2015-05-01T15:16:42.0000000+00:00</time></trkpt><trkpt lat="34.9455771" lon="33.5661202"><ele>79.0</ele><time>2015-05-01T15:16:44.0000000+00:00</time></trkpt><trkpt lat="34.9455383" lon="33.5660582"><ele>79.8</ele><time>2015-05-01T15:16:46.0000000+00:00</time></trkpt><trkpt lat="34.9455061" lon="33.5659916"><ele>79.5</ele><time>2015-05-01T15:16:48.0000000+00:00</time></trkpt><trkpt lat="34.9454714" lon="33.5659151"><ele>79.4</ele><time>2015-05-01T15:16:50.0000000+00:00</time></trkpt><trkpt lat="34.9454299" lon="33.5658362"><ele>78.6</ele><time>2015-05-01T15:16:52.0000000+00:00</time></trkpt><trkpt lat="34.9453794" lon="33.5657627"><ele>78.4</ele><time>2015-05-01T15:16:54.0000000+00:00</time></trkpt><trkpt lat="34.9453357" lon="33.5656803"><ele>78.9</ele><time>2015-05-01T15:16:56.0000000+00:00</time></trkpt><trkpt lat="34.9452973" lon="33.5655948"><ele>79.0</ele><time>2015-05-01T15:16:58.0000000+00:00</time></trkpt><trkpt lat="34.9452565" lon="33.565518"><ele>79.8</ele><time>2015-05-01T15:17:00.0000000+00:00</time></trkpt><trkpt lat="34.9452223" lon="33.5654798"><ele>80.0</ele><time>2015-05-01T15:17:02.0000000+00:00</time></trkpt><trkpt lat="34.9452682" lon="33.5654508"><ele>80.8</ele><time>2015-05-01T15:17:57.0000000+00:00</time></trkpt><trkpt lat="34.9453314" lon="33.5654583"><ele>82.1</ele><time>2015-05-01T15:18:00.0000000+00:00</time></trkpt><trkpt lat="34.9453611" lon="33.5655118"><ele>82.0</ele><time>2015-05-01T15:18:02.0000000+00:00</time></trkpt><trkpt lat="34.9453964" lon="33.5655709"><ele>82.0</ele><time>2015-05-01T15:18:04.0000000+00:00</time></trkpt><trkpt lat="34.9454323" lon="33.5656316"><ele>82.8</ele><time>2015-05-01T15:18:06.0000000+00:00</time></trkpt><trkpt lat="34.94547" lon="33.5656985"><ele>82.2</ele><time>2015-05-01T15:18:08.0000000+00:00</time></trkpt><trkpt lat="34.9455066" lon="33.5657687"><ele>82.1</ele><time>2015-05-01T15:18:10.0000000+00:00</time></trkpt><trkpt lat="34.945546" lon="33.5658449"><ele>82.0</ele><time>2015-05-01T15:18:12.0000000+00:00</time></trkpt><trkpt lat="34.9455894" lon="33.565928"><ele>82.0</ele><time>2015-05-01T15:18:14.0000000+00:00</time></trkpt><trkpt lat="34.9456318" lon="33.5660035"><ele>82.0</ele><time>2015-05-01T15:18:15.0000000+00:00</time></trkpt><trkpt lat="34.9456558" lon="33.5660551"><ele>82.0</ele><time>2015-05-01T15:18:16.0000000+00:00</time></trkpt><trkpt lat="34.9456859" lon="33.5661123"><ele>82.0</ele><time>2015-05-01T15:18:17.0000000+00:00</time></trkpt><trkpt lat="34.9457187" lon="33.566177"><ele>81.5</ele><time>2015-05-01T15:18:18.0000000+00:00</time></trkpt><trkpt lat="34.9457491" lon="33.5662376"><ele>81.8</ele><time>2015-05-01T15:18:19.0000000+00:00</time></trkpt><trkpt lat="34.9457749" lon="33.5663095"><ele>81.9</ele><time>2015-05-01T15:18:20.0000000+00:00</time></trkpt><trkpt lat="34.9458023" lon="33.5663751"><ele>82.0</ele><time>2015-05-01T15:18:21.0000000+00:00</time></trkpt><trkpt lat="34.945836" lon="33.5664467"><ele>82.0</ele><time>2015-05-01T15:18:22.0000000+00:00</time></trkpt><trkpt lat="34.945867" lon="33.5665131"><ele>82.0</ele><time>2015-05-01T15:18:23.0000000+00:00</time></trkpt><trkpt lat="34.9458961" lon="33.5665875"><ele>81.5</ele><time>2015-05-01T15:18:24.0000000+00:00</time></trkpt><trkpt lat="34.9459313" lon="33.5666599"><ele>81.3</ele><time>2015-05-01T15:18:25.0000000+00:00</time></trkpt><trkpt lat="34.9459668" lon="33.5667252"><ele>81.1</ele><time>2015-05-01T15:18:26.0000000+00:00</time></trkpt><trkpt lat="34.9460005" lon="33.5667878"><ele>81.1</ele><time>2015-05-01T15:18:27.0000000+00:00</time></trkpt><trkpt lat="34.9460366" lon="33.5668534"><ele>81.1</ele><time>2015-05-01T15:18:28.0000000+00:00</time></trkpt><trkpt lat="34.9460686" lon="33.5669171"><ele>81.0</ele><time>2015-05-01T15:18:29.0000000+00:00</time></trkpt><trkpt lat="34.9461049" lon="33.566979"><ele>81.0</ele><time>2015-05-01T15:18:30.0000000+00:00</time></trkpt><trkpt lat="34.9461401" lon="33.567043"><ele>81.0</ele><time>2015-05-01T15:18:31.0000000+00:00</time></trkpt><trkpt lat="34.946174" lon="33.5671139"><ele>81.0</ele><time>2015-05-01T15:18:32.0000000+00:00</time></trkpt><trkpt lat="34.9461967" lon="33.5671737"><ele>80.5</ele><time>2015-05-01T15:18:33.0000000+00:00</time></trkpt><trkpt lat="34.9462313" lon="33.567234"><ele>80.3</ele><time>2015-05-01T15:18:34.0000000+00:00</time></trkpt><trkpt lat="34.9462628" lon="33.5672942"><ele>80.1</ele><time>2015-05-01T15:18:35.0000000+00:00</time></trkpt><trkpt lat="34.946284" lon="33.5673588"><ele>80.1</ele><time>2015-05-01T15:18:36.0000000+00:00</time></trkpt><trkpt lat="34.9463177" lon="33.5674222"><ele>80.6</ele><time>2015-05-01T15:18:37.0000000+00:00</time></trkpt><trkpt lat="34.9463529" lon="33.5674835"><ele>80.8</ele><time>2015-05-01T15:18:38.0000000+00:00</time></trkpt><trkpt lat="34.946388" lon="33.5675461"><ele>80.9</ele><time>2015-05-01T15:18:39.0000000+00:00</time></trkpt><trkpt lat="34.946424" lon="33.5676208"><ele>81.0</ele><time>2015-05-01T15:18:40.0000000+00:00</time></trkpt><trkpt lat="34.9464656" lon="33.5676962"><ele>81.0</ele><time>2015-05-01T15:18:41.0000000+00:00</time></trkpt><trkpt lat="34.946501" lon="33.567762"><ele>80.5</ele><time>2015-05-01T15:18:42.0000000+00:00</time></trkpt><trkpt lat="34.9465303" lon="33.5678315"><ele>80.3</ele><time>2015-05-01T15:18:43.0000000+00:00</time></trkpt><trkpt lat="34.9465671" lon="33.5678951"><ele>80.1</ele><time>2015-05-01T15:18:44.0000000+00:00</time></trkpt><trkpt lat="34.9466064" lon="33.5679651"><ele>80.1</ele><time>2015-05-01T15:18:45.0000000+00:00</time></trkpt><trkpt lat="34.9466398" lon="33.5680322"><ele>80.1</ele><time>2015-05-01T15:18:46.0000000+00:00</time></trkpt><trkpt lat="34.9466727" lon="33.5680984"><ele>80.0</ele><time>2015-05-01T15:18:47.0000000+00:00</time></trkpt><trkpt lat="34.9467187" lon="33.5681706"><ele>80.0</ele><time>2015-05-01T15:18:48.0000000+00:00</time></trkpt><trkpt lat="34.9467637" lon="33.5682449"><ele>80.5</ele><time>2015-05-01T15:18:49.0000000+00:00</time></trkpt><trkpt lat="34.9467912" lon="33.5683101"><ele>80.8</ele><time>2015-05-01T15:18:50.0000000+00:00</time></trkpt><trkpt lat="34.9468184" lon="33.5683758"><ele>80.9</ele><time>2015-05-01T15:18:51.0000000+00:00</time></trkpt><trkpt lat="34.9468581" lon="33.568449"><ele>81.0</ele><time>2015-05-01T15:18:52.0000000+00:00</time></trkpt><trkpt lat="34.9468965" lon="33.5685211"><ele>81.0</ele><time>2015-05-01T15:18:53.0000000+00:00</time></trkpt><trkpt lat="34.9469348" lon="33.5685914"><ele>81.0</ele><time>2015-05-01T15:18:54.0000000+00:00</time></trkpt><trkpt lat="34.9469708" lon="33.5686649"><ele>81.0</ele><time>2015-05-01T15:18:55.0000000+00:00</time></trkpt><trkpt lat="34.9470099" lon="33.5687436"><ele>81.0</ele><time>2015-05-01T15:18:56.0000000+00:00</time></trkpt><trkpt lat="34.9470468" lon="33.5688186"><ele>80.5</ele><time>2015-05-01T15:18:57.0000000+00:00</time></trkpt><trkpt lat="34.9470859" lon="33.5688896"><ele>80.8</ele><time>2015-05-01T15:18:58.0000000+00:00</time></trkpt><trkpt lat="34.9471199" lon="33.5689549"><ele>80.9</ele><time>2015-05-01T15:18:59.0000000+00:00</time></trkpt><trkpt lat="34.9471646" lon="33.5690192"><ele>81.5</ele><time>2015-05-01T15:19:00.0000000+00:00</time></trkpt><trkpt lat="34.947193" lon="33.5690765"><ele>81.2</ele><time>2015-05-01T15:19:01.0000000+00:00</time></trkpt><trkpt lat="34.9472277" lon="33.5691422"><ele>81.1</ele><time>2015-05-01T15:19:02.0000000+00:00</time></trkpt><trkpt lat="34.9472625" lon="33.5692002"><ele>81.1</ele><time>2015-05-01T15:19:03.0000000+00:00</time></trkpt><trkpt lat="34.9472985" lon="33.569268"><ele>81.0</ele><time>2015-05-01T15:19:04.0000000+00:00</time></trkpt><trkpt lat="34.9473313" lon="33.5693315"><ele>81.0</ele><time>2015-05-01T15:19:05.0000000+00:00</time></trkpt><trkpt lat="34.9473638" lon="33.569393"><ele>81.0</ele><time>2015-05-01T15:19:06.0000000+00:00</time></trkpt><trkpt lat="34.9474019" lon="33.5694605"><ele>81.0</ele><time>2015-05-01T15:19:07.0000000+00:00</time></trkpt><trkpt lat="34.9474375" lon="33.5695286"><ele>80.5</ele><time>2015-05-01T15:19:08.0000000+00:00</time></trkpt><trkpt lat="34.9474713" lon="33.5695917"><ele>80.3</ele><time>2015-05-01T15:19:09.0000000+00:00</time></trkpt><trkpt lat="34.9474898" lon="33.5696616"><ele>80.1</ele><time>2015-05-01T15:19:10.0000000+00:00</time></trkpt><trkpt lat="34.9475181" lon="33.5697272"><ele>79.6</ele><time>2015-05-01T15:19:11.0000000+00:00</time></trkpt><trkpt lat="34.9475609" lon="33.5698041"><ele>79.8</ele><time>2015-05-01T15:19:12.0000000+00:00</time></trkpt><trkpt lat="34.9476024" lon="33.5698772"><ele>79.4</ele><time>2015-05-01T15:19:13.0000000+00:00</time></trkpt><trkpt lat="34.9476485" lon="33.5699654"><ele>78.7</ele><time>2015-05-01T15:19:14.0000000+00:00</time></trkpt><trkpt lat="34.9476952" lon="33.5700506"><ele>77.9</ele><time>2015-05-01T15:19:15.0000000+00:00</time></trkpt><trkpt lat="34.9477352" lon="33.5701346"><ele>76.9</ele><time>2015-05-01T15:19:16.0000000+00:00</time></trkpt><trkpt lat="34.9477843" lon="33.5702154"><ele>76.5</ele><time>2015-05-01T15:19:17.0000000+00:00</time></trkpt><trkpt lat="34.9478212" lon="33.570296"><ele>76.3</ele><time>2015-05-01T15:19:18.0000000+00:00</time></trkpt><trkpt lat="34.9478585" lon="33.5703712"><ele>75.6</ele><time>2015-05-01T15:19:19.0000000+00:00</time></trkpt><trkpt lat="34.9478993" lon="33.570455"><ele>75.8</ele><time>2015-05-01T15:19:20.0000000+00:00</time></trkpt><trkpt lat="34.947929" lon="33.5705299"><ele>75.4</ele><time>2015-05-01T15:19:21.0000000+00:00</time></trkpt><trkpt lat="34.9479569" lon="33.5706093"><ele>75.2</ele><time>2015-05-01T15:19:22.0000000+00:00</time></trkpt><trkpt lat="34.94798" lon="33.5706837"><ele>75.1</ele><time>2015-05-01T15:19:23.0000000+00:00</time></trkpt><trkpt lat="34.948006" lon="33.5707698"><ele>75.1</ele><time>2015-05-01T15:19:24.0000000+00:00</time></trkpt><trkpt lat="34.9480351" lon="33.5708541"><ele>74.5</ele><time>2015-05-01T15:19:25.0000000+00:00</time></trkpt><trkpt lat="34.9480586" lon="33.5709363"><ele>74.8</ele><time>2015-05-01T15:19:26.0000000+00:00</time></trkpt><trkpt lat="34.9480767" lon="33.5710118"><ele>74.9</ele><time>2015-05-01T15:19:27.0000000+00:00</time></trkpt><trkpt lat="34.9481009" lon="33.5710788"><ele>74.5</ele><time>2015-05-01T15:19:28.0000000+00:00</time></trkpt><trkpt lat="34.9481209" lon="33.5711549"><ele>73.7</ele><time>2015-05-01T15:19:29.0000000+00:00</time></trkpt><trkpt lat="34.9481448" lon="33.5712297"><ele>73.9</ele><time>2015-05-01T15:19:30.0000000+00:00</time></trkpt><trkpt lat="34.9481598" lon="33.5712976"><ele>74.5</ele><time>2015-05-01T15:19:31.0000000+00:00</time></trkpt><trkpt lat="34.9481852" lon="33.5713734"><ele>75.2</ele><time>2015-05-01T15:19:32.0000000+00:00</time></trkpt><trkpt lat="34.9481966" lon="33.5714435"><ele>75.6</ele><time>2015-05-01T15:19:33.0000000+00:00</time></trkpt><trkpt lat="34.9482043" lon="33.571511"><ele>75.8</ele><time>2015-05-01T15:19:34.0000000+00:00</time></trkpt><trkpt lat="34.948215" lon="33.5715757"><ele>75.4</ele><time>2015-05-01T15:19:35.0000000+00:00</time></trkpt><trkpt lat="34.9482265" lon="33.5716328"><ele>74.7</ele><time>2015-05-01T15:19:36.0000000+00:00</time></trkpt><trkpt lat="34.9482347" lon="33.5716978"><ele>74.4</ele><time>2015-05-01T15:19:37.0000000+00:00</time></trkpt><trkpt lat="34.9482437" lon="33.5717573"><ele>73.7</ele><time>2015-05-01T15:19:38.0000000+00:00</time></trkpt><trkpt lat="34.9482648" lon="33.5718189"><ele>73.4</ele><time>2015-05-01T15:19:39.0000000+00:00</time></trkpt><trkpt lat="34.9482782" lon="33.571883"><ele>73.2</ele><time>2015-05-01T15:19:40.0000000+00:00</time></trkpt><trkpt lat="34.9482916" lon="33.5719444"><ele>73.6</ele><time>2015-05-01T15:19:41.0000000+00:00</time></trkpt><trkpt lat="34.9483118" lon="33.5720087"><ele>73.8</ele><time>2015-05-01T15:19:42.0000000+00:00</time></trkpt><trkpt lat="34.948344" lon="33.5720699"><ele>73.9</ele><time>2015-05-01T15:19:43.0000000+00:00</time></trkpt><trkpt lat="34.9483653" lon="33.5721185"><ele>74.5</ele><time>2015-05-01T15:19:44.0000000+00:00</time></trkpt><trkpt lat="34.9483918" lon="33.572184"><ele>74.7</ele><time>2015-05-01T15:19:45.0000000+00:00</time></trkpt><trkpt lat="34.9484096" lon="33.5722446"><ele>74.9</ele><time>2015-05-01T15:19:46.0000000+00:00</time></trkpt><trkpt lat="34.9484322" lon="33.572296"><ele>75.0</ele><time>2015-05-01T15:19:47.0000000+00:00</time></trkpt><trkpt lat="34.9484672" lon="33.5723429"><ele>74.5</ele><time>2015-05-01T15:19:48.0000000+00:00</time></trkpt><trkpt lat="34.9485039" lon="33.5724004"><ele>74.3</ele><time>2015-05-01T15:19:49.0000000+00:00</time></trkpt><trkpt lat="34.9485533" lon="33.5724502"><ele>74.1</ele><time>2015-05-01T15:19:50.0000000+00:00</time></trkpt><trkpt lat="34.9485892" lon="33.5725023"><ele>74.6</ele><time>2015-05-01T15:19:51.0000000+00:00</time></trkpt><trkpt lat="34.9486298" lon="33.5725626"><ele>75.3</ele><time>2015-05-01T15:19:52.0000000+00:00</time></trkpt><trkpt lat="34.9486687" lon="33.5726191"><ele>75.2</ele><time>2015-05-01T15:19:53.0000000+00:00</time></trkpt><trkpt lat="34.9487042" lon="33.5726733"><ele>75.6</ele><time>2015-05-01T15:19:54.0000000+00:00</time></trkpt><trkpt lat="34.9487418" lon="33.5727246"><ele>75.8</ele><time>2015-05-01T15:19:55.0000000+00:00</time></trkpt><trkpt lat="34.9487841" lon="33.5727762"><ele>75.9</ele><time>2015-05-01T15:19:56.0000000+00:00</time></trkpt><trkpt lat="34.9488332" lon="33.5728268"><ele>75.5</ele><time>2015-05-01T15:19:57.0000000+00:00</time></trkpt><trkpt lat="34.9488774" lon="33.572878"><ele>75.7</ele><time>2015-05-01T15:19:58.0000000+00:00</time></trkpt><trkpt lat="34.9489263" lon="33.572928"><ele>75.9</ele><time>2015-05-01T15:19:59.0000000+00:00</time></trkpt><trkpt lat="34.9489714" lon="33.5729781"><ele>76.0</ele><time>2015-05-01T15:20:00.0000000+00:00</time></trkpt><trkpt lat="34.949013" lon="33.5730324"><ele>76.0</ele><time>2015-05-01T15:20:01.0000000+00:00</time></trkpt><trkpt lat="34.9490549" lon="33.5730886"><ele>76.0</ele><time>2015-05-01T15:20:02.0000000+00:00</time></trkpt><trkpt lat="34.9490861" lon="33.5731454"><ele>76.5</ele><time>2015-05-01T15:20:03.0000000+00:00</time></trkpt><trkpt lat="34.9491208" lon="33.5732064"><ele>76.8</ele><time>2015-05-01T15:20:04.0000000+00:00</time></trkpt><trkpt lat="34.9491568" lon="33.5732712"><ele>76.9</ele><time>2015-05-01T15:20:05.0000000+00:00</time></trkpt><trkpt lat="34.9491904" lon="33.5733339"><ele>77.0</ele><time>2015-05-01T15:20:06.0000000+00:00</time></trkpt><trkpt lat="34.9492281" lon="33.573391"><ele>77.0</ele><time>2015-05-01T15:20:07.0000000+00:00</time></trkpt><trkpt lat="34.9492712" lon="33.5734438"><ele>76.5</ele><time>2015-05-01T15:20:08.0000000+00:00</time></trkpt><trkpt lat="34.9493238" lon="33.5734818"><ele>76.3</ele><time>2015-05-01T15:20:09.0000000+00:00</time></trkpt><trkpt lat="34.9493736" lon="33.5734967"><ele>76.1</ele><time>2015-05-01T15:20:10.0000000+00:00</time></trkpt><trkpt lat="34.9494221" lon="33.5735116"><ele>76.1</ele><time>2015-05-01T15:20:11.0000000+00:00</time></trkpt><trkpt lat="34.9494704" lon="33.5735222"><ele>76.1</ele><time>2015-05-01T15:20:12.0000000+00:00</time></trkpt><trkpt lat="34.949548" lon="33.573529"><ele>75.8</ele><time>2015-05-01T15:20:14.0000000+00:00</time></trkpt><trkpt lat="34.9496004" lon="33.5735086"><ele>75.2</ele><time>2015-05-01T15:20:16.0000000+00:00</time></trkpt><trkpt lat="34.949634" lon="33.5734624"><ele>75.1</ele><time>2015-05-01T15:20:18.0000000+00:00</time></trkpt><trkpt lat="34.9496638" lon="33.5733988"><ele>75.8</ele><time>2015-05-01T15:20:20.0000000+00:00</time></trkpt><trkpt lat="34.9496964" lon="33.5733298"><ele>75.5</ele><time>2015-05-01T15:20:22.0000000+00:00</time></trkpt><trkpt lat="34.9497263" lon="33.5732466"><ele>74.4</ele><time>2015-05-01T15:20:24.0000000+00:00</time></trkpt><trkpt lat="34.9497597" lon="33.5731496"><ele>74.1</ele><time>2015-05-01T15:20:26.0000000+00:00</time></trkpt><trkpt lat="34.9497776" lon="33.573091"><ele>74.1</ele><time>2015-05-01T15:20:27.0000000+00:00</time></trkpt><trkpt lat="34.9497969" lon="33.5730364"><ele>74.0</ele><time>2015-05-01T15:20:28.0000000+00:00</time></trkpt><trkpt lat="34.9498174" lon="33.5729843"><ele>74.0</ele><time>2015-05-01T15:20:29.0000000+00:00</time></trkpt><trkpt lat="34.9498343" lon="33.5729293"><ele>74.0</ele><time>2015-05-01T15:20:30.0000000+00:00</time></trkpt><trkpt lat="34.9498624" lon="33.5728369"><ele>74.0</ele><time>2015-05-01T15:20:32.0000000+00:00</time></trkpt><trkpt lat="34.9498857" lon="33.5727621"><ele>74.0</ele><time>2015-05-01T15:20:34.0000000+00:00</time></trkpt><trkpt lat="34.9498724" lon="33.5726888"><ele>73.3</ele><time>2015-05-01T15:20:37.0000000+00:00</time></trkpt><trkpt lat="34.9498891" lon="33.5726302"><ele>72.1</ele><time>2015-05-01T15:20:43.0000000+00:00</time></trkpt><trkpt lat="34.9499334" lon="33.5725847"><ele>73.0</ele><time>2015-05-01T15:20:47.0000000+00:00</time></trkpt><trkpt lat="34.9499842" lon="33.5725477"><ele>74.0</ele><time>2015-05-01T15:20:55.0000000+00:00</time></trkpt><trkpt lat="34.9500395" lon="33.5725525"><ele>74.0</ele><time>2015-05-01T15:20:57.0000000+00:00</time></trkpt><trkpt lat="34.9500916" lon="33.5725263"><ele>74.0</ele><time>2015-05-01T15:20:59.0000000+00:00</time></trkpt><trkpt lat="34.9501412" lon="33.5724906"><ele>74.8</ele><time>2015-05-01T15:21:01.0000000+00:00</time></trkpt><trkpt lat="34.9501906" lon="33.5724847"><ele>74.2</ele><time>2015-05-01T15:21:03.0000000+00:00</time></trkpt><trkpt lat="34.9502539" lon="33.5724836"><ele>73.3</ele><time>2015-05-01T15:21:07.0000000+00:00</time></trkpt><trkpt lat="34.9503299" lon="33.5724784"><ele>72.6</ele><time>2015-05-01T15:21:09.0000000+00:00</time></trkpt><trkpt lat="34.9503742" lon="33.5724966"><ele>72.3</ele><time>2015-05-01T15:21:10.0000000+00:00</time></trkpt><trkpt lat="34.9504211" lon="33.5725218"><ele>71.7</ele><time>2015-05-01T15:21:11.0000000+00:00</time></trkpt><trkpt lat="34.9504784" lon="33.5725597"><ele>71.3</ele><time>2015-05-01T15:21:12.0000000+00:00</time></trkpt><trkpt lat="34.9505303" lon="33.5725959"><ele>70.7</ele><time>2015-05-01T15:21:13.0000000+00:00</time></trkpt><trkpt lat="34.9505912" lon="33.5726258"><ele>70.4</ele><time>2015-05-01T15:21:14.0000000+00:00</time></trkpt><trkpt lat="34.9506558" lon="33.5726582"><ele>69.7</ele><time>2015-05-01T15:21:15.0000000+00:00</time></trkpt><trkpt lat="34.9507182" lon="33.572704"><ele>68.9</ele><time>2015-05-01T15:21:16.0000000+00:00</time></trkpt><trkpt lat="34.9507805" lon="33.5727602"><ele>68.4</ele><time>2015-05-01T15:21:17.0000000+00:00</time></trkpt><trkpt lat="34.9508417" lon="33.5728236"><ele>67.7</ele><time>2015-05-01T15:21:18.0000000+00:00</time></trkpt><trkpt lat="34.9509019" lon="33.5728964"><ele>67.4</ele><time>2015-05-01T15:21:19.0000000+00:00</time></trkpt><trkpt lat="34.9509599" lon="33.5729791"><ele>66.7</ele><time>2015-05-01T15:21:20.0000000+00:00</time></trkpt><trkpt lat="34.9510163" lon="33.5730705"><ele>65.9</ele><time>2015-05-01T15:21:21.0000000+00:00</time></trkpt><trkpt lat="34.9510666" lon="33.5731669"><ele>64.9</ele><time>2015-05-01T15:21:22.0000000+00:00</time></trkpt><trkpt lat="34.9511202" lon="33.5732656"><ele>64.0</ele><time>2015-05-01T15:21:23.0000000+00:00</time></trkpt><trkpt lat="34.9511681" lon="33.5733665"><ele>63.5</ele><time>2015-05-01T15:21:24.0000000+00:00</time></trkpt><trkpt lat="34.9512192" lon="33.573466"><ele>63.3</ele><time>2015-05-01T15:21:25.0000000+00:00</time></trkpt><trkpt lat="34.9512609" lon="33.573569"><ele>63.1</ele><time>2015-05-01T15:21:26.0000000+00:00</time></trkpt><trkpt lat="34.9513018" lon="33.5736772"><ele>62.6</ele><time>2015-05-01T15:21:27.0000000+00:00</time></trkpt><trkpt lat="34.9513492" lon="33.5737822"><ele>62.8</ele><time>2015-05-01T15:21:28.0000000+00:00</time></trkpt><trkpt lat="34.9513881" lon="33.5738737"><ele>62.4</ele><time>2015-05-01T15:21:29.0000000+00:00</time></trkpt><trkpt lat="34.951428" lon="33.573973"><ele>62.7</ele><time>2015-05-01T15:21:30.0000000+00:00</time></trkpt><trkpt lat="34.9514487" lon="33.5740746"><ele>62.9</ele><time>2015-05-01T15:21:31.0000000+00:00</time></trkpt><trkpt lat="34.9514737" lon="33.5741708"><ele>63.4</ele><time>2015-05-01T15:21:32.0000000+00:00</time></trkpt><trkpt lat="34.9514953" lon="33.5742674"><ele>64.2</ele><time>2015-05-01T15:21:33.0000000+00:00</time></trkpt><trkpt lat="34.9515141" lon="33.5743539"><ele>65.1</ele><time>2015-05-01T15:21:34.0000000+00:00</time></trkpt><trkpt lat="34.951522" lon="33.5744378"><ele>65.6</ele><time>2015-05-01T15:21:35.0000000+00:00</time></trkpt><trkpt lat="34.951523" lon="33.5745223"><ele>66.3</ele><time>2015-05-01T15:21:36.0000000+00:00</time></trkpt><trkpt lat="34.9515126" lon="33.5746097"><ele>66.7</ele><time>2015-05-01T15:21:37.0000000+00:00</time></trkpt><trkpt lat="34.9515009" lon="33.5746778"><ele>66.8</ele><time>2015-05-01T15:21:38.0000000+00:00</time></trkpt><trkpt lat="34.9514881" lon="33.5747464"><ele>67.4</ele><time>2015-05-01T15:21:39.0000000+00:00</time></trkpt><trkpt lat="34.9514693" lon="33.5748051"><ele>67.2</ele><time>2015-05-01T15:21:40.0000000+00:00</time></trkpt><trkpt lat="34.9514444" lon="33.5748664"><ele>67.6</ele><time>2015-05-01T15:21:41.0000000+00:00</time></trkpt><trkpt lat="34.9514183" lon="33.5749201"><ele>67.3</ele><time>2015-05-01T15:21:42.0000000+00:00</time></trkpt><trkpt lat="34.951385" lon="33.5749789"><ele>67.7</ele><time>2015-05-01T15:21:43.0000000+00:00</time></trkpt><trkpt lat="34.9513433" lon="33.5750317"><ele>67.8</ele><time>2015-05-01T15:21:44.0000000+00:00</time></trkpt><trkpt lat="34.9513009" lon="33.5750824"><ele>67.9</ele><time>2015-05-01T15:21:45.0000000+00:00</time></trkpt><trkpt lat="34.9512546" lon="33.5751282"><ele>68.0</ele><time>2015-05-01T15:21:46.0000000+00:00</time></trkpt><trkpt lat="34.9512112" lon="33.5751755"><ele>68.0</ele><time>2015-05-01T15:21:47.0000000+00:00</time></trkpt><trkpt lat="34.9511589" lon="33.575221"><ele>67.0</ele><time>2015-05-01T15:21:48.0000000+00:00</time></trkpt><trkpt lat="34.9511087" lon="33.5752532"><ele>66.5</ele><time>2015-05-01T15:21:49.0000000+00:00</time></trkpt><trkpt lat="34.9510548" lon="33.5752732"><ele>66.3</ele><time>2015-05-01T15:21:50.0000000+00:00</time></trkpt><trkpt lat="34.9510005" lon="33.5752824"><ele>66.1</ele><time>2015-05-01T15:21:51.0000000+00:00</time></trkpt><trkpt lat="34.9509445" lon="33.5752914"><ele>66.6</ele><time>2015-05-01T15:21:52.0000000+00:00</time></trkpt><trkpt lat="34.9508883" lon="33.5752977"><ele>66.8</ele><time>2015-05-01T15:21:53.0000000+00:00</time></trkpt><trkpt lat="34.9508351" lon="33.5752946"><ele>67.4</ele><time>2015-05-01T15:21:54.0000000+00:00</time></trkpt><trkpt lat="34.9507814" lon="33.5752934"><ele>67.7</ele><time>2015-05-01T15:21:55.0000000+00:00</time></trkpt><trkpt lat="34.950732" lon="33.5752902"><ele>67.9</ele><time>2015-05-01T15:21:56.0000000+00:00</time></trkpt><trkpt lat="34.9506459" lon="33.5752831"><ele>68.7</ele><time>2015-05-01T15:21:58.0000000+00:00</time></trkpt><trkpt lat="34.9505688" lon="33.5752735"><ele>68.9</ele><time>2015-05-01T15:22:00.0000000+00:00</time></trkpt><trkpt lat="34.9504907" lon="33.5752572"><ele>69.0</ele><time>2015-05-01T15:22:02.0000000+00:00</time></trkpt><trkpt lat="34.9504148" lon="33.5752416"><ele>69.8</ele><time>2015-05-01T15:22:04.0000000+00:00</time></trkpt><trkpt lat="34.9503398" lon="33.5752337"><ele>70.5</ele><time>2015-05-01T15:22:06.0000000+00:00</time></trkpt><trkpt lat="34.9502646" lon="33.5752262"><ele>70.9</ele><time>2015-05-01T15:22:08.0000000+00:00</time></trkpt><trkpt lat="34.9501894" lon="33.5752224"><ele>72.2</ele><time>2015-05-01T15:22:10.0000000+00:00</time></trkpt><trkpt lat="34.9501175" lon="33.5752212"><ele>73.3</ele><time>2015-05-01T15:22:12.0000000+00:00</time></trkpt><trkpt lat="34.9500614" lon="33.5752215"><ele>73.8</ele><time>2015-05-01T15:22:14.0000000+00:00</time></trkpt><trkpt lat="34.9500102" lon="33.5752234"><ele>74.0</ele><time>2015-05-01T15:22:17.0000000+00:00</time></trkpt><trkpt lat="34.9499586" lon="33.5752453"><ele>74.0</ele><time>2015-05-01T15:22:21.0000000+00:00</time></trkpt><trkpt lat="34.9498885" lon="33.5752223"><ele>75.7</ele><time>2015-05-01T15:22:28.0000000+00:00</time></trkpt><trkpt lat="34.9498215" lon="33.5751736"><ele>75.2</ele><time>2015-05-01T15:22:30.0000000+00:00</time></trkpt><trkpt lat="34.9497837" lon="33.5750924"><ele>75.1</ele><time>2015-05-01T15:22:32.0000000+00:00</time></trkpt><trkpt lat="34.9497722" lon="33.5749988"><ele>75.0</ele><time>2015-05-01T15:22:34.0000000+00:00</time></trkpt><trkpt lat="34.9497587" lon="33.5749109"><ele>74.3</ele><time>2015-05-01T15:22:36.0000000+00:00</time></trkpt><trkpt lat="34.9497465" lon="33.5748265"><ele>74.1</ele><time>2015-05-01T15:22:38.0000000+00:00</time></trkpt><trkpt lat="34.9497363" lon="33.5747624"><ele>74.5</ele><time>2015-05-01T15:22:40.0000000+00:00</time></trkpt><trkpt lat="34.9496926" lon="33.5747302"><ele>75.8</ele><time>2015-05-01T15:22:54.0000000+00:00</time></trkpt><trkpt lat="34.9496245" lon="33.5746995"><ele>76.7</ele><time>2015-05-01T15:22:56.0000000+00:00</time></trkpt><trkpt lat="34.949548" lon="33.5747378"><ele>76.4</ele><time>2015-05-01T15:22:58.0000000+00:00</time></trkpt><trkpt lat="34.9494878" lon="33.5747996"><ele>76.1</ele><time>2015-05-01T15:23:00.0000000+00:00</time></trkpt><trkpt lat="34.9494287" lon="33.5748507"><ele>76.0</ele><time>2015-05-01T15:23:02.0000000+00:00</time></trkpt><trkpt lat="34.9493649" lon="33.5748906"><ele>75.5</ele><time>2015-05-01T15:23:04.0000000+00:00</time></trkpt><trkpt lat="34.9493027" lon="33.5749337"><ele>75.1</ele><time>2015-05-01T15:23:06.0000000+00:00</time></trkpt><trkpt lat="34.9492405" lon="33.5749934"><ele>74.3</ele><time>2015-05-01T15:23:08.0000000+00:00</time></trkpt><trkpt lat="34.9491892" lon="33.5750594"><ele>73.7</ele><time>2015-05-01T15:23:09.0000000+00:00</time></trkpt><trkpt lat="34.949151" lon="33.57511"><ele>73.8</ele><time>2015-05-01T15:23:10.0000000+00:00</time></trkpt><trkpt lat="34.9491082" lon="33.5751616"><ele>73.9</ele><time>2015-05-01T15:23:11.0000000+00:00</time></trkpt><trkpt lat="34.9490625" lon="33.5752113"><ele>74.0</ele><time>2015-05-01T15:23:12.0000000+00:00</time></trkpt><trkpt lat="34.9490214" lon="33.5752633"><ele>74.0</ele><time>2015-05-01T15:23:13.0000000+00:00</time></trkpt><trkpt lat="34.9489751" lon="33.5753182"><ele>73.5</ele><time>2015-05-01T15:23:14.0000000+00:00</time></trkpt><trkpt lat="34.9489261" lon="33.5753713"><ele>73.3</ele><time>2015-05-01T15:23:15.0000000+00:00</time></trkpt><trkpt lat="34.9488786" lon="33.5754279"><ele>72.6</ele><time>2015-05-01T15:23:16.0000000+00:00</time></trkpt><trkpt lat="34.9488261" lon="33.5754852"><ele>72.3</ele><time>2015-05-01T15:23:17.0000000+00:00</time></trkpt><trkpt lat="34.9487729" lon="33.5755418"><ele>72.2</ele><time>2015-05-01T15:23:18.0000000+00:00</time></trkpt><trkpt lat="34.9487207" lon="33.5756061"><ele>72.1</ele><time>2015-05-01T15:23:19.0000000+00:00</time></trkpt><trkpt lat="34.9486645" lon="33.5756735"><ele>71.6</ele><time>2015-05-01T15:23:20.0000000+00:00</time></trkpt><trkpt lat="34.9486084" lon="33.5757433"><ele>70.8</ele><time>2015-05-01T15:23:21.0000000+00:00</time></trkpt><trkpt lat="34.9485538" lon="33.5758266"><ele>70.4</ele><time>2015-05-01T15:23:22.0000000+00:00</time></trkpt><trkpt lat="34.9484996" lon="33.5759076"><ele>70.2</ele><time>2015-05-01T15:23:23.0000000+00:00</time></trkpt><trkpt lat="34.9484442" lon="33.5759821"><ele>69.6</ele><time>2015-05-01T15:23:24.0000000+00:00</time></trkpt><trkpt lat="34.9483928" lon="33.5760584"><ele>69.3</ele><time>2015-05-01T15:23:25.0000000+00:00</time></trkpt><trkpt lat="34.9483331" lon="33.5761325"><ele>68.7</ele><time>2015-05-01T15:23:26.0000000+00:00</time></trkpt><trkpt lat="34.9482737" lon="33.5762139"><ele>68.3</ele><time>2015-05-01T15:23:27.0000000+00:00</time></trkpt><trkpt lat="34.9482118" lon="33.576298"><ele>68.2</ele><time>2015-05-01T15:23:28.0000000+00:00</time></trkpt><trkpt lat="34.9481574" lon="33.5763843"><ele>67.1</ele><time>2015-05-01T15:23:29.0000000+00:00</time></trkpt><trkpt lat="34.948096" lon="33.5764651"><ele>66.6</ele><time>2015-05-01T15:23:30.0000000+00:00</time></trkpt><trkpt lat="34.9480338" lon="33.5765459"><ele>66.3</ele><time>2015-05-01T15:23:31.0000000+00:00</time></trkpt><trkpt lat="34.9479725" lon="33.5766281"><ele>66.2</ele><time>2015-05-01T15:23:32.0000000+00:00</time></trkpt><trkpt lat="34.9479075" lon="33.576708"><ele>66.1</ele><time>2015-05-01T15:23:33.0000000+00:00</time></trkpt><trkpt lat="34.9478453" lon="33.576787"><ele>65.6</ele><time>2015-05-01T15:23:34.0000000+00:00</time></trkpt><trkpt lat="34.9477879" lon="33.5768631"><ele>65.8</ele><time>2015-05-01T15:23:35.0000000+00:00</time></trkpt><trkpt lat="34.9477223" lon="33.5769371"><ele>65.9</ele><time>2015-05-01T15:23:36.0000000+00:00</time></trkpt><trkpt lat="34.9476614" lon="33.5770149"><ele>66.5</ele><time>2015-05-01T15:23:37.0000000+00:00</time></trkpt><trkpt lat="34.9475971" lon="33.5770922"><ele>66.7</ele><time>2015-05-01T15:23:38.0000000+00:00</time></trkpt><trkpt lat="34.9475308" lon="33.5771754"><ele>67.4</ele><time>2015-05-01T15:23:39.0000000+00:00</time></trkpt><trkpt lat="34.9474652" lon="33.5772542"><ele>67.7</ele><time>2015-05-01T15:23:40.0000000+00:00</time></trkpt><trkpt lat="34.9474002" lon="33.5773329"><ele>67.9</ele><time>2015-05-01T15:23:41.0000000+00:00</time></trkpt><trkpt lat="34.947335" lon="33.5774131"><ele>68.4</ele><time>2015-05-01T15:23:42.0000000+00:00</time></trkpt><trkpt lat="34.9472647" lon="33.5774854"><ele>68.7</ele><time>2015-05-01T15:23:43.0000000+00:00</time></trkpt><trkpt lat="34.9471982" lon="33.5775601"><ele>68.9</ele><time>2015-05-01T15:23:44.0000000+00:00</time></trkpt><trkpt lat="34.9471336" lon="33.5776321"><ele>68.4</ele><time>2015-05-01T15:23:45.0000000+00:00</time></trkpt><trkpt lat="34.9470655" lon="33.5777015"><ele>68.2</ele><time>2015-05-01T15:23:46.0000000+00:00</time></trkpt><trkpt lat="34.9469999" lon="33.577774"><ele>68.1</ele><time>2015-05-01T15:23:47.0000000+00:00</time></trkpt><trkpt lat="34.9469289" lon="33.577847"><ele>68.1</ele><time>2015-05-01T15:23:48.0000000+00:00</time></trkpt><trkpt lat="34.9468611" lon="33.5779191"><ele>68.0</ele><time>2015-05-01T15:23:49.0000000+00:00</time></trkpt><trkpt lat="34.946809" lon="33.5779778"><ele>68.0</ele><time>2015-05-01T15:23:50.0000000+00:00</time></trkpt><trkpt lat="34.9467747" lon="33.5780181"><ele>68.0</ele><time>2015-05-01T15:23:51.0000000+00:00</time></trkpt><trkpt lat="34.9467421" lon="33.5780576"><ele>68.9</ele><time>2015-05-01T15:23:54.0000000+00:00</time></trkpt><trkpt lat="34.9467183" lon="33.5781183"><ele>69.9</ele><time>2015-05-01T15:23:57.0000000+00:00</time></trkpt><trkpt lat="34.9466813" lon="33.578175"><ele>69.9</ele><time>2015-05-01T15:24:00.0000000+00:00</time></trkpt><trkpt lat="34.9466388" lon="33.5782377"><ele>70.0</ele><time>2015-05-01T15:24:03.0000000+00:00</time></trkpt><trkpt lat="34.946593" lon="33.578303"><ele>70.0</ele><time>2015-05-01T15:24:05.0000000+00:00</time></trkpt><trkpt lat="34.9465292" lon="33.5783731"><ele>70.5</ele><time>2015-05-01T15:24:07.0000000+00:00</time></trkpt><trkpt lat="34.9464913" lon="33.5784143"><ele>70.8</ele><time>2015-05-01T15:24:08.0000000+00:00</time></trkpt><trkpt lat="34.9464499" lon="33.5784553"><ele>70.9</ele><time>2015-05-01T15:24:09.0000000+00:00</time></trkpt><trkpt lat="34.9464063" lon="33.5784911"><ele>71.0</ele><time>2015-05-01T15:24:10.0000000+00:00</time></trkpt><trkpt lat="34.9463639" lon="33.5785354"><ele>71.0</ele><time>2015-05-01T15:24:11.0000000+00:00</time></trkpt><trkpt lat="34.9463176" lon="33.5785858"><ele>71.0</ele><time>2015-05-01T15:24:12.0000000+00:00</time></trkpt><trkpt lat="34.946273" lon="33.5786351"><ele>71.0</ele><time>2015-05-01T15:24:13.0000000+00:00</time></trkpt><trkpt lat="34.9462264" lon="33.5786768"><ele>71.0</ele><time>2015-05-01T15:24:14.0000000+00:00</time></trkpt><trkpt lat="34.9461836" lon="33.5787236"><ele>71.0</ele><time>2015-05-01T15:24:15.0000000+00:00</time></trkpt><trkpt lat="34.9461427" lon="33.5787707"><ele>70.5</ele><time>2015-05-01T15:24:16.0000000+00:00</time></trkpt><trkpt lat="34.9460977" lon="33.5788121"><ele>70.8</ele><time>2015-05-01T15:24:17.0000000+00:00</time></trkpt><trkpt lat="34.9460568" lon="33.5788536"><ele>70.9</ele><time>2015-05-01T15:24:18.0000000+00:00</time></trkpt><trkpt lat="34.9460095" lon="33.5788968"><ele>71.0</ele><time>2015-05-01T15:24:19.0000000+00:00</time></trkpt><trkpt lat="34.9459693" lon="33.5789455"><ele>71.0</ele><time>2015-05-01T15:24:20.0000000+00:00</time></trkpt><trkpt lat="34.9459236" lon="33.5789927"><ele>71.0</ele><time>2015-05-01T15:24:21.0000000+00:00</time></trkpt><trkpt lat="34.9458765" lon="33.5790402"><ele>71.0</ele><time>2015-05-01T15:24:22.0000000+00:00</time></trkpt><trkpt lat="34.9458284" lon="33.5790924"><ele>71.0</ele><time>2015-05-01T15:24:23.0000000+00:00</time></trkpt><trkpt lat="34.9457826" lon="33.579141"><ele>71.0</ele><time>2015-05-01T15:24:24.0000000+00:00</time></trkpt><trkpt lat="34.9457332" lon="33.5791959"><ele>70.5</ele><time>2015-05-01T15:24:25.0000000+00:00</time></trkpt><trkpt lat="34.9456815" lon="33.5792442"><ele>70.3</ele><time>2015-05-01T15:24:26.0000000+00:00</time></trkpt><trkpt lat="34.9456319" lon="33.5792931"><ele>70.1</ele><time>2015-05-01T15:24:27.0000000+00:00</time></trkpt><trkpt lat="34.9455822" lon="33.5793425"><ele>70.1</ele><time>2015-05-01T15:24:28.0000000+00:00</time></trkpt><trkpt lat="34.9455328" lon="33.5793951"><ele>69.6</ele><time>2015-05-01T15:24:29.0000000+00:00</time></trkpt><trkpt lat="34.9454818" lon="33.5794428"><ele>69.8</ele><time>2015-05-01T15:24:30.0000000+00:00</time></trkpt><trkpt lat="34.9454306" lon="33.5794865"><ele>69.9</ele><time>2015-05-01T15:24:31.0000000+00:00</time></trkpt><trkpt lat="34.9453835" lon="33.5795356"><ele>70.0</ele><time>2015-05-01T15:24:32.0000000+00:00</time></trkpt><trkpt lat="34.9453355" lon="33.5795864"><ele>70.0</ele><time>2015-05-01T15:24:33.0000000+00:00</time></trkpt><trkpt lat="34.9452867" lon="33.5796329"><ele>70.0</ele><time>2015-05-01T15:24:34.0000000+00:00</time></trkpt><trkpt lat="34.9452389" lon="33.5796782"><ele>70.0</ele><time>2015-05-01T15:24:35.0000000+00:00</time></trkpt><trkpt lat="34.9451938" lon="33.5797237"><ele>70.0</ele><time>2015-05-01T15:24:36.0000000+00:00</time></trkpt><trkpt lat="34.9451495" lon="33.5797712"><ele>70.0</ele><time>2015-05-01T15:24:37.0000000+00:00</time></trkpt><trkpt lat="34.9451032" lon="33.5798175"><ele>70.0</ele><time>2015-05-01T15:24:38.0000000+00:00</time></trkpt><trkpt lat="34.9450587" lon="33.5798634"><ele>69.5</ele><time>2015-05-01T15:24:39.0000000+00:00</time></trkpt><trkpt lat="34.9450164" lon="33.5799089"><ele>69.3</ele><time>2015-05-01T15:24:40.0000000+00:00</time></trkpt><trkpt lat="34.9449768" lon="33.5799576"><ele>69.1</ele><time>2015-05-01T15:24:41.0000000+00:00</time></trkpt><trkpt lat="34.9449326" lon="33.580005"><ele>69.1</ele><time>2015-05-01T15:24:42.0000000+00:00</time></trkpt><trkpt lat="34.9448867" lon="33.5800533"><ele>69.1</ele><time>2015-05-01T15:24:43.0000000+00:00</time></trkpt><trkpt lat="34.9448456" lon="33.580103"><ele>69.0</ele><time>2015-05-01T15:24:44.0000000+00:00</time></trkpt><trkpt lat="34.9448071" lon="33.5801546"><ele>69.0</ele><time>2015-05-01T15:24:45.0000000+00:00</time></trkpt><trkpt lat="34.94477" lon="33.5802035"><ele>69.0</ele><time>2015-05-01T15:24:46.0000000+00:00</time></trkpt><trkpt lat="34.944738" lon="33.5802565"><ele>68.5</ele><time>2015-05-01T15:24:47.0000000+00:00</time></trkpt><trkpt lat="34.9447024" lon="33.5802977"><ele>68.3</ele><time>2015-05-01T15:24:48.0000000+00:00</time></trkpt><trkpt lat="34.9446645" lon="33.5803387"><ele>68.1</ele><time>2015-05-01T15:24:49.0000000+00:00</time></trkpt><trkpt lat="34.9446258" lon="33.5803703"><ele>68.6</ele><time>2015-05-01T15:24:50.0000000+00:00</time></trkpt><trkpt lat="34.9445898" lon="33.5804071"><ele>68.3</ele><time>2015-05-01T15:24:51.0000000+00:00</time></trkpt><trkpt lat="34.9445545" lon="33.5804469"><ele>68.7</ele><time>2015-05-01T15:24:52.0000000+00:00</time></trkpt><trkpt lat="34.9445208" lon="33.5804945"><ele>68.8</ele><time>2015-05-01T15:24:53.0000000+00:00</time></trkpt><trkpt lat="34.944461" lon="33.5805775"><ele>69.0</ele><time>2015-05-01T15:24:55.0000000+00:00</time></trkpt><trkpt lat="34.9443946" lon="33.5806652"><ele>69.0</ele><time>2015-05-01T15:24:57.0000000+00:00</time></trkpt><trkpt lat="34.9443577" lon="33.5807091"><ele>69.0</ele><time>2015-05-01T15:24:58.0000000+00:00</time></trkpt><trkpt lat="34.9443241" lon="33.5807587"><ele>69.0</ele><time>2015-05-01T15:24:59.0000000+00:00</time></trkpt><trkpt lat="34.9442873" lon="33.5808042"><ele>69.0</ele><time>2015-05-01T15:25:00.0000000+00:00</time></trkpt><trkpt lat="34.9442515" lon="33.5808495"><ele>69.0</ele><time>2015-05-01T15:25:01.0000000+00:00</time></trkpt><trkpt lat="34.9442192" lon="33.5809009"><ele>69.0</ele><time>2015-05-01T15:25:02.0000000+00:00</time></trkpt><trkpt lat="34.9441935" lon="33.5809482"><ele>69.0</ele><time>2015-05-01T15:25:03.0000000+00:00</time></trkpt><trkpt lat="34.9441674" lon="33.5810261"><ele>69.0</ele><time>2015-05-01T15:25:05.0000000+00:00</time></trkpt><trkpt lat="34.9441603" lon="33.5810808"><ele>69.5</ele><time>2015-05-01T15:25:07.0000000+00:00</time></trkpt><trkpt lat="34.9441386" lon="33.5811395"><ele>69.1</ele><time>2015-05-01T15:25:09.0000000+00:00</time></trkpt><trkpt lat="34.9441287" lon="33.5812008"><ele>69.8</ele><time>2015-05-01T15:25:11.0000000+00:00</time></trkpt><trkpt lat="34.9440899" lon="33.5812496"><ele>70.0</ele><time>2015-05-01T15:25:13.0000000+00:00</time></trkpt><trkpt lat="34.944024" lon="33.5812442"><ele>69.5</ele><time>2015-05-01T15:25:15.0000000+00:00</time></trkpt><trkpt lat="34.94396" lon="33.5812268"><ele>69.1</ele><time>2015-05-01T15:25:17.0000000+00:00</time></trkpt><trkpt lat="34.9439107" lon="33.5812355"><ele>69.2</ele><time>2015-05-01T15:25:32.0000000+00:00</time></trkpt><trkpt lat="34.9438656" lon="33.5812292"><ele>69.0</ele><time>2015-05-01T15:25:37.0000000+00:00</time></trkpt><trkpt lat="34.9438142" lon="33.5812816"><ele>69.0</ele><time>2015-05-01T15:25:42.0000000+00:00</time></trkpt><trkpt lat="34.943769" lon="33.5813423"><ele>68.5</ele><time>2015-05-01T15:25:44.0000000+00:00</time></trkpt><trkpt lat="34.9437092" lon="33.5814164"><ele>68.1</ele><time>2015-05-01T15:25:46.0000000+00:00</time></trkpt><trkpt lat="34.9436761" lon="33.5814586"><ele>68.1</ele><time>2015-05-01T15:25:47.0000000+00:00</time></trkpt><trkpt lat="34.9436377" lon="33.5815198"><ele>68.1</ele><time>2015-05-01T15:25:48.0000000+00:00</time></trkpt><trkpt lat="34.9436057" lon="33.581565"><ele>68.0</ele><time>2015-05-01T15:25:49.0000000+00:00</time></trkpt><trkpt lat="34.9435755" lon="33.5816107"><ele>68.0</ele><time>2015-05-01T15:25:50.0000000+00:00</time></trkpt><trkpt lat="34.9435464" lon="33.5816612"><ele>68.0</ele><time>2015-05-01T15:25:51.0000000+00:00</time></trkpt><trkpt lat="34.9435129" lon="33.5817034"><ele>68.0</ele><time>2015-05-01T15:25:52.0000000+00:00</time></trkpt><trkpt lat="34.9434807" lon="33.5817456"><ele>68.0</ele><time>2015-05-01T15:25:53.0000000+00:00</time></trkpt><trkpt lat="34.94345" lon="33.5817888"><ele>68.0</ele><time>2015-05-01T15:25:54.0000000+00:00</time></trkpt><trkpt lat="34.9434156" lon="33.5818324"><ele>67.5</ele><time>2015-05-01T15:25:55.0000000+00:00</time></trkpt><trkpt lat="34.9433788" lon="33.581877"><ele>67.3</ele><time>2015-05-01T15:25:56.0000000+00:00</time></trkpt><trkpt lat="34.9433435" lon="33.5819208"><ele>67.1</ele><time>2015-05-01T15:25:57.0000000+00:00</time></trkpt><trkpt lat="34.9433106" lon="33.5819661"><ele>67.1</ele><time>2015-05-01T15:25:58.0000000+00:00</time></trkpt><trkpt lat="34.943279" lon="33.5820103"><ele>67.1</ele><time>2015-05-01T15:25:59.0000000+00:00</time></trkpt><trkpt lat="34.9432498" lon="33.5820573"><ele>66.5</ele><time>2015-05-01T15:26:00.0000000+00:00</time></trkpt><trkpt lat="34.9432176" lon="33.5821025"><ele>66.3</ele><time>2015-05-01T15:26:01.0000000+00:00</time></trkpt><trkpt lat="34.9431794" lon="33.5821439"><ele>66.1</ele><time>2015-05-01T15:26:02.0000000+00:00</time></trkpt><trkpt lat="34.9431398" lon="33.582192"><ele>66.1</ele><time>2015-05-01T15:26:03.0000000+00:00</time></trkpt><trkpt lat="34.9431011" lon="33.5822425"><ele>66.1</ele><time>2015-05-01T15:26:04.0000000+00:00</time></trkpt><trkpt lat="34.9430635" lon="33.5822905"><ele>66.0</ele><time>2015-05-01T15:26:05.0000000+00:00</time></trkpt><trkpt lat="34.9430254" lon="33.5823413"><ele>66.0</ele><time>2015-05-01T15:26:06.0000000+00:00</time></trkpt><trkpt lat="34.942993" lon="33.5823835"><ele>66.0</ele><time>2015-05-01T15:26:07.0000000+00:00</time></trkpt><trkpt lat="34.9429339" lon="33.5824511"><ele>66.5</ele><time>2015-05-01T15:26:09.0000000+00:00</time></trkpt><trkpt lat="34.942875" lon="33.5825209"><ele>66.1</ele><time>2015-05-01T15:26:11.0000000+00:00</time></trkpt><trkpt lat="34.942837" lon="33.5825654"><ele>66.1</ele><time>2015-05-01T15:26:12.0000000+00:00</time></trkpt><trkpt lat="34.9427919" lon="33.5826216"><ele>66.1</ele><time>2015-05-01T15:26:13.0000000+00:00</time></trkpt><trkpt lat="34.9427399" lon="33.5826806"><ele>66.0</ele><time>2015-05-01T15:26:14.0000000+00:00</time></trkpt><trkpt lat="34.9426902" lon="33.5827388"><ele>66.5</ele><time>2015-05-01T15:26:15.0000000+00:00</time></trkpt><trkpt lat="34.9426387" lon="33.582801"><ele>66.8</ele><time>2015-05-01T15:26:16.0000000+00:00</time></trkpt><trkpt lat="34.9425873" lon="33.5828755"><ele>66.9</ele><time>2015-05-01T15:26:17.0000000+00:00</time></trkpt><trkpt lat="34.9425399" lon="33.5829464"><ele>67.0</ele><time>2015-05-01T15:26:18.0000000+00:00</time></trkpt><trkpt lat="34.942489" lon="33.5830132"><ele>66.5</ele><time>2015-05-01T15:26:19.0000000+00:00</time></trkpt><trkpt lat="34.9424332" lon="33.5830791"><ele>66.3</ele><time>2015-05-01T15:26:20.0000000+00:00</time></trkpt><trkpt lat="34.94238" lon="33.5831626"><ele>66.1</ele><time>2015-05-01T15:26:21.0000000+00:00</time></trkpt><trkpt lat="34.9423314" lon="33.5832416"><ele>66.1</ele><time>2015-05-01T15:26:22.0000000+00:00</time></trkpt><trkpt lat="34.942276" lon="33.5833164"><ele>66.1</ele><time>2015-05-01T15:26:23.0000000+00:00</time></trkpt><trkpt lat="34.9422161" lon="33.5833984"><ele>66.0</ele><time>2015-05-01T15:26:24.0000000+00:00</time></trkpt><trkpt lat="34.9421595" lon="33.5834698"><ele>66.0</ele><time>2015-05-01T15:26:25.0000000+00:00</time></trkpt><trkpt lat="34.9420998" lon="33.583542"><ele>66.0</ele><time>2015-05-01T15:26:26.0000000+00:00</time></trkpt><trkpt lat="34.9420402" lon="33.5836112"><ele>66.0</ele><time>2015-05-01T15:26:27.0000000+00:00</time></trkpt><trkpt lat="34.9419811" lon="33.5836881"><ele>66.0</ele><time>2015-05-01T15:26:28.0000000+00:00</time></trkpt><trkpt lat="34.9419273" lon="33.5837606"><ele>66.0</ele><time>2015-05-01T15:26:29.0000000+00:00</time></trkpt><trkpt lat="34.9418708" lon="33.5838362"><ele>66.0</ele><time>2015-05-01T15:26:30.0000000+00:00</time></trkpt><trkpt lat="34.9418107" lon="33.5839142"><ele>65.5</ele><time>2015-05-01T15:26:31.0000000+00:00</time></trkpt><trkpt lat="34.9417545" lon="33.5839919"><ele>65.3</ele><time>2015-05-01T15:26:32.0000000+00:00</time></trkpt><trkpt lat="34.9416962" lon="33.5840654"><ele>65.1</ele><time>2015-05-01T15:26:33.0000000+00:00</time></trkpt><trkpt lat="34.9416391" lon="33.5841442"><ele>64.6</ele><time>2015-05-01T15:26:34.0000000+00:00</time></trkpt><trkpt lat="34.9415807" lon="33.5842205"><ele>64.3</ele><time>2015-05-01T15:26:35.0000000+00:00</time></trkpt><trkpt lat="34.9415221" lon="33.5842964"><ele>64.2</ele><time>2015-05-01T15:26:36.0000000+00:00</time></trkpt><trkpt lat="34.9414642" lon="33.5843724"><ele>64.1</ele><time>2015-05-01T15:26:37.0000000+00:00</time></trkpt><trkpt lat="34.9414103" lon="33.584446"><ele>64.1</ele><time>2015-05-01T15:26:38.0000000+00:00</time></trkpt><trkpt lat="34.9413536" lon="33.5845176"><ele>64.0</ele><time>2015-05-01T15:26:39.0000000+00:00</time></trkpt><trkpt lat="34.9412996" lon="33.5845912"><ele>63.5</ele><time>2015-05-01T15:26:40.0000000+00:00</time></trkpt><trkpt lat="34.9412419" lon="33.5846627"><ele>63.3</ele><time>2015-05-01T15:26:41.0000000+00:00</time></trkpt><trkpt lat="34.9411834" lon="33.584736"><ele>63.1</ele><time>2015-05-01T15:26:42.0000000+00:00</time></trkpt><trkpt lat="34.9411279" lon="33.5848075"><ele>63.1</ele><time>2015-05-01T15:26:43.0000000+00:00</time></trkpt><trkpt lat="34.9410708" lon="33.5848849"><ele>63.1</ele><time>2015-05-01T15:26:44.0000000+00:00</time></trkpt><trkpt lat="34.9410164" lon="33.5849655"><ele>62.5</ele><time>2015-05-01T15:26:45.0000000+00:00</time></trkpt><trkpt lat="34.9409592" lon="33.5850434"><ele>62.3</ele><time>2015-05-01T15:26:46.0000000+00:00</time></trkpt><trkpt lat="34.9408973" lon="33.5851217"><ele>62.1</ele><time>2015-05-01T15:26:47.0000000+00:00</time></trkpt><trkpt lat="34.940836" lon="33.5851957"><ele>62.1</ele><time>2015-05-01T15:26:48.0000000+00:00</time></trkpt><trkpt lat="34.9407768" lon="33.5852751"><ele>62.1</ele><time>2015-05-01T15:26:49.0000000+00:00</time></trkpt><trkpt lat="34.9407216" lon="33.5853555"><ele>62.0</ele><time>2015-05-01T15:26:50.0000000+00:00</time></trkpt><trkpt lat="34.9406618" lon="33.5854375"><ele>62.0</ele><time>2015-05-01T15:26:51.0000000+00:00</time></trkpt><trkpt lat="34.9406022" lon="33.5855144"><ele>62.0</ele><time>2015-05-01T15:26:52.0000000+00:00</time></trkpt><trkpt lat="34.9405403" lon="33.5855925"><ele>62.0</ele><time>2015-05-01T15:26:53.0000000+00:00</time></trkpt><trkpt lat="34.9404828" lon="33.5856728"><ele>62.0</ele><time>2015-05-01T15:26:54.0000000+00:00</time></trkpt><trkpt lat="34.9404257" lon="33.5857516"><ele>62.0</ele><time>2015-05-01T15:26:55.0000000+00:00</time></trkpt><trkpt lat="34.9403673" lon="33.5858273"><ele>61.5</ele><time>2015-05-01T15:26:56.0000000+00:00</time></trkpt><trkpt lat="34.9403066" lon="33.585904"><ele>61.3</ele><time>2015-05-01T15:26:57.0000000+00:00</time></trkpt><trkpt lat="34.9402482" lon="33.5859838"><ele>61.1</ele><time>2015-05-01T15:26:58.0000000+00:00</time></trkpt><trkpt lat="34.9401889" lon="33.5860635"><ele>61.1</ele><time>2015-05-01T15:26:59.0000000+00:00</time></trkpt><trkpt lat="34.9401294" lon="33.5861416"><ele>60.6</ele><time>2015-05-01T15:27:00.0000000+00:00</time></trkpt><trkpt lat="34.9400709" lon="33.5862134"><ele>60.3</ele><time>2015-05-01T15:27:01.0000000+00:00</time></trkpt><trkpt lat="34.9400131" lon="33.5862888"><ele>60.2</ele><time>2015-05-01T15:27:02.0000000+00:00</time></trkpt><trkpt lat="34.9399524" lon="33.5863628"><ele>60.1</ele><time>2015-05-01T15:27:03.0000000+00:00</time></trkpt><trkpt lat="34.939896" lon="33.5864379"><ele>60.1</ele><time>2015-05-01T15:27:04.0000000+00:00</time></trkpt><trkpt lat="34.9398346" lon="33.5865144"><ele>60.0</ele><time>2015-05-01T15:27:05.0000000+00:00</time></trkpt><trkpt lat="34.9397768" lon="33.5865901"><ele>60.0</ele><time>2015-05-01T15:27:06.0000000+00:00</time></trkpt><trkpt lat="34.9397297" lon="33.5866657"><ele>60.0</ele><time>2015-05-01T15:27:07.0000000+00:00</time></trkpt><trkpt lat="34.9396834" lon="33.5867431"><ele>59.5</ele><time>2015-05-01T15:27:08.0000000+00:00</time></trkpt><trkpt lat="34.939633" lon="33.5868144"><ele>59.3</ele><time>2015-05-01T15:27:09.0000000+00:00</time></trkpt><trkpt lat="34.9395803" lon="33.586883"><ele>59.1</ele><time>2015-05-01T15:27:10.0000000+00:00</time></trkpt><trkpt lat="34.9395359" lon="33.5869542"><ele>59.1</ele><time>2015-05-01T15:27:11.0000000+00:00</time></trkpt><trkpt lat="34.9394842" lon="33.5870202"><ele>58.6</ele><time>2015-05-01T15:27:12.0000000+00:00</time></trkpt><trkpt lat="34.9394333" lon="33.5870855"><ele>58.3</ele><time>2015-05-01T15:27:13.0000000+00:00</time></trkpt><trkpt lat="34.9393825" lon="33.5871476"><ele>58.2</ele><time>2015-05-01T15:27:14.0000000+00:00</time></trkpt><trkpt lat="34.9393338" lon="33.5872133"><ele>58.1</ele><time>2015-05-01T15:27:15.0000000+00:00</time></trkpt><trkpt lat="34.9392879" lon="33.5872828"><ele>58.1</ele><time>2015-05-01T15:27:16.0000000+00:00</time></trkpt><trkpt lat="34.9392356" lon="33.587343"><ele>58.0</ele><time>2015-05-01T15:27:17.0000000+00:00</time></trkpt><trkpt lat="34.9391855" lon="33.5874062"><ele>58.0</ele><time>2015-05-01T15:27:18.0000000+00:00</time></trkpt><trkpt lat="34.9391319" lon="33.5874684"><ele>58.0</ele><time>2015-05-01T15:27:19.0000000+00:00</time></trkpt><trkpt lat="34.9390872" lon="33.5875354"><ele>58.0</ele><time>2015-05-01T15:27:20.0000000+00:00</time></trkpt><trkpt lat="34.939034" lon="33.587597"><ele>58.0</ele><time>2015-05-01T15:27:21.0000000+00:00</time></trkpt><trkpt lat="34.9389862" lon="33.5876574"><ele>58.0</ele><time>2015-05-01T15:27:22.0000000+00:00</time></trkpt><trkpt lat="34.9389282" lon="33.5877154"><ele>58.0</ele><time>2015-05-01T15:27:23.0000000+00:00</time></trkpt><trkpt lat="34.938879" lon="33.5877833"><ele>58.0</ele><time>2015-05-01T15:27:24.0000000+00:00</time></trkpt><trkpt lat="34.9388261" lon="33.5878523"><ele>58.0</ele><time>2015-05-01T15:27:25.0000000+00:00</time></trkpt><trkpt lat="34.9387689" lon="33.5879267"><ele>58.0</ele><time>2015-05-01T15:27:26.0000000+00:00</time></trkpt><trkpt lat="34.9387197" lon="33.5879899"><ele>57.5</ele><time>2015-05-01T15:27:27.0000000+00:00</time></trkpt><trkpt lat="34.9386579" lon="33.5880594"><ele>56.8</ele><time>2015-05-01T15:27:28.0000000+00:00</time></trkpt><trkpt lat="34.9386108" lon="33.5881213"><ele>56.4</ele><time>2015-05-01T15:27:29.0000000+00:00</time></trkpt><trkpt lat="34.9385626" lon="33.5881867"><ele>55.7</ele><time>2015-05-01T15:27:30.0000000+00:00</time></trkpt><trkpt lat="34.9385121" lon="33.5882558"><ele>55.9</ele><time>2015-05-01T15:27:31.0000000+00:00</time></trkpt><trkpt lat="34.9384565" lon="33.5883228"><ele>55.9</ele><time>2015-05-01T15:27:32.0000000+00:00</time></trkpt><trkpt lat="34.9384073" lon="33.5883933"><ele>56.0</ele><time>2015-05-01T15:27:33.0000000+00:00</time></trkpt><trkpt lat="34.938343" lon="33.5884557"><ele>56.5</ele><time>2015-05-01T15:27:34.0000000+00:00</time></trkpt><trkpt lat="34.9383014" lon="33.5885263"><ele>56.8</ele><time>2015-05-01T15:27:35.0000000+00:00</time></trkpt><trkpt lat="34.9382556" lon="33.5885912"><ele>56.9</ele><time>2015-05-01T15:27:36.0000000+00:00</time></trkpt><trkpt lat="34.9382093" lon="33.5886578"><ele>57.0</ele><time>2015-05-01T15:27:37.0000000+00:00</time></trkpt><trkpt lat="34.9381642" lon="33.5887192"><ele>57.0</ele><time>2015-05-01T15:27:38.0000000+00:00</time></trkpt><trkpt lat="34.9381186" lon="33.5887856"><ele>56.5</ele><time>2015-05-01T15:27:39.0000000+00:00</time></trkpt><trkpt lat="34.9380718" lon="33.58885"><ele>56.3</ele><time>2015-05-01T15:27:40.0000000+00:00</time></trkpt><trkpt lat="34.9380275" lon="33.5889192"><ele>56.1</ele><time>2015-05-01T15:27:41.0000000+00:00</time></trkpt><trkpt lat="34.9379793" lon="33.5889824"><ele>55.6</ele><time>2015-05-01T15:27:42.0000000+00:00</time></trkpt><trkpt lat="34.9379315" lon="33.5890439"><ele>55.3</ele><time>2015-05-01T15:27:43.0000000+00:00</time></trkpt><trkpt lat="34.9378872" lon="33.5891048"><ele>55.7</ele><time>2015-05-01T15:27:44.0000000+00:00</time></trkpt><trkpt lat="34.9378374" lon="33.5891633"><ele>55.3</ele><time>2015-05-01T15:27:45.0000000+00:00</time></trkpt><trkpt lat="34.9377915" lon="33.5892227"><ele>55.2</ele><time>2015-05-01T15:27:46.0000000+00:00</time></trkpt><trkpt lat="34.9377559" lon="33.58929"><ele>55.1</ele><time>2015-05-01T15:27:47.0000000+00:00</time></trkpt><trkpt lat="34.9377098" lon="33.5893435"><ele>55.1</ele><time>2015-05-01T15:27:48.0000000+00:00</time></trkpt><trkpt lat="34.937673" lon="33.5894046"><ele>55.0</ele><time>2015-05-01T15:27:49.0000000+00:00</time></trkpt><trkpt lat="34.9376606" lon="33.589473"><ele>54.5</ele><time>2015-05-01T15:27:50.0000000+00:00</time></trkpt><trkpt lat="34.9376584" lon="33.5895471"><ele>54.3</ele><time>2015-05-01T15:27:51.0000000+00:00</time></trkpt><trkpt lat="34.9376557" lon="33.5896336"><ele>54.1</ele><time>2015-05-01T15:27:52.0000000+00:00</time></trkpt><trkpt lat="34.9376494" lon="33.5897087"><ele>54.1</ele><time>2015-05-01T15:27:53.0000000+00:00</time></trkpt><trkpt lat="34.9376328" lon="33.5897863"><ele>54.1</ele><time>2015-05-01T15:27:54.0000000+00:00</time></trkpt><trkpt lat="34.9376078" lon="33.58986"><ele>54.0</ele><time>2015-05-01T15:27:55.0000000+00:00</time></trkpt><trkpt lat="34.93757" lon="33.5899235"><ele>54.0</ele><time>2015-05-01T15:27:56.0000000+00:00</time></trkpt><trkpt lat="34.9375241" lon="33.5899834"><ele>53.5</ele><time>2015-05-01T15:27:57.0000000+00:00</time></trkpt><trkpt lat="34.9374698" lon="33.5900322"><ele>53.3</ele><time>2015-05-01T15:27:58.0000000+00:00</time></trkpt><trkpt lat="34.9373984" lon="33.5900744"><ele>52.6</ele><time>2015-05-01T15:27:59.0000000+00:00</time></trkpt><trkpt lat="34.937338" lon="33.5901098"><ele>52.3</ele><time>2015-05-01T15:28:00.0000000+00:00</time></trkpt><trkpt lat="34.9372756" lon="33.590137"><ele>51.7</ele><time>2015-05-01T15:28:01.0000000+00:00</time></trkpt><trkpt lat="34.9372032" lon="33.5901715"><ele>51.3</ele><time>2015-05-01T15:28:02.0000000+00:00</time></trkpt><trkpt lat="34.9371319" lon="33.5902038"><ele>51.7</ele><time>2015-05-01T15:28:03.0000000+00:00</time></trkpt><trkpt lat="34.9370656" lon="33.5902443"><ele>51.9</ele><time>2015-05-01T15:28:04.0000000+00:00</time></trkpt><trkpt lat="34.9370001" lon="33.5902984"><ele>51.9</ele><time>2015-05-01T15:28:05.0000000+00:00</time></trkpt><trkpt lat="34.9369426" lon="33.5903633"><ele>52.0</ele><time>2015-05-01T15:28:06.0000000+00:00</time></trkpt><trkpt lat="34.93689" lon="33.5904256"><ele>51.5</ele><time>2015-05-01T15:28:07.0000000+00:00</time></trkpt><trkpt lat="34.9368409" lon="33.5904886"><ele>51.3</ele><time>2015-05-01T15:28:08.0000000+00:00</time></trkpt><trkpt lat="34.9367905" lon="33.5905559"><ele>51.1</ele><time>2015-05-01T15:28:09.0000000+00:00</time></trkpt><trkpt lat="34.9367411" lon="33.5906223"><ele>51.1</ele><time>2015-05-01T15:28:10.0000000+00:00</time></trkpt><trkpt lat="34.9366924" lon="33.5906932"><ele>51.1</ele><time>2015-05-01T15:28:11.0000000+00:00</time></trkpt><trkpt lat="34.9366387" lon="33.5907577"><ele>51.0</ele><time>2015-05-01T15:28:12.0000000+00:00</time></trkpt><trkpt lat="34.9365842" lon="33.5908289"><ele>51.5</ele><time>2015-05-01T15:28:13.0000000+00:00</time></trkpt><trkpt lat="34.9365314" lon="33.5908977"><ele>51.8</ele><time>2015-05-01T15:28:14.0000000+00:00</time></trkpt><trkpt lat="34.9364816" lon="33.5909677"><ele>51.4</ele><time>2015-05-01T15:28:15.0000000+00:00</time></trkpt><trkpt lat="34.9364299" lon="33.5910375"><ele>51.2</ele><time>2015-05-01T15:28:16.0000000+00:00</time></trkpt><trkpt lat="34.9363788" lon="33.5911113"><ele>51.1</ele><time>2015-05-01T15:28:17.0000000+00:00</time></trkpt><trkpt lat="34.9363214" lon="33.5911884"><ele>51.1</ele><time>2015-05-01T15:28:18.0000000+00:00</time></trkpt><trkpt lat="34.9362667" lon="33.5912575"><ele>51.5</ele><time>2015-05-01T15:28:19.0000000+00:00</time></trkpt><trkpt lat="34.9362161" lon="33.5913328"><ele>51.8</ele><time>2015-05-01T15:28:20.0000000+00:00</time></trkpt><trkpt lat="34.9361594" lon="33.5913994"><ele>51.9</ele><time>2015-05-01T15:28:21.0000000+00:00</time></trkpt><trkpt lat="34.9361024" lon="33.5914707"><ele>51.5</ele><time>2015-05-01T15:28:22.0000000+00:00</time></trkpt><trkpt lat="34.9360487" lon="33.5915386"><ele>51.2</ele><time>2015-05-01T15:28:23.0000000+00:00</time></trkpt><trkpt lat="34.9359951" lon="33.5916067"><ele>51.1</ele><time>2015-05-01T15:28:24.0000000+00:00</time></trkpt><trkpt lat="34.9359432" lon="33.591671"><ele>51.1</ele><time>2015-05-01T15:28:25.0000000+00:00</time></trkpt><trkpt lat="34.9358891" lon="33.5917388"><ele>51.0</ele><time>2015-05-01T15:28:26.0000000+00:00</time></trkpt><trkpt lat="34.9358392" lon="33.5918071"><ele>51.0</ele><time>2015-05-01T15:28:27.0000000+00:00</time></trkpt><trkpt lat="34.93579" lon="33.5918719"><ele>50.5</ele><time>2015-05-01T15:28:28.0000000+00:00</time></trkpt><trkpt lat="34.9357406" lon="33.5919345"><ele>50.3</ele><time>2015-05-01T15:28:29.0000000+00:00</time></trkpt><trkpt lat="34.9356944" lon="33.592"><ele>50.1</ele><time>2015-05-01T15:28:30.0000000+00:00</time></trkpt><trkpt lat="34.9356493" lon="33.5920655"><ele>50.1</ele><time>2015-05-01T15:28:31.0000000+00:00</time></trkpt><trkpt lat="34.935605" lon="33.5921315"><ele>49.6</ele><time>2015-05-01T15:28:32.0000000+00:00</time></trkpt><trkpt lat="34.9355605" lon="33.592198"><ele>49.3</ele><time>2015-05-01T15:28:33.0000000+00:00</time></trkpt><trkpt lat="34.9355156" lon="33.5922664"><ele>49.2</ele><time>2015-05-01T15:28:34.0000000+00:00</time></trkpt><trkpt lat="34.9354725" lon="33.5923248"><ele>49.1</ele><time>2015-05-01T15:28:35.0000000+00:00</time></trkpt><trkpt lat="34.935432" lon="33.5923881"><ele>49.1</ele><time>2015-05-01T15:28:36.0000000+00:00</time></trkpt><trkpt lat="34.9354042" lon="33.5924503"><ele>49.0</ele><time>2015-05-01T15:28:37.0000000+00:00</time></trkpt><trkpt lat="34.935377" lon="33.5925095"><ele>49.5</ele><time>2015-05-01T15:28:38.0000000+00:00</time></trkpt><trkpt lat="34.93534" lon="33.5925651"><ele>49.8</ele><time>2015-05-01T15:28:39.0000000+00:00</time></trkpt><trkpt lat="34.9352987" lon="33.5926189"><ele>49.4</ele><time>2015-05-01T15:28:40.0000000+00:00</time></trkpt><trkpt lat="34.9352544" lon="33.5926679"><ele>49.7</ele><time>2015-05-01T15:28:41.0000000+00:00</time></trkpt><trkpt lat="34.9352162" lon="33.5927159"><ele>49.4</ele><time>2015-05-01T15:28:42.0000000+00:00</time></trkpt><trkpt lat="34.9351707" lon="33.5927605"><ele>49.2</ele><time>2015-05-01T15:28:43.0000000+00:00</time></trkpt><trkpt lat="34.9351226" lon="33.592811"><ele>48.6</ele><time>2015-05-01T15:28:44.0000000+00:00</time></trkpt><trkpt lat="34.9350746" lon="33.5928608"><ele>48.3</ele><time>2015-05-01T15:28:45.0000000+00:00</time></trkpt><trkpt lat="34.9350202" lon="33.5929222"><ele>48.2</ele><time>2015-05-01T15:28:46.0000000+00:00</time></trkpt><trkpt lat="34.9349669" lon="33.5929758"><ele>48.1</ele><time>2015-05-01T15:28:47.0000000+00:00</time></trkpt><trkpt lat="34.9349176" lon="33.5930291"><ele>48.1</ele><time>2015-05-01T15:28:48.0000000+00:00</time></trkpt><trkpt lat="34.9348642" lon="33.5930892"><ele>48.0</ele><time>2015-05-01T15:28:49.0000000+00:00</time></trkpt><trkpt lat="34.9348142" lon="33.5931535"><ele>48.5</ele><time>2015-05-01T15:28:50.0000000+00:00</time></trkpt><trkpt lat="34.9347682" lon="33.5932099"><ele>48.3</ele><time>2015-05-01T15:28:51.0000000+00:00</time></trkpt><trkpt lat="34.9347226" lon="33.5932803"><ele>48.1</ele><time>2015-05-01T15:28:52.0000000+00:00</time></trkpt><trkpt lat="34.9346666" lon="33.5933462"><ele>48.6</ele><time>2015-05-01T15:28:53.0000000+00:00</time></trkpt><trkpt lat="34.9346173" lon="33.5934179"><ele>48.8</ele><time>2015-05-01T15:28:54.0000000+00:00</time></trkpt><trkpt lat="34.9345687" lon="33.593487"><ele>48.9</ele><time>2015-05-01T15:28:55.0000000+00:00</time></trkpt><trkpt lat="34.934516" lon="33.593557"><ele>49.0</ele><time>2015-05-01T15:28:56.0000000+00:00</time></trkpt><trkpt lat="34.9344507" lon="33.5936324"><ele>49.5</ele><time>2015-05-01T15:28:57.0000000+00:00</time></trkpt><trkpt lat="34.9344042" lon="33.5937059"><ele>49.8</ele><time>2015-05-01T15:28:58.0000000+00:00</time></trkpt><trkpt lat="34.9343514" lon="33.5937785"><ele>49.9</ele><time>2015-05-01T15:28:59.0000000+00:00</time></trkpt><trkpt lat="34.9342965" lon="33.5938534"><ele>50.0</ele><time>2015-05-01T15:29:00.0000000+00:00</time></trkpt><trkpt lat="34.9342464" lon="33.5939183"><ele>49.5</ele><time>2015-05-01T15:29:01.0000000+00:00</time></trkpt><trkpt lat="34.9341931" lon="33.5939944"><ele>49.3</ele><time>2015-05-01T15:29:02.0000000+00:00</time></trkpt><trkpt lat="34.9341422" lon="33.5940614"><ele>49.1</ele><time>2015-05-01T15:29:03.0000000+00:00</time></trkpt><trkpt lat="34.9340916" lon="33.5941461"><ele>49.1</ele><time>2015-05-01T15:29:04.0000000+00:00</time></trkpt><trkpt lat="34.9340344" lon="33.5942189"><ele>49.6</ele><time>2015-05-01T15:29:05.0000000+00:00</time></trkpt><trkpt lat="34.9339874" lon="33.5942974"><ele>49.3</ele><time>2015-05-01T15:29:06.0000000+00:00</time></trkpt><trkpt lat="34.933934" lon="33.5943626"><ele>49.7</ele><time>2015-05-01T15:29:07.0000000+00:00</time></trkpt><trkpt lat="34.9338889" lon="33.5944419"><ele>50.3</ele><time>2015-05-01T15:29:08.0000000+00:00</time></trkpt><trkpt lat="34.9338356" lon="33.5945052"><ele>50.7</ele><time>2015-05-01T15:29:09.0000000+00:00</time></trkpt><trkpt lat="34.9337875" lon="33.5945636"><ele>50.9</ele><time>2015-05-01T15:29:10.0000000+00:00</time></trkpt><trkpt lat="34.9337404" lon="33.5946243"><ele>50.9</ele><time>2015-05-01T15:29:11.0000000+00:00</time></trkpt><trkpt lat="34.933687" lon="33.5946891"><ele>50.5</ele><time>2015-05-01T15:29:12.0000000+00:00</time></trkpt><trkpt lat="34.9336416" lon="33.5947564"><ele>50.2</ele><time>2015-05-01T15:29:13.0000000+00:00</time></trkpt><trkpt lat="34.9336039" lon="33.5948255"><ele>50.1</ele><time>2015-05-01T15:29:14.0000000+00:00</time></trkpt><trkpt lat="34.9335498" lon="33.5948945"><ele>50.1</ele><time>2015-05-01T15:29:15.0000000+00:00</time></trkpt><trkpt lat="34.9334922" lon="33.5949663"><ele>50.0</ele><time>2015-05-01T15:29:16.0000000+00:00</time></trkpt><trkpt lat="34.933447" lon="33.5950378"><ele>50.0</ele><time>2015-05-01T15:29:17.0000000+00:00</time></trkpt><trkpt lat="34.9333955" lon="33.5951079"><ele>50.0</ele><time>2015-05-01T15:29:18.0000000+00:00</time></trkpt><trkpt lat="34.9333532" lon="33.595176"><ele>49.5</ele><time>2015-05-01T15:29:19.0000000+00:00</time></trkpt><trkpt lat="34.9332934" lon="33.595251"><ele>49.3</ele><time>2015-05-01T15:29:20.0000000+00:00</time></trkpt><trkpt lat="34.9332384" lon="33.5953199"><ele>49.6</ele><time>2015-05-01T15:29:21.0000000+00:00</time></trkpt><trkpt lat="34.9331885" lon="33.5953822"><ele>49.8</ele><time>2015-05-01T15:29:22.0000000+00:00</time></trkpt><trkpt lat="34.9331434" lon="33.5954413"><ele>49.9</ele><time>2015-05-01T15:29:23.0000000+00:00</time></trkpt><trkpt lat="34.9331017" lon="33.5955062"><ele>50.0</ele><time>2015-05-01T15:29:24.0000000+00:00</time></trkpt><trkpt lat="34.9330646" lon="33.5955656"><ele>49.5</ele><time>2015-05-01T15:29:25.0000000+00:00</time></trkpt><trkpt lat="34.9330403" lon="33.5956202"><ele>48.8</ele><time>2015-05-01T15:29:26.0000000+00:00</time></trkpt><trkpt lat="34.9330068" lon="33.5956735"><ele>48.4</ele><time>2015-05-01T15:29:27.0000000+00:00</time></trkpt><trkpt lat="34.9329663" lon="33.5957419"><ele>47.4</ele><time>2015-05-01T15:29:29.0000000+00:00</time></trkpt><trkpt lat="34.9329348" lon="33.5957905"><ele>46.9</ele><time>2015-05-01T15:29:33.0000000+00:00</time></trkpt><trkpt lat="34.9329094" lon="33.5958409"><ele>46.7</ele><time>2015-05-01T15:29:41.0000000+00:00</time></trkpt><trkpt lat="34.9328608" lon="33.5959177"><ele>45.2</ele><time>2015-05-01T15:29:46.0000000+00:00</time></trkpt><trkpt lat="34.9327987" lon="33.5960111"><ele>45.1</ele><time>2015-05-01T15:29:48.0000000+00:00</time></trkpt><trkpt lat="34.9327219" lon="33.5961122"><ele>44.3</ele><time>2015-05-01T15:29:50.0000000+00:00</time></trkpt><trkpt lat="34.9326842" lon="33.5961666"><ele>44.2</ele><time>2015-05-01T15:29:51.0000000+00:00</time></trkpt><trkpt lat="34.932645" lon="33.5962238"><ele>44.1</ele><time>2015-05-01T15:29:52.0000000+00:00</time></trkpt><trkpt lat="34.9325959" lon="33.5962887"><ele>44.1</ele><time>2015-05-01T15:29:53.0000000+00:00</time></trkpt><trkpt lat="34.9325559" lon="33.5963453"><ele>44.0</ele><time>2015-05-01T15:29:54.0000000+00:00</time></trkpt><trkpt lat="34.9325086" lon="33.5964055"><ele>43.5</ele><time>2015-05-01T15:29:55.0000000+00:00</time></trkpt><trkpt lat="34.9324645" lon="33.5964662"><ele>43.3</ele><time>2015-05-01T15:29:56.0000000+00:00</time></trkpt><trkpt lat="34.9324234" lon="33.5965295"><ele>43.1</ele><time>2015-05-01T15:29:57.0000000+00:00</time></trkpt><trkpt lat="34.9323812" lon="33.5965895"><ele>43.1</ele><time>2015-05-01T15:29:58.0000000+00:00</time></trkpt><trkpt lat="34.9323389" lon="33.59665"><ele>43.1</ele><time>2015-05-01T15:29:59.0000000+00:00</time></trkpt><trkpt lat="34.9322868" lon="33.5967047"><ele>43.5</ele><time>2015-05-01T15:30:00.0000000+00:00</time></trkpt><trkpt lat="34.9322484" lon="33.5967653"><ele>43.3</ele><time>2015-05-01T15:30:01.0000000+00:00</time></trkpt><trkpt lat="34.9322031" lon="33.5968204"><ele>43.6</ele><time>2015-05-01T15:30:02.0000000+00:00</time></trkpt><trkpt lat="34.9321592" lon="33.5968836"><ele>43.3</ele><time>2015-05-01T15:30:03.0000000+00:00</time></trkpt><trkpt lat="34.9321159" lon="33.5969445"><ele>43.2</ele><time>2015-05-01T15:30:04.0000000+00:00</time></trkpt><trkpt lat="34.9320685" lon="33.5970109"><ele>43.1</ele><time>2015-05-01T15:30:05.0000000+00:00</time></trkpt><trkpt lat="34.9320248" lon="33.5970743"><ele>43.1</ele><time>2015-05-01T15:30:06.0000000+00:00</time></trkpt><trkpt lat="34.9319812" lon="33.5971365"><ele>43.5</ele><time>2015-05-01T15:30:07.0000000+00:00</time></trkpt><trkpt lat="34.9319289" lon="33.5972107"><ele>44.3</ele><time>2015-05-01T15:30:08.0000000+00:00</time></trkpt><trkpt lat="34.9318829" lon="33.5972683"><ele>44.2</ele><time>2015-05-01T15:30:09.0000000+00:00</time></trkpt><trkpt lat="34.9318304" lon="33.5973291"><ele>44.1</ele><time>2015-05-01T15:30:10.0000000+00:00</time></trkpt><trkpt lat="34.9317974" lon="33.5973966"><ele>44.1</ele><time>2015-05-01T15:30:11.0000000+00:00</time></trkpt><trkpt lat="34.9317563" lon="33.5974647"><ele>44.0</ele><time>2015-05-01T15:30:12.0000000+00:00</time></trkpt><trkpt lat="34.9317099" lon="33.5975305"><ele>44.5</ele><time>2015-05-01T15:30:13.0000000+00:00</time></trkpt><trkpt lat="34.9316652" lon="33.5976026"><ele>44.8</ele><time>2015-05-01T15:30:14.0000000+00:00</time></trkpt><trkpt lat="34.9316223" lon="33.5976667"><ele>44.9</ele><time>2015-05-01T15:30:15.0000000+00:00</time></trkpt><trkpt lat="34.9315794" lon="33.597743"><ele>45.0</ele><time>2015-05-01T15:30:16.0000000+00:00</time></trkpt><trkpt lat="34.9315413" lon="33.5978188"><ele>44.5</ele><time>2015-05-01T15:30:17.0000000+00:00</time></trkpt><trkpt lat="34.9315043" lon="33.5978904"><ele>44.3</ele><time>2015-05-01T15:30:18.0000000+00:00</time></trkpt><trkpt lat="34.9314696" lon="33.5979663"><ele>44.1</ele><time>2015-05-01T15:30:19.0000000+00:00</time></trkpt><trkpt lat="34.9314272" lon="33.5980529"><ele>44.1</ele><time>2015-05-01T15:30:20.0000000+00:00</time></trkpt><trkpt lat="34.9313882" lon="33.5981323"><ele>44.1</ele><time>2015-05-01T15:30:21.0000000+00:00</time></trkpt><trkpt lat="34.9313528" lon="33.5982274"><ele>44.0</ele><time>2015-05-01T15:30:22.0000000+00:00</time></trkpt><trkpt lat="34.9313172" lon="33.5983112"><ele>44.0</ele><time>2015-05-01T15:30:23.0000000+00:00</time></trkpt><trkpt lat="34.9312823" lon="33.598406"><ele>43.5</ele><time>2015-05-01T15:30:24.0000000+00:00</time></trkpt><trkpt lat="34.931245" lon="33.598488"><ele>43.3</ele><time>2015-05-01T15:30:25.0000000+00:00</time></trkpt><trkpt lat="34.9312049" lon="33.5985707"><ele>43.1</ele><time>2015-05-01T15:30:26.0000000+00:00</time></trkpt><trkpt lat="34.9311709" lon="33.5986436"><ele>43.1</ele><time>2015-05-01T15:30:27.0000000+00:00</time></trkpt><trkpt lat="34.9311239" lon="33.5987243"><ele>43.1</ele><time>2015-05-01T15:30:28.0000000+00:00</time></trkpt><trkpt lat="34.9310808" lon="33.5988031"><ele>43.5</ele><time>2015-05-01T15:30:29.0000000+00:00</time></trkpt><trkpt lat="34.9310402" lon="33.5988774"><ele>43.3</ele><time>2015-05-01T15:30:30.0000000+00:00</time></trkpt><trkpt lat="34.9310066" lon="33.5989379"><ele>43.6</ele><time>2015-05-01T15:30:31.0000000+00:00</time></trkpt><trkpt lat="34.9309752" lon="33.5990148"><ele>43.8</ele><time>2015-05-01T15:30:32.0000000+00:00</time></trkpt><trkpt lat="34.9309418" lon="33.5990887"><ele>43.9</ele><time>2015-05-01T15:30:33.0000000+00:00</time></trkpt><trkpt lat="34.930906" lon="33.599165"><ele>44.0</ele><time>2015-05-01T15:30:34.0000000+00:00</time></trkpt><trkpt lat="34.9308713" lon="33.59923"><ele>44.0</ele><time>2015-05-01T15:30:35.0000000+00:00</time></trkpt><trkpt lat="34.9308362" lon="33.5993016"><ele>44.0</ele><time>2015-05-01T15:30:36.0000000+00:00</time></trkpt><trkpt lat="34.9308033" lon="33.5993784"><ele>43.5</ele><time>2015-05-01T15:30:37.0000000+00:00</time></trkpt><trkpt lat="34.9307726" lon="33.5994573"><ele>43.3</ele><time>2015-05-01T15:30:38.0000000+00:00</time></trkpt><trkpt lat="34.9307417" lon="33.5995286"><ele>42.6</ele><time>2015-05-01T15:30:39.0000000+00:00</time></trkpt><trkpt lat="34.9307034" lon="33.5996069"><ele>42.3</ele><time>2015-05-01T15:30:40.0000000+00:00</time></trkpt><trkpt lat="34.9306721" lon="33.5996864"><ele>42.2</ele><time>2015-05-01T15:30:41.0000000+00:00</time></trkpt><trkpt lat="34.9306341" lon="33.5997626"><ele>42.1</ele><time>2015-05-01T15:30:42.0000000+00:00</time></trkpt><trkpt lat="34.9305849" lon="33.5998455"><ele>41.6</ele><time>2015-05-01T15:30:43.0000000+00:00</time></trkpt><trkpt lat="34.9305472" lon="33.5999259"><ele>41.3</ele><time>2015-05-01T15:30:44.0000000+00:00</time></trkpt><trkpt lat="34.9305086" lon="33.6000087"><ele>41.2</ele><time>2015-05-01T15:30:45.0000000+00:00</time></trkpt><trkpt lat="34.9304724" lon="33.6000838"><ele>40.6</ele><time>2015-05-01T15:30:46.0000000+00:00</time></trkpt><trkpt lat="34.9304388" lon="33.600168"><ele>40.3</ele><time>2015-05-01T15:30:47.0000000+00:00</time></trkpt><trkpt lat="34.9303958" lon="33.6002476"><ele>40.2</ele><time>2015-05-01T15:30:48.0000000+00:00</time></trkpt><trkpt lat="34.9303578" lon="33.6003314"><ele>40.1</ele><time>2015-05-01T15:30:49.0000000+00:00</time></trkpt><trkpt lat="34.9303204" lon="33.6004115"><ele>40.1</ele><time>2015-05-01T15:30:50.0000000+00:00</time></trkpt><trkpt lat="34.9302818" lon="33.6004921"><ele>40.0</ele><time>2015-05-01T15:30:51.0000000+00:00</time></trkpt><trkpt lat="34.930246" lon="33.6005696"><ele>40.0</ele><time>2015-05-01T15:30:52.0000000+00:00</time></trkpt><trkpt lat="34.9302119" lon="33.600647"><ele>39.5</ele><time>2015-05-01T15:30:53.0000000+00:00</time></trkpt><trkpt lat="34.9301749" lon="33.6007314"><ele>39.3</ele><time>2015-05-01T15:30:54.0000000+00:00</time></trkpt><trkpt lat="34.9301368" lon="33.6008115"><ele>39.1</ele><time>2015-05-01T15:30:55.0000000+00:00</time></trkpt><trkpt lat="34.9300999" lon="33.6008896"><ele>39.1</ele><time>2015-05-01T15:30:56.0000000+00:00</time></trkpt><trkpt lat="34.930063" lon="33.6009702"><ele>39.1</ele><time>2015-05-01T15:30:57.0000000+00:00</time></trkpt><trkpt lat="34.9300228" lon="33.601051"><ele>39.0</ele><time>2015-05-01T15:30:58.0000000+00:00</time></trkpt><trkpt lat="34.9299853" lon="33.6011346"><ele>39.0</ele><time>2015-05-01T15:30:59.0000000+00:00</time></trkpt><trkpt lat="34.9299479" lon="33.6012196"><ele>39.0</ele><time>2015-05-01T15:31:00.0000000+00:00</time></trkpt><trkpt lat="34.929911" lon="33.6013027"><ele>39.0</ele><time>2015-05-01T15:31:01.0000000+00:00</time></trkpt><trkpt lat="34.9298714" lon="33.6013849"><ele>39.0</ele><time>2015-05-01T15:31:02.0000000+00:00</time></trkpt><trkpt lat="34.9298334" lon="33.6014671"><ele>39.0</ele><time>2015-05-01T15:31:03.0000000+00:00</time></trkpt><trkpt lat="34.929793" lon="33.6015457"><ele>39.0</ele><time>2015-05-01T15:31:04.0000000+00:00</time></trkpt><trkpt lat="34.9297517" lon="33.6016261"><ele>39.0</ele><time>2015-05-01T15:31:05.0000000+00:00</time></trkpt><trkpt lat="34.9297065" lon="33.6017107"><ele>39.0</ele><time>2015-05-01T15:31:06.0000000+00:00</time></trkpt><trkpt lat="34.929663" lon="33.6017881"><ele>39.0</ele><time>2015-05-01T15:31:07.0000000+00:00</time></trkpt><trkpt lat="34.929623" lon="33.6018699"><ele>39.5</ele><time>2015-05-01T15:31:08.0000000+00:00</time></trkpt><trkpt lat="34.9295818" lon="33.6019516"><ele>39.3</ele><time>2015-05-01T15:31:09.0000000+00:00</time></trkpt><trkpt lat="34.9295387" lon="33.6020345"><ele>39.1</ele><time>2015-05-01T15:31:10.0000000+00:00</time></trkpt><trkpt lat="34.9294974" lon="33.6021151"><ele>39.1</ele><time>2015-05-01T15:31:11.0000000+00:00</time></trkpt><trkpt lat="34.9294531" lon="33.6021992"><ele>39.6</ele><time>2015-05-01T15:31:12.0000000+00:00</time></trkpt><trkpt lat="34.9294134" lon="33.6022626"><ele>39.8</ele><time>2015-05-01T15:31:13.0000000+00:00</time></trkpt><trkpt lat="34.9293801" lon="33.6023397"><ele>39.4</ele><time>2015-05-01T15:31:14.0000000+00:00</time></trkpt><trkpt lat="34.9293468" lon="33.6024111"><ele>39.2</ele><time>2015-05-01T15:31:15.0000000+00:00</time></trkpt><trkpt lat="34.9293116" lon="33.6024908"><ele>38.6</ele><time>2015-05-01T15:31:16.0000000+00:00</time></trkpt><trkpt lat="34.9292667" lon="33.602562"><ele>38.3</ele><time>2015-05-01T15:31:17.0000000+00:00</time></trkpt><trkpt lat="34.9292327" lon="33.602633"><ele>38.2</ele><time>2015-05-01T15:31:18.0000000+00:00</time></trkpt><trkpt lat="34.9291954" lon="33.602711"><ele>38.6</ele><time>2015-05-01T15:31:19.0000000+00:00</time></trkpt><trkpt lat="34.9291562" lon="33.602786"><ele>38.3</ele><time>2015-05-01T15:31:20.0000000+00:00</time></trkpt><trkpt lat="34.9291182" lon="33.6028592"><ele>38.2</ele><time>2015-05-01T15:31:21.0000000+00:00</time></trkpt><trkpt lat="34.9290813" lon="33.602927"><ele>38.1</ele><time>2015-05-01T15:31:22.0000000+00:00</time></trkpt><trkpt lat="34.9290389" lon="33.6030022"><ele>37.6</ele><time>2015-05-01T15:31:23.0000000+00:00</time></trkpt><trkpt lat="34.929001" lon="33.6030677"><ele>37.3</ele><time>2015-05-01T15:31:24.0000000+00:00</time></trkpt><trkpt lat="34.9289637" lon="33.6031368"><ele>37.2</ele><time>2015-05-01T15:31:25.0000000+00:00</time></trkpt><trkpt lat="34.9289276" lon="33.6031979"><ele>36.6</ele><time>2015-05-01T15:31:26.0000000+00:00</time></trkpt><trkpt lat="34.9288976" lon="33.603259"><ele>36.3</ele><time>2015-05-01T15:31:27.0000000+00:00</time></trkpt><trkpt lat="34.92886" lon="33.6033276"><ele>36.2</ele><time>2015-05-01T15:31:28.0000000+00:00</time></trkpt><trkpt lat="34.9288256" lon="33.6033908"><ele>36.1</ele><time>2015-05-01T15:31:29.0000000+00:00</time></trkpt><trkpt lat="34.9287887" lon="33.6034525"><ele>36.1</ele><time>2015-05-01T15:31:30.0000000+00:00</time></trkpt><trkpt lat="34.9287576" lon="33.6035044"><ele>36.0</ele><time>2015-05-01T15:31:31.0000000+00:00</time></trkpt><trkpt lat="34.9287345" lon="33.6035673"><ele>36.0</ele><time>2015-05-01T15:31:32.0000000+00:00</time></trkpt><trkpt lat="34.9287202" lon="33.60363"><ele>36.0</ele><time>2015-05-01T15:31:33.0000000+00:00</time></trkpt><trkpt lat="34.9287142" lon="33.603733"><ele>36.8</ele><time>2015-05-01T15:31:35.0000000+00:00</time></trkpt><trkpt lat="34.9287391" lon="33.6038161"><ele>36.9</ele><time>2015-05-01T15:31:36.0000000+00:00</time></trkpt><trkpt lat="34.9287369" lon="33.6038847"><ele>37.5</ele><time>2015-05-01T15:31:37.0000000+00:00</time></trkpt><trkpt lat="34.9287294" lon="33.6039732"><ele>38.2</ele><time>2015-05-01T15:31:38.0000000+00:00</time></trkpt><trkpt lat="34.9287147" lon="33.6040445"><ele>38.6</ele><time>2015-05-01T15:31:39.0000000+00:00</time></trkpt><trkpt lat="34.9286874" lon="33.6041209"><ele>38.3</ele><time>2015-05-01T15:31:40.0000000+00:00</time></trkpt><trkpt lat="34.9286438" lon="33.604191"><ele>37.7</ele><time>2015-05-01T15:31:41.0000000+00:00</time></trkpt><trkpt lat="34.9285967" lon="33.6042617"><ele>37.3</ele><time>2015-05-01T15:31:42.0000000+00:00</time></trkpt><trkpt lat="34.9285175" lon="33.6043124"><ele>37.7</ele><time>2015-05-01T15:31:43.0000000+00:00</time></trkpt><trkpt lat="34.9284503" lon="33.6043603"><ele>37.9</ele><time>2015-05-01T15:31:44.0000000+00:00</time></trkpt><trkpt lat="34.9283877" lon="33.6044061"><ele>37.9</ele><time>2015-05-01T15:31:45.0000000+00:00</time></trkpt><trkpt lat="34.9283241" lon="33.6044472"><ele>38.0</ele><time>2015-05-01T15:31:46.0000000+00:00</time></trkpt><trkpt lat="34.9282706" lon="33.6044842"><ele>38.0</ele><time>2015-05-01T15:31:47.0000000+00:00</time></trkpt><trkpt lat="34.9282238" lon="33.6045324"><ele>37.0</ele><time>2015-05-01T15:31:48.0000000+00:00</time></trkpt><trkpt lat="34.9281814" lon="33.6045981"><ele>36.5</ele><time>2015-05-01T15:31:49.0000000+00:00</time></trkpt><trkpt lat="34.9281446" lon="33.6046694"><ele>36.3</ele><time>2015-05-01T15:31:50.0000000+00:00</time></trkpt><trkpt lat="34.9281038" lon="33.6047386"><ele>35.6</ele><time>2015-05-01T15:31:51.0000000+00:00</time></trkpt><trkpt lat="34.928063" lon="33.6048083"><ele>35.3</ele><time>2015-05-01T15:31:52.0000000+00:00</time></trkpt><trkpt lat="34.9280276" lon="33.6048766"><ele>35.2</ele><time>2015-05-01T15:31:53.0000000+00:00</time></trkpt><trkpt lat="34.9279916" lon="33.6049492"><ele>35.1</ele><time>2015-05-01T15:31:54.0000000+00:00</time></trkpt><trkpt lat="34.927962" lon="33.6050182"><ele>35.1</ele><time>2015-05-01T15:31:55.0000000+00:00</time></trkpt><trkpt lat="34.9279284" lon="33.6050861"><ele>34.5</ele><time>2015-05-01T15:31:56.0000000+00:00</time></trkpt><trkpt lat="34.9278988" lon="33.6051449"><ele>34.3</ele><time>2015-05-01T15:31:57.0000000+00:00</time></trkpt><trkpt lat="34.9278651" lon="33.6052048"><ele>34.7</ele><time>2015-05-01T15:31:58.0000000+00:00</time></trkpt><trkpt lat="34.9278303" lon="33.6052656"><ele>34.3</ele><time>2015-05-01T15:31:59.0000000+00:00</time></trkpt><trkpt lat="34.9277908" lon="33.6053348"><ele>34.2</ele><time>2015-05-01T15:32:00.0000000+00:00</time></trkpt><trkpt lat="34.9277493" lon="33.6053958"><ele>33.6</ele><time>2015-05-01T15:32:01.0000000+00:00</time></trkpt><trkpt lat="34.9277064" lon="33.6054557"><ele>33.3</ele><time>2015-05-01T15:32:02.0000000+00:00</time></trkpt><trkpt lat="34.9276642" lon="33.6055126"><ele>33.2</ele><time>2015-05-01T15:32:03.0000000+00:00</time></trkpt><trkpt lat="34.9276212" lon="33.605569"><ele>33.1</ele><time>2015-05-01T15:32:04.0000000+00:00</time></trkpt><trkpt lat="34.927582" lon="33.6056312"><ele>33.1</ele><time>2015-05-01T15:32:05.0000000+00:00</time></trkpt><trkpt lat="34.9275401" lon="33.6056909"><ele>32.5</ele><time>2015-05-01T15:32:06.0000000+00:00</time></trkpt><trkpt lat="34.9274963" lon="33.6057544"><ele>32.3</ele><time>2015-05-01T15:32:07.0000000+00:00</time></trkpt><trkpt lat="34.9274547" lon="33.6058207"><ele>32.2</ele><time>2015-05-01T15:32:08.0000000+00:00</time></trkpt><trkpt lat="34.9274103" lon="33.6058859"><ele>32.1</ele><time>2015-05-01T15:32:09.0000000+00:00</time></trkpt><trkpt lat="34.9273614" lon="33.6059501"><ele>32.1</ele><time>2015-05-01T15:32:10.0000000+00:00</time></trkpt><trkpt lat="34.9273141" lon="33.6060172"><ele>32.0</ele><time>2015-05-01T15:32:11.0000000+00:00</time></trkpt><trkpt lat="34.9272664" lon="33.6060873"><ele>32.0</ele><time>2015-05-01T15:32:12.0000000+00:00</time></trkpt><trkpt lat="34.9272168" lon="33.606154"><ele>31.5</ele><time>2015-05-01T15:32:13.0000000+00:00</time></trkpt><trkpt lat="34.9271678" lon="33.6062237"><ele>31.3</ele><time>2015-05-01T15:32:14.0000000+00:00</time></trkpt><trkpt lat="34.9271115" lon="33.6062906"><ele>31.1</ele><time>2015-05-01T15:32:15.0000000+00:00</time></trkpt><trkpt lat="34.9270584" lon="33.6063554"><ele>31.1</ele><time>2015-05-01T15:32:16.0000000+00:00</time></trkpt><trkpt lat="34.9270062" lon="33.6064202"><ele>31.1</ele><time>2015-05-01T15:32:17.0000000+00:00</time></trkpt><trkpt lat="34.9269493" lon="33.6064827"><ele>30.5</ele><time>2015-05-01T15:32:18.0000000+00:00</time></trkpt><trkpt lat="34.9269043" lon="33.6065476"><ele>30.3</ele><time>2015-05-01T15:32:19.0000000+00:00</time></trkpt><trkpt lat="34.92685" lon="33.6066116"><ele>29.6</ele><time>2015-05-01T15:32:20.0000000+00:00</time></trkpt><trkpt lat="34.9267976" lon="33.6066737"><ele>29.3</ele><time>2015-05-01T15:32:21.0000000+00:00</time></trkpt><trkpt lat="34.9267459" lon="33.6067366"><ele>28.7</ele><time>2015-05-01T15:32:22.0000000+00:00</time></trkpt><trkpt lat="34.926695" lon="33.6067989"><ele>28.3</ele><time>2015-05-01T15:32:23.0000000+00:00</time></trkpt><trkpt lat="34.9266455" lon="33.6068562"><ele>28.2</ele><time>2015-05-01T15:32:24.0000000+00:00</time></trkpt><trkpt lat="34.9265942" lon="33.6069236"><ele>28.1</ele><time>2015-05-01T15:32:25.0000000+00:00</time></trkpt><trkpt lat="34.9265473" lon="33.606981"><ele>28.1</ele><time>2015-05-01T15:32:26.0000000+00:00</time></trkpt><trkpt lat="34.9264965" lon="33.6070431"><ele>28.0</ele><time>2015-05-01T15:32:27.0000000+00:00</time></trkpt><trkpt lat="34.9264491" lon="33.6071024"><ele>27.5</ele><time>2015-05-01T15:32:28.0000000+00:00</time></trkpt><trkpt lat="34.9264005" lon="33.6071598"><ele>27.8</ele><time>2015-05-01T15:32:29.0000000+00:00</time></trkpt><trkpt lat="34.9263486" lon="33.6072154"><ele>27.9</ele><time>2015-05-01T15:32:30.0000000+00:00</time></trkpt><trkpt lat="34.9262973" lon="33.6072747"><ele>28.0</ele><time>2015-05-01T15:32:31.0000000+00:00</time></trkpt><trkpt lat="34.9262427" lon="33.6073371"><ele>27.5</ele><time>2015-05-01T15:32:32.0000000+00:00</time></trkpt><trkpt lat="34.9261938" lon="33.6073958"><ele>27.8</ele><time>2015-05-01T15:32:33.0000000+00:00</time></trkpt><trkpt lat="34.9261462" lon="33.6074504"><ele>27.4</ele><time>2015-05-01T15:32:34.0000000+00:00</time></trkpt><trkpt lat="34.9260972" lon="33.6075046"><ele>27.7</ele><time>2015-05-01T15:32:35.0000000+00:00</time></trkpt><trkpt lat="34.9260489" lon="33.607563"><ele>27.9</ele><time>2015-05-01T15:32:36.0000000+00:00</time></trkpt><trkpt lat="34.9260033" lon="33.6076138"><ele>27.9</ele><time>2015-05-01T15:32:37.0000000+00:00</time></trkpt><trkpt lat="34.9259538" lon="33.6076604"><ele>28.0</ele><time>2015-05-01T15:32:38.0000000+00:00</time></trkpt><trkpt lat="34.9259083" lon="33.6077113"><ele>28.0</ele><time>2015-05-01T15:32:39.0000000+00:00</time></trkpt><trkpt lat="34.9258606" lon="33.6077635"><ele>27.5</ele><time>2015-05-01T15:32:40.0000000+00:00</time></trkpt><trkpt lat="34.9258132" lon="33.6078144"><ele>27.8</ele><time>2015-05-01T15:32:41.0000000+00:00</time></trkpt><trkpt lat="34.9257638" lon="33.6078643"><ele>27.9</ele><time>2015-05-01T15:32:42.0000000+00:00</time></trkpt><trkpt lat="34.9257214" lon="33.607924"><ele>28.0</ele><time>2015-05-01T15:32:43.0000000+00:00</time></trkpt><trkpt lat="34.9256727" lon="33.6079927"><ele>28.0</ele><time>2015-05-01T15:32:44.0000000+00:00</time></trkpt><trkpt lat="34.9256203" lon="33.6080487"><ele>28.5</ele><time>2015-05-01T15:32:45.0000000+00:00</time></trkpt><trkpt lat="34.925571" lon="33.6080938"><ele>28.3</ele><time>2015-05-01T15:32:46.0000000+00:00</time></trkpt><trkpt lat="34.925522" lon="33.6081584"><ele>28.1</ele><time>2015-05-01T15:32:47.0000000+00:00</time></trkpt><trkpt lat="34.9254732" lon="33.6082206"><ele>28.6</ele><time>2015-05-01T15:32:48.0000000+00:00</time></trkpt><trkpt lat="34.9254276" lon="33.6082797"><ele>28.8</ele><time>2015-05-01T15:32:49.0000000+00:00</time></trkpt><trkpt lat="34.9253833" lon="33.6083301"><ele>28.9</ele><time>2015-05-01T15:32:50.0000000+00:00</time></trkpt><trkpt lat="34.9253352" lon="33.6083871"><ele>29.0</ele><time>2015-05-01T15:32:51.0000000+00:00</time></trkpt><trkpt lat="34.9252894" lon="33.608448"><ele>29.0</ele><time>2015-05-01T15:32:52.0000000+00:00</time></trkpt><trkpt lat="34.9252453" lon="33.6085022"><ele>29.0</ele><time>2015-05-01T15:32:53.0000000+00:00</time></trkpt><trkpt lat="34.9252043" lon="33.608557"><ele>29.0</ele><time>2015-05-01T15:32:54.0000000+00:00</time></trkpt><trkpt lat="34.9251574" lon="33.608606"><ele>29.0</ele><time>2015-05-01T15:32:55.0000000+00:00</time></trkpt><trkpt lat="34.9251103" lon="33.6086619"><ele>29.0</ele><time>2015-05-01T15:32:56.0000000+00:00</time></trkpt><trkpt lat="34.9250623" lon="33.6087204"><ele>29.0</ele><time>2015-05-01T15:32:57.0000000+00:00</time></trkpt><trkpt lat="34.9250196" lon="33.608776"><ele>28.5</ele><time>2015-05-01T15:32:58.0000000+00:00</time></trkpt><trkpt lat="34.9249745" lon="33.6088323"><ele>28.3</ele><time>2015-05-01T15:32:59.0000000+00:00</time></trkpt><trkpt lat="34.924925" lon="33.608882"><ele>28.1</ele><time>2015-05-01T15:33:00.0000000+00:00</time></trkpt><trkpt lat="34.9248786" lon="33.6089401"><ele>27.6</ele><time>2015-05-01T15:33:01.0000000+00:00</time></trkpt><trkpt lat="34.9248315" lon="33.6090004"><ele>27.3</ele><time>2015-05-01T15:33:02.0000000+00:00</time></trkpt><trkpt lat="34.9247836" lon="33.6090568"><ele>27.2</ele><time>2015-05-01T15:33:03.0000000+00:00</time></trkpt><trkpt lat="34.9247345" lon="33.6091166"><ele>27.1</ele><time>2015-05-01T15:33:04.0000000+00:00</time></trkpt><trkpt lat="34.9246895" lon="33.6091731"><ele>27.1</ele><time>2015-05-01T15:33:05.0000000+00:00</time></trkpt><trkpt lat="34.9246471" lon="33.6092302"><ele>27.0</ele><time>2015-05-01T15:33:06.0000000+00:00</time></trkpt><trkpt lat="34.9246095" lon="33.6092811"><ele>26.5</ele><time>2015-05-01T15:33:07.0000000+00:00</time></trkpt><trkpt lat="34.9245656" lon="33.6093422"><ele>26.8</ele><time>2015-05-01T15:33:08.0000000+00:00</time></trkpt><trkpt lat="34.9245211" lon="33.6093993"><ele>26.9</ele><time>2015-05-01T15:33:09.0000000+00:00</time></trkpt><trkpt lat="34.9244815" lon="33.6094581"><ele>26.5</ele><time>2015-05-01T15:33:10.0000000+00:00</time></trkpt><trkpt lat="34.9244416" lon="33.6095145"><ele>26.7</ele><time>2015-05-01T15:33:11.0000000+00:00</time></trkpt><trkpt lat="34.9244015" lon="33.6095763"><ele>26.9</ele><time>2015-05-01T15:33:12.0000000+00:00</time></trkpt><trkpt lat="34.9243625" lon="33.6096362"><ele>26.5</ele><time>2015-05-01T15:33:13.0000000+00:00</time></trkpt><trkpt lat="34.9243214" lon="33.6096913"><ele>26.7</ele><time>2015-05-01T15:33:14.0000000+00:00</time></trkpt><trkpt lat="34.9242849" lon="33.6097432"><ele>26.4</ele><time>2015-05-01T15:33:15.0000000+00:00</time></trkpt><trkpt lat="34.9242415" lon="33.6098047"><ele>26.7</ele><time>2015-05-01T15:33:16.0000000+00:00</time></trkpt><trkpt lat="34.9242019" lon="33.6098639"><ele>26.9</ele><time>2015-05-01T15:33:17.0000000+00:00</time></trkpt><trkpt lat="34.924163" lon="33.6099262"><ele>26.9</ele><time>2015-05-01T15:33:18.0000000+00:00</time></trkpt><trkpt lat="34.924123" lon="33.6099889"><ele>27.0</ele><time>2015-05-01T15:33:19.0000000+00:00</time></trkpt><trkpt lat="34.9240802" lon="33.6100572"><ele>27.0</ele><time>2015-05-01T15:33:20.0000000+00:00</time></trkpt><trkpt lat="34.9240404" lon="33.6101236"><ele>27.5</ele><time>2015-05-01T15:33:21.0000000+00:00</time></trkpt><trkpt lat="34.9240035" lon="33.610189"><ele>27.3</ele><time>2015-05-01T15:33:22.0000000+00:00</time></trkpt><trkpt lat="34.923961" lon="33.6102519"><ele>27.1</ele><time>2015-05-01T15:33:23.0000000+00:00</time></trkpt><trkpt lat="34.9239145" lon="33.6103191"><ele>27.1</ele><time>2015-05-01T15:33:24.0000000+00:00</time></trkpt><trkpt lat="34.9238698" lon="33.6103835"><ele>27.1</ele><time>2015-05-01T15:33:25.0000000+00:00</time></trkpt><trkpt lat="34.9238268" lon="33.6104526"><ele>27.0</ele><time>2015-05-01T15:33:26.0000000+00:00</time></trkpt><trkpt lat="34.9237842" lon="33.6105185"><ele>27.0</ele><time>2015-05-01T15:33:27.0000000+00:00</time></trkpt><trkpt lat="34.9237374" lon="33.6105916"><ele>27.0</ele><time>2015-05-01T15:33:28.0000000+00:00</time></trkpt><trkpt lat="34.9236927" lon="33.6106595"><ele>27.5</ele><time>2015-05-01T15:33:29.0000000+00:00</time></trkpt><trkpt lat="34.9236583" lon="33.6107193"><ele>27.8</ele><time>2015-05-01T15:33:30.0000000+00:00</time></trkpt><trkpt lat="34.9236195" lon="33.6107773"><ele>27.9</ele><time>2015-05-01T15:33:31.0000000+00:00</time></trkpt><trkpt lat="34.9235804" lon="33.610838"><ele>28.0</ele><time>2015-05-01T15:33:32.0000000+00:00</time></trkpt><trkpt lat="34.9235433" lon="33.6108966"><ele>28.0</ele><time>2015-05-01T15:33:33.0000000+00:00</time></trkpt><trkpt lat="34.9235123" lon="33.6109548"><ele>28.0</ele><time>2015-05-01T15:33:34.0000000+00:00</time></trkpt><trkpt lat="34.9234824" lon="33.6110097"><ele>28.0</ele><time>2015-05-01T15:33:35.0000000+00:00</time></trkpt><trkpt lat="34.9234522" lon="33.6110683"><ele>28.0</ele><time>2015-05-01T15:33:36.0000000+00:00</time></trkpt><trkpt lat="34.9234178" lon="33.61113"><ele>28.0</ele><time>2015-05-01T15:33:37.0000000+00:00</time></trkpt><trkpt lat="34.9233847" lon="33.6111888"><ele>27.5</ele><time>2015-05-01T15:33:38.0000000+00:00</time></trkpt><trkpt lat="34.9233502" lon="33.6112496"><ele>27.3</ele><time>2015-05-01T15:33:39.0000000+00:00</time></trkpt><trkpt lat="34.9233116" lon="33.6113123"><ele>27.6</ele><time>2015-05-01T15:33:40.0000000+00:00</time></trkpt><trkpt lat="34.9232768" lon="33.6113729"><ele>27.8</ele><time>2015-05-01T15:33:41.0000000+00:00</time></trkpt><trkpt lat="34.9232416" lon="33.6114353"><ele>27.9</ele><time>2015-05-01T15:33:42.0000000+00:00</time></trkpt><trkpt lat="34.9232119" lon="33.6114911"><ele>28.0</ele><time>2015-05-01T15:33:43.0000000+00:00</time></trkpt><trkpt lat="34.9231797" lon="33.6115378"><ele>28.0</ele><time>2015-05-01T15:33:44.0000000+00:00</time></trkpt><trkpt lat="34.9231445" lon="33.6115899"><ele>27.5</ele><time>2015-05-01T15:33:45.0000000+00:00</time></trkpt><trkpt lat="34.9230972" lon="33.6116735"><ele>27.1</ele><time>2015-05-01T15:33:47.0000000+00:00</time></trkpt><trkpt lat="34.9230511" lon="33.6117592"><ele>27.1</ele><time>2015-05-01T15:33:49.0000000+00:00</time></trkpt><trkpt lat="34.9230151" lon="33.6118442"><ele>26.3</ele><time>2015-05-01T15:33:51.0000000+00:00</time></trkpt><trkpt lat="34.9229756" lon="33.6119261"><ele>26.1</ele><time>2015-05-01T15:33:53.0000000+00:00</time></trkpt><trkpt lat="34.9229458" lon="33.6120002"><ele>26.0</ele><time>2015-05-01T15:33:55.0000000+00:00</time></trkpt><trkpt lat="34.9229792" lon="33.6120725"><ele>26.3</ele><time>2015-05-01T15:33:57.0000000+00:00</time></trkpt><trkpt lat="34.9230534" lon="33.6121119"><ele>26.6</ele><time>2015-05-01T15:33:59.0000000+00:00</time></trkpt><trkpt lat="34.9231146" lon="33.6121177"><ele>26.3</ele><time>2015-05-01T15:34:00.0000000+00:00</time></trkpt><trkpt lat="34.9231642" lon="33.6121308"><ele>26.2</ele><time>2015-05-01T15:34:01.0000000+00:00</time></trkpt><trkpt lat="34.9232183" lon="33.6121396"><ele>26.1</ele><time>2015-05-01T15:34:02.0000000+00:00</time></trkpt><trkpt lat="34.923264" lon="33.6121526"><ele>26.1</ele><time>2015-05-01T15:34:03.0000000+00:00</time></trkpt><trkpt lat="34.9233395" lon="33.6121745"><ele>26.0</ele><time>2015-05-01T15:34:05.0000000+00:00</time></trkpt><trkpt lat="34.9233809" lon="33.6122016"><ele>26.5</ele><time>2015-05-01T15:34:07.0000000+00:00</time></trkpt><trkpt lat="34.92344" lon="33.6122332"><ele>26.1</ele><time>2015-05-01T15:34:14.0000000+00:00</time></trkpt><trkpt lat="34.9234636" lon="33.6122864"><ele>26.0</ele><time>2015-05-01T15:34:16.0000000+00:00</time></trkpt><trkpt lat="34.9234745" lon="33.6123414"><ele>26.5</ele><time>2015-05-01T15:34:18.0000000+00:00</time></trkpt><trkpt lat="34.923467" lon="33.6123982"><ele>26.6</ele><time>2015-05-01T15:34:20.0000000+00:00</time></trkpt><trkpt lat="34.9234585" lon="33.6124582"><ele>26.2</ele><time>2015-05-01T15:34:22.0000000+00:00</time></trkpt><trkpt lat="34.9234457" lon="33.6125411"><ele>26.1</ele><time>2015-05-01T15:34:24.0000000+00:00</time></trkpt><trkpt lat="34.9234235" lon="33.612626"><ele>26.0</ele><time>2015-05-01T15:34:26.0000000+00:00</time></trkpt><trkpt lat="34.9233979" lon="33.6127291"><ele>25.3</ele><time>2015-05-01T15:34:28.0000000+00:00</time></trkpt><trkpt lat="34.9233763" lon="33.6128348"><ele>25.1</ele><time>2015-05-01T15:34:30.0000000+00:00</time></trkpt><trkpt lat="34.9233613" lon="33.6129413"><ele>24.3</ele><time>2015-05-01T15:34:32.0000000+00:00</time></trkpt><trkpt lat="34.9233671" lon="33.6130047"><ele>24.2</ele><time>2015-05-01T15:34:33.0000000+00:00</time></trkpt><trkpt lat="34.9233652" lon="33.6131128"><ele>24.1</ele><time>2015-05-01T15:34:35.0000000+00:00</time></trkpt><trkpt lat="34.9233613" lon="33.6131706"><ele>24.0</ele><time>2015-05-01T15:34:36.0000000+00:00</time></trkpt><trkpt lat="34.9233616" lon="33.6132828"><ele>24.0</ele><time>2015-05-01T15:34:38.0000000+00:00</time></trkpt><trkpt lat="34.9233616" lon="33.6133479"><ele>24.5</ele><time>2015-05-01T15:34:39.0000000+00:00</time></trkpt><trkpt lat="34.9233624" lon="33.6134156"><ele>24.8</ele><time>2015-05-01T15:34:40.0000000+00:00</time></trkpt><trkpt lat="34.9233669" lon="33.6134782"><ele>24.9</ele><time>2015-05-01T15:34:41.0000000+00:00</time></trkpt><trkpt lat="34.9233644" lon="33.613548"><ele>25.0</ele><time>2015-05-01T15:34:42.0000000+00:00</time></trkpt><trkpt lat="34.923365" lon="33.6136138"><ele>25.0</ele><time>2015-05-01T15:34:43.0000000+00:00</time></trkpt><trkpt lat="34.9233604" lon="33.6136816"><ele>25.0</ele><time>2015-05-01T15:34:44.0000000+00:00</time></trkpt><trkpt lat="34.9233634" lon="33.6137441"><ele>25.0</ele><time>2015-05-01T15:34:45.0000000+00:00</time></trkpt><trkpt lat="34.9233632" lon="33.6138056"><ele>24.5</ele><time>2015-05-01T15:34:46.0000000+00:00</time></trkpt><trkpt lat="34.9233659" lon="33.6138624"><ele>24.3</ele><time>2015-05-01T15:34:47.0000000+00:00</time></trkpt><trkpt lat="34.9233662" lon="33.613926"><ele>24.1</ele><time>2015-05-01T15:34:48.0000000+00:00</time></trkpt><trkpt lat="34.9233725" lon="33.6140362"><ele>24.6</ele><time>2015-05-01T15:34:50.0000000+00:00</time></trkpt><trkpt lat="34.9233742" lon="33.6140934"><ele>24.8</ele><time>2015-05-01T15:34:51.0000000+00:00</time></trkpt><trkpt lat="34.9233702" lon="33.6141589"><ele>24.9</ele><time>2015-05-01T15:34:52.0000000+00:00</time></trkpt><trkpt lat="34.923369" lon="33.6142248"><ele>24.5</ele><time>2015-05-01T15:34:53.0000000+00:00</time></trkpt><trkpt lat="34.9233713" lon="33.614295"><ele>24.2</ele><time>2015-05-01T15:34:54.0000000+00:00</time></trkpt><trkpt lat="34.923371" lon="33.6143663"><ele>24.6</ele><time>2015-05-01T15:34:55.0000000+00:00</time></trkpt><trkpt lat="34.9233684" lon="33.6144441"><ele>24.3</ele><time>2015-05-01T15:34:56.0000000+00:00</time></trkpt><trkpt lat="34.9233674" lon="33.6145172"><ele>24.2</ele><time>2015-05-01T15:34:57.0000000+00:00</time></trkpt><trkpt lat="34.9233666" lon="33.6145877"><ele>24.1</ele><time>2015-05-01T15:34:58.0000000+00:00</time></trkpt><trkpt lat="34.9233666" lon="33.6146611"><ele>24.1</ele><time>2015-05-01T15:34:59.0000000+00:00</time></trkpt><trkpt lat="34.923369" lon="33.6147347"><ele>23.5</ele><time>2015-05-01T15:35:00.0000000+00:00</time></trkpt><trkpt lat="34.9233741" lon="33.6148001"><ele>23.8</ele><time>2015-05-01T15:35:01.0000000+00:00</time></trkpt><trkpt lat="34.9233778" lon="33.6148722"><ele>23.4</ele><time>2015-05-01T15:35:02.0000000+00:00</time></trkpt><trkpt lat="34.9233845" lon="33.6149383"><ele>23.2</ele><time>2015-05-01T15:35:03.0000000+00:00</time></trkpt><trkpt lat="34.9233934" lon="33.6150079"><ele>23.1</ele><time>2015-05-01T15:35:04.0000000+00:00</time></trkpt><trkpt lat="34.9233995" lon="33.615074"><ele>23.1</ele><time>2015-05-01T15:35:05.0000000+00:00</time></trkpt><trkpt lat="34.9234023" lon="33.6151495"><ele>23.0</ele><time>2015-05-01T15:35:06.0000000+00:00</time></trkpt><trkpt lat="34.9234074" lon="33.6152207"><ele>22.5</ele><time>2015-05-01T15:35:07.0000000+00:00</time></trkpt><trkpt lat="34.9234132" lon="33.6152859"><ele>22.3</ele><time>2015-05-01T15:35:08.0000000+00:00</time></trkpt><trkpt lat="34.9234162" lon="33.6153528"><ele>22.1</ele><time>2015-05-01T15:35:09.0000000+00:00</time></trkpt><trkpt lat="34.9234175" lon="33.6154156"><ele>21.6</ele><time>2015-05-01T15:35:10.0000000+00:00</time></trkpt><trkpt lat="34.9234238" lon="33.6154726"><ele>21.8</ele><time>2015-05-01T15:35:11.0000000+00:00</time></trkpt><trkpt lat="34.9234303" lon="33.6155356"><ele>21.9</ele><time>2015-05-01T15:35:12.0000000+00:00</time></trkpt><trkpt lat="34.9234371" lon="33.6155938"><ele>22.0</ele><time>2015-05-01T15:35:13.0000000+00:00</time></trkpt><trkpt lat="34.9234419" lon="33.6156538"><ele>22.0</ele><time>2015-05-01T15:35:14.0000000+00:00</time></trkpt><trkpt lat="34.9234418" lon="33.6157093"><ele>21.5</ele><time>2015-05-01T15:35:15.0000000+00:00</time></trkpt><trkpt lat="34.9234522" lon="33.6157659"><ele>21.8</ele><time>2015-05-01T15:35:16.0000000+00:00</time></trkpt><trkpt lat="34.9234442" lon="33.6158388"><ele>22.0</ele><time>2015-05-01T15:35:18.0000000+00:00</time></trkpt><trkpt lat="34.9234146" lon="33.6159059"><ele>21.5</ele><time>2015-05-01T15:35:20.0000000+00:00</time></trkpt><trkpt lat="34.9234229" lon="33.6159796"><ele>22.4</ele><time>2015-05-01T15:35:22.0000000+00:00</time></trkpt><trkpt lat="34.9234098" lon="33.616039"><ele>22.6</ele><time>2015-05-01T15:35:24.0000000+00:00</time></trkpt><trkpt lat="34.9233566" lon="33.6160753"><ele>22.7</ele><time>2015-05-01T15:35:27.0000000+00:00</time></trkpt><trkpt lat="34.9233068" lon="33.6161039"><ele>23.0</ele><time>2015-05-01T15:35:30.0000000+00:00</time></trkpt><trkpt lat="34.9232883" lon="33.6161642"><ele>23.5</ele><time>2015-05-01T15:35:34.0000000+00:00</time></trkpt><trkpt lat="34.9232396" lon="33.6162018"><ele>25.7</ele><time>2015-05-01T15:35:38.0000000+00:00</time></trkpt><trkpt lat="34.9231763" lon="33.6162152"><ele>26.7</ele><time>2015-05-01T15:35:41.0000000+00:00</time></trkpt><trkpt lat="34.9231235" lon="33.6162156"><ele>26.9</ele><time>2015-05-01T15:35:43.0000000+00:00</time></trkpt><trkpt lat="34.9230615" lon="33.6162116"><ele>24.5</ele><time>2015-05-01T15:35:45.0000000+00:00</time></trkpt><trkpt lat="34.922981" lon="33.6161948"><ele>21.4</ele><time>2015-05-01T15:35:47.0000000+00:00</time></trkpt><trkpt lat="34.9228941" lon="33.6161985"><ele>20.4</ele><time>2015-05-01T15:35:49.0000000+00:00</time></trkpt><trkpt lat="34.9228159" lon="33.6162164"><ele>20.6</ele><time>2015-05-01T15:35:51.0000000+00:00</time></trkpt><trkpt lat="34.9227455" lon="33.6162272"><ele>20.4</ele><time>2015-05-01T15:35:53.0000000+00:00</time></trkpt><trkpt lat="34.9226748" lon="33.6162437"><ele>19.6</ele><time>2015-05-01T15:35:55.0000000+00:00</time></trkpt><trkpt lat="34.9225994" lon="33.616267"><ele>19.9</ele><time>2015-05-01T15:35:57.0000000+00:00</time></trkpt><trkpt lat="34.9225264" lon="33.6162843"><ele>20.0</ele><time>2015-05-01T15:35:59.0000000+00:00</time></trkpt><trkpt lat="34.9224562" lon="33.6163026"><ele>20.0</ele><time>2015-05-01T15:36:01.0000000+00:00</time></trkpt><trkpt lat="34.9223972" lon="33.6163271"><ele>19.5</ele><time>2015-05-01T15:36:03.0000000+00:00</time></trkpt><trkpt lat="34.9223466" lon="33.6163479"><ele>19.6</ele><time>2015-05-01T15:36:05.0000000+00:00</time></trkpt><trkpt lat="34.9223199" lon="33.616417"><ele>20.8</ele><time>2015-05-01T15:36:08.0000000+00:00</time></trkpt><trkpt lat="34.9223244" lon="33.6164773"><ele>22.2</ele><time>2015-05-01T15:36:10.0000000+00:00</time></trkpt><trkpt lat="34.9222834" lon="33.6165005"><ele>22.8</ele><time>2015-05-01T15:36:12.0000000+00:00</time></trkpt><trkpt lat="34.9222304" lon="33.6165483"><ele>22.2</ele><time>2015-05-01T15:36:15.0000000+00:00</time></trkpt><trkpt lat="34.9221649" lon="33.6165959"><ele>22.1</ele><time>2015-05-01T15:36:17.0000000+00:00</time></trkpt><trkpt lat="34.9221164" lon="33.6166095"><ele>22.0</ele><time>2015-05-01T15:36:18.0000000+00:00</time></trkpt><trkpt lat="34.9220509" lon="33.6166217"><ele>22.0</ele><time>2015-05-01T15:36:19.0000000+00:00</time></trkpt><trkpt lat="34.9219965" lon="33.6166326"><ele>22.0</ele><time>2015-05-01T15:36:20.0000000+00:00</time></trkpt><trkpt lat="34.9219477" lon="33.616641"><ele>22.0</ele><time>2015-05-01T15:36:21.0000000+00:00</time></trkpt><trkpt lat="34.9218918" lon="33.6166485"><ele>21.5</ele><time>2015-05-01T15:36:22.0000000+00:00</time></trkpt><trkpt lat="34.9218374" lon="33.6166557"><ele>21.3</ele><time>2015-05-01T15:36:23.0000000+00:00</time></trkpt><trkpt lat="34.921779" lon="33.6166661"><ele>21.1</ele><time>2015-05-01T15:36:24.0000000+00:00</time></trkpt><trkpt lat="34.9217256" lon="33.6166756"><ele>21.1</ele><time>2015-05-01T15:36:25.0000000+00:00</time></trkpt><trkpt lat="34.9216695" lon="33.6166946"><ele>20.6</ele><time>2015-05-01T15:36:26.0000000+00:00</time></trkpt><trkpt lat="34.9216102" lon="33.6167012"><ele>20.3</ele><time>2015-05-01T15:36:27.0000000+00:00</time></trkpt><trkpt lat="34.921549" lon="33.6167092"><ele>20.2</ele><time>2015-05-01T15:36:28.0000000+00:00</time></trkpt><trkpt lat="34.9214908" lon="33.6167222"><ele>20.1</ele><time>2015-05-01T15:36:29.0000000+00:00</time></trkpt><trkpt lat="34.9214312" lon="33.6167327"><ele>20.1</ele><time>2015-05-01T15:36:30.0000000+00:00</time></trkpt><trkpt lat="34.9213763" lon="33.6167387"><ele>20.0</ele><time>2015-05-01T15:36:31.0000000+00:00</time></trkpt><trkpt lat="34.921318" lon="33.6167462"><ele>20.5</ele><time>2015-05-01T15:36:32.0000000+00:00</time></trkpt><trkpt lat="34.9212584" lon="33.6167512"><ele>20.8</ele><time>2015-05-01T15:36:33.0000000+00:00</time></trkpt><trkpt lat="34.9212041" lon="33.6167538"><ele>20.9</ele><time>2015-05-01T15:36:34.0000000+00:00</time></trkpt><trkpt lat="34.9211515" lon="33.6167535"><ele>21.0</ele><time>2015-05-01T15:36:35.0000000+00:00</time></trkpt><trkpt lat="34.9211013" lon="33.6167514"><ele>20.5</ele><time>2015-05-01T15:36:36.0000000+00:00</time></trkpt><trkpt lat="34.9210485" lon="33.6167477"><ele>20.8</ele><time>2015-05-01T15:36:37.0000000+00:00</time></trkpt><trkpt lat="34.9210005" lon="33.6167462"><ele>20.9</ele><time>2015-05-01T15:36:38.0000000+00:00</time></trkpt><trkpt lat="34.9209083" lon="33.616737"><ele>21.2</ele><time>2015-05-01T15:36:40.0000000+00:00</time></trkpt><trkpt lat="34.9208244" lon="33.6167376"><ele>21.1</ele><time>2015-05-01T15:36:42.0000000+00:00</time></trkpt><trkpt lat="34.9207339" lon="33.6167221"><ele>21.8</ele><time>2015-05-01T15:36:44.0000000+00:00</time></trkpt><trkpt lat="34.9206893" lon="33.6167087"><ele>22.4</ele><time>2015-05-01T15:36:45.0000000+00:00</time></trkpt><trkpt lat="34.9206312" lon="33.6166832"><ele>22.9</ele><time>2015-05-01T15:36:47.0000000+00:00</time></trkpt><trkpt lat="34.9205764" lon="33.6166644"><ele>24.2</ele><time>2015-05-01T15:36:49.0000000+00:00</time></trkpt><trkpt lat="34.9205249" lon="33.6166381"><ele>26.8</ele><time>2015-05-01T15:36:51.0000000+00:00</time></trkpt><trkpt lat="34.9204784" lon="33.6166156"><ele>28.2</ele><time>2015-05-01T15:36:53.0000000+00:00</time></trkpt><trkpt lat="34.9204329" lon="33.616597"><ele>27.8</ele><time>2015-05-01T15:36:56.0000000+00:00</time></trkpt><trkpt lat="34.9203837" lon="33.6165953"><ele>26.1</ele><time>2015-05-01T15:36:59.0000000+00:00</time></trkpt><trkpt lat="34.9203289" lon="33.6166002"><ele>25.7</ele><time>2015-05-01T15:37:02.0000000+00:00</time></trkpt><trkpt lat="34.9202731" lon="33.6166244"><ele>25.9</ele><time>2015-05-01T15:37:04.0000000+00:00</time></trkpt><trkpt lat="34.9202161" lon="33.6166889"><ele>24.7</ele><time>2015-05-01T15:37:06.0000000+00:00</time></trkpt><trkpt lat="34.920159" lon="33.6167788"><ele>24.5</ele><time>2015-05-01T15:37:08.0000000+00:00</time></trkpt><trkpt lat="34.9201165" lon="33.6168285"><ele>24.2</ele><time>2015-05-01T15:37:09.0000000+00:00</time></trkpt><trkpt lat="34.9200808" lon="33.6168789"><ele>24.1</ele><time>2015-05-01T15:37:10.0000000+00:00</time></trkpt><trkpt lat="34.9200463" lon="33.6169322"><ele>24.1</ele><time>2015-05-01T15:37:11.0000000+00:00</time></trkpt><trkpt lat="34.9200086" lon="33.6169933"><ele>23.5</ele><time>2015-05-01T15:37:12.0000000+00:00</time></trkpt><trkpt lat="34.9199723" lon="33.6170498"><ele>23.3</ele><time>2015-05-01T15:37:13.0000000+00:00</time></trkpt><trkpt lat="34.9199363" lon="33.6171111"><ele>23.2</ele><time>2015-05-01T15:37:14.0000000+00:00</time></trkpt><trkpt lat="34.9199" lon="33.6171709"><ele>23.1</ele><time>2015-05-01T15:37:15.0000000+00:00</time></trkpt><trkpt lat="34.9198587" lon="33.6172235"><ele>23.6</ele><time>2015-05-01T15:37:16.0000000+00:00</time></trkpt><trkpt lat="34.9198216" lon="33.6172822"><ele>23.8</ele><time>2015-05-01T15:37:17.0000000+00:00</time></trkpt><trkpt lat="34.9197936" lon="33.6173426"><ele>23.9</ele><time>2015-05-01T15:37:18.0000000+00:00</time></trkpt><trkpt lat="34.9197596" lon="33.6173992"><ele>24.0</ele><time>2015-05-01T15:37:19.0000000+00:00</time></trkpt><trkpt lat="34.9197218" lon="33.6174648"><ele>24.0</ele><time>2015-05-01T15:37:20.0000000+00:00</time></trkpt><trkpt lat="34.919685" lon="33.6175256"><ele>24.0</ele><time>2015-05-01T15:37:21.0000000+00:00</time></trkpt><trkpt lat="34.9196462" lon="33.6175907"><ele>23.5</ele><time>2015-05-01T15:37:22.0000000+00:00</time></trkpt><trkpt lat="34.9196078" lon="33.6176519"><ele>23.3</ele><time>2015-05-01T15:37:23.0000000+00:00</time></trkpt><trkpt lat="34.9195622" lon="33.6177153"><ele>23.1</ele><time>2015-05-01T15:37:24.0000000+00:00</time></trkpt><trkpt lat="34.9195201" lon="33.617778"><ele>22.6</ele><time>2015-05-01T15:37:25.0000000+00:00</time></trkpt><trkpt lat="34.9194804" lon="33.6178424"><ele>22.3</ele><time>2015-05-01T15:37:26.0000000+00:00</time></trkpt><trkpt lat="34.9194382" lon="33.6179021"><ele>22.7</ele><time>2015-05-01T15:37:27.0000000+00:00</time></trkpt><trkpt lat="34.9193997" lon="33.6179708"><ele>22.8</ele><time>2015-05-01T15:37:28.0000000+00:00</time></trkpt><trkpt lat="34.9193601" lon="33.6180358"><ele>22.4</ele><time>2015-05-01T15:37:29.0000000+00:00</time></trkpt><trkpt lat="34.9193214" lon="33.6181032"><ele>22.7</ele><time>2015-05-01T15:37:30.0000000+00:00</time></trkpt><trkpt lat="34.9192851" lon="33.6181644"><ele>22.4</ele><time>2015-05-01T15:37:31.0000000+00:00</time></trkpt><trkpt lat="34.9192452" lon="33.6182276"><ele>22.2</ele><time>2015-05-01T15:37:32.0000000+00:00</time></trkpt><trkpt lat="34.9192081" lon="33.6182854"><ele>22.1</ele><time>2015-05-01T15:37:33.0000000+00:00</time></trkpt><trkpt lat="34.919175" lon="33.6183456"><ele>22.6</ele><time>2015-05-01T15:37:34.0000000+00:00</time></trkpt><trkpt lat="34.919144" lon="33.6184088"><ele>22.8</ele><time>2015-05-01T15:37:35.0000000+00:00</time></trkpt><trkpt lat="34.9191056" lon="33.6184693"><ele>22.9</ele><time>2015-05-01T15:37:36.0000000+00:00</time></trkpt><trkpt lat="34.9190673" lon="33.618528"><ele>22.5</ele><time>2015-05-01T15:37:37.0000000+00:00</time></trkpt><trkpt lat="34.9190288" lon="33.618585"><ele>22.2</ele><time>2015-05-01T15:37:38.0000000+00:00</time></trkpt><trkpt lat="34.918996" lon="33.6186453"><ele>22.1</ele><time>2015-05-01T15:37:39.0000000+00:00</time></trkpt><trkpt lat="34.9189531" lon="33.6187063"><ele>22.6</ele><time>2015-05-01T15:37:40.0000000+00:00</time></trkpt><trkpt lat="34.9189207" lon="33.6187643"><ele>22.8</ele><time>2015-05-01T15:37:41.0000000+00:00</time></trkpt><trkpt lat="34.9188921" lon="33.6188212"><ele>22.9</ele><time>2015-05-01T15:37:42.0000000+00:00</time></trkpt><trkpt lat="34.9188675" lon="33.6188772"><ele>22.5</ele><time>2015-05-01T15:37:43.0000000+00:00</time></trkpt><trkpt lat="34.9188366" lon="33.6189304"><ele>22.2</ele><time>2015-05-01T15:37:44.0000000+00:00</time></trkpt><trkpt lat="34.9187987" lon="33.618987"><ele>22.1</ele><time>2015-05-01T15:37:45.0000000+00:00</time></trkpt><trkpt lat="34.9187672" lon="33.6190428"><ele>21.6</ele><time>2015-05-01T15:37:46.0000000+00:00</time></trkpt><trkpt lat="34.9187368" lon="33.6191072"><ele>21.3</ele><time>2015-05-01T15:37:47.0000000+00:00</time></trkpt><trkpt lat="34.9186992" lon="33.619172"><ele>21.7</ele><time>2015-05-01T15:37:48.0000000+00:00</time></trkpt><trkpt lat="34.9186619" lon="33.6192367"><ele>21.8</ele><time>2015-05-01T15:37:49.0000000+00:00</time></trkpt><trkpt lat="34.9186267" lon="33.6192964"><ele>21.9</ele><time>2015-05-01T15:37:50.0000000+00:00</time></trkpt><trkpt lat="34.9185898" lon="33.6193584"><ele>22.0</ele><time>2015-05-01T15:37:51.0000000+00:00</time></trkpt><trkpt lat="34.9185522" lon="33.6194232"><ele>22.5</ele><time>2015-05-01T15:37:52.0000000+00:00</time></trkpt><trkpt lat="34.918522" lon="33.6194881"><ele>22.3</ele><time>2015-05-01T15:37:53.0000000+00:00</time></trkpt><trkpt lat="34.9184906" lon="33.619556"><ele>22.1</ele><time>2015-05-01T15:37:54.0000000+00:00</time></trkpt><trkpt lat="34.9184623" lon="33.6196171"><ele>22.1</ele><time>2015-05-01T15:37:55.0000000+00:00</time></trkpt><trkpt lat="34.9184337" lon="33.6196865"><ele>22.6</ele><time>2015-05-01T15:37:56.0000000+00:00</time></trkpt><trkpt lat="34.9184034" lon="33.6197553"><ele>22.8</ele><time>2015-05-01T15:37:57.0000000+00:00</time></trkpt><trkpt lat="34.9183745" lon="33.619822"><ele>22.9</ele><time>2015-05-01T15:37:58.0000000+00:00</time></trkpt><trkpt lat="34.9183509" lon="33.6198832"><ele>23.0</ele><time>2015-05-01T15:37:59.0000000+00:00</time></trkpt><trkpt lat="34.9183271" lon="33.6199498"><ele>23.0</ele><time>2015-05-01T15:38:01.0000000+00:00</time></trkpt><trkpt lat="34.9182938" lon="33.620009"><ele>24.2</ele><time>2015-05-01T15:38:20.0000000+00:00</time></trkpt><trkpt lat="34.9182768" lon="33.6200747"><ele>24.6</ele><time>2015-05-01T15:38:22.0000000+00:00</time></trkpt><trkpt lat="34.9182575" lon="33.62016"><ele>24.2</ele><time>2015-05-01T15:38:24.0000000+00:00</time></trkpt><trkpt lat="34.9182183" lon="33.620249"><ele>23.8</ele><time>2015-05-01T15:38:26.0000000+00:00</time></trkpt><trkpt lat="34.9181834" lon="33.6203512"><ele>24.0</ele><time>2015-05-01T15:38:28.0000000+00:00</time></trkpt><trkpt lat="34.9181682" lon="33.6204094"><ele>24.0</ele><time>2015-05-01T15:38:29.0000000+00:00</time></trkpt><trkpt lat="34.9181486" lon="33.6204705"><ele>24.0</ele><time>2015-05-01T15:38:30.0000000+00:00</time></trkpt><trkpt lat="34.9181231" lon="33.6205245"><ele>24.5</ele><time>2015-05-01T15:38:31.0000000+00:00</time></trkpt><trkpt lat="34.9181002" lon="33.6205894"><ele>24.8</ele><time>2015-05-01T15:38:32.0000000+00:00</time></trkpt><trkpt lat="34.9180834" lon="33.6206485"><ele>24.9</ele><time>2015-05-01T15:38:33.0000000+00:00</time></trkpt><trkpt lat="34.9180659" lon="33.6207093"><ele>25.0</ele><time>2015-05-01T15:38:34.0000000+00:00</time></trkpt><trkpt lat="34.9180419" lon="33.6207659"><ele>24.5</ele><time>2015-05-01T15:38:35.0000000+00:00</time></trkpt><trkpt lat="34.9180201" lon="33.6208257"><ele>24.8</ele><time>2015-05-01T15:38:36.0000000+00:00</time></trkpt><trkpt lat="34.9179977" lon="33.6208845"><ele>24.9</ele><time>2015-05-01T15:38:37.0000000+00:00</time></trkpt><trkpt lat="34.91798" lon="33.6209472"><ele>24.5</ele><time>2015-05-01T15:38:38.0000000+00:00</time></trkpt><trkpt lat="34.9179591" lon="33.6210032"><ele>24.2</ele><time>2015-05-01T15:38:39.0000000+00:00</time></trkpt><trkpt lat="34.9179343" lon="33.621063"><ele>24.1</ele><time>2015-05-01T15:38:40.0000000+00:00</time></trkpt><trkpt lat="34.9179132" lon="33.6211158"><ele>24.1</ele><time>2015-05-01T15:38:41.0000000+00:00</time></trkpt><trkpt lat="34.9178966" lon="33.6211719"><ele>23.5</ele><time>2015-05-01T15:38:42.0000000+00:00</time></trkpt><trkpt lat="34.9178561" lon="33.6212692"><ele>23.7</ele><time>2015-05-01T15:38:44.0000000+00:00</time></trkpt><trkpt lat="34.9178372" lon="33.6213267"><ele>23.8</ele><time>2015-05-01T15:38:45.0000000+00:00</time></trkpt><trkpt lat="34.9178194" lon="33.6213878"><ele>23.9</ele><time>2015-05-01T15:38:46.0000000+00:00</time></trkpt><trkpt lat="34.9178044" lon="33.621442"><ele>23.5</ele><time>2015-05-01T15:38:47.0000000+00:00</time></trkpt><trkpt lat="34.9177877" lon="33.6214933"><ele>22.7</ele><time>2015-05-01T15:38:48.0000000+00:00</time></trkpt><trkpt lat="34.9177695" lon="33.6215452"><ele>22.4</ele><time>2015-05-01T15:38:49.0000000+00:00</time></trkpt><trkpt lat="34.9177485" lon="33.6215981"><ele>22.2</ele><time>2015-05-01T15:38:50.0000000+00:00</time></trkpt><trkpt lat="34.9177295" lon="33.6216534"><ele>21.6</ele><time>2015-05-01T15:38:51.0000000+00:00</time></trkpt><trkpt lat="34.9177093" lon="33.6217116"><ele>21.3</ele><time>2015-05-01T15:38:52.0000000+00:00</time></trkpt><trkpt lat="34.9176866" lon="33.6217719"><ele>21.2</ele><time>2015-05-01T15:38:53.0000000+00:00</time></trkpt><trkpt lat="34.9176698" lon="33.6218306"><ele>21.6</ele><time>2015-05-01T15:38:54.0000000+00:00</time></trkpt><trkpt lat="34.917646" lon="33.6218918"><ele>21.8</ele><time>2015-05-01T15:38:55.0000000+00:00</time></trkpt><trkpt lat="34.9176203" lon="33.6219628"><ele>21.4</ele><time>2015-05-01T15:38:56.0000000+00:00</time></trkpt><trkpt lat="34.917598" lon="33.6220328"><ele>21.2</ele><time>2015-05-01T15:38:57.0000000+00:00</time></trkpt><trkpt lat="34.9175761" lon="33.6220961"><ele>21.6</ele><time>2015-05-01T15:38:58.0000000+00:00</time></trkpt><trkpt lat="34.9175515" lon="33.6221631"><ele>21.8</ele><time>2015-05-01T15:38:59.0000000+00:00</time></trkpt><trkpt lat="34.9175273" lon="33.6222327"><ele>21.9</ele><time>2015-05-01T15:39:00.0000000+00:00</time></trkpt><trkpt lat="34.9175069" lon="33.622306"><ele>22.0</ele><time>2015-05-01T15:39:01.0000000+00:00</time></trkpt><trkpt lat="34.9174811" lon="33.6223807"><ele>21.5</ele><time>2015-05-01T15:39:02.0000000+00:00</time></trkpt><trkpt lat="34.917454" lon="33.6224487"><ele>21.8</ele><time>2015-05-01T15:39:03.0000000+00:00</time></trkpt><trkpt lat="34.9174236" lon="33.622525"><ele>21.4</ele><time>2015-05-01T15:39:04.0000000+00:00</time></trkpt><trkpt lat="34.9174008" lon="33.622599"><ele>21.7</ele><time>2015-05-01T15:39:05.0000000+00:00</time></trkpt><trkpt lat="34.9173716" lon="33.6226793"><ele>21.4</ele><time>2015-05-01T15:39:06.0000000+00:00</time></trkpt><trkpt lat="34.917345" lon="33.6227543"><ele>21.2</ele><time>2015-05-01T15:39:07.0000000+00:00</time></trkpt><trkpt lat="34.9173222" lon="33.6228316"><ele>21.1</ele><time>2015-05-01T15:39:08.0000000+00:00</time></trkpt><trkpt lat="34.9172996" lon="33.6229108"><ele>20.6</ele><time>2015-05-01T15:39:09.0000000+00:00</time></trkpt><trkpt lat="34.9172759" lon="33.6229862"><ele>20.3</ele><time>2015-05-01T15:39:10.0000000+00:00</time></trkpt><trkpt lat="34.9172468" lon="33.623058"><ele>20.2</ele><time>2015-05-01T15:39:11.0000000+00:00</time></trkpt><trkpt lat="34.917219" lon="33.6231355"><ele>20.1</ele><time>2015-05-01T15:39:12.0000000+00:00</time></trkpt><trkpt lat="34.9171931" lon="33.6232121"><ele>20.1</ele><time>2015-05-01T15:39:13.0000000+00:00</time></trkpt><trkpt lat="34.9171636" lon="33.623289"><ele>20.5</ele><time>2015-05-01T15:39:14.0000000+00:00</time></trkpt><trkpt lat="34.9171401" lon="33.6233656"><ele>20.3</ele><time>2015-05-01T15:39:15.0000000+00:00</time></trkpt><trkpt lat="34.9171125" lon="33.6234448"><ele>19.7</ele><time>2015-05-01T15:39:16.0000000+00:00</time></trkpt><trkpt lat="34.9170884" lon="33.6235195"><ele>19.3</ele><time>2015-05-01T15:39:17.0000000+00:00</time></trkpt><trkpt lat="34.9170544" lon="33.6235933"><ele>18.7</ele><time>2015-05-01T15:39:18.0000000+00:00</time></trkpt><trkpt lat="34.9170255" lon="33.6236569"><ele>18.3</ele><time>2015-05-01T15:39:19.0000000+00:00</time></trkpt><trkpt lat="34.9169963" lon="33.6237299"><ele>17.7</ele><time>2015-05-01T15:39:20.0000000+00:00</time></trkpt><trkpt lat="34.916967" lon="33.6237976"><ele>17.4</ele><time>2015-05-01T15:39:21.0000000+00:00</time></trkpt><trkpt lat="34.9169361" lon="33.6238679"><ele>17.2</ele><time>2015-05-01T15:39:22.0000000+00:00</time></trkpt><trkpt lat="34.9169058" lon="33.6239334"><ele>17.6</ele><time>2015-05-01T15:39:23.0000000+00:00</time></trkpt><trkpt lat="34.916873" lon="33.6239992"><ele>17.3</ele><time>2015-05-01T15:39:24.0000000+00:00</time></trkpt><trkpt lat="34.9168369" lon="33.6240724"><ele>17.2</ele><time>2015-05-01T15:39:25.0000000+00:00</time></trkpt><trkpt lat="34.9167947" lon="33.6241416"><ele>17.6</ele><time>2015-05-01T15:39:26.0000000+00:00</time></trkpt><trkpt lat="34.9167605" lon="33.6242089"><ele>18.3</ele><time>2015-05-01T15:39:27.0000000+00:00</time></trkpt><trkpt lat="34.9167255" lon="33.6242827"><ele>18.7</ele><time>2015-05-01T15:39:28.0000000+00:00</time></trkpt><trkpt lat="34.9166912" lon="33.6243523"><ele>18.8</ele><time>2015-05-01T15:39:29.0000000+00:00</time></trkpt><trkpt lat="34.916656" lon="33.6244245"><ele>18.9</ele><time>2015-05-01T15:39:30.0000000+00:00</time></trkpt><trkpt lat="34.9166193" lon="33.6244965"><ele>19.0</ele><time>2015-05-01T15:39:31.0000000+00:00</time></trkpt><trkpt lat="34.9165796" lon="33.6245667"><ele>19.0</ele><time>2015-05-01T15:39:32.0000000+00:00</time></trkpt><trkpt lat="34.9165456" lon="33.6246432"><ele>18.5</ele><time>2015-05-01T15:39:33.0000000+00:00</time></trkpt><trkpt lat="34.9165122" lon="33.6247178"><ele>18.3</ele><time>2015-05-01T15:39:34.0000000+00:00</time></trkpt><trkpt lat="34.9164832" lon="33.6247968"><ele>18.1</ele><time>2015-05-01T15:39:35.0000000+00:00</time></trkpt><trkpt lat="34.9164526" lon="33.6248762"><ele>18.1</ele><time>2015-05-01T15:39:36.0000000+00:00</time></trkpt><trkpt lat="34.9164272" lon="33.624955"><ele>18.1</ele><time>2015-05-01T15:39:37.0000000+00:00</time></trkpt><trkpt lat="34.9164041" lon="33.6250267"><ele>18.0</ele><time>2015-05-01T15:39:38.0000000+00:00</time></trkpt><trkpt lat="34.9164059" lon="33.6251264"><ele>18.0</ele><time>2015-05-01T15:39:40.0000000+00:00</time></trkpt><trkpt lat="34.9163965" lon="33.625182"><ele>18.0</ele><time>2015-05-01T15:39:41.0000000+00:00</time></trkpt><trkpt lat="34.9163611" lon="33.6252676"><ele>17.8</ele><time>2015-05-01T15:39:43.0000000+00:00</time></trkpt><trkpt lat="34.9163265" lon="33.6253094"><ele>17.9</ele><time>2015-05-01T15:39:44.0000000+00:00</time></trkpt><trkpt lat="34.9162832" lon="33.6253415"><ele>17.5</ele><time>2015-05-01T15:39:45.0000000+00:00</time></trkpt><trkpt lat="34.9162362" lon="33.6253739"><ele>17.2</ele><time>2015-05-01T15:39:46.0000000+00:00</time></trkpt><trkpt lat="34.9161882" lon="33.6254012"><ele>17.1</ele><time>2015-05-01T15:39:47.0000000+00:00</time></trkpt><trkpt lat="34.9161412" lon="33.6254515"><ele>17.1</ele><time>2015-05-01T15:39:48.0000000+00:00</time></trkpt><trkpt lat="34.9161086" lon="33.6255109"><ele>17.0</ele><time>2015-05-01T15:39:49.0000000+00:00</time></trkpt><trkpt lat="34.9160821" lon="33.6255807"><ele>17.0</ele><time>2015-05-01T15:39:50.0000000+00:00</time></trkpt><trkpt lat="34.9160505" lon="33.6256501"><ele>17.0</ele><time>2015-05-01T15:39:51.0000000+00:00</time></trkpt><trkpt lat="34.9160225" lon="33.6257184"><ele>17.0</ele><time>2015-05-01T15:39:52.0000000+00:00</time></trkpt><trkpt lat="34.9159916" lon="33.625785"><ele>17.5</ele><time>2015-05-01T15:39:53.0000000+00:00</time></trkpt><trkpt lat="34.9159637" lon="33.625853"><ele>17.3</ele><time>2015-05-01T15:39:54.0000000+00:00</time></trkpt><trkpt lat="34.9159312" lon="33.6259237"><ele>17.1</ele><time>2015-05-01T15:39:55.0000000+00:00</time></trkpt><trkpt lat="34.9158989" lon="33.6259955"><ele>17.1</ele><time>2015-05-01T15:39:56.0000000+00:00</time></trkpt><trkpt lat="34.9158665" lon="33.626067"><ele>17.1</ele><time>2015-05-01T15:39:57.0000000+00:00</time></trkpt><trkpt lat="34.915837" lon="33.6261416"><ele>17.0</ele><time>2015-05-01T15:39:58.0000000+00:00</time></trkpt><trkpt lat="34.9158056" lon="33.6262123"><ele>17.0</ele><time>2015-05-01T15:39:59.0000000+00:00</time></trkpt><trkpt lat="34.9157752" lon="33.6262864"><ele>17.0</ele><time>2015-05-01T15:40:00.0000000+00:00</time></trkpt><trkpt lat="34.9157394" lon="33.6263582"><ele>17.5</ele><time>2015-05-01T15:40:01.0000000+00:00</time></trkpt><trkpt lat="34.9157126" lon="33.6264312"><ele>17.8</ele><time>2015-05-01T15:40:02.0000000+00:00</time></trkpt><trkpt lat="34.9156848" lon="33.6265046"><ele>17.4</ele><time>2015-05-01T15:40:03.0000000+00:00</time></trkpt><trkpt lat="34.915657" lon="33.6265714"><ele>17.7</ele><time>2015-05-01T15:40:04.0000000+00:00</time></trkpt><trkpt lat="34.9156302" lon="33.6266369"><ele>17.4</ele><time>2015-05-01T15:40:05.0000000+00:00</time></trkpt><trkpt lat="34.9155988" lon="33.6266987"><ele>17.7</ele><time>2015-05-01T15:40:06.0000000+00:00</time></trkpt><trkpt lat="34.9155806" lon="33.626761"><ele>17.4</ele><time>2015-05-01T15:40:07.0000000+00:00</time></trkpt><trkpt lat="34.9155556" lon="33.6268252"><ele>17.2</ele><time>2015-05-01T15:40:08.0000000+00:00</time></trkpt><trkpt lat="34.9155329" lon="33.6268859"><ele>17.1</ele><time>2015-05-01T15:40:09.0000000+00:00</time></trkpt><trkpt lat="34.9155118" lon="33.6269419"><ele>17.1</ele><time>2015-05-01T15:40:10.0000000+00:00</time></trkpt><trkpt lat="34.9154886" lon="33.6270073"><ele>17.0</ele><time>2015-05-01T15:40:11.0000000+00:00</time></trkpt><trkpt lat="34.9154691" lon="33.6270741"><ele>17.0</ele><time>2015-05-01T15:40:12.0000000+00:00</time></trkpt><trkpt lat="34.915466" lon="33.6271368"><ele>16.5</ele><time>2015-05-01T15:40:13.0000000+00:00</time></trkpt><trkpt lat="34.9154673" lon="33.6272488"><ele>16.4</ele><time>2015-05-01T15:40:15.0000000+00:00</time></trkpt><trkpt lat="34.9154444" lon="33.6272993"><ele>16.2</ele><time>2015-05-01T15:40:16.0000000+00:00</time></trkpt><trkpt lat="34.9154302" lon="33.6273572"><ele>15.6</ele><time>2015-05-01T15:40:17.0000000+00:00</time></trkpt><trkpt lat="34.9154054" lon="33.6274125"><ele>15.8</ele><time>2015-05-01T15:40:18.0000000+00:00</time></trkpt><trkpt lat="34.9153881" lon="33.6274672"><ele>15.9</ele><time>2015-05-01T15:40:19.0000000+00:00</time></trkpt><trkpt lat="34.9153758" lon="33.6275324"><ele>16.0</ele><time>2015-05-01T15:40:20.0000000+00:00</time></trkpt><trkpt lat="34.9153526" lon="33.6275879"><ele>16.0</ele><time>2015-05-01T15:40:21.0000000+00:00</time></trkpt><trkpt lat="34.9153351" lon="33.6276517"><ele>16.0</ele><time>2015-05-01T15:40:22.0000000+00:00</time></trkpt><trkpt lat="34.9153019" lon="33.6276997"><ele>16.5</ele><time>2015-05-01T15:40:23.0000000+00:00</time></trkpt><trkpt lat="34.915284" lon="33.6277712"><ele>16.8</ele><time>2015-05-01T15:40:24.0000000+00:00</time></trkpt><trkpt lat="34.9152654" lon="33.6278428"><ele>16.4</ele><time>2015-05-01T15:40:25.0000000+00:00</time></trkpt><trkpt lat="34.9152493" lon="33.6279167"><ele>16.2</ele><time>2015-05-01T15:40:26.0000000+00:00</time></trkpt><trkpt lat="34.9152193" lon="33.627996"><ele>15.6</ele><time>2015-05-01T15:40:27.0000000+00:00</time></trkpt><trkpt lat="34.9151962" lon="33.6280726"><ele>15.3</ele><time>2015-05-01T15:40:28.0000000+00:00</time></trkpt><trkpt lat="34.9151672" lon="33.6281388"><ele>16.2</ele><time>2015-05-01T15:40:29.0000000+00:00</time></trkpt><trkpt lat="34.9151359" lon="33.628209"><ele>16.1</ele><time>2015-05-01T15:40:30.0000000+00:00</time></trkpt><trkpt lat="34.9151119" lon="33.6282854"><ele>16.1</ele><time>2015-05-01T15:40:31.0000000+00:00</time></trkpt><trkpt lat="34.9150809" lon="33.6283599"><ele>16.5</ele><time>2015-05-01T15:40:32.0000000+00:00</time></trkpt><trkpt lat="34.9150683" lon="33.628433"><ele>15.8</ele><time>2015-05-01T15:40:33.0000000+00:00</time></trkpt><trkpt lat="34.9150328" lon="33.6285014"><ele>15.9</ele><time>2015-05-01T15:40:34.0000000+00:00</time></trkpt><trkpt lat="34.9149984" lon="33.6285681"><ele>16.5</ele><time>2015-05-01T15:40:35.0000000+00:00</time></trkpt><trkpt lat="34.9149654" lon="33.6286416"><ele>16.7</ele><time>2015-05-01T15:40:36.0000000+00:00</time></trkpt><trkpt lat="34.9149335" lon="33.6287152"><ele>16.9</ele><time>2015-05-01T15:40:37.0000000+00:00</time></trkpt><trkpt lat="34.9149032" lon="33.628791"><ele>17.0</ele><time>2015-05-01T15:40:38.0000000+00:00</time></trkpt><trkpt lat="34.9148662" lon="33.628862"><ele>17.5</ele><time>2015-05-01T15:40:39.0000000+00:00</time></trkpt><trkpt lat="34.9148363" lon="33.6289346"><ele>17.3</ele><time>2015-05-01T15:40:40.0000000+00:00</time></trkpt><trkpt lat="34.9148008" lon="33.6290024"><ele>16.6</ele><time>2015-05-01T15:40:41.0000000+00:00</time></trkpt><trkpt lat="34.9147673" lon="33.6290785"><ele>16.8</ele><time>2015-05-01T15:40:42.0000000+00:00</time></trkpt><trkpt lat="34.9147277" lon="33.629157"><ele>16.4</ele><time>2015-05-01T15:40:43.0000000+00:00</time></trkpt><trkpt lat="34.9147052" lon="33.6292342"><ele>15.7</ele><time>2015-05-01T15:40:44.0000000+00:00</time></trkpt><trkpt lat="34.9146572" lon="33.6293156"><ele>15.4</ele><time>2015-05-01T15:40:45.0000000+00:00</time></trkpt><trkpt lat="34.9146364" lon="33.6293962"><ele>15.7</ele><time>2015-05-01T15:40:46.0000000+00:00</time></trkpt><trkpt lat="34.914608" lon="33.6294679"><ele>16.4</ele><time>2015-05-01T15:40:47.0000000+00:00</time></trkpt><trkpt lat="34.914573" lon="33.6295515"><ele>16.2</ele><time>2015-05-01T15:40:48.0000000+00:00</time></trkpt><trkpt lat="34.9145386" lon="33.6296255"><ele>16.6</ele><time>2015-05-01T15:40:49.0000000+00:00</time></trkpt><trkpt lat="34.9145142" lon="33.6296783"><ele>16.3</ele><time>2015-05-01T15:40:50.0000000+00:00</time></trkpt><trkpt lat="34.9145" lon="33.6297319"><ele>16.2</ele><time>2015-05-01T15:40:51.0000000+00:00</time></trkpt><trkpt lat="34.914478" lon="33.6297861"><ele>16.1</ele><time>2015-05-01T15:40:52.0000000+00:00</time></trkpt><trkpt lat="34.9144515" lon="33.6298793"><ele>15.0</ele><time>2015-05-01T15:40:54.0000000+00:00</time></trkpt><trkpt lat="34.9144468" lon="33.6299395"><ele>15.0</ele><time>2015-05-01T15:40:55.0000000+00:00</time></trkpt><trkpt lat="34.9144308" lon="33.6300064"><ele>14.5</ele><time>2015-05-01T15:40:56.0000000+00:00</time></trkpt><trkpt lat="34.9144215" lon="33.6300621"><ele>14.3</ele><time>2015-05-01T15:40:57.0000000+00:00</time></trkpt><trkpt lat="34.9144014" lon="33.6301232"><ele>14.6</ele><time>2015-05-01T15:40:58.0000000+00:00</time></trkpt><trkpt lat="34.9143901" lon="33.6301913"><ele>14.3</ele><time>2015-05-01T15:40:59.0000000+00:00</time></trkpt><trkpt lat="34.9143747" lon="33.6302566"><ele>14.7</ele><time>2015-05-01T15:41:00.0000000+00:00</time></trkpt><trkpt lat="34.9143688" lon="33.6303233"><ele>14.8</ele><time>2015-05-01T15:41:01.0000000+00:00</time></trkpt><trkpt lat="34.9143676" lon="33.630381"><ele>14.9</ele><time>2015-05-01T15:41:02.0000000+00:00</time></trkpt><trkpt lat="34.9143627" lon="33.6305035"><ele>15.0</ele><time>2015-05-01T15:41:04.0000000+00:00</time></trkpt><trkpt lat="34.9143537" lon="33.6305715"><ele>14.5</ele><time>2015-05-01T15:41:05.0000000+00:00</time></trkpt><trkpt lat="34.9143394" lon="33.6306699"><ele>14.1</ele><time>2015-05-01T15:41:07.0000000+00:00</time></trkpt><trkpt lat="34.9143003" lon="33.6307326"><ele>19.0</ele><time>2015-05-01T15:41:20.0000000+00:00</time></trkpt><trkpt lat="34.9142788" lon="33.6308054"><ele>17.4</ele><time>2015-05-01T15:41:23.0000000+00:00</time></trkpt><trkpt lat="34.9142551" lon="33.6308775"><ele>16.6</ele><time>2015-05-01T15:41:25.0000000+00:00</time></trkpt><trkpt lat="34.9142222" lon="33.6309718"><ele>15.4</ele><time>2015-05-01T15:41:27.0000000+00:00</time></trkpt><trkpt lat="34.9141976" lon="33.6310282"><ele>15.7</ele><time>2015-05-01T15:41:28.0000000+00:00</time></trkpt><trkpt lat="34.9141591" lon="33.6310959"><ele>15.4</ele><time>2015-05-01T15:41:29.0000000+00:00</time></trkpt><trkpt lat="34.9141292" lon="33.6311512"><ele>14.7</ele><time>2015-05-01T15:41:30.0000000+00:00</time></trkpt><trkpt lat="34.9141016" lon="33.6312036"><ele>14.4</ele><time>2015-05-01T15:41:31.0000000+00:00</time></trkpt><trkpt lat="34.9140599" lon="33.6312602"><ele>13.7</ele><time>2015-05-01T15:41:32.0000000+00:00</time></trkpt><trkpt lat="34.9140259" lon="33.6313163"><ele>13.4</ele><time>2015-05-01T15:41:33.0000000+00:00</time></trkpt><trkpt lat="34.9139937" lon="33.6313747"><ele>13.2</ele><time>2015-05-01T15:41:34.0000000+00:00</time></trkpt><trkpt lat="34.9139545" lon="33.6314241"><ele>12.6</ele><time>2015-05-01T15:41:35.0000000+00:00</time></trkpt><trkpt lat="34.9139162" lon="33.6314838"><ele>12.3</ele><time>2015-05-01T15:41:36.0000000+00:00</time></trkpt><trkpt lat="34.9138819" lon="33.6315377"><ele>11.7</ele><time>2015-05-01T15:41:37.0000000+00:00</time></trkpt><trkpt lat="34.9138505" lon="33.6315877"><ele>11.3</ele><time>2015-05-01T15:41:38.0000000+00:00</time></trkpt><trkpt lat="34.9137971" lon="33.6316545"><ele>11.1</ele><time>2015-05-01T15:41:40.0000000+00:00</time></trkpt><trkpt lat="34.913718" lon="33.631664"><ele>10.5</ele><time>2015-05-01T15:41:42.0000000+00:00</time></trkpt><trkpt lat="34.91364" lon="33.631668"><ele>8.9</ele><time>2015-05-01T15:41:44.0000000+00:00</time></trkpt><trkpt lat="34.9135858" lon="33.6316681"><ele>8.5</ele><time>2015-05-01T15:41:45.0000000+00:00</time></trkpt><trkpt lat="34.9135259" lon="33.6316855"><ele>8.2</ele><time>2015-05-01T15:41:46.0000000+00:00</time></trkpt><trkpt lat="34.9134828" lon="33.6317018"><ele>7.6</ele><time>2015-05-01T15:41:47.0000000+00:00</time></trkpt><trkpt lat="34.9134253" lon="33.6317057"><ele>7.3</ele><time>2015-05-01T15:41:48.0000000+00:00</time></trkpt><trkpt lat="34.9133728" lon="33.6317079"><ele>6.7</ele><time>2015-05-01T15:41:49.0000000+00:00</time></trkpt><trkpt lat="34.9133175" lon="33.6317232"><ele>6.8</ele><time>2015-05-01T15:41:50.0000000+00:00</time></trkpt><trkpt lat="34.9132656" lon="33.631745"><ele>6.9</ele><time>2015-05-01T15:41:51.0000000+00:00</time></trkpt><trkpt lat="34.9132132" lon="33.6317709"><ele>7.5</ele><time>2015-05-01T15:41:52.0000000+00:00</time></trkpt><trkpt lat="34.913156" lon="33.6318117"><ele>8.2</ele><time>2015-05-01T15:41:53.0000000+00:00</time></trkpt><trkpt lat="34.9131025" lon="33.6318445"><ele>8.6</ele><time>2015-05-01T15:41:54.0000000+00:00</time></trkpt><trkpt lat="34.9130529" lon="33.6318821"><ele>9.3</ele><time>2015-05-01T15:41:55.0000000+00:00</time></trkpt><trkpt lat="34.9129907" lon="33.6319203"><ele>9.7</ele><time>2015-05-01T15:41:56.0000000+00:00</time></trkpt><trkpt lat="34.9129362" lon="33.6319537"><ele>9.8</ele><time>2015-05-01T15:41:57.0000000+00:00</time></trkpt><trkpt lat="34.9128825" lon="33.6319909"><ele>9.4</ele><time>2015-05-01T15:41:58.0000000+00:00</time></trkpt><trkpt lat="34.912834" lon="33.6320246"><ele>8.7</ele><time>2015-05-01T15:41:59.0000000+00:00</time></trkpt><trkpt lat="34.9127714" lon="33.6320669"><ele>7.9</ele><time>2015-05-01T15:42:00.0000000+00:00</time></trkpt><trkpt lat="34.9127192" lon="33.6321097"><ele>6.9</ele><time>2015-05-01T15:42:01.0000000+00:00</time></trkpt><trkpt lat="34.912673" lon="33.6321499"><ele>6.5</ele><time>2015-05-01T15:42:02.0000000+00:00</time></trkpt><trkpt lat="34.912625" lon="33.6321852"><ele>6.3</ele><time>2015-05-01T15:42:03.0000000+00:00</time></trkpt><trkpt lat="34.9125762" lon="33.6322182"><ele>6.1</ele><time>2015-05-01T15:42:04.0000000+00:00</time></trkpt><trkpt lat="34.912528" lon="33.6322501"><ele>6.1</ele><time>2015-05-01T15:42:05.0000000+00:00</time></trkpt><trkpt lat="34.9124756" lon="33.6322903"><ele>6.0</ele><time>2015-05-01T15:42:06.0000000+00:00</time></trkpt><trkpt lat="34.9124236" lon="33.6323225"><ele>6.5</ele><time>2015-05-01T15:42:07.0000000+00:00</time></trkpt><trkpt lat="34.9123739" lon="33.6323507"><ele>6.8</ele><time>2015-05-01T15:42:08.0000000+00:00</time></trkpt><trkpt lat="34.9123236" lon="33.6323698"><ele>6.9</ele><time>2015-05-01T15:42:09.0000000+00:00</time></trkpt><trkpt lat="34.9122678" lon="33.632399"><ele>7.0</ele><time>2015-05-01T15:42:10.0000000+00:00</time></trkpt><trkpt lat="34.9122192" lon="33.6324297"><ele>7.0</ele><time>2015-05-01T15:42:11.0000000+00:00</time></trkpt><trkpt lat="34.912165" lon="33.6324618"><ele>6.5</ele><time>2015-05-01T15:42:12.0000000+00:00</time></trkpt><trkpt lat="34.9121117" lon="33.6324815"><ele>6.8</ele><time>2015-05-01T15:42:13.0000000+00:00</time></trkpt><trkpt lat="34.9120652" lon="33.6325123"><ele>6.9</ele><time>2015-05-01T15:42:14.0000000+00:00</time></trkpt><trkpt lat="34.9120222" lon="33.632542"><ele>7.0</ele><time>2015-05-01T15:42:15.0000000+00:00</time></trkpt><trkpt lat="34.9119363" lon="33.6325878"><ele>7.8</ele><time>2015-05-01T15:42:17.0000000+00:00</time></trkpt><trkpt lat="34.9118923" lon="33.6326067"><ele>7.4</ele><time>2015-05-01T15:42:18.0000000+00:00</time></trkpt><trkpt lat="34.911818" lon="33.632658"><ele>7.9</ele><time>2015-05-01T15:42:20.0000000+00:00</time></trkpt><trkpt lat="34.9117668" lon="33.6327092"><ele>6.7</ele><time>2015-05-01T15:42:22.0000000+00:00</time></trkpt><trkpt lat="34.911751" lon="33.6327664"><ele>5.7</ele><time>2015-05-01T15:42:24.0000000+00:00</time></trkpt><trkpt lat="34.9117578" lon="33.6328458"><ele>5.2</ele><time>2015-05-01T15:42:26.0000000+00:00</time></trkpt><trkpt lat="34.9117667" lon="33.6329433"><ele>5.6</ele><time>2015-05-01T15:42:28.0000000+00:00</time></trkpt><trkpt lat="34.9117738" lon="33.6330623"><ele>5.4</ele><time>2015-05-01T15:42:30.0000000+00:00</time></trkpt><trkpt lat="34.9117731" lon="33.6331652"><ele>5.1</ele><time>2015-05-01T15:42:32.0000000+00:00</time></trkpt><trkpt lat="34.9117472" lon="33.6332392"><ele>5.0</ele><time>2015-05-01T15:42:34.0000000+00:00</time></trkpt><trkpt lat="34.9116887" lon="33.6332896"><ele>4.8</ele><time>2015-05-01T15:42:36.0000000+00:00</time></trkpt><trkpt lat="34.9116092" lon="33.6332861"><ele>5.5</ele><time>2015-05-01T15:42:38.0000000+00:00</time></trkpt><trkpt lat="34.9115642" lon="33.6332845"><ele>5.7</ele><time>2015-05-01T15:42:39.0000000+00:00</time></trkpt><trkpt lat="34.9115162" lon="33.6332702"><ele>5.4</ele><time>2015-05-01T15:42:40.0000000+00:00</time></trkpt><trkpt lat="34.9114642" lon="33.6332698"><ele>5.2</ele><time>2015-05-01T15:42:41.0000000+00:00</time></trkpt><trkpt lat="34.911418" lon="33.6332764"><ele>5.1</ele><time>2015-05-01T15:42:42.0000000+00:00</time></trkpt><trkpt lat="34.9113314" lon="33.6332694"><ele>4.5</ele><time>2015-05-01T15:42:44.0000000+00:00</time></trkpt><trkpt lat="34.9112421" lon="33.6332774"><ele>2.9</ele><time>2015-05-01T15:42:46.0000000+00:00</time></trkpt><trkpt lat="34.911181" lon="33.6332862"><ele>1.7</ele><time>2015-05-01T15:42:48.0000000+00:00</time></trkpt><trkpt lat="34.9111294" lon="33.6333033"><ele>2.7</ele><time>2015-05-01T15:42:51.0000000+00:00</time></trkpt><trkpt lat="34.9110814" lon="33.633317"><ele>2.3</ele><time>2015-05-01T15:42:55.0000000+00:00</time></trkpt><trkpt lat="34.911032" lon="33.6333064"><ele>1.8</ele><time>2015-05-01T15:42:57.0000000+00:00</time></trkpt><trkpt lat="34.9109843" lon="33.6332574"><ele>5.0</ele><time>2015-05-01T15:42:59.0000000+00:00</time></trkpt><trkpt lat="34.9109554" lon="33.6331922"><ele>6.5</ele><time>2015-05-01T15:43:01.0000000+00:00</time></trkpt><trkpt lat="34.9109088" lon="33.6331538"><ele>7.4</ele><time>2015-05-01T15:43:03.0000000+00:00</time></trkpt><trkpt lat="34.9108552" lon="33.6331513"><ele>6.9</ele><time>2015-05-01T15:43:05.0000000+00:00</time></trkpt><trkpt lat="34.9108124" lon="33.6331784"><ele>6.3</ele><time>2015-05-01T15:43:10.0000000+00:00</time></trkpt><trkpt lat="34.9107409" lon="33.633214"><ele>5.1</ele><time>2015-05-01T15:43:12.0000000+00:00</time></trkpt><trkpt lat="34.9106966" lon="33.6332363"><ele>4.1</ele><time>2015-05-01T15:43:13.0000000+00:00</time></trkpt><trkpt lat="34.9106515" lon="33.6332573"><ele>4.0</ele><time>2015-05-01T15:43:14.0000000+00:00</time></trkpt><trkpt lat="34.9106076" lon="33.6332732"><ele>4.0</ele><time>2015-05-01T15:43:15.0000000+00:00</time></trkpt><trkpt lat="34.910562" lon="33.633288"><ele>4.0</ele><time>2015-05-01T15:43:16.0000000+00:00</time></trkpt><trkpt lat="34.91048" lon="33.6333087"><ele>5.3</ele><time>2015-05-01T15:43:18.0000000+00:00</time></trkpt><trkpt lat="34.9104257" lon="33.6333198"><ele>5.6</ele><time>2015-05-01T15:43:20.0000000+00:00</time></trkpt><trkpt lat="34.9103788" lon="33.6333439"><ele>5.9</ele><time>2015-05-01T15:43:22.0000000+00:00</time></trkpt><trkpt lat="34.9103331" lon="33.633364"><ele>6.0</ele><time>2015-05-01T15:43:24.0000000+00:00</time></trkpt><trkpt lat="34.9102835" lon="33.6333465"><ele>6.0</ele><time>2015-05-01T15:43:26.0000000+00:00</time></trkpt><trkpt lat="34.9102254" lon="33.63328"><ele>7.3</ele><time>2015-05-01T15:43:28.0000000+00:00</time></trkpt><trkpt lat="34.9101881" lon="33.6332427"><ele>7.1</ele><time>2015-05-01T15:43:29.0000000+00:00</time></trkpt><trkpt lat="34.9101505" lon="33.633207"><ele>7.1</ele><time>2015-05-01T15:43:30.0000000+00:00</time></trkpt><trkpt lat="34.9100995" lon="33.6331651"><ele>7.6</ele><time>2015-05-01T15:43:31.0000000+00:00</time></trkpt><trkpt lat="34.9100554" lon="33.6331454"><ele>7.8</ele><time>2015-05-01T15:43:32.0000000+00:00</time></trkpt><trkpt lat="34.9099766" lon="33.6331019"><ele>8.0</ele><time>2015-05-01T15:43:34.0000000+00:00</time></trkpt><trkpt lat="34.9099016" lon="33.6330575"><ele>8.8</ele><time>2015-05-01T15:43:36.0000000+00:00</time></trkpt><trkpt lat="34.9098322" lon="33.6330242"><ele>6.7</ele><time>2015-05-01T15:43:38.0000000+00:00</time></trkpt><trkpt lat="34.9097626" lon="33.6329897"><ele>6.2</ele><time>2015-05-01T15:43:40.0000000+00:00</time></trkpt><trkpt lat="34.9096845" lon="33.6329662"><ele>5.6</ele><time>2015-05-01T15:43:42.0000000+00:00</time></trkpt><trkpt lat="34.9096058" lon="33.6329396"><ele>5.2</ele><time>2015-05-01T15:43:44.0000000+00:00</time></trkpt><trkpt lat="34.9095288" lon="33.6329176"><ele>5.8</ele><time>2015-05-01T15:43:46.0000000+00:00</time></trkpt><trkpt lat="34.9094493" lon="33.6329222"><ele>6.0</ele><time>2015-05-01T15:43:48.0000000+00:00</time></trkpt><trkpt lat="34.9093972" lon="33.6329566"><ele>6.0</ele><time>2015-05-01T15:43:49.0000000+00:00</time></trkpt><trkpt lat="34.9093467" lon="33.632976"><ele>6.0</ele><time>2015-05-01T15:43:50.0000000+00:00</time></trkpt><trkpt lat="34.9093011" lon="33.6330015"><ele>6.5</ele><time>2015-05-01T15:43:51.0000000+00:00</time></trkpt><trkpt lat="34.9092471" lon="33.6330247"><ele>6.3</ele><time>2015-05-01T15:43:52.0000000+00:00</time></trkpt><trkpt lat="34.90919" lon="33.6330437"><ele>6.6</ele><time>2015-05-01T15:43:53.0000000+00:00</time></trkpt><trkpt lat="34.9091422" lon="33.6330699"><ele>6.8</ele><time>2015-05-01T15:43:54.0000000+00:00</time></trkpt><trkpt lat="34.9090906" lon="33.6330916"><ele>7.4</ele><time>2015-05-01T15:43:55.0000000+00:00</time></trkpt><trkpt lat="34.9090318" lon="33.6331173"><ele>7.2</ele><time>2015-05-01T15:43:56.0000000+00:00</time></trkpt><trkpt lat="34.9089749" lon="33.6331384"><ele>7.6</ele><time>2015-05-01T15:43:57.0000000+00:00</time></trkpt><trkpt lat="34.9089172" lon="33.6331665"><ele>7.8</ele><time>2015-05-01T15:43:58.0000000+00:00</time></trkpt><trkpt lat="34.9088684" lon="33.6331929"><ele>7.9</ele><time>2015-05-01T15:43:59.0000000+00:00</time></trkpt><trkpt lat="34.908821" lon="33.633221"><ele>8.0</ele><time>2015-05-01T15:44:00.0000000+00:00</time></trkpt><trkpt lat="34.908768" lon="33.6332668"><ele>8.0</ele><time>2015-05-01T15:44:02.0000000+00:00</time></trkpt><trkpt lat="34.9087517" lon="33.6333265"><ele>6.6</ele><time>2015-05-01T15:44:07.0000000+00:00</time></trkpt><trkpt lat="34.9087267" lon="33.6333856"><ele>4.4</ele><time>2015-05-01T15:44:11.0000000+00:00</time></trkpt><trkpt lat="34.9087322" lon="33.6334618"><ele>4.1</ele><time>2015-05-01T15:44:13.0000000+00:00</time></trkpt><trkpt lat="34.9087527" lon="33.6335478"><ele>5.1</ele><time>2015-05-01T15:44:14.0000000+00:00</time></trkpt><trkpt lat="34.9087646" lon="33.6336036"><ele>5.0</ele><time>2015-05-01T15:44:15.0000000+00:00</time></trkpt><trkpt lat="34.9087779" lon="33.6336643"><ele>4.0</ele><time>2015-05-01T15:44:16.0000000+00:00</time></trkpt><trkpt lat="34.9087833" lon="33.6337207"><ele>3.5</ele><time>2015-05-01T15:44:17.0000000+00:00</time></trkpt><trkpt lat="34.9087853" lon="33.6338227"><ele>5.1</ele><time>2015-05-01T15:44:19.0000000+00:00</time></trkpt><trkpt lat="34.9087948" lon="33.6338849"><ele>5.6</ele><time>2015-05-01T15:44:20.0000000+00:00</time></trkpt><trkpt lat="34.9088182" lon="33.6339452"><ele>5.8</ele><time>2015-05-01T15:44:21.0000000+00:00</time></trkpt><trkpt lat="34.9088422" lon="33.6340042"><ele>5.9</ele><time>2015-05-01T15:44:22.0000000+00:00</time></trkpt><trkpt lat="34.9088678" lon="33.6340669"><ele>6.0</ele><time>2015-05-01T15:44:23.0000000+00:00</time></trkpt><trkpt lat="34.9088995" lon="33.6341395"><ele>5.5</ele><time>2015-05-01T15:44:24.0000000+00:00</time></trkpt><trkpt lat="34.9089249" lon="33.6342104"><ele>5.8</ele><time>2015-05-01T15:44:25.0000000+00:00</time></trkpt><trkpt lat="34.9089475" lon="33.634273"><ele>5.9</ele><time>2015-05-01T15:44:26.0000000+00:00</time></trkpt><trkpt lat="34.9089781" lon="33.6343343"><ele>6.0</ele><time>2015-05-01T15:44:27.0000000+00:00</time></trkpt><trkpt lat="34.9090028" lon="33.6344"><ele>6.0</ele><time>2015-05-01T15:44:28.0000000+00:00</time></trkpt><trkpt lat="34.909027" lon="33.6344613"><ele>6.0</ele><time>2015-05-01T15:44:29.0000000+00:00</time></trkpt><trkpt lat="34.9090451" lon="33.6345216"><ele>6.0</ele><time>2015-05-01T15:44:30.0000000+00:00</time></trkpt><trkpt lat="34.9090692" lon="33.6345788"><ele>6.5</ele><time>2015-05-01T15:44:31.0000000+00:00</time></trkpt><trkpt lat="34.9090959" lon="33.634632"><ele>6.3</ele><time>2015-05-01T15:44:32.0000000+00:00</time></trkpt><trkpt lat="34.909119" lon="33.6346872"><ele>6.6</ele><time>2015-05-01T15:44:33.0000000+00:00</time></trkpt><trkpt lat="34.9091474" lon="33.6347432"><ele>6.8</ele><time>2015-05-01T15:44:34.0000000+00:00</time></trkpt><trkpt lat="34.9091671" lon="33.6348028"><ele>6.9</ele><time>2015-05-01T15:44:35.0000000+00:00</time></trkpt><trkpt lat="34.9091913" lon="33.6348721"><ele>7.0</ele><time>2015-05-01T15:44:36.0000000+00:00</time></trkpt><trkpt lat="34.9092163" lon="33.6349369"><ele>7.0</ele><time>2015-05-01T15:44:37.0000000+00:00</time></trkpt><trkpt lat="34.9092394" lon="33.6350035"><ele>7.0</ele><time>2015-05-01T15:44:38.0000000+00:00</time></trkpt><trkpt lat="34.9092589" lon="33.6350693"><ele>6.5</ele><time>2015-05-01T15:44:39.0000000+00:00</time></trkpt><trkpt lat="34.9092827" lon="33.6351399"><ele>6.3</ele><time>2015-05-01T15:44:40.0000000+00:00</time></trkpt><trkpt lat="34.9093086" lon="33.6352039"><ele>6.1</ele><time>2015-05-01T15:44:41.0000000+00:00</time></trkpt><trkpt lat="34.9093263" lon="33.6352763"><ele>6.1</ele><time>2015-05-01T15:44:42.0000000+00:00</time></trkpt><trkpt lat="34.9093504" lon="33.6353417"><ele>6.1</ele><time>2015-05-01T15:44:43.0000000+00:00</time></trkpt><trkpt lat="34.9093688" lon="33.635412"><ele>6.0</ele><time>2015-05-01T15:44:44.0000000+00:00</time></trkpt><trkpt lat="34.9093866" lon="33.6354741"><ele>6.0</ele><time>2015-05-01T15:44:45.0000000+00:00</time></trkpt><trkpt lat="34.9094002" lon="33.6355387"><ele>6.5</ele><time>2015-05-01T15:44:46.0000000+00:00</time></trkpt><trkpt lat="34.9094128" lon="33.6355975"><ele>6.8</ele><time>2015-05-01T15:44:47.0000000+00:00</time></trkpt><trkpt lat="34.9094282" lon="33.6356512"><ele>6.9</ele><time>2015-05-01T15:44:48.0000000+00:00</time></trkpt><trkpt lat="34.9094461" lon="33.6357242"><ele>7.0</ele><time>2015-05-01T15:44:50.0000000+00:00</time></trkpt><trkpt lat="34.9094562" lon="33.6357834"><ele>5.3</ele><time>2015-05-01T15:45:02.0000000+00:00</time></trkpt><trkpt lat="34.909444" lon="33.6358579"><ele>6.4</ele><time>2015-05-01T15:45:06.0000000+00:00</time></trkpt><trkpt lat="34.909468" lon="33.6359604"><ele>6.9</ele><time>2015-05-01T15:45:08.0000000+00:00</time></trkpt><trkpt lat="34.9094938" lon="33.6360608"><ele>7.0</ele><time>2015-05-01T15:45:10.0000000+00:00</time></trkpt><trkpt lat="34.9095118" lon="33.6361614"><ele>7.5</ele><time>2015-05-01T15:45:12.0000000+00:00</time></trkpt><trkpt lat="34.9095289" lon="33.6362702"><ele>7.4</ele><time>2015-05-01T15:45:14.0000000+00:00</time></trkpt><trkpt lat="34.9095387" lon="33.6363239"><ele>7.7</ele><time>2015-05-01T15:45:15.0000000+00:00</time></trkpt><trkpt lat="34.9095496" lon="33.636378"><ele>7.9</ele><time>2015-05-01T15:45:16.0000000+00:00</time></trkpt><trkpt lat="34.9095736" lon="33.6364684"><ele>8.7</ele><time>2015-05-01T15:45:18.0000000+00:00</time></trkpt><trkpt lat="34.9096005" lon="33.6365498"><ele>8.4</ele><time>2015-05-01T15:45:20.0000000+00:00</time></trkpt><trkpt lat="34.9096114" lon="33.6366401"><ele>7.4</ele><time>2015-05-01T15:45:22.0000000+00:00</time></trkpt><trkpt lat="34.9095969" lon="33.6367433"><ele>7.1</ele><time>2015-05-01T15:45:24.0000000+00:00</time></trkpt><trkpt lat="34.9095835" lon="33.636798"><ele>6.6</ele><time>2015-05-01T15:45:25.0000000+00:00</time></trkpt><trkpt lat="34.9095596" lon="33.6368648"><ele>6.3</ele><time>2015-05-01T15:45:26.0000000+00:00</time></trkpt><trkpt lat="34.9095444" lon="33.6369183"><ele>5.2</ele><time>2015-05-01T15:45:27.0000000+00:00</time></trkpt><trkpt lat="34.9095314" lon="33.6369739"><ele>4.6</ele><time>2015-05-01T15:45:28.0000000+00:00</time></trkpt><trkpt lat="34.9095137" lon="33.6370268"><ele>4.8</ele><time>2015-05-01T15:45:29.0000000+00:00</time></trkpt><trkpt lat="34.9095054" lon="33.6370842"><ele>4.9</ele><time>2015-05-01T15:45:30.0000000+00:00</time></trkpt><trkpt lat="34.9094842" lon="33.6371521"><ele>5.0</ele><time>2015-05-01T15:45:32.0000000+00:00</time></trkpt><trkpt lat="34.9094242" lon="33.6371824"><ele>5.0</ele><time>2015-05-01T15:45:36.0000000+00:00</time></trkpt><trkpt lat="34.9093592" lon="33.6371587"><ele>3.6</ele><time>2015-05-01T15:45:39.0000000+00:00</time></trkpt><trkpt lat="34.9093028" lon="33.6371371"><ele>3.2</ele><time>2015-05-01T15:45:41.0000000+00:00</time></trkpt><trkpt lat="34.9092309" lon="33.6371162"><ele>2.6</ele><time>2015-05-01T15:45:43.0000000+00:00</time></trkpt><trkpt lat="34.9091659" lon="33.6371048"><ele>2.2</ele><time>2015-05-01T15:45:45.0000000+00:00</time></trkpt><trkpt lat="34.9091418" lon="33.6371523"><ele>1.6</ele><time>2015-05-01T15:45:47.0000000+00:00</time></trkpt><trkpt lat="34.9091478" lon="33.6372305"><ele>1.2</ele><time>2015-05-01T15:45:49.0000000+00:00</time></trkpt><trkpt lat="34.9091517" lon="33.637328"><ele>0.8</ele><time>2015-05-01T15:45:51.0000000+00:00</time></trkpt><trkpt lat="34.9091567" lon="33.6374336"><ele>2.0</ele><time>2015-05-01T15:45:53.0000000+00:00</time></trkpt><trkpt lat="34.9091638" lon="33.6375309"><ele>2.5</ele><time>2015-05-01T15:45:55.0000000+00:00</time></trkpt><trkpt lat="34.9091779" lon="33.6376266"><ele>3.4</ele><time>2015-05-01T15:45:57.0000000+00:00</time></trkpt><trkpt lat="34.9091843" lon="33.6377083"><ele>3.9</ele><time>2015-05-01T15:45:59.0000000+00:00</time></trkpt><trkpt lat="34.9091722" lon="33.6377694"><ele>10.5</ele><time>2015-05-01T15:46:37.0000000+00:00</time></trkpt><trkpt lat="34.9091581" lon="33.6378234"><ele>10.8</ele><time>2015-05-01T15:46:40.0000000+00:00</time></trkpt><trkpt lat="34.9091153" lon="33.6378587"><ele>10.3</ele><time>2015-05-01T15:46:44.0000000+00:00</time></trkpt><trkpt lat="34.9090654" lon="33.6378422"><ele>13.0</ele><time>2015-05-01T15:48:04.0000000+00:00</time></trkpt><trkpt lat="34.9090041" lon="33.6378369"><ele>12.3</ele><time>2015-05-01T15:48:07.0000000+00:00</time></trkpt><trkpt lat="34.9089432" lon="33.637833"><ele>12.8</ele><time>2015-05-01T15:48:10.0000000+00:00</time></trkpt><trkpt lat="34.9088799" lon="33.6378298"><ele>12.6</ele><time>2015-05-01T15:48:13.0000000+00:00</time></trkpt><trkpt lat="34.908816" lon="33.6378263"><ele>12.1</ele><time>2015-05-01T15:48:16.0000000+00:00</time></trkpt><trkpt lat="34.9087562" lon="33.6378267"><ele>12.0</ele><time>2015-05-01T15:48:19.0000000+00:00</time></trkpt><trkpt lat="34.9086966" lon="33.6378294"><ele>12.0</ele><time>2015-05-01T15:48:22.0000000+00:00</time></trkpt><trkpt lat="34.9086402" lon="33.6378223"><ele>12.1</ele><time>2015-05-01T15:48:25.0000000+00:00</time></trkpt><trkpt lat="34.9085856" lon="33.637806"><ele>12.0</ele><time>2015-05-01T15:48:28.0000000+00:00</time></trkpt><trkpt lat="34.9085364" lon="33.6378006"><ele>11.3</ele><time>2015-05-01T15:48:31.0000000+00:00</time></trkpt><trkpt lat="34.9084782" lon="33.6378065"><ele>12.0</ele><time>2015-05-01T15:48:35.0000000+00:00</time></trkpt><trkpt lat="34.9084221" lon="33.6378004"><ele>11.3</ele><time>2015-05-01T15:48:39.0000000+00:00</time></trkpt><trkpt lat="34.9083694" lon="33.6377946"><ele>10.2</ele><time>2015-05-01T15:48:42.0000000+00:00</time></trkpt><trkpt lat="34.908305" lon="33.6377934"><ele>9.2</ele><time>2015-05-01T15:48:45.0000000+00:00</time></trkpt><trkpt lat="34.9082538" lon="33.6377916"><ele>9.1</ele><time>2015-05-01T15:48:47.0000000+00:00</time></trkpt><trkpt lat="34.908201" lon="33.6377918"><ele>8.5</ele><time>2015-05-01T15:48:49.0000000+00:00</time></trkpt><trkpt lat="34.9081385" lon="33.637794"><ele>8.9</ele><time>2015-05-01T15:48:51.0000000+00:00</time></trkpt><trkpt lat="34.9080701" lon="33.6377965"><ele>9.0</ele><time>2015-05-01T15:48:53.0000000+00:00</time></trkpt><trkpt lat="34.9080063" lon="33.637795"><ele>9.0</ele><time>2015-05-01T15:48:55.0000000+00:00</time></trkpt><trkpt lat="34.9079456" lon="33.637808"><ele>9.3</ele><time>2015-05-01T15:48:57.0000000+00:00</time></trkpt><trkpt lat="34.9078856" lon="33.6378194"><ele>9.1</ele><time>2015-05-01T15:48:59.0000000+00:00</time></trkpt><trkpt lat="34.907825" lon="33.6378215"><ele>9.0</ele><time>2015-05-01T15:49:01.0000000+00:00</time></trkpt><trkpt lat="34.9077717" lon="33.63783"><ele>8.8</ele><time>2015-05-01T15:49:03.0000000+00:00</time></trkpt><trkpt lat="34.9077204" lon="33.6378363"><ele>9.0</ele><time>2015-05-01T15:49:05.0000000+00:00</time></trkpt><trkpt lat="34.907655" lon="33.6378308"><ele>9.0</ele><time>2015-05-01T15:49:08.0000000+00:00</time></trkpt><trkpt lat="34.907599" lon="33.6378266"><ele>9.0</ele><time>2015-05-01T15:49:12.0000000+00:00</time></trkpt><trkpt lat="34.9075441" lon="33.6378313"><ele>10.0</ele><time>2015-05-01T15:49:16.0000000+00:00</time></trkpt><trkpt lat="34.9074891" lon="33.6378355"><ele>10.9</ele><time>2015-05-01T15:49:20.0000000+00:00</time></trkpt><trkpt lat="34.9074298" lon="33.6378438"><ele>11.0</ele><time>2015-05-01T15:49:24.0000000+00:00</time></trkpt><trkpt lat="34.9073782" lon="33.6378418"><ele>11.9</ele><time>2015-05-01T15:49:27.0000000+00:00</time></trkpt><trkpt lat="34.9073194" lon="33.6378284"><ele>12.0</ele><time>2015-05-01T15:49:30.0000000+00:00</time></trkpt><trkpt lat="34.907257" lon="33.6378234"><ele>11.1</ele><time>2015-05-01T15:49:33.0000000+00:00</time></trkpt><trkpt lat="34.907211" lon="33.637818"><ele>11.8</ele><time>2015-05-01T15:49:35.0000000+00:00</time></trkpt><trkpt lat="34.9071607" lon="33.6378159"><ele>12.0</ele><time>2015-05-01T15:49:37.0000000+00:00</time></trkpt><trkpt lat="34.9071132" lon="33.637817"><ele>12.5</ele><time>2015-05-01T15:49:39.0000000+00:00</time></trkpt><trkpt lat="34.9070627" lon="33.6378142"><ele>13.4</ele><time>2015-05-01T15:49:41.0000000+00:00</time></trkpt><trkpt lat="34.9070129" lon="33.6378135"><ele>13.9</ele><time>2015-05-01T15:49:43.0000000+00:00</time></trkpt><trkpt lat="34.9069622" lon="33.6378146"><ele>14.5</ele><time>2015-05-01T15:49:45.0000000+00:00</time></trkpt><trkpt lat="34.9069116" lon="33.637816"><ele>14.4</ele><time>2015-05-01T15:49:47.0000000+00:00</time></trkpt><trkpt lat="34.9068596" lon="33.6378186"><ele>14.9</ele><time>2015-05-01T15:49:49.0000000+00:00</time></trkpt><trkpt lat="34.9068074" lon="33.6378209"><ele>14.2</ele><time>2015-05-01T15:49:51.0000000+00:00</time></trkpt><trkpt lat="34.906753" lon="33.6378231"><ele>14.1</ele><time>2015-05-01T15:49:53.0000000+00:00</time></trkpt><trkpt lat="34.9066955" lon="33.637823"><ele>14.0</ele><time>2015-05-01T15:49:55.0000000+00:00</time></trkpt><trkpt lat="34.9066409" lon="33.6378265"><ele>14.0</ele><time>2015-05-01T15:49:57.0000000+00:00</time></trkpt><trkpt lat="34.9065898" lon="33.6378286"><ele>14.0</ele><time>2015-05-01T15:49:59.0000000+00:00</time></trkpt><trkpt lat="34.9065366" lon="33.6378298"><ele>13.5</ele><time>2015-05-01T15:50:01.0000000+00:00</time></trkpt><trkpt lat="34.9064841" lon="33.6378353"><ele>13.6</ele><time>2015-05-01T15:50:03.0000000+00:00</time></trkpt><trkpt lat="34.9064291" lon="33.6378426"><ele>12.7</ele><time>2015-05-01T15:50:05.0000000+00:00</time></trkpt><trkpt lat="34.906375" lon="33.6378446"><ele>11.7</ele><time>2015-05-01T15:50:07.0000000+00:00</time></trkpt><trkpt lat="34.9063189" lon="33.637842"><ele>11.7</ele><time>2015-05-01T15:50:09.0000000+00:00</time></trkpt><trkpt lat="34.9062637" lon="33.637841"><ele>11.7</ele><time>2015-05-01T15:50:11.0000000+00:00</time></trkpt><trkpt lat="34.9062072" lon="33.637841"><ele>11.2</ele><time>2015-05-01T15:50:13.0000000+00:00</time></trkpt><trkpt lat="34.9061579" lon="33.6378412"><ele>11.8</ele><time>2015-05-01T15:50:15.0000000+00:00</time></trkpt><trkpt lat="34.9061103" lon="33.6378435"><ele>12.0</ele><time>2015-05-01T15:50:17.0000000+00:00</time></trkpt><trkpt lat="34.9060467" lon="33.6378437"><ele>11.9</ele><time>2015-05-01T15:50:20.0000000+00:00</time></trkpt><trkpt lat="34.9059862" lon="33.6378444"><ele>11.3</ele><time>2015-05-01T15:50:23.0000000+00:00</time></trkpt><trkpt lat="34.9059401" lon="33.6378424"><ele>10.8</ele><time>2015-05-01T15:50:25.0000000+00:00</time></trkpt><trkpt lat="34.9058924" lon="33.6378388"><ele>11.0</ele><time>2015-05-01T15:50:27.0000000+00:00</time></trkpt><trkpt lat="34.9058415" lon="33.6378332"><ele>11.0</ele><time>2015-05-01T15:50:29.0000000+00:00</time></trkpt><trkpt lat="34.9057892" lon="33.6378312"><ele>11.0</ele><time>2015-05-01T15:50:31.0000000+00:00</time></trkpt><trkpt lat="34.9057341" lon="33.6378347"><ele>11.0</ele><time>2015-05-01T15:50:33.0000000+00:00</time></trkpt><trkpt lat="34.9056806" lon="33.6378421"><ele>10.5</ele><time>2015-05-01T15:50:35.0000000+00:00</time></trkpt><trkpt lat="34.9056279" lon="33.6378488"><ele>10.1</ele><time>2015-05-01T15:50:37.0000000+00:00</time></trkpt><trkpt lat="34.9055787" lon="33.637857"><ele>10.6</ele><time>2015-05-01T15:50:39.0000000+00:00</time></trkpt><trkpt lat="34.9055279" lon="33.6378629"><ele>10.7</ele><time>2015-05-01T15:50:41.0000000+00:00</time></trkpt><trkpt lat="34.9054777" lon="33.6378702"><ele>10.9</ele><time>2015-05-01T15:50:43.0000000+00:00</time></trkpt><trkpt lat="34.9054238" lon="33.6378775"><ele>10.7</ele><time>2015-05-01T15:50:45.0000000+00:00</time></trkpt><trkpt lat="34.9053739" lon="33.6378816"><ele>10.7</ele><time>2015-05-01T15:50:47.0000000+00:00</time></trkpt><trkpt lat="34.905321" lon="33.6378816"><ele>9.7</ele><time>2015-05-01T15:50:49.0000000+00:00</time></trkpt><trkpt lat="34.9052674" lon="33.6378768"><ele>9.2</ele><time>2015-05-01T15:50:51.0000000+00:00</time></trkpt><trkpt lat="34.9052146" lon="33.6378733"><ele>9.1</ele><time>2015-05-01T15:50:53.0000000+00:00</time></trkpt><trkpt lat="34.9051672" lon="33.6378732"><ele>9.0</ele><time>2015-05-01T15:50:55.0000000+00:00</time></trkpt><trkpt lat="34.9051211" lon="33.6378722"><ele>9.5</ele><time>2015-05-01T15:50:57.0000000+00:00</time></trkpt><trkpt lat="34.9050556" lon="33.6378743"><ele>9.1</ele><time>2015-05-01T15:51:00.0000000+00:00</time></trkpt><trkpt lat="34.9049895" lon="33.6378816"><ele>9.0</ele><time>2015-05-01T15:51:03.0000000+00:00</time></trkpt><trkpt lat="34.904942" lon="33.6378784"><ele>9.5</ele><time>2015-05-01T15:51:05.0000000+00:00</time></trkpt><trkpt lat="34.9048964" lon="33.637877"><ele>9.1</ele><time>2015-05-01T15:51:07.0000000+00:00</time></trkpt><trkpt lat="34.9048442" lon="33.6378748"><ele>9.6</ele><time>2015-05-01T15:51:09.0000000+00:00</time></trkpt><trkpt lat="34.9047901" lon="33.6378676"><ele>11.2</ele><time>2015-05-01T15:51:11.0000000+00:00</time></trkpt><trkpt lat="34.9047332" lon="33.6378554"><ele>12.3</ele><time>2015-05-01T15:51:13.0000000+00:00</time></trkpt><trkpt lat="34.9046787" lon="33.6378424"><ele>12.8</ele><time>2015-05-01T15:51:15.0000000+00:00</time></trkpt><trkpt lat="34.9046264" lon="33.6378259"><ele>12.5</ele><time>2015-05-01T15:51:17.0000000+00:00</time></trkpt><trkpt lat="34.9045776" lon="33.6378141"><ele>12.1</ele><time>2015-05-01T15:51:19.0000000+00:00</time></trkpt><trkpt lat="34.9045261" lon="33.637803"><ele>12.5</ele><time>2015-05-01T15:51:21.0000000+00:00</time></trkpt><trkpt lat="34.9044744" lon="33.637795"><ele>12.9</ele><time>2015-05-01T15:51:23.0000000+00:00</time></trkpt><trkpt lat="34.9044182" lon="33.6377857"><ele>14.2</ele><time>2015-05-01T15:51:25.0000000+00:00</time></trkpt><trkpt lat="34.9043623" lon="33.6377729"><ele>14.8</ele><time>2015-05-01T15:51:27.0000000+00:00</time></trkpt><trkpt lat="34.9043048" lon="33.6377656"><ele>15.0</ele><time>2015-05-01T15:51:29.0000000+00:00</time></trkpt><trkpt lat="34.9042482" lon="33.6377611"><ele>15.8</ele><time>2015-05-01T15:51:31.0000000+00:00</time></trkpt><trkpt lat="34.90419" lon="33.6377562"><ele>16.7</ele><time>2015-05-01T15:51:33.0000000+00:00</time></trkpt><trkpt lat="34.9041333" lon="33.6377542"><ele>17.7</ele><time>2015-05-01T15:51:35.0000000+00:00</time></trkpt><trkpt lat="34.904073" lon="33.637752"><ele>17.2</ele><time>2015-05-01T15:51:37.0000000+00:00</time></trkpt><trkpt lat="34.9040166" lon="33.6377491"><ele>16.3</ele><time>2015-05-01T15:51:39.0000000+00:00</time></trkpt><trkpt lat="34.9039589" lon="33.637749"><ele>15.6</ele><time>2015-05-01T15:51:41.0000000+00:00</time></trkpt><trkpt lat="34.9039009" lon="33.637747"><ele>15.2</ele><time>2015-05-01T15:51:43.0000000+00:00</time></trkpt><trkpt lat="34.9038385" lon="33.6377439"><ele>14.6</ele><time>2015-05-01T15:51:45.0000000+00:00</time></trkpt><trkpt lat="34.9037735" lon="33.6377458"><ele>13.7</ele><time>2015-05-01T15:51:47.0000000+00:00</time></trkpt><trkpt lat="34.9036969" lon="33.6377454"><ele>13.2</ele><time>2015-05-01T15:51:49.0000000+00:00</time></trkpt><trkpt lat="34.90362" lon="33.6377428"><ele>12.6</ele><time>2015-05-01T15:51:51.0000000+00:00</time></trkpt><trkpt lat="34.9035439" lon="33.6377424"><ele>12.4</ele><time>2015-05-01T15:51:53.0000000+00:00</time></trkpt><trkpt lat="34.903472" lon="33.6377423"><ele>12.1</ele><time>2015-05-01T15:51:55.0000000+00:00</time></trkpt><trkpt lat="34.9034024" lon="33.6377375"><ele>13.3</ele><time>2015-05-01T15:51:57.0000000+00:00</time></trkpt><trkpt lat="34.9033362" lon="33.6377352"><ele>13.3</ele><time>2015-05-01T15:51:59.0000000+00:00</time></trkpt><trkpt lat="34.9032699" lon="33.6377534"><ele>12.9</ele><time>2015-05-01T15:52:01.0000000+00:00</time></trkpt><trkpt lat="34.9032078" lon="33.6377764"><ele>12.5</ele><time>2015-05-01T15:52:03.0000000+00:00</time></trkpt><trkpt lat="34.9031417" lon="33.6378008"><ele>12.1</ele><time>2015-05-01T15:52:05.0000000+00:00</time></trkpt><trkpt lat="34.903073" lon="33.637817"><ele>11.3</ele><time>2015-05-01T15:52:07.0000000+00:00</time></trkpt><trkpt lat="34.903004" lon="33.637821"><ele>11.1</ele><time>2015-05-01T15:52:09.0000000+00:00</time></trkpt><trkpt lat="34.9029398" lon="33.6378194"><ele>10.3</ele><time>2015-05-01T15:52:11.0000000+00:00</time></trkpt><trkpt lat="34.9028751" lon="33.6378179"><ele>10.8</ele><time>2015-05-01T15:52:13.0000000+00:00</time></trkpt><trkpt lat="34.9028143" lon="33.6378211"><ele>11.0</ele><time>2015-05-01T15:52:15.0000000+00:00</time></trkpt><trkpt lat="34.9027587" lon="33.637823"><ele>11.0</ele><time>2015-05-01T15:52:17.0000000+00:00</time></trkpt><trkpt lat="34.9027085" lon="33.6378204"><ele>11.5</ele><time>2015-05-01T15:52:19.0000000+00:00</time></trkpt><trkpt lat="34.9026489" lon="33.6378166"><ele>11.1</ele><time>2015-05-01T15:52:21.0000000+00:00</time></trkpt><trkpt lat="34.9025837" lon="33.6378289"><ele>11.6</ele><time>2015-05-01T15:52:23.0000000+00:00</time></trkpt><trkpt lat="34.902514" lon="33.637844"><ele>11.9</ele><time>2015-05-01T15:52:25.0000000+00:00</time></trkpt><trkpt lat="34.9024492" lon="33.6378524"><ele>11.5</ele><time>2015-05-01T15:52:27.0000000+00:00</time></trkpt><trkpt lat="34.9023807" lon="33.63786"><ele>11.1</ele><time>2015-05-01T15:52:29.0000000+00:00</time></trkpt><trkpt lat="34.9023036" lon="33.6378613"><ele>10.6</ele><time>2015-05-01T15:52:31.0000000+00:00</time></trkpt><trkpt lat="34.9022265" lon="33.6378673"><ele>10.2</ele><time>2015-05-01T15:52:33.0000000+00:00</time></trkpt><trkpt lat="34.9021487" lon="33.6378759"><ele>10.8</ele><time>2015-05-01T15:52:35.0000000+00:00</time></trkpt><trkpt lat="34.9020726" lon="33.6378852"><ele>10.5</ele><time>2015-05-01T15:52:37.0000000+00:00</time></trkpt><trkpt lat="34.9020041" lon="33.6378864"><ele>9.6</ele><time>2015-05-01T15:52:39.0000000+00:00</time></trkpt><trkpt lat="34.901938" lon="33.6378942"><ele>9.9</ele><time>2015-05-01T15:52:41.0000000+00:00</time></trkpt><trkpt lat="34.9018745" lon="33.6378996"><ele>9.7</ele><time>2015-05-01T15:52:43.0000000+00:00</time></trkpt><trkpt lat="34.9018123" lon="33.6379038"><ele>10.2</ele><time>2015-05-01T15:52:45.0000000+00:00</time></trkpt><trkpt lat="34.9017577" lon="33.6379103"><ele>10.1</ele><time>2015-05-01T15:52:47.0000000+00:00</time></trkpt><trkpt lat="34.9016995" lon="33.6379216"><ele>10.0</ele><time>2015-05-01T15:52:49.0000000+00:00</time></trkpt><trkpt lat="34.901637" lon="33.6379367"><ele>10.0</ele><time>2015-05-01T15:52:51.0000000+00:00</time></trkpt><trkpt lat="34.9015656" lon="33.6379513"><ele>10.0</ele><time>2015-05-01T15:52:53.0000000+00:00</time></trkpt><trkpt lat="34.9014957" lon="33.6379629"><ele>10.0</ele><time>2015-05-01T15:52:55.0000000+00:00</time></trkpt><trkpt lat="34.9014233" lon="33.637972"><ele>10.0</ele><time>2015-05-01T15:52:57.0000000+00:00</time></trkpt><trkpt lat="34.9013521" lon="33.6379805"><ele>10.0</ele><time>2015-05-01T15:52:59.0000000+00:00</time></trkpt><trkpt lat="34.9012821" lon="33.6379871"><ele>10.8</ele><time>2015-05-01T15:53:01.0000000+00:00</time></trkpt><trkpt lat="34.9012169" lon="33.6379903"><ele>11.0</ele><time>2015-05-01T15:53:03.0000000+00:00</time></trkpt><trkpt lat="34.9011534" lon="33.6379928"><ele>11.0</ele><time>2015-05-01T15:53:05.0000000+00:00</time></trkpt><trkpt lat="34.9011011" lon="33.6380019"><ele>11.0</ele><time>2015-05-01T15:53:07.0000000+00:00</time></trkpt><trkpt lat="34.9010488" lon="33.6380173"><ele>10.3</ele><time>2015-05-01T15:53:10.0000000+00:00</time></trkpt><trkpt lat="34.901094" lon="33.6380166"><ele>10.7</ele><time>2015-05-01T15:53:30.0000000+00:00</time></trkpt><trkpt lat="34.9010434" lon="33.6380277"><ele>9.9</ele><time>2015-05-01T15:54:43.0000000+00:00</time></trkpt><trkpt lat="34.9009962" lon="33.6380289"><ele>9.2</ele><time>2015-05-01T15:54:45.0000000+00:00</time></trkpt><trkpt lat="34.9009356" lon="33.6380357"><ele>8.3</ele><time>2015-05-01T15:54:47.0000000+00:00</time></trkpt><trkpt lat="34.9008638" lon="33.6380518"><ele>9.1</ele><time>2015-05-01T15:54:49.0000000+00:00</time></trkpt><trkpt lat="34.9007918" lon="33.6380563"><ele>9.0</ele><time>2015-05-01T15:54:51.0000000+00:00</time></trkpt><trkpt lat="34.9007202" lon="33.638061"><ele>9.5</ele><time>2015-05-01T15:54:53.0000000+00:00</time></trkpt><trkpt lat="34.9006536" lon="33.6380668"><ele>10.1</ele><time>2015-05-01T15:54:55.0000000+00:00</time></trkpt><trkpt lat="34.9005927" lon="33.6380707"><ele>11.3</ele><time>2015-05-01T15:54:57.0000000+00:00</time></trkpt><trkpt lat="34.9005336" lon="33.6380752"><ele>11.8</ele><time>2015-05-01T15:54:59.0000000+00:00</time></trkpt><trkpt lat="34.9004664" lon="33.6380829"><ele>12.5</ele><time>2015-05-01T15:55:01.0000000+00:00</time></trkpt><trkpt lat="34.9003951" lon="33.6380898"><ele>12.6</ele><time>2015-05-01T15:55:03.0000000+00:00</time></trkpt><trkpt lat="34.9003241" lon="33.6380912"><ele>13.2</ele><time>2015-05-01T15:55:05.0000000+00:00</time></trkpt><trkpt lat="34.9002575" lon="33.6380861"><ele>13.1</ele><time>2015-05-01T15:55:07.0000000+00:00</time></trkpt><trkpt lat="34.9001923" lon="33.6380907"><ele>12.5</ele><time>2015-05-01T15:55:09.0000000+00:00</time></trkpt><trkpt lat="34.9001353" lon="33.638102"><ele>11.6</ele><time>2015-05-01T15:55:11.0000000+00:00</time></trkpt><trkpt lat="34.9000815" lon="33.6381071"><ele>11.9</ele><time>2015-05-01T15:55:13.0000000+00:00</time></trkpt><trkpt lat="34.9000298" lon="33.6381111"><ele>12.0</ele><time>2015-05-01T15:55:15.0000000+00:00</time></trkpt><trkpt lat="34.8999776" lon="33.6381257"><ele>11.8</ele><time>2015-05-01T15:55:17.0000000+00:00</time></trkpt><trkpt lat="34.8999278" lon="33.6381416"><ele>12.0</ele><time>2015-05-01T15:55:19.0000000+00:00</time></trkpt><trkpt lat="34.8998791" lon="33.6381573"><ele>11.3</ele><time>2015-05-01T15:55:21.0000000+00:00</time></trkpt><trkpt lat="34.8998639" lon="33.6382252"><ele>9.1</ele><time>2015-05-01T15:55:40.0000000+00:00</time></trkpt><trkpt lat="34.8998636" lon="33.6382822"><ele>9.0</ele><time>2015-05-01T15:55:42.0000000+00:00</time></trkpt><trkpt lat="34.8998504" lon="33.6383438"><ele>9.5</ele><time>2015-05-01T15:55:44.0000000+00:00</time></trkpt><trkpt lat="34.8998244" lon="33.6383965"><ele>10.4</ele><time>2015-05-01T15:55:46.0000000+00:00</time></trkpt><trkpt lat="34.8997894" lon="33.6384325"><ele>9.6</ele><time>2015-05-01T15:55:48.0000000+00:00</time></trkpt><trkpt lat="34.8997376" lon="33.6384664"><ele>10.3</ele><time>2015-05-01T15:55:51.0000000+00:00</time></trkpt><trkpt lat="34.8996967" lon="33.6385055"><ele>10.3</ele><time>2015-05-01T15:55:55.0000000+00:00</time></trkpt><trkpt lat="34.8996677" lon="33.6385519"><ele>8.9</ele><time>2015-05-01T15:56:09.0000000+00:00</time></trkpt><trkpt lat="34.8996986" lon="33.6386222"><ele>9.0</ele><time>2015-05-01T15:56:11.0000000+00:00</time></trkpt><trkpt lat="34.8997557" lon="33.6386858"><ele>8.3</ele><time>2015-05-01T15:56:13.0000000+00:00</time></trkpt><trkpt lat="34.8998093" lon="33.6387415"><ele>8.1</ele><time>2015-05-01T15:56:15.0000000+00:00</time></trkpt><trkpt lat="34.8998532" lon="33.6387996"><ele>8.0</ele><time>2015-05-01T15:56:17.0000000+00:00</time></trkpt><trkpt lat="34.8998985" lon="33.6388624"><ele>8.0</ele><time>2015-05-01T15:56:19.0000000+00:00</time></trkpt><trkpt lat="34.8999482" lon="33.6389271"><ele>7.3</ele><time>2015-05-01T15:56:21.0000000+00:00</time></trkpt><trkpt lat="34.8999949" lon="33.6389906"><ele>5.8</ele><time>2015-05-01T15:56:23.0000000+00:00</time></trkpt><trkpt lat="34.9000394" lon="33.6390517"><ele>6.0</ele><time>2015-05-01T15:56:25.0000000+00:00</time></trkpt><trkpt lat="34.8999933" lon="33.6390388"><ele>5.1</ele><time>2015-05-01T15:58:09.0000000+00:00</time></trkpt><trkpt lat="34.8999705" lon="33.6389812"><ele>4.6</ele><time>2015-05-01T15:58:12.0000000+00:00</time></trkpt><trkpt lat="34.8999347" lon="33.6389342"><ele>5.2</ele><time>2015-05-01T15:58:14.0000000+00:00</time></trkpt><trkpt lat="34.8998943" lon="33.6388853"><ele>5.3</ele><time>2015-05-01T15:58:16.0000000+00:00</time></trkpt><trkpt lat="34.8998568" lon="33.6388348"><ele>6.3</ele><time>2015-05-01T15:58:18.0000000+00:00</time></trkpt><trkpt lat="34.8998223" lon="33.6387864"><ele>7.4</ele><time>2015-05-01T15:58:20.0000000+00:00</time></trkpt><trkpt lat="34.8997898" lon="33.6387196"><ele>6.8</ele><time>2015-05-01T15:58:23.0000000+00:00</time></trkpt><trkpt lat="34.8997575" lon="33.6386569"><ele>6.1</ele><time>2015-05-01T15:58:26.0000000+00:00</time></trkpt><trkpt lat="34.8997377" lon="33.6385911"><ele>5.3</ele><time>2015-05-01T15:58:29.0000000+00:00</time></trkpt><trkpt lat="34.8997521" lon="33.6385257"><ele>5.6</ele><time>2015-05-01T15:58:32.0000000+00:00</time></trkpt><trkpt lat="34.8997628" lon="33.6384619"><ele>5.9</ele><time>2015-05-01T16:00:33.0000000+00:00</time></trkpt><trkpt lat="34.8997736" lon="33.6384066"><ele>6.0</ele><time>2015-05-01T16:00:35.0000000+00:00</time></trkpt><trkpt lat="34.8997985" lon="33.6383356"><ele>6.4</ele><time>2015-05-01T16:00:38.0000000+00:00</time></trkpt><trkpt lat="34.8998194" lon="33.6382616"><ele>6.1</ele><time>2015-05-01T16:00:41.0000000+00:00</time></trkpt><trkpt lat="34.8998154" lon="33.6381982"><ele>6.9</ele><time>2015-05-01T16:00:44.0000000+00:00</time></trkpt><trkpt lat="34.8997817" lon="33.6381386"><ele>5.6</ele><time>2015-05-01T16:00:48.0000000+00:00</time></trkpt><trkpt lat="34.8997301" lon="33.6381379"><ele>10.0</ele><time>2015-05-01T16:01:14.0000000+00:00</time></trkpt><trkpt lat="34.8996797" lon="33.6381346"><ele>11.1</ele><time>2015-05-01T16:01:18.0000000+00:00</time></trkpt><trkpt lat="34.8996342" lon="33.6381434"><ele>11.0</ele><time>2015-05-01T16:01:20.0000000+00:00</time></trkpt><trkpt lat="34.8995717" lon="33.6381452"><ele>10.5</ele><time>2015-05-01T16:01:22.0000000+00:00</time></trkpt><trkpt lat="34.899509" lon="33.638149"><ele>9.4</ele><time>2015-05-01T16:01:24.0000000+00:00</time></trkpt><trkpt lat="34.8994504" lon="33.6381548"><ele>8.9</ele><time>2015-05-01T16:01:26.0000000+00:00</time></trkpt><trkpt lat="34.8993975" lon="33.6381611"><ele>7.7</ele><time>2015-05-01T16:01:28.0000000+00:00</time></trkpt><trkpt lat="34.8993501" lon="33.6381725"><ele>7.9</ele><time>2015-05-01T16:01:30.0000000+00:00</time></trkpt><trkpt lat="34.8993048" lon="33.6381816"><ele>8.0</ele><time>2015-05-01T16:01:32.0000000+00:00</time></trkpt><trkpt lat="34.8992586" lon="33.6381851"><ele>8.5</ele><time>2015-05-01T16:01:34.0000000+00:00</time></trkpt><trkpt lat="34.8991927" lon="33.6381865"><ele>8.1</ele><time>2015-05-01T16:01:37.0000000+00:00</time></trkpt><trkpt lat="34.8991247" lon="33.638169"><ele>8.0</ele><time>2015-05-01T16:01:40.0000000+00:00</time></trkpt><trkpt lat="34.8990718" lon="33.6381597"><ele>7.5</ele><time>2015-05-01T16:01:42.0000000+00:00</time></trkpt><trkpt lat="34.8990032" lon="33.6381617"><ele>6.4</ele><time>2015-05-01T16:01:44.0000000+00:00</time></trkpt><trkpt lat="34.8989317" lon="33.6381858"><ele>6.4</ele><time>2015-05-01T16:01:46.0000000+00:00</time></trkpt><trkpt lat="34.8988724" lon="33.6382279"><ele>6.1</ele><time>2015-05-01T16:01:48.0000000+00:00</time></trkpt><trkpt lat="34.8988076" lon="33.6382508"><ele>6.5</ele><time>2015-05-01T16:01:50.0000000+00:00</time></trkpt><trkpt lat="34.898737" lon="33.6382643"><ele>4.9</ele><time>2015-05-01T16:01:52.0000000+00:00</time></trkpt><trkpt lat="34.8986595" lon="33.6382777"><ele>4.2</ele><time>2015-05-01T16:01:54.0000000+00:00</time></trkpt><trkpt lat="34.8985831" lon="33.6382863"><ele>4.1</ele><time>2015-05-01T16:01:56.0000000+00:00</time></trkpt><trkpt lat="34.8985096" lon="33.6382921"><ele>2.8</ele><time>2015-05-01T16:01:58.0000000+00:00</time></trkpt><trkpt lat="34.8984375" lon="33.638282"><ele>3.0</ele><time>2015-05-01T16:02:00.0000000+00:00</time></trkpt><trkpt lat="34.8983651" lon="33.6382786"><ele>3.8</ele><time>2015-05-01T16:02:02.0000000+00:00</time></trkpt><trkpt lat="34.8982982" lon="33.638287"><ele>3.5</ele><time>2015-05-01T16:02:04.0000000+00:00</time></trkpt><trkpt lat="34.8982495" lon="33.6382932"><ele>2.1</ele><time>2015-05-01T16:02:06.0000000+00:00</time></trkpt><trkpt lat="34.8982557" lon="33.6382375"><ele>2.4</ele><time>2015-05-01T16:02:21.0000000+00:00</time></trkpt><trkpt lat="34.8982657" lon="33.6381723"><ele>5.7</ele><time>2015-05-01T16:02:26.0000000+00:00</time></trkpt><trkpt lat="34.8983099" lon="33.6381542"><ele>10.8</ele><time>2015-05-01T16:02:41.0000000+00:00</time></trkpt><trkpt lat="34.8983284" lon="33.6382048"><ele>10.8</ele><time>2015-05-01T16:03:05.0000000+00:00</time></trkpt><trkpt lat="34.8983655" lon="33.6382359"><ele>7.3</ele><time>2015-05-01T16:03:47.0000000+00:00</time></trkpt><trkpt lat="34.8983196" lon="33.6382185"><ele>10.6</ele><time>2015-05-01T16:04:04.0000000+00:00</time></trkpt><trkpt lat="34.898267" lon="33.6382212"><ele>11.5</ele><time>2015-05-01T16:04:07.0000000+00:00</time></trkpt><trkpt lat="34.8982016" lon="33.6382266"><ele>12.4</ele><time>2015-05-01T16:04:09.0000000+00:00</time></trkpt><trkpt lat="34.898132" lon="33.6382306"><ele>12.1</ele><time>2015-05-01T16:04:11.0000000+00:00</time></trkpt><trkpt lat="34.8980748" lon="33.6382312"><ele>12.0</ele><time>2015-05-01T16:04:13.0000000+00:00</time></trkpt><trkpt lat="34.8980242" lon="33.6382605"><ele>13.2</ele><time>2015-05-01T16:04:18.0000000+00:00</time></trkpt><trkpt lat="34.8979797" lon="33.6382782"><ele>12.3</ele><time>2015-05-01T16:04:20.0000000+00:00</time></trkpt><trkpt lat="34.8979036" lon="33.6382867"><ele>12.3</ele><time>2015-05-01T16:04:22.0000000+00:00</time></trkpt><trkpt lat="34.8978213" lon="33.6383111"><ele>13.1</ele><time>2015-05-01T16:04:24.0000000+00:00</time></trkpt><trkpt lat="34.8977544" lon="33.6383249"><ele>11.8</ele><time>2015-05-01T16:04:26.0000000+00:00</time></trkpt><trkpt lat="34.8977071" lon="33.6383129"><ele>10.7</ele><time>2015-05-01T16:04:28.0000000+00:00</time></trkpt><trkpt lat="34.8976509" lon="33.638314"><ele>9.4</ele><time>2015-05-01T16:04:30.0000000+00:00</time></trkpt><trkpt lat="34.8975258" lon="33.6383493"><ele>9.4</ele><time>2015-05-01T16:04:32.0000000+00:00</time></trkpt><trkpt lat="34.8974656" lon="33.6383453"><ele>8.2</ele><time>2015-05-01T16:04:33.0000000+00:00</time></trkpt><trkpt lat="34.8973999" lon="33.6383379"><ele>8.1</ele><time>2015-05-01T16:04:34.0000000+00:00</time></trkpt><trkpt lat="34.8972964" lon="33.6383439"><ele>8.0</ele><time>2015-05-01T16:04:36.0000000+00:00</time></trkpt><trkpt lat="34.8972075" lon="33.6383567"><ele>7.8</ele><time>2015-05-01T16:04:38.0000000+00:00</time></trkpt><trkpt lat="34.8971595" lon="33.6383648"><ele>7.9</ele><time>2015-05-01T16:04:39.0000000+00:00</time></trkpt><trkpt lat="34.8970807" lon="33.6383672"><ele>8.2</ele><time>2015-05-01T16:04:41.0000000+00:00</time></trkpt><trkpt lat="34.8970057" lon="33.6383755"><ele>8.3</ele><time>2015-05-01T16:04:43.0000000+00:00</time></trkpt><trkpt lat="34.8969599" lon="33.6383729"><ele>8.2</ele><time>2015-05-01T16:04:44.0000000+00:00</time></trkpt><trkpt lat="34.8968709" lon="33.6383747"><ele>9.3</ele><time>2015-05-01T16:04:46.0000000+00:00</time></trkpt><trkpt lat="34.8967824" lon="33.6383852"><ele>10.1</ele><time>2015-05-01T16:04:48.0000000+00:00</time></trkpt><trkpt lat="34.8967363" lon="33.6383928"><ele>11.1</ele><time>2015-05-01T16:04:49.0000000+00:00</time></trkpt><trkpt lat="34.8966483" lon="33.6384106"><ele>11.8</ele><time>2015-05-01T16:04:51.0000000+00:00</time></trkpt><trkpt lat="34.8965582" lon="33.638415"><ele>12.0</ele><time>2015-05-01T16:04:53.0000000+00:00</time></trkpt><trkpt lat="34.8965128" lon="33.6384192"><ele>12.0</ele><time>2015-05-01T16:04:54.0000000+00:00</time></trkpt><trkpt lat="34.8964615" lon="33.6384357"><ele>11.5</ele><time>2015-05-01T16:04:55.0000000+00:00</time></trkpt><trkpt lat="34.896414" lon="33.6384405"><ele>11.3</ele><time>2015-05-01T16:04:56.0000000+00:00</time></trkpt><trkpt lat="34.8963622" lon="33.6384316"><ele>11.1</ele><time>2015-05-01T16:04:57.0000000+00:00</time></trkpt><trkpt lat="34.896269" lon="33.6384408"><ele>11.1</ele><time>2015-05-01T16:04:59.0000000+00:00</time></trkpt><trkpt lat="34.8961858" lon="33.6384664"><ele>10.5</ele><time>2015-05-01T16:05:01.0000000+00:00</time></trkpt><trkpt lat="34.8961139" lon="33.6384891"><ele>9.4</ele><time>2015-05-01T16:05:03.0000000+00:00</time></trkpt><trkpt lat="34.8960198" lon="33.6384973"><ele>9.9</ele><time>2015-05-01T16:05:05.0000000+00:00</time></trkpt><trkpt lat="34.8959441" lon="33.6385137"><ele>9.7</ele><time>2015-05-01T16:05:07.0000000+00:00</time></trkpt><trkpt lat="34.8958973" lon="33.6385254"><ele>9.4</ele><time>2015-05-01T16:05:08.0000000+00:00</time></trkpt><trkpt lat="34.8958215" lon="33.638558"><ele>9.9</ele><time>2015-05-01T16:05:10.0000000+00:00</time></trkpt><trkpt lat="34.8957371" lon="33.6385772"><ele>9.5</ele><time>2015-05-01T16:05:12.0000000+00:00</time></trkpt><trkpt lat="34.8956922" lon="33.6385698"><ele>9.3</ele><time>2015-05-01T16:05:13.0000000+00:00</time></trkpt><trkpt lat="34.895643" lon="33.6385504"><ele>9.1</ele><time>2015-05-01T16:05:14.0000000+00:00</time></trkpt><trkpt lat="34.895598" lon="33.6385349"><ele>9.6</ele><time>2015-05-01T16:05:15.0000000+00:00</time></trkpt><trkpt lat="34.8955483" lon="33.6385338"><ele>9.8</ele><time>2015-05-01T16:05:16.0000000+00:00</time></trkpt><trkpt lat="34.8954984" lon="33.6385336"><ele>9.9</ele><time>2015-05-01T16:05:17.0000000+00:00</time></trkpt><trkpt lat="34.8954437" lon="33.6385428"><ele>10.0</ele><time>2015-05-01T16:05:18.0000000+00:00</time></trkpt><trkpt lat="34.8953963" lon="33.6385561"><ele>9.5</ele><time>2015-05-01T16:05:19.0000000+00:00</time></trkpt><trkpt lat="34.8953483" lon="33.6385661"><ele>9.8</ele><time>2015-05-01T16:05:20.0000000+00:00</time></trkpt><trkpt lat="34.8952616" lon="33.6385766"><ele>9.2</ele><time>2015-05-01T16:05:22.0000000+00:00</time></trkpt><trkpt lat="34.8951737" lon="33.6385802"><ele>9.8</ele><time>2015-05-01T16:05:24.0000000+00:00</time></trkpt><trkpt lat="34.8951284" lon="33.6385866"><ele>9.9</ele><time>2015-05-01T16:05:25.0000000+00:00</time></trkpt><trkpt lat="34.8950791" lon="33.638594"><ele>10.0</ele><time>2015-05-01T16:05:26.0000000+00:00</time></trkpt><trkpt lat="34.8949883" lon="33.6386004"><ele>9.5</ele><time>2015-05-01T16:05:28.0000000+00:00</time></trkpt><trkpt lat="34.8949379" lon="33.6386064"><ele>9.8</ele><time>2015-05-01T16:05:29.0000000+00:00</time></trkpt><trkpt lat="34.8948922" lon="33.638608"><ele>9.9</ele><time>2015-05-01T16:05:30.0000000+00:00</time></trkpt><trkpt lat="34.8948399" lon="33.6386164"><ele>10.0</ele><time>2015-05-01T16:05:31.0000000+00:00</time></trkpt><trkpt lat="34.894779" lon="33.6386216"><ele>10.0</ele><time>2015-05-01T16:05:32.0000000+00:00</time></trkpt><trkpt lat="34.8947229" lon="33.6386241"><ele>10.0</ele><time>2015-05-01T16:05:33.0000000+00:00</time></trkpt><trkpt lat="34.8946714" lon="33.6386294"><ele>10.0</ele><time>2015-05-01T16:05:34.0000000+00:00</time></trkpt><trkpt lat="34.8946029" lon="33.638641"><ele>10.5</ele><time>2015-05-01T16:05:36.0000000+00:00</time></trkpt><trkpt lat="34.8945438" lon="33.6386552"><ele>9.5</ele><time>2015-05-01T16:05:39.0000000+00:00</time></trkpt><trkpt lat="34.8944602" lon="33.6386651"><ele>9.9</ele><time>2015-05-01T16:05:41.0000000+00:00</time></trkpt><trkpt lat="34.8944118" lon="33.6386692"><ele>10.0</ele><time>2015-05-01T16:05:42.0000000+00:00</time></trkpt><trkpt lat="34.8943233" lon="33.6386756"><ele>9.3</ele><time>2015-05-01T16:05:44.0000000+00:00</time></trkpt><trkpt lat="34.8942664" lon="33.6386812"><ele>9.1</ele><time>2015-05-01T16:05:45.0000000+00:00</time></trkpt><trkpt lat="34.8942179" lon="33.6386922"><ele>9.1</ele><time>2015-05-01T16:05:46.0000000+00:00</time></trkpt><trkpt lat="34.8941685" lon="33.6386957"><ele>9.1</ele><time>2015-05-01T16:05:47.0000000+00:00</time></trkpt><trkpt lat="34.8941215" lon="33.6387016"><ele>9.5</ele><time>2015-05-01T16:05:48.0000000+00:00</time></trkpt><trkpt lat="34.8940689" lon="33.638708"><ele>9.8</ele><time>2015-05-01T16:05:49.0000000+00:00</time></trkpt><trkpt lat="34.8940193" lon="33.6387069"><ele>9.9</ele><time>2015-05-01T16:05:50.0000000+00:00</time></trkpt><trkpt lat="34.8939647" lon="33.6387152"><ele>10.0</ele><time>2015-05-01T16:05:51.0000000+00:00</time></trkpt><trkpt lat="34.8939194" lon="33.6387175"><ele>10.0</ele><time>2015-05-01T16:05:52.0000000+00:00</time></trkpt><trkpt lat="34.8938703" lon="33.6387076"><ele>10.0</ele><time>2015-05-01T16:05:53.0000000+00:00</time></trkpt><trkpt lat="34.8938198" lon="33.6387078"><ele>10.0</ele><time>2015-05-01T16:05:54.0000000+00:00</time></trkpt><trkpt lat="34.8937628" lon="33.6387113"><ele>10.0</ele><time>2015-05-01T16:05:55.0000000+00:00</time></trkpt><trkpt lat="34.8936854" lon="33.6387185"><ele>9.3</ele><time>2015-05-01T16:05:57.0000000+00:00</time></trkpt><trkpt lat="34.8936162" lon="33.6387245"><ele>9.1</ele><time>2015-05-01T16:05:59.0000000+00:00</time></trkpt><trkpt lat="34.8935365" lon="33.6387282"><ele>9.0</ele><time>2015-05-01T16:06:01.0000000+00:00</time></trkpt><trkpt lat="34.8934866" lon="33.638727"><ele>9.5</ele><time>2015-05-01T16:06:02.0000000+00:00</time></trkpt><trkpt lat="34.8933984" lon="33.6387089"><ele>9.9</ele><time>2015-05-01T16:06:04.0000000+00:00</time></trkpt><trkpt lat="34.8933543" lon="33.6386905"><ele>10.5</ele><time>2015-05-01T16:06:05.0000000+00:00</time></trkpt><trkpt lat="34.8932956" lon="33.6386761"><ele>10.9</ele><time>2015-05-01T16:06:07.0000000+00:00</time></trkpt><trkpt lat="34.8932412" lon="33.6386686"><ele>10.2</ele><time>2015-05-01T16:06:09.0000000+00:00</time></trkpt><trkpt lat="34.8931619" lon="33.6386595"><ele>9.8</ele><time>2015-05-01T16:06:11.0000000+00:00</time></trkpt><trkpt lat="34.8931074" lon="33.6386612"><ele>9.4</ele><time>2015-05-01T16:06:12.0000000+00:00</time></trkpt><trkpt lat="34.8930621" lon="33.6386553"><ele>10.2</ele><time>2015-05-01T16:06:13.0000000+00:00</time></trkpt><trkpt lat="34.8930163" lon="33.6386413"><ele>10.1</ele><time>2015-05-01T16:06:14.0000000+00:00</time></trkpt><trkpt lat="34.8929286" lon="33.6386067"><ele>9.5</ele><time>2015-05-01T16:06:16.0000000+00:00</time></trkpt><trkpt lat="34.8928333" lon="33.638592"><ele>8.2</ele><time>2015-05-01T16:06:18.0000000+00:00</time></trkpt><trkpt lat="34.8927855" lon="33.6385842"><ele>7.6</ele><time>2015-05-01T16:06:19.0000000+00:00</time></trkpt><trkpt lat="34.8927058" lon="33.6385588"><ele>7.2</ele><time>2015-05-01T16:06:21.0000000+00:00</time></trkpt><trkpt lat="34.8926276" lon="33.6385384"><ele>8.8</ele><time>2015-05-01T16:06:23.0000000+00:00</time></trkpt><trkpt lat="34.8925457" lon="33.6385031"><ele>10.5</ele><time>2015-05-01T16:06:25.0000000+00:00</time></trkpt><trkpt lat="34.8925058" lon="33.6384744"><ele>10.7</ele><time>2015-05-01T16:06:26.0000000+00:00</time></trkpt><trkpt lat="34.892433" lon="33.6384311"><ele>10.5</ele><time>2015-05-01T16:06:28.0000000+00:00</time></trkpt><trkpt lat="34.8923592" lon="33.6383776"><ele>10.1</ele><time>2015-05-01T16:06:30.0000000+00:00</time></trkpt><trkpt lat="34.8922894" lon="33.6383139"><ele>10.0</ele><time>2015-05-01T16:06:32.0000000+00:00</time></trkpt><trkpt lat="34.892214" lon="33.6382404"><ele>10.0</ele><time>2015-05-01T16:06:34.0000000+00:00</time></trkpt><trkpt lat="34.8921507" lon="33.6381738"><ele>10.0</ele><time>2015-05-01T16:06:36.0000000+00:00</time></trkpt><trkpt lat="34.8920904" lon="33.6381028"><ele>9.5</ele><time>2015-05-01T16:06:38.0000000+00:00</time></trkpt><trkpt lat="34.8920599" lon="33.6380568"><ele>9.3</ele><time>2015-05-01T16:06:39.0000000+00:00</time></trkpt><trkpt lat="34.8920358" lon="33.6380036"><ele>9.1</ele><time>2015-05-01T16:06:40.0000000+00:00</time></trkpt><trkpt lat="34.8919865" lon="33.6379209"><ele>9.6</ele><time>2015-05-01T16:06:42.0000000+00:00</time></trkpt><trkpt lat="34.8919438" lon="33.6378298"><ele>10.7</ele><time>2015-05-01T16:06:44.0000000+00:00</time></trkpt><trkpt lat="34.8919127" lon="33.6377376"><ele>10.4</ele><time>2015-05-01T16:06:46.0000000+00:00</time></trkpt><trkpt lat="34.8918798" lon="33.6376584"><ele>10.9</ele><time>2015-05-01T16:06:48.0000000+00:00</time></trkpt><trkpt lat="34.8918542" lon="33.6376079"><ele>10.4</ele><time>2015-05-01T16:06:49.0000000+00:00</time></trkpt><trkpt lat="34.8918116" lon="33.6375254"><ele>10.1</ele><time>2015-05-01T16:06:51.0000000+00:00</time></trkpt><trkpt lat="34.89177" lon="33.6374499"><ele>10.8</ele><time>2015-05-01T16:06:53.0000000+00:00</time></trkpt><trkpt lat="34.8917321" lon="33.6373774"><ele>11.0</ele><time>2015-05-01T16:06:55.0000000+00:00</time></trkpt><trkpt lat="34.8916942" lon="33.6373082"><ele>10.5</ele><time>2015-05-01T16:06:57.0000000+00:00</time></trkpt><trkpt lat="34.8916489" lon="33.6372631"><ele>9.4</ele><time>2015-05-01T16:06:59.0000000+00:00</time></trkpt><trkpt lat="34.8916042" lon="33.6372443"><ele>8.4</ele><time>2015-05-01T16:07:01.0000000+00:00</time></trkpt><trkpt lat="34.8915472" lon="33.6372198"><ele>9.1</ele><time>2015-05-01T16:07:04.0000000+00:00</time></trkpt><trkpt lat="34.8914924" lon="33.6371823"><ele>10.3</ele><time>2015-05-01T16:07:07.0000000+00:00</time></trkpt><trkpt lat="34.8914313" lon="33.637179"><ele>7.9</ele><time>2015-05-01T16:07:10.0000000+00:00</time></trkpt><trkpt lat="34.8913703" lon="33.6371954"><ele>6.3</ele><time>2015-05-01T16:07:13.0000000+00:00</time></trkpt><trkpt lat="34.8913112" lon="33.6372004"><ele>6.8</ele><time>2015-05-01T16:07:16.0000000+00:00</time></trkpt><trkpt lat="34.8912441" lon="33.6371882"><ele>7.0</ele><time>2015-05-01T16:07:19.0000000+00:00</time></trkpt><trkpt lat="34.8911868" lon="33.6371763"><ele>7.8</ele><time>2015-05-01T16:07:21.0000000+00:00</time></trkpt><trkpt lat="34.8911202" lon="33.6371763"><ele>7.5</ele><time>2015-05-01T16:07:23.0000000+00:00</time></trkpt><trkpt lat="34.8910567" lon="33.6371694"><ele>6.6</ele><time>2015-05-01T16:07:25.0000000+00:00</time></trkpt><trkpt lat="34.8910017" lon="33.6371461"><ele>6.9</ele><time>2015-05-01T16:07:27.0000000+00:00</time></trkpt><trkpt lat="34.8909485" lon="33.6371209"><ele>7.0</ele><time>2015-05-01T16:07:29.0000000+00:00</time></trkpt><trkpt lat="34.8908974" lon="33.6371028"><ele>6.0</ele><time>2015-05-01T16:07:31.0000000+00:00</time></trkpt><trkpt lat="34.8908513" lon="33.6370755"><ele>6.0</ele><time>2015-05-01T16:07:33.0000000+00:00</time></trkpt><trkpt lat="34.8908142" lon="33.6370387"><ele>5.0</ele><time>2015-05-01T16:07:35.0000000+00:00</time></trkpt><trkpt lat="34.8907698" lon="33.6370283"><ele>11.0</ele><time>2015-05-01T16:08:22.0000000+00:00</time></trkpt><trkpt lat="34.8907232" lon="33.6370098"><ele>10.3</ele><time>2015-05-01T16:09:02.0000000+00:00</time></trkpt><trkpt lat="34.890676" lon="33.6369984"><ele>9.1</ele><time>2015-05-01T16:09:04.0000000+00:00</time></trkpt><trkpt lat="34.8906159" lon="33.6369782"><ele>8.5</ele><time>2015-05-01T16:09:06.0000000+00:00</time></trkpt><trkpt lat="34.8905612" lon="33.6369564"><ele>7.7</ele><time>2015-05-01T16:09:08.0000000+00:00</time></trkpt><trkpt lat="34.8905083" lon="33.6369336"><ele>6.7</ele><time>2015-05-01T16:09:10.0000000+00:00</time></trkpt><trkpt lat="34.890458" lon="33.6369156"><ele>6.7</ele><time>2015-05-01T16:09:12.0000000+00:00</time></trkpt><trkpt lat="34.8904062" lon="33.6369006"><ele>6.9</ele><time>2015-05-01T16:09:14.0000000+00:00</time></trkpt><trkpt lat="34.8903546" lon="33.6368805"><ele>5.8</ele><time>2015-05-01T16:09:16.0000000+00:00</time></trkpt><trkpt lat="34.8903064" lon="33.6368644"><ele>5.2</ele><time>2015-05-01T16:09:18.0000000+00:00</time></trkpt><trkpt lat="34.8902546" lon="33.6368458"><ele>5.4</ele><time>2015-05-01T16:09:21.0000000+00:00</time></trkpt><trkpt lat="34.8902037" lon="33.636856"><ele>5.4</ele><time>2015-05-01T16:09:26.0000000+00:00</time></trkpt><trkpt lat="34.8901578" lon="33.6368628"><ele>3.4</ele><time>2015-05-01T16:09:29.0000000+00:00</time></trkpt><trkpt lat="34.890088" lon="33.6368611"><ele>6.2</ele><time>2015-05-01T16:09:32.0000000+00:00</time></trkpt><trkpt lat="34.8900188" lon="33.6368277"><ele>5.6</ele><time>2015-05-01T16:09:34.0000000+00:00</time></trkpt><trkpt lat="34.889955" lon="33.6367786"><ele>5.2</ele><time>2015-05-01T16:09:36.0000000+00:00</time></trkpt><trkpt lat="34.8899027" lon="33.6367312"><ele>6.1</ele><time>2015-05-01T16:09:38.0000000+00:00</time></trkpt><trkpt lat="34.8898466" lon="33.6367135"><ele>6.0</ele><time>2015-05-01T16:09:40.0000000+00:00</time></trkpt><trkpt lat="34.8897936" lon="33.6367233"><ele>6.8</ele><time>2015-05-01T16:09:42.0000000+00:00</time></trkpt><trkpt lat="34.8897456" lon="33.6367277"><ele>8.2</ele><time>2015-05-01T16:09:44.0000000+00:00</time></trkpt><trkpt lat="34.8896863" lon="33.6367136"><ele>9.8</ele><time>2015-05-01T16:09:46.0000000+00:00</time></trkpt><trkpt lat="34.8896152" lon="33.6366914"><ele>11.5</ele><time>2015-05-01T16:09:48.0000000+00:00</time></trkpt><trkpt lat="34.8895391" lon="33.6366797"><ele>11.9</ele><time>2015-05-01T16:09:50.0000000+00:00</time></trkpt><trkpt lat="34.8894682" lon="33.6366651"><ele>12.0</ele><time>2015-05-01T16:09:52.0000000+00:00</time></trkpt><trkpt lat="34.8894041" lon="33.6366523"><ele>12.8</ele><time>2015-05-01T16:09:54.0000000+00:00</time></trkpt><trkpt lat="34.8893483" lon="33.6366606"><ele>13.0</ele><time>2015-05-01T16:09:56.0000000+00:00</time></trkpt><trkpt lat="34.8894134" lon="33.6366695"><ele>8.7</ele><time>2015-05-01T16:10:44.0000000+00:00</time></trkpt><trkpt lat="34.889463" lon="33.6366729"><ele>10.2</ele><time>2015-05-01T16:10:46.0000000+00:00</time></trkpt><trkpt lat="34.8895114" lon="33.6366732"><ele>10.8</ele><time>2015-05-01T16:10:48.0000000+00:00</time></trkpt><trkpt lat="34.8895598" lon="33.6366609"><ele>10.5</ele><time>2015-05-01T16:10:50.0000000+00:00</time></trkpt><trkpt lat="34.8896069" lon="33.6366655"><ele>10.1</ele><time>2015-05-01T16:10:52.0000000+00:00</time></trkpt><trkpt lat="34.8896678" lon="33.6366886"><ele>8.3</ele><time>2015-05-01T16:10:55.0000000+00:00</time></trkpt><trkpt lat="34.8897269" lon="33.6367135"><ele>8.9</ele><time>2015-05-01T16:10:58.0000000+00:00</time></trkpt><trkpt lat="34.8897815" lon="33.6367197"><ele>9.9</ele><time>2015-05-01T16:11:01.0000000+00:00</time></trkpt><trkpt lat="34.8897937" lon="33.6366652"><ele>9.8</ele><time>2015-05-01T16:11:22.0000000+00:00</time></trkpt><trkpt lat="34.8898402" lon="33.6366492"><ele>9.4</ele><time>2015-05-01T16:11:25.0000000+00:00</time></trkpt><trkpt lat="34.8898988" lon="33.6366336"><ele>10.8</ele><time>2015-05-01T16:11:28.0000000+00:00</time></trkpt><trkpt lat="34.8899634" lon="33.636662"><ele>10.5</ele><time>2015-05-01T16:11:31.0000000+00:00</time></trkpt><trkpt lat="34.8900137" lon="33.6366739"><ele>10.1</ele><time>2015-05-01T16:11:33.0000000+00:00</time></trkpt><trkpt lat="34.8900764" lon="33.6366957"><ele>8.4</ele><time>2015-05-01T16:11:36.0000000+00:00</time></trkpt><trkpt lat="34.8901148" lon="33.6367293"><ele>8.1</ele><time>2015-05-01T16:11:39.0000000+00:00</time></trkpt><trkpt lat="34.890169" lon="33.6367524"><ele>8.5</ele><time>2015-05-01T16:11:42.0000000+00:00</time></trkpt><trkpt lat="34.89024" lon="33.6367752"><ele>9.1</ele><time>2015-05-01T16:11:44.0000000+00:00</time></trkpt><trkpt lat="34.8902836" lon="33.636789"><ele>9.1</ele><time>2015-05-01T16:11:45.0000000+00:00</time></trkpt><trkpt lat="34.8903698" lon="33.6368189"><ele>9.3</ele><time>2015-05-01T16:11:47.0000000+00:00</time></trkpt><trkpt lat="34.8904536" lon="33.6368478"><ele>9.6</ele><time>2015-05-01T16:11:49.0000000+00:00</time></trkpt><trkpt lat="34.8905334" lon="33.6368752"><ele>9.9</ele><time>2015-05-01T16:11:51.0000000+00:00</time></trkpt><trkpt lat="34.8906094" lon="33.6369064"><ele>9.2</ele><time>2015-05-01T16:11:53.0000000+00:00</time></trkpt><trkpt lat="34.8906827" lon="33.6369303"><ele>9.6</ele><time>2015-05-01T16:11:55.0000000+00:00</time></trkpt><trkpt lat="34.8907542" lon="33.636952"><ele>9.7</ele><time>2015-05-01T16:11:57.0000000+00:00</time></trkpt><trkpt lat="34.8908199" lon="33.6369743"><ele>9.9</ele><time>2015-05-01T16:11:59.0000000+00:00</time></trkpt><trkpt lat="34.8908889" lon="33.6370014"><ele>9.0</ele><time>2015-05-01T16:12:01.0000000+00:00</time></trkpt><trkpt lat="34.8909586" lon="33.637026"><ele>8.3</ele><time>2015-05-01T16:12:03.0000000+00:00</time></trkpt><trkpt lat="34.8910347" lon="33.6370508"><ele>7.8</ele><time>2015-05-01T16:12:05.0000000+00:00</time></trkpt><trkpt lat="34.8911063" lon="33.6370739"><ele>7.7</ele><time>2015-05-01T16:12:07.0000000+00:00</time></trkpt><trkpt lat="34.8911801" lon="33.6370884"><ele>7.2</ele><time>2015-05-01T16:12:09.0000000+00:00</time></trkpt><trkpt lat="34.8912535" lon="33.6370928"><ele>7.1</ele><time>2015-05-01T16:12:11.0000000+00:00</time></trkpt><trkpt lat="34.8913248" lon="33.6370847"><ele>7.5</ele><time>2015-05-01T16:12:13.0000000+00:00</time></trkpt><trkpt lat="34.891379" lon="33.6370557"><ele>7.9</ele><time>2015-05-01T16:12:15.0000000+00:00</time></trkpt><trkpt lat="34.8914224" lon="33.6370303"><ele>8.0</ele><time>2015-05-01T16:12:17.0000000+00:00</time></trkpt><trkpt lat="34.8914665" lon="33.6370015"><ele>8.0</ele><time>2015-05-01T16:12:19.0000000+00:00</time></trkpt><trkpt lat="34.8915048" lon="33.6369509"><ele>7.5</ele><time>2015-05-01T16:12:21.0000000+00:00</time></trkpt><trkpt lat="34.8915277" lon="33.6368823"><ele>7.9</ele><time>2015-05-01T16:12:23.0000000+00:00</time></trkpt><trkpt lat="34.891542" lon="33.636806"><ele>8.5</ele><time>2015-05-01T16:12:25.0000000+00:00</time></trkpt><trkpt lat="34.8915425" lon="33.6367293"><ele>8.9</ele><time>2015-05-01T16:12:27.0000000+00:00</time></trkpt><trkpt lat="34.8915234" lon="33.6366556"><ele>9.0</ele><time>2015-05-01T16:12:29.0000000+00:00</time></trkpt><trkpt lat="34.8915052" lon="33.6365866"><ele>9.8</ele><time>2015-05-01T16:12:31.0000000+00:00</time></trkpt><trkpt lat="34.8914893" lon="33.6365181"><ele>10.0</ele><time>2015-05-01T16:12:33.0000000+00:00</time></trkpt><trkpt lat="34.8914662" lon="33.6364602"><ele>9.8</ele><time>2015-05-01T16:12:35.0000000+00:00</time></trkpt><trkpt lat="34.891441" lon="33.6364024"><ele>10.0</ele><time>2015-05-01T16:12:38.0000000+00:00</time></trkpt><trkpt lat="34.8914026" lon="33.6363571"><ele>6.9</ele><time>2015-05-01T16:12:46.0000000+00:00</time></trkpt><trkpt lat="34.8913785" lon="33.6362909"><ele>6.3</ele><time>2015-05-01T16:12:49.0000000+00:00</time></trkpt><trkpt lat="34.8913547" lon="33.6362357"><ele>6.6</ele><time>2015-05-01T16:12:51.0000000+00:00</time></trkpt><trkpt lat="34.8913336" lon="33.6361753"><ele>6.9</ele><time>2015-05-01T16:12:53.0000000+00:00</time></trkpt><trkpt lat="34.8913178" lon="33.6361128"><ele>7.7</ele><time>2015-05-01T16:12:55.0000000+00:00</time></trkpt><trkpt lat="34.8913001" lon="33.6360482"><ele>8.5</ele><time>2015-05-01T16:12:57.0000000+00:00</time></trkpt><trkpt lat="34.891284" lon="33.6359795"><ele>8.6</ele><time>2015-05-01T16:12:59.0000000+00:00</time></trkpt><trkpt lat="34.8912701" lon="33.6359072"><ele>9.4</ele><time>2015-05-01T16:13:01.0000000+00:00</time></trkpt><trkpt lat="34.8912539" lon="33.6358412"><ele>9.9</ele><time>2015-05-01T16:13:03.0000000+00:00</time></trkpt><trkpt lat="34.8912384" lon="33.6357774"><ele>10.0</ele><time>2015-05-01T16:13:05.0000000+00:00</time></trkpt><trkpt lat="34.8912226" lon="33.635726"><ele>10.8</ele><time>2015-05-01T16:13:07.0000000+00:00</time></trkpt><trkpt lat="34.8912027" lon="33.6356695"><ele>10.4</ele><time>2015-05-01T16:13:11.0000000+00:00</time></trkpt><trkpt lat="34.8911778" lon="33.6356103"><ele>10.8</ele><time>2015-05-01T16:13:15.0000000+00:00</time></trkpt><trkpt lat="34.8911529" lon="33.6355491"><ele>11.0</ele><time>2015-05-01T16:13:18.0000000+00:00</time></trkpt><trkpt lat="34.8911247" lon="33.635467"><ele>11.8</ele><time>2015-05-01T16:13:21.0000000+00:00</time></trkpt><trkpt lat="34.8911057" lon="33.6353789"><ele>12.0</ele><time>2015-05-01T16:13:23.0000000+00:00</time></trkpt><trkpt lat="34.891083" lon="33.6352901"><ele>12.0</ele><time>2015-05-01T16:13:25.0000000+00:00</time></trkpt><trkpt lat="34.891062" lon="33.6352124"><ele>12.8</ele><time>2015-05-01T16:13:27.0000000+00:00</time></trkpt><trkpt lat="34.8910445" lon="33.6351381"><ele>13.0</ele><time>2015-05-01T16:13:29.0000000+00:00</time></trkpt><trkpt lat="34.8910266" lon="33.6350721"><ele>13.0</ele><time>2015-05-01T16:13:31.0000000+00:00</time></trkpt><trkpt lat="34.8910034" lon="33.6349976"><ele>12.3</ele><time>2015-05-01T16:13:33.0000000+00:00</time></trkpt><trkpt lat="34.8909764" lon="33.634916"><ele>12.1</ele><time>2015-05-01T16:13:35.0000000+00:00</time></trkpt><trkpt lat="34.8909551" lon="33.6348311"><ele>12.3</ele><time>2015-05-01T16:13:37.0000000+00:00</time></trkpt><trkpt lat="34.8909365" lon="33.6347568"><ele>12.3</ele><time>2015-05-01T16:13:39.0000000+00:00</time></trkpt><trkpt lat="34.8909161" lon="33.634701"><ele>12.9</ele><time>2015-05-01T16:13:41.0000000+00:00</time></trkpt><trkpt lat="34.8908912" lon="33.6346386"><ele>13.0</ele><time>2015-05-01T16:13:44.0000000+00:00</time></trkpt><trkpt lat="34.8908764" lon="33.6345808"><ele>12.3</ele><time>2015-05-01T16:13:46.0000000+00:00</time></trkpt><trkpt lat="34.8908593" lon="33.6345219"><ele>12.3</ele><time>2015-05-01T16:13:48.0000000+00:00</time></trkpt><trkpt lat="34.8908505" lon="33.6344484"><ele>12.7</ele><time>2015-05-01T16:13:51.0000000+00:00</time></trkpt><trkpt lat="34.8908684" lon="33.6345219"><ele>12.0</ele><time>2015-05-01T16:14:01.0000000+00:00</time></trkpt><trkpt lat="34.8908901" lon="33.6345902"><ele>12.0</ele><time>2015-05-01T16:14:03.0000000+00:00</time></trkpt><trkpt lat="34.8909138" lon="33.6346733"><ele>11.5</ele><time>2015-05-01T16:14:05.0000000+00:00</time></trkpt><trkpt lat="34.8909391" lon="33.6347597"><ele>11.9</ele><time>2015-05-01T16:14:07.0000000+00:00</time></trkpt><trkpt lat="34.8909689" lon="33.6348429"><ele>12.0</ele><time>2015-05-01T16:14:09.0000000+00:00</time></trkpt><trkpt lat="34.8909963" lon="33.6349163"><ele>11.5</ele><time>2015-05-01T16:14:11.0000000+00:00</time></trkpt><trkpt lat="34.8910218" lon="33.6349825"><ele>11.1</ele><time>2015-05-01T16:14:13.0000000+00:00</time></trkpt><trkpt lat="34.8910422" lon="33.6350384"><ele>11.8</ele><time>2015-05-01T16:14:15.0000000+00:00</time></trkpt><trkpt lat="34.8910702" lon="33.6350836"><ele>10.3</ele><time>2015-05-01T16:14:37.0000000+00:00</time></trkpt><trkpt lat="34.8910772" lon="33.6351421"><ele>9.0</ele><time>2015-05-01T16:15:27.0000000+00:00</time></trkpt><trkpt lat="34.891117" lon="33.6350888"><ele>8.5</ele><time>2015-05-01T16:15:40.0000000+00:00</time></trkpt><trkpt lat="34.8911507" lon="33.6350214"><ele>8.5</ele><time>2015-05-01T16:15:43.0000000+00:00</time></trkpt><trkpt lat="34.8912035" lon="33.6349914"><ele>8.1</ele><time>2015-05-01T16:15:45.0000000+00:00</time></trkpt><trkpt lat="34.8913305" lon="33.6349378"><ele>8.8</ele><time>2015-05-01T16:15:47.0000000+00:00</time></trkpt><trkpt lat="34.891386" lon="33.6349086"><ele>9.4</ele><time>2015-05-01T16:15:48.0000000+00:00</time></trkpt><trkpt lat="34.8914321" lon="33.6348788"><ele>9.7</ele><time>2015-05-01T16:15:49.0000000+00:00</time></trkpt><trkpt lat="34.8914804" lon="33.6348629"><ele>10.4</ele><time>2015-05-01T16:15:50.0000000+00:00</time></trkpt><trkpt lat="34.891524" lon="33.6348422"><ele>10.7</ele><time>2015-05-01T16:15:51.0000000+00:00</time></trkpt><trkpt lat="34.8916049" lon="33.6348034"><ele>11.7</ele><time>2015-05-01T16:15:53.0000000+00:00</time></trkpt><trkpt lat="34.891676" lon="33.6347745"><ele>11.9</ele><time>2015-05-01T16:15:55.0000000+00:00</time></trkpt><trkpt lat="34.8917319" lon="33.634747"><ele>12.8</ele><time>2015-05-01T16:15:57.0000000+00:00</time></trkpt><trkpt lat="34.8917907" lon="33.6347246"><ele>13.0</ele><time>2015-05-01T16:15:59.0000000+00:00</time></trkpt><trkpt lat="34.891844" lon="33.6347031"><ele>13.5</ele><time>2015-05-01T16:16:01.0000000+00:00</time></trkpt><trkpt lat="34.8918979" lon="33.6346852"><ele>13.9</ele><time>2015-05-01T16:16:03.0000000+00:00</time></trkpt><trkpt lat="34.8919532" lon="33.6346686"><ele>14.0</ele><time>2015-05-01T16:16:05.0000000+00:00</time></trkpt><trkpt lat="34.8920053" lon="33.6346499"><ele>14.5</ele><time>2015-05-01T16:16:07.0000000+00:00</time></trkpt><trkpt lat="34.8920587" lon="33.6346265"><ele>14.9</ele><time>2015-05-01T16:16:09.0000000+00:00</time></trkpt><trkpt lat="34.8921144" lon="33.6345989"><ele>15.0</ele><time>2015-05-01T16:16:11.0000000+00:00</time></trkpt><trkpt lat="34.8921796" lon="33.6345718"><ele>15.0</ele><time>2015-05-01T16:16:13.0000000+00:00</time></trkpt><trkpt lat="34.8922446" lon="33.634547"><ele>15.0</ele><time>2015-05-01T16:16:15.0000000+00:00</time></trkpt><trkpt lat="34.8923122" lon="33.6345199"><ele>14.5</ele><time>2015-05-01T16:16:17.0000000+00:00</time></trkpt><trkpt lat="34.8923784" lon="33.6344946"><ele>14.1</ele><time>2015-05-01T16:16:19.0000000+00:00</time></trkpt><trkpt lat="34.8924457" lon="33.6344673"><ele>14.1</ele><time>2015-05-01T16:16:21.0000000+00:00</time></trkpt><trkpt lat="34.8925133" lon="33.6344449"><ele>14.0</ele><time>2015-05-01T16:16:23.0000000+00:00</time></trkpt><trkpt lat="34.8925859" lon="33.634422"><ele>14.0</ele><time>2015-05-01T16:16:25.0000000+00:00</time></trkpt><trkpt lat="34.8926521" lon="33.6343975"><ele>14.0</ele><time>2015-05-01T16:16:27.0000000+00:00</time></trkpt><trkpt lat="34.8927121" lon="33.6343712"><ele>14.0</ele><time>2015-05-01T16:16:29.0000000+00:00</time></trkpt><trkpt lat="34.8927587" lon="33.6343501"><ele>14.0</ele><time>2015-05-01T16:16:31.0000000+00:00</time></trkpt><trkpt lat="34.8928053" lon="33.6343308"><ele>14.0</ele><time>2015-05-01T16:16:33.0000000+00:00</time></trkpt><trkpt lat="34.8928553" lon="33.6343085"><ele>14.8</ele><time>2015-05-01T16:16:35.0000000+00:00</time></trkpt><trkpt lat="34.8929049" lon="33.6342863"><ele>15.7</ele><time>2015-05-01T16:16:37.0000000+00:00</time></trkpt><trkpt lat="34.8929545" lon="33.6342634"><ele>16.0</ele><time>2015-05-01T16:16:40.0000000+00:00</time></trkpt><trkpt lat="34.8929965" lon="33.6342273"><ele>19.2</ele><time>2015-05-01T16:16:45.0000000+00:00</time></trkpt><trkpt lat="34.8930292" lon="33.6341746"><ele>20.1</ele><time>2015-05-01T16:16:50.0000000+00:00</time></trkpt><trkpt lat="34.8930792" lon="33.6341486"><ele>19.3</ele><time>2015-05-01T16:16:54.0000000+00:00</time></trkpt><trkpt lat="34.8931281" lon="33.6341244"><ele>19.1</ele><time>2015-05-01T16:16:57.0000000+00:00</time></trkpt><trkpt lat="34.8931688" lon="33.6340892"><ele>19.0</ele><time>2015-05-01T16:17:00.0000000+00:00</time></trkpt><trkpt lat="34.8932279" lon="33.6340864"><ele>18.3</ele><time>2015-05-01T16:17:04.0000000+00:00</time></trkpt><trkpt lat="34.8932678" lon="33.6341279"><ele>18.0</ele><time>2015-05-01T16:17:08.0000000+00:00</time></trkpt><trkpt lat="34.8932266" lon="33.6341645"><ele>17.3</ele><time>2015-05-01T16:17:10.0000000+00:00</time></trkpt><trkpt lat="34.8931456" lon="33.6342039"><ele>18.3</ele><time>2015-05-01T16:17:12.0000000+00:00</time></trkpt><trkpt lat="34.8930558" lon="33.6342466"><ele>18.3</ele><time>2015-05-01T16:17:14.0000000+00:00</time></trkpt><trkpt lat="34.892978" lon="33.6342942"><ele>18.1</ele><time>2015-05-01T16:17:16.0000000+00:00</time></trkpt><trkpt lat="34.8929359" lon="33.6343592"><ele>18.5</ele><time>2015-05-01T16:17:18.0000000+00:00</time></trkpt><trkpt lat="34.8929411" lon="33.6344295"><ele>20.2</ele><time>2015-05-01T16:17:20.0000000+00:00</time></trkpt><trkpt lat="34.8929647" lon="33.6344957"><ele>19.1</ele><time>2015-05-01T16:17:22.0000000+00:00</time></trkpt><trkpt lat="34.892993" lon="33.6345588"><ele>18.8</ele><time>2015-05-01T16:17:24.0000000+00:00</time></trkpt><trkpt lat="34.8930193" lon="33.6346232"><ele>19.0</ele><time>2015-05-01T16:17:26.0000000+00:00</time></trkpt><trkpt lat="34.8930396" lon="33.6346898"><ele>19.3</ele><time>2015-05-01T16:17:28.0000000+00:00</time></trkpt><trkpt lat="34.8930598" lon="33.6347571"><ele>19.6</ele><time>2015-05-01T16:17:30.0000000+00:00</time></trkpt><trkpt lat="34.8930887" lon="33.6348222"><ele>19.9</ele><time>2015-05-01T16:17:32.0000000+00:00</time></trkpt><trkpt lat="34.8931171" lon="33.6348884"><ele>19.5</ele><time>2015-05-01T16:17:34.0000000+00:00</time></trkpt><trkpt lat="34.8931321" lon="33.6349535"><ele>18.6</ele><time>2015-05-01T16:17:36.0000000+00:00</time></trkpt><trkpt lat="34.8931418" lon="33.6350166"><ele>18.9</ele><time>2015-05-01T16:17:38.0000000+00:00</time></trkpt><trkpt lat="34.8931532" lon="33.6350787"><ele>18.7</ele><time>2015-05-01T16:17:40.0000000+00:00</time></trkpt><trkpt lat="34.8931689" lon="33.6351342"><ele>18.0</ele><time>2015-05-01T16:17:42.0000000+00:00</time></trkpt><trkpt lat="34.8931902" lon="33.6351988"><ele>19.8</ele><time>2015-05-01T16:17:45.0000000+00:00</time></trkpt><trkpt lat="34.8931634" lon="33.6351251"><ele>19.5</ele><time>2015-05-01T16:17:48.0000000+00:00</time></trkpt><trkpt lat="34.8931375" lon="33.635062"><ele>19.6</ele><time>2015-05-01T16:17:50.0000000+00:00</time></trkpt><trkpt lat="34.8930969" lon="33.6350194"><ele>21.9</ele><time>2015-05-01T16:17:52.0000000+00:00</time></trkpt><trkpt lat="34.8930346" lon="33.6350013"><ele>25.5</ele><time>2015-05-01T16:17:54.0000000+00:00</time></trkpt><trkpt lat="34.8929736" lon="33.6350113"><ele>26.1</ele><time>2015-05-01T16:17:56.0000000+00:00</time></trkpt><trkpt lat="34.8929257" lon="33.6350316"><ele>26.1</ele><time>2015-05-01T16:17:58.0000000+00:00</time></trkpt><trkpt lat="34.8928843" lon="33.6350602"><ele>26.3</ele><time>2015-05-01T16:18:02.0000000+00:00</time></trkpt><trkpt lat="34.892836" lon="33.6350769"><ele>24.2</ele><time>2015-05-01T16:18:11.0000000+00:00</time></trkpt><trkpt lat="34.8928322" lon="33.6351351"><ele>21.2</ele><time>2015-05-01T16:18:28.0000000+00:00</time></trkpt><trkpt lat="34.8928212" lon="33.6351885"><ele>18.3</ele><time>2015-05-01T16:18:38.0000000+00:00</time></trkpt><trkpt lat="34.8928268" lon="33.6352469"><ele>18.6</ele><time>2015-05-01T16:18:48.0000000+00:00</time></trkpt><trkpt lat="34.8928664" lon="33.6352754"><ele>16.2</ele><time>2015-05-01T16:18:56.0000000+00:00</time></trkpt><trkpt lat="34.8928322" lon="33.6352359"><ele>15.2</ele><time>2015-05-01T16:19:06.0000000+00:00</time></trkpt><trkpt lat="34.8928299" lon="33.6351732"><ele>18.2</ele><time>2015-05-01T16:19:13.0000000+00:00</time></trkpt><trkpt lat="34.8928205" lon="33.6351194"><ele>19.5</ele><time>2015-05-01T16:19:20.0000000+00:00</time></trkpt></trkseg><trkseg><trkpt lat="34.9281432" lon="33.6354294"><ele>2.0</ele><time>2015-05-02T09:37:35.0000000+00:00</time></trkpt><trkpt lat="34.9281228" lon="33.6354787"><ele>16.2</ele><time>2015-05-02T09:49:49.0000000+00:00</time></trkpt><trkpt lat="34.9280829" lon="33.6355155"><ele>18.0</ele><time>2015-05-02T09:50:48.0000000+00:00</time></trkpt><trkpt lat="34.9280995" lon="33.6355666"><ele>15.3</ele><time>2015-05-02T09:51:35.0000000+00:00</time></trkpt><trkpt lat="34.9281086" lon="33.6356384"><ele>15.6</ele><time>2015-05-02T09:51:38.0000000+00:00</time></trkpt><trkpt lat="34.9281022" lon="33.6357232"><ele>15.9</ele><time>2015-05-02T09:51:40.0000000+00:00</time></trkpt><trkpt lat="34.9280912" lon="33.6357953"><ele>19.5</ele><time>2015-05-02T09:51:42.0000000+00:00</time></trkpt><trkpt lat="34.928121" lon="33.6358593"><ele>29.2</ele><time>2015-05-02T09:51:45.0000000+00:00</time></trkpt><trkpt lat="34.9281361" lon="33.6359161"><ele>29.8</ele><time>2015-05-02T09:51:47.0000000+00:00</time></trkpt><trkpt lat="34.9281184" lon="33.6359778"><ele>29.2</ele><time>2015-05-02T09:51:49.0000000+00:00</time></trkpt><trkpt lat="34.928099" lon="33.6360482"><ele>28.3</ele><time>2015-05-02T09:51:51.0000000+00:00</time></trkpt><trkpt lat="34.9280692" lon="33.6360901"><ele>27.7</ele><time>2015-05-02T09:51:52.0000000+00:00</time></trkpt><trkpt lat="34.9280524" lon="33.6361603"><ele>25.4</ele><time>2015-05-02T09:51:54.0000000+00:00</time></trkpt><trkpt lat="34.9280682" lon="33.6362295"><ele>23.4</ele><time>2015-05-02T09:51:56.0000000+00:00</time></trkpt><trkpt lat="34.9280837" lon="33.6363104"><ele>23.9</ele><time>2015-05-02T09:51:58.0000000+00:00</time></trkpt><trkpt lat="34.928067" lon="33.6364079"><ele>23.5</ele><time>2015-05-02T09:52:00.0000000+00:00</time></trkpt><trkpt lat="34.9280429" lon="33.6365106"><ele>21.1</ele><time>2015-05-02T09:52:02.0000000+00:00</time></trkpt><trkpt lat="34.9280266" lon="33.6366129"><ele>19.0</ele><time>2015-05-02T09:52:04.0000000+00:00</time></trkpt><trkpt lat="34.9280266" lon="33.6367016"><ele>17.0</ele><time>2015-05-02T09:52:06.0000000+00:00</time></trkpt><trkpt lat="34.9280393" lon="33.6367789"><ele>16.8</ele><time>2015-05-02T09:52:08.0000000+00:00</time></trkpt><trkpt lat="34.9280831" lon="33.6368178"><ele>17.2</ele><time>2015-05-02T09:52:10.0000000+00:00</time></trkpt><trkpt lat="34.9281408" lon="33.6368298"><ele>17.8</ele><time>2015-05-02T09:52:12.0000000+00:00</time></trkpt><trkpt lat="34.9281861" lon="33.6368396"><ele>17.4</ele><time>2015-05-02T09:52:13.0000000+00:00</time></trkpt><trkpt lat="34.9282527" lon="33.6368591"><ele>15.9</ele><time>2015-05-02T09:52:15.0000000+00:00</time></trkpt><trkpt lat="34.9283276" lon="33.6368761"><ele>15.7</ele><time>2015-05-02T09:52:17.0000000+00:00</time></trkpt><trkpt lat="34.9284018" lon="33.6368952"><ele>17.4</ele><time>2015-05-02T09:52:19.0000000+00:00</time></trkpt><trkpt lat="34.9285449" lon="33.6369484"><ele>17.1</ele><time>2015-05-02T09:52:21.0000000+00:00</time></trkpt><trkpt lat="34.9285918" lon="33.636968"><ele>17.6</ele><time>2015-05-02T09:52:22.0000000+00:00</time></trkpt><trkpt lat="34.928635" lon="33.6369855"><ele>17.8</ele><time>2015-05-02T09:52:23.0000000+00:00</time></trkpt><trkpt lat="34.9286881" lon="33.6370029"><ele>17.9</ele><time>2015-05-02T09:52:24.0000000+00:00</time></trkpt><trkpt lat="34.9287514" lon="33.6370021"><ele>17.5</ele><time>2015-05-02T09:52:25.0000000+00:00</time></trkpt><trkpt lat="34.9288473" lon="33.6370231"><ele>16.4</ele><time>2015-05-02T09:52:27.0000000+00:00</time></trkpt><trkpt lat="34.9288937" lon="33.637031"><ele>15.7</ele><time>2015-05-02T09:52:28.0000000+00:00</time></trkpt><trkpt lat="34.9289409" lon="33.6370502"><ele>15.4</ele><time>2015-05-02T09:52:29.0000000+00:00</time></trkpt><trkpt lat="34.9289855" lon="33.6370579"><ele>15.7</ele><time>2015-05-02T09:52:30.0000000+00:00</time></trkpt><trkpt lat="34.9290448" lon="33.6370599"><ele>16.4</ele><time>2015-05-02T09:52:31.0000000+00:00</time></trkpt><trkpt lat="34.9290959" lon="33.6370684"><ele>16.7</ele><time>2015-05-02T09:52:32.0000000+00:00</time></trkpt><trkpt lat="34.9291543" lon="33.6370764"><ele>16.9</ele><time>2015-05-02T09:52:33.0000000+00:00</time></trkpt><trkpt lat="34.9292522" lon="33.6370799"><ele>18.0</ele><time>2015-05-02T09:52:35.0000000+00:00</time></trkpt><trkpt lat="34.9293033" lon="33.6370766"><ele>17.5</ele><time>2015-05-02T09:52:36.0000000+00:00</time></trkpt><trkpt lat="34.9293518" lon="33.6370552"><ele>17.3</ele><time>2015-05-02T09:52:37.0000000+00:00</time></trkpt><trkpt lat="34.9293989" lon="33.637026"><ele>17.1</ele><time>2015-05-02T09:52:38.0000000+00:00</time></trkpt><trkpt lat="34.929462" lon="33.6369724"><ele>19.1</ele><time>2015-05-02T09:52:40.0000000+00:00</time></trkpt><trkpt lat="34.9295087" lon="33.6369573"><ele>18.5</ele><time>2015-05-02T09:52:41.0000000+00:00</time></trkpt><trkpt lat="34.9296006" lon="33.6369575"><ele>20.1</ele><time>2015-05-02T09:52:43.0000000+00:00</time></trkpt><trkpt lat="34.9296531" lon="33.6369634"><ele>20.6</ele><time>2015-05-02T09:52:44.0000000+00:00</time></trkpt><trkpt lat="34.9297052" lon="33.6369466"><ele>20.3</ele><time>2015-05-02T09:52:45.0000000+00:00</time></trkpt><trkpt lat="34.9297529" lon="33.6369418"><ele>19.7</ele><time>2015-05-02T09:52:46.0000000+00:00</time></trkpt><trkpt lat="34.9297984" lon="33.6369128"><ele>18.8</ele><time>2015-05-02T09:52:47.0000000+00:00</time></trkpt><trkpt lat="34.9298368" lon="33.636874"><ele>17.9</ele><time>2015-05-02T09:52:48.0000000+00:00</time></trkpt><trkpt lat="34.9298708" lon="33.6368161"><ele>17.0</ele><time>2015-05-02T09:52:49.0000000+00:00</time></trkpt><trkpt lat="34.9299092" lon="33.6367642"><ele>16.5</ele><time>2015-05-02T09:52:50.0000000+00:00</time></trkpt><trkpt lat="34.9299473" lon="33.6367185"><ele>15.8</ele><time>2015-05-02T09:52:51.0000000+00:00</time></trkpt><trkpt lat="34.9299803" lon="33.6366484"><ele>14.9</ele><time>2015-05-02T09:52:52.0000000+00:00</time></trkpt><trkpt lat="34.9300263" lon="33.6366013"><ele>14.5</ele><time>2015-05-02T09:52:53.0000000+00:00</time></trkpt><trkpt lat="34.930072" lon="33.6365355"><ele>15.2</ele><time>2015-05-02T09:52:54.0000000+00:00</time></trkpt><trkpt lat="34.9301247" lon="33.6364998"><ele>16.1</ele><time>2015-05-02T09:52:55.0000000+00:00</time></trkpt><trkpt lat="34.9301831" lon="33.6364748"><ele>16.1</ele><time>2015-05-02T09:52:56.0000000+00:00</time></trkpt><trkpt lat="34.9302458" lon="33.6364682"><ele>15.5</ele><time>2015-05-02T09:52:57.0000000+00:00</time></trkpt><trkpt lat="34.9303053" lon="33.636467"><ele>15.3</ele><time>2015-05-02T09:52:58.0000000+00:00</time></trkpt><trkpt lat="34.9303582" lon="33.6364771"><ele>15.2</ele><time>2015-05-02T09:52:59.0000000+00:00</time></trkpt><trkpt lat="34.9304203" lon="33.6365052"><ele>15.1</ele><time>2015-05-02T09:53:00.0000000+00:00</time></trkpt><trkpt lat="34.9304744" lon="33.6365456"><ele>15.1</ele><time>2015-05-02T09:53:01.0000000+00:00</time></trkpt><trkpt lat="34.930523" lon="33.6365986"><ele>15.0</ele><time>2015-05-02T09:53:02.0000000+00:00</time></trkpt><trkpt lat="34.9305607" lon="33.6366545"><ele>14.5</ele><time>2015-05-02T09:53:03.0000000+00:00</time></trkpt><trkpt lat="34.9305972" lon="33.6367134"><ele>14.3</ele><time>2015-05-02T09:53:04.0000000+00:00</time></trkpt><trkpt lat="34.9306367" lon="33.636776"><ele>13.6</ele><time>2015-05-02T09:53:05.0000000+00:00</time></trkpt><trkpt lat="34.9306628" lon="33.6368446"><ele>13.3</ele><time>2015-05-02T09:53:06.0000000+00:00</time></trkpt><trkpt lat="34.9306865" lon="33.6369026"><ele>13.2</ele><time>2015-05-02T09:53:07.0000000+00:00</time></trkpt><trkpt lat="34.9307145" lon="33.6369497"><ele>13.1</ele><time>2015-05-02T09:53:08.0000000+00:00</time></trkpt><trkpt lat="34.930752" lon="33.6370188"><ele>12.5</ele><time>2015-05-02T09:53:32.0000000+00:00</time></trkpt><trkpt lat="34.9307878" lon="33.637085"><ele>11.9</ele><time>2015-05-02T09:53:34.0000000+00:00</time></trkpt><trkpt lat="34.9308414" lon="33.6371541"><ele>12.0</ele><time>2015-05-02T09:53:36.0000000+00:00</time></trkpt><trkpt lat="34.930905" lon="33.6372213"><ele>12.0</ele><time>2015-05-02T09:53:38.0000000+00:00</time></trkpt><trkpt lat="34.9309423" lon="33.6372533"><ele>11.5</ele><time>2015-05-02T09:53:39.0000000+00:00</time></trkpt><trkpt lat="34.9309834" lon="33.6372974"><ele>11.3</ele><time>2015-05-02T09:53:40.0000000+00:00</time></trkpt><trkpt lat="34.9310277" lon="33.6373312"><ele>12.1</ele><time>2015-05-02T09:53:41.0000000+00:00</time></trkpt><trkpt lat="34.9310766" lon="33.6373688"><ele>12.1</ele><time>2015-05-02T09:53:42.0000000+00:00</time></trkpt><trkpt lat="34.9311216" lon="33.6374038"><ele>12.1</ele><time>2015-05-02T09:53:43.0000000+00:00</time></trkpt><trkpt lat="34.9311777" lon="33.6374447"><ele>12.0</ele><time>2015-05-02T09:53:44.0000000+00:00</time></trkpt><trkpt lat="34.9312236" lon="33.6374831"><ele>12.0</ele><time>2015-05-02T09:53:45.0000000+00:00</time></trkpt><trkpt lat="34.931269" lon="33.6375165"><ele>12.5</ele><time>2015-05-02T09:53:46.0000000+00:00</time></trkpt><trkpt lat="34.9313213" lon="33.6375495"><ele>13.3</ele><time>2015-05-02T09:53:47.0000000+00:00</time></trkpt><trkpt lat="34.9314114" lon="33.6376129"><ele>13.8</ele><time>2015-05-02T09:53:49.0000000+00:00</time></trkpt><trkpt lat="34.9314628" lon="33.6376301"><ele>13.9</ele><time>2015-05-02T09:53:50.0000000+00:00</time></trkpt><trkpt lat="34.9315205" lon="33.6376672"><ele>14.0</ele><time>2015-05-02T09:53:51.0000000+00:00</time></trkpt><trkpt lat="34.9315814" lon="33.6377061"><ele>14.0</ele><time>2015-05-02T09:53:52.0000000+00:00</time></trkpt><trkpt lat="34.9316453" lon="33.6377441"><ele>13.5</ele><time>2015-05-02T09:53:53.0000000+00:00</time></trkpt><trkpt lat="34.9317065" lon="33.6377838"><ele>12.8</ele><time>2015-05-02T09:53:54.0000000+00:00</time></trkpt><trkpt lat="34.931766" lon="33.6378089"><ele>12.4</ele><time>2015-05-02T09:53:55.0000000+00:00</time></trkpt><trkpt lat="34.9318377" lon="33.6378368"><ele>12.7</ele><time>2015-05-02T09:53:56.0000000+00:00</time></trkpt><trkpt lat="34.9318958" lon="33.6378755"><ele>12.4</ele><time>2015-05-02T09:53:57.0000000+00:00</time></trkpt><trkpt lat="34.9319604" lon="33.6379083"><ele>12.2</ele><time>2015-05-02T09:53:58.0000000+00:00</time></trkpt><trkpt lat="34.9320278" lon="33.6379333"><ele>12.6</ele><time>2015-05-02T09:53:59.0000000+00:00</time></trkpt><trkpt lat="34.9320872" lon="33.6379564"><ele>12.3</ele><time>2015-05-02T09:54:00.0000000+00:00</time></trkpt><trkpt lat="34.9321556" lon="33.6379829"><ele>12.2</ele><time>2015-05-02T09:54:01.0000000+00:00</time></trkpt><trkpt lat="34.932219" lon="33.6380164"><ele>12.1</ele><time>2015-05-02T09:54:02.0000000+00:00</time></trkpt><trkpt lat="34.9322729" lon="33.638048"><ele>12.1</ele><time>2015-05-02T09:54:03.0000000+00:00</time></trkpt><trkpt lat="34.9323402" lon="33.6380802"><ele>11.5</ele><time>2015-05-02T09:54:04.0000000+00:00</time></trkpt><trkpt lat="34.9324044" lon="33.6381033"><ele>11.8</ele><time>2015-05-02T09:54:05.0000000+00:00</time></trkpt><trkpt lat="34.9324706" lon="33.6381364"><ele>11.9</ele><time>2015-05-02T09:54:06.0000000+00:00</time></trkpt><trkpt lat="34.9325366" lon="33.6381689"><ele>12.0</ele><time>2015-05-02T09:54:07.0000000+00:00</time></trkpt><trkpt lat="34.9326067" lon="33.638198"><ele>11.5</ele><time>2015-05-02T09:54:08.0000000+00:00</time></trkpt><trkpt lat="34.9326685" lon="33.6382174"><ele>11.8</ele><time>2015-05-02T09:54:09.0000000+00:00</time></trkpt><trkpt lat="34.9327316" lon="33.6382516"><ele>11.9</ele><time>2015-05-02T09:54:10.0000000+00:00</time></trkpt><trkpt lat="34.9328282" lon="33.6382855"><ele>13.7</ele><time>2015-05-02T09:54:12.0000000+00:00</time></trkpt><trkpt lat="34.9328962" lon="33.6383336"><ele>14.4</ele><time>2015-05-02T09:54:13.0000000+00:00</time></trkpt><trkpt lat="34.9329506" lon="33.6383664"><ele>14.2</ele><time>2015-05-02T09:54:14.0000000+00:00</time></trkpt><trkpt lat="34.9330217" lon="33.6384052"><ele>15.1</ele><time>2015-05-02T09:54:15.0000000+00:00</time></trkpt><trkpt lat="34.9330957" lon="33.6384365"><ele>15.1</ele><time>2015-05-02T09:54:16.0000000+00:00</time></trkpt><trkpt lat="34.9331676" lon="33.638481"><ele>15.0</ele><time>2015-05-02T09:54:17.0000000+00:00</time></trkpt><trkpt lat="34.9332334" lon="33.6385054"><ele>15.0</ele><time>2015-05-02T09:54:18.0000000+00:00</time></trkpt><trkpt lat="34.9333032" lon="33.6385245"><ele>14.5</ele><time>2015-05-02T09:54:19.0000000+00:00</time></trkpt><trkpt lat="34.9333731" lon="33.6385694"><ele>14.3</ele><time>2015-05-02T09:54:20.0000000+00:00</time></trkpt><trkpt lat="34.9334486" lon="33.6385979"><ele>13.1</ele><time>2015-05-02T09:54:21.0000000+00:00</time></trkpt><trkpt lat="34.9335057" lon="33.6386314"><ele>12.6</ele><time>2015-05-02T09:54:22.0000000+00:00</time></trkpt><trkpt lat="34.9335802" lon="33.6386653"><ele>12.3</ele><time>2015-05-02T09:54:23.0000000+00:00</time></trkpt><trkpt lat="34.9336394" lon="33.6387036"><ele>12.2</ele><time>2015-05-02T09:54:24.0000000+00:00</time></trkpt><trkpt lat="34.9337034" lon="33.6387334"><ele>11.6</ele><time>2015-05-02T09:54:25.0000000+00:00</time></trkpt><trkpt lat="34.9337681" lon="33.6387769"><ele>10.8</ele><time>2015-05-02T09:54:26.0000000+00:00</time></trkpt><trkpt lat="34.9338277" lon="33.6388154"><ele>10.4</ele><time>2015-05-02T09:54:27.0000000+00:00</time></trkpt><trkpt lat="34.9338929" lon="33.6388461"><ele>9.7</ele><time>2015-05-02T09:54:28.0000000+00:00</time></trkpt><trkpt lat="34.9339546" lon="33.6388826"><ele>9.9</ele><time>2015-05-02T09:54:29.0000000+00:00</time></trkpt><trkpt lat="34.9340221" lon="33.638929"><ele>9.4</ele><time>2015-05-02T09:54:30.0000000+00:00</time></trkpt><trkpt lat="34.9340893" lon="33.6389704"><ele>9.2</ele><time>2015-05-02T09:54:31.0000000+00:00</time></trkpt><trkpt lat="34.934148" lon="33.6390178"><ele>9.1</ele><time>2015-05-02T09:54:32.0000000+00:00</time></trkpt><trkpt lat="34.9342127" lon="33.6390725"><ele>9.1</ele><time>2015-05-02T09:54:33.0000000+00:00</time></trkpt><trkpt lat="34.9342686" lon="33.6391076"><ele>9.5</ele><time>2015-05-02T09:54:34.0000000+00:00</time></trkpt><trkpt lat="34.9343313" lon="33.6391595"><ele>9.8</ele><time>2015-05-02T09:54:35.0000000+00:00</time></trkpt><trkpt lat="34.9343998" lon="33.6392041"><ele>10.4</ele><time>2015-05-02T09:54:36.0000000+00:00</time></trkpt><trkpt lat="34.9344547" lon="33.6392507"><ele>11.2</ele><time>2015-05-02T09:54:37.0000000+00:00</time></trkpt><trkpt lat="34.934509" lon="33.6392892"><ele>12.1</ele><time>2015-05-02T09:54:38.0000000+00:00</time></trkpt><trkpt lat="34.9345746" lon="33.6393356"><ele>12.6</ele><time>2015-05-02T09:54:39.0000000+00:00</time></trkpt><trkpt lat="34.9346413" lon="33.6393811"><ele>12.3</ele><time>2015-05-02T09:54:40.0000000+00:00</time></trkpt><trkpt lat="34.9346977" lon="33.6394187"><ele>12.2</ele><time>2015-05-02T09:54:41.0000000+00:00</time></trkpt><trkpt lat="34.9347433" lon="33.6394709"><ele>13.1</ele><time>2015-05-02T09:54:42.0000000+00:00</time></trkpt><trkpt lat="34.9348054" lon="33.6395017"><ele>14.0</ele><time>2015-05-02T09:54:44.0000000+00:00</time></trkpt><trkpt lat="34.9348775" lon="33.6395236"><ele>13.1</ele><time>2015-05-02T09:54:49.0000000+00:00</time></trkpt><trkpt lat="34.9349345" lon="33.6395512"><ele>11.8</ele><time>2015-05-02T09:54:51.0000000+00:00</time></trkpt><trkpt lat="34.9349955" lon="33.6395855"><ele>11.7</ele><time>2015-05-02T09:54:53.0000000+00:00</time></trkpt><trkpt lat="34.9350659" lon="33.6396396"><ele>11.9</ele><time>2015-05-02T09:54:55.0000000+00:00</time></trkpt><trkpt lat="34.9351041" lon="33.6396732"><ele>12.0</ele><time>2015-05-02T09:54:56.0000000+00:00</time></trkpt><trkpt lat="34.9351437" lon="33.6397087"><ele>12.5</ele><time>2015-05-02T09:54:57.0000000+00:00</time></trkpt><trkpt lat="34.9351868" lon="33.6397432"><ele>12.8</ele><time>2015-05-02T09:54:58.0000000+00:00</time></trkpt><trkpt lat="34.9352276" lon="33.6397741"><ele>12.4</ele><time>2015-05-02T09:54:59.0000000+00:00</time></trkpt><trkpt lat="34.9352778" lon="33.6398072"><ele>12.2</ele><time>2015-05-02T09:55:00.0000000+00:00</time></trkpt><trkpt lat="34.9353258" lon="33.6398467"><ele>12.6</ele><time>2015-05-02T09:55:01.0000000+00:00</time></trkpt><trkpt lat="34.9354108" lon="33.6399027"><ele>12.9</ele><time>2015-05-02T09:55:03.0000000+00:00</time></trkpt><trkpt lat="34.9354628" lon="33.6399345"><ele>13.0</ele><time>2015-05-02T09:55:04.0000000+00:00</time></trkpt><trkpt lat="34.9355145" lon="33.639968"><ele>14.0</ele><time>2015-05-02T09:55:05.0000000+00:00</time></trkpt><trkpt lat="34.9355556" lon="33.6399957"><ele>14.5</ele><time>2015-05-02T09:55:06.0000000+00:00</time></trkpt><trkpt lat="34.935603" lon="33.6400225"><ele>15.3</ele><time>2015-05-02T09:55:07.0000000+00:00</time></trkpt><trkpt lat="34.9356529" lon="33.6400547"><ele>16.1</ele><time>2015-05-02T09:55:08.0000000+00:00</time></trkpt><trkpt lat="34.9356983" lon="33.640084"><ele>17.1</ele><time>2015-05-02T09:55:09.0000000+00:00</time></trkpt><trkpt lat="34.9357538" lon="33.6401189"><ele>17.1</ele><time>2015-05-02T09:55:10.0000000+00:00</time></trkpt><trkpt lat="34.9358061" lon="33.640154"><ele>17.0</ele><time>2015-05-02T09:55:11.0000000+00:00</time></trkpt><trkpt lat="34.9358508" lon="33.6401694"><ele>18.5</ele><time>2015-05-02T09:55:12.0000000+00:00</time></trkpt><trkpt lat="34.9358969" lon="33.6401871"><ele>19.8</ele><time>2015-05-02T09:55:13.0000000+00:00</time></trkpt><trkpt lat="34.9359545" lon="33.640214"><ele>19.9</ele><time>2015-05-02T09:55:14.0000000+00:00</time></trkpt><trkpt lat="34.9360053" lon="33.6402319"><ele>19.5</ele><time>2015-05-02T09:55:15.0000000+00:00</time></trkpt><trkpt lat="34.9360672" lon="33.6402584"><ele>18.7</ele><time>2015-05-02T09:55:16.0000000+00:00</time></trkpt><trkpt lat="34.9361258" lon="33.6402756"><ele>18.4</ele><time>2015-05-02T09:55:17.0000000+00:00</time></trkpt><trkpt lat="34.9361724" lon="33.6403017"><ele>18.7</ele><time>2015-05-02T09:55:18.0000000+00:00</time></trkpt><trkpt lat="34.9362212" lon="33.640315"><ele>18.9</ele><time>2015-05-02T09:55:19.0000000+00:00</time></trkpt><trkpt lat="34.9362765" lon="33.6403383"><ele>18.4</ele><time>2015-05-02T09:55:20.0000000+00:00</time></trkpt><trkpt lat="34.9363357" lon="33.6403594"><ele>18.2</ele><time>2015-05-02T09:55:21.0000000+00:00</time></trkpt><trkpt lat="34.9363936" lon="33.6403761"><ele>18.1</ele><time>2015-05-02T09:55:22.0000000+00:00</time></trkpt><trkpt lat="34.9364485" lon="33.6403931"><ele>18.1</ele><time>2015-05-02T09:55:23.0000000+00:00</time></trkpt><trkpt lat="34.9365143" lon="33.6404248"><ele>17.5</ele><time>2015-05-02T09:55:24.0000000+00:00</time></trkpt><trkpt lat="34.9365762" lon="33.6404536"><ele>17.8</ele><time>2015-05-02T09:55:25.0000000+00:00</time></trkpt><trkpt lat="34.9366338" lon="33.6404754"><ele>17.4</ele><time>2015-05-02T09:55:26.0000000+00:00</time></trkpt><trkpt lat="34.9366916" lon="33.6404987"><ele>17.2</ele><time>2015-05-02T09:55:27.0000000+00:00</time></trkpt><trkpt lat="34.9367513" lon="33.6405197"><ele>17.1</ele><time>2015-05-02T09:55:28.0000000+00:00</time></trkpt><trkpt lat="34.9368112" lon="33.6405368"><ele>16.6</ele><time>2015-05-02T09:55:29.0000000+00:00</time></trkpt><trkpt lat="34.9368729" lon="33.6405481"><ele>17.8</ele><time>2015-05-02T09:55:30.0000000+00:00</time></trkpt><trkpt lat="34.9369221" lon="33.640577"><ele>18.4</ele><time>2015-05-02T09:55:31.0000000+00:00</time></trkpt><trkpt lat="34.9369931" lon="33.6406044"><ele>18.7</ele><time>2015-05-02T09:55:32.0000000+00:00</time></trkpt><trkpt lat="34.9370576" lon="33.6406338"><ele>18.9</ele><time>2015-05-02T09:55:33.0000000+00:00</time></trkpt><trkpt lat="34.9371216" lon="33.6406522"><ele>18.4</ele><time>2015-05-02T09:55:34.0000000+00:00</time></trkpt><trkpt lat="34.9371822" lon="33.6406784"><ele>18.2</ele><time>2015-05-02T09:55:35.0000000+00:00</time></trkpt><trkpt lat="34.9372475" lon="33.6406901"><ele>19.1</ele><time>2015-05-02T09:55:36.0000000+00:00</time></trkpt><trkpt lat="34.937301" lon="33.6407029"><ele>19.6</ele><time>2015-05-02T09:55:37.0000000+00:00</time></trkpt><trkpt lat="34.9373501" lon="33.6407244"><ele>20.3</ele><time>2015-05-02T09:55:38.0000000+00:00</time></trkpt><trkpt lat="34.9374064" lon="33.6407383"><ele>20.7</ele><time>2015-05-02T09:55:39.0000000+00:00</time></trkpt><trkpt lat="34.9374576" lon="33.6407561"><ele>21.3</ele><time>2015-05-02T09:55:40.0000000+00:00</time></trkpt><trkpt lat="34.9375419" lon="33.6407378"><ele>21.4</ele><time>2015-05-02T09:55:42.0000000+00:00</time></trkpt><trkpt lat="34.9375875" lon="33.6407102"><ele>20.9</ele><time>2015-05-02T09:55:44.0000000+00:00</time></trkpt><trkpt lat="34.9376386" lon="33.640747"><ele>21.8</ele><time>2015-05-02T09:55:49.0000000+00:00</time></trkpt><trkpt lat="34.937701" lon="33.640768"><ele>22.9</ele><time>2015-05-02T09:55:52.0000000+00:00</time></trkpt><trkpt lat="34.9377496" lon="33.6407715"><ele>22.2</ele><time>2015-05-02T09:55:54.0000000+00:00</time></trkpt><trkpt lat="34.937798" lon="33.6407887"><ele>22.3</ele><time>2015-05-02T09:55:56.0000000+00:00</time></trkpt><trkpt lat="34.9378404" lon="33.6408429"><ele>21.6</ele><time>2015-05-02T09:55:58.0000000+00:00</time></trkpt><trkpt lat="34.9379026" lon="33.6409005"><ele>19.9</ele><time>2015-05-02T09:56:00.0000000+00:00</time></trkpt><trkpt lat="34.9379868" lon="33.6409376"><ele>20.0</ele><time>2015-05-02T09:56:02.0000000+00:00</time></trkpt><trkpt lat="34.9380781" lon="33.6409681"><ele>19.5</ele><time>2015-05-02T09:56:04.0000000+00:00</time></trkpt><trkpt lat="34.9381531" lon="33.6409855"><ele>18.8</ele><time>2015-05-02T09:56:05.0000000+00:00</time></trkpt><trkpt lat="34.9382048" lon="33.6410056"><ele>17.9</ele><time>2015-05-02T09:56:06.0000000+00:00</time></trkpt><trkpt lat="34.938255" lon="33.6410179"><ele>17.5</ele><time>2015-05-02T09:56:07.0000000+00:00</time></trkpt><trkpt lat="34.9383015" lon="33.6410381"><ele>17.2</ele><time>2015-05-02T09:56:08.0000000+00:00</time></trkpt><trkpt lat="34.9383474" lon="33.6410576"><ele>16.6</ele><time>2015-05-02T09:56:09.0000000+00:00</time></trkpt><trkpt lat="34.9383969" lon="33.6410701"><ele>16.3</ele><time>2015-05-02T09:56:10.0000000+00:00</time></trkpt><trkpt lat="34.9384396" lon="33.6410921"><ele>16.2</ele><time>2015-05-02T09:56:11.0000000+00:00</time></trkpt><trkpt lat="34.9384975" lon="33.6411117"><ele>16.1</ele><time>2015-05-02T09:56:12.0000000+00:00</time></trkpt><trkpt lat="34.9385809" lon="33.6411199"><ele>17.3</ele><time>2015-05-02T09:56:14.0000000+00:00</time></trkpt><trkpt lat="34.9386287" lon="33.6411405"><ele>17.7</ele><time>2015-05-02T09:56:15.0000000+00:00</time></trkpt><trkpt lat="34.9386887" lon="33.6411601"><ele>17.3</ele><time>2015-05-02T09:56:16.0000000+00:00</time></trkpt><trkpt lat="34.9387497" lon="33.6411721"><ele>16.7</ele><time>2015-05-02T09:56:17.0000000+00:00</time></trkpt><trkpt lat="34.9388026" lon="33.6411978"><ele>16.4</ele><time>2015-05-02T09:56:18.0000000+00:00</time></trkpt><trkpt lat="34.9388486" lon="33.6412283"><ele>15.7</ele><time>2015-05-02T09:56:19.0000000+00:00</time></trkpt><trkpt lat="34.9388974" lon="33.6412477"><ele>16.4</ele><time>2015-05-02T09:56:20.0000000+00:00</time></trkpt><trkpt lat="34.9389432" lon="33.6412726"><ele>16.2</ele><time>2015-05-02T09:56:21.0000000+00:00</time></trkpt><trkpt lat="34.9390001" lon="33.6412892"><ele>16.1</ele><time>2015-05-02T09:56:22.0000000+00:00</time></trkpt><trkpt lat="34.9390564" lon="33.64132"><ele>16.1</ele><time>2015-05-02T09:56:23.0000000+00:00</time></trkpt><trkpt lat="34.9391104" lon="33.6413423"><ele>16.0</ele><time>2015-05-02T09:56:24.0000000+00:00</time></trkpt><trkpt lat="34.9391699" lon="33.6413727"><ele>15.5</ele><time>2015-05-02T09:56:25.0000000+00:00</time></trkpt><trkpt lat="34.9392386" lon="33.6413868"><ele>14.8</ele><time>2015-05-02T09:56:26.0000000+00:00</time></trkpt><trkpt lat="34.9393382" lon="33.6414286"><ele>13.0</ele><time>2015-05-02T09:56:28.0000000+00:00</time></trkpt><trkpt lat="34.9393915" lon="33.6414546"><ele>12.5</ele><time>2015-05-02T09:56:29.0000000+00:00</time></trkpt><trkpt lat="34.9394355" lon="33.6414774"><ele>11.8</ele><time>2015-05-02T09:56:30.0000000+00:00</time></trkpt><trkpt lat="34.9394912" lon="33.6414998"><ele>11.9</ele><time>2015-05-02T09:56:31.0000000+00:00</time></trkpt><trkpt lat="34.9395419" lon="33.6415128"><ele>12.0</ele><time>2015-05-02T09:56:32.0000000+00:00</time></trkpt><trkpt lat="34.9395921" lon="33.6415287"><ele>12.0</ele><time>2015-05-02T09:56:33.0000000+00:00</time></trkpt><trkpt lat="34.9396506" lon="33.6415446"><ele>12.0</ele><time>2015-05-02T09:56:34.0000000+00:00</time></trkpt><trkpt lat="34.9397018" lon="33.6415608"><ele>11.5</ele><time>2015-05-02T09:56:35.0000000+00:00</time></trkpt><trkpt lat="34.9397626" lon="33.6415706"><ele>11.3</ele><time>2015-05-02T09:56:36.0000000+00:00</time></trkpt><trkpt lat="34.9398157" lon="33.6415788"><ele>11.1</ele><time>2015-05-02T09:56:37.0000000+00:00</time></trkpt><trkpt lat="34.9398694" lon="33.6415739"><ele>11.1</ele><time>2015-05-02T09:56:38.0000000+00:00</time></trkpt><trkpt lat="34.9399291" lon="33.6416106"><ele>11.6</ele><time>2015-05-02T09:56:39.0000000+00:00</time></trkpt><trkpt lat="34.9399856" lon="33.6416497"><ele>11.8</ele><time>2015-05-02T09:56:40.0000000+00:00</time></trkpt><trkpt lat="34.9400304" lon="33.6416768"><ele>11.9</ele><time>2015-05-02T09:56:41.0000000+00:00</time></trkpt><trkpt lat="34.9400808" lon="33.6417076"><ele>12.0</ele><time>2015-05-02T09:56:42.0000000+00:00</time></trkpt><trkpt lat="34.9401756" lon="33.6417458"><ele>12.5</ele><time>2015-05-02T09:56:44.0000000+00:00</time></trkpt><trkpt lat="34.9402213" lon="33.6417698"><ele>12.8</ele><time>2015-05-02T09:56:45.0000000+00:00</time></trkpt><trkpt lat="34.940301" lon="33.6418017"><ele>13.0</ele><time>2015-05-02T09:56:47.0000000+00:00</time></trkpt><trkpt lat="34.9403446" lon="33.6418247"><ele>14.0</ele><time>2015-05-02T09:56:49.0000000+00:00</time></trkpt><trkpt lat="34.9403869" lon="33.6418532"><ele>16.9</ele><time>2015-05-02T09:56:52.0000000+00:00</time></trkpt><trkpt lat="34.940447" lon="33.6418733"><ele>21.0</ele><time>2015-05-02T09:56:54.0000000+00:00</time></trkpt><trkpt lat="34.9405194" lon="33.6419132"><ele>23.3</ele><time>2015-05-02T09:56:56.0000000+00:00</time></trkpt><trkpt lat="34.9405616" lon="33.6419327"><ele>23.6</ele><time>2015-05-02T09:56:57.0000000+00:00</time></trkpt><trkpt lat="34.9406373" lon="33.6419621"><ele>23.9</ele><time>2015-05-02T09:56:59.0000000+00:00</time></trkpt><trkpt lat="34.9406799" lon="33.6419909"><ele>24.0</ele><time>2015-05-02T09:57:00.0000000+00:00</time></trkpt><trkpt lat="34.940723" lon="33.6420071"><ele>24.0</ele><time>2015-05-02T09:57:01.0000000+00:00</time></trkpt><trkpt lat="34.9407756" lon="33.642032"><ele>23.5</ele><time>2015-05-02T09:57:02.0000000+00:00</time></trkpt><trkpt lat="34.9408293" lon="33.6420547"><ele>23.3</ele><time>2015-05-02T09:57:03.0000000+00:00</time></trkpt><trkpt lat="34.9408781" lon="33.6420679"><ele>23.1</ele><time>2015-05-02T09:57:04.0000000+00:00</time></trkpt><trkpt lat="34.9409313" lon="33.6420938"><ele>22.6</ele><time>2015-05-02T09:57:05.0000000+00:00</time></trkpt><trkpt lat="34.9409948" lon="33.6420995"><ele>22.3</ele><time>2015-05-02T09:57:06.0000000+00:00</time></trkpt><trkpt lat="34.9410354" lon="33.6421238"><ele>21.7</ele><time>2015-05-02T09:57:07.0000000+00:00</time></trkpt><trkpt lat="34.9410816" lon="33.642146"><ele>22.3</ele><time>2015-05-02T09:57:08.0000000+00:00</time></trkpt><trkpt lat="34.9411699" lon="33.6421654"><ele>23.1</ele><time>2015-05-02T09:57:10.0000000+00:00</time></trkpt><trkpt lat="34.9412582" lon="33.6422212"><ele>23.0</ele><time>2015-05-02T09:57:12.0000000+00:00</time></trkpt><trkpt lat="34.9413066" lon="33.6422512"><ele>22.5</ele><time>2015-05-02T09:57:13.0000000+00:00</time></trkpt><trkpt lat="34.9413625" lon="33.642268"><ele>22.8</ele><time>2015-05-02T09:57:14.0000000+00:00</time></trkpt><trkpt lat="34.9414138" lon="33.6422901"><ele>22.4</ele><time>2015-05-02T09:57:15.0000000+00:00</time></trkpt><trkpt lat="34.9414787" lon="33.6423239"><ele>22.2</ele><time>2015-05-02T09:57:16.0000000+00:00</time></trkpt><trkpt lat="34.9415358" lon="33.6423456"><ele>22.6</ele><time>2015-05-02T09:57:17.0000000+00:00</time></trkpt><trkpt lat="34.9415842" lon="33.6423767"><ele>23.3</ele><time>2015-05-02T09:57:18.0000000+00:00</time></trkpt><trkpt lat="34.9416452" lon="33.6423977"><ele>23.2</ele><time>2015-05-02T09:57:19.0000000+00:00</time></trkpt><trkpt lat="34.9416976" lon="33.6424226"><ele>23.6</ele><time>2015-05-02T09:57:20.0000000+00:00</time></trkpt><trkpt lat="34.9417597" lon="33.6424421"><ele>23.8</ele><time>2015-05-02T09:57:21.0000000+00:00</time></trkpt><trkpt lat="34.9418226" lon="33.6424594"><ele>23.9</ele><time>2015-05-02T09:57:22.0000000+00:00</time></trkpt><trkpt lat="34.941887" lon="33.642473"><ele>23.0</ele><time>2015-05-02T09:57:23.0000000+00:00</time></trkpt><trkpt lat="34.9419486" lon="33.6424914"><ele>23.5</ele><time>2015-05-02T09:57:24.0000000+00:00</time></trkpt><trkpt lat="34.9420064" lon="33.6425149"><ele>23.3</ele><time>2015-05-02T09:57:25.0000000+00:00</time></trkpt><trkpt lat="34.9420758" lon="33.6425211"><ele>22.1</ele><time>2015-05-02T09:57:26.0000000+00:00</time></trkpt><trkpt lat="34.9421294" lon="33.6425384"><ele>21.6</ele><time>2015-05-02T09:57:27.0000000+00:00</time></trkpt><trkpt lat="34.9421744" lon="33.6425553"><ele>21.3</ele><time>2015-05-02T09:57:28.0000000+00:00</time></trkpt><trkpt lat="34.9422294" lon="33.6425578"><ele>20.2</ele><time>2015-05-02T09:57:29.0000000+00:00</time></trkpt><trkpt lat="34.9422994" lon="33.6425911"><ele>18.1</ele><time>2015-05-02T09:57:31.0000000+00:00</time></trkpt><trkpt lat="34.9423451" lon="33.6425662"><ele>16.6</ele><time>2015-05-02T09:57:35.0000000+00:00</time></trkpt><trkpt lat="34.9424107" lon="33.6425756"><ele>15.3</ele><time>2015-05-02T09:57:38.0000000+00:00</time></trkpt><trkpt lat="34.9424636" lon="33.6425722"><ele>13.9</ele><time>2015-05-02T09:57:40.0000000+00:00</time></trkpt><trkpt lat="34.9425271" lon="33.6425521"><ele>11.5</ele><time>2015-05-02T09:57:42.0000000+00:00</time></trkpt><trkpt lat="34.9426242" lon="33.6424942"><ele>9.6</ele><time>2015-05-02T09:57:44.0000000+00:00</time></trkpt><trkpt lat="34.9426802" lon="33.6424479"><ele>9.2</ele><time>2015-05-02T09:57:46.0000000+00:00</time></trkpt><trkpt lat="34.9427439" lon="33.6423998"><ele>8.6</ele><time>2015-05-02T09:57:48.0000000+00:00</time></trkpt><trkpt lat="34.9427743" lon="33.6423578"><ele>8.4</ele><time>2015-05-02T09:57:50.0000000+00:00</time></trkpt><trkpt lat="34.9427982" lon="33.6423031"><ele>10.2</ele><time>2015-05-02T09:57:54.0000000+00:00</time></trkpt><trkpt lat="34.9428398" lon="33.6422428"><ele>10.0</ele><time>2015-05-02T09:57:57.0000000+00:00</time></trkpt><trkpt lat="34.9428618" lon="33.6421912"><ele>11.3</ele><time>2015-05-02T09:57:59.0000000+00:00</time></trkpt><trkpt lat="34.9428827" lon="33.6421236"><ele>11.1</ele><time>2015-05-02T09:58:01.0000000+00:00</time></trkpt><trkpt lat="34.9429016" lon="33.6420443"><ele>11.3</ele><time>2015-05-02T09:58:03.0000000+00:00</time></trkpt><trkpt lat="34.9429158" lon="33.6419595"><ele>11.6</ele><time>2015-05-02T09:58:05.0000000+00:00</time></trkpt><trkpt lat="34.9429269" lon="33.6418808"><ele>11.9</ele><time>2015-05-02T09:58:07.0000000+00:00</time></trkpt><trkpt lat="34.9429392" lon="33.6418055"><ele>11.5</ele><time>2015-05-02T09:58:09.0000000+00:00</time></trkpt><trkpt lat="34.9429517" lon="33.6417311"><ele>11.1</ele><time>2015-05-02T09:58:11.0000000+00:00</time></trkpt><trkpt lat="34.9429605" lon="33.6416467"><ele>11.1</ele><time>2015-05-02T09:58:13.0000000+00:00</time></trkpt><trkpt lat="34.9429707" lon="33.6415668"><ele>11.0</ele><time>2015-05-02T09:58:15.0000000+00:00</time></trkpt><trkpt lat="34.942993" lon="33.6416272"><ele>10.3</ele><time>2015-05-02T09:58:20.0000000+00:00</time></trkpt><trkpt lat="34.9429624" lon="33.6417027"><ele>10.6</ele><time>2015-05-02T09:58:22.0000000+00:00</time></trkpt><trkpt lat="34.9429377" lon="33.6417961"><ele>10.2</ele><time>2015-05-02T09:58:24.0000000+00:00</time></trkpt><trkpt lat="34.9429121" lon="33.6418989"><ele>10.6</ele><time>2015-05-02T09:58:26.0000000+00:00</time></trkpt><trkpt lat="34.9428882" lon="33.6420048"><ele>10.9</ele><time>2015-05-02T09:58:28.0000000+00:00</time></trkpt><trkpt lat="34.942876" lon="33.6420596"><ele>10.5</ele><time>2015-05-02T09:58:29.0000000+00:00</time></trkpt><trkpt lat="34.942863" lon="33.6421121"><ele>10.2</ele><time>2015-05-02T09:58:30.0000000+00:00</time></trkpt><trkpt lat="34.9428491" lon="33.6421655"><ele>10.1</ele><time>2015-05-02T09:58:31.0000000+00:00</time></trkpt><trkpt lat="34.9428299" lon="33.6422412"><ele>10.1</ele><time>2015-05-02T09:58:32.0000000+00:00</time></trkpt><trkpt lat="34.9428134" lon="33.6422938"><ele>10.0</ele><time>2015-05-02T09:58:33.0000000+00:00</time></trkpt><trkpt lat="34.9427857" lon="33.6423394"><ele>10.0</ele><time>2015-05-02T09:58:34.0000000+00:00</time></trkpt><trkpt lat="34.9427301" lon="33.6423992"><ele>10.8</ele><time>2015-05-02T09:58:36.0000000+00:00</time></trkpt><trkpt lat="34.94266" lon="33.642453"><ele>11.0</ele><time>2015-05-02T09:58:38.0000000+00:00</time></trkpt><trkpt lat="34.9425994" lon="33.6425039"><ele>11.5</ele><time>2015-05-02T09:58:40.0000000+00:00</time></trkpt><trkpt lat="34.9425512" lon="33.6425364"><ele>12.6</ele><time>2015-05-02T09:58:42.0000000+00:00</time></trkpt><trkpt lat="34.9425137" lon="33.6425724"><ele>12.5</ele><time>2015-05-02T09:58:45.0000000+00:00</time></trkpt><trkpt lat="34.9424601" lon="33.6425808"><ele>12.1</ele><time>2015-05-02T09:58:48.0000000+00:00</time></trkpt><trkpt lat="34.9423975" lon="33.6425807"><ele>12.9</ele><time>2015-05-02T09:58:51.0000000+00:00</time></trkpt><trkpt lat="34.9423386" lon="33.6425864"><ele>13.0</ele><time>2015-05-02T09:58:54.0000000+00:00</time></trkpt><trkpt lat="34.9423558" lon="33.6426536"><ele>13.5</ele><time>2015-05-02T09:58:57.0000000+00:00</time></trkpt><trkpt lat="34.9424404" lon="33.6426603"><ele>13.8</ele><time>2015-05-02T09:58:58.0000000+00:00</time></trkpt><trkpt lat="34.9424926" lon="33.6426565"><ele>13.9</ele><time>2015-05-02T09:58:59.0000000+00:00</time></trkpt><trkpt lat="34.9425511" lon="33.6426331"><ele>13.5</ele><time>2015-05-02T09:59:00.0000000+00:00</time></trkpt><trkpt lat="34.9425955" lon="33.6426087"><ele>12.7</ele><time>2015-05-02T09:59:01.0000000+00:00</time></trkpt><trkpt lat="34.9426436" lon="33.6425807"><ele>12.9</ele><time>2015-05-02T09:59:02.0000000+00:00</time></trkpt><trkpt lat="34.9426978" lon="33.6425454"><ele>13.0</ele><time>2015-05-02T09:59:03.0000000+00:00</time></trkpt><trkpt lat="34.9427583" lon="33.6425127"><ele>12.5</ele><time>2015-05-02T09:59:04.0000000+00:00</time></trkpt><trkpt lat="34.9428157" lon="33.6424839"><ele>12.3</ele><time>2015-05-02T09:59:05.0000000+00:00</time></trkpt><trkpt lat="34.9428779" lon="33.6424734"><ele>12.1</ele><time>2015-05-02T09:59:06.0000000+00:00</time></trkpt><trkpt lat="34.9429269" lon="33.6424607"><ele>12.6</ele><time>2015-05-02T09:59:07.0000000+00:00</time></trkpt><trkpt lat="34.9429936" lon="33.6424912"><ele>12.3</ele><time>2015-05-02T09:59:08.0000000+00:00</time></trkpt><trkpt lat="34.9430619" lon="33.6425248"><ele>11.7</ele><time>2015-05-02T09:59:09.0000000+00:00</time></trkpt><trkpt lat="34.9431206" lon="33.6425762"><ele>11.3</ele><time>2015-05-02T09:59:10.0000000+00:00</time></trkpt><trkpt lat="34.9431799" lon="33.642646"><ele>11.7</ele><time>2015-05-02T09:59:11.0000000+00:00</time></trkpt><trkpt lat="34.9432327" lon="33.6427028"><ele>11.9</ele><time>2015-05-02T09:59:12.0000000+00:00</time></trkpt><trkpt lat="34.9432778" lon="33.6427479"><ele>11.9</ele><time>2015-05-02T09:59:13.0000000+00:00</time></trkpt><trkpt lat="34.9433382" lon="33.6428068"><ele>11.5</ele><time>2015-05-02T09:59:14.0000000+00:00</time></trkpt><trkpt lat="34.943393" lon="33.6428596"><ele>11.7</ele><time>2015-05-02T09:59:15.0000000+00:00</time></trkpt><trkpt lat="34.9434567" lon="33.6429248"><ele>11.9</ele><time>2015-05-02T09:59:16.0000000+00:00</time></trkpt><trkpt lat="34.9434989" lon="33.6429727"><ele>11.5</ele><time>2015-05-02T09:59:17.0000000+00:00</time></trkpt><trkpt lat="34.9435612" lon="33.643029"><ele>11.7</ele><time>2015-05-02T09:59:18.0000000+00:00</time></trkpt><trkpt lat="34.9436276" lon="33.6430733"><ele>12.4</ele><time>2015-05-02T09:59:19.0000000+00:00</time></trkpt><trkpt lat="34.9436788" lon="33.6431341"><ele>12.2</ele><time>2015-05-02T09:59:20.0000000+00:00</time></trkpt><trkpt lat="34.9437443" lon="33.6431831"><ele>12.1</ele><time>2015-05-02T09:59:21.0000000+00:00</time></trkpt><trkpt lat="34.9438158" lon="33.6432312"><ele>11.6</ele><time>2015-05-02T09:59:22.0000000+00:00</time></trkpt><trkpt lat="34.943882" lon="33.6432872"><ele>10.8</ele><time>2015-05-02T09:59:23.0000000+00:00</time></trkpt><trkpt lat="34.9439509" lon="33.6433367"><ele>10.9</ele><time>2015-05-02T09:59:24.0000000+00:00</time></trkpt><trkpt lat="34.9440185" lon="33.6433968"><ele>10.5</ele><time>2015-05-02T09:59:25.0000000+00:00</time></trkpt><trkpt lat="34.9440815" lon="33.6434495"><ele>10.2</ele><time>2015-05-02T09:59:26.0000000+00:00</time></trkpt><trkpt lat="34.9441526" lon="33.6435062"><ele>10.1</ele><time>2015-05-02T09:59:27.0000000+00:00</time></trkpt><trkpt lat="34.9442247" lon="33.643559"><ele>10.6</ele><time>2015-05-02T09:59:28.0000000+00:00</time></trkpt><trkpt lat="34.9442904" lon="33.643616"><ele>10.3</ele><time>2015-05-02T09:59:29.0000000+00:00</time></trkpt><trkpt lat="34.944356" lon="33.6436594"><ele>10.2</ele><time>2015-05-02T09:59:30.0000000+00:00</time></trkpt><trkpt lat="34.9444187" lon="33.6437139"><ele>9.6</ele><time>2015-05-02T09:59:31.0000000+00:00</time></trkpt><trkpt lat="34.9444838" lon="33.6437666"><ele>9.8</ele><time>2015-05-02T09:59:32.0000000+00:00</time></trkpt><trkpt lat="34.9445429" lon="33.6438211"><ele>9.9</ele><time>2015-05-02T09:59:33.0000000+00:00</time></trkpt><trkpt lat="34.9445981" lon="33.6438607"><ele>10.0</ele><time>2015-05-02T09:59:34.0000000+00:00</time></trkpt><trkpt lat="34.9446616" lon="33.6438981"><ele>10.5</ele><time>2015-05-02T09:59:35.0000000+00:00</time></trkpt><trkpt lat="34.9447187" lon="33.6439471"><ele>11.3</ele><time>2015-05-02T09:59:36.0000000+00:00</time></trkpt><trkpt lat="34.9447934" lon="33.6439926"><ele>10.6</ele><time>2015-05-02T09:59:37.0000000+00:00</time></trkpt><trkpt lat="34.9448569" lon="33.6440449"><ele>9.8</ele><time>2015-05-02T09:59:38.0000000+00:00</time></trkpt><trkpt lat="34.9449183" lon="33.6440969"><ele>9.4</ele><time>2015-05-02T09:59:39.0000000+00:00</time></trkpt><trkpt lat="34.9449792" lon="33.6441413"><ele>9.2</ele><time>2015-05-02T09:59:40.0000000+00:00</time></trkpt><trkpt lat="34.9450406" lon="33.6441838"><ele>9.1</ele><time>2015-05-02T09:59:41.0000000+00:00</time></trkpt><trkpt lat="34.945101" lon="33.6442228"><ele>9.6</ele><time>2015-05-02T09:59:42.0000000+00:00</time></trkpt><trkpt lat="34.9451653" lon="33.6442638"><ele>9.8</ele><time>2015-05-02T09:59:43.0000000+00:00</time></trkpt><trkpt lat="34.9452354" lon="33.6442975"><ele>9.4</ele><time>2015-05-02T09:59:44.0000000+00:00</time></trkpt><trkpt lat="34.9453013" lon="33.644328"><ele>8.7</ele><time>2015-05-02T09:59:45.0000000+00:00</time></trkpt><trkpt lat="34.9453793" lon="33.6443559"><ele>8.4</ele><time>2015-05-02T09:59:46.0000000+00:00</time></trkpt><trkpt lat="34.9454436" lon="33.644397"><ele>7.7</ele><time>2015-05-02T09:59:47.0000000+00:00</time></trkpt><trkpt lat="34.9455129" lon="33.6444202"><ele>7.9</ele><time>2015-05-02T09:59:48.0000000+00:00</time></trkpt><trkpt lat="34.9455807" lon="33.6444578"><ele>7.9</ele><time>2015-05-02T09:59:49.0000000+00:00</time></trkpt><trkpt lat="34.9456533" lon="33.644492"><ele>8.0</ele><time>2015-05-02T09:59:50.0000000+00:00</time></trkpt><trkpt lat="34.9457283" lon="33.6445261"><ele>9.0</ele><time>2015-05-02T09:59:51.0000000+00:00</time></trkpt><trkpt lat="34.9457984" lon="33.6445637"><ele>9.0</ele><time>2015-05-02T09:59:52.0000000+00:00</time></trkpt><trkpt lat="34.9458647" lon="33.6445942"><ele>10.0</ele><time>2015-05-02T09:59:53.0000000+00:00</time></trkpt><trkpt lat="34.9459409" lon="33.644641"><ele>10.5</ele><time>2015-05-02T09:59:54.0000000+00:00</time></trkpt><trkpt lat="34.9460076" lon="33.6446748"><ele>10.8</ele><time>2015-05-02T09:59:55.0000000+00:00</time></trkpt><trkpt lat="34.9460796" lon="33.6447127"><ele>10.4</ele><time>2015-05-02T09:59:56.0000000+00:00</time></trkpt><trkpt lat="34.9461422" lon="33.6447353"><ele>10.7</ele><time>2015-05-02T09:59:57.0000000+00:00</time></trkpt><trkpt lat="34.9462066" lon="33.6447578"><ele>11.4</ele><time>2015-05-02T09:59:58.0000000+00:00</time></trkpt><trkpt lat="34.9462732" lon="33.6447973"><ele>11.7</ele><time>2015-05-02T09:59:59.0000000+00:00</time></trkpt><trkpt lat="34.9463417" lon="33.644826"><ele>11.4</ele><time>2015-05-02T10:00:00.0000000+00:00</time></trkpt><trkpt lat="34.9463955" lon="33.6448627"><ele>11.7</ele><time>2015-05-02T10:00:01.0000000+00:00</time></trkpt><trkpt lat="34.9464631" lon="33.644892"><ele>11.9</ele><time>2015-05-02T10:00:02.0000000+00:00</time></trkpt><trkpt lat="34.9465168" lon="33.644922"><ele>12.4</ele><time>2015-05-02T10:00:03.0000000+00:00</time></trkpt><trkpt lat="34.9465888" lon="33.6449675"><ele>12.2</ele><time>2015-05-02T10:00:04.0000000+00:00</time></trkpt><trkpt lat="34.9466519" lon="33.6450087"><ele>12.6</ele><time>2015-05-02T10:00:05.0000000+00:00</time></trkpt><trkpt lat="34.9467148" lon="33.6450404"><ele>13.3</ele><time>2015-05-02T10:00:06.0000000+00:00</time></trkpt><trkpt lat="34.9467895" lon="33.6450678"><ele>13.7</ele><time>2015-05-02T10:00:07.0000000+00:00</time></trkpt><trkpt lat="34.9468559" lon="33.6450956"><ele>13.8</ele><time>2015-05-02T10:00:08.0000000+00:00</time></trkpt><trkpt lat="34.946917" lon="33.6451251"><ele>13.9</ele><time>2015-05-02T10:00:09.0000000+00:00</time></trkpt><trkpt lat="34.9469842" lon="33.6451661"><ele>14.5</ele><time>2015-05-02T10:00:10.0000000+00:00</time></trkpt><trkpt lat="34.9470391" lon="33.645211"><ele>15.2</ele><time>2015-05-02T10:00:11.0000000+00:00</time></trkpt><trkpt lat="34.9470968" lon="33.6452477"><ele>16.1</ele><time>2015-05-02T10:00:12.0000000+00:00</time></trkpt><trkpt lat="34.9471638" lon="33.645288"><ele>16.1</ele><time>2015-05-02T10:00:13.0000000+00:00</time></trkpt><trkpt lat="34.9472246" lon="33.6453252"><ele>16.5</ele><time>2015-05-02T10:00:14.0000000+00:00</time></trkpt><trkpt lat="34.9472922" lon="33.6453591"><ele>17.3</ele><time>2015-05-02T10:00:15.0000000+00:00</time></trkpt><trkpt lat="34.9473568" lon="33.6453949"><ele>17.2</ele><time>2015-05-02T10:00:16.0000000+00:00</time></trkpt><trkpt lat="34.9474218" lon="33.6454436"><ele>17.1</ele><time>2015-05-02T10:00:17.0000000+00:00</time></trkpt><trkpt lat="34.9474754" lon="33.6454595"><ele>18.1</ele><time>2015-05-02T10:00:18.0000000+00:00</time></trkpt><trkpt lat="34.9475372" lon="33.6454984"><ele>19.0</ele><time>2015-05-02T10:00:19.0000000+00:00</time></trkpt><trkpt lat="34.9476059" lon="33.6455356"><ele>19.5</ele><time>2015-05-02T10:00:20.0000000+00:00</time></trkpt><trkpt lat="34.9476681" lon="33.6455808"><ele>19.3</ele><time>2015-05-02T10:00:21.0000000+00:00</time></trkpt><trkpt lat="34.9477328" lon="33.6456136"><ele>19.1</ele><time>2015-05-02T10:00:22.0000000+00:00</time></trkpt><trkpt lat="34.9478023" lon="33.6456598"><ele>19.1</ele><time>2015-05-02T10:00:23.0000000+00:00</time></trkpt><trkpt lat="34.9478665" lon="33.6457132"><ele>18.6</ele><time>2015-05-02T10:00:24.0000000+00:00</time></trkpt><trkpt lat="34.9479353" lon="33.6457463"><ele>18.3</ele><time>2015-05-02T10:00:25.0000000+00:00</time></trkpt><trkpt lat="34.9479873" lon="33.6457773"><ele>18.7</ele><time>2015-05-02T10:00:26.0000000+00:00</time></trkpt><trkpt lat="34.9480438" lon="33.6458184"><ele>18.8</ele><time>2015-05-02T10:00:27.0000000+00:00</time></trkpt><trkpt lat="34.9481084" lon="33.6458709"><ele>18.9</ele><time>2015-05-02T10:00:28.0000000+00:00</time></trkpt><trkpt lat="34.9481686" lon="33.6459216"><ele>18.5</ele><time>2015-05-02T10:00:29.0000000+00:00</time></trkpt><trkpt lat="34.9482299" lon="33.6459744"><ele>17.7</ele><time>2015-05-02T10:00:30.0000000+00:00</time></trkpt><trkpt lat="34.9482824" lon="33.6460211"><ele>17.4</ele><time>2015-05-02T10:00:31.0000000+00:00</time></trkpt><trkpt lat="34.9483354" lon="33.6460678"><ele>18.2</ele><time>2015-05-02T10:00:32.0000000+00:00</time></trkpt><trkpt lat="34.9483953" lon="33.6461223"><ele>18.1</ele><time>2015-05-02T10:00:33.0000000+00:00</time></trkpt><trkpt lat="34.9484526" lon="33.6461794"><ele>17.1</ele><time>2015-05-02T10:00:34.0000000+00:00</time></trkpt><trkpt lat="34.9485099" lon="33.6462223"><ele>17.5</ele><time>2015-05-02T10:00:35.0000000+00:00</time></trkpt><trkpt lat="34.9485673" lon="33.6462864"><ele>17.8</ele><time>2015-05-02T10:00:36.0000000+00:00</time></trkpt><trkpt lat="34.9486172" lon="33.6463458"><ele>18.9</ele><time>2015-05-02T10:00:37.0000000+00:00</time></trkpt><trkpt lat="34.9486695" lon="33.6463895"><ele>19.5</ele><time>2015-05-02T10:00:38.0000000+00:00</time></trkpt><trkpt lat="34.9487303" lon="33.6464515"><ele>19.2</ele><time>2015-05-02T10:00:39.0000000+00:00</time></trkpt><trkpt lat="34.9487883" lon="33.6465115"><ele>18.6</ele><time>2015-05-02T10:00:40.0000000+00:00</time></trkpt><trkpt lat="34.9488459" lon="33.6465686"><ele>17.8</ele><time>2015-05-02T10:00:41.0000000+00:00</time></trkpt><trkpt lat="34.9489038" lon="33.646628"><ele>17.4</ele><time>2015-05-02T10:00:42.0000000+00:00</time></trkpt><trkpt lat="34.9489592" lon="33.6466805"><ele>17.7</ele><time>2015-05-02T10:00:43.0000000+00:00</time></trkpt><trkpt lat="34.9490334" lon="33.6467317"><ele>17.4</ele><time>2015-05-02T10:00:44.0000000+00:00</time></trkpt><trkpt lat="34.9490888" lon="33.6467847"><ele>18.2</ele><time>2015-05-02T10:00:45.0000000+00:00</time></trkpt><trkpt lat="34.9491406" lon="33.6468384"><ele>18.6</ele><time>2015-05-02T10:00:46.0000000+00:00</time></trkpt><trkpt lat="34.9492018" lon="33.646894"><ele>18.3</ele><time>2015-05-02T10:00:47.0000000+00:00</time></trkpt><trkpt lat="34.9492623" lon="33.6469571"><ele>18.2</ele><time>2015-05-02T10:00:48.0000000+00:00</time></trkpt><trkpt lat="34.9493159" lon="33.6470092"><ele>18.1</ele><time>2015-05-02T10:00:49.0000000+00:00</time></trkpt><trkpt lat="34.9493811" lon="33.6470554"><ele>17.1</ele><time>2015-05-02T10:00:50.0000000+00:00</time></trkpt><trkpt lat="34.9494358" lon="33.6471198"><ele>16.5</ele><time>2015-05-02T10:00:51.0000000+00:00</time></trkpt><trkpt lat="34.9494922" lon="33.6471888"><ele>15.8</ele><time>2015-05-02T10:00:52.0000000+00:00</time></trkpt><trkpt lat="34.9495397" lon="33.6472469"><ele>15.4</ele><time>2015-05-02T10:00:53.0000000+00:00</time></trkpt><trkpt lat="34.9495913" lon="33.6473004"><ele>14.7</ele><time>2015-05-02T10:00:54.0000000+00:00</time></trkpt><trkpt lat="34.9496433" lon="33.6473601"><ele>14.4</ele><time>2015-05-02T10:00:55.0000000+00:00</time></trkpt><trkpt lat="34.9497036" lon="33.6474302"><ele>13.7</ele><time>2015-05-02T10:00:56.0000000+00:00</time></trkpt><trkpt lat="34.9497605" lon="33.6474853"><ele>13.4</ele><time>2015-05-02T10:00:57.0000000+00:00</time></trkpt><trkpt lat="34.9498105" lon="33.6475402"><ele>13.7</ele><time>2015-05-02T10:00:58.0000000+00:00</time></trkpt><trkpt lat="34.9498638" lon="33.6475986"><ele>13.4</ele><time>2015-05-02T10:00:59.0000000+00:00</time></trkpt><trkpt lat="34.9499253" lon="33.6476544"><ele>13.2</ele><time>2015-05-02T10:01:00.0000000+00:00</time></trkpt><trkpt lat="34.9499724" lon="33.6477045"><ele>13.1</ele><time>2015-05-02T10:01:01.0000000+00:00</time></trkpt><trkpt lat="34.9500225" lon="33.6477471"><ele>12.6</ele><time>2015-05-02T10:01:02.0000000+00:00</time></trkpt><trkpt lat="34.9500816" lon="33.6478045"><ele>11.8</ele><time>2015-05-02T10:01:03.0000000+00:00</time></trkpt><trkpt lat="34.950127" lon="33.6478459"><ele>11.9</ele><time>2015-05-02T10:01:04.0000000+00:00</time></trkpt><trkpt lat="34.9501854" lon="33.64789"><ele>11.5</ele><time>2015-05-02T10:01:05.0000000+00:00</time></trkpt><trkpt lat="34.950237" lon="33.6479433"><ele>11.2</ele><time>2015-05-02T10:01:06.0000000+00:00</time></trkpt><trkpt lat="34.9502851" lon="33.6479833"><ele>10.6</ele><time>2015-05-02T10:01:07.0000000+00:00</time></trkpt><trkpt lat="34.9503444" lon="33.648045"><ele>10.3</ele><time>2015-05-02T10:01:08.0000000+00:00</time></trkpt><trkpt lat="34.9503885" lon="33.6480974"><ele>9.7</ele><time>2015-05-02T10:01:09.0000000+00:00</time></trkpt><trkpt lat="34.9504464" lon="33.6481583"><ele>9.8</ele><time>2015-05-02T10:01:10.0000000+00:00</time></trkpt><trkpt lat="34.9505054" lon="33.648212"><ele>9.9</ele><time>2015-05-02T10:01:11.0000000+00:00</time></trkpt><trkpt lat="34.9505672" lon="33.6482811"><ele>10.0</ele><time>2015-05-02T10:01:12.0000000+00:00</time></trkpt><trkpt lat="34.9506302" lon="33.6483417"><ele>9.5</ele><time>2015-05-02T10:01:13.0000000+00:00</time></trkpt><trkpt lat="34.950691" lon="33.6484023"><ele>8.8</ele><time>2015-05-02T10:01:14.0000000+00:00</time></trkpt><trkpt lat="34.9507465" lon="33.6484522"><ele>8.4</ele><time>2015-05-02T10:01:15.0000000+00:00</time></trkpt><trkpt lat="34.9508071" lon="33.6485057"><ele>7.7</ele><time>2015-05-02T10:01:16.0000000+00:00</time></trkpt><trkpt lat="34.9508626" lon="33.6485553"><ele>7.4</ele><time>2015-05-02T10:01:17.0000000+00:00</time></trkpt><trkpt lat="34.9509217" lon="33.6486147"><ele>7.2</ele><time>2015-05-02T10:01:18.0000000+00:00</time></trkpt><trkpt lat="34.9509846" lon="33.648661"><ele>7.6</ele><time>2015-05-02T10:01:19.0000000+00:00</time></trkpt><trkpt lat="34.9510449" lon="33.6487038"><ele>8.3</ele><time>2015-05-02T10:01:20.0000000+00:00</time></trkpt><trkpt lat="34.9511051" lon="33.6487389"><ele>8.7</ele><time>2015-05-02T10:01:21.0000000+00:00</time></trkpt><trkpt lat="34.9511752" lon="33.6487819"><ele>8.3</ele><time>2015-05-02T10:01:22.0000000+00:00</time></trkpt><trkpt lat="34.9512299" lon="33.6488217"><ele>7.7</ele><time>2015-05-02T10:01:23.0000000+00:00</time></trkpt><trkpt lat="34.9512963" lon="33.6488617"><ele>7.4</ele><time>2015-05-02T10:01:24.0000000+00:00</time></trkpt><trkpt lat="34.951352" lon="33.6488939"><ele>8.2</ele><time>2015-05-02T10:01:25.0000000+00:00</time></trkpt><trkpt lat="34.9514137" lon="33.6489108"><ele>9.1</ele><time>2015-05-02T10:01:26.0000000+00:00</time></trkpt><trkpt lat="34.9514779" lon="33.6489377"><ele>9.6</ele><time>2015-05-02T10:01:27.0000000+00:00</time></trkpt><trkpt lat="34.9515426" lon="33.6489146"><ele>10.3</ele><time>2015-05-02T10:01:28.0000000+00:00</time></trkpt><trkpt lat="34.9516197" lon="33.6488895"><ele>11.2</ele><time>2015-05-02T10:01:29.0000000+00:00</time></trkpt><trkpt lat="34.9516746" lon="33.6488709"><ele>11.6</ele><time>2015-05-02T10:01:30.0000000+00:00</time></trkpt><trkpt lat="34.9517386" lon="33.6488615"><ele>11.3</ele><time>2015-05-02T10:01:31.0000000+00:00</time></trkpt><trkpt lat="34.9518025" lon="33.6488758"><ele>11.2</ele><time>2015-05-02T10:01:32.0000000+00:00</time></trkpt><trkpt lat="34.9518566" lon="33.6489073"><ele>12.1</ele><time>2015-05-02T10:01:33.0000000+00:00</time></trkpt><trkpt lat="34.9519064" lon="33.648952"><ele>13.1</ele><time>2015-05-02T10:01:34.0000000+00:00</time></trkpt><trkpt lat="34.9519583" lon="33.6490125"><ele>13.5</ele><time>2015-05-02T10:01:35.0000000+00:00</time></trkpt><trkpt lat="34.9519843" lon="33.6490798"><ele>13.3</ele><time>2015-05-02T10:01:36.0000000+00:00</time></trkpt><trkpt lat="34.9519907" lon="33.6491563"><ele>13.2</ele><time>2015-05-02T10:01:37.0000000+00:00</time></trkpt><trkpt lat="34.9519995" lon="33.6492393"><ele>13.6</ele><time>2015-05-02T10:01:38.0000000+00:00</time></trkpt><trkpt lat="34.95201" lon="33.6493195"><ele>14.3</ele><time>2015-05-02T10:01:39.0000000+00:00</time></trkpt><trkpt lat="34.9520264" lon="33.6493977"><ele>14.2</ele><time>2015-05-02T10:01:40.0000000+00:00</time></trkpt><trkpt lat="34.9520534" lon="33.6494811"><ele>14.1</ele><time>2015-05-02T10:01:41.0000000+00:00</time></trkpt><trkpt lat="34.9520853" lon="33.6495486"><ele>14.1</ele><time>2015-05-02T10:01:42.0000000+00:00</time></trkpt><trkpt lat="34.9521246" lon="33.6496251"><ele>14.0</ele><time>2015-05-02T10:01:43.0000000+00:00</time></trkpt><trkpt lat="34.9521605" lon="33.6496924"><ele>14.5</ele><time>2015-05-02T10:01:44.0000000+00:00</time></trkpt><trkpt lat="34.952209" lon="33.649761"><ele>14.3</ele><time>2015-05-02T10:01:45.0000000+00:00</time></trkpt><trkpt lat="34.9522601" lon="33.6498134"><ele>14.1</ele><time>2015-05-02T10:01:46.0000000+00:00</time></trkpt><trkpt lat="34.9523126" lon="33.6498717"><ele>14.1</ele><time>2015-05-02T10:01:47.0000000+00:00</time></trkpt><trkpt lat="34.9523691" lon="33.6499202"><ele>14.6</ele><time>2015-05-02T10:01:48.0000000+00:00</time></trkpt><trkpt lat="34.9524202" lon="33.6499682"><ele>14.8</ele><time>2015-05-02T10:01:49.0000000+00:00</time></trkpt><trkpt lat="34.9524771" lon="33.6500243"><ele>14.9</ele><time>2015-05-02T10:01:50.0000000+00:00</time></trkpt><trkpt lat="34.9525424" lon="33.6500761"><ele>14.5</ele><time>2015-05-02T10:01:51.0000000+00:00</time></trkpt><trkpt lat="34.9526057" lon="33.6501298"><ele>14.2</ele><time>2015-05-02T10:01:52.0000000+00:00</time></trkpt><trkpt lat="34.952679" lon="33.6501789"><ele>13.1</ele><time>2015-05-02T10:01:53.0000000+00:00</time></trkpt><trkpt lat="34.9527364" lon="33.6502197"><ele>13.1</ele><time>2015-05-02T10:01:54.0000000+00:00</time></trkpt><trkpt lat="34.9528005" lon="33.6502725"><ele>12.5</ele><time>2015-05-02T10:01:55.0000000+00:00</time></trkpt><trkpt lat="34.952865" lon="33.650329"><ele>12.8</ele><time>2015-05-02T10:01:56.0000000+00:00</time></trkpt><trkpt lat="34.952931" lon="33.6503816"><ele>12.4</ele><time>2015-05-02T10:01:57.0000000+00:00</time></trkpt><trkpt lat="34.9529903" lon="33.6504288"><ele>12.7</ele><time>2015-05-02T10:01:58.0000000+00:00</time></trkpt><trkpt lat="34.9530495" lon="33.6504815"><ele>12.9</ele><time>2015-05-02T10:01:59.0000000+00:00</time></trkpt><trkpt lat="34.9531139" lon="33.6505328"><ele>12.9</ele><time>2015-05-02T10:02:00.0000000+00:00</time></trkpt><trkpt lat="34.9531832" lon="33.6505922"><ele>12.5</ele><time>2015-05-02T10:02:01.0000000+00:00</time></trkpt><trkpt lat="34.9532417" lon="33.6506338"><ele>12.8</ele><time>2015-05-02T10:02:02.0000000+00:00</time></trkpt><trkpt lat="34.9532985" lon="33.6506912"><ele>13.4</ele><time>2015-05-02T10:02:03.0000000+00:00</time></trkpt><trkpt lat="34.9533634" lon="33.6507356"><ele>13.7</ele><time>2015-05-02T10:02:04.0000000+00:00</time></trkpt><trkpt lat="34.9534336" lon="33.6507709"><ele>12.9</ele><time>2015-05-02T10:02:05.0000000+00:00</time></trkpt><trkpt lat="34.9534896" lon="33.6508229"><ele>12.4</ele><time>2015-05-02T10:02:06.0000000+00:00</time></trkpt><trkpt lat="34.9535394" lon="33.6508603"><ele>12.2</ele><time>2015-05-02T10:02:07.0000000+00:00</time></trkpt><trkpt lat="34.9535983" lon="33.6509107"><ele>12.1</ele><time>2015-05-02T10:02:08.0000000+00:00</time></trkpt><trkpt lat="34.9536564" lon="33.6509583"><ele>12.1</ele><time>2015-05-02T10:02:09.0000000+00:00</time></trkpt><trkpt lat="34.9537247" lon="33.6509985"><ele>12.0</ele><time>2015-05-02T10:02:10.0000000+00:00</time></trkpt><trkpt lat="34.9537808" lon="33.6510467"><ele>13.0</ele><time>2015-05-02T10:02:11.0000000+00:00</time></trkpt><trkpt lat="34.9538572" lon="33.6510965"><ele>12.5</ele><time>2015-05-02T10:02:12.0000000+00:00</time></trkpt><trkpt lat="34.9539259" lon="33.6511458"><ele>12.3</ele><time>2015-05-02T10:02:13.0000000+00:00</time></trkpt><trkpt lat="34.9539863" lon="33.6511911"><ele>12.1</ele><time>2015-05-02T10:02:14.0000000+00:00</time></trkpt><trkpt lat="34.9540426" lon="33.6512352"><ele>12.1</ele><time>2015-05-02T10:02:15.0000000+00:00</time></trkpt><trkpt lat="34.9541016" lon="33.6512809"><ele>13.1</ele><time>2015-05-02T10:02:16.0000000+00:00</time></trkpt><trkpt lat="34.9541648" lon="33.6513241"><ele>13.0</ele><time>2015-05-02T10:02:17.0000000+00:00</time></trkpt><trkpt lat="34.9542345" lon="33.6513675"><ele>13.0</ele><time>2015-05-02T10:02:18.0000000+00:00</time></trkpt><trkpt lat="34.9542936" lon="33.6514203"><ele>13.0</ele><time>2015-05-02T10:02:19.0000000+00:00</time></trkpt><trkpt lat="34.9543619" lon="33.6514786"><ele>13.0</ele><time>2015-05-02T10:02:20.0000000+00:00</time></trkpt><trkpt lat="34.9544314" lon="33.6515284"><ele>12.0</ele><time>2015-05-02T10:02:21.0000000+00:00</time></trkpt><trkpt lat="34.9544986" lon="33.6515871"><ele>11.0</ele><time>2015-05-02T10:02:22.0000000+00:00</time></trkpt><trkpt lat="34.9545628" lon="33.6516371"><ele>10.0</ele><time>2015-05-02T10:02:23.0000000+00:00</time></trkpt><trkpt lat="34.9546344" lon="33.6516942"><ele>9.0</ele><time>2015-05-02T10:02:24.0000000+00:00</time></trkpt><trkpt lat="34.9546988" lon="33.6517413"><ele>8.5</ele><time>2015-05-02T10:02:25.0000000+00:00</time></trkpt><trkpt lat="34.9547731" lon="33.6517907"><ele>8.3</ele><time>2015-05-02T10:02:26.0000000+00:00</time></trkpt><trkpt lat="34.9548382" lon="33.6518251"><ele>7.1</ele><time>2015-05-02T10:02:27.0000000+00:00</time></trkpt><trkpt lat="34.9549083" lon="33.6518844"><ele>6.6</ele><time>2015-05-02T10:02:28.0000000+00:00</time></trkpt><trkpt lat="34.9549709" lon="33.6519312"><ele>6.3</ele><time>2015-05-02T10:02:29.0000000+00:00</time></trkpt><trkpt lat="34.9550317" lon="33.6519809"><ele>6.7</ele><time>2015-05-02T10:02:30.0000000+00:00</time></trkpt><trkpt lat="34.9550948" lon="33.652038"><ele>7.3</ele><time>2015-05-02T10:02:31.0000000+00:00</time></trkpt><trkpt lat="34.9551567" lon="33.6520838"><ele>7.7</ele><time>2015-05-02T10:02:32.0000000+00:00</time></trkpt><trkpt lat="34.9552189" lon="33.6521259"><ele>7.9</ele><time>2015-05-02T10:02:33.0000000+00:00</time></trkpt><trkpt lat="34.9552802" lon="33.652169"><ele>7.9</ele><time>2015-05-02T10:02:34.0000000+00:00</time></trkpt><trkpt lat="34.9553335" lon="33.6522113"><ele>7.5</ele><time>2015-05-02T10:02:35.0000000+00:00</time></trkpt><trkpt lat="34.9553927" lon="33.6522474"><ele>7.2</ele><time>2015-05-02T10:02:36.0000000+00:00</time></trkpt><trkpt lat="34.9554433" lon="33.6522927"><ele>7.1</ele><time>2015-05-02T10:02:37.0000000+00:00</time></trkpt><trkpt lat="34.955495" lon="33.6523383"><ele>7.1</ele><time>2015-05-02T10:02:38.0000000+00:00</time></trkpt><trkpt lat="34.9555543" lon="33.6523786"><ele>6.5</ele><time>2015-05-02T10:02:39.0000000+00:00</time></trkpt><trkpt lat="34.9556185" lon="33.652409"><ele>6.8</ele><time>2015-05-02T10:02:40.0000000+00:00</time></trkpt><trkpt lat="34.9556706" lon="33.6524456"><ele>7.4</ele><time>2015-05-02T10:02:41.0000000+00:00</time></trkpt><trkpt lat="34.9557312" lon="33.6524738"><ele>7.2</ele><time>2015-05-02T10:02:42.0000000+00:00</time></trkpt><trkpt lat="34.9557837" lon="33.6525195"><ele>7.1</ele><time>2015-05-02T10:02:43.0000000+00:00</time></trkpt><trkpt lat="34.9558447" lon="33.6525668"><ele>6.6</ele><time>2015-05-02T10:02:44.0000000+00:00</time></trkpt><trkpt lat="34.9558884" lon="33.6526057"><ele>7.3</ele><time>2015-05-02T10:02:45.0000000+00:00</time></trkpt><trkpt lat="34.9559397" lon="33.6526563"><ele>8.2</ele><time>2015-05-02T10:02:46.0000000+00:00</time></trkpt><trkpt lat="34.9559976" lon="33.6527071"><ele>8.6</ele><time>2015-05-02T10:02:47.0000000+00:00</time></trkpt><trkpt lat="34.9560579" lon="33.6527559"><ele>8.3</ele><time>2015-05-02T10:02:48.0000000+00:00</time></trkpt><trkpt lat="34.9561109" lon="33.6528011"><ele>8.2</ele><time>2015-05-02T10:02:49.0000000+00:00</time></trkpt><trkpt lat="34.9561739" lon="33.6528388"><ele>7.1</ele><time>2015-05-02T10:02:50.0000000+00:00</time></trkpt><trkpt lat="34.9562149" lon="33.6528692"><ele>6.6</ele><time>2015-05-02T10:02:51.0000000+00:00</time></trkpt><trkpt lat="34.9562794" lon="33.6529191"><ele>6.8</ele><time>2015-05-02T10:02:52.0000000+00:00</time></trkpt><trkpt lat="34.9563356" lon="33.6529701"><ele>6.4</ele><time>2015-05-02T10:02:53.0000000+00:00</time></trkpt><trkpt lat="34.9563935" lon="33.6530198"><ele>5.7</ele><time>2015-05-02T10:02:54.0000000+00:00</time></trkpt><trkpt lat="34.9564363" lon="33.6530775"><ele>5.9</ele><time>2015-05-02T10:02:55.0000000+00:00</time></trkpt><trkpt lat="34.9564911" lon="33.6531296"><ele>5.4</ele><time>2015-05-02T10:02:56.0000000+00:00</time></trkpt><trkpt lat="34.9565396" lon="33.6531817"><ele>6.2</ele><time>2015-05-02T10:02:57.0000000+00:00</time></trkpt><trkpt lat="34.9565926" lon="33.6532347"><ele>6.6</ele><time>2015-05-02T10:02:58.0000000+00:00</time></trkpt><trkpt lat="34.9566395" lon="33.6532788"><ele>7.3</ele><time>2015-05-02T10:02:59.0000000+00:00</time></trkpt><trkpt lat="34.9566864" lon="33.6533301"><ele>7.7</ele><time>2015-05-02T10:03:00.0000000+00:00</time></trkpt><trkpt lat="34.956736" lon="33.653382"><ele>7.8</ele><time>2015-05-02T10:03:01.0000000+00:00</time></trkpt><trkpt lat="34.9567836" lon="33.6534322"><ele>7.9</ele><time>2015-05-02T10:03:02.0000000+00:00</time></trkpt><trkpt lat="34.956839" lon="33.6534798"><ele>8.0</ele><time>2015-05-02T10:03:03.0000000+00:00</time></trkpt><trkpt lat="34.9568914" lon="33.6535353"><ele>8.5</ele><time>2015-05-02T10:03:04.0000000+00:00</time></trkpt><trkpt lat="34.956946" lon="33.6535928"><ele>8.3</ele><time>2015-05-02T10:03:05.0000000+00:00</time></trkpt><trkpt lat="34.9570006" lon="33.6536574"><ele>8.1</ele><time>2015-05-02T10:03:06.0000000+00:00</time></trkpt><trkpt lat="34.9570468" lon="33.6537212"><ele>8.1</ele><time>2015-05-02T10:03:07.0000000+00:00</time></trkpt><trkpt lat="34.9571053" lon="33.6537882"><ele>8.1</ele><time>2015-05-02T10:03:08.0000000+00:00</time></trkpt><trkpt lat="34.9571636" lon="33.6538485"><ele>8.0</ele><time>2015-05-02T10:03:09.0000000+00:00</time></trkpt><trkpt lat="34.9572177" lon="33.6539064"><ele>9.0</ele><time>2015-05-02T10:03:10.0000000+00:00</time></trkpt><trkpt lat="34.9572662" lon="33.6539724"><ele>9.0</ele><time>2015-05-02T10:03:11.0000000+00:00</time></trkpt><trkpt lat="34.9573255" lon="33.6540286"><ele>9.0</ele><time>2015-05-02T10:03:12.0000000+00:00</time></trkpt><trkpt lat="34.9573839" lon="33.6540823"><ele>8.5</ele><time>2015-05-02T10:03:13.0000000+00:00</time></trkpt><trkpt lat="34.957441" lon="33.6541359"><ele>8.3</ele><time>2015-05-02T10:03:14.0000000+00:00</time></trkpt><trkpt lat="34.9574956" lon="33.6541802"><ele>8.1</ele><time>2015-05-02T10:03:15.0000000+00:00</time></trkpt><trkpt lat="34.9575409" lon="33.6542355"><ele>8.6</ele><time>2015-05-02T10:03:16.0000000+00:00</time></trkpt><trkpt lat="34.9575732" lon="33.6542738"><ele>8.3</ele><time>2015-05-02T10:03:17.0000000+00:00</time></trkpt><trkpt lat="34.957622" lon="33.6543368"><ele>8.1</ele><time>2015-05-02T10:03:19.0000000+00:00</time></trkpt><trkpt lat="34.9576747" lon="33.6544014"><ele>8.5</ele><time>2015-05-02T10:03:21.0000000+00:00</time></trkpt><trkpt lat="34.9577068" lon="33.6544403"><ele>8.8</ele><time>2015-05-02T10:03:22.0000000+00:00</time></trkpt><trkpt lat="34.9577704" lon="33.6545118"><ele>9.2</ele><time>2015-05-02T10:03:24.0000000+00:00</time></trkpt><trkpt lat="34.9578024" lon="33.6545553"><ele>9.1</ele><time>2015-05-02T10:03:25.0000000+00:00</time></trkpt><trkpt lat="34.9578753" lon="33.6546386"><ele>8.3</ele><time>2015-05-02T10:03:27.0000000+00:00</time></trkpt><trkpt lat="34.9579183" lon="33.6546906"><ele>8.2</ele><time>2015-05-02T10:03:28.0000000+00:00</time></trkpt><trkpt lat="34.957958" lon="33.6547316"><ele>8.6</ele><time>2015-05-02T10:03:29.0000000+00:00</time></trkpt><trkpt lat="34.9579898" lon="33.6547843"><ele>8.8</ele><time>2015-05-02T10:03:30.0000000+00:00</time></trkpt><trkpt lat="34.9580278" lon="33.6548305"><ele>8.9</ele><time>2015-05-02T10:03:31.0000000+00:00</time></trkpt><trkpt lat="34.9580785" lon="33.6548825"><ele>9.0</ele><time>2015-05-02T10:03:32.0000000+00:00</time></trkpt><trkpt lat="34.9581241" lon="33.6549251"><ele>10.0</ele><time>2015-05-02T10:03:33.0000000+00:00</time></trkpt><trkpt lat="34.95817" lon="33.6549736"><ele>10.5</ele><time>2015-05-02T10:03:34.0000000+00:00</time></trkpt><trkpt lat="34.9582147" lon="33.6550081"><ele>10.3</ele><time>2015-05-02T10:03:35.0000000+00:00</time></trkpt><trkpt lat="34.9582624" lon="33.6550545"><ele>9.6</ele><time>2015-05-02T10:03:36.0000000+00:00</time></trkpt><trkpt lat="34.9582939" lon="33.6551015"><ele>9.3</ele><time>2015-05-02T10:03:37.0000000+00:00</time></trkpt><trkpt lat="34.9583348" lon="33.6551437"><ele>9.2</ele><time>2015-05-02T10:03:38.0000000+00:00</time></trkpt><trkpt lat="34.9583758" lon="33.6551953"><ele>9.1</ele><time>2015-05-02T10:03:39.0000000+00:00</time></trkpt><trkpt lat="34.9584233" lon="33.6552552"><ele>8.6</ele><time>2015-05-02T10:03:40.0000000+00:00</time></trkpt><trkpt lat="34.9584699" lon="33.6553156"><ele>7.8</ele><time>2015-05-02T10:03:41.0000000+00:00</time></trkpt><trkpt lat="34.9585164" lon="33.6553666"><ele>7.9</ele><time>2015-05-02T10:03:42.0000000+00:00</time></trkpt><trkpt lat="34.9585569" lon="33.655427"><ele>9.0</ele><time>2015-05-02T10:03:43.0000000+00:00</time></trkpt><trkpt lat="34.9586054" lon="33.6554781"><ele>10.0</ele><time>2015-05-02T10:03:44.0000000+00:00</time></trkpt><trkpt lat="34.9586527" lon="33.6555281"><ele>11.0</ele><time>2015-05-02T10:03:45.0000000+00:00</time></trkpt><trkpt lat="34.9587025" lon="33.6555821"><ele>11.0</ele><time>2015-05-02T10:03:46.0000000+00:00</time></trkpt><trkpt lat="34.9587471" lon="33.6556282"><ele>11.5</ele><time>2015-05-02T10:03:47.0000000+00:00</time></trkpt><trkpt lat="34.9588022" lon="33.6556805"><ele>10.8</ele><time>2015-05-02T10:03:48.0000000+00:00</time></trkpt><trkpt lat="34.9588515" lon="33.6557337"><ele>10.4</ele><time>2015-05-02T10:03:49.0000000+00:00</time></trkpt><trkpt lat="34.9588954" lon="33.6557904"><ele>10.2</ele><time>2015-05-02T10:03:50.0000000+00:00</time></trkpt><trkpt lat="34.9589408" lon="33.6558442"><ele>10.1</ele><time>2015-05-02T10:03:51.0000000+00:00</time></trkpt><trkpt lat="34.9589931" lon="33.6558926"><ele>10.1</ele><time>2015-05-02T10:03:52.0000000+00:00</time></trkpt><trkpt lat="34.9590434" lon="33.6559494"><ele>10.0</ele><time>2015-05-02T10:03:53.0000000+00:00</time></trkpt><trkpt lat="34.9590926" lon="33.656001"><ele>10.0</ele><time>2015-05-02T10:03:54.0000000+00:00</time></trkpt><trkpt lat="34.9591402" lon="33.656049"><ele>10.0</ele><time>2015-05-02T10:03:55.0000000+00:00</time></trkpt><trkpt lat="34.9591925" lon="33.6561054"><ele>9.5</ele><time>2015-05-02T10:03:56.0000000+00:00</time></trkpt><trkpt lat="34.9592446" lon="33.6561551"><ele>9.3</ele><time>2015-05-02T10:03:57.0000000+00:00</time></trkpt><trkpt lat="34.9592942" lon="33.6562157"><ele>8.6</ele><time>2015-05-02T10:03:58.0000000+00:00</time></trkpt><trkpt lat="34.9593417" lon="33.6562791"><ele>8.3</ele><time>2015-05-02T10:03:59.0000000+00:00</time></trkpt><trkpt lat="34.9593919" lon="33.6563303"><ele>8.2</ele><time>2015-05-02T10:04:00.0000000+00:00</time></trkpt><trkpt lat="34.9594374" lon="33.6563948"><ele>8.1</ele><time>2015-05-02T10:04:01.0000000+00:00</time></trkpt><trkpt lat="34.9594885" lon="33.6564433"><ele>8.1</ele><time>2015-05-02T10:04:02.0000000+00:00</time></trkpt><trkpt lat="34.9595367" lon="33.6564916"><ele>8.0</ele><time>2015-05-02T10:04:03.0000000+00:00</time></trkpt><trkpt lat="34.9595886" lon="33.6565454"><ele>8.5</ele><time>2015-05-02T10:04:04.0000000+00:00</time></trkpt><trkpt lat="34.9596309" lon="33.6565958"><ele>8.8</ele><time>2015-05-02T10:04:05.0000000+00:00</time></trkpt><trkpt lat="34.9596819" lon="33.6566557"><ele>8.9</ele><time>2015-05-02T10:04:06.0000000+00:00</time></trkpt><trkpt lat="34.9597341" lon="33.656712"><ele>9.5</ele><time>2015-05-02T10:04:07.0000000+00:00</time></trkpt><trkpt lat="34.959786" lon="33.6567752"><ele>9.2</ele><time>2015-05-02T10:04:08.0000000+00:00</time></trkpt><trkpt lat="34.959838" lon="33.6568303"><ele>9.1</ele><time>2015-05-02T10:04:09.0000000+00:00</time></trkpt><trkpt lat="34.959889" lon="33.6568851"><ele>9.1</ele><time>2015-05-02T10:04:10.0000000+00:00</time></trkpt><trkpt lat="34.959935" lon="33.6569443"><ele>9.0</ele><time>2015-05-02T10:04:11.0000000+00:00</time></trkpt><trkpt lat="34.9599878" lon="33.65701"><ele>9.0</ele><time>2015-05-02T10:04:12.0000000+00:00</time></trkpt><trkpt lat="34.9600385" lon="33.6570696"><ele>9.0</ele><time>2015-05-02T10:04:13.0000000+00:00</time></trkpt><trkpt lat="34.9600816" lon="33.6571315"><ele>9.5</ele><time>2015-05-02T10:04:14.0000000+00:00</time></trkpt><trkpt lat="34.9601238" lon="33.657187"><ele>9.8</ele><time>2015-05-02T10:04:15.0000000+00:00</time></trkpt><trkpt lat="34.9601754" lon="33.6572526"><ele>9.4</ele><time>2015-05-02T10:04:16.0000000+00:00</time></trkpt><trkpt lat="34.9602151" lon="33.6573133"><ele>9.7</ele><time>2015-05-02T10:04:17.0000000+00:00</time></trkpt><trkpt lat="34.9602654" lon="33.6573676"><ele>9.9</ele><time>2015-05-02T10:04:18.0000000+00:00</time></trkpt><trkpt lat="34.9603061" lon="33.6574177"><ele>10.4</ele><time>2015-05-02T10:04:19.0000000+00:00</time></trkpt><trkpt lat="34.9603523" lon="33.6574758"><ele>10.7</ele><time>2015-05-02T10:04:20.0000000+00:00</time></trkpt><trkpt lat="34.9603926" lon="33.6575282"><ele>11.4</ele><time>2015-05-02T10:04:21.0000000+00:00</time></trkpt><trkpt lat="34.9604374" lon="33.6575714"><ele>11.7</ele><time>2015-05-02T10:04:22.0000000+00:00</time></trkpt><trkpt lat="34.9604794" lon="33.6576259"><ele>12.4</ele><time>2015-05-02T10:04:23.0000000+00:00</time></trkpt><trkpt lat="34.9605244" lon="33.6576749"><ele>12.2</ele><time>2015-05-02T10:04:24.0000000+00:00</time></trkpt><trkpt lat="34.9605676" lon="33.6577261"><ele>12.1</ele><time>2015-05-02T10:04:25.0000000+00:00</time></trkpt><trkpt lat="34.9606165" lon="33.6577724"><ele>11.6</ele><time>2015-05-02T10:04:26.0000000+00:00</time></trkpt><trkpt lat="34.9606614" lon="33.6578259"><ele>10.8</ele><time>2015-05-02T10:04:27.0000000+00:00</time></trkpt><trkpt lat="34.960708" lon="33.657878"><ele>10.9</ele><time>2015-05-02T10:04:28.0000000+00:00</time></trkpt><trkpt lat="34.9607527" lon="33.6579353"><ele>10.5</ele><time>2015-05-02T10:04:29.0000000+00:00</time></trkpt><trkpt lat="34.9607994" lon="33.6579665"><ele>9.7</ele><time>2015-05-02T10:04:30.0000000+00:00</time></trkpt><trkpt lat="34.960845" lon="33.6580233"><ele>9.9</ele><time>2015-05-02T10:04:31.0000000+00:00</time></trkpt><trkpt lat="34.960892" lon="33.6580671"><ele>9.5</ele><time>2015-05-02T10:04:32.0000000+00:00</time></trkpt><trkpt lat="34.9609264" lon="33.6581128"><ele>9.2</ele><time>2015-05-02T10:04:33.0000000+00:00</time></trkpt><trkpt lat="34.9609942" lon="33.6581666"><ele>9.1</ele><time>2015-05-02T10:04:35.0000000+00:00</time></trkpt><trkpt lat="34.961041" lon="33.6581846"><ele>9.0</ele><time>2015-05-02T10:04:36.0000000+00:00</time></trkpt><trkpt lat="34.9610963" lon="33.658187"><ele>9.0</ele><time>2015-05-02T10:04:37.0000000+00:00</time></trkpt><trkpt lat="34.9611476" lon="33.6581636"><ele>9.0</ele><time>2015-05-02T10:04:38.0000000+00:00</time></trkpt><trkpt lat="34.9612017" lon="33.658163"><ele>9.0</ele><time>2015-05-02T10:04:39.0000000+00:00</time></trkpt><trkpt lat="34.9612538" lon="33.6581553"><ele>9.0</ele><time>2015-05-02T10:04:40.0000000+00:00</time></trkpt><trkpt lat="34.9613065" lon="33.6581324"><ele>9.0</ele><time>2015-05-02T10:04:41.0000000+00:00</time></trkpt><trkpt lat="34.9613564" lon="33.6581213"><ele>9.5</ele><time>2015-05-02T10:04:42.0000000+00:00</time></trkpt><trkpt lat="34.9614113" lon="33.6581"><ele>9.8</ele><time>2015-05-02T10:04:43.0000000+00:00</time></trkpt><trkpt lat="34.9614524" lon="33.6580555"><ele>10.4</ele><time>2015-05-02T10:04:44.0000000+00:00</time></trkpt><trkpt lat="34.9615039" lon="33.6580351"><ele>10.7</ele><time>2015-05-02T10:04:45.0000000+00:00</time></trkpt><trkpt lat="34.9615575" lon="33.6580169"><ele>10.4</ele><time>2015-05-02T10:04:46.0000000+00:00</time></trkpt><trkpt lat="34.961614" lon="33.6579998"><ele>10.7</ele><time>2015-05-02T10:04:47.0000000+00:00</time></trkpt><trkpt lat="34.9616796" lon="33.6579791"><ele>10.9</ele><time>2015-05-02T10:04:48.0000000+00:00</time></trkpt><trkpt lat="34.9617338" lon="33.6579646"><ele>10.9</ele><time>2015-05-02T10:04:49.0000000+00:00</time></trkpt><trkpt lat="34.9617863" lon="33.6579428"><ele>11.0</ele><time>2015-05-02T10:04:50.0000000+00:00</time></trkpt><trkpt lat="34.961879" lon="33.6579148"><ele>9.8</ele><time>2015-05-02T10:04:52.0000000+00:00</time></trkpt><trkpt lat="34.9619329" lon="33.6578949"><ele>9.4</ele><time>2015-05-02T10:04:53.0000000+00:00</time></trkpt><trkpt lat="34.961979" lon="33.6578781"><ele>9.7</ele><time>2015-05-02T10:04:54.0000000+00:00</time></trkpt><trkpt lat="34.9620353" lon="33.6578631"><ele>9.9</ele><time>2015-05-02T10:04:55.0000000+00:00</time></trkpt><trkpt lat="34.9620856" lon="33.6578464"><ele>9.9</ele><time>2015-05-02T10:04:56.0000000+00:00</time></trkpt><trkpt lat="34.9621358" lon="33.6578273"><ele>10.0</ele><time>2015-05-02T10:04:57.0000000+00:00</time></trkpt><trkpt lat="34.9621812" lon="33.6577984"><ele>11.0</ele><time>2015-05-02T10:04:58.0000000+00:00</time></trkpt><trkpt lat="34.9622257" lon="33.6577591"><ele>12.0</ele><time>2015-05-02T10:04:59.0000000+00:00</time></trkpt><trkpt lat="34.9622854" lon="33.6577378"><ele>13.0</ele><time>2015-05-02T10:05:00.0000000+00:00</time></trkpt><trkpt lat="34.962344" lon="33.657713"><ele>13.5</ele><time>2015-05-02T10:05:01.0000000+00:00</time></trkpt><trkpt lat="34.9624033" lon="33.6576891"><ele>13.3</ele><time>2015-05-02T10:05:02.0000000+00:00</time></trkpt><trkpt lat="34.962468" lon="33.657673"><ele>13.1</ele><time>2015-05-02T10:05:03.0000000+00:00</time></trkpt><trkpt lat="34.9625231" lon="33.6576512"><ele>12.6</ele><time>2015-05-02T10:05:04.0000000+00:00</time></trkpt><trkpt lat="34.9625806" lon="33.6576315"><ele>12.3</ele><time>2015-05-02T10:05:05.0000000+00:00</time></trkpt><trkpt lat="34.9626373" lon="33.6576099"><ele>12.2</ele><time>2015-05-02T10:05:06.0000000+00:00</time></trkpt><trkpt lat="34.9626846" lon="33.6575956"><ele>12.1</ele><time>2015-05-02T10:05:07.0000000+00:00</time></trkpt><trkpt lat="34.9627418" lon="33.6575787"><ele>11.6</ele><time>2015-05-02T10:05:08.0000000+00:00</time></trkpt><trkpt lat="34.962791" lon="33.6575718"><ele>11.3</ele><time>2015-05-02T10:05:09.0000000+00:00</time></trkpt><trkpt lat="34.9628462" lon="33.6575483"><ele>10.7</ele><time>2015-05-02T10:05:10.0000000+00:00</time></trkpt><trkpt lat="34.9629094" lon="33.6575308"><ele>10.8</ele><time>2015-05-02T10:05:11.0000000+00:00</time></trkpt><trkpt lat="34.9629683" lon="33.657522"><ele>10.4</ele><time>2015-05-02T10:05:12.0000000+00:00</time></trkpt><trkpt lat="34.9630234" lon="33.6574999"><ele>10.7</ele><time>2015-05-02T10:05:13.0000000+00:00</time></trkpt><trkpt lat="34.9630877" lon="33.6574778"><ele>10.9</ele><time>2015-05-02T10:05:14.0000000+00:00</time></trkpt><trkpt lat="34.9631446" lon="33.6574655"><ele>10.9</ele><time>2015-05-02T10:05:15.0000000+00:00</time></trkpt><trkpt lat="34.9632085" lon="33.6574484"><ele>11.0</ele><time>2015-05-02T10:05:16.0000000+00:00</time></trkpt><trkpt lat="34.9632695" lon="33.6574428"><ele>11.0</ele><time>2015-05-02T10:05:17.0000000+00:00</time></trkpt><trkpt lat="34.9633228" lon="33.6574242"><ele>11.0</ele><time>2015-05-02T10:05:18.0000000+00:00</time></trkpt><trkpt lat="34.9633809" lon="33.6574093"><ele>10.5</ele><time>2015-05-02T10:05:19.0000000+00:00</time></trkpt><trkpt lat="34.9634456" lon="33.657388"><ele>10.3</ele><time>2015-05-02T10:05:20.0000000+00:00</time></trkpt><trkpt lat="34.9635064" lon="33.6573688"><ele>10.1</ele><time>2015-05-02T10:05:21.0000000+00:00</time></trkpt><trkpt lat="34.9635745" lon="33.6573545"><ele>10.6</ele><time>2015-05-02T10:05:22.0000000+00:00</time></trkpt><trkpt lat="34.9636416" lon="33.65734"><ele>10.8</ele><time>2015-05-02T10:05:23.0000000+00:00</time></trkpt><trkpt lat="34.9637173" lon="33.6573355"><ele>11.4</ele><time>2015-05-02T10:05:24.0000000+00:00</time></trkpt><trkpt lat="34.9637931" lon="33.657336"><ele>11.7</ele><time>2015-05-02T10:05:25.0000000+00:00</time></trkpt><trkpt lat="34.9638645" lon="33.6573323"><ele>12.4</ele><time>2015-05-02T10:05:26.0000000+00:00</time></trkpt><trkpt lat="34.9639415" lon="33.6573288"><ele>12.2</ele><time>2015-05-02T10:05:27.0000000+00:00</time></trkpt><trkpt lat="34.964004" lon="33.6573123"><ele>12.6</ele><time>2015-05-02T10:05:28.0000000+00:00</time></trkpt><trkpt lat="34.9640692" lon="33.6573063"><ele>12.8</ele><time>2015-05-02T10:05:29.0000000+00:00</time></trkpt><trkpt lat="34.9641367" lon="33.6573093"><ele>13.4</ele><time>2015-05-02T10:05:30.0000000+00:00</time></trkpt><trkpt lat="34.9642067" lon="33.6573051"><ele>13.7</ele><time>2015-05-02T10:05:31.0000000+00:00</time></trkpt><trkpt lat="34.9642827" lon="33.6572989"><ele>13.9</ele><time>2015-05-02T10:05:32.0000000+00:00</time></trkpt><trkpt lat="34.9643476" lon="33.6572984"><ele>13.9</ele><time>2015-05-02T10:05:33.0000000+00:00</time></trkpt><trkpt lat="34.964408" lon="33.657286"><ele>15.0</ele><time>2015-05-02T10:05:34.0000000+00:00</time></trkpt><trkpt lat="34.9644801" lon="33.6572863"><ele>15.0</ele><time>2015-05-02T10:05:35.0000000+00:00</time></trkpt><trkpt lat="34.9645412" lon="33.6572793"><ele>15.0</ele><time>2015-05-02T10:05:36.0000000+00:00</time></trkpt><trkpt lat="34.9645993" lon="33.6572813"><ele>14.5</ele><time>2015-05-02T10:05:37.0000000+00:00</time></trkpt><trkpt lat="34.9646711" lon="33.6572808"><ele>13.8</ele><time>2015-05-02T10:05:38.0000000+00:00</time></trkpt><trkpt lat="34.9647369" lon="33.6572773"><ele>13.4</ele><time>2015-05-02T10:05:39.0000000+00:00</time></trkpt><trkpt lat="34.9648058" lon="33.6572786"><ele>13.2</ele><time>2015-05-02T10:05:40.0000000+00:00</time></trkpt><trkpt lat="34.9648669" lon="33.6572863"><ele>12.6</ele><time>2015-05-02T10:05:41.0000000+00:00</time></trkpt><trkpt lat="34.9649136" lon="33.6572896"><ele>13.3</ele><time>2015-05-02T10:05:42.0000000+00:00</time></trkpt><trkpt lat="34.9649822" lon="33.6572971"><ele>13.2</ele><time>2015-05-02T10:05:43.0000000+00:00</time></trkpt><trkpt lat="34.9650475" lon="33.657285"><ele>12.6</ele><time>2015-05-02T10:05:44.0000000+00:00</time></trkpt><trkpt lat="34.9651003" lon="33.6572642"><ele>12.8</ele><time>2015-05-02T10:05:45.0000000+00:00</time></trkpt><trkpt lat="34.9651736" lon="33.6572664"><ele>12.4</ele><time>2015-05-02T10:05:46.0000000+00:00</time></trkpt><trkpt lat="34.965237" lon="33.6572645"><ele>12.2</ele><time>2015-05-02T10:05:47.0000000+00:00</time></trkpt><trkpt lat="34.9653079" lon="33.6572639"><ele>12.1</ele><time>2015-05-02T10:05:48.0000000+00:00</time></trkpt><trkpt lat="34.9653779" lon="33.6572696"><ele>11.6</ele><time>2015-05-02T10:05:49.0000000+00:00</time></trkpt><trkpt lat="34.9654408" lon="33.6572761"><ele>11.3</ele><time>2015-05-02T10:05:50.0000000+00:00</time></trkpt><trkpt lat="34.965508" lon="33.6572791"><ele>11.2</ele><time>2015-05-02T10:05:51.0000000+00:00</time></trkpt><trkpt lat="34.9655776" lon="33.6572717"><ele>11.1</ele><time>2015-05-02T10:05:52.0000000+00:00</time></trkpt><trkpt lat="34.9656484" lon="33.6572723"><ele>10.6</ele><time>2015-05-02T10:05:53.0000000+00:00</time></trkpt><trkpt lat="34.9657095" lon="33.6572684"><ele>10.3</ele><time>2015-05-02T10:05:54.0000000+00:00</time></trkpt><trkpt lat="34.9657717" lon="33.6572761"><ele>10.7</ele><time>2015-05-02T10:05:55.0000000+00:00</time></trkpt><trkpt lat="34.9658413" lon="33.6572851"><ele>10.8</ele><time>2015-05-02T10:05:56.0000000+00:00</time></trkpt><trkpt lat="34.9659119" lon="33.6572709"><ele>10.9</ele><time>2015-05-02T10:05:57.0000000+00:00</time></trkpt><trkpt lat="34.9659772" lon="33.6572716"><ele>10.5</ele><time>2015-05-02T10:05:58.0000000+00:00</time></trkpt><trkpt lat="34.9660506" lon="33.6572686"><ele>10.2</ele><time>2015-05-02T10:05:59.0000000+00:00</time></trkpt><trkpt lat="34.9661192" lon="33.6572694"><ele>9.6</ele><time>2015-05-02T10:06:00.0000000+00:00</time></trkpt><trkpt lat="34.9661814" lon="33.6572702"><ele>9.8</ele><time>2015-05-02T10:06:01.0000000+00:00</time></trkpt><trkpt lat="34.9662485" lon="33.6572906"><ele>8.9</ele><time>2015-05-02T10:06:02.0000000+00:00</time></trkpt><trkpt lat="34.9663084" lon="33.6572918"><ele>8.5</ele><time>2015-05-02T10:06:03.0000000+00:00</time></trkpt><trkpt lat="34.9663574" lon="33.6572926"><ele>8.7</ele><time>2015-05-02T10:06:04.0000000+00:00</time></trkpt><trkpt lat="34.966419" lon="33.6572966"><ele>8.9</ele><time>2015-05-02T10:06:05.0000000+00:00</time></trkpt><trkpt lat="34.9664777" lon="33.6572984"><ele>9.0</ele><time>2015-05-02T10:06:06.0000000+00:00</time></trkpt><trkpt lat="34.9665417" lon="33.6573003"><ele>9.0</ele><time>2015-05-02T10:06:07.0000000+00:00</time></trkpt><trkpt lat="34.9666097" lon="33.6573029"><ele>9.5</ele><time>2015-05-02T10:06:08.0000000+00:00</time></trkpt><trkpt lat="34.9666734" lon="33.6572986"><ele>9.8</ele><time>2015-05-02T10:06:09.0000000+00:00</time></trkpt><trkpt lat="34.9667454" lon="33.657305"><ele>9.4</ele><time>2015-05-02T10:06:10.0000000+00:00</time></trkpt><trkpt lat="34.9668074" lon="33.6573125"><ele>9.2</ele><time>2015-05-02T10:06:11.0000000+00:00</time></trkpt><trkpt lat="34.9668764" lon="33.6573097"><ele>8.6</ele><time>2015-05-02T10:06:12.0000000+00:00</time></trkpt><trkpt lat="34.9669446" lon="33.6573215"><ele>8.3</ele><time>2015-05-02T10:06:13.0000000+00:00</time></trkpt><trkpt lat="34.9670039" lon="33.657322"><ele>8.7</ele><time>2015-05-02T10:06:14.0000000+00:00</time></trkpt><trkpt lat="34.9670744" lon="33.6573206"><ele>9.3</ele><time>2015-05-02T10:06:15.0000000+00:00</time></trkpt><trkpt lat="34.9671476" lon="33.6573249"><ele>9.2</ele><time>2015-05-02T10:06:16.0000000+00:00</time></trkpt><trkpt lat="34.9672181" lon="33.6573297"><ele>8.6</ele><time>2015-05-02T10:06:17.0000000+00:00</time></trkpt><trkpt lat="34.9672962" lon="33.6573258"><ele>8.3</ele><time>2015-05-02T10:06:18.0000000+00:00</time></trkpt><trkpt lat="34.96737" lon="33.6573265"><ele>7.7</ele><time>2015-05-02T10:06:19.0000000+00:00</time></trkpt><trkpt lat="34.9674372" lon="33.6573258"><ele>7.3</ele><time>2015-05-02T10:06:20.0000000+00:00</time></trkpt><trkpt lat="34.9675065" lon="33.6573241"><ele>7.2</ele><time>2015-05-02T10:06:21.0000000+00:00</time></trkpt><trkpt lat="34.9675733" lon="33.6573296"><ele>7.6</ele><time>2015-05-02T10:06:22.0000000+00:00</time></trkpt><trkpt lat="34.967637" lon="33.657327"><ele>7.8</ele><time>2015-05-02T10:06:23.0000000+00:00</time></trkpt><trkpt lat="34.9677072" lon="33.6573245"><ele>7.9</ele><time>2015-05-02T10:06:24.0000000+00:00</time></trkpt><trkpt lat="34.9677737" lon="33.6573196"><ele>8.0</ele><time>2015-05-02T10:06:25.0000000+00:00</time></trkpt><trkpt lat="34.9678509" lon="33.6573121"><ele>8.5</ele><time>2015-05-02T10:06:26.0000000+00:00</time></trkpt><trkpt lat="34.9679197" lon="33.6573031"><ele>8.3</ele><time>2015-05-02T10:06:27.0000000+00:00</time></trkpt><trkpt lat="34.9680004" lon="33.6573011"><ele>8.1</ele><time>2015-05-02T10:06:28.0000000+00:00</time></trkpt><trkpt lat="34.9680653" lon="33.6572897"><ele>7.6</ele><time>2015-05-02T10:06:29.0000000+00:00</time></trkpt><trkpt lat="34.96814" lon="33.6572747"><ele>6.8</ele><time>2015-05-02T10:06:30.0000000+00:00</time></trkpt><trkpt lat="34.968217" lon="33.6572526"><ele>6.4</ele><time>2015-05-02T10:06:31.0000000+00:00</time></trkpt><trkpt lat="34.9682906" lon="33.6572437"><ele>5.7</ele><time>2015-05-02T10:06:32.0000000+00:00</time></trkpt><trkpt lat="34.9683649" lon="33.6572309"><ele>5.4</ele><time>2015-05-02T10:06:33.0000000+00:00</time></trkpt><trkpt lat="34.9684274" lon="33.6572008"><ele>5.2</ele><time>2015-05-02T10:06:34.0000000+00:00</time></trkpt><trkpt lat="34.9684966" lon="33.6571658"><ele>5.1</ele><time>2015-05-02T10:06:35.0000000+00:00</time></trkpt><trkpt lat="34.9685658" lon="33.6571306"><ele>4.6</ele><time>2015-05-02T10:06:36.0000000+00:00</time></trkpt><trkpt lat="34.9686376" lon="33.657102"><ele>4.8</ele><time>2015-05-02T10:06:37.0000000+00:00</time></trkpt><trkpt lat="34.9687012" lon="33.6570593"><ele>5.4</ele><time>2015-05-02T10:06:38.0000000+00:00</time></trkpt><trkpt lat="34.9687594" lon="33.657026"><ele>5.7</ele><time>2015-05-02T10:06:39.0000000+00:00</time></trkpt><trkpt lat="34.9688194" lon="33.656981"><ele>5.9</ele><time>2015-05-02T10:06:40.0000000+00:00</time></trkpt><trkpt lat="34.9688734" lon="33.6569323"><ele>6.4</ele><time>2015-05-02T10:06:41.0000000+00:00</time></trkpt><trkpt lat="34.9689337" lon="33.6568862"><ele>6.7</ele><time>2015-05-02T10:06:42.0000000+00:00</time></trkpt><trkpt lat="34.9689826" lon="33.6568362"><ele>6.9</ele><time>2015-05-02T10:06:43.0000000+00:00</time></trkpt><trkpt lat="34.9690385" lon="33.6567835"><ele>6.9</ele><time>2015-05-02T10:06:44.0000000+00:00</time></trkpt><trkpt lat="34.9690952" lon="33.6567276"><ele>7.0</ele><time>2015-05-02T10:06:45.0000000+00:00</time></trkpt><trkpt lat="34.9691495" lon="33.656664"><ele>7.0</ele><time>2015-05-02T10:06:46.0000000+00:00</time></trkpt><trkpt lat="34.9691989" lon="33.6566075"><ele>7.0</ele><time>2015-05-02T10:06:47.0000000+00:00</time></trkpt><trkpt lat="34.96925" lon="33.6565404"><ele>7.5</ele><time>2015-05-02T10:06:48.0000000+00:00</time></trkpt><trkpt lat="34.9693001" lon="33.6564856"><ele>7.8</ele><time>2015-05-02T10:06:49.0000000+00:00</time></trkpt><trkpt lat="34.9693473" lon="33.6564245"><ele>7.9</ele><time>2015-05-02T10:06:50.0000000+00:00</time></trkpt><trkpt lat="34.9693993" lon="33.6563684"><ele>8.0</ele><time>2015-05-02T10:06:51.0000000+00:00</time></trkpt><trkpt lat="34.9694491" lon="33.6563107"><ele>8.0</ele><time>2015-05-02T10:06:52.0000000+00:00</time></trkpt><trkpt lat="34.9694974" lon="33.656259"><ele>8.0</ele><time>2015-05-02T10:06:53.0000000+00:00</time></trkpt><trkpt lat="34.9695531" lon="33.6562099"><ele>8.0</ele><time>2015-05-02T10:06:54.0000000+00:00</time></trkpt><trkpt lat="34.9696075" lon="33.6561572"><ele>7.5</ele><time>2015-05-02T10:06:55.0000000+00:00</time></trkpt><trkpt lat="34.9696528" lon="33.6560994"><ele>6.8</ele><time>2015-05-02T10:06:56.0000000+00:00</time></trkpt><trkpt lat="34.9697047" lon="33.6560401"><ele>6.9</ele><time>2015-05-02T10:06:57.0000000+00:00</time></trkpt><trkpt lat="34.9697592" lon="33.6559856"><ele>6.5</ele><time>2015-05-02T10:06:58.0000000+00:00</time></trkpt><trkpt lat="34.9697998" lon="33.6559285"><ele>6.7</ele><time>2015-05-02T10:06:59.0000000+00:00</time></trkpt><trkpt lat="34.9698556" lon="33.6558631"><ele>6.9</ele><time>2015-05-02T10:07:00.0000000+00:00</time></trkpt><trkpt lat="34.9699074" lon="33.6557975"><ele>7.0</ele><time>2015-05-02T10:07:01.0000000+00:00</time></trkpt><trkpt lat="34.9699621" lon="33.655743"><ele>7.0</ele><time>2015-05-02T10:07:02.0000000+00:00</time></trkpt><trkpt lat="34.9700158" lon="33.6556876"><ele>7.0</ele><time>2015-05-02T10:07:03.0000000+00:00</time></trkpt><trkpt lat="34.9700689" lon="33.6556391"><ele>7.0</ele><time>2015-05-02T10:07:04.0000000+00:00</time></trkpt><trkpt lat="34.9701201" lon="33.6555854"><ele>7.0</ele><time>2015-05-02T10:07:05.0000000+00:00</time></trkpt><trkpt lat="34.9701789" lon="33.655526"><ele>7.0</ele><time>2015-05-02T10:07:06.0000000+00:00</time></trkpt><trkpt lat="34.9702186" lon="33.6554631"><ele>7.0</ele><time>2015-05-02T10:07:07.0000000+00:00</time></trkpt><trkpt lat="34.9702666" lon="33.6554103"><ele>7.0</ele><time>2015-05-02T10:07:08.0000000+00:00</time></trkpt><trkpt lat="34.9703137" lon="33.6553609"><ele>7.0</ele><time>2015-05-02T10:07:09.0000000+00:00</time></trkpt><trkpt lat="34.9703557" lon="33.6553133"><ele>7.5</ele><time>2015-05-02T10:07:10.0000000+00:00</time></trkpt><trkpt lat="34.9704003" lon="33.6552739"><ele>7.3</ele><time>2015-05-02T10:07:11.0000000+00:00</time></trkpt><trkpt lat="34.9704348" lon="33.6552327"><ele>7.1</ele><time>2015-05-02T10:07:12.0000000+00:00</time></trkpt><trkpt lat="34.9704694" lon="33.6551746"><ele>6.8</ele><time>2015-05-02T10:07:14.0000000+00:00</time></trkpt><trkpt lat="34.9705104" lon="33.6551245"><ele>6.4</ele><time>2015-05-02T10:07:33.0000000+00:00</time></trkpt><trkpt lat="34.9705488" lon="33.6550891"><ele>7.4</ele><time>2015-05-02T10:07:35.0000000+00:00</time></trkpt><trkpt lat="34.9705875" lon="33.6550553"><ele>8.4</ele><time>2015-05-02T10:07:37.0000000+00:00</time></trkpt><trkpt lat="34.9706294" lon="33.6550144"><ele>8.4</ele><time>2015-05-02T10:07:39.0000000+00:00</time></trkpt><trkpt lat="34.9706812" lon="33.6549621"><ele>8.6</ele><time>2015-05-02T10:07:41.0000000+00:00</time></trkpt><trkpt lat="34.9707123" lon="33.6548945"><ele>9.4</ele><time>2015-05-02T10:07:43.0000000+00:00</time></trkpt><trkpt lat="34.9707107" lon="33.654819"><ele>9.9</ele><time>2015-05-02T10:07:45.0000000+00:00</time></trkpt><trkpt lat="34.9707038" lon="33.654755"><ele>8.7</ele><time>2015-05-02T10:07:47.0000000+00:00</time></trkpt><trkpt lat="34.9707009" lon="33.654694"><ele>8.9</ele><time>2015-05-02T10:07:49.0000000+00:00</time></trkpt><trkpt lat="34.9706605" lon="33.6546643"><ele>9.0</ele><time>2015-05-02T10:16:21.0000000+00:00</time></trkpt><trkpt lat="34.9706823" lon="33.6547214"><ele>6.5</ele><time>2015-05-02T10:18:17.0000000+00:00</time></trkpt><trkpt lat="34.970715" lon="33.6547594"><ele>5.9</ele><time>2015-05-02T10:18:21.0000000+00:00</time></trkpt><trkpt lat="34.9707786" lon="33.6547715"><ele>9.0</ele><time>2015-05-02T10:18:24.0000000+00:00</time></trkpt><trkpt lat="34.9708355" lon="33.6547572"><ele>9.3</ele><time>2015-05-02T10:18:26.0000000+00:00</time></trkpt><trkpt lat="34.9709063" lon="33.654715"><ele>9.6</ele><time>2015-05-02T10:18:28.0000000+00:00</time></trkpt><trkpt lat="34.9709684" lon="33.654658"><ele>9.9</ele><time>2015-05-02T10:18:30.0000000+00:00</time></trkpt><trkpt lat="34.9710219" lon="33.6545944"><ele>10.0</ele><time>2015-05-02T10:18:32.0000000+00:00</time></trkpt><trkpt lat="34.9710697" lon="33.654532"><ele>10.5</ele><time>2015-05-02T10:18:34.0000000+00:00</time></trkpt><trkpt lat="34.9711139" lon="33.6544769"><ele>10.1</ele><time>2015-05-02T10:18:36.0000000+00:00</time></trkpt><trkpt lat="34.971157" lon="33.6544245"><ele>10.1</ele><time>2015-05-02T10:18:38.0000000+00:00</time></trkpt><trkpt lat="34.9712002" lon="33.6543783"><ele>10.5</ele><time>2015-05-02T10:18:40.0000000+00:00</time></trkpt><trkpt lat="34.9712462" lon="33.6543362"><ele>10.1</ele><time>2015-05-02T10:18:42.0000000+00:00</time></trkpt><trkpt lat="34.9712879" lon="33.6542914"><ele>10.8</ele><time>2015-05-02T10:18:44.0000000+00:00</time></trkpt><trkpt lat="34.971327" lon="33.6542471"><ele>11.2</ele><time>2015-05-02T10:18:46.0000000+00:00</time></trkpt><trkpt lat="34.9713649" lon="33.6542073"><ele>11.1</ele><time>2015-05-02T10:18:48.0000000+00:00</time></trkpt><trkpt lat="34.9714051" lon="33.6541635"><ele>11.8</ele><time>2015-05-02T10:18:50.0000000+00:00</time></trkpt><trkpt lat="34.9714471" lon="33.6541149"><ele>12.0</ele><time>2015-05-02T10:18:52.0000000+00:00</time></trkpt><trkpt lat="34.971493" lon="33.6540627"><ele>12.5</ele><time>2015-05-02T10:18:54.0000000+00:00</time></trkpt><trkpt lat="34.9715518" lon="33.6540002"><ele>12.9</ele><time>2015-05-02T10:18:56.0000000+00:00</time></trkpt><trkpt lat="34.9716392" lon="33.6539153"><ele>13.0</ele><time>2015-05-02T10:18:58.0000000+00:00</time></trkpt><trkpt lat="34.9716879" lon="33.6538428"><ele>13.5</ele><time>2015-05-02T10:19:00.0000000+00:00</time></trkpt><trkpt lat="34.9717608" lon="33.6537995"><ele>15.1</ele><time>2015-05-02T10:19:02.0000000+00:00</time></trkpt><trkpt lat="34.9718052" lon="33.6537792"><ele>15.6</ele><time>2015-05-02T10:19:03.0000000+00:00</time></trkpt><trkpt lat="34.9718544" lon="33.6537425"><ele>15.8</ele><time>2015-05-02T10:19:04.0000000+00:00</time></trkpt><trkpt lat="34.9718376" lon="33.6536155"><ele>16.9</ele><time>2015-05-02T10:19:05.0000000+00:00</time></trkpt><trkpt lat="34.9718725" lon="33.653559"><ele>17.5</ele><time>2015-05-02T10:19:06.0000000+00:00</time></trkpt><trkpt lat="34.9719079" lon="33.6535196"><ele>16.7</ele><time>2015-05-02T10:19:07.0000000+00:00</time></trkpt><trkpt lat="34.9719598" lon="33.6535026"><ele>15.9</ele><time>2015-05-02T10:19:08.0000000+00:00</time></trkpt><trkpt lat="34.972004" lon="33.6534711"><ele>15.0</ele><time>2015-05-02T10:19:09.0000000+00:00</time></trkpt><trkpt lat="34.9720723" lon="33.6534274"><ele>15.5</ele><time>2015-05-02T10:19:10.0000000+00:00</time></trkpt><trkpt lat="34.9721127" lon="33.6533888"><ele>15.8</ele><time>2015-05-02T10:19:11.0000000+00:00</time></trkpt><trkpt lat="34.9721487" lon="33.6533498"><ele>15.4</ele><time>2015-05-02T10:19:12.0000000+00:00</time></trkpt><trkpt lat="34.9722" lon="33.6533124"><ele>15.2</ele><time>2015-05-02T10:19:13.0000000+00:00</time></trkpt><trkpt lat="34.9722313" lon="33.6532683"><ele>15.1</ele><time>2015-05-02T10:19:14.0000000+00:00</time></trkpt><trkpt lat="34.9722643" lon="33.6532256"><ele>14.6</ele><time>2015-05-02T10:19:15.0000000+00:00</time></trkpt><trkpt lat="34.9723098" lon="33.6531749"><ele>14.8</ele><time>2015-05-02T10:19:16.0000000+00:00</time></trkpt><trkpt lat="34.9723583" lon="33.6531303"><ele>14.9</ele><time>2015-05-02T10:19:17.0000000+00:00</time></trkpt><trkpt lat="34.9724044" lon="33.653098"><ele>15.0</ele><time>2015-05-02T10:19:18.0000000+00:00</time></trkpt><trkpt lat="34.9724365" lon="33.6530467"><ele>15.0</ele><time>2015-05-02T10:19:19.0000000+00:00</time></trkpt><trkpt lat="34.9724934" lon="33.652968"><ele>14.5</ele><time>2015-05-02T10:19:21.0000000+00:00</time></trkpt><trkpt lat="34.9725336" lon="33.6529219"><ele>14.3</ele><time>2015-05-02T10:19:22.0000000+00:00</time></trkpt><trkpt lat="34.9725705" lon="33.65288"><ele>13.6</ele><time>2015-05-02T10:19:23.0000000+00:00</time></trkpt><trkpt lat="34.9726137" lon="33.6528418"><ele>13.8</ele><time>2015-05-02T10:19:24.0000000+00:00</time></trkpt><trkpt lat="34.9726532" lon="33.6528038"><ele>13.9</ele><time>2015-05-02T10:19:25.0000000+00:00</time></trkpt><trkpt lat="34.9726928" lon="33.6527661"><ele>13.5</ele><time>2015-05-02T10:19:26.0000000+00:00</time></trkpt><trkpt lat="34.9727478" lon="33.6527335"><ele>13.7</ele><time>2015-05-02T10:19:27.0000000+00:00</time></trkpt><trkpt lat="34.9727856" lon="33.652703"><ele>13.4</ele><time>2015-05-02T10:19:28.0000000+00:00</time></trkpt><trkpt lat="34.9728336" lon="33.6526792"><ele>13.2</ele><time>2015-05-02T10:19:29.0000000+00:00</time></trkpt><trkpt lat="34.9729137" lon="33.6526346"><ele>14.3</ele><time>2015-05-02T10:19:31.0000000+00:00</time></trkpt><trkpt lat="34.9729693" lon="33.6526083"><ele>14.2</ele><time>2015-05-02T10:19:32.0000000+00:00</time></trkpt><trkpt lat="34.9730164" lon="33.6525842"><ele>14.1</ele><time>2015-05-02T10:19:33.0000000+00:00</time></trkpt><trkpt lat="34.9730765" lon="33.6525682"><ele>14.6</ele><time>2015-05-02T10:19:34.0000000+00:00</time></trkpt><trkpt lat="34.9731254" lon="33.6525522"><ele>15.3</ele><time>2015-05-02T10:19:35.0000000+00:00</time></trkpt><trkpt lat="34.9731785" lon="33.6525363"><ele>15.7</ele><time>2015-05-02T10:19:36.0000000+00:00</time></trkpt><trkpt lat="34.973229" lon="33.6525246"><ele>15.8</ele><time>2015-05-02T10:19:37.0000000+00:00</time></trkpt><trkpt lat="34.9732774" lon="33.6525183"><ele>16.4</ele><time>2015-05-02T10:19:38.0000000+00:00</time></trkpt><trkpt lat="34.973323" lon="33.6525186"><ele>17.2</ele><time>2015-05-02T10:19:39.0000000+00:00</time></trkpt><trkpt lat="34.9733799" lon="33.6525203"><ele>17.1</ele><time>2015-05-02T10:19:40.0000000+00:00</time></trkpt><trkpt lat="34.9734312" lon="33.6525199"><ele>17.6</ele><time>2015-05-02T10:19:41.0000000+00:00</time></trkpt><trkpt lat="34.9735249" lon="33.6525234"><ele>18.7</ele><time>2015-05-02T10:19:43.0000000+00:00</time></trkpt><trkpt lat="34.973577" lon="33.6525314"><ele>18.8</ele><time>2015-05-02T10:19:44.0000000+00:00</time></trkpt><trkpt lat="34.9736302" lon="33.6525385"><ele>19.4</ele><time>2015-05-02T10:19:45.0000000+00:00</time></trkpt><trkpt lat="34.9736827" lon="33.6525537"><ele>19.7</ele><time>2015-05-02T10:19:46.0000000+00:00</time></trkpt><trkpt lat="34.9737738" lon="33.6525825"><ele>19.9</ele><time>2015-05-02T10:19:48.0000000+00:00</time></trkpt><trkpt lat="34.9738311" lon="33.652604"><ele>20.0</ele><time>2015-05-02T10:19:49.0000000+00:00</time></trkpt><trkpt lat="34.9738813" lon="33.6526245"><ele>19.5</ele><time>2015-05-02T10:19:50.0000000+00:00</time></trkpt><trkpt lat="34.973944" lon="33.6526558"><ele>19.3</ele><time>2015-05-02T10:19:51.0000000+00:00</time></trkpt><trkpt lat="34.973989" lon="33.6526818"><ele>19.1</ele><time>2015-05-02T10:19:52.0000000+00:00</time></trkpt><trkpt lat="34.9740374" lon="33.6527076"><ele>19.6</ele><time>2015-05-02T10:19:53.0000000+00:00</time></trkpt><trkpt lat="34.9740872" lon="33.652736"><ele>19.8</ele><time>2015-05-02T10:19:54.0000000+00:00</time></trkpt><trkpt lat="34.974176" lon="33.652803"><ele>20.7</ele><time>2015-05-02T10:19:56.0000000+00:00</time></trkpt><trkpt lat="34.9742221" lon="33.6528464"><ele>20.9</ele><time>2015-05-02T10:19:57.0000000+00:00</time></trkpt><trkpt lat="34.9742643" lon="33.6528919"><ele>20.9</ele><time>2015-05-02T10:19:58.0000000+00:00</time></trkpt><trkpt lat="34.9743131" lon="33.6529436"><ele>20.5</ele><time>2015-05-02T10:19:59.0000000+00:00</time></trkpt><trkpt lat="34.9743547" lon="33.6529874"><ele>20.3</ele><time>2015-05-02T10:20:00.0000000+00:00</time></trkpt><trkpt lat="34.9743994" lon="33.6530366"><ele>20.1</ele><time>2015-05-02T10:20:01.0000000+00:00</time></trkpt><trkpt lat="34.9744301" lon="33.6530891"><ele>20.1</ele><time>2015-05-02T10:20:02.0000000+00:00</time></trkpt><trkpt lat="34.9744607" lon="33.6531338"><ele>20.5</ele><time>2015-05-02T10:20:03.0000000+00:00</time></trkpt><trkpt lat="34.9744979" lon="33.653183"><ele>20.8</ele><time>2015-05-02T10:20:04.0000000+00:00</time></trkpt><trkpt lat="34.9745338" lon="33.6532369"><ele>19.9</ele><time>2015-05-02T10:20:05.0000000+00:00</time></trkpt><trkpt lat="34.9745684" lon="33.6532932"><ele>19.5</ele><time>2015-05-02T10:20:06.0000000+00:00</time></trkpt><trkpt lat="34.9746103" lon="33.6533494"><ele>19.2</ele><time>2015-05-02T10:20:07.0000000+00:00</time></trkpt><trkpt lat="34.9746504" lon="33.6534102"><ele>18.6</ele><time>2015-05-02T10:20:08.0000000+00:00</time></trkpt><trkpt lat="34.974687" lon="33.6534636"><ele>18.3</ele><time>2015-05-02T10:20:09.0000000+00:00</time></trkpt><trkpt lat="34.9747127" lon="33.6535272"><ele>19.2</ele><time>2015-05-02T10:20:10.0000000+00:00</time></trkpt><trkpt lat="34.9747144" lon="33.6535896"><ele>20.1</ele><time>2015-05-02T10:20:11.0000000+00:00</time></trkpt><trkpt lat="34.9747412" lon="33.6536478"><ele>20.1</ele><time>2015-05-02T10:20:12.0000000+00:00</time></trkpt><trkpt lat="34.9747741" lon="33.6537573"><ele>21.8</ele><time>2015-05-02T10:20:14.0000000+00:00</time></trkpt><trkpt lat="34.9747875" lon="33.6538123"><ele>22.4</ele><time>2015-05-02T10:20:15.0000000+00:00</time></trkpt><trkpt lat="34.9747955" lon="33.6538686"><ele>22.7</ele><time>2015-05-02T10:20:16.0000000+00:00</time></trkpt><trkpt lat="34.9748121" lon="33.6539376"><ele>22.9</ele><time>2015-05-02T10:20:17.0000000+00:00</time></trkpt><trkpt lat="34.9748169" lon="33.6539948"><ele>22.4</ele><time>2015-05-02T10:20:18.0000000+00:00</time></trkpt><trkpt lat="34.9748233" lon="33.6541094"><ele>22.1</ele><time>2015-05-02T10:20:20.0000000+00:00</time></trkpt><trkpt lat="34.9748291" lon="33.6541782"><ele>22.1</ele><time>2015-05-02T10:20:21.0000000+00:00</time></trkpt><trkpt lat="34.9748304" lon="33.6542447"><ele>22.0</ele><time>2015-05-02T10:20:22.0000000+00:00</time></trkpt><trkpt lat="34.9748264" lon="33.6543102"><ele>21.5</ele><time>2015-05-02T10:20:23.0000000+00:00</time></trkpt><trkpt lat="34.9748262" lon="33.6543664"><ele>21.3</ele><time>2015-05-02T10:20:24.0000000+00:00</time></trkpt><trkpt lat="34.9748252" lon="33.654425"><ele>20.6</ele><time>2015-05-02T10:20:25.0000000+00:00</time></trkpt><trkpt lat="34.9748206" lon="33.65453"><ele>20.9</ele><time>2015-05-02T10:20:27.0000000+00:00</time></trkpt><trkpt lat="34.9748133" lon="33.6545932"><ele>22.0</ele><time>2015-05-02T10:20:28.0000000+00:00</time></trkpt><trkpt lat="34.9748126" lon="33.6546488"><ele>22.5</ele><time>2015-05-02T10:20:29.0000000+00:00</time></trkpt><trkpt lat="34.9748098" lon="33.6547606"><ele>22.9</ele><time>2015-05-02T10:20:31.0000000+00:00</time></trkpt><trkpt lat="34.9748183" lon="33.6548261"><ele>24.0</ele><time>2015-05-02T10:20:32.0000000+00:00</time></trkpt><trkpt lat="34.9748141" lon="33.6548894"><ele>24.0</ele><time>2015-05-02T10:20:33.0000000+00:00</time></trkpt><trkpt lat="34.9748174" lon="33.6549453"><ele>24.0</ele><time>2015-05-02T10:20:34.0000000+00:00</time></trkpt><trkpt lat="34.9748029" lon="33.6550466"><ele>23.5</ele><time>2015-05-02T10:20:36.0000000+00:00</time></trkpt><trkpt lat="34.9748086" lon="33.6551502"><ele>23.6</ele><time>2015-05-02T10:20:38.0000000+00:00</time></trkpt><trkpt lat="34.9748071" lon="33.6552399"><ele>24.9</ele><time>2015-05-02T10:20:40.0000000+00:00</time></trkpt><trkpt lat="34.9748037" lon="33.6552951"><ele>25.0</ele><time>2015-05-02T10:20:41.0000000+00:00</time></trkpt><trkpt lat="34.974802" lon="33.6553987"><ele>25.8</ele><time>2015-05-02T10:20:43.0000000+00:00</time></trkpt><trkpt lat="34.974791" lon="33.6554894"><ele>25.5</ele><time>2015-05-02T10:20:45.0000000+00:00</time></trkpt><trkpt lat="34.9747889" lon="33.6555759"><ele>25.9</ele><time>2015-05-02T10:20:47.0000000+00:00</time></trkpt><trkpt lat="34.9747854" lon="33.6556743"><ele>25.7</ele><time>2015-05-02T10:20:49.0000000+00:00</time></trkpt><trkpt lat="34.9747838" lon="33.6557626"><ele>25.2</ele><time>2015-05-02T10:20:51.0000000+00:00</time></trkpt><trkpt lat="34.9747887" lon="33.6558534"><ele>25.1</ele><time>2015-05-02T10:20:53.0000000+00:00</time></trkpt><trkpt lat="34.9747896" lon="33.6559428"><ele>25.8</ele><time>2015-05-02T10:20:55.0000000+00:00</time></trkpt><trkpt lat="34.9747888" lon="33.6560309"><ele>26.0</ele><time>2015-05-02T10:20:57.0000000+00:00</time></trkpt><trkpt lat="34.9747843" lon="33.6561164"><ele>26.0</ele><time>2015-05-02T10:20:59.0000000+00:00</time></trkpt><trkpt lat="34.9747807" lon="33.6562062"><ele>25.8</ele><time>2015-05-02T10:21:01.0000000+00:00</time></trkpt><trkpt lat="34.9747747" lon="33.6562943"><ele>25.7</ele><time>2015-05-02T10:21:03.0000000+00:00</time></trkpt><trkpt lat="34.9747709" lon="33.6563848"><ele>24.7</ele><time>2015-05-02T10:21:05.0000000+00:00</time></trkpt><trkpt lat="34.9747689" lon="33.6564724"><ele>24.2</ele><time>2015-05-02T10:21:07.0000000+00:00</time></trkpt><trkpt lat="34.9747659" lon="33.6565657"><ele>24.8</ele><time>2015-05-02T10:21:09.0000000+00:00</time></trkpt><trkpt lat="34.9747676" lon="33.6566564"><ele>24.2</ele><time>2015-05-02T10:21:11.0000000+00:00</time></trkpt><trkpt lat="34.9747685" lon="33.6567496"><ele>24.1</ele><time>2015-05-02T10:21:13.0000000+00:00</time></trkpt><trkpt lat="34.9747649" lon="33.6568437"><ele>25.5</ele><time>2015-05-02T10:21:15.0000000+00:00</time></trkpt><trkpt lat="34.9747646" lon="33.6569419"><ele>25.1</ele><time>2015-05-02T10:21:17.0000000+00:00</time></trkpt><trkpt lat="34.9747674" lon="33.6570376"><ele>24.6</ele><time>2015-05-02T10:21:19.0000000+00:00</time></trkpt><trkpt lat="34.9747678" lon="33.6571313"><ele>23.9</ele><time>2015-05-02T10:21:21.0000000+00:00</time></trkpt><trkpt lat="34.9747726" lon="33.6572205"><ele>23.7</ele><time>2015-05-02T10:21:23.0000000+00:00</time></trkpt><trkpt lat="34.9747893" lon="33.6573117"><ele>24.7</ele><time>2015-05-02T10:21:25.0000000+00:00</time></trkpt><trkpt lat="34.9748294" lon="33.6573812"><ele>26.2</ele><time>2015-05-02T10:21:27.0000000+00:00</time></trkpt><trkpt lat="34.9748771" lon="33.6574158"><ele>26.3</ele><time>2015-05-02T10:21:29.0000000+00:00</time></trkpt><trkpt lat="34.9749324" lon="33.657435"><ele>26.6</ele><time>2015-05-02T10:21:31.0000000+00:00</time></trkpt><trkpt lat="34.974999" lon="33.6574394"><ele>27.4</ele><time>2015-05-02T10:21:33.0000000+00:00</time></trkpt><trkpt lat="34.9750712" lon="33.657434"><ele>27.9</ele><time>2015-05-02T10:21:35.0000000+00:00</time></trkpt><trkpt lat="34.9751477" lon="33.6574325"><ele>28.2</ele><time>2015-05-02T10:21:37.0000000+00:00</time></trkpt><trkpt lat="34.9752237" lon="33.6574259"><ele>28.6</ele><time>2015-05-02T10:21:39.0000000+00:00</time></trkpt><trkpt lat="34.9753031" lon="33.65742"><ele>28.9</ele><time>2015-05-02T10:21:41.0000000+00:00</time></trkpt><trkpt lat="34.9753788" lon="33.6574225"><ele>30.2</ele><time>2015-05-02T10:21:43.0000000+00:00</time></trkpt><trkpt lat="34.9754579" lon="33.6574315"><ele>30.3</ele><time>2015-05-02T10:21:45.0000000+00:00</time></trkpt><trkpt lat="34.9755092" lon="33.6574339"><ele>30.2</ele><time>2015-05-02T10:21:46.0000000+00:00</time></trkpt><trkpt lat="34.975602" lon="33.657435"><ele>29.6</ele><time>2015-05-02T10:21:48.0000000+00:00</time></trkpt><trkpt lat="34.97565" lon="33.6574404"><ele>29.8</ele><time>2015-05-02T10:21:49.0000000+00:00</time></trkpt><trkpt lat="34.975698" lon="33.6574355"><ele>28.9</ele><time>2015-05-02T10:21:50.0000000+00:00</time></trkpt><trkpt lat="34.9757811" lon="33.6574386"><ele>28.7</ele><time>2015-05-02T10:21:52.0000000+00:00</time></trkpt><trkpt lat="34.975829" lon="33.6574362"><ele>28.4</ele><time>2015-05-02T10:21:53.0000000+00:00</time></trkpt><trkpt lat="34.9758799" lon="33.6574368"><ele>27.7</ele><time>2015-05-02T10:21:54.0000000+00:00</time></trkpt><trkpt lat="34.9759711" lon="33.6574174"><ele>27.7</ele><time>2015-05-02T10:21:56.0000000+00:00</time></trkpt><trkpt lat="34.9760163" lon="33.6574141"><ele>27.9</ele><time>2015-05-02T10:21:57.0000000+00:00</time></trkpt><trkpt lat="34.9760628" lon="33.6574068"><ele>28.4</ele><time>2015-05-02T10:21:58.0000000+00:00</time></trkpt><trkpt lat="34.976159" lon="33.6574076"><ele>28.9</ele><time>2015-05-02T10:22:00.0000000+00:00</time></trkpt><trkpt lat="34.9762123" lon="33.657397"><ele>28.4</ele><time>2015-05-02T10:22:01.0000000+00:00</time></trkpt><trkpt lat="34.9762583" lon="33.6573846"><ele>27.7</ele><time>2015-05-02T10:22:02.0000000+00:00</time></trkpt><trkpt lat="34.9763103" lon="33.6573714"><ele>27.4</ele><time>2015-05-02T10:22:03.0000000+00:00</time></trkpt><trkpt lat="34.9763553" lon="33.6573748"><ele>28.2</ele><time>2015-05-02T10:22:04.0000000+00:00</time></trkpt><trkpt lat="34.9764108" lon="33.65737"><ele>28.6</ele><time>2015-05-02T10:22:05.0000000+00:00</time></trkpt><trkpt lat="34.9764648" lon="33.6573583"><ele>28.3</ele><time>2015-05-02T10:22:06.0000000+00:00</time></trkpt><trkpt lat="34.9765133" lon="33.6573507"><ele>28.2</ele><time>2015-05-02T10:22:07.0000000+00:00</time></trkpt><trkpt lat="34.9765594" lon="33.6573407"><ele>28.6</ele><time>2015-05-02T10:22:08.0000000+00:00</time></trkpt><trkpt lat="34.976609" lon="33.6573329"><ele>28.3</ele><time>2015-05-02T10:22:09.0000000+00:00</time></trkpt><trkpt lat="34.9766565" lon="33.6573356"><ele>28.2</ele><time>2015-05-02T10:22:10.0000000+00:00</time></trkpt><trkpt lat="34.9767437" lon="33.6573249"><ele>28.8</ele><time>2015-05-02T10:22:12.0000000+00:00</time></trkpt><trkpt lat="34.9768026" lon="33.6573207"><ele>28.4</ele><time>2015-05-02T10:22:13.0000000+00:00</time></trkpt><trkpt lat="34.976859" lon="33.6573109"><ele>28.2</ele><time>2015-05-02T10:22:14.0000000+00:00</time></trkpt><trkpt lat="34.9769058" lon="33.657295"><ele>28.1</ele><time>2015-05-02T10:22:15.0000000+00:00</time></trkpt><trkpt lat="34.9769553" lon="33.6572935"><ele>27.6</ele><time>2015-05-02T10:22:16.0000000+00:00</time></trkpt><trkpt lat="34.9770026" lon="33.6572834"><ele>27.3</ele><time>2015-05-02T10:22:17.0000000+00:00</time></trkpt><trkpt lat="34.9770541" lon="33.6572734"><ele>27.2</ele><time>2015-05-02T10:22:18.0000000+00:00</time></trkpt><trkpt lat="34.9771033" lon="33.6572708"><ele>28.1</ele><time>2015-05-02T10:22:19.0000000+00:00</time></trkpt><trkpt lat="34.9771595" lon="33.6572678"><ele>28.1</ele><time>2015-05-02T10:22:20.0000000+00:00</time></trkpt><trkpt lat="34.977208" lon="33.6572656"><ele>28.0</ele><time>2015-05-02T10:22:21.0000000+00:00</time></trkpt><trkpt lat="34.9772543" lon="33.6572645"><ele>28.0</ele><time>2015-05-02T10:22:22.0000000+00:00</time></trkpt><trkpt lat="34.9773097" lon="33.6572654"><ele>28.5</ele><time>2015-05-02T10:22:23.0000000+00:00</time></trkpt><trkpt lat="34.9774111" lon="33.6572578"><ele>28.9</ele><time>2015-05-02T10:22:25.0000000+00:00</time></trkpt><trkpt lat="34.9774706" lon="33.6572446"><ele>29.0</ele><time>2015-05-02T10:22:26.0000000+00:00</time></trkpt><trkpt lat="34.9775278" lon="33.6572376"><ele>29.0</ele><time>2015-05-02T10:22:27.0000000+00:00</time></trkpt><trkpt lat="34.9775942" lon="33.6572205"><ele>28.5</ele><time>2015-05-02T10:22:28.0000000+00:00</time></trkpt><trkpt lat="34.9776446" lon="33.6571968"><ele>28.3</ele><time>2015-05-02T10:22:29.0000000+00:00</time></trkpt><trkpt lat="34.9777025" lon="33.6571953"><ele>28.6</ele><time>2015-05-02T10:22:30.0000000+00:00</time></trkpt><trkpt lat="34.9777687" lon="33.6571905"><ele>28.8</ele><time>2015-05-02T10:22:31.0000000+00:00</time></trkpt><trkpt lat="34.9778372" lon="33.6571897"><ele>28.4</ele><time>2015-05-02T10:22:32.0000000+00:00</time></trkpt><trkpt lat="34.9778874" lon="33.6571792"><ele>28.7</ele><time>2015-05-02T10:22:33.0000000+00:00</time></trkpt><trkpt lat="34.9779486" lon="33.6571776"><ele>28.9</ele><time>2015-05-02T10:22:34.0000000+00:00</time></trkpt><trkpt lat="34.9780043" lon="33.6571689"><ele>28.9</ele><time>2015-05-02T10:22:35.0000000+00:00</time></trkpt><trkpt lat="34.9780644" lon="33.6571548"><ele>29.0</ele><time>2015-05-02T10:22:36.0000000+00:00</time></trkpt><trkpt lat="34.9781324" lon="33.6571481"><ele>28.5</ele><time>2015-05-02T10:22:37.0000000+00:00</time></trkpt><trkpt lat="34.9781925" lon="33.657144"><ele>28.8</ele><time>2015-05-02T10:22:38.0000000+00:00</time></trkpt><trkpt lat="34.9782466" lon="33.657126"><ele>28.4</ele><time>2015-05-02T10:22:39.0000000+00:00</time></trkpt><trkpt lat="34.9783145" lon="33.6571115"><ele>28.2</ele><time>2015-05-02T10:22:40.0000000+00:00</time></trkpt><trkpt lat="34.9783812" lon="33.6570996"><ele>28.6</ele><time>2015-05-02T10:22:41.0000000+00:00</time></trkpt><trkpt lat="34.9784485" lon="33.6570898"><ele>28.8</ele><time>2015-05-02T10:22:42.0000000+00:00</time></trkpt><trkpt lat="34.9785115" lon="33.657085"><ele>28.4</ele><time>2015-05-02T10:22:43.0000000+00:00</time></trkpt><trkpt lat="34.9785831" lon="33.6570781"><ele>28.7</ele><time>2015-05-02T10:22:44.0000000+00:00</time></trkpt><trkpt lat="34.9786522" lon="33.6570633"><ele>28.4</ele><time>2015-05-02T10:22:45.0000000+00:00</time></trkpt><trkpt lat="34.9787276" lon="33.6570513"><ele>27.7</ele><time>2015-05-02T10:22:46.0000000+00:00</time></trkpt><trkpt lat="34.9787937" lon="33.6570398"><ele>26.9</ele><time>2015-05-02T10:22:47.0000000+00:00</time></trkpt><trkpt lat="34.978865" lon="33.657018"><ele>26.9</ele><time>2015-05-02T10:22:48.0000000+00:00</time></trkpt><trkpt lat="34.9789195" lon="33.6569937"><ele>27.0</ele><time>2015-05-02T10:22:49.0000000+00:00</time></trkpt><trkpt lat="34.9789845" lon="33.6569632"><ele>27.5</ele><time>2015-05-02T10:22:50.0000000+00:00</time></trkpt><trkpt lat="34.979031" lon="33.6569452"><ele>28.3</ele><time>2015-05-02T10:22:51.0000000+00:00</time></trkpt><trkpt lat="34.9790965" lon="33.6569173"><ele>29.1</ele><time>2015-05-02T10:22:52.0000000+00:00</time></trkpt><trkpt lat="34.9791605" lon="33.6569082"><ele>29.1</ele><time>2015-05-02T10:22:53.0000000+00:00</time></trkpt><trkpt lat="34.9792102" lon="33.6568875"><ele>29.1</ele><time>2015-05-02T10:22:54.0000000+00:00</time></trkpt><trkpt lat="34.9792678" lon="33.6568731"><ele>28.5</ele><time>2015-05-02T10:22:55.0000000+00:00</time></trkpt><trkpt lat="34.9793192" lon="33.6568536"><ele>28.8</ele><time>2015-05-02T10:22:56.0000000+00:00</time></trkpt><trkpt lat="34.9793696" lon="33.6568368"><ele>28.9</ele><time>2015-05-02T10:22:57.0000000+00:00</time></trkpt><trkpt lat="34.9794279" lon="33.6568245"><ele>29.0</ele><time>2015-05-02T10:22:58.0000000+00:00</time></trkpt><trkpt lat="34.9794844" lon="33.6568162"><ele>29.5</ele><time>2015-05-02T10:22:59.0000000+00:00</time></trkpt><trkpt lat="34.9795337" lon="33.656793"><ele>29.8</ele><time>2015-05-02T10:23:00.0000000+00:00</time></trkpt><trkpt lat="34.9796324" lon="33.6567606"><ele>30.0</ele><time>2015-05-02T10:23:02.0000000+00:00</time></trkpt><trkpt lat="34.9796854" lon="33.6567469"><ele>30.0</ele><time>2015-05-02T10:23:03.0000000+00:00</time></trkpt><trkpt lat="34.9797386" lon="33.6567308"><ele>30.0</ele><time>2015-05-02T10:23:04.0000000+00:00</time></trkpt><trkpt lat="34.979793" lon="33.6567185"><ele>30.0</ele><time>2015-05-02T10:23:05.0000000+00:00</time></trkpt><trkpt lat="34.9798493" lon="33.6567164"><ele>30.0</ele><time>2015-05-02T10:23:06.0000000+00:00</time></trkpt><trkpt lat="34.9798995" lon="33.6567175"><ele>29.5</ele><time>2015-05-02T10:23:07.0000000+00:00</time></trkpt><trkpt lat="34.9799539" lon="33.6567155"><ele>30.3</ele><time>2015-05-02T10:23:08.0000000+00:00</time></trkpt><trkpt lat="34.9800036" lon="33.6567088"><ele>30.1</ele><time>2015-05-02T10:23:09.0000000+00:00</time></trkpt><trkpt lat="34.980056" lon="33.656703"><ele>30.6</ele><time>2015-05-02T10:23:10.0000000+00:00</time></trkpt><trkpt lat="34.9801159" lon="33.6566996"><ele>30.8</ele><time>2015-05-02T10:23:11.0000000+00:00</time></trkpt><trkpt lat="34.9801687" lon="33.6566936"><ele>30.9</ele><time>2015-05-02T10:23:12.0000000+00:00</time></trkpt><trkpt lat="34.980223" lon="33.6566894"><ele>30.5</ele><time>2015-05-02T10:23:13.0000000+00:00</time></trkpt><trkpt lat="34.9802828" lon="33.6566851"><ele>30.2</ele><time>2015-05-02T10:23:14.0000000+00:00</time></trkpt><trkpt lat="34.9803274" lon="33.6566675"><ele>30.6</ele><time>2015-05-02T10:23:15.0000000+00:00</time></trkpt><trkpt lat="34.9803889" lon="33.6566687"><ele>30.8</ele><time>2015-05-02T10:23:16.0000000+00:00</time></trkpt><trkpt lat="34.9804475" lon="33.656673"><ele>30.4</ele><time>2015-05-02T10:23:17.0000000+00:00</time></trkpt><trkpt lat="34.9804939" lon="33.6566731"><ele>30.2</ele><time>2015-05-02T10:23:18.0000000+00:00</time></trkpt><trkpt lat="34.9805423" lon="33.6566706"><ele>30.1</ele><time>2015-05-02T10:23:19.0000000+00:00</time></trkpt><trkpt lat="34.9805951" lon="33.6566661"><ele>29.6</ele><time>2015-05-02T10:23:20.0000000+00:00</time></trkpt><trkpt lat="34.9806477" lon="33.6566636"><ele>29.3</ele><time>2015-05-02T10:23:21.0000000+00:00</time></trkpt><trkpt lat="34.980693" lon="33.6566667"><ele>28.7</ele><time>2015-05-02T10:23:22.0000000+00:00</time></trkpt><trkpt lat="34.9807818" lon="33.6566398"><ele>28.7</ele><time>2015-05-02T10:23:24.0000000+00:00</time></trkpt><trkpt lat="34.9808699" lon="33.6566203"><ele>28.9</ele><time>2015-05-02T10:23:26.0000000+00:00</time></trkpt><trkpt lat="34.9809438" lon="33.6565922"><ele>29.5</ele><time>2015-05-02T10:23:28.0000000+00:00</time></trkpt><trkpt lat="34.9810092" lon="33.6565872"><ele>30.1</ele><time>2015-05-02T10:23:30.0000000+00:00</time></trkpt><trkpt lat="34.9810908" lon="33.6565776"><ele>29.3</ele><time>2015-05-02T10:23:32.0000000+00:00</time></trkpt><trkpt lat="34.9811356" lon="33.6565666"><ele>29.7</ele><time>2015-05-02T10:23:33.0000000+00:00</time></trkpt><trkpt lat="34.9811867" lon="33.656571"><ele>29.8</ele><time>2015-05-02T10:23:34.0000000+00:00</time></trkpt><trkpt lat="34.9812362" lon="33.6565488"><ele>30.4</ele><time>2015-05-02T10:23:35.0000000+00:00</time></trkpt><trkpt lat="34.9812875" lon="33.6565336"><ele>30.2</ele><time>2015-05-02T10:23:36.0000000+00:00</time></trkpt><trkpt lat="34.9813446" lon="33.656505"><ele>30.1</ele><time>2015-05-02T10:23:37.0000000+00:00</time></trkpt><trkpt lat="34.9813944" lon="33.6564721"><ele>30.1</ele><time>2015-05-02T10:23:38.0000000+00:00</time></trkpt><trkpt lat="34.9814555" lon="33.6564442"><ele>30.5</ele><time>2015-05-02T10:23:39.0000000+00:00</time></trkpt><trkpt lat="34.981508" lon="33.6564294"><ele>30.8</ele><time>2015-05-02T10:23:40.0000000+00:00</time></trkpt><trkpt lat="34.9815627" lon="33.6564152"><ele>30.9</ele><time>2015-05-02T10:23:41.0000000+00:00</time></trkpt><trkpt lat="34.9816121" lon="33.6563989"><ele>30.5</ele><time>2015-05-02T10:23:42.0000000+00:00</time></trkpt><trkpt lat="34.9816611" lon="33.6563837"><ele>30.7</ele><time>2015-05-02T10:23:43.0000000+00:00</time></trkpt><trkpt lat="34.9817115" lon="33.6563792"><ele>30.9</ele><time>2015-05-02T10:23:44.0000000+00:00</time></trkpt><trkpt lat="34.9817616" lon="33.6563535"><ele>31.0</ele><time>2015-05-02T10:23:45.0000000+00:00</time></trkpt><trkpt lat="34.9818111" lon="33.6563288"><ele>31.5</ele><time>2015-05-02T10:23:46.0000000+00:00</time></trkpt><trkpt lat="34.9819015" lon="33.6562752"><ele>31.9</ele><time>2015-05-02T10:23:48.0000000+00:00</time></trkpt><trkpt lat="34.9819458" lon="33.6562567"><ele>32.0</ele><time>2015-05-02T10:23:49.0000000+00:00</time></trkpt><trkpt lat="34.9820186" lon="33.656212"><ele>32.8</ele><time>2015-05-02T10:23:51.0000000+00:00</time></trkpt><trkpt lat="34.9821073" lon="33.6561559"><ele>33.0</ele><time>2015-05-02T10:23:53.0000000+00:00</time></trkpt><trkpt lat="34.9821511" lon="33.6561368"><ele>33.0</ele><time>2015-05-02T10:23:54.0000000+00:00</time></trkpt><trkpt lat="34.9822332" lon="33.6561104"><ele>32.5</ele><time>2015-05-02T10:23:56.0000000+00:00</time></trkpt><trkpt lat="34.9823096" lon="33.656097"><ele>33.6</ele><time>2015-05-02T10:23:58.0000000+00:00</time></trkpt><trkpt lat="34.9823847" lon="33.6560873"><ele>34.9</ele><time>2015-05-02T10:24:00.0000000+00:00</time></trkpt><trkpt lat="34.9824255" lon="33.6560633"><ele>35.0</ele><time>2015-05-02T10:24:01.0000000+00:00</time></trkpt><trkpt lat="34.9824672" lon="33.6560358"><ele>35.0</ele><time>2015-05-02T10:24:02.0000000+00:00</time></trkpt><trkpt lat="34.9825096" lon="33.6560127"><ele>35.0</ele><time>2015-05-02T10:24:03.0000000+00:00</time></trkpt><trkpt lat="34.9825668" lon="33.6559954"><ele>34.5</ele><time>2015-05-02T10:24:04.0000000+00:00</time></trkpt><trkpt lat="34.9826504" lon="33.6559685"><ele>35.4</ele><time>2015-05-02T10:24:06.0000000+00:00</time></trkpt><trkpt lat="34.9827046" lon="33.6559714"><ele>35.2</ele><time>2015-05-02T10:24:07.0000000+00:00</time></trkpt><trkpt lat="34.98275" lon="33.6559671"><ele>34.6</ele><time>2015-05-02T10:24:08.0000000+00:00</time></trkpt><trkpt lat="34.9828025" lon="33.6559496"><ele>34.3</ele><time>2015-05-02T10:24:09.0000000+00:00</time></trkpt><trkpt lat="34.9828489" lon="33.6559337"><ele>34.2</ele><time>2015-05-02T10:24:10.0000000+00:00</time></trkpt><trkpt lat="34.9828966" lon="33.6559163"><ele>34.1</ele><time>2015-05-02T10:24:11.0000000+00:00</time></trkpt><trkpt lat="34.9829491" lon="33.6558936"><ele>34.1</ele><time>2015-05-02T10:24:12.0000000+00:00</time></trkpt><trkpt lat="34.9829994" lon="33.6558734"><ele>33.5</ele><time>2015-05-02T10:24:13.0000000+00:00</time></trkpt><trkpt lat="34.9830427" lon="33.6558416"><ele>33.3</ele><time>2015-05-02T10:24:14.0000000+00:00</time></trkpt><trkpt lat="34.983079" lon="33.6558032"><ele>33.7</ele><time>2015-05-02T10:24:15.0000000+00:00</time></trkpt><trkpt lat="34.9831183" lon="33.6557669"><ele>33.3</ele><time>2015-05-02T10:24:16.0000000+00:00</time></trkpt><trkpt lat="34.9831795" lon="33.6556992"><ele>33.1</ele><time>2015-05-02T10:24:18.0000000+00:00</time></trkpt><trkpt lat="34.9832128" lon="33.6556602"><ele>33.1</ele><time>2015-05-02T10:24:19.0000000+00:00</time></trkpt><trkpt lat="34.9832524" lon="33.6556189"><ele>33.0</ele><time>2015-05-02T10:24:20.0000000+00:00</time></trkpt><trkpt lat="34.9833109" lon="33.6555406"><ele>33.0</ele><time>2015-05-02T10:24:22.0000000+00:00</time></trkpt><trkpt lat="34.9833446" lon="33.6554843"><ele>33.0</ele><time>2015-05-02T10:24:23.0000000+00:00</time></trkpt><trkpt lat="34.9833723" lon="33.6554378"><ele>33.0</ele><time>2015-05-02T10:24:24.0000000+00:00</time></trkpt><trkpt lat="34.9834101" lon="33.6553872"><ele>33.0</ele><time>2015-05-02T10:24:25.0000000+00:00</time></trkpt><trkpt lat="34.9834417" lon="33.6553418"><ele>33.5</ele><time>2015-05-02T10:24:26.0000000+00:00</time></trkpt><trkpt lat="34.9834785" lon="33.6553065"><ele>34.8</ele><time>2015-05-02T10:24:27.0000000+00:00</time></trkpt><trkpt lat="34.9835113" lon="33.6552595"><ele>35.4</ele><time>2015-05-02T10:24:28.0000000+00:00</time></trkpt><trkpt lat="34.9835431" lon="33.6552107"><ele>35.7</ele><time>2015-05-02T10:24:29.0000000+00:00</time></trkpt><trkpt lat="34.9835734" lon="33.6551612"><ele>35.9</ele><time>2015-05-02T10:24:30.0000000+00:00</time></trkpt><trkpt lat="34.9836043" lon="33.6551148"><ele>35.9</ele><time>2015-05-02T10:24:31.0000000+00:00</time></trkpt><trkpt lat="34.9836526" lon="33.6550364"><ele>36.0</ele><time>2015-05-02T10:24:33.0000000+00:00</time></trkpt><trkpt lat="34.9837173" lon="33.6549672"><ele>36.8</ele><time>2015-05-02T10:24:35.0000000+00:00</time></trkpt><trkpt lat="34.9837573" lon="33.6549331"><ele>36.9</ele><time>2015-05-02T10:24:36.0000000+00:00</time></trkpt><trkpt lat="34.9838104" lon="33.6548528"><ele>37.0</ele><time>2015-05-02T10:24:38.0000000+00:00</time></trkpt><trkpt lat="34.9838373" lon="33.6548062"><ele>37.0</ele><time>2015-05-02T10:24:39.0000000+00:00</time></trkpt><trkpt lat="34.9838982" lon="33.6547157"><ele>36.5</ele><time>2015-05-02T10:24:41.0000000+00:00</time></trkpt><trkpt lat="34.9839458" lon="33.6546695"><ele>37.8</ele><time>2015-05-02T10:24:42.0000000+00:00</time></trkpt><trkpt lat="34.98398" lon="33.6546274"><ele>37.9</ele><time>2015-05-02T10:24:43.0000000+00:00</time></trkpt><trkpt lat="34.9840103" lon="33.6545853"><ele>37.5</ele><time>2015-05-02T10:24:44.0000000+00:00</time></trkpt><trkpt lat="34.9840458" lon="33.6545337"><ele>37.2</ele><time>2015-05-02T10:24:45.0000000+00:00</time></trkpt><trkpt lat="34.9841165" lon="33.6544708"><ele>36.1</ele><time>2015-05-02T10:24:47.0000000+00:00</time></trkpt><trkpt lat="34.9841506" lon="33.6544208"><ele>35.5</ele><time>2015-05-02T10:24:48.0000000+00:00</time></trkpt><trkpt lat="34.9841908" lon="33.654373"><ele>35.3</ele><time>2015-05-02T10:24:49.0000000+00:00</time></trkpt><trkpt lat="34.9842204" lon="33.6543316"><ele>35.2</ele><time>2015-05-02T10:24:50.0000000+00:00</time></trkpt><trkpt lat="34.9842869" lon="33.6542445"><ele>35.1</ele><time>2015-05-02T10:24:52.0000000+00:00</time></trkpt><trkpt lat="34.9843236" lon="33.6542056"><ele>35.5</ele><time>2015-05-02T10:24:53.0000000+00:00</time></trkpt><trkpt lat="34.9843846" lon="33.6541261"><ele>36.2</ele><time>2015-05-02T10:24:55.0000000+00:00</time></trkpt><trkpt lat="34.9844179" lon="33.6540818"><ele>37.1</ele><time>2015-05-02T10:24:56.0000000+00:00</time></trkpt><trkpt lat="34.9844834" lon="33.6540346"><ele>37.0</ele><time>2015-05-02T10:24:58.0000000+00:00</time></trkpt><trkpt lat="34.9845449" lon="33.6539924"><ele>37.3</ele><time>2015-05-02T10:25:00.0000000+00:00</time></trkpt><trkpt lat="34.984608" lon="33.6539258"><ele>37.8</ele><time>2015-05-02T10:25:02.0000000+00:00</time></trkpt><trkpt lat="34.9846455" lon="33.6538936"><ele>37.4</ele><time>2015-05-02T10:25:03.0000000+00:00</time></trkpt><trkpt lat="34.9846832" lon="33.6538597"><ele>37.2</ele><time>2015-05-02T10:25:04.0000000+00:00</time></trkpt><trkpt lat="34.9847543" lon="33.6538072"><ele>37.1</ele><time>2015-05-02T10:25:06.0000000+00:00</time></trkpt><trkpt lat="34.9848217" lon="33.6537561"><ele>36.5</ele><time>2015-05-02T10:25:08.0000000+00:00</time></trkpt><trkpt lat="34.9848876" lon="33.6537038"><ele>35.9</ele><time>2015-05-02T10:25:10.0000000+00:00</time></trkpt><trkpt lat="34.9849487" lon="33.6536558"><ele>35.5</ele><time>2015-05-02T10:25:12.0000000+00:00</time></trkpt><trkpt lat="34.9850109" lon="33.6536115"><ele>35.6</ele><time>2015-05-02T10:25:14.0000000+00:00</time></trkpt><trkpt lat="34.9850694" lon="33.6535591"><ele>36.4</ele><time>2015-05-02T10:25:16.0000000+00:00</time></trkpt><trkpt lat="34.9851347" lon="33.6535058"><ele>37.4</ele><time>2015-05-02T10:25:18.0000000+00:00</time></trkpt><trkpt lat="34.9852042" lon="33.653451"><ele>38.1</ele><time>2015-05-02T10:25:20.0000000+00:00</time></trkpt><trkpt lat="34.9852682" lon="33.653388"><ele>38.0</ele><time>2015-05-02T10:25:22.0000000+00:00</time></trkpt><trkpt lat="34.9853364" lon="33.6533316"><ele>37.5</ele><time>2015-05-02T10:25:24.0000000+00:00</time></trkpt><trkpt lat="34.9854057" lon="33.6532746"><ele>37.1</ele><time>2015-05-02T10:25:26.0000000+00:00</time></trkpt><trkpt lat="34.9854755" lon="33.6532144"><ele>36.3</ele><time>2015-05-02T10:25:28.0000000+00:00</time></trkpt><trkpt lat="34.9855416" lon="33.6531549"><ele>36.1</ele><time>2015-05-02T10:25:30.0000000+00:00</time></trkpt><trkpt lat="34.9856055" lon="33.6530912"><ele>38.3</ele><time>2015-05-02T10:25:32.0000000+00:00</time></trkpt><trkpt lat="34.9856718" lon="33.6530377"><ele>36.8</ele><time>2015-05-02T10:25:34.0000000+00:00</time></trkpt><trkpt lat="34.9857367" lon="33.6529786"><ele>35.0</ele><time>2015-05-02T10:25:36.0000000+00:00</time></trkpt><trkpt lat="34.9857791" lon="33.6528968"><ele>35.5</ele><time>2015-05-02T10:25:38.0000000+00:00</time></trkpt><trkpt lat="34.9858047" lon="33.6528038"><ele>36.4</ele><time>2015-05-02T10:25:40.0000000+00:00</time></trkpt><trkpt lat="34.9858419" lon="33.6527125"><ele>37.9</ele><time>2015-05-02T10:25:42.0000000+00:00</time></trkpt><trkpt lat="34.9858761" lon="33.6526199"><ele>38.0</ele><time>2015-05-02T10:25:44.0000000+00:00</time></trkpt><trkpt lat="34.9859129" lon="33.6525307"><ele>39.3</ele><time>2015-05-02T10:25:46.0000000+00:00</time></trkpt><trkpt lat="34.985949" lon="33.6524478"><ele>40.8</ele><time>2015-05-02T10:25:48.0000000+00:00</time></trkpt><trkpt lat="34.985986" lon="33.6523912"><ele>41.5</ele><time>2015-05-02T10:25:50.0000000+00:00</time></trkpt><trkpt lat="34.9860348" lon="33.6523599"><ele>41.9</ele><time>2015-05-02T10:25:52.0000000+00:00</time></trkpt><trkpt lat="34.9860905" lon="33.652334"><ele>42.0</ele><time>2015-05-02T10:25:54.0000000+00:00</time></trkpt><trkpt lat="34.9861438" lon="33.652303"><ele>42.0</ele><time>2015-05-02T10:25:56.0000000+00:00</time></trkpt><trkpt lat="34.9861979" lon="33.6522731"><ele>42.0</ele><time>2015-05-02T10:25:58.0000000+00:00</time></trkpt><trkpt lat="34.9862484" lon="33.6522409"><ele>41.3</ele><time>2015-05-02T10:26:00.0000000+00:00</time></trkpt><trkpt lat="34.9862979" lon="33.652205"><ele>41.6</ele><time>2015-05-02T10:26:02.0000000+00:00</time></trkpt><trkpt lat="34.986358" lon="33.6521763"><ele>44.2</ele><time>2015-05-02T10:26:04.0000000+00:00</time></trkpt><trkpt lat="34.9864128" lon="33.6521405"><ele>46.1</ele><time>2015-05-02T10:26:06.0000000+00:00</time></trkpt><trkpt lat="34.986468" lon="33.6520999"><ele>45.8</ele><time>2015-05-02T10:26:08.0000000+00:00</time></trkpt><trkpt lat="34.986514" lon="33.6520504"><ele>46.0</ele><time>2015-05-02T10:26:10.0000000+00:00</time></trkpt><trkpt lat="34.9865511" lon="33.6519959"><ele>46.0</ele><time>2015-05-02T10:26:12.0000000+00:00</time></trkpt><trkpt lat="34.9865841" lon="33.6519583"><ele>46.0</ele><time>2015-05-02T10:26:14.0000000+00:00</time></trkpt><trkpt lat="34.9866137" lon="33.6519025"><ele>46.0</ele><time>2015-05-02T10:26:18.0000000+00:00</time></trkpt><trkpt lat="34.9866343" lon="33.6518314"><ele>45.9</ele><time>2015-05-02T10:26:21.0000000+00:00</time></trkpt><trkpt lat="34.9866493" lon="33.6517784"><ele>46.0</ele><time>2015-05-02T10:26:23.0000000+00:00</time></trkpt><trkpt lat="34.98667" lon="33.6517109"><ele>47.0</ele><time>2015-05-02T10:26:25.0000000+00:00</time></trkpt><trkpt lat="34.9866896" lon="33.6516384"><ele>47.5</ele><time>2015-05-02T10:26:27.0000000+00:00</time></trkpt><trkpt lat="34.9867022" lon="33.6515471"><ele>48.1</ele><time>2015-05-02T10:26:29.0000000+00:00</time></trkpt><trkpt lat="34.986711" lon="33.6514631"><ele>49.3</ele><time>2015-05-02T10:26:31.0000000+00:00</time></trkpt><trkpt lat="34.9867149" lon="33.6513858"><ele>49.8</ele><time>2015-05-02T10:26:33.0000000+00:00</time></trkpt><trkpt lat="34.9867126" lon="33.651307"><ele>49.0</ele><time>2015-05-02T10:26:35.0000000+00:00</time></trkpt><trkpt lat="34.9867113" lon="33.6512274"><ele>49.0</ele><time>2015-05-02T10:26:37.0000000+00:00</time></trkpt><trkpt lat="34.9867119" lon="33.651149"><ele>48.5</ele><time>2015-05-02T10:26:39.0000000+00:00</time></trkpt><trkpt lat="34.9867083" lon="33.6510723"><ele>49.1</ele><time>2015-05-02T10:26:41.0000000+00:00</time></trkpt><trkpt lat="34.9867013" lon="33.6510053"><ele>50.6</ele><time>2015-05-02T10:26:43.0000000+00:00</time></trkpt><trkpt lat="34.9866937" lon="33.650939"><ele>51.4</ele><time>2015-05-02T10:26:45.0000000+00:00</time></trkpt><trkpt lat="34.9866874" lon="33.6508766"><ele>51.9</ele><time>2015-05-02T10:26:47.0000000+00:00</time></trkpt><trkpt lat="34.986678" lon="33.6508148"><ele>52.0</ele><time>2015-05-02T10:26:49.0000000+00:00</time></trkpt><trkpt lat="34.9866694" lon="33.6507594"><ele>53.0</ele><time>2015-05-02T10:26:51.0000000+00:00</time></trkpt><trkpt lat="34.9866609" lon="33.6507009"><ele>55.3</ele><time>2015-05-02T10:26:53.0000000+00:00</time></trkpt><trkpt lat="34.9866445" lon="33.6506256"><ele>58.3</ele><time>2015-05-02T10:26:56.0000000+00:00</time></trkpt><trkpt lat="34.9866224" lon="33.6505728"><ele>58.5</ele><time>2015-05-02T10:27:00.0000000+00:00</time></trkpt><trkpt lat="34.9865704" lon="33.6505538"><ele>57.8</ele><time>2015-05-02T10:27:06.0000000+00:00</time></trkpt><trkpt lat="34.9865189" lon="33.6505666"><ele>56.7</ele><time>2015-05-02T10:27:09.0000000+00:00</time></trkpt><trkpt lat="34.9864642" lon="33.6505742"><ele>58.1</ele><time>2015-05-02T10:27:12.0000000+00:00</time></trkpt><trkpt lat="34.9864183" lon="33.6505887"><ele>58.2</ele><time>2015-05-02T10:27:15.0000000+00:00</time></trkpt><trkpt lat="34.9863736" lon="33.6505787"><ele>57.7</ele><time>2015-05-02T10:27:18.0000000+00:00</time></trkpt><trkpt lat="34.9863527" lon="33.6504997"><ele>57.5</ele><time>2015-05-02T10:27:21.0000000+00:00</time></trkpt><trkpt lat="34.9863578" lon="33.6504354"><ele>56.6</ele><time>2015-05-02T10:27:23.0000000+00:00</time></trkpt><trkpt lat="34.9863609" lon="33.6503776"><ele>56.7</ele><time>2015-05-02T10:27:25.0000000+00:00</time></trkpt><trkpt lat="34.986364" lon="33.6503055"><ele>57.9</ele><time>2015-05-02T10:27:28.0000000+00:00</time></trkpt><trkpt lat="34.9863781" lon="33.6502315"><ele>59.0</ele><time>2015-05-02T10:27:31.0000000+00:00</time></trkpt><trkpt lat="34.9863872" lon="33.650176"><ele>59.3</ele><time>2015-05-02T10:27:33.0000000+00:00</time></trkpt><trkpt lat="34.9863506" lon="33.6501151"><ele>59.4</ele><time>2015-05-02T10:27:36.0000000+00:00</time></trkpt><trkpt lat="34.9862942" lon="33.6501068"><ele>59.8</ele><time>2015-05-02T10:27:39.0000000+00:00</time></trkpt><trkpt lat="34.9862437" lon="33.6501216"><ele>60.9</ele><time>2015-05-02T10:27:42.0000000+00:00</time></trkpt><trkpt lat="34.9861952" lon="33.650128"><ele>61.8</ele><time>2015-05-02T10:27:45.0000000+00:00</time></trkpt><trkpt lat="34.9861517" lon="33.6501133"><ele>61.7</ele><time>2015-05-02T10:27:48.0000000+00:00</time></trkpt><trkpt lat="34.9861015" lon="33.6501076"><ele>63.4</ele><time>2015-05-02T10:27:52.0000000+00:00</time></trkpt><trkpt lat="34.9860576" lon="33.6500845"><ele>63.3</ele><time>2015-05-02T10:27:56.0000000+00:00</time></trkpt><trkpt lat="34.986013" lon="33.6500684"><ele>63.4</ele><time>2015-05-02T10:28:00.0000000+00:00</time></trkpt><trkpt lat="34.9859595" lon="33.6500497"><ele>62.2</ele><time>2015-05-02T10:28:05.0000000+00:00</time></trkpt><trkpt lat="34.9859146" lon="33.6500309"><ele>62.6</ele><time>2015-05-02T10:28:09.0000000+00:00</time></trkpt><trkpt lat="34.9858674" lon="33.6500326"><ele>63.7</ele><time>2015-05-02T10:28:13.0000000+00:00</time></trkpt><trkpt lat="34.9858227" lon="33.6500215"><ele>64.0</ele><time>2015-05-02T10:28:17.0000000+00:00</time></trkpt><trkpt lat="34.9857697" lon="33.650007"><ele>64.0</ele><time>2015-05-02T10:28:21.0000000+00:00</time></trkpt><trkpt lat="34.9857204" lon="33.6499803"><ele>65.0</ele><time>2015-05-02T10:28:25.0000000+00:00</time></trkpt><trkpt lat="34.985681" lon="33.6499536"><ele>64.1</ele><time>2015-05-02T10:28:28.0000000+00:00</time></trkpt><trkpt lat="34.9856406" lon="33.6499228"><ele>63.2</ele><time>2015-05-02T10:28:31.0000000+00:00</time></trkpt><trkpt lat="34.9855948" lon="33.6499002"><ele>64.7</ele><time>2015-05-02T10:28:34.0000000+00:00</time></trkpt><trkpt lat="34.9855397" lon="33.6498837"><ele>66.6</ele><time>2015-05-02T10:28:38.0000000+00:00</time></trkpt><trkpt lat="34.985489" lon="33.6498808"><ele>67.6</ele><time>2015-05-02T10:28:42.0000000+00:00</time></trkpt><trkpt lat="34.9854386" lon="33.6498604"><ele>67.1</ele><time>2015-05-02T10:28:46.0000000+00:00</time></trkpt><trkpt lat="34.9853835" lon="33.6498615"><ele>69.4</ele><time>2015-05-02T10:28:50.0000000+00:00</time></trkpt><trkpt lat="34.9853263" lon="33.6498518"><ele>70.7</ele><time>2015-05-02T10:28:54.0000000+00:00</time></trkpt><trkpt lat="34.9852694" lon="33.6498371"><ele>72.9</ele><time>2015-05-02T10:28:58.0000000+00:00</time></trkpt><trkpt lat="34.9852143" lon="33.6498206"><ele>72.8</ele><time>2015-05-02T10:29:02.0000000+00:00</time></trkpt><trkpt lat="34.9851612" lon="33.6497956"><ele>74.3</ele><time>2015-05-02T10:29:06.0000000+00:00</time></trkpt><trkpt lat="34.9851163" lon="33.6497543"><ele>73.7</ele><time>2015-05-02T10:29:10.0000000+00:00</time></trkpt><trkpt lat="34.985075" lon="33.6497192"><ele>74.5</ele><time>2015-05-02T10:29:13.0000000+00:00</time></trkpt><trkpt lat="34.9850318" lon="33.6496906"><ele>73.8</ele><time>2015-05-02T10:29:16.0000000+00:00</time></trkpt><trkpt lat="34.9849928" lon="33.649659"><ele>75.2</ele><time>2015-05-02T10:29:19.0000000+00:00</time></trkpt><trkpt lat="34.9849491" lon="33.649619"><ele>76.7</ele><time>2015-05-02T10:29:22.0000000+00:00</time></trkpt><trkpt lat="34.9849083" lon="33.6495732"><ele>76.5</ele><time>2015-05-02T10:29:25.0000000+00:00</time></trkpt><trkpt lat="34.9848662" lon="33.6495297"><ele>76.6</ele><time>2015-05-02T10:29:28.0000000+00:00</time></trkpt><trkpt lat="34.9848142" lon="33.6495"><ele>77.6</ele><time>2015-05-02T10:29:31.0000000+00:00</time></trkpt><trkpt lat="34.9847616" lon="33.6494772"><ele>77.5</ele><time>2015-05-02T10:29:34.0000000+00:00</time></trkpt><trkpt lat="34.9847061" lon="33.6494717"><ele>80.6</ele><time>2015-05-02T10:29:37.0000000+00:00</time></trkpt><trkpt lat="34.9846489" lon="33.6494726"><ele>81.3</ele><time>2015-05-02T10:29:40.0000000+00:00</time></trkpt><trkpt lat="34.9846018" lon="33.6494622"><ele>80.9</ele><time>2015-05-02T10:29:43.0000000+00:00</time></trkpt><trkpt lat="34.9845554" lon="33.6494443"><ele>82.6</ele><time>2015-05-02T10:29:46.0000000+00:00</time></trkpt><trkpt lat="34.9845105" lon="33.6494179"><ele>83.7</ele><time>2015-05-02T10:29:49.0000000+00:00</time></trkpt><trkpt lat="34.9844713" lon="33.6493833"><ele>83.5</ele><time>2015-05-02T10:29:52.0000000+00:00</time></trkpt><trkpt lat="34.9844293" lon="33.6493292"><ele>83.4</ele><time>2015-05-02T10:29:56.0000000+00:00</time></trkpt><trkpt lat="34.9844108" lon="33.6492685"><ele>82.6</ele><time>2015-05-02T10:29:59.0000000+00:00</time></trkpt><trkpt lat="34.9843991" lon="33.6491999"><ele>82.1</ele><time>2015-05-02T10:30:02.0000000+00:00</time></trkpt><trkpt lat="34.98439" lon="33.6491339"><ele>84.2</ele><time>2015-05-02T10:30:05.0000000+00:00</time></trkpt><trkpt lat="34.9843638" lon="33.6490769"><ele>84.0</ele><time>2015-05-02T10:30:09.0000000+00:00</time></trkpt><trkpt lat="34.9843449" lon="33.6490062"><ele>84.3</ele><time>2015-05-02T10:30:13.0000000+00:00</time></trkpt><trkpt lat="34.9843242" lon="33.6489518"><ele>84.9</ele><time>2015-05-02T10:30:16.0000000+00:00</time></trkpt><trkpt lat="34.9842931" lon="33.6489"><ele>86.3</ele><time>2015-05-02T10:30:19.0000000+00:00</time></trkpt><trkpt lat="34.9842579" lon="33.6488459"><ele>87.4</ele><time>2015-05-02T10:30:22.0000000+00:00</time></trkpt><trkpt lat="34.9842225" lon="33.6487903"><ele>88.7</ele><time>2015-05-02T10:30:25.0000000+00:00</time></trkpt><trkpt lat="34.9841904" lon="33.6487317"><ele>90.1</ele><time>2015-05-02T10:30:28.0000000+00:00</time></trkpt><trkpt lat="34.9841594" lon="33.6486713"><ele>91.8</ele><time>2015-05-02T10:30:31.0000000+00:00</time></trkpt><trkpt lat="34.9841166" lon="33.6486152"><ele>94.6</ele><time>2015-05-02T10:30:34.0000000+00:00</time></trkpt><trkpt lat="34.984077" lon="33.6485642"><ele>94.6</ele><time>2015-05-02T10:30:37.0000000+00:00</time></trkpt><trkpt lat="34.9840353" lon="33.6485243"><ele>93.3</ele><time>2015-05-02T10:30:40.0000000+00:00</time></trkpt><trkpt lat="34.9839865" lon="33.6484965"><ele>92.9</ele><time>2015-05-02T10:30:43.0000000+00:00</time></trkpt><trkpt lat="34.9839328" lon="33.6484742"><ele>95.3</ele><time>2015-05-02T10:30:46.0000000+00:00</time></trkpt><trkpt lat="34.9838776" lon="33.6484494"><ele>95.3</ele><time>2015-05-02T10:30:49.0000000+00:00</time></trkpt><trkpt lat="34.9838226" lon="33.6484202"><ele>95.6</ele><time>2015-05-02T10:30:52.0000000+00:00</time></trkpt><trkpt lat="34.9837601" lon="33.6483972"><ele>96.0</ele><time>2015-05-02T10:30:55.0000000+00:00</time></trkpt><trkpt lat="34.9837003" lon="33.6483702"><ele>97.3</ele><time>2015-05-02T10:30:58.0000000+00:00</time></trkpt><trkpt lat="34.9836457" lon="33.6483453"><ele>97.7</ele><time>2015-05-02T10:31:01.0000000+00:00</time></trkpt><trkpt lat="34.9835866" lon="33.648314"><ele>98.0</ele><time>2015-05-02T10:31:04.0000000+00:00</time></trkpt><trkpt lat="34.983532" lon="33.6482808"><ele>98.5</ele><time>2015-05-02T10:31:07.0000000+00:00</time></trkpt><trkpt lat="34.9834788" lon="33.6482403"><ele>99.0</ele><time>2015-05-02T10:31:10.0000000+00:00</time></trkpt><trkpt lat="34.9834291" lon="33.6481922"><ele>98.1</ele><time>2015-05-02T10:31:13.0000000+00:00</time></trkpt><trkpt lat="34.9833788" lon="33.6481441"><ele>98.0</ele><time>2015-05-02T10:31:16.0000000+00:00</time></trkpt><trkpt lat="34.9833367" lon="33.6480875"><ele>98.0</ele><time>2015-05-02T10:31:19.0000000+00:00</time></trkpt><trkpt lat="34.983297" lon="33.6480239"><ele>98.0</ele><time>2015-05-02T10:31:22.0000000+00:00</time></trkpt><trkpt lat="34.9832528" lon="33.64797"><ele>98.9</ele><time>2015-05-02T10:31:25.0000000+00:00</time></trkpt><trkpt lat="34.9832077" lon="33.6479271"><ele>97.9</ele><time>2015-05-02T10:31:28.0000000+00:00</time></trkpt><trkpt lat="34.983156" lon="33.6479049"><ele>96.8</ele><time>2015-05-02T10:31:31.0000000+00:00</time></trkpt><trkpt lat="34.9831109" lon="33.6478841"><ele>97.1</ele><time>2015-05-02T10:31:34.0000000+00:00</time></trkpt><trkpt lat="34.9830634" lon="33.6478829"><ele>98.5</ele><time>2015-05-02T10:31:40.0000000+00:00</time></trkpt><trkpt lat="34.9830091" lon="33.6478793"><ele>98.4</ele><time>2015-05-02T10:31:45.0000000+00:00</time></trkpt><trkpt lat="34.9829631" lon="33.6478716"><ele>98.2</ele><time>2015-05-02T10:31:48.0000000+00:00</time></trkpt><trkpt lat="34.9829149" lon="33.6478542"><ele>98.0</ele><time>2015-05-02T10:31:51.0000000+00:00</time></trkpt><trkpt lat="34.9828604" lon="33.6478497"><ele>97.3</ele><time>2015-05-02T10:31:54.0000000+00:00</time></trkpt><trkpt lat="34.9828061" lon="33.6478526"><ele>95.2</ele><time>2015-05-02T10:31:57.0000000+00:00</time></trkpt><trkpt lat="34.9827525" lon="33.6478473"><ele>94.5</ele><time>2015-05-02T10:32:00.0000000+00:00</time></trkpt><trkpt lat="34.9826951" lon="33.6478409"><ele>96.5</ele><time>2015-05-02T10:32:03.0000000+00:00</time></trkpt><trkpt lat="34.9826372" lon="33.6478441"><ele>98.7</ele><time>2015-05-02T10:32:06.0000000+00:00</time></trkpt><trkpt lat="34.9825815" lon="33.6478379"><ele>100.4</ele><time>2015-05-02T10:32:09.0000000+00:00</time></trkpt><trkpt lat="34.9825261" lon="33.6478357"><ele>101.4</ele><time>2015-05-02T10:32:12.0000000+00:00</time></trkpt><trkpt lat="34.9824723" lon="33.6478556"><ele>102.3</ele><time>2015-05-02T10:32:16.0000000+00:00</time></trkpt><trkpt lat="34.9824264" lon="33.6478847"><ele>104.0</ele><time>2015-05-02T10:32:20.0000000+00:00</time></trkpt><trkpt lat="34.982371" lon="33.647914"><ele>104.1</ele><time>2015-05-02T10:32:24.0000000+00:00</time></trkpt><trkpt lat="34.9823242" lon="33.6479214"><ele>105.2</ele><time>2015-05-02T10:32:27.0000000+00:00</time></trkpt><trkpt lat="34.9822743" lon="33.6479041"><ele>109.0</ele><time>2015-05-02T10:32:30.0000000+00:00</time></trkpt><trkpt lat="34.9822254" lon="33.6478862"><ele>109.1</ele><time>2015-05-02T10:32:33.0000000+00:00</time></trkpt><trkpt lat="34.9821771" lon="33.6478736"><ele>107.9</ele><time>2015-05-02T10:32:36.0000000+00:00</time></trkpt><trkpt lat="34.9821204" lon="33.6478599"><ele>107.0</ele><time>2015-05-02T10:32:39.0000000+00:00</time></trkpt><trkpt lat="34.9820613" lon="33.6478414"><ele>108.0</ele><time>2015-05-02T10:32:42.0000000+00:00</time></trkpt><trkpt lat="34.9820076" lon="33.6478149"><ele>107.6</ele><time>2015-05-02T10:32:45.0000000+00:00</time></trkpt><trkpt lat="34.9819467" lon="33.6477896"><ele>108.0</ele><time>2015-05-02T10:32:48.0000000+00:00</time></trkpt><trkpt lat="34.981901" lon="33.6477732"><ele>108.0</ele><time>2015-05-02T10:32:50.0000000+00:00</time></trkpt><trkpt lat="34.9818561" lon="33.6477553"><ele>109.3</ele><time>2015-05-02T10:32:52.0000000+00:00</time></trkpt><trkpt lat="34.9818113" lon="33.6477382"><ele>109.8</ele><time>2015-05-02T10:32:54.0000000+00:00</time></trkpt><trkpt lat="34.9817626" lon="33.6477168"><ele>110.0</ele><time>2015-05-02T10:32:56.0000000+00:00</time></trkpt><trkpt lat="34.9817171" lon="33.6476951"><ele>110.0</ele><time>2015-05-02T10:32:58.0000000+00:00</time></trkpt><trkpt lat="34.9816564" lon="33.6476643"><ele>110.1</ele><time>2015-05-02T10:33:01.0000000+00:00</time></trkpt><trkpt lat="34.9816122" lon="33.64764"><ele>109.8</ele><time>2015-05-02T10:33:03.0000000+00:00</time></trkpt><trkpt lat="34.981562" lon="33.6476088"><ele>110.0</ele><time>2015-05-02T10:33:05.0000000+00:00</time></trkpt><trkpt lat="34.9815085" lon="33.6475701"><ele>110.3</ele><time>2015-05-02T10:33:07.0000000+00:00</time></trkpt><trkpt lat="34.9814612" lon="33.6475247"><ele>111.6</ele><time>2015-05-02T10:33:09.0000000+00:00</time></trkpt><trkpt lat="34.981424" lon="33.6474837"><ele>111.2</ele><time>2015-05-02T10:33:11.0000000+00:00</time></trkpt><trkpt lat="34.9813721" lon="33.6474424"><ele>111.8</ele><time>2015-05-02T10:33:14.0000000+00:00</time></trkpt><trkpt lat="34.9813268" lon="33.6473968"><ele>112.5</ele><time>2015-05-02T10:33:17.0000000+00:00</time></trkpt><trkpt lat="34.9812809" lon="33.6473507"><ele>112.8</ele><time>2015-05-02T10:33:20.0000000+00:00</time></trkpt><trkpt lat="34.9812662" lon="33.6472913"><ele>112.7</ele><time>2015-05-02T10:33:23.0000000+00:00</time></trkpt><trkpt lat="34.9812745" lon="33.6472362"><ele>113.4</ele><time>2015-05-02T10:33:26.0000000+00:00</time></trkpt><trkpt lat="34.9812937" lon="33.647185"><ele>113.1</ele><time>2015-05-02T10:33:29.0000000+00:00</time></trkpt><trkpt lat="34.9813406" lon="33.6471853"><ele>113.0</ele><time>2015-05-02T10:33:32.0000000+00:00</time></trkpt><trkpt lat="34.9813766" lon="33.6472196"><ele>113.0</ele><time>2015-05-02T10:33:34.0000000+00:00</time></trkpt><trkpt lat="34.9814209" lon="33.6472531"><ele>113.5</ele><time>2015-05-02T10:33:36.0000000+00:00</time></trkpt><trkpt lat="34.9814683" lon="33.6472918"><ele>113.9</ele><time>2015-05-02T10:33:38.0000000+00:00</time></trkpt><trkpt lat="34.9815161" lon="33.6473263"><ele>113.5</ele><time>2015-05-02T10:33:40.0000000+00:00</time></trkpt><trkpt lat="34.9815658" lon="33.6473534"><ele>113.1</ele><time>2015-05-02T10:33:42.0000000+00:00</time></trkpt><trkpt lat="34.9816068" lon="33.6473837"><ele>113.8</ele><time>2015-05-02T10:33:44.0000000+00:00</time></trkpt><trkpt lat="34.981648" lon="33.6474184"><ele>113.7</ele><time>2015-05-02T10:33:46.0000000+00:00</time></trkpt><trkpt lat="34.9816937" lon="33.6474464"><ele>113.9</ele><time>2015-05-02T10:33:48.0000000+00:00</time></trkpt><trkpt lat="34.9817414" lon="33.6474674"><ele>114.5</ele><time>2015-05-02T10:33:50.0000000+00:00</time></trkpt><trkpt lat="34.9817907" lon="33.6474848"><ele>115.4</ele><time>2015-05-02T10:33:52.0000000+00:00</time></trkpt><trkpt lat="34.9818394" lon="33.6474956"><ele>116.6</ele><time>2015-05-02T10:33:54.0000000+00:00</time></trkpt><trkpt lat="34.9818862" lon="33.6475046"><ele>116.9</ele><time>2015-05-02T10:33:56.0000000+00:00</time></trkpt><trkpt lat="34.9819343" lon="33.6475156"><ele>116.0</ele><time>2015-05-02T10:33:58.0000000+00:00</time></trkpt><trkpt lat="34.9819856" lon="33.6475147"><ele>116.8</ele><time>2015-05-02T10:34:00.0000000+00:00</time></trkpt><trkpt lat="34.9820474" lon="33.6475077"><ele>117.0</ele><time>2015-05-02T10:34:02.0000000+00:00</time></trkpt><trkpt lat="34.982107" lon="33.647507"><ele>115.8</ele><time>2015-05-02T10:34:04.0000000+00:00</time></trkpt><trkpt lat="34.9821644" lon="33.6475087"><ele>115.2</ele><time>2015-05-02T10:34:06.0000000+00:00</time></trkpt><trkpt lat="34.9822207" lon="33.647509"><ele>115.8</ele><time>2015-05-02T10:34:08.0000000+00:00</time></trkpt><trkpt lat="34.9822782" lon="33.6475042"><ele>116.5</ele><time>2015-05-02T10:34:10.0000000+00:00</time></trkpt><trkpt lat="34.9823384" lon="33.6474962"><ele>116.1</ele><time>2015-05-02T10:34:12.0000000+00:00</time></trkpt><trkpt lat="34.9824002" lon="33.6474908"><ele>115.5</ele><time>2015-05-02T10:34:14.0000000+00:00</time></trkpt><trkpt lat="34.9824661" lon="33.6474819"><ele>115.9</ele><time>2015-05-02T10:34:16.0000000+00:00</time></trkpt><trkpt lat="34.9825314" lon="33.6474742"><ele>116.5</ele><time>2015-05-02T10:34:18.0000000+00:00</time></trkpt><trkpt lat="34.9825981" lon="33.6474681"><ele>117.6</ele><time>2015-05-02T10:34:20.0000000+00:00</time></trkpt><trkpt lat="34.9826651" lon="33.647458"><ele>117.9</ele><time>2015-05-02T10:34:22.0000000+00:00</time></trkpt><trkpt lat="34.98273" lon="33.6474375"><ele>118.0</ele><time>2015-05-02T10:34:24.0000000+00:00</time></trkpt><trkpt lat="34.9827934" lon="33.6474111"><ele>117.5</ele><time>2015-05-02T10:34:26.0000000+00:00</time></trkpt><trkpt lat="34.9828599" lon="33.6473911"><ele>116.4</ele><time>2015-05-02T10:34:28.0000000+00:00</time></trkpt><trkpt lat="34.9829306" lon="33.6473878"><ele>116.6</ele><time>2015-05-02T10:34:30.0000000+00:00</time></trkpt><trkpt lat="34.983001" lon="33.6473875"><ele>117.4</ele><time>2015-05-02T10:34:32.0000000+00:00</time></trkpt><trkpt lat="34.9830697" lon="33.647391"><ele>119.1</ele><time>2015-05-02T10:34:34.0000000+00:00</time></trkpt><trkpt lat="34.983138" lon="33.6474047"><ele>119.0</ele><time>2015-05-02T10:34:36.0000000+00:00</time></trkpt><trkpt lat="34.9832069" lon="33.6474259"><ele>119.5</ele><time>2015-05-02T10:34:38.0000000+00:00</time></trkpt><trkpt lat="34.9832764" lon="33.6474402"><ele>119.1</ele><time>2015-05-02T10:34:40.0000000+00:00</time></trkpt><trkpt lat="34.9833441" lon="33.6474607"><ele>119.6</ele><time>2015-05-02T10:34:42.0000000+00:00</time></trkpt><trkpt lat="34.9834108" lon="33.6474851"><ele>120.2</ele><time>2015-05-02T10:34:44.0000000+00:00</time></trkpt><trkpt lat="34.9835129" lon="33.6475203"><ele>120.1</ele><time>2015-05-02T10:34:46.0000000+00:00</time></trkpt><trkpt lat="34.9835969" lon="33.6475581"><ele>120.3</ele><time>2015-05-02T10:34:48.0000000+00:00</time></trkpt><trkpt lat="34.9836746" lon="33.6475855"><ele>119.3</ele><time>2015-05-02T10:34:50.0000000+00:00</time></trkpt><trkpt lat="34.9837339" lon="33.6476212"><ele>119.6</ele><time>2015-05-02T10:34:52.0000000+00:00</time></trkpt><trkpt lat="34.9837943" lon="33.6476507"><ele>120.7</ele><time>2015-05-02T10:34:54.0000000+00:00</time></trkpt><trkpt lat="34.9838582" lon="33.6476876"><ele>120.9</ele><time>2015-05-02T10:34:56.0000000+00:00</time></trkpt><trkpt lat="34.9839269" lon="33.6477266"><ele>119.7</ele><time>2015-05-02T10:34:58.0000000+00:00</time></trkpt><trkpt lat="34.9839912" lon="33.6477691"><ele>119.2</ele><time>2015-05-02T10:35:00.0000000+00:00</time></trkpt><trkpt lat="34.9840555" lon="33.6478054"><ele>119.6</ele><time>2015-05-02T10:35:02.0000000+00:00</time></trkpt><trkpt lat="34.9841254" lon="33.6478273"><ele>119.9</ele><time>2015-05-02T10:35:04.0000000+00:00</time></trkpt><trkpt lat="34.9842029" lon="33.6478405"><ele>120.2</ele><time>2015-05-02T10:35:06.0000000+00:00</time></trkpt><trkpt lat="34.984282" lon="33.6478481"><ele>120.8</ele><time>2015-05-02T10:35:08.0000000+00:00</time></trkpt><trkpt lat="34.9843596" lon="33.6478524"><ele>121.5</ele><time>2015-05-02T10:35:10.0000000+00:00</time></trkpt><trkpt lat="34.9844313" lon="33.6478655"><ele>122.6</ele><time>2015-05-02T10:35:12.0000000+00:00</time></trkpt><trkpt lat="34.9844984" lon="33.6478782"><ele>124.2</ele><time>2015-05-02T10:35:14.0000000+00:00</time></trkpt><trkpt lat="34.9845657" lon="33.6478898"><ele>124.3</ele><time>2015-05-02T10:35:16.0000000+00:00</time></trkpt><trkpt lat="34.984629" lon="33.6479029"><ele>124.1</ele><time>2015-05-02T10:35:18.0000000+00:00</time></trkpt><trkpt lat="34.9846909" lon="33.6479119"><ele>124.0</ele><time>2015-05-02T10:35:20.0000000+00:00</time></trkpt><trkpt lat="34.9847441" lon="33.6479152"><ele>124.6</ele><time>2015-05-02T10:35:23.0000000+00:00</time></trkpt><trkpt lat="34.9847955" lon="33.6479281"><ele>123.4</ele><time>2015-05-02T10:35:27.0000000+00:00</time></trkpt><trkpt lat="34.9848406" lon="33.6479307"><ele>122.9</ele><time>2015-05-02T10:35:30.0000000+00:00</time></trkpt><trkpt lat="34.9848893" lon="33.6479344"><ele>122.5</ele><time>2015-05-02T10:35:33.0000000+00:00</time></trkpt><trkpt lat="34.98494" lon="33.6479284"><ele>123.7</ele><time>2015-05-02T10:35:36.0000000+00:00</time></trkpt><trkpt lat="34.9849921" lon="33.6479265"><ele>124.7</ele><time>2015-05-02T10:35:39.0000000+00:00</time></trkpt><trkpt lat="34.9850458" lon="33.6479095"><ele>124.5</ele><time>2015-05-02T10:35:42.0000000+00:00</time></trkpt><trkpt lat="34.9850973" lon="33.6478986"><ele>125.0</ele><time>2015-05-02T10:35:45.0000000+00:00</time></trkpt><trkpt lat="34.9851412" lon="33.6478817"><ele>125.8</ele><time>2015-05-02T10:35:48.0000000+00:00</time></trkpt><trkpt lat="34.9851834" lon="33.6478471"><ele>125.9</ele><time>2015-05-02T10:35:52.0000000+00:00</time></trkpt><trkpt lat="34.9852084" lon="33.647793"><ele>125.3</ele><time>2015-05-02T10:35:56.0000000+00:00</time></trkpt><trkpt lat="34.9851912" lon="33.6477417"><ele>125.2</ele><time>2015-05-02T10:36:03.0000000+00:00</time></trkpt><trkpt lat="34.9852006" lon="33.6477963"><ele>128.9</ele><time>2015-05-02T10:37:35.0000000+00:00</time></trkpt><trkpt lat="34.9851853" lon="33.6478709"><ele>129.0</ele><time>2015-05-02T10:37:38.0000000+00:00</time></trkpt><trkpt lat="34.9851765" lon="33.6479353"><ele>129.0</ele><time>2015-05-02T10:37:41.0000000+00:00</time></trkpt><trkpt lat="34.9851904" lon="33.6479885"><ele>129.4</ele><time>2015-05-02T10:37:44.0000000+00:00</time></trkpt><trkpt lat="34.9852382" lon="33.6480237"><ele>129.9</ele><time>2015-05-02T10:37:48.0000000+00:00</time></trkpt><trkpt lat="34.985279" lon="33.648067"><ele>128.6</ele><time>2015-05-02T10:37:52.0000000+00:00</time></trkpt><trkpt lat="34.9852964" lon="33.6481482"><ele>127.8</ele><time>2015-05-02T10:37:55.0000000+00:00</time></trkpt><trkpt lat="34.9852972" lon="33.6482526"><ele>128.7</ele><time>2015-05-02T10:37:57.0000000+00:00</time></trkpt><trkpt lat="34.9852817" lon="33.6483558"><ele>128.4</ele><time>2015-05-02T10:37:59.0000000+00:00</time></trkpt><trkpt lat="34.985265" lon="33.6484586"><ele>128.1</ele><time>2015-05-02T10:38:01.0000000+00:00</time></trkpt><trkpt lat="34.9852574" lon="33.6485508"><ele>127.3</ele><time>2015-05-02T10:38:03.0000000+00:00</time></trkpt><trkpt lat="34.985253" lon="33.6486341"><ele>127.6</ele><time>2015-05-02T10:38:05.0000000+00:00</time></trkpt><trkpt lat="34.9852462" lon="33.6486902"><ele>127.9</ele><time>2015-05-02T10:38:07.0000000+00:00</time></trkpt><trkpt lat="34.9852503" lon="33.648624"><ele>128.0</ele><time>2015-05-02T10:39:40.0000000+00:00</time></trkpt><trkpt lat="34.9852484" lon="33.648564"><ele>128.9</ele><time>2015-05-02T10:39:43.0000000+00:00</time></trkpt><trkpt lat="34.9852492" lon="33.6484938"><ele>128.3</ele><time>2015-05-02T10:39:46.0000000+00:00</time></trkpt><trkpt lat="34.9852571" lon="33.6484134"><ele>127.2</ele><time>2015-05-02T10:39:49.0000000+00:00</time></trkpt><trkpt lat="34.9852761" lon="33.648357"><ele>127.1</ele><time>2015-05-02T10:39:51.0000000+00:00</time></trkpt><trkpt lat="34.9853081" lon="33.6483117"><ele>127.0</ele><time>2015-05-02T10:39:53.0000000+00:00</time></trkpt><trkpt lat="34.9853584" lon="33.6483182"><ele>127.6</ele><time>2015-05-02T10:39:56.0000000+00:00</time></trkpt><trkpt lat="34.9853806" lon="33.6483806"><ele>127.2</ele><time>2015-05-02T10:39:59.0000000+00:00</time></trkpt><trkpt lat="34.9854239" lon="33.6484078"><ele>128.2</ele><time>2015-05-02T10:40:02.0000000+00:00</time></trkpt><trkpt lat="34.9854654" lon="33.6483864"><ele>127.3</ele><time>2015-05-02T10:40:05.0000000+00:00</time></trkpt><trkpt lat="34.9855029" lon="33.6483184"><ele>127.8</ele><time>2015-05-02T10:40:08.0000000+00:00</time></trkpt><trkpt lat="34.9855376" lon="33.6482668"><ele>127.7</ele><time>2015-05-02T10:40:10.0000000+00:00</time></trkpt><trkpt lat="34.9855798" lon="33.6482153"><ele>126.7</ele><time>2015-05-02T10:40:12.0000000+00:00</time></trkpt><trkpt lat="34.9856188" lon="33.648164"><ele>126.9</ele><time>2015-05-02T10:40:14.0000000+00:00</time></trkpt><trkpt lat="34.9856491" lon="33.6481132"><ele>127.0</ele><time>2015-05-02T10:40:16.0000000+00:00</time></trkpt><trkpt lat="34.9856827" lon="33.6480458"><ele>128.1</ele><time>2015-05-02T10:40:19.0000000+00:00</time></trkpt><trkpt lat="34.9857142" lon="33.6480018"><ele>127.3</ele><time>2015-05-02T10:40:21.0000000+00:00</time></trkpt><trkpt lat="34.9857472" lon="33.647961"><ele>126.3</ele><time>2015-05-02T10:40:23.0000000+00:00</time></trkpt><trkpt lat="34.9857877" lon="33.6479309"><ele>126.1</ele><time>2015-05-02T10:40:25.0000000+00:00</time></trkpt><trkpt lat="34.9858446" lon="33.6479138"><ele>125.3</ele><time>2015-05-02T10:40:27.0000000+00:00</time></trkpt><trkpt lat="34.9859903" lon="33.6478832"><ele>123.6</ele><time>2015-05-02T10:40:29.0000000+00:00</time></trkpt><trkpt lat="34.9860507" lon="33.6478819"><ele>123.8</ele><time>2015-05-02T10:40:30.0000000+00:00</time></trkpt><trkpt lat="34.9861078" lon="33.6478679"><ele>123.9</ele><time>2015-05-02T10:40:31.0000000+00:00</time></trkpt><trkpt lat="34.9861733" lon="33.6478557"><ele>123.5</ele><time>2015-05-02T10:40:32.0000000+00:00</time></trkpt><trkpt lat="34.986237" lon="33.6478487"><ele>122.7</ele><time>2015-05-02T10:40:33.0000000+00:00</time></trkpt><trkpt lat="34.9862976" lon="33.6478251"><ele>122.4</ele><time>2015-05-02T10:40:34.0000000+00:00</time></trkpt><trkpt lat="34.98636" lon="33.647808"><ele>121.2</ele><time>2015-05-02T10:40:35.0000000+00:00</time></trkpt><trkpt lat="34.9864282" lon="33.6477886"><ele>121.6</ele><time>2015-05-02T10:40:36.0000000+00:00</time></trkpt><trkpt lat="34.986473" lon="33.6477769"><ele>121.8</ele><time>2015-05-02T10:40:37.0000000+00:00</time></trkpt><trkpt lat="34.9865285" lon="33.647773"><ele>121.4</ele><time>2015-05-02T10:40:38.0000000+00:00</time></trkpt><trkpt lat="34.9866101" lon="33.647744"><ele>121.1</ele><time>2015-05-02T10:40:40.0000000+00:00</time></trkpt><trkpt lat="34.9866614" lon="33.6477375"><ele>121.5</ele><time>2015-05-02T10:40:42.0000000+00:00</time></trkpt><trkpt lat="34.9867168" lon="33.6477255"><ele>122.4</ele><time>2015-05-02T10:40:44.0000000+00:00</time></trkpt><trkpt lat="34.9867772" lon="33.6477169"><ele>122.9</ele><time>2015-05-02T10:40:46.0000000+00:00</time></trkpt><trkpt lat="34.986838" lon="33.6477075"><ele>123.2</ele><time>2015-05-02T10:40:48.0000000+00:00</time></trkpt><trkpt lat="34.9868979" lon="33.6477"><ele>123.8</ele><time>2015-05-02T10:40:50.0000000+00:00</time></trkpt><trkpt lat="34.9869568" lon="33.6476926"><ele>124.5</ele><time>2015-05-02T10:40:52.0000000+00:00</time></trkpt><trkpt lat="34.98701" lon="33.6476788"><ele>125.6</ele><time>2015-05-02T10:40:54.0000000+00:00</time></trkpt><trkpt lat="34.9870547" lon="33.6476521"><ele>125.9</ele><time>2015-05-02T10:40:56.0000000+00:00</time></trkpt><trkpt lat="34.9871006" lon="33.6476049"><ele>126.5</ele><time>2015-05-02T10:40:59.0000000+00:00</time></trkpt><trkpt lat="34.9871413" lon="33.6475608"><ele>127.5</ele><time>2015-05-02T10:41:03.0000000+00:00</time></trkpt><trkpt lat="34.9871762" lon="33.647511"><ele>128.9</ele><time>2015-05-02T10:41:07.0000000+00:00</time></trkpt><trkpt lat="34.9872142" lon="33.647474"><ele>130.7</ele><time>2015-05-02T10:41:11.0000000+00:00</time></trkpt><trkpt lat="34.987249" lon="33.6474256"><ele>130.0</ele><time>2015-05-02T10:41:16.0000000+00:00</time></trkpt><trkpt lat="34.9872802" lon="33.6473722"><ele>131.0</ele><time>2015-05-02T10:41:21.0000000+00:00</time></trkpt><trkpt lat="34.9872755" lon="33.6473128"><ele>130.8</ele><time>2015-05-02T10:41:25.0000000+00:00</time></trkpt><trkpt lat="34.987287" lon="33.6472495"><ele>130.8</ele><time>2015-05-02T10:41:29.0000000+00:00</time></trkpt><trkpt lat="34.9872962" lon="33.647181"><ele>130.1</ele><time>2015-05-02T10:41:33.0000000+00:00</time></trkpt><trkpt lat="34.9872526" lon="33.6471289"><ele>131.4</ele><time>2015-05-02T10:41:37.0000000+00:00</time></trkpt><trkpt lat="34.9872073" lon="33.647106"><ele>132.7</ele><time>2015-05-02T10:41:40.0000000+00:00</time></trkpt><trkpt lat="34.9871623" lon="33.647087"><ele>132.5</ele><time>2015-05-02T10:41:43.0000000+00:00</time></trkpt><trkpt lat="34.9871185" lon="33.6470651"><ele>130.7</ele><time>2015-05-02T10:41:46.0000000+00:00</time></trkpt><trkpt lat="34.9870683" lon="33.647044"><ele>130.0</ele><time>2015-05-02T10:41:49.0000000+00:00</time></trkpt><trkpt lat="34.9870223" lon="33.6470186"><ele>130.3</ele><time>2015-05-02T10:41:51.0000000+00:00</time></trkpt><trkpt lat="34.9869742" lon="33.6469886"><ele>130.1</ele><time>2015-05-02T10:41:53.0000000+00:00</time></trkpt><trkpt lat="34.9869264" lon="33.6469603"><ele>129.3</ele><time>2015-05-02T10:41:55.0000000+00:00</time></trkpt><trkpt lat="34.986875" lon="33.6469314"><ele>129.8</ele><time>2015-05-02T10:41:57.0000000+00:00</time></trkpt><trkpt lat="34.9868245" lon="33.6468999"><ele>130.0</ele><time>2015-05-02T10:41:59.0000000+00:00</time></trkpt><trkpt lat="34.9867724" lon="33.6468682"><ele>130.5</ele><time>2015-05-02T10:42:01.0000000+00:00</time></trkpt><trkpt lat="34.9867261" lon="33.6468351"><ele>131.6</ele><time>2015-05-02T10:42:03.0000000+00:00</time></trkpt><trkpt lat="34.9866825" lon="33.6467881"><ele>131.4</ele><time>2015-05-02T10:42:05.0000000+00:00</time></trkpt><trkpt lat="34.9866509" lon="33.6467347"><ele>131.1</ele><time>2015-05-02T10:42:07.0000000+00:00</time></trkpt><trkpt lat="34.9866343" lon="33.6466832"><ele>131.8</ele><time>2015-05-02T10:42:09.0000000+00:00</time></trkpt><trkpt lat="34.9866528" lon="33.6466177"><ele>132.0</ele><time>2015-05-02T10:42:13.0000000+00:00</time></trkpt><trkpt lat="34.9866696" lon="33.6465641"><ele>134.0</ele><time>2015-05-02T10:42:17.0000000+00:00</time></trkpt><trkpt lat="34.9866906" lon="33.6465134"><ele>134.8</ele><time>2015-05-02T10:42:21.0000000+00:00</time></trkpt><trkpt lat="34.9866948" lon="33.6464521"><ele>133.8</ele><time>2015-05-02T10:42:26.0000000+00:00</time></trkpt><trkpt lat="34.9866886" lon="33.6463877"><ele>134.1</ele><time>2015-05-02T10:42:32.0000000+00:00</time></trkpt><trkpt lat="34.9866964" lon="33.6463186"><ele>134.8</ele><time>2015-05-02T10:42:37.0000000+00:00</time></trkpt><trkpt lat="34.9867281" lon="33.6462714"><ele>135.5</ele><time>2015-05-02T10:42:41.0000000+00:00</time></trkpt><trkpt lat="34.9867817" lon="33.6462472"><ele>136.9</ele><time>2015-05-02T10:42:45.0000000+00:00</time></trkpt><trkpt lat="34.98684" lon="33.6462588"><ele>138.6</ele><time>2015-05-02T10:42:49.0000000+00:00</time></trkpt><trkpt lat="34.9868844" lon="33.6462688"><ele>139.0</ele><time>2015-05-02T10:42:52.0000000+00:00</time></trkpt><trkpt lat="34.9869313" lon="33.646278"><ele>140.4</ele><time>2015-05-02T10:42:55.0000000+00:00</time></trkpt><trkpt lat="34.9869887" lon="33.6462926"><ele>140.9</ele><time>2015-05-02T10:42:58.0000000+00:00</time></trkpt><trkpt lat="34.9870348" lon="33.6463032"><ele>141.3</ele><time>2015-05-02T10:43:00.0000000+00:00</time></trkpt><trkpt lat="34.9870989" lon="33.6463046"><ele>141.8</ele><time>2015-05-02T10:43:03.0000000+00:00</time></trkpt><trkpt lat="34.9871562" lon="33.6462776"><ele>142.0</ele><time>2015-05-02T10:43:06.0000000+00:00</time></trkpt><trkpt lat="34.9872143" lon="33.6462498"><ele>143.1</ele><time>2015-05-02T10:43:09.0000000+00:00</time></trkpt><trkpt lat="34.98728" lon="33.6462543"><ele>143.0</ele><time>2015-05-02T10:43:12.0000000+00:00</time></trkpt><trkpt lat="34.98734" lon="33.6462611"><ele>142.8</ele><time>2015-05-02T10:43:15.0000000+00:00</time></trkpt><trkpt lat="34.987401" lon="33.6462669"><ele>143.1</ele><time>2015-05-02T10:43:18.0000000+00:00</time></trkpt><trkpt lat="34.9874659" lon="33.6462861"><ele>142.5</ele><time>2015-05-02T10:43:21.0000000+00:00</time></trkpt><trkpt lat="34.9875094" lon="33.6463068"><ele>142.1</ele><time>2015-05-02T10:43:23.0000000+00:00</time></trkpt><trkpt lat="34.9875562" lon="33.6463281"><ele>143.3</ele><time>2015-05-02T10:43:25.0000000+00:00</time></trkpt><trkpt lat="34.9876106" lon="33.6463513"><ele>144.1</ele><time>2015-05-02T10:43:27.0000000+00:00</time></trkpt><trkpt lat="34.987664" lon="33.6463731"><ele>144.0</ele><time>2015-05-02T10:43:29.0000000+00:00</time></trkpt><trkpt lat="34.9877079" lon="33.646395"><ele>144.8</ele><time>2015-05-02T10:43:31.0000000+00:00</time></trkpt><trkpt lat="34.9877542" lon="33.6464359"><ele>144.2</ele><time>2015-05-02T10:43:33.0000000+00:00</time></trkpt><trkpt lat="34.98781" lon="33.6464636"><ele>144.1</ele><time>2015-05-02T10:43:35.0000000+00:00</time></trkpt><trkpt lat="34.9878704" lon="33.6464858"><ele>144.0</ele><time>2015-05-02T10:43:37.0000000+00:00</time></trkpt><trkpt lat="34.9879377" lon="33.6465103"><ele>144.0</ele><time>2015-05-02T10:43:39.0000000+00:00</time></trkpt><trkpt lat="34.9880034" lon="33.6465308"><ele>143.8</ele><time>2015-05-02T10:43:41.0000000+00:00</time></trkpt><trkpt lat="34.9880619" lon="33.6465454"><ele>144.0</ele><time>2015-05-02T10:43:43.0000000+00:00</time></trkpt><trkpt lat="34.9881081" lon="33.6465524"><ele>143.3</ele><time>2015-05-02T10:43:45.0000000+00:00</time></trkpt><trkpt lat="34.9881614" lon="33.6465769"><ele>143.9</ele><time>2015-05-02T10:43:48.0000000+00:00</time></trkpt><trkpt lat="34.9882223" lon="33.6466063"><ele>144.5</ele><time>2015-05-02T10:43:51.0000000+00:00</time></trkpt><trkpt lat="34.9882817" lon="33.646645"><ele>145.0</ele><time>2015-05-02T10:43:54.0000000+00:00</time></trkpt><trkpt lat="34.9883243" lon="33.646671"><ele>145.5</ele><time>2015-05-02T10:43:56.0000000+00:00</time></trkpt><trkpt lat="34.9883692" lon="33.6467037"><ele>145.4</ele><time>2015-05-02T10:43:58.0000000+00:00</time></trkpt><trkpt lat="34.9884151" lon="33.6467396"><ele>145.1</ele><time>2015-05-02T10:44:00.0000000+00:00</time></trkpt><trkpt lat="34.9884623" lon="33.6467707"><ele>144.3</ele><time>2015-05-02T10:44:02.0000000+00:00</time></trkpt><trkpt lat="34.9885092" lon="33.6467991"><ele>144.8</ele><time>2015-05-02T10:44:04.0000000+00:00</time></trkpt><trkpt lat="34.9885593" lon="33.6468264"><ele>145.5</ele><time>2015-05-02T10:44:06.0000000+00:00</time></trkpt><trkpt lat="34.9886119" lon="33.6468492"><ele>145.9</ele><time>2015-05-02T10:44:08.0000000+00:00</time></trkpt><trkpt lat="34.9886672" lon="33.6468712"><ele>146.5</ele><time>2015-05-02T10:44:10.0000000+00:00</time></trkpt><trkpt lat="34.9887198" lon="33.6468977"><ele>147.4</ele><time>2015-05-02T10:44:12.0000000+00:00</time></trkpt><trkpt lat="34.9887695" lon="33.6469188"><ele>147.1</ele><time>2015-05-02T10:44:14.0000000+00:00</time></trkpt><trkpt lat="34.9888192" lon="33.6469184"><ele>147.0</ele><time>2015-05-02T10:44:16.0000000+00:00</time></trkpt><trkpt lat="34.9888667" lon="33.646912"><ele>147.8</ele><time>2015-05-02T10:44:18.0000000+00:00</time></trkpt><trkpt lat="34.9889084" lon="33.6468883"><ele>148.5</ele><time>2015-05-02T10:44:20.0000000+00:00</time></trkpt><trkpt lat="34.9889478" lon="33.6468333"><ele>149.0</ele><time>2015-05-02T10:44:23.0000000+00:00</time></trkpt><trkpt lat="34.9889881" lon="33.6467839"><ele>149.0</ele><time>2015-05-02T10:44:27.0000000+00:00</time></trkpt><trkpt lat="34.989039" lon="33.6467492"><ele>148.1</ele><time>2015-05-02T10:44:31.0000000+00:00</time></trkpt><trkpt lat="34.9890823" lon="33.6467094"><ele>147.1</ele><time>2015-05-02T10:44:35.0000000+00:00</time></trkpt><trkpt lat="34.9891284" lon="33.6466721"><ele>149.2</ele><time>2015-05-02T10:44:39.0000000+00:00</time></trkpt><trkpt lat="34.9891715" lon="33.6466409"><ele>150.8</ele><time>2015-05-02T10:44:43.0000000+00:00</time></trkpt><trkpt lat="34.9892171" lon="33.6466091"><ele>152.6</ele><time>2015-05-02T10:44:47.0000000+00:00</time></trkpt><trkpt lat="34.9892666" lon="33.646574"><ele>153.5</ele><time>2015-05-02T10:44:51.0000000+00:00</time></trkpt><trkpt lat="34.9893152" lon="33.6465434"><ele>154.9</ele><time>2015-05-02T10:44:55.0000000+00:00</time></trkpt><trkpt lat="34.9893619" lon="33.6465161"><ele>154.1</ele><time>2015-05-02T10:44:59.0000000+00:00</time></trkpt><trkpt lat="34.9894171" lon="33.6465026"><ele>154.5</ele><time>2015-05-02T10:45:03.0000000+00:00</time></trkpt><trkpt lat="34.9894745" lon="33.646497"><ele>155.0</ele><time>2015-05-02T10:45:07.0000000+00:00</time></trkpt><trkpt lat="34.9895295" lon="33.6464764"><ele>155.8</ele><time>2015-05-02T10:45:11.0000000+00:00</time></trkpt><trkpt lat="34.9895765" lon="33.6464756"><ele>155.5</ele><time>2015-05-02T10:45:14.0000000+00:00</time></trkpt><trkpt lat="34.9896264" lon="33.6464841"><ele>154.7</ele><time>2015-05-02T10:45:17.0000000+00:00</time></trkpt><trkpt lat="34.9896734" lon="33.6464982"><ele>153.6</ele><time>2015-05-02T10:45:20.0000000+00:00</time></trkpt><trkpt lat="34.9897295" lon="33.6465087"><ele>152.1</ele><time>2015-05-02T10:45:24.0000000+00:00</time></trkpt><trkpt lat="34.9897839" lon="33.6465196"><ele>153.3</ele><time>2015-05-02T10:45:28.0000000+00:00</time></trkpt><trkpt lat="34.9898368" lon="33.6465177"><ele>154.5</ele><time>2015-05-02T10:45:32.0000000+00:00</time></trkpt><trkpt lat="34.9898852" lon="33.6465161"><ele>155.5</ele><time>2015-05-02T10:45:36.0000000+00:00</time></trkpt><trkpt lat="34.9899394" lon="33.6465151"><ele>159.0</ele><time>2015-05-02T10:45:41.0000000+00:00</time></trkpt><trkpt lat="34.9899921" lon="33.6465182"><ele>159.3</ele><time>2015-05-02T10:45:46.0000000+00:00</time></trkpt><trkpt lat="34.9900425" lon="33.6465314"><ele>159.6</ele><time>2015-05-02T10:45:50.0000000+00:00</time></trkpt><trkpt lat="34.9900954" lon="33.6465504"><ele>158.3</ele><time>2015-05-02T10:45:54.0000000+00:00</time></trkpt><trkpt lat="34.9901362" lon="33.6465904"><ele>158.0</ele><time>2015-05-02T10:45:58.0000000+00:00</time></trkpt><trkpt lat="34.9901729" lon="33.6466311"><ele>158.8</ele><time>2015-05-02T10:46:02.0000000+00:00</time></trkpt><trkpt lat="34.9902204" lon="33.6466675"><ele>160.9</ele><time>2015-05-02T10:46:06.0000000+00:00</time></trkpt><trkpt lat="34.9902585" lon="33.6467017"><ele>162.6</ele><time>2015-05-02T10:46:09.0000000+00:00</time></trkpt><trkpt lat="34.9902933" lon="33.6467461"><ele>162.5</ele><time>2015-05-02T10:46:13.0000000+00:00</time></trkpt><trkpt lat="34.9903372" lon="33.646772"><ele>161.6</ele><time>2015-05-02T10:46:17.0000000+00:00</time></trkpt><trkpt lat="34.99037" lon="33.6468108"><ele>161.1</ele><time>2015-05-02T10:46:21.0000000+00:00</time></trkpt><trkpt lat="34.9904043" lon="33.6468554"><ele>163.7</ele><time>2015-05-02T10:46:25.0000000+00:00</time></trkpt><trkpt lat="34.990417" lon="33.6469164"><ele>165.7</ele><time>2015-05-02T10:46:29.0000000+00:00</time></trkpt><trkpt lat="34.9904445" lon="33.64697"><ele>167.3</ele><time>2015-05-02T10:46:33.0000000+00:00</time></trkpt><trkpt lat="34.9904743" lon="33.6470156"><ele>169.7</ele><time>2015-05-02T10:46:37.0000000+00:00</time></trkpt><trkpt lat="34.9904873" lon="33.6470733"><ele>171.8</ele><time>2015-05-02T10:46:41.0000000+00:00</time></trkpt><trkpt lat="34.9904702" lon="33.647135"><ele>172.1</ele><time>2015-05-02T10:46:45.0000000+00:00</time></trkpt><trkpt lat="34.9904792" lon="33.6471995"><ele>173.4</ele><time>2015-05-02T10:46:49.0000000+00:00</time></trkpt><trkpt lat="34.9904816" lon="33.6472674"><ele>174.3</ele><time>2015-05-02T10:46:53.0000000+00:00</time></trkpt><trkpt lat="34.990483" lon="33.6473293"><ele>174.1</ele><time>2015-05-02T10:46:57.0000000+00:00</time></trkpt><trkpt lat="34.9905035" lon="33.6473877"><ele>174.2</ele><time>2015-05-02T10:47:01.0000000+00:00</time></trkpt><trkpt lat="34.9905492" lon="33.6474345"><ele>174.5</ele><time>2015-05-02T10:47:05.0000000+00:00</time></trkpt><trkpt lat="34.9905934" lon="33.6474606"><ele>174.6</ele><time>2015-05-02T10:47:08.0000000+00:00</time></trkpt><trkpt lat="34.9906386" lon="33.6474689"><ele>174.8</ele><time>2015-05-02T10:47:11.0000000+00:00</time></trkpt><trkpt lat="34.9906951" lon="33.6474566"><ele>175.3</ele><time>2015-05-02T10:47:15.0000000+00:00</time></trkpt><trkpt lat="34.9907521" lon="33.6474526"><ele>175.2</ele><time>2015-05-02T10:47:19.0000000+00:00</time></trkpt><trkpt lat="34.9908092" lon="33.6474602"><ele>174.8</ele><time>2015-05-02T10:47:23.0000000+00:00</time></trkpt><trkpt lat="34.9908595" lon="33.6474618"><ele>176.3</ele><time>2015-05-02T10:47:27.0000000+00:00</time></trkpt><trkpt lat="34.9909061" lon="33.6474724"><ele>178.3</ele><time>2015-05-02T10:47:31.0000000+00:00</time></trkpt><trkpt lat="34.9909556" lon="33.647493"><ele>178.5</ele><time>2015-05-02T10:47:35.0000000+00:00</time></trkpt><trkpt lat="34.9910024" lon="33.6475167"><ele>179.9</ele><time>2015-05-02T10:47:39.0000000+00:00</time></trkpt><trkpt lat="34.9910416" lon="33.6475649"><ele>180.6</ele><time>2015-05-02T10:47:43.0000000+00:00</time></trkpt><trkpt lat="34.9910296" lon="33.6476325"><ele>180.2</ele><time>2015-05-02T10:47:47.0000000+00:00</time></trkpt><trkpt lat="34.9910233" lon="33.6476875"><ele>179.5</ele><time>2015-05-02T10:47:50.0000000+00:00</time></trkpt><trkpt lat="34.9909793" lon="33.6477213"><ele>179.9</ele><time>2015-05-02T10:47:54.0000000+00:00</time></trkpt><trkpt lat="34.9909343" lon="33.6477176"><ele>180.6</ele><time>2015-05-02T10:47:57.0000000+00:00</time></trkpt><trkpt lat="34.9908792" lon="33.6477165"><ele>181.2</ele><time>2015-05-02T10:48:00.0000000+00:00</time></trkpt><trkpt lat="34.9908251" lon="33.6477133"><ele>181.1</ele><time>2015-05-02T10:48:02.0000000+00:00</time></trkpt><trkpt lat="34.9907664" lon="33.6477115"><ele>181.8</ele><time>2015-05-02T10:48:04.0000000+00:00</time></trkpt><trkpt lat="34.990711" lon="33.6477124"><ele>181.5</ele><time>2015-05-02T10:48:06.0000000+00:00</time></trkpt><trkpt lat="34.9906567" lon="33.6477262"><ele>181.6</ele><time>2015-05-02T10:48:08.0000000+00:00</time></trkpt><trkpt lat="34.9906034" lon="33.6477517"><ele>182.4</ele><time>2015-05-02T10:48:10.0000000+00:00</time></trkpt><trkpt lat="34.990555" lon="33.6477773"><ele>182.1</ele><time>2015-05-02T10:48:12.0000000+00:00</time></trkpt><trkpt lat="34.9905106" lon="33.6478117"><ele>182.0</ele><time>2015-05-02T10:48:15.0000000+00:00</time></trkpt><trkpt lat="34.9905486" lon="33.6477778"><ele>182.0</ele><time>2015-05-02T10:48:47.0000000+00:00</time></trkpt><trkpt lat="34.9905946" lon="33.6477473"><ele>182.1</ele><time>2015-05-02T10:48:51.0000000+00:00</time></trkpt><trkpt lat="34.9906508" lon="33.6477238"><ele>182.5</ele><time>2015-05-02T10:48:54.0000000+00:00</time></trkpt><trkpt lat="34.9907134" lon="33.6477146"><ele>183.8</ele><time>2015-05-02T10:48:57.0000000+00:00</time></trkpt><trkpt lat="34.9907795" lon="33.6477134"><ele>184.9</ele><time>2015-05-02T10:49:00.0000000+00:00</time></trkpt><trkpt lat="34.9908276" lon="33.6477109"><ele>184.2</ele><time>2015-05-02T10:49:02.0000000+00:00</time></trkpt><trkpt lat="34.9908784" lon="33.6477053"><ele>185.6</ele><time>2015-05-02T10:49:04.0000000+00:00</time></trkpt><trkpt lat="34.9909294" lon="33.6477006"><ele>185.9</ele><time>2015-05-02T10:49:06.0000000+00:00</time></trkpt><trkpt lat="34.9909763" lon="33.6477103"><ele>186.0</ele><time>2015-05-02T10:49:08.0000000+00:00</time></trkpt><trkpt lat="34.9910127" lon="33.6477735"><ele>186.1</ele><time>2015-05-02T10:49:11.0000000+00:00</time></trkpt><trkpt lat="34.9910046" lon="33.6478326"><ele>186.6</ele><time>2015-05-02T10:49:13.0000000+00:00</time></trkpt><trkpt lat="34.990987" lon="33.6478934"><ele>186.4</ele><time>2015-05-02T10:49:15.0000000+00:00</time></trkpt><trkpt lat="34.9909699" lon="33.6479661"><ele>185.4</ele><time>2015-05-02T10:49:17.0000000+00:00</time></trkpt><trkpt lat="34.9909577" lon="33.6480491"><ele>184.6</ele><time>2015-05-02T10:49:19.0000000+00:00</time></trkpt><trkpt lat="34.9909497" lon="33.648137"><ele>183.7</ele><time>2015-05-02T10:49:21.0000000+00:00</time></trkpt><trkpt lat="34.9909452" lon="33.6482242"><ele>183.4</ele><time>2015-05-02T10:49:23.0000000+00:00</time></trkpt><trkpt lat="34.990943" lon="33.6483156"><ele>182.6</ele><time>2015-05-02T10:49:25.0000000+00:00</time></trkpt><trkpt lat="34.9909478" lon="33.648404"><ele>181.4</ele><time>2015-05-02T10:49:27.0000000+00:00</time></trkpt><trkpt lat="34.9909548" lon="33.6484922"><ele>180.4</ele><time>2015-05-02T10:49:29.0000000+00:00</time></trkpt><trkpt lat="34.990965" lon="33.6485809"><ele>180.1</ele><time>2015-05-02T10:49:31.0000000+00:00</time></trkpt><trkpt lat="34.9909766" lon="33.6486775"><ele>179.8</ele><time>2015-05-02T10:49:33.0000000+00:00</time></trkpt><trkpt lat="34.9909828" lon="33.6487784"><ele>179.5</ele><time>2015-05-02T10:49:35.0000000+00:00</time></trkpt><trkpt lat="34.9909878" lon="33.6488812"><ele>179.1</ele><time>2015-05-02T10:49:37.0000000+00:00</time></trkpt><trkpt lat="34.9909969" lon="33.6489814"><ele>178.3</ele><time>2015-05-02T10:49:39.0000000+00:00</time></trkpt><trkpt lat="34.9910049" lon="33.6490366"><ele>178.2</ele><time>2015-05-02T10:49:40.0000000+00:00</time></trkpt><trkpt lat="34.9910183" lon="33.649143"><ele>178.1</ele><time>2015-05-02T10:49:42.0000000+00:00</time></trkpt><trkpt lat="34.9910165" lon="33.6492514"><ele>177.3</ele><time>2015-05-02T10:49:44.0000000+00:00</time></trkpt><trkpt lat="34.9910037" lon="33.6493548"><ele>177.1</ele><time>2015-05-02T10:49:46.0000000+00:00</time></trkpt><trkpt lat="34.9910005" lon="33.6494805"><ele>176.5</ele><time>2015-05-02T10:49:48.0000000+00:00</time></trkpt><trkpt lat="34.9910082" lon="33.6495899"><ele>176.2</ele><time>2015-05-02T10:49:50.0000000+00:00</time></trkpt><trkpt lat="34.9910052" lon="33.6497021"><ele>176.1</ele><time>2015-05-02T10:49:52.0000000+00:00</time></trkpt><trkpt lat="34.9910067" lon="33.6498074"><ele>175.5</ele><time>2015-05-02T10:49:54.0000000+00:00</time></trkpt><trkpt lat="34.9910018" lon="33.6499177"><ele>175.1</ele><time>2015-05-02T10:49:56.0000000+00:00</time></trkpt><trkpt lat="34.991008" lon="33.6499738"><ele>175.1</ele><time>2015-05-02T10:49:57.0000000+00:00</time></trkpt><trkpt lat="34.9910067" lon="33.6500792"><ele>175.0</ele><time>2015-05-02T10:49:59.0000000+00:00</time></trkpt><trkpt lat="34.9910044" lon="33.650169"><ele>175.0</ele><time>2015-05-02T10:50:01.0000000+00:00</time></trkpt><trkpt lat="34.9910006" lon="33.6502279"><ele>175.2</ele><time>2015-05-02T10:50:10.0000000+00:00</time></trkpt><trkpt lat="34.9910179" lon="33.6501765"><ele>178.0</ele><time>2015-05-02T11:01:51.0000000+00:00</time></trkpt><trkpt lat="34.9910296" lon="33.6501041"><ele>177.1</ele><time>2015-05-02T11:01:55.0000000+00:00</time></trkpt><trkpt lat="34.9910503" lon="33.6500289"><ele>177.0</ele><time>2015-05-02T11:01:58.0000000+00:00</time></trkpt><trkpt lat="34.9910527" lon="33.6499684"><ele>177.0</ele><time>2015-05-02T11:02:00.0000000+00:00</time></trkpt><trkpt lat="34.9910441" lon="33.6499096"><ele>177.5</ele><time>2015-05-02T11:02:02.0000000+00:00</time></trkpt><trkpt lat="34.9910355" lon="33.6498509"><ele>177.9</ele><time>2015-05-02T11:02:04.0000000+00:00</time></trkpt><trkpt lat="34.9910314" lon="33.649794"><ele>177.5</ele><time>2015-05-02T11:02:06.0000000+00:00</time></trkpt><trkpt lat="34.9910278" lon="33.6497158"><ele>177.2</ele><time>2015-05-02T11:02:09.0000000+00:00</time></trkpt><trkpt lat="34.9910346" lon="33.649643"><ele>176.2</ele><time>2015-05-02T11:02:12.0000000+00:00</time></trkpt><trkpt lat="34.9910248" lon="33.6495669"><ele>176.8</ele><time>2015-05-02T11:02:15.0000000+00:00</time></trkpt><trkpt lat="34.9910129" lon="33.6494919"><ele>177.0</ele><time>2015-05-02T11:02:18.0000000+00:00</time></trkpt><trkpt lat="34.9910053" lon="33.6494185"><ele>177.0</ele><time>2015-05-02T11:02:21.0000000+00:00</time></trkpt><trkpt lat="34.9910216" lon="33.649343"><ele>177.0</ele><time>2015-05-02T11:02:24.0000000+00:00</time></trkpt><trkpt lat="34.9910378" lon="33.6492692"><ele>176.1</ele><time>2015-05-02T11:02:27.0000000+00:00</time></trkpt><trkpt lat="34.9910394" lon="33.6492078"><ele>176.1</ele><time>2015-05-02T11:02:29.0000000+00:00</time></trkpt><trkpt lat="34.9910327" lon="33.6491506"><ele>176.0</ele><time>2015-05-02T11:02:31.0000000+00:00</time></trkpt><trkpt lat="34.9910046" lon="33.6491054"><ele>177.3</ele><time>2015-05-02T11:02:51.0000000+00:00</time></trkpt><trkpt lat="34.9909949" lon="33.6490385"><ele>178.0</ele><time>2015-05-02T11:02:55.0000000+00:00</time></trkpt><trkpt lat="34.9910004" lon="33.6489585"><ele>175.9</ele><time>2015-05-02T11:02:58.0000000+00:00</time></trkpt><trkpt lat="34.9910055" lon="33.6489021"><ele>175.2</ele><time>2015-05-02T11:03:00.0000000+00:00</time></trkpt><trkpt lat="34.9910068" lon="33.6488414"><ele>174.6</ele><time>2015-05-02T11:03:02.0000000+00:00</time></trkpt><trkpt lat="34.9910073" lon="33.6487767"><ele>174.2</ele><time>2015-05-02T11:03:04.0000000+00:00</time></trkpt><trkpt lat="34.9910024" lon="33.6487115"><ele>174.1</ele><time>2015-05-02T11:03:06.0000000+00:00</time></trkpt><trkpt lat="34.9909948" lon="33.6486478"><ele>173.5</ele><time>2015-05-02T11:03:08.0000000+00:00</time></trkpt><trkpt lat="34.9909901" lon="33.6485798"><ele>173.6</ele><time>2015-05-02T11:03:10.0000000+00:00</time></trkpt><trkpt lat="34.9909865" lon="33.6485109"><ele>175.2</ele><time>2015-05-02T11:03:12.0000000+00:00</time></trkpt><trkpt lat="34.9909865" lon="33.6484418"><ele>175.6</ele><time>2015-05-02T11:03:14.0000000+00:00</time></trkpt><trkpt lat="34.9909858" lon="33.648368"><ele>176.4</ele><time>2015-05-02T11:03:16.0000000+00:00</time></trkpt><trkpt lat="34.9909877" lon="33.6482956"><ele>177.1</ele><time>2015-05-02T11:03:18.0000000+00:00</time></trkpt><trkpt lat="34.9909888" lon="33.6482223"><ele>176.8</ele><time>2015-05-02T11:03:20.0000000+00:00</time></trkpt><trkpt lat="34.9909916" lon="33.6481459"><ele>177.0</ele><time>2015-05-02T11:03:22.0000000+00:00</time></trkpt><trkpt lat="34.9909989" lon="33.6480728"><ele>177.8</ele><time>2015-05-02T11:03:24.0000000+00:00</time></trkpt><trkpt lat="34.9910094" lon="33.6480005"><ele>178.0</ele><time>2015-05-02T11:03:26.0000000+00:00</time></trkpt><trkpt lat="34.9910191" lon="33.6479271"><ele>178.8</ele><time>2015-05-02T11:03:28.0000000+00:00</time></trkpt><trkpt lat="34.9910284" lon="33.6478535"><ele>179.5</ele><time>2015-05-02T11:03:30.0000000+00:00</time></trkpt><trkpt lat="34.9910368" lon="33.6477806"><ele>179.9</ele><time>2015-05-02T11:03:32.0000000+00:00</time></trkpt><trkpt lat="34.9910498" lon="33.6477176"><ele>180.5</ele><time>2015-05-02T11:03:34.0000000+00:00</time></trkpt><trkpt lat="34.991066" lon="33.6476542"><ele>180.9</ele><time>2015-05-02T11:03:36.0000000+00:00</time></trkpt><trkpt lat="34.991083" lon="33.6475936"><ele>181.0</ele><time>2015-05-02T11:03:38.0000000+00:00</time></trkpt><trkpt lat="34.9910935" lon="33.647537"><ele>180.3</ele><time>2015-05-02T11:03:40.0000000+00:00</time></trkpt><trkpt lat="34.9911167" lon="33.6474799"><ele>180.9</ele><time>2015-05-02T11:03:43.0000000+00:00</time></trkpt><trkpt lat="34.9911677" lon="33.6474499"><ele>181.3</ele><time>2015-05-02T11:03:46.0000000+00:00</time></trkpt><trkpt lat="34.9912101" lon="33.6474314"><ele>181.6</ele><time>2015-05-02T11:03:48.0000000+00:00</time></trkpt><trkpt lat="34.9912718" lon="33.6474108"><ele>182.0</ele><time>2015-05-02T11:03:51.0000000+00:00</time></trkpt><trkpt lat="34.9913254" lon="33.647391"><ele>178.5</ele><time>2015-05-02T11:04:48.0000000+00:00</time></trkpt><trkpt lat="34.9913662" lon="33.647367"><ele>177.8</ele><time>2015-05-02T11:04:49.0000000+00:00</time></trkpt><trkpt lat="34.9914494" lon="33.6473179"><ele>176.4</ele><time>2015-05-02T11:04:50.0000000+00:00</time></trkpt><trkpt lat="34.9915084" lon="33.6472941"><ele>175.2</ele><time>2015-05-02T11:04:51.0000000+00:00</time></trkpt><trkpt lat="34.9915875" lon="33.6472673"><ele>174.1</ele><time>2015-05-02T11:04:52.0000000+00:00</time></trkpt><trkpt lat="34.9916668" lon="33.6472461"><ele>173.6</ele><time>2015-05-02T11:04:53.0000000+00:00</time></trkpt><trkpt lat="34.9917446" lon="33.6472315"><ele>173.8</ele><time>2015-05-02T11:04:54.0000000+00:00</time></trkpt><trkpt lat="34.9918244" lon="33.6472077"><ele>173.9</ele><time>2015-05-02T11:04:55.0000000+00:00</time></trkpt><trkpt lat="34.9919132" lon="33.6471922"><ele>173.5</ele><time>2015-05-02T11:04:56.0000000+00:00</time></trkpt><trkpt lat="34.9919899" lon="33.6471649"><ele>172.7</ele><time>2015-05-02T11:04:57.0000000+00:00</time></trkpt><trkpt lat="34.9920697" lon="33.6471414"><ele>172.4</ele><time>2015-05-02T11:04:58.0000000+00:00</time></trkpt><trkpt lat="34.9921312" lon="33.6471207"><ele>172.2</ele><time>2015-05-02T11:04:59.0000000+00:00</time></trkpt><trkpt lat="34.9921881" lon="33.6471128"><ele>171.6</ele><time>2015-05-02T11:05:00.0000000+00:00</time></trkpt><trkpt lat="34.9922606" lon="33.647093"><ele>171.4</ele><time>2015-05-02T11:05:02.0000000+00:00</time></trkpt><trkpt lat="34.992322" lon="33.6470748"><ele>170.4</ele><time>2015-05-02T11:05:04.0000000+00:00</time></trkpt><trkpt lat="34.9923706" lon="33.6470599"><ele>170.1</ele><time>2015-05-02T11:05:06.0000000+00:00</time></trkpt><trkpt lat="34.9924167" lon="33.6470262"><ele>169.3</ele><time>2015-05-02T11:05:08.0000000+00:00</time></trkpt><trkpt lat="34.9924739" lon="33.6470163"><ele>167.2</ele><time>2015-05-02T11:05:11.0000000+00:00</time></trkpt><trkpt lat="34.9925416" lon="33.6470025"><ele>165.1</ele><time>2015-05-02T11:05:13.0000000+00:00</time></trkpt><trkpt lat="34.9926008" lon="33.6469791"><ele>163.5</ele><time>2015-05-02T11:05:14.0000000+00:00</time></trkpt><trkpt lat="34.9926611" lon="33.6469466"><ele>161.3</ele><time>2015-05-02T11:05:15.0000000+00:00</time></trkpt><trkpt lat="34.9927074" lon="33.64693"><ele>160.2</ele><time>2015-05-02T11:05:16.0000000+00:00</time></trkpt><trkpt lat="34.9927515" lon="33.6469162"><ele>159.6</ele><time>2015-05-02T11:05:17.0000000+00:00</time></trkpt><trkpt lat="34.9927988" lon="33.6469011"><ele>158.8</ele><time>2015-05-02T11:05:18.0000000+00:00</time></trkpt><trkpt lat="34.992874" lon="33.6468812"><ele>158.2</ele><time>2015-05-02T11:05:20.0000000+00:00</time></trkpt><trkpt lat="34.992923" lon="33.6468652"><ele>157.6</ele><time>2015-05-02T11:05:22.0000000+00:00</time></trkpt><trkpt lat="34.9930007" lon="33.6468433"><ele>155.9</ele><time>2015-05-02T11:05:24.0000000+00:00</time></trkpt><trkpt lat="34.993084" lon="33.6468211"><ele>154.5</ele><time>2015-05-02T11:05:26.0000000+00:00</time></trkpt><trkpt lat="34.9931306" lon="33.646807"><ele>154.3</ele><time>2015-05-02T11:05:27.0000000+00:00</time></trkpt><trkpt lat="34.9931817" lon="33.6467815"><ele>154.1</ele><time>2015-05-02T11:05:28.0000000+00:00</time></trkpt><trkpt lat="34.9932334" lon="33.64676"><ele>153.6</ele><time>2015-05-02T11:05:29.0000000+00:00</time></trkpt><trkpt lat="34.9932842" lon="33.6467358"><ele>153.3</ele><time>2015-05-02T11:05:30.0000000+00:00</time></trkpt><trkpt lat="34.9933318" lon="33.6467186"><ele>153.7</ele><time>2015-05-02T11:05:31.0000000+00:00</time></trkpt><trkpt lat="34.9933786" lon="33.6467063"><ele>154.3</ele><time>2015-05-02T11:05:32.0000000+00:00</time></trkpt><trkpt lat="34.9934297" lon="33.6467031"><ele>154.7</ele><time>2015-05-02T11:05:33.0000000+00:00</time></trkpt><trkpt lat="34.9935152" lon="33.6466716"><ele>155.2</ele><time>2015-05-02T11:05:35.0000000+00:00</time></trkpt><trkpt lat="34.993562" lon="33.6466535"><ele>155.8</ele><time>2015-05-02T11:05:37.0000000+00:00</time></trkpt><trkpt lat="34.9936108" lon="33.6466282"><ele>157.3</ele><time>2015-05-02T11:05:41.0000000+00:00</time></trkpt><trkpt lat="34.9936585" lon="33.6466331"><ele>160.3</ele><time>2015-05-02T11:05:45.0000000+00:00</time></trkpt><trkpt lat="34.9937181" lon="33.6466304"><ele>160.1</ele><time>2015-05-02T11:05:48.0000000+00:00</time></trkpt><trkpt lat="34.993768" lon="33.6466294"><ele>160.0</ele><time>2015-05-02T11:05:51.0000000+00:00</time></trkpt><trkpt lat="34.9938233" lon="33.6466212"><ele>161.7</ele><time>2015-05-02T11:05:55.0000000+00:00</time></trkpt><trkpt lat="34.9938665" lon="33.6465982"><ele>162.0</ele><time>2015-05-02T11:05:58.0000000+00:00</time></trkpt><trkpt lat="34.9939226" lon="33.6465772"><ele>161.1</ele><time>2015-05-02T11:06:02.0000000+00:00</time></trkpt><trkpt lat="34.9939781" lon="33.6465535"><ele>162.8</ele><time>2015-05-02T11:06:06.0000000+00:00</time></trkpt><trkpt lat="34.9940241" lon="33.6465357"><ele>163.0</ele><time>2015-05-02T11:06:09.0000000+00:00</time></trkpt><trkpt lat="34.9940726" lon="33.6465218"><ele>163.3</ele><time>2015-05-02T11:06:12.0000000+00:00</time></trkpt><trkpt lat="34.9941187" lon="33.6465011"><ele>163.6</ele><time>2015-05-02T11:06:15.0000000+00:00</time></trkpt><trkpt lat="34.9941672" lon="33.6464819"><ele>164.0</ele><time>2015-05-02T11:06:18.0000000+00:00</time></trkpt><trkpt lat="34.9942135" lon="33.6464595"><ele>164.1</ele><time>2015-05-02T11:06:21.0000000+00:00</time></trkpt><trkpt lat="34.9942695" lon="33.6464432"><ele>163.8</ele><time>2015-05-02T11:06:24.0000000+00:00</time></trkpt><trkpt lat="34.9943323" lon="33.6464234"><ele>163.1</ele><time>2015-05-02T11:06:27.0000000+00:00</time></trkpt><trkpt lat="34.9943931" lon="33.6463943"><ele>163.5</ele><time>2015-05-02T11:06:30.0000000+00:00</time></trkpt><trkpt lat="34.9944399" lon="33.6463719"><ele>162.6</ele><time>2015-05-02T11:06:32.0000000+00:00</time></trkpt><trkpt lat="34.994485" lon="33.6463421"><ele>162.2</ele><time>2015-05-02T11:06:34.0000000+00:00</time></trkpt><trkpt lat="34.9945268" lon="33.6463033"><ele>161.3</ele><time>2015-05-02T11:06:36.0000000+00:00</time></trkpt><trkpt lat="34.9945671" lon="33.6462695"><ele>160.3</ele><time>2015-05-02T11:06:38.0000000+00:00</time></trkpt><trkpt lat="34.9946128" lon="33.6462409"><ele>159.4</ele><time>2015-05-02T11:06:40.0000000+00:00</time></trkpt><trkpt lat="34.9946689" lon="33.6462112"><ele>158.4</ele><time>2015-05-02T11:06:42.0000000+00:00</time></trkpt><trkpt lat="34.9947812" lon="33.6461495"><ele>157.4</ele><time>2015-05-02T11:06:44.0000000+00:00</time></trkpt><trkpt lat="34.9948224" lon="33.6461201"><ele>156.7</ele><time>2015-05-02T11:06:45.0000000+00:00</time></trkpt><trkpt lat="34.9948798" lon="33.646094"><ele>156.4</ele><time>2015-05-02T11:06:46.0000000+00:00</time></trkpt><trkpt lat="34.9949306" lon="33.6460757"><ele>155.7</ele><time>2015-05-02T11:06:47.0000000+00:00</time></trkpt><trkpt lat="34.9949892" lon="33.646052"><ele>154.9</ele><time>2015-05-02T11:06:48.0000000+00:00</time></trkpt><trkpt lat="34.9950354" lon="33.6460273"><ele>154.4</ele><time>2015-05-02T11:06:49.0000000+00:00</time></trkpt><trkpt lat="34.9950859" lon="33.6460005"><ele>154.2</ele><time>2015-05-02T11:06:50.0000000+00:00</time></trkpt><trkpt lat="34.9951293" lon="33.6459778"><ele>154.1</ele><time>2015-05-02T11:06:51.0000000+00:00</time></trkpt><trkpt lat="34.99518" lon="33.6459543"><ele>154.1</ele><time>2015-05-02T11:06:52.0000000+00:00</time></trkpt><trkpt lat="34.9952552" lon="33.6459093"><ele>153.3</ele><time>2015-05-02T11:06:54.0000000+00:00</time></trkpt><trkpt lat="34.9952962" lon="33.6458811"><ele>153.2</ele><time>2015-05-02T11:06:55.0000000+00:00</time></trkpt><trkpt lat="34.995353" lon="33.6458532"><ele>152.6</ele><time>2015-05-02T11:06:56.0000000+00:00</time></trkpt><trkpt lat="34.9954028" lon="33.6458313"><ele>152.3</ele><time>2015-05-02T11:06:57.0000000+00:00</time></trkpt><trkpt lat="34.9954736" lon="33.6458174"><ele>153.3</ele><time>2015-05-02T11:06:59.0000000+00:00</time></trkpt><trkpt lat="34.9955414" lon="33.6458133"><ele>154.6</ele><time>2015-05-02T11:07:01.0000000+00:00</time></trkpt><trkpt lat="34.9955919" lon="33.6458018"><ele>155.7</ele><time>2015-05-02T11:07:03.0000000+00:00</time></trkpt><trkpt lat="34.9956564" lon="33.6458017"><ele>156.0</ele><time>2015-05-02T11:07:06.0000000+00:00</time></trkpt><trkpt lat="34.995719" lon="33.6457818"><ele>154.5</ele><time>2015-05-02T11:07:08.0000000+00:00</time></trkpt><trkpt lat="34.9957648" lon="33.6457581"><ele>155.1</ele><time>2015-05-02T11:07:10.0000000+00:00</time></trkpt><trkpt lat="34.9958084" lon="33.645728"><ele>155.8</ele><time>2015-05-02T11:07:12.0000000+00:00</time></trkpt><trkpt lat="34.9958512" lon="33.6457038"><ele>155.7</ele><time>2015-05-02T11:07:14.0000000+00:00</time></trkpt><trkpt lat="34.9959074" lon="33.6456789"><ele>156.0</ele><time>2015-05-02T11:07:17.0000000+00:00</time></trkpt><trkpt lat="34.9959541" lon="33.6456575"><ele>155.1</ele><time>2015-05-02T11:07:20.0000000+00:00</time></trkpt><trkpt lat="34.9959973" lon="33.6456356"><ele>155.0</ele><time>2015-05-02T11:07:23.0000000+00:00</time></trkpt><trkpt lat="34.996043" lon="33.6456268"><ele>153.6</ele><time>2015-05-02T11:07:26.0000000+00:00</time></trkpt><trkpt lat="34.9960971" lon="33.6456396"><ele>153.9</ele><time>2015-05-02T11:07:30.0000000+00:00</time></trkpt><trkpt lat="34.9961484" lon="33.645659"><ele>154.8</ele><time>2015-05-02T11:07:34.0000000+00:00</time></trkpt><trkpt lat="34.996195" lon="33.6456329"><ele>157.3</ele><time>2015-05-02T11:07:38.0000000+00:00</time></trkpt><trkpt lat="34.9962443" lon="33.6456197"><ele>160.3</ele><time>2015-05-02T11:07:42.0000000+00:00</time></trkpt><trkpt lat="34.9962917" lon="33.6456061"><ele>161.5</ele><time>2015-05-02T11:07:46.0000000+00:00</time></trkpt><trkpt lat="34.9963368" lon="33.6455943"><ele>162.9</ele><time>2015-05-02T11:07:50.0000000+00:00</time></trkpt><trkpt lat="34.9963908" lon="33.645577"><ele>161.8</ele><time>2015-05-02T11:07:54.0000000+00:00</time></trkpt><trkpt lat="34.9964364" lon="33.645573"><ele>162.1</ele><time>2015-05-02T11:07:57.0000000+00:00</time></trkpt><trkpt lat="34.9964824" lon="33.6455603"><ele>160.4</ele><time>2015-05-02T11:08:00.0000000+00:00</time></trkpt><trkpt lat="34.9965359" lon="33.6455463"><ele>160.1</ele><time>2015-05-02T11:08:04.0000000+00:00</time></trkpt><trkpt lat="34.996588" lon="33.6455354"><ele>162.7</ele><time>2015-05-02T11:08:08.0000000+00:00</time></trkpt><trkpt lat="34.9966452" lon="33.6455345"><ele>165.3</ele><time>2015-05-02T11:08:12.0000000+00:00</time></trkpt><trkpt lat="34.9966911" lon="33.6455176"><ele>166.4</ele><time>2015-05-02T11:08:16.0000000+00:00</time></trkpt><trkpt lat="34.9967372" lon="33.6455006"><ele>166.1</ele><time>2015-05-02T11:08:20.0000000+00:00</time></trkpt><trkpt lat="34.9967883" lon="33.6454904"><ele>168.2</ele><time>2015-05-02T11:08:24.0000000+00:00</time></trkpt><trkpt lat="34.9968381" lon="33.6454701"><ele>169.5</ele><time>2015-05-02T11:08:28.0000000+00:00</time></trkpt><trkpt lat="34.9968944" lon="33.6454505"><ele>170.0</ele><time>2015-05-02T11:08:32.0000000+00:00</time></trkpt><trkpt lat="34.9969504" lon="33.6454329"><ele>171.4</ele><time>2015-05-02T11:08:36.0000000+00:00</time></trkpt><trkpt lat="34.9970079" lon="33.6454115"><ele>172.5</ele><time>2015-05-02T11:08:40.0000000+00:00</time></trkpt><trkpt lat="34.9970546" lon="33.6454055"><ele>173.0</ele><time>2015-05-02T11:08:43.0000000+00:00</time></trkpt><trkpt lat="34.9971022" lon="33.6453947"><ele>173.5</ele><time>2015-05-02T11:08:46.0000000+00:00</time></trkpt><trkpt lat="34.9971466" lon="33.6453827"><ele>175.3</ele><time>2015-05-02T11:08:49.0000000+00:00</time></trkpt><trkpt lat="34.9972011" lon="33.6453569"><ele>176.7</ele><time>2015-05-02T11:08:53.0000000+00:00</time></trkpt><trkpt lat="34.997257" lon="33.6453384"><ele>176.9</ele><time>2015-05-02T11:08:57.0000000+00:00</time></trkpt><trkpt lat="34.9973038" lon="33.6453606"><ele>176.7</ele><time>2015-05-02T11:09:01.0000000+00:00</time></trkpt><trkpt lat="34.9972986" lon="33.6453045"><ele>176.9</ele><time>2015-05-02T11:09:11.0000000+00:00</time></trkpt><trkpt lat="34.9973072" lon="33.6452405"><ele>176.5</ele><time>2015-05-02T11:09:15.0000000+00:00</time></trkpt><trkpt lat="34.9973302" lon="33.6451736"><ele>173.4</ele><time>2015-05-02T11:09:19.0000000+00:00</time></trkpt><trkpt lat="34.997362" lon="33.6451008"><ele>171.1</ele><time>2015-05-02T11:09:21.0000000+00:00</time></trkpt><trkpt lat="34.9973821" lon="33.6450466"><ele>170.1</ele><time>2015-05-02T11:09:22.0000000+00:00</time></trkpt><trkpt lat="34.9974102" lon="33.6449691"><ele>169.5</ele><time>2015-05-02T11:09:23.0000000+00:00</time></trkpt><trkpt lat="34.9974265" lon="33.644913"><ele>168.8</ele><time>2015-05-02T11:09:24.0000000+00:00</time></trkpt><trkpt lat="34.9974552" lon="33.6448492"><ele>168.5</ele><time>2015-05-02T11:09:26.0000000+00:00</time></trkpt><trkpt lat="34.9975277" lon="33.6448525"><ele>166.8</ele><time>2015-05-02T11:09:29.0000000+00:00</time></trkpt><trkpt lat="34.9975786" lon="33.6448897"><ele>165.5</ele><time>2015-05-02T11:09:31.0000000+00:00</time></trkpt><trkpt lat="34.9976222" lon="33.6449356"><ele>165.1</ele><time>2015-05-02T11:09:33.0000000+00:00</time></trkpt><trkpt lat="34.9976605" lon="33.6449715"><ele>164.5</ele><time>2015-05-02T11:09:35.0000000+00:00</time></trkpt><trkpt lat="34.9976976" lon="33.6450084"><ele>163.7</ele><time>2015-05-02T11:09:37.0000000+00:00</time></trkpt><trkpt lat="34.9977442" lon="33.6450598"><ele>161.5</ele><time>2015-05-02T11:09:40.0000000+00:00</time></trkpt><trkpt lat="34.997783" lon="33.64512"><ele>160.5</ele><time>2015-05-02T11:09:43.0000000+00:00</time></trkpt><trkpt lat="34.9978028" lon="33.6451781"><ele>159.1</ele><time>2015-05-02T11:09:45.0000000+00:00</time></trkpt><trkpt lat="34.9978129" lon="33.6452439"><ele>158.3</ele><time>2015-05-02T11:09:47.0000000+00:00</time></trkpt><trkpt lat="34.9978148" lon="33.6453162"><ele>157.3</ele><time>2015-05-02T11:09:49.0000000+00:00</time></trkpt><trkpt lat="34.9978175" lon="33.6453757"><ele>157.9</ele><time>2015-05-02T11:09:51.0000000+00:00</time></trkpt><trkpt lat="34.9978715" lon="33.6453488"><ele>156.6</ele><time>2015-05-02T11:09:54.0000000+00:00</time></trkpt><trkpt lat="34.9978865" lon="33.6452944"><ele>154.9</ele><time>2015-05-02T11:09:56.0000000+00:00</time></trkpt><trkpt lat="34.9978964" lon="33.6452371"><ele>153.5</ele><time>2015-05-02T11:09:58.0000000+00:00</time></trkpt><trkpt lat="34.9979031" lon="33.6451669"><ele>151.9</ele><time>2015-05-02T11:10:00.0000000+00:00</time></trkpt><trkpt lat="34.997914" lon="33.6451042"><ele>150.5</ele><time>2015-05-02T11:10:01.0000000+00:00</time></trkpt><trkpt lat="34.9979376" lon="33.6449991"><ele>148.7</ele><time>2015-05-02T11:10:02.0000000+00:00</time></trkpt><trkpt lat="34.9979641" lon="33.6449478"><ele>147.4</ele><time>2015-05-02T11:10:03.0000000+00:00</time></trkpt><trkpt lat="34.9979923" lon="33.6448918"><ele>146.7</ele><time>2015-05-02T11:10:04.0000000+00:00</time></trkpt><trkpt lat="34.9980115" lon="33.6448348"><ele>145.4</ele><time>2015-05-02T11:10:05.0000000+00:00</time></trkpt><trkpt lat="34.9980373" lon="33.6447836"><ele>144.7</ele><time>2015-05-02T11:10:06.0000000+00:00</time></trkpt><trkpt lat="34.998078" lon="33.6446839"><ele>142.4</ele><time>2015-05-02T11:10:08.0000000+00:00</time></trkpt><trkpt lat="34.9981318" lon="33.6445949"><ele>140.4</ele><time>2015-05-02T11:10:10.0000000+00:00</time></trkpt><trkpt lat="34.9981599" lon="33.6445509"><ele>139.2</ele><time>2015-05-02T11:10:11.0000000+00:00</time></trkpt><trkpt lat="34.9982011" lon="33.6445117"><ele>138.1</ele><time>2015-05-02T11:10:12.0000000+00:00</time></trkpt><trkpt lat="34.9982456" lon="33.644471"><ele>137.1</ele><time>2015-05-02T11:10:13.0000000+00:00</time></trkpt><trkpt lat="34.9982855" lon="33.6444345"><ele>136.5</ele><time>2015-05-02T11:10:14.0000000+00:00</time></trkpt><trkpt lat="34.9983497" lon="33.644407"><ele>135.3</ele><time>2015-05-02T11:10:15.0000000+00:00</time></trkpt><trkpt lat="34.9983995" lon="33.6443639"><ele>134.2</ele><time>2015-05-02T11:10:16.0000000+00:00</time></trkpt><trkpt lat="34.998447" lon="33.6443491"><ele>133.6</ele><time>2015-05-02T11:10:17.0000000+00:00</time></trkpt><trkpt lat="34.9985015" lon="33.644339"><ele>133.3</ele><time>2015-05-02T11:10:18.0000000+00:00</time></trkpt><trkpt lat="34.998552" lon="33.6443437"><ele>133.2</ele><time>2015-05-02T11:10:19.0000000+00:00</time></trkpt><trkpt lat="34.998605" lon="33.6443439"><ele>133.1</ele><time>2015-05-02T11:10:20.0000000+00:00</time></trkpt><trkpt lat="34.9986609" lon="33.6443692"><ele>132.1</ele><time>2015-05-02T11:10:21.0000000+00:00</time></trkpt><trkpt lat="34.9987057" lon="33.6443785"><ele>131.5</ele><time>2015-05-02T11:10:22.0000000+00:00</time></trkpt><trkpt lat="34.9987639" lon="33.6443751"><ele>131.3</ele><time>2015-05-02T11:10:23.0000000+00:00</time></trkpt><trkpt lat="34.9988151" lon="33.644363"><ele>130.7</ele><time>2015-05-02T11:10:24.0000000+00:00</time></trkpt><trkpt lat="34.9988687" lon="33.6443295"><ele>130.2</ele><time>2015-05-02T11:10:26.0000000+00:00</time></trkpt><trkpt lat="34.9989077" lon="33.6442764"><ele>128.8</ele><time>2015-05-02T11:10:29.0000000+00:00</time></trkpt><trkpt lat="34.9989517" lon="33.6442066"><ele>126.5</ele><time>2015-05-02T11:10:48.0000000+00:00</time></trkpt><trkpt lat="34.9989893" lon="33.6441524"><ele>125.6</ele><time>2015-05-02T11:10:50.0000000+00:00</time></trkpt><trkpt lat="34.9990422" lon="33.644125"><ele>125.3</ele><time>2015-05-02T11:10:51.0000000+00:00</time></trkpt><trkpt lat="34.9990872" lon="33.6441208"><ele>124.7</ele><time>2015-05-02T11:10:52.0000000+00:00</time></trkpt><trkpt lat="34.9991373" lon="33.6441287"><ele>124.3</ele><time>2015-05-02T11:10:53.0000000+00:00</time></trkpt><trkpt lat="34.9991976" lon="33.6441525"><ele>124.2</ele><time>2015-05-02T11:10:54.0000000+00:00</time></trkpt><trkpt lat="34.9992454" lon="33.6441532"><ele>124.1</ele><time>2015-05-02T11:10:55.0000000+00:00</time></trkpt><trkpt lat="34.9993298" lon="33.6441687"><ele>123.3</ele><time>2015-05-02T11:10:57.0000000+00:00</time></trkpt><trkpt lat="34.9994006" lon="33.644197"><ele>122.3</ele><time>2015-05-02T11:10:59.0000000+00:00</time></trkpt><trkpt lat="34.9994438" lon="33.6442513"><ele>121.6</ele><time>2015-05-02T11:11:01.0000000+00:00</time></trkpt><trkpt lat="34.99946" lon="33.6443319"><ele>119.9</ele><time>2015-05-02T11:11:03.0000000+00:00</time></trkpt><trkpt lat="34.9994632" lon="33.6444352"><ele>118.2</ele><time>2015-05-02T11:11:05.0000000+00:00</time></trkpt><trkpt lat="34.9994608" lon="33.6445057"><ele>117.6</ele><time>2015-05-02T11:11:06.0000000+00:00</time></trkpt><trkpt lat="34.9994532" lon="33.644607"><ele>116.4</ele><time>2015-05-02T11:11:08.0000000+00:00</time></trkpt><trkpt lat="34.999434" lon="33.6446672"><ele>115.7</ele><time>2015-05-02T11:11:09.0000000+00:00</time></trkpt><trkpt lat="34.9994138" lon="33.6447179"><ele>114.9</ele><time>2015-05-02T11:11:10.0000000+00:00</time></trkpt><trkpt lat="34.9993897" lon="33.6447809"><ele>114.4</ele><time>2015-05-02T11:11:11.0000000+00:00</time></trkpt><trkpt lat="34.9993622" lon="33.6448423"><ele>113.2</ele><time>2015-05-02T11:11:12.0000000+00:00</time></trkpt><trkpt lat="34.9993374" lon="33.6448926"><ele>112.1</ele><time>2015-05-02T11:11:13.0000000+00:00</time></trkpt><trkpt lat="34.9993019" lon="33.6449478"><ele>111.6</ele><time>2015-05-02T11:11:14.0000000+00:00</time></trkpt><trkpt lat="34.9992384" lon="33.6450125"><ele>109.9</ele><time>2015-05-02T11:11:16.0000000+00:00</time></trkpt><trkpt lat="34.9991794" lon="33.6450749"><ele>108.7</ele><time>2015-05-02T11:11:18.0000000+00:00</time></trkpt><trkpt lat="34.9991415" lon="33.6451136"><ele>107.9</ele><time>2015-05-02T11:11:19.0000000+00:00</time></trkpt><trkpt lat="34.9991048" lon="33.6451579"><ele>107.5</ele><time>2015-05-02T11:11:20.0000000+00:00</time></trkpt><trkpt lat="34.9990402" lon="33.6452566"><ele>105.1</ele><time>2015-05-02T11:11:22.0000000+00:00</time></trkpt><trkpt lat="34.9990178" lon="33.6453127"><ele>104.6</ele><time>2015-05-02T11:11:23.0000000+00:00</time></trkpt><trkpt lat="34.9990069" lon="33.6453738"><ele>104.3</ele><time>2015-05-02T11:11:24.0000000+00:00</time></trkpt><trkpt lat="34.9990102" lon="33.6454403"><ele>104.2</ele><time>2015-05-02T11:11:25.0000000+00:00</time></trkpt><trkpt lat="34.9990392" lon="33.6454877"><ele>104.1</ele><time>2015-05-02T11:11:26.0000000+00:00</time></trkpt><trkpt lat="34.9990587" lon="33.645542"><ele>104.1</ele><time>2015-05-02T11:11:27.0000000+00:00</time></trkpt><trkpt lat="34.999081" lon="33.6455957"><ele>103.5</ele><time>2015-05-02T11:11:28.0000000+00:00</time></trkpt><trkpt lat="34.999126" lon="33.6456929"><ele>102.7</ele><time>2015-05-02T11:11:30.0000000+00:00</time></trkpt><trkpt lat="34.9991757" lon="33.645781"><ele>101.7</ele><time>2015-05-02T11:11:32.0000000+00:00</time></trkpt><trkpt lat="34.9992" lon="33.6458334"><ele>101.3</ele><time>2015-05-02T11:11:33.0000000+00:00</time></trkpt><trkpt lat="34.9992317" lon="33.645924"><ele>101.1</ele><time>2015-05-02T11:11:35.0000000+00:00</time></trkpt><trkpt lat="34.9992655" lon="33.6459908"><ele>101.0</ele><time>2015-05-02T11:11:37.0000000+00:00</time></trkpt><trkpt lat="34.9992983" lon="33.646051"><ele>101.0</ele><time>2015-05-02T11:11:39.0000000+00:00</time></trkpt><trkpt lat="34.9993277" lon="33.6461079"><ele>101.5</ele><time>2015-05-02T11:11:41.0000000+00:00</time></trkpt><trkpt lat="34.999372" lon="33.6461668"><ele>101.1</ele><time>2015-05-02T11:11:44.0000000+00:00</time></trkpt><trkpt lat="34.9994092" lon="33.6462062"><ele>101.8</ele><time>2015-05-02T11:11:46.0000000+00:00</time></trkpt><trkpt lat="34.9994681" lon="33.6462448"><ele>101.5</ele><time>2015-05-02T11:11:48.0000000+00:00</time></trkpt><trkpt lat="34.9995267" lon="33.646301"><ele>101.9</ele><time>2015-05-02T11:11:50.0000000+00:00</time></trkpt><trkpt lat="34.9995812" lon="33.6463598"><ele>102.7</ele><time>2015-05-02T11:11:52.0000000+00:00</time></trkpt><trkpt lat="34.9996233" lon="33.6464017"><ele>102.9</ele><time>2015-05-02T11:11:53.0000000+00:00</time></trkpt><trkpt lat="34.9996616" lon="33.6464411"><ele>102.9</ele><time>2015-05-02T11:11:54.0000000+00:00</time></trkpt><trkpt lat="34.9997112" lon="33.6464844"><ele>103.0</ele><time>2015-05-02T11:11:55.0000000+00:00</time></trkpt><trkpt lat="34.9997472" lon="33.6465252"><ele>103.0</ele><time>2015-05-02T11:11:56.0000000+00:00</time></trkpt><trkpt lat="34.9997827" lon="33.6465753"><ele>103.0</ele><time>2015-05-02T11:11:57.0000000+00:00</time></trkpt><trkpt lat="34.9998179" lon="33.6466171"><ele>103.0</ele><time>2015-05-02T11:11:58.0000000+00:00</time></trkpt><trkpt lat="34.9998505" lon="33.6466646"><ele>103.0</ele><time>2015-05-02T11:11:59.0000000+00:00</time></trkpt><trkpt lat="34.9998852" lon="33.6467133"><ele>103.0</ele><time>2015-05-02T11:12:00.0000000+00:00</time></trkpt><trkpt lat="34.9999197" lon="33.6467628"><ele>103.0</ele><time>2015-05-02T11:12:01.0000000+00:00</time></trkpt><trkpt lat="34.9999538" lon="33.6468147"><ele>103.0</ele><time>2015-05-02T11:12:02.0000000+00:00</time></trkpt><trkpt lat="34.999987" lon="33.6468644"><ele>103.0</ele><time>2015-05-02T11:12:03.0000000+00:00</time></trkpt><trkpt lat="35.0000203" lon="33.646919"><ele>103.0</ele><time>2015-05-02T11:12:04.0000000+00:00</time></trkpt><trkpt lat="35.0000542" lon="33.6469909"><ele>103.0</ele><time>2015-05-02T11:12:05.0000000+00:00</time></trkpt><trkpt lat="35.0000835" lon="33.6470464"><ele>102.5</ele><time>2015-05-02T11:12:06.0000000+00:00</time></trkpt><trkpt lat="35.000114" lon="33.6471109"><ele>102.8</ele><time>2015-05-02T11:12:07.0000000+00:00</time></trkpt><trkpt lat="35.0001501" lon="33.6471669"><ele>102.9</ele><time>2015-05-02T11:12:08.0000000+00:00</time></trkpt><trkpt lat="35.0001908" lon="33.647214"><ele>103.0</ele><time>2015-05-02T11:12:09.0000000+00:00</time></trkpt><trkpt lat="35.0002429" lon="33.64725"><ele>103.0</ele><time>2015-05-02T11:12:10.0000000+00:00</time></trkpt><trkpt lat="35.0003253" lon="33.6472519"><ele>102.8</ele><time>2015-05-02T11:12:12.0000000+00:00</time></trkpt><trkpt lat="35.0003649" lon="33.647225"><ele>102.9</ele><time>2015-05-02T11:12:13.0000000+00:00</time></trkpt><trkpt lat="35.0004208" lon="33.6471575"><ele>103.0</ele><time>2015-05-02T11:12:15.0000000+00:00</time></trkpt><trkpt lat="35.0004531" lon="33.6471159"><ele>103.0</ele><time>2015-05-02T11:12:16.0000000+00:00</time></trkpt><trkpt lat="35.0004733" lon="33.6470666"><ele>103.0</ele><time>2015-05-02T11:12:17.0000000+00:00</time></trkpt><trkpt lat="35.0005052" lon="33.6470129"><ele>103.0</ele><time>2015-05-02T11:12:18.0000000+00:00</time></trkpt><trkpt lat="35.0005592" lon="33.6469213"><ele>102.3</ele><time>2015-05-02T11:12:20.0000000+00:00</time></trkpt><trkpt lat="35.0005821" lon="33.6468612"><ele>101.6</ele><time>2015-05-02T11:12:21.0000000+00:00</time></trkpt><trkpt lat="35.0006074" lon="33.6468145"><ele>101.3</ele><time>2015-05-02T11:12:22.0000000+00:00</time></trkpt><trkpt lat="35.0006128" lon="33.6467549"><ele>101.2</ele><time>2015-05-02T11:12:23.0000000+00:00</time></trkpt><trkpt lat="35.0006232" lon="33.6466935"><ele>100.6</ele><time>2015-05-02T11:12:24.0000000+00:00</time></trkpt><trkpt lat="35.0006264" lon="33.6466343"><ele>100.3</ele><time>2015-05-02T11:12:25.0000000+00:00</time></trkpt><trkpt lat="35.0006174" lon="33.6465765"><ele>100.2</ele><time>2015-05-02T11:12:26.0000000+00:00</time></trkpt><trkpt lat="35.0006024" lon="33.6465238"><ele>100.1</ele><time>2015-05-02T11:12:27.0000000+00:00</time></trkpt><trkpt lat="35.0005872" lon="33.6464687"><ele>99.6</ele><time>2015-05-02T11:12:28.0000000+00:00</time></trkpt><trkpt lat="35.0005645" lon="33.646411"><ele>99.3</ele><time>2015-05-02T11:12:29.0000000+00:00</time></trkpt><trkpt lat="35.0005311" lon="33.6463328"><ele>99.1</ele><time>2015-05-02T11:12:31.0000000+00:00</time></trkpt><trkpt lat="35.0004804" lon="33.6462541"><ele>99.5</ele><time>2015-05-02T11:12:33.0000000+00:00</time></trkpt><trkpt lat="35.0004306" lon="33.6461712"><ele>99.9</ele><time>2015-05-02T11:12:35.0000000+00:00</time></trkpt><trkpt lat="35.000404" lon="33.6461254"><ele>100.0</ele><time>2015-05-02T11:12:36.0000000+00:00</time></trkpt><trkpt lat="35.0003731" lon="33.6460848"><ele>100.5</ele><time>2015-05-02T11:12:37.0000000+00:00</time></trkpt><trkpt lat="35.0003159" lon="33.6460176"><ele>100.9</ele><time>2015-05-02T11:12:39.0000000+00:00</time></trkpt><trkpt lat="35.0002553" lon="33.645947"><ele>101.0</ele><time>2015-05-02T11:12:41.0000000+00:00</time></trkpt><trkpt lat="35.0002151" lon="33.6459102"><ele>101.0</ele><time>2015-05-02T11:12:42.0000000+00:00</time></trkpt><trkpt lat="35.0001486" lon="33.6458437"><ele>101.0</ele><time>2015-05-02T11:12:44.0000000+00:00</time></trkpt><trkpt lat="35.0000829" lon="33.6457922"><ele>101.0</ele><time>2015-05-02T11:12:46.0000000+00:00</time></trkpt><trkpt lat="35.0000298" lon="33.6457334"><ele>101.0</ele><time>2015-05-02T11:12:48.0000000+00:00</time></trkpt><trkpt lat="34.9999848" lon="33.6456874"><ele>101.5</ele><time>2015-05-02T11:12:50.0000000+00:00</time></trkpt><trkpt lat="34.9999509" lon="33.6456451"><ele>101.9</ele><time>2015-05-02T11:12:52.0000000+00:00</time></trkpt><trkpt lat="34.9999092" lon="33.645595"><ele>102.0</ele><time>2015-05-02T11:12:54.0000000+00:00</time></trkpt><trkpt lat="34.9998783" lon="33.6455456"><ele>102.0</ele><time>2015-05-02T11:12:56.0000000+00:00</time></trkpt><trkpt lat="34.9998609" lon="33.6454925"><ele>102.0</ele><time>2015-05-02T11:12:58.0000000+00:00</time></trkpt><trkpt lat="34.9998571" lon="33.6454325"><ele>102.8</ele><time>2015-05-02T11:13:00.0000000+00:00</time></trkpt><trkpt lat="34.9998656" lon="33.6453699"><ele>103.0</ele><time>2015-05-02T11:13:02.0000000+00:00</time></trkpt><trkpt lat="34.9998826" lon="33.645305"><ele>103.0</ele><time>2015-05-02T11:13:04.0000000+00:00</time></trkpt><trkpt lat="34.9999018" lon="33.645243"><ele>101.8</ele><time>2015-05-02T11:13:06.0000000+00:00</time></trkpt><trkpt lat="34.9998987" lon="33.6451762"><ele>101.0</ele><time>2015-05-02T11:13:08.0000000+00:00</time></trkpt><trkpt lat="34.999881" lon="33.6451025"><ele>100.8</ele><time>2015-05-02T11:13:10.0000000+00:00</time></trkpt><trkpt lat="34.9998575" lon="33.6450324"><ele>100.2</ele><time>2015-05-02T11:13:12.0000000+00:00</time></trkpt><trkpt lat="34.9998393" lon="33.644966"><ele>100.6</ele><time>2015-05-02T11:13:14.0000000+00:00</time></trkpt><trkpt lat="34.9998232" lon="33.6448899"><ele>100.2</ele><time>2015-05-02T11:13:17.0000000+00:00</time></trkpt><trkpt lat="34.999822" lon="33.6448117"><ele>101.0</ele><time>2015-05-02T11:13:20.0000000+00:00</time></trkpt><trkpt lat="34.9998349" lon="33.6447486"><ele>101.8</ele><time>2015-05-02T11:13:22.0000000+00:00</time></trkpt><trkpt lat="34.9998632" lon="33.6446971"><ele>102.0</ele><time>2015-05-02T11:13:24.0000000+00:00</time></trkpt><trkpt lat="34.9999006" lon="33.6446523"><ele>102.0</ele><time>2015-05-02T11:13:26.0000000+00:00</time></trkpt><trkpt lat="34.9999401" lon="33.6446091"><ele>102.3</ele><time>2015-05-02T11:13:28.0000000+00:00</time></trkpt><trkpt lat="34.9999792" lon="33.6445721"><ele>102.3</ele><time>2015-05-02T11:13:30.0000000+00:00</time></trkpt><trkpt lat="35.0000196" lon="33.6445373"><ele>102.6</ele><time>2015-05-02T11:13:32.0000000+00:00</time></trkpt><trkpt lat="35.0000682" lon="33.6445074"><ele>102.2</ele><time>2015-05-02T11:13:34.0000000+00:00</time></trkpt><trkpt lat="35.0001396" lon="33.6445027"><ele>102.1</ele><time>2015-05-02T11:13:36.0000000+00:00</time></trkpt><trkpt lat="35.0002018" lon="33.6445301"><ele>102.5</ele><time>2015-05-02T11:13:38.0000000+00:00</time></trkpt><trkpt lat="35.0002556" lon="33.644567"><ele>102.9</ele><time>2015-05-02T11:13:40.0000000+00:00</time></trkpt><trkpt lat="35.0003079" lon="33.6445884"><ele>103.7</ele><time>2015-05-02T11:13:42.0000000+00:00</time></trkpt><trkpt lat="35.0003651" lon="33.6445909"><ele>104.0</ele><time>2015-05-02T11:13:45.0000000+00:00</time></trkpt><trkpt lat="35.0004067" lon="33.6445637"><ele>102.8</ele><time>2015-05-02T11:14:04.0000000+00:00</time></trkpt><trkpt lat="35.0004581" lon="33.6445321"><ele>102.2</ele><time>2015-05-02T11:14:06.0000000+00:00</time></trkpt><trkpt lat="35.0005069" lon="33.6444963"><ele>101.6</ele><time>2015-05-02T11:14:08.0000000+00:00</time></trkpt><trkpt lat="35.0005574" lon="33.6444545"><ele>101.2</ele><time>2015-05-02T11:14:10.0000000+00:00</time></trkpt><trkpt lat="35.0006255" lon="33.644401"><ele>100.3</ele><time>2015-05-02T11:14:12.0000000+00:00</time></trkpt><trkpt lat="35.0007026" lon="33.6443686"><ele>100.1</ele><time>2015-05-02T11:14:14.0000000+00:00</time></trkpt><trkpt lat="35.0007764" lon="33.644358"><ele>100.0</ele><time>2015-05-02T11:14:16.0000000+00:00</time></trkpt><trkpt lat="35.0008481" lon="33.6443538"><ele>100.3</ele><time>2015-05-02T11:14:18.0000000+00:00</time></trkpt><trkpt lat="35.0009225" lon="33.644359"><ele>100.1</ele><time>2015-05-02T11:14:20.0000000+00:00</time></trkpt><trkpt lat="35.0009999" lon="33.6443663"><ele>100.3</ele><time>2015-05-02T11:14:22.0000000+00:00</time></trkpt><trkpt lat="35.0010802" lon="33.6443718"><ele>100.6</ele><time>2015-05-02T11:14:24.0000000+00:00</time></trkpt><trkpt lat="35.001161" lon="33.6443737"><ele>100.9</ele><time>2015-05-02T11:14:26.0000000+00:00</time></trkpt><trkpt lat="35.0012518" lon="33.6443852"><ele>101.5</ele><time>2015-05-02T11:14:28.0000000+00:00</time></trkpt><trkpt lat="35.0013008" lon="33.644393"><ele>101.8</ele><time>2015-05-02T11:14:29.0000000+00:00</time></trkpt><trkpt lat="35.0013514" lon="33.6444034"><ele>101.4</ele><time>2015-05-02T11:14:30.0000000+00:00</time></trkpt><trkpt lat="35.0013989" lon="33.6444079"><ele>101.2</ele><time>2015-05-02T11:14:31.0000000+00:00</time></trkpt><trkpt lat="35.0014482" lon="33.6443959"><ele>101.1</ele><time>2015-05-02T11:14:32.0000000+00:00</time></trkpt><trkpt lat="35.0015317" lon="33.6443441"><ele>100.3</ele><time>2015-05-02T11:14:34.0000000+00:00</time></trkpt><trkpt lat="35.0016038" lon="33.6442698"><ele>100.1</ele><time>2015-05-02T11:14:36.0000000+00:00</time></trkpt><trkpt lat="35.0016449" lon="33.6442054"><ele>100.1</ele><time>2015-05-02T11:14:37.0000000+00:00</time></trkpt><trkpt lat="35.0016806" lon="33.6441522"><ele>99.5</ele><time>2015-05-02T11:14:38.0000000+00:00</time></trkpt><trkpt lat="35.0017306" lon="33.6440989"><ele>99.3</ele><time>2015-05-02T11:14:39.0000000+00:00</time></trkpt><trkpt lat="35.0017908" lon="33.644045"><ele>98.7</ele><time>2015-05-02T11:14:40.0000000+00:00</time></trkpt><trkpt lat="35.0018451" lon="33.6439962"><ele>98.3</ele><time>2015-05-02T11:14:41.0000000+00:00</time></trkpt><trkpt lat="35.0018974" lon="33.6439364"><ele>98.2</ele><time>2015-05-02T11:14:42.0000000+00:00</time></trkpt><trkpt lat="35.0019403" lon="33.6438841"><ele>98.1</ele><time>2015-05-02T11:14:43.0000000+00:00</time></trkpt><trkpt lat="35.0019837" lon="33.643828"><ele>97.6</ele><time>2015-05-02T11:14:44.0000000+00:00</time></trkpt><trkpt lat="35.0020365" lon="33.6437767"><ele>97.3</ele><time>2015-05-02T11:14:45.0000000+00:00</time></trkpt><trkpt lat="35.0020888" lon="33.6437447"><ele>96.7</ele><time>2015-05-02T11:14:46.0000000+00:00</time></trkpt><trkpt lat="35.0021536" lon="33.6437128"><ele>96.3</ele><time>2015-05-02T11:14:47.0000000+00:00</time></trkpt><trkpt lat="35.0022188" lon="33.643695"><ele>96.2</ele><time>2015-05-02T11:14:48.0000000+00:00</time></trkpt><trkpt lat="35.0022811" lon="33.6436796"><ele>96.1</ele><time>2015-05-02T11:14:49.0000000+00:00</time></trkpt><trkpt lat="35.0023564" lon="33.6436625"><ele>95.6</ele><time>2015-05-02T11:14:50.0000000+00:00</time></trkpt><trkpt lat="35.0024297" lon="33.6436458"><ele>95.3</ele><time>2015-05-02T11:14:51.0000000+00:00</time></trkpt><trkpt lat="35.0025114" lon="33.6436319"><ele>94.7</ele><time>2015-05-02T11:14:52.0000000+00:00</time></trkpt><trkpt lat="35.0026011" lon="33.6436204"><ele>94.3</ele><time>2015-05-02T11:14:53.0000000+00:00</time></trkpt><trkpt lat="35.0026835" lon="33.6436052"><ele>94.2</ele><time>2015-05-02T11:14:54.0000000+00:00</time></trkpt><trkpt lat="35.0027725" lon="33.6435954"><ele>94.1</ele><time>2015-05-02T11:14:55.0000000+00:00</time></trkpt><trkpt lat="35.0028657" lon="33.6435877"><ele>94.1</ele><time>2015-05-02T11:14:56.0000000+00:00</time></trkpt><trkpt lat="35.0029414" lon="33.6435866"><ele>93.5</ele><time>2015-05-02T11:14:57.0000000+00:00</time></trkpt><trkpt lat="35.0030308" lon="33.6435922"><ele>93.3</ele><time>2015-05-02T11:14:58.0000000+00:00</time></trkpt><trkpt lat="35.0031058" lon="33.6435968"><ele>93.2</ele><time>2015-05-02T11:14:59.0000000+00:00</time></trkpt><trkpt lat="35.0031853" lon="33.6435916"><ele>93.1</ele><time>2015-05-02T11:15:00.0000000+00:00</time></trkpt><trkpt lat="35.0032664" lon="33.6435888"><ele>92.6</ele><time>2015-05-02T11:15:01.0000000+00:00</time></trkpt><trkpt lat="35.0033265" lon="33.6435804"><ele>92.3</ele><time>2015-05-02T11:15:02.0000000+00:00</time></trkpt><trkpt lat="35.0033792" lon="33.6435711"><ele>91.7</ele><time>2015-05-02T11:15:03.0000000+00:00</time></trkpt><trkpt lat="35.0034244" lon="33.643563"><ele>91.3</ele><time>2015-05-02T11:15:04.0000000+00:00</time></trkpt><trkpt lat="35.0034828" lon="33.6435569"><ele>91.9</ele><time>2015-05-02T11:15:06.0000000+00:00</time></trkpt><trkpt lat="35.0035292" lon="33.6435289"><ele>91.8</ele><time>2015-05-02T11:15:10.0000000+00:00</time></trkpt><trkpt lat="35.0035334" lon="33.6434667"><ele>91.6</ele><time>2015-05-02T11:16:59.0000000+00:00</time></trkpt><trkpt lat="35.0035282" lon="33.6434031"><ele>90.4</ele><time>2015-05-02T11:17:01.0000000+00:00</time></trkpt><trkpt lat="35.0035286" lon="33.6433448"><ele>89.4</ele><time>2015-05-02T11:17:03.0000000+00:00</time></trkpt><trkpt lat="35.0035463" lon="33.643273"><ele>88.3</ele><time>2015-05-02T11:17:06.0000000+00:00</time></trkpt><trkpt lat="35.0035699" lon="33.6432253"><ele>88.1</ele><time>2015-05-02T11:17:09.0000000+00:00</time></trkpt><trkpt lat="35.0036018" lon="33.643176"><ele>89.0</ele><time>2015-05-02T11:17:24.0000000+00:00</time></trkpt><trkpt lat="35.0036381" lon="33.6431071"><ele>86.9</ele><time>2015-05-02T11:17:27.0000000+00:00</time></trkpt><trkpt lat="35.0036595" lon="33.6430576"><ele>86.0</ele><time>2015-05-02T11:17:28.0000000+00:00</time></trkpt><trkpt lat="35.0037011" lon="33.6429738"><ele>84.0</ele><time>2015-05-02T11:17:30.0000000+00:00</time></trkpt><trkpt lat="35.0037471" lon="33.642906"><ele>82.0</ele><time>2015-05-02T11:17:32.0000000+00:00</time></trkpt><trkpt lat="35.0037988" lon="33.6428372"><ele>80.5</ele><time>2015-05-02T11:17:34.0000000+00:00</time></trkpt><trkpt lat="35.0038376" lon="33.6427602"><ele>78.9</ele><time>2015-05-02T11:17:36.0000000+00:00</time></trkpt><trkpt lat="35.0038529" lon="33.6427073"><ele>78.2</ele><time>2015-05-02T11:17:38.0000000+00:00</time></trkpt><trkpt lat="35.0039013" lon="33.6426604"><ele>77.3</ele><time>2015-05-02T11:17:42.0000000+00:00</time></trkpt><trkpt lat="35.0039478" lon="33.6426518"><ele>77.8</ele><time>2015-05-02T11:17:44.0000000+00:00</time></trkpt><trkpt lat="35.0040005" lon="33.642673"><ele>78.5</ele><time>2015-05-02T11:17:47.0000000+00:00</time></trkpt><trkpt lat="35.0040433" lon="33.6427098"><ele>79.0</ele><time>2015-05-02T11:17:50.0000000+00:00</time></trkpt><trkpt lat="35.0040902" lon="33.6427292"><ele>79.0</ele><time>2015-05-02T11:17:53.0000000+00:00</time></trkpt><trkpt lat="35.0041381" lon="33.6427478"><ele>79.9</ele><time>2015-05-02T11:17:56.0000000+00:00</time></trkpt><trkpt lat="35.0041914" lon="33.6427679"><ele>80.0</ele><time>2015-05-02T11:17:59.0000000+00:00</time></trkpt><trkpt lat="35.0042561" lon="33.6427977"><ele>79.3</ele><time>2015-05-02T11:18:02.0000000+00:00</time></trkpt><trkpt lat="35.0042992" lon="33.6428169"><ele>79.1</ele><time>2015-05-02T11:18:04.0000000+00:00</time></trkpt><trkpt lat="35.0043476" lon="33.6428383"><ele>77.8</ele><time>2015-05-02T11:18:06.0000000+00:00</time></trkpt><trkpt lat="35.0044257" lon="33.6428667"><ele>76.0</ele><time>2015-05-02T11:18:08.0000000+00:00</time></trkpt><trkpt lat="35.0045024" lon="33.6428845"><ele>74.0</ele><time>2015-05-02T11:18:10.0000000+00:00</time></trkpt><trkpt lat="35.0045732" lon="33.6428975"><ele>73.3</ele><time>2015-05-02T11:18:12.0000000+00:00</time></trkpt><trkpt lat="35.0046445" lon="33.6429175"><ele>71.8</ele><time>2015-05-02T11:18:14.0000000+00:00</time></trkpt><trkpt lat="35.004717" lon="33.6429421"><ele>70.7</ele><time>2015-05-02T11:18:16.0000000+00:00</time></trkpt><trkpt lat="35.0047819" lon="33.6429621"><ele>69.7</ele><time>2015-05-02T11:18:18.0000000+00:00</time></trkpt><trkpt lat="35.0048454" lon="33.6429863"><ele>69.1</ele><time>2015-05-02T11:18:21.0000000+00:00</time></trkpt><trkpt lat="35.0048831" lon="33.6430216"><ele>68.5</ele><time>2015-05-02T11:18:40.0000000+00:00</time></trkpt><trkpt lat="35.0048974" lon="33.64308"><ele>64.3</ele><time>2015-05-02T11:18:53.0000000+00:00</time></trkpt><trkpt lat="35.004908" lon="33.6431339"><ele>61.7</ele><time>2015-05-02T11:18:58.0000000+00:00</time></trkpt><trkpt lat="35.0049277" lon="33.6431833"><ele>59.2</ele><time>2015-05-02T11:19:08.0000000+00:00</time></trkpt><trkpt lat="35.0049636" lon="33.6432217"><ele>56.0</ele><time>2015-05-02T11:19:17.0000000+00:00</time></trkpt><trkpt lat="35.0050096" lon="33.643259"><ele>55.3</ele><time>2015-05-02T11:19:19.0000000+00:00</time></trkpt><trkpt lat="35.0050665" lon="33.6432477"><ele>54.3</ele><time>2015-05-02T11:19:26.0000000+00:00</time></trkpt><trkpt lat="35.005094" lon="33.6432031"><ele>54.1</ele><time>2015-05-02T11:19:28.0000000+00:00</time></trkpt><trkpt lat="35.0051157" lon="33.6431319"><ele>54.0</ele><time>2015-05-02T11:19:31.0000000+00:00</time></trkpt><trkpt lat="35.0051366" lon="33.6430794"><ele>54.0</ele><time>2015-05-02T11:19:33.0000000+00:00</time></trkpt><trkpt lat="35.0051578" lon="33.6430281"><ele>54.0</ele><time>2015-05-02T11:19:35.0000000+00:00</time></trkpt><trkpt lat="35.005185" lon="33.6429752"><ele>54.0</ele><time>2015-05-02T11:19:37.0000000+00:00</time></trkpt><trkpt lat="35.0052104" lon="33.6429284"><ele>54.8</ele><time>2015-05-02T11:19:39.0000000+00:00</time></trkpt><trkpt lat="35.0052423" lon="33.6428865"><ele>56.7</ele><time>2015-05-02T11:19:46.0000000+00:00</time></trkpt><trkpt lat="35.0052679" lon="33.6428364"><ele>57.9</ele><time>2015-05-02T11:19:50.0000000+00:00</time></trkpt><trkpt lat="35.0052838" lon="33.6427769"><ele>58.1</ele><time>2015-05-02T11:19:55.0000000+00:00</time></trkpt><trkpt lat="35.0052794" lon="33.6427133"><ele>57.6</ele><time>2015-05-02T11:20:00.0000000+00:00</time></trkpt><trkpt lat="35.0052769" lon="33.6426479"><ele>58.4</ele><time>2015-05-02T11:20:05.0000000+00:00</time></trkpt><trkpt lat="35.0052755" lon="33.6425877"><ele>59.9</ele><time>2015-05-02T11:20:10.0000000+00:00</time></trkpt><trkpt lat="35.0052659" lon="33.642523"><ele>61.5</ele><time>2015-05-02T11:20:15.0000000+00:00</time></trkpt><trkpt lat="35.0052543" lon="33.6424695"><ele>62.7</ele><time>2015-05-02T11:20:19.0000000+00:00</time></trkpt><trkpt lat="35.0052441" lon="33.6424124"><ele>63.0</ele><time>2015-05-02T11:20:23.0000000+00:00</time></trkpt><trkpt lat="35.0052342" lon="33.642355"><ele>63.5</ele><time>2015-05-02T11:20:27.0000000+00:00</time></trkpt><trkpt lat="35.005229" lon="33.6422997"><ele>63.9</ele><time>2015-05-02T11:20:31.0000000+00:00</time></trkpt><trkpt lat="35.0052479" lon="33.6422418"><ele>64.3</ele><time>2015-05-02T11:20:35.0000000+00:00</time></trkpt><trkpt lat="35.0052481" lon="33.6421749"><ele>64.0</ele><time>2015-05-02T11:20:40.0000000+00:00</time></trkpt><trkpt lat="35.0052653" lon="33.6421197"><ele>64.5</ele><time>2015-05-02T11:20:45.0000000+00:00</time></trkpt><trkpt lat="35.0052968" lon="33.6420698"><ele>64.1</ele><time>2015-05-02T11:20:50.0000000+00:00</time></trkpt><trkpt lat="35.0053084" lon="33.6420154"><ele>65.0</ele><time>2015-05-02T11:20:54.0000000+00:00</time></trkpt><trkpt lat="35.0053381" lon="33.6419716"><ele>65.6</ele><time>2015-05-02T11:20:58.0000000+00:00</time></trkpt><trkpt lat="35.0053775" lon="33.6420145"><ele>68.0</ele><time>2015-05-02T11:21:07.0000000+00:00</time></trkpt><trkpt lat="35.0053809" lon="33.6420791"><ele>68.8</ele><time>2015-05-02T11:21:09.0000000+00:00</time></trkpt><trkpt lat="35.0053787" lon="33.6421589"><ele>69.0</ele><time>2015-05-02T11:21:11.0000000+00:00</time></trkpt><trkpt lat="35.0053806" lon="33.6422493"><ele>69.0</ele><time>2015-05-02T11:21:13.0000000+00:00</time></trkpt><trkpt lat="35.0053915" lon="33.6423455"><ele>69.0</ele><time>2015-05-02T11:21:15.0000000+00:00</time></trkpt><trkpt lat="35.0054137" lon="33.6424417"><ele>69.0</ele><time>2015-05-02T11:21:17.0000000+00:00</time></trkpt><trkpt lat="35.0054414" lon="33.6425367"><ele>69.0</ele><time>2015-05-02T11:21:19.0000000+00:00</time></trkpt><trkpt lat="35.0054708" lon="33.642636"><ele>69.0</ele><time>2015-05-02T11:21:21.0000000+00:00</time></trkpt><trkpt lat="35.0054849" lon="33.6427018"><ele>69.0</ele><time>2015-05-02T11:21:22.0000000+00:00</time></trkpt><trkpt lat="35.00551" lon="33.6428068"><ele>69.0</ele><time>2015-05-02T11:21:24.0000000+00:00</time></trkpt><trkpt lat="35.0055308" lon="33.6428666"><ele>69.0</ele><time>2015-05-02T11:21:25.0000000+00:00</time></trkpt><trkpt lat="35.0055496" lon="33.6429226"><ele>69.0</ele><time>2015-05-02T11:21:26.0000000+00:00</time></trkpt><trkpt lat="35.005569" lon="33.6429749"><ele>69.0</ele><time>2015-05-02T11:21:27.0000000+00:00</time></trkpt><trkpt lat="35.0055938" lon="33.6430256"><ele>68.5</ele><time>2015-05-02T11:21:28.0000000+00:00</time></trkpt><trkpt lat="35.005654" lon="33.6430879"><ele>68.4</ele><time>2015-05-02T11:21:30.0000000+00:00</time></trkpt><trkpt lat="35.0056965" lon="33.6431062"><ele>68.2</ele><time>2015-05-02T11:21:31.0000000+00:00</time></trkpt><trkpt lat="35.0057928" lon="33.6431036"><ele>66.8</ele><time>2015-05-02T11:21:33.0000000+00:00</time></trkpt><trkpt lat="35.005855" lon="33.643084"><ele>66.9</ele><time>2015-05-02T11:21:34.0000000+00:00</time></trkpt><trkpt lat="35.0059108" lon="33.6430443"><ele>67.0</ele><time>2015-05-02T11:21:35.0000000+00:00</time></trkpt><trkpt lat="35.0059655" lon="33.6430023"><ele>66.5</ele><time>2015-05-02T11:21:36.0000000+00:00</time></trkpt><trkpt lat="35.006015" lon="33.6429568"><ele>66.3</ele><time>2015-05-02T11:21:37.0000000+00:00</time></trkpt><trkpt lat="35.006067" lon="33.6429008"><ele>66.1</ele><time>2015-05-02T11:21:38.0000000+00:00</time></trkpt><trkpt lat="35.0061132" lon="33.6428507"><ele>66.1</ele><time>2015-05-02T11:21:39.0000000+00:00</time></trkpt><trkpt lat="35.0061669" lon="33.6427978"><ele>66.1</ele><time>2015-05-02T11:21:40.0000000+00:00</time></trkpt><trkpt lat="35.0062239" lon="33.6427569"><ele>66.0</ele><time>2015-05-02T11:21:41.0000000+00:00</time></trkpt><trkpt lat="35.0062774" lon="33.6427185"><ele>66.5</ele><time>2015-05-02T11:21:42.0000000+00:00</time></trkpt><trkpt lat="35.0063299" lon="33.6426835"><ele>66.8</ele><time>2015-05-02T11:21:43.0000000+00:00</time></trkpt><trkpt lat="35.0063772" lon="33.6426408"><ele>66.9</ele><time>2015-05-02T11:21:44.0000000+00:00</time></trkpt><trkpt lat="35.006419" lon="33.6426047"><ele>67.0</ele><time>2015-05-02T11:21:45.0000000+00:00</time></trkpt><trkpt lat="35.0064671" lon="33.6425651"><ele>67.0</ele><time>2015-05-02T11:21:46.0000000+00:00</time></trkpt><trkpt lat="35.006512" lon="33.6425327"><ele>66.5</ele><time>2015-05-02T11:21:47.0000000+00:00</time></trkpt><trkpt lat="35.0065715" lon="33.6425073"><ele>66.3</ele><time>2015-05-02T11:21:48.0000000+00:00</time></trkpt><trkpt lat="35.0066122" lon="33.6424729"><ele>66.6</ele><time>2015-05-02T11:21:49.0000000+00:00</time></trkpt><trkpt lat="35.0066969" lon="33.6424149"><ele>66.9</ele><time>2015-05-02T11:21:51.0000000+00:00</time></trkpt><trkpt lat="35.0067374" lon="33.6423765"><ele>67.0</ele><time>2015-05-02T11:21:52.0000000+00:00</time></trkpt><trkpt lat="35.0067838" lon="33.6423408"><ele>66.5</ele><time>2015-05-02T11:21:53.0000000+00:00</time></trkpt><trkpt lat="35.0068266" lon="33.6423068"><ele>65.8</ele><time>2015-05-02T11:21:54.0000000+00:00</time></trkpt><trkpt lat="35.006883" lon="33.6422462"><ele>65.2</ele><time>2015-05-02T11:21:56.0000000+00:00</time></trkpt><trkpt lat="35.0069421" lon="33.6421811"><ele>65.1</ele><time>2015-05-02T11:21:58.0000000+00:00</time></trkpt><trkpt lat="35.0069736" lon="33.642134"><ele>65.0</ele><time>2015-05-02T11:21:59.0000000+00:00</time></trkpt><trkpt lat="35.007" lon="33.6420864"><ele>65.5</ele><time>2015-05-02T11:22:00.0000000+00:00</time></trkpt><trkpt lat="35.007029" lon="33.6419873"><ele>65.4</ele><time>2015-05-02T11:22:02.0000000+00:00</time></trkpt><trkpt lat="35.0070534" lon="33.6419039"><ele>65.9</ele><time>2015-05-02T11:22:04.0000000+00:00</time></trkpt><trkpt lat="35.0070975" lon="33.6418372"><ele>65.7</ele><time>2015-05-02T11:22:06.0000000+00:00</time></trkpt><trkpt lat="35.0071406" lon="33.6417734"><ele>66.4</ele><time>2015-05-02T11:22:08.0000000+00:00</time></trkpt><trkpt lat="35.0071829" lon="33.6417063"><ele>67.4</ele><time>2015-05-02T11:22:10.0000000+00:00</time></trkpt><trkpt lat="35.0072444" lon="33.6416591"><ele>67.9</ele><time>2015-05-02T11:22:12.0000000+00:00</time></trkpt><trkpt lat="35.0073136" lon="33.6416224"><ele>68.0</ele><time>2015-05-02T11:22:14.0000000+00:00</time></trkpt><trkpt lat="35.0073887" lon="33.6415982"><ele>68.3</ele><time>2015-05-02T11:22:16.0000000+00:00</time></trkpt><trkpt lat="35.0074577" lon="33.6415789"><ele>68.1</ele><time>2015-05-02T11:22:18.0000000+00:00</time></trkpt><trkpt lat="35.007501" lon="33.6415634"><ele>67.5</ele><time>2015-05-02T11:22:20.0000000+00:00</time></trkpt><trkpt lat="35.0075615" lon="33.6415707"><ele>67.2</ele><time>2015-05-02T11:22:39.0000000+00:00</time></trkpt><trkpt lat="35.0076153" lon="33.6415582"><ele>66.3</ele><time>2015-05-02T11:22:41.0000000+00:00</time></trkpt><trkpt lat="35.0076774" lon="33.6415384"><ele>65.3</ele><time>2015-05-02T11:22:43.0000000+00:00</time></trkpt><trkpt lat="35.0077405" lon="33.6415011"><ele>65.9</ele><time>2015-05-02T11:22:45.0000000+00:00</time></trkpt><trkpt lat="35.0077961" lon="33.6414446"><ele>66.0</ele><time>2015-05-02T11:22:47.0000000+00:00</time></trkpt><trkpt lat="35.0078468" lon="33.6413739"><ele>66.0</ele><time>2015-05-02T11:22:49.0000000+00:00</time></trkpt><trkpt lat="35.0078876" lon="33.6412931"><ele>66.0</ele><time>2015-05-02T11:22:51.0000000+00:00</time></trkpt><trkpt lat="35.0079349" lon="33.6411487"><ele>66.0</ele><time>2015-05-02T11:22:53.0000000+00:00</time></trkpt><trkpt lat="35.0079737" lon="33.6410447"><ele>65.3</ele><time>2015-05-02T11:22:55.0000000+00:00</time></trkpt><trkpt lat="35.0080115" lon="33.640952"><ele>65.1</ele><time>2015-05-02T11:22:57.0000000+00:00</time></trkpt><trkpt lat="35.0080464" lon="33.6408591"><ele>65.0</ele><time>2015-05-02T11:22:59.0000000+00:00</time></trkpt><trkpt lat="35.0080654" lon="33.6407996"><ele>65.5</ele><time>2015-05-02T11:23:00.0000000+00:00</time></trkpt><trkpt lat="35.0080845" lon="33.6407442"><ele>66.3</ele><time>2015-05-02T11:23:01.0000000+00:00</time></trkpt><trkpt lat="35.0081193" lon="33.6406473"><ele>66.6</ele><time>2015-05-02T11:23:03.0000000+00:00</time></trkpt><trkpt lat="35.0081502" lon="33.6405552"><ele>67.4</ele><time>2015-05-02T11:23:05.0000000+00:00</time></trkpt><trkpt lat="35.0081766" lon="33.6404626"><ele>68.4</ele><time>2015-05-02T11:23:07.0000000+00:00</time></trkpt><trkpt lat="35.0081962" lon="33.6404108"><ele>69.2</ele><time>2015-05-02T11:23:08.0000000+00:00</time></trkpt><trkpt lat="35.0082322" lon="33.6403371"><ele>69.6</ele><time>2015-05-02T11:23:10.0000000+00:00</time></trkpt><trkpt lat="35.0082505" lon="33.6402731"><ele>69.9</ele><time>2015-05-02T11:23:12.0000000+00:00</time></trkpt><trkpt lat="35.0082752" lon="33.6402025"><ele>68.8</ele><time>2015-05-02T11:23:15.0000000+00:00</time></trkpt><trkpt lat="35.0083177" lon="33.6401387"><ele>68.1</ele><time>2015-05-02T11:23:18.0000000+00:00</time></trkpt><trkpt lat="35.0083498" lon="33.6400882"><ele>68.0</ele><time>2015-05-02T11:23:20.0000000+00:00</time></trkpt><trkpt lat="35.0083786" lon="33.6400152"><ele>68.8</ele><time>2015-05-02T11:23:22.0000000+00:00</time></trkpt><trkpt lat="35.0084153" lon="33.6399291"><ele>69.0</ele><time>2015-05-02T11:23:24.0000000+00:00</time></trkpt><trkpt lat="35.0084529" lon="33.6398479"><ele>68.3</ele><time>2015-05-02T11:23:26.0000000+00:00</time></trkpt><trkpt lat="35.0084986" lon="33.6397763"><ele>68.1</ele><time>2015-05-02T11:23:28.0000000+00:00</time></trkpt><trkpt lat="35.0085576" lon="33.6397191"><ele>67.3</ele><time>2015-05-02T11:23:30.0000000+00:00</time></trkpt><trkpt lat="35.0086208" lon="33.6396757"><ele>67.1</ele><time>2015-05-02T11:23:32.0000000+00:00</time></trkpt><trkpt lat="35.0086782" lon="33.6396388"><ele>68.3</ele><time>2015-05-02T11:23:34.0000000+00:00</time></trkpt><trkpt lat="35.0087242" lon="33.6396174"><ele>68.1</ele><time>2015-05-02T11:23:36.0000000+00:00</time></trkpt><trkpt lat="35.0087758" lon="33.6395943"><ele>68.8</ele><time>2015-05-02T11:23:39.0000000+00:00</time></trkpt><trkpt lat="35.0088195" lon="33.6395771"><ele>69.7</ele><time>2015-05-02T11:23:41.0000000+00:00</time></trkpt><trkpt lat="35.008872" lon="33.6395558"><ele>69.7</ele><time>2015-05-02T11:23:43.0000000+00:00</time></trkpt><trkpt lat="35.008925" lon="33.6395188"><ele>69.4</ele><time>2015-05-02T11:23:45.0000000+00:00</time></trkpt><trkpt lat="35.0089818" lon="33.6394672"><ele>70.1</ele><time>2015-05-02T11:23:47.0000000+00:00</time></trkpt><trkpt lat="35.0090348" lon="33.639398"><ele>70.0</ele><time>2015-05-02T11:23:49.0000000+00:00</time></trkpt><trkpt lat="35.0090808" lon="33.6393202"><ele>70.0</ele><time>2015-05-02T11:23:51.0000000+00:00</time></trkpt><trkpt lat="35.009123" lon="33.6392428"><ele>70.0</ele><time>2015-05-02T11:23:53.0000000+00:00</time></trkpt><trkpt lat="35.0091621" lon="33.6391687"><ele>70.8</ele><time>2015-05-02T11:23:55.0000000+00:00</time></trkpt><trkpt lat="35.0091995" lon="33.639088"><ele>71.0</ele><time>2015-05-02T11:23:57.0000000+00:00</time></trkpt><trkpt lat="35.0092406" lon="33.6390035"><ele>71.8</ele><time>2015-05-02T11:23:59.0000000+00:00</time></trkpt><trkpt lat="35.0092839" lon="33.6389164"><ele>72.0</ele><time>2015-05-02T11:24:01.0000000+00:00</time></trkpt><trkpt lat="35.0093467" lon="33.6388073"><ele>72.0</ele><time>2015-05-02T11:24:03.0000000+00:00</time></trkpt><trkpt lat="35.0093788" lon="33.6387546"><ele>72.0</ele><time>2015-05-02T11:24:04.0000000+00:00</time></trkpt><trkpt lat="35.0094141" lon="33.6387088"><ele>72.0</ele><time>2015-05-02T11:24:05.0000000+00:00</time></trkpt><trkpt lat="35.0094511" lon="33.6386661"><ele>72.5</ele><time>2015-05-02T11:24:06.0000000+00:00</time></trkpt><trkpt lat="35.0094895" lon="33.6386327"><ele>72.8</ele><time>2015-05-02T11:24:07.0000000+00:00</time></trkpt><trkpt lat="35.0095259" lon="33.6385948"><ele>72.9</ele><time>2015-05-02T11:24:08.0000000+00:00</time></trkpt><trkpt lat="35.0095648" lon="33.6385608"><ele>72.5</ele><time>2015-05-02T11:24:09.0000000+00:00</time></trkpt><trkpt lat="35.0096014" lon="33.6385279"><ele>72.7</ele><time>2015-05-02T11:24:10.0000000+00:00</time></trkpt><trkpt lat="35.0096343" lon="33.638486"><ele>73.4</ele><time>2015-05-02T11:24:11.0000000+00:00</time></trkpt><trkpt lat="35.0096733" lon="33.6384375"><ele>74.2</ele><time>2015-05-02T11:24:12.0000000+00:00</time></trkpt><trkpt lat="35.00972" lon="33.6384008"><ele>74.6</ele><time>2015-05-02T11:24:13.0000000+00:00</time></trkpt><trkpt lat="35.0097622" lon="33.6383574"><ele>74.8</ele><time>2015-05-02T11:24:14.0000000+00:00</time></trkpt><trkpt lat="35.0098005" lon="33.6383101"><ele>75.4</ele><time>2015-05-02T11:24:15.0000000+00:00</time></trkpt><trkpt lat="35.0098457" lon="33.6382664"><ele>75.7</ele><time>2015-05-02T11:24:16.0000000+00:00</time></trkpt><trkpt lat="35.0098835" lon="33.6382233"><ele>75.9</ele><time>2015-05-02T11:24:17.0000000+00:00</time></trkpt><trkpt lat="35.0099264" lon="33.6381821"><ele>75.9</ele><time>2015-05-02T11:24:18.0000000+00:00</time></trkpt><trkpt lat="35.0099666" lon="33.6381522"><ele>76.5</ele><time>2015-05-02T11:24:19.0000000+00:00</time></trkpt><trkpt lat="35.0100129" lon="33.6381175"><ele>76.3</ele><time>2015-05-02T11:24:20.0000000+00:00</time></trkpt><trkpt lat="35.010058" lon="33.6380767"><ele>76.1</ele><time>2015-05-02T11:24:21.0000000+00:00</time></trkpt><trkpt lat="35.0101061" lon="33.6380315"><ele>75.1</ele><time>2015-05-02T11:24:22.0000000+00:00</time></trkpt><trkpt lat="35.010146" lon="33.6379885"><ele>75.0</ele><time>2015-05-02T11:24:23.0000000+00:00</time></trkpt><trkpt lat="35.0101903" lon="33.6379461"><ele>74.5</ele><time>2015-05-02T11:24:24.0000000+00:00</time></trkpt><trkpt lat="35.0102352" lon="33.6378969"><ele>74.8</ele><time>2015-05-02T11:24:25.0000000+00:00</time></trkpt><trkpt lat="35.0102774" lon="33.6378534"><ele>75.4</ele><time>2015-05-02T11:24:26.0000000+00:00</time></trkpt><trkpt lat="35.0103173" lon="33.6378094"><ele>75.7</ele><time>2015-05-02T11:24:27.0000000+00:00</time></trkpt><trkpt lat="35.0103635" lon="33.6377589"><ele>75.9</ele><time>2015-05-02T11:24:28.0000000+00:00</time></trkpt><trkpt lat="35.0104015" lon="33.6377083"><ele>75.4</ele><time>2015-05-02T11:24:29.0000000+00:00</time></trkpt><trkpt lat="35.0104414" lon="33.6376614"><ele>75.2</ele><time>2015-05-02T11:24:30.0000000+00:00</time></trkpt><trkpt lat="35.0104778" lon="33.6376139"><ele>74.6</ele><time>2015-05-02T11:24:31.0000000+00:00</time></trkpt><trkpt lat="35.0105157" lon="33.6375633"><ele>74.3</ele><time>2015-05-02T11:24:32.0000000+00:00</time></trkpt><trkpt lat="35.0105509" lon="33.6375061"><ele>73.7</ele><time>2015-05-02T11:24:33.0000000+00:00</time></trkpt><trkpt lat="35.0105844" lon="33.6374544"><ele>72.8</ele><time>2015-05-02T11:24:34.0000000+00:00</time></trkpt><trkpt lat="35.0106127" lon="33.6374034"><ele>72.4</ele><time>2015-05-02T11:24:35.0000000+00:00</time></trkpt><trkpt lat="35.0106461" lon="33.6373394"><ele>72.2</ele><time>2015-05-02T11:24:36.0000000+00:00</time></trkpt><trkpt lat="35.0106848" lon="33.6372813"><ele>72.1</ele><time>2015-05-02T11:24:37.0000000+00:00</time></trkpt><trkpt lat="35.0107364" lon="33.6372237"><ele>72.1</ele><time>2015-05-02T11:24:38.0000000+00:00</time></trkpt><trkpt lat="35.0107684" lon="33.6371546"><ele>72.5</ele><time>2015-05-02T11:24:39.0000000+00:00</time></trkpt><trkpt lat="35.0108082" lon="33.6370924"><ele>72.3</ele><time>2015-05-02T11:24:40.0000000+00:00</time></trkpt><trkpt lat="35.0108429" lon="33.6370289"><ele>72.7</ele><time>2015-05-02T11:24:41.0000000+00:00</time></trkpt><trkpt lat="35.0108774" lon="33.6369645"><ele>73.3</ele><time>2015-05-02T11:24:42.0000000+00:00</time></trkpt><trkpt lat="35.0109107" lon="33.6369122"><ele>73.7</ele><time>2015-05-02T11:24:43.0000000+00:00</time></trkpt><trkpt lat="35.0109524" lon="33.6368527"><ele>73.8</ele><time>2015-05-02T11:24:44.0000000+00:00</time></trkpt><trkpt lat="35.0109867" lon="33.6368018"><ele>73.4</ele><time>2015-05-02T11:24:45.0000000+00:00</time></trkpt><trkpt lat="35.0110212" lon="33.6367474"><ele>73.2</ele><time>2015-05-02T11:24:46.0000000+00:00</time></trkpt><trkpt lat="35.0110566" lon="33.6367009"><ele>73.6</ele><time>2015-05-02T11:24:47.0000000+00:00</time></trkpt><trkpt lat="35.0110939" lon="33.6366395"><ele>74.3</ele><time>2015-05-02T11:24:48.0000000+00:00</time></trkpt><trkpt lat="35.0111242" lon="33.6365814"><ele>74.7</ele><time>2015-05-02T11:24:49.0000000+00:00</time></trkpt><trkpt lat="35.0111543" lon="33.6365234"><ele>74.3</ele><time>2015-05-02T11:24:50.0000000+00:00</time></trkpt><trkpt lat="35.0111825" lon="33.6364717"><ele>74.2</ele><time>2015-05-02T11:24:51.0000000+00:00</time></trkpt><trkpt lat="35.0112112" lon="33.6364156"><ele>74.6</ele><time>2015-05-02T11:24:52.0000000+00:00</time></trkpt><trkpt lat="35.0112383" lon="33.6363619"><ele>74.8</ele><time>2015-05-02T11:24:53.0000000+00:00</time></trkpt><trkpt lat="35.0112774" lon="33.6363111"><ele>74.9</ele><time>2015-05-02T11:24:54.0000000+00:00</time></trkpt><trkpt lat="35.0113065" lon="33.6362599"><ele>74.5</ele><time>2015-05-02T11:24:55.0000000+00:00</time></trkpt><trkpt lat="35.0113424" lon="33.636204"><ele>74.2</ele><time>2015-05-02T11:24:56.0000000+00:00</time></trkpt><trkpt lat="35.0113647" lon="33.6361457"><ele>74.1</ele><time>2015-05-02T11:24:57.0000000+00:00</time></trkpt><trkpt lat="35.011385" lon="33.6360962"><ele>74.1</ele><time>2015-05-02T11:24:58.0000000+00:00</time></trkpt><trkpt lat="35.0114113" lon="33.6360516"><ele>75.0</ele><time>2015-05-02T11:24:59.0000000+00:00</time></trkpt><trkpt lat="35.0114567" lon="33.6359846"><ele>75.5</ele><time>2015-05-02T11:25:00.0000000+00:00</time></trkpt><trkpt lat="35.0115002" lon="33.6358866"><ele>75.9</ele><time>2015-05-02T11:25:02.0000000+00:00</time></trkpt><trkpt lat="35.0115177" lon="33.6358346"><ele>76.0</ele><time>2015-05-02T11:25:03.0000000+00:00</time></trkpt><trkpt lat="35.0115609" lon="33.6357485"><ele>76.0</ele><time>2015-05-02T11:25:05.0000000+00:00</time></trkpt><trkpt lat="35.011607" lon="33.6356669"><ele>76.0</ele><time>2015-05-02T11:25:07.0000000+00:00</time></trkpt><trkpt lat="35.0116311" lon="33.6356075"><ele>77.0</ele><time>2015-05-02T11:25:08.0000000+00:00</time></trkpt><trkpt lat="35.0116498" lon="33.6355558"><ele>77.5</ele><time>2015-05-02T11:25:09.0000000+00:00</time></trkpt><trkpt lat="35.0116693" lon="33.6355021"><ele>77.8</ele><time>2015-05-02T11:25:10.0000000+00:00</time></trkpt><trkpt lat="35.0116987" lon="33.6354524"><ele>77.9</ele><time>2015-05-02T11:25:11.0000000+00:00</time></trkpt><trkpt lat="35.011741" lon="33.6353556"><ele>77.7</ele><time>2015-05-02T11:25:13.0000000+00:00</time></trkpt><trkpt lat="35.0117851" lon="33.6352578"><ele>78.2</ele><time>2015-05-02T11:25:15.0000000+00:00</time></trkpt><trkpt lat="35.0118112" lon="33.6352036"><ele>78.1</ele><time>2015-05-02T11:25:16.0000000+00:00</time></trkpt><trkpt lat="35.0118327" lon="33.6351532"><ele>78.6</ele><time>2015-05-02T11:25:17.0000000+00:00</time></trkpt><trkpt lat="35.0118864" lon="33.6350652"><ele>78.9</ele><time>2015-05-02T11:25:19.0000000+00:00</time></trkpt><trkpt lat="35.0119157" lon="33.6350199"><ele>79.0</ele><time>2015-05-02T11:25:20.0000000+00:00</time></trkpt><trkpt lat="35.0119627" lon="33.6349261"><ele>79.5</ele><time>2015-05-02T11:25:22.0000000+00:00</time></trkpt><trkpt lat="35.012017" lon="33.634838"><ele>80.1</ele><time>2015-05-02T11:25:24.0000000+00:00</time></trkpt><trkpt lat="35.0120736" lon="33.6347492"><ele>80.8</ele><time>2015-05-02T11:25:26.0000000+00:00</time></trkpt><trkpt lat="35.0121186" lon="33.6346736"><ele>81.0</ele><time>2015-05-02T11:25:28.0000000+00:00</time></trkpt><trkpt lat="35.0121381" lon="33.6346168"><ele>81.0</ele><time>2015-05-02T11:25:29.0000000+00:00</time></trkpt><trkpt lat="35.0121622" lon="33.6345617"><ele>81.5</ele><time>2015-05-02T11:25:30.0000000+00:00</time></trkpt><trkpt lat="35.0122122" lon="33.6344702"><ele>81.4</ele><time>2015-05-02T11:25:32.0000000+00:00</time></trkpt><trkpt lat="35.0122412" lon="33.6344269"><ele>81.7</ele><time>2015-05-02T11:25:33.0000000+00:00</time></trkpt><trkpt lat="35.0123027" lon="33.6343569"><ele>81.2</ele><time>2015-05-02T11:25:35.0000000+00:00</time></trkpt><trkpt lat="35.0123669" lon="33.634303"><ele>82.3</ele><time>2015-05-02T11:25:37.0000000+00:00</time></trkpt><trkpt lat="35.0124366" lon="33.6342492"><ele>82.1</ele><time>2015-05-02T11:25:39.0000000+00:00</time></trkpt><trkpt lat="35.0125075" lon="33.6341706"><ele>82.5</ele><time>2015-05-02T11:25:41.0000000+00:00</time></trkpt><trkpt lat="35.0125472" lon="33.6340678"><ele>82.2</ele><time>2015-05-02T11:25:43.0000000+00:00</time></trkpt><trkpt lat="35.012581" lon="33.6340138"><ele>82.1</ele><time>2015-05-02T11:25:44.0000000+00:00</time></trkpt><trkpt lat="35.0126005" lon="33.6339592"><ele>81.6</ele><time>2015-05-02T11:25:45.0000000+00:00</time></trkpt><trkpt lat="35.0126136" lon="33.6339006"><ele>81.3</ele><time>2015-05-02T11:25:46.0000000+00:00</time></trkpt><trkpt lat="35.0126363" lon="33.6338418"><ele>80.7</ele><time>2015-05-02T11:25:47.0000000+00:00</time></trkpt><trkpt lat="35.0126556" lon="33.6337778"><ele>80.8</ele><time>2015-05-02T11:25:48.0000000+00:00</time></trkpt><trkpt lat="35.0126953" lon="33.6337276"><ele>80.9</ele><time>2015-05-02T11:25:49.0000000+00:00</time></trkpt><trkpt lat="35.012722" lon="33.6336658"><ele>81.5</ele><time>2015-05-02T11:25:50.0000000+00:00</time></trkpt><trkpt lat="35.0127417" lon="33.6336035"><ele>81.7</ele><time>2015-05-02T11:25:51.0000000+00:00</time></trkpt><trkpt lat="35.0127673" lon="33.633531"><ele>81.4</ele><time>2015-05-02T11:25:52.0000000+00:00</time></trkpt><trkpt lat="35.012791" lon="33.6334692"><ele>81.7</ele><time>2015-05-02T11:25:53.0000000+00:00</time></trkpt><trkpt lat="35.0128148" lon="33.6334114"><ele>81.9</ele><time>2015-05-02T11:25:54.0000000+00:00</time></trkpt><trkpt lat="35.0128328" lon="33.6333547"><ele>81.9</ele><time>2015-05-02T11:25:55.0000000+00:00</time></trkpt><trkpt lat="35.0128527" lon="33.6332879"><ele>82.0</ele><time>2015-05-02T11:25:56.0000000+00:00</time></trkpt><trkpt lat="35.0128599" lon="33.6332245"><ele>82.0</ele><time>2015-05-02T11:25:57.0000000+00:00</time></trkpt><trkpt lat="35.0128913" lon="33.6331651"><ele>82.5</ele><time>2015-05-02T11:25:58.0000000+00:00</time></trkpt><trkpt lat="35.0129054" lon="33.6330977"><ele>82.3</ele><time>2015-05-02T11:25:59.0000000+00:00</time></trkpt><trkpt lat="35.012927" lon="33.6330407"><ele>82.6</ele><time>2015-05-02T11:26:00.0000000+00:00</time></trkpt><trkpt lat="35.0129557" lon="33.632979"><ele>82.8</ele><time>2015-05-02T11:26:01.0000000+00:00</time></trkpt><trkpt lat="35.0129791" lon="33.6329168"><ele>82.9</ele><time>2015-05-02T11:26:02.0000000+00:00</time></trkpt><trkpt lat="35.013" lon="33.6328521"><ele>83.0</ele><time>2015-05-02T11:26:03.0000000+00:00</time></trkpt><trkpt lat="35.0130227" lon="33.6327956"><ele>83.0</ele><time>2015-05-02T11:26:04.0000000+00:00</time></trkpt><trkpt lat="35.0130441" lon="33.6327317"><ele>82.5</ele><time>2015-05-02T11:26:05.0000000+00:00</time></trkpt><trkpt lat="35.0130656" lon="33.6326727"><ele>82.8</ele><time>2015-05-02T11:26:06.0000000+00:00</time></trkpt><trkpt lat="35.0131254" lon="33.6325853"><ele>82.5</ele><time>2015-05-02T11:26:08.0000000+00:00</time></trkpt><trkpt lat="35.0131565" lon="33.632491"><ele>82.4</ele><time>2015-05-02T11:26:10.0000000+00:00</time></trkpt><trkpt lat="35.0131713" lon="33.6324374"><ele>82.7</ele><time>2015-05-02T11:26:11.0000000+00:00</time></trkpt><trkpt lat="35.0131981" lon="33.6323403"><ele>82.2</ele><time>2015-05-02T11:26:13.0000000+00:00</time></trkpt><trkpt lat="35.0132106" lon="33.6322812"><ele>82.1</ele><time>2015-05-02T11:26:14.0000000+00:00</time></trkpt><trkpt lat="35.013238" lon="33.6321778"><ele>81.3</ele><time>2015-05-02T11:26:16.0000000+00:00</time></trkpt><trkpt lat="35.0132692" lon="33.6321218"><ele>81.7</ele><time>2015-05-02T11:26:17.0000000+00:00</time></trkpt><trkpt lat="35.013281" lon="33.6320646"><ele>81.3</ele><time>2015-05-02T11:26:18.0000000+00:00</time></trkpt><trkpt lat="35.0132928" lon="33.632006"><ele>81.7</ele><time>2015-05-02T11:26:19.0000000+00:00</time></trkpt><trkpt lat="35.0133034" lon="33.631943"><ele>81.4</ele><time>2015-05-02T11:26:20.0000000+00:00</time></trkpt><trkpt lat="35.0133149" lon="33.6318786"><ele>81.2</ele><time>2015-05-02T11:26:21.0000000+00:00</time></trkpt><trkpt lat="35.0133232" lon="33.6318157"><ele>81.1</ele><time>2015-05-02T11:26:22.0000000+00:00</time></trkpt><trkpt lat="35.0133368" lon="33.6317594"><ele>81.1</ele><time>2015-05-02T11:26:23.0000000+00:00</time></trkpt><trkpt lat="35.0133445" lon="33.6316937"><ele>81.0</ele><time>2015-05-02T11:26:24.0000000+00:00</time></trkpt><trkpt lat="35.0133553" lon="33.6316344"><ele>81.0</ele><time>2015-05-02T11:26:25.0000000+00:00</time></trkpt><trkpt lat="35.0133638" lon="33.6315768"><ele>81.0</ele><time>2015-05-02T11:26:26.0000000+00:00</time></trkpt><trkpt lat="35.0133873" lon="33.6314779"><ele>81.0</ele><time>2015-05-02T11:26:28.0000000+00:00</time></trkpt><trkpt lat="35.0133902" lon="33.6314222"><ele>81.0</ele><time>2015-05-02T11:26:29.0000000+00:00</time></trkpt><trkpt lat="35.0133976" lon="33.6313637"><ele>81.5</ele><time>2015-05-02T11:26:30.0000000+00:00</time></trkpt><trkpt lat="35.0134129" lon="33.6312505"><ele>81.4</ele><time>2015-05-02T11:26:32.0000000+00:00</time></trkpt><trkpt lat="35.0134237" lon="33.6311474"><ele>81.4</ele><time>2015-05-02T11:26:34.0000000+00:00</time></trkpt><trkpt lat="35.0134336" lon="33.631041"><ele>81.1</ele><time>2015-05-02T11:26:36.0000000+00:00</time></trkpt><trkpt lat="35.013444" lon="33.6309823"><ele>81.6</ele><time>2015-05-02T11:26:37.0000000+00:00</time></trkpt><trkpt lat="35.0134508" lon="33.6309183"><ele>81.3</ele><time>2015-05-02T11:26:38.0000000+00:00</time></trkpt><trkpt lat="35.0134581" lon="33.63085"><ele>81.7</ele><time>2015-05-02T11:26:39.0000000+00:00</time></trkpt><trkpt lat="35.013455" lon="33.6307856"><ele>81.3</ele><time>2015-05-02T11:26:40.0000000+00:00</time></trkpt><trkpt lat="35.0134551" lon="33.6307139"><ele>81.2</ele><time>2015-05-02T11:26:41.0000000+00:00</time></trkpt><trkpt lat="35.0134569" lon="33.6306474"><ele>81.1</ele><time>2015-05-02T11:26:42.0000000+00:00</time></trkpt><trkpt lat="35.013465" lon="33.6305863"><ele>81.6</ele><time>2015-05-02T11:26:43.0000000+00:00</time></trkpt><trkpt lat="35.0134578" lon="33.6305254"><ele>81.8</ele><time>2015-05-02T11:26:44.0000000+00:00</time></trkpt><trkpt lat="35.0134518" lon="33.6304691"><ele>82.4</ele><time>2015-05-02T11:26:45.0000000+00:00</time></trkpt><trkpt lat="35.0134394" lon="33.6303635"><ele>82.1</ele><time>2015-05-02T11:26:47.0000000+00:00</time></trkpt><trkpt lat="35.0134592" lon="33.6302639"><ele>82.3</ele><time>2015-05-02T11:26:49.0000000+00:00</time></trkpt><trkpt lat="35.01345" lon="33.6301592"><ele>82.1</ele><time>2015-05-02T11:26:51.0000000+00:00</time></trkpt><trkpt lat="35.0134423" lon="33.6300637"><ele>82.0</ele><time>2015-05-02T11:26:53.0000000+00:00</time></trkpt><trkpt lat="35.0134449" lon="33.6299908"><ele>81.5</ele><time>2015-05-02T11:26:55.0000000+00:00</time></trkpt><trkpt lat="35.0134405" lon="33.6299061"><ele>81.9</ele><time>2015-05-02T11:26:57.0000000+00:00</time></trkpt><trkpt lat="35.0134407" lon="33.6298094"><ele>81.5</ele><time>2015-05-02T11:26:59.0000000+00:00</time></trkpt><trkpt lat="35.0134454" lon="33.6297096"><ele>81.1</ele><time>2015-05-02T11:27:01.0000000+00:00</time></trkpt><trkpt lat="35.0134579" lon="33.6296567"><ele>81.1</ele><time>2015-05-02T11:27:02.0000000+00:00</time></trkpt><trkpt lat="35.0134629" lon="33.6295874"><ele>81.6</ele><time>2015-05-02T11:27:03.0000000+00:00</time></trkpt><trkpt lat="35.0134701" lon="33.6295204"><ele>82.3</ele><time>2015-05-02T11:27:04.0000000+00:00</time></trkpt><trkpt lat="35.0134826" lon="33.6294471"><ele>82.2</ele><time>2015-05-02T11:27:05.0000000+00:00</time></trkpt><trkpt lat="35.0134847" lon="33.6293733"><ele>82.1</ele><time>2015-05-02T11:27:06.0000000+00:00</time></trkpt><trkpt lat="35.0134926" lon="33.629309"><ele>82.6</ele><time>2015-05-02T11:27:07.0000000+00:00</time></trkpt><trkpt lat="35.0135106" lon="33.6292257"><ele>82.3</ele><time>2015-05-02T11:27:08.0000000+00:00</time></trkpt><trkpt lat="35.0135123" lon="33.6291517"><ele>82.2</ele><time>2015-05-02T11:27:09.0000000+00:00</time></trkpt><trkpt lat="35.013527" lon="33.629082"><ele>81.6</ele><time>2015-05-02T11:27:10.0000000+00:00</time></trkpt><trkpt lat="35.0135367" lon="33.6290152"><ele>81.3</ele><time>2015-05-02T11:27:11.0000000+00:00</time></trkpt><trkpt lat="35.0135513" lon="33.6289566"><ele>81.7</ele><time>2015-05-02T11:27:12.0000000+00:00</time></trkpt><trkpt lat="35.0135619" lon="33.6289031"><ele>81.3</ele><time>2015-05-02T11:27:13.0000000+00:00</time></trkpt><trkpt lat="35.0135761" lon="33.6288423"><ele>81.7</ele><time>2015-05-02T11:27:14.0000000+00:00</time></trkpt><trkpt lat="35.0135927" lon="33.6287814"><ele>81.9</ele><time>2015-05-02T11:27:15.0000000+00:00</time></trkpt><trkpt lat="35.0136301" lon="33.6286867"><ele>81.5</ele><time>2015-05-02T11:27:17.0000000+00:00</time></trkpt><trkpt lat="35.0136506" lon="33.6286356"><ele>81.2</ele><time>2015-05-02T11:27:18.0000000+00:00</time></trkpt><trkpt lat="35.0136714" lon="33.6285811"><ele>81.1</ele><time>2015-05-02T11:27:19.0000000+00:00</time></trkpt><trkpt lat="35.0136901" lon="33.628523"><ele>80.6</ele><time>2015-05-02T11:27:20.0000000+00:00</time></trkpt><trkpt lat="35.0137108" lon="33.6284722"><ele>80.3</ele><time>2015-05-02T11:27:21.0000000+00:00</time></trkpt><trkpt lat="35.0137429" lon="33.6283979"><ele>80.6</ele><time>2015-05-02T11:27:23.0000000+00:00</time></trkpt><trkpt lat="35.013778" lon="33.6282999"><ele>81.7</ele><time>2015-05-02T11:27:25.0000000+00:00</time></trkpt><trkpt lat="35.0137994" lon="33.6282085"><ele>82.7</ele><time>2015-05-02T11:27:27.0000000+00:00</time></trkpt><trkpt lat="35.0138171" lon="33.6281298"><ele>83.4</ele><time>2015-05-02T11:27:29.0000000+00:00</time></trkpt><trkpt lat="35.0138322" lon="33.6280519"><ele>84.4</ele><time>2015-05-02T11:27:31.0000000+00:00</time></trkpt><trkpt lat="35.0138536" lon="33.6279812"><ele>84.9</ele><time>2015-05-02T11:27:33.0000000+00:00</time></trkpt><trkpt lat="35.0138728" lon="33.6279172"><ele>85.7</ele><time>2015-05-02T11:27:35.0000000+00:00</time></trkpt><trkpt lat="35.01389" lon="33.6278641"><ele>85.9</ele><time>2015-05-02T11:27:37.0000000+00:00</time></trkpt><trkpt lat="35.0139054" lon="33.6278102"><ele>86.5</ele><time>2015-05-02T11:27:39.0000000+00:00</time></trkpt><trkpt lat="35.0139173" lon="33.6277563"><ele>86.9</ele><time>2015-05-02T11:27:41.0000000+00:00</time></trkpt><trkpt lat="35.0139296" lon="33.6277022"><ele>87.0</ele><time>2015-05-02T11:27:43.0000000+00:00</time></trkpt><trkpt lat="35.0139441" lon="33.627646"><ele>87.0</ele><time>2015-05-02T11:27:45.0000000+00:00</time></trkpt><trkpt lat="35.0139619" lon="33.6275766"><ele>87.5</ele><time>2015-05-02T11:27:47.0000000+00:00</time></trkpt><trkpt lat="35.0139805" lon="33.6275024"><ele>87.9</ele><time>2015-05-02T11:27:49.0000000+00:00</time></trkpt><trkpt lat="35.0139965" lon="33.6274326"><ele>88.0</ele><time>2015-05-02T11:27:51.0000000+00:00</time></trkpt><trkpt lat="35.0140071" lon="33.6273638"><ele>88.0</ele><time>2015-05-02T11:27:53.0000000+00:00</time></trkpt><trkpt lat="35.0140214" lon="33.6272943"><ele>88.0</ele><time>2015-05-02T11:27:55.0000000+00:00</time></trkpt><trkpt lat="35.0140315" lon="33.6272259"><ele>87.8</ele><time>2015-05-02T11:27:57.0000000+00:00</time></trkpt><trkpt lat="35.0140341" lon="33.627162"><ele>88.0</ele><time>2015-05-02T11:27:59.0000000+00:00</time></trkpt><trkpt lat="35.014032" lon="33.627098"><ele>88.0</ele><time>2015-05-02T11:28:01.0000000+00:00</time></trkpt><trkpt lat="35.0140346" lon="33.627027"><ele>87.5</ele><time>2015-05-02T11:28:03.0000000+00:00</time></trkpt><trkpt lat="35.0140356" lon="33.6269515"><ele>87.1</ele><time>2015-05-02T11:28:05.0000000+00:00</time></trkpt><trkpt lat="35.0140364" lon="33.6268793"><ele>87.1</ele><time>2015-05-02T11:28:07.0000000+00:00</time></trkpt><trkpt lat="35.0140382" lon="33.6268118"><ele>87.0</ele><time>2015-05-02T11:28:09.0000000+00:00</time></trkpt><trkpt lat="35.0140405" lon="33.6267403"><ele>87.8</ele><time>2015-05-02T11:28:11.0000000+00:00</time></trkpt><trkpt lat="35.0140454" lon="33.6266645"><ele>88.0</ele><time>2015-05-02T11:28:13.0000000+00:00</time></trkpt><trkpt lat="35.0140488" lon="33.6265939"><ele>88.0</ele><time>2015-05-02T11:28:15.0000000+00:00</time></trkpt><trkpt lat="35.0140504" lon="33.6265104"><ele>88.0</ele><time>2015-05-02T11:28:18.0000000+00:00</time></trkpt><trkpt lat="35.0140542" lon="33.6264463"><ele>88.0</ele><time>2015-05-02T11:28:20.0000000+00:00</time></trkpt><trkpt lat="35.0140606" lon="33.6263607"><ele>88.0</ele><time>2015-05-02T11:28:22.0000000+00:00</time></trkpt><trkpt lat="35.0140684" lon="33.6262621"><ele>88.0</ele><time>2015-05-02T11:28:24.0000000+00:00</time></trkpt><trkpt lat="35.0140722" lon="33.6261552"><ele>88.0</ele><time>2015-05-02T11:28:26.0000000+00:00</time></trkpt><trkpt lat="35.0140788" lon="33.6260472"><ele>88.0</ele><time>2015-05-02T11:28:28.0000000+00:00</time></trkpt><trkpt lat="35.014092" lon="33.6259687"><ele>88.0</ele><time>2015-05-02T11:28:29.0000000+00:00</time></trkpt><trkpt lat="35.0140997" lon="33.6259135"><ele>88.0</ele><time>2015-05-02T11:28:30.0000000+00:00</time></trkpt><trkpt lat="35.0141081" lon="33.62585"><ele>88.5</ele><time>2015-05-02T11:28:31.0000000+00:00</time></trkpt><trkpt lat="35.0141168" lon="33.6257901"><ele>88.8</ele><time>2015-05-02T11:28:32.0000000+00:00</time></trkpt><trkpt lat="35.0141434" lon="33.6256842"><ele>89.7</ele><time>2015-05-02T11:28:34.0000000+00:00</time></trkpt><trkpt lat="35.0141558" lon="33.625625"><ele>89.9</ele><time>2015-05-02T11:28:35.0000000+00:00</time></trkpt><trkpt lat="35.0141696" lon="33.6255679"><ele>89.9</ele><time>2015-05-02T11:28:36.0000000+00:00</time></trkpt><trkpt lat="35.0141849" lon="33.6255105"><ele>90.0</ele><time>2015-05-02T11:28:37.0000000+00:00</time></trkpt><trkpt lat="35.0142046" lon="33.6254573"><ele>90.0</ele><time>2015-05-02T11:28:38.0000000+00:00</time></trkpt><trkpt lat="35.0142263" lon="33.625395"><ele>90.5</ele><time>2015-05-02T11:28:39.0000000+00:00</time></trkpt><trkpt lat="35.0142413" lon="33.6253394"><ele>90.8</ele><time>2015-05-02T11:28:40.0000000+00:00</time></trkpt><trkpt lat="35.0142736" lon="33.625223"><ele>90.7</ele><time>2015-05-02T11:28:42.0000000+00:00</time></trkpt><trkpt lat="35.0142935" lon="33.6251691"><ele>90.9</ele><time>2015-05-02T11:28:43.0000000+00:00</time></trkpt><trkpt lat="35.0143104" lon="33.6251123"><ele>90.9</ele><time>2015-05-02T11:28:44.0000000+00:00</time></trkpt><trkpt lat="35.0143246" lon="33.6250462"><ele>91.0</ele><time>2015-05-02T11:28:45.0000000+00:00</time></trkpt><trkpt lat="35.0143308" lon="33.6249906"><ele>91.0</ele><time>2015-05-02T11:28:46.0000000+00:00</time></trkpt><trkpt lat="35.0143476" lon="33.6249338"><ele>91.0</ele><time>2015-05-02T11:28:47.0000000+00:00</time></trkpt><trkpt lat="35.0143662" lon="33.6248826"><ele>91.0</ele><time>2015-05-02T11:28:48.0000000+00:00</time></trkpt><trkpt lat="35.0143915" lon="33.6247754"><ele>91.0</ele><time>2015-05-02T11:28:50.0000000+00:00</time></trkpt><trkpt lat="35.0144001" lon="33.624719"><ele>91.0</ele><time>2015-05-02T11:28:51.0000000+00:00</time></trkpt><trkpt lat="35.0144072" lon="33.6246595"><ele>91.0</ele><time>2015-05-02T11:28:52.0000000+00:00</time></trkpt><trkpt lat="35.0144121" lon="33.6245992"><ele>91.5</ele><time>2015-05-02T11:28:53.0000000+00:00</time></trkpt><trkpt lat="35.0144214" lon="33.6245434"><ele>91.8</ele><time>2015-05-02T11:28:54.0000000+00:00</time></trkpt><trkpt lat="35.0144311" lon="33.6244816"><ele>91.9</ele><time>2015-05-02T11:28:55.0000000+00:00</time></trkpt><trkpt lat="35.0144416" lon="33.6244235"><ele>92.0</ele><time>2015-05-02T11:28:56.0000000+00:00</time></trkpt><trkpt lat="35.0144655" lon="33.6243078"><ele>92.0</ele><time>2015-05-02T11:28:58.0000000+00:00</time></trkpt><trkpt lat="35.0144728" lon="33.6242481"><ele>92.5</ele><time>2015-05-02T11:28:59.0000000+00:00</time></trkpt><trkpt lat="35.0144844" lon="33.6241865"><ele>92.8</ele><time>2015-05-02T11:29:00.0000000+00:00</time></trkpt><trkpt lat="35.0144835" lon="33.6241248"><ele>92.9</ele><time>2015-05-02T11:29:01.0000000+00:00</time></trkpt><trkpt lat="35.0144802" lon="33.6240666"><ele>93.0</ele><time>2015-05-02T11:29:02.0000000+00:00</time></trkpt><trkpt lat="35.0144805" lon="33.6240018"><ele>93.0</ele><time>2015-05-02T11:29:03.0000000+00:00</time></trkpt><trkpt lat="35.0144801" lon="33.6239004"><ele>92.3</ele><time>2015-05-02T11:29:05.0000000+00:00</time></trkpt><trkpt lat="35.0144589" lon="33.6237927"><ele>91.6</ele><time>2015-05-02T11:29:07.0000000+00:00</time></trkpt><trkpt lat="35.0144523" lon="33.6236897"><ele>93.2</ele><time>2015-05-02T11:29:09.0000000+00:00</time></trkpt><trkpt lat="35.0144458" lon="33.6235962"><ele>93.1</ele><time>2015-05-02T11:29:11.0000000+00:00</time></trkpt><trkpt lat="35.0144431" lon="33.6235366"><ele>93.0</ele><time>2015-05-02T11:29:12.0000000+00:00</time></trkpt><trkpt lat="35.0144342" lon="33.6234324"><ele>92.3</ele><time>2015-05-02T11:29:14.0000000+00:00</time></trkpt><trkpt lat="35.0144398" lon="33.6233718"><ele>92.6</ele><time>2015-05-02T11:29:15.0000000+00:00</time></trkpt><trkpt lat="35.0144435" lon="33.6232923"><ele>92.3</ele><time>2015-05-02T11:29:16.0000000+00:00</time></trkpt><trkpt lat="35.0144529" lon="33.6232298"><ele>91.7</ele><time>2015-05-02T11:29:17.0000000+00:00</time></trkpt><trkpt lat="35.0144787" lon="33.6231646"><ele>91.3</ele><time>2015-05-02T11:29:18.0000000+00:00</time></trkpt><trkpt lat="35.014524" lon="33.6230645"><ele>90.4</ele><time>2015-05-02T11:29:20.0000000+00:00</time></trkpt><trkpt lat="35.0145622" lon="33.6230038"><ele>89.7</ele><time>2015-05-02T11:29:21.0000000+00:00</time></trkpt><trkpt lat="35.0145911" lon="33.6229506"><ele>89.4</ele><time>2015-05-02T11:29:22.0000000+00:00</time></trkpt><trkpt lat="35.0146182" lon="33.6228903"><ele>89.2</ele><time>2015-05-02T11:29:23.0000000+00:00</time></trkpt><trkpt lat="35.0146553" lon="33.6228422"><ele>89.1</ele><time>2015-05-02T11:29:24.0000000+00:00</time></trkpt><trkpt lat="35.0146925" lon="33.622788"><ele>89.1</ele><time>2015-05-02T11:29:25.0000000+00:00</time></trkpt><trkpt lat="35.0147392" lon="33.6227069"><ele>89.0</ele><time>2015-05-02T11:29:27.0000000+00:00</time></trkpt><trkpt lat="35.0147864" lon="33.6226323"><ele>89.3</ele><time>2015-05-02T11:29:29.0000000+00:00</time></trkpt><trkpt lat="35.0148227" lon="33.6225651"><ele>89.6</ele><time>2015-05-02T11:29:31.0000000+00:00</time></trkpt><trkpt lat="35.0148589" lon="33.6224844"><ele>89.9</ele><time>2015-05-02T11:29:33.0000000+00:00</time></trkpt><trkpt lat="35.014884" lon="33.6224378"><ele>89.5</ele><time>2015-05-02T11:29:34.0000000+00:00</time></trkpt><trkpt lat="35.0149285" lon="33.6223511"><ele>89.1</ele><time>2015-05-02T11:29:36.0000000+00:00</time></trkpt><trkpt lat="35.0149747" lon="33.6222614"><ele>89.3</ele><time>2015-05-02T11:29:38.0000000+00:00</time></trkpt><trkpt lat="35.015027" lon="33.6221544"><ele>89.6</ele><time>2015-05-02T11:29:40.0000000+00:00</time></trkpt><trkpt lat="35.0150508" lon="33.6221062"><ele>89.3</ele><time>2015-05-02T11:29:41.0000000+00:00</time></trkpt><trkpt lat="35.0150811" lon="33.6220233"><ele>90.3</ele><time>2015-05-02T11:29:43.0000000+00:00</time></trkpt><trkpt lat="35.0150924" lon="33.6219256"><ele>92.1</ele><time>2015-05-02T11:29:45.0000000+00:00</time></trkpt><trkpt lat="35.0150844" lon="33.6218533"><ele>93.5</ele><time>2015-05-02T11:29:47.0000000+00:00</time></trkpt><trkpt lat="35.0150981" lon="33.6217857"><ele>94.5</ele><time>2015-05-02T11:29:50.0000000+00:00</time></trkpt><trkpt lat="35.0151504" lon="33.6217782"><ele>94.8</ele><time>2015-05-02T11:29:53.0000000+00:00</time></trkpt><trkpt lat="35.0152038" lon="33.6217743"><ele>94.1</ele><time>2015-05-02T11:29:56.0000000+00:00</time></trkpt><trkpt lat="35.015248" lon="33.6217492"><ele>94.3</ele><time>2015-05-02T11:29:59.0000000+00:00</time></trkpt><trkpt lat="35.0152911" lon="33.6217095"><ele>93.2</ele><time>2015-05-02T11:30:03.0000000+00:00</time></trkpt><trkpt lat="35.0153226" lon="33.6216602"><ele>93.0</ele><time>2015-05-02T11:30:06.0000000+00:00</time></trkpt><trkpt lat="35.0153646" lon="33.6216254"><ele>92.5</ele><time>2015-05-02T11:30:09.0000000+00:00</time></trkpt><trkpt lat="35.0154118" lon="33.6216108"><ele>93.7</ele><time>2015-05-02T11:30:12.0000000+00:00</time></trkpt><trkpt lat="35.0154569" lon="33.6215948"><ele>93.9</ele><time>2015-05-02T11:30:15.0000000+00:00</time></trkpt><trkpt lat="35.0155014" lon="33.6215797"><ele>93.1</ele><time>2015-05-02T11:30:19.0000000+00:00</time></trkpt><trkpt lat="35.0155495" lon="33.6215614"><ele>92.7</ele><time>2015-05-02T11:30:22.0000000+00:00</time></trkpt><trkpt lat="35.0155985" lon="33.6215446"><ele>93.4</ele><time>2015-05-02T11:30:24.0000000+00:00</time></trkpt><trkpt lat="35.0156479" lon="33.6215306"><ele>94.1</ele><time>2015-05-02T11:30:26.0000000+00:00</time></trkpt><trkpt lat="35.0156952" lon="33.6215165"><ele>94.0</ele><time>2015-05-02T11:30:28.0000000+00:00</time></trkpt><trkpt lat="35.0157437" lon="33.6215046"><ele>93.5</ele><time>2015-05-02T11:30:30.0000000+00:00</time></trkpt><trkpt lat="35.0158003" lon="33.621491"><ele>93.1</ele><time>2015-05-02T11:30:32.0000000+00:00</time></trkpt><trkpt lat="35.0158584" lon="33.621474"><ele>93.1</ele><time>2015-05-02T11:30:34.0000000+00:00</time></trkpt><trkpt lat="35.0159156" lon="33.6214546"><ele>94.0</ele><time>2015-05-02T11:30:36.0000000+00:00</time></trkpt><trkpt lat="35.0159775" lon="33.6214379"><ele>94.8</ele><time>2015-05-02T11:30:38.0000000+00:00</time></trkpt><trkpt lat="35.0160523" lon="33.621421"><ele>96.0</ele><time>2015-05-02T11:30:40.0000000+00:00</time></trkpt><trkpt lat="35.0161407" lon="33.6214078"><ele>97.3</ele><time>2015-05-02T11:30:42.0000000+00:00</time></trkpt><trkpt lat="35.0162192" lon="33.6213989"><ele>97.6</ele><time>2015-05-02T11:30:44.0000000+00:00</time></trkpt><trkpt lat="35.016315" lon="33.6213821"><ele>96.7</ele><time>2015-05-02T11:30:46.0000000+00:00</time></trkpt><trkpt lat="35.0163608" lon="33.6213776"><ele>96.3</ele><time>2015-05-02T11:30:47.0000000+00:00</time></trkpt><trkpt lat="35.016442" lon="33.6213674"><ele>95.4</ele><time>2015-05-02T11:30:49.0000000+00:00</time></trkpt><trkpt lat="35.0164926" lon="33.6213634"><ele>95.2</ele><time>2015-05-02T11:30:50.0000000+00:00</time></trkpt><trkpt lat="35.0165827" lon="33.6213569"><ele>94.3</ele><time>2015-05-02T11:30:52.0000000+00:00</time></trkpt><trkpt lat="35.0166322" lon="33.6213562"><ele>94.2</ele><time>2015-05-02T11:30:53.0000000+00:00</time></trkpt><trkpt lat="35.0166799" lon="33.6213593"><ele>94.1</ele><time>2015-05-02T11:30:54.0000000+00:00</time></trkpt><trkpt lat="35.0167284" lon="33.6213586"><ele>93.6</ele><time>2015-05-02T11:30:55.0000000+00:00</time></trkpt><trkpt lat="35.0168127" lon="33.6213698"><ele>93.2</ele><time>2015-05-02T11:30:57.0000000+00:00</time></trkpt><trkpt lat="35.0168663" lon="33.6213707"><ele>93.1</ele><time>2015-05-02T11:30:58.0000000+00:00</time></trkpt><trkpt lat="35.0169125" lon="33.6213739"><ele>92.6</ele><time>2015-05-02T11:30:59.0000000+00:00</time></trkpt><trkpt lat="35.016964" lon="33.6213757"><ele>92.3</ele><time>2015-05-02T11:31:00.0000000+00:00</time></trkpt><trkpt lat="35.0170203" lon="33.6213736"><ele>92.2</ele><time>2015-05-02T11:31:01.0000000+00:00</time></trkpt><trkpt lat="35.0170738" lon="33.6213756"><ele>92.1</ele><time>2015-05-02T11:31:02.0000000+00:00</time></trkpt><trkpt lat="35.0171314" lon="33.6213862"><ele>92.1</ele><time>2015-05-02T11:31:03.0000000+00:00</time></trkpt><trkpt lat="35.0171853" lon="33.6213888"><ele>92.0</ele><time>2015-05-02T11:31:04.0000000+00:00</time></trkpt><trkpt lat="35.017231" lon="33.62139"><ele>92.5</ele><time>2015-05-02T11:31:05.0000000+00:00</time></trkpt><trkpt lat="35.0172879" lon="33.6213954"><ele>92.3</ele><time>2015-05-02T11:31:06.0000000+00:00</time></trkpt><trkpt lat="35.0173779" lon="33.6214052"><ele>92.1</ele><time>2015-05-02T11:31:08.0000000+00:00</time></trkpt><trkpt lat="35.0174293" lon="33.6214097"><ele>91.6</ele><time>2015-05-02T11:31:09.0000000+00:00</time></trkpt><trkpt lat="35.0174806" lon="33.6214167"><ele>91.3</ele><time>2015-05-02T11:31:10.0000000+00:00</time></trkpt><trkpt lat="35.0175322" lon="33.6214218"><ele>91.2</ele><time>2015-05-02T11:31:11.0000000+00:00</time></trkpt><trkpt lat="35.0175867" lon="33.621426"><ele>91.6</ele><time>2015-05-02T11:31:12.0000000+00:00</time></trkpt><trkpt lat="35.017638" lon="33.6214322"><ele>91.8</ele><time>2015-05-02T11:31:13.0000000+00:00</time></trkpt><trkpt lat="35.0177036" lon="33.621435"><ele>91.4</ele><time>2015-05-02T11:31:14.0000000+00:00</time></trkpt><trkpt lat="35.0177551" lon="33.6214458"><ele>91.2</ele><time>2015-05-02T11:31:15.0000000+00:00</time></trkpt><trkpt lat="35.0178099" lon="33.6214467"><ele>91.1</ele><time>2015-05-02T11:31:16.0000000+00:00</time></trkpt><trkpt lat="35.0178703" lon="33.6214513"><ele>91.1</ele><time>2015-05-02T11:31:17.0000000+00:00</time></trkpt><trkpt lat="35.0179258" lon="33.6214553"><ele>91.0</ele><time>2015-05-02T11:31:18.0000000+00:00</time></trkpt><trkpt lat="35.0179909" lon="33.6214621"><ele>91.0</ele><time>2015-05-02T11:31:19.0000000+00:00</time></trkpt><trkpt lat="35.0180411" lon="33.6214648"><ele>91.0</ele><time>2015-05-02T11:31:20.0000000+00:00</time></trkpt><trkpt lat="35.0180914" lon="33.6214621"><ele>91.0</ele><time>2015-05-02T11:31:21.0000000+00:00</time></trkpt><trkpt lat="35.0181464" lon="33.6214633"><ele>91.0</ele><time>2015-05-02T11:31:22.0000000+00:00</time></trkpt><trkpt lat="35.0181991" lon="33.6214679"><ele>91.0</ele><time>2015-05-02T11:31:23.0000000+00:00</time></trkpt><trkpt lat="35.0182615" lon="33.6214644"><ele>91.0</ele><time>2015-05-02T11:31:24.0000000+00:00</time></trkpt><trkpt lat="35.0183268" lon="33.6214562"><ele>91.0</ele><time>2015-05-02T11:31:25.0000000+00:00</time></trkpt><trkpt lat="35.0183851" lon="33.6214522"><ele>90.5</ele><time>2015-05-02T11:31:26.0000000+00:00</time></trkpt><trkpt lat="35.0184517" lon="33.6214464"><ele>90.3</ele><time>2015-05-02T11:31:27.0000000+00:00</time></trkpt><trkpt lat="35.0185146" lon="33.6214428"><ele>90.1</ele><time>2015-05-02T11:31:28.0000000+00:00</time></trkpt><trkpt lat="35.0185723" lon="33.6214355"><ele>90.1</ele><time>2015-05-02T11:31:29.0000000+00:00</time></trkpt><trkpt lat="35.018634" lon="33.6214294"><ele>90.1</ele><time>2015-05-02T11:31:30.0000000+00:00</time></trkpt><trkpt lat="35.0186825" lon="33.6214224"><ele>90.0</ele><time>2015-05-02T11:31:31.0000000+00:00</time></trkpt><trkpt lat="35.0187386" lon="33.6214147"><ele>90.0</ele><time>2015-05-02T11:31:32.0000000+00:00</time></trkpt><trkpt lat="35.0187955" lon="33.6214009"><ele>90.0</ele><time>2015-05-02T11:31:33.0000000+00:00</time></trkpt><trkpt lat="35.0188459" lon="33.6213898"><ele>90.0</ele><time>2015-05-02T11:31:34.0000000+00:00</time></trkpt><trkpt lat="35.0189028" lon="33.6213826"><ele>90.0</ele><time>2015-05-02T11:31:35.0000000+00:00</time></trkpt><trkpt lat="35.0189561" lon="33.6213698"><ele>90.0</ele><time>2015-05-02T11:31:36.0000000+00:00</time></trkpt><trkpt lat="35.0190025" lon="33.6213609"><ele>90.0</ele><time>2015-05-02T11:31:37.0000000+00:00</time></trkpt><trkpt lat="35.019055" lon="33.6213487"><ele>90.0</ele><time>2015-05-02T11:31:38.0000000+00:00</time></trkpt><trkpt lat="35.0191009" lon="33.6213379"><ele>90.0</ele><time>2015-05-02T11:31:39.0000000+00:00</time></trkpt><trkpt lat="35.0191529" lon="33.6213272"><ele>90.0</ele><time>2015-05-02T11:31:40.0000000+00:00</time></trkpt><trkpt lat="35.0192146" lon="33.6213185"><ele>90.5</ele><time>2015-05-02T11:31:41.0000000+00:00</time></trkpt><trkpt lat="35.0192686" lon="33.621312"><ele>90.3</ele><time>2015-05-02T11:31:42.0000000+00:00</time></trkpt><trkpt lat="35.0193329" lon="33.6213004"><ele>90.1</ele><time>2015-05-02T11:31:43.0000000+00:00</time></trkpt><trkpt lat="35.0193913" lon="33.6212858"><ele>90.1</ele><time>2015-05-02T11:31:44.0000000+00:00</time></trkpt><trkpt lat="35.0194434" lon="33.6212748"><ele>90.1</ele><time>2015-05-02T11:31:45.0000000+00:00</time></trkpt><trkpt lat="35.0195014" lon="33.6212624"><ele>90.0</ele><time>2015-05-02T11:31:46.0000000+00:00</time></trkpt><trkpt lat="35.0195472" lon="33.6212513"><ele>90.5</ele><time>2015-05-02T11:31:47.0000000+00:00</time></trkpt><trkpt lat="35.0195957" lon="33.6212472"><ele>90.8</ele><time>2015-05-02T11:31:48.0000000+00:00</time></trkpt><trkpt lat="35.0196421" lon="33.6212429"><ele>90.9</ele><time>2015-05-02T11:31:49.0000000+00:00</time></trkpt><trkpt lat="35.0196955" lon="33.6212408"><ele>91.0</ele><time>2015-05-02T11:31:50.0000000+00:00</time></trkpt><trkpt lat="35.0197478" lon="33.6212302"><ele>90.5</ele><time>2015-05-02T11:31:51.0000000+00:00</time></trkpt><trkpt lat="35.0197987" lon="33.6212257"><ele>90.3</ele><time>2015-05-02T11:31:52.0000000+00:00</time></trkpt><trkpt lat="35.0198542" lon="33.6212192"><ele>89.6</ele><time>2015-05-02T11:31:53.0000000+00:00</time></trkpt><trkpt lat="35.0199189" lon="33.621215"><ele>89.8</ele><time>2015-05-02T11:31:54.0000000+00:00</time></trkpt><trkpt lat="35.019972" lon="33.6212106"><ele>90.4</ele><time>2015-05-02T11:31:55.0000000+00:00</time></trkpt><trkpt lat="35.0200371" lon="33.6212138"><ele>90.7</ele><time>2015-05-02T11:31:56.0000000+00:00</time></trkpt><trkpt lat="35.020108" lon="33.6212236"><ele>90.9</ele><time>2015-05-02T11:31:57.0000000+00:00</time></trkpt><trkpt lat="35.0201685" lon="33.6212235"><ele>90.9</ele><time>2015-05-02T11:31:58.0000000+00:00</time></trkpt><trkpt lat="35.020237" lon="33.6212172"><ele>91.0</ele><time>2015-05-02T11:31:59.0000000+00:00</time></trkpt><trkpt lat="35.0203026" lon="33.6212205"><ele>91.0</ele><time>2015-05-02T11:32:00.0000000+00:00</time></trkpt><trkpt lat="35.0203592" lon="33.6212289"><ele>91.0</ele><time>2015-05-02T11:32:01.0000000+00:00</time></trkpt><trkpt lat="35.0204202" lon="33.6212336"><ele>91.0</ele><time>2015-05-02T11:32:02.0000000+00:00</time></trkpt><trkpt lat="35.0204758" lon="33.6212375"><ele>91.0</ele><time>2015-05-02T11:32:03.0000000+00:00</time></trkpt><trkpt lat="35.0205291" lon="33.6212406"><ele>91.0</ele><time>2015-05-02T11:32:04.0000000+00:00</time></trkpt><trkpt lat="35.0205802" lon="33.6212429"><ele>90.5</ele><time>2015-05-02T11:32:05.0000000+00:00</time></trkpt><trkpt lat="35.020627" lon="33.6212398"><ele>90.9</ele><time>2015-05-02T11:32:07.0000000+00:00</time></trkpt><trkpt lat="35.0206758" lon="33.6212424"><ele>90.8</ele><time>2015-05-02T11:32:10.0000000+00:00</time></trkpt><trkpt lat="35.0207342" lon="33.62125"><ele>91.2</ele><time>2015-05-02T11:32:13.0000000+00:00</time></trkpt><trkpt lat="35.0207797" lon="33.6212548"><ele>91.8</ele><time>2015-05-02T11:32:15.0000000+00:00</time></trkpt><trkpt lat="35.020837" lon="33.6212592"><ele>92.0</ele><time>2015-05-02T11:32:17.0000000+00:00</time></trkpt><trkpt lat="35.0209094" lon="33.6212652"><ele>92.5</ele><time>2015-05-02T11:32:19.0000000+00:00</time></trkpt><trkpt lat="35.0209932" lon="33.6212726"><ele>92.9</ele><time>2015-05-02T11:32:21.0000000+00:00</time></trkpt><trkpt lat="35.0210782" lon="33.621272"><ele>93.0</ele><time>2015-05-02T11:32:23.0000000+00:00</time></trkpt><trkpt lat="35.0211591" lon="33.6212716"><ele>93.8</ele><time>2015-05-02T11:32:25.0000000+00:00</time></trkpt><trkpt lat="35.0212411" lon="33.6212626"><ele>94.5</ele><time>2015-05-02T11:32:27.0000000+00:00</time></trkpt><trkpt lat="35.0213269" lon="33.6212482"><ele>94.6</ele><time>2015-05-02T11:32:29.0000000+00:00</time></trkpt><trkpt lat="35.0214105" lon="33.6212291"><ele>94.9</ele><time>2015-05-02T11:32:31.0000000+00:00</time></trkpt><trkpt lat="35.0214954" lon="33.6211958"><ele>95.0</ele><time>2015-05-02T11:32:33.0000000+00:00</time></trkpt><trkpt lat="35.021549" lon="33.62116"><ele>95.0</ele><time>2015-05-02T11:32:34.0000000+00:00</time></trkpt><trkpt lat="35.0215938" lon="33.621137"><ele>95.0</ele><time>2015-05-02T11:32:35.0000000+00:00</time></trkpt><trkpt lat="35.0216365" lon="33.6211103"><ele>95.0</ele><time>2015-05-02T11:32:36.0000000+00:00</time></trkpt><trkpt lat="35.0216799" lon="33.6210884"><ele>95.5</ele><time>2015-05-02T11:32:37.0000000+00:00</time></trkpt><trkpt lat="35.0217505" lon="33.6210355"><ele>95.9</ele><time>2015-05-02T11:32:39.0000000+00:00</time></trkpt><trkpt lat="35.0218194" lon="33.6209752"><ele>96.0</ele><time>2015-05-02T11:32:41.0000000+00:00</time></trkpt><trkpt lat="35.0218581" lon="33.6209406"><ele>96.0</ele><time>2015-05-02T11:32:42.0000000+00:00</time></trkpt><trkpt lat="35.0218939" lon="33.6209045"><ele>96.0</ele><time>2015-05-02T11:32:43.0000000+00:00</time></trkpt><trkpt lat="35.0219297" lon="33.620865"><ele>96.5</ele><time>2015-05-02T11:32:44.0000000+00:00</time></trkpt><trkpt lat="35.0219659" lon="33.6208172"><ele>96.8</ele><time>2015-05-02T11:32:45.0000000+00:00</time></trkpt><trkpt lat="35.0220253" lon="33.6207394"><ele>96.5</ele><time>2015-05-02T11:32:47.0000000+00:00</time></trkpt><trkpt lat="35.022077" lon="33.6206726"><ele>96.1</ele><time>2015-05-02T11:32:49.0000000+00:00</time></trkpt><trkpt lat="35.0221239" lon="33.6205997"><ele>96.8</ele><time>2015-05-02T11:32:51.0000000+00:00</time></trkpt><trkpt lat="35.0221693" lon="33.6205138"><ele>97.0</ele><time>2015-05-02T11:32:53.0000000+00:00</time></trkpt><trkpt lat="35.0222321" lon="33.6204318"><ele>97.0</ele><time>2015-05-02T11:32:55.0000000+00:00</time></trkpt><trkpt lat="35.022264" lon="33.6203801"><ele>97.0</ele><time>2015-05-02T11:32:56.0000000+00:00</time></trkpt><trkpt lat="35.0222957" lon="33.620331"><ele>97.0</ele><time>2015-05-02T11:32:57.0000000+00:00</time></trkpt><trkpt lat="35.0223285" lon="33.620271"><ele>97.0</ele><time>2015-05-02T11:32:58.0000000+00:00</time></trkpt><trkpt lat="35.022361" lon="33.620225"><ele>97.0</ele><time>2015-05-02T11:32:59.0000000+00:00</time></trkpt><trkpt lat="35.0223899" lon="33.6201802"><ele>96.5</ele><time>2015-05-02T11:33:00.0000000+00:00</time></trkpt><trkpt lat="35.0224249" lon="33.6201306"><ele>96.3</ele><time>2015-05-02T11:33:01.0000000+00:00</time></trkpt><trkpt lat="35.0224764" lon="33.6200404"><ele>96.8</ele><time>2015-05-02T11:33:03.0000000+00:00</time></trkpt><trkpt lat="35.0225052" lon="33.619998"><ele>96.9</ele><time>2015-05-02T11:33:04.0000000+00:00</time></trkpt><trkpt lat="35.0225343" lon="33.6199501"><ele>97.0</ele><time>2015-05-02T11:33:05.0000000+00:00</time></trkpt><trkpt lat="35.0225657" lon="33.6198964"><ele>97.0</ele><time>2015-05-02T11:33:06.0000000+00:00</time></trkpt><trkpt lat="35.0225985" lon="33.61985"><ele>97.0</ele><time>2015-05-02T11:33:07.0000000+00:00</time></trkpt><trkpt lat="35.0226289" lon="33.6197935"><ele>97.0</ele><time>2015-05-02T11:33:08.0000000+00:00</time></trkpt><trkpt lat="35.0226592" lon="33.6197335"><ele>97.0</ele><time>2015-05-02T11:33:09.0000000+00:00</time></trkpt><trkpt lat="35.0226871" lon="33.6196827"><ele>97.5</ele><time>2015-05-02T11:33:10.0000000+00:00</time></trkpt><trkpt lat="35.0227118" lon="33.6196278"><ele>97.8</ele><time>2015-05-02T11:33:11.0000000+00:00</time></trkpt><trkpt lat="35.0227366" lon="33.6195783"><ele>97.9</ele><time>2015-05-02T11:33:12.0000000+00:00</time></trkpt><trkpt lat="35.0227857" lon="33.6194804"><ele>97.5</ele><time>2015-05-02T11:33:14.0000000+00:00</time></trkpt><trkpt lat="35.0228117" lon="33.6194333"><ele>97.3</ele><time>2015-05-02T11:33:15.0000000+00:00</time></trkpt><trkpt lat="35.0228595" lon="33.6193349"><ele>97.1</ele><time>2015-05-02T11:33:17.0000000+00:00</time></trkpt><trkpt lat="35.0228804" lon="33.6192858"><ele>97.1</ele><time>2015-05-02T11:33:18.0000000+00:00</time></trkpt><trkpt lat="35.0229088" lon="33.6192298"><ele>97.5</ele><time>2015-05-02T11:33:19.0000000+00:00</time></trkpt><trkpt lat="35.0229276" lon="33.6191671"><ele>97.8</ele><time>2015-05-02T11:33:20.0000000+00:00</time></trkpt><trkpt lat="35.0229558" lon="33.6191062"><ele>97.9</ele><time>2015-05-02T11:33:21.0000000+00:00</time></trkpt><trkpt lat="35.0229924" lon="33.6190486"><ele>98.0</ele><time>2015-05-02T11:33:22.0000000+00:00</time></trkpt><trkpt lat="35.0230186" lon="33.6189982"><ele>98.0</ele><time>2015-05-02T11:33:23.0000000+00:00</time></trkpt><trkpt lat="35.023052" lon="33.6189522"><ele>98.0</ele><time>2015-05-02T11:33:24.0000000+00:00</time></trkpt><trkpt lat="35.0230862" lon="33.6189011"><ele>98.0</ele><time>2015-05-02T11:33:25.0000000+00:00</time></trkpt><trkpt lat="35.023136" lon="33.6188154"><ele>98.0</ele><time>2015-05-02T11:33:27.0000000+00:00</time></trkpt><trkpt lat="35.0231874" lon="33.6187375"><ele>97.8</ele><time>2015-05-02T11:33:29.0000000+00:00</time></trkpt><trkpt lat="35.0232216" lon="33.6187016"><ele>97.9</ele><time>2015-05-02T11:33:30.0000000+00:00</time></trkpt><trkpt lat="35.0232585" lon="33.6186632"><ele>98.0</ele><time>2015-05-02T11:33:31.0000000+00:00</time></trkpt><trkpt lat="35.0232977" lon="33.6186222"><ele>98.5</ele><time>2015-05-02T11:33:32.0000000+00:00</time></trkpt><trkpt lat="35.0233317" lon="33.6185831"><ele>98.8</ele><time>2015-05-02T11:33:33.0000000+00:00</time></trkpt><trkpt lat="35.0233665" lon="33.6185477"><ele>98.9</ele><time>2015-05-02T11:33:34.0000000+00:00</time></trkpt><trkpt lat="35.0234088" lon="33.6185132"><ele>99.0</ele><time>2015-05-02T11:33:35.0000000+00:00</time></trkpt><trkpt lat="35.0234491" lon="33.6184792"><ele>99.5</ele><time>2015-05-02T11:33:36.0000000+00:00</time></trkpt><trkpt lat="35.0235314" lon="33.6184123"><ele>100.6</ele><time>2015-05-02T11:33:38.0000000+00:00</time></trkpt><trkpt lat="35.0235707" lon="33.6183796"><ele>101.3</ele><time>2015-05-02T11:33:39.0000000+00:00</time></trkpt><trkpt lat="35.0236107" lon="33.6183508"><ele>101.7</ele><time>2015-05-02T11:33:40.0000000+00:00</time></trkpt><trkpt lat="35.0236573" lon="33.6183203"><ele>101.8</ele><time>2015-05-02T11:33:41.0000000+00:00</time></trkpt><trkpt lat="35.0237372" lon="33.6182771"><ele>102.5</ele><time>2015-05-02T11:33:43.0000000+00:00</time></trkpt><trkpt lat="35.0238223" lon="33.6182399"><ele>102.9</ele><time>2015-05-02T11:33:45.0000000+00:00</time></trkpt><trkpt lat="35.023874" lon="33.6182131"><ele>103.5</ele><time>2015-05-02T11:33:46.0000000+00:00</time></trkpt><trkpt lat="35.0239221" lon="33.6181894"><ele>103.7</ele><time>2015-05-02T11:33:47.0000000+00:00</time></trkpt><trkpt lat="35.0239685" lon="33.6181681"><ele>103.9</ele><time>2015-05-02T11:33:48.0000000+00:00</time></trkpt><trkpt lat="35.024022" lon="33.6181476"><ele>104.0</ele><time>2015-05-02T11:33:49.0000000+00:00</time></trkpt><trkpt lat="35.0241188" lon="33.6181113"><ele>104.0</ele><time>2015-05-02T11:33:51.0000000+00:00</time></trkpt><trkpt lat="35.0242008" lon="33.6180875"><ele>104.0</ele><time>2015-05-02T11:33:53.0000000+00:00</time></trkpt><trkpt lat="35.0242546" lon="33.6180816"><ele>104.0</ele><time>2015-05-02T11:33:54.0000000+00:00</time></trkpt><trkpt lat="35.0243039" lon="33.6180791"><ele>104.5</ele><time>2015-05-02T11:33:55.0000000+00:00</time></trkpt><trkpt lat="35.0243522" lon="33.618073"><ele>104.3</ele><time>2015-05-02T11:33:56.0000000+00:00</time></trkpt><trkpt lat="35.0244038" lon="33.6180664"><ele>104.1</ele><time>2015-05-02T11:33:57.0000000+00:00</time></trkpt><trkpt lat="35.0245002" lon="33.6180398"><ele>104.1</ele><time>2015-05-02T11:33:59.0000000+00:00</time></trkpt><trkpt lat="35.0245478" lon="33.6180325"><ele>104.5</ele><time>2015-05-02T11:34:00.0000000+00:00</time></trkpt><trkpt lat="35.0246324" lon="33.6180188"><ele>104.9</ele><time>2015-05-02T11:34:02.0000000+00:00</time></trkpt><trkpt lat="35.0247187" lon="33.6180104"><ele>105.7</ele><time>2015-05-02T11:34:04.0000000+00:00</time></trkpt><trkpt lat="35.0247641" lon="33.6180054"><ele>105.4</ele><time>2015-05-02T11:34:05.0000000+00:00</time></trkpt><trkpt lat="35.02486" lon="33.6179845"><ele>105.1</ele><time>2015-05-02T11:34:07.0000000+00:00</time></trkpt><trkpt lat="35.0249104" lon="33.6179708"><ele>105.1</ele><time>2015-05-02T11:34:08.0000000+00:00</time></trkpt><trkpt lat="35.0249559" lon="33.6179616"><ele>104.5</ele><time>2015-05-02T11:34:09.0000000+00:00</time></trkpt><trkpt lat="35.0250096" lon="33.61795"><ele>104.8</ele><time>2015-05-02T11:34:10.0000000+00:00</time></trkpt><trkpt lat="35.0250577" lon="33.6179362"><ele>104.9</ele><time>2015-05-02T11:34:11.0000000+00:00</time></trkpt><trkpt lat="35.025106" lon="33.6179237"><ele>105.5</ele><time>2015-05-02T11:34:12.0000000+00:00</time></trkpt><trkpt lat="35.025155" lon="33.6179154"><ele>105.2</ele><time>2015-05-02T11:34:13.0000000+00:00</time></trkpt><trkpt lat="35.0252432" lon="33.6178969"><ele>105.3</ele><time>2015-05-02T11:34:15.0000000+00:00</time></trkpt><trkpt lat="35.025293" lon="33.6178767"><ele>105.7</ele><time>2015-05-02T11:34:16.0000000+00:00</time></trkpt><trkpt lat="35.0253383" lon="33.6178662"><ele>105.8</ele><time>2015-05-02T11:34:17.0000000+00:00</time></trkpt><trkpt lat="35.0253963" lon="33.6178564"><ele>105.9</ele><time>2015-05-02T11:34:18.0000000+00:00</time></trkpt><trkpt lat="35.025445" lon="33.6178436"><ele>106.0</ele><time>2015-05-02T11:34:19.0000000+00:00</time></trkpt><trkpt lat="35.025499" lon="33.6178336"><ele>106.0</ele><time>2015-05-02T11:34:20.0000000+00:00</time></trkpt><trkpt lat="35.025556" lon="33.617815"><ele>106.5</ele><time>2015-05-02T11:34:21.0000000+00:00</time></trkpt><trkpt lat="35.0256023" lon="33.6178006"><ele>106.8</ele><time>2015-05-02T11:34:22.0000000+00:00</time></trkpt><trkpt lat="35.0256561" lon="33.6177844"><ele>106.9</ele><time>2015-05-02T11:34:23.0000000+00:00</time></trkpt><trkpt lat="35.0257049" lon="33.6177728"><ele>107.0</ele><time>2015-05-02T11:34:24.0000000+00:00</time></trkpt><trkpt lat="35.0257584" lon="33.6177645"><ele>106.5</ele><time>2015-05-02T11:34:25.0000000+00:00</time></trkpt><trkpt lat="35.0258077" lon="33.6177487"><ele>106.3</ele><time>2015-05-02T11:34:26.0000000+00:00</time></trkpt><trkpt lat="35.0258527" lon="33.6177329"><ele>106.6</ele><time>2015-05-02T11:34:27.0000000+00:00</time></trkpt><trkpt lat="35.0259022" lon="33.6177116"><ele>106.8</ele><time>2015-05-02T11:34:28.0000000+00:00</time></trkpt><trkpt lat="35.0259622" lon="33.6176979"><ele>106.9</ele><time>2015-05-02T11:34:29.0000000+00:00</time></trkpt><trkpt lat="35.0260176" lon="33.617683"><ele>106.5</ele><time>2015-05-02T11:34:30.0000000+00:00</time></trkpt><trkpt lat="35.0260728" lon="33.6176689"><ele>106.2</ele><time>2015-05-02T11:34:31.0000000+00:00</time></trkpt><trkpt lat="35.0261219" lon="33.6176433"><ele>106.1</ele><time>2015-05-02T11:34:32.0000000+00:00</time></trkpt><trkpt lat="35.0262088" lon="33.6176027"><ele>106.8</ele><time>2015-05-02T11:34:34.0000000+00:00</time></trkpt><trkpt lat="35.026284" lon="33.6175533"><ele>107.0</ele><time>2015-05-02T11:34:36.0000000+00:00</time></trkpt><trkpt lat="35.0263591" lon="33.6175206"><ele>107.8</ele><time>2015-05-02T11:34:38.0000000+00:00</time></trkpt><trkpt lat="35.0264206" lon="33.6174906"><ele>108.5</ele><time>2015-05-02T11:34:40.0000000+00:00</time></trkpt><trkpt lat="35.0264786" lon="33.6174494"><ele>108.9</ele><time>2015-05-02T11:34:42.0000000+00:00</time></trkpt><trkpt lat="35.0265357" lon="33.6174212"><ele>109.0</ele><time>2015-05-02T11:34:44.0000000+00:00</time></trkpt><trkpt lat="35.0265966" lon="33.6173839"><ele>109.0</ele><time>2015-05-02T11:34:46.0000000+00:00</time></trkpt><trkpt lat="35.0266663" lon="33.6173464"><ele>109.0</ele><time>2015-05-02T11:34:48.0000000+00:00</time></trkpt><trkpt lat="35.0267437" lon="33.617301"><ele>108.3</ele><time>2015-05-02T11:34:50.0000000+00:00</time></trkpt><trkpt lat="35.0268236" lon="33.6172574"><ele>108.6</ele><time>2015-05-02T11:34:52.0000000+00:00</time></trkpt><trkpt lat="35.0268688" lon="33.6172364"><ele>108.8</ele><time>2015-05-02T11:34:53.0000000+00:00</time></trkpt><trkpt lat="35.0269148" lon="33.6172095"><ele>108.9</ele><time>2015-05-02T11:34:54.0000000+00:00</time></trkpt><trkpt lat="35.0269612" lon="33.6171857"><ele>109.0</ele><time>2015-05-02T11:34:55.0000000+00:00</time></trkpt><trkpt lat="35.0270024" lon="33.6171597"><ele>109.0</ele><time>2015-05-02T11:34:56.0000000+00:00</time></trkpt><trkpt lat="35.0270836" lon="33.6171078"><ele>108.3</ele><time>2015-05-02T11:34:58.0000000+00:00</time></trkpt><trkpt lat="35.0271257" lon="33.6170804"><ele>108.1</ele><time>2015-05-02T11:34:59.0000000+00:00</time></trkpt><trkpt lat="35.0271709" lon="33.6170581"><ele>108.1</ele><time>2015-05-02T11:35:00.0000000+00:00</time></trkpt><trkpt lat="35.0272215" lon="33.6170336"><ele>108.1</ele><time>2015-05-02T11:35:01.0000000+00:00</time></trkpt><trkpt lat="35.0272625" lon="33.6170049"><ele>108.0</ele><time>2015-05-02T11:35:02.0000000+00:00</time></trkpt><trkpt lat="35.0273111" lon="33.6169775"><ele>107.5</ele><time>2015-05-02T11:35:03.0000000+00:00</time></trkpt><trkpt lat="35.027357" lon="33.6169513"><ele>107.8</ele><time>2015-05-02T11:35:04.0000000+00:00</time></trkpt><trkpt lat="35.0273987" lon="33.6169298"><ele>107.9</ele><time>2015-05-02T11:35:05.0000000+00:00</time></trkpt><trkpt lat="35.0274408" lon="33.6169002"><ele>108.0</ele><time>2015-05-02T11:35:06.0000000+00:00</time></trkpt><trkpt lat="35.0274844" lon="33.6168858"><ele>108.0</ele><time>2015-05-02T11:35:07.0000000+00:00</time></trkpt><trkpt lat="35.0275622" lon="33.6168377"><ele>108.0</ele><time>2015-05-02T11:35:09.0000000+00:00</time></trkpt><trkpt lat="35.0276334" lon="33.6167959"><ele>108.0</ele><time>2015-05-02T11:35:11.0000000+00:00</time></trkpt><trkpt lat="35.0277043" lon="33.6167587"><ele>108.8</ele><time>2015-05-02T11:35:13.0000000+00:00</time></trkpt><trkpt lat="35.0277868" lon="33.6167248"><ele>109.5</ele><time>2015-05-02T11:35:15.0000000+00:00</time></trkpt><trkpt lat="35.0278474" lon="33.6167029"><ele>109.6</ele><time>2015-05-02T11:35:17.0000000+00:00</time></trkpt><trkpt lat="35.0279117" lon="33.6166779"><ele>109.9</ele><time>2015-05-02T11:35:19.0000000+00:00</time></trkpt><trkpt lat="35.0279686" lon="33.6166486"><ele>110.0</ele><time>2015-05-02T11:35:21.0000000+00:00</time></trkpt><trkpt lat="35.0280432" lon="33.6166147"><ele>110.0</ele><time>2015-05-02T11:35:23.0000000+00:00</time></trkpt><trkpt lat="35.0280898" lon="33.6165969"><ele>110.0</ele><time>2015-05-02T11:35:24.0000000+00:00</time></trkpt><trkpt lat="35.028145" lon="33.616578"><ele>110.0</ele><time>2015-05-02T11:35:25.0000000+00:00</time></trkpt><trkpt lat="35.0282298" lon="33.6165326"><ele>109.5</ele><time>2015-05-02T11:35:27.0000000+00:00</time></trkpt><trkpt lat="35.0282732" lon="33.6165084"><ele>109.3</ele><time>2015-05-02T11:35:28.0000000+00:00</time></trkpt><trkpt lat="35.0283584" lon="33.6164723"><ele>109.1</ele><time>2015-05-02T11:35:30.0000000+00:00</time></trkpt><trkpt lat="35.0284389" lon="33.6164372"><ele>109.0</ele><time>2015-05-02T11:35:32.0000000+00:00</time></trkpt><trkpt lat="35.0285112" lon="33.6164036"><ele>108.3</ele><time>2015-05-02T11:35:34.0000000+00:00</time></trkpt><trkpt lat="35.0285863" lon="33.6163756"><ele>108.1</ele><time>2015-05-02T11:35:36.0000000+00:00</time></trkpt><trkpt lat="35.0286633" lon="33.616343"><ele>108.0</ele><time>2015-05-02T11:35:38.0000000+00:00</time></trkpt><trkpt lat="35.0287511" lon="33.6163152"><ele>108.5</ele><time>2015-05-02T11:35:40.0000000+00:00</time></trkpt><trkpt lat="35.0288012" lon="33.6162978"><ele>108.8</ele><time>2015-05-02T11:35:41.0000000+00:00</time></trkpt><trkpt lat="35.0288869" lon="33.6162602"><ele>109.0</ele><time>2015-05-02T11:35:43.0000000+00:00</time></trkpt><trkpt lat="35.0289314" lon="33.6162468"><ele>109.0</ele><time>2015-05-02T11:35:44.0000000+00:00</time></trkpt><trkpt lat="35.0290016" lon="33.6162128"><ele>109.0</ele><time>2015-05-02T11:35:46.0000000+00:00</time></trkpt><trkpt lat="35.029065" lon="33.6161907"><ele>109.8</ele><time>2015-05-02T11:35:48.0000000+00:00</time></trkpt><trkpt lat="35.0291372" lon="33.6161642"><ele>109.2</ele><time>2015-05-02T11:35:50.0000000+00:00</time></trkpt><trkpt lat="35.0292188" lon="33.6161289"><ele>109.6</ele><time>2015-05-02T11:35:52.0000000+00:00</time></trkpt><trkpt lat="35.0293016" lon="33.6160933"><ele>109.9</ele><time>2015-05-02T11:35:54.0000000+00:00</time></trkpt><trkpt lat="35.0293852" lon="33.6160594"><ele>110.7</ele><time>2015-05-02T11:35:56.0000000+00:00</time></trkpt><trkpt lat="35.0294389" lon="33.6160397"><ele>110.9</ele><time>2015-05-02T11:35:57.0000000+00:00</time></trkpt><trkpt lat="35.0294847" lon="33.6160222"><ele>111.0</ele><time>2015-05-02T11:35:58.0000000+00:00</time></trkpt><trkpt lat="35.0295346" lon="33.6160006"><ele>111.0</ele><time>2015-05-02T11:35:59.0000000+00:00</time></trkpt><trkpt lat="35.0295882" lon="33.6159718"><ele>111.0</ele><time>2015-05-02T11:36:00.0000000+00:00</time></trkpt><trkpt lat="35.0296354" lon="33.615951"><ele>111.0</ele><time>2015-05-02T11:36:01.0000000+00:00</time></trkpt><trkpt lat="35.0296862" lon="33.6159318"><ele>111.0</ele><time>2015-05-02T11:36:02.0000000+00:00</time></trkpt><trkpt lat="35.0297379" lon="33.6159199"><ele>111.0</ele><time>2015-05-02T11:36:03.0000000+00:00</time></trkpt><trkpt lat="35.0297851" lon="33.6159073"><ele>111.0</ele><time>2015-05-02T11:36:04.0000000+00:00</time></trkpt><trkpt lat="35.0298349" lon="33.6158879"><ele>111.5</ele><time>2015-05-02T11:36:05.0000000+00:00</time></trkpt><trkpt lat="35.0299193" lon="33.6158491"><ele>111.9</ele><time>2015-05-02T11:36:07.0000000+00:00</time></trkpt><trkpt lat="35.0299626" lon="33.6158319"><ele>112.0</ele><time>2015-05-02T11:36:08.0000000+00:00</time></trkpt><trkpt lat="35.0300518" lon="33.6157961"><ele>112.0</ele><time>2015-05-02T11:36:10.0000000+00:00</time></trkpt><trkpt lat="35.0300953" lon="33.6157763"><ele>112.5</ele><time>2015-05-02T11:36:11.0000000+00:00</time></trkpt><trkpt lat="35.030141" lon="33.6157576"><ele>112.8</ele><time>2015-05-02T11:36:12.0000000+00:00</time></trkpt><trkpt lat="35.0301933" lon="33.6157441"><ele>112.4</ele><time>2015-05-02T11:36:13.0000000+00:00</time></trkpt><trkpt lat="35.0302367" lon="33.6157265"><ele>112.2</ele><time>2015-05-02T11:36:14.0000000+00:00</time></trkpt><trkpt lat="35.030314" lon="33.6156923"><ele>112.8</ele><time>2015-05-02T11:36:16.0000000+00:00</time></trkpt><trkpt lat="35.0304055" lon="33.6156555"><ele>113.0</ele><time>2015-05-02T11:36:18.0000000+00:00</time></trkpt><trkpt lat="35.0304712" lon="33.6156484"><ele>113.0</ele><time>2015-05-02T11:36:19.0000000+00:00</time></trkpt><trkpt lat="35.0305201" lon="33.6156323"><ele>113.5</ele><time>2015-05-02T11:36:20.0000000+00:00</time></trkpt><trkpt lat="35.0305752" lon="33.6156176"><ele>113.8</ele><time>2015-05-02T11:36:21.0000000+00:00</time></trkpt><trkpt lat="35.0306229" lon="33.6155941"><ele>113.9</ele><time>2015-05-02T11:36:22.0000000+00:00</time></trkpt><trkpt lat="35.0306717" lon="33.6155811"><ele>114.0</ele><time>2015-05-02T11:36:23.0000000+00:00</time></trkpt><trkpt lat="35.0307218" lon="33.6155661"><ele>114.0</ele><time>2015-05-02T11:36:24.0000000+00:00</time></trkpt><trkpt lat="35.0307652" lon="33.6155486"><ele>114.5</ele><time>2015-05-02T11:36:25.0000000+00:00</time></trkpt><trkpt lat="35.0308432" lon="33.615534"><ele>114.9</ele><time>2015-05-02T11:36:27.0000000+00:00</time></trkpt><trkpt lat="35.0309232" lon="33.6155133"><ele>115.7</ele><time>2015-05-02T11:36:29.0000000+00:00</time></trkpt><trkpt lat="35.0309974" lon="33.6154707"><ele>115.7</ele><time>2015-05-02T11:36:31.0000000+00:00</time></trkpt><trkpt lat="35.0310554" lon="33.6154619"><ele>115.9</ele><time>2015-05-02T11:36:32.0000000+00:00</time></trkpt><trkpt lat="35.031147" lon="33.6154322"><ele>116.0</ele><time>2015-05-02T11:36:34.0000000+00:00</time></trkpt><trkpt lat="35.0312338" lon="33.6154097"><ele>116.5</ele><time>2015-05-02T11:36:36.0000000+00:00</time></trkpt><trkpt lat="35.031283" lon="33.6153916"><ele>116.3</ele><time>2015-05-02T11:36:37.0000000+00:00</time></trkpt><trkpt lat="35.0313239" lon="33.6153653"><ele>116.1</ele><time>2015-05-02T11:36:38.0000000+00:00</time></trkpt><trkpt lat="35.0313733" lon="33.6153462"><ele>116.1</ele><time>2015-05-02T11:36:39.0000000+00:00</time></trkpt><trkpt lat="35.0314469" lon="33.6153166"><ele>116.8</ele><time>2015-05-02T11:36:41.0000000+00:00</time></trkpt><trkpt lat="35.0315138" lon="33.6152851"><ele>116.2</ele><time>2015-05-02T11:36:43.0000000+00:00</time></trkpt><trkpt lat="35.0315811" lon="33.6152529"><ele>116.1</ele><time>2015-05-02T11:36:45.0000000+00:00</time></trkpt><trkpt lat="35.0316501" lon="33.6152243"><ele>116.5</ele><time>2015-05-02T11:36:47.0000000+00:00</time></trkpt><trkpt lat="35.0317227" lon="33.6151952"><ele>116.6</ele><time>2015-05-02T11:36:49.0000000+00:00</time></trkpt><trkpt lat="35.0317586" lon="33.6151534"><ele>116.4</ele><time>2015-05-02T11:36:51.0000000+00:00</time></trkpt><trkpt lat="35.0318316" lon="33.615149"><ele>115.7</ele><time>2015-05-02T11:36:59.0000000+00:00</time></trkpt><trkpt lat="35.0319002" lon="33.6151865"><ele>115.9</ele><time>2015-05-02T11:37:01.0000000+00:00</time></trkpt><trkpt lat="35.0319691" lon="33.6152439"><ele>116.0</ele><time>2015-05-02T11:37:03.0000000+00:00</time></trkpt><trkpt lat="35.0320307" lon="33.6153035"><ele>115.3</ele><time>2015-05-02T11:37:05.0000000+00:00</time></trkpt><trkpt lat="35.0321015" lon="33.6153596"><ele>114.6</ele><time>2015-05-02T11:37:07.0000000+00:00</time></trkpt><trkpt lat="35.0321444" lon="33.6153872"><ele>114.3</ele><time>2015-05-02T11:37:08.0000000+00:00</time></trkpt><trkpt lat="35.0321988" lon="33.6154158"><ele>114.2</ele><time>2015-05-02T11:37:09.0000000+00:00</time></trkpt><trkpt lat="35.0322787" lon="33.6154362"><ele>114.6</ele><time>2015-05-02T11:37:11.0000000+00:00</time></trkpt><trkpt lat="35.0323518" lon="33.6154554"><ele>114.9</ele><time>2015-05-02T11:37:13.0000000+00:00</time></trkpt><trkpt lat="35.0324148" lon="33.6154693"><ele>115.7</ele><time>2015-05-02T11:37:15.0000000+00:00</time></trkpt><trkpt lat="35.032468" lon="33.615474"><ele>116.0</ele><time>2015-05-02T11:37:17.0000000+00:00</time></trkpt><trkpt lat="35.0325144" lon="33.6154763"><ele>116.5</ele><time>2015-05-02T11:37:19.0000000+00:00</time></trkpt><trkpt lat="35.03257" lon="33.6154766"><ele>117.7</ele><time>2015-05-02T11:37:22.0000000+00:00</time></trkpt><trkpt lat="35.0326216" lon="33.6154743"><ele>117.5</ele><time>2015-05-02T11:37:25.0000000+00:00</time></trkpt><trkpt lat="35.0326728" lon="33.6154828"><ele>117.1</ele><time>2015-05-02T11:37:28.0000000+00:00</time></trkpt><trkpt lat="35.0327201" lon="33.6154734"><ele>116.1</ele><time>2015-05-02T11:41:36.0000000+00:00</time></trkpt><trkpt lat="35.0326838" lon="33.6155458"><ele>116.2</ele><time>2015-05-02T11:41:41.0000000+00:00</time></trkpt><trkpt lat="35.0326289" lon="33.6156301"><ele>116.8</ele><time>2015-05-02T11:41:43.0000000+00:00</time></trkpt><trkpt lat="35.032617" lon="33.6156832"><ele>116.9</ele><time>2015-05-02T11:41:44.0000000+00:00</time></trkpt><trkpt lat="35.0326174" lon="33.6157891"><ele>117.2</ele><time>2015-05-02T11:41:46.0000000+00:00</time></trkpt><trkpt lat="35.0326198" lon="33.6158857"><ele>117.1</ele><time>2015-05-02T11:41:48.0000000+00:00</time></trkpt><trkpt lat="35.0326198" lon="33.6159841"><ele>117.8</ele><time>2015-05-02T11:41:50.0000000+00:00</time></trkpt><trkpt lat="35.032615" lon="33.6160861"><ele>118.0</ele><time>2015-05-02T11:41:52.0000000+00:00</time></trkpt><trkpt lat="35.032569" lon="33.616217"><ele>118.3</ele><time>2015-05-02T11:41:54.0000000+00:00</time></trkpt><trkpt lat="35.032574" lon="33.6163196"><ele>118.3</ele><time>2015-05-02T11:41:56.0000000+00:00</time></trkpt><trkpt lat="35.0325621" lon="33.6164114"><ele>117.6</ele><time>2015-05-02T11:41:58.0000000+00:00</time></trkpt><trkpt lat="35.0325703" lon="33.6164916"><ele>117.2</ele><time>2015-05-02T11:42:00.0000000+00:00</time></trkpt><trkpt lat="35.0325695" lon="33.6165524"><ele>117.9</ele><time>2015-05-02T11:42:03.0000000+00:00</time></trkpt><trkpt lat="35.0325129" lon="33.6165564"><ele>117.1</ele><time>2015-05-02T11:42:07.0000000+00:00</time></trkpt><trkpt lat="35.0324545" lon="33.6165041"><ele>117.1</ele><time>2015-05-02T11:42:09.0000000+00:00</time></trkpt><trkpt lat="35.0324006" lon="33.616426"><ele>116.5</ele><time>2015-05-02T11:42:11.0000000+00:00</time></trkpt><trkpt lat="35.0323304" lon="33.6163232"><ele>116.1</ele><time>2015-05-02T11:42:13.0000000+00:00</time></trkpt><trkpt lat="35.0322932" lon="33.6162855"><ele>116.1</ele><time>2015-05-02T11:42:14.0000000+00:00</time></trkpt><trkpt lat="35.0322548" lon="33.6162561"><ele>116.1</ele><time>2015-05-02T11:42:15.0000000+00:00</time></trkpt><trkpt lat="35.0321718" lon="33.6161929"><ele>116.3</ele><time>2015-05-02T11:42:17.0000000+00:00</time></trkpt><trkpt lat="35.032126" lon="33.6161648"><ele>115.6</ele><time>2015-05-02T11:42:18.0000000+00:00</time></trkpt><trkpt lat="35.0320419" lon="33.6161419"><ele>114.9</ele><time>2015-05-02T11:42:20.0000000+00:00</time></trkpt><trkpt lat="35.0319932" lon="33.616105"><ele>115.0</ele><time>2015-05-02T11:42:21.0000000+00:00</time></trkpt><trkpt lat="35.0319489" lon="33.6161231"><ele>115.5</ele><time>2015-05-02T11:42:22.0000000+00:00</time></trkpt><trkpt lat="35.0318928" lon="33.6161167"><ele>115.8</ele><time>2015-05-02T11:42:23.0000000+00:00</time></trkpt><trkpt lat="35.0318357" lon="33.6161053"><ele>115.9</ele><time>2015-05-02T11:42:24.0000000+00:00</time></trkpt><trkpt lat="35.0317841" lon="33.6160953"><ele>116.0</ele><time>2015-05-02T11:42:25.0000000+00:00</time></trkpt><trkpt lat="35.0317308" lon="33.6160803"><ele>116.5</ele><time>2015-05-02T11:42:26.0000000+00:00</time></trkpt><trkpt lat="35.0316821" lon="33.6160669"><ele>116.3</ele><time>2015-05-02T11:42:27.0000000+00:00</time></trkpt><trkpt lat="35.0316362" lon="33.6160443"><ele>116.1</ele><time>2015-05-02T11:42:28.0000000+00:00</time></trkpt><trkpt lat="35.0315856" lon="33.6160178"><ele>116.1</ele><time>2015-05-02T11:42:29.0000000+00:00</time></trkpt><trkpt lat="35.0315446" lon="33.61599"><ele>116.1</ele><time>2015-05-02T11:42:30.0000000+00:00</time></trkpt><trkpt lat="35.0315014" lon="33.6159456"><ele>116.0</ele><time>2015-05-02T11:42:31.0000000+00:00</time></trkpt><trkpt lat="35.0314612" lon="33.6158973"><ele>116.0</ele><time>2015-05-02T11:42:32.0000000+00:00</time></trkpt><trkpt lat="35.0314228" lon="33.6158514"><ele>115.5</ele><time>2015-05-02T11:42:33.0000000+00:00</time></trkpt><trkpt lat="35.0313818" lon="33.6157978"><ele>115.3</ele><time>2015-05-02T11:42:34.0000000+00:00</time></trkpt><trkpt lat="35.0313398" lon="33.6157551"><ele>115.1</ele><time>2015-05-02T11:42:35.0000000+00:00</time></trkpt><trkpt lat="35.0312982" lon="33.6157096"><ele>115.1</ele><time>2015-05-02T11:42:36.0000000+00:00</time></trkpt><trkpt lat="35.0312642" lon="33.6156638"><ele>115.6</ele><time>2015-05-02T11:42:37.0000000+00:00</time></trkpt><trkpt lat="35.0312115" lon="33.6155877"><ele>115.4</ele><time>2015-05-02T11:42:39.0000000+00:00</time></trkpt><trkpt lat="35.0311761" lon="33.6155292"><ele>114.6</ele><time>2015-05-02T11:42:41.0000000+00:00</time></trkpt><trkpt lat="35.0312109" lon="33.6154941"><ele>115.0</ele><time>2015-05-02T11:42:50.0000000+00:00</time></trkpt><trkpt lat="35.0312531" lon="33.6154396"><ele>115.0</ele><time>2015-05-02T11:42:54.0000000+00:00</time></trkpt><trkpt lat="35.0313115" lon="33.6153924"><ele>114.5</ele><time>2015-05-02T11:42:56.0000000+00:00</time></trkpt><trkpt lat="35.0313528" lon="33.6153656"><ele>114.3</ele><time>2015-05-02T11:42:57.0000000+00:00</time></trkpt><trkpt lat="35.031411" lon="33.6153414"><ele>114.6</ele><time>2015-05-02T11:42:58.0000000+00:00</time></trkpt><trkpt lat="35.0315034" lon="33.6153057"><ele>114.9</ele><time>2015-05-02T11:43:00.0000000+00:00</time></trkpt><trkpt lat="35.0315502" lon="33.6152834"><ele>115.5</ele><time>2015-05-02T11:43:01.0000000+00:00</time></trkpt><trkpt lat="35.0316193" lon="33.6152421"><ele>115.9</ele><time>2015-05-02T11:43:03.0000000+00:00</time></trkpt><trkpt lat="35.0316944" lon="33.615207"><ele>116.5</ele><time>2015-05-02T11:43:05.0000000+00:00</time></trkpt><trkpt lat="35.0317667" lon="33.615182"><ele>116.9</ele><time>2015-05-02T11:43:07.0000000+00:00</time></trkpt><trkpt lat="35.0318131" lon="33.6151827"><ele>117.0</ele><time>2015-05-02T11:43:08.0000000+00:00</time></trkpt><trkpt lat="35.0318901" lon="33.6152233"><ele>117.0</ele><time>2015-05-02T11:43:10.0000000+00:00</time></trkpt><trkpt lat="35.0319339" lon="33.6152518"><ele>117.5</ele><time>2015-05-02T11:43:11.0000000+00:00</time></trkpt><trkpt lat="35.0319987" lon="33.6152941"><ele>118.1</ele><time>2015-05-02T11:43:13.0000000+00:00</time></trkpt><trkpt lat="35.0320676" lon="33.6153389"><ele>117.6</ele><time>2015-05-02T11:43:15.0000000+00:00</time></trkpt><trkpt lat="35.0321414" lon="33.6153895"><ele>117.4</ele><time>2015-05-02T11:43:17.0000000+00:00</time></trkpt><trkpt lat="35.0322155" lon="33.6154353"><ele>117.4</ele><time>2015-05-02T11:43:19.0000000+00:00</time></trkpt><trkpt lat="35.0322877" lon="33.6154662"><ele>116.4</ele><time>2015-05-02T11:43:21.0000000+00:00</time></trkpt><trkpt lat="35.0323666" lon="33.6154859"><ele>116.1</ele><time>2015-05-02T11:43:23.0000000+00:00</time></trkpt><trkpt lat="35.03245" lon="33.6154988"><ele>116.5</ele><time>2015-05-02T11:43:25.0000000+00:00</time></trkpt><trkpt lat="35.0325322" lon="33.615502"><ele>117.2</ele><time>2015-05-02T11:43:27.0000000+00:00</time></trkpt><trkpt lat="35.0326029" lon="33.6154909"><ele>117.8</ele><time>2015-05-02T11:43:29.0000000+00:00</time></trkpt><trkpt lat="35.0326215" lon="33.6154139"><ele>118.0</ele><time>2015-05-02T11:43:31.0000000+00:00</time></trkpt><trkpt lat="35.0326194" lon="33.6153242"><ele>118.0</ele><time>2015-05-02T11:43:33.0000000+00:00</time></trkpt><trkpt lat="35.0326496" lon="33.6152389"><ele>118.0</ele><time>2015-05-02T11:43:35.0000000+00:00</time></trkpt><trkpt lat="35.0326956" lon="33.6151601"><ele>117.5</ele><time>2015-05-02T11:43:37.0000000+00:00</time></trkpt><trkpt lat="35.032722" lon="33.6151152"><ele>117.8</ele><time>2015-05-02T11:43:38.0000000+00:00</time></trkpt><trkpt lat="35.0327598" lon="33.6150074"><ele>118.0</ele><time>2015-05-02T11:43:40.0000000+00:00</time></trkpt><trkpt lat="35.0327735" lon="33.6149541"><ele>118.0</ele><time>2015-05-02T11:43:41.0000000+00:00</time></trkpt><trkpt lat="35.0327816" lon="33.6148587"><ele>118.8</ele><time>2015-05-02T11:43:43.0000000+00:00</time></trkpt><trkpt lat="35.0327711" lon="33.6147804"><ele>119.0</ele><time>2015-05-02T11:43:45.0000000+00:00</time></trkpt><trkpt lat="35.0327495" lon="33.6146862"><ele>119.3</ele><time>2015-05-02T11:43:47.0000000+00:00</time></trkpt><trkpt lat="35.0327074" lon="33.6145839"><ele>119.1</ele><time>2015-05-02T11:43:49.0000000+00:00</time></trkpt><trkpt lat="35.0326899" lon="33.6145302"><ele>119.1</ele><time>2015-05-02T11:43:50.0000000+00:00</time></trkpt><trkpt lat="35.0326576" lon="33.6144653"><ele>119.0</ele><time>2015-05-02T11:43:51.0000000+00:00</time></trkpt><trkpt lat="35.032626" lon="33.6144025"><ele>119.0</ele><time>2015-05-02T11:43:52.0000000+00:00</time></trkpt><trkpt lat="35.032599" lon="33.614349"><ele>119.0</ele><time>2015-05-02T11:43:53.0000000+00:00</time></trkpt><trkpt lat="35.0325758" lon="33.6142834"><ele>118.5</ele><time>2015-05-02T11:43:54.0000000+00:00</time></trkpt><trkpt lat="35.0325245" lon="33.6141948"><ele>118.9</ele><time>2015-05-02T11:43:56.0000000+00:00</time></trkpt><trkpt lat="35.032506" lon="33.6141363"><ele>118.5</ele><time>2015-05-02T11:43:57.0000000+00:00</time></trkpt><trkpt lat="35.0324804" lon="33.6140747"><ele>118.2</ele><time>2015-05-02T11:43:58.0000000+00:00</time></trkpt><trkpt lat="35.0324473" lon="33.6140143"><ele>118.1</ele><time>2015-05-02T11:43:59.0000000+00:00</time></trkpt><trkpt lat="35.0324156" lon="33.6139554"><ele>118.6</ele><time>2015-05-02T11:44:00.0000000+00:00</time></trkpt><trkpt lat="35.0324016" lon="33.6139001"><ele>117.8</ele><time>2015-05-02T11:44:01.0000000+00:00</time></trkpt><trkpt lat="35.0323701" lon="33.6138262"><ele>117.4</ele><time>2015-05-02T11:44:02.0000000+00:00</time></trkpt><trkpt lat="35.0323493" lon="33.613762"><ele>117.2</ele><time>2015-05-02T11:44:03.0000000+00:00</time></trkpt><trkpt lat="35.0323176" lon="33.6136903"><ele>117.6</ele><time>2015-05-02T11:44:04.0000000+00:00</time></trkpt><trkpt lat="35.0322994" lon="33.6136057"><ele>117.8</ele><time>2015-05-02T11:44:05.0000000+00:00</time></trkpt><trkpt lat="35.0322856" lon="33.6135388"><ele>117.9</ele><time>2015-05-02T11:44:06.0000000+00:00</time></trkpt><trkpt lat="35.0322531" lon="33.6134832"><ele>117.5</ele><time>2015-05-02T11:44:07.0000000+00:00</time></trkpt><trkpt lat="35.0322076" lon="33.6134234"><ele>117.2</ele><time>2015-05-02T11:44:08.0000000+00:00</time></trkpt><trkpt lat="35.0321855" lon="33.6133694"><ele>117.1</ele><time>2015-05-02T11:44:09.0000000+00:00</time></trkpt><trkpt lat="35.0321629" lon="33.6133021"><ele>116.6</ele><time>2015-05-02T11:44:10.0000000+00:00</time></trkpt><trkpt lat="35.0321371" lon="33.6132379"><ele>116.3</ele><time>2015-05-02T11:44:11.0000000+00:00</time></trkpt><trkpt lat="35.0321264" lon="33.6131762"><ele>115.7</ele><time>2015-05-02T11:44:12.0000000+00:00</time></trkpt><trkpt lat="35.0320923" lon="33.6131054"><ele>115.3</ele><time>2015-05-02T11:44:13.0000000+00:00</time></trkpt><trkpt lat="35.0320707" lon="33.6130332"><ele>115.7</ele><time>2015-05-02T11:44:14.0000000+00:00</time></trkpt><trkpt lat="35.0320482" lon="33.6129571"><ele>115.9</ele><time>2015-05-02T11:44:15.0000000+00:00</time></trkpt><trkpt lat="35.0320141" lon="33.6128887"><ele>115.9</ele><time>2015-05-02T11:44:16.0000000+00:00</time></trkpt><trkpt lat="35.0319777" lon="33.6128261"><ele>116.0</ele><time>2015-05-02T11:44:17.0000000+00:00</time></trkpt><trkpt lat="35.0319385" lon="33.6127531"><ele>116.0</ele><time>2015-05-02T11:44:18.0000000+00:00</time></trkpt><trkpt lat="35.0319027" lon="33.6126894"><ele>116.0</ele><time>2015-05-02T11:44:19.0000000+00:00</time></trkpt><trkpt lat="35.0318623" lon="33.6126191"><ele>115.5</ele><time>2015-05-02T11:44:20.0000000+00:00</time></trkpt><trkpt lat="35.0318186" lon="33.6125468"><ele>115.3</ele><time>2015-05-02T11:44:21.0000000+00:00</time></trkpt><trkpt lat="35.03178" lon="33.6124819"><ele>115.6</ele><time>2015-05-02T11:44:22.0000000+00:00</time></trkpt><trkpt lat="35.0317376" lon="33.6124116"><ele>115.8</ele><time>2015-05-02T11:44:23.0000000+00:00</time></trkpt><trkpt lat="35.0316965" lon="33.6123439"><ele>115.9</ele><time>2015-05-02T11:44:24.0000000+00:00</time></trkpt><trkpt lat="35.031665" lon="33.6122871"><ele>116.5</ele><time>2015-05-02T11:44:25.0000000+00:00</time></trkpt><trkpt lat="35.0316163" lon="33.6122295"><ele>116.7</ele><time>2015-05-02T11:44:26.0000000+00:00</time></trkpt><trkpt lat="35.0315774" lon="33.6121814"><ele>117.4</ele><time>2015-05-02T11:44:27.0000000+00:00</time></trkpt><trkpt lat="35.0315364" lon="33.6121257"><ele>117.7</ele><time>2015-05-02T11:44:28.0000000+00:00</time></trkpt><trkpt lat="35.0315062" lon="33.6120667"><ele>117.9</ele><time>2015-05-02T11:44:29.0000000+00:00</time></trkpt><trkpt lat="35.0314904" lon="33.6119988"><ele>117.9</ele><time>2015-05-02T11:44:30.0000000+00:00</time></trkpt><trkpt lat="35.0314819" lon="33.611936"><ele>118.0</ele><time>2015-05-02T11:44:31.0000000+00:00</time></trkpt><trkpt lat="35.0314774" lon="33.611874"><ele>118.0</ele><time>2015-05-02T11:44:32.0000000+00:00</time></trkpt><trkpt lat="35.0314727" lon="33.6117576"><ele>118.0</ele><time>2015-05-02T11:44:34.0000000+00:00</time></trkpt><trkpt lat="35.0314752" lon="33.6116997"><ele>118.0</ele><time>2015-05-02T11:44:35.0000000+00:00</time></trkpt><trkpt lat="35.0314795" lon="33.6116354"><ele>118.0</ele><time>2015-05-02T11:44:36.0000000+00:00</time></trkpt><trkpt lat="35.0314727" lon="33.6115645"><ele>118.0</ele><time>2015-05-02T11:44:37.0000000+00:00</time></trkpt><trkpt lat="35.0314622" lon="33.6115006"><ele>118.0</ele><time>2015-05-02T11:44:38.0000000+00:00</time></trkpt><trkpt lat="35.0314432" lon="33.6114341"><ele>118.0</ele><time>2015-05-02T11:44:39.0000000+00:00</time></trkpt><trkpt lat="35.0314173" lon="33.6113704"><ele>117.5</ele><time>2015-05-02T11:44:40.0000000+00:00</time></trkpt><trkpt lat="35.031392" lon="33.6113103"><ele>117.3</ele><time>2015-05-02T11:44:41.0000000+00:00</time></trkpt><trkpt lat="35.0313613" lon="33.6112335"><ele>117.1</ele><time>2015-05-02T11:44:42.0000000+00:00</time></trkpt><trkpt lat="35.0313299" lon="33.6111682"><ele>117.1</ele><time>2015-05-02T11:44:43.0000000+00:00</time></trkpt><trkpt lat="35.0312963" lon="33.6111002"><ele>116.6</ele><time>2015-05-02T11:44:44.0000000+00:00</time></trkpt><trkpt lat="35.0312596" lon="33.6110204"><ele>116.3</ele><time>2015-05-02T11:44:45.0000000+00:00</time></trkpt><trkpt lat="35.0312227" lon="33.6109449"><ele>115.7</ele><time>2015-05-02T11:44:46.0000000+00:00</time></trkpt><trkpt lat="35.0311843" lon="33.6108622"><ele>115.3</ele><time>2015-05-02T11:44:47.0000000+00:00</time></trkpt><trkpt lat="35.0311494" lon="33.6107851"><ele>115.2</ele><time>2015-05-02T11:44:48.0000000+00:00</time></trkpt><trkpt lat="35.0311179" lon="33.6107028"><ele>115.1</ele><time>2015-05-02T11:44:49.0000000+00:00</time></trkpt><trkpt lat="35.0310843" lon="33.6105995"><ele>115.1</ele><time>2015-05-02T11:44:50.0000000+00:00</time></trkpt><trkpt lat="35.0310524" lon="33.6105216"><ele>115.0</ele><time>2015-05-02T11:44:51.0000000+00:00</time></trkpt><trkpt lat="35.0310234" lon="33.6104342"><ele>115.0</ele><time>2015-05-02T11:44:52.0000000+00:00</time></trkpt><trkpt lat="35.0309998" lon="33.6103321"><ele>114.5</ele><time>2015-05-02T11:44:53.0000000+00:00</time></trkpt><trkpt lat="35.0309812" lon="33.6102485"><ele>114.3</ele><time>2015-05-02T11:44:54.0000000+00:00</time></trkpt><trkpt lat="35.030957" lon="33.6101488"><ele>113.6</ele><time>2015-05-02T11:44:55.0000000+00:00</time></trkpt><trkpt lat="35.0309305" lon="33.6100627"><ele>113.8</ele><time>2015-05-02T11:44:56.0000000+00:00</time></trkpt><trkpt lat="35.0309084" lon="33.6099834"><ele>113.9</ele><time>2015-05-02T11:44:57.0000000+00:00</time></trkpt><trkpt lat="35.0308803" lon="33.6098883"><ele>114.0</ele><time>2015-05-02T11:44:58.0000000+00:00</time></trkpt><trkpt lat="35.0308554" lon="33.6098117"><ele>113.5</ele><time>2015-05-02T11:44:59.0000000+00:00</time></trkpt><trkpt lat="35.0308222" lon="33.6097324"><ele>113.3</ele><time>2015-05-02T11:45:00.0000000+00:00</time></trkpt><trkpt lat="35.030784" lon="33.609657"><ele>113.1</ele><time>2015-05-02T11:45:01.0000000+00:00</time></trkpt><trkpt lat="35.030738" lon="33.6095966"><ele>113.1</ele><time>2015-05-02T11:45:02.0000000+00:00</time></trkpt><trkpt lat="35.03069" lon="33.6095328"><ele>113.1</ele><time>2015-05-02T11:45:03.0000000+00:00</time></trkpt><trkpt lat="35.0306436" lon="33.6094819"><ele>113.0</ele><time>2015-05-02T11:45:04.0000000+00:00</time></trkpt><trkpt lat="35.0305979" lon="33.609438"><ele>113.0</ele><time>2015-05-02T11:45:05.0000000+00:00</time></trkpt><trkpt lat="35.0305434" lon="33.6093835"><ele>113.0</ele><time>2015-05-02T11:45:06.0000000+00:00</time></trkpt><trkpt lat="35.0304985" lon="33.6093318"><ele>113.5</ele><time>2015-05-02T11:45:07.0000000+00:00</time></trkpt><trkpt lat="35.0304511" lon="33.609279"><ele>113.8</ele><time>2015-05-02T11:45:08.0000000+00:00</time></trkpt><trkpt lat="35.0304006" lon="33.60922"><ele>113.9</ele><time>2015-05-02T11:45:09.0000000+00:00</time></trkpt><trkpt lat="35.0303554" lon="33.6091711"><ele>114.0</ele><time>2015-05-02T11:45:10.0000000+00:00</time></trkpt><trkpt lat="35.0303126" lon="33.6091084"><ele>114.0</ele><time>2015-05-02T11:45:11.0000000+00:00</time></trkpt><trkpt lat="35.03027" lon="33.6090501"><ele>114.0</ele><time>2015-05-02T11:45:12.0000000+00:00</time></trkpt><trkpt lat="35.0302235" lon="33.6089972"><ele>114.0</ele><time>2015-05-02T11:45:13.0000000+00:00</time></trkpt><trkpt lat="35.0301761" lon="33.6089398"><ele>114.0</ele><time>2015-05-02T11:45:14.0000000+00:00</time></trkpt><trkpt lat="35.0301356" lon="33.6088843"><ele>114.0</ele><time>2015-05-02T11:45:15.0000000+00:00</time></trkpt><trkpt lat="35.0300913" lon="33.6088215"><ele>114.5</ele><time>2015-05-02T11:45:16.0000000+00:00</time></trkpt><trkpt lat="35.0300488" lon="33.6087576"><ele>114.8</ele><time>2015-05-02T11:45:17.0000000+00:00</time></trkpt><trkpt lat="35.0300174" lon="33.6087072"><ele>114.9</ele><time>2015-05-02T11:45:18.0000000+00:00</time></trkpt><trkpt lat="35.0299811" lon="33.6086496"><ele>115.0</ele><time>2015-05-02T11:45:19.0000000+00:00</time></trkpt><trkpt lat="35.0299461" lon="33.6086005"><ele>115.0</ele><time>2015-05-02T11:45:20.0000000+00:00</time></trkpt><trkpt lat="35.0299139" lon="33.6085505"><ele>115.0</ele><time>2015-05-02T11:45:21.0000000+00:00</time></trkpt><trkpt lat="35.0298841" lon="33.6084883"><ele>115.0</ele><time>2015-05-02T11:45:22.0000000+00:00</time></trkpt><trkpt lat="35.0298608" lon="33.608439"><ele>115.0</ele><time>2015-05-02T11:45:23.0000000+00:00</time></trkpt><trkpt lat="35.0298294" lon="33.6083924"><ele>115.0</ele><time>2015-05-02T11:45:24.0000000+00:00</time></trkpt><trkpt lat="35.0297951" lon="33.6083364"><ele>115.0</ele><time>2015-05-02T11:45:25.0000000+00:00</time></trkpt><trkpt lat="35.029764" lon="33.6082844"><ele>115.0</ele><time>2015-05-02T11:45:26.0000000+00:00</time></trkpt><trkpt lat="35.0297293" lon="33.6082298"><ele>115.0</ele><time>2015-05-02T11:45:27.0000000+00:00</time></trkpt><trkpt lat="35.0296914" lon="33.6081758"><ele>115.0</ele><time>2015-05-02T11:45:28.0000000+00:00</time></trkpt><trkpt lat="35.0296553" lon="33.608128"><ele>115.0</ele><time>2015-05-02T11:45:29.0000000+00:00</time></trkpt><trkpt lat="35.029612" lon="33.6080754"><ele>115.0</ele><time>2015-05-02T11:45:30.0000000+00:00</time></trkpt><trkpt lat="35.0295734" lon="33.6080244"><ele>115.0</ele><time>2015-05-02T11:45:31.0000000+00:00</time></trkpt><trkpt lat="35.02953" lon="33.6079726"><ele>114.5</ele><time>2015-05-02T11:45:32.0000000+00:00</time></trkpt><trkpt lat="35.0294808" lon="33.6079197"><ele>114.3</ele><time>2015-05-02T11:45:33.0000000+00:00</time></trkpt><trkpt lat="35.0294406" lon="33.6078742"><ele>114.1</ele><time>2015-05-02T11:45:34.0000000+00:00</time></trkpt><trkpt lat="35.0293986" lon="33.6078223"><ele>114.1</ele><time>2015-05-02T11:45:35.0000000+00:00</time></trkpt><trkpt lat="35.0293616" lon="33.607774"><ele>114.6</ele><time>2015-05-02T11:45:36.0000000+00:00</time></trkpt><trkpt lat="35.0293256" lon="33.6077355"><ele>114.3</ele><time>2015-05-02T11:45:37.0000000+00:00</time></trkpt><trkpt lat="35.0292804" lon="33.6076851"><ele>114.2</ele><time>2015-05-02T11:45:38.0000000+00:00</time></trkpt><trkpt lat="35.0292382" lon="33.6076406"><ele>114.1</ele><time>2015-05-02T11:45:39.0000000+00:00</time></trkpt><trkpt lat="35.0291927" lon="33.6075934"><ele>114.1</ele><time>2015-05-02T11:45:40.0000000+00:00</time></trkpt><trkpt lat="35.0291453" lon="33.6075424"><ele>114.0</ele><time>2015-05-02T11:45:41.0000000+00:00</time></trkpt><trkpt lat="35.0291062" lon="33.6074977"><ele>113.5</ele><time>2015-05-02T11:45:42.0000000+00:00</time></trkpt><trkpt lat="35.0290631" lon="33.6074511"><ele>113.3</ele><time>2015-05-02T11:45:43.0000000+00:00</time></trkpt><trkpt lat="35.0290218" lon="33.6074018"><ele>112.6</ele><time>2015-05-02T11:45:44.0000000+00:00</time></trkpt><trkpt lat="35.0289762" lon="33.6073606"><ele>112.3</ele><time>2015-05-02T11:45:45.0000000+00:00</time></trkpt><trkpt lat="35.0289247" lon="33.607309"><ele>112.2</ele><time>2015-05-02T11:45:46.0000000+00:00</time></trkpt><trkpt lat="35.0288822" lon="33.6072657"><ele>112.1</ele><time>2015-05-02T11:45:47.0000000+00:00</time></trkpt><trkpt lat="35.0288415" lon="33.6072131"><ele>112.1</ele><time>2015-05-02T11:45:48.0000000+00:00</time></trkpt><trkpt lat="35.0287942" lon="33.6071554"><ele>112.0</ele><time>2015-05-02T11:45:49.0000000+00:00</time></trkpt><trkpt lat="35.0287516" lon="33.6071053"><ele>112.0</ele><time>2015-05-02T11:45:50.0000000+00:00</time></trkpt><trkpt lat="35.0287121" lon="33.6070509"><ele>112.0</ele><time>2015-05-02T11:45:51.0000000+00:00</time></trkpt><trkpt lat="35.0286693" lon="33.6069991"><ele>112.0</ele><time>2015-05-02T11:45:52.0000000+00:00</time></trkpt><trkpt lat="35.0286333" lon="33.6069492"><ele>112.0</ele><time>2015-05-02T11:45:53.0000000+00:00</time></trkpt><trkpt lat="35.0285955" lon="33.6068898"><ele>112.0</ele><time>2015-05-02T11:45:54.0000000+00:00</time></trkpt><trkpt lat="35.0285644" lon="33.6068395"><ele>112.0</ele><time>2015-05-02T11:45:55.0000000+00:00</time></trkpt><trkpt lat="35.0285245" lon="33.6067775"><ele>112.0</ele><time>2015-05-02T11:45:56.0000000+00:00</time></trkpt><trkpt lat="35.0284918" lon="33.6067156"><ele>112.0</ele><time>2015-05-02T11:45:57.0000000+00:00</time></trkpt><trkpt lat="35.0284651" lon="33.6066578"><ele>112.0</ele><time>2015-05-02T11:45:58.0000000+00:00</time></trkpt><trkpt lat="35.0284363" lon="33.6065924"><ele>112.0</ele><time>2015-05-02T11:45:59.0000000+00:00</time></trkpt><trkpt lat="35.0284104" lon="33.6065257"><ele>112.0</ele><time>2015-05-02T11:46:00.0000000+00:00</time></trkpt><trkpt lat="35.0283874" lon="33.6064556"><ele>112.5</ele><time>2015-05-02T11:46:01.0000000+00:00</time></trkpt><trkpt lat="35.0283648" lon="33.6063771"><ele>112.3</ele><time>2015-05-02T11:46:02.0000000+00:00</time></trkpt><trkpt lat="35.0283419" lon="33.6063088"><ele>112.6</ele><time>2015-05-02T11:46:03.0000000+00:00</time></trkpt><trkpt lat="35.0283222" lon="33.6062406"><ele>112.3</ele><time>2015-05-02T11:46:04.0000000+00:00</time></trkpt><trkpt lat="35.028299" lon="33.6061671"><ele>112.7</ele><time>2015-05-02T11:46:05.0000000+00:00</time></trkpt><trkpt lat="35.0282811" lon="33.6061029"><ele>112.8</ele><time>2015-05-02T11:46:06.0000000+00:00</time></trkpt><trkpt lat="35.0282613" lon="33.6060355"><ele>112.9</ele><time>2015-05-02T11:46:07.0000000+00:00</time></trkpt><trkpt lat="35.0282002" lon="33.6059702"><ele>113.0</ele><time>2015-05-02T11:46:09.0000000+00:00</time></trkpt><trkpt lat="35.0281272" lon="33.6059641"><ele>113.0</ele><time>2015-05-02T11:46:11.0000000+00:00</time></trkpt><trkpt lat="35.0280816" lon="33.6059718"><ele>113.0</ele><time>2015-05-02T11:46:12.0000000+00:00</time></trkpt><trkpt lat="35.0280227" lon="33.6059674"><ele>113.0</ele><time>2015-05-02T11:46:13.0000000+00:00</time></trkpt><trkpt lat="35.0279679" lon="33.605957"><ele>113.0</ele><time>2015-05-02T11:46:14.0000000+00:00</time></trkpt><trkpt lat="35.0279011" lon="33.6059386"><ele>112.5</ele><time>2015-05-02T11:46:15.0000000+00:00</time></trkpt><trkpt lat="35.0278077" lon="33.6059179"><ele>112.9</ele><time>2015-05-02T11:46:17.0000000+00:00</time></trkpt><trkpt lat="35.0277537" lon="33.605904"><ele>113.0</ele><time>2015-05-02T11:46:18.0000000+00:00</time></trkpt><trkpt lat="35.0277047" lon="33.605891"><ele>113.0</ele><time>2015-05-02T11:46:19.0000000+00:00</time></trkpt><trkpt lat="35.0276533" lon="33.6058807"><ele>113.0</ele><time>2015-05-02T11:46:20.0000000+00:00</time></trkpt><trkpt lat="35.0276032" lon="33.6058695"><ele>113.0</ele><time>2015-05-02T11:46:21.0000000+00:00</time></trkpt><trkpt lat="35.0275159" lon="33.6058415"><ele>113.0</ele><time>2015-05-02T11:46:23.0000000+00:00</time></trkpt><trkpt lat="35.0274295" lon="33.6058201"><ele>113.8</ele><time>2015-05-02T11:46:25.0000000+00:00</time></trkpt><trkpt lat="35.0273738" lon="33.6058087"><ele>113.9</ele><time>2015-05-02T11:46:26.0000000+00:00</time></trkpt><trkpt lat="35.027287" lon="33.6057995"><ele>114.7</ele><time>2015-05-02T11:46:28.0000000+00:00</time></trkpt><trkpt lat="35.0272404" lon="33.6058002"><ele>114.9</ele><time>2015-05-02T11:46:29.0000000+00:00</time></trkpt><trkpt lat="35.0271615" lon="33.6057829"><ele>115.0</ele><time>2015-05-02T11:46:31.0000000+00:00</time></trkpt><trkpt lat="35.027107" lon="33.6057778"><ele>115.0</ele><time>2015-05-02T11:46:33.0000000+00:00</time></trkpt><trkpt lat="35.0270594" lon="33.605779"><ele>115.0</ele><time>2015-05-02T11:46:35.0000000+00:00</time></trkpt><trkpt lat="35.0271164" lon="33.605753"><ele>115.9</ele><time>2015-05-02T11:47:00.0000000+00:00</time></trkpt><trkpt lat="35.0271664" lon="33.6057584"><ele>116.0</ele><time>2015-05-02T11:47:02.0000000+00:00</time></trkpt><trkpt lat="35.027235" lon="33.605758"><ele>116.3</ele><time>2015-05-02T11:47:04.0000000+00:00</time></trkpt><trkpt lat="35.0273051" lon="33.6057599"><ele>115.3</ele><time>2015-05-02T11:47:06.0000000+00:00</time></trkpt><trkpt lat="35.0273852" lon="33.6057663"><ele>115.1</ele><time>2015-05-02T11:47:08.0000000+00:00</time></trkpt><trkpt lat="35.027459" lon="33.6057806"><ele>115.1</ele><time>2015-05-02T11:47:09.0000000+00:00</time></trkpt><trkpt lat="35.02751" lon="33.6057929"><ele>115.0</ele><time>2015-05-02T11:47:10.0000000+00:00</time></trkpt><trkpt lat="35.0275593" lon="33.6058007"><ele>115.0</ele><time>2015-05-02T11:47:11.0000000+00:00</time></trkpt><trkpt lat="35.027643" lon="33.605825"><ele>115.0</ele><time>2015-05-02T11:47:13.0000000+00:00</time></trkpt><trkpt lat="35.0276896" lon="33.605839"><ele>115.0</ele><time>2015-05-02T11:47:14.0000000+00:00</time></trkpt><trkpt lat="35.0277628" lon="33.6058602"><ele>114.3</ele><time>2015-05-02T11:47:16.0000000+00:00</time></trkpt><trkpt lat="35.0278444" lon="33.6058821"><ele>114.1</ele><time>2015-05-02T11:47:18.0000000+00:00</time></trkpt><trkpt lat="35.0278874" lon="33.6059006"><ele>114.6</ele><time>2015-05-02T11:47:19.0000000+00:00</time></trkpt><trkpt lat="35.0279741" lon="33.6059252"><ele>114.2</ele><time>2015-05-02T11:47:21.0000000+00:00</time></trkpt><trkpt lat="35.0280304" lon="33.6059289"><ele>114.6</ele><time>2015-05-02T11:47:22.0000000+00:00</time></trkpt><trkpt lat="35.0280765" lon="33.6059378"><ele>114.8</ele><time>2015-05-02T11:47:23.0000000+00:00</time></trkpt><trkpt lat="35.0281612" lon="33.6059444"><ele>115.0</ele><time>2015-05-02T11:47:25.0000000+00:00</time></trkpt><trkpt lat="35.0282187" lon="33.6059088"><ele>115.8</ele><time>2015-05-02T11:47:27.0000000+00:00</time></trkpt><trkpt lat="35.0282232" lon="33.6058532"><ele>116.0</ele><time>2015-05-02T11:47:29.0000000+00:00</time></trkpt><trkpt lat="35.0282059" lon="33.605783"><ele>116.0</ele><time>2015-05-02T11:47:31.0000000+00:00</time></trkpt><trkpt lat="35.0281899" lon="33.6056896"><ele>115.3</ele><time>2015-05-02T11:47:33.0000000+00:00</time></trkpt><trkpt lat="35.0281741" lon="33.605588"><ele>115.1</ele><time>2015-05-02T11:47:35.0000000+00:00</time></trkpt><trkpt lat="35.0281577" lon="33.6054675"><ele>114.3</ele><time>2015-05-02T11:47:37.0000000+00:00</time></trkpt><trkpt lat="35.0281553" lon="33.6054033"><ele>114.7</ele><time>2015-05-02T11:47:38.0000000+00:00</time></trkpt><trkpt lat="35.0281455" lon="33.6053436"><ele>114.8</ele><time>2015-05-02T11:47:39.0000000+00:00</time></trkpt><trkpt lat="35.0281434" lon="33.6052844"><ele>114.9</ele><time>2015-05-02T11:47:40.0000000+00:00</time></trkpt><trkpt lat="35.0281401" lon="33.6052269"><ele>115.0</ele><time>2015-05-02T11:47:41.0000000+00:00</time></trkpt><trkpt lat="35.0281362" lon="33.6051642"><ele>115.0</ele><time>2015-05-02T11:47:42.0000000+00:00</time></trkpt><trkpt lat="35.0281332" lon="33.6050973"><ele>114.5</ele><time>2015-05-02T11:47:43.0000000+00:00</time></trkpt><trkpt lat="35.0281378" lon="33.6050343"><ele>114.3</ele><time>2015-05-02T11:47:44.0000000+00:00</time></trkpt><trkpt lat="35.0281425" lon="33.6049775"><ele>114.1</ele><time>2015-05-02T11:47:45.0000000+00:00</time></trkpt><trkpt lat="35.0281503" lon="33.6049199"><ele>114.1</ele><time>2015-05-02T11:47:46.0000000+00:00</time></trkpt><trkpt lat="35.028159" lon="33.6048109"><ele>114.0</ele><time>2015-05-02T11:47:48.0000000+00:00</time></trkpt><trkpt lat="35.0281661" lon="33.6047469"><ele>114.5</ele><time>2015-05-02T11:47:49.0000000+00:00</time></trkpt><trkpt lat="35.0281716" lon="33.6046889"><ele>114.8</ele><time>2015-05-02T11:47:50.0000000+00:00</time></trkpt><trkpt lat="35.028184" lon="33.6046221"><ele>114.9</ele><time>2015-05-02T11:47:51.0000000+00:00</time></trkpt><trkpt lat="35.0281916" lon="33.6045576"><ele>115.0</ele><time>2015-05-02T11:47:52.0000000+00:00</time></trkpt><trkpt lat="35.0282024" lon="33.6044549"><ele>115.5</ele><time>2015-05-02T11:47:54.0000000+00:00</time></trkpt><trkpt lat="35.0282039" lon="33.604359"><ele>115.9</ele><time>2015-05-02T11:47:56.0000000+00:00</time></trkpt><trkpt lat="35.0282024" lon="33.6043025"><ele>116.0</ele><time>2015-05-02T11:47:57.0000000+00:00</time></trkpt><trkpt lat="35.0281896" lon="33.6042021"><ele>116.8</ele><time>2015-05-02T11:47:59.0000000+00:00</time></trkpt><trkpt lat="35.0281694" lon="33.604098"><ele>117.0</ele><time>2015-05-02T11:48:01.0000000+00:00</time></trkpt><trkpt lat="35.028156" lon="33.6040404"><ele>117.5</ele><time>2015-05-02T11:48:02.0000000+00:00</time></trkpt><trkpt lat="35.0281321" lon="33.6039307"><ele>117.9</ele><time>2015-05-02T11:48:04.0000000+00:00</time></trkpt><trkpt lat="35.0281186" lon="33.6038766"><ele>118.0</ele><time>2015-05-02T11:48:05.0000000+00:00</time></trkpt><trkpt lat="35.0281101" lon="33.6037832"><ele>118.0</ele><time>2015-05-02T11:48:07.0000000+00:00</time></trkpt><trkpt lat="35.028095" lon="33.6037086"><ele>118.0</ele><time>2015-05-02T11:48:09.0000000+00:00</time></trkpt><trkpt lat="35.0280829" lon="33.6036198"><ele>118.8</ele><time>2015-05-02T11:48:11.0000000+00:00</time></trkpt><trkpt lat="35.028065" lon="33.6035218"><ele>119.0</ele><time>2015-05-02T11:48:13.0000000+00:00</time></trkpt><trkpt lat="35.0280469" lon="33.6034255"><ele>119.0</ele><time>2015-05-02T11:48:15.0000000+00:00</time></trkpt><trkpt lat="35.0280297" lon="33.6033256"><ele>119.0</ele><time>2015-05-02T11:48:17.0000000+00:00</time></trkpt><trkpt lat="35.0280238" lon="33.6032701"><ele>119.0</ele><time>2015-05-02T11:48:18.0000000+00:00</time></trkpt><trkpt lat="35.0280214" lon="33.6031682"><ele>119.0</ele><time>2015-05-02T11:48:20.0000000+00:00</time></trkpt><trkpt lat="35.028023" lon="33.6031125"><ele>119.0</ele><time>2015-05-02T11:48:21.0000000+00:00</time></trkpt><trkpt lat="35.0280345" lon="33.6030098"><ele>119.0</ele><time>2015-05-02T11:48:23.0000000+00:00</time></trkpt><trkpt lat="35.0280667" lon="33.6029061"><ele>118.3</ele><time>2015-05-02T11:48:25.0000000+00:00</time></trkpt><trkpt lat="35.0280786" lon="33.6028368"><ele>118.1</ele><time>2015-05-02T11:48:26.0000000+00:00</time></trkpt><trkpt lat="35.028092" lon="33.6027778"><ele>118.6</ele><time>2015-05-02T11:48:27.0000000+00:00</time></trkpt><trkpt lat="35.0281032" lon="33.602718"><ele>118.8</ele><time>2015-05-02T11:48:28.0000000+00:00</time></trkpt><trkpt lat="35.0281143" lon="33.6026542"><ele>118.9</ele><time>2015-05-02T11:48:29.0000000+00:00</time></trkpt><trkpt lat="35.0281252" lon="33.6025499"><ele>119.5</ele><time>2015-05-02T11:48:31.0000000+00:00</time></trkpt><trkpt lat="35.0281281" lon="33.602449"><ele>119.9</ele><time>2015-05-02T11:48:33.0000000+00:00</time></trkpt><trkpt lat="35.0281279" lon="33.6023847"><ele>120.0</ele><time>2015-05-02T11:48:34.0000000+00:00</time></trkpt><trkpt lat="35.0281254" lon="33.6023284"><ele>120.0</ele><time>2015-05-02T11:48:35.0000000+00:00</time></trkpt><trkpt lat="35.0281233" lon="33.6022676"><ele>120.0</ele><time>2015-05-02T11:48:36.0000000+00:00</time></trkpt><trkpt lat="35.0281237" lon="33.6021968"><ele>120.0</ele><time>2015-05-02T11:48:37.0000000+00:00</time></trkpt><trkpt lat="35.0281202" lon="33.6021344"><ele>120.0</ele><time>2015-05-02T11:48:38.0000000+00:00</time></trkpt><trkpt lat="35.0281165" lon="33.6020717"><ele>120.5</ele><time>2015-05-02T11:48:39.0000000+00:00</time></trkpt><trkpt lat="35.0281124" lon="33.6020062"><ele>120.8</ele><time>2015-05-02T11:48:40.0000000+00:00</time></trkpt><trkpt lat="35.0280945" lon="33.601889"><ele>121.5</ele><time>2015-05-02T11:48:42.0000000+00:00</time></trkpt><trkpt lat="35.0280883" lon="33.6018334"><ele>121.2</ele><time>2015-05-02T11:48:43.0000000+00:00</time></trkpt><trkpt lat="35.0280803" lon="33.6017654"><ele>121.6</ele><time>2015-05-02T11:48:44.0000000+00:00</time></trkpt><trkpt lat="35.0280733" lon="33.6016956"><ele>121.8</ele><time>2015-05-02T11:48:45.0000000+00:00</time></trkpt><trkpt lat="35.0280694" lon="33.6016404"><ele>121.9</ele><time>2015-05-02T11:48:46.0000000+00:00</time></trkpt><trkpt lat="35.0280516" lon="33.6015811"><ele>122.0</ele><time>2015-05-02T11:48:47.0000000+00:00</time></trkpt><trkpt lat="35.0280454" lon="33.6015178"><ele>122.0</ele><time>2015-05-02T11:48:48.0000000+00:00</time></trkpt><trkpt lat="35.0280383" lon="33.6014632"><ele>122.0</ele><time>2015-05-02T11:48:49.0000000+00:00</time></trkpt><trkpt lat="35.0280276" lon="33.6013997"><ele>122.0</ele><time>2015-05-02T11:48:50.0000000+00:00</time></trkpt><trkpt lat="35.0280227" lon="33.6013426"><ele>121.5</ele><time>2015-05-02T11:48:51.0000000+00:00</time></trkpt><trkpt lat="35.0280152" lon="33.601286"><ele>121.8</ele><time>2015-05-02T11:48:52.0000000+00:00</time></trkpt><trkpt lat="35.0280108" lon="33.6012247"><ele>121.9</ele><time>2015-05-02T11:48:53.0000000+00:00</time></trkpt><trkpt lat="35.0279971" lon="33.6011704"><ele>122.5</ele><time>2015-05-02T11:48:54.0000000+00:00</time></trkpt><trkpt lat="35.0279855" lon="33.6011057"><ele>122.7</ele><time>2015-05-02T11:48:55.0000000+00:00</time></trkpt><trkpt lat="35.0279766" lon="33.6010463"><ele>122.9</ele><time>2015-05-02T11:48:56.0000000+00:00</time></trkpt><trkpt lat="35.0279653" lon="33.6009912"><ele>123.0</ele><time>2015-05-02T11:48:57.0000000+00:00</time></trkpt><trkpt lat="35.027956" lon="33.6009242"><ele>123.0</ele><time>2015-05-02T11:48:58.0000000+00:00</time></trkpt><trkpt lat="35.027952" lon="33.6008583"><ele>123.0</ele><time>2015-05-02T11:48:59.0000000+00:00</time></trkpt><trkpt lat="35.0279396" lon="33.6007981"><ele>123.0</ele><time>2015-05-02T11:49:00.0000000+00:00</time></trkpt><trkpt lat="35.0279344" lon="33.6007366"><ele>123.0</ele><time>2015-05-02T11:49:01.0000000+00:00</time></trkpt><trkpt lat="35.0279318" lon="33.6006792"><ele>123.0</ele><time>2015-05-02T11:49:02.0000000+00:00</time></trkpt><trkpt lat="35.0279181" lon="33.6005738"><ele>123.8</ele><time>2015-05-02T11:49:04.0000000+00:00</time></trkpt><trkpt lat="35.0279" lon="33.600459"><ele>124.0</ele><time>2015-05-02T11:49:06.0000000+00:00</time></trkpt><trkpt lat="35.0278942" lon="33.6003989"><ele>124.0</ele><time>2015-05-02T11:49:07.0000000+00:00</time></trkpt><trkpt lat="35.0278863" lon="33.6003405"><ele>124.0</ele><time>2015-05-02T11:49:08.0000000+00:00</time></trkpt><trkpt lat="35.0278773" lon="33.6002698"><ele>124.0</ele><time>2015-05-02T11:49:09.0000000+00:00</time></trkpt><trkpt lat="35.0278726" lon="33.6002135"><ele>124.0</ele><time>2015-05-02T11:49:10.0000000+00:00</time></trkpt><trkpt lat="35.0278677" lon="33.6001416"><ele>124.0</ele><time>2015-05-02T11:49:11.0000000+00:00</time></trkpt><trkpt lat="35.0278586" lon="33.6000824"><ele>124.0</ele><time>2015-05-02T11:49:12.0000000+00:00</time></trkpt><trkpt lat="35.027846" lon="33.5999719"><ele>124.0</ele><time>2015-05-02T11:49:14.0000000+00:00</time></trkpt><trkpt lat="35.0278359" lon="33.5998756"><ele>124.0</ele><time>2015-05-02T11:49:16.0000000+00:00</time></trkpt><trkpt lat="35.0278298" lon="33.5998138"><ele>124.0</ele><time>2015-05-02T11:49:17.0000000+00:00</time></trkpt><trkpt lat="35.0278285" lon="33.5997524"><ele>124.0</ele><time>2015-05-02T11:49:18.0000000+00:00</time></trkpt><trkpt lat="35.027821" lon="33.5996884"><ele>124.0</ele><time>2015-05-02T11:49:19.0000000+00:00</time></trkpt><trkpt lat="35.0278141" lon="33.5996255"><ele>124.0</ele><time>2015-05-02T11:49:20.0000000+00:00</time></trkpt><trkpt lat="35.0278094" lon="33.5995655"><ele>124.0</ele><time>2015-05-02T11:49:21.0000000+00:00</time></trkpt><trkpt lat="35.0278012" lon="33.5994999"><ele>124.0</ele><time>2015-05-02T11:49:22.0000000+00:00</time></trkpt><trkpt lat="35.0277903" lon="33.5993961"><ele>124.0</ele><time>2015-05-02T11:49:24.0000000+00:00</time></trkpt><trkpt lat="35.0277845" lon="33.5993379"><ele>124.0</ele><time>2015-05-02T11:49:25.0000000+00:00</time></trkpt><trkpt lat="35.0277724" lon="33.5992402"><ele>124.8</ele><time>2015-05-02T11:49:27.0000000+00:00</time></trkpt><trkpt lat="35.0277614" lon="33.59914"><ele>125.0</ele><time>2015-05-02T11:49:29.0000000+00:00</time></trkpt><trkpt lat="35.0277539" lon="33.5990852"><ele>125.0</ele><time>2015-05-02T11:49:30.0000000+00:00</time></trkpt><trkpt lat="35.0277437" lon="33.59903"><ele>125.0</ele><time>2015-05-02T11:49:31.0000000+00:00</time></trkpt><trkpt lat="35.0277314" lon="33.5989713"><ele>125.5</ele><time>2015-05-02T11:49:32.0000000+00:00</time></trkpt><trkpt lat="35.0277143" lon="33.5989089"><ele>125.8</ele><time>2015-05-02T11:49:33.0000000+00:00</time></trkpt><trkpt lat="35.0276916" lon="33.5988042"><ele>126.0</ele><time>2015-05-02T11:49:35.0000000+00:00</time></trkpt><trkpt lat="35.0276802" lon="33.5987484"><ele>126.0</ele><time>2015-05-02T11:49:36.0000000+00:00</time></trkpt><trkpt lat="35.0276607" lon="33.5986368"><ele>126.3</ele><time>2015-05-02T11:49:38.0000000+00:00</time></trkpt><trkpt lat="35.027638" lon="33.5985386"><ele>126.8</ele><time>2015-05-02T11:49:40.0000000+00:00</time></trkpt><trkpt lat="35.0276241" lon="33.598484"><ele>126.4</ele><time>2015-05-02T11:49:41.0000000+00:00</time></trkpt><trkpt lat="35.0275931" lon="33.5983781"><ele>126.9</ele><time>2015-05-02T11:49:43.0000000+00:00</time></trkpt><trkpt lat="35.0275776" lon="33.5983231"><ele>126.9</ele><time>2015-05-02T11:49:44.0000000+00:00</time></trkpt><trkpt lat="35.0275451" lon="33.5982143"><ele>127.5</ele><time>2015-05-02T11:49:46.0000000+00:00</time></trkpt><trkpt lat="35.0275066" lon="33.5981203"><ele>127.9</ele><time>2015-05-02T11:49:48.0000000+00:00</time></trkpt><trkpt lat="35.0274739" lon="33.5980311"><ele>128.0</ele><time>2015-05-02T11:49:50.0000000+00:00</time></trkpt><trkpt lat="35.0274486" lon="33.5979649"><ele>128.0</ele><time>2015-05-02T11:49:52.0000000+00:00</time></trkpt><trkpt lat="35.0274224" lon="33.5978972"><ele>128.0</ele><time>2015-05-02T11:49:54.0000000+00:00</time></trkpt><trkpt lat="35.0274013" lon="33.597819"><ele>128.5</ele><time>2015-05-02T11:49:56.0000000+00:00</time></trkpt><trkpt lat="35.027385" lon="33.5977253"><ele>128.4</ele><time>2015-05-02T11:49:58.0000000+00:00</time></trkpt><trkpt lat="35.0273629" lon="33.5976367"><ele>128.1</ele><time>2015-05-02T11:50:00.0000000+00:00</time></trkpt><trkpt lat="35.0273371" lon="33.5975515"><ele>128.0</ele><time>2015-05-02T11:50:02.0000000+00:00</time></trkpt><trkpt lat="35.0273098" lon="33.5974645"><ele>128.8</ele><time>2015-05-02T11:50:04.0000000+00:00</time></trkpt><trkpt lat="35.0272816" lon="33.5973851"><ele>129.5</ele><time>2015-05-02T11:50:06.0000000+00:00</time></trkpt><trkpt lat="35.0272507" lon="33.5973028"><ele>130.6</ele><time>2015-05-02T11:50:08.0000000+00:00</time></trkpt><trkpt lat="35.0272249" lon="33.5972217"><ele>130.4</ele><time>2015-05-02T11:50:10.0000000+00:00</time></trkpt><trkpt lat="35.0271987" lon="33.5971372"><ele>131.4</ele><time>2015-05-02T11:50:12.0000000+00:00</time></trkpt><trkpt lat="35.0271685" lon="33.5970528"><ele>132.4</ele><time>2015-05-02T11:50:14.0000000+00:00</time></trkpt><trkpt lat="35.0271422" lon="33.5969683"><ele>133.6</ele><time>2015-05-02T11:50:16.0000000+00:00</time></trkpt><trkpt lat="35.0271186" lon="33.5968792"><ele>133.9</ele><time>2015-05-02T11:50:18.0000000+00:00</time></trkpt><trkpt lat="35.0270902" lon="33.5967863"><ele>134.5</ele><time>2015-05-02T11:50:20.0000000+00:00</time></trkpt><trkpt lat="35.0270722" lon="33.5967201"><ele>134.8</ele><time>2015-05-02T11:50:21.0000000+00:00</time></trkpt><trkpt lat="35.0270662" lon="33.5966099"><ele>135.5</ele><time>2015-05-02T11:50:23.0000000+00:00</time></trkpt><trkpt lat="35.0270362" lon="33.5965577"><ele>135.2</ele><time>2015-05-02T11:50:24.0000000+00:00</time></trkpt><trkpt lat="35.0270263" lon="33.5965025"><ele>135.1</ele><time>2015-05-02T11:50:25.0000000+00:00</time></trkpt><trkpt lat="35.0270157" lon="33.5964068"><ele>135.0</ele><time>2015-05-02T11:50:27.0000000+00:00</time></trkpt><trkpt lat="35.0270106" lon="33.5963522"><ele>135.0</ele><time>2015-05-02T11:50:28.0000000+00:00</time></trkpt><trkpt lat="35.0270019" lon="33.5962541"><ele>135.0</ele><time>2015-05-02T11:50:30.0000000+00:00</time></trkpt><trkpt lat="35.0269749" lon="33.5961518"><ele>135.5</ele><time>2015-05-02T11:50:32.0000000+00:00</time></trkpt><trkpt lat="35.026956" lon="33.5960437"><ele>135.6</ele><time>2015-05-02T11:50:34.0000000+00:00</time></trkpt><trkpt lat="35.0269406" lon="33.5959335"><ele>136.4</ele><time>2015-05-02T11:50:36.0000000+00:00</time></trkpt><trkpt lat="35.0269104" lon="33.5958561"><ele>136.4</ele><time>2015-05-02T11:50:38.0000000+00:00</time></trkpt><trkpt lat="35.026879" lon="33.5957683"><ele>136.1</ele><time>2015-05-02T11:50:40.0000000+00:00</time></trkpt><trkpt lat="35.0268357" lon="33.5956697"><ele>136.0</ele><time>2015-05-02T11:50:42.0000000+00:00</time></trkpt><trkpt lat="35.0267816" lon="33.5955772"><ele>136.3</ele><time>2015-05-02T11:50:44.0000000+00:00</time></trkpt><trkpt lat="35.0267531" lon="33.595532"><ele>135.6</ele><time>2015-05-02T11:50:45.0000000+00:00</time></trkpt><trkpt lat="35.0267185" lon="33.5954878"><ele>135.3</ele><time>2015-05-02T11:50:46.0000000+00:00</time></trkpt><trkpt lat="35.0266625" lon="33.5954083"><ele>135.8</ele><time>2015-05-02T11:50:48.0000000+00:00</time></trkpt><trkpt lat="35.0266146" lon="33.5953249"><ele>136.0</ele><time>2015-05-02T11:50:50.0000000+00:00</time></trkpt><trkpt lat="35.0265608" lon="33.595248"><ele>136.0</ele><time>2015-05-02T11:50:52.0000000+00:00</time></trkpt><trkpt lat="35.0264916" lon="33.5951758"><ele>136.5</ele><time>2015-05-02T11:50:54.0000000+00:00</time></trkpt><trkpt lat="35.0264372" lon="33.5951125"><ele>136.9</ele><time>2015-05-02T11:50:56.0000000+00:00</time></trkpt><trkpt lat="35.0263853" lon="33.5950587"><ele>137.7</ele><time>2015-05-02T11:50:58.0000000+00:00</time></trkpt><trkpt lat="35.0263315" lon="33.5950083"><ele>138.7</ele><time>2015-05-02T11:51:00.0000000+00:00</time></trkpt><trkpt lat="35.0262796" lon="33.5949524"><ele>138.9</ele><time>2015-05-02T11:51:02.0000000+00:00</time></trkpt><trkpt lat="35.0262192" lon="33.5948912"><ele>138.5</ele><time>2015-05-02T11:51:04.0000000+00:00</time></trkpt><trkpt lat="35.0261729" lon="33.5948429"><ele>138.3</ele><time>2015-05-02T11:51:05.0000000+00:00</time></trkpt><trkpt lat="35.0261337" lon="33.5948067"><ele>138.1</ele><time>2015-05-02T11:51:06.0000000+00:00</time></trkpt><trkpt lat="35.0260973" lon="33.5947716"><ele>138.1</ele><time>2015-05-02T11:51:07.0000000+00:00</time></trkpt><trkpt lat="35.0260382" lon="33.594705"><ele>138.0</ele><time>2015-05-02T11:51:09.0000000+00:00</time></trkpt><trkpt lat="35.0259704" lon="33.5946362"><ele>138.8</ele><time>2015-05-02T11:51:11.0000000+00:00</time></trkpt><trkpt lat="35.025904" lon="33.594557"><ele>138.5</ele><time>2015-05-02T11:51:13.0000000+00:00</time></trkpt><trkpt lat="35.0258395" lon="33.5944845"><ele>138.6</ele><time>2015-05-02T11:51:15.0000000+00:00</time></trkpt><trkpt lat="35.0257962" lon="33.594416"><ele>138.9</ele><time>2015-05-02T11:51:17.0000000+00:00</time></trkpt><trkpt lat="35.0257507" lon="33.594346"><ele>139.0</ele><time>2015-05-02T11:51:19.0000000+00:00</time></trkpt><trkpt lat="35.0256895" lon="33.5942697"><ele>137.8</ele><time>2015-05-02T11:51:21.0000000+00:00</time></trkpt><trkpt lat="35.0256531" lon="33.594236"><ele>137.9</ele><time>2015-05-02T11:51:22.0000000+00:00</time></trkpt><trkpt lat="35.0255983" lon="33.5941554"><ele>138.0</ele><time>2015-05-02T11:51:24.0000000+00:00</time></trkpt><trkpt lat="35.0255559" lon="33.5940831"><ele>137.3</ele><time>2015-05-02T11:51:26.0000000+00:00</time></trkpt><trkpt lat="35.0255135" lon="33.5940049"><ele>137.6</ele><time>2015-05-02T11:51:28.0000000+00:00</time></trkpt><trkpt lat="35.0254676" lon="33.5939199"><ele>137.9</ele><time>2015-05-02T11:51:30.0000000+00:00</time></trkpt><trkpt lat="35.0254401" lon="33.593869"><ele>138.5</ele><time>2015-05-02T11:51:31.0000000+00:00</time></trkpt><trkpt lat="35.0254042" lon="33.5938175"><ele>139.2</ele><time>2015-05-02T11:51:32.0000000+00:00</time></trkpt><trkpt lat="35.0253682" lon="33.5937689"><ele>139.6</ele><time>2015-05-02T11:51:33.0000000+00:00</time></trkpt><trkpt lat="35.0253322" lon="33.5936877"><ele>139.4</ele><time>2015-05-02T11:51:35.0000000+00:00</time></trkpt><trkpt lat="35.0252954" lon="33.59361"><ele>139.6</ele><time>2015-05-02T11:51:37.0000000+00:00</time></trkpt><trkpt lat="35.0252588" lon="33.5935373"><ele>139.9</ele><time>2015-05-02T11:51:39.0000000+00:00</time></trkpt><trkpt lat="35.0252137" lon="33.593463"><ele>140.0</ele><time>2015-05-02T11:51:41.0000000+00:00</time></trkpt><trkpt lat="35.0251791" lon="33.5933755"><ele>139.3</ele><time>2015-05-02T11:51:43.0000000+00:00</time></trkpt><trkpt lat="35.0251373" lon="33.5933007"><ele>140.3</ele><time>2015-05-02T11:51:45.0000000+00:00</time></trkpt><trkpt lat="35.0250994" lon="33.5932258"><ele>140.8</ele><time>2015-05-02T11:51:47.0000000+00:00</time></trkpt><trkpt lat="35.0250646" lon="33.5931379"><ele>141.0</ele><time>2015-05-02T11:51:49.0000000+00:00</time></trkpt><trkpt lat="35.0250312" lon="33.593052"><ele>141.8</ele><time>2015-05-02T11:51:51.0000000+00:00</time></trkpt><trkpt lat="35.0250052" lon="33.5929694"><ele>142.0</ele><time>2015-05-02T11:51:53.0000000+00:00</time></trkpt><trkpt lat="35.0249855" lon="33.5928929"><ele>142.0</ele><time>2015-05-02T11:51:55.0000000+00:00</time></trkpt><trkpt lat="35.0249639" lon="33.5928069"><ele>142.0</ele><time>2015-05-02T11:51:57.0000000+00:00</time></trkpt><trkpt lat="35.0249378" lon="33.5927209"><ele>141.8</ele><time>2015-05-02T11:51:59.0000000+00:00</time></trkpt><trkpt lat="35.0249236" lon="33.5926018"><ele>142.0</ele><time>2015-05-02T11:52:01.0000000+00:00</time></trkpt><trkpt lat="35.0249138" lon="33.5925432"><ele>142.0</ele><time>2015-05-02T11:52:02.0000000+00:00</time></trkpt><trkpt lat="35.0248994" lon="33.5924882"><ele>142.0</ele><time>2015-05-02T11:52:03.0000000+00:00</time></trkpt><trkpt lat="35.0248882" lon="33.5924302"><ele>142.5</ele><time>2015-05-02T11:52:04.0000000+00:00</time></trkpt><trkpt lat="35.0248504" lon="33.5923256"><ele>144.1</ele><time>2015-05-02T11:52:06.0000000+00:00</time></trkpt><trkpt lat="35.0248331" lon="33.5922733"><ele>144.6</ele><time>2015-05-02T11:52:07.0000000+00:00</time></trkpt><trkpt lat="35.0248111" lon="33.592222"><ele>144.8</ele><time>2015-05-02T11:52:08.0000000+00:00</time></trkpt><trkpt lat="35.0247731" lon="33.5921362"><ele>145.0</ele><time>2015-05-02T11:52:10.0000000+00:00</time></trkpt><trkpt lat="35.0247423" lon="33.5920472"><ele>145.8</ele><time>2015-05-02T11:52:12.0000000+00:00</time></trkpt><trkpt lat="35.0247005" lon="33.5919638"><ele>145.7</ele><time>2015-05-02T11:52:14.0000000+00:00</time></trkpt><trkpt lat="35.0246532" lon="33.5918789"><ele>145.9</ele><time>2015-05-02T11:52:16.0000000+00:00</time></trkpt><trkpt lat="35.0246312" lon="33.5918278"><ele>146.0</ele><time>2015-05-02T11:52:17.0000000+00:00</time></trkpt><trkpt lat="35.0245871" lon="33.5917404"><ele>146.0</ele><time>2015-05-02T11:52:19.0000000+00:00</time></trkpt><trkpt lat="35.0245432" lon="33.5916689"><ele>146.5</ele><time>2015-05-02T11:52:21.0000000+00:00</time></trkpt><trkpt lat="35.0245067" lon="33.5916083"><ele>146.4</ele><time>2015-05-02T11:52:23.0000000+00:00</time></trkpt><trkpt lat="35.0244709" lon="33.5915393"><ele>146.6</ele><time>2015-05-02T11:52:25.0000000+00:00</time></trkpt><trkpt lat="35.0244297" lon="33.591473"><ele>146.9</ele><time>2015-05-02T11:52:27.0000000+00:00</time></trkpt><trkpt lat="35.0243846" lon="33.5914046"><ele>147.5</ele><time>2015-05-02T11:52:29.0000000+00:00</time></trkpt><trkpt lat="35.0243372" lon="33.5913344"><ele>147.9</ele><time>2015-05-02T11:52:31.0000000+00:00</time></trkpt><trkpt lat="35.0242898" lon="33.5912642"><ele>148.0</ele><time>2015-05-02T11:52:33.0000000+00:00</time></trkpt><trkpt lat="35.024247" lon="33.5911995"><ele>148.5</ele><time>2015-05-02T11:52:35.0000000+00:00</time></trkpt><trkpt lat="35.0241998" lon="33.5911389"><ele>148.6</ele><time>2015-05-02T11:52:37.0000000+00:00</time></trkpt><trkpt lat="35.024149" lon="33.5910888"><ele>148.9</ele><time>2015-05-02T11:52:39.0000000+00:00</time></trkpt><trkpt lat="35.0240863" lon="33.5910478"><ele>149.5</ele><time>2015-05-02T11:52:41.0000000+00:00</time></trkpt><trkpt lat="35.0240151" lon="33.5910191"><ele>149.9</ele><time>2015-05-02T11:52:43.0000000+00:00</time></trkpt><trkpt lat="35.0239381" lon="33.5909906"><ele>150.5</ele><time>2015-05-02T11:52:45.0000000+00:00</time></trkpt><trkpt lat="35.0238597" lon="33.5909708"><ele>150.9</ele><time>2015-05-02T11:52:47.0000000+00:00</time></trkpt><trkpt lat="35.0237948" lon="33.5909582"><ele>151.0</ele><time>2015-05-02T11:52:48.0000000+00:00</time></trkpt><trkpt lat="35.0237473" lon="33.590939"><ele>151.5</ele><time>2015-05-02T11:52:49.0000000+00:00</time></trkpt><trkpt lat="35.0237038" lon="33.5909243"><ele>151.8</ele><time>2015-05-02T11:52:50.0000000+00:00</time></trkpt><trkpt lat="35.0236552" lon="33.5909183"><ele>151.4</ele><time>2015-05-02T11:52:51.0000000+00:00</time></trkpt><trkpt lat="35.0235757" lon="33.5909076"><ele>150.6</ele><time>2015-05-02T11:52:53.0000000+00:00</time></trkpt><trkpt lat="35.0235296" lon="33.5908977"><ele>150.3</ele><time>2015-05-02T11:52:54.0000000+00:00</time></trkpt><trkpt lat="35.0234747" lon="33.5908885"><ele>149.7</ele><time>2015-05-02T11:52:55.0000000+00:00</time></trkpt><trkpt lat="35.0234294" lon="33.5908778"><ele>149.3</ele><time>2015-05-02T11:52:56.0000000+00:00</time></trkpt><trkpt lat="35.0233767" lon="33.590876"><ele>148.7</ele><time>2015-05-02T11:52:57.0000000+00:00</time></trkpt><trkpt lat="35.0233229" lon="33.590869"><ele>148.4</ele><time>2015-05-02T11:52:58.0000000+00:00</time></trkpt><trkpt lat="35.0232777" lon="33.5908567"><ele>148.2</ele><time>2015-05-02T11:52:59.0000000+00:00</time></trkpt><trkpt lat="35.0232249" lon="33.5908418"><ele>148.6</ele><time>2015-05-02T11:53:00.0000000+00:00</time></trkpt><trkpt lat="35.0231732" lon="33.5908335"><ele>148.8</ele><time>2015-05-02T11:53:01.0000000+00:00</time></trkpt><trkpt lat="35.0231134" lon="33.5908133"><ele>148.9</ele><time>2015-05-02T11:53:02.0000000+00:00</time></trkpt><trkpt lat="35.0230567" lon="33.5907931"><ele>149.0</ele><time>2015-05-02T11:53:03.0000000+00:00</time></trkpt><trkpt lat="35.0230053" lon="33.5907851"><ele>149.5</ele><time>2015-05-02T11:53:04.0000000+00:00</time></trkpt><trkpt lat="35.0229379" lon="33.5907707"><ele>149.3</ele><time>2015-05-02T11:53:05.0000000+00:00</time></trkpt><trkpt lat="35.022875" lon="33.5907519"><ele>149.6</ele><time>2015-05-02T11:53:06.0000000+00:00</time></trkpt><trkpt lat="35.022807" lon="33.5907306"><ele>149.8</ele><time>2015-05-02T11:53:07.0000000+00:00</time></trkpt><trkpt lat="35.022744" lon="33.5906966"><ele>150.4</ele><time>2015-05-02T11:53:08.0000000+00:00</time></trkpt><trkpt lat="35.0226719" lon="33.5906764"><ele>150.2</ele><time>2015-05-02T11:53:09.0000000+00:00</time></trkpt><trkpt lat="35.0226282" lon="33.590661"><ele>151.1</ele><time>2015-05-02T11:53:10.0000000+00:00</time></trkpt><trkpt lat="35.0225658" lon="33.5906324"><ele>151.1</ele><time>2015-05-02T11:53:11.0000000+00:00</time></trkpt><trkpt lat="35.0225007" lon="33.5905961"><ele>150.5</ele><time>2015-05-02T11:53:12.0000000+00:00</time></trkpt><trkpt lat="35.0224411" lon="33.5905735"><ele>150.3</ele><time>2015-05-02T11:53:13.0000000+00:00</time></trkpt><trkpt lat="35.0223816" lon="33.5905437"><ele>150.2</ele><time>2015-05-02T11:53:14.0000000+00:00</time></trkpt><trkpt lat="35.0223276" lon="33.5905205"><ele>150.1</ele><time>2015-05-02T11:53:15.0000000+00:00</time></trkpt><trkpt lat="35.0222686" lon="33.5904896"><ele>150.6</ele><time>2015-05-02T11:53:16.0000000+00:00</time></trkpt><trkpt lat="35.0222126" lon="33.5904555"><ele>150.8</ele><time>2015-05-02T11:53:17.0000000+00:00</time></trkpt><trkpt lat="35.0221546" lon="33.5904226"><ele>150.9</ele><time>2015-05-02T11:53:18.0000000+00:00</time></trkpt><trkpt lat="35.022092" lon="33.5903851"><ele>150.5</ele><time>2015-05-02T11:53:19.0000000+00:00</time></trkpt><trkpt lat="35.022032" lon="33.5903497"><ele>150.2</ele><time>2015-05-02T11:53:20.0000000+00:00</time></trkpt><trkpt lat="35.0219828" lon="33.5903163"><ele>150.1</ele><time>2015-05-02T11:53:21.0000000+00:00</time></trkpt><trkpt lat="35.0219251" lon="33.5902995"><ele>150.1</ele><time>2015-05-02T11:53:22.0000000+00:00</time></trkpt><trkpt lat="35.0218655" lon="33.5902685"><ele>149.5</ele><time>2015-05-02T11:53:23.0000000+00:00</time></trkpt><trkpt lat="35.0218065" lon="33.5902318"><ele>149.3</ele><time>2015-05-02T11:53:24.0000000+00:00</time></trkpt><trkpt lat="35.0217437" lon="33.5901986"><ele>149.7</ele><time>2015-05-02T11:53:25.0000000+00:00</time></trkpt><trkpt lat="35.0216885" lon="33.5901547"><ele>149.3</ele><time>2015-05-02T11:53:26.0000000+00:00</time></trkpt><trkpt lat="35.021629" lon="33.5901355"><ele>149.2</ele><time>2015-05-02T11:53:27.0000000+00:00</time></trkpt><trkpt lat="35.0215754" lon="33.5901018"><ele>148.6</ele><time>2015-05-02T11:53:28.0000000+00:00</time></trkpt><trkpt lat="35.0215092" lon="33.5900694"><ele>147.8</ele><time>2015-05-02T11:53:29.0000000+00:00</time></trkpt><trkpt lat="35.0214464" lon="33.5900359"><ele>147.4</ele><time>2015-05-02T11:53:30.0000000+00:00</time></trkpt><trkpt lat="35.0213855" lon="33.5899958"><ele>147.2</ele><time>2015-05-02T11:53:31.0000000+00:00</time></trkpt><trkpt lat="35.0213246" lon="33.58996"><ele>147.1</ele><time>2015-05-02T11:53:32.0000000+00:00</time></trkpt><trkpt lat="35.0212515" lon="33.5899294"><ele>146.6</ele><time>2015-05-02T11:53:33.0000000+00:00</time></trkpt><trkpt lat="35.0211897" lon="33.5899057"><ele>145.8</ele><time>2015-05-02T11:53:34.0000000+00:00</time></trkpt><trkpt lat="35.0211183" lon="33.5898745"><ele>145.9</ele><time>2015-05-02T11:53:35.0000000+00:00</time></trkpt><trkpt lat="35.0210521" lon="33.5898451"><ele>145.5</ele><time>2015-05-02T11:53:36.0000000+00:00</time></trkpt><trkpt lat="35.0209873" lon="33.5898102"><ele>145.2</ele><time>2015-05-02T11:53:37.0000000+00:00</time></trkpt><trkpt lat="35.0209338" lon="33.5897648"><ele>145.1</ele><time>2015-05-02T11:53:38.0000000+00:00</time></trkpt><trkpt lat="35.0208729" lon="33.5897297"><ele>144.6</ele><time>2015-05-02T11:53:39.0000000+00:00</time></trkpt><trkpt lat="35.0208023" lon="33.5896911"><ele>144.3</ele><time>2015-05-02T11:53:40.0000000+00:00</time></trkpt><trkpt lat="35.0207359" lon="33.589648"><ele>144.2</ele><time>2015-05-02T11:53:41.0000000+00:00</time></trkpt><trkpt lat="35.0206762" lon="33.5896166"><ele>143.1</ele><time>2015-05-02T11:53:42.0000000+00:00</time></trkpt><trkpt lat="35.0206037" lon="33.5895862"><ele>142.6</ele><time>2015-05-02T11:53:43.0000000+00:00</time></trkpt><trkpt lat="35.0205438" lon="33.5895492"><ele>142.3</ele><time>2015-05-02T11:53:44.0000000+00:00</time></trkpt><trkpt lat="35.0204772" lon="33.5895113"><ele>142.2</ele><time>2015-05-02T11:53:45.0000000+00:00</time></trkpt><trkpt lat="35.0204142" lon="33.5894727"><ele>141.6</ele><time>2015-05-02T11:53:46.0000000+00:00</time></trkpt><trkpt lat="35.0203541" lon="33.5894299"><ele>140.8</ele><time>2015-05-02T11:53:47.0000000+00:00</time></trkpt><trkpt lat="35.0202816" lon="33.5893906"><ele>140.9</ele><time>2015-05-02T11:53:48.0000000+00:00</time></trkpt><trkpt lat="35.0202082" lon="33.5893557"><ele>141.0</ele><time>2015-05-02T11:53:49.0000000+00:00</time></trkpt><trkpt lat="35.0201535" lon="33.5893117"><ele>142.0</ele><time>2015-05-02T11:53:50.0000000+00:00</time></trkpt><trkpt lat="35.0200917" lon="33.5892767"><ele>142.0</ele><time>2015-05-02T11:53:51.0000000+00:00</time></trkpt><trkpt lat="35.0200384" lon="33.5892323"><ele>142.0</ele><time>2015-05-02T11:53:52.0000000+00:00</time></trkpt><trkpt lat="35.0199858" lon="33.589194"><ele>141.5</ele><time>2015-05-02T11:53:53.0000000+00:00</time></trkpt><trkpt lat="35.0199258" lon="33.5891533"><ele>141.3</ele><time>2015-05-02T11:53:54.0000000+00:00</time></trkpt><trkpt lat="35.0198813" lon="33.5891239"><ele>140.6</ele><time>2015-05-02T11:53:55.0000000+00:00</time></trkpt><trkpt lat="35.0198226" lon="33.5890866"><ele>140.3</ele><time>2015-05-02T11:53:56.0000000+00:00</time></trkpt><trkpt lat="35.0197718" lon="33.5890464"><ele>139.7</ele><time>2015-05-02T11:53:57.0000000+00:00</time></trkpt><trkpt lat="35.01972" lon="33.5890102"><ele>139.3</ele><time>2015-05-02T11:53:58.0000000+00:00</time></trkpt><trkpt lat="35.0196707" lon="33.5889726"><ele>139.2</ele><time>2015-05-02T11:53:59.0000000+00:00</time></trkpt><trkpt lat="35.0196218" lon="33.5889333"><ele>139.1</ele><time>2015-05-02T11:54:00.0000000+00:00</time></trkpt><trkpt lat="35.0195815" lon="33.5888993"><ele>139.1</ele><time>2015-05-02T11:54:01.0000000+00:00</time></trkpt><trkpt lat="35.0195336" lon="33.5888555"><ele>139.0</ele><time>2015-05-02T11:54:02.0000000+00:00</time></trkpt><trkpt lat="35.0194866" lon="33.5888145"><ele>138.5</ele><time>2015-05-02T11:54:03.0000000+00:00</time></trkpt><trkpt lat="35.019441" lon="33.5887768"><ele>138.3</ele><time>2015-05-02T11:54:04.0000000+00:00</time></trkpt><trkpt lat="35.0193888" lon="33.5887331"><ele>138.6</ele><time>2015-05-02T11:54:05.0000000+00:00</time></trkpt><trkpt lat="35.0193497" lon="33.5886989"><ele>138.3</ele><time>2015-05-02T11:54:06.0000000+00:00</time></trkpt><trkpt lat="35.0193129" lon="33.5886492"><ele>138.2</ele><time>2015-05-02T11:54:07.0000000+00:00</time></trkpt><trkpt lat="35.0192831" lon="33.588592"><ele>137.6</ele><time>2015-05-02T11:54:08.0000000+00:00</time></trkpt><trkpt lat="35.0192459" lon="33.5885386"><ele>137.3</ele><time>2015-05-02T11:54:09.0000000+00:00</time></trkpt><trkpt lat="35.019215" lon="33.5884886"><ele>137.7</ele><time>2015-05-02T11:54:10.0000000+00:00</time></trkpt><trkpt lat="35.0191819" lon="33.5884383"><ele>137.8</ele><time>2015-05-02T11:54:11.0000000+00:00</time></trkpt><trkpt lat="35.0191578" lon="33.5883721"><ele>137.4</ele><time>2015-05-02T11:54:12.0000000+00:00</time></trkpt><trkpt lat="35.0191193" lon="33.5883227"><ele>137.2</ele><time>2015-05-02T11:54:13.0000000+00:00</time></trkpt><trkpt lat="35.0190538" lon="33.5882286"><ele>137.8</ele><time>2015-05-02T11:54:15.0000000+00:00</time></trkpt><trkpt lat="35.019012" lon="33.588177"><ele>137.4</ele><time>2015-05-02T11:54:16.0000000+00:00</time></trkpt><trkpt lat="35.0189741" lon="33.5881283"><ele>137.2</ele><time>2015-05-02T11:54:17.0000000+00:00</time></trkpt><trkpt lat="35.0189394" lon="33.5880909"><ele>137.6</ele><time>2015-05-02T11:54:18.0000000+00:00</time></trkpt><trkpt lat="35.018901" lon="33.5880519"><ele>137.8</ele><time>2015-05-02T11:54:19.0000000+00:00</time></trkpt><trkpt lat="35.0188314" lon="33.5879822"><ele>138.7</ele><time>2015-05-02T11:54:21.0000000+00:00</time></trkpt><trkpt lat="35.0187993" lon="33.5878931"><ele>138.2</ele><time>2015-05-02T11:54:23.0000000+00:00</time></trkpt><trkpt lat="35.0187708" lon="33.5878486"><ele>138.1</ele><time>2015-05-02T11:54:24.0000000+00:00</time></trkpt><trkpt lat="35.0187322" lon="33.5877774"><ele>138.5</ele><time>2015-05-02T11:54:26.0000000+00:00</time></trkpt><trkpt lat="35.0186892" lon="33.5876904"><ele>140.9</ele><time>2015-05-02T11:54:28.0000000+00:00</time></trkpt><trkpt lat="35.0186588" lon="33.5876005"><ele>141.7</ele><time>2015-05-02T11:54:30.0000000+00:00</time></trkpt><trkpt lat="35.0186322" lon="33.5875163"><ele>141.5</ele><time>2015-05-02T11:54:32.0000000+00:00</time></trkpt><trkpt lat="35.018602" lon="33.587435"><ele>140.4</ele><time>2015-05-02T11:54:34.0000000+00:00</time></trkpt><trkpt lat="35.0185756" lon="33.5873503"><ele>140.1</ele><time>2015-05-02T11:54:36.0000000+00:00</time></trkpt><trkpt lat="35.0185513" lon="33.5872612"><ele>139.3</ele><time>2015-05-02T11:54:38.0000000+00:00</time></trkpt><trkpt lat="35.0185294" lon="33.5871743"><ele>139.8</ele><time>2015-05-02T11:54:40.0000000+00:00</time></trkpt><trkpt lat="35.0185148" lon="33.5870974"><ele>140.0</ele><time>2015-05-02T11:54:42.0000000+00:00</time></trkpt><trkpt lat="35.018507" lon="33.5870402"><ele>140.8</ele><time>2015-05-02T11:54:44.0000000+00:00</time></trkpt><trkpt lat="35.0184888" lon="33.5869741"><ele>146.4</ele><time>2015-05-02T11:55:06.0000000+00:00</time></trkpt><trkpt lat="35.0184766" lon="33.5869108"><ele>146.9</ele><time>2015-05-02T11:55:08.0000000+00:00</time></trkpt><trkpt lat="35.0184484" lon="33.5868337"><ele>147.7</ele><time>2015-05-02T11:55:10.0000000+00:00</time></trkpt><trkpt lat="35.018416" lon="33.5867482"><ele>147.9</ele><time>2015-05-02T11:55:12.0000000+00:00</time></trkpt><trkpt lat="35.018382" lon="33.5866608"><ele>147.5</ele><time>2015-05-02T11:55:14.0000000+00:00</time></trkpt><trkpt lat="35.0183343" lon="33.5865744"><ele>147.1</ele><time>2015-05-02T11:55:16.0000000+00:00</time></trkpt><trkpt lat="35.018275" lon="33.5864948"><ele>147.8</ele><time>2015-05-02T11:55:18.0000000+00:00</time></trkpt><trkpt lat="35.0182073" lon="33.586432"><ele>147.7</ele><time>2015-05-02T11:55:20.0000000+00:00</time></trkpt><trkpt lat="35.0181438" lon="33.586375"><ele>147.2</ele><time>2015-05-02T11:55:22.0000000+00:00</time></trkpt><trkpt lat="35.0180863" lon="33.5863194"><ele>147.1</ele><time>2015-05-02T11:55:24.0000000+00:00</time></trkpt><trkpt lat="35.0180352" lon="33.5862644"><ele>146.5</ele><time>2015-05-02T11:55:26.0000000+00:00</time></trkpt><trkpt lat="35.0179846" lon="33.5862138"><ele>146.6</ele><time>2015-05-02T11:55:28.0000000+00:00</time></trkpt><trkpt lat="35.0179247" lon="33.5861704"><ele>147.2</ele><time>2015-05-02T11:55:30.0000000+00:00</time></trkpt><trkpt lat="35.0178686" lon="33.5861322"><ele>147.6</ele><time>2015-05-02T11:55:32.0000000+00:00</time></trkpt><trkpt lat="35.017816" lon="33.5860927"><ele>147.2</ele><time>2015-05-02T11:55:34.0000000+00:00</time></trkpt><trkpt lat="35.0177598" lon="33.5860515"><ele>146.8</ele><time>2015-05-02T11:55:36.0000000+00:00</time></trkpt><trkpt lat="35.0176975" lon="33.5860068"><ele>147.7</ele><time>2015-05-02T11:55:38.0000000+00:00</time></trkpt><trkpt lat="35.0176328" lon="33.5859564"><ele>147.4</ele><time>2015-05-02T11:55:40.0000000+00:00</time></trkpt><trkpt lat="35.0175712" lon="33.5859011"><ele>147.9</ele><time>2015-05-02T11:55:42.0000000+00:00</time></trkpt><trkpt lat="35.0175082" lon="33.5858431"><ele>147.5</ele><time>2015-05-02T11:55:44.0000000+00:00</time></trkpt><trkpt lat="35.0174424" lon="33.5857899"><ele>147.9</ele><time>2015-05-02T11:55:46.0000000+00:00</time></trkpt><trkpt lat="35.0173769" lon="33.5857394"><ele>147.5</ele><time>2015-05-02T11:55:48.0000000+00:00</time></trkpt><trkpt lat="35.017305" lon="33.585688"><ele>147.1</ele><time>2015-05-02T11:55:50.0000000+00:00</time></trkpt><trkpt lat="35.0172415" lon="33.5856471"><ele>146.6</ele><time>2015-05-02T11:55:51.0000000+00:00</time></trkpt><trkpt lat="35.0171562" lon="33.5856029"><ele>146.2</ele><time>2015-05-02T11:55:53.0000000+00:00</time></trkpt><trkpt lat="35.0171025" lon="33.5855803"><ele>146.6</ele><time>2015-05-02T11:55:54.0000000+00:00</time></trkpt><trkpt lat="35.0170322" lon="33.5855066"><ele>147.4</ele><time>2015-05-02T11:55:56.0000000+00:00</time></trkpt><trkpt lat="35.016974" lon="33.5854756"><ele>148.2</ele><time>2015-05-02T11:55:57.0000000+00:00</time></trkpt><trkpt lat="35.0169169" lon="33.5854522"><ele>147.6</ele><time>2015-05-02T11:55:58.0000000+00:00</time></trkpt><trkpt lat="35.0168528" lon="33.5854224"><ele>147.3</ele><time>2015-05-02T11:55:59.0000000+00:00</time></trkpt><trkpt lat="35.0167989" lon="33.5853871"><ele>146.7</ele><time>2015-05-02T11:56:00.0000000+00:00</time></trkpt><trkpt lat="35.0167481" lon="33.5853505"><ele>146.3</ele><time>2015-05-02T11:56:01.0000000+00:00</time></trkpt><trkpt lat="35.0166925" lon="33.5853169"><ele>145.7</ele><time>2015-05-02T11:56:02.0000000+00:00</time></trkpt><trkpt lat="35.0166376" lon="33.5852907"><ele>145.9</ele><time>2015-05-02T11:56:03.0000000+00:00</time></trkpt><trkpt lat="35.0165923" lon="33.5852684"><ele>145.9</ele><time>2015-05-02T11:56:04.0000000+00:00</time></trkpt><trkpt lat="35.0165421" lon="33.5852412"><ele>146.0</ele><time>2015-05-02T11:56:05.0000000+00:00</time></trkpt><trkpt lat="35.0165029" lon="33.5852111"><ele>145.5</ele><time>2015-05-02T11:56:06.0000000+00:00</time></trkpt><trkpt lat="35.0164632" lon="33.5851853"><ele>145.3</ele><time>2015-05-02T11:56:07.0000000+00:00</time></trkpt><trkpt lat="35.0164009" lon="33.5851216"><ele>145.8</ele><time>2015-05-02T11:56:09.0000000+00:00</time></trkpt><trkpt lat="35.0163605" lon="33.5850902"><ele>145.9</ele><time>2015-05-02T11:56:10.0000000+00:00</time></trkpt><trkpt lat="35.0163097" lon="33.5850643"><ele>146.0</ele><time>2015-05-02T11:56:11.0000000+00:00</time></trkpt><trkpt lat="35.0162678" lon="33.585038"><ele>146.0</ele><time>2015-05-02T11:56:12.0000000+00:00</time></trkpt><trkpt lat="35.0162279" lon="33.5850099"><ele>146.0</ele><time>2015-05-02T11:56:13.0000000+00:00</time></trkpt><trkpt lat="35.0161812" lon="33.5849752"><ele>146.0</ele><time>2015-05-02T11:56:14.0000000+00:00</time></trkpt><trkpt lat="35.0161343" lon="33.5849362"><ele>145.5</ele><time>2015-05-02T11:56:15.0000000+00:00</time></trkpt><trkpt lat="35.0160632" lon="33.5848702"><ele>145.9</ele><time>2015-05-02T11:56:17.0000000+00:00</time></trkpt><trkpt lat="35.0160248" lon="33.5848414"><ele>146.0</ele><time>2015-05-02T11:56:18.0000000+00:00</time></trkpt><trkpt lat="35.0159938" lon="33.5848004"><ele>146.5</ele><time>2015-05-02T11:56:19.0000000+00:00</time></trkpt><trkpt lat="35.0159574" lon="33.5847554"><ele>146.8</ele><time>2015-05-02T11:56:20.0000000+00:00</time></trkpt><trkpt lat="35.0159253" lon="33.5847009"><ele>146.9</ele><time>2015-05-02T11:56:21.0000000+00:00</time></trkpt><trkpt lat="35.0158902" lon="33.5846554"><ele>147.0</ele><time>2015-05-02T11:56:22.0000000+00:00</time></trkpt><trkpt lat="35.015859" lon="33.5846038"><ele>147.5</ele><time>2015-05-02T11:56:23.0000000+00:00</time></trkpt><trkpt lat="35.0158294" lon="33.5845602"><ele>147.3</ele><time>2015-05-02T11:56:24.0000000+00:00</time></trkpt><trkpt lat="35.0157996" lon="33.584514"><ele>147.1</ele><time>2015-05-02T11:56:25.0000000+00:00</time></trkpt><trkpt lat="35.0157677" lon="33.5844668"><ele>147.1</ele><time>2015-05-02T11:56:26.0000000+00:00</time></trkpt><trkpt lat="35.0157372" lon="33.5844167"><ele>147.1</ele><time>2015-05-02T11:56:27.0000000+00:00</time></trkpt><trkpt lat="35.0157107" lon="33.5843641"><ele>147.0</ele><time>2015-05-02T11:56:28.0000000+00:00</time></trkpt><trkpt lat="35.0156779" lon="33.5843141"><ele>147.0</ele><time>2015-05-02T11:56:29.0000000+00:00</time></trkpt><trkpt lat="35.0156465" lon="33.584254"><ele>147.0</ele><time>2015-05-02T11:56:30.0000000+00:00</time></trkpt><trkpt lat="35.0156228" lon="33.5841966"><ele>147.5</ele><time>2015-05-02T11:56:31.0000000+00:00</time></trkpt><trkpt lat="35.0155964" lon="33.5841419"><ele>147.8</ele><time>2015-05-02T11:56:32.0000000+00:00</time></trkpt><trkpt lat="35.0155752" lon="33.5840862"><ele>147.9</ele><time>2015-05-02T11:56:33.0000000+00:00</time></trkpt><trkpt lat="35.0155509" lon="33.5840383"><ele>148.0</ele><time>2015-05-02T11:56:34.0000000+00:00</time></trkpt><trkpt lat="35.0155078" lon="33.5839659"><ele>148.8</ele><time>2015-05-02T11:56:36.0000000+00:00</time></trkpt><trkpt lat="35.015474" lon="33.5838913"><ele>148.2</ele><time>2015-05-02T11:56:38.0000000+00:00</time></trkpt><trkpt lat="35.0154363" lon="33.5838218"><ele>148.6</ele><time>2015-05-02T11:56:40.0000000+00:00</time></trkpt><trkpt lat="35.0153898" lon="33.5837379"><ele>148.9</ele><time>2015-05-02T11:56:42.0000000+00:00</time></trkpt><trkpt lat="35.0153359" lon="33.5836584"><ele>148.2</ele><time>2015-05-02T11:56:44.0000000+00:00</time></trkpt><trkpt lat="35.01528" lon="33.5835648"><ele>148.3</ele><time>2015-05-02T11:56:46.0000000+00:00</time></trkpt><trkpt lat="35.0152415" lon="33.5835279"><ele>148.2</ele><time>2015-05-02T11:56:47.0000000+00:00</time></trkpt><trkpt lat="35.0151969" lon="33.5834542"><ele>147.3</ele><time>2015-05-02T11:56:49.0000000+00:00</time></trkpt><trkpt lat="35.0151672" lon="33.5834072"><ele>147.2</ele><time>2015-05-02T11:56:50.0000000+00:00</time></trkpt><trkpt lat="35.0151376" lon="33.5833641"><ele>147.1</ele><time>2015-05-02T11:56:51.0000000+00:00</time></trkpt><trkpt lat="35.0151087" lon="33.5833094"><ele>147.1</ele><time>2015-05-02T11:56:52.0000000+00:00</time></trkpt><trkpt lat="35.0150904" lon="33.5832446"><ele>147.5</ele><time>2015-05-02T11:56:53.0000000+00:00</time></trkpt><trkpt lat="35.0150663" lon="33.5831954"><ele>147.8</ele><time>2015-05-02T11:56:54.0000000+00:00</time></trkpt><trkpt lat="35.0150471" lon="33.5831334"><ele>148.4</ele><time>2015-05-02T11:56:55.0000000+00:00</time></trkpt><trkpt lat="35.0150219" lon="33.583081"><ele>148.7</ele><time>2015-05-02T11:56:56.0000000+00:00</time></trkpt><trkpt lat="35.0150119" lon="33.5830236"><ele>148.4</ele><time>2015-05-02T11:56:57.0000000+00:00</time></trkpt><trkpt lat="35.0149887" lon="33.5829644"><ele>148.2</ele><time>2015-05-02T11:56:58.0000000+00:00</time></trkpt><trkpt lat="35.0149722" lon="33.5829037"><ele>148.1</ele><time>2015-05-02T11:56:59.0000000+00:00</time></trkpt><trkpt lat="35.0149658" lon="33.5828355"><ele>148.1</ele><time>2015-05-02T11:57:00.0000000+00:00</time></trkpt><trkpt lat="35.014953" lon="33.5827758"><ele>148.5</ele><time>2015-05-02T11:57:01.0000000+00:00</time></trkpt><trkpt lat="35.0149454" lon="33.5827203"><ele>148.8</ele><time>2015-05-02T11:57:02.0000000+00:00</time></trkpt><trkpt lat="35.0149366" lon="33.5826648"><ele>148.9</ele><time>2015-05-02T11:57:03.0000000+00:00</time></trkpt><trkpt lat="35.0149266" lon="33.5826042"><ele>149.5</ele><time>2015-05-02T11:57:04.0000000+00:00</time></trkpt><trkpt lat="35.0149233" lon="33.5825466"><ele>149.2</ele><time>2015-05-02T11:57:05.0000000+00:00</time></trkpt><trkpt lat="35.0149092" lon="33.5824609"><ele>149.6</ele><time>2015-05-02T11:57:07.0000000+00:00</time></trkpt><trkpt lat="35.0149054" lon="33.5824061"><ele>149.3</ele><time>2015-05-02T11:57:08.0000000+00:00</time></trkpt><trkpt lat="35.014893" lon="33.5823018"><ele>148.6</ele><time>2015-05-02T11:57:10.0000000+00:00</time></trkpt><trkpt lat="35.0148711" lon="33.5821946"><ele>148.2</ele><time>2015-05-02T11:57:12.0000000+00:00</time></trkpt><trkpt lat="35.0148523" lon="33.582142"><ele>149.1</ele><time>2015-05-02T11:57:13.0000000+00:00</time></trkpt><trkpt lat="35.0148581" lon="33.5820828"><ele>149.1</ele><time>2015-05-02T11:57:14.0000000+00:00</time></trkpt><trkpt lat="35.0148452" lon="33.5820268"><ele>149.5</ele><time>2015-05-02T11:57:15.0000000+00:00</time></trkpt><trkpt lat="35.0148414" lon="33.5819494"><ele>149.8</ele><time>2015-05-02T11:57:16.0000000+00:00</time></trkpt><trkpt lat="35.014836" lon="33.5818897"><ele>150.4</ele><time>2015-05-02T11:57:17.0000000+00:00</time></trkpt><trkpt lat="35.0148205" lon="33.581831"><ele>150.2</ele><time>2015-05-02T11:57:18.0000000+00:00</time></trkpt><trkpt lat="35.0148059" lon="33.5817789"><ele>150.1</ele><time>2015-05-02T11:57:19.0000000+00:00</time></trkpt><trkpt lat="35.0148006" lon="33.5817201"><ele>150.1</ele><time>2015-05-02T11:57:20.0000000+00:00</time></trkpt><trkpt lat="35.0147942" lon="33.5816586"><ele>149.5</ele><time>2015-05-02T11:57:21.0000000+00:00</time></trkpt><trkpt lat="35.0147839" lon="33.581598"><ele>149.3</ele><time>2015-05-02T11:57:22.0000000+00:00</time></trkpt><trkpt lat="35.0147745" lon="33.5815325"><ele>149.2</ele><time>2015-05-02T11:57:23.0000000+00:00</time></trkpt><trkpt lat="35.014767" lon="33.5814766"><ele>149.1</ele><time>2015-05-02T11:57:24.0000000+00:00</time></trkpt><trkpt lat="35.0147542" lon="33.5814147"><ele>148.6</ele><time>2015-05-02T11:57:25.0000000+00:00</time></trkpt><trkpt lat="35.0147522" lon="33.5813468"><ele>148.3</ele><time>2015-05-02T11:57:26.0000000+00:00</time></trkpt><trkpt lat="35.0147422" lon="33.5812872"><ele>148.2</ele><time>2015-05-02T11:57:27.0000000+00:00</time></trkpt><trkpt lat="35.0147318" lon="33.581218"><ele>148.6</ele><time>2015-05-02T11:57:28.0000000+00:00</time></trkpt><trkpt lat="35.0147216" lon="33.5811593"><ele>149.3</ele><time>2015-05-02T11:57:29.0000000+00:00</time></trkpt><trkpt lat="35.0146991" lon="33.5810661"><ele>150.6</ele><time>2015-05-02T11:57:31.0000000+00:00</time></trkpt><trkpt lat="35.0146789" lon="33.5809721"><ele>150.4</ele><time>2015-05-02T11:57:33.0000000+00:00</time></trkpt><trkpt lat="35.0146607" lon="33.5808752"><ele>150.9</ele><time>2015-05-02T11:57:35.0000000+00:00</time></trkpt><trkpt lat="35.0146509" lon="33.5808204"><ele>150.9</ele><time>2015-05-02T11:57:36.0000000+00:00</time></trkpt><trkpt lat="35.0146397" lon="33.5807598"><ele>151.0</ele><time>2015-05-02T11:57:37.0000000+00:00</time></trkpt><trkpt lat="35.014623" lon="33.5807032"><ele>150.5</ele><time>2015-05-02T11:57:38.0000000+00:00</time></trkpt><trkpt lat="35.0146007" lon="33.5806054"><ele>150.9</ele><time>2015-05-02T11:57:40.0000000+00:00</time></trkpt><trkpt lat="35.0145969" lon="33.5805195"><ele>150.5</ele><time>2015-05-02T11:57:42.0000000+00:00</time></trkpt><trkpt lat="35.0145637" lon="33.5804465"><ele>150.1</ele><time>2015-05-02T11:57:44.0000000+00:00</time></trkpt><trkpt lat="35.014563" lon="33.5803656"><ele>150.1</ele><time>2015-05-02T11:57:46.0000000+00:00</time></trkpt><trkpt lat="35.0145381" lon="33.5802901"><ele>150.0</ele><time>2015-05-02T11:57:48.0000000+00:00</time></trkpt><trkpt lat="35.0145297" lon="33.5801871"><ele>150.8</ele><time>2015-05-02T11:57:50.0000000+00:00</time></trkpt><trkpt lat="35.0145045" lon="33.5801007"><ele>151.7</ele><time>2015-05-02T11:57:52.0000000+00:00</time></trkpt><trkpt lat="35.0144777" lon="33.5800276"><ele>151.9</ele><time>2015-05-02T11:57:54.0000000+00:00</time></trkpt><trkpt lat="35.0144485" lon="33.5799608"><ele>152.0</ele><time>2015-05-02T11:57:56.0000000+00:00</time></trkpt><trkpt lat="35.0144151" lon="33.5798928"><ele>152.8</ele><time>2015-05-02T11:57:58.0000000+00:00</time></trkpt><trkpt lat="35.0143848" lon="33.5798254"><ele>153.5</ele><time>2015-05-02T11:58:00.0000000+00:00</time></trkpt><trkpt lat="35.0143624" lon="33.579762"><ele>153.9</ele><time>2015-05-02T11:58:02.0000000+00:00</time></trkpt><trkpt lat="35.014341" lon="33.5797134"><ele>154.5</ele><time>2015-05-02T11:58:04.0000000+00:00</time></trkpt><trkpt lat="35.0143011" lon="33.579653"><ele>155.2</ele><time>2015-05-02T11:58:07.0000000+00:00</time></trkpt><trkpt lat="35.0142524" lon="33.5796001"><ele>155.5</ele><time>2015-05-02T11:58:10.0000000+00:00</time></trkpt><trkpt lat="35.0142062" lon="33.5795472"><ele>156.0</ele><time>2015-05-02T11:58:13.0000000+00:00</time></trkpt><trkpt lat="35.0141565" lon="33.579498"><ele>157.6</ele><time>2015-05-02T11:58:16.0000000+00:00</time></trkpt><trkpt lat="35.0141146" lon="33.5794353"><ele>157.2</ele><time>2015-05-02T11:58:19.0000000+00:00</time></trkpt><trkpt lat="35.0140881" lon="33.5793889"><ele>157.6</ele><time>2015-05-02T11:58:21.0000000+00:00</time></trkpt><trkpt lat="35.0140578" lon="33.5793471"><ele>157.4</ele><time>2015-05-02T11:58:23.0000000+00:00</time></trkpt><trkpt lat="35.0140237" lon="33.5793103"><ele>157.9</ele><time>2015-05-02T11:58:25.0000000+00:00</time></trkpt><trkpt lat="35.0139884" lon="33.5792719"><ele>158.0</ele><time>2015-05-02T11:58:27.0000000+00:00</time></trkpt><trkpt lat="35.0139485" lon="33.5792252"><ele>157.8</ele><time>2015-05-02T11:58:29.0000000+00:00</time></trkpt><trkpt lat="35.0139089" lon="33.5791812"><ele>158.0</ele><time>2015-05-02T11:58:31.0000000+00:00</time></trkpt><trkpt lat="35.013864" lon="33.5791342"><ele>156.0</ele><time>2015-05-02T11:58:33.0000000+00:00</time></trkpt><trkpt lat="35.0138285" lon="33.5790932"><ele>155.3</ele><time>2015-05-02T11:58:35.0000000+00:00</time></trkpt><trkpt lat="35.0137814" lon="33.5790406"><ele>154.9</ele><time>2015-05-02T11:58:38.0000000+00:00</time></trkpt><trkpt lat="35.013741" lon="33.578996"><ele>154.7</ele><time>2015-05-02T11:58:40.0000000+00:00</time></trkpt><trkpt lat="35.013693" lon="33.578946"><ele>155.5</ele><time>2015-05-02T11:58:42.0000000+00:00</time></trkpt><trkpt lat="35.013635" lon="33.5788863"><ele>156.6</ele><time>2015-05-02T11:58:44.0000000+00:00</time></trkpt><trkpt lat="35.013577" lon="33.5788261"><ele>156.2</ele><time>2015-05-02T11:58:46.0000000+00:00</time></trkpt><trkpt lat="35.013523" lon="33.5787693"><ele>156.3</ele><time>2015-05-02T11:58:48.0000000+00:00</time></trkpt><trkpt lat="35.0134796" lon="33.5787239"><ele>156.3</ele><time>2015-05-02T11:58:50.0000000+00:00</time></trkpt><trkpt lat="35.0134394" lon="33.5786666"><ele>157.4</ele><time>2015-05-02T11:58:53.0000000+00:00</time></trkpt><trkpt lat="35.0134046" lon="33.5786222"><ele>157.1</ele><time>2015-05-02T11:58:55.0000000+00:00</time></trkpt><trkpt lat="35.0133624" lon="33.5785718"><ele>158.3</ele><time>2015-05-02T11:58:57.0000000+00:00</time></trkpt><trkpt lat="35.013321" lon="33.5785208"><ele>158.8</ele><time>2015-05-02T11:58:59.0000000+00:00</time></trkpt><trkpt lat="35.0132782" lon="33.5784574"><ele>158.2</ele><time>2015-05-02T11:59:01.0000000+00:00</time></trkpt><trkpt lat="35.0132375" lon="33.5783941"><ele>158.8</ele><time>2015-05-02T11:59:03.0000000+00:00</time></trkpt><trkpt lat="35.0131879" lon="33.5783272"><ele>159.5</ele><time>2015-05-02T11:59:05.0000000+00:00</time></trkpt><trkpt lat="35.0131376" lon="33.5782594"><ele>159.1</ele><time>2015-05-02T11:59:07.0000000+00:00</time></trkpt><trkpt lat="35.0130831" lon="33.5781772"><ele>159.0</ele><time>2015-05-02T11:59:09.0000000+00:00</time></trkpt><trkpt lat="35.0130286" lon="33.5780929"><ele>159.5</ele><time>2015-05-02T11:59:11.0000000+00:00</time></trkpt><trkpt lat="35.0129785" lon="33.5780157"><ele>159.9</ele><time>2015-05-02T11:59:13.0000000+00:00</time></trkpt><trkpt lat="35.0129344" lon="33.5779481"><ele>160.0</ele><time>2015-05-02T11:59:15.0000000+00:00</time></trkpt><trkpt lat="35.012896" lon="33.5778739"><ele>160.0</ele><time>2015-05-02T11:59:17.0000000+00:00</time></trkpt><trkpt lat="35.012853" lon="33.577799"><ele>159.3</ele><time>2015-05-02T11:59:19.0000000+00:00</time></trkpt><trkpt lat="35.0128096" lon="33.577715"><ele>159.1</ele><time>2015-05-02T11:59:21.0000000+00:00</time></trkpt><trkpt lat="35.0127633" lon="33.5776249"><ele>159.0</ele><time>2015-05-02T11:59:23.0000000+00:00</time></trkpt><trkpt lat="35.0127203" lon="33.5775638"><ele>159.0</ele><time>2015-05-02T11:59:24.0000000+00:00</time></trkpt><trkpt lat="35.0126889" lon="33.5775127"><ele>159.0</ele><time>2015-05-02T11:59:25.0000000+00:00</time></trkpt><trkpt lat="35.0126579" lon="33.5774671"><ele>159.0</ele><time>2015-05-02T11:59:26.0000000+00:00</time></trkpt><trkpt lat="35.0126371" lon="33.577408"><ele>159.5</ele><time>2015-05-02T11:59:27.0000000+00:00</time></trkpt><trkpt lat="35.01261" lon="33.5773571"><ele>159.3</ele><time>2015-05-02T11:59:28.0000000+00:00</time></trkpt><trkpt lat="35.0125804" lon="33.5772976"><ele>159.1</ele><time>2015-05-02T11:59:29.0000000+00:00</time></trkpt><trkpt lat="35.0125495" lon="33.5772485"><ele>158.6</ele><time>2015-05-02T11:59:30.0000000+00:00</time></trkpt><trkpt lat="35.0125206" lon="33.5772006"><ele>159.3</ele><time>2015-05-02T11:59:31.0000000+00:00</time></trkpt><trkpt lat="35.0124839" lon="33.5771575"><ele>159.7</ele><time>2015-05-02T11:59:32.0000000+00:00</time></trkpt><trkpt lat="35.0124551" lon="33.5771093"><ele>159.3</ele><time>2015-05-02T11:59:33.0000000+00:00</time></trkpt><trkpt lat="35.0124248" lon="33.577058"><ele>158.7</ele><time>2015-05-02T11:59:34.0000000+00:00</time></trkpt><trkpt lat="35.0123907" lon="33.5770118"><ele>158.4</ele><time>2015-05-02T11:59:35.0000000+00:00</time></trkpt><trkpt lat="35.0123593" lon="33.5769653"><ele>158.2</ele><time>2015-05-02T11:59:36.0000000+00:00</time></trkpt><trkpt lat="35.0123197" lon="33.5769172"><ele>158.1</ele><time>2015-05-02T11:59:37.0000000+00:00</time></trkpt><trkpt lat="35.0122837" lon="33.5768663"><ele>157.6</ele><time>2015-05-02T11:59:38.0000000+00:00</time></trkpt><trkpt lat="35.0122486" lon="33.5768142"><ele>157.3</ele><time>2015-05-02T11:59:39.0000000+00:00</time></trkpt><trkpt lat="35.0122151" lon="33.5767654"><ele>157.7</ele><time>2015-05-02T11:59:40.0000000+00:00</time></trkpt><trkpt lat="35.0121787" lon="33.5767079"><ele>157.8</ele><time>2015-05-02T11:59:41.0000000+00:00</time></trkpt><trkpt lat="35.0121481" lon="33.5766477"><ele>157.9</ele><time>2015-05-02T11:59:42.0000000+00:00</time></trkpt><trkpt lat="35.01211" lon="33.5765981"><ele>158.0</ele><time>2015-05-02T11:59:43.0000000+00:00</time></trkpt><trkpt lat="35.0120686" lon="33.5765459"><ele>157.5</ele><time>2015-05-02T11:59:44.0000000+00:00</time></trkpt><trkpt lat="35.0120365" lon="33.5765026"><ele>157.3</ele><time>2015-05-02T11:59:45.0000000+00:00</time></trkpt><trkpt lat="35.0119928" lon="33.5764497"><ele>156.6</ele><time>2015-05-02T11:59:46.0000000+00:00</time></trkpt><trkpt lat="35.0119651" lon="33.5764047"><ele>155.8</ele><time>2015-05-02T11:59:47.0000000+00:00</time></trkpt><trkpt lat="35.0119242" lon="33.5763408"><ele>155.4</ele><time>2015-05-02T11:59:48.0000000+00:00</time></trkpt><trkpt lat="35.0118798" lon="33.5762812"><ele>155.2</ele><time>2015-05-02T11:59:49.0000000+00:00</time></trkpt><trkpt lat="35.0118342" lon="33.5762272"><ele>155.1</ele><time>2015-05-02T11:59:50.0000000+00:00</time></trkpt><trkpt lat="35.0117898" lon="33.5761721"><ele>155.1</ele><time>2015-05-02T11:59:51.0000000+00:00</time></trkpt><trkpt lat="35.0117415" lon="33.5761166"><ele>154.5</ele><time>2015-05-02T11:59:52.0000000+00:00</time></trkpt><trkpt lat="35.0116932" lon="33.5760566"><ele>154.8</ele><time>2015-05-02T11:59:53.0000000+00:00</time></trkpt><trkpt lat="35.0116431" lon="33.575993"><ele>154.4</ele><time>2015-05-02T11:59:54.0000000+00:00</time></trkpt><trkpt lat="35.0116005" lon="33.5759323"><ele>154.2</ele><time>2015-05-02T11:59:55.0000000+00:00</time></trkpt><trkpt lat="35.0115508" lon="33.5758752"><ele>154.1</ele><time>2015-05-02T11:59:56.0000000+00:00</time></trkpt><trkpt lat="35.0115015" lon="33.5758163"><ele>154.1</ele><time>2015-05-02T11:59:57.0000000+00:00</time></trkpt><trkpt lat="35.0114495" lon="33.5757518"><ele>153.5</ele><time>2015-05-02T11:59:58.0000000+00:00</time></trkpt><trkpt lat="35.0113968" lon="33.575694"><ele>153.8</ele><time>2015-05-02T11:59:59.0000000+00:00</time></trkpt><trkpt lat="35.0113552" lon="33.5756413"><ele>153.4</ele><time>2015-05-02T12:00:00.0000000+00:00</time></trkpt><trkpt lat="35.011303" lon="33.5755781"><ele>153.2</ele><time>2015-05-02T12:00:01.0000000+00:00</time></trkpt><trkpt lat="35.0112545" lon="33.5755116"><ele>152.6</ele><time>2015-05-02T12:00:02.0000000+00:00</time></trkpt><trkpt lat="35.0112018" lon="33.5754577"><ele>152.3</ele><time>2015-05-02T12:00:03.0000000+00:00</time></trkpt><trkpt lat="35.0111578" lon="33.5754006"><ele>152.7</ele><time>2015-05-02T12:00:04.0000000+00:00</time></trkpt><trkpt lat="35.0111104" lon="33.5753405"><ele>152.8</ele><time>2015-05-02T12:00:05.0000000+00:00</time></trkpt><trkpt lat="35.0110602" lon="33.5752851"><ele>152.4</ele><time>2015-05-02T12:00:06.0000000+00:00</time></trkpt><trkpt lat="35.0110256" lon="33.575211"><ele>151.7</ele><time>2015-05-02T12:00:07.0000000+00:00</time></trkpt><trkpt lat="35.0109764" lon="33.5751438"><ele>151.4</ele><time>2015-05-02T12:00:08.0000000+00:00</time></trkpt><trkpt lat="35.0109242" lon="33.5750804"><ele>150.7</ele><time>2015-05-02T12:00:09.0000000+00:00</time></trkpt><trkpt lat="35.0108795" lon="33.5750188"><ele>149.9</ele><time>2015-05-02T12:00:10.0000000+00:00</time></trkpt><trkpt lat="35.0108317" lon="33.5749621"><ele>149.4</ele><time>2015-05-02T12:00:11.0000000+00:00</time></trkpt><trkpt lat="35.0107782" lon="33.5749064"><ele>149.2</ele><time>2015-05-02T12:00:12.0000000+00:00</time></trkpt><trkpt lat="35.0107226" lon="33.574847"><ele>149.1</ele><time>2015-05-02T12:00:13.0000000+00:00</time></trkpt><trkpt lat="35.0106658" lon="33.5747908"><ele>149.1</ele><time>2015-05-02T12:00:14.0000000+00:00</time></trkpt><trkpt lat="35.0106248" lon="33.5747323"><ele>148.5</ele><time>2015-05-02T12:00:15.0000000+00:00</time></trkpt><trkpt lat="35.0105697" lon="33.5746708"><ele>148.3</ele><time>2015-05-02T12:00:16.0000000+00:00</time></trkpt><trkpt lat="35.0105185" lon="33.5746039"><ele>148.2</ele><time>2015-05-02T12:00:17.0000000+00:00</time></trkpt><trkpt lat="35.010467" lon="33.5745447"><ele>148.1</ele><time>2015-05-02T12:00:18.0000000+00:00</time></trkpt><trkpt lat="35.0104168" lon="33.5744829"><ele>147.6</ele><time>2015-05-02T12:00:19.0000000+00:00</time></trkpt><trkpt lat="35.0103648" lon="33.5744268"><ele>147.3</ele><time>2015-05-02T12:00:20.0000000+00:00</time></trkpt><trkpt lat="35.0103218" lon="33.5743802"><ele>146.7</ele><time>2015-05-02T12:00:21.0000000+00:00</time></trkpt><trkpt lat="35.0102864" lon="33.5743264"><ele>146.3</ele><time>2015-05-02T12:00:22.0000000+00:00</time></trkpt><trkpt lat="35.010229" lon="33.5742824"><ele>146.2</ele><time>2015-05-02T12:00:23.0000000+00:00</time></trkpt><trkpt lat="35.0101781" lon="33.5742457"><ele>146.1</ele><time>2015-05-02T12:00:24.0000000+00:00</time></trkpt><trkpt lat="35.0101202" lon="33.5742171"><ele>146.1</ele><time>2015-05-02T12:00:25.0000000+00:00</time></trkpt><trkpt lat="35.0100559" lon="33.5741785"><ele>145.5</ele><time>2015-05-02T12:00:27.0000000+00:00</time></trkpt><trkpt lat="35.0100332" lon="33.5741306"><ele>145.8</ele><time>2015-05-02T12:01:07.0000000+00:00</time></trkpt><trkpt lat="35.010006" lon="33.5740522"><ele>147.6</ele><time>2015-05-02T12:01:10.0000000+00:00</time></trkpt><trkpt lat="35.0100014" lon="33.5739819"><ele>147.4</ele><time>2015-05-02T12:01:12.0000000+00:00</time></trkpt><trkpt lat="35.0100036" lon="33.5738836"><ele>146.6</ele><time>2015-05-02T12:01:14.0000000+00:00</time></trkpt><trkpt lat="35.0100179" lon="33.5737971"><ele>146.3</ele><time>2015-05-02T12:01:15.0000000+00:00</time></trkpt><trkpt lat="35.0100235" lon="33.5737313"><ele>145.7</ele><time>2015-05-02T12:01:16.0000000+00:00</time></trkpt><trkpt lat="35.0100283" lon="33.5736728"><ele>145.3</ele><time>2015-05-02T12:01:17.0000000+00:00</time></trkpt><trkpt lat="35.0100378" lon="33.5736166"><ele>146.2</ele><time>2015-05-02T12:01:18.0000000+00:00</time></trkpt><trkpt lat="35.0100594" lon="33.5735126"><ele>148.1</ele><time>2015-05-02T12:01:20.0000000+00:00</time></trkpt><trkpt lat="35.0100764" lon="33.5734616"><ele>148.5</ele><time>2015-05-02T12:01:21.0000000+00:00</time></trkpt><trkpt lat="35.0100973" lon="33.5733633"><ele>148.4</ele><time>2015-05-02T12:01:23.0000000+00:00</time></trkpt><trkpt lat="35.0101201" lon="33.5732705"><ele>148.1</ele><time>2015-05-02T12:01:25.0000000+00:00</time></trkpt><trkpt lat="35.0101488" lon="33.573175"><ele>148.0</ele><time>2015-05-02T12:01:27.0000000+00:00</time></trkpt><trkpt lat="35.0101494" lon="33.5730853"><ele>148.3</ele><time>2015-05-02T12:01:29.0000000+00:00</time></trkpt><trkpt lat="35.010155" lon="33.5729915"><ele>148.1</ele><time>2015-05-02T12:01:31.0000000+00:00</time></trkpt><trkpt lat="35.0101699" lon="33.5728906"><ele>147.3</ele><time>2015-05-02T12:01:33.0000000+00:00</time></trkpt><trkpt lat="35.0101831" lon="33.5727889"><ele>147.8</ele><time>2015-05-02T12:01:35.0000000+00:00</time></trkpt><trkpt lat="35.0101932" lon="33.5727257"><ele>147.9</ele><time>2015-05-02T12:01:36.0000000+00:00</time></trkpt><trkpt lat="35.0101996" lon="33.5726708"><ele>148.5</ele><time>2015-05-02T12:01:37.0000000+00:00</time></trkpt><trkpt lat="35.0102065" lon="33.5726059"><ele>148.7</ele><time>2015-05-02T12:01:38.0000000+00:00</time></trkpt><trkpt lat="35.0102111" lon="33.5724875"><ele>149.0</ele><time>2015-05-02T12:01:40.0000000+00:00</time></trkpt><trkpt lat="35.010215" lon="33.5724278"><ele>149.0</ele><time>2015-05-02T12:01:41.0000000+00:00</time></trkpt><trkpt lat="35.0102208" lon="33.5723708"><ele>149.0</ele><time>2015-05-02T12:01:42.0000000+00:00</time></trkpt><trkpt lat="35.010237" lon="33.5723097"><ele>149.0</ele><time>2015-05-02T12:01:43.0000000+00:00</time></trkpt><trkpt lat="35.0102438" lon="33.5722545"><ele>149.0</ele><time>2015-05-02T12:01:44.0000000+00:00</time></trkpt><trkpt lat="35.0102628" lon="33.5721534"><ele>149.5</ele><time>2015-05-02T12:01:46.0000000+00:00</time></trkpt><trkpt lat="35.01027" lon="33.5720512"><ele>149.6</ele><time>2015-05-02T12:01:48.0000000+00:00</time></trkpt><trkpt lat="35.0102866" lon="33.5719466"><ele>149.4</ele><time>2015-05-02T12:01:50.0000000+00:00</time></trkpt><trkpt lat="35.0102948" lon="33.5718434"><ele>149.1</ele><time>2015-05-02T12:01:52.0000000+00:00</time></trkpt><trkpt lat="35.0102945" lon="33.5717881"><ele>149.1</ele><time>2015-05-02T12:01:53.0000000+00:00</time></trkpt><trkpt lat="35.0102968" lon="33.5717297"><ele>148.5</ele><time>2015-05-02T12:01:54.0000000+00:00</time></trkpt><trkpt lat="35.0102992" lon="33.5716726"><ele>148.3</ele><time>2015-05-02T12:01:55.0000000+00:00</time></trkpt><trkpt lat="35.0103028" lon="33.5715566"><ele>148.6</ele><time>2015-05-02T12:01:57.0000000+00:00</time></trkpt><trkpt lat="35.0103002" lon="33.5714977"><ele>149.3</ele><time>2015-05-02T12:01:58.0000000+00:00</time></trkpt><trkpt lat="35.0103063" lon="33.5714216"><ele>150.2</ele><time>2015-05-02T12:01:59.0000000+00:00</time></trkpt><trkpt lat="35.0103157" lon="33.5713472"><ele>150.1</ele><time>2015-05-02T12:02:00.0000000+00:00</time></trkpt><trkpt lat="35.0103264" lon="33.57127"><ele>150.1</ele><time>2015-05-02T12:02:01.0000000+00:00</time></trkpt><trkpt lat="35.0103324" lon="33.5711905"><ele>150.5</ele><time>2015-05-02T12:02:02.0000000+00:00</time></trkpt><trkpt lat="35.0103353" lon="33.5711018"><ele>150.8</ele><time>2015-05-02T12:02:03.0000000+00:00</time></trkpt><trkpt lat="35.0103397" lon="33.5710132"><ele>150.4</ele><time>2015-05-02T12:02:04.0000000+00:00</time></trkpt><trkpt lat="35.0103293" lon="33.5709338"><ele>150.2</ele><time>2015-05-02T12:02:05.0000000+00:00</time></trkpt><trkpt lat="35.0103301" lon="33.5708588"><ele>150.1</ele><time>2015-05-02T12:02:06.0000000+00:00</time></trkpt><trkpt lat="35.0103354" lon="33.5707669"><ele>149.6</ele><time>2015-05-02T12:02:07.0000000+00:00</time></trkpt><trkpt lat="35.0103354" lon="33.5706904"><ele>148.8</ele><time>2015-05-02T12:02:08.0000000+00:00</time></trkpt><trkpt lat="35.0103176" lon="33.5706301"><ele>148.9</ele><time>2015-05-02T12:02:09.0000000+00:00</time></trkpt><trkpt lat="35.010288" lon="33.5705802"><ele>149.5</ele><time>2015-05-02T12:02:10.0000000+00:00</time></trkpt><trkpt lat="35.0102186" lon="33.5705187"><ele>149.1</ele><time>2015-05-02T12:02:12.0000000+00:00</time></trkpt><trkpt lat="35.0101929" lon="33.570447"><ele>149.5</ele><time>2015-05-02T12:02:14.0000000+00:00</time></trkpt><trkpt lat="35.0101572" lon="33.5703874"><ele>147.9</ele><time>2015-05-02T12:02:16.0000000+00:00</time></trkpt><trkpt lat="35.0101317" lon="33.5703119"><ele>147.2</ele><time>2015-05-02T12:02:18.0000000+00:00</time></trkpt><trkpt lat="35.0101044" lon="33.5702571"><ele>146.6</ele><time>2015-05-02T12:02:20.0000000+00:00</time></trkpt><trkpt lat="35.0100688" lon="33.5701934"><ele>147.0</ele><time>2015-05-02T12:02:23.0000000+00:00</time></trkpt><trkpt lat="35.0100612" lon="33.570126"><ele>147.0</ele><time>2015-05-02T12:02:26.0000000+00:00</time></trkpt><trkpt lat="35.0100819" lon="33.5700698"><ele>146.3</ele><time>2015-05-02T12:02:28.0000000+00:00</time></trkpt><trkpt lat="35.0101039" lon="33.569995"><ele>145.8</ele><time>2015-05-02T12:02:30.0000000+00:00</time></trkpt><trkpt lat="35.0101142" lon="33.5699055"><ele>146.5</ele><time>2015-05-02T12:02:32.0000000+00:00</time></trkpt><trkpt lat="35.0101215" lon="33.5698109"><ele>146.9</ele><time>2015-05-02T12:02:34.0000000+00:00</time></trkpt><trkpt lat="35.0101375" lon="33.5697147"><ele>146.7</ele><time>2015-05-02T12:02:36.0000000+00:00</time></trkpt><trkpt lat="35.0101507" lon="33.5696255"><ele>146.9</ele><time>2015-05-02T12:02:38.0000000+00:00</time></trkpt><trkpt lat="35.0101619" lon="33.5695302"><ele>147.8</ele><time>2015-05-02T12:02:40.0000000+00:00</time></trkpt><trkpt lat="35.0101612" lon="33.5694386"><ele>148.5</ele><time>2015-05-02T12:02:42.0000000+00:00</time></trkpt><trkpt lat="35.0101408" lon="33.5693604"><ele>149.4</ele><time>2015-05-02T12:02:44.0000000+00:00</time></trkpt><trkpt lat="35.0100662" lon="33.5693761"><ele>147.9</ele><time>2015-05-02T12:02:46.0000000+00:00</time></trkpt><trkpt lat="35.0099978" lon="33.5693833"><ele>146.5</ele><time>2015-05-02T12:02:48.0000000+00:00</time></trkpt><trkpt lat="35.0099305" lon="33.5693884"><ele>147.4</ele><time>2015-05-02T12:02:50.0000000+00:00</time></trkpt><trkpt lat="35.0098618" lon="33.5694084"><ele>148.6</ele><time>2015-05-02T12:02:52.0000000+00:00</time></trkpt><trkpt lat="35.0097914" lon="33.5694474"><ele>149.2</ele><time>2015-05-02T12:02:54.0000000+00:00</time></trkpt><trkpt lat="35.0097351" lon="33.5694915"><ele>149.1</ele><time>2015-05-02T12:02:55.0000000+00:00</time></trkpt><trkpt lat="35.0096534" lon="33.5695503"><ele>149.0</ele><time>2015-05-02T12:02:57.0000000+00:00</time></trkpt><trkpt lat="35.0096188" lon="33.5695861"><ele>149.0</ele><time>2015-05-02T12:02:58.0000000+00:00</time></trkpt><trkpt lat="35.0095759" lon="33.5696264"><ele>149.0</ele><time>2015-05-02T12:02:59.0000000+00:00</time></trkpt><trkpt lat="35.009536" lon="33.5696756"><ele>149.0</ele><time>2015-05-02T12:03:00.0000000+00:00</time></trkpt><trkpt lat="35.0095069" lon="33.5697378"><ele>149.5</ele><time>2015-05-02T12:03:01.0000000+00:00</time></trkpt><trkpt lat="35.0094603" lon="33.5697688"><ele>148.8</ele><time>2015-05-02T12:03:02.0000000+00:00</time></trkpt><trkpt lat="35.0094139" lon="33.5698078"><ele>148.4</ele><time>2015-05-02T12:03:03.0000000+00:00</time></trkpt><trkpt lat="35.009354" lon="33.5698533"><ele>147.2</ele><time>2015-05-02T12:03:04.0000000+00:00</time></trkpt><trkpt lat="35.0092983" lon="33.5698896"><ele>146.6</ele><time>2015-05-02T12:03:05.0000000+00:00</time></trkpt><trkpt lat="35.00924" lon="33.5699335"><ele>146.3</ele><time>2015-05-02T12:03:06.0000000+00:00</time></trkpt><trkpt lat="35.0092028" lon="33.5699779"><ele>145.7</ele><time>2015-05-02T12:03:07.0000000+00:00</time></trkpt><trkpt lat="35.0091538" lon="33.5700227"><ele>144.8</ele><time>2015-05-02T12:03:08.0000000+00:00</time></trkpt><trkpt lat="35.0091138" lon="33.5700655"><ele>143.9</ele><time>2015-05-02T12:03:09.0000000+00:00</time></trkpt><trkpt lat="35.009067" lon="33.5701023"><ele>143.5</ele><time>2015-05-02T12:03:10.0000000+00:00</time></trkpt><trkpt lat="35.0090214" lon="33.5701401"><ele>143.2</ele><time>2015-05-02T12:03:11.0000000+00:00</time></trkpt><trkpt lat="35.0089786" lon="33.5701695"><ele>143.1</ele><time>2015-05-02T12:03:12.0000000+00:00</time></trkpt><trkpt lat="35.0089315" lon="33.570202"><ele>143.1</ele><time>2015-05-02T12:03:13.0000000+00:00</time></trkpt><trkpt lat="35.008878" lon="33.5702397"><ele>143.0</ele><time>2015-05-02T12:03:14.0000000+00:00</time></trkpt><trkpt lat="35.0088227" lon="33.5702837"><ele>143.5</ele><time>2015-05-02T12:03:15.0000000+00:00</time></trkpt><trkpt lat="35.0087786" lon="33.5703128"><ele>143.8</ele><time>2015-05-02T12:03:16.0000000+00:00</time></trkpt><trkpt lat="35.008731" lon="33.5703455"><ele>143.4</ele><time>2015-05-02T12:03:17.0000000+00:00</time></trkpt><trkpt lat="35.0086771" lon="33.5703791"><ele>142.7</ele><time>2015-05-02T12:03:18.0000000+00:00</time></trkpt><trkpt lat="35.0086274" lon="33.5704138"><ele>142.4</ele><time>2015-05-02T12:03:19.0000000+00:00</time></trkpt><trkpt lat="35.0085758" lon="33.5704413"><ele>142.2</ele><time>2015-05-02T12:03:20.0000000+00:00</time></trkpt><trkpt lat="35.0085243" lon="33.5704562"><ele>142.6</ele><time>2015-05-02T12:03:21.0000000+00:00</time></trkpt><trkpt lat="35.0084679" lon="33.5704621"><ele>142.8</ele><time>2015-05-02T12:03:22.0000000+00:00</time></trkpt><trkpt lat="35.0084138" lon="33.5704667"><ele>142.9</ele><time>2015-05-02T12:03:23.0000000+00:00</time></trkpt><trkpt lat="35.0083535" lon="33.5704734"><ele>143.0</ele><time>2015-05-02T12:03:24.0000000+00:00</time></trkpt><trkpt lat="35.0082686" lon="33.570473"><ele>142.3</ele><time>2015-05-02T12:03:26.0000000+00:00</time></trkpt><trkpt lat="35.0082094" lon="33.5704702"><ele>143.1</ele><time>2015-05-02T12:03:27.0000000+00:00</time></trkpt><trkpt lat="35.0081408" lon="33.5704791"><ele>143.6</ele><time>2015-05-02T12:03:28.0000000+00:00</time></trkpt><trkpt lat="35.0080823" lon="33.5704918"><ele>143.8</ele><time>2015-05-02T12:03:29.0000000+00:00</time></trkpt><trkpt lat="35.0080188" lon="33.5705115"><ele>143.4</ele><time>2015-05-02T12:03:30.0000000+00:00</time></trkpt><trkpt lat="35.0079706" lon="33.5705132"><ele>142.7</ele><time>2015-05-02T12:03:31.0000000+00:00</time></trkpt><trkpt lat="35.007904" lon="33.5705199"><ele>141.9</ele><time>2015-05-02T12:03:32.0000000+00:00</time></trkpt><trkpt lat="35.0078455" lon="33.5705269"><ele>141.9</ele><time>2015-05-02T12:03:33.0000000+00:00</time></trkpt><trkpt lat="35.0077898" lon="33.5705341"><ele>141.5</ele><time>2015-05-02T12:03:34.0000000+00:00</time></trkpt><trkpt lat="35.0077393" lon="33.5705382"><ele>141.3</ele><time>2015-05-02T12:03:35.0000000+00:00</time></trkpt><trkpt lat="35.0076806" lon="33.5705495"><ele>140.6</ele><time>2015-05-02T12:03:36.0000000+00:00</time></trkpt><trkpt lat="35.0076259" lon="33.5705609"><ele>139.8</ele><time>2015-05-02T12:03:37.0000000+00:00</time></trkpt><trkpt lat="35.0075717" lon="33.5705726"><ele>140.4</ele><time>2015-05-02T12:03:38.0000000+00:00</time></trkpt><trkpt lat="35.0075193" lon="33.5705907"><ele>140.7</ele><time>2015-05-02T12:03:39.0000000+00:00</time></trkpt><trkpt lat="35.0074702" lon="33.570608"><ele>141.4</ele><time>2015-05-02T12:03:40.0000000+00:00</time></trkpt><trkpt lat="35.0074158" lon="33.5706313"><ele>140.7</ele><time>2015-05-02T12:03:41.0000000+00:00</time></trkpt><trkpt lat="35.0073619" lon="33.5706593"><ele>140.4</ele><time>2015-05-02T12:03:42.0000000+00:00</time></trkpt><trkpt lat="35.0073105" lon="33.5706802"><ele>140.2</ele><time>2015-05-02T12:03:43.0000000+00:00</time></trkpt><trkpt lat="35.0072411" lon="33.5707139"><ele>140.1</ele><time>2015-05-02T12:03:44.0000000+00:00</time></trkpt><trkpt lat="35.0071831" lon="33.5707427"><ele>139.6</ele><time>2015-05-02T12:03:45.0000000+00:00</time></trkpt><trkpt lat="35.0071275" lon="33.5707656"><ele>138.8</ele><time>2015-05-02T12:03:46.0000000+00:00</time></trkpt><trkpt lat="35.0070722" lon="33.5707904"><ele>138.4</ele><time>2015-05-02T12:03:47.0000000+00:00</time></trkpt><trkpt lat="35.0070085" lon="33.5708194"><ele>138.2</ele><time>2015-05-02T12:03:48.0000000+00:00</time></trkpt><trkpt lat="35.0069553" lon="33.5708409"><ele>137.6</ele><time>2015-05-02T12:03:49.0000000+00:00</time></trkpt><trkpt lat="35.0068969" lon="33.5708689"><ele>137.3</ele><time>2015-05-02T12:03:50.0000000+00:00</time></trkpt><trkpt lat="35.0068459" lon="33.5708942"><ele>137.2</ele><time>2015-05-02T12:03:51.0000000+00:00</time></trkpt><trkpt lat="35.0067935" lon="33.5709211"><ele>137.1</ele><time>2015-05-02T12:03:52.0000000+00:00</time></trkpt><trkpt lat="35.0067538" lon="33.5709521"><ele>137.1</ele><time>2015-05-02T12:03:53.0000000+00:00</time></trkpt><trkpt lat="35.0067077" lon="33.5709913"><ele>137.0</ele><time>2015-05-02T12:03:54.0000000+00:00</time></trkpt><trkpt lat="35.0066682" lon="33.5710234"><ele>137.5</ele><time>2015-05-02T12:03:55.0000000+00:00</time></trkpt><trkpt lat="35.0066131" lon="33.5710666"><ele>137.8</ele><time>2015-05-02T12:03:56.0000000+00:00</time></trkpt><trkpt lat="35.0065689" lon="33.571103"><ele>138.4</ele><time>2015-05-02T12:03:57.0000000+00:00</time></trkpt><trkpt lat="35.0065143" lon="33.5711407"><ele>138.7</ele><time>2015-05-02T12:03:58.0000000+00:00</time></trkpt><trkpt lat="35.006466" lon="33.5711752"><ele>138.9</ele><time>2015-05-02T12:03:59.0000000+00:00</time></trkpt><trkpt lat="35.0064151" lon="33.5712146"><ele>138.9</ele><time>2015-05-02T12:04:00.0000000+00:00</time></trkpt><trkpt lat="35.0063692" lon="33.5712557"><ele>138.5</ele><time>2015-05-02T12:04:01.0000000+00:00</time></trkpt><trkpt lat="35.0063313" lon="33.5712906"><ele>138.8</ele><time>2015-05-02T12:04:02.0000000+00:00</time></trkpt><trkpt lat="35.0062876" lon="33.5713363"><ele>138.4</ele><time>2015-05-02T12:04:03.0000000+00:00</time></trkpt><trkpt lat="35.0062343" lon="33.5713775"><ele>138.2</ele><time>2015-05-02T12:04:04.0000000+00:00</time></trkpt><trkpt lat="35.0061897" lon="33.5714269"><ele>137.1</ele><time>2015-05-02T12:04:05.0000000+00:00</time></trkpt><trkpt lat="35.0061352" lon="33.5714705"><ele>137.1</ele><time>2015-05-02T12:04:06.0000000+00:00</time></trkpt><trkpt lat="35.0060777" lon="33.5715101"><ele>137.0</ele><time>2015-05-02T12:04:07.0000000+00:00</time></trkpt><trkpt lat="35.0060274" lon="33.571552"><ele>136.5</ele><time>2015-05-02T12:04:08.0000000+00:00</time></trkpt><trkpt lat="35.005976" lon="33.5715921"><ele>136.3</ele><time>2015-05-02T12:04:09.0000000+00:00</time></trkpt><trkpt lat="35.0059197" lon="33.5716312"><ele>136.6</ele><time>2015-05-02T12:04:10.0000000+00:00</time></trkpt><trkpt lat="35.0058619" lon="33.5716703"><ele>136.8</ele><time>2015-05-02T12:04:11.0000000+00:00</time></trkpt><trkpt lat="35.0058064" lon="33.5717039"><ele>136.4</ele><time>2015-05-02T12:04:12.0000000+00:00</time></trkpt><trkpt lat="35.0057475" lon="33.571739"><ele>136.2</ele><time>2015-05-02T12:04:13.0000000+00:00</time></trkpt><trkpt lat="35.0056871" lon="33.5717722"><ele>136.1</ele><time>2015-05-02T12:04:14.0000000+00:00</time></trkpt><trkpt lat="35.0056305" lon="33.5717963"><ele>135.6</ele><time>2015-05-02T12:04:15.0000000+00:00</time></trkpt><trkpt lat="35.0055743" lon="33.5718253"><ele>135.8</ele><time>2015-05-02T12:04:16.0000000+00:00</time></trkpt><trkpt lat="35.00552" lon="33.5718563"><ele>135.9</ele><time>2015-05-02T12:04:17.0000000+00:00</time></trkpt><trkpt lat="35.0054626" lon="33.5718874"><ele>136.0</ele><time>2015-05-02T12:04:18.0000000+00:00</time></trkpt><trkpt lat="35.005407" lon="33.5718792"><ele>135.0</ele><time>2015-05-02T12:04:19.0000000+00:00</time></trkpt><trkpt lat="35.0053466" lon="33.5719164"><ele>133.5</ele><time>2015-05-02T12:04:20.0000000+00:00</time></trkpt><trkpt lat="35.0052942" lon="33.5719481"><ele>132.8</ele><time>2015-05-02T12:04:21.0000000+00:00</time></trkpt><trkpt lat="35.005238" lon="33.5719781"><ele>131.9</ele><time>2015-05-02T12:04:22.0000000+00:00</time></trkpt><trkpt lat="35.0051861" lon="33.5720075"><ele>132.0</ele><time>2015-05-02T12:04:23.0000000+00:00</time></trkpt><trkpt lat="35.0051328" lon="33.5720478"><ele>131.5</ele><time>2015-05-02T12:04:24.0000000+00:00</time></trkpt><trkpt lat="35.0050765" lon="33.5720822"><ele>131.8</ele><time>2015-05-02T12:04:25.0000000+00:00</time></trkpt><trkpt lat="35.0050218" lon="33.5721238"><ele>132.9</ele><time>2015-05-02T12:04:26.0000000+00:00</time></trkpt><trkpt lat="35.0049656" lon="33.5721627"><ele>134.0</ele><time>2015-05-02T12:04:27.0000000+00:00</time></trkpt><trkpt lat="35.0049034" lon="33.5722016"><ele>134.5</ele><time>2015-05-02T12:04:28.0000000+00:00</time></trkpt><trkpt lat="35.0048425" lon="33.5722236"><ele>134.8</ele><time>2015-05-02T12:04:29.0000000+00:00</time></trkpt><trkpt lat="35.0047822" lon="33.5722618"><ele>134.9</ele><time>2015-05-02T12:04:30.0000000+00:00</time></trkpt><trkpt lat="35.0047323" lon="33.5723048"><ele>135.0</ele><time>2015-05-02T12:04:31.0000000+00:00</time></trkpt><trkpt lat="35.0046863" lon="33.5723494"><ele>135.0</ele><time>2015-05-02T12:04:32.0000000+00:00</time></trkpt><trkpt lat="35.0046405" lon="33.5723934"><ele>135.0</ele><time>2015-05-02T12:04:33.0000000+00:00</time></trkpt><trkpt lat="35.0045869" lon="33.5724316"><ele>135.0</ele><time>2015-05-02T12:04:34.0000000+00:00</time></trkpt><trkpt lat="35.0045368" lon="33.5724716"><ele>135.0</ele><time>2015-05-02T12:04:35.0000000+00:00</time></trkpt><trkpt lat="35.0044834" lon="33.5725108"><ele>135.0</ele><time>2015-05-02T12:04:36.0000000+00:00</time></trkpt><trkpt lat="35.00443" lon="33.5725448"><ele>134.5</ele><time>2015-05-02T12:04:37.0000000+00:00</time></trkpt><trkpt lat="35.0043827" lon="33.5725738"><ele>133.8</ele><time>2015-05-02T12:04:38.0000000+00:00</time></trkpt><trkpt lat="35.0043292" lon="33.5726264"><ele>134.4</ele><time>2015-05-02T12:04:39.0000000+00:00</time></trkpt><trkpt lat="35.0042872" lon="33.5726527"><ele>134.7</ele><time>2015-05-02T12:04:40.0000000+00:00</time></trkpt><trkpt lat="35.0042234" lon="33.5726866"><ele>134.9</ele><time>2015-05-02T12:04:41.0000000+00:00</time></trkpt><trkpt lat="35.0041644" lon="33.5727089"><ele>135.4</ele><time>2015-05-02T12:04:42.0000000+00:00</time></trkpt><trkpt lat="35.0041079" lon="33.5727235"><ele>135.7</ele><time>2015-05-02T12:04:43.0000000+00:00</time></trkpt><trkpt lat="35.0040436" lon="33.5727328"><ele>135.9</ele><time>2015-05-02T12:04:44.0000000+00:00</time></trkpt><trkpt lat="35.0039807" lon="33.5727364"><ele>135.9</ele><time>2015-05-02T12:04:45.0000000+00:00</time></trkpt><trkpt lat="35.0039063" lon="33.5727411"><ele>135.5</ele><time>2015-05-02T12:04:46.0000000+00:00</time></trkpt><trkpt lat="35.0038312" lon="33.5727442"><ele>134.8</ele><time>2015-05-02T12:04:47.0000000+00:00</time></trkpt><trkpt lat="35.0037642" lon="33.5727575"><ele>134.4</ele><time>2015-05-02T12:04:48.0000000+00:00</time></trkpt><trkpt lat="35.0036937" lon="33.5727701"><ele>133.7</ele><time>2015-05-02T12:04:49.0000000+00:00</time></trkpt><trkpt lat="35.0036248" lon="33.5727763"><ele>132.9</ele><time>2015-05-02T12:04:50.0000000+00:00</time></trkpt><trkpt lat="35.0035634" lon="33.572796"><ele>132.9</ele><time>2015-05-02T12:04:51.0000000+00:00</time></trkpt><trkpt lat="35.0035038" lon="33.5728108"><ele>133.0</ele><time>2015-05-02T12:04:52.0000000+00:00</time></trkpt><trkpt lat="35.0034426" lon="33.5728542"><ele>132.0</ele><time>2015-05-02T12:04:53.0000000+00:00</time></trkpt><trkpt lat="35.0033914" lon="33.5728955"><ele>131.5</ele><time>2015-05-02T12:04:54.0000000+00:00</time></trkpt><trkpt lat="35.0033474" lon="33.5729392"><ele>131.3</ele><time>2015-05-02T12:04:55.0000000+00:00</time></trkpt><trkpt lat="35.0032997" lon="33.572994"><ele>130.6</ele><time>2015-05-02T12:04:56.0000000+00:00</time></trkpt><trkpt lat="35.0032609" lon="33.5730444"><ele>130.3</ele><time>2015-05-02T12:04:57.0000000+00:00</time></trkpt><trkpt lat="35.0032108" lon="33.5731026"><ele>129.7</ele><time>2015-05-02T12:04:58.0000000+00:00</time></trkpt><trkpt lat="35.0031616" lon="33.5731695"><ele>128.8</ele><time>2015-05-02T12:04:59.0000000+00:00</time></trkpt><trkpt lat="35.003117" lon="33.5732342"><ele>128.9</ele><time>2015-05-02T12:05:00.0000000+00:00</time></trkpt><trkpt lat="35.0030801" lon="33.5732988"><ele>128.5</ele><time>2015-05-02T12:05:01.0000000+00:00</time></trkpt><trkpt lat="35.0030309" lon="33.5733546"><ele>128.7</ele><time>2015-05-02T12:05:02.0000000+00:00</time></trkpt><trkpt lat="35.0029804" lon="33.5734074"><ele>129.4</ele><time>2015-05-02T12:05:03.0000000+00:00</time></trkpt><trkpt lat="35.0029292" lon="33.5734766"><ele>129.7</ele><time>2015-05-02T12:05:04.0000000+00:00</time></trkpt><trkpt lat="35.0028952" lon="33.5735152"><ele>129.9</ele><time>2015-05-02T12:05:05.0000000+00:00</time></trkpt><trkpt lat="35.0028451" lon="33.5735631"><ele>130.4</ele><time>2015-05-02T12:05:06.0000000+00:00</time></trkpt><trkpt lat="35.0028022" lon="33.5736106"><ele>130.7</ele><time>2015-05-02T12:05:07.0000000+00:00</time></trkpt><trkpt lat="35.0027562" lon="33.573649"><ele>130.9</ele><time>2015-05-02T12:05:08.0000000+00:00</time></trkpt><trkpt lat="35.0026993" lon="33.5736864"><ele>130.4</ele><time>2015-05-02T12:05:09.0000000+00:00</time></trkpt><trkpt lat="35.0026483" lon="33.5737198"><ele>130.2</ele><time>2015-05-02T12:05:10.0000000+00:00</time></trkpt><trkpt lat="35.0026021" lon="33.5737733"><ele>130.1</ele><time>2015-05-02T12:05:11.0000000+00:00</time></trkpt><trkpt lat="35.0025508" lon="33.5738028"><ele>130.1</ele><time>2015-05-02T12:05:12.0000000+00:00</time></trkpt><trkpt lat="35.002503" lon="33.5738305"><ele>129.5</ele><time>2015-05-02T12:05:13.0000000+00:00</time></trkpt><trkpt lat="35.0024536" lon="33.5738652"><ele>130.3</ele><time>2015-05-02T12:05:14.0000000+00:00</time></trkpt><trkpt lat="35.0023844" lon="33.5739133"><ele>129.8</ele><time>2015-05-02T12:05:16.0000000+00:00</time></trkpt><trkpt lat="35.0023418" lon="33.5739381"><ele>129.4</ele><time>2015-05-02T12:05:17.0000000+00:00</time></trkpt><trkpt lat="35.0022931" lon="33.5739603"><ele>129.2</ele><time>2015-05-02T12:05:18.0000000+00:00</time></trkpt><trkpt lat="35.0022502" lon="33.5739798"><ele>129.6</ele><time>2015-05-02T12:05:19.0000000+00:00</time></trkpt><trkpt lat="35.0021731" lon="33.5740181"><ele>129.9</ele><time>2015-05-02T12:05:21.0000000+00:00</time></trkpt><trkpt lat="35.0021124" lon="33.5740346"><ele>130.0</ele><time>2015-05-02T12:05:23.0000000+00:00</time></trkpt><trkpt lat="35.0020399" lon="33.5740728"><ele>130.8</ele><time>2015-05-02T12:05:25.0000000+00:00</time></trkpt><trkpt lat="35.0019544" lon="33.5741164"><ele>130.5</ele><time>2015-05-02T12:05:27.0000000+00:00</time></trkpt><trkpt lat="35.0018809" lon="33.5741405"><ele>129.6</ele><time>2015-05-02T12:05:29.0000000+00:00</time></trkpt><trkpt lat="35.0018187" lon="33.5741774"><ele>129.7</ele><time>2015-05-02T12:05:31.0000000+00:00</time></trkpt><trkpt lat="35.0017418" lon="33.5742225"><ele>129.4</ele><time>2015-05-02T12:05:33.0000000+00:00</time></trkpt><trkpt lat="35.0016684" lon="33.5742705"><ele>129.1</ele><time>2015-05-02T12:05:35.0000000+00:00</time></trkpt><trkpt lat="35.0016258" lon="33.5742972"><ele>129.6</ele><time>2015-05-02T12:05:36.0000000+00:00</time></trkpt><trkpt lat="35.0015494" lon="33.5743524"><ele>129.9</ele><time>2015-05-02T12:05:38.0000000+00:00</time></trkpt><trkpt lat="35.0015103" lon="33.5743863"><ele>130.0</ele><time>2015-05-02T12:05:39.0000000+00:00</time></trkpt><trkpt lat="35.0014668" lon="33.5744086"><ele>130.0</ele><time>2015-05-02T12:05:40.0000000+00:00</time></trkpt><trkpt lat="35.0013972" lon="33.5744618"><ele>129.3</ele><time>2015-05-02T12:05:42.0000000+00:00</time></trkpt><trkpt lat="35.0013304" lon="33.5745086"><ele>127.6</ele><time>2015-05-02T12:05:44.0000000+00:00</time></trkpt><trkpt lat="35.0012646" lon="33.5745544"><ele>126.7</ele><time>2015-05-02T12:05:46.0000000+00:00</time></trkpt><trkpt lat="35.0011908" lon="33.5745934"><ele>126.2</ele><time>2015-05-02T12:05:48.0000000+00:00</time></trkpt><trkpt lat="35.0011416" lon="33.5746209"><ele>126.1</ele><time>2015-05-02T12:05:49.0000000+00:00</time></trkpt><trkpt lat="35.0010949" lon="33.5746365"><ele>126.1</ele><time>2015-05-02T12:05:50.0000000+00:00</time></trkpt><trkpt lat="35.0010399" lon="33.5746594"><ele>126.5</ele><time>2015-05-02T12:05:51.0000000+00:00</time></trkpt><trkpt lat="35.0009947" lon="33.5746786"><ele>125.8</ele><time>2015-05-02T12:05:52.0000000+00:00</time></trkpt><trkpt lat="35.0009458" lon="33.5746877"><ele>125.9</ele><time>2015-05-02T12:05:53.0000000+00:00</time></trkpt><trkpt lat="35.0009012" lon="33.5747124"><ele>125.5</ele><time>2015-05-02T12:05:54.0000000+00:00</time></trkpt><trkpt lat="35.0008216" lon="33.5747196"><ele>125.9</ele><time>2015-05-02T12:05:56.0000000+00:00</time></trkpt><trkpt lat="35.0007446" lon="33.57473"><ele>126.0</ele><time>2015-05-02T12:05:58.0000000+00:00</time></trkpt><trkpt lat="35.0006611" lon="33.574732"><ele>125.3</ele><time>2015-05-02T12:06:00.0000000+00:00</time></trkpt><trkpt lat="35.0005687" lon="33.574723"><ele>124.8</ele><time>2015-05-02T12:06:02.0000000+00:00</time></trkpt><trkpt lat="35.0005219" lon="33.5747103"><ele>124.9</ele><time>2015-05-02T12:06:03.0000000+00:00</time></trkpt><trkpt lat="35.0004741" lon="33.5747006"><ele>125.0</ele><time>2015-05-02T12:06:04.0000000+00:00</time></trkpt><trkpt lat="35.0004277" lon="33.5746904"><ele>125.0</ele><time>2015-05-02T12:06:05.0000000+00:00</time></trkpt><trkpt lat="35.0003809" lon="33.5746813"><ele>125.0</ele><time>2015-05-02T12:06:06.0000000+00:00</time></trkpt><trkpt lat="35.0003264" lon="33.5746814"><ele>124.5</ele><time>2015-05-02T12:06:07.0000000+00:00</time></trkpt><trkpt lat="35.0002485" lon="33.5746538"><ele>124.1</ele><time>2015-05-02T12:06:09.0000000+00:00</time></trkpt><trkpt lat="35.0001975" lon="33.5746411"><ele>124.1</ele><time>2015-05-02T12:06:10.0000000+00:00</time></trkpt><trkpt lat="35.0001495" lon="33.5746221"><ele>123.6</ele><time>2015-05-02T12:06:11.0000000+00:00</time></trkpt><trkpt lat="35.0001044" lon="33.5746145"><ele>123.8</ele><time>2015-05-02T12:06:12.0000000+00:00</time></trkpt><trkpt lat="35.0000519" lon="33.5746009"><ele>123.9</ele><time>2015-05-02T12:06:13.0000000+00:00</time></trkpt><trkpt lat="34.9999989" lon="33.5745884"><ele>124.0</ele><time>2015-05-02T12:06:14.0000000+00:00</time></trkpt><trkpt lat="34.999954" lon="33.5745676"><ele>124.0</ele><time>2015-05-02T12:06:15.0000000+00:00</time></trkpt><trkpt lat="34.9998708" lon="33.574536"><ele>123.3</ele><time>2015-05-02T12:06:17.0000000+00:00</time></trkpt><trkpt lat="34.9998257" lon="33.574523"><ele>122.6</ele><time>2015-05-02T12:06:18.0000000+00:00</time></trkpt><trkpt lat="34.9997777" lon="33.5745088"><ele>122.3</ele><time>2015-05-02T12:06:19.0000000+00:00</time></trkpt><trkpt lat="34.9997308" lon="33.5745003"><ele>122.7</ele><time>2015-05-02T12:06:20.0000000+00:00</time></trkpt><trkpt lat="34.999687" lon="33.5744836"><ele>122.8</ele><time>2015-05-02T12:06:21.0000000+00:00</time></trkpt><trkpt lat="34.999642" lon="33.5744662"><ele>122.9</ele><time>2015-05-02T12:06:22.0000000+00:00</time></trkpt><trkpt lat="34.9995575" lon="33.5744375"><ele>123.0</ele><time>2015-05-02T12:06:24.0000000+00:00</time></trkpt><trkpt lat="34.9995088" lon="33.5744322"><ele>122.5</ele><time>2015-05-02T12:06:25.0000000+00:00</time></trkpt><trkpt lat="34.9994602" lon="33.5744211"><ele>122.3</ele><time>2015-05-02T12:06:26.0000000+00:00</time></trkpt><trkpt lat="34.9994113" lon="33.5744064"><ele>122.1</ele><time>2015-05-02T12:06:27.0000000+00:00</time></trkpt><trkpt lat="34.9993312" lon="33.5743912"><ele>122.8</ele><time>2015-05-02T12:06:29.0000000+00:00</time></trkpt><trkpt lat="34.9992861" lon="33.5743791"><ele>122.9</ele><time>2015-05-02T12:06:30.0000000+00:00</time></trkpt><trkpt lat="34.9992325" lon="33.5743614"><ele>123.0</ele><time>2015-05-02T12:06:31.0000000+00:00</time></trkpt><trkpt lat="34.9991822" lon="33.5743452"><ele>123.5</ele><time>2015-05-02T12:06:32.0000000+00:00</time></trkpt><trkpt lat="34.9991383" lon="33.5743261"><ele>123.3</ele><time>2015-05-02T12:06:33.0000000+00:00</time></trkpt><trkpt lat="34.9990913" lon="33.574306"><ele>123.1</ele><time>2015-05-02T12:06:34.0000000+00:00</time></trkpt><trkpt lat="34.999021" lon="33.5742662"><ele>123.8</ele><time>2015-05-02T12:06:36.0000000+00:00</time></trkpt><trkpt lat="34.9989765" lon="33.5742555"><ele>123.9</ele><time>2015-05-02T12:06:37.0000000+00:00</time></trkpt><trkpt lat="34.9989314" lon="33.5742373"><ele>124.5</ele><time>2015-05-02T12:06:38.0000000+00:00</time></trkpt><trkpt lat="34.9988816" lon="33.5742196"><ele>124.7</ele><time>2015-05-02T12:06:39.0000000+00:00</time></trkpt><trkpt lat="34.9988346" lon="33.5741864"><ele>124.4</ele><time>2015-05-02T12:06:40.0000000+00:00</time></trkpt><trkpt lat="34.9987505" lon="33.5741354"><ele>124.1</ele><time>2015-05-02T12:06:42.0000000+00:00</time></trkpt><trkpt lat="34.9987089" lon="33.5741052"><ele>124.6</ele><time>2015-05-02T12:06:43.0000000+00:00</time></trkpt><trkpt lat="34.9986316" lon="33.5740504"><ele>124.9</ele><time>2015-05-02T12:06:45.0000000+00:00</time></trkpt><trkpt lat="34.9985926" lon="33.5740219"><ele>125.0</ele><time>2015-05-02T12:06:46.0000000+00:00</time></trkpt><trkpt lat="34.9985351" lon="33.5739463"><ele>125.0</ele><time>2015-05-02T12:06:48.0000000+00:00</time></trkpt><trkpt lat="34.9985083" lon="33.5739021"><ele>124.5</ele><time>2015-05-02T12:06:49.0000000+00:00</time></trkpt><trkpt lat="34.9984707" lon="33.5738309"><ele>124.1</ele><time>2015-05-02T12:06:51.0000000+00:00</time></trkpt><trkpt lat="34.9984285" lon="33.5737398"><ele>124.1</ele><time>2015-05-02T12:06:53.0000000+00:00</time></trkpt><trkpt lat="34.998388" lon="33.5736479"><ele>124.0</ele><time>2015-05-02T12:06:55.0000000+00:00</time></trkpt><trkpt lat="34.9983643" lon="33.5736012"><ele>124.0</ele><time>2015-05-02T12:06:56.0000000+00:00</time></trkpt><trkpt lat="34.9983356" lon="33.5735077"><ele>124.0</ele><time>2015-05-02T12:06:58.0000000+00:00</time></trkpt><trkpt lat="34.9983138" lon="33.5734188"><ele>125.0</ele><time>2015-05-02T12:07:00.0000000+00:00</time></trkpt><trkpt lat="34.9983011" lon="33.5733396"><ele>125.0</ele><time>2015-05-02T12:07:02.0000000+00:00</time></trkpt><trkpt lat="34.9982785" lon="33.5732806"><ele>124.8</ele><time>2015-05-02T12:07:04.0000000+00:00</time></trkpt><trkpt lat="34.9982168" lon="33.5732702"><ele>124.5</ele><time>2015-05-02T12:07:07.0000000+00:00</time></trkpt><trkpt lat="34.998157" lon="33.5732987"><ele>125.5</ele><time>2015-05-02T12:07:10.0000000+00:00</time></trkpt><trkpt lat="34.9980995" lon="33.5733345"><ele>126.0</ele><time>2015-05-02T12:07:13.0000000+00:00</time></trkpt><trkpt lat="34.9980479" lon="33.5733694"><ele>126.0</ele><time>2015-05-02T12:07:16.0000000+00:00</time></trkpt><trkpt lat="34.9980005" lon="33.5733986"><ele>126.8</ele><time>2015-05-02T12:07:19.0000000+00:00</time></trkpt><trkpt lat="34.9979349" lon="33.5734171"><ele>125.0</ele><time>2015-05-02T12:08:03.0000000+00:00</time></trkpt><trkpt lat="34.9978757" lon="33.5734414"><ele>125.8</ele><time>2015-05-02T12:08:05.0000000+00:00</time></trkpt><trkpt lat="34.9978102" lon="33.5734705"><ele>126.7</ele><time>2015-05-02T12:08:07.0000000+00:00</time></trkpt><trkpt lat="34.9977411" lon="33.5734997"><ele>126.9</ele><time>2015-05-02T12:08:09.0000000+00:00</time></trkpt><trkpt lat="34.9976721" lon="33.5735273"><ele>127.5</ele><time>2015-05-02T12:08:11.0000000+00:00</time></trkpt><trkpt lat="34.9975955" lon="33.5735597"><ele>127.9</ele><time>2015-05-02T12:08:13.0000000+00:00</time></trkpt><trkpt lat="34.9975243" lon="33.5735876"><ele>128.0</ele><time>2015-05-02T12:08:15.0000000+00:00</time></trkpt><trkpt lat="34.9974574" lon="33.5736161"><ele>128.8</ele><time>2015-05-02T12:08:17.0000000+00:00</time></trkpt><trkpt lat="34.9973978" lon="33.5736479"><ele>129.7</ele><time>2015-05-02T12:08:19.0000000+00:00</time></trkpt><trkpt lat="34.9973411" lon="33.5736769"><ele>130.7</ele><time>2015-05-02T12:08:21.0000000+00:00</time></trkpt><trkpt lat="34.9972891" lon="33.573699"><ele>130.9</ele><time>2015-05-02T12:08:23.0000000+00:00</time></trkpt><trkpt lat="34.9972391" lon="33.573722"><ele>130.3</ele><time>2015-05-02T12:08:25.0000000+00:00</time></trkpt><trkpt lat="34.9971953" lon="33.5737496"><ele>130.1</ele><time>2015-05-02T12:08:27.0000000+00:00</time></trkpt><trkpt lat="34.9971444" lon="33.5737762"><ele>130.8</ele><time>2015-05-02T12:08:29.0000000+00:00</time></trkpt><trkpt lat="34.9970937" lon="33.5737961"><ele>130.2</ele><time>2015-05-02T12:08:31.0000000+00:00</time></trkpt><trkpt lat="34.9970431" lon="33.5738174"><ele>130.6</ele><time>2015-05-02T12:08:33.0000000+00:00</time></trkpt><trkpt lat="34.9969792" lon="33.5738494"><ele>129.6</ele><time>2015-05-02T12:08:36.0000000+00:00</time></trkpt><trkpt lat="34.9969329" lon="33.5738716"><ele>129.2</ele><time>2015-05-02T12:08:38.0000000+00:00</time></trkpt><trkpt lat="34.9968815" lon="33.5738961"><ele>129.1</ele><time>2015-05-02T12:08:40.0000000+00:00</time></trkpt><trkpt lat="34.9968294" lon="33.5739168"><ele>129.8</ele><time>2015-05-02T12:08:42.0000000+00:00</time></trkpt><trkpt lat="34.9967719" lon="33.573934"><ele>130.0</ele><time>2015-05-02T12:08:44.0000000+00:00</time></trkpt><trkpt lat="34.996712" lon="33.5739578"><ele>130.5</ele><time>2015-05-02T12:08:46.0000000+00:00</time></trkpt><trkpt lat="34.996653" lon="33.5739904"><ele>131.4</ele><time>2015-05-02T12:08:48.0000000+00:00</time></trkpt><trkpt lat="34.9965907" lon="33.5740251"><ele>131.1</ele><time>2015-05-02T12:08:50.0000000+00:00</time></trkpt><trkpt lat="34.9965262" lon="33.5740569"><ele>131.5</ele><time>2015-05-02T12:08:52.0000000+00:00</time></trkpt><trkpt lat="34.9964633" lon="33.5740868"><ele>131.9</ele><time>2015-05-02T12:08:54.0000000+00:00</time></trkpt><trkpt lat="34.9964061" lon="33.5741217"><ele>132.0</ele><time>2015-05-02T12:08:56.0000000+00:00</time></trkpt><trkpt lat="34.9963543" lon="33.5741505"><ele>132.3</ele><time>2015-05-02T12:08:58.0000000+00:00</time></trkpt><trkpt lat="34.9963012" lon="33.5741783"><ele>132.1</ele><time>2015-05-02T12:09:00.0000000+00:00</time></trkpt><trkpt lat="34.9962458" lon="33.5742047"><ele>132.0</ele><time>2015-05-02T12:09:02.0000000+00:00</time></trkpt><trkpt lat="34.9961906" lon="33.574229"><ele>132.0</ele><time>2015-05-02T12:09:04.0000000+00:00</time></trkpt><trkpt lat="34.9961366" lon="33.5742588"><ele>132.0</ele><time>2015-05-02T12:09:06.0000000+00:00</time></trkpt><trkpt lat="34.9960846" lon="33.5742889"><ele>132.3</ele><time>2015-05-02T12:09:08.0000000+00:00</time></trkpt><trkpt lat="34.996033" lon="33.5743179"><ele>132.6</ele><time>2015-05-02T12:09:10.0000000+00:00</time></trkpt><trkpt lat="34.995978" lon="33.5743459"><ele>132.9</ele><time>2015-05-02T12:09:12.0000000+00:00</time></trkpt><trkpt lat="34.9959244" lon="33.574377"><ele>133.2</ele><time>2015-05-02T12:09:14.0000000+00:00</time></trkpt><trkpt lat="34.9958731" lon="33.5744052"><ele>132.3</ele><time>2015-05-02T12:09:16.0000000+00:00</time></trkpt><trkpt lat="34.9958173" lon="33.5744295"><ele>132.8</ele><time>2015-05-02T12:09:18.0000000+00:00</time></trkpt><trkpt lat="34.9957627" lon="33.5744579"><ele>133.0</ele><time>2015-05-02T12:09:20.0000000+00:00</time></trkpt><trkpt lat="34.9957078" lon="33.574481"><ele>133.3</ele><time>2015-05-02T12:09:22.0000000+00:00</time></trkpt><trkpt lat="34.9956523" lon="33.5745026"><ele>133.8</ele><time>2015-05-02T12:09:24.0000000+00:00</time></trkpt><trkpt lat="34.9955967" lon="33.5745278"><ele>133.7</ele><time>2015-05-02T12:09:26.0000000+00:00</time></trkpt><trkpt lat="34.995538" lon="33.5745558"><ele>133.9</ele><time>2015-05-02T12:09:28.0000000+00:00</time></trkpt><trkpt lat="34.9954742" lon="33.5745833"><ele>134.5</ele><time>2015-05-02T12:09:30.0000000+00:00</time></trkpt><trkpt lat="34.9954105" lon="33.5746105"><ele>135.6</ele><time>2015-05-02T12:09:32.0000000+00:00</time></trkpt><trkpt lat="34.9953509" lon="33.5746357"><ele>135.4</ele><time>2015-05-02T12:09:34.0000000+00:00</time></trkpt><trkpt lat="34.995292" lon="33.5746599"><ele>135.6</ele><time>2015-05-02T12:09:36.0000000+00:00</time></trkpt><trkpt lat="34.9952334" lon="33.5746865"><ele>135.7</ele><time>2015-05-02T12:09:38.0000000+00:00</time></trkpt><trkpt lat="34.9951726" lon="33.5747198"><ele>135.9</ele><time>2015-05-02T12:09:40.0000000+00:00</time></trkpt><trkpt lat="34.9951062" lon="33.5747512"><ele>136.0</ele><time>2015-05-02T12:09:42.0000000+00:00</time></trkpt><trkpt lat="34.9950365" lon="33.5747828"><ele>136.0</ele><time>2015-05-02T12:09:44.0000000+00:00</time></trkpt><trkpt lat="34.9949722" lon="33.5748196"><ele>136.8</ele><time>2015-05-02T12:09:46.0000000+00:00</time></trkpt><trkpt lat="34.9949061" lon="33.5748566"><ele>137.0</ele><time>2015-05-02T12:09:48.0000000+00:00</time></trkpt><trkpt lat="34.9948369" lon="33.5748962"><ele>137.0</ele><time>2015-05-02T12:09:50.0000000+00:00</time></trkpt><trkpt lat="34.9947676" lon="33.5749354"><ele>137.0</ele><time>2015-05-02T12:09:52.0000000+00:00</time></trkpt><trkpt lat="34.9947016" lon="33.5749705"><ele>136.3</ele><time>2015-05-02T12:09:54.0000000+00:00</time></trkpt><trkpt lat="34.9946406" lon="33.5750053"><ele>135.8</ele><time>2015-05-02T12:09:56.0000000+00:00</time></trkpt><trkpt lat="34.9945816" lon="33.5750372"><ele>135.2</ele><time>2015-05-02T12:09:58.0000000+00:00</time></trkpt><trkpt lat="34.9945154" lon="33.575066"><ele>135.1</ele><time>2015-05-02T12:10:00.0000000+00:00</time></trkpt><trkpt lat="34.9944493" lon="33.5750974"><ele>135.8</ele><time>2015-05-02T12:10:02.0000000+00:00</time></trkpt><trkpt lat="34.9943842" lon="33.5751264"><ele>135.2</ele><time>2015-05-02T12:10:04.0000000+00:00</time></trkpt><trkpt lat="34.9943263" lon="33.5751505"><ele>135.1</ele><time>2015-05-02T12:10:06.0000000+00:00</time></trkpt><trkpt lat="34.9942743" lon="33.5751786"><ele>134.5</ele><time>2015-05-02T12:10:09.0000000+00:00</time></trkpt><trkpt lat="34.9942098" lon="33.5752089"><ele>135.0</ele><time>2015-05-02T12:10:12.0000000+00:00</time></trkpt><trkpt lat="34.994158" lon="33.5752336"><ele>135.0</ele><time>2015-05-02T12:10:14.0000000+00:00</time></trkpt><trkpt lat="34.9940985" lon="33.5752599"><ele>136.5</ele><time>2015-05-02T12:10:16.0000000+00:00</time></trkpt><trkpt lat="34.9940343" lon="33.5752927"><ele>136.9</ele><time>2015-05-02T12:10:18.0000000+00:00</time></trkpt><trkpt lat="34.9939685" lon="33.5753266"><ele>137.0</ele><time>2015-05-02T12:10:20.0000000+00:00</time></trkpt><trkpt lat="34.9938993" lon="33.5753623"><ele>137.8</ele><time>2015-05-02T12:10:22.0000000+00:00</time></trkpt><trkpt lat="34.9938294" lon="33.5753999"><ele>138.0</ele><time>2015-05-02T12:10:24.0000000+00:00</time></trkpt><trkpt lat="34.9937573" lon="33.5754324"><ele>137.5</ele><time>2015-05-02T12:10:26.0000000+00:00</time></trkpt><trkpt lat="34.9936824" lon="33.5754659"><ele>137.6</ele><time>2015-05-02T12:10:28.0000000+00:00</time></trkpt><trkpt lat="34.9936064" lon="33.5755064"><ele>137.9</ele><time>2015-05-02T12:10:30.0000000+00:00</time></trkpt><trkpt lat="34.9935326" lon="33.5755451"><ele>138.0</ele><time>2015-05-02T12:10:32.0000000+00:00</time></trkpt><trkpt lat="34.9934653" lon="33.5755808"><ele>137.3</ele><time>2015-05-02T12:10:34.0000000+00:00</time></trkpt><trkpt lat="34.9934043" lon="33.5756128"><ele>138.3</ele><time>2015-05-02T12:10:36.0000000+00:00</time></trkpt><trkpt lat="34.9933451" lon="33.5756429"><ele>138.8</ele><time>2015-05-02T12:10:38.0000000+00:00</time></trkpt><trkpt lat="34.9932849" lon="33.5756717"><ele>139.2</ele><time>2015-05-02T12:10:40.0000000+00:00</time></trkpt><trkpt lat="34.9932231" lon="33.5756965"><ele>139.1</ele><time>2015-05-02T12:10:42.0000000+00:00</time></trkpt><trkpt lat="34.993161" lon="33.5757207"><ele>139.0</ele><time>2015-05-02T12:10:44.0000000+00:00</time></trkpt><trkpt lat="34.9930979" lon="33.575744"><ele>139.5</ele><time>2015-05-02T12:10:46.0000000+00:00</time></trkpt><trkpt lat="34.9930363" lon="33.5757654"><ele>139.9</ele><time>2015-05-02T12:10:48.0000000+00:00</time></trkpt><trkpt lat="34.9929751" lon="33.575797"><ele>140.0</ele><time>2015-05-02T12:10:50.0000000+00:00</time></trkpt><trkpt lat="34.9929163" lon="33.5758314"><ele>140.5</ele><time>2015-05-02T12:10:52.0000000+00:00</time></trkpt><trkpt lat="34.992863" lon="33.5758639"><ele>139.6</ele><time>2015-05-02T12:10:54.0000000+00:00</time></trkpt><trkpt lat="34.9928072" lon="33.5758938"><ele>139.2</ele><time>2015-05-02T12:10:56.0000000+00:00</time></trkpt><trkpt lat="34.9927503" lon="33.5759124"><ele>139.1</ele><time>2015-05-02T12:10:58.0000000+00:00</time></trkpt><trkpt lat="34.99269" lon="33.5759384"><ele>140.3</ele><time>2015-05-02T12:11:00.0000000+00:00</time></trkpt><trkpt lat="34.9926298" lon="33.5759622"><ele>139.8</ele><time>2015-05-02T12:11:02.0000000+00:00</time></trkpt><trkpt lat="34.9925717" lon="33.5759815"><ele>139.2</ele><time>2015-05-02T12:11:04.0000000+00:00</time></trkpt><trkpt lat="34.9925166" lon="33.5759947"><ele>139.1</ele><time>2015-05-02T12:11:06.0000000+00:00</time></trkpt><trkpt lat="34.9924595" lon="33.5760156"><ele>139.5</ele><time>2015-05-02T12:11:08.0000000+00:00</time></trkpt><trkpt lat="34.9924009" lon="33.5760374"><ele>139.9</ele><time>2015-05-02T12:11:10.0000000+00:00</time></trkpt><trkpt lat="34.9923345" lon="33.5760564"><ele>140.0</ele><time>2015-05-02T12:11:12.0000000+00:00</time></trkpt><trkpt lat="34.9922555" lon="33.5760817"><ele>140.8</ele><time>2015-05-02T12:11:14.0000000+00:00</time></trkpt><trkpt lat="34.9921834" lon="33.5761002"><ele>140.2</ele><time>2015-05-02T12:11:16.0000000+00:00</time></trkpt><trkpt lat="34.9921339" lon="33.576108"><ele>140.6</ele><time>2015-05-02T12:11:18.0000000+00:00</time></trkpt><trkpt lat="34.9920768" lon="33.5761201"><ele>140.9</ele><time>2015-05-02T12:11:20.0000000+00:00</time></trkpt><trkpt lat="34.9920091" lon="33.5761351"><ele>141.0</ele><time>2015-05-02T12:11:22.0000000+00:00</time></trkpt><trkpt lat="34.9919311" lon="33.5761495"><ele>141.8</ele><time>2015-05-02T12:11:24.0000000+00:00</time></trkpt><trkpt lat="34.9918546" lon="33.576163"><ele>141.7</ele><time>2015-05-02T12:11:26.0000000+00:00</time></trkpt><trkpt lat="34.9917764" lon="33.5761734"><ele>141.9</ele><time>2015-05-02T12:11:28.0000000+00:00</time></trkpt><trkpt lat="34.9916966" lon="33.5761794"><ele>141.5</ele><time>2015-05-02T12:11:30.0000000+00:00</time></trkpt><trkpt lat="34.9916485" lon="33.5761847"><ele>141.3</ele><time>2015-05-02T12:11:31.0000000+00:00</time></trkpt><trkpt lat="34.9915663" lon="33.5761922"><ele>141.8</ele><time>2015-05-02T12:11:33.0000000+00:00</time></trkpt><trkpt lat="34.9914818" lon="33.5762034"><ele>142.0</ele><time>2015-05-02T12:11:35.0000000+00:00</time></trkpt><trkpt lat="34.991432" lon="33.5762068"><ele>142.0</ele><time>2015-05-02T12:11:36.0000000+00:00</time></trkpt><trkpt lat="34.9913856" lon="33.5762081"><ele>141.5</ele><time>2015-05-02T12:11:37.0000000+00:00</time></trkpt><trkpt lat="34.9913022" lon="33.5762145"><ele>141.9</ele><time>2015-05-02T12:11:39.0000000+00:00</time></trkpt><trkpt lat="34.9912187" lon="33.5762218"><ele>142.0</ele><time>2015-05-02T12:11:41.0000000+00:00</time></trkpt><trkpt lat="34.9911365" lon="33.5762228"><ele>142.0</ele><time>2015-05-02T12:11:43.0000000+00:00</time></trkpt><trkpt lat="34.9910498" lon="33.5762232"><ele>142.0</ele><time>2015-05-02T12:11:45.0000000+00:00</time></trkpt><trkpt lat="34.9909962" lon="33.5762192"><ele>142.0</ele><time>2015-05-02T12:11:46.0000000+00:00</time></trkpt><trkpt lat="34.9909472" lon="33.576225"><ele>142.0</ele><time>2015-05-02T12:11:47.0000000+00:00</time></trkpt><trkpt lat="34.9908878" lon="33.5762284"><ele>141.5</ele><time>2015-05-02T12:11:48.0000000+00:00</time></trkpt><trkpt lat="34.9908427" lon="33.5762274"><ele>141.3</ele><time>2015-05-02T12:11:49.0000000+00:00</time></trkpt><trkpt lat="34.9907481" lon="33.5762421"><ele>140.3</ele><time>2015-05-02T12:11:51.0000000+00:00</time></trkpt><trkpt lat="34.9907034" lon="33.5762503"><ele>140.2</ele><time>2015-05-02T12:11:52.0000000+00:00</time></trkpt><trkpt lat="34.9906583" lon="33.5762576"><ele>139.6</ele><time>2015-05-02T12:11:53.0000000+00:00</time></trkpt><trkpt lat="34.9906096" lon="33.5762648"><ele>139.3</ele><time>2015-05-02T12:11:54.0000000+00:00</time></trkpt><trkpt lat="34.9905618" lon="33.5762738"><ele>139.2</ele><time>2015-05-02T12:11:55.0000000+00:00</time></trkpt><trkpt lat="34.9905081" lon="33.5762846"><ele>139.1</ele><time>2015-05-02T12:11:56.0000000+00:00</time></trkpt><trkpt lat="34.9904577" lon="33.5762946"><ele>138.6</ele><time>2015-05-02T12:11:57.0000000+00:00</time></trkpt><trkpt lat="34.9904098" lon="33.576297"><ele>138.8</ele><time>2015-05-02T12:11:58.0000000+00:00</time></trkpt><trkpt lat="34.9903482" lon="33.5763121"><ele>138.4</ele><time>2015-05-02T12:11:59.0000000+00:00</time></trkpt><trkpt lat="34.9902961" lon="33.5763239"><ele>138.2</ele><time>2015-05-02T12:12:00.0000000+00:00</time></trkpt><trkpt lat="34.990244" lon="33.5763328"><ele>138.1</ele><time>2015-05-02T12:12:01.0000000+00:00</time></trkpt><trkpt lat="34.9901848" lon="33.5763494"><ele>138.1</ele><time>2015-05-02T12:12:02.0000000+00:00</time></trkpt><trkpt lat="34.99013" lon="33.5763587"><ele>138.0</ele><time>2015-05-02T12:12:03.0000000+00:00</time></trkpt><trkpt lat="34.9900685" lon="33.5763727"><ele>138.0</ele><time>2015-05-02T12:12:04.0000000+00:00</time></trkpt><trkpt lat="34.9900159" lon="33.576389"><ele>138.5</ele><time>2015-05-02T12:12:05.0000000+00:00</time></trkpt><trkpt lat="34.9899609" lon="33.5763987"><ele>138.8</ele><time>2015-05-02T12:12:06.0000000+00:00</time></trkpt><trkpt lat="34.9898966" lon="33.5764174"><ele>138.4</ele><time>2015-05-02T12:12:07.0000000+00:00</time></trkpt><trkpt lat="34.9898347" lon="33.5764367"><ele>138.2</ele><time>2015-05-02T12:12:08.0000000+00:00</time></trkpt><trkpt lat="34.9897715" lon="33.5764549"><ele>137.6</ele><time>2015-05-02T12:12:09.0000000+00:00</time></trkpt><trkpt lat="34.9897022" lon="33.5764775"><ele>137.3</ele><time>2015-05-02T12:12:10.0000000+00:00</time></trkpt><trkpt lat="34.9896416" lon="33.5764963"><ele>137.2</ele><time>2015-05-02T12:12:11.0000000+00:00</time></trkpt><trkpt lat="34.9895717" lon="33.5765179"><ele>136.6</ele><time>2015-05-02T12:12:12.0000000+00:00</time></trkpt><trkpt lat="34.9895093" lon="33.5765344"><ele>135.8</ele><time>2015-05-02T12:12:13.0000000+00:00</time></trkpt><trkpt lat="34.9894474" lon="33.5765555"><ele>135.4</ele><time>2015-05-02T12:12:14.0000000+00:00</time></trkpt><trkpt lat="34.9893814" lon="33.5765718"><ele>135.2</ele><time>2015-05-02T12:12:15.0000000+00:00</time></trkpt><trkpt lat="34.9893203" lon="33.5765971"><ele>135.1</ele><time>2015-05-02T12:12:16.0000000+00:00</time></trkpt><trkpt lat="34.9892648" lon="33.576619"><ele>135.1</ele><time>2015-05-02T12:12:17.0000000+00:00</time></trkpt><trkpt lat="34.9891929" lon="33.576638"><ele>134.5</ele><time>2015-05-02T12:12:18.0000000+00:00</time></trkpt><trkpt lat="34.9891332" lon="33.5766533"><ele>134.3</ele><time>2015-05-02T12:12:19.0000000+00:00</time></trkpt><trkpt lat="34.9890632" lon="33.5766718"><ele>134.2</ele><time>2015-05-02T12:12:20.0000000+00:00</time></trkpt><trkpt lat="34.9889999" lon="33.5766883"><ele>134.1</ele><time>2015-05-02T12:12:21.0000000+00:00</time></trkpt><trkpt lat="34.9889461" lon="33.5767107"><ele>134.1</ele><time>2015-05-02T12:12:22.0000000+00:00</time></trkpt><trkpt lat="34.9889004" lon="33.5767321"><ele>134.0</ele><time>2015-05-02T12:12:23.0000000+00:00</time></trkpt><trkpt lat="34.9888482" lon="33.57675"><ele>134.0</ele><time>2015-05-02T12:12:25.0000000+00:00</time></trkpt><trkpt lat="34.9887994" lon="33.576732"><ele>132.0</ele><time>2015-05-02T12:14:21.0000000+00:00</time></trkpt><trkpt lat="34.9887448" lon="33.5767445"><ele>132.3</ele><time>2015-05-02T12:14:23.0000000+00:00</time></trkpt><trkpt lat="34.9886791" lon="33.5767676"><ele>132.3</ele><time>2015-05-02T12:14:25.0000000+00:00</time></trkpt><trkpt lat="34.9886006" lon="33.5767864"><ele>131.8</ele><time>2015-05-02T12:14:27.0000000+00:00</time></trkpt><trkpt lat="34.9885228" lon="33.5767997"><ele>131.4</ele><time>2015-05-02T12:14:28.0000000+00:00</time></trkpt><trkpt lat="34.9884654" lon="33.5768162"><ele>131.2</ele><time>2015-05-02T12:14:29.0000000+00:00</time></trkpt><trkpt lat="34.988408" lon="33.5768383"><ele>131.1</ele><time>2015-05-02T12:14:30.0000000+00:00</time></trkpt><trkpt lat="34.9883568" lon="33.5768482"><ele>130.6</ele><time>2015-05-02T12:14:31.0000000+00:00</time></trkpt><trkpt lat="34.9882982" lon="33.5768728"><ele>130.3</ele><time>2015-05-02T12:14:32.0000000+00:00</time></trkpt><trkpt lat="34.9882389" lon="33.576891"><ele>130.2</ele><time>2015-05-02T12:14:33.0000000+00:00</time></trkpt><trkpt lat="34.988187" lon="33.5769122"><ele>130.1</ele><time>2015-05-02T12:14:34.0000000+00:00</time></trkpt><trkpt lat="34.9881303" lon="33.5769264"><ele>129.6</ele><time>2015-05-02T12:14:35.0000000+00:00</time></trkpt><trkpt lat="34.988059" lon="33.5769525"><ele>129.3</ele><time>2015-05-02T12:14:36.0000000+00:00</time></trkpt><trkpt lat="34.9879918" lon="33.5769693"><ele>130.2</ele><time>2015-05-02T12:14:37.0000000+00:00</time></trkpt><trkpt lat="34.9879228" lon="33.5769874"><ele>130.6</ele><time>2015-05-02T12:14:38.0000000+00:00</time></trkpt><trkpt lat="34.98785" lon="33.5770081"><ele>130.3</ele><time>2015-05-02T12:14:39.0000000+00:00</time></trkpt><trkpt lat="34.9877836" lon="33.5770349"><ele>130.2</ele><time>2015-05-02T12:14:40.0000000+00:00</time></trkpt><trkpt lat="34.9877136" lon="33.5770434"><ele>130.6</ele><time>2015-05-02T12:14:41.0000000+00:00</time></trkpt><trkpt lat="34.9876427" lon="33.5770562"><ele>130.8</ele><time>2015-05-02T12:14:42.0000000+00:00</time></trkpt><trkpt lat="34.9875666" lon="33.5770775"><ele>130.4</ele><time>2015-05-02T12:14:43.0000000+00:00</time></trkpt><trkpt lat="34.98749" lon="33.5770961"><ele>130.2</ele><time>2015-05-02T12:14:44.0000000+00:00</time></trkpt><trkpt lat="34.9874096" lon="33.5771189"><ele>130.1</ele><time>2015-05-02T12:14:45.0000000+00:00</time></trkpt><trkpt lat="34.9873397" lon="33.5771382"><ele>130.1</ele><time>2015-05-02T12:14:46.0000000+00:00</time></trkpt><trkpt lat="34.9872645" lon="33.5771601"><ele>129.5</ele><time>2015-05-02T12:14:47.0000000+00:00</time></trkpt><trkpt lat="34.9871933" lon="33.5771796"><ele>128.8</ele><time>2015-05-02T12:14:48.0000000+00:00</time></trkpt><trkpt lat="34.987128" lon="33.5771919"><ele>128.4</ele><time>2015-05-02T12:14:49.0000000+00:00</time></trkpt><trkpt lat="34.987055" lon="33.577209"><ele>127.7</ele><time>2015-05-02T12:14:50.0000000+00:00</time></trkpt><trkpt lat="34.9869874" lon="33.5772261"><ele>127.4</ele><time>2015-05-02T12:14:51.0000000+00:00</time></trkpt><trkpt lat="34.9869033" lon="33.5772572"><ele>127.2</ele><time>2015-05-02T12:14:52.0000000+00:00</time></trkpt><trkpt lat="34.9868326" lon="33.5772737"><ele>126.6</ele><time>2015-05-02T12:14:53.0000000+00:00</time></trkpt><trkpt lat="34.9867592" lon="33.5772928"><ele>126.3</ele><time>2015-05-02T12:14:54.0000000+00:00</time></trkpt><trkpt lat="34.9866919" lon="33.5773149"><ele>126.2</ele><time>2015-05-02T12:14:55.0000000+00:00</time></trkpt><trkpt lat="34.9866217" lon="33.5773412"><ele>125.6</ele><time>2015-05-02T12:14:56.0000000+00:00</time></trkpt><trkpt lat="34.9865478" lon="33.5773569"><ele>125.3</ele><time>2015-05-02T12:14:57.0000000+00:00</time></trkpt><trkpt lat="34.9864766" lon="33.5773729"><ele>125.2</ele><time>2015-05-02T12:14:58.0000000+00:00</time></trkpt><trkpt lat="34.9864106" lon="33.5773929"><ele>124.6</ele><time>2015-05-02T12:14:59.0000000+00:00</time></trkpt><trkpt lat="34.9863398" lon="33.5774123"><ele>124.3</ele><time>2015-05-02T12:15:00.0000000+00:00</time></trkpt><trkpt lat="34.9862732" lon="33.5774388"><ele>124.2</ele><time>2015-05-02T12:15:01.0000000+00:00</time></trkpt><trkpt lat="34.9862106" lon="33.5774663"><ele>124.6</ele><time>2015-05-02T12:15:02.0000000+00:00</time></trkpt><trkpt lat="34.9861467" lon="33.5774925"><ele>124.3</ele><time>2015-05-02T12:15:03.0000000+00:00</time></trkpt><trkpt lat="34.9860761" lon="33.5775181"><ele>123.7</ele><time>2015-05-02T12:15:04.0000000+00:00</time></trkpt><trkpt lat="34.9860197" lon="33.5775316"><ele>123.3</ele><time>2015-05-02T12:15:05.0000000+00:00</time></trkpt><trkpt lat="34.9859528" lon="33.577554"><ele>122.7</ele><time>2015-05-02T12:15:06.0000000+00:00</time></trkpt><trkpt lat="34.9858845" lon="33.5775856"><ele>121.9</ele><time>2015-05-02T12:15:07.0000000+00:00</time></trkpt><trkpt lat="34.9858186" lon="33.5775961"><ele>120.9</ele><time>2015-05-02T12:15:08.0000000+00:00</time></trkpt><trkpt lat="34.9857576" lon="33.5776108"><ele>120.5</ele><time>2015-05-02T12:15:09.0000000+00:00</time></trkpt><trkpt lat="34.9856952" lon="33.5776289"><ele>120.2</ele><time>2015-05-02T12:15:10.0000000+00:00</time></trkpt><trkpt lat="34.9856279" lon="33.5776508"><ele>120.1</ele><time>2015-05-02T12:15:11.0000000+00:00</time></trkpt><trkpt lat="34.985564" lon="33.5776742"><ele>119.6</ele><time>2015-05-02T12:15:12.0000000+00:00</time></trkpt><trkpt lat="34.985503" lon="33.5777008"><ele>119.3</ele><time>2015-05-02T12:15:13.0000000+00:00</time></trkpt><trkpt lat="34.9854438" lon="33.5777264"><ele>119.2</ele><time>2015-05-02T12:15:14.0000000+00:00</time></trkpt><trkpt lat="34.9853867" lon="33.5777479"><ele>118.6</ele><time>2015-05-02T12:15:15.0000000+00:00</time></trkpt><trkpt lat="34.9853315" lon="33.5777682"><ele>117.8</ele><time>2015-05-02T12:15:16.0000000+00:00</time></trkpt><trkpt lat="34.9852705" lon="33.5777913"><ele>117.4</ele><time>2015-05-02T12:15:17.0000000+00:00</time></trkpt><trkpt lat="34.9852223" lon="33.5778014"><ele>116.2</ele><time>2015-05-02T12:15:18.0000000+00:00</time></trkpt><trkpt lat="34.9851654" lon="33.5778312"><ele>115.1</ele><time>2015-05-02T12:15:19.0000000+00:00</time></trkpt><trkpt lat="34.9851048" lon="33.5778524"><ele>114.6</ele><time>2015-05-02T12:15:20.0000000+00:00</time></trkpt><trkpt lat="34.9850435" lon="33.5778752"><ele>113.8</ele><time>2015-05-02T12:15:21.0000000+00:00</time></trkpt><trkpt lat="34.9849841" lon="33.5778923"><ele>113.9</ele><time>2015-05-02T12:15:22.0000000+00:00</time></trkpt><trkpt lat="34.9849199" lon="33.5779233"><ele>114.0</ele><time>2015-05-02T12:15:23.0000000+00:00</time></trkpt><trkpt lat="34.9848521" lon="33.5779476"><ele>113.5</ele><time>2015-05-02T12:15:24.0000000+00:00</time></trkpt><trkpt lat="34.9847849" lon="33.5779732"><ele>113.8</ele><time>2015-05-02T12:15:25.0000000+00:00</time></trkpt><trkpt lat="34.984717" lon="33.5779986"><ele>113.4</ele><time>2015-05-02T12:15:26.0000000+00:00</time></trkpt><trkpt lat="34.9846558" lon="33.5780274"><ele>112.7</ele><time>2015-05-02T12:15:27.0000000+00:00</time></trkpt><trkpt lat="34.9845881" lon="33.5780569"><ele>112.9</ele><time>2015-05-02T12:15:28.0000000+00:00</time></trkpt><trkpt lat="34.9845302" lon="33.5780898"><ele>112.9</ele><time>2015-05-02T12:15:29.0000000+00:00</time></trkpt><trkpt lat="34.9844676" lon="33.5781122"><ele>113.0</ele><time>2015-05-02T12:15:30.0000000+00:00</time></trkpt><trkpt lat="34.9844064" lon="33.5781309"><ele>113.0</ele><time>2015-05-02T12:15:31.0000000+00:00</time></trkpt><trkpt lat="34.9843408" lon="33.5781495"><ele>113.0</ele><time>2015-05-02T12:15:32.0000000+00:00</time></trkpt><trkpt lat="34.9842786" lon="33.5781762"><ele>113.0</ele><time>2015-05-02T12:15:33.0000000+00:00</time></trkpt><trkpt lat="34.98422" lon="33.578203"><ele>112.5</ele><time>2015-05-02T12:15:34.0000000+00:00</time></trkpt><trkpt lat="34.9841591" lon="33.5782294"><ele>112.3</ele><time>2015-05-02T12:15:35.0000000+00:00</time></trkpt><trkpt lat="34.9840947" lon="33.5782503"><ele>111.6</ele><time>2015-05-02T12:15:36.0000000+00:00</time></trkpt><trkpt lat="34.9840346" lon="33.5782739"><ele>111.3</ele><time>2015-05-02T12:15:37.0000000+00:00</time></trkpt><trkpt lat="34.9839755" lon="33.5783002"><ele>111.7</ele><time>2015-05-02T12:15:38.0000000+00:00</time></trkpt><trkpt lat="34.9839136" lon="33.5783327"><ele>111.8</ele><time>2015-05-02T12:15:39.0000000+00:00</time></trkpt><trkpt lat="34.9838478" lon="33.5783615"><ele>112.4</ele><time>2015-05-02T12:15:40.0000000+00:00</time></trkpt><trkpt lat="34.9837935" lon="33.5783854"><ele>112.2</ele><time>2015-05-02T12:15:41.0000000+00:00</time></trkpt><trkpt lat="34.9837347" lon="33.5784162"><ele>112.1</ele><time>2015-05-02T12:15:42.0000000+00:00</time></trkpt><trkpt lat="34.9836694" lon="33.5784439"><ele>112.1</ele><time>2015-05-02T12:15:43.0000000+00:00</time></trkpt><trkpt lat="34.9836076" lon="33.5784722"><ele>112.0</ele><time>2015-05-02T12:15:44.0000000+00:00</time></trkpt><trkpt lat="34.9835474" lon="33.5784868"><ele>111.5</ele><time>2015-05-02T12:15:45.0000000+00:00</time></trkpt><trkpt lat="34.9834819" lon="33.5785091"><ele>111.8</ele><time>2015-05-02T12:15:46.0000000+00:00</time></trkpt><trkpt lat="34.9834198" lon="33.5785308"><ele>111.9</ele><time>2015-05-02T12:15:47.0000000+00:00</time></trkpt><trkpt lat="34.9833628" lon="33.5785538"><ele>111.5</ele><time>2015-05-02T12:15:48.0000000+00:00</time></trkpt><trkpt lat="34.9833077" lon="33.5785772"><ele>111.2</ele><time>2015-05-02T12:15:49.0000000+00:00</time></trkpt><trkpt lat="34.9832524" lon="33.5786071"><ele>111.1</ele><time>2015-05-02T12:15:50.0000000+00:00</time></trkpt><trkpt lat="34.9831994" lon="33.5786325"><ele>111.1</ele><time>2015-05-02T12:15:51.0000000+00:00</time></trkpt><trkpt lat="34.983136" lon="33.5786649"><ele>111.5</ele><time>2015-05-02T12:15:52.0000000+00:00</time></trkpt><trkpt lat="34.9830727" lon="33.5786905"><ele>111.8</ele><time>2015-05-02T12:15:53.0000000+00:00</time></trkpt><trkpt lat="34.9830203" lon="33.5787117"><ele>111.4</ele><time>2015-05-02T12:15:54.0000000+00:00</time></trkpt><trkpt lat="34.9829555" lon="33.5787372"><ele>111.2</ele><time>2015-05-02T12:15:55.0000000+00:00</time></trkpt><trkpt lat="34.9828896" lon="33.5787742"><ele>111.6</ele><time>2015-05-02T12:15:56.0000000+00:00</time></trkpt><trkpt lat="34.9828286" lon="33.5788078"><ele>111.3</ele><time>2015-05-02T12:15:57.0000000+00:00</time></trkpt><trkpt lat="34.982756" lon="33.5788301"><ele>111.7</ele><time>2015-05-02T12:15:58.0000000+00:00</time></trkpt><trkpt lat="34.9826919" lon="33.5788636"><ele>112.3</ele><time>2015-05-02T12:15:59.0000000+00:00</time></trkpt><trkpt lat="34.9826218" lon="33.5788926"><ele>112.2</ele><time>2015-05-02T12:16:00.0000000+00:00</time></trkpt><trkpt lat="34.9825528" lon="33.5789152"><ele>112.1</ele><time>2015-05-02T12:16:01.0000000+00:00</time></trkpt><trkpt lat="34.9824914" lon="33.5789397"><ele>111.6</ele><time>2015-05-02T12:16:02.0000000+00:00</time></trkpt><trkpt lat="34.9824317" lon="33.578961"><ele>111.3</ele><time>2015-05-02T12:16:03.0000000+00:00</time></trkpt><trkpt lat="34.9823661" lon="33.5789845"><ele>111.2</ele><time>2015-05-02T12:16:04.0000000+00:00</time></trkpt><trkpt lat="34.9823118" lon="33.5790001"><ele>110.6</ele><time>2015-05-02T12:16:05.0000000+00:00</time></trkpt><trkpt lat="34.9822418" lon="33.5790208"><ele>110.3</ele><time>2015-05-02T12:16:06.0000000+00:00</time></trkpt><trkpt lat="34.9821697" lon="33.5790413"><ele>110.2</ele><time>2015-05-02T12:16:07.0000000+00:00</time></trkpt><trkpt lat="34.9821052" lon="33.5790591"><ele>110.1</ele><time>2015-05-02T12:16:08.0000000+00:00</time></trkpt><trkpt lat="34.9820338" lon="33.5790804"><ele>109.6</ele><time>2015-05-02T12:16:09.0000000+00:00</time></trkpt><trkpt lat="34.9819531" lon="33.5791093"><ele>108.8</ele><time>2015-05-02T12:16:10.0000000+00:00</time></trkpt><trkpt lat="34.9818903" lon="33.5791294"><ele>108.4</ele><time>2015-05-02T12:16:11.0000000+00:00</time></trkpt><trkpt lat="34.9818104" lon="33.5791546"><ele>108.2</ele><time>2015-05-02T12:16:12.0000000+00:00</time></trkpt><trkpt lat="34.9817356" lon="33.5791789"><ele>107.6</ele><time>2015-05-02T12:16:13.0000000+00:00</time></trkpt><trkpt lat="34.9816629" lon="33.5792011"><ele>107.3</ele><time>2015-05-02T12:16:14.0000000+00:00</time></trkpt><trkpt lat="34.981587" lon="33.5792232"><ele>107.7</ele><time>2015-05-02T12:16:15.0000000+00:00</time></trkpt><trkpt lat="34.981519" lon="33.5792352"><ele>107.8</ele><time>2015-05-02T12:16:16.0000000+00:00</time></trkpt><trkpt lat="34.9814472" lon="33.579262"><ele>107.4</ele><time>2015-05-02T12:16:17.0000000+00:00</time></trkpt><trkpt lat="34.981373" lon="33.5792804"><ele>107.2</ele><time>2015-05-02T12:16:18.0000000+00:00</time></trkpt><trkpt lat="34.9812986" lon="33.5792972"><ele>107.1</ele><time>2015-05-02T12:16:19.0000000+00:00</time></trkpt><trkpt lat="34.9812239" lon="33.5793183"><ele>107.1</ele><time>2015-05-02T12:16:20.0000000+00:00</time></trkpt><trkpt lat="34.9811538" lon="33.5793398"><ele>107.0</ele><time>2015-05-02T12:16:21.0000000+00:00</time></trkpt><trkpt lat="34.9810884" lon="33.5793616"><ele>107.0</ele><time>2015-05-02T12:16:22.0000000+00:00</time></trkpt><trkpt lat="34.9810206" lon="33.5793848"><ele>107.0</ele><time>2015-05-02T12:16:23.0000000+00:00</time></trkpt><trkpt lat="34.9809531" lon="33.5794096"><ele>107.0</ele><time>2015-05-02T12:16:24.0000000+00:00</time></trkpt><trkpt lat="34.9808849" lon="33.5794344"><ele>107.0</ele><time>2015-05-02T12:16:25.0000000+00:00</time></trkpt><trkpt lat="34.9808145" lon="33.5794605"><ele>107.5</ele><time>2015-05-02T12:16:26.0000000+00:00</time></trkpt><trkpt lat="34.9807502" lon="33.5794728"><ele>107.8</ele><time>2015-05-02T12:16:27.0000000+00:00</time></trkpt><trkpt lat="34.9806767" lon="33.5794943"><ele>107.4</ele><time>2015-05-02T12:16:28.0000000+00:00</time></trkpt><trkpt lat="34.9806024" lon="33.5795166"><ele>106.7</ele><time>2015-05-02T12:16:29.0000000+00:00</time></trkpt><trkpt lat="34.980531" lon="33.5795367"><ele>106.9</ele><time>2015-05-02T12:16:30.0000000+00:00</time></trkpt><trkpt lat="34.9804611" lon="33.5795552"><ele>106.9</ele><time>2015-05-02T12:16:31.0000000+00:00</time></trkpt><trkpt lat="34.9803906" lon="33.579571"><ele>107.0</ele><time>2015-05-02T12:16:32.0000000+00:00</time></trkpt><trkpt lat="34.9803231" lon="33.5795925"><ele>106.5</ele><time>2015-05-02T12:16:33.0000000+00:00</time></trkpt><trkpt lat="34.9802578" lon="33.579614"><ele>106.3</ele><time>2015-05-02T12:16:34.0000000+00:00</time></trkpt><trkpt lat="34.9801992" lon="33.5796332"><ele>105.6</ele><time>2015-05-02T12:16:35.0000000+00:00</time></trkpt><trkpt lat="34.980135" lon="33.5796525"><ele>104.8</ele><time>2015-05-02T12:16:36.0000000+00:00</time></trkpt><trkpt lat="34.9800614" lon="33.5796766"><ele>104.4</ele><time>2015-05-02T12:16:37.0000000+00:00</time></trkpt><trkpt lat="34.9799963" lon="33.5796931"><ele>104.2</ele><time>2015-05-02T12:16:38.0000000+00:00</time></trkpt><trkpt lat="34.9799267" lon="33.57971"><ele>103.6</ele><time>2015-05-02T12:16:39.0000000+00:00</time></trkpt><trkpt lat="34.9798631" lon="33.5797328"><ele>103.3</ele><time>2015-05-02T12:16:40.0000000+00:00</time></trkpt><trkpt lat="34.9797963" lon="33.5797439"><ele>103.2</ele><time>2015-05-02T12:16:41.0000000+00:00</time></trkpt><trkpt lat="34.9797348" lon="33.5797524"><ele>102.6</ele><time>2015-05-02T12:16:42.0000000+00:00</time></trkpt><trkpt lat="34.9796727" lon="33.5797636"><ele>102.3</ele><time>2015-05-02T12:16:43.0000000+00:00</time></trkpt><trkpt lat="34.979606" lon="33.579773"><ele>101.7</ele><time>2015-05-02T12:16:44.0000000+00:00</time></trkpt><trkpt lat="34.9795466" lon="33.5797748"><ele>101.3</ele><time>2015-05-02T12:16:45.0000000+00:00</time></trkpt><trkpt lat="34.9794816" lon="33.5798054"><ele>100.7</ele><time>2015-05-02T12:16:46.0000000+00:00</time></trkpt><trkpt lat="34.9794215" lon="33.5798259"><ele>100.4</ele><time>2015-05-02T12:16:47.0000000+00:00</time></trkpt><trkpt lat="34.9793612" lon="33.579844"><ele>100.7</ele><time>2015-05-02T12:16:48.0000000+00:00</time></trkpt><trkpt lat="34.9793055" lon="33.5798646"><ele>100.4</ele><time>2015-05-02T12:16:49.0000000+00:00</time></trkpt><trkpt lat="34.9792547" lon="33.5798772"><ele>100.7</ele><time>2015-05-02T12:16:50.0000000+00:00</time></trkpt><trkpt lat="34.979197" lon="33.5798954"><ele>100.9</ele><time>2015-05-02T12:16:51.0000000+00:00</time></trkpt><trkpt lat="34.9791361" lon="33.5799182"><ele>100.9</ele><time>2015-05-02T12:16:52.0000000+00:00</time></trkpt><trkpt lat="34.9790763" lon="33.5799133"><ele>100.5</ele><time>2015-05-02T12:16:53.0000000+00:00</time></trkpt><trkpt lat="34.9790135" lon="33.5799264"><ele>100.3</ele><time>2015-05-02T12:16:54.0000000+00:00</time></trkpt><trkpt lat="34.9789542" lon="33.5799444"><ele>100.1</ele><time>2015-05-02T12:16:55.0000000+00:00</time></trkpt><trkpt lat="34.978905" lon="33.579958"><ele>99.6</ele><time>2015-05-02T12:16:56.0000000+00:00</time></trkpt><trkpt lat="34.9788533" lon="33.5799811"><ele>99.8</ele><time>2015-05-02T12:16:57.0000000+00:00</time></trkpt><trkpt lat="34.9787976" lon="33.5800019"><ele>99.4</ele><time>2015-05-02T12:16:58.0000000+00:00</time></trkpt><trkpt lat="34.9787027" lon="33.5800212"><ele>100.6</ele><time>2015-05-02T12:17:00.0000000+00:00</time></trkpt><trkpt lat="34.9786477" lon="33.5800398"><ele>100.3</ele><time>2015-05-02T12:17:01.0000000+00:00</time></trkpt><trkpt lat="34.9785905" lon="33.5800585"><ele>100.7</ele><time>2015-05-02T12:17:02.0000000+00:00</time></trkpt><trkpt lat="34.9785298" lon="33.580076"><ele>101.3</ele><time>2015-05-02T12:17:03.0000000+00:00</time></trkpt><trkpt lat="34.9784686" lon="33.5800953"><ele>101.7</ele><time>2015-05-02T12:17:04.0000000+00:00</time></trkpt><trkpt lat="34.9784153" lon="33.5801054"><ele>101.9</ele><time>2015-05-02T12:17:05.0000000+00:00</time></trkpt><trkpt lat="34.9783547" lon="33.5801257"><ele>102.4</ele><time>2015-05-02T12:17:06.0000000+00:00</time></trkpt><trkpt lat="34.9783012" lon="33.5801453"><ele>102.7</ele><time>2015-05-02T12:17:07.0000000+00:00</time></trkpt><trkpt lat="34.9782416" lon="33.5801607"><ele>102.4</ele><time>2015-05-02T12:17:08.0000000+00:00</time></trkpt><trkpt lat="34.9781863" lon="33.5801689"><ele>102.2</ele><time>2015-05-02T12:17:09.0000000+00:00</time></trkpt><trkpt lat="34.9781353" lon="33.5801803"><ele>102.6</ele><time>2015-05-02T12:17:10.0000000+00:00</time></trkpt><trkpt lat="34.9780839" lon="33.5802023"><ele>102.3</ele><time>2015-05-02T12:17:11.0000000+00:00</time></trkpt><trkpt lat="34.9780309" lon="33.5802185"><ele>102.2</ele><time>2015-05-02T12:17:12.0000000+00:00</time></trkpt><trkpt lat="34.9779808" lon="33.5802247"><ele>102.6</ele><time>2015-05-02T12:17:13.0000000+00:00</time></trkpt><trkpt lat="34.9779204" lon="33.580245"><ele>102.8</ele><time>2015-05-02T12:17:14.0000000+00:00</time></trkpt><trkpt lat="34.9778736" lon="33.5802618"><ele>102.4</ele><time>2015-05-02T12:17:15.0000000+00:00</time></trkpt><trkpt lat="34.9778171" lon="33.5802666"><ele>102.2</ele><time>2015-05-02T12:17:16.0000000+00:00</time></trkpt><trkpt lat="34.9777636" lon="33.5802851"><ele>102.1</ele><time>2015-05-02T12:17:17.0000000+00:00</time></trkpt><trkpt lat="34.9777055" lon="33.5803073"><ele>102.6</ele><time>2015-05-02T12:17:18.0000000+00:00</time></trkpt><trkpt lat="34.9776427" lon="33.5803225"><ele>102.3</ele><time>2015-05-02T12:17:19.0000000+00:00</time></trkpt><trkpt lat="34.9775842" lon="33.5803382"><ele>102.2</ele><time>2015-05-02T12:17:20.0000000+00:00</time></trkpt><trkpt lat="34.9775216" lon="33.5803569"><ele>102.1</ele><time>2015-05-02T12:17:21.0000000+00:00</time></trkpt><trkpt lat="34.977459" lon="33.5803782"><ele>102.6</ele><time>2015-05-02T12:17:22.0000000+00:00</time></trkpt><trkpt lat="34.9774009" lon="33.5803932"><ele>102.3</ele><time>2015-05-02T12:17:23.0000000+00:00</time></trkpt><trkpt lat="34.9773447" lon="33.5804148"><ele>102.2</ele><time>2015-05-02T12:17:24.0000000+00:00</time></trkpt><trkpt lat="34.9772764" lon="33.5804356"><ele>101.6</ele><time>2015-05-02T12:17:25.0000000+00:00</time></trkpt><trkpt lat="34.9772134" lon="33.5804568"><ele>100.8</ele><time>2015-05-02T12:17:26.0000000+00:00</time></trkpt><trkpt lat="34.9771586" lon="33.5804678"><ele>100.4</ele><time>2015-05-02T12:17:27.0000000+00:00</time></trkpt><trkpt lat="34.9770964" lon="33.5804795"><ele>100.2</ele><time>2015-05-02T12:17:28.0000000+00:00</time></trkpt><trkpt lat="34.9770433" lon="33.5804918"><ele>99.6</ele><time>2015-05-02T12:17:29.0000000+00:00</time></trkpt><trkpt lat="34.976994" lon="33.5804979"><ele>99.8</ele><time>2015-05-02T12:17:30.0000000+00:00</time></trkpt><trkpt lat="34.9769458" lon="33.580519"><ele>99.9</ele><time>2015-05-02T12:17:31.0000000+00:00</time></trkpt><trkpt lat="34.9768901" lon="33.5805374"><ele>100.0</ele><time>2015-05-02T12:17:32.0000000+00:00</time></trkpt><trkpt lat="34.9768387" lon="33.5805434"><ele>100.0</ele><time>2015-05-02T12:17:33.0000000+00:00</time></trkpt><trkpt lat="34.9767895" lon="33.5805558"><ele>99.5</ele><time>2015-05-02T12:17:34.0000000+00:00</time></trkpt><trkpt lat="34.9767356" lon="33.5805749"><ele>99.3</ele><time>2015-05-02T12:17:35.0000000+00:00</time></trkpt><trkpt lat="34.9766811" lon="33.5805888"><ele>98.6</ele><time>2015-05-02T12:17:36.0000000+00:00</time></trkpt><trkpt lat="34.9766208" lon="33.5806104"><ele>98.3</ele><time>2015-05-02T12:17:37.0000000+00:00</time></trkpt><trkpt lat="34.976567" lon="33.5806252"><ele>97.7</ele><time>2015-05-02T12:17:38.0000000+00:00</time></trkpt><trkpt lat="34.9765024" lon="33.5806466"><ele>97.3</ele><time>2015-05-02T12:17:39.0000000+00:00</time></trkpt><trkpt lat="34.97644" lon="33.5806669"><ele>97.2</ele><time>2015-05-02T12:17:40.0000000+00:00</time></trkpt><trkpt lat="34.976376" lon="33.5806866"><ele>97.6</ele><time>2015-05-02T12:17:41.0000000+00:00</time></trkpt><trkpt lat="34.9763158" lon="33.5807059"><ele>97.8</ele><time>2015-05-02T12:17:42.0000000+00:00</time></trkpt><trkpt lat="34.9762559" lon="33.5807178"><ele>97.4</ele><time>2015-05-02T12:17:43.0000000+00:00</time></trkpt><trkpt lat="34.9761979" lon="33.5807389"><ele>96.7</ele><time>2015-05-02T12:17:44.0000000+00:00</time></trkpt><trkpt lat="34.9761451" lon="33.580751"><ele>96.4</ele><time>2015-05-02T12:17:45.0000000+00:00</time></trkpt><trkpt lat="34.9760893" lon="33.5807742"><ele>96.2</ele><time>2015-05-02T12:17:46.0000000+00:00</time></trkpt><trkpt lat="34.9760316" lon="33.5807926"><ele>96.6</ele><time>2015-05-02T12:17:47.0000000+00:00</time></trkpt><trkpt lat="34.9759746" lon="33.5808108"><ele>97.3</ele><time>2015-05-02T12:17:48.0000000+00:00</time></trkpt><trkpt lat="34.9759116" lon="33.5808224"><ele>97.2</ele><time>2015-05-02T12:17:49.0000000+00:00</time></trkpt><trkpt lat="34.975851" lon="33.5808428"><ele>96.6</ele><time>2015-05-02T12:17:50.0000000+00:00</time></trkpt><trkpt lat="34.9757872" lon="33.5808567"><ele>96.8</ele><time>2015-05-02T12:17:51.0000000+00:00</time></trkpt><trkpt lat="34.9757303" lon="33.5808848"><ele>96.4</ele><time>2015-05-02T12:17:52.0000000+00:00</time></trkpt><trkpt lat="34.9756667" lon="33.5809057"><ele>96.7</ele><time>2015-05-02T12:17:53.0000000+00:00</time></trkpt><trkpt lat="34.9756179" lon="33.5809346"><ele>96.9</ele><time>2015-05-02T12:17:54.0000000+00:00</time></trkpt><trkpt lat="34.9755623" lon="33.5809546"><ele>96.9</ele><time>2015-05-02T12:17:55.0000000+00:00</time></trkpt><trkpt lat="34.975503" lon="33.5809653"><ele>97.0</ele><time>2015-05-02T12:17:56.0000000+00:00</time></trkpt><trkpt lat="34.9754521" lon="33.5809935"><ele>96.5</ele><time>2015-05-02T12:17:57.0000000+00:00</time></trkpt><trkpt lat="34.9754019" lon="33.5810163"><ele>95.8</ele><time>2015-05-02T12:17:58.0000000+00:00</time></trkpt><trkpt lat="34.9753489" lon="33.5810458"><ele>95.9</ele><time>2015-05-02T12:17:59.0000000+00:00</time></trkpt><trkpt lat="34.9752884" lon="33.5810798"><ele>96.0</ele><time>2015-05-02T12:18:00.0000000+00:00</time></trkpt><trkpt lat="34.9752405" lon="33.5811149"><ele>96.0</ele><time>2015-05-02T12:18:01.0000000+00:00</time></trkpt><trkpt lat="34.9751744" lon="33.5811463"><ele>95.5</ele><time>2015-05-02T12:18:02.0000000+00:00</time></trkpt><trkpt lat="34.9751169" lon="33.5811808"><ele>95.8</ele><time>2015-05-02T12:18:03.0000000+00:00</time></trkpt><trkpt lat="34.97505" lon="33.5812206"><ele>95.4</ele><time>2015-05-02T12:18:04.0000000+00:00</time></trkpt><trkpt lat="34.9749864" lon="33.5812734"><ele>95.2</ele><time>2015-05-02T12:18:05.0000000+00:00</time></trkpt><trkpt lat="34.9749311" lon="33.5813133"><ele>95.1</ele><time>2015-05-02T12:18:06.0000000+00:00</time></trkpt><trkpt lat="34.9748812" lon="33.5813482"><ele>94.6</ele><time>2015-05-02T12:18:07.0000000+00:00</time></trkpt><trkpt lat="34.9748245" lon="33.5813883"><ele>94.3</ele><time>2015-05-02T12:18:08.0000000+00:00</time></trkpt><trkpt lat="34.9747756" lon="33.5814194"><ele>94.2</ele><time>2015-05-02T12:18:09.0000000+00:00</time></trkpt><trkpt lat="34.9747291" lon="33.5814505"><ele>94.6</ele><time>2015-05-02T12:18:10.0000000+00:00</time></trkpt><trkpt lat="34.9746935" lon="33.5814849"><ele>94.8</ele><time>2015-05-02T12:18:11.0000000+00:00</time></trkpt><trkpt lat="34.9746465" lon="33.581509"><ele>95.4</ele><time>2015-05-02T12:18:12.0000000+00:00</time></trkpt><trkpt lat="34.9745947" lon="33.5815452"><ele>95.2</ele><time>2015-05-02T12:18:13.0000000+00:00</time></trkpt><trkpt lat="34.9745515" lon="33.5815842"><ele>95.6</ele><time>2015-05-02T12:18:14.0000000+00:00</time></trkpt><trkpt lat="34.9745076" lon="33.5816385"><ele>96.3</ele><time>2015-05-02T12:18:15.0000000+00:00</time></trkpt><trkpt lat="34.9744532" lon="33.5816832"><ele>96.2</ele><time>2015-05-02T12:18:16.0000000+00:00</time></trkpt><trkpt lat="34.9744005" lon="33.5817256"><ele>96.6</ele><time>2015-05-02T12:18:17.0000000+00:00</time></trkpt><trkpt lat="34.9743504" lon="33.5817725"><ele>96.8</ele><time>2015-05-02T12:18:18.0000000+00:00</time></trkpt><trkpt lat="34.974303" lon="33.581817"><ele>96.9</ele><time>2015-05-02T12:18:19.0000000+00:00</time></trkpt><trkpt lat="34.9742422" lon="33.5818745"><ele>97.0</ele><time>2015-05-02T12:18:20.0000000+00:00</time></trkpt><trkpt lat="34.9741921" lon="33.5819228"><ele>96.5</ele><time>2015-05-02T12:18:21.0000000+00:00</time></trkpt><trkpt lat="34.9741442" lon="33.5819692"><ele>96.3</ele><time>2015-05-02T12:18:22.0000000+00:00</time></trkpt><trkpt lat="34.9740986" lon="33.5820208"><ele>96.1</ele><time>2015-05-02T12:18:23.0000000+00:00</time></trkpt><trkpt lat="34.9740529" lon="33.582073"><ele>95.6</ele><time>2015-05-02T12:18:24.0000000+00:00</time></trkpt><trkpt lat="34.974004" lon="33.5821191"><ele>95.3</ele><time>2015-05-02T12:18:25.0000000+00:00</time></trkpt><trkpt lat="34.973953" lon="33.5821731"><ele>95.2</ele><time>2015-05-02T12:18:26.0000000+00:00</time></trkpt><trkpt lat="34.9739174" lon="33.5822219"><ele>95.1</ele><time>2015-05-02T12:18:27.0000000+00:00</time></trkpt><trkpt lat="34.9738636" lon="33.582278"><ele>94.6</ele><time>2015-05-02T12:18:28.0000000+00:00</time></trkpt><trkpt lat="34.9738145" lon="33.5823232"><ele>94.3</ele><time>2015-05-02T12:18:29.0000000+00:00</time></trkpt><trkpt lat="34.9737666" lon="33.5823704"><ele>94.2</ele><time>2015-05-02T12:18:30.0000000+00:00</time></trkpt><trkpt lat="34.9737198" lon="33.5824152"><ele>94.1</ele><time>2015-05-02T12:18:31.0000000+00:00</time></trkpt><trkpt lat="34.9736701" lon="33.5824535"><ele>93.6</ele><time>2015-05-02T12:18:32.0000000+00:00</time></trkpt><trkpt lat="34.973623" lon="33.5824952"><ele>93.3</ele><time>2015-05-02T12:18:33.0000000+00:00</time></trkpt><trkpt lat="34.9735723" lon="33.5825371"><ele>93.2</ele><time>2015-05-02T12:18:34.0000000+00:00</time></trkpt><trkpt lat="34.9735274" lon="33.5825733"><ele>92.6</ele><time>2015-05-02T12:18:35.0000000+00:00</time></trkpt><trkpt lat="34.9734758" lon="33.5826022"><ele>92.3</ele><time>2015-05-02T12:18:36.0000000+00:00</time></trkpt><trkpt lat="34.9734245" lon="33.5826314"><ele>91.7</ele><time>2015-05-02T12:18:37.0000000+00:00</time></trkpt><trkpt lat="34.9733715" lon="33.5826718"><ele>90.8</ele><time>2015-05-02T12:18:38.0000000+00:00</time></trkpt><trkpt lat="34.9733179" lon="33.5827084"><ele>90.9</ele><time>2015-05-02T12:18:39.0000000+00:00</time></trkpt><trkpt lat="34.9732584" lon="33.5827443"><ele>91.0</ele><time>2015-05-02T12:18:40.0000000+00:00</time></trkpt><trkpt lat="34.9732038" lon="33.5827816"><ele>91.5</ele><time>2015-05-02T12:18:41.0000000+00:00</time></trkpt><trkpt lat="34.9731439" lon="33.5828172"><ele>91.3</ele><time>2015-05-02T12:18:42.0000000+00:00</time></trkpt><trkpt lat="34.9730941" lon="33.5828486"><ele>91.1</ele><time>2015-05-02T12:18:43.0000000+00:00</time></trkpt><trkpt lat="34.9730415" lon="33.5828903"><ele>91.6</ele><time>2015-05-02T12:18:44.0000000+00:00</time></trkpt><trkpt lat="34.9729848" lon="33.5829236"><ele>91.8</ele><time>2015-05-02T12:18:45.0000000+00:00</time></trkpt><trkpt lat="34.972932" lon="33.5829609"><ele>91.9</ele><time>2015-05-02T12:18:46.0000000+00:00</time></trkpt><trkpt lat="34.9728813" lon="33.5829897"><ele>91.5</ele><time>2015-05-02T12:18:47.0000000+00:00</time></trkpt><trkpt lat="34.9728248" lon="33.5830144"><ele>91.2</ele><time>2015-05-02T12:18:48.0000000+00:00</time></trkpt><trkpt lat="34.9727729" lon="33.5830479"><ele>91.1</ele><time>2015-05-02T12:18:49.0000000+00:00</time></trkpt><trkpt lat="34.9727062" lon="33.5830791"><ele>91.1</ele><time>2015-05-02T12:18:50.0000000+00:00</time></trkpt><trkpt lat="34.9726492" lon="33.5831106"><ele>91.0</ele><time>2015-05-02T12:18:51.0000000+00:00</time></trkpt><trkpt lat="34.9725916" lon="33.5831435"><ele>90.5</ele><time>2015-05-02T12:18:52.0000000+00:00</time></trkpt><trkpt lat="34.9725405" lon="33.5831832"><ele>90.3</ele><time>2015-05-02T12:18:53.0000000+00:00</time></trkpt><trkpt lat="34.9724823" lon="33.5832185"><ele>90.1</ele><time>2015-05-02T12:18:54.0000000+00:00</time></trkpt><trkpt lat="34.9724293" lon="33.5832485"><ele>89.6</ele><time>2015-05-02T12:18:55.0000000+00:00</time></trkpt><trkpt lat="34.972376" lon="33.5832763"><ele>89.3</ele><time>2015-05-02T12:18:56.0000000+00:00</time></trkpt><trkpt lat="34.9723218" lon="33.5833008"><ele>89.2</ele><time>2015-05-02T12:18:57.0000000+00:00</time></trkpt><trkpt lat="34.972231" lon="33.5833425"><ele>89.1</ele><time>2015-05-02T12:18:59.0000000+00:00</time></trkpt><trkpt lat="34.9721741" lon="33.5833683"><ele>89.5</ele><time>2015-05-02T12:19:00.0000000+00:00</time></trkpt><trkpt lat="34.9721179" lon="33.5833996"><ele>89.8</ele><time>2015-05-02T12:19:01.0000000+00:00</time></trkpt><trkpt lat="34.9720696" lon="33.583422"><ele>89.9</ele><time>2015-05-02T12:19:02.0000000+00:00</time></trkpt><trkpt lat="34.9720285" lon="33.5834499"><ele>89.5</ele><time>2015-05-02T12:19:03.0000000+00:00</time></trkpt><trkpt lat="34.9719664" lon="33.5834829"><ele>89.2</ele><time>2015-05-02T12:19:04.0000000+00:00</time></trkpt><trkpt lat="34.9719169" lon="33.5835088"><ele>88.6</ele><time>2015-05-02T12:19:05.0000000+00:00</time></trkpt><trkpt lat="34.9718648" lon="33.5835354"><ele>88.3</ele><time>2015-05-02T12:19:06.0000000+00:00</time></trkpt><trkpt lat="34.9718105" lon="33.5835646"><ele>88.2</ele><time>2015-05-02T12:19:07.0000000+00:00</time></trkpt><trkpt lat="34.9717511" lon="33.5835981"><ele>88.1</ele><time>2015-05-02T12:19:08.0000000+00:00</time></trkpt><trkpt lat="34.9716953" lon="33.5836184"><ele>88.1</ele><time>2015-05-02T12:19:09.0000000+00:00</time></trkpt><trkpt lat="34.9716435" lon="33.5836384"><ele>88.0</ele><time>2015-05-02T12:19:10.0000000+00:00</time></trkpt><trkpt lat="34.9715445" lon="33.5836788"><ele>88.0</ele><time>2015-05-02T12:19:12.0000000+00:00</time></trkpt><trkpt lat="34.9714943" lon="33.5837036"><ele>88.0</ele><time>2015-05-02T12:19:13.0000000+00:00</time></trkpt><trkpt lat="34.971442" lon="33.5837342"><ele>87.5</ele><time>2015-05-02T12:19:14.0000000+00:00</time></trkpt><trkpt lat="34.9713949" lon="33.5837516"><ele>88.3</ele><time>2015-05-02T12:19:15.0000000+00:00</time></trkpt><trkpt lat="34.9713427" lon="33.5837814"><ele>88.1</ele><time>2015-05-02T12:19:16.0000000+00:00</time></trkpt><trkpt lat="34.9712906" lon="33.5838098"><ele>88.1</ele><time>2015-05-02T12:19:17.0000000+00:00</time></trkpt><trkpt lat="34.97124" lon="33.5838287"><ele>88.1</ele><time>2015-05-02T12:19:18.0000000+00:00</time></trkpt><trkpt lat="34.9711862" lon="33.5838572"><ele>87.5</ele><time>2015-05-02T12:19:19.0000000+00:00</time></trkpt><trkpt lat="34.9711244" lon="33.5838917"><ele>87.3</ele><time>2015-05-02T12:19:20.0000000+00:00</time></trkpt><trkpt lat="34.9710772" lon="33.5839242"><ele>86.6</ele><time>2015-05-02T12:19:21.0000000+00:00</time></trkpt><trkpt lat="34.9710219" lon="33.5839553"><ele>86.8</ele><time>2015-05-02T12:19:22.0000000+00:00</time></trkpt><trkpt lat="34.9709722" lon="33.5839742"><ele>86.4</ele><time>2015-05-02T12:19:23.0000000+00:00</time></trkpt><trkpt lat="34.9709118" lon="33.5839986"><ele>86.7</ele><time>2015-05-02T12:19:24.0000000+00:00</time></trkpt><trkpt lat="34.9708643" lon="33.5840279"><ele>86.9</ele><time>2015-05-02T12:19:25.0000000+00:00</time></trkpt><trkpt lat="34.970812" lon="33.5840623"><ele>86.9</ele><time>2015-05-02T12:19:26.0000000+00:00</time></trkpt><trkpt lat="34.97076" lon="33.5840892"><ele>86.5</ele><time>2015-05-02T12:19:27.0000000+00:00</time></trkpt><trkpt lat="34.9707069" lon="33.5841183"><ele>86.3</ele><time>2015-05-02T12:19:28.0000000+00:00</time></trkpt><trkpt lat="34.9706503" lon="33.5841485"><ele>85.6</ele><time>2015-05-02T12:19:29.0000000+00:00</time></trkpt><trkpt lat="34.9705996" lon="33.584166"><ele>85.3</ele><time>2015-05-02T12:19:30.0000000+00:00</time></trkpt><trkpt lat="34.9705538" lon="33.5841944"><ele>84.7</ele><time>2015-05-02T12:19:31.0000000+00:00</time></trkpt><trkpt lat="34.9704626" lon="33.584223"><ele>84.2</ele><time>2015-05-02T12:19:33.0000000+00:00</time></trkpt><trkpt lat="34.9703672" lon="33.5842582"><ele>83.6</ele><time>2015-05-02T12:19:35.0000000+00:00</time></trkpt><trkpt lat="34.9703166" lon="33.584275"><ele>83.3</ele><time>2015-05-02T12:19:36.0000000+00:00</time></trkpt><trkpt lat="34.9702666" lon="33.5842882"><ele>83.7</ele><time>2015-05-02T12:19:37.0000000+00:00</time></trkpt><trkpt lat="34.9702152" lon="33.584303"><ele>83.8</ele><time>2015-05-02T12:19:38.0000000+00:00</time></trkpt><trkpt lat="34.9701685" lon="33.5843061"><ele>83.9</ele><time>2015-05-02T12:19:39.0000000+00:00</time></trkpt><trkpt lat="34.9701105" lon="33.5843147"><ele>83.5</ele><time>2015-05-02T12:19:40.0000000+00:00</time></trkpt><trkpt lat="34.9700533" lon="33.584334"><ele>83.2</ele><time>2015-05-02T12:19:41.0000000+00:00</time></trkpt><trkpt lat="34.969987" lon="33.584344"><ele>82.6</ele><time>2015-05-02T12:19:42.0000000+00:00</time></trkpt><trkpt lat="34.9699249" lon="33.5843482"><ele>82.3</ele><time>2015-05-02T12:19:43.0000000+00:00</time></trkpt><trkpt lat="34.9698611" lon="33.5843612"><ele>82.2</ele><time>2015-05-02T12:19:44.0000000+00:00</time></trkpt><trkpt lat="34.969817" lon="33.5843801"><ele>82.6</ele><time>2015-05-02T12:19:45.0000000+00:00</time></trkpt><trkpt lat="34.969766" lon="33.5843859"><ele>82.3</ele><time>2015-05-02T12:19:46.0000000+00:00</time></trkpt><trkpt lat="34.9697123" lon="33.5843895"><ele>82.7</ele><time>2015-05-02T12:19:47.0000000+00:00</time></trkpt><trkpt lat="34.9696646" lon="33.5844001"><ele>82.8</ele><time>2015-05-02T12:19:48.0000000+00:00</time></trkpt><trkpt lat="34.9696126" lon="33.5844024"><ele>82.4</ele><time>2015-05-02T12:19:49.0000000+00:00</time></trkpt><trkpt lat="34.9695644" lon="33.5844018"><ele>82.7</ele><time>2015-05-02T12:19:50.0000000+00:00</time></trkpt><trkpt lat="34.9695083" lon="33.5844072"><ele>83.4</ele><time>2015-05-02T12:19:51.0000000+00:00</time></trkpt><trkpt lat="34.9694468" lon="33.5844067"><ele>83.2</ele><time>2015-05-02T12:19:52.0000000+00:00</time></trkpt><trkpt lat="34.9693861" lon="33.5844082"><ele>83.6</ele><time>2015-05-02T12:19:53.0000000+00:00</time></trkpt><trkpt lat="34.9693142" lon="33.5844126"><ele>83.8</ele><time>2015-05-02T12:19:54.0000000+00:00</time></trkpt><trkpt lat="34.9692495" lon="33.5844136"><ele>83.9</ele><time>2015-05-02T12:19:55.0000000+00:00</time></trkpt><trkpt lat="34.9691836" lon="33.5844125"><ele>83.5</ele><time>2015-05-02T12:19:56.0000000+00:00</time></trkpt><trkpt lat="34.969117" lon="33.5844032"><ele>82.7</ele><time>2015-05-02T12:19:57.0000000+00:00</time></trkpt><trkpt lat="34.969053" lon="33.5844058"><ele>82.4</ele><time>2015-05-02T12:19:58.0000000+00:00</time></trkpt><trkpt lat="34.9689971" lon="33.5843939"><ele>81.7</ele><time>2015-05-02T12:19:59.0000000+00:00</time></trkpt><trkpt lat="34.9689475" lon="33.5843917"><ele>81.4</ele><time>2015-05-02T12:20:00.0000000+00:00</time></trkpt><trkpt lat="34.9688944" lon="33.58439"><ele>81.2</ele><time>2015-05-02T12:20:01.0000000+00:00</time></trkpt><trkpt lat="34.9688366" lon="33.5843886"><ele>81.6</ele><time>2015-05-02T12:20:02.0000000+00:00</time></trkpt><trkpt lat="34.968786" lon="33.5843913"><ele>81.3</ele><time>2015-05-02T12:20:03.0000000+00:00</time></trkpt><trkpt lat="34.9687234" lon="33.5843923"><ele>80.7</ele><time>2015-05-02T12:20:04.0000000+00:00</time></trkpt><trkpt lat="34.9686628" lon="33.5843959"><ele>80.3</ele><time>2015-05-02T12:20:05.0000000+00:00</time></trkpt><trkpt lat="34.9686135" lon="33.5843925"><ele>79.7</ele><time>2015-05-02T12:20:06.0000000+00:00</time></trkpt><trkpt lat="34.9685537" lon="33.5843923"><ele>79.4</ele><time>2015-05-02T12:20:07.0000000+00:00</time></trkpt><trkpt lat="34.9684884" lon="33.5843989"><ele>79.7</ele><time>2015-05-02T12:20:08.0000000+00:00</time></trkpt><trkpt lat="34.9684268" lon="33.5843992"><ele>79.9</ele><time>2015-05-02T12:20:09.0000000+00:00</time></trkpt><trkpt lat="34.9683632" lon="33.5843954"><ele>79.9</ele><time>2015-05-02T12:20:10.0000000+00:00</time></trkpt><trkpt lat="34.9683064" lon="33.5843889"><ele>80.0</ele><time>2015-05-02T12:20:11.0000000+00:00</time></trkpt><trkpt lat="34.9682412" lon="33.5843927"><ele>80.0</ele><time>2015-05-02T12:20:12.0000000+00:00</time></trkpt><trkpt lat="34.9681765" lon="33.584397"><ele>80.0</ele><time>2015-05-02T12:20:13.0000000+00:00</time></trkpt><trkpt lat="34.9681229" lon="33.5844002"><ele>80.0</ele><time>2015-05-02T12:20:14.0000000+00:00</time></trkpt><trkpt lat="34.9680645" lon="33.5843967"><ele>80.5</ele><time>2015-05-02T12:20:15.0000000+00:00</time></trkpt><trkpt lat="34.9680117" lon="33.5843902"><ele>80.8</ele><time>2015-05-02T12:20:16.0000000+00:00</time></trkpt><trkpt lat="34.9679604" lon="33.5843906"><ele>80.9</ele><time>2015-05-02T12:20:17.0000000+00:00</time></trkpt><trkpt lat="34.9678714" lon="33.5844036"><ele>81.0</ele><time>2015-05-02T12:20:19.0000000+00:00</time></trkpt><trkpt lat="34.9678115" lon="33.5844123"><ele>81.0</ele><time>2015-05-02T12:20:20.0000000+00:00</time></trkpt><trkpt lat="34.9677647" lon="33.5844291"><ele>81.5</ele><time>2015-05-02T12:20:21.0000000+00:00</time></trkpt><trkpt lat="34.9677073" lon="33.5844326"><ele>81.8</ele><time>2015-05-02T12:20:22.0000000+00:00</time></trkpt><trkpt lat="34.967644" lon="33.5844369"><ele>81.9</ele><time>2015-05-02T12:20:23.0000000+00:00</time></trkpt><trkpt lat="34.96758" lon="33.5844373"><ele>82.0</ele><time>2015-05-02T12:20:24.0000000+00:00</time></trkpt><trkpt lat="34.9675191" lon="33.5844367"><ele>82.0</ele><time>2015-05-02T12:20:25.0000000+00:00</time></trkpt><trkpt lat="34.9674598" lon="33.5844424"><ele>82.0</ele><time>2015-05-02T12:20:26.0000000+00:00</time></trkpt><trkpt lat="34.9674041" lon="33.5844466"><ele>81.5</ele><time>2015-05-02T12:20:27.0000000+00:00</time></trkpt><trkpt lat="34.9673402" lon="33.5844615"><ele>81.8</ele><time>2015-05-02T12:20:28.0000000+00:00</time></trkpt><trkpt lat="34.9672848" lon="33.5844756"><ele>81.4</ele><time>2015-05-02T12:20:29.0000000+00:00</time></trkpt><trkpt lat="34.9672376" lon="33.5844891"><ele>81.2</ele><time>2015-05-02T12:20:30.0000000+00:00</time></trkpt><trkpt lat="34.9671853" lon="33.5845002"><ele>81.1</ele><time>2015-05-02T12:20:31.0000000+00:00</time></trkpt><trkpt lat="34.9670838" lon="33.5845314"><ele>81.3</ele><time>2015-05-02T12:20:33.0000000+00:00</time></trkpt><trkpt lat="34.9670269" lon="33.5845491"><ele>80.2</ele><time>2015-05-02T12:20:34.0000000+00:00</time></trkpt><trkpt lat="34.9669319" lon="33.5845763"><ele>78.8</ele><time>2015-05-02T12:20:36.0000000+00:00</time></trkpt><trkpt lat="34.9668843" lon="33.584592"><ele>78.9</ele><time>2015-05-02T12:20:37.0000000+00:00</time></trkpt><trkpt lat="34.9667999" lon="33.5846099"><ele>78.2</ele><time>2015-05-02T12:20:39.0000000+00:00</time></trkpt><trkpt lat="34.9667543" lon="33.5846197"><ele>78.6</ele><time>2015-05-02T12:20:40.0000000+00:00</time></trkpt><trkpt lat="34.9666722" lon="33.5846342"><ele>78.2</ele><time>2015-05-02T12:20:42.0000000+00:00</time></trkpt><trkpt lat="34.9665856" lon="33.5846512"><ele>77.6</ele><time>2015-05-02T12:20:44.0000000+00:00</time></trkpt><trkpt lat="34.9665398" lon="33.584665"><ele>77.8</ele><time>2015-05-02T12:20:45.0000000+00:00</time></trkpt><trkpt lat="34.966487" lon="33.5846719"><ele>77.9</ele><time>2015-05-02T12:20:46.0000000+00:00</time></trkpt><trkpt lat="34.9663918" lon="33.5846867"><ele>78.0</ele><time>2015-05-02T12:20:48.0000000+00:00</time></trkpt><trkpt lat="34.9663382" lon="33.5847017"><ele>78.0</ele><time>2015-05-02T12:20:49.0000000+00:00</time></trkpt><trkpt lat="34.9662834" lon="33.5847144"><ele>78.0</ele><time>2015-05-02T12:20:50.0000000+00:00</time></trkpt><trkpt lat="34.9662338" lon="33.5847235"><ele>78.0</ele><time>2015-05-02T12:20:51.0000000+00:00</time></trkpt><trkpt lat="34.9661766" lon="33.5847382"><ele>78.0</ele><time>2015-05-02T12:20:52.0000000+00:00</time></trkpt><trkpt lat="34.9661217" lon="33.5847523"><ele>78.0</ele><time>2015-05-02T12:20:53.0000000+00:00</time></trkpt><trkpt lat="34.9660599" lon="33.5847711"><ele>78.5</ele><time>2015-05-02T12:20:54.0000000+00:00</time></trkpt><trkpt lat="34.9659998" lon="33.5847861"><ele>78.3</ele><time>2015-05-02T12:20:55.0000000+00:00</time></trkpt><trkpt lat="34.9659422" lon="33.5847955"><ele>78.1</ele><time>2015-05-02T12:20:56.0000000+00:00</time></trkpt><trkpt lat="34.9658847" lon="33.5848005"><ele>78.1</ele><time>2015-05-02T12:20:57.0000000+00:00</time></trkpt><trkpt lat="34.9658313" lon="33.5848077"><ele>79.1</ele><time>2015-05-02T12:20:58.0000000+00:00</time></trkpt><trkpt lat="34.9657729" lon="33.5848097"><ele>80.0</ele><time>2015-05-02T12:20:59.0000000+00:00</time></trkpt><trkpt lat="34.9657044" lon="33.5848145"><ele>81.5</ele><time>2015-05-02T12:21:00.0000000+00:00</time></trkpt><trkpt lat="34.965644" lon="33.5848079"><ele>82.8</ele><time>2015-05-02T12:21:01.0000000+00:00</time></trkpt><trkpt lat="34.9655958" lon="33.5848236"><ele>83.9</ele><time>2015-05-02T12:21:02.0000000+00:00</time></trkpt><trkpt lat="34.9655383" lon="33.5848201"><ele>85.0</ele><time>2015-05-02T12:21:03.0000000+00:00</time></trkpt><trkpt lat="34.9654818" lon="33.5848147"><ele>84.5</ele><time>2015-05-02T12:21:04.0000000+00:00</time></trkpt><trkpt lat="34.9654274" lon="33.5848055"><ele>84.8</ele><time>2015-05-02T12:21:05.0000000+00:00</time></trkpt><trkpt lat="34.9653719" lon="33.5847968"><ele>84.9</ele><time>2015-05-02T12:21:06.0000000+00:00</time></trkpt><trkpt lat="34.9653199" lon="33.5847897"><ele>85.5</ele><time>2015-05-02T12:21:07.0000000+00:00</time></trkpt><trkpt lat="34.9652644" lon="33.5847796"><ele>85.7</ele><time>2015-05-02T12:21:08.0000000+00:00</time></trkpt><trkpt lat="34.9652121" lon="33.5847762"><ele>85.9</ele><time>2015-05-02T12:21:09.0000000+00:00</time></trkpt><trkpt lat="34.9651528" lon="33.5847692"><ele>84.5</ele><time>2015-05-02T12:21:10.0000000+00:00</time></trkpt><trkpt lat="34.9650935" lon="33.5847585"><ele>83.7</ele><time>2015-05-02T12:21:11.0000000+00:00</time></trkpt><trkpt lat="34.9650303" lon="33.5847481"><ele>83.4</ele><time>2015-05-02T12:21:12.0000000+00:00</time></trkpt><trkpt lat="34.964981" lon="33.5847518"><ele>83.2</ele><time>2015-05-02T12:21:13.0000000+00:00</time></trkpt><trkpt lat="34.9649112" lon="33.5847504"><ele>83.1</ele><time>2015-05-02T12:21:14.0000000+00:00</time></trkpt><trkpt lat="34.9648485" lon="33.5847518"><ele>83.1</ele><time>2015-05-02T12:21:15.0000000+00:00</time></trkpt><trkpt lat="34.9648033" lon="33.5847307"><ele>83.0</ele><time>2015-05-02T12:21:16.0000000+00:00</time></trkpt><trkpt lat="34.9647397" lon="33.5847287"><ele>82.5</ele><time>2015-05-02T12:21:17.0000000+00:00</time></trkpt><trkpt lat="34.9646847" lon="33.5847279"><ele>82.3</ele><time>2015-05-02T12:21:18.0000000+00:00</time></trkpt><trkpt lat="34.9646375" lon="33.5847129"><ele>81.6</ele><time>2015-05-02T12:21:19.0000000+00:00</time></trkpt><trkpt lat="34.9645802" lon="33.5847162"><ele>80.8</ele><time>2015-05-02T12:21:20.0000000+00:00</time></trkpt><trkpt lat="34.9645227" lon="33.5847"><ele>80.9</ele><time>2015-05-02T12:21:21.0000000+00:00</time></trkpt><trkpt lat="34.964469" lon="33.5846955"><ele>80.5</ele><time>2015-05-02T12:21:22.0000000+00:00</time></trkpt><trkpt lat="34.9644164" lon="33.584689"><ele>80.2</ele><time>2015-05-02T12:21:23.0000000+00:00</time></trkpt><trkpt lat="34.9643709" lon="33.5846846"><ele>79.6</ele><time>2015-05-02T12:21:24.0000000+00:00</time></trkpt><trkpt lat="34.9643243" lon="33.584667"><ele>79.3</ele><time>2015-05-02T12:21:25.0000000+00:00</time></trkpt><trkpt lat="34.9642715" lon="33.5846588"><ele>78.7</ele><time>2015-05-02T12:21:26.0000000+00:00</time></trkpt><trkpt lat="34.9642238" lon="33.5846429"><ele>78.3</ele><time>2015-05-02T12:21:27.0000000+00:00</time></trkpt><trkpt lat="34.9641651" lon="33.5846278"><ele>77.2</ele><time>2015-05-02T12:21:28.0000000+00:00</time></trkpt><trkpt lat="34.9641097" lon="33.5846057"><ele>76.6</ele><time>2015-05-02T12:21:29.0000000+00:00</time></trkpt><trkpt lat="34.9640617" lon="33.5845744"><ele>75.8</ele><time>2015-05-02T12:21:30.0000000+00:00</time></trkpt><trkpt lat="34.9640117" lon="33.5845491"><ele>74.9</ele><time>2015-05-02T12:21:31.0000000+00:00</time></trkpt><trkpt lat="34.9639503" lon="33.5845213"><ele>74.5</ele><time>2015-05-02T12:21:32.0000000+00:00</time></trkpt><trkpt lat="34.9638957" lon="33.5844875"><ele>74.2</ele><time>2015-05-02T12:21:33.0000000+00:00</time></trkpt><trkpt lat="34.9638427" lon="33.5844564"><ele>73.6</ele><time>2015-05-02T12:21:34.0000000+00:00</time></trkpt><trkpt lat="34.9637885" lon="33.5844176"><ele>73.3</ele><time>2015-05-02T12:21:35.0000000+00:00</time></trkpt><trkpt lat="34.9637353" lon="33.5843863"><ele>73.2</ele><time>2015-05-02T12:21:36.0000000+00:00</time></trkpt><trkpt lat="34.9636853" lon="33.584354"><ele>73.6</ele><time>2015-05-02T12:21:37.0000000+00:00</time></trkpt><trkpt lat="34.9636334" lon="33.5843286"><ele>73.3</ele><time>2015-05-02T12:21:38.0000000+00:00</time></trkpt><trkpt lat="34.9635812" lon="33.5843058"><ele>73.2</ele><time>2015-05-02T12:21:39.0000000+00:00</time></trkpt><trkpt lat="34.9635302" lon="33.5842823"><ele>73.1</ele><time>2015-05-02T12:21:40.0000000+00:00</time></trkpt><trkpt lat="34.9634735" lon="33.5842545"><ele>73.1</ele><time>2015-05-02T12:21:41.0000000+00:00</time></trkpt><trkpt lat="34.9634202" lon="33.5842399"><ele>73.0</ele><time>2015-05-02T12:21:42.0000000+00:00</time></trkpt><trkpt lat="34.9633714" lon="33.5842205"><ele>72.5</ele><time>2015-05-02T12:21:43.0000000+00:00</time></trkpt><trkpt lat="34.96332" lon="33.5842074"><ele>72.3</ele><time>2015-05-02T12:21:44.0000000+00:00</time></trkpt><trkpt lat="34.9632723" lon="33.5841904"><ele>72.1</ele><time>2015-05-02T12:21:45.0000000+00:00</time></trkpt><trkpt lat="34.9631828" lon="33.5841855"><ele>72.8</ele><time>2015-05-02T12:21:47.0000000+00:00</time></trkpt><trkpt lat="34.9631289" lon="33.5841877"><ele>72.4</ele><time>2015-05-02T12:21:48.0000000+00:00</time></trkpt><trkpt lat="34.9630682" lon="33.5841932"><ele>71.7</ele><time>2015-05-02T12:21:49.0000000+00:00</time></trkpt><trkpt lat="34.963013" lon="33.5841914"><ele>71.9</ele><time>2015-05-02T12:21:50.0000000+00:00</time></trkpt><trkpt lat="34.9629629" lon="33.5841989"><ele>71.9</ele><time>2015-05-02T12:21:51.0000000+00:00</time></trkpt><trkpt lat="34.9629042" lon="33.5842025"><ele>72.0</ele><time>2015-05-02T12:21:52.0000000+00:00</time></trkpt><trkpt lat="34.9628458" lon="33.5842114"><ele>71.5</ele><time>2015-05-02T12:21:53.0000000+00:00</time></trkpt><trkpt lat="34.9627915" lon="33.5842181"><ele>71.3</ele><time>2015-05-02T12:21:54.0000000+00:00</time></trkpt><trkpt lat="34.9627345" lon="33.5842288"><ele>71.1</ele><time>2015-05-02T12:21:55.0000000+00:00</time></trkpt><trkpt lat="34.9626725" lon="33.584247"><ele>71.1</ele><time>2015-05-02T12:21:56.0000000+00:00</time></trkpt><trkpt lat="34.9626207" lon="33.5842592"><ele>70.6</ele><time>2015-05-02T12:21:57.0000000+00:00</time></trkpt><trkpt lat="34.9625609" lon="33.5842716"><ele>70.3</ele><time>2015-05-02T12:21:58.0000000+00:00</time></trkpt><trkpt lat="34.9624969" lon="33.584283"><ele>70.7</ele><time>2015-05-02T12:21:59.0000000+00:00</time></trkpt><trkpt lat="34.9624377" lon="33.5842852"><ele>70.8</ele><time>2015-05-02T12:22:00.0000000+00:00</time></trkpt><trkpt lat="34.9623908" lon="33.5842924"><ele>71.4</ele><time>2015-05-02T12:22:01.0000000+00:00</time></trkpt><trkpt lat="34.9623355" lon="33.5843055"><ele>71.7</ele><time>2015-05-02T12:22:02.0000000+00:00</time></trkpt><trkpt lat="34.9622531" lon="33.58433"><ele>71.4</ele><time>2015-05-02T12:22:04.0000000+00:00</time></trkpt><trkpt lat="34.962194" lon="33.5843446"><ele>71.2</ele><time>2015-05-02T12:22:05.0000000+00:00</time></trkpt><trkpt lat="34.9621095" lon="33.5843524"><ele>71.1</ele><time>2015-05-02T12:22:07.0000000+00:00</time></trkpt><trkpt lat="34.9620564" lon="33.5843477"><ele>71.0</ele><time>2015-05-02T12:22:08.0000000+00:00</time></trkpt><trkpt lat="34.9620846" lon="33.5844211"><ele>72.0</ele><time>2015-05-02T12:22:09.0000000+00:00</time></trkpt><trkpt lat="34.9619798" lon="33.584407"><ele>71.5</ele><time>2015-05-02T12:22:10.0000000+00:00</time></trkpt><trkpt lat="34.9618752" lon="33.5844285"><ele>69.6</ele><time>2015-05-02T12:22:12.0000000+00:00</time></trkpt><trkpt lat="34.9618168" lon="33.5844454"><ele>69.3</ele><time>2015-05-02T12:22:13.0000000+00:00</time></trkpt><trkpt lat="34.9617649" lon="33.5844526"><ele>68.7</ele><time>2015-05-02T12:22:14.0000000+00:00</time></trkpt><trkpt lat="34.9617118" lon="33.5844576"><ele>68.8</ele><time>2015-05-02T12:22:15.0000000+00:00</time></trkpt><trkpt lat="34.9616515" lon="33.5844636"><ele>68.9</ele><time>2015-05-02T12:22:16.0000000+00:00</time></trkpt><trkpt lat="34.961603" lon="33.5844698"><ele>69.0</ele><time>2015-05-02T12:22:17.0000000+00:00</time></trkpt><trkpt lat="34.9615537" lon="33.5844726"><ele>68.5</ele><time>2015-05-02T12:22:18.0000000+00:00</time></trkpt><trkpt lat="34.9615092" lon="33.5844819"><ele>67.8</ele><time>2015-05-02T12:22:19.0000000+00:00</time></trkpt><trkpt lat="34.9614557" lon="33.5844907"><ele>67.4</ele><time>2015-05-02T12:22:20.0000000+00:00</time></trkpt><trkpt lat="34.9614033" lon="33.5844984"><ele>67.2</ele><time>2015-05-02T12:22:21.0000000+00:00</time></trkpt><trkpt lat="34.961354" lon="33.5845073"><ele>66.6</ele><time>2015-05-02T12:22:22.0000000+00:00</time></trkpt><trkpt lat="34.9613022" lon="33.5845124"><ele>66.8</ele><time>2015-05-02T12:22:23.0000000+00:00</time></trkpt><trkpt lat="34.9612433" lon="33.5845171"><ele>66.4</ele><time>2015-05-02T12:22:24.0000000+00:00</time></trkpt><trkpt lat="34.9611977" lon="33.5845247"><ele>66.7</ele><time>2015-05-02T12:22:25.0000000+00:00</time></trkpt><trkpt lat="34.961145" lon="33.5845291"><ele>66.9</ele><time>2015-05-02T12:22:26.0000000+00:00</time></trkpt><trkpt lat="34.9610575" lon="33.5845475"><ele>66.7</ele><time>2015-05-02T12:22:28.0000000+00:00</time></trkpt><trkpt lat="34.9610114" lon="33.5845537"><ele>66.4</ele><time>2015-05-02T12:22:29.0000000+00:00</time></trkpt><trkpt lat="34.9609312" lon="33.584569"><ele>66.1</ele><time>2015-05-02T12:22:31.0000000+00:00</time></trkpt><trkpt lat="34.9608621" lon="33.5845748"><ele>66.0</ele><time>2015-05-02T12:22:33.0000000+00:00</time></trkpt><trkpt lat="34.9608043" lon="33.5845878"><ele>66.0</ele><time>2015-05-02T12:22:35.0000000+00:00</time></trkpt><trkpt lat="34.9607248" lon="33.5845944"><ele>65.5</ele><time>2015-05-02T12:22:37.0000000+00:00</time></trkpt><trkpt lat="34.960655" lon="33.5846008"><ele>65.6</ele><time>2015-05-02T12:22:39.0000000+00:00</time></trkpt><trkpt lat="34.9605813" lon="33.5846011"><ele>65.9</ele><time>2015-05-02T12:22:41.0000000+00:00</time></trkpt><trkpt lat="34.9605104" lon="33.5846113"><ele>65.5</ele><time>2015-05-02T12:22:43.0000000+00:00</time></trkpt><trkpt lat="34.9604387" lon="33.5846315"><ele>65.1</ele><time>2015-05-02T12:22:45.0000000+00:00</time></trkpt><trkpt lat="34.960375" lon="33.584642"><ele>64.8</ele><time>2015-05-02T12:22:47.0000000+00:00</time></trkpt><trkpt lat="34.9603162" lon="33.5846394"><ele>65.5</ele><time>2015-05-02T12:22:49.0000000+00:00</time></trkpt><trkpt lat="34.9602608" lon="33.5846378"><ele>65.9</ele><time>2015-05-02T12:22:51.0000000+00:00</time></trkpt><trkpt lat="34.9602019" lon="33.5846464"><ele>67.5</ele><time>2015-05-02T12:22:53.0000000+00:00</time></trkpt><trkpt lat="34.9601457" lon="33.5846529"><ele>68.1</ele><time>2015-05-02T12:22:55.0000000+00:00</time></trkpt><trkpt lat="34.9600847" lon="33.5846582"><ele>69.3</ele><time>2015-05-02T12:22:57.0000000+00:00</time></trkpt><trkpt lat="34.9600181" lon="33.5846593"><ele>70.1</ele><time>2015-05-02T12:22:59.0000000+00:00</time></trkpt><trkpt lat="34.959959" lon="33.5846638"><ele>70.1</ele><time>2015-05-02T12:23:00.0000000+00:00</time></trkpt><trkpt lat="34.9599086" lon="33.5846606"><ele>70.0</ele><time>2015-05-02T12:23:01.0000000+00:00</time></trkpt><trkpt lat="34.9598559" lon="33.584665"><ele>70.0</ele><time>2015-05-02T12:23:02.0000000+00:00</time></trkpt><trkpt lat="34.9597995" lon="33.5846656"><ele>70.0</ele><time>2015-05-02T12:23:03.0000000+00:00</time></trkpt><trkpt lat="34.9597452" lon="33.5846694"><ele>70.0</ele><time>2015-05-02T12:23:04.0000000+00:00</time></trkpt><trkpt lat="34.9597001" lon="33.5846846"><ele>70.0</ele><time>2015-05-02T12:23:05.0000000+00:00</time></trkpt><trkpt lat="34.9596539" lon="33.584691"><ele>70.0</ele><time>2015-05-02T12:23:06.0000000+00:00</time></trkpt><trkpt lat="34.9596086" lon="33.5846943"><ele>70.0</ele><time>2015-05-02T12:23:07.0000000+00:00</time></trkpt><trkpt lat="34.9595615" lon="33.5847028"><ele>70.0</ele><time>2015-05-02T12:23:08.0000000+00:00</time></trkpt><trkpt lat="34.959471" lon="33.5847284"><ele>69.3</ele><time>2015-05-02T12:23:10.0000000+00:00</time></trkpt><trkpt lat="34.9594254" lon="33.584744"><ele>69.1</ele><time>2015-05-02T12:23:11.0000000+00:00</time></trkpt><trkpt lat="34.9593817" lon="33.5847665"><ele>69.1</ele><time>2015-05-02T12:23:12.0000000+00:00</time></trkpt><trkpt lat="34.9593396" lon="33.5847911"><ele>69.1</ele><time>2015-05-02T12:23:13.0000000+00:00</time></trkpt><trkpt lat="34.9592926" lon="33.5848261"><ele>69.0</ele><time>2015-05-02T12:23:14.0000000+00:00</time></trkpt><trkpt lat="34.9592487" lon="33.5848653"><ele>69.0</ele><time>2015-05-02T12:23:15.0000000+00:00</time></trkpt><trkpt lat="34.9591932" lon="33.5848984"><ele>68.5</ele><time>2015-05-02T12:23:16.0000000+00:00</time></trkpt><trkpt lat="34.959143" lon="33.584937"><ele>68.3</ele><time>2015-05-02T12:23:17.0000000+00:00</time></trkpt><trkpt lat="34.959095" lon="33.584969"><ele>68.1</ele><time>2015-05-02T12:23:18.0000000+00:00</time></trkpt><trkpt lat="34.9590489" lon="33.5850026"><ele>68.1</ele><time>2015-05-02T12:23:19.0000000+00:00</time></trkpt><trkpt lat="34.9589998" lon="33.5850363"><ele>68.1</ele><time>2015-05-02T12:23:20.0000000+00:00</time></trkpt><trkpt lat="34.9589567" lon="33.5850749"><ele>68.0</ele><time>2015-05-02T12:23:21.0000000+00:00</time></trkpt><trkpt lat="34.9589201" lon="33.5851099"><ele>67.5</ele><time>2015-05-02T12:23:22.0000000+00:00</time></trkpt><trkpt lat="34.9588425" lon="33.5851682"><ele>68.4</ele><time>2015-05-02T12:23:24.0000000+00:00</time></trkpt><trkpt lat="34.9588007" lon="33.5852011"><ele>68.7</ele><time>2015-05-02T12:23:25.0000000+00:00</time></trkpt><trkpt lat="34.9587222" lon="33.5852595"><ele>68.9</ele><time>2015-05-02T12:23:27.0000000+00:00</time></trkpt><trkpt lat="34.9586515" lon="33.5853133"><ele>68.3</ele><time>2015-05-02T12:23:29.0000000+00:00</time></trkpt><trkpt lat="34.9586111" lon="33.5853462"><ele>68.1</ele><time>2015-05-02T12:23:30.0000000+00:00</time></trkpt><trkpt lat="34.9585693" lon="33.5853791"><ele>68.1</ele><time>2015-05-02T12:23:31.0000000+00:00</time></trkpt><trkpt lat="34.95853" lon="33.5854195"><ele>68.0</ele><time>2015-05-02T12:23:32.0000000+00:00</time></trkpt><trkpt lat="34.9584842" lon="33.5854477"><ele>67.5</ele><time>2015-05-02T12:23:33.0000000+00:00</time></trkpt><trkpt lat="34.9584441" lon="33.5854742"><ele>66.8</ele><time>2015-05-02T12:23:34.0000000+00:00</time></trkpt><trkpt lat="34.9583962" lon="33.5855072"><ele>66.4</ele><time>2015-05-02T12:23:35.0000000+00:00</time></trkpt><trkpt lat="34.9583468" lon="33.5855342"><ele>66.2</ele><time>2015-05-02T12:23:36.0000000+00:00</time></trkpt><trkpt lat="34.9582661" lon="33.5855898"><ele>66.1</ele><time>2015-05-02T12:23:38.0000000+00:00</time></trkpt><trkpt lat="34.9581781" lon="33.5856446"><ele>65.3</ele><time>2015-05-02T12:23:40.0000000+00:00</time></trkpt><trkpt lat="34.9581341" lon="33.5856732"><ele>64.7</ele><time>2015-05-02T12:23:41.0000000+00:00</time></trkpt><trkpt lat="34.9580884" lon="33.5857078"><ele>64.8</ele><time>2015-05-02T12:23:42.0000000+00:00</time></trkpt><trkpt lat="34.9580421" lon="33.5857368"><ele>64.9</ele><time>2015-05-02T12:23:43.0000000+00:00</time></trkpt><trkpt lat="34.9579926" lon="33.585769"><ele>65.5</ele><time>2015-05-02T12:23:44.0000000+00:00</time></trkpt><trkpt lat="34.9579483" lon="33.5857846"><ele>66.7</ele><time>2015-05-02T12:23:45.0000000+00:00</time></trkpt><trkpt lat="34.9579034" lon="33.5858147"><ele>66.9</ele><time>2015-05-02T12:23:46.0000000+00:00</time></trkpt><trkpt lat="34.9578593" lon="33.5858408"><ele>67.0</ele><time>2015-05-02T12:23:47.0000000+00:00</time></trkpt><trkpt lat="34.9578128" lon="33.5858757"><ele>67.5</ele><time>2015-05-02T12:23:48.0000000+00:00</time></trkpt><trkpt lat="34.9577708" lon="33.5859026"><ele>67.8</ele><time>2015-05-02T12:23:49.0000000+00:00</time></trkpt><trkpt lat="34.9577288" lon="33.58593"><ele>67.4</ele><time>2015-05-02T12:23:50.0000000+00:00</time></trkpt><trkpt lat="34.9576835" lon="33.5859527"><ele>67.2</ele><time>2015-05-02T12:23:51.0000000+00:00</time></trkpt><trkpt lat="34.9576102" lon="33.5860007"><ele>67.1</ele><time>2015-05-02T12:23:53.0000000+00:00</time></trkpt><trkpt lat="34.9575677" lon="33.5860244"><ele>67.0</ele><time>2015-05-02T12:23:54.0000000+00:00</time></trkpt><trkpt lat="34.957494" lon="33.5860682"><ele>66.3</ele><time>2015-05-02T12:23:56.0000000+00:00</time></trkpt><trkpt lat="34.9574425" lon="33.586098"><ele>65.6</ele><time>2015-05-02T12:23:57.0000000+00:00</time></trkpt><trkpt lat="34.9573575" lon="33.5861397"><ele>65.7</ele><time>2015-05-02T12:23:59.0000000+00:00</time></trkpt><trkpt lat="34.9572882" lon="33.5861779"><ele>65.2</ele><time>2015-05-02T12:24:01.0000000+00:00</time></trkpt><trkpt lat="34.9572135" lon="33.5862124"><ele>65.6</ele><time>2015-05-02T12:24:03.0000000+00:00</time></trkpt><trkpt lat="34.9571682" lon="33.5862385"><ele>65.8</ele><time>2015-05-02T12:24:04.0000000+00:00</time></trkpt><trkpt lat="34.9571016" lon="33.5862747"><ele>65.5</ele><time>2015-05-02T12:24:06.0000000+00:00</time></trkpt><trkpt lat="34.9570348" lon="33.5863112"><ele>64.9</ele><time>2015-05-02T12:24:08.0000000+00:00</time></trkpt><trkpt lat="34.9569514" lon="33.5863418"><ele>66.2</ele><time>2015-05-02T12:24:10.0000000+00:00</time></trkpt><trkpt lat="34.9568722" lon="33.5863823"><ele>66.8</ele><time>2015-05-02T12:24:12.0000000+00:00</time></trkpt><trkpt lat="34.9567824" lon="33.5864224"><ele>67.0</ele><time>2015-05-02T12:24:14.0000000+00:00</time></trkpt><trkpt lat="34.9567324" lon="33.5864558"><ele>66.5</ele><time>2015-05-02T12:24:15.0000000+00:00</time></trkpt><trkpt lat="34.9566832" lon="33.5864684"><ele>65.8</ele><time>2015-05-02T12:24:16.0000000+00:00</time></trkpt><trkpt lat="34.9566379" lon="33.5864954"><ele>65.4</ele><time>2015-05-02T12:24:17.0000000+00:00</time></trkpt><trkpt lat="34.9565829" lon="33.5865273"><ele>64.7</ele><time>2015-05-02T12:24:18.0000000+00:00</time></trkpt><trkpt lat="34.9565304" lon="33.5865518"><ele>64.4</ele><time>2015-05-02T12:24:19.0000000+00:00</time></trkpt><trkpt lat="34.9564751" lon="33.5865706"><ele>63.7</ele><time>2015-05-02T12:24:20.0000000+00:00</time></trkpt><trkpt lat="34.956419" lon="33.5866034"><ele>63.9</ele><time>2015-05-02T12:24:21.0000000+00:00</time></trkpt><trkpt lat="34.9563767" lon="33.5866279"><ele>63.9</ele><time>2015-05-02T12:24:22.0000000+00:00</time></trkpt><trkpt lat="34.9563222" lon="33.5866622"><ele>64.0</ele><time>2015-05-02T12:24:23.0000000+00:00</time></trkpt><trkpt lat="34.9562737" lon="33.5866917"><ele>64.0</ele><time>2015-05-02T12:24:24.0000000+00:00</time></trkpt><trkpt lat="34.9562205" lon="33.586726"><ele>63.5</ele><time>2015-05-02T12:24:25.0000000+00:00</time></trkpt><trkpt lat="34.9561728" lon="33.5867524"><ele>63.8</ele><time>2015-05-02T12:24:26.0000000+00:00</time></trkpt><trkpt lat="34.9561307" lon="33.5867841"><ele>63.9</ele><time>2015-05-02T12:24:27.0000000+00:00</time></trkpt><trkpt lat="34.9560862" lon="33.5868223"><ele>63.5</ele><time>2015-05-02T12:24:28.0000000+00:00</time></trkpt><trkpt lat="34.9560451" lon="33.5868446"><ele>63.2</ele><time>2015-05-02T12:24:29.0000000+00:00</time></trkpt><trkpt lat="34.9559615" lon="33.586894"><ele>63.8</ele><time>2015-05-02T12:24:31.0000000+00:00</time></trkpt><trkpt lat="34.955914" lon="33.5869297"><ele>63.4</ele><time>2015-05-02T12:24:32.0000000+00:00</time></trkpt><trkpt lat="34.955878" lon="33.5869701"><ele>63.7</ele><time>2015-05-02T12:24:33.0000000+00:00</time></trkpt><trkpt lat="34.9558392" lon="33.5870101"><ele>63.4</ele><time>2015-05-02T12:24:34.0000000+00:00</time></trkpt><trkpt lat="34.9557966" lon="33.5870454"><ele>63.2</ele><time>2015-05-02T12:24:35.0000000+00:00</time></trkpt><trkpt lat="34.9557497" lon="33.5870854"><ele>63.6</ele><time>2015-05-02T12:24:36.0000000+00:00</time></trkpt><trkpt lat="34.9557053" lon="33.5871242"><ele>63.8</ele><time>2015-05-02T12:24:37.0000000+00:00</time></trkpt><trkpt lat="34.9556609" lon="33.5871636"><ele>63.4</ele><time>2015-05-02T12:24:38.0000000+00:00</time></trkpt><trkpt lat="34.9556134" lon="33.5872018"><ele>63.2</ele><time>2015-05-02T12:24:39.0000000+00:00</time></trkpt><trkpt lat="34.9555711" lon="33.5872377"><ele>62.6</ele><time>2015-05-02T12:24:40.0000000+00:00</time></trkpt><trkpt lat="34.9555023" lon="33.5873114"><ele>62.2</ele><time>2015-05-02T12:24:42.0000000+00:00</time></trkpt><trkpt lat="34.9554399" lon="33.5873822"><ele>60.8</ele><time>2015-05-02T12:24:44.0000000+00:00</time></trkpt><trkpt lat="34.955374" lon="33.5874415"><ele>60.5</ele><time>2015-05-02T12:24:46.0000000+00:00</time></trkpt><trkpt lat="34.9553394" lon="33.5874898"><ele>59.7</ele><time>2015-05-02T12:24:47.0000000+00:00</time></trkpt><trkpt lat="34.9552888" lon="33.5875388"><ele>59.4</ele><time>2015-05-02T12:24:48.0000000+00:00</time></trkpt><trkpt lat="34.9552439" lon="33.5875872"><ele>60.2</ele><time>2015-05-02T12:24:49.0000000+00:00</time></trkpt><trkpt lat="34.955208" lon="33.5876421"><ele>60.6</ele><time>2015-05-02T12:24:50.0000000+00:00</time></trkpt><trkpt lat="34.9551742" lon="33.5876972"><ele>60.8</ele><time>2015-05-02T12:24:51.0000000+00:00</time></trkpt><trkpt lat="34.9551276" lon="33.5877558"><ele>60.9</ele><time>2015-05-02T12:24:52.0000000+00:00</time></trkpt><trkpt lat="34.9550895" lon="33.5878124"><ele>61.0</ele><time>2015-05-02T12:24:53.0000000+00:00</time></trkpt><trkpt lat="34.9550477" lon="33.5878608"><ele>61.0</ele><time>2015-05-02T12:24:54.0000000+00:00</time></trkpt><trkpt lat="34.9550097" lon="33.5879042"><ele>61.0</ele><time>2015-05-02T12:24:55.0000000+00:00</time></trkpt><trkpt lat="34.9549689" lon="33.5879491"><ele>61.0</ele><time>2015-05-02T12:24:56.0000000+00:00</time></trkpt><trkpt lat="34.9549257" lon="33.5879852"><ele>60.5</ele><time>2015-05-02T12:24:57.0000000+00:00</time></trkpt><trkpt lat="34.9548852" lon="33.5880224"><ele>60.3</ele><time>2015-05-02T12:24:58.0000000+00:00</time></trkpt><trkpt lat="34.9548167" lon="33.5880883"><ele>60.1</ele><time>2015-05-02T12:25:00.0000000+00:00</time></trkpt><trkpt lat="34.9547578" lon="33.5881561"><ele>60.8</ele><time>2015-05-02T12:25:02.0000000+00:00</time></trkpt><trkpt lat="34.9547099" lon="33.5882217"><ele>61.0</ele><time>2015-05-02T12:25:04.0000000+00:00</time></trkpt><trkpt lat="34.9546706" lon="33.5882572"><ele>60.1</ele><time>2015-05-02T12:25:07.0000000+00:00</time></trkpt><trkpt lat="34.9546019" lon="33.5882806"><ele>60.7</ele><time>2015-05-02T12:25:10.0000000+00:00</time></trkpt><trkpt lat="34.9545484" lon="33.5883177"><ele>60.9</ele><time>2015-05-02T12:25:12.0000000+00:00</time></trkpt><trkpt lat="34.9544997" lon="33.5883631"><ele>59.5</ele><time>2015-05-02T12:25:14.0000000+00:00</time></trkpt><trkpt lat="34.9544506" lon="33.5884046"><ele>58.6</ele><time>2015-05-02T12:25:16.0000000+00:00</time></trkpt><trkpt lat="34.9543953" lon="33.5884371"><ele>57.7</ele><time>2015-05-02T12:25:18.0000000+00:00</time></trkpt><trkpt lat="34.9543407" lon="33.5884726"><ele>57.7</ele><time>2015-05-02T12:25:20.0000000+00:00</time></trkpt><trkpt lat="34.9542918" lon="33.5885133"><ele>57.9</ele><time>2015-05-02T12:25:22.0000000+00:00</time></trkpt><trkpt lat="34.9542429" lon="33.5885443"><ele>57.2</ele><time>2015-05-02T12:25:24.0000000+00:00</time></trkpt><trkpt lat="34.9541903" lon="33.5885661"><ele>58.6</ele><time>2015-05-02T12:25:26.0000000+00:00</time></trkpt><trkpt lat="34.9541442" lon="33.5885976"><ele>59.4</ele><time>2015-05-02T12:25:28.0000000+00:00</time></trkpt><trkpt lat="34.9541071" lon="33.5886337"><ele>58.9</ele><time>2015-05-02T12:25:30.0000000+00:00</time></trkpt><trkpt lat="34.9540628" lon="33.5886623"><ele>59.0</ele><time>2015-05-02T12:25:32.0000000+00:00</time></trkpt><trkpt lat="34.9540095" lon="33.5887099"><ele>61.8</ele><time>2015-05-02T12:25:35.0000000+00:00</time></trkpt><trkpt lat="34.9539735" lon="33.5887505"><ele>62.7</ele><time>2015-05-02T12:25:37.0000000+00:00</time></trkpt><trkpt lat="34.9539467" lon="33.5888271"><ele>64.2</ele><time>2015-05-02T12:25:40.0000000+00:00</time></trkpt><trkpt lat="34.953936" lon="33.5888872"><ele>65.3</ele><time>2015-05-02T12:25:42.0000000+00:00</time></trkpt><trkpt lat="34.9539291" lon="33.5889478"><ele>65.8</ele><time>2015-05-02T12:25:44.0000000+00:00</time></trkpt><trkpt lat="34.9539265" lon="33.589006"><ele>66.0</ele><time>2015-05-02T12:25:47.0000000+00:00</time></trkpt><trkpt lat="34.9538981" lon="33.589072"><ele>66.5</ele><time>2015-05-02T12:25:50.0000000+00:00</time></trkpt><trkpt lat="34.9538739" lon="33.5891208"><ele>65.9</ele><time>2015-05-02T12:25:52.0000000+00:00</time></trkpt><trkpt lat="34.9538488" lon="33.5891681"><ele>66.2</ele><time>2015-05-02T12:25:54.0000000+00:00</time></trkpt><trkpt lat="34.9538217" lon="33.5892152"><ele>68.1</ele><time>2015-05-02T12:25:56.0000000+00:00</time></trkpt><trkpt lat="34.9537943" lon="33.5892622"><ele>68.3</ele><time>2015-05-02T12:25:58.0000000+00:00</time></trkpt><trkpt lat="34.9537684" lon="33.5893153"><ele>68.1</ele><time>2015-05-02T12:26:00.0000000+00:00</time></trkpt><trkpt lat="34.9537393" lon="33.5893695"><ele>68.0</ele><time>2015-05-02T12:26:02.0000000+00:00</time></trkpt><trkpt lat="34.9537029" lon="33.5894106"><ele>67.8</ele><time>2015-05-02T12:26:04.0000000+00:00</time></trkpt><trkpt lat="34.9536613" lon="33.5894664"><ele>65.9</ele><time>2015-05-02T12:26:07.0000000+00:00</time></trkpt><trkpt lat="34.9536333" lon="33.5895346"><ele>64.3</ele><time>2015-05-02T12:26:10.0000000+00:00</time></trkpt><trkpt lat="34.9535971" lon="33.589589"><ele>63.8</ele><time>2015-05-02T12:26:13.0000000+00:00</time></trkpt><trkpt lat="34.9535602" lon="33.5896215"><ele>63.1</ele><time>2015-05-02T12:26:17.0000000+00:00</time></trkpt><trkpt lat="34.9535184" lon="33.5896656"><ele>62.7</ele><time>2015-05-02T12:26:21.0000000+00:00</time></trkpt><trkpt lat="34.9534886" lon="33.5897254"><ele>64.4</ele><time>2015-05-02T12:26:23.0000000+00:00</time></trkpt><trkpt lat="34.9534568" lon="33.5897937"><ele>65.6</ele><time>2015-05-02T12:26:25.0000000+00:00</time></trkpt><trkpt lat="34.9534274" lon="33.5898639"><ele>65.9</ele><time>2015-05-02T12:26:27.0000000+00:00</time></trkpt><trkpt lat="34.953397" lon="33.5899255"><ele>66.0</ele><time>2015-05-02T12:26:29.0000000+00:00</time></trkpt><trkpt lat="34.9533631" lon="33.5899817"><ele>66.6</ele><time>2015-05-02T12:26:32.0000000+00:00</time></trkpt><trkpt lat="34.9533229" lon="33.590012"><ele>70.0</ele><time>2015-05-02T12:26:46.0000000+00:00</time></trkpt><trkpt lat="34.9532681" lon="33.5900572"><ele>68.8</ele><time>2015-05-02T12:26:49.0000000+00:00</time></trkpt><trkpt lat="34.953214" lon="33.5900945"><ele>66.5</ele><time>2015-05-02T12:26:51.0000000+00:00</time></trkpt><trkpt lat="34.9531596" lon="33.5901198"><ele>65.4</ele><time>2015-05-02T12:26:53.0000000+00:00</time></trkpt><trkpt lat="34.9531058" lon="33.590141"><ele>65.1</ele><time>2015-05-02T12:26:55.0000000+00:00</time></trkpt><trkpt lat="34.953051" lon="33.5901515"><ele>64.5</ele><time>2015-05-02T12:26:57.0000000+00:00</time></trkpt><trkpt lat="34.9530179" lon="33.5901112"><ele>64.9</ele><time>2015-05-02T12:26:59.0000000+00:00</time></trkpt><trkpt lat="34.9530041" lon="33.590057"><ele>64.5</ele><time>2015-05-02T12:27:01.0000000+00:00</time></trkpt><trkpt lat="34.952967" lon="33.5899918"><ele>64.5</ele><time>2015-05-02T12:27:04.0000000+00:00</time></trkpt><trkpt lat="34.9529312" lon="33.5899223"><ele>65.5</ele><time>2015-05-02T12:27:07.0000000+00:00</time></trkpt><trkpt lat="34.9529067" lon="33.5898716"><ele>66.4</ele><time>2015-05-02T12:27:09.0000000+00:00</time></trkpt><trkpt lat="34.9528846" lon="33.589822"><ele>67.1</ele><time>2015-05-02T12:27:11.0000000+00:00</time></trkpt><trkpt lat="34.9528602" lon="33.5897713"><ele>67.5</ele><time>2015-05-02T12:27:13.0000000+00:00</time></trkpt><trkpt lat="34.9528368" lon="33.5897196"><ele>67.4</ele><time>2015-05-02T12:27:15.0000000+00:00</time></trkpt><trkpt lat="34.9528184" lon="33.5896605"><ele>66.6</ele><time>2015-05-02T12:27:17.0000000+00:00</time></trkpt><trkpt lat="34.9527993" lon="33.5896081"><ele>65.7</ele><time>2015-05-02T12:27:19.0000000+00:00</time></trkpt><trkpt lat="34.9527802" lon="33.5895565"><ele>65.2</ele><time>2015-05-02T12:27:21.0000000+00:00</time></trkpt><trkpt lat="34.9527576" lon="33.589492"><ele>64.8</ele><time>2015-05-02T12:27:23.0000000+00:00</time></trkpt><trkpt lat="34.9527282" lon="33.5894367"><ele>65.7</ele><time>2015-05-02T12:27:25.0000000+00:00</time></trkpt><trkpt lat="34.9526913" lon="33.589401"><ele>65.9</ele><time>2015-05-02T12:27:27.0000000+00:00</time></trkpt><trkpt lat="34.9526588" lon="33.5893314"><ele>66.9</ele><time>2015-05-02T12:27:30.0000000+00:00</time></trkpt><trkpt lat="34.9526575" lon="33.5892674"><ele>67.7</ele><time>2015-05-02T12:27:32.0000000+00:00</time></trkpt><trkpt lat="34.9526582" lon="33.5892026"><ele>66.7</ele><time>2015-05-02T12:27:34.0000000+00:00</time></trkpt><trkpt lat="34.952654" lon="33.5891393"><ele>65.7</ele><time>2015-05-02T12:27:36.0000000+00:00</time></trkpt><trkpt lat="34.9526514" lon="33.5890824"><ele>65.2</ele><time>2015-05-02T12:27:38.0000000+00:00</time></trkpt><trkpt lat="34.9526461" lon="33.5890219"><ele>65.1</ele><time>2015-05-02T12:27:40.0000000+00:00</time></trkpt><trkpt lat="34.9526445" lon="33.5889648"><ele>65.5</ele><time>2015-05-02T12:27:42.0000000+00:00</time></trkpt><trkpt lat="34.9526308" lon="33.5888944"><ele>66.4</ele><time>2015-05-02T12:27:44.0000000+00:00</time></trkpt><trkpt lat="34.9526216" lon="33.5888182"><ele>66.6</ele><time>2015-05-02T12:27:46.0000000+00:00</time></trkpt><trkpt lat="34.952615" lon="33.5887233"><ele>68.4</ele><time>2015-05-02T12:27:48.0000000+00:00</time></trkpt><trkpt lat="34.9526034" lon="33.588626"><ele>69.6</ele><time>2015-05-02T12:27:50.0000000+00:00</time></trkpt><trkpt lat="34.952592" lon="33.5885286"><ele>69.4</ele><time>2015-05-02T12:27:52.0000000+00:00</time></trkpt><trkpt lat="34.9525854" lon="33.5884324"><ele>69.6</ele><time>2015-05-02T12:27:54.0000000+00:00</time></trkpt><trkpt lat="34.9525703" lon="33.5883332"><ele>69.2</ele><time>2015-05-02T12:27:56.0000000+00:00</time></trkpt><trkpt lat="34.9525439" lon="33.5882359"><ele>67.1</ele><time>2015-05-02T12:27:58.0000000+00:00</time></trkpt><trkpt lat="34.952522" lon="33.5881364"><ele>65.5</ele><time>2015-05-02T12:28:00.0000000+00:00</time></trkpt><trkpt lat="34.9525066" lon="33.5880476"><ele>64.4</ele><time>2015-05-02T12:28:02.0000000+00:00</time></trkpt><trkpt lat="34.9525036" lon="33.5879592"><ele>64.1</ele><time>2015-05-02T12:28:04.0000000+00:00</time></trkpt><trkpt lat="34.9524959" lon="33.587867"><ele>64.8</ele><time>2015-05-02T12:28:06.0000000+00:00</time></trkpt><trkpt lat="34.9524774" lon="33.5877748"><ele>65.0</ele><time>2015-05-02T12:28:08.0000000+00:00</time></trkpt><trkpt lat="34.9524596" lon="33.5876775"><ele>64.8</ele><time>2015-05-02T12:28:10.0000000+00:00</time></trkpt><trkpt lat="34.9524446" lon="33.5875961"><ele>64.4</ele><time>2015-05-02T12:28:11.0000000+00:00</time></trkpt><trkpt lat="34.9524316" lon="33.5875292"><ele>64.2</ele><time>2015-05-02T12:28:12.0000000+00:00</time></trkpt><trkpt lat="34.952422" lon="33.5874667"><ele>64.1</ele><time>2015-05-02T12:28:13.0000000+00:00</time></trkpt><trkpt lat="34.9524245" lon="33.5874056"><ele>64.6</ele><time>2015-05-02T12:28:14.0000000+00:00</time></trkpt><trkpt lat="34.9524108" lon="33.587344"><ele>64.3</ele><time>2015-05-02T12:28:15.0000000+00:00</time></trkpt><trkpt lat="34.9524033" lon="33.5872817"><ele>64.2</ele><time>2015-05-02T12:28:16.0000000+00:00</time></trkpt><trkpt lat="34.9524034" lon="33.5872176"><ele>64.6</ele><time>2015-05-02T12:28:17.0000000+00:00</time></trkpt><trkpt lat="34.9523981" lon="33.5871556"><ele>64.8</ele><time>2015-05-02T12:28:18.0000000+00:00</time></trkpt><trkpt lat="34.9523955" lon="33.5871002"><ele>64.9</ele><time>2015-05-02T12:28:19.0000000+00:00</time></trkpt><trkpt lat="34.9523927" lon="33.5870422"><ele>64.5</ele><time>2015-05-02T12:28:20.0000000+00:00</time></trkpt><trkpt lat="34.9523812" lon="33.5869372"><ele>64.1</ele><time>2015-05-02T12:28:22.0000000+00:00</time></trkpt><trkpt lat="34.9523866" lon="33.5868738"><ele>64.6</ele><time>2015-05-02T12:28:23.0000000+00:00</time></trkpt><trkpt lat="34.9523894" lon="33.5868178"><ele>64.3</ele><time>2015-05-02T12:28:24.0000000+00:00</time></trkpt><trkpt lat="34.9523845" lon="33.5867616"><ele>64.7</ele><time>2015-05-02T12:28:25.0000000+00:00</time></trkpt><trkpt lat="34.9523784" lon="33.5867037"><ele>64.8</ele><time>2015-05-02T12:28:26.0000000+00:00</time></trkpt><trkpt lat="34.9523716" lon="33.5866462"><ele>64.9</ele><time>2015-05-02T12:28:27.0000000+00:00</time></trkpt><trkpt lat="34.9523631" lon="33.5865828"><ele>65.5</ele><time>2015-05-02T12:28:28.0000000+00:00</time></trkpt><trkpt lat="34.9523639" lon="33.5865216"><ele>65.7</ele><time>2015-05-02T12:28:29.0000000+00:00</time></trkpt><trkpt lat="34.9523582" lon="33.5864097"><ele>66.2</ele><time>2015-05-02T12:28:31.0000000+00:00</time></trkpt><trkpt lat="34.9523524" lon="33.5863087"><ele>66.3</ele><time>2015-05-02T12:28:33.0000000+00:00</time></trkpt><trkpt lat="34.9523485" lon="33.5862096"><ele>66.1</ele><time>2015-05-02T12:28:35.0000000+00:00</time></trkpt><trkpt lat="34.9523435" lon="33.5860951"><ele>66.5</ele><time>2015-05-02T12:28:37.0000000+00:00</time></trkpt><trkpt lat="34.9523339" lon="33.5860057"><ele>67.2</ele><time>2015-05-02T12:28:39.0000000+00:00</time></trkpt><trkpt lat="34.9523357" lon="33.5859089"><ele>67.1</ele><time>2015-05-02T12:28:41.0000000+00:00</time></trkpt><trkpt lat="34.9523275" lon="33.5858096"><ele>67.8</ele><time>2015-05-02T12:28:43.0000000+00:00</time></trkpt><trkpt lat="34.952325" lon="33.5857484"><ele>68.4</ele><time>2015-05-02T12:28:44.0000000+00:00</time></trkpt><trkpt lat="34.9523136" lon="33.5856814"><ele>68.7</ele><time>2015-05-02T12:28:45.0000000+00:00</time></trkpt><trkpt lat="34.9522975" lon="33.5856278"><ele>68.4</ele><time>2015-05-02T12:28:46.0000000+00:00</time></trkpt><trkpt lat="34.9522786" lon="33.5855751"><ele>69.2</ele><time>2015-05-02T12:28:47.0000000+00:00</time></trkpt><trkpt lat="34.9522572" lon="33.58552"><ele>69.6</ele><time>2015-05-02T12:28:48.0000000+00:00</time></trkpt><trkpt lat="34.9522258" lon="33.5854077"><ele>69.2</ele><time>2015-05-02T12:28:50.0000000+00:00</time></trkpt><trkpt lat="34.9522052" lon="33.5853544"><ele>69.1</ele><time>2015-05-02T12:28:51.0000000+00:00</time></trkpt><trkpt lat="34.952179" lon="33.5852595"><ele>69.8</ele><time>2015-05-02T12:28:53.0000000+00:00</time></trkpt><trkpt lat="34.9521394" lon="33.585179"><ele>69.2</ele><time>2015-05-02T12:28:55.0000000+00:00</time></trkpt><trkpt lat="34.9520999" lon="33.585092"><ele>69.8</ele><time>2015-05-02T12:28:57.0000000+00:00</time></trkpt><trkpt lat="34.9520814" lon="33.5850044"><ele>70.0</ele><time>2015-05-02T12:28:59.0000000+00:00</time></trkpt><trkpt lat="34.9520668" lon="33.5849196"><ele>70.8</ele><time>2015-05-02T12:29:01.0000000+00:00</time></trkpt><trkpt lat="34.9520525" lon="33.5848567"><ele>68.7</ele><time>2015-05-02T12:29:03.0000000+00:00</time></trkpt><trkpt lat="34.9520382" lon="33.5847864"><ele>68.9</ele><time>2015-05-02T12:29:05.0000000+00:00</time></trkpt><trkpt lat="34.9520191" lon="33.5847177"><ele>68.5</ele><time>2015-05-02T12:29:07.0000000+00:00</time></trkpt><trkpt lat="34.9519982" lon="33.5846373"><ele>67.6</ele><time>2015-05-02T12:29:09.0000000+00:00</time></trkpt><trkpt lat="34.9519824" lon="33.5844954"><ele>67.9</ele><time>2015-05-02T12:29:11.0000000+00:00</time></trkpt><trkpt lat="34.9519713" lon="33.5844388"><ele>68.5</ele><time>2015-05-02T12:29:12.0000000+00:00</time></trkpt><trkpt lat="34.9519583" lon="33.5843426"><ele>68.1</ele><time>2015-05-02T12:29:14.0000000+00:00</time></trkpt><trkpt lat="34.9519482" lon="33.5842632"><ele>69.5</ele><time>2015-05-02T12:29:16.0000000+00:00</time></trkpt><trkpt lat="34.9519276" lon="33.5841733"><ele>70.2</ele><time>2015-05-02T12:29:18.0000000+00:00</time></trkpt><trkpt lat="34.951924" lon="33.5840782"><ele>70.6</ele><time>2015-05-02T12:29:20.0000000+00:00</time></trkpt><trkpt lat="34.9519016" lon="33.5839845"><ele>70.9</ele><time>2015-05-02T12:29:22.0000000+00:00</time></trkpt><trkpt lat="34.9518841" lon="33.5838846"><ele>70.2</ele><time>2015-05-02T12:29:24.0000000+00:00</time></trkpt><trkpt lat="34.951868" lon="33.5837795"><ele>70.1</ele><time>2015-05-02T12:29:26.0000000+00:00</time></trkpt><trkpt lat="34.9518454" lon="33.5836804"><ele>70.5</ele><time>2015-05-02T12:29:28.0000000+00:00</time></trkpt><trkpt lat="34.9518202" lon="33.5835859"><ele>70.9</ele><time>2015-05-02T12:29:30.0000000+00:00</time></trkpt><trkpt lat="34.951798" lon="33.5834928"><ele>71.5</ele><time>2015-05-02T12:29:32.0000000+00:00</time></trkpt><trkpt lat="34.9517715" lon="33.5833987"><ele>71.6</ele><time>2015-05-02T12:29:34.0000000+00:00</time></trkpt><trkpt lat="34.9517474" lon="33.5832979"><ele>72.7</ele><time>2015-05-02T12:29:36.0000000+00:00</time></trkpt><trkpt lat="34.9517294" lon="33.5831921"><ele>73.4</ele><time>2015-05-02T12:29:38.0000000+00:00</time></trkpt><trkpt lat="34.9517095" lon="33.5830942"><ele>75.4</ele><time>2015-05-02T12:29:40.0000000+00:00</time></trkpt><trkpt lat="34.9516913" lon="33.5830007"><ele>75.9</ele><time>2015-05-02T12:29:42.0000000+00:00</time></trkpt><trkpt lat="34.9516672" lon="33.582907"><ele>74.5</ele><time>2015-05-02T12:29:44.0000000+00:00</time></trkpt><trkpt lat="34.9516387" lon="33.5828093"><ele>73.6</ele><time>2015-05-02T12:29:46.0000000+00:00</time></trkpt><trkpt lat="34.9516076" lon="33.582713"><ele>73.9</ele><time>2015-05-02T12:29:48.0000000+00:00</time></trkpt><trkpt lat="34.9515826" lon="33.58262"><ele>73.5</ele><time>2015-05-02T12:29:50.0000000+00:00</time></trkpt><trkpt lat="34.9515667" lon="33.5825289"><ele>73.9</ele><time>2015-05-02T12:29:52.0000000+00:00</time></trkpt><trkpt lat="34.9515486" lon="33.5824402"><ele>74.2</ele><time>2015-05-02T12:29:54.0000000+00:00</time></trkpt><trkpt lat="34.9515253" lon="33.5823498"><ele>74.1</ele><time>2015-05-02T12:29:56.0000000+00:00</time></trkpt><trkpt lat="34.9515042" lon="33.5822532"><ele>73.3</ele><time>2015-05-02T12:29:58.0000000+00:00</time></trkpt><trkpt lat="34.9514722" lon="33.5821312"><ele>73.1</ele><time>2015-05-02T12:30:00.0000000+00:00</time></trkpt><trkpt lat="34.9514493" lon="33.5820381"><ele>72.8</ele><time>2015-05-02T12:30:02.0000000+00:00</time></trkpt><trkpt lat="34.951432" lon="33.5819502"><ele>72.5</ele><time>2015-05-02T12:30:04.0000000+00:00</time></trkpt><trkpt lat="34.9514193" lon="33.5818549"><ele>70.9</ele><time>2015-05-02T12:30:06.0000000+00:00</time></trkpt><trkpt lat="34.9513993" lon="33.5817579"><ele>71.0</ele><time>2015-05-02T12:30:08.0000000+00:00</time></trkpt><trkpt lat="34.951378" lon="33.5816487"><ele>71.0</ele><time>2015-05-02T12:30:10.0000000+00:00</time></trkpt><trkpt lat="34.9513661" lon="33.5815906"><ele>71.0</ele><time>2015-05-02T12:30:11.0000000+00:00</time></trkpt><trkpt lat="34.9513493" lon="33.5815282"><ele>71.0</ele><time>2015-05-02T12:30:12.0000000+00:00</time></trkpt><trkpt lat="34.9513464" lon="33.5814602"><ele>71.5</ele><time>2015-05-02T12:30:13.0000000+00:00</time></trkpt><trkpt lat="34.9513511" lon="33.5813965"><ele>72.8</ele><time>2015-05-02T12:30:14.0000000+00:00</time></trkpt><trkpt lat="34.9513333" lon="33.581297"><ele>74.2</ele><time>2015-05-02T12:30:16.0000000+00:00</time></trkpt><trkpt lat="34.9513013" lon="33.5812091"><ele>74.3</ele><time>2015-05-02T12:30:18.0000000+00:00</time></trkpt><trkpt lat="34.9512782" lon="33.5811055"><ele>74.1</ele><time>2015-05-02T12:30:20.0000000+00:00</time></trkpt><trkpt lat="34.9512692" lon="33.5810487"><ele>74.1</ele><time>2015-05-02T12:30:21.0000000+00:00</time></trkpt><trkpt lat="34.9512572" lon="33.5809918"><ele>74.0</ele><time>2015-05-02T12:30:22.0000000+00:00</time></trkpt><trkpt lat="34.951243" lon="33.5809351"><ele>74.5</ele><time>2015-05-02T12:30:23.0000000+00:00</time></trkpt><trkpt lat="34.951232" lon="33.5808371"><ele>74.1</ele><time>2015-05-02T12:30:25.0000000+00:00</time></trkpt><trkpt lat="34.9512115" lon="33.5807412"><ele>74.1</ele><time>2015-05-02T12:30:27.0000000+00:00</time></trkpt><trkpt lat="34.9511901" lon="33.5806337"><ele>74.0</ele><time>2015-05-02T12:30:29.0000000+00:00</time></trkpt><trkpt lat="34.9511826" lon="33.58056"><ele>74.0</ele><time>2015-05-02T12:30:30.0000000+00:00</time></trkpt><trkpt lat="34.951175" lon="33.5805049"><ele>74.0</ele><time>2015-05-02T12:30:31.0000000+00:00</time></trkpt><trkpt lat="34.9511587" lon="33.5804473"><ele>74.0</ele><time>2015-05-02T12:30:32.0000000+00:00</time></trkpt><trkpt lat="34.9511398" lon="33.5803807"><ele>74.0</ele><time>2015-05-02T12:30:33.0000000+00:00</time></trkpt><trkpt lat="34.9511155" lon="33.580271"><ele>74.5</ele><time>2015-05-02T12:30:35.0000000+00:00</time></trkpt><trkpt lat="34.9510866" lon="33.5801772"><ele>76.1</ele><time>2015-05-02T12:30:37.0000000+00:00</time></trkpt><trkpt lat="34.9510701" lon="33.5800886"><ele>76.8</ele><time>2015-05-02T12:30:39.0000000+00:00</time></trkpt><trkpt lat="34.9510521" lon="33.5799984"><ele>77.7</ele><time>2015-05-02T12:30:41.0000000+00:00</time></trkpt><trkpt lat="34.9510311" lon="33.5799036"><ele>78.4</ele><time>2015-05-02T12:30:43.0000000+00:00</time></trkpt><trkpt lat="34.951003" lon="33.579804"><ele>78.1</ele><time>2015-05-02T12:30:45.0000000+00:00</time></trkpt><trkpt lat="34.9509726" lon="33.5797118"><ele>77.5</ele><time>2015-05-02T12:30:47.0000000+00:00</time></trkpt><trkpt lat="34.9509491" lon="33.5796164"><ele>78.2</ele><time>2015-05-02T12:30:49.0000000+00:00</time></trkpt><trkpt lat="34.9509229" lon="33.5795222"><ele>78.6</ele><time>2015-05-02T12:30:51.0000000+00:00</time></trkpt><trkpt lat="34.950888" lon="33.5794295"><ele>79.4</ele><time>2015-05-02T12:30:53.0000000+00:00</time></trkpt><trkpt lat="34.9508519" lon="33.5793378"><ele>79.4</ele><time>2015-05-02T12:30:55.0000000+00:00</time></trkpt><trkpt lat="34.9508047" lon="33.5792384"><ele>80.4</ele><time>2015-05-02T12:30:57.0000000+00:00</time></trkpt><trkpt lat="34.9507668" lon="33.579161"><ele>80.9</ele><time>2015-05-02T12:30:59.0000000+00:00</time></trkpt><trkpt lat="34.9507292" lon="33.5790822"><ele>82.5</ele><time>2015-05-02T12:31:01.0000000+00:00</time></trkpt><trkpt lat="34.9507161" lon="33.5790079"><ele>82.4</ele><time>2015-05-02T12:31:03.0000000+00:00</time></trkpt><trkpt lat="34.9506988" lon="33.5789569"><ele>81.7</ele><time>2015-05-02T12:31:04.0000000+00:00</time></trkpt><trkpt lat="34.9506559" lon="33.5788634"><ele>81.2</ele><time>2015-05-02T12:31:06.0000000+00:00</time></trkpt><trkpt lat="34.9506124" lon="33.5787794"><ele>82.6</ele><time>2015-05-02T12:31:08.0000000+00:00</time></trkpt><trkpt lat="34.9505753" lon="33.5787059"><ele>82.9</ele><time>2015-05-02T12:31:10.0000000+00:00</time></trkpt><trkpt lat="34.9505382" lon="33.578633"><ele>83.0</ele><time>2015-05-02T12:31:12.0000000+00:00</time></trkpt><trkpt lat="34.9504988" lon="33.5785567"><ele>82.5</ele><time>2015-05-02T12:31:14.0000000+00:00</time></trkpt><trkpt lat="34.9504586" lon="33.5784826"><ele>82.6</ele><time>2015-05-02T12:31:16.0000000+00:00</time></trkpt><trkpt lat="34.9504181" lon="33.5784102"><ele>82.9</ele><time>2015-05-02T12:31:18.0000000+00:00</time></trkpt><trkpt lat="34.9503779" lon="33.5783417"><ele>83.0</ele><time>2015-05-02T12:31:20.0000000+00:00</time></trkpt><trkpt lat="34.9503296" lon="33.5782799"><ele>83.0</ele><time>2015-05-02T12:31:22.0000000+00:00</time></trkpt><trkpt lat="34.9502883" lon="33.5782062"><ele>82.5</ele><time>2015-05-02T12:31:24.0000000+00:00</time></trkpt><trkpt lat="34.9502623" lon="33.578121"><ele>82.9</ele><time>2015-05-02T12:31:26.0000000+00:00</time></trkpt><trkpt lat="34.9502391" lon="33.5780372"><ele>82.5</ele><time>2015-05-02T12:31:28.0000000+00:00</time></trkpt><trkpt lat="34.9502155" lon="33.5779537"><ele>81.6</ele><time>2015-05-02T12:31:30.0000000+00:00</time></trkpt><trkpt lat="34.9501955" lon="33.5778638"><ele>81.2</ele><time>2015-05-02T12:31:32.0000000+00:00</time></trkpt><trkpt lat="34.9501784" lon="33.5777659"><ele>80.8</ele><time>2015-05-02T12:31:34.0000000+00:00</time></trkpt><trkpt lat="34.9501558" lon="33.5776289"><ele>81.5</ele><time>2015-05-02T12:31:36.0000000+00:00</time></trkpt><trkpt lat="34.950137" lon="33.5775324"><ele>81.9</ele><time>2015-05-02T12:31:38.0000000+00:00</time></trkpt><trkpt lat="34.9501299" lon="33.5774395"><ele>82.5</ele><time>2015-05-02T12:31:40.0000000+00:00</time></trkpt><trkpt lat="34.9501298" lon="33.5773826"><ele>83.3</ele><time>2015-05-02T12:31:41.0000000+00:00</time></trkpt><trkpt lat="34.9501156" lon="33.5772764"><ele>83.8</ele><time>2015-05-02T12:31:43.0000000+00:00</time></trkpt><trkpt lat="34.9501058" lon="33.5772218"><ele>83.4</ele><time>2015-05-02T12:31:44.0000000+00:00</time></trkpt><trkpt lat="34.9501001" lon="33.5771657"><ele>83.2</ele><time>2015-05-02T12:31:45.0000000+00:00</time></trkpt><trkpt lat="34.9500878" lon="33.5770683"><ele>83.6</ele><time>2015-05-02T12:31:47.0000000+00:00</time></trkpt><trkpt lat="34.9500758" lon="33.5769723"><ele>83.9</ele><time>2015-05-02T12:31:49.0000000+00:00</time></trkpt><trkpt lat="34.9500587" lon="33.5768798"><ele>82.7</ele><time>2015-05-02T12:31:51.0000000+00:00</time></trkpt><trkpt lat="34.9500576" lon="33.5768218"><ele>82.9</ele><time>2015-05-02T12:31:52.0000000+00:00</time></trkpt><trkpt lat="34.9500381" lon="33.5767222"><ele>81.7</ele><time>2015-05-02T12:31:54.0000000+00:00</time></trkpt><trkpt lat="34.9500087" lon="33.5766207"><ele>81.4</ele><time>2015-05-02T12:31:56.0000000+00:00</time></trkpt><trkpt lat="34.9499961" lon="33.5765619"><ele>81.2</ele><time>2015-05-02T12:31:57.0000000+00:00</time></trkpt><trkpt lat="34.9499855" lon="33.5764627"><ele>80.6</ele><time>2015-05-02T12:31:59.0000000+00:00</time></trkpt><trkpt lat="34.9499691" lon="33.5763728"><ele>80.4</ele><time>2015-05-02T12:32:01.0000000+00:00</time></trkpt><trkpt lat="34.9499644" lon="33.5762869"><ele>78.9</ele><time>2015-05-02T12:32:03.0000000+00:00</time></trkpt><trkpt lat="34.9499569" lon="33.5762319"><ele>78.9</ele><time>2015-05-02T12:32:04.0000000+00:00</time></trkpt><trkpt lat="34.9499453" lon="33.5761258"><ele>79.8</ele><time>2015-05-02T12:32:06.0000000+00:00</time></trkpt><trkpt lat="34.9499477" lon="33.576062"><ele>79.9</ele><time>2015-05-02T12:32:07.0000000+00:00</time></trkpt><trkpt lat="34.9499423" lon="33.5759962"><ele>80.5</ele><time>2015-05-02T12:32:08.0000000+00:00</time></trkpt><trkpt lat="34.9499291" lon="33.57594"><ele>80.7</ele><time>2015-05-02T12:32:09.0000000+00:00</time></trkpt><trkpt lat="34.9499252" lon="33.5758406"><ele>81.7</ele><time>2015-05-02T12:32:11.0000000+00:00</time></trkpt><trkpt lat="34.9499244" lon="33.5757386"><ele>81.7</ele><time>2015-05-02T12:32:13.0000000+00:00</time></trkpt><trkpt lat="34.9499072" lon="33.5756516"><ele>81.7</ele><time>2015-05-02T12:32:15.0000000+00:00</time></trkpt><trkpt lat="34.9498895" lon="33.5755565"><ele>81.7</ele><time>2015-05-02T12:32:17.0000000+00:00</time></trkpt><trkpt lat="34.9498793" lon="33.575499"><ele>81.4</ele><time>2015-05-02T12:32:18.0000000+00:00</time></trkpt><trkpt lat="34.9498813" lon="33.5753809"><ele>81.6</ele><time>2015-05-02T12:32:20.0000000+00:00</time></trkpt><trkpt lat="34.949851" lon="33.5752767"><ele>81.9</ele><time>2015-05-02T12:32:22.0000000+00:00</time></trkpt><trkpt lat="34.9498344" lon="33.5752238"><ele>81.5</ele><time>2015-05-02T12:32:23.0000000+00:00</time></trkpt><trkpt lat="34.9498106" lon="33.5751192"><ele>80.6</ele><time>2015-05-02T12:32:25.0000000+00:00</time></trkpt><trkpt lat="34.9497912" lon="33.5750358"><ele>79.7</ele><time>2015-05-02T12:32:27.0000000+00:00</time></trkpt><trkpt lat="34.9497776" lon="33.574949"><ele>79.9</ele><time>2015-05-02T12:32:29.0000000+00:00</time></trkpt><trkpt lat="34.9497693" lon="33.5748751"><ele>81.2</ele><time>2015-05-02T12:32:31.0000000+00:00</time></trkpt><trkpt lat="34.9497533" lon="33.5748065"><ele>81.8</ele><time>2015-05-02T12:32:33.0000000+00:00</time></trkpt><trkpt lat="34.9497371" lon="33.574743"><ele>81.5</ele><time>2015-05-02T12:32:35.0000000+00:00</time></trkpt><trkpt lat="34.9497018" lon="33.5746854"><ele>81.9</ele><time>2015-05-02T12:32:37.0000000+00:00</time></trkpt><trkpt lat="34.9496491" lon="33.5746628"><ele>82.0</ele><time>2015-05-02T12:32:39.0000000+00:00</time></trkpt><trkpt lat="34.9495976" lon="33.5746616"><ele>82.0</ele><time>2015-05-02T12:32:41.0000000+00:00</time></trkpt><trkpt lat="34.9495478" lon="33.5746937"><ele>82.0</ele><time>2015-05-02T12:32:43.0000000+00:00</time></trkpt><trkpt lat="34.94949" lon="33.5747509"><ele>82.0</ele><time>2015-05-02T12:32:45.0000000+00:00</time></trkpt><trkpt lat="34.9494346" lon="33.5748093"><ele>82.0</ele><time>2015-05-02T12:32:46.0000000+00:00</time></trkpt><trkpt lat="34.9493979" lon="33.5748424"><ele>82.5</ele><time>2015-05-02T12:32:47.0000000+00:00</time></trkpt><trkpt lat="34.9493255" lon="33.5748954"><ele>81.6</ele><time>2015-05-02T12:32:49.0000000+00:00</time></trkpt><trkpt lat="34.9492628" lon="33.5749566"><ele>81.4</ele><time>2015-05-02T12:32:51.0000000+00:00</time></trkpt><trkpt lat="34.9492062" lon="33.5750206"><ele>80.4</ele><time>2015-05-02T12:32:53.0000000+00:00</time></trkpt><trkpt lat="34.9491458" lon="33.5750905"><ele>80.4</ele><time>2015-05-02T12:32:55.0000000+00:00</time></trkpt><trkpt lat="34.9490863" lon="33.5751693"><ele>80.1</ele><time>2015-05-02T12:32:57.0000000+00:00</time></trkpt><trkpt lat="34.9490507" lon="33.5752128"><ele>79.6</ele><time>2015-05-02T12:32:58.0000000+00:00</time></trkpt><trkpt lat="34.949007" lon="33.5752558"><ele>79.8</ele><time>2015-05-02T12:32:59.0000000+00:00</time></trkpt><trkpt lat="34.9489691" lon="33.5753093"><ele>79.9</ele><time>2015-05-02T12:33:00.0000000+00:00</time></trkpt><trkpt lat="34.9489405" lon="33.5753585"><ele>79.0</ele><time>2015-05-02T12:33:01.0000000+00:00</time></trkpt><trkpt lat="34.9488965" lon="33.5754073"><ele>78.5</ele><time>2015-05-02T12:33:02.0000000+00:00</time></trkpt><trkpt lat="34.9488236" lon="33.5754794"><ele>78.6</ele><time>2015-05-02T12:33:04.0000000+00:00</time></trkpt><trkpt lat="34.9487884" lon="33.5755207"><ele>78.8</ele><time>2015-05-02T12:33:05.0000000+00:00</time></trkpt><trkpt lat="34.948743" lon="33.5755538"><ele>78.9</ele><time>2015-05-02T12:33:06.0000000+00:00</time></trkpt><trkpt lat="34.948673" lon="33.5756362"><ele>79.0</ele><time>2015-05-02T12:33:08.0000000+00:00</time></trkpt><trkpt lat="34.9486373" lon="33.5756842"><ele>79.5</ele><time>2015-05-02T12:33:09.0000000+00:00</time></trkpt><trkpt lat="34.9485989" lon="33.575726"><ele>79.8</ele><time>2015-05-02T12:33:10.0000000+00:00</time></trkpt><trkpt lat="34.9485685" lon="33.5757672"><ele>79.9</ele><time>2015-05-02T12:33:11.0000000+00:00</time></trkpt><trkpt lat="34.9485373" lon="33.5758172"><ele>80.0</ele><time>2015-05-02T12:33:12.0000000+00:00</time></trkpt><trkpt lat="34.9485083" lon="33.5758634"><ele>80.0</ele><time>2015-05-02T12:33:13.0000000+00:00</time></trkpt><trkpt lat="34.9484775" lon="33.5759191"><ele>80.0</ele><time>2015-05-02T12:33:14.0000000+00:00</time></trkpt><trkpt lat="34.948442" lon="33.5759644"><ele>80.0</ele><time>2015-05-02T12:33:15.0000000+00:00</time></trkpt><trkpt lat="34.9484027" lon="33.5760196"><ele>79.5</ele><time>2015-05-02T12:33:16.0000000+00:00</time></trkpt><trkpt lat="34.9483658" lon="33.5760674"><ele>79.8</ele><time>2015-05-02T12:33:17.0000000+00:00</time></trkpt><trkpt lat="34.9483216" lon="33.5761159"><ele>79.9</ele><time>2015-05-02T12:33:18.0000000+00:00</time></trkpt><trkpt lat="34.9482855" lon="33.576179"><ele>79.5</ele><time>2015-05-02T12:33:19.0000000+00:00</time></trkpt><trkpt lat="34.9482413" lon="33.5762345"><ele>79.2</ele><time>2015-05-02T12:33:20.0000000+00:00</time></trkpt><trkpt lat="34.9482034" lon="33.5762952"><ele>79.1</ele><time>2015-05-02T12:33:21.0000000+00:00</time></trkpt><trkpt lat="34.9481702" lon="33.5763616"><ele>79.1</ele><time>2015-05-02T12:33:22.0000000+00:00</time></trkpt><trkpt lat="34.9481359" lon="33.5764166"><ele>79.0</ele><time>2015-05-02T12:33:23.0000000+00:00</time></trkpt><trkpt lat="34.9480933" lon="33.5764793"><ele>79.0</ele><time>2015-05-02T12:33:24.0000000+00:00</time></trkpt><trkpt lat="34.9480552" lon="33.5765424"><ele>78.5</ele><time>2015-05-02T12:33:25.0000000+00:00</time></trkpt><trkpt lat="34.9480201" lon="33.5766088"><ele>78.3</ele><time>2015-05-02T12:33:26.0000000+00:00</time></trkpt><trkpt lat="34.9479851" lon="33.5766632"><ele>78.1</ele><time>2015-05-02T12:33:27.0000000+00:00</time></trkpt><trkpt lat="34.947943" lon="33.5767172"><ele>78.1</ele><time>2015-05-02T12:33:28.0000000+00:00</time></trkpt><trkpt lat="34.9479003" lon="33.5767614"><ele>78.1</ele><time>2015-05-02T12:33:29.0000000+00:00</time></trkpt><trkpt lat="34.9478518" lon="33.5768157"><ele>78.0</ele><time>2015-05-02T12:33:30.0000000+00:00</time></trkpt><trkpt lat="34.9478157" lon="33.5768581"><ele>77.5</ele><time>2015-05-02T12:33:31.0000000+00:00</time></trkpt><trkpt lat="34.9477703" lon="33.5769034"><ele>77.3</ele><time>2015-05-02T12:33:32.0000000+00:00</time></trkpt><trkpt lat="34.9477346" lon="33.5769555"><ele>76.6</ele><time>2015-05-02T12:33:33.0000000+00:00</time></trkpt><trkpt lat="34.9477037" lon="33.5770081"><ele>76.3</ele><time>2015-05-02T12:33:34.0000000+00:00</time></trkpt><trkpt lat="34.9476608" lon="33.577055"><ele>76.2</ele><time>2015-05-02T12:33:35.0000000+00:00</time></trkpt><trkpt lat="34.9476157" lon="33.5771052"><ele>76.1</ele><time>2015-05-02T12:33:36.0000000+00:00</time></trkpt><trkpt lat="34.9475853" lon="33.5771479"><ele>76.1</ele><time>2015-05-02T12:33:37.0000000+00:00</time></trkpt><trkpt lat="34.9475318" lon="33.5772109"><ele>75.3</ele><time>2015-05-02T12:33:39.0000000+00:00</time></trkpt><trkpt lat="34.9474887" lon="33.5772667"><ele>74.8</ele><time>2015-05-02T12:33:41.0000000+00:00</time></trkpt><trkpt lat="34.9474438" lon="33.5772713"><ele>76.2</ele><time>2015-05-02T12:33:46.0000000+00:00</time></trkpt><trkpt lat="34.9473927" lon="33.5772531"><ele>77.3</ele><time>2015-05-02T12:33:48.0000000+00:00</time></trkpt><trkpt lat="34.9473277" lon="33.5772562"><ele>78.3</ele><time>2015-05-02T12:33:50.0000000+00:00</time></trkpt><trkpt lat="34.9472708" lon="33.5772571"><ele>78.2</ele><time>2015-05-02T12:33:53.0000000+00:00</time></trkpt><trkpt lat="34.9472207" lon="33.5772445"><ele>77.0</ele><time>2015-05-02T12:34:24.0000000+00:00</time></trkpt><trkpt lat="34.9463406" lon="33.5768555"><ele>77.0</ele><time>2015-05-02T12:43:10.0000000+00:00</time></trkpt><trkpt lat="34.9462964" lon="33.576901"><ele>77.8</ele><time>2015-05-02T12:43:12.0000000+00:00</time></trkpt><trkpt lat="34.9462294" lon="33.5768896"><ele>76.5</ele><time>2015-05-02T12:43:15.0000000+00:00</time></trkpt><trkpt lat="34.9461706" lon="33.5768778"><ele>74.7</ele><time>2015-05-02T12:43:18.0000000+00:00</time></trkpt><trkpt lat="34.9461212" lon="33.5768617"><ele>72.4</ele><time>2015-05-02T12:43:23.0000000+00:00</time></trkpt><trkpt lat="34.9460774" lon="33.5768468"><ele>72.8</ele><time>2015-05-02T12:43:27.0000000+00:00</time></trkpt><trkpt lat="34.9460184" lon="33.5768497"><ele>71.9</ele><time>2015-05-02T12:43:31.0000000+00:00</time></trkpt><trkpt lat="34.9459646" lon="33.5768451"><ele>71.5</ele><time>2015-05-02T12:43:33.0000000+00:00</time></trkpt><trkpt lat="34.9459131" lon="33.5768398"><ele>71.9</ele><time>2015-05-02T12:43:35.0000000+00:00</time></trkpt><trkpt lat="34.9458657" lon="33.5768351"><ele>71.2</ele><time>2015-05-02T12:43:37.0000000+00:00</time></trkpt><trkpt lat="34.9458163" lon="33.5768239"><ele>71.8</ele><time>2015-05-02T12:43:39.0000000+00:00</time></trkpt><trkpt lat="34.9457662" lon="33.5768063"><ele>72.7</ele><time>2015-05-02T12:43:41.0000000+00:00</time></trkpt><trkpt lat="34.9457186" lon="33.5767891"><ele>73.2</ele><time>2015-05-02T12:43:43.0000000+00:00</time></trkpt><trkpt lat="34.945649" lon="33.576788"><ele>72.5</ele><time>2015-05-02T12:43:46.0000000+00:00</time></trkpt><trkpt lat="34.9455795" lon="33.576773"><ele>72.1</ele><time>2015-05-02T12:43:49.0000000+00:00</time></trkpt><trkpt lat="34.9455296" lon="33.5767556"><ele>72.0</ele><time>2015-05-02T12:43:51.0000000+00:00</time></trkpt><trkpt lat="34.9454737" lon="33.5767344"><ele>72.3</ele><time>2015-05-02T12:43:53.0000000+00:00</time></trkpt><trkpt lat="34.9454192" lon="33.576716"><ele>72.1</ele><time>2015-05-02T12:43:55.0000000+00:00</time></trkpt><trkpt lat="34.9453644" lon="33.5767047"><ele>71.8</ele><time>2015-05-02T12:43:57.0000000+00:00</time></trkpt><trkpt lat="34.9453138" lon="33.5766954"><ele>72.5</ele><time>2015-05-02T12:43:59.0000000+00:00</time></trkpt><trkpt lat="34.9452665" lon="33.5766858"><ele>72.6</ele><time>2015-05-02T12:44:01.0000000+00:00</time></trkpt><trkpt lat="34.9452202" lon="33.5766687"><ele>72.9</ele><time>2015-05-02T12:44:03.0000000+00:00</time></trkpt><trkpt lat="34.9451722" lon="33.576647"><ele>73.0</ele><time>2015-05-02T12:44:07.0000000+00:00</time></trkpt><trkpt lat="34.9451255" lon="33.5766185"><ele>71.8</ele><time>2015-05-02T12:44:11.0000000+00:00</time></trkpt><trkpt lat="34.945074" lon="33.5766003"><ele>72.3</ele><time>2015-05-02T12:44:15.0000000+00:00</time></trkpt><trkpt lat="34.9450272" lon="33.5765616"><ele>73.0</ele><time>2015-05-02T12:44:19.0000000+00:00</time></trkpt><trkpt lat="34.9449882" lon="33.5765223"><ele>72.3</ele><time>2015-05-02T12:44:23.0000000+00:00</time></trkpt><trkpt lat="34.9449412" lon="33.5764865"><ele>72.3</ele><time>2015-05-02T12:44:28.0000000+00:00</time></trkpt><trkpt lat="34.9449058" lon="33.5764457"><ele>72.8</ele><time>2015-05-02T12:44:32.0000000+00:00</time></trkpt><trkpt lat="34.9448847" lon="33.5763834"><ele>73.0</ele><time>2015-05-02T12:44:36.0000000+00:00</time></trkpt><trkpt lat="34.9448751" lon="33.5763283"><ele>73.0</ele><time>2015-05-02T12:44:39.0000000+00:00</time></trkpt><trkpt lat="34.9448566" lon="33.5762777"><ele>73.0</ele><time>2015-05-02T12:44:42.0000000+00:00</time></trkpt><trkpt lat="34.9448332" lon="33.5762131"><ele>73.0</ele><time>2015-05-02T12:44:46.0000000+00:00</time></trkpt><trkpt lat="34.944817" lon="33.5761484"><ele>73.0</ele><time>2015-05-02T12:44:50.0000000+00:00</time></trkpt><trkpt lat="34.9448293" lon="33.5760932"><ele>73.9</ele><time>2015-05-02T12:45:05.0000000+00:00</time></trkpt><trkpt lat="34.9448249" lon="33.5760234"><ele>74.8</ele><time>2015-05-02T12:45:08.0000000+00:00</time></trkpt><trkpt lat="34.9448115" lon="33.5759532"><ele>75.0</ele><time>2015-05-02T12:45:11.0000000+00:00</time></trkpt><trkpt lat="34.9448153" lon="33.5758849"><ele>75.0</ele><time>2015-05-02T12:45:14.0000000+00:00</time></trkpt><trkpt lat="34.9448052" lon="33.5758146"><ele>75.8</ele><time>2015-05-02T12:45:17.0000000+00:00</time></trkpt><trkpt lat="34.9447883" lon="33.5757421"><ele>76.0</ele><time>2015-05-02T12:45:20.0000000+00:00</time></trkpt><trkpt lat="34.9447749" lon="33.5756714"><ele>76.8</ele><time>2015-05-02T12:45:23.0000000+00:00</time></trkpt><trkpt lat="34.9447795" lon="33.5755978"><ele>76.2</ele><time>2015-05-02T12:45:26.0000000+00:00</time></trkpt><trkpt lat="34.9447796" lon="33.5755206"><ele>76.9</ele><time>2015-05-02T12:45:29.0000000+00:00</time></trkpt><trkpt lat="34.9447805" lon="33.5754598"><ele>77.9</ele><time>2015-05-02T12:45:32.0000000+00:00</time></trkpt><trkpt lat="34.9447756" lon="33.5753933"><ele>78.9</ele><time>2015-05-02T12:45:35.0000000+00:00</time></trkpt><trkpt lat="34.9447752" lon="33.5753194"><ele>79.0</ele><time>2015-05-02T12:45:38.0000000+00:00</time></trkpt><trkpt lat="34.9447728" lon="33.575264"><ele>79.9</ele><time>2015-05-02T12:45:41.0000000+00:00</time></trkpt><trkpt lat="34.9447642" lon="33.5752089"><ele>80.0</ele><time>2015-05-02T12:45:44.0000000+00:00</time></trkpt><trkpt lat="34.9447536" lon="33.5751483"><ele>80.9</ele><time>2015-05-02T12:45:47.0000000+00:00</time></trkpt><trkpt lat="34.9447385" lon="33.5750885"><ele>81.0</ele><time>2015-05-02T12:45:50.0000000+00:00</time></trkpt><trkpt lat="34.9447259" lon="33.5750262"><ele>81.8</ele><time>2015-05-02T12:45:54.0000000+00:00</time></trkpt><trkpt lat="34.9447218" lon="33.574965"><ele>82.0</ele><time>2015-05-02T12:45:58.0000000+00:00</time></trkpt><trkpt lat="34.94471" lon="33.5748957"><ele>82.5</ele><time>2015-05-02T12:46:02.0000000+00:00</time></trkpt><trkpt lat="34.9446962" lon="33.5748311"><ele>83.0</ele><time>2015-05-02T12:46:06.0000000+00:00</time></trkpt><trkpt lat="34.9446895" lon="33.5747751"><ele>83.0</ele><time>2015-05-02T12:46:09.0000000+00:00</time></trkpt><trkpt lat="34.9446847" lon="33.5747155"><ele>83.0</ele><time>2015-05-02T12:46:12.0000000+00:00</time></trkpt><trkpt lat="34.944671" lon="33.5746626"><ele>83.9</ele><time>2015-05-02T12:46:15.0000000+00:00</time></trkpt><trkpt lat="34.9446572" lon="33.5746082"><ele>84.0</ele><time>2015-05-02T12:46:18.0000000+00:00</time></trkpt><trkpt lat="34.9446486" lon="33.5745502"><ele>84.8</ele><time>2015-05-02T12:46:21.0000000+00:00</time></trkpt><trkpt lat="34.9446398" lon="33.5744934"><ele>85.5</ele><time>2015-05-02T12:46:24.0000000+00:00</time></trkpt><trkpt lat="34.9446294" lon="33.5744313"><ele>86.5</ele><time>2015-05-02T12:46:28.0000000+00:00</time></trkpt><trkpt lat="34.9446154" lon="33.5743755"><ele>87.0</ele><time>2015-05-02T12:46:32.0000000+00:00</time></trkpt><trkpt lat="34.9445993" lon="33.5743146"><ele>87.9</ele><time>2015-05-02T12:46:36.0000000+00:00</time></trkpt><trkpt lat="34.9445812" lon="33.5742585"><ele>88.0</ele><time>2015-05-02T12:46:39.0000000+00:00</time></trkpt><trkpt lat="34.9445583" lon="33.5741973"><ele>88.5</ele><time>2015-05-02T12:46:43.0000000+00:00</time></trkpt><trkpt lat="34.9445477" lon="33.57413"><ele>89.0</ele><time>2015-05-02T12:46:47.0000000+00:00</time></trkpt><trkpt lat="34.9445448" lon="33.5740687"><ele>89.8</ele><time>2015-05-02T12:46:50.0000000+00:00</time></trkpt><trkpt lat="34.9445476" lon="33.5740094"><ele>90.0</ele><time>2015-05-02T12:46:52.0000000+00:00</time></trkpt><trkpt lat="34.9445482" lon="33.5739348"><ele>90.5</ele><time>2015-05-02T12:46:55.0000000+00:00</time></trkpt><trkpt lat="34.9445439" lon="33.5738368"><ele>91.0</ele><time>2015-05-02T12:46:58.0000000+00:00</time></trkpt><trkpt lat="34.9445391" lon="33.5737542"><ele>90.5</ele><time>2015-05-02T12:47:00.0000000+00:00</time></trkpt><trkpt lat="34.9445374" lon="33.5736659"><ele>90.1</ele><time>2015-05-02T12:47:02.0000000+00:00</time></trkpt><trkpt lat="34.9445352" lon="33.5735617"><ele>90.1</ele><time>2015-05-02T12:47:04.0000000+00:00</time></trkpt><trkpt lat="34.9445221" lon="33.5734546"><ele>90.0</ele><time>2015-05-02T12:47:06.0000000+00:00</time></trkpt><trkpt lat="34.9445024" lon="33.5733587"><ele>90.0</ele><time>2015-05-02T12:47:08.0000000+00:00</time></trkpt><trkpt lat="34.9444812" lon="33.573277"><ele>90.0</ele><time>2015-05-02T12:47:10.0000000+00:00</time></trkpt><trkpt lat="34.9444639" lon="33.5731997"><ele>90.5</ele><time>2015-05-02T12:47:12.0000000+00:00</time></trkpt><trkpt lat="34.9444483" lon="33.5731214"><ele>90.4</ele><time>2015-05-02T12:47:14.0000000+00:00</time></trkpt><trkpt lat="34.9444286" lon="33.5730364"><ele>90.1</ele><time>2015-05-02T12:47:16.0000000+00:00</time></trkpt><trkpt lat="34.9444068" lon="33.5729415"><ele>90.0</ele><time>2015-05-02T12:47:18.0000000+00:00</time></trkpt><trkpt lat="34.9443847" lon="33.572848"><ele>90.0</ele><time>2015-05-02T12:47:20.0000000+00:00</time></trkpt><trkpt lat="34.9443455" lon="33.5727657"><ele>90.0</ele><time>2015-05-02T12:47:22.0000000+00:00</time></trkpt><trkpt lat="34.9442897" lon="33.5726978"><ele>90.0</ele><time>2015-05-02T12:47:24.0000000+00:00</time></trkpt><trkpt lat="34.9442271" lon="33.5726329"><ele>89.5</ele><time>2015-05-02T12:47:26.0000000+00:00</time></trkpt><trkpt lat="34.9441728" lon="33.5725555"><ele>89.1</ele><time>2015-05-02T12:47:28.0000000+00:00</time></trkpt><trkpt lat="34.944147" lon="33.5724662"><ele>89.6</ele><time>2015-05-02T12:47:30.0000000+00:00</time></trkpt><trkpt lat="34.9441525" lon="33.5723797"><ele>89.9</ele><time>2015-05-02T12:47:32.0000000+00:00</time></trkpt><trkpt lat="34.9441731" lon="33.5722839"><ele>90.0</ele><time>2015-05-02T12:47:34.0000000+00:00</time></trkpt><trkpt lat="34.9441837" lon="33.5722253"><ele>90.0</ele><time>2015-05-02T12:47:35.0000000+00:00</time></trkpt><trkpt lat="34.9442074" lon="33.5721596"><ele>90.0</ele><time>2015-05-02T12:47:36.0000000+00:00</time></trkpt><trkpt lat="34.9442184" lon="33.5721058"><ele>90.0</ele><time>2015-05-02T12:47:37.0000000+00:00</time></trkpt><trkpt lat="34.9442231" lon="33.5720473"><ele>90.0</ele><time>2015-05-02T12:47:38.0000000+00:00</time></trkpt><trkpt lat="34.9442392" lon="33.5719521"><ele>90.0</ele><time>2015-05-02T12:47:40.0000000+00:00</time></trkpt><trkpt lat="34.9442535" lon="33.5718595"><ele>90.0</ele><time>2015-05-02T12:47:42.0000000+00:00</time></trkpt><trkpt lat="34.9442597" lon="33.5717458"><ele>90.0</ele><time>2015-05-02T12:47:44.0000000+00:00</time></trkpt><trkpt lat="34.9442593" lon="33.5716758"><ele>90.0</ele><time>2015-05-02T12:47:45.0000000+00:00</time></trkpt><trkpt lat="34.9442514" lon="33.571591"><ele>90.0</ele><time>2015-05-02T12:47:46.0000000+00:00</time></trkpt><trkpt lat="34.9442317" lon="33.5715204"><ele>90.0</ele><time>2015-05-02T12:47:47.0000000+00:00</time></trkpt><trkpt lat="34.9442144" lon="33.5714462"><ele>90.0</ele><time>2015-05-02T12:47:48.0000000+00:00</time></trkpt><trkpt lat="34.9441993" lon="33.5713773"><ele>90.0</ele><time>2015-05-02T12:47:49.0000000+00:00</time></trkpt><trkpt lat="34.9441835" lon="33.5713162"><ele>89.5</ele><time>2015-05-02T12:47:50.0000000+00:00</time></trkpt><trkpt lat="34.9441642" lon="33.5712466"><ele>89.8</ele><time>2015-05-02T12:47:51.0000000+00:00</time></trkpt><trkpt lat="34.9441411" lon="33.5711798"><ele>89.4</ele><time>2015-05-02T12:47:52.0000000+00:00</time></trkpt><trkpt lat="34.9441193" lon="33.5711204"><ele>89.2</ele><time>2015-05-02T12:47:53.0000000+00:00</time></trkpt><trkpt lat="34.9440929" lon="33.5710524"><ele>89.1</ele><time>2015-05-02T12:47:54.0000000+00:00</time></trkpt><trkpt lat="34.9440627" lon="33.5709981"><ele>89.1</ele><time>2015-05-02T12:47:55.0000000+00:00</time></trkpt><trkpt lat="34.944034" lon="33.5709477"><ele>89.0</ele><time>2015-05-02T12:47:56.0000000+00:00</time></trkpt><trkpt lat="34.944004" lon="33.5708998"><ele>89.0</ele><time>2015-05-02T12:47:57.0000000+00:00</time></trkpt><trkpt lat="34.9439501" lon="33.5708035"><ele>89.0</ele><time>2015-05-02T12:47:59.0000000+00:00</time></trkpt><trkpt lat="34.9439273" lon="33.5707553"><ele>89.0</ele><time>2015-05-02T12:48:00.0000000+00:00</time></trkpt><trkpt lat="34.943911" lon="33.570704"><ele>89.0</ele><time>2015-05-02T12:48:01.0000000+00:00</time></trkpt><trkpt lat="34.9438926" lon="33.5706423"><ele>89.0</ele><time>2015-05-02T12:48:02.0000000+00:00</time></trkpt><trkpt lat="34.9438672" lon="33.5705285"><ele>89.0</ele><time>2015-05-02T12:48:04.0000000+00:00</time></trkpt><trkpt lat="34.9438513" lon="33.5704678"><ele>88.5</ele><time>2015-05-02T12:48:05.0000000+00:00</time></trkpt><trkpt lat="34.9438307" lon="33.5704132"><ele>88.3</ele><time>2015-05-02T12:48:06.0000000+00:00</time></trkpt><trkpt lat="34.9438012" lon="33.5703601"><ele>88.6</ele><time>2015-05-02T12:48:07.0000000+00:00</time></trkpt><trkpt lat="34.9437548" lon="33.5702928"><ele>88.9</ele><time>2015-05-02T12:48:09.0000000+00:00</time></trkpt><trkpt lat="34.9437063" lon="33.5702589"><ele>89.5</ele><time>2015-05-02T12:48:11.0000000+00:00</time></trkpt><trkpt lat="34.9436429" lon="33.5702636"><ele>90.0</ele><time>2015-05-02T12:48:14.0000000+00:00</time></trkpt><trkpt lat="34.9435935" lon="33.5702799"><ele>90.0</ele><time>2015-05-02T12:48:16.0000000+00:00</time></trkpt><trkpt lat="34.9435421" lon="33.5703121"><ele>90.0</ele><time>2015-05-02T12:48:18.0000000+00:00</time></trkpt><trkpt lat="34.9434888" lon="33.5703499"><ele>90.5</ele><time>2015-05-02T12:48:20.0000000+00:00</time></trkpt><trkpt lat="34.943423" lon="33.5703938"><ele>90.9</ele><time>2015-05-02T12:48:22.0000000+00:00</time></trkpt><trkpt lat="34.9433541" lon="33.5704256"><ele>91.0</ele><time>2015-05-02T12:48:24.0000000+00:00</time></trkpt><trkpt lat="34.9432894" lon="33.5704438"><ele>91.0</ele><time>2015-05-02T12:48:26.0000000+00:00</time></trkpt><trkpt lat="34.9432352" lon="33.5704504"><ele>91.0</ele><time>2015-05-02T12:48:28.0000000+00:00</time></trkpt><trkpt lat="34.9431774" lon="33.5704552"><ele>91.0</ele><time>2015-05-02T12:48:30.0000000+00:00</time></trkpt><trkpt lat="34.9431096" lon="33.5704633"><ele>91.0</ele><time>2015-05-02T12:48:32.0000000+00:00</time></trkpt><trkpt lat="34.9430242" lon="33.5704739"><ele>91.5</ele><time>2015-05-02T12:48:34.0000000+00:00</time></trkpt><trkpt lat="34.9429492" lon="33.5704847"><ele>91.9</ele><time>2015-05-02T12:48:36.0000000+00:00</time></trkpt><trkpt lat="34.9428769" lon="33.5705135"><ele>92.0</ele><time>2015-05-02T12:48:38.0000000+00:00</time></trkpt><trkpt lat="34.9428003" lon="33.5705511"><ele>92.0</ele><time>2015-05-02T12:48:40.0000000+00:00</time></trkpt><trkpt lat="34.9427544" lon="33.5705811"><ele>92.5</ele><time>2015-05-02T12:48:41.0000000+00:00</time></trkpt><trkpt lat="34.9426845" lon="33.5706239"><ele>93.4</ele><time>2015-05-02T12:48:43.0000000+00:00</time></trkpt><trkpt lat="34.9426198" lon="33.5706561"><ele>93.9</ele><time>2015-05-02T12:48:45.0000000+00:00</time></trkpt><trkpt lat="34.9425725" lon="33.5706771"><ele>94.0</ele><time>2015-05-02T12:48:47.0000000+00:00</time></trkpt><trkpt lat="34.9425179" lon="33.5707099"><ele>94.0</ele><time>2015-05-02T12:48:50.0000000+00:00</time></trkpt><trkpt lat="34.9424772" lon="33.5707356"><ele>94.0</ele><time>2015-05-02T12:48:53.0000000+00:00</time></trkpt><trkpt lat="34.9424218" lon="33.5707627"><ele>94.8</ele><time>2015-05-02T12:48:56.0000000+00:00</time></trkpt><trkpt lat="34.9423786" lon="33.5707811"><ele>95.0</ele><time>2015-05-02T12:48:58.0000000+00:00</time></trkpt><trkpt lat="34.9423276" lon="33.5708088"><ele>95.8</ele><time>2015-05-02T12:49:00.0000000+00:00</time></trkpt><trkpt lat="34.942274" lon="33.5708348"><ele>96.5</ele><time>2015-05-02T12:49:02.0000000+00:00</time></trkpt><trkpt lat="34.9422191" lon="33.570862"><ele>96.4</ele><time>2015-05-02T12:49:04.0000000+00:00</time></trkpt><trkpt lat="34.9421669" lon="33.570892"><ele>96.9</ele><time>2015-05-02T12:49:06.0000000+00:00</time></trkpt><trkpt lat="34.9421161" lon="33.5709206"><ele>97.5</ele><time>2015-05-02T12:49:08.0000000+00:00</time></trkpt><trkpt lat="34.9420623" lon="33.5709515"><ele>97.9</ele><time>2015-05-02T12:49:10.0000000+00:00</time></trkpt><trkpt lat="34.9420002" lon="33.570986"><ele>98.7</ele><time>2015-05-02T12:49:12.0000000+00:00</time></trkpt><trkpt lat="34.9419434" lon="33.5710202"><ele>99.0</ele><time>2015-05-02T12:49:14.0000000+00:00</time></trkpt><trkpt lat="34.9419045" lon="33.5710499"><ele>99.0</ele><time>2015-05-02T12:49:16.0000000+00:00</time></trkpt><trkpt lat="34.941856" lon="33.571104"><ele>99.0</ele><time>2015-05-02T12:49:19.0000000+00:00</time></trkpt><trkpt lat="34.9418195" lon="33.5711402"><ele>99.8</ele><time>2015-05-02T12:49:21.0000000+00:00</time></trkpt><trkpt lat="34.941765" lon="33.5711778"><ele>100.0</ele><time>2015-05-02T12:49:23.0000000+00:00</time></trkpt><trkpt lat="34.9417051" lon="33.5712001"><ele>100.0</ele><time>2015-05-02T12:49:25.0000000+00:00</time></trkpt><trkpt lat="34.9416562" lon="33.5712022"><ele>100.0</ele><time>2015-05-02T12:49:27.0000000+00:00</time></trkpt><trkpt lat="34.9416104" lon="33.5711977"><ele>100.0</ele><time>2015-05-02T12:49:29.0000000+00:00</time></trkpt><trkpt lat="34.9415567" lon="33.571188"><ele>100.0</ele><time>2015-05-02T12:49:31.0000000+00:00</time></trkpt><trkpt lat="34.9414816" lon="33.5711679"><ele>100.0</ele><time>2015-05-02T12:49:33.0000000+00:00</time></trkpt><trkpt lat="34.9414129" lon="33.5711479"><ele>99.3</ele><time>2015-05-02T12:49:35.0000000+00:00</time></trkpt><trkpt lat="34.9413448" lon="33.5711367"><ele>99.3</ele><time>2015-05-02T12:49:37.0000000+00:00</time></trkpt><trkpt lat="34.9412744" lon="33.5711348"><ele>99.1</ele><time>2015-05-02T12:49:39.0000000+00:00</time></trkpt><trkpt lat="34.9412007" lon="33.5711478"><ele>99.0</ele><time>2015-05-02T12:49:41.0000000+00:00</time></trkpt><trkpt lat="34.9411293" lon="33.5711634"><ele>99.0</ele><time>2015-05-02T12:49:43.0000000+00:00</time></trkpt><trkpt lat="34.9410608" lon="33.5711862"><ele>99.0</ele><time>2015-05-02T12:49:45.0000000+00:00</time></trkpt><trkpt lat="34.9409826" lon="33.5712267"><ele>99.5</ele><time>2015-05-02T12:49:47.0000000+00:00</time></trkpt><trkpt lat="34.9409074" lon="33.5712797"><ele>100.4</ele><time>2015-05-02T12:49:49.0000000+00:00</time></trkpt><trkpt lat="34.9408427" lon="33.5713273"><ele>100.6</ele><time>2015-05-02T12:49:51.0000000+00:00</time></trkpt><trkpt lat="34.9407906" lon="33.5713619"><ele>100.9</ele><time>2015-05-02T12:49:53.0000000+00:00</time></trkpt><trkpt lat="34.9407331" lon="33.5714048"><ele>101.0</ele><time>2015-05-02T12:49:55.0000000+00:00</time></trkpt><trkpt lat="34.9406634" lon="33.5714522"><ele>101.5</ele><time>2015-05-02T12:49:57.0000000+00:00</time></trkpt><trkpt lat="34.9405846" lon="33.5714813"><ele>101.9</ele><time>2015-05-02T12:49:59.0000000+00:00</time></trkpt><trkpt lat="34.9405049" lon="33.5714913"><ele>102.5</ele><time>2015-05-02T12:50:01.0000000+00:00</time></trkpt><trkpt lat="34.9404316" lon="33.5714853"><ele>102.9</ele><time>2015-05-02T12:50:03.0000000+00:00</time></trkpt><trkpt lat="34.9403742" lon="33.5714787"><ele>103.0</ele><time>2015-05-02T12:50:05.0000000+00:00</time></trkpt><trkpt lat="34.9403092" lon="33.5714818"><ele>103.0</ele><time>2015-05-02T12:50:07.0000000+00:00</time></trkpt><trkpt lat="34.9402356" lon="33.5715096"><ele>103.0</ele><time>2015-05-02T12:50:09.0000000+00:00</time></trkpt><trkpt lat="34.940184" lon="33.5715758"><ele>103.0</ele><time>2015-05-02T12:50:11.0000000+00:00</time></trkpt><trkpt lat="34.9401576" lon="33.571667"><ele>103.0</ele><time>2015-05-02T12:50:13.0000000+00:00</time></trkpt><trkpt lat="34.9401444" lon="33.571762"><ele>103.0</ele><time>2015-05-02T12:50:15.0000000+00:00</time></trkpt><trkpt lat="34.9401209" lon="33.5718504"><ele>103.0</ele><time>2015-05-02T12:50:17.0000000+00:00</time></trkpt><trkpt lat="34.9400777" lon="33.5719332"><ele>103.0</ele><time>2015-05-02T12:50:19.0000000+00:00</time></trkpt><trkpt lat="34.94003" lon="33.5720143"><ele>103.0</ele><time>2015-05-02T12:50:21.0000000+00:00</time></trkpt><trkpt lat="34.9399863" lon="33.5720949"><ele>103.0</ele><time>2015-05-02T12:50:23.0000000+00:00</time></trkpt><trkpt lat="34.9399265" lon="33.5721969"><ele>102.8</ele><time>2015-05-02T12:50:25.0000000+00:00</time></trkpt><trkpt lat="34.9398626" lon="33.5722523"><ele>102.2</ele><time>2015-05-02T12:50:27.0000000+00:00</time></trkpt><trkpt lat="34.9398141" lon="33.5723136"><ele>101.8</ele><time>2015-05-02T12:50:29.0000000+00:00</time></trkpt><trkpt lat="34.9397718" lon="33.5723769"><ele>102.0</ele><time>2015-05-02T12:50:31.0000000+00:00</time></trkpt><trkpt lat="34.939732" lon="33.5724605"><ele>102.0</ele><time>2015-05-02T12:50:33.0000000+00:00</time></trkpt><trkpt lat="34.9397066" lon="33.5725094"><ele>102.0</ele><time>2015-05-02T12:50:34.0000000+00:00</time></trkpt><trkpt lat="34.9396852" lon="33.5725592"><ele>102.0</ele><time>2015-05-02T12:50:35.0000000+00:00</time></trkpt><trkpt lat="34.939638" lon="33.5726398"><ele>102.0</ele><time>2015-05-02T12:50:37.0000000+00:00</time></trkpt><trkpt lat="34.9395835" lon="33.5727002"><ele>102.0</ele><time>2015-05-02T12:50:39.0000000+00:00</time></trkpt><trkpt lat="34.9395256" lon="33.5727589"><ele>102.0</ele><time>2015-05-02T12:50:41.0000000+00:00</time></trkpt><trkpt lat="34.9394523" lon="33.5728017"><ele>102.0</ele><time>2015-05-02T12:50:43.0000000+00:00</time></trkpt><trkpt lat="34.9393815" lon="33.5728357"><ele>102.0</ele><time>2015-05-02T12:50:45.0000000+00:00</time></trkpt><trkpt lat="34.9393156" lon="33.5728543"><ele>103.3</ele><time>2015-05-02T12:50:47.0000000+00:00</time></trkpt><trkpt lat="34.9392504" lon="33.5728654"><ele>103.8</ele><time>2015-05-02T12:50:49.0000000+00:00</time></trkpt><trkpt lat="34.9391854" lon="33.5728723"><ele>104.5</ele><time>2015-05-02T12:50:51.0000000+00:00</time></trkpt><trkpt lat="34.9391283" lon="33.5728793"><ele>105.4</ele><time>2015-05-02T12:50:53.0000000+00:00</time></trkpt><trkpt lat="34.9390779" lon="33.5728795"><ele>105.9</ele><time>2015-05-02T12:50:55.0000000+00:00</time></trkpt><trkpt lat="34.9390252" lon="33.5728772"><ele>106.0</ele><time>2015-05-02T12:50:57.0000000+00:00</time></trkpt><trkpt lat="34.9389693" lon="33.5728717"><ele>106.8</ele><time>2015-05-02T12:50:59.0000000+00:00</time></trkpt><trkpt lat="34.9389202" lon="33.5728576"><ele>107.0</ele><time>2015-05-02T12:51:01.0000000+00:00</time></trkpt><trkpt lat="34.9388647" lon="33.5728278"><ele>107.0</ele><time>2015-05-02T12:51:05.0000000+00:00</time></trkpt><trkpt lat="34.9388186" lon="33.5728094"><ele>106.5</ele><time>2015-05-02T12:51:07.0000000+00:00</time></trkpt><trkpt lat="34.938769" lon="33.5727949"><ele>106.1</ele><time>2015-05-02T12:51:09.0000000+00:00</time></trkpt><trkpt lat="34.9387227" lon="33.572803"><ele>106.1</ele><time>2015-05-02T12:51:11.0000000+00:00</time></trkpt><trkpt lat="34.9386796" lon="33.5728455"><ele>105.5</ele><time>2015-05-02T12:51:14.0000000+00:00</time></trkpt><trkpt lat="34.938654" lon="33.5728914"><ele>105.0</ele><time>2015-05-02T12:51:51.0000000+00:00</time></trkpt><trkpt lat="34.938613" lon="33.5729163"><ele>107.1</ele><time>2015-05-02T12:55:53.0000000+00:00</time></trkpt><trkpt lat="34.9386378" lon="33.5728697"><ele>109.0</ele><time>2015-05-02T12:56:24.0000000+00:00</time></trkpt><trkpt lat="34.9386766" lon="33.5728356"><ele>108.8</ele><time>2015-05-02T12:56:29.0000000+00:00</time></trkpt><trkpt lat="34.9386799" lon="33.5727732"><ele>110.6</ele><time>2015-05-02T12:56:33.0000000+00:00</time></trkpt><trkpt lat="34.9386174" lon="33.5727434"><ele>111.0</ele><time>2015-05-02T12:56:36.0000000+00:00</time></trkpt><trkpt lat="34.938576" lon="33.572718"><ele>111.0</ele><time>2015-05-02T12:56:38.0000000+00:00</time></trkpt><trkpt lat="34.9385265" lon="33.5726751"><ele>110.1</ele><time>2015-05-02T12:56:41.0000000+00:00</time></trkpt><trkpt lat="34.9384896" lon="33.5726406"><ele>109.3</ele><time>2015-05-02T12:56:44.0000000+00:00</time></trkpt><trkpt lat="34.938444" lon="33.572609"><ele>109.9</ele><time>2015-05-02T12:56:48.0000000+00:00</time></trkpt><trkpt lat="34.9383985" lon="33.5725924"><ele>109.8</ele><time>2015-05-02T12:56:52.0000000+00:00</time></trkpt><trkpt lat="34.93835" lon="33.5725695"><ele>110.0</ele><time>2015-05-02T12:56:56.0000000+00:00</time></trkpt><trkpt lat="34.9383095" lon="33.5725366"><ele>111.0</ele><time>2015-05-02T12:57:00.0000000+00:00</time></trkpt><trkpt lat="34.938257" lon="33.5725243"><ele>111.7</ele><time>2015-05-02T12:57:04.0000000+00:00</time></trkpt><trkpt lat="34.938199" lon="33.5725237"><ele>111.1</ele><time>2015-05-02T12:57:07.0000000+00:00</time></trkpt><trkpt lat="34.9381454" lon="33.5725259"><ele>111.0</ele><time>2015-05-02T12:57:09.0000000+00:00</time></trkpt><trkpt lat="34.9380959" lon="33.5725336"><ele>110.8</ele><time>2015-05-02T12:57:11.0000000+00:00</time></trkpt><trkpt lat="34.9380473" lon="33.572545"><ele>111.2</ele><time>2015-05-02T12:57:13.0000000+00:00</time></trkpt><trkpt lat="34.9379958" lon="33.57256"><ele>111.6</ele><time>2015-05-02T12:57:15.0000000+00:00</time></trkpt><trkpt lat="34.9379464" lon="33.5725748"><ele>111.7</ele><time>2015-05-02T12:57:17.0000000+00:00</time></trkpt><trkpt lat="34.9378834" lon="33.5725908"><ele>111.5</ele><time>2015-05-02T12:57:20.0000000+00:00</time></trkpt><trkpt lat="34.9378347" lon="33.5726096"><ele>111.2</ele><time>2015-05-02T12:57:23.0000000+00:00</time></trkpt><trkpt lat="34.937788" lon="33.572668"><ele>112.0</ele><time>2015-05-02T12:57:26.0000000+00:00</time></trkpt><trkpt lat="34.9377521" lon="33.5727099"><ele>112.0</ele><time>2015-05-02T12:57:28.0000000+00:00</time></trkpt><trkpt lat="34.9377155" lon="33.5727421"><ele>112.5</ele><time>2015-05-02T12:57:30.0000000+00:00</time></trkpt><trkpt lat="34.9376668" lon="33.5727808"><ele>111.3</ele><time>2015-05-02T12:57:33.0000000+00:00</time></trkpt><trkpt lat="34.9376208" lon="33.5728085"><ele>111.6</ele><time>2015-05-02T12:57:35.0000000+00:00</time></trkpt><trkpt lat="34.9375435" lon="33.5728382"><ele>111.3</ele><time>2015-05-02T12:57:36.0000000+00:00</time></trkpt><trkpt lat="34.9374946" lon="33.5728458"><ele>111.2</ele><time>2015-05-02T12:57:37.0000000+00:00</time></trkpt><trkpt lat="34.9374333" lon="33.5728536"><ele>111.1</ele><time>2015-05-02T12:57:38.0000000+00:00</time></trkpt><trkpt lat="34.9373743" lon="33.5728578"><ele>111.1</ele><time>2015-05-02T12:57:39.0000000+00:00</time></trkpt><trkpt lat="34.93731" lon="33.572862"><ele>111.0</ele><time>2015-05-02T12:57:40.0000000+00:00</time></trkpt><trkpt lat="34.937254" lon="33.5728625"><ele>111.0</ele><time>2015-05-02T12:57:41.0000000+00:00</time></trkpt><trkpt lat="34.9372079" lon="33.5728621"><ele>111.0</ele><time>2015-05-02T12:57:42.0000000+00:00</time></trkpt><trkpt lat="34.9371173" lon="33.5728571"><ele>111.0</ele><time>2015-05-02T12:57:44.0000000+00:00</time></trkpt><trkpt lat="34.9370657" lon="33.5728596"><ele>111.0</ele><time>2015-05-02T12:57:45.0000000+00:00</time></trkpt><trkpt lat="34.9370097" lon="33.5728647"><ele>111.0</ele><time>2015-05-02T12:57:46.0000000+00:00</time></trkpt><trkpt lat="34.9369647" lon="33.5728708"><ele>110.5</ele><time>2015-05-02T12:57:47.0000000+00:00</time></trkpt><trkpt lat="34.9369109" lon="33.5728456"><ele>110.1</ele><time>2015-05-02T12:57:49.0000000+00:00</time></trkpt><trkpt lat="34.9368979" lon="33.5727912"><ele>109.2</ele><time>2015-05-02T12:57:52.0000000+00:00</time></trkpt><trkpt lat="34.9369098" lon="33.5727143"><ele>110.1</ele><time>2015-05-02T12:57:54.0000000+00:00</time></trkpt><trkpt lat="34.93692" lon="33.5725977"><ele>112.0</ele><time>2015-05-02T12:57:56.0000000+00:00</time></trkpt><trkpt lat="34.9369238" lon="33.5725255"><ele>113.0</ele><time>2015-05-02T12:57:57.0000000+00:00</time></trkpt><trkpt lat="34.9369355" lon="33.5724546"><ele>114.5</ele><time>2015-05-02T12:57:58.0000000+00:00</time></trkpt><trkpt lat="34.9369521" lon="33.5723946"><ele>115.3</ele><time>2015-05-02T12:57:59.0000000+00:00</time></trkpt><trkpt lat="34.9370223" lon="33.5723161"><ele>116.3</ele><time>2015-05-02T12:58:01.0000000+00:00</time></trkpt><trkpt lat="34.9370848" lon="33.5723258"><ele>116.6</ele><time>2015-05-02T12:58:03.0000000+00:00</time></trkpt><trkpt lat="34.9371514" lon="33.5723486"><ele>117.4</ele><time>2015-05-02T12:58:05.0000000+00:00</time></trkpt><trkpt lat="34.9372183" lon="33.5723789"><ele>117.4</ele><time>2015-05-02T12:58:07.0000000+00:00</time></trkpt><trkpt lat="34.9372924" lon="33.5723739"><ele>117.9</ele><time>2015-05-02T12:58:09.0000000+00:00</time></trkpt><trkpt lat="34.9373622" lon="33.5723595"><ele>118.0</ele><time>2015-05-02T12:58:11.0000000+00:00</time></trkpt><trkpt lat="34.9374322" lon="33.5723267"><ele>116.3</ele><time>2015-05-02T12:58:13.0000000+00:00</time></trkpt><trkpt lat="34.937484" lon="33.5722764"><ele>116.6</ele><time>2015-05-02T12:58:15.0000000+00:00</time></trkpt><trkpt lat="34.9375194" lon="33.5722058"><ele>116.9</ele><time>2015-05-02T12:58:17.0000000+00:00</time></trkpt><trkpt lat="34.937549" lon="33.572128"><ele>117.7</ele><time>2015-05-02T12:58:19.0000000+00:00</time></trkpt><trkpt lat="34.9375759" lon="33.5720549"><ele>118.0</ele><time>2015-05-02T12:58:21.0000000+00:00</time></trkpt><trkpt lat="34.937591" lon="33.5719847"><ele>118.8</ele><time>2015-05-02T12:58:23.0000000+00:00</time></trkpt><trkpt lat="34.9375997" lon="33.5719191"><ele>119.2</ele><time>2015-05-02T12:58:25.0000000+00:00</time></trkpt><trkpt lat="34.937619" lon="33.5718547"><ele>121.3</ele><time>2015-05-02T12:58:27.0000000+00:00</time></trkpt><trkpt lat="34.9376646" lon="33.5717979"><ele>121.1</ele><time>2015-05-02T12:58:29.0000000+00:00</time></trkpt><trkpt lat="34.9377264" lon="33.5717961"><ele>122.5</ele><time>2015-05-02T12:58:31.0000000+00:00</time></trkpt><trkpt lat="34.9377755" lon="33.5718568"><ele>122.2</ele><time>2015-05-02T12:58:33.0000000+00:00</time></trkpt><trkpt lat="34.9378154" lon="33.5719287"><ele>120.8</ele><time>2015-05-02T12:58:35.0000000+00:00</time></trkpt><trkpt lat="34.9378704" lon="33.5720014"><ele>120.2</ele><time>2015-05-02T12:58:37.0000000+00:00</time></trkpt><trkpt lat="34.937931" lon="33.5720587"><ele>120.6</ele><time>2015-05-02T12:58:39.0000000+00:00</time></trkpt><trkpt lat="34.9380279" lon="33.5721119"><ele>120.9</ele><time>2015-05-02T12:58:41.0000000+00:00</time></trkpt><trkpt lat="34.9381004" lon="33.5721313"><ele>121.5</ele><time>2015-05-02T12:58:43.0000000+00:00</time></trkpt><trkpt lat="34.9381633" lon="33.5721544"><ele>122.4</ele><time>2015-05-02T12:58:45.0000000+00:00</time></trkpt><trkpt lat="34.9382352" lon="33.5721696"><ele>122.1</ele><time>2015-05-02T12:58:47.0000000+00:00</time></trkpt><trkpt lat="34.9383057" lon="33.5721737"><ele>121.8</ele><time>2015-05-02T12:58:49.0000000+00:00</time></trkpt><trkpt lat="34.938383" lon="33.5721761"><ele>121.2</ele><time>2015-05-02T12:58:51.0000000+00:00</time></trkpt><trkpt lat="34.938428" lon="33.5721818"><ele>121.6</ele><time>2015-05-02T12:58:52.0000000+00:00</time></trkpt><trkpt lat="34.9384802" lon="33.572191"><ele>121.8</ele><time>2015-05-02T12:58:53.0000000+00:00</time></trkpt><trkpt lat="34.9385572" lon="33.5722243"><ele>122.2</ele><time>2015-05-02T12:58:55.0000000+00:00</time></trkpt><trkpt lat="34.9386272" lon="33.5722637"><ele>121.8</ele><time>2015-05-02T12:58:57.0000000+00:00</time></trkpt><trkpt lat="34.9386846" lon="33.5723097"><ele>121.2</ele><time>2015-05-02T12:58:59.0000000+00:00</time></trkpt><trkpt lat="34.9387268" lon="33.5723326"><ele>121.1</ele><time>2015-05-02T12:59:00.0000000+00:00</time></trkpt><trkpt lat="34.938786" lon="33.572389"><ele>121.0</ele><time>2015-05-02T12:59:02.0000000+00:00</time></trkpt><trkpt lat="34.9388495" lon="33.5724591"><ele>121.0</ele><time>2015-05-02T12:59:04.0000000+00:00</time></trkpt><trkpt lat="34.9389085" lon="33.5725403"><ele>120.3</ele><time>2015-05-02T12:59:06.0000000+00:00</time></trkpt><trkpt lat="34.9389393" lon="33.572581"><ele>120.1</ele><time>2015-05-02T12:59:07.0000000+00:00</time></trkpt><trkpt lat="34.9389788" lon="33.5726114"><ele>120.1</ele><time>2015-05-02T12:59:08.0000000+00:00</time></trkpt><trkpt lat="34.9390302" lon="33.5726443"><ele>120.1</ele><time>2015-05-02T12:59:09.0000000+00:00</time></trkpt><trkpt lat="34.9390791" lon="33.5726656"><ele>120.0</ele><time>2015-05-02T12:59:10.0000000+00:00</time></trkpt><trkpt lat="34.9391275" lon="33.572683"><ele>120.0</ele><time>2015-05-02T12:59:11.0000000+00:00</time></trkpt><trkpt lat="34.9391747" lon="33.5726838"><ele>120.0</ele><time>2015-05-02T12:59:12.0000000+00:00</time></trkpt><trkpt lat="34.9392314" lon="33.5726902"><ele>120.5</ele><time>2015-05-02T12:59:13.0000000+00:00</time></trkpt><trkpt lat="34.93928" lon="33.5726837"><ele>121.3</ele><time>2015-05-02T12:59:14.0000000+00:00</time></trkpt><trkpt lat="34.9393648" lon="33.5726752"><ele>121.6</ele><time>2015-05-02T12:59:16.0000000+00:00</time></trkpt><trkpt lat="34.9394591" lon="33.5726593"><ele>122.4</ele><time>2015-05-02T12:59:18.0000000+00:00</time></trkpt><trkpt lat="34.9395353" lon="33.5726116"><ele>122.9</ele><time>2015-05-02T12:59:20.0000000+00:00</time></trkpt><trkpt lat="34.9396002" lon="33.5725602"><ele>123.7</ele><time>2015-05-02T12:59:22.0000000+00:00</time></trkpt><trkpt lat="34.9396679" lon="33.5724763"><ele>123.7</ele><time>2015-05-02T12:59:24.0000000+00:00</time></trkpt><trkpt lat="34.9397112" lon="33.5724239"><ele>123.9</ele><time>2015-05-02T12:59:25.0000000+00:00</time></trkpt><trkpt lat="34.9397665" lon="33.5723392"><ele>123.5</ele><time>2015-05-02T12:59:27.0000000+00:00</time></trkpt><trkpt lat="34.9398341" lon="33.5722739"><ele>122.6</ele><time>2015-05-02T12:59:29.0000000+00:00</time></trkpt><trkpt lat="34.9398772" lon="33.5722416"><ele>122.3</ele><time>2015-05-02T12:59:30.0000000+00:00</time></trkpt><trkpt lat="34.9399136" lon="33.5721969"><ele>121.7</ele><time>2015-05-02T12:59:31.0000000+00:00</time></trkpt><trkpt lat="34.9399479" lon="33.572139"><ele>121.3</ele><time>2015-05-02T12:59:32.0000000+00:00</time></trkpt><trkpt lat="34.9399762" lon="33.5720847"><ele>121.2</ele><time>2015-05-02T12:59:33.0000000+00:00</time></trkpt><trkpt lat="34.9399959" lon="33.5720238"><ele>121.6</ele><time>2015-05-02T12:59:34.0000000+00:00</time></trkpt><trkpt lat="34.9400297" lon="33.5719677"><ele>122.3</ele><time>2015-05-02T12:59:35.0000000+00:00</time></trkpt><trkpt lat="34.9400548" lon="33.5719202"><ele>122.2</ele><time>2015-05-02T12:59:36.0000000+00:00</time></trkpt><trkpt lat="34.9401" lon="33.5718207"><ele>122.1</ele><time>2015-05-02T12:59:38.0000000+00:00</time></trkpt><trkpt lat="34.9401248" lon="33.5717726"><ele>121.5</ele><time>2015-05-02T12:59:39.0000000+00:00</time></trkpt><trkpt lat="34.9401397" lon="33.5717105"><ele>120.8</ele><time>2015-05-02T12:59:40.0000000+00:00</time></trkpt><trkpt lat="34.9401643" lon="33.5716545"><ele>120.9</ele><time>2015-05-02T12:59:41.0000000+00:00</time></trkpt><trkpt lat="34.9401804" lon="33.5716022"><ele>121.0</ele><time>2015-05-02T12:59:42.0000000+00:00</time></trkpt><trkpt lat="34.9402102" lon="33.571555"><ele>121.0</ele><time>2015-05-02T12:59:43.0000000+00:00</time></trkpt><trkpt lat="34.9402964" lon="33.5715107"><ele>121.0</ele><time>2015-05-02T12:59:45.0000000+00:00</time></trkpt><trkpt lat="34.9403912" lon="33.5714996"><ele>121.5</ele><time>2015-05-02T12:59:47.0000000+00:00</time></trkpt><trkpt lat="34.940447" lon="33.5714982"><ele>121.3</ele><time>2015-05-02T12:59:48.0000000+00:00</time></trkpt><trkpt lat="34.9405076" lon="33.5714914"><ele>120.6</ele><time>2015-05-02T12:59:49.0000000+00:00</time></trkpt><trkpt lat="34.9405608" lon="33.5714824"><ele>120.3</ele><time>2015-05-02T12:59:50.0000000+00:00</time></trkpt><trkpt lat="34.940626" lon="33.5714651"><ele>119.7</ele><time>2015-05-02T12:59:51.0000000+00:00</time></trkpt><trkpt lat="34.9406745" lon="33.5714398"><ele>119.3</ele><time>2015-05-02T12:59:52.0000000+00:00</time></trkpt><trkpt lat="34.9407351" lon="33.5713696"><ele>118.4</ele><time>2015-05-02T12:59:54.0000000+00:00</time></trkpt><trkpt lat="34.940772" lon="33.5713119"><ele>116.9</ele><time>2015-05-02T12:59:56.0000000+00:00</time></trkpt><trkpt lat="34.9408306" lon="33.5712968"><ele>117.0</ele><time>2015-05-02T12:59:59.0000000+00:00</time></trkpt><trkpt lat="34.940841" lon="33.5713693"><ele>117.9</ele><time>2015-05-02T13:00:02.0000000+00:00</time></trkpt><trkpt lat="34.9407902" lon="33.571396"><ele>119.0</ele><time>2015-05-02T13:00:05.0000000+00:00</time></trkpt><trkpt lat="34.9407426" lon="33.571348"><ele>120.4</ele><time>2015-05-02T13:00:08.0000000+00:00</time></trkpt><trkpt lat="34.9406994" lon="33.5713117"><ele>119.6</ele><time>2015-05-02T13:00:10.0000000+00:00</time></trkpt><trkpt lat="34.9406292" lon="33.5712712"><ele>119.2</ele><time>2015-05-02T13:00:12.0000000+00:00</time></trkpt><trkpt lat="34.9405853" lon="33.5712458"><ele>118.6</ele><time>2015-05-02T13:00:13.0000000+00:00</time></trkpt><trkpt lat="34.94051" lon="33.5712059"><ele>117.8</ele><time>2015-05-02T13:00:14.0000000+00:00</time></trkpt><trkpt lat="34.9404559" lon="33.5711866"><ele>117.4</ele><time>2015-05-02T13:00:15.0000000+00:00</time></trkpt><trkpt lat="34.9403785" lon="33.5711644"><ele>116.4</ele><time>2015-05-02T13:00:17.0000000+00:00</time></trkpt><trkpt lat="34.9403318" lon="33.5711491"><ele>116.2</ele><time>2015-05-02T13:00:18.0000000+00:00</time></trkpt><trkpt lat="34.9402876" lon="33.5711317"><ele>116.1</ele><time>2015-05-02T13:00:19.0000000+00:00</time></trkpt><trkpt lat="34.9402369" lon="33.5711076"><ele>115.6</ele><time>2015-05-02T13:00:20.0000000+00:00</time></trkpt><trkpt lat="34.9401865" lon="33.5710816"><ele>115.8</ele><time>2015-05-02T13:00:21.0000000+00:00</time></trkpt><trkpt lat="34.940136" lon="33.5710668"><ele>115.9</ele><time>2015-05-02T13:00:22.0000000+00:00</time></trkpt><trkpt lat="34.94009" lon="33.5710669"><ele>115.5</ele><time>2015-05-02T13:00:23.0000000+00:00</time></trkpt><trkpt lat="34.940045" lon="33.57106"><ele>115.2</ele><time>2015-05-02T13:00:24.0000000+00:00</time></trkpt><trkpt lat="34.9399938" lon="33.5710533"><ele>114.6</ele><time>2015-05-02T13:00:25.0000000+00:00</time></trkpt><trkpt lat="34.9399446" lon="33.5710532"><ele>113.8</ele><time>2015-05-02T13:00:26.0000000+00:00</time></trkpt><trkpt lat="34.9398894" lon="33.5710659"><ele>113.9</ele><time>2015-05-02T13:00:27.0000000+00:00</time></trkpt><trkpt lat="34.9398424" lon="33.5710758"><ele>113.5</ele><time>2015-05-02T13:00:28.0000000+00:00</time></trkpt><trkpt lat="34.9397985" lon="33.5710928"><ele>113.2</ele><time>2015-05-02T13:00:29.0000000+00:00</time></trkpt><trkpt lat="34.9397375" lon="33.5711036"><ele>113.6</ele><time>2015-05-02T13:00:30.0000000+00:00</time></trkpt><trkpt lat="34.9396819" lon="33.571109"><ele>113.8</ele><time>2015-05-02T13:00:31.0000000+00:00</time></trkpt><trkpt lat="34.9396269" lon="33.5711143"><ele>114.4</ele><time>2015-05-02T13:00:32.0000000+00:00</time></trkpt><trkpt lat="34.9395653" lon="33.5711303"><ele>115.6</ele><time>2015-05-02T13:00:34.0000000+00:00</time></trkpt><trkpt lat="34.9395176" lon="33.5711497"><ele>119.2</ele><time>2015-05-02T13:00:41.0000000+00:00</time></trkpt><trkpt lat="34.9395248" lon="33.57106"><ele>117.3</ele><time>2015-05-02T13:00:50.0000000+00:00</time></trkpt><trkpt lat="34.9395252" lon="33.5710039"><ele>116.7</ele><time>2015-05-02T13:00:51.0000000+00:00</time></trkpt><trkpt lat="34.9395396" lon="33.5709395"><ele>116.8</ele><time>2015-05-02T13:00:52.0000000+00:00</time></trkpt><trkpt lat="34.9395665" lon="33.5708738"><ele>116.4</ele><time>2015-05-02T13:00:53.0000000+00:00</time></trkpt><trkpt lat="34.9395978" lon="33.5708219"><ele>115.7</ele><time>2015-05-02T13:00:54.0000000+00:00</time></trkpt><trkpt lat="34.9396354" lon="33.5707693"><ele>115.9</ele><time>2015-05-02T13:00:55.0000000+00:00</time></trkpt><trkpt lat="34.9396737" lon="33.5707198"><ele>115.9</ele><time>2015-05-02T13:00:56.0000000+00:00</time></trkpt><trkpt lat="34.9397009" lon="33.5706692"><ele>115.5</ele><time>2015-05-02T13:00:57.0000000+00:00</time></trkpt><trkpt lat="34.9397271" lon="33.5706174"><ele>115.3</ele><time>2015-05-02T13:00:58.0000000+00:00</time></trkpt><trkpt lat="34.9397559" lon="33.5705094"><ele>115.1</ele><time>2015-05-02T13:01:00.0000000+00:00</time></trkpt><trkpt lat="34.9397753" lon="33.5704094"><ele>112.3</ele><time>2015-05-02T13:01:02.0000000+00:00</time></trkpt><trkpt lat="34.9397684" lon="33.5703138"><ele>109.6</ele><time>2015-05-02T13:01:04.0000000+00:00</time></trkpt><trkpt lat="34.939779" lon="33.5702352"><ele>107.2</ele><time>2015-05-02T13:01:06.0000000+00:00</time></trkpt><trkpt lat="34.9397951" lon="33.570151"><ele>104.3</ele><time>2015-05-02T13:01:08.0000000+00:00</time></trkpt><trkpt lat="34.9398016" lon="33.5700934"><ele>102.1</ele><time>2015-05-02T13:01:10.0000000+00:00</time></trkpt><trkpt lat="34.9398167" lon="33.5700249"><ele>100.3</ele><time>2015-05-02T13:01:12.0000000+00:00</time></trkpt><trkpt lat="34.9398607" lon="33.5699395"><ele>100.2</ele><time>2015-05-02T13:01:13.0000000+00:00</time></trkpt><trkpt lat="34.9399012" lon="33.5698753"><ele>100.1</ele><time>2015-05-02T13:01:15.0000000+00:00</time></trkpt><trkpt lat="34.9399346" lon="33.5698167"><ele>100.8</ele><time>2015-05-02T13:01:17.0000000+00:00</time></trkpt><trkpt lat="34.9399663" lon="33.5697456"><ele>101.7</ele><time>2015-05-02T13:01:19.0000000+00:00</time></trkpt><trkpt lat="34.9400116" lon="33.5696876"><ele>102.7</ele><time>2015-05-02T13:01:21.0000000+00:00</time></trkpt><trkpt lat="34.9400508" lon="33.5696475"><ele>103.7</ele><time>2015-05-02T13:01:23.0000000+00:00</time></trkpt><trkpt lat="34.9400922" lon="33.5696107"><ele>103.2</ele><time>2015-05-02T13:01:25.0000000+00:00</time></trkpt><trkpt lat="34.9401318" lon="33.5695806"><ele>103.1</ele><time>2015-05-02T13:01:27.0000000+00:00</time></trkpt><trkpt lat="34.9401754" lon="33.5695359"><ele>105.3</ele><time>2015-05-02T13:01:30.0000000+00:00</time></trkpt><trkpt lat="34.9402158" lon="33.5695036"><ele>108.1</ele><time>2015-05-02T13:01:33.0000000+00:00</time></trkpt><trkpt lat="34.9402613" lon="33.5694689"><ele>105.0</ele><time>2015-05-02T13:01:37.0000000+00:00</time></trkpt><trkpt lat="34.9403068" lon="33.5694379"><ele>104.3</ele><time>2015-05-02T13:01:41.0000000+00:00</time></trkpt><trkpt lat="34.9403533" lon="33.5693984"><ele>104.9</ele><time>2015-05-02T13:01:45.0000000+00:00</time></trkpt><trkpt lat="34.9403944" lon="33.5693758"><ele>105.0</ele><time>2015-05-02T13:01:48.0000000+00:00</time></trkpt><trkpt lat="34.9404331" lon="33.5693449"><ele>105.0</ele><time>2015-05-02T13:01:51.0000000+00:00</time></trkpt><trkpt lat="34.9404752" lon="33.5693118"><ele>105.5</ele><time>2015-05-02T13:01:54.0000000+00:00</time></trkpt><trkpt lat="34.9405164" lon="33.5692658"><ele>105.1</ele><time>2015-05-02T13:01:57.0000000+00:00</time></trkpt><trkpt lat="34.9405563" lon="33.5692138"><ele>105.0</ele><time>2015-05-02T13:02:00.0000000+00:00</time></trkpt><trkpt lat="34.9405903" lon="33.5691544"><ele>105.1</ele><time>2015-05-02T13:02:04.0000000+00:00</time></trkpt><trkpt lat="34.9406194" lon="33.5691055"><ele>105.0</ele><time>2015-05-02T13:02:07.0000000+00:00</time></trkpt><trkpt lat="34.9406458" lon="33.5690532"><ele>105.5</ele><time>2015-05-02T13:02:10.0000000+00:00</time></trkpt><trkpt lat="34.9406738" lon="33.5689981"><ele>106.3</ele><time>2015-05-02T13:02:13.0000000+00:00</time></trkpt><trkpt lat="34.940702" lon="33.568952"><ele>106.8</ele><time>2015-05-02T13:02:16.0000000+00:00</time></trkpt><trkpt lat="34.9407411" lon="33.5689019"><ele>107.0</ele><time>2015-05-02T13:02:20.0000000+00:00</time></trkpt><trkpt lat="34.9407812" lon="33.5688757"><ele>106.3</ele><time>2015-05-02T13:02:23.0000000+00:00</time></trkpt><trkpt lat="34.9408162" lon="33.5688338"><ele>105.8</ele><time>2015-05-02T13:02:26.0000000+00:00</time></trkpt><trkpt lat="34.9408641" lon="33.5688127"><ele>106.0</ele><time>2015-05-02T13:02:29.0000000+00:00</time></trkpt><trkpt lat="34.9409105" lon="33.5688148"><ele>106.3</ele><time>2015-05-02T13:02:32.0000000+00:00</time></trkpt><trkpt lat="34.940957" lon="33.5688335"><ele>106.1</ele><time>2015-05-02T13:02:35.0000000+00:00</time></trkpt><trkpt lat="34.9409991" lon="33.568867"><ele>106.0</ele><time>2015-05-02T13:02:38.0000000+00:00</time></trkpt><trkpt lat="34.9410313" lon="33.5689168"><ele>106.0</ele><time>2015-05-02T13:02:41.0000000+00:00</time></trkpt><trkpt lat="34.9410529" lon="33.5689734"><ele>106.6</ele><time>2015-05-02T13:02:44.0000000+00:00</time></trkpt><trkpt lat="34.9410706" lon="33.5690276"><ele>107.7</ele><time>2015-05-02T13:02:47.0000000+00:00</time></trkpt><trkpt lat="34.9410938" lon="33.5690814"><ele>108.4</ele><time>2015-05-02T13:02:50.0000000+00:00</time></trkpt><trkpt lat="34.9411316" lon="33.5691262"><ele>108.4</ele><time>2015-05-02T13:02:53.0000000+00:00</time></trkpt><trkpt lat="34.9411751" lon="33.569162"><ele>107.2</ele><time>2015-05-02T13:02:56.0000000+00:00</time></trkpt><trkpt lat="34.9412162" lon="33.5691974"><ele>107.2</ele><time>2015-05-02T13:02:59.0000000+00:00</time></trkpt><trkpt lat="34.9412609" lon="33.5692159"><ele>107.2</ele><time>2015-05-02T13:03:02.0000000+00:00</time></trkpt><trkpt lat="34.9413032" lon="33.5692374"><ele>107.0</ele><time>2015-05-02T13:03:05.0000000+00:00</time></trkpt><trkpt lat="34.9413624" lon="33.5692354"><ele>107.0</ele><time>2015-05-02T13:03:09.0000000+00:00</time></trkpt><trkpt lat="34.9414194" lon="33.569247"><ele>106.0</ele><time>2015-05-02T13:03:13.0000000+00:00</time></trkpt><trkpt lat="34.9414724" lon="33.5692541"><ele>105.5</ele><time>2015-05-02T13:03:17.0000000+00:00</time></trkpt><trkpt lat="34.9415187" lon="33.5692616"><ele>106.0</ele><time>2015-05-02T13:03:21.0000000+00:00</time></trkpt><trkpt lat="34.9415726" lon="33.5692555"><ele>106.0</ele><time>2015-05-02T13:03:25.0000000+00:00</time></trkpt><trkpt lat="34.9416236" lon="33.5692581"><ele>107.0</ele><time>2015-05-02T13:03:29.0000000+00:00</time></trkpt><trkpt lat="34.9416672" lon="33.5692356"><ele>109.3</ele><time>2015-05-02T13:03:33.0000000+00:00</time></trkpt><trkpt lat="34.9417217" lon="33.5692188"><ele>109.5</ele><time>2015-05-02T13:03:37.0000000+00:00</time></trkpt><trkpt lat="34.9417665" lon="33.5692083"><ele>110.6</ele><time>2015-05-02T13:03:40.0000000+00:00</time></trkpt><trkpt lat="34.9418125" lon="33.5691978"><ele>110.6</ele><time>2015-05-02T13:03:43.0000000+00:00</time></trkpt><trkpt lat="34.9418628" lon="33.5691818"><ele>110.7</ele><time>2015-05-02T13:03:46.0000000+00:00</time></trkpt><trkpt lat="34.9419112" lon="33.5691629"><ele>110.9</ele><time>2015-05-02T13:03:49.0000000+00:00</time></trkpt><trkpt lat="34.9419562" lon="33.569148"><ele>110.5</ele><time>2015-05-02T13:03:52.0000000+00:00</time></trkpt><trkpt lat="34.9420049" lon="33.5691246"><ele>110.1</ele><time>2015-05-02T13:03:56.0000000+00:00</time></trkpt><trkpt lat="34.9420642" lon="33.5691076"><ele>109.3</ele><time>2015-05-02T13:04:00.0000000+00:00</time></trkpt><trkpt lat="34.9421249" lon="33.5690862"><ele>109.8</ele><time>2015-05-02T13:04:02.0000000+00:00</time></trkpt><trkpt lat="34.942216" lon="33.5690638"><ele>110.2</ele><time>2015-05-02T13:04:04.0000000+00:00</time></trkpt><trkpt lat="34.9422899" lon="33.5690598"><ele>109.1</ele><time>2015-05-02T13:04:05.0000000+00:00</time></trkpt><trkpt lat="34.9423749" lon="33.569055"><ele>108.0</ele><time>2015-05-02T13:04:07.0000000+00:00</time></trkpt><trkpt lat="34.9424241" lon="33.5690585"><ele>108.0</ele><time>2015-05-02T13:04:08.0000000+00:00</time></trkpt><trkpt lat="34.9424776" lon="33.5690656"><ele>108.0</ele><time>2015-05-02T13:04:09.0000000+00:00</time></trkpt><trkpt lat="34.9425349" lon="33.5690703"><ele>108.0</ele><time>2015-05-02T13:04:10.0000000+00:00</time></trkpt><trkpt lat="34.9425949" lon="33.5690779"><ele>108.0</ele><time>2015-05-02T13:04:11.0000000+00:00</time></trkpt><trkpt lat="34.9426542" lon="33.569074"><ele>108.0</ele><time>2015-05-02T13:04:12.0000000+00:00</time></trkpt><trkpt lat="34.9427167" lon="33.5690715"><ele>107.5</ele><time>2015-05-02T13:04:13.0000000+00:00</time></trkpt><trkpt lat="34.9427742" lon="33.5690711"><ele>107.3</ele><time>2015-05-02T13:04:14.0000000+00:00</time></trkpt><trkpt lat="34.9428321" lon="33.5690746"><ele>107.6</ele><time>2015-05-02T13:04:15.0000000+00:00</time></trkpt><trkpt lat="34.9428933" lon="33.5690772"><ele>107.3</ele><time>2015-05-02T13:04:16.0000000+00:00</time></trkpt><trkpt lat="34.9429424" lon="33.5690805"><ele>107.2</ele><time>2015-05-02T13:04:17.0000000+00:00</time></trkpt><trkpt lat="34.9429904" lon="33.5690849"><ele>107.1</ele><time>2015-05-02T13:04:18.0000000+00:00</time></trkpt><trkpt lat="34.9430624" lon="33.5690995"><ele>107.0</ele><time>2015-05-02T13:04:20.0000000+00:00</time></trkpt><trkpt lat="34.9431243" lon="33.5691496"><ele>107.0</ele><time>2015-05-02T13:04:22.0000000+00:00</time></trkpt><trkpt lat="34.9431656" lon="33.5692363"><ele>107.0</ele><time>2015-05-02T13:04:24.0000000+00:00</time></trkpt><trkpt lat="34.9432012" lon="33.5693241"><ele>107.3</ele><time>2015-05-02T13:04:26.0000000+00:00</time></trkpt><trkpt lat="34.9432346" lon="33.5694213"><ele>106.8</ele><time>2015-05-02T13:04:28.0000000+00:00</time></trkpt><trkpt lat="34.9432683" lon="33.5694989"><ele>106.2</ele><time>2015-05-02T13:04:30.0000000+00:00</time></trkpt><trkpt lat="34.943305" lon="33.5695747"><ele>106.8</ele><time>2015-05-02T13:04:32.0000000+00:00</time></trkpt><trkpt lat="34.9433688" lon="33.5696619"><ele>107.0</ele><time>2015-05-02T13:04:34.0000000+00:00</time></trkpt><trkpt lat="34.9434022" lon="33.5697116"><ele>106.5</ele><time>2015-05-02T13:04:35.0000000+00:00</time></trkpt><trkpt lat="34.9434397" lon="33.5697649"><ele>106.8</ele><time>2015-05-02T13:04:36.0000000+00:00</time></trkpt><trkpt lat="34.9434767" lon="33.5698171"><ele>106.4</ele><time>2015-05-02T13:04:37.0000000+00:00</time></trkpt><trkpt lat="34.943509" lon="33.569885"><ele>106.2</ele><time>2015-05-02T13:04:38.0000000+00:00</time></trkpt><trkpt lat="34.9435388" lon="33.5699561"><ele>106.1</ele><time>2015-05-02T13:04:39.0000000+00:00</time></trkpt><trkpt lat="34.9435646" lon="33.5700266"><ele>105.6</ele><time>2015-05-02T13:04:40.0000000+00:00</time></trkpt><trkpt lat="34.9436018" lon="33.5701073"><ele>105.4</ele><time>2015-05-02T13:04:42.0000000+00:00</time></trkpt><trkpt lat="34.9436218" lon="33.5701625"><ele>105.1</ele><time>2015-05-02T13:04:44.0000000+00:00</time></trkpt><trkpt lat="34.9436476" lon="33.5702241"><ele>105.0</ele><time>2015-05-02T13:04:47.0000000+00:00</time></trkpt><trkpt lat="34.9436925" lon="33.5702448"><ele>104.3</ele><time>2015-05-02T13:04:49.0000000+00:00</time></trkpt><trkpt lat="34.9437521" lon="33.5702405"><ele>104.1</ele><time>2015-05-02T13:04:51.0000000+00:00</time></trkpt><trkpt lat="34.9437958" lon="33.5702199"><ele>104.0</ele><time>2015-05-02T13:04:53.0000000+00:00</time></trkpt><trkpt lat="34.9438478" lon="33.5702096"><ele>104.0</ele><time>2015-05-02T13:04:56.0000000+00:00</time></trkpt><trkpt lat="34.9438824" lon="33.5701628"><ele>104.5</ele><time>2015-05-02T13:05:00.0000000+00:00</time></trkpt><trkpt lat="34.9438781" lon="33.5700825"><ele>104.1</ele><time>2015-05-02T13:05:03.0000000+00:00</time></trkpt><trkpt lat="34.9439086" lon="33.5700417"><ele>104.0</ele><time>2015-05-02T13:05:05.0000000+00:00</time></trkpt><trkpt lat="34.943974" lon="33.5700229"><ele>104.0</ele><time>2015-05-02T13:05:08.0000000+00:00</time></trkpt><trkpt lat="34.9440272" lon="33.570004"><ele>104.0</ele><time>2015-05-02T13:05:11.0000000+00:00</time></trkpt><trkpt lat="34.9440774" lon="33.5699806"><ele>104.0</ele><time>2015-05-02T13:05:14.0000000+00:00</time></trkpt><trkpt lat="34.9441396" lon="33.5699538"><ele>104.5</ele><time>2015-05-02T13:05:17.0000000+00:00</time></trkpt><trkpt lat="34.944191" lon="33.5699386"><ele>104.1</ele><time>2015-05-02T13:05:19.0000000+00:00</time></trkpt><trkpt lat="34.9442693" lon="33.5699231"><ele>104.1</ele><time>2015-05-02T13:05:21.0000000+00:00</time></trkpt><trkpt lat="34.9443502" lon="33.5699183"><ele>104.0</ele><time>2015-05-02T13:05:22.0000000+00:00</time></trkpt><trkpt lat="34.9444061" lon="33.569919"><ele>104.0</ele><time>2015-05-02T13:05:23.0000000+00:00</time></trkpt><trkpt lat="34.9444623" lon="33.5699153"><ele>104.0</ele><time>2015-05-02T13:05:24.0000000+00:00</time></trkpt><trkpt lat="34.9445213" lon="33.5699141"><ele>104.0</ele><time>2015-05-02T13:05:25.0000000+00:00</time></trkpt><trkpt lat="34.9445798" lon="33.5699082"><ele>104.0</ele><time>2015-05-02T13:05:26.0000000+00:00</time></trkpt><trkpt lat="34.9446362" lon="33.5698941"><ele>104.0</ele><time>2015-05-02T13:05:27.0000000+00:00</time></trkpt><trkpt lat="34.944698" lon="33.5698755"><ele>104.0</ele><time>2015-05-02T13:05:28.0000000+00:00</time></trkpt><trkpt lat="34.944739" lon="33.5698504"><ele>103.5</ele><time>2015-05-02T13:05:29.0000000+00:00</time></trkpt><trkpt lat="34.9447943" lon="33.5697699"><ele>103.1</ele><time>2015-05-02T13:05:31.0000000+00:00</time></trkpt><trkpt lat="34.9448232" lon="33.5697192"><ele>103.1</ele><time>2015-05-02T13:05:32.0000000+00:00</time></trkpt><trkpt lat="34.9448726" lon="33.5696542"><ele>103.8</ele><time>2015-05-02T13:05:34.0000000+00:00</time></trkpt><trkpt lat="34.9449163" lon="33.569592"><ele>104.0</ele><time>2015-05-02T13:05:36.0000000+00:00</time></trkpt><trkpt lat="34.9449639" lon="33.5695455"><ele>104.0</ele><time>2015-05-02T13:05:38.0000000+00:00</time></trkpt><trkpt lat="34.9450185" lon="33.5695056"><ele>104.0</ele><time>2015-05-02T13:05:40.0000000+00:00</time></trkpt><trkpt lat="34.9450704" lon="33.5694842"><ele>105.3</ele><time>2015-05-02T13:05:42.0000000+00:00</time></trkpt><trkpt lat="34.9451272" lon="33.5694679"><ele>106.6</ele><time>2015-05-02T13:05:44.0000000+00:00</time></trkpt><trkpt lat="34.9451782" lon="33.5694686"><ele>108.2</ele><time>2015-05-02T13:05:46.0000000+00:00</time></trkpt><trkpt lat="34.945236" lon="33.5694692"><ele>109.4</ele><time>2015-05-02T13:05:49.0000000+00:00</time></trkpt><trkpt lat="34.9452872" lon="33.5694843"><ele>109.5</ele><time>2015-05-02T13:05:53.0000000+00:00</time></trkpt><trkpt lat="34.9453324" lon="33.5694908"><ele>109.1</ele><time>2015-05-02T13:05:56.0000000+00:00</time></trkpt><trkpt lat="34.9453777" lon="33.5694938"><ele>111.7</ele><time>2015-05-02T13:05:59.0000000+00:00</time></trkpt><trkpt lat="34.9454368" lon="33.5694931"><ele>114.7</ele><time>2015-05-02T13:06:03.0000000+00:00</time></trkpt><trkpt lat="34.9454911" lon="33.5695094"><ele>111.8</ele><time>2015-05-02T13:06:07.0000000+00:00</time></trkpt><trkpt lat="34.9455345" lon="33.5695371"><ele>112.1</ele><time>2015-05-02T13:06:10.0000000+00:00</time></trkpt><trkpt lat="34.9455783" lon="33.5695834"><ele>112.5</ele><time>2015-05-02T13:06:13.0000000+00:00</time></trkpt><trkpt lat="34.9456072" lon="33.5696405"><ele>112.2</ele><time>2015-05-02T13:06:16.0000000+00:00</time></trkpt><trkpt lat="34.9456262" lon="33.5696906"><ele>111.3</ele><time>2015-05-02T13:06:19.0000000+00:00</time></trkpt><trkpt lat="34.9456414" lon="33.5697438"><ele>110.3</ele><time>2015-05-02T13:06:22.0000000+00:00</time></trkpt><trkpt lat="34.9456475" lon="33.5698108"><ele>108.2</ele><time>2015-05-02T13:06:26.0000000+00:00</time></trkpt><trkpt lat="34.9456636" lon="33.5698625"><ele>105.7</ele><time>2015-05-02T13:06:30.0000000+00:00</time></trkpt><trkpt lat="34.9456682" lon="33.5699186"><ele>106.3</ele><time>2015-05-02T13:06:34.0000000+00:00</time></trkpt><trkpt lat="34.9456811" lon="33.5699756"><ele>107.7</ele><time>2015-05-02T13:06:38.0000000+00:00</time></trkpt><trkpt lat="34.9457044" lon="33.5700385"><ele>107.9</ele><time>2015-05-02T13:06:43.0000000+00:00</time></trkpt><trkpt lat="34.945722" lon="33.570096"><ele>109.3</ele><time>2015-05-02T13:06:47.0000000+00:00</time></trkpt><trkpt lat="34.9457446" lon="33.5701532"><ele>108.7</ele><time>2015-05-02T13:06:52.0000000+00:00</time></trkpt><trkpt lat="34.9457815" lon="33.5702008"><ele>109.5</ele><time>2015-05-02T13:06:57.0000000+00:00</time></trkpt><trkpt lat="34.9458055" lon="33.5702585"><ele>110.5</ele><time>2015-05-02T13:07:02.0000000+00:00</time></trkpt><trkpt lat="34.9458282" lon="33.5703226"><ele>112.5</ele><time>2015-05-02T13:07:07.0000000+00:00</time></trkpt><trkpt lat="34.9458537" lon="33.5703755"><ele>113.7</ele><time>2015-05-02T13:07:11.0000000+00:00</time></trkpt><trkpt lat="34.9458778" lon="33.5704388"><ele>113.1</ele><time>2015-05-02T13:07:15.0000000+00:00</time></trkpt><trkpt lat="34.9458784" lon="33.5705109"><ele>113.3</ele><time>2015-05-02T13:07:19.0000000+00:00</time></trkpt><trkpt lat="34.9458618" lon="33.5705753"><ele>113.8</ele><time>2015-05-02T13:07:23.0000000+00:00</time></trkpt><trkpt lat="34.9458292" lon="33.5706327"><ele>114.1</ele><time>2015-05-02T13:07:27.0000000+00:00</time></trkpt><trkpt lat="34.9457997" lon="33.5706743"><ele>116.0</ele><time>2015-05-02T13:07:30.0000000+00:00</time></trkpt><trkpt lat="34.945766" lon="33.5707188"><ele>117.8</ele><time>2015-05-02T13:07:33.0000000+00:00</time></trkpt><trkpt lat="34.9457269" lon="33.5707667"><ele>118.0</ele><time>2015-05-02T13:07:36.0000000+00:00</time></trkpt><trkpt lat="34.9456816" lon="33.5708089"><ele>117.4</ele><time>2015-05-02T13:07:39.0000000+00:00</time></trkpt><trkpt lat="34.9456368" lon="33.5708378"><ele>117.1</ele><time>2015-05-02T13:07:41.0000000+00:00</time></trkpt><trkpt lat="34.9455927" lon="33.5708665"><ele>117.0</ele><time>2015-05-02T13:07:43.0000000+00:00</time></trkpt><trkpt lat="34.9455522" lon="33.570895"><ele>115.8</ele><time>2015-05-02T13:07:45.0000000+00:00</time></trkpt><trkpt lat="34.945509" lon="33.5709249"><ele>116.5</ele><time>2015-05-02T13:07:47.0000000+00:00</time></trkpt><trkpt lat="34.9454638" lon="33.5709541"><ele>117.6</ele><time>2015-05-02T13:07:49.0000000+00:00</time></trkpt><trkpt lat="34.9454155" lon="33.5709839"><ele>116.7</ele><time>2015-05-02T13:07:51.0000000+00:00</time></trkpt><trkpt lat="34.9453638" lon="33.5710214"><ele>115.9</ele><time>2015-05-02T13:07:53.0000000+00:00</time></trkpt><trkpt lat="34.945301" lon="33.571071"><ele>116.5</ele><time>2015-05-02T13:07:55.0000000+00:00</time></trkpt><trkpt lat="34.945222" lon="33.5711218"><ele>115.6</ele><time>2015-05-02T13:07:57.0000000+00:00</time></trkpt><trkpt lat="34.9451436" lon="33.5711494"><ele>115.3</ele><time>2015-05-02T13:07:58.0000000+00:00</time></trkpt><trkpt lat="34.9450956" lon="33.5711654"><ele>114.7</ele><time>2015-05-02T13:07:59.0000000+00:00</time></trkpt><trkpt lat="34.9450443" lon="33.5711764"><ele>114.8</ele><time>2015-05-02T13:08:00.0000000+00:00</time></trkpt><trkpt lat="34.9449985" lon="33.571182"><ele>114.9</ele><time>2015-05-02T13:08:01.0000000+00:00</time></trkpt><trkpt lat="34.9449495" lon="33.5711809"><ele>115.0</ele><time>2015-05-02T13:08:02.0000000+00:00</time></trkpt><trkpt lat="34.9448662" lon="33.571212"><ele>115.8</ele><time>2015-05-02T13:08:04.0000000+00:00</time></trkpt><trkpt lat="34.944814" lon="33.5712741"><ele>115.2</ele><time>2015-05-02T13:08:06.0000000+00:00</time></trkpt><trkpt lat="34.9448038" lon="33.5713742"><ele>115.8</ele><time>2015-05-02T13:08:08.0000000+00:00</time></trkpt><trkpt lat="34.9447988" lon="33.5714298"><ele>115.4</ele><time>2015-05-02T13:08:09.0000000+00:00</time></trkpt><trkpt lat="34.9447771" lon="33.5714829"><ele>115.2</ele><time>2015-05-02T13:08:10.0000000+00:00</time></trkpt><trkpt lat="34.9447199" lon="33.5715783"><ele>115.1</ele><time>2015-05-02T13:08:12.0000000+00:00</time></trkpt><trkpt lat="34.9446735" lon="33.571626"><ele>115.0</ele><time>2015-05-02T13:08:13.0000000+00:00</time></trkpt><trkpt lat="34.9446289" lon="33.5716601"><ele>115.0</ele><time>2015-05-02T13:08:14.0000000+00:00</time></trkpt><trkpt lat="34.9445858" lon="33.5716953"><ele>115.0</ele><time>2015-05-02T13:08:15.0000000+00:00</time></trkpt><trkpt lat="34.9445413" lon="33.5717363"><ele>115.0</ele><time>2015-05-02T13:08:16.0000000+00:00</time></trkpt><trkpt lat="34.9445133" lon="33.5717981"><ele>114.0</ele><time>2015-05-02T13:08:17.0000000+00:00</time></trkpt><trkpt lat="34.9444875" lon="33.571864"><ele>113.5</ele><time>2015-05-02T13:08:18.0000000+00:00</time></trkpt><trkpt lat="34.9444568" lon="33.571924"><ele>113.3</ele><time>2015-05-02T13:08:19.0000000+00:00</time></trkpt><trkpt lat="34.944426" lon="33.5719944"><ele>113.1</ele><time>2015-05-02T13:08:20.0000000+00:00</time></trkpt><trkpt lat="34.9444124" lon="33.5720679"><ele>112.6</ele><time>2015-05-02T13:08:21.0000000+00:00</time></trkpt><trkpt lat="34.9443982" lon="33.5721261"><ele>112.8</ele><time>2015-05-02T13:08:22.0000000+00:00</time></trkpt><trkpt lat="34.9443696" lon="33.572207"><ele>112.9</ele><time>2015-05-02T13:08:23.0000000+00:00</time></trkpt><trkpt lat="34.9443446" lon="33.5722869"><ele>113.0</ele><time>2015-05-02T13:08:24.0000000+00:00</time></trkpt><trkpt lat="34.9443229" lon="33.5723582"><ele>113.0</ele><time>2015-05-02T13:08:25.0000000+00:00</time></trkpt><trkpt lat="34.9443069" lon="33.5724371"><ele>113.0</ele><time>2015-05-02T13:08:26.0000000+00:00</time></trkpt><trkpt lat="34.9442993" lon="33.5725109"><ele>112.5</ele><time>2015-05-02T13:08:27.0000000+00:00</time></trkpt><trkpt lat="34.9443041" lon="33.5726028"><ele>112.3</ele><time>2015-05-02T13:08:28.0000000+00:00</time></trkpt><trkpt lat="34.9443186" lon="33.5726802"><ele>111.6</ele><time>2015-05-02T13:08:29.0000000+00:00</time></trkpt><trkpt lat="34.9443353" lon="33.5727704"><ele>111.3</ele><time>2015-05-02T13:08:30.0000000+00:00</time></trkpt><trkpt lat="34.9443651" lon="33.5728459"><ele>111.2</ele><time>2015-05-02T13:08:31.0000000+00:00</time></trkpt><trkpt lat="34.9443953" lon="33.5729199"><ele>110.6</ele><time>2015-05-02T13:08:32.0000000+00:00</time></trkpt><trkpt lat="34.9444201" lon="33.572992"><ele>110.3</ele><time>2015-05-02T13:08:33.0000000+00:00</time></trkpt><trkpt lat="34.9444368" lon="33.5730753"><ele>109.7</ele><time>2015-05-02T13:08:34.0000000+00:00</time></trkpt><trkpt lat="34.9444512" lon="33.5731386"><ele>109.3</ele><time>2015-05-02T13:08:35.0000000+00:00</time></trkpt><trkpt lat="34.944463" lon="33.5731975"><ele>108.7</ele><time>2015-05-02T13:08:36.0000000+00:00</time></trkpt><trkpt lat="34.9444747" lon="33.5732628"><ele>108.9</ele><time>2015-05-02T13:08:37.0000000+00:00</time></trkpt><trkpt lat="34.9444909" lon="33.5733406"><ele>109.4</ele><time>2015-05-02T13:08:38.0000000+00:00</time></trkpt><trkpt lat="34.9445083" lon="33.5734139"><ele>109.2</ele><time>2015-05-02T13:08:39.0000000+00:00</time></trkpt><trkpt lat="34.944526" lon="33.5734936"><ele>109.1</ele><time>2015-05-02T13:08:40.0000000+00:00</time></trkpt><trkpt lat="34.9445274" lon="33.5735767"><ele>109.6</ele><time>2015-05-02T13:08:41.0000000+00:00</time></trkpt><trkpt lat="34.944522" lon="33.5736546"><ele>109.8</ele><time>2015-05-02T13:08:42.0000000+00:00</time></trkpt><trkpt lat="34.9445254" lon="33.5737242"><ele>109.9</ele><time>2015-05-02T13:08:43.0000000+00:00</time></trkpt><trkpt lat="34.9445378" lon="33.5737864"><ele>110.0</ele><time>2015-05-02T13:08:44.0000000+00:00</time></trkpt><trkpt lat="34.9445351" lon="33.5738486"><ele>110.0</ele><time>2015-05-02T13:08:45.0000000+00:00</time></trkpt><trkpt lat="34.9445376" lon="33.5739092"><ele>110.0</ele><time>2015-05-02T13:08:46.0000000+00:00</time></trkpt><trkpt lat="34.9445408" lon="33.574022"><ele>110.0</ele><time>2015-05-02T13:08:48.0000000+00:00</time></trkpt><trkpt lat="34.9445468" lon="33.5740816"><ele>110.5</ele><time>2015-05-02T13:08:49.0000000+00:00</time></trkpt><trkpt lat="34.9445326" lon="33.5741695"><ele>110.9</ele><time>2015-05-02T13:08:51.0000000+00:00</time></trkpt><trkpt lat="34.9445482" lon="33.5742347"><ele>111.0</ele><time>2015-05-02T13:08:53.0000000+00:00</time></trkpt><trkpt lat="34.9445776" lon="33.5743022"><ele>109.6</ele><time>2015-05-02T13:08:56.0000000+00:00</time></trkpt><trkpt lat="34.9445907" lon="33.5743576"><ele>109.2</ele><time>2015-05-02T13:08:58.0000000+00:00</time></trkpt><trkpt lat="34.9446308" lon="33.5744425"><ele>108.6</ele><time>2015-05-02T13:09:00.0000000+00:00</time></trkpt><trkpt lat="34.9446519" lon="33.5745155"><ele>108.8</ele><time>2015-05-02T13:09:01.0000000+00:00</time></trkpt><trkpt lat="34.944665" lon="33.5745852"><ele>108.4</ele><time>2015-05-02T13:09:02.0000000+00:00</time></trkpt><trkpt lat="34.9446739" lon="33.5746709"><ele>108.2</ele><time>2015-05-02T13:09:03.0000000+00:00</time></trkpt><trkpt lat="34.9446885" lon="33.5747507"><ele>107.6</ele><time>2015-05-02T13:09:04.0000000+00:00</time></trkpt><trkpt lat="34.944706" lon="33.5748416"><ele>106.8</ele><time>2015-05-02T13:09:05.0000000+00:00</time></trkpt><trkpt lat="34.9447186" lon="33.5749354"><ele>105.9</ele><time>2015-05-02T13:09:06.0000000+00:00</time></trkpt><trkpt lat="34.9447381" lon="33.5750298"><ele>106.0</ele><time>2015-05-02T13:09:07.0000000+00:00</time></trkpt><trkpt lat="34.9447556" lon="33.5751446"><ele>105.5</ele><time>2015-05-02T13:09:08.0000000+00:00</time></trkpt><trkpt lat="34.9447719" lon="33.5752548"><ele>104.3</ele><time>2015-05-02T13:09:09.0000000+00:00</time></trkpt><trkpt lat="34.9447821" lon="33.5753715"><ele>103.6</ele><time>2015-05-02T13:09:10.0000000+00:00</time></trkpt><trkpt lat="34.9447884" lon="33.5754814"><ele>103.8</ele><time>2015-05-02T13:09:11.0000000+00:00</time></trkpt><trkpt lat="34.944791" lon="33.5755997"><ele>103.4</ele><time>2015-05-02T13:09:12.0000000+00:00</time></trkpt><trkpt lat="34.9447877" lon="33.5757034"><ele>103.2</ele><time>2015-05-02T13:09:13.0000000+00:00</time></trkpt><trkpt lat="34.9447915" lon="33.5757998"><ele>102.6</ele><time>2015-05-02T13:09:14.0000000+00:00</time></trkpt><trkpt lat="34.944791" lon="33.5758804"><ele>102.8</ele><time>2015-05-02T13:09:15.0000000+00:00</time></trkpt><trkpt lat="34.9447965" lon="33.5759601"><ele>102.4</ele><time>2015-05-02T13:09:16.0000000+00:00</time></trkpt><trkpt lat="34.9448109" lon="33.5760298"><ele>101.7</ele><time>2015-05-02T13:09:17.0000000+00:00</time></trkpt><trkpt lat="34.9448238" lon="33.5761059"><ele>101.4</ele><time>2015-05-02T13:09:18.0000000+00:00</time></trkpt><trkpt lat="34.9448403" lon="33.5761714"><ele>100.7</ele><time>2015-05-02T13:09:19.0000000+00:00</time></trkpt><trkpt lat="34.9448647" lon="33.5762372"><ele>100.4</ele><time>2015-05-02T13:09:20.0000000+00:00</time></trkpt><trkpt lat="34.9449041" lon="33.5762985"><ele>100.4</ele><time>2015-05-02T13:09:22.0000000+00:00</time></trkpt><trkpt lat="34.9449635" lon="33.5763074"><ele>101.1</ele><time>2015-05-02T13:09:24.0000000+00:00</time></trkpt><trkpt lat="34.9450208" lon="33.5762939"><ele>101.5</ele><time>2015-05-02T13:09:26.0000000+00:00</time></trkpt><trkpt lat="34.9450741" lon="33.5762683"><ele>102.9</ele><time>2015-05-02T13:09:28.0000000+00:00</time></trkpt><trkpt lat="34.9451405" lon="33.5762205"><ele>103.0</ele><time>2015-05-02T13:09:30.0000000+00:00</time></trkpt><trkpt lat="34.9452278" lon="33.5761662"><ele>103.8</ele><time>2015-05-02T13:09:32.0000000+00:00</time></trkpt><trkpt lat="34.9452679" lon="33.5761393"><ele>103.4</ele><time>2015-05-02T13:09:33.0000000+00:00</time></trkpt><trkpt lat="34.9453463" lon="33.5761382"><ele>102.6</ele><time>2015-05-02T13:09:35.0000000+00:00</time></trkpt><trkpt lat="34.945429" lon="33.5761835"><ele>102.9</ele><time>2015-05-02T13:09:37.0000000+00:00</time></trkpt><trkpt lat="34.9454727" lon="33.5762224"><ele>101.0</ele><time>2015-05-02T13:09:38.0000000+00:00</time></trkpt><trkpt lat="34.9455377" lon="33.5762577"><ele>99.3</ele><time>2015-05-02T13:09:40.0000000+00:00</time></trkpt><trkpt lat="34.9455894" lon="33.576274"><ele>98.3</ele><time>2015-05-02T13:09:42.0000000+00:00</time></trkpt><trkpt lat="34.9456459" lon="33.5762548"><ele>97.8</ele><time>2015-05-02T13:09:44.0000000+00:00</time></trkpt><trkpt lat="34.9457066" lon="33.5761896"><ele>98.7</ele><time>2015-05-02T13:09:46.0000000+00:00</time></trkpt><trkpt lat="34.9457405" lon="33.5761495"><ele>98.9</ele><time>2015-05-02T13:09:47.0000000+00:00</time></trkpt><trkpt lat="34.9458257" lon="33.57615"><ele>99.7</ele><time>2015-05-02T13:09:49.0000000+00:00</time></trkpt><trkpt lat="34.9458811" lon="33.5762078"><ele>99.7</ele><time>2015-05-02T13:09:51.0000000+00:00</time></trkpt><trkpt lat="34.9459159" lon="33.576292"><ele>98.4</ele><time>2015-05-02T13:09:53.0000000+00:00</time></trkpt><trkpt lat="34.9459467" lon="33.5763896"><ele>97.4</ele><time>2015-05-02T13:09:55.0000000+00:00</time></trkpt><trkpt lat="34.9459832" lon="33.5764727"><ele>97.4</ele><time>2015-05-02T13:09:57.0000000+00:00</time></trkpt><trkpt lat="34.9460443" lon="33.5764874"><ele>97.1</ele><time>2015-05-02T13:09:59.0000000+00:00</time></trkpt><trkpt lat="34.9460976" lon="33.5764464"><ele>96.5</ele><time>2015-05-02T13:10:01.0000000+00:00</time></trkpt><trkpt lat="34.9461461" lon="33.5763642"><ele>95.7</ele><time>2015-05-02T13:10:03.0000000+00:00</time></trkpt><trkpt lat="34.9461951" lon="33.5763023"><ele>95.2</ele><time>2015-05-02T13:10:05.0000000+00:00</time></trkpt><trkpt lat="34.9462441" lon="33.5762291"><ele>95.6</ele><time>2015-05-02T13:10:07.0000000+00:00</time></trkpt><trkpt lat="34.9463017" lon="33.576142"><ele>96.4</ele><time>2015-05-02T13:10:09.0000000+00:00</time></trkpt><trkpt lat="34.9463363" lon="33.5760461"><ele>96.4</ele><time>2015-05-02T13:10:11.0000000+00:00</time></trkpt><trkpt lat="34.946347" lon="33.57599"><ele>96.2</ele><time>2015-05-02T13:10:12.0000000+00:00</time></trkpt><trkpt lat="34.9463526" lon="33.5759343"><ele>96.1</ele><time>2015-05-02T13:10:13.0000000+00:00</time></trkpt><trkpt lat="34.9463728" lon="33.57585"><ele>95.8</ele><time>2015-05-02T13:10:15.0000000+00:00</time></trkpt><trkpt lat="34.9464102" lon="33.5757779"><ele>98.0</ele><time>2015-05-02T13:10:17.0000000+00:00</time></trkpt><trkpt lat="34.9464649" lon="33.57575"><ele>98.5</ele><time>2015-05-02T13:10:19.0000000+00:00</time></trkpt><trkpt lat="34.9465059" lon="33.5757158"><ele>96.9</ele><time>2015-05-02T13:10:21.0000000+00:00</time></trkpt><trkpt lat="34.9465455" lon="33.5756697"><ele>95.3</ele><time>2015-05-02T13:10:24.0000000+00:00</time></trkpt><trkpt lat="34.9465752" lon="33.5756137"><ele>96.9</ele><time>2015-05-02T13:10:27.0000000+00:00</time></trkpt><trkpt lat="34.9465649" lon="33.5755556"><ele>97.7</ele><time>2015-05-02T13:10:29.0000000+00:00</time></trkpt><trkpt lat="34.9465262" lon="33.5754936"><ele>97.5</ele><time>2015-05-02T13:10:31.0000000+00:00</time></trkpt><trkpt lat="34.9464812" lon="33.5754286"><ele>97.1</ele><time>2015-05-02T13:10:33.0000000+00:00</time></trkpt><trkpt lat="34.9464425" lon="33.575376"><ele>99.0</ele><time>2015-05-02T13:10:35.0000000+00:00</time></trkpt><trkpt lat="34.9464089" lon="33.5753351"><ele>99.3</ele><time>2015-05-02T13:10:37.0000000+00:00</time></trkpt><trkpt lat="34.9463628" lon="33.5752758"><ele>99.1</ele><time>2015-05-02T13:10:40.0000000+00:00</time></trkpt><trkpt lat="34.9463291" lon="33.5752299"><ele>99.8</ele><time>2015-05-02T13:10:42.0000000+00:00</time></trkpt><trkpt lat="34.9463412" lon="33.5751586"><ele>99.2</ele><time>2015-05-02T13:10:44.0000000+00:00</time></trkpt><trkpt lat="34.9463856" lon="33.5751052"><ele>99.6</ele><time>2015-05-02T13:10:46.0000000+00:00</time></trkpt><trkpt lat="34.9464604" lon="33.5750648"><ele>99.4</ele><time>2015-05-02T13:10:48.0000000+00:00</time></trkpt><trkpt lat="34.9465036" lon="33.5750448"><ele>99.2</ele><time>2015-05-02T13:10:49.0000000+00:00</time></trkpt><trkpt lat="34.9465797" lon="33.575008"><ele>98.6</ele><time>2015-05-02T13:10:50.0000000+00:00</time></trkpt><trkpt lat="34.946668" lon="33.574953"><ele>98.4</ele><time>2015-05-02T13:10:52.0000000+00:00</time></trkpt><trkpt lat="34.9467298" lon="33.5748849"><ele>97.9</ele><time>2015-05-02T13:10:54.0000000+00:00</time></trkpt><trkpt lat="34.9467578" lon="33.5748413"><ele>96.9</ele><time>2015-05-02T13:10:55.0000000+00:00</time></trkpt><trkpt lat="34.9467825" lon="33.5747916"><ele>96.5</ele><time>2015-05-02T13:10:56.0000000+00:00</time></trkpt><trkpt lat="34.9468118" lon="33.5747246"><ele>96.8</ele><time>2015-05-02T13:10:57.0000000+00:00</time></trkpt><trkpt lat="34.9468365" lon="33.5746522"><ele>96.9</ele><time>2015-05-02T13:10:58.0000000+00:00</time></trkpt><trkpt lat="34.9468676" lon="33.5745912"><ele>96.5</ele><time>2015-05-02T13:10:59.0000000+00:00</time></trkpt><trkpt lat="34.9468978" lon="33.5745252"><ele>95.7</ele><time>2015-05-02T13:11:00.0000000+00:00</time></trkpt><trkpt lat="34.9469208" lon="33.5744561"><ele>95.4</ele><time>2015-05-02T13:11:01.0000000+00:00</time></trkpt><trkpt lat="34.9469389" lon="33.5744036"><ele>96.2</ele><time>2015-05-02T13:11:02.0000000+00:00</time></trkpt><trkpt lat="34.9469776" lon="33.5743146"><ele>97.1</ele><time>2015-05-02T13:11:04.0000000+00:00</time></trkpt><trkpt lat="34.947014" lon="33.5742294"><ele>98.5</ele><time>2015-05-02T13:11:06.0000000+00:00</time></trkpt><trkpt lat="34.9470595" lon="33.5741644"><ele>97.9</ele><time>2015-05-02T13:11:08.0000000+00:00</time></trkpt><trkpt lat="34.9470869" lon="33.5741048"><ele>96.5</ele><time>2015-05-02T13:11:10.0000000+00:00</time></trkpt><trkpt lat="34.9470873" lon="33.5740359"><ele>96.6</ele><time>2015-05-02T13:11:12.0000000+00:00</time></trkpt><trkpt lat="34.9470626" lon="33.5739624"><ele>96.9</ele><time>2015-05-02T13:11:14.0000000+00:00</time></trkpt><trkpt lat="34.9470062" lon="33.5738632"><ele>97.5</ele><time>2015-05-02T13:11:16.0000000+00:00</time></trkpt><trkpt lat="34.9469732" lon="33.5738171"><ele>97.3</ele><time>2015-05-02T13:11:17.0000000+00:00</time></trkpt><trkpt lat="34.9469542" lon="33.5737659"><ele>96.1</ele><time>2015-05-02T13:11:18.0000000+00:00</time></trkpt><trkpt lat="34.9469518" lon="33.5737107"><ele>96.1</ele><time>2015-05-02T13:11:19.0000000+00:00</time></trkpt><trkpt lat="34.946966" lon="33.5736537"><ele>95.6</ele><time>2015-05-02T13:11:20.0000000+00:00</time></trkpt><trkpt lat="34.9469787" lon="33.5735904"><ele>95.3</ele><time>2015-05-02T13:11:21.0000000+00:00</time></trkpt><trkpt lat="34.9469922" lon="33.5735349"><ele>95.2</ele><time>2015-05-02T13:11:22.0000000+00:00</time></trkpt><trkpt lat="34.9470254" lon="33.5734346"><ele>97.3</ele><time>2015-05-02T13:11:24.0000000+00:00</time></trkpt><trkpt lat="34.9470134" lon="33.5733674"><ele>96.7</ele><time>2015-05-02T13:11:25.0000000+00:00</time></trkpt><trkpt lat="34.9470087" lon="33.5733081"><ele>96.3</ele><time>2015-05-02T13:11:26.0000000+00:00</time></trkpt><trkpt lat="34.9470114" lon="33.5732519"><ele>96.2</ele><time>2015-05-02T13:11:27.0000000+00:00</time></trkpt><trkpt lat="34.9470114" lon="33.5731888"><ele>96.6</ele><time>2015-05-02T13:11:28.0000000+00:00</time></trkpt><trkpt lat="34.9470224" lon="33.5731248"><ele>96.8</ele><time>2015-05-02T13:11:29.0000000+00:00</time></trkpt><trkpt lat="34.9470303" lon="33.5730638"><ele>96.9</ele><time>2015-05-02T13:11:30.0000000+00:00</time></trkpt><trkpt lat="34.9470344" lon="33.5729985"><ele>96.5</ele><time>2015-05-02T13:11:31.0000000+00:00</time></trkpt><trkpt lat="34.9470426" lon="33.5729375"><ele>96.2</ele><time>2015-05-02T13:11:32.0000000+00:00</time></trkpt><trkpt lat="34.9470361" lon="33.5728403"><ele>98.6</ele><time>2015-05-02T13:11:34.0000000+00:00</time></trkpt><trkpt lat="34.947029" lon="33.572736"><ele>99.9</ele><time>2015-05-02T13:11:36.0000000+00:00</time></trkpt><trkpt lat="34.9470121" lon="33.5726544"><ele>101.2</ele><time>2015-05-02T13:11:38.0000000+00:00</time></trkpt><trkpt lat="34.9469973" lon="33.5725718"><ele>102.6</ele><time>2015-05-02T13:11:40.0000000+00:00</time></trkpt><trkpt lat="34.9470037" lon="33.5724914"><ele>100.4</ele><time>2015-05-02T13:11:42.0000000+00:00</time></trkpt><trkpt lat="34.94702" lon="33.572417"><ele>99.9</ele><time>2015-05-02T13:11:44.0000000+00:00</time></trkpt><trkpt lat="34.9470437" lon="33.572347"><ele>100.0</ele><time>2015-05-02T13:11:46.0000000+00:00</time></trkpt><trkpt lat="34.9470682" lon="33.5722774"><ele>98.3</ele><time>2015-05-02T13:11:48.0000000+00:00</time></trkpt><trkpt lat="34.9470815" lon="33.5722033"><ele>97.8</ele><time>2015-05-02T13:11:50.0000000+00:00</time></trkpt><trkpt lat="34.94708" lon="33.5721333"><ele>99.0</ele><time>2015-05-02T13:11:52.0000000+00:00</time></trkpt><trkpt lat="34.947079" lon="33.5720691"><ele>98.5</ele><time>2015-05-02T13:11:54.0000000+00:00</time></trkpt><trkpt lat="34.9470826" lon="33.572008"><ele>95.6</ele><time>2015-05-02T13:11:56.0000000+00:00</time></trkpt><trkpt lat="34.9470983" lon="33.5719279"><ele>95.3</ele><time>2015-05-02T13:11:59.0000000+00:00</time></trkpt><trkpt lat="34.9470854" lon="33.5718647"><ele>100.7</ele><time>2015-05-02T13:12:05.0000000+00:00</time></trkpt><trkpt lat="34.9470786" lon="33.5717952"><ele>102.1</ele><time>2015-05-02T13:12:09.0000000+00:00</time></trkpt><trkpt lat="34.9470796" lon="33.5717346"><ele>103.0</ele><time>2015-05-02T13:12:12.0000000+00:00</time></trkpt><trkpt lat="34.9470892" lon="33.5716663"><ele>103.3</ele><time>2015-05-02T13:12:15.0000000+00:00</time></trkpt><trkpt lat="34.9471091" lon="33.5715938"><ele>101.3</ele><time>2015-05-02T13:12:18.0000000+00:00</time></trkpt><trkpt lat="34.947128" lon="33.5715212"><ele>103.8</ele><time>2015-05-02T13:12:21.0000000+00:00</time></trkpt><trkpt lat="34.9471344" lon="33.5714439"><ele>105.7</ele><time>2015-05-02T13:12:24.0000000+00:00</time></trkpt><trkpt lat="34.9471384" lon="33.5713892"><ele>105.2</ele><time>2015-05-02T13:12:26.0000000+00:00</time></trkpt><trkpt lat="34.9471285" lon="33.5713075"><ele>106.3</ele><time>2015-05-02T13:12:29.0000000+00:00</time></trkpt><trkpt lat="34.9471191" lon="33.5712325"><ele>105.2</ele><time>2015-05-02T13:12:32.0000000+00:00</time></trkpt><trkpt lat="34.947103" lon="33.5711623"><ele>105.0</ele><time>2015-05-02T13:12:35.0000000+00:00</time></trkpt><trkpt lat="34.9470792" lon="33.5711009"><ele>104.3</ele><time>2015-05-02T13:12:37.0000000+00:00</time></trkpt><trkpt lat="34.9470462" lon="33.5710355"><ele>103.6</ele><time>2015-05-02T13:12:39.0000000+00:00</time></trkpt><trkpt lat="34.9470038" lon="33.5709774"><ele>102.2</ele><time>2015-05-02T13:12:41.0000000+00:00</time></trkpt><trkpt lat="34.9469623" lon="33.570925"><ele>98.6</ele><time>2015-05-02T13:12:43.0000000+00:00</time></trkpt><trkpt lat="34.9469205" lon="33.5708726"><ele>98.7</ele><time>2015-05-02T13:12:45.0000000+00:00</time></trkpt><trkpt lat="34.946874" lon="33.5708287"><ele>99.7</ele><time>2015-05-02T13:12:47.0000000+00:00</time></trkpt><trkpt lat="34.9468303" lon="33.5707844"><ele>100.7</ele><time>2015-05-02T13:12:49.0000000+00:00</time></trkpt><trkpt lat="34.9467887" lon="33.570728"><ele>99.7</ele><time>2015-05-02T13:12:51.0000000+00:00</time></trkpt><trkpt lat="34.9467432" lon="33.570659"><ele>99.2</ele><time>2015-05-02T13:12:53.0000000+00:00</time></trkpt><trkpt lat="34.9466886" lon="33.5705876"><ele>98.6</ele><time>2015-05-02T13:12:55.0000000+00:00</time></trkpt><trkpt lat="34.9466325" lon="33.5705115"><ele>98.2</ele><time>2015-05-02T13:12:57.0000000+00:00</time></trkpt><trkpt lat="34.9465925" lon="33.5704341"><ele>98.8</ele><time>2015-05-02T13:12:59.0000000+00:00</time></trkpt><trkpt lat="34.9465559" lon="33.5703569"><ele>101.7</ele><time>2015-05-02T13:13:01.0000000+00:00</time></trkpt><trkpt lat="34.9465232" lon="33.5702991"><ele>101.7</ele><time>2015-05-02T13:13:03.0000000+00:00</time></trkpt><trkpt lat="34.9465059" lon="33.5702334"><ele>102.7</ele><time>2015-05-02T13:13:05.0000000+00:00</time></trkpt><trkpt lat="34.9464846" lon="33.5701599"><ele>103.7</ele><time>2015-05-02T13:13:07.0000000+00:00</time></trkpt><trkpt lat="34.9464288" lon="33.5701017"><ele>105.2</ele><time>2015-05-02T13:13:09.0000000+00:00</time></trkpt><trkpt lat="34.9463507" lon="33.5700733"><ele>106.1</ele><time>2015-05-02T13:13:11.0000000+00:00</time></trkpt><trkpt lat="34.9462346" lon="33.5700288"><ele>105.0</ele><time>2015-05-02T13:13:13.0000000+00:00</time></trkpt><trkpt lat="34.9461632" lon="33.5699735"><ele>103.5</ele><time>2015-05-02T13:13:15.0000000+00:00</time></trkpt><trkpt lat="34.9461283" lon="33.5699258"><ele>103.3</ele><time>2015-05-02T13:13:16.0000000+00:00</time></trkpt><trkpt lat="34.9460955" lon="33.5698877"><ele>103.1</ele><time>2015-05-02T13:13:17.0000000+00:00</time></trkpt><trkpt lat="34.9460739" lon="33.5697664"><ele>99.6</ele><time>2015-05-02T13:13:19.0000000+00:00</time></trkpt><trkpt lat="34.9460736" lon="33.5696995"><ele>97.3</ele><time>2015-05-02T13:13:20.0000000+00:00</time></trkpt><trkpt lat="34.946095" lon="33.5696313"><ele>94.2</ele><time>2015-05-02T13:13:21.0000000+00:00</time></trkpt><trkpt lat="34.9461151" lon="33.5695531"><ele>91.6</ele><time>2015-05-02T13:13:22.0000000+00:00</time></trkpt><trkpt lat="34.946134" lon="33.5694849"><ele>89.8</ele><time>2015-05-02T13:13:23.0000000+00:00</time></trkpt><trkpt lat="34.946148" lon="33.569426"><ele>88.4</ele><time>2015-05-02T13:13:24.0000000+00:00</time></trkpt><trkpt lat="34.9461756" lon="33.5693526"><ele>87.1</ele><time>2015-05-02T13:13:26.0000000+00:00</time></trkpt><trkpt lat="34.9461978" lon="33.5692951"><ele>86.3</ele><time>2015-05-02T13:13:28.0000000+00:00</time></trkpt><trkpt lat="34.9462172" lon="33.5692291"><ele>83.4</ele><time>2015-05-02T13:13:31.0000000+00:00</time></trkpt><trkpt lat="34.9462049" lon="33.5691604"><ele>82.2</ele><time>2015-05-02T13:13:34.0000000+00:00</time></trkpt><trkpt lat="34.9461581" lon="33.5690946"><ele>81.8</ele><time>2015-05-02T13:13:36.0000000+00:00</time></trkpt><trkpt lat="34.9460962" lon="33.5689855"><ele>82.0</ele><time>2015-05-02T13:13:38.0000000+00:00</time></trkpt><trkpt lat="34.9460728" lon="33.5689382"><ele>81.5</ele><time>2015-05-02T13:13:39.0000000+00:00</time></trkpt><trkpt lat="34.9460453" lon="33.5688945"><ele>81.8</ele><time>2015-05-02T13:13:40.0000000+00:00</time></trkpt><trkpt lat="34.9459946" lon="33.5688147"><ele>82.0</ele><time>2015-05-02T13:13:42.0000000+00:00</time></trkpt><trkpt lat="34.9459601" lon="33.5687466"><ele>82.8</ele><time>2015-05-02T13:13:44.0000000+00:00</time></trkpt><trkpt lat="34.9459214" lon="33.5686723"><ele>83.5</ele><time>2015-05-02T13:13:46.0000000+00:00</time></trkpt><trkpt lat="34.9458898" lon="33.5685944"><ele>83.9</ele><time>2015-05-02T13:13:48.0000000+00:00</time></trkpt><trkpt lat="34.9458582" lon="33.5685124"><ele>82.7</ele><time>2015-05-02T13:13:50.0000000+00:00</time></trkpt><trkpt lat="34.945806" lon="33.5684259"><ele>81.4</ele><time>2015-05-02T13:13:52.0000000+00:00</time></trkpt><trkpt lat="34.9457651" lon="33.5683872"><ele>80.7</ele><time>2015-05-02T13:13:53.0000000+00:00</time></trkpt><trkpt lat="34.9457106" lon="33.568365"><ele>80.4</ele><time>2015-05-02T13:13:54.0000000+00:00</time></trkpt><trkpt lat="34.9456642" lon="33.5683659"><ele>80.2</ele><time>2015-05-02T13:13:55.0000000+00:00</time></trkpt><trkpt lat="34.9456159" lon="33.5683845"><ele>80.1</ele><time>2015-05-02T13:13:56.0000000+00:00</time></trkpt><trkpt lat="34.9455703" lon="33.5684169"><ele>80.1</ele><time>2015-05-02T13:13:57.0000000+00:00</time></trkpt><trkpt lat="34.9454938" lon="33.5684826"><ele>80.0</ele><time>2015-05-02T13:13:59.0000000+00:00</time></trkpt><trkpt lat="34.9454523" lon="33.5685101"><ele>80.0</ele><time>2015-05-02T13:14:00.0000000+00:00</time></trkpt><trkpt lat="34.9453653" lon="33.5685409"><ele>80.8</ele><time>2015-05-02T13:14:02.0000000+00:00</time></trkpt><trkpt lat="34.9452847" lon="33.5685525"><ele>81.7</ele><time>2015-05-02T13:14:04.0000000+00:00</time></trkpt><trkpt lat="34.9452184" lon="33.56856"><ele>81.9</ele><time>2015-05-02T13:14:06.0000000+00:00</time></trkpt><trkpt lat="34.945151" lon="33.5685757"><ele>81.5</ele><time>2015-05-02T13:14:08.0000000+00:00</time></trkpt><trkpt lat="34.9450941" lon="33.5686234"><ele>81.1</ele><time>2015-05-02T13:14:10.0000000+00:00</time></trkpt><trkpt lat="34.9450522" lon="33.5687022"><ele>80.3</ele><time>2015-05-02T13:14:12.0000000+00:00</time></trkpt><trkpt lat="34.9450116" lon="33.5687866"><ele>80.1</ele><time>2015-05-02T13:14:14.0000000+00:00</time></trkpt><trkpt lat="34.944979" lon="33.5688677"><ele>80.0</ele><time>2015-05-02T13:14:16.0000000+00:00</time></trkpt><trkpt lat="34.9449472" lon="33.5689318"><ele>79.8</ele><time>2015-05-02T13:14:18.0000000+00:00</time></trkpt><trkpt lat="34.944909" lon="33.5690036"><ele>81.2</ele><time>2015-05-02T13:14:20.0000000+00:00</time></trkpt><trkpt lat="34.9448741" lon="33.5690842"><ele>81.3</ele><time>2015-05-02T13:14:22.0000000+00:00</time></trkpt><trkpt lat="34.9448454" lon="33.5691616"><ele>81.1</ele><time>2015-05-02T13:14:24.0000000+00:00</time></trkpt><trkpt lat="34.9448252" lon="33.569231"><ele>81.0</ele><time>2015-05-02T13:14:26.0000000+00:00</time></trkpt><trkpt lat="34.9448067" lon="33.5692873"><ele>80.5</ele><time>2015-05-02T13:14:28.0000000+00:00</time></trkpt><trkpt lat="34.9447569" lon="33.5693228"><ele>82.1</ele><time>2015-05-02T13:14:30.0000000+00:00</time></trkpt><trkpt lat="34.9446924" lon="33.5693056"><ele>83.6</ele><time>2015-05-02T13:14:32.0000000+00:00</time></trkpt><trkpt lat="34.9446264" lon="33.5692801"><ele>82.4</ele><time>2015-05-02T13:14:34.0000000+00:00</time></trkpt><trkpt lat="34.9445432" lon="33.5692654"><ele>82.6</ele><time>2015-05-02T13:14:36.0000000+00:00</time></trkpt><trkpt lat="34.9444642" lon="33.5692896"><ele>82.9</ele><time>2015-05-02T13:14:38.0000000+00:00</time></trkpt><trkpt lat="34.9444055" lon="33.5693337"><ele>84.2</ele><time>2015-05-02T13:14:40.0000000+00:00</time></trkpt><trkpt lat="34.9443651" lon="33.5693746"><ele>85.3</ele><time>2015-05-02T13:14:42.0000000+00:00</time></trkpt><trkpt lat="34.9443248" lon="33.569414"><ele>86.8</ele><time>2015-05-02T13:14:44.0000000+00:00</time></trkpt><trkpt lat="34.9442838" lon="33.5694558"><ele>87.7</ele><time>2015-05-02T13:14:46.0000000+00:00</time></trkpt><trkpt lat="34.9442387" lon="33.5694972"><ele>87.9</ele><time>2015-05-02T13:14:48.0000000+00:00</time></trkpt><trkpt lat="34.9441934" lon="33.5695298"><ele>88.8</ele><time>2015-05-02T13:14:50.0000000+00:00</time></trkpt><trkpt lat="34.9441447" lon="33.5695464"><ele>89.0</ele><time>2015-05-02T13:14:53.0000000+00:00</time></trkpt><trkpt lat="34.9440968" lon="33.5695527"><ele>88.5</ele><time>2015-05-02T13:14:57.0000000+00:00</time></trkpt><trkpt lat="34.9440526" lon="33.5695737"><ele>88.8</ele><time>2015-05-02T13:15:00.0000000+00:00</time></trkpt><trkpt lat="34.9440134" lon="33.5696056"><ele>89.0</ele><time>2015-05-02T13:15:03.0000000+00:00</time></trkpt><trkpt lat="34.9439811" lon="33.5696491"><ele>89.8</ele><time>2015-05-02T13:15:06.0000000+00:00</time></trkpt><trkpt lat="34.9439594" lon="33.5696974"><ele>90.6</ele><time>2015-05-02T13:15:09.0000000+00:00</time></trkpt><trkpt lat="34.9439444" lon="33.569761"><ele>89.2</ele><time>2015-05-02T13:15:13.0000000+00:00</time></trkpt><trkpt lat="34.9439338" lon="33.5698245"><ele>90.5</ele><time>2015-05-02T13:15:17.0000000+00:00</time></trkpt><trkpt lat="34.9439197" lon="33.5698784"><ele>91.7</ele><time>2015-05-02T13:15:20.0000000+00:00</time></trkpt><trkpt lat="34.9439021" lon="33.5699322"><ele>92.0</ele><time>2015-05-02T13:15:23.0000000+00:00</time></trkpt><trkpt lat="34.9438886" lon="33.5699914"><ele>92.5</ele><time>2015-05-02T13:15:26.0000000+00:00</time></trkpt><trkpt lat="34.943872" lon="33.5700506"><ele>92.6</ele><time>2015-05-02T13:15:29.0000000+00:00</time></trkpt><trkpt lat="34.9438574" lon="33.570103"><ele>93.7</ele><time>2015-05-02T13:15:32.0000000+00:00</time></trkpt><trkpt lat="34.9438412" lon="33.5701601"><ele>94.9</ele><time>2015-05-02T13:15:35.0000000+00:00</time></trkpt><trkpt lat="34.9438332" lon="33.570222"><ele>94.9</ele><time>2015-05-02T13:15:38.0000000+00:00</time></trkpt><trkpt lat="34.9438227" lon="33.5702917"><ele>94.9</ele><time>2015-05-02T13:15:42.0000000+00:00</time></trkpt><trkpt lat="34.9438245" lon="33.5703721"><ele>95.0</ele><time>2015-05-02T13:15:45.0000000+00:00</time></trkpt><trkpt lat="34.9438442" lon="33.5704558"><ele>95.5</ele><time>2015-05-02T13:15:47.0000000+00:00</time></trkpt><trkpt lat="34.9438755" lon="33.5705406"><ele>95.4</ele><time>2015-05-02T13:15:49.0000000+00:00</time></trkpt><trkpt lat="34.9439038" lon="33.570624"><ele>95.1</ele><time>2015-05-02T13:15:51.0000000+00:00</time></trkpt><trkpt lat="34.9439284" lon="33.5707132"><ele>94.5</ele><time>2015-05-02T13:15:53.0000000+00:00</time></trkpt><trkpt lat="34.943956" lon="33.5707982"><ele>94.9</ele><time>2015-05-02T13:15:55.0000000+00:00</time></trkpt><trkpt lat="34.9439941" lon="33.5708768"><ele>94.7</ele><time>2015-05-02T13:15:57.0000000+00:00</time></trkpt><trkpt lat="34.9440367" lon="33.570947"><ele>94.2</ele><time>2015-05-02T13:15:59.0000000+00:00</time></trkpt><trkpt lat="34.9440798" lon="33.5710178"><ele>94.3</ele><time>2015-05-02T13:16:01.0000000+00:00</time></trkpt><trkpt lat="34.9441151" lon="33.5710911"><ele>94.8</ele><time>2015-05-02T13:16:03.0000000+00:00</time></trkpt><trkpt lat="34.944145" lon="33.5711717"><ele>95.0</ele><time>2015-05-02T13:16:05.0000000+00:00</time></trkpt><trkpt lat="34.9441764" lon="33.5712563"><ele>95.0</ele><time>2015-05-02T13:16:07.0000000+00:00</time></trkpt><trkpt lat="34.9442029" lon="33.5713433"><ele>95.0</ele><time>2015-05-02T13:16:09.0000000+00:00</time></trkpt><trkpt lat="34.9442255" lon="33.5714278"><ele>95.8</ele><time>2015-05-02T13:16:11.0000000+00:00</time></trkpt><trkpt lat="34.9442454" lon="33.5715233"><ele>96.0</ele><time>2015-05-02T13:16:13.0000000+00:00</time></trkpt><trkpt lat="34.9442574" lon="33.5716198"><ele>96.8</ele><time>2015-05-02T13:16:15.0000000+00:00</time></trkpt><trkpt lat="34.9442643" lon="33.5717142"><ele>96.2</ele><time>2015-05-02T13:16:17.0000000+00:00</time></trkpt><trkpt lat="34.9442606" lon="33.5718032"><ele>96.1</ele><time>2015-05-02T13:16:19.0000000+00:00</time></trkpt><trkpt lat="34.9442462" lon="33.5719"><ele>96.8</ele><time>2015-05-02T13:16:21.0000000+00:00</time></trkpt><trkpt lat="34.9442301" lon="33.5719862"><ele>96.5</ele><time>2015-05-02T13:16:23.0000000+00:00</time></trkpt><trkpt lat="34.9442238" lon="33.5720716"><ele>96.1</ele><time>2015-05-02T13:16:25.0000000+00:00</time></trkpt><trkpt lat="34.944216" lon="33.5721579"><ele>96.0</ele><time>2015-05-02T13:16:27.0000000+00:00</time></trkpt><trkpt lat="34.9442002" lon="33.5722518"><ele>96.8</ele><time>2015-05-02T13:16:29.0000000+00:00</time></trkpt><trkpt lat="34.9441802" lon="33.5723377"><ele>97.0</ele><time>2015-05-02T13:16:31.0000000+00:00</time></trkpt><trkpt lat="34.9441652" lon="33.5724315"><ele>97.5</ele><time>2015-05-02T13:16:33.0000000+00:00</time></trkpt><trkpt lat="34.944162" lon="33.5725234"><ele>97.4</ele><time>2015-05-02T13:16:35.0000000+00:00</time></trkpt><trkpt lat="34.9441805" lon="33.5725746"><ele>97.2</ele><time>2015-05-02T13:16:36.0000000+00:00</time></trkpt><trkpt lat="34.9442091" lon="33.5726212"><ele>96.6</ele><time>2015-05-02T13:16:37.0000000+00:00</time></trkpt><trkpt lat="34.944248" lon="33.5726534"><ele>96.8</ele><time>2015-05-02T13:16:38.0000000+00:00</time></trkpt><trkpt lat="34.9443092" lon="33.5727273"><ele>96.2</ele><time>2015-05-02T13:16:40.0000000+00:00</time></trkpt><trkpt lat="34.9443648" lon="33.5728015"><ele>96.8</ele><time>2015-05-02T13:16:42.0000000+00:00</time></trkpt><trkpt lat="34.9444126" lon="33.5728858"><ele>97.5</ele><time>2015-05-02T13:16:44.0000000+00:00</time></trkpt><trkpt lat="34.944426" lon="33.5729425"><ele>97.7</ele><time>2015-05-02T13:16:45.0000000+00:00</time></trkpt><trkpt lat="34.9444558" lon="33.5730483"><ele>98.0</ele><time>2015-05-02T13:16:47.0000000+00:00</time></trkpt><trkpt lat="34.9444668" lon="33.5731045"><ele>98.0</ele><time>2015-05-02T13:16:48.0000000+00:00</time></trkpt><trkpt lat="34.9444722" lon="33.5731601"><ele>98.5</ele><time>2015-05-02T13:16:49.0000000+00:00</time></trkpt><trkpt lat="34.9444854" lon="33.5732566"><ele>98.9</ele><time>2015-05-02T13:16:51.0000000+00:00</time></trkpt><trkpt lat="34.9444977" lon="33.573315"><ele>99.5</ele><time>2015-05-02T13:16:52.0000000+00:00</time></trkpt><trkpt lat="34.9445195" lon="33.5734177"><ele>99.9</ele><time>2015-05-02T13:16:54.0000000+00:00</time></trkpt><trkpt lat="34.9445206" lon="33.5734744"><ele>99.5</ele><time>2015-05-02T13:16:55.0000000+00:00</time></trkpt><trkpt lat="34.9445353" lon="33.573583"><ele>99.9</ele><time>2015-05-02T13:16:57.0000000+00:00</time></trkpt><trkpt lat="34.9445446" lon="33.5736696"><ele>100.0</ele><time>2015-05-02T13:16:59.0000000+00:00</time></trkpt><trkpt lat="34.9445451" lon="33.5737712"><ele>101.3</ele><time>2015-05-02T13:17:01.0000000+00:00</time></trkpt><trkpt lat="34.9445456" lon="33.573866"><ele>102.1</ele><time>2015-05-02T13:17:03.0000000+00:00</time></trkpt><trkpt lat="34.9445439" lon="33.5739711"><ele>102.0</ele><time>2015-05-02T13:17:05.0000000+00:00</time></trkpt><trkpt lat="34.944543" lon="33.574077"><ele>102.5</ele><time>2015-05-02T13:17:07.0000000+00:00</time></trkpt><trkpt lat="34.9445489" lon="33.5741373"><ele>102.3</ele><time>2015-05-02T13:17:08.0000000+00:00</time></trkpt><trkpt lat="34.9445643" lon="33.5741996"><ele>101.6</ele><time>2015-05-02T13:17:09.0000000+00:00</time></trkpt><trkpt lat="34.9445732" lon="33.5742599"><ele>99.8</ele><time>2015-05-02T13:17:10.0000000+00:00</time></trkpt><trkpt lat="34.9445888" lon="33.5743295"><ele>98.4</ele><time>2015-05-02T13:17:11.0000000+00:00</time></trkpt><trkpt lat="34.9446109" lon="33.5743976"><ele>97.7</ele><time>2015-05-02T13:17:12.0000000+00:00</time></trkpt><trkpt lat="34.944635" lon="33.5744714"><ele>96.9</ele><time>2015-05-02T13:17:13.0000000+00:00</time></trkpt><trkpt lat="34.9446558" lon="33.5745624"><ele>96.4</ele><time>2015-05-02T13:17:14.0000000+00:00</time></trkpt><trkpt lat="34.9446839" lon="33.5746502"><ele>96.2</ele><time>2015-05-02T13:17:15.0000000+00:00</time></trkpt><trkpt lat="34.9447095" lon="33.5747641"><ele>95.6</ele><time>2015-05-02T13:17:16.0000000+00:00</time></trkpt><trkpt lat="34.9447283" lon="33.5748692"><ele>95.3</ele><time>2015-05-02T13:17:17.0000000+00:00</time></trkpt><trkpt lat="34.9447421" lon="33.5749803"><ele>95.2</ele><time>2015-05-02T13:17:18.0000000+00:00</time></trkpt><trkpt lat="34.9447631" lon="33.5751043"><ele>95.1</ele><time>2015-05-02T13:17:19.0000000+00:00</time></trkpt><trkpt lat="34.944783" lon="33.5752185"><ele>95.1</ele><time>2015-05-02T13:17:20.0000000+00:00</time></trkpt><trkpt lat="34.9447998" lon="33.575353"><ele>95.0</ele><time>2015-05-02T13:17:21.0000000+00:00</time></trkpt><trkpt lat="34.944806" lon="33.5754857"><ele>95.0</ele><time>2015-05-02T13:17:22.0000000+00:00</time></trkpt><trkpt lat="34.944808" lon="33.5756035"><ele>95.0</ele><time>2015-05-02T13:17:23.0000000+00:00</time></trkpt><trkpt lat="34.9448087" lon="33.5757397"><ele>95.0</ele><time>2015-05-02T13:17:24.0000000+00:00</time></trkpt><trkpt lat="34.9448101" lon="33.5758634"><ele>95.0</ele><time>2015-05-02T13:17:25.0000000+00:00</time></trkpt><trkpt lat="34.944819" lon="33.5759781"><ele>94.5</ele><time>2015-05-02T13:17:26.0000000+00:00</time></trkpt><trkpt lat="34.9448318" lon="33.5760948"><ele>94.3</ele><time>2015-05-02T13:17:27.0000000+00:00</time></trkpt><trkpt lat="34.9448419" lon="33.5761989"><ele>94.1</ele><time>2015-05-02T13:17:28.0000000+00:00</time></trkpt><trkpt lat="34.9448601" lon="33.5762934"><ele>94.1</ele><time>2015-05-02T13:17:29.0000000+00:00</time></trkpt><trkpt lat="34.9448868" lon="33.5763866"><ele>93.6</ele><time>2015-05-02T13:17:30.0000000+00:00</time></trkpt><trkpt lat="34.9448976" lon="33.5764818"><ele>93.3</ele><time>2015-05-02T13:17:31.0000000+00:00</time></trkpt><trkpt lat="34.9449063" lon="33.5765873"><ele>93.2</ele><time>2015-05-02T13:17:32.0000000+00:00</time></trkpt><trkpt lat="34.9449068" lon="33.5766743"><ele>93.1</ele><time>2015-05-02T13:17:33.0000000+00:00</time></trkpt><trkpt lat="34.9449072" lon="33.5767364"><ele>93.1</ele><time>2015-05-02T13:17:34.0000000+00:00</time></trkpt><trkpt lat="34.9449132" lon="33.5768047"><ele>93.0</ele><time>2015-05-02T13:17:35.0000000+00:00</time></trkpt><trkpt lat="34.9449233" lon="33.5768845"><ele>92.5</ele><time>2015-05-02T13:17:37.0000000+00:00</time></trkpt><trkpt lat="34.9449004" lon="33.5769526"><ele>93.0</ele><time>2015-05-02T13:17:40.0000000+00:00</time></trkpt><trkpt lat="34.9448692" lon="33.5770252"><ele>93.0</ele><time>2015-05-02T13:17:43.0000000+00:00</time></trkpt><trkpt lat="34.9448395" lon="33.5770722"><ele>93.0</ele><time>2015-05-02T13:17:45.0000000+00:00</time></trkpt><trkpt lat="34.944809" lon="33.5771273"><ele>94.4</ele><time>2015-05-02T13:17:48.0000000+00:00</time></trkpt><trkpt lat="34.9447915" lon="33.5771952"><ele>94.1</ele><time>2015-05-02T13:17:51.0000000+00:00</time></trkpt><trkpt lat="34.9447519" lon="33.5772615"><ele>94.0</ele><time>2015-05-02T13:17:54.0000000+00:00</time></trkpt><trkpt lat="34.9447135" lon="33.5773061"><ele>94.0</ele><time>2015-05-02T13:17:56.0000000+00:00</time></trkpt><trkpt lat="34.9446745" lon="33.577369"><ele>94.0</ele><time>2015-05-02T13:17:58.0000000+00:00</time></trkpt><trkpt lat="34.9446505" lon="33.5774159"><ele>94.0</ele><time>2015-05-02T13:17:59.0000000+00:00</time></trkpt><trkpt lat="34.9446138" lon="33.5774927"><ele>94.5</ele><time>2015-05-02T13:18:00.0000000+00:00</time></trkpt><trkpt lat="34.9445831" lon="33.5775868"><ele>94.9</ele><time>2015-05-02T13:18:02.0000000+00:00</time></trkpt><trkpt lat="34.9445484" lon="33.5776847"><ele>94.2</ele><time>2015-05-02T13:18:04.0000000+00:00</time></trkpt><trkpt lat="34.9445135" lon="33.5777856"><ele>93.8</ele><time>2015-05-02T13:18:06.0000000+00:00</time></trkpt><trkpt lat="34.9444962" lon="33.5778414"><ele>93.9</ele><time>2015-05-02T13:18:07.0000000+00:00</time></trkpt><trkpt lat="34.9444802" lon="33.5778992"><ele>93.5</ele><time>2015-05-02T13:18:08.0000000+00:00</time></trkpt><trkpt lat="34.9444647" lon="33.57796"><ele>93.7</ele><time>2015-05-02T13:18:09.0000000+00:00</time></trkpt><trkpt lat="34.9444447" lon="33.5780131"><ele>93.4</ele><time>2015-05-02T13:18:10.0000000+00:00</time></trkpt><trkpt lat="34.9444289" lon="33.5780724"><ele>93.7</ele><time>2015-05-02T13:18:11.0000000+00:00</time></trkpt><trkpt lat="34.9444148" lon="33.5781377"><ele>93.9</ele><time>2015-05-02T13:18:12.0000000+00:00</time></trkpt><trkpt lat="34.9444002" lon="33.5781974"><ele>93.4</ele><time>2015-05-02T13:18:13.0000000+00:00</time></trkpt><trkpt lat="34.9443877" lon="33.5782644"><ele>93.7</ele><time>2015-05-02T13:18:14.0000000+00:00</time></trkpt><trkpt lat="34.9443709" lon="33.5783317"><ele>93.4</ele><time>2015-05-02T13:18:15.0000000+00:00</time></trkpt><trkpt lat="34.9443576" lon="33.5784038"><ele>93.2</ele><time>2015-05-02T13:18:16.0000000+00:00</time></trkpt><trkpt lat="34.9443442" lon="33.5784838"><ele>93.1</ele><time>2015-05-02T13:18:17.0000000+00:00</time></trkpt><trkpt lat="34.9443302" lon="33.578558"><ele>92.6</ele><time>2015-05-02T13:18:18.0000000+00:00</time></trkpt><trkpt lat="34.9443223" lon="33.5786384"><ele>92.3</ele><time>2015-05-02T13:18:19.0000000+00:00</time></trkpt><trkpt lat="34.9443101" lon="33.5787287"><ele>92.2</ele><time>2015-05-02T13:18:20.0000000+00:00</time></trkpt><trkpt lat="34.9443014" lon="33.5788165"><ele>92.1</ele><time>2015-05-02T13:18:21.0000000+00:00</time></trkpt><trkpt lat="34.9442932" lon="33.578901"><ele>91.6</ele><time>2015-05-02T13:18:22.0000000+00:00</time></trkpt><trkpt lat="34.944288" lon="33.5789838"><ele>90.8</ele><time>2015-05-02T13:18:23.0000000+00:00</time></trkpt><trkpt lat="34.9442668" lon="33.5790712"><ele>90.4</ele><time>2015-05-02T13:18:24.0000000+00:00</time></trkpt><trkpt lat="34.9442493" lon="33.5791659"><ele>90.2</ele><time>2015-05-02T13:18:25.0000000+00:00</time></trkpt><trkpt lat="34.9442419" lon="33.5792506"><ele>90.1</ele><time>2015-05-02T13:18:26.0000000+00:00</time></trkpt><trkpt lat="34.9442276" lon="33.5793448"><ele>90.1</ele><time>2015-05-02T13:18:27.0000000+00:00</time></trkpt><trkpt lat="34.9442152" lon="33.5794454"><ele>90.0</ele><time>2015-05-02T13:18:28.0000000+00:00</time></trkpt><trkpt lat="34.9442072" lon="33.5795431"><ele>90.0</ele><time>2015-05-02T13:18:29.0000000+00:00</time></trkpt><trkpt lat="34.9441987" lon="33.5796338"><ele>90.0</ele><time>2015-05-02T13:18:30.0000000+00:00</time></trkpt><trkpt lat="34.9441984" lon="33.5797294"><ele>89.5</ele><time>2015-05-02T13:18:31.0000000+00:00</time></trkpt><trkpt lat="34.9442066" lon="33.579815"><ele>89.3</ele><time>2015-05-02T13:18:32.0000000+00:00</time></trkpt><trkpt lat="34.9442194" lon="33.5798885"><ele>88.6</ele><time>2015-05-02T13:18:33.0000000+00:00</time></trkpt><trkpt lat="34.944248" lon="33.579948"><ele>88.8</ele><time>2015-05-02T13:18:34.0000000+00:00</time></trkpt><trkpt lat="34.9442914" lon="33.5800312"><ele>90.0</ele><time>2015-05-02T13:18:36.0000000+00:00</time></trkpt><trkpt lat="34.944332" lon="33.5800669"><ele>90.8</ele><time>2015-05-02T13:18:38.0000000+00:00</time></trkpt><trkpt lat="34.9443852" lon="33.5800592"><ele>92.2</ele><time>2015-05-02T13:18:44.0000000+00:00</time></trkpt><trkpt lat="34.9444155" lon="33.5801131"><ele>72.5</ele><time>2015-05-02T13:20:25.0000000+00:00</time></trkpt><trkpt lat="34.9443877" lon="33.5801694"><ele>74.9</ele><time>2015-05-02T13:20:27.0000000+00:00</time></trkpt><trkpt lat="34.9443435" lon="33.5802246"><ele>74.2</ele><time>2015-05-02T13:20:29.0000000+00:00</time></trkpt><trkpt lat="34.94429" lon="33.5802888"><ele>73.3</ele><time>2015-05-02T13:20:31.0000000+00:00</time></trkpt><trkpt lat="34.944232" lon="33.5803508"><ele>72.3</ele><time>2015-05-02T13:20:33.0000000+00:00</time></trkpt><trkpt lat="34.9441762" lon="33.5804087"><ele>71.4</ele><time>2015-05-02T13:20:35.0000000+00:00</time></trkpt><trkpt lat="34.9441215" lon="33.5804632"><ele>70.4</ele><time>2015-05-02T13:20:37.0000000+00:00</time></trkpt><trkpt lat="34.944067" lon="33.5805089"><ele>69.9</ele><time>2015-05-02T13:20:39.0000000+00:00</time></trkpt><trkpt lat="34.9440243" lon="33.5805586"><ele>70.0</ele><time>2015-05-02T13:20:41.0000000+00:00</time></trkpt><trkpt lat="34.9439823" lon="33.5806097"><ele>70.0</ele><time>2015-05-02T13:20:43.0000000+00:00</time></trkpt><trkpt lat="34.9439428" lon="33.5806548"><ele>69.5</ele><time>2015-05-02T13:20:45.0000000+00:00</time></trkpt><trkpt lat="34.943904" lon="33.5806981"><ele>69.1</ele><time>2015-05-02T13:20:47.0000000+00:00</time></trkpt><trkpt lat="34.9438519" lon="33.5807537"><ele>69.1</ele><time>2015-05-02T13:20:49.0000000+00:00</time></trkpt><trkpt lat="34.9437915" lon="33.5808194"><ele>69.0</ele><time>2015-05-02T13:20:51.0000000+00:00</time></trkpt><trkpt lat="34.9437237" lon="33.580874"><ele>69.0</ele><time>2015-05-02T13:20:53.0000000+00:00</time></trkpt><trkpt lat="34.9436542" lon="33.5809149"><ele>69.0</ele><time>2015-05-02T13:20:55.0000000+00:00</time></trkpt><trkpt lat="34.9435881" lon="33.580951"><ele>69.0</ele><time>2015-05-02T13:20:57.0000000+00:00</time></trkpt><trkpt lat="34.9435198" lon="33.580978"><ele>68.3</ele><time>2015-05-02T13:20:59.0000000+00:00</time></trkpt><trkpt lat="34.9434424" lon="33.5809976"><ele>68.1</ele><time>2015-05-02T13:21:01.0000000+00:00</time></trkpt><trkpt lat="34.9433914" lon="33.5809929"><ele>68.1</ele><time>2015-05-02T13:21:02.0000000+00:00</time></trkpt><trkpt lat="34.9433416" lon="33.5809976"><ele>68.0</ele><time>2015-05-02T13:21:03.0000000+00:00</time></trkpt><trkpt lat="34.9432586" lon="33.5810106"><ele>68.0</ele><time>2015-05-02T13:21:05.0000000+00:00</time></trkpt><trkpt lat="34.943212" lon="33.5810079"><ele>68.0</ele><time>2015-05-02T13:21:06.0000000+00:00</time></trkpt><trkpt lat="34.9431278" lon="33.581007"><ele>68.0</ele><time>2015-05-02T13:21:08.0000000+00:00</time></trkpt><trkpt lat="34.9430443" lon="33.5810082"><ele>67.5</ele><time>2015-05-02T13:21:10.0000000+00:00</time></trkpt><trkpt lat="34.942998" lon="33.5810138"><ele>67.3</ele><time>2015-05-02T13:21:11.0000000+00:00</time></trkpt><trkpt lat="34.9429518" lon="33.5810111"><ele>67.1</ele><time>2015-05-02T13:21:12.0000000+00:00</time></trkpt><trkpt lat="34.9428567" lon="33.5810119"><ele>67.1</ele><time>2015-05-02T13:21:14.0000000+00:00</time></trkpt><trkpt lat="34.9428094" lon="33.5810166"><ele>66.5</ele><time>2015-05-02T13:21:15.0000000+00:00</time></trkpt><trkpt lat="34.942762" lon="33.5810125"><ele>66.3</ele><time>2015-05-02T13:21:16.0000000+00:00</time></trkpt><trkpt lat="34.9427081" lon="33.5810153"><ele>65.6</ele><time>2015-05-02T13:21:17.0000000+00:00</time></trkpt><trkpt lat="34.9426584" lon="33.581019"><ele>65.3</ele><time>2015-05-02T13:21:18.0000000+00:00</time></trkpt><trkpt lat="34.9426065" lon="33.5810252"><ele>65.2</ele><time>2015-05-02T13:21:19.0000000+00:00</time></trkpt><trkpt lat="34.9425551" lon="33.5810308"><ele>65.1</ele><time>2015-05-02T13:21:20.0000000+00:00</time></trkpt><trkpt lat="34.9424545" lon="33.5810402"><ele>64.5</ele><time>2015-05-02T13:21:22.0000000+00:00</time></trkpt><trkpt lat="34.9424046" lon="33.5810462"><ele>64.3</ele><time>2015-05-02T13:21:23.0000000+00:00</time></trkpt><trkpt lat="34.9423537" lon="33.5810646"><ele>64.2</ele><time>2015-05-02T13:21:24.0000000+00:00</time></trkpt><trkpt lat="34.9422972" lon="33.5810829"><ele>63.6</ele><time>2015-05-02T13:21:25.0000000+00:00</time></trkpt><trkpt lat="34.9422494" lon="33.5811076"><ele>63.3</ele><time>2015-05-02T13:21:26.0000000+00:00</time></trkpt><trkpt lat="34.9421841" lon="33.5811302"><ele>63.7</ele><time>2015-05-02T13:21:27.0000000+00:00</time></trkpt><trkpt lat="34.9421255" lon="33.5811611"><ele>63.8</ele><time>2015-05-02T13:21:28.0000000+00:00</time></trkpt><trkpt lat="34.9420801" lon="33.5811936"><ele>63.4</ele><time>2015-05-02T13:21:29.0000000+00:00</time></trkpt><trkpt lat="34.942035" lon="33.5812277"><ele>63.2</ele><time>2015-05-02T13:21:30.0000000+00:00</time></trkpt><trkpt lat="34.9419952" lon="33.5812567"><ele>63.1</ele><time>2015-05-02T13:21:31.0000000+00:00</time></trkpt><trkpt lat="34.9419494" lon="33.5813064"><ele>63.0</ele><time>2015-05-02T13:21:33.0000000+00:00</time></trkpt><trkpt lat="34.9419717" lon="33.5813687"><ele>63.8</ele><time>2015-05-02T13:21:35.0000000+00:00</time></trkpt><trkpt lat="34.9420042" lon="33.5814548"><ele>63.5</ele><time>2015-05-02T13:21:37.0000000+00:00</time></trkpt><trkpt lat="34.9420427" lon="33.5815452"><ele>63.9</ele><time>2015-05-02T13:21:39.0000000+00:00</time></trkpt><trkpt lat="34.9420918" lon="33.5816534"><ele>64.7</ele><time>2015-05-02T13:21:41.0000000+00:00</time></trkpt><trkpt lat="34.942139" lon="33.5817431"><ele>63.9</ele><time>2015-05-02T13:21:43.0000000+00:00</time></trkpt><trkpt lat="34.9421669" lon="33.5817916"><ele>64.0</ele><time>2015-05-02T13:21:44.0000000+00:00</time></trkpt><trkpt lat="34.942218" lon="33.5818893"><ele>64.5</ele><time>2015-05-02T13:21:46.0000000+00:00</time></trkpt><trkpt lat="34.9422399" lon="33.5819382"><ele>64.8</ele><time>2015-05-02T13:21:47.0000000+00:00</time></trkpt><trkpt lat="34.9422677" lon="33.5819823"><ele>64.9</ele><time>2015-05-02T13:21:48.0000000+00:00</time></trkpt><trkpt lat="34.9422975" lon="33.5820269"><ele>65.0</ele><time>2015-05-02T13:21:49.0000000+00:00</time></trkpt><trkpt lat="34.9423521" lon="33.5821043"><ele>65.0</ele><time>2015-05-02T13:21:51.0000000+00:00</time></trkpt><trkpt lat="34.9424086" lon="33.5821643"><ele>65.0</ele><time>2015-05-02T13:21:53.0000000+00:00</time></trkpt><trkpt lat="34.9424698" lon="33.5822292"><ele>65.8</ele><time>2015-05-02T13:21:55.0000000+00:00</time></trkpt><trkpt lat="34.9425179" lon="33.5822848"><ele>66.7</ele><time>2015-05-02T13:21:57.0000000+00:00</time></trkpt><trkpt lat="34.9425542" lon="33.5823328"><ele>67.4</ele><time>2015-05-02T13:21:59.0000000+00:00</time></trkpt><trkpt lat="34.9425845" lon="33.5823756"><ele>67.9</ele><time>2015-05-02T13:22:01.0000000+00:00</time></trkpt><trkpt lat="34.9426124" lon="33.5824194"><ele>68.5</ele><time>2015-05-02T13:22:09.0000000+00:00</time></trkpt><trkpt lat="34.9426438" lon="33.5824621"><ele>68.3</ele><time>2015-05-02T13:22:58.0000000+00:00</time></trkpt><trkpt lat="34.9426974" lon="33.5825052"><ele>69.3</ele><time>2015-05-02T13:23:00.0000000+00:00</time></trkpt><trkpt lat="34.9427507" lon="33.5825786"><ele>69.8</ele><time>2015-05-02T13:23:02.0000000+00:00</time></trkpt><trkpt lat="34.9427688" lon="33.5826762"><ele>68.7</ele><time>2015-05-02T13:23:04.0000000+00:00</time></trkpt><trkpt lat="34.9427264" lon="33.5827257"><ele>68.9</ele><time>2015-05-02T13:23:05.0000000+00:00</time></trkpt><trkpt lat="34.942694" lon="33.5827647"><ele>69.4</ele><time>2015-05-02T13:23:06.0000000+00:00</time></trkpt><trkpt lat="34.9426397" lon="33.5828181"><ele>69.7</ele><time>2015-05-02T13:23:07.0000000+00:00</time></trkpt><trkpt lat="34.9426054" lon="33.5828643"><ele>69.4</ele><time>2015-05-02T13:23:08.0000000+00:00</time></trkpt><trkpt lat="34.942573" lon="33.5829102"><ele>69.7</ele><time>2015-05-02T13:23:09.0000000+00:00</time></trkpt><trkpt lat="34.9425368" lon="33.582953"><ele>69.9</ele><time>2015-05-02T13:23:10.0000000+00:00</time></trkpt><trkpt lat="34.9425009" lon="33.5829997"><ele>69.4</ele><time>2015-05-02T13:23:11.0000000+00:00</time></trkpt><trkpt lat="34.9424703" lon="33.5830454"><ele>69.2</ele><time>2015-05-02T13:23:12.0000000+00:00</time></trkpt><trkpt lat="34.9424295" lon="33.58309"><ele>69.1</ele><time>2015-05-02T13:23:13.0000000+00:00</time></trkpt><trkpt lat="34.9423744" lon="33.5831496"><ele>69.6</ele><time>2015-05-02T13:23:14.0000000+00:00</time></trkpt><trkpt lat="34.9423433" lon="33.5832271"><ele>67.9</ele><time>2015-05-02T13:23:16.0000000+00:00</time></trkpt><trkpt lat="34.9422836" lon="33.5833038"><ele>67.2</ele><time>2015-05-02T13:23:18.0000000+00:00</time></trkpt><trkpt lat="34.9422488" lon="33.5833456"><ele>67.6</ele><time>2015-05-02T13:23:19.0000000+00:00</time></trkpt><trkpt lat="34.9422122" lon="33.5833945"><ele>67.3</ele><time>2015-05-02T13:23:20.0000000+00:00</time></trkpt><trkpt lat="34.9421784" lon="33.5834406"><ele>67.2</ele><time>2015-05-02T13:23:21.0000000+00:00</time></trkpt><trkpt lat="34.9421424" lon="33.5834939"><ele>66.6</ele><time>2015-05-02T13:23:22.0000000+00:00</time></trkpt><trkpt lat="34.9421076" lon="33.5835434"><ele>66.8</ele><time>2015-05-02T13:23:23.0000000+00:00</time></trkpt><trkpt lat="34.9420675" lon="33.5835913"><ele>66.9</ele><time>2015-05-02T13:23:24.0000000+00:00</time></trkpt><trkpt lat="34.942036" lon="33.5836474"><ele>66.0</ele><time>2015-05-02T13:23:25.0000000+00:00</time></trkpt><trkpt lat="34.9420001" lon="33.5836899"><ele>65.5</ele><time>2015-05-02T13:23:26.0000000+00:00</time></trkpt><trkpt lat="34.941969" lon="33.5837385"><ele>65.3</ele><time>2015-05-02T13:23:27.0000000+00:00</time></trkpt><trkpt lat="34.9419292" lon="33.5837846"><ele>65.1</ele><time>2015-05-02T13:23:28.0000000+00:00</time></trkpt><trkpt lat="34.9418933" lon="33.5838243"><ele>64.6</ele><time>2015-05-02T13:23:29.0000000+00:00</time></trkpt><trkpt lat="34.9418273" lon="33.5838921"><ele>64.7</ele><time>2015-05-02T13:23:31.0000000+00:00</time></trkpt><trkpt lat="34.9417925" lon="33.583939"><ele>64.8</ele><time>2015-05-02T13:23:32.0000000+00:00</time></trkpt><trkpt lat="34.9417517" lon="33.5839946"><ele>64.9</ele><time>2015-05-02T13:23:33.0000000+00:00</time></trkpt><trkpt lat="34.9417174" lon="33.5840409"><ele>65.0</ele><time>2015-05-02T13:23:34.0000000+00:00</time></trkpt><trkpt lat="34.9416778" lon="33.584085"><ele>64.5</ele><time>2015-05-02T13:23:35.0000000+00:00</time></trkpt><trkpt lat="34.9416436" lon="33.5841388"><ele>64.3</ele><time>2015-05-02T13:23:36.0000000+00:00</time></trkpt><trkpt lat="34.9416176" lon="33.5841846"><ele>64.1</ele><time>2015-05-02T13:23:37.0000000+00:00</time></trkpt><trkpt lat="34.9415807" lon="33.5842418"><ele>63.6</ele><time>2015-05-02T13:23:38.0000000+00:00</time></trkpt><trkpt lat="34.9415518" lon="33.5842887"><ele>62.8</ele><time>2015-05-02T13:23:39.0000000+00:00</time></trkpt><trkpt lat="34.9415164" lon="33.5843387"><ele>61.9</ele><time>2015-05-02T13:23:40.0000000+00:00</time></trkpt><trkpt lat="34.9414773" lon="33.5843865"><ele>61.5</ele><time>2015-05-02T13:23:41.0000000+00:00</time></trkpt><trkpt lat="34.9414448" lon="33.5844302"><ele>61.2</ele><time>2015-05-02T13:23:42.0000000+00:00</time></trkpt><trkpt lat="34.9414123" lon="33.5844768"><ele>60.6</ele><time>2015-05-02T13:23:43.0000000+00:00</time></trkpt><trkpt lat="34.9413732" lon="33.5845269"><ele>60.3</ele><time>2015-05-02T13:23:44.0000000+00:00</time></trkpt><trkpt lat="34.9413428" lon="33.5845679"><ele>59.7</ele><time>2015-05-02T13:23:45.0000000+00:00</time></trkpt><trkpt lat="34.9413038" lon="33.5846153"><ele>59.8</ele><time>2015-05-02T13:23:46.0000000+00:00</time></trkpt><trkpt lat="34.9412718" lon="33.5846553"><ele>59.9</ele><time>2015-05-02T13:23:47.0000000+00:00</time></trkpt><trkpt lat="34.9412377" lon="33.5847028"><ele>59.5</ele><time>2015-05-02T13:23:48.0000000+00:00</time></trkpt><trkpt lat="34.9411975" lon="33.5847583"><ele>59.2</ele><time>2015-05-02T13:23:49.0000000+00:00</time></trkpt><trkpt lat="34.9411649" lon="33.5848056"><ele>59.6</ele><time>2015-05-02T13:23:50.0000000+00:00</time></trkpt><trkpt lat="34.9411252" lon="33.584856"><ele>59.8</ele><time>2015-05-02T13:23:51.0000000+00:00</time></trkpt><trkpt lat="34.941084" lon="33.584906"><ele>59.9</ele><time>2015-05-02T13:23:52.0000000+00:00</time></trkpt><trkpt lat="34.9410553" lon="33.5849497"><ele>60.0</ele><time>2015-05-02T13:23:53.0000000+00:00</time></trkpt><trkpt lat="34.9410223" lon="33.5850014"><ele>59.5</ele><time>2015-05-02T13:23:54.0000000+00:00</time></trkpt><trkpt lat="34.9409843" lon="33.5850402"><ele>59.3</ele><time>2015-05-02T13:23:55.0000000+00:00</time></trkpt><trkpt lat="34.9409501" lon="33.5850865"><ele>59.1</ele><time>2015-05-02T13:23:56.0000000+00:00</time></trkpt><trkpt lat="34.9409109" lon="33.5851334"><ele>58.6</ele><time>2015-05-02T13:23:57.0000000+00:00</time></trkpt><trkpt lat="34.9408749" lon="33.5851756"><ele>58.8</ele><time>2015-05-02T13:23:58.0000000+00:00</time></trkpt><trkpt lat="34.9408418" lon="33.5852148"><ele>58.4</ele><time>2015-05-02T13:23:59.0000000+00:00</time></trkpt><trkpt lat="34.9408032" lon="33.585266"><ele>58.7</ele><time>2015-05-02T13:24:00.0000000+00:00</time></trkpt><trkpt lat="34.9407701" lon="33.5853117"><ele>58.9</ele><time>2015-05-02T13:24:01.0000000+00:00</time></trkpt><trkpt lat="34.9407334" lon="33.5853625"><ele>58.9</ele><time>2015-05-02T13:24:02.0000000+00:00</time></trkpt><trkpt lat="34.9406892" lon="33.5854146"><ele>59.5</ele><time>2015-05-02T13:24:03.0000000+00:00</time></trkpt><trkpt lat="34.9406452" lon="33.5854696"><ele>59.8</ele><time>2015-05-02T13:24:04.0000000+00:00</time></trkpt><trkpt lat="34.9405971" lon="33.5855278"><ele>60.4</ele><time>2015-05-02T13:24:05.0000000+00:00</time></trkpt><trkpt lat="34.9405644" lon="33.5855796"><ele>60.7</ele><time>2015-05-02T13:24:06.0000000+00:00</time></trkpt><trkpt lat="34.9405241" lon="33.5856312"><ele>60.9</ele><time>2015-05-02T13:24:07.0000000+00:00</time></trkpt><trkpt lat="34.9404843" lon="33.5856846"><ele>60.9</ele><time>2015-05-02T13:24:08.0000000+00:00</time></trkpt><trkpt lat="34.9404466" lon="33.5857363"><ele>61.0</ele><time>2015-05-02T13:24:09.0000000+00:00</time></trkpt><trkpt lat="34.9404036" lon="33.5857934"><ele>60.5</ele><time>2015-05-02T13:24:10.0000000+00:00</time></trkpt><trkpt lat="34.9403671" lon="33.5858492"><ele>60.8</ele><time>2015-05-02T13:24:11.0000000+00:00</time></trkpt><trkpt lat="34.9403266" lon="33.5859021"><ele>60.9</ele><time>2015-05-02T13:24:12.0000000+00:00</time></trkpt><trkpt lat="34.9402834" lon="33.5859576"><ele>61.0</ele><time>2015-05-02T13:24:13.0000000+00:00</time></trkpt><trkpt lat="34.9402434" lon="33.5860149"><ele>61.0</ele><time>2015-05-02T13:24:14.0000000+00:00</time></trkpt><trkpt lat="34.940202" lon="33.5860694"><ele>60.5</ele><time>2015-05-02T13:24:15.0000000+00:00</time></trkpt><trkpt lat="34.9401558" lon="33.5861347"><ele>60.3</ele><time>2015-05-02T13:24:16.0000000+00:00</time></trkpt><trkpt lat="34.9401088" lon="33.586192"><ele>60.1</ele><time>2015-05-02T13:24:17.0000000+00:00</time></trkpt><trkpt lat="34.940061" lon="33.5862594"><ele>60.6</ele><time>2015-05-02T13:24:18.0000000+00:00</time></trkpt><trkpt lat="34.9400213" lon="33.5863133"><ele>60.3</ele><time>2015-05-02T13:24:19.0000000+00:00</time></trkpt><trkpt lat="34.9399787" lon="33.5863682"><ele>60.7</ele><time>2015-05-02T13:24:20.0000000+00:00</time></trkpt><trkpt lat="34.9399283" lon="33.5864312"><ele>60.3</ele><time>2015-05-02T13:24:21.0000000+00:00</time></trkpt><trkpt lat="34.9398878" lon="33.5864844"><ele>60.2</ele><time>2015-05-02T13:24:22.0000000+00:00</time></trkpt><trkpt lat="34.9398424" lon="33.586548"><ele>60.6</ele><time>2015-05-02T13:24:23.0000000+00:00</time></trkpt><trkpt lat="34.9397928" lon="33.5866132"><ele>60.8</ele><time>2015-05-02T13:24:24.0000000+00:00</time></trkpt><trkpt lat="34.9397516" lon="33.5866721"><ele>60.4</ele><time>2015-05-02T13:24:25.0000000+00:00</time></trkpt><trkpt lat="34.9397028" lon="33.5867359"><ele>60.2</ele><time>2015-05-02T13:24:26.0000000+00:00</time></trkpt><trkpt lat="34.9396618" lon="33.5867874"><ele>60.1</ele><time>2015-05-02T13:24:27.0000000+00:00</time></trkpt><trkpt lat="34.9396116" lon="33.586848"><ele>60.6</ele><time>2015-05-02T13:24:28.0000000+00:00</time></trkpt><trkpt lat="34.9395643" lon="33.5869136"><ele>60.8</ele><time>2015-05-02T13:24:29.0000000+00:00</time></trkpt><trkpt lat="34.9395229" lon="33.5869718"><ele>60.9</ele><time>2015-05-02T13:24:30.0000000+00:00</time></trkpt><trkpt lat="34.9394755" lon="33.5870299"><ele>60.5</ele><time>2015-05-02T13:24:31.0000000+00:00</time></trkpt><trkpt lat="34.9394229" lon="33.587095"><ele>60.2</ele><time>2015-05-02T13:24:32.0000000+00:00</time></trkpt><trkpt lat="34.9393842" lon="33.5871504"><ele>60.1</ele><time>2015-05-02T13:24:33.0000000+00:00</time></trkpt><trkpt lat="34.9393366" lon="33.5872112"><ele>60.1</ele><time>2015-05-02T13:24:34.0000000+00:00</time></trkpt><trkpt lat="34.9392997" lon="33.5872664"><ele>59.5</ele><time>2015-05-02T13:24:35.0000000+00:00</time></trkpt><trkpt lat="34.9392614" lon="33.5873288"><ele>58.8</ele><time>2015-05-02T13:24:36.0000000+00:00</time></trkpt><trkpt lat="34.9392137" lon="33.5873855"><ele>58.4</ele><time>2015-05-02T13:24:37.0000000+00:00</time></trkpt><trkpt lat="34.9391782" lon="33.5874347"><ele>57.7</ele><time>2015-05-02T13:24:38.0000000+00:00</time></trkpt><trkpt lat="34.9391372" lon="33.5874938"><ele>57.4</ele><time>2015-05-02T13:24:39.0000000+00:00</time></trkpt><trkpt lat="34.9390873" lon="33.587557"><ele>56.7</ele><time>2015-05-02T13:24:40.0000000+00:00</time></trkpt><trkpt lat="34.9390439" lon="33.5876141"><ele>56.9</ele><time>2015-05-02T13:24:41.0000000+00:00</time></trkpt><trkpt lat="34.938994" lon="33.5876772"><ele>56.9</ele><time>2015-05-02T13:24:42.0000000+00:00</time></trkpt><trkpt lat="34.9389494" lon="33.5877328"><ele>57.0</ele><time>2015-05-02T13:24:43.0000000+00:00</time></trkpt><trkpt lat="34.9389038" lon="33.5877912"><ele>57.0</ele><time>2015-05-02T13:24:44.0000000+00:00</time></trkpt><trkpt lat="34.9388528" lon="33.5878533"><ele>56.5</ele><time>2015-05-02T13:24:45.0000000+00:00</time></trkpt><trkpt lat="34.9388097" lon="33.5879099"><ele>56.3</ele><time>2015-05-02T13:24:46.0000000+00:00</time></trkpt><trkpt lat="34.9387688" lon="33.5879683"><ele>56.1</ele><time>2015-05-02T13:24:47.0000000+00:00</time></trkpt><trkpt lat="34.9387256" lon="33.5880292"><ele>56.1</ele><time>2015-05-02T13:24:48.0000000+00:00</time></trkpt><trkpt lat="34.9386845" lon="33.5880777"><ele>55.6</ele><time>2015-05-02T13:24:49.0000000+00:00</time></trkpt><trkpt lat="34.9386389" lon="33.5881424"><ele>55.3</ele><time>2015-05-02T13:24:50.0000000+00:00</time></trkpt><trkpt lat="34.9386007" lon="33.5882042"><ele>55.7</ele><time>2015-05-02T13:24:51.0000000+00:00</time></trkpt><trkpt lat="34.9385487" lon="33.5882587"><ele>55.8</ele><time>2015-05-02T13:24:52.0000000+00:00</time></trkpt><trkpt lat="34.9384975" lon="33.588326"><ele>55.9</ele><time>2015-05-02T13:24:53.0000000+00:00</time></trkpt><trkpt lat="34.938453" lon="33.5883845"><ele>56.0</ele><time>2015-05-02T13:24:54.0000000+00:00</time></trkpt><trkpt lat="34.9384032" lon="33.5884463"><ele>55.5</ele><time>2015-05-02T13:24:55.0000000+00:00</time></trkpt><trkpt lat="34.9383571" lon="33.5885046"><ele>55.3</ele><time>2015-05-02T13:24:56.0000000+00:00</time></trkpt><trkpt lat="34.9383136" lon="33.5885623"><ele>55.1</ele><time>2015-05-02T13:24:57.0000000+00:00</time></trkpt><trkpt lat="34.9382668" lon="33.5886227"><ele>55.1</ele><time>2015-05-02T13:24:58.0000000+00:00</time></trkpt><trkpt lat="34.9382345" lon="33.58868"><ele>54.1</ele><time>2015-05-02T13:24:59.0000000+00:00</time></trkpt><trkpt lat="34.938192" lon="33.5887388"><ele>54.0</ele><time>2015-05-02T13:25:00.0000000+00:00</time></trkpt><trkpt lat="34.938143" lon="33.5887941"><ele>54.0</ele><time>2015-05-02T13:25:01.0000000+00:00</time></trkpt><trkpt lat="34.9381004" lon="33.5888466"><ele>54.0</ele><time>2015-05-02T13:25:02.0000000+00:00</time></trkpt><trkpt lat="34.9380573" lon="33.5889051"><ele>54.0</ele><time>2015-05-02T13:25:03.0000000+00:00</time></trkpt><trkpt lat="34.9380096" lon="33.5889617"><ele>54.0</ele><time>2015-05-02T13:25:04.0000000+00:00</time></trkpt><trkpt lat="34.9379741" lon="33.5890099"><ele>54.0</ele><time>2015-05-02T13:25:05.0000000+00:00</time></trkpt><trkpt lat="34.9379339" lon="33.5890671"><ele>54.0</ele><time>2015-05-02T13:25:06.0000000+00:00</time></trkpt><trkpt lat="34.937897" lon="33.5891126"><ele>54.0</ele><time>2015-05-02T13:25:07.0000000+00:00</time></trkpt><trkpt lat="34.9378525" lon="33.5891627"><ele>54.5</ele><time>2015-05-02T13:25:08.0000000+00:00</time></trkpt><trkpt lat="34.9378144" lon="33.5892133"><ele>54.8</ele><time>2015-05-02T13:25:09.0000000+00:00</time></trkpt><trkpt lat="34.9377735" lon="33.589261"><ele>54.9</ele><time>2015-05-02T13:25:10.0000000+00:00</time></trkpt><trkpt lat="34.9377351" lon="33.5893117"><ele>55.5</ele><time>2015-05-02T13:25:11.0000000+00:00</time></trkpt><trkpt lat="34.9377009" lon="33.5893663"><ele>55.7</ele><time>2015-05-02T13:25:12.0000000+00:00</time></trkpt><trkpt lat="34.9376557" lon="33.589398"><ele>55.9</ele><time>2015-05-02T13:25:13.0000000+00:00</time></trkpt><trkpt lat="34.9376612" lon="33.5894723"><ele>55.5</ele><time>2015-05-02T13:25:14.0000000+00:00</time></trkpt><trkpt lat="34.9376636" lon="33.5895739"><ele>55.1</ele><time>2015-05-02T13:25:16.0000000+00:00</time></trkpt><trkpt lat="34.937663" lon="33.5896299"><ele>55.1</ele><time>2015-05-02T13:25:17.0000000+00:00</time></trkpt><trkpt lat="34.9376416" lon="33.5897469"><ele>55.8</ele><time>2015-05-02T13:25:19.0000000+00:00</time></trkpt><trkpt lat="34.9376245" lon="33.5898169"><ele>55.9</ele><time>2015-05-02T13:25:20.0000000+00:00</time></trkpt><trkpt lat="34.937603" lon="33.5898764"><ele>55.5</ele><time>2015-05-02T13:25:21.0000000+00:00</time></trkpt><trkpt lat="34.9375651" lon="33.5899378"><ele>55.2</ele><time>2015-05-02T13:25:22.0000000+00:00</time></trkpt><trkpt lat="34.9375325" lon="33.5899814"><ele>54.6</ele><time>2015-05-02T13:25:23.0000000+00:00</time></trkpt><trkpt lat="34.9374919" lon="33.5900134"><ele>53.8</ele><time>2015-05-02T13:25:24.0000000+00:00</time></trkpt><trkpt lat="34.9374404" lon="33.5900474"><ele>53.4</ele><time>2015-05-02T13:25:25.0000000+00:00</time></trkpt><trkpt lat="34.9373902" lon="33.5900785"><ele>53.2</ele><time>2015-05-02T13:25:26.0000000+00:00</time></trkpt><trkpt lat="34.9373358" lon="33.5900999"><ele>53.6</ele><time>2015-05-02T13:25:27.0000000+00:00</time></trkpt><trkpt lat="34.9372763" lon="33.5901263"><ele>53.8</ele><time>2015-05-02T13:25:28.0000000+00:00</time></trkpt><trkpt lat="34.9372236" lon="33.5901539"><ele>54.4</ele><time>2015-05-02T13:25:29.0000000+00:00</time></trkpt><trkpt lat="34.9371656" lon="33.5901874"><ele>54.2</ele><time>2015-05-02T13:25:30.0000000+00:00</time></trkpt><trkpt lat="34.9371195" lon="33.5902162"><ele>54.1</ele><time>2015-05-02T13:25:31.0000000+00:00</time></trkpt><trkpt lat="34.9370744" lon="33.5902526"><ele>53.6</ele><time>2015-05-02T13:25:32.0000000+00:00</time></trkpt><trkpt lat="34.9370355" lon="33.5903016"><ele>52.8</ele><time>2015-05-02T13:25:33.0000000+00:00</time></trkpt><trkpt lat="34.936998" lon="33.5903494"><ele>52.4</ele><time>2015-05-02T13:25:34.0000000+00:00</time></trkpt><trkpt lat="34.9369584" lon="33.5903979"><ele>52.7</ele><time>2015-05-02T13:25:35.0000000+00:00</time></trkpt><trkpt lat="34.9369184" lon="33.5904485"><ele>52.9</ele><time>2015-05-02T13:25:36.0000000+00:00</time></trkpt><trkpt lat="34.936884" lon="33.5904941"><ele>52.9</ele><time>2015-05-02T13:25:37.0000000+00:00</time></trkpt><trkpt lat="34.9368469" lon="33.5905424"><ele>53.5</ele><time>2015-05-02T13:25:38.0000000+00:00</time></trkpt><trkpt lat="34.9368032" lon="33.5906018"><ele>53.8</ele><time>2015-05-02T13:25:39.0000000+00:00</time></trkpt><trkpt lat="34.9367539" lon="33.5906254"><ele>54.4</ele><time>2015-05-02T13:25:40.0000000+00:00</time></trkpt><trkpt lat="34.9366878" lon="33.5906951"><ele>54.7</ele><time>2015-05-02T13:25:41.0000000+00:00</time></trkpt><trkpt lat="34.9366415" lon="33.590742"><ele>54.9</ele><time>2015-05-02T13:25:42.0000000+00:00</time></trkpt><trkpt lat="34.9366356" lon="33.5908113"><ele>54.4</ele><time>2015-05-02T13:25:43.0000000+00:00</time></trkpt><trkpt lat="34.9365968" lon="33.590867"><ele>53.7</ele><time>2015-05-02T13:25:44.0000000+00:00</time></trkpt><trkpt lat="34.9365525" lon="33.5909115"><ele>54.4</ele><time>2015-05-02T13:25:45.0000000+00:00</time></trkpt><trkpt lat="34.93651" lon="33.5909731"><ele>54.2</ele><time>2015-05-02T13:25:46.0000000+00:00</time></trkpt><trkpt lat="34.936473" lon="33.5910236"><ele>53.6</ele><time>2015-05-02T13:25:47.0000000+00:00</time></trkpt><trkpt lat="34.9364383" lon="33.5910741"><ele>53.3</ele><time>2015-05-02T13:25:48.0000000+00:00</time></trkpt><trkpt lat="34.9364028" lon="33.5911338"><ele>53.2</ele><time>2015-05-02T13:25:49.0000000+00:00</time></trkpt><trkpt lat="34.9363726" lon="33.5911774"><ele>52.6</ele><time>2015-05-02T13:25:50.0000000+00:00</time></trkpt><trkpt lat="34.9363375" lon="33.5912308"><ele>52.3</ele><time>2015-05-02T13:25:51.0000000+00:00</time></trkpt><trkpt lat="34.9362942" lon="33.5912816"><ele>52.2</ele><time>2015-05-02T13:25:52.0000000+00:00</time></trkpt><trkpt lat="34.9362572" lon="33.5913335"><ele>52.1</ele><time>2015-05-02T13:25:53.0000000+00:00</time></trkpt><trkpt lat="34.9362068" lon="33.5913877"><ele>51.6</ele><time>2015-05-02T13:25:54.0000000+00:00</time></trkpt><trkpt lat="34.93616" lon="33.5914393"><ele>51.8</ele><time>2015-05-02T13:25:55.0000000+00:00</time></trkpt><trkpt lat="34.9361163" lon="33.5914892"><ele>51.9</ele><time>2015-05-02T13:25:56.0000000+00:00</time></trkpt><trkpt lat="34.9360703" lon="33.5915488"><ele>52.0</ele><time>2015-05-02T13:25:57.0000000+00:00</time></trkpt><trkpt lat="34.9360266" lon="33.5915951"><ele>51.5</ele><time>2015-05-02T13:25:58.0000000+00:00</time></trkpt><trkpt lat="34.9359858" lon="33.5916518"><ele>51.8</ele><time>2015-05-02T13:25:59.0000000+00:00</time></trkpt><trkpt lat="34.9359353" lon="33.5917177"><ele>51.9</ele><time>2015-05-02T13:26:00.0000000+00:00</time></trkpt><trkpt lat="34.9358911" lon="33.5917747"><ele>52.0</ele><time>2015-05-02T13:26:01.0000000+00:00</time></trkpt><trkpt lat="34.9358354" lon="33.591832"><ele>51.5</ele><time>2015-05-02T13:26:02.0000000+00:00</time></trkpt><trkpt lat="34.9357872" lon="33.5918938"><ele>51.8</ele><time>2015-05-02T13:26:03.0000000+00:00</time></trkpt><trkpt lat="34.9357372" lon="33.591954"><ele>51.4</ele><time>2015-05-02T13:26:04.0000000+00:00</time></trkpt><trkpt lat="34.93569" lon="33.5920142"><ele>51.2</ele><time>2015-05-02T13:26:05.0000000+00:00</time></trkpt><trkpt lat="34.9356514" lon="33.5920756"><ele>50.6</ele><time>2015-05-02T13:26:06.0000000+00:00</time></trkpt><trkpt lat="34.9356089" lon="33.5921444"><ele>49.8</ele><time>2015-05-02T13:26:07.0000000+00:00</time></trkpt><trkpt lat="34.9355694" lon="33.592209"><ele>49.4</ele><time>2015-05-02T13:26:08.0000000+00:00</time></trkpt><trkpt lat="34.9355275" lon="33.5922656"><ele>49.2</ele><time>2015-05-02T13:26:09.0000000+00:00</time></trkpt><trkpt lat="34.9354818" lon="33.5923333"><ele>49.1</ele><time>2015-05-02T13:26:10.0000000+00:00</time></trkpt><trkpt lat="34.9354337" lon="33.5923892"><ele>49.6</ele><time>2015-05-02T13:26:11.0000000+00:00</time></trkpt><trkpt lat="34.935384" lon="33.5924502"><ele>49.8</ele><time>2015-05-02T13:26:12.0000000+00:00</time></trkpt><trkpt lat="34.935335" lon="33.5925181"><ele>49.4</ele><time>2015-05-02T13:26:13.0000000+00:00</time></trkpt><trkpt lat="34.9352904" lon="33.5925809"><ele>49.2</ele><time>2015-05-02T13:26:14.0000000+00:00</time></trkpt><trkpt lat="34.935239" lon="33.5926462"><ele>49.1</ele><time>2015-05-02T13:26:15.0000000+00:00</time></trkpt><trkpt lat="34.9351906" lon="33.5927095"><ele>49.1</ele><time>2015-05-02T13:26:16.0000000+00:00</time></trkpt><trkpt lat="34.9351473" lon="33.5927673"><ele>49.0</ele><time>2015-05-02T13:26:17.0000000+00:00</time></trkpt><trkpt lat="34.9351058" lon="33.5928361"><ele>48.5</ele><time>2015-05-02T13:26:18.0000000+00:00</time></trkpt><trkpt lat="34.9350675" lon="33.5928963"><ele>48.3</ele><time>2015-05-02T13:26:19.0000000+00:00</time></trkpt><trkpt lat="34.9350248" lon="33.5929482"><ele>48.1</ele><time>2015-05-02T13:26:20.0000000+00:00</time></trkpt><trkpt lat="34.9349761" lon="33.5930036"><ele>48.1</ele><time>2015-05-02T13:26:21.0000000+00:00</time></trkpt><trkpt lat="34.9349364" lon="33.5930523"><ele>48.1</ele><time>2015-05-02T13:26:22.0000000+00:00</time></trkpt><trkpt lat="34.9348917" lon="33.5931048"><ele>47.5</ele><time>2015-05-02T13:26:23.0000000+00:00</time></trkpt><trkpt lat="34.9348285" lon="33.5931494"><ele>47.3</ele><time>2015-05-02T13:26:24.0000000+00:00</time></trkpt><trkpt lat="34.9347901" lon="33.5931923"><ele>46.7</ele><time>2015-05-02T13:26:25.0000000+00:00</time></trkpt><trkpt lat="34.9347499" lon="33.5932735"><ele>46.8</ele><time>2015-05-02T13:26:26.0000000+00:00</time></trkpt><trkpt lat="34.9346978" lon="33.5933249"><ele>47.4</ele><time>2015-05-02T13:26:27.0000000+00:00</time></trkpt><trkpt lat="34.9346612" lon="33.5933861"><ele>48.2</ele><time>2015-05-02T13:26:28.0000000+00:00</time></trkpt><trkpt lat="34.9346162" lon="33.5934577"><ele>48.1</ele><time>2015-05-02T13:26:29.0000000+00:00</time></trkpt><trkpt lat="34.9345711" lon="33.5935093"><ele>47.6</ele><time>2015-05-02T13:26:30.0000000+00:00</time></trkpt><trkpt lat="34.9345218" lon="33.5935846"><ele>47.8</ele><time>2015-05-02T13:26:31.0000000+00:00</time></trkpt><trkpt lat="34.9344758" lon="33.593649"><ele>47.4</ele><time>2015-05-02T13:26:32.0000000+00:00</time></trkpt><trkpt lat="34.9344274" lon="33.5937099"><ele>47.2</ele><time>2015-05-02T13:26:33.0000000+00:00</time></trkpt><trkpt lat="34.9343726" lon="33.5937813"><ele>47.1</ele><time>2015-05-02T13:26:34.0000000+00:00</time></trkpt><trkpt lat="34.9343324" lon="33.5938355"><ele>47.1</ele><time>2015-05-02T13:26:35.0000000+00:00</time></trkpt><trkpt lat="34.9342885" lon="33.5938978"><ele>47.0</ele><time>2015-05-02T13:26:36.0000000+00:00</time></trkpt><trkpt lat="34.9342421" lon="33.5939665"><ele>47.0</ele><time>2015-05-02T13:26:37.0000000+00:00</time></trkpt><trkpt lat="34.9342006" lon="33.5940255"><ele>47.0</ele><time>2015-05-02T13:26:38.0000000+00:00</time></trkpt><trkpt lat="34.9341531" lon="33.5940912"><ele>47.5</ele><time>2015-05-02T13:26:39.0000000+00:00</time></trkpt><trkpt lat="34.9341125" lon="33.5941451"><ele>47.8</ele><time>2015-05-02T13:26:40.0000000+00:00</time></trkpt><trkpt lat="34.9340684" lon="33.5942055"><ele>47.9</ele><time>2015-05-02T13:26:41.0000000+00:00</time></trkpt><trkpt lat="34.9340198" lon="33.5942789"><ele>48.5</ele><time>2015-05-02T13:26:42.0000000+00:00</time></trkpt><trkpt lat="34.9339804" lon="33.5943367"><ele>48.2</ele><time>2015-05-02T13:26:43.0000000+00:00</time></trkpt><trkpt lat="34.9339329" lon="33.5944028"><ele>48.1</ele><time>2015-05-02T13:26:44.0000000+00:00</time></trkpt><trkpt lat="34.9338808" lon="33.594476"><ele>48.6</ele><time>2015-05-02T13:26:45.0000000+00:00</time></trkpt><trkpt lat="34.9338393" lon="33.5945379"><ele>48.8</ele><time>2015-05-02T13:26:46.0000000+00:00</time></trkpt><trkpt lat="34.9337937" lon="33.5946066"><ele>48.4</ele><time>2015-05-02T13:26:47.0000000+00:00</time></trkpt><trkpt lat="34.9337582" lon="33.5946636"><ele>48.2</ele><time>2015-05-02T13:26:48.0000000+00:00</time></trkpt><trkpt lat="34.9337205" lon="33.5947075"><ele>48.1</ele><time>2015-05-02T13:26:49.0000000+00:00</time></trkpt><trkpt lat="34.9336836" lon="33.5947521"><ele>48.1</ele><time>2015-05-02T13:26:50.0000000+00:00</time></trkpt><trkpt lat="34.9336388" lon="33.5948336"><ele>47.0</ele><time>2015-05-02T13:26:52.0000000+00:00</time></trkpt><trkpt lat="34.9336059" lon="33.5948792"><ele>46.8</ele><time>2015-05-02T13:26:54.0000000+00:00</time></trkpt><trkpt lat="34.9335688" lon="33.5949387"><ele>46.3</ele><time>2015-05-02T13:27:30.0000000+00:00</time></trkpt><trkpt lat="34.9335398" lon="33.5949835"><ele>46.6</ele><time>2015-05-02T13:27:32.0000000+00:00</time></trkpt><trkpt lat="34.9334942" lon="33.5950445"><ele>46.9</ele><time>2015-05-02T13:27:34.0000000+00:00</time></trkpt><trkpt lat="34.9334642" lon="33.5950854"><ele>46.5</ele><time>2015-05-02T13:27:35.0000000+00:00</time></trkpt><trkpt lat="34.9334353" lon="33.5951281"><ele>46.2</ele><time>2015-05-02T13:27:36.0000000+00:00</time></trkpt><trkpt lat="34.9333782" lon="33.595216"><ele>46.1</ele><time>2015-05-02T13:27:38.0000000+00:00</time></trkpt><trkpt lat="34.9333222" lon="33.5952991"><ele>46.0</ele><time>2015-05-02T13:27:40.0000000+00:00</time></trkpt><trkpt lat="34.9332913" lon="33.5953437"><ele>46.0</ele><time>2015-05-02T13:27:41.0000000+00:00</time></trkpt><trkpt lat="34.9332325" lon="33.5954248"><ele>46.0</ele><time>2015-05-02T13:27:43.0000000+00:00</time></trkpt><trkpt lat="34.9331778" lon="33.5954999"><ele>46.0</ele><time>2015-05-02T13:27:45.0000000+00:00</time></trkpt><trkpt lat="34.9331228" lon="33.5955752"><ele>46.0</ele><time>2015-05-02T13:27:47.0000000+00:00</time></trkpt><trkpt lat="34.9330689" lon="33.5956536"><ele>46.5</ele><time>2015-05-02T13:27:49.0000000+00:00</time></trkpt><trkpt lat="34.9330203" lon="33.5957319"><ele>46.9</ele><time>2015-05-02T13:27:51.0000000+00:00</time></trkpt><trkpt lat="34.9329747" lon="33.5958052"><ele>47.7</ele><time>2015-05-02T13:27:53.0000000+00:00</time></trkpt><trkpt lat="34.932936" lon="33.595771"><ele>50.0</ele><time>2015-05-02T13:28:18.0000000+00:00</time></trkpt><trkpt lat="34.9329032" lon="33.5957175"><ele>49.4</ele><time>2015-05-02T13:28:21.0000000+00:00</time></trkpt><trkpt lat="34.9328659" lon="33.595675"><ele>48.8</ele><time>2015-05-02T13:28:24.0000000+00:00</time></trkpt><trkpt lat="34.9328373" lon="33.5956214"><ele>47.7</ele><time>2015-05-02T13:28:27.0000000+00:00</time></trkpt><trkpt lat="34.9328328" lon="33.5955606"><ele>47.9</ele><time>2015-05-02T13:28:30.0000000+00:00</time></trkpt><trkpt lat="34.9328372" lon="33.5954881"><ele>46.2</ele><time>2015-05-02T13:28:34.0000000+00:00</time></trkpt><trkpt lat="34.9328589" lon="33.5954327"><ele>46.0</ele><time>2015-05-02T13:28:38.0000000+00:00</time></trkpt><trkpt lat="34.9329018" lon="33.5953944"><ele>48.1</ele><time>2015-05-02T13:28:46.0000000+00:00</time></trkpt><trkpt lat="34.9329354" lon="33.5953406"><ele>48.4</ele><time>2015-05-02T13:28:49.0000000+00:00</time></trkpt><trkpt lat="34.9329776" lon="33.5952976"><ele>48.6</ele><time>2015-05-02T13:28:51.0000000+00:00</time></trkpt><trkpt lat="34.9330226" lon="33.5952579"><ele>49.4</ele><time>2015-05-02T13:28:53.0000000+00:00</time></trkpt><trkpt lat="34.9330698" lon="33.5951963"><ele>49.4</ele><time>2015-05-02T13:28:55.0000000+00:00</time></trkpt><trkpt lat="34.9331223" lon="33.5951279"><ele>49.1</ele><time>2015-05-02T13:28:57.0000000+00:00</time></trkpt><trkpt lat="34.9331762" lon="33.5950546"><ele>49.5</ele><time>2015-05-02T13:28:59.0000000+00:00</time></trkpt><trkpt lat="34.9332289" lon="33.5949761"><ele>50.7</ele><time>2015-05-02T13:29:01.0000000+00:00</time></trkpt><trkpt lat="34.9332821" lon="33.5949065"><ele>51.7</ele><time>2015-05-02T13:29:03.0000000+00:00</time></trkpt><trkpt lat="34.9333373" lon="33.5948347"><ele>53.4</ele><time>2015-05-02T13:29:05.0000000+00:00</time></trkpt><trkpt lat="34.9333948" lon="33.5947617"><ele>53.6</ele><time>2015-05-02T13:29:07.0000000+00:00</time></trkpt><trkpt lat="34.9334474" lon="33.5946891"><ele>53.9</ele><time>2015-05-02T13:29:09.0000000+00:00</time></trkpt><trkpt lat="34.9335003" lon="33.594621"><ele>55.5</ele><time>2015-05-02T13:29:11.0000000+00:00</time></trkpt><trkpt lat="34.9335249" lon="33.5945503"><ele>55.9</ele><time>2015-05-02T13:29:13.0000000+00:00</time></trkpt><trkpt lat="34.9335369" lon="33.5944875"><ele>57.3</ele><time>2015-05-02T13:29:16.0000000+00:00</time></trkpt><trkpt lat="34.9335702" lon="33.5944349"><ele>57.1</ele><time>2015-05-02T13:29:19.0000000+00:00</time></trkpt><trkpt lat="34.9335968" lon="33.5943616"><ele>52.4</ele><time>2015-05-02T13:29:22.0000000+00:00</time></trkpt><trkpt lat="34.9336314" lon="33.5943029"><ele>47.3</ele><time>2015-05-02T13:29:25.0000000+00:00</time></trkpt><trkpt lat="34.9336139" lon="33.5942409"><ele>33.6</ele><time>2015-05-02T13:31:24.0000000+00:00</time></trkpt><trkpt lat="34.9337294" lon="33.5941848"><ele>34.0</ele><time>2015-05-02T13:49:13.0000000+00:00</time></trkpt><trkpt lat="34.9338081" lon="33.5941985"><ele>34.5</ele><time>2015-05-02T13:49:16.0000000+00:00</time></trkpt><trkpt lat="34.9337681" lon="33.5941603"><ele>36.6</ele><time>2015-05-02T13:53:24.0000000+00:00</time></trkpt><trkpt lat="34.9338021" lon="33.5940987"><ele>39.8</ele><time>2015-05-02T13:53:27.0000000+00:00</time></trkpt><trkpt lat="34.9337587" lon="33.5940834"><ele>42.0</ele><time>2015-05-02T13:53:36.0000000+00:00</time></trkpt><trkpt lat="34.9336233" lon="33.5939064"><ele>45.5</ele><time>2015-05-02T13:53:53.0000000+00:00</time></trkpt><trkpt lat="34.9335841" lon="33.5938609"><ele>45.3</ele><time>2015-05-02T13:53:54.0000000+00:00</time></trkpt><trkpt lat="34.9335349" lon="33.5938018"><ele>45.6</ele><time>2015-05-02T13:53:57.0000000+00:00</time></trkpt><trkpt lat="34.9334738" lon="33.5937064"><ele>46.7</ele><time>2015-05-02T13:53:59.0000000+00:00</time></trkpt><trkpt lat="34.9334406" lon="33.5936416"><ele>48.2</ele><time>2015-05-02T13:54:03.0000000+00:00</time></trkpt><trkpt lat="34.9333945" lon="33.5936271"><ele>55.0</ele><time>2015-05-02T13:54:17.0000000+00:00</time></trkpt><trkpt lat="34.9336948" lon="33.5938761"><ele>56.0</ele><time>2015-05-02T14:28:14.0000000+00:00</time></trkpt><trkpt lat="34.9336606" lon="33.5939137"><ele>52.3</ele><time>2015-05-02T14:29:01.0000000+00:00</time></trkpt><trkpt lat="34.9336258" lon="33.5943278"><ele>61.0</ele><time>2015-05-02T14:31:12.0000000+00:00</time></trkpt><trkpt lat="34.9335969" lon="33.5942857"><ele>50.0</ele><time>2015-05-02T14:40:03.0000000+00:00</time></trkpt><trkpt lat="34.9335686" lon="33.5943618"><ele>52.0</ele><time>2015-05-02T14:40:34.0000000+00:00</time></trkpt><trkpt lat="34.9335258" lon="33.5944226"><ele>51.5</ele><time>2015-05-02T14:40:37.0000000+00:00</time></trkpt><trkpt lat="34.9335073" lon="33.5944763"><ele>51.9</ele><time>2015-05-02T14:40:39.0000000+00:00</time></trkpt><trkpt lat="34.9334926" lon="33.5945379"><ele>52.0</ele><time>2015-05-02T14:40:41.0000000+00:00</time></trkpt><trkpt lat="34.9334627" lon="33.5946242"><ele>52.0</ele><time>2015-05-02T14:40:43.0000000+00:00</time></trkpt><trkpt lat="34.9334108" lon="33.5947048"><ele>51.3</ele><time>2015-05-02T14:40:45.0000000+00:00</time></trkpt><trkpt lat="34.9333512" lon="33.5947741"><ele>50.3</ele><time>2015-05-02T14:40:47.0000000+00:00</time></trkpt><trkpt lat="34.9332929" lon="33.5948427"><ele>49.3</ele><time>2015-05-02T14:40:49.0000000+00:00</time></trkpt><trkpt lat="34.9332628" lon="33.5948854"><ele>49.2</ele><time>2015-05-02T14:40:50.0000000+00:00</time></trkpt><trkpt lat="34.9332292" lon="33.5949494"><ele>49.1</ele><time>2015-05-02T14:40:51.0000000+00:00</time></trkpt><trkpt lat="34.9331686" lon="33.5950359"><ele>48.5</ele><time>2015-05-02T14:40:53.0000000+00:00</time></trkpt><trkpt lat="34.9331388" lon="33.5950795"><ele>48.3</ele><time>2015-05-02T14:40:54.0000000+00:00</time></trkpt><trkpt lat="34.9331052" lon="33.5951266"><ele>48.7</ele><time>2015-05-02T14:40:55.0000000+00:00</time></trkpt><trkpt lat="34.9330707" lon="33.5951711"><ele>48.3</ele><time>2015-05-02T14:40:56.0000000+00:00</time></trkpt><trkpt lat="34.933039" lon="33.5952105"><ele>48.2</ele><time>2015-05-02T14:40:57.0000000+00:00</time></trkpt><trkpt lat="34.9329995" lon="33.5952536"><ele>48.1</ele><time>2015-05-02T14:40:58.0000000+00:00</time></trkpt><trkpt lat="34.932937" lon="33.5953351"><ele>47.5</ele><time>2015-05-02T14:41:00.0000000+00:00</time></trkpt><trkpt lat="34.9328954" lon="33.5953766"><ele>47.3</ele><time>2015-05-02T14:41:01.0000000+00:00</time></trkpt><trkpt lat="34.9328558" lon="33.5954026"><ele>47.2</ele><time>2015-05-02T14:41:02.0000000+00:00</time></trkpt><trkpt lat="34.9328121" lon="33.5954208"><ele>47.1</ele><time>2015-05-02T14:41:03.0000000+00:00</time></trkpt><trkpt lat="34.9327419" lon="33.5954169"><ele>47.0</ele><time>2015-05-02T14:41:05.0000000+00:00</time></trkpt><trkpt lat="34.932678" lon="33.5953899"><ele>47.0</ele><time>2015-05-02T14:41:07.0000000+00:00</time></trkpt><trkpt lat="34.9326305" lon="33.5953486"><ele>47.0</ele><time>2015-05-02T14:41:09.0000000+00:00</time></trkpt><trkpt lat="34.9325977" lon="33.5953102"><ele>47.5</ele><time>2015-05-02T14:41:11.0000000+00:00</time></trkpt><trkpt lat="34.9325492" lon="33.5953454"><ele>48.5</ele><time>2015-05-02T14:41:15.0000000+00:00</time></trkpt><trkpt lat="34.9325396" lon="33.5954037"><ele>48.9</ele><time>2015-05-02T14:41:17.0000000+00:00</time></trkpt><trkpt lat="34.9325602" lon="33.5954596"><ele>49.0</ele><time>2015-05-02T14:41:19.0000000+00:00</time></trkpt><trkpt lat="34.9325928" lon="33.5955009"><ele>49.0</ele><time>2015-05-02T14:41:21.0000000+00:00</time></trkpt><trkpt lat="34.9326338" lon="33.5955613"><ele>49.0</ele><time>2015-05-02T14:41:24.0000000+00:00</time></trkpt><trkpt lat="34.9326661" lon="33.5956037"><ele>49.5</ele><time>2015-05-02T14:41:27.0000000+00:00</time></trkpt><trkpt lat="34.9326994" lon="33.5956603"><ele>50.1</ele><time>2015-05-02T14:41:41.0000000+00:00</time></trkpt><trkpt lat="34.932727" lon="33.5957079"><ele>49.3</ele><time>2015-05-02T14:41:44.0000000+00:00</time></trkpt><trkpt lat="34.9327557" lon="33.5958013"><ele>49.1</ele><time>2015-05-02T14:41:47.0000000+00:00</time></trkpt><trkpt lat="34.9327682" lon="33.5958556"><ele>48.5</ele><time>2015-05-02T14:41:48.0000000+00:00</time></trkpt><trkpt lat="34.9327756" lon="33.5959153"><ele>48.3</ele><time>2015-05-02T14:41:49.0000000+00:00</time></trkpt><trkpt lat="34.9327373" lon="33.5960375"><ele>48.1</ele><time>2015-05-02T14:41:51.0000000+00:00</time></trkpt><trkpt lat="34.932709" lon="33.5960836"><ele>48.1</ele><time>2015-05-02T14:41:52.0000000+00:00</time></trkpt><trkpt lat="34.9326758" lon="33.596123"><ele>47.5</ele><time>2015-05-02T14:41:53.0000000+00:00</time></trkpt><trkpt lat="34.9326432" lon="33.5961692"><ele>47.3</ele><time>2015-05-02T14:41:54.0000000+00:00</time></trkpt><trkpt lat="34.9326087" lon="33.5962116"><ele>47.2</ele><time>2015-05-02T14:41:55.0000000+00:00</time></trkpt><trkpt lat="34.9325489" lon="33.5962944"><ele>47.1</ele><time>2015-05-02T14:41:57.0000000+00:00</time></trkpt><trkpt lat="34.9324984" lon="33.5963773"><ele>47.0</ele><time>2015-05-02T14:41:59.0000000+00:00</time></trkpt><trkpt lat="34.9324654" lon="33.5964199"><ele>47.0</ele><time>2015-05-02T14:42:00.0000000+00:00</time></trkpt><trkpt lat="34.9324096" lon="33.5965127"><ele>46.5</ele><time>2015-05-02T14:42:02.0000000+00:00</time></trkpt><trkpt lat="34.9323777" lon="33.596559"><ele>46.3</ele><time>2015-05-02T14:42:03.0000000+00:00</time></trkpt><trkpt lat="34.932342" lon="33.5966089"><ele>46.1</ele><time>2015-05-02T14:42:04.0000000+00:00</time></trkpt><trkpt lat="34.9323059" lon="33.5966626"><ele>46.1</ele><time>2015-05-02T14:42:05.0000000+00:00</time></trkpt><trkpt lat="34.932248" lon="33.5967534"><ele>45.3</ele><time>2015-05-02T14:42:07.0000000+00:00</time></trkpt><trkpt lat="34.9322171" lon="33.5967994"><ele>45.2</ele><time>2015-05-02T14:42:08.0000000+00:00</time></trkpt><trkpt lat="34.9321706" lon="33.5968788"><ele>44.3</ele><time>2015-05-02T14:42:10.0000000+00:00</time></trkpt><trkpt lat="34.932141" lon="33.5969202"><ele>44.2</ele><time>2015-05-02T14:42:11.0000000+00:00</time></trkpt><trkpt lat="34.9321116" lon="33.5969628"><ele>44.6</ele><time>2015-05-02T14:42:12.0000000+00:00</time></trkpt><trkpt lat="34.9320777" lon="33.5970094"><ele>44.8</ele><time>2015-05-02T14:42:13.0000000+00:00</time></trkpt><trkpt lat="34.9320484" lon="33.597057"><ele>44.9</ele><time>2015-05-02T14:42:14.0000000+00:00</time></trkpt><trkpt lat="34.9320209" lon="33.5971059"><ele>45.0</ele><time>2015-05-02T14:42:15.0000000+00:00</time></trkpt><trkpt lat="34.9319873" lon="33.5971527"><ele>45.0</ele><time>2015-05-02T14:42:16.0000000+00:00</time></trkpt><trkpt lat="34.9319582" lon="33.5971973"><ele>45.0</ele><time>2015-05-02T14:42:17.0000000+00:00</time></trkpt><trkpt lat="34.9319226" lon="33.5972468"><ele>45.0</ele><time>2015-05-02T14:42:18.0000000+00:00</time></trkpt><trkpt lat="34.93189" lon="33.597291"><ele>45.0</ele><time>2015-05-02T14:42:19.0000000+00:00</time></trkpt><trkpt lat="34.9318547" lon="33.5973344"><ele>45.0</ele><time>2015-05-02T14:42:20.0000000+00:00</time></trkpt><trkpt lat="34.9318241" lon="33.5973807"><ele>45.0</ele><time>2015-05-02T14:42:21.0000000+00:00</time></trkpt><trkpt lat="34.9317624" lon="33.5974612"><ele>45.0</ele><time>2015-05-02T14:42:23.0000000+00:00</time></trkpt><trkpt lat="34.9317124" lon="33.597546"><ele>44.3</ele><time>2015-05-02T14:42:25.0000000+00:00</time></trkpt><trkpt lat="34.9316796" lon="33.5975918"><ele>44.1</ele><time>2015-05-02T14:42:26.0000000+00:00</time></trkpt><trkpt lat="34.9316611" lon="33.5976494"><ele>43.6</ele><time>2015-05-02T14:42:27.0000000+00:00</time></trkpt><trkpt lat="34.9316119" lon="33.597735"><ele>43.7</ele><time>2015-05-02T14:42:29.0000000+00:00</time></trkpt><trkpt lat="34.9315924" lon="33.5977861"><ele>43.8</ele><time>2015-05-02T14:42:30.0000000+00:00</time></trkpt><trkpt lat="34.9315675" lon="33.5978359"><ele>43.9</ele><time>2015-05-02T14:42:31.0000000+00:00</time></trkpt><trkpt lat="34.9315013" lon="33.5979257"><ele>45.2</ele><time>2015-05-02T14:42:33.0000000+00:00</time></trkpt><trkpt lat="34.9314775" lon="33.5979862"><ele>45.6</ele><time>2015-05-02T14:42:34.0000000+00:00</time></trkpt><trkpt lat="34.9314341" lon="33.5980872"><ele>46.4</ele><time>2015-05-02T14:42:36.0000000+00:00</time></trkpt><trkpt lat="34.9314138" lon="33.5981498"><ele>46.7</ele><time>2015-05-02T14:42:37.0000000+00:00</time></trkpt><trkpt lat="34.9313863" lon="33.5982172"><ele>46.9</ele><time>2015-05-02T14:42:38.0000000+00:00</time></trkpt><trkpt lat="34.9313711" lon="33.5982739"><ele>45.9</ele><time>2015-05-02T14:42:39.0000000+00:00</time></trkpt><trkpt lat="34.9313401" lon="33.5983315"><ele>45.0</ele><time>2015-05-02T14:42:40.0000000+00:00</time></trkpt><trkpt lat="34.9313165" lon="33.5983823"><ele>44.5</ele><time>2015-05-02T14:42:41.0000000+00:00</time></trkpt><trkpt lat="34.9312753" lon="33.5984912"><ele>43.4</ele><time>2015-05-02T14:42:43.0000000+00:00</time></trkpt><trkpt lat="34.9312464" lon="33.5985421"><ele>43.7</ele><time>2015-05-02T14:42:44.0000000+00:00</time></trkpt><trkpt lat="34.9312064" lon="33.5986429"><ele>43.9</ele><time>2015-05-02T14:42:46.0000000+00:00</time></trkpt><trkpt lat="34.9311558" lon="33.598726"><ele>44.0</ele><time>2015-05-02T14:42:48.0000000+00:00</time></trkpt><trkpt lat="34.9311311" lon="33.5987741"><ele>44.0</ele><time>2015-05-02T14:42:49.0000000+00:00</time></trkpt><trkpt lat="34.9311117" lon="33.5988376"><ele>43.5</ele><time>2015-05-02T14:42:50.0000000+00:00</time></trkpt><trkpt lat="34.9310924" lon="33.5988898"><ele>42.8</ele><time>2015-05-02T14:42:51.0000000+00:00</time></trkpt><trkpt lat="34.9310664" lon="33.5989546"><ele>42.9</ele><time>2015-05-02T14:42:52.0000000+00:00</time></trkpt><trkpt lat="34.9310325" lon="33.5990098"><ele>44.0</ele><time>2015-05-02T14:42:53.0000000+00:00</time></trkpt><trkpt lat="34.9309751" lon="33.5991088"><ele>43.3</ele><time>2015-05-02T14:42:55.0000000+00:00</time></trkpt><trkpt lat="34.9309474" lon="33.5991613"><ele>43.1</ele><time>2015-05-02T14:42:56.0000000+00:00</time></trkpt><trkpt lat="34.9309175" lon="33.599213"><ele>43.6</ele><time>2015-05-02T14:42:57.0000000+00:00</time></trkpt><trkpt lat="34.9308906" lon="33.5992612"><ele>43.8</ele><time>2015-05-02T14:42:58.0000000+00:00</time></trkpt><trkpt lat="34.9308472" lon="33.59936"><ele>43.5</ele><time>2015-05-02T14:43:00.0000000+00:00</time></trkpt><trkpt lat="34.9308195" lon="33.5994083"><ele>43.2</ele><time>2015-05-02T14:43:01.0000000+00:00</time></trkpt><trkpt lat="34.9307753" lon="33.5994969"><ele>43.1</ele><time>2015-05-02T14:43:03.0000000+00:00</time></trkpt><trkpt lat="34.9307402" lon="33.5995788"><ele>41.8</ele><time>2015-05-02T14:43:05.0000000+00:00</time></trkpt><trkpt lat="34.9307086" lon="33.599654"><ele>41.7</ele><time>2015-05-02T14:43:07.0000000+00:00</time></trkpt><trkpt lat="34.9306693" lon="33.5997334"><ele>42.7</ele><time>2015-05-02T14:43:09.0000000+00:00</time></trkpt><trkpt lat="34.9306258" lon="33.5998103"><ele>43.7</ele><time>2015-05-02T14:43:11.0000000+00:00</time></trkpt><trkpt lat="34.9305822" lon="33.5998934"><ele>44.7</ele><time>2015-05-02T14:43:13.0000000+00:00</time></trkpt><trkpt lat="34.930559" lon="33.5999589"><ele>44.4</ele><time>2015-05-02T14:43:14.0000000+00:00</time></trkpt><trkpt lat="34.9305216" lon="33.600051"><ele>44.1</ele><time>2015-05-02T14:43:16.0000000+00:00</time></trkpt><trkpt lat="34.9304953" lon="33.6001021"><ele>44.6</ele><time>2015-05-02T14:43:17.0000000+00:00</time></trkpt><trkpt lat="34.9304691" lon="33.6001679"><ele>44.8</ele><time>2015-05-02T14:43:18.0000000+00:00</time></trkpt><trkpt lat="34.9304449" lon="33.600227"><ele>44.9</ele><time>2015-05-02T14:43:19.0000000+00:00</time></trkpt><trkpt lat="34.9304153" lon="33.6002904"><ele>45.5</ele><time>2015-05-02T14:43:20.0000000+00:00</time></trkpt><trkpt lat="34.930386" lon="33.6003525"><ele>45.2</ele><time>2015-05-02T14:43:21.0000000+00:00</time></trkpt><trkpt lat="34.9303567" lon="33.6004126"><ele>45.1</ele><time>2015-05-02T14:43:22.0000000+00:00</time></trkpt><trkpt lat="34.9303284" lon="33.6004756"><ele>45.1</ele><time>2015-05-02T14:43:23.0000000+00:00</time></trkpt><trkpt lat="34.9303088" lon="33.6005276"><ele>45.0</ele><time>2015-05-02T14:43:24.0000000+00:00</time></trkpt><trkpt lat="34.9302846" lon="33.600588"><ele>45.0</ele><time>2015-05-02T14:43:25.0000000+00:00</time></trkpt><trkpt lat="34.9302562" lon="33.6006575"><ele>45.0</ele><time>2015-05-02T14:43:26.0000000+00:00</time></trkpt><trkpt lat="34.9302249" lon="33.6007196"><ele>45.0</ele><time>2015-05-02T14:43:27.0000000+00:00</time></trkpt><trkpt lat="34.9301961" lon="33.6007835"><ele>45.0</ele><time>2015-05-02T14:43:28.0000000+00:00</time></trkpt><trkpt lat="34.9301633" lon="33.6008437"><ele>45.0</ele><time>2015-05-02T14:43:29.0000000+00:00</time></trkpt><trkpt lat="34.9301316" lon="33.600903"><ele>45.0</ele><time>2015-05-02T14:43:30.0000000+00:00</time></trkpt><trkpt lat="34.9301057" lon="33.6009622"><ele>45.0</ele><time>2015-05-02T14:43:31.0000000+00:00</time></trkpt><trkpt lat="34.9300727" lon="33.6010254"><ele>45.0</ele><time>2015-05-02T14:43:32.0000000+00:00</time></trkpt><trkpt lat="34.9300393" lon="33.6010937"><ele>44.5</ele><time>2015-05-02T14:43:33.0000000+00:00</time></trkpt><trkpt lat="34.9300039" lon="33.6011539"><ele>44.8</ele><time>2015-05-02T14:43:34.0000000+00:00</time></trkpt><trkpt lat="34.9299649" lon="33.6012187"><ele>44.9</ele><time>2015-05-02T14:43:35.0000000+00:00</time></trkpt><trkpt lat="34.92993" lon="33.601282"><ele>45.0</ele><time>2015-05-02T14:43:36.0000000+00:00</time></trkpt><trkpt lat="34.929894" lon="33.6013419"><ele>45.0</ele><time>2015-05-02T14:43:37.0000000+00:00</time></trkpt><trkpt lat="34.9298583" lon="33.6014008"><ele>45.0</ele><time>2015-05-02T14:43:38.0000000+00:00</time></trkpt><trkpt lat="34.9298301" lon="33.601467"><ele>45.0</ele><time>2015-05-02T14:43:39.0000000+00:00</time></trkpt><trkpt lat="34.9297992" lon="33.6015279"><ele>45.0</ele><time>2015-05-02T14:43:40.0000000+00:00</time></trkpt><trkpt lat="34.9297689" lon="33.6015925"><ele>44.5</ele><time>2015-05-02T14:43:41.0000000+00:00</time></trkpt><trkpt lat="34.9297411" lon="33.6016583"><ele>44.3</ele><time>2015-05-02T14:43:42.0000000+00:00</time></trkpt><trkpt lat="34.9297036" lon="33.6017185"><ele>44.6</ele><time>2015-05-02T14:43:43.0000000+00:00</time></trkpt><trkpt lat="34.9296706" lon="33.6017859"><ele>44.3</ele><time>2015-05-02T14:43:44.0000000+00:00</time></trkpt><trkpt lat="34.9296436" lon="33.6018508"><ele>44.2</ele><time>2015-05-02T14:43:45.0000000+00:00</time></trkpt><trkpt lat="34.9296103" lon="33.6019176"><ele>44.1</ele><time>2015-05-02T14:43:46.0000000+00:00</time></trkpt><trkpt lat="34.9295755" lon="33.6019798"><ele>44.1</ele><time>2015-05-02T14:43:47.0000000+00:00</time></trkpt><trkpt lat="34.9295375" lon="33.6020485"><ele>44.0</ele><time>2015-05-02T14:43:48.0000000+00:00</time></trkpt><trkpt lat="34.9295072" lon="33.6021119"><ele>44.0</ele><time>2015-05-02T14:43:49.0000000+00:00</time></trkpt><trkpt lat="34.9294703" lon="33.602179"><ele>44.0</ele><time>2015-05-02T14:43:50.0000000+00:00</time></trkpt><trkpt lat="34.9294373" lon="33.6022453"><ele>44.0</ele><time>2015-05-02T14:43:51.0000000+00:00</time></trkpt><trkpt lat="34.9294054" lon="33.6023094"><ele>44.0</ele><time>2015-05-02T14:43:52.0000000+00:00</time></trkpt><trkpt lat="34.9293813" lon="33.6023687"><ele>44.0</ele><time>2015-05-02T14:43:53.0000000+00:00</time></trkpt><trkpt lat="34.9293484" lon="33.602419"><ele>44.0</ele><time>2015-05-02T14:43:54.0000000+00:00</time></trkpt><trkpt lat="34.9293228" lon="33.6024749"><ele>44.0</ele><time>2015-05-02T14:43:55.0000000+00:00</time></trkpt><trkpt lat="34.9292932" lon="33.6025336"><ele>44.0</ele><time>2015-05-02T14:43:56.0000000+00:00</time></trkpt><trkpt lat="34.9292565" lon="33.6025861"><ele>44.0</ele><time>2015-05-02T14:43:57.0000000+00:00</time></trkpt><trkpt lat="34.9292365" lon="33.6026393"><ele>44.0</ele><time>2015-05-02T14:43:58.0000000+00:00</time></trkpt><trkpt lat="34.9292104" lon="33.602686"><ele>44.0</ele><time>2015-05-02T14:43:59.0000000+00:00</time></trkpt><trkpt lat="34.9291759" lon="33.6027541"><ele>44.5</ele><time>2015-05-02T14:44:00.0000000+00:00</time></trkpt><trkpt lat="34.929141" lon="33.6028123"><ele>44.8</ele><time>2015-05-02T14:44:01.0000000+00:00</time></trkpt><trkpt lat="34.9291199" lon="33.6028769"><ele>44.4</ele><time>2015-05-02T14:44:02.0000000+00:00</time></trkpt><trkpt lat="34.9290836" lon="33.602937"><ele>44.7</ele><time>2015-05-02T14:44:03.0000000+00:00</time></trkpt><trkpt lat="34.9290527" lon="33.603007"><ele>44.4</ele><time>2015-05-02T14:44:04.0000000+00:00</time></trkpt><trkpt lat="34.9290169" lon="33.603074"><ele>44.2</ele><time>2015-05-02T14:44:05.0000000+00:00</time></trkpt><trkpt lat="34.9289821" lon="33.6031362"><ele>44.1</ele><time>2015-05-02T14:44:06.0000000+00:00</time></trkpt><trkpt lat="34.9289443" lon="33.6031986"><ele>44.1</ele><time>2015-05-02T14:44:07.0000000+00:00</time></trkpt><trkpt lat="34.9289115" lon="33.6032521"><ele>44.0</ele><time>2015-05-02T14:44:08.0000000+00:00</time></trkpt><trkpt lat="34.9288794" lon="33.6033132"><ele>44.0</ele><time>2015-05-02T14:44:09.0000000+00:00</time></trkpt><trkpt lat="34.9288492" lon="33.6033754"><ele>44.0</ele><time>2015-05-02T14:44:10.0000000+00:00</time></trkpt><trkpt lat="34.9288235" lon="33.6034241"><ele>44.0</ele><time>2015-05-02T14:44:11.0000000+00:00</time></trkpt><trkpt lat="34.9287896" lon="33.6034799"><ele>44.0</ele><time>2015-05-02T14:44:12.0000000+00:00</time></trkpt><trkpt lat="34.9287667" lon="33.6035278"><ele>44.0</ele><time>2015-05-02T14:44:13.0000000+00:00</time></trkpt><trkpt lat="34.9287447" lon="33.6035817"><ele>44.0</ele><time>2015-05-02T14:44:14.0000000+00:00</time></trkpt><trkpt lat="34.9287418" lon="33.6036859"><ele>43.8</ele><time>2015-05-02T14:44:16.0000000+00:00</time></trkpt><trkpt lat="34.9287695" lon="33.6037545"><ele>44.0</ele><time>2015-05-02T14:44:18.0000000+00:00</time></trkpt><trkpt lat="34.9287938" lon="33.6038292"><ele>44.0</ele><time>2015-05-02T14:44:20.0000000+00:00</time></trkpt><trkpt lat="34.9288149" lon="33.6038932"><ele>44.4</ele><time>2015-05-02T14:45:06.0000000+00:00</time></trkpt><trkpt lat="34.9288365" lon="33.6039486"><ele>44.6</ele><time>2015-05-02T14:45:08.0000000+00:00</time></trkpt><trkpt lat="34.9288744" lon="33.6040126"><ele>45.4</ele><time>2015-05-02T14:45:10.0000000+00:00</time></trkpt><trkpt lat="34.9289324" lon="33.6040782"><ele>45.4</ele><time>2015-05-02T14:45:12.0000000+00:00</time></trkpt><trkpt lat="34.9290148" lon="33.6041488"><ele>45.1</ele><time>2015-05-02T14:45:14.0000000+00:00</time></trkpt><trkpt lat="34.9290553" lon="33.6041755"><ele>45.1</ele><time>2015-05-02T14:45:15.0000000+00:00</time></trkpt><trkpt lat="34.9290952" lon="33.6042045"><ele>45.0</ele><time>2015-05-02T14:45:16.0000000+00:00</time></trkpt><trkpt lat="34.9291349" lon="33.6042335"><ele>45.0</ele><time>2015-05-02T14:45:17.0000000+00:00</time></trkpt><trkpt lat="34.9291771" lon="33.6042625"><ele>45.0</ele><time>2015-05-02T14:45:18.0000000+00:00</time></trkpt><trkpt lat="34.9292285" lon="33.604291"><ele>45.0</ele><time>2015-05-02T14:45:19.0000000+00:00</time></trkpt><trkpt lat="34.9292844" lon="33.6043184"><ele>45.0</ele><time>2015-05-02T14:45:20.0000000+00:00</time></trkpt><trkpt lat="34.9293351" lon="33.6043517"><ele>45.0</ele><time>2015-05-02T14:45:21.0000000+00:00</time></trkpt><trkpt lat="34.9293922" lon="33.6043874"><ele>45.0</ele><time>2015-05-02T14:45:22.0000000+00:00</time></trkpt><trkpt lat="34.9294473" lon="33.6044194"><ele>45.0</ele><time>2015-05-02T14:45:23.0000000+00:00</time></trkpt><trkpt lat="34.9295019" lon="33.6044534"><ele>45.0</ele><time>2015-05-02T14:45:24.0000000+00:00</time></trkpt><trkpt lat="34.9295643" lon="33.6044877"><ele>45.0</ele><time>2015-05-02T14:45:25.0000000+00:00</time></trkpt><trkpt lat="34.9296217" lon="33.604521"><ele>44.5</ele><time>2015-05-02T14:45:26.0000000+00:00</time></trkpt><trkpt lat="34.929683" lon="33.6045604"><ele>44.3</ele><time>2015-05-02T14:45:27.0000000+00:00</time></trkpt><trkpt lat="34.9297411" lon="33.6046006"><ele>43.6</ele><time>2015-05-02T14:45:28.0000000+00:00</time></trkpt><trkpt lat="34.9297992" lon="33.604639"><ele>43.3</ele><time>2015-05-02T14:45:29.0000000+00:00</time></trkpt><trkpt lat="34.9298601" lon="33.6046718"><ele>43.2</ele><time>2015-05-02T14:45:30.0000000+00:00</time></trkpt><trkpt lat="34.929914" lon="33.604709"><ele>42.6</ele><time>2015-05-02T14:45:31.0000000+00:00</time></trkpt><trkpt lat="34.92998" lon="33.6047469"><ele>42.3</ele><time>2015-05-02T14:45:32.0000000+00:00</time></trkpt><trkpt lat="34.9300627" lon="33.6047844"><ele>41.7</ele><time>2015-05-02T14:45:33.0000000+00:00</time></trkpt><trkpt lat="34.9301314" lon="33.6048223"><ele>41.3</ele><time>2015-05-02T14:45:34.0000000+00:00</time></trkpt><trkpt lat="34.9302079" lon="33.60486"><ele>40.7</ele><time>2015-05-02T14:45:35.0000000+00:00</time></trkpt><trkpt lat="34.9302746" lon="33.6048956"><ele>40.4</ele><time>2015-05-02T14:45:36.0000000+00:00</time></trkpt><trkpt lat="34.9303418" lon="33.6049307"><ele>39.7</ele><time>2015-05-02T14:45:37.0000000+00:00</time></trkpt><trkpt lat="34.9304148" lon="33.6049676"><ele>39.4</ele><time>2015-05-02T14:45:38.0000000+00:00</time></trkpt><trkpt lat="34.9304777" lon="33.6050012"><ele>39.2</ele><time>2015-05-02T14:45:39.0000000+00:00</time></trkpt><trkpt lat="34.9305441" lon="33.6050341"><ele>39.1</ele><time>2015-05-02T14:45:40.0000000+00:00</time></trkpt><trkpt lat="34.9306109" lon="33.6050718"><ele>38.6</ele><time>2015-05-02T14:45:41.0000000+00:00</time></trkpt><trkpt lat="34.930675" lon="33.6051071"><ele>38.3</ele><time>2015-05-02T14:45:42.0000000+00:00</time></trkpt><trkpt lat="34.9307377" lon="33.6051413"><ele>38.2</ele><time>2015-05-02T14:45:43.0000000+00:00</time></trkpt><trkpt lat="34.9307967" lon="33.6051775"><ele>37.6</ele><time>2015-05-02T14:45:44.0000000+00:00</time></trkpt><trkpt lat="34.9308529" lon="33.6052081"><ele>37.3</ele><time>2015-05-02T14:45:45.0000000+00:00</time></trkpt><trkpt lat="34.9309151" lon="33.6052396"><ele>37.2</ele><time>2015-05-02T14:45:46.0000000+00:00</time></trkpt><trkpt lat="34.9309671" lon="33.6052635"><ele>37.1</ele><time>2015-05-02T14:45:47.0000000+00:00</time></trkpt><trkpt lat="34.9310204" lon="33.6052925"><ele>36.6</ele><time>2015-05-02T14:45:48.0000000+00:00</time></trkpt><trkpt lat="34.9310792" lon="33.6053267"><ele>36.8</ele><time>2015-05-02T14:45:49.0000000+00:00</time></trkpt><trkpt lat="34.9311312" lon="33.6053584"><ele>36.9</ele><time>2015-05-02T14:45:50.0000000+00:00</time></trkpt><trkpt lat="34.9311871" lon="33.6053878"><ele>37.0</ele><time>2015-05-02T14:45:51.0000000+00:00</time></trkpt><trkpt lat="34.9312429" lon="33.6054127"><ele>36.5</ele><time>2015-05-02T14:45:52.0000000+00:00</time></trkpt><trkpt lat="34.9313523" lon="33.6054663"><ele>37.1</ele><time>2015-05-02T14:45:54.0000000+00:00</time></trkpt><trkpt lat="34.9314006" lon="33.6054987"><ele>37.6</ele><time>2015-05-02T14:45:55.0000000+00:00</time></trkpt><trkpt lat="34.9314675" lon="33.6055581"><ele>37.8</ele><time>2015-05-02T14:45:56.0000000+00:00</time></trkpt><trkpt lat="34.9315254" lon="33.6055666"><ele>38.4</ele><time>2015-05-02T14:45:57.0000000+00:00</time></trkpt><trkpt lat="34.931574" lon="33.6055948"><ele>38.7</ele><time>2015-05-02T14:45:58.0000000+00:00</time></trkpt><trkpt lat="34.9316274" lon="33.6056274"><ele>38.9</ele><time>2015-05-02T14:45:59.0000000+00:00</time></trkpt><trkpt lat="34.9316753" lon="33.6056598"><ele>39.4</ele><time>2015-05-02T14:46:00.0000000+00:00</time></trkpt><trkpt lat="34.9317235" lon="33.6056926"><ele>40.2</ele><time>2015-05-02T14:46:01.0000000+00:00</time></trkpt><trkpt lat="34.9317735" lon="33.6057194"><ele>40.1</ele><time>2015-05-02T14:46:02.0000000+00:00</time></trkpt><trkpt lat="34.9318163" lon="33.6057442"><ele>40.1</ele><time>2015-05-02T14:46:03.0000000+00:00</time></trkpt><trkpt lat="34.931866" lon="33.6057766"><ele>40.0</ele><time>2015-05-02T14:46:04.0000000+00:00</time></trkpt><trkpt lat="34.9319122" lon="33.6058127"><ele>40.0</ele><time>2015-05-02T14:46:05.0000000+00:00</time></trkpt><trkpt lat="34.9319557" lon="33.605844"><ele>40.0</ele><time>2015-05-02T14:46:06.0000000+00:00</time></trkpt><trkpt lat="34.93201" lon="33.6058817"><ele>40.0</ele><time>2015-05-02T14:46:07.0000000+00:00</time></trkpt><trkpt lat="34.9320616" lon="33.6059168"><ele>40.0</ele><time>2015-05-02T14:46:08.0000000+00:00</time></trkpt><trkpt lat="34.9321046" lon="33.6059491"><ele>39.5</ele><time>2015-05-02T14:46:09.0000000+00:00</time></trkpt><trkpt lat="34.9321556" lon="33.6059875"><ele>39.3</ele><time>2015-05-02T14:46:10.0000000+00:00</time></trkpt><trkpt lat="34.9321935" lon="33.606021"><ele>39.1</ele><time>2015-05-02T14:46:11.0000000+00:00</time></trkpt><trkpt lat="34.9322425" lon="33.6060598"><ele>39.6</ele><time>2015-05-02T14:46:12.0000000+00:00</time></trkpt><trkpt lat="34.932293" lon="33.606099"><ele>39.3</ele><time>2015-05-02T14:46:13.0000000+00:00</time></trkpt><trkpt lat="34.9323299" lon="33.6061361"><ele>39.2</ele><time>2015-05-02T14:46:14.0000000+00:00</time></trkpt><trkpt lat="34.9323738" lon="33.606181"><ele>38.6</ele><time>2015-05-02T14:46:15.0000000+00:00</time></trkpt><trkpt lat="34.9324227" lon="33.6062243"><ele>38.8</ele><time>2015-05-02T14:46:16.0000000+00:00</time></trkpt><trkpt lat="34.9324636" lon="33.6062652"><ele>38.9</ele><time>2015-05-02T14:46:17.0000000+00:00</time></trkpt><trkpt lat="34.9325137" lon="33.6063106"><ele>39.0</ele><time>2015-05-02T14:46:18.0000000+00:00</time></trkpt><trkpt lat="34.9325549" lon="33.6063504"><ele>39.0</ele><time>2015-05-02T14:46:19.0000000+00:00</time></trkpt><trkpt lat="34.932596" lon="33.6063947"><ele>38.5</ele><time>2015-05-02T14:46:20.0000000+00:00</time></trkpt><trkpt lat="34.9326427" lon="33.6064421"><ele>38.8</ele><time>2015-05-02T14:46:21.0000000+00:00</time></trkpt><trkpt lat="34.9326766" lon="33.6064869"><ele>38.9</ele><time>2015-05-02T14:46:22.0000000+00:00</time></trkpt><trkpt lat="34.9327217" lon="33.6065336"><ele>39.0</ele><time>2015-05-02T14:46:23.0000000+00:00</time></trkpt><trkpt lat="34.9327628" lon="33.6065757"><ele>38.5</ele><time>2015-05-02T14:46:24.0000000+00:00</time></trkpt><trkpt lat="34.9327997" lon="33.6066182"><ele>38.8</ele><time>2015-05-02T14:46:25.0000000+00:00</time></trkpt><trkpt lat="34.9328386" lon="33.6066655"><ele>38.9</ele><time>2015-05-02T14:46:26.0000000+00:00</time></trkpt><trkpt lat="34.9328751" lon="33.6067079"><ele>39.0</ele><time>2015-05-02T14:46:27.0000000+00:00</time></trkpt><trkpt lat="34.9329168" lon="33.6067558"><ele>38.5</ele><time>2015-05-02T14:46:28.0000000+00:00</time></trkpt><trkpt lat="34.9329597" lon="33.6068078"><ele>38.3</ele><time>2015-05-02T14:46:29.0000000+00:00</time></trkpt><trkpt lat="34.9330002" lon="33.6068545"><ele>38.6</ele><time>2015-05-02T14:46:30.0000000+00:00</time></trkpt><trkpt lat="34.9330468" lon="33.6069079"><ele>38.8</ele><time>2015-05-02T14:46:31.0000000+00:00</time></trkpt><trkpt lat="34.933088" lon="33.6069566"><ele>38.9</ele><time>2015-05-02T14:46:32.0000000+00:00</time></trkpt><trkpt lat="34.9331296" lon="33.6070076"><ele>38.5</ele><time>2015-05-02T14:46:33.0000000+00:00</time></trkpt><trkpt lat="34.9331768" lon="33.6070655"><ele>38.2</ele><time>2015-05-02T14:46:34.0000000+00:00</time></trkpt><trkpt lat="34.9332218" lon="33.6071165"><ele>38.1</ele><time>2015-05-02T14:46:35.0000000+00:00</time></trkpt><trkpt lat="34.933267" lon="33.6071798"><ele>38.1</ele><time>2015-05-02T14:46:36.0000000+00:00</time></trkpt><trkpt lat="34.9333114" lon="33.6072346"><ele>38.0</ele><time>2015-05-02T14:46:37.0000000+00:00</time></trkpt><trkpt lat="34.9333598" lon="33.6072931"><ele>38.0</ele><time>2015-05-02T14:46:38.0000000+00:00</time></trkpt><trkpt lat="34.9334077" lon="33.6073478"><ele>37.5</ele><time>2015-05-02T14:46:39.0000000+00:00</time></trkpt><trkpt lat="34.9334518" lon="33.6074013"><ele>37.8</ele><time>2015-05-02T14:46:40.0000000+00:00</time></trkpt><trkpt lat="34.9334929" lon="33.607451"><ele>37.9</ele><time>2015-05-02T14:46:41.0000000+00:00</time></trkpt><trkpt lat="34.933531" lon="33.6074831"><ele>37.5</ele><time>2015-05-02T14:46:42.0000000+00:00</time></trkpt><trkpt lat="34.9335812" lon="33.60754"><ele>37.9</ele><time>2015-05-02T14:46:44.0000000+00:00</time></trkpt><trkpt lat="34.9336258" lon="33.6075978"><ele>37.5</ele><time>2015-05-02T14:46:46.0000000+00:00</time></trkpt><trkpt lat="34.9336681" lon="33.6076599"><ele>37.9</ele><time>2015-05-02T14:46:48.0000000+00:00</time></trkpt><trkpt lat="34.9337124" lon="33.6077074"><ele>37.2</ele><time>2015-05-02T14:46:50.0000000+00:00</time></trkpt><trkpt lat="34.9337542" lon="33.6077526"><ele>37.5</ele><time>2015-05-02T14:47:14.0000000+00:00</time></trkpt><trkpt lat="34.9338172" lon="33.6077994"><ele>37.1</ele><time>2015-05-02T14:47:17.0000000+00:00</time></trkpt><trkpt lat="34.9338779" lon="33.6078365"><ele>37.0</ele><time>2015-05-02T14:47:19.0000000+00:00</time></trkpt><trkpt lat="34.9339226" lon="33.6079058"><ele>37.0</ele><time>2015-05-02T14:47:21.0000000+00:00</time></trkpt><trkpt lat="34.9338986" lon="33.6080411"><ele>37.0</ele><time>2015-05-02T14:47:23.0000000+00:00</time></trkpt><trkpt lat="34.9338683" lon="33.6080879"><ele>37.0</ele><time>2015-05-02T14:47:24.0000000+00:00</time></trkpt><trkpt lat="34.9338362" lon="33.6081355"><ele>36.5</ele><time>2015-05-02T14:47:25.0000000+00:00</time></trkpt><trkpt lat="34.9338096" lon="33.6081842"><ele>36.3</ele><time>2015-05-02T14:47:26.0000000+00:00</time></trkpt><trkpt lat="34.9337727" lon="33.6082224"><ele>36.1</ele><time>2015-05-02T14:47:27.0000000+00:00</time></trkpt><trkpt lat="34.933734" lon="33.6082702"><ele>36.1</ele><time>2015-05-02T14:47:28.0000000+00:00</time></trkpt><trkpt lat="34.9336946" lon="33.608316"><ele>36.1</ele><time>2015-05-02T14:47:29.0000000+00:00</time></trkpt><trkpt lat="34.9336517" lon="33.608357"><ele>36.5</ele><time>2015-05-02T14:47:30.0000000+00:00</time></trkpt><trkpt lat="34.9336099" lon="33.6083921"><ele>36.8</ele><time>2015-05-02T14:47:31.0000000+00:00</time></trkpt><trkpt lat="34.9335739" lon="33.608447"><ele>36.9</ele><time>2015-05-02T14:47:32.0000000+00:00</time></trkpt><trkpt lat="34.9335293" lon="33.6084918"><ele>37.0</ele><time>2015-05-02T14:47:33.0000000+00:00</time></trkpt><trkpt lat="34.9334868" lon="33.6085244"><ele>37.0</ele><time>2015-05-02T14:47:34.0000000+00:00</time></trkpt><trkpt lat="34.933437" lon="33.6085726"><ele>37.0</ele><time>2015-05-02T14:47:35.0000000+00:00</time></trkpt><trkpt lat="34.9333881" lon="33.6086252"><ele>37.0</ele><time>2015-05-02T14:47:36.0000000+00:00</time></trkpt><trkpt lat="34.9333365" lon="33.6086705"><ele>37.0</ele><time>2015-05-02T14:47:37.0000000+00:00</time></trkpt><trkpt lat="34.9332818" lon="33.6087263"><ele>37.0</ele><time>2015-05-02T14:47:38.0000000+00:00</time></trkpt><trkpt lat="34.9332435" lon="33.6087726"><ele>37.0</ele><time>2015-05-02T14:47:39.0000000+00:00</time></trkpt><trkpt lat="34.9331855" lon="33.6088246"><ele>37.5</ele><time>2015-05-02T14:47:40.0000000+00:00</time></trkpt><trkpt lat="34.9331324" lon="33.6088769"><ele>37.8</ele><time>2015-05-02T14:47:41.0000000+00:00</time></trkpt><trkpt lat="34.9330646" lon="33.6089227"><ele>37.9</ele><time>2015-05-02T14:47:42.0000000+00:00</time></trkpt><trkpt lat="34.9330142" lon="33.6089806"><ele>38.0</ele><time>2015-05-02T14:47:43.0000000+00:00</time></trkpt><trkpt lat="34.9329639" lon="33.6090226"><ele>37.5</ele><time>2015-05-02T14:47:44.0000000+00:00</time></trkpt><trkpt lat="34.932914" lon="33.6090834"><ele>37.8</ele><time>2015-05-02T14:47:45.0000000+00:00</time></trkpt><trkpt lat="34.9328633" lon="33.609134"><ele>37.4</ele><time>2015-05-02T14:47:46.0000000+00:00</time></trkpt><trkpt lat="34.9328146" lon="33.6091746"><ele>37.2</ele><time>2015-05-02T14:47:47.0000000+00:00</time></trkpt><trkpt lat="34.9327582" lon="33.6092296"><ele>37.1</ele><time>2015-05-02T14:47:48.0000000+00:00</time></trkpt><trkpt lat="34.9327227" lon="33.6092808"><ele>37.1</ele><time>2015-05-02T14:47:49.0000000+00:00</time></trkpt><trkpt lat="34.9326787" lon="33.6093285"><ele>37.5</ele><time>2015-05-02T14:47:50.0000000+00:00</time></trkpt><trkpt lat="34.9326327" lon="33.609371"><ele>37.8</ele><time>2015-05-02T14:47:51.0000000+00:00</time></trkpt><trkpt lat="34.9325789" lon="33.6094185"><ele>37.9</ele><time>2015-05-02T14:47:52.0000000+00:00</time></trkpt><trkpt lat="34.9325254" lon="33.6094693"><ele>38.0</ele><time>2015-05-02T14:47:53.0000000+00:00</time></trkpt><trkpt lat="34.932475" lon="33.6095232"><ele>38.0</ele><time>2015-05-02T14:47:54.0000000+00:00</time></trkpt><trkpt lat="34.9324297" lon="33.6095763"><ele>37.5</ele><time>2015-05-02T14:47:55.0000000+00:00</time></trkpt><trkpt lat="34.9323781" lon="33.609623"><ele>37.3</ele><time>2015-05-02T14:47:56.0000000+00:00</time></trkpt><trkpt lat="34.9323256" lon="33.6096762"><ele>37.6</ele><time>2015-05-02T14:47:57.0000000+00:00</time></trkpt><trkpt lat="34.9322755" lon="33.6097302"><ele>37.3</ele><time>2015-05-02T14:47:58.0000000+00:00</time></trkpt><trkpt lat="34.9322219" lon="33.6097878"><ele>37.2</ele><time>2015-05-02T14:47:59.0000000+00:00</time></trkpt><trkpt lat="34.9321657" lon="33.6098347"><ele>37.1</ele><time>2015-05-02T14:48:00.0000000+00:00</time></trkpt><trkpt lat="34.9321172" lon="33.6098903"><ele>37.6</ele><time>2015-05-02T14:48:01.0000000+00:00</time></trkpt><trkpt lat="34.9320717" lon="33.6099415"><ele>37.3</ele><time>2015-05-02T14:48:02.0000000+00:00</time></trkpt><trkpt lat="34.9320224" lon="33.6099962"><ele>37.2</ele><time>2015-05-02T14:48:03.0000000+00:00</time></trkpt><trkpt lat="34.9319889" lon="33.6100489"><ele>37.1</ele><time>2015-05-02T14:48:04.0000000+00:00</time></trkpt><trkpt lat="34.9319407" lon="33.6101211"><ele>37.1</ele><time>2015-05-02T14:48:05.0000000+00:00</time></trkpt><trkpt lat="34.9318946" lon="33.6101821"><ele>37.0</ele><time>2015-05-02T14:48:06.0000000+00:00</time></trkpt><trkpt lat="34.9318467" lon="33.6102449"><ele>37.0</ele><time>2015-05-02T14:48:07.0000000+00:00</time></trkpt><trkpt lat="34.9317912" lon="33.6103124"><ele>37.0</ele><time>2015-05-02T14:48:08.0000000+00:00</time></trkpt><trkpt lat="34.931746" lon="33.6103775"><ele>36.5</ele><time>2015-05-02T14:48:09.0000000+00:00</time></trkpt><trkpt lat="34.93171" lon="33.6104532"><ele>36.8</ele><time>2015-05-02T14:48:10.0000000+00:00</time></trkpt><trkpt lat="34.9316697" lon="33.6105304"><ele>36.9</ele><time>2015-05-02T14:48:11.0000000+00:00</time></trkpt><trkpt lat="34.931631" lon="33.6106147"><ele>37.0</ele><time>2015-05-02T14:48:12.0000000+00:00</time></trkpt><trkpt lat="34.9315844" lon="33.6106893"><ele>37.0</ele><time>2015-05-02T14:48:13.0000000+00:00</time></trkpt><trkpt lat="34.9315306" lon="33.6107611"><ele>37.0</ele><time>2015-05-02T14:48:14.0000000+00:00</time></trkpt><trkpt lat="34.9314929" lon="33.6108345"><ele>37.0</ele><time>2015-05-02T14:48:15.0000000+00:00</time></trkpt><trkpt lat="34.9314552" lon="33.6109119"><ele>37.0</ele><time>2015-05-02T14:48:16.0000000+00:00</time></trkpt><trkpt lat="34.9314125" lon="33.6109875"><ele>36.5</ele><time>2015-05-02T14:48:17.0000000+00:00</time></trkpt><trkpt lat="34.9313702" lon="33.6110656"><ele>36.3</ele><time>2015-05-02T14:48:18.0000000+00:00</time></trkpt><trkpt lat="34.9313356" lon="33.6111369"><ele>36.1</ele><time>2015-05-02T14:48:19.0000000+00:00</time></trkpt><trkpt lat="34.9313007" lon="33.611208"><ele>36.1</ele><time>2015-05-02T14:48:20.0000000+00:00</time></trkpt><trkpt lat="34.9312609" lon="33.6112797"><ele>36.1</ele><time>2015-05-02T14:48:21.0000000+00:00</time></trkpt><trkpt lat="34.9312348" lon="33.6113525"><ele>36.0</ele><time>2015-05-02T14:48:22.0000000+00:00</time></trkpt><trkpt lat="34.9312019" lon="33.6114216"><ele>35.5</ele><time>2015-05-02T14:48:23.0000000+00:00</time></trkpt><trkpt lat="34.9311861" lon="33.6115022"><ele>35.8</ele><time>2015-05-02T14:48:24.0000000+00:00</time></trkpt><trkpt lat="34.9311693" lon="33.6115647"><ele>35.9</ele><time>2015-05-02T14:48:25.0000000+00:00</time></trkpt><trkpt lat="34.9311451" lon="33.6116301"><ele>36.5</ele><time>2015-05-02T14:48:26.0000000+00:00</time></trkpt><trkpt lat="34.9311227" lon="33.6116962"><ele>36.7</ele><time>2015-05-02T14:48:27.0000000+00:00</time></trkpt><trkpt lat="34.9311023" lon="33.6117643"><ele>36.9</ele><time>2015-05-02T14:48:28.0000000+00:00</time></trkpt><trkpt lat="34.9310807" lon="33.611835"><ele>37.0</ele><time>2015-05-02T14:48:29.0000000+00:00</time></trkpt><trkpt lat="34.9310678" lon="33.6119013"><ele>37.0</ele><time>2015-05-02T14:48:30.0000000+00:00</time></trkpt><trkpt lat="34.9310492" lon="33.6119795"><ele>37.0</ele><time>2015-05-02T14:48:31.0000000+00:00</time></trkpt><trkpt lat="34.931035" lon="33.6120508"><ele>37.5</ele><time>2015-05-02T14:48:32.0000000+00:00</time></trkpt><trkpt lat="34.9310228" lon="33.6121232"><ele>37.8</ele><time>2015-05-02T14:48:33.0000000+00:00</time></trkpt><trkpt lat="34.9310033" lon="33.6121937"><ele>37.4</ele><time>2015-05-02T14:48:34.0000000+00:00</time></trkpt><trkpt lat="34.9309948" lon="33.6122566"><ele>37.2</ele><time>2015-05-02T14:48:35.0000000+00:00</time></trkpt><trkpt lat="34.9309788" lon="33.6123271"><ele>37.1</ele><time>2015-05-02T14:48:36.0000000+00:00</time></trkpt><trkpt lat="34.9309612" lon="33.6123998"><ele>37.6</ele><time>2015-05-02T14:48:37.0000000+00:00</time></trkpt><trkpt lat="34.9309462" lon="33.6124691"><ele>37.8</ele><time>2015-05-02T14:48:38.0000000+00:00</time></trkpt><trkpt lat="34.9309388" lon="33.6125387"><ele>37.4</ele><time>2015-05-02T14:48:39.0000000+00:00</time></trkpt><trkpt lat="34.9309258" lon="33.6126036"><ele>37.2</ele><time>2015-05-02T14:48:40.0000000+00:00</time></trkpt><trkpt lat="34.9309148" lon="33.612676"><ele>37.1</ele><time>2015-05-02T14:48:41.0000000+00:00</time></trkpt><trkpt lat="34.9309102" lon="33.6127307"><ele>37.1</ele><time>2015-05-02T14:48:42.0000000+00:00</time></trkpt><trkpt lat="34.9308958" lon="33.6128019"><ele>37.0</ele><time>2015-05-02T14:48:43.0000000+00:00</time></trkpt><trkpt lat="34.9308794" lon="33.6128682"><ele>37.0</ele><time>2015-05-02T14:48:44.0000000+00:00</time></trkpt><trkpt lat="34.9308682" lon="33.6129403"><ele>37.0</ele><time>2015-05-02T14:48:45.0000000+00:00</time></trkpt><trkpt lat="34.9308558" lon="33.6130144"><ele>37.0</ele><time>2015-05-02T14:48:46.0000000+00:00</time></trkpt><trkpt lat="34.9308527" lon="33.6130882"><ele>37.0</ele><time>2015-05-02T14:48:47.0000000+00:00</time></trkpt><trkpt lat="34.9308387" lon="33.6131636"><ele>37.0</ele><time>2015-05-02T14:48:48.0000000+00:00</time></trkpt><trkpt lat="34.9308298" lon="33.6132341"><ele>37.0</ele><time>2015-05-02T14:48:49.0000000+00:00</time></trkpt><trkpt lat="34.930816" lon="33.613313"><ele>37.0</ele><time>2015-05-02T14:48:50.0000000+00:00</time></trkpt><trkpt lat="34.9308087" lon="33.6133959"><ele>37.0</ele><time>2015-05-02T14:48:51.0000000+00:00</time></trkpt><trkpt lat="34.9307913" lon="33.6134784"><ele>37.0</ele><time>2015-05-02T14:48:52.0000000+00:00</time></trkpt><trkpt lat="34.9307783" lon="33.6135471"><ele>37.0</ele><time>2015-05-02T14:48:53.0000000+00:00</time></trkpt><trkpt lat="34.9307617" lon="33.6136184"><ele>37.0</ele><time>2015-05-02T14:48:54.0000000+00:00</time></trkpt><trkpt lat="34.9307449" lon="33.6137012"><ele>37.0</ele><time>2015-05-02T14:48:55.0000000+00:00</time></trkpt><trkpt lat="34.9307311" lon="33.6137807"><ele>36.5</ele><time>2015-05-02T14:48:56.0000000+00:00</time></trkpt><trkpt lat="34.9307246" lon="33.6138597"><ele>36.3</ele><time>2015-05-02T14:48:57.0000000+00:00</time></trkpt><trkpt lat="34.930728" lon="33.61394"><ele>35.6</ele><time>2015-05-02T14:48:58.0000000+00:00</time></trkpt><trkpt lat="34.9307479" lon="33.6140066"><ele>35.3</ele><time>2015-05-02T14:48:59.0000000+00:00</time></trkpt><trkpt lat="34.9307812" lon="33.6140918"><ele>35.7</ele><time>2015-05-02T14:49:00.0000000+00:00</time></trkpt><trkpt lat="34.9308177" lon="33.61417"><ele>35.8</ele><time>2015-05-02T14:49:01.0000000+00:00</time></trkpt><trkpt lat="34.930857" lon="33.6142445"><ele>35.9</ele><time>2015-05-02T14:49:02.0000000+00:00</time></trkpt><trkpt lat="34.9308714" lon="33.6143162"><ele>36.0</ele><time>2015-05-02T14:49:03.0000000+00:00</time></trkpt><trkpt lat="34.9308813" lon="33.6143942"><ele>36.5</ele><time>2015-05-02T14:49:04.0000000+00:00</time></trkpt><trkpt lat="34.9308866" lon="33.614472"><ele>36.8</ele><time>2015-05-02T14:49:05.0000000+00:00</time></trkpt><trkpt lat="34.9308728" lon="33.6145554"><ele>36.4</ele><time>2015-05-02T14:49:06.0000000+00:00</time></trkpt><trkpt lat="34.9308513" lon="33.6146289"><ele>36.2</ele><time>2015-05-02T14:49:07.0000000+00:00</time></trkpt><trkpt lat="34.9308197" lon="33.6147154"><ele>36.6</ele><time>2015-05-02T14:49:08.0000000+00:00</time></trkpt><trkpt lat="34.9307741" lon="33.6147967"><ele>36.8</ele><time>2015-05-02T14:49:09.0000000+00:00</time></trkpt><trkpt lat="34.9307224" lon="33.6148613"><ele>36.9</ele><time>2015-05-02T14:49:10.0000000+00:00</time></trkpt><trkpt lat="34.9306702" lon="33.6149115"><ele>37.0</ele><time>2015-05-02T14:49:11.0000000+00:00</time></trkpt><trkpt lat="34.9306164" lon="33.614969"><ele>37.0</ele><time>2015-05-02T14:49:12.0000000+00:00</time></trkpt><trkpt lat="34.9305748" lon="33.6150318"><ele>37.0</ele><time>2015-05-02T14:49:13.0000000+00:00</time></trkpt><trkpt lat="34.9305377" lon="33.6151005"><ele>37.0</ele><time>2015-05-02T14:49:14.0000000+00:00</time></trkpt><trkpt lat="34.930518" lon="33.6151696"><ele>36.5</ele><time>2015-05-02T14:49:15.0000000+00:00</time></trkpt><trkpt lat="34.9304923" lon="33.6152589"><ele>36.3</ele><time>2015-05-02T14:49:16.0000000+00:00</time></trkpt><trkpt lat="34.9304774" lon="33.6153418"><ele>35.6</ele><time>2015-05-02T14:49:17.0000000+00:00</time></trkpt><trkpt lat="34.9304615" lon="33.6154306"><ele>35.3</ele><time>2015-05-02T14:49:18.0000000+00:00</time></trkpt><trkpt lat="34.9304479" lon="33.6155082"><ele>35.2</ele><time>2015-05-02T14:49:19.0000000+00:00</time></trkpt><trkpt lat="34.9304301" lon="33.6155938"><ele>34.6</ele><time>2015-05-02T14:49:20.0000000+00:00</time></trkpt><trkpt lat="34.9304168" lon="33.6156741"><ele>34.8</ele><time>2015-05-02T14:49:21.0000000+00:00</time></trkpt><trkpt lat="34.9304081" lon="33.6157588"><ele>34.9</ele><time>2015-05-02T14:49:22.0000000+00:00</time></trkpt><trkpt lat="34.9303971" lon="33.615836"><ele>35.0</ele><time>2015-05-02T14:49:23.0000000+00:00</time></trkpt><trkpt lat="34.9303839" lon="33.6159204"><ele>35.0</ele><time>2015-05-02T14:49:24.0000000+00:00</time></trkpt><trkpt lat="34.9303801" lon="33.6159906"><ele>35.0</ele><time>2015-05-02T14:49:25.0000000+00:00</time></trkpt><trkpt lat="34.9303654" lon="33.6160738"><ele>35.0</ele><time>2015-05-02T14:49:26.0000000+00:00</time></trkpt><trkpt lat="34.9303565" lon="33.6161539"><ele>35.0</ele><time>2015-05-02T14:49:27.0000000+00:00</time></trkpt><trkpt lat="34.9303421" lon="33.6162309"><ele>35.0</ele><time>2015-05-02T14:49:28.0000000+00:00</time></trkpt><trkpt lat="34.9303396" lon="33.6162907"><ele>35.0</ele><time>2015-05-02T14:49:29.0000000+00:00</time></trkpt><trkpt lat="34.9303284" lon="33.6163527"><ele>34.5</ele><time>2015-05-02T14:49:30.0000000+00:00</time></trkpt><trkpt lat="34.9303309" lon="33.616426"><ele>34.1</ele><time>2015-05-02T14:49:32.0000000+00:00</time></trkpt><trkpt lat="34.9303472" lon="33.6164848"><ele>35.0</ele><time>2015-05-02T14:49:36.0000000+00:00</time></trkpt><trkpt lat="34.9303371" lon="33.6165644"><ele>36.0</ele><time>2015-05-02T14:49:40.0000000+00:00</time></trkpt><trkpt lat="34.9303255" lon="33.6166389"><ele>35.5</ele><time>2015-05-02T14:49:42.0000000+00:00</time></trkpt><trkpt lat="34.9303102" lon="33.6167291"><ele>34.9</ele><time>2015-05-02T14:49:44.0000000+00:00</time></trkpt><trkpt lat="34.9302959" lon="33.616828"><ele>34.2</ele><time>2015-05-02T14:49:46.0000000+00:00</time></trkpt><trkpt lat="34.930305" lon="33.6169265"><ele>34.1</ele><time>2015-05-02T14:49:48.0000000+00:00</time></trkpt><trkpt lat="34.9303212" lon="33.6170084"><ele>34.0</ele><time>2015-05-02T14:49:50.0000000+00:00</time></trkpt><trkpt lat="34.9302916" lon="33.6170781"><ele>34.0</ele><time>2015-05-02T14:49:52.0000000+00:00</time></trkpt><trkpt lat="34.9302821" lon="33.6171513"><ele>34.8</ele><time>2015-05-02T14:49:54.0000000+00:00</time></trkpt><trkpt lat="34.9302778" lon="33.6172164"><ele>35.5</ele><time>2015-05-02T14:49:56.0000000+00:00</time></trkpt><trkpt lat="34.9302474" lon="33.6172756"><ele>35.1</ele><time>2015-05-02T14:49:58.0000000+00:00</time></trkpt><trkpt lat="34.9302255" lon="33.6173499"><ele>35.0</ele><time>2015-05-02T14:50:00.0000000+00:00</time></trkpt><trkpt lat="34.930206" lon="33.6174313"><ele>35.5</ele><time>2015-05-02T14:50:02.0000000+00:00</time></trkpt><trkpt lat="34.9301829" lon="33.6174885"><ele>35.8</ele><time>2015-05-02T14:50:03.0000000+00:00</time></trkpt><trkpt lat="34.930172" lon="33.6175473"><ele>35.9</ele><time>2015-05-02T14:50:04.0000000+00:00</time></trkpt><trkpt lat="34.9301671" lon="33.6176025"><ele>36.0</ele><time>2015-05-02T14:50:05.0000000+00:00</time></trkpt><trkpt lat="34.930159" lon="33.6176985"><ele>35.5</ele><time>2015-05-02T14:50:07.0000000+00:00</time></trkpt><trkpt lat="34.9301514" lon="33.6177537"><ele>35.3</ele><time>2015-05-02T14:50:08.0000000+00:00</time></trkpt><trkpt lat="34.9301411" lon="33.6178533"><ele>34.6</ele><time>2015-05-02T14:50:10.0000000+00:00</time></trkpt><trkpt lat="34.9301218" lon="33.6179567"><ele>34.9</ele><time>2015-05-02T14:50:12.0000000+00:00</time></trkpt><trkpt lat="34.9301123" lon="33.6180105"><ele>35.0</ele><time>2015-05-02T14:50:13.0000000+00:00</time></trkpt><trkpt lat="34.9301111" lon="33.6180656"><ele>34.5</ele><time>2015-05-02T14:50:14.0000000+00:00</time></trkpt><trkpt lat="34.930099" lon="33.618175"><ele>34.9</ele><time>2015-05-02T14:50:16.0000000+00:00</time></trkpt><trkpt lat="34.9300955" lon="33.6182418"><ele>35.0</ele><time>2015-05-02T14:50:17.0000000+00:00</time></trkpt><trkpt lat="34.9301001" lon="33.618306"><ele>35.0</ele><time>2015-05-02T14:50:18.0000000+00:00</time></trkpt><trkpt lat="34.9300992" lon="33.6183683"><ele>35.5</ele><time>2015-05-02T14:50:19.0000000+00:00</time></trkpt><trkpt lat="34.9300914" lon="33.6184347"><ele>35.8</ele><time>2015-05-02T14:50:20.0000000+00:00</time></trkpt><trkpt lat="34.9300981" lon="33.6184974"><ele>35.9</ele><time>2015-05-02T14:50:21.0000000+00:00</time></trkpt><trkpt lat="34.9300934" lon="33.6185682"><ele>36.0</ele><time>2015-05-02T14:50:22.0000000+00:00</time></trkpt><trkpt lat="34.9300826" lon="33.6186302"><ele>36.0</ele><time>2015-05-02T14:50:23.0000000+00:00</time></trkpt><trkpt lat="34.9300748" lon="33.6186967"><ele>35.5</ele><time>2015-05-02T14:50:24.0000000+00:00</time></trkpt><trkpt lat="34.9300696" lon="33.6187599"><ele>35.8</ele><time>2015-05-02T14:50:25.0000000+00:00</time></trkpt><trkpt lat="34.9300619" lon="33.6188254"><ele>35.9</ele><time>2015-05-02T14:50:26.0000000+00:00</time></trkpt><trkpt lat="34.9300619" lon="33.6188844"><ele>35.5</ele><time>2015-05-02T14:50:27.0000000+00:00</time></trkpt><trkpt lat="34.9300666" lon="33.6189571"><ele>35.2</ele><time>2015-05-02T14:50:28.0000000+00:00</time></trkpt><trkpt lat="34.9300666" lon="33.6190156"><ele>35.6</ele><time>2015-05-02T14:50:29.0000000+00:00</time></trkpt><trkpt lat="34.9300667" lon="33.6190849"><ele>35.8</ele><time>2015-05-02T14:50:30.0000000+00:00</time></trkpt><trkpt lat="34.9300598" lon="33.6191565"><ele>35.9</ele><time>2015-05-02T14:50:31.0000000+00:00</time></trkpt><trkpt lat="34.9300615" lon="33.6192234"><ele>36.0</ele><time>2015-05-02T14:50:32.0000000+00:00</time></trkpt><trkpt lat="34.9300665" lon="33.6192912"><ele>35.5</ele><time>2015-05-02T14:50:33.0000000+00:00</time></trkpt><trkpt lat="34.9300754" lon="33.6193627"><ele>35.3</ele><time>2015-05-02T14:50:34.0000000+00:00</time></trkpt><trkpt lat="34.9300777" lon="33.6194228"><ele>35.1</ele><time>2015-05-02T14:50:35.0000000+00:00</time></trkpt><trkpt lat="34.9300785" lon="33.6194983"><ele>35.1</ele><time>2015-05-02T14:50:36.0000000+00:00</time></trkpt><trkpt lat="34.9300814" lon="33.619568"><ele>34.6</ele><time>2015-05-02T14:50:37.0000000+00:00</time></trkpt><trkpt lat="34.9300877" lon="33.619636"><ele>34.3</ele><time>2015-05-02T14:50:38.0000000+00:00</time></trkpt><trkpt lat="34.930095" lon="33.6196956"><ele>34.2</ele><time>2015-05-02T14:50:39.0000000+00:00</time></trkpt><trkpt lat="34.9300982" lon="33.6197571"><ele>34.1</ele><time>2015-05-02T14:50:40.0000000+00:00</time></trkpt><trkpt lat="34.9301026" lon="33.6198323"><ele>34.6</ele><time>2015-05-02T14:50:41.0000000+00:00</time></trkpt><trkpt lat="34.9301037" lon="33.6198947"><ele>34.8</ele><time>2015-05-02T14:50:42.0000000+00:00</time></trkpt><trkpt lat="34.9301101" lon="33.6199573"><ele>34.9</ele><time>2015-05-02T14:50:43.0000000+00:00</time></trkpt><trkpt lat="34.9301176" lon="33.6200218"><ele>35.0</ele><time>2015-05-02T14:50:44.0000000+00:00</time></trkpt><trkpt lat="34.9301279" lon="33.6200888"><ele>35.0</ele><time>2015-05-02T14:50:45.0000000+00:00</time></trkpt><trkpt lat="34.9301369" lon="33.6201526"><ele>35.0</ele><time>2015-05-02T14:50:46.0000000+00:00</time></trkpt><trkpt lat="34.9301532" lon="33.6202104"><ele>34.5</ele><time>2015-05-02T14:50:47.0000000+00:00</time></trkpt><trkpt lat="34.9301652" lon="33.6202643"><ele>34.8</ele><time>2015-05-02T14:50:48.0000000+00:00</time></trkpt><trkpt lat="34.9301872" lon="33.6203206"><ele>35.0</ele><time>2015-05-02T14:50:51.0000000+00:00</time></trkpt><trkpt lat="34.9301844" lon="33.62038"><ele>36.0</ele><time>2015-05-02T14:50:57.0000000+00:00</time></trkpt><trkpt lat="34.930188" lon="33.6204519"><ele>36.0</ele><time>2015-05-02T14:50:59.0000000+00:00</time></trkpt><trkpt lat="34.9301962" lon="33.6205436"><ele>36.0</ele><time>2015-05-02T14:51:01.0000000+00:00</time></trkpt><trkpt lat="34.9302036" lon="33.6206343"><ele>36.0</ele><time>2015-05-02T14:51:03.0000000+00:00</time></trkpt><trkpt lat="34.9302154" lon="33.6207171"><ele>36.0</ele><time>2015-05-02T14:51:05.0000000+00:00</time></trkpt><trkpt lat="34.930228" lon="33.6208004"><ele>36.0</ele><time>2015-05-02T14:51:07.0000000+00:00</time></trkpt><trkpt lat="34.9302528" lon="33.6208844"><ele>36.3</ele><time>2015-05-02T14:51:09.0000000+00:00</time></trkpt><trkpt lat="34.930291" lon="33.6209497"><ele>35.6</ele><time>2015-05-02T14:51:11.0000000+00:00</time></trkpt><trkpt lat="34.9303094" lon="33.6210033"><ele>35.9</ele><time>2015-05-02T14:51:13.0000000+00:00</time></trkpt><trkpt lat="34.9302749" lon="33.6210576"><ele>35.4</ele><time>2015-05-02T14:51:17.0000000+00:00</time></trkpt><trkpt lat="34.9302444" lon="33.6211114"><ele>35.0</ele><time>2015-05-02T14:51:25.0000000+00:00</time></trkpt><trkpt lat="34.9302475" lon="33.621169"><ele>36.0</ele><time>2015-05-02T14:51:44.0000000+00:00</time></trkpt><trkpt lat="34.9302504" lon="33.6212406"><ele>36.3</ele><time>2015-05-02T14:51:46.0000000+00:00</time></trkpt><trkpt lat="34.9302544" lon="33.6213989"><ele>36.1</ele><time>2015-05-02T14:51:48.0000000+00:00</time></trkpt><trkpt lat="34.9302571" lon="33.6214635"><ele>36.1</ele><time>2015-05-02T14:51:49.0000000+00:00</time></trkpt><trkpt lat="34.9302606" lon="33.6215263"><ele>36.0</ele><time>2015-05-02T14:51:50.0000000+00:00</time></trkpt><trkpt lat="34.9302667" lon="33.6215841"><ele>36.0</ele><time>2015-05-02T14:51:51.0000000+00:00</time></trkpt><trkpt lat="34.9302715" lon="33.6216478"><ele>36.0</ele><time>2015-05-02T14:51:52.0000000+00:00</time></trkpt><trkpt lat="34.9302742" lon="33.6217079"><ele>35.5</ele><time>2015-05-02T14:51:53.0000000+00:00</time></trkpt><trkpt lat="34.9302806" lon="33.6217715"><ele>35.8</ele><time>2015-05-02T14:51:54.0000000+00:00</time></trkpt><trkpt lat="34.9302924" lon="33.6218324"><ele>35.9</ele><time>2015-05-02T14:51:55.0000000+00:00</time></trkpt><trkpt lat="34.930288" lon="33.6218978"><ele>36.0</ele><time>2015-05-02T14:51:56.0000000+00:00</time></trkpt><trkpt lat="34.9302849" lon="33.6219639"><ele>36.0</ele><time>2015-05-02T14:51:57.0000000+00:00</time></trkpt><trkpt lat="34.9302798" lon="33.6220294"><ele>36.0</ele><time>2015-05-02T14:51:58.0000000+00:00</time></trkpt><trkpt lat="34.9302788" lon="33.622094"><ele>36.0</ele><time>2015-05-02T14:51:59.0000000+00:00</time></trkpt><trkpt lat="34.9302807" lon="33.6221586"><ele>36.0</ele><time>2015-05-02T14:52:00.0000000+00:00</time></trkpt><trkpt lat="34.9302823" lon="33.6222246"><ele>36.0</ele><time>2015-05-02T14:52:01.0000000+00:00</time></trkpt><trkpt lat="34.9302829" lon="33.6222881"><ele>36.0</ele><time>2015-05-02T14:52:02.0000000+00:00</time></trkpt><trkpt lat="34.9302957" lon="33.622352"><ele>36.5</ele><time>2015-05-02T14:52:03.0000000+00:00</time></trkpt><trkpt lat="34.9303022" lon="33.622415"><ele>36.8</ele><time>2015-05-02T14:52:04.0000000+00:00</time></trkpt><trkpt lat="34.9303109" lon="33.6224764"><ele>36.4</ele><time>2015-05-02T14:52:05.0000000+00:00</time></trkpt><trkpt lat="34.9303145" lon="33.6225404"><ele>36.7</ele><time>2015-05-02T14:52:06.0000000+00:00</time></trkpt><trkpt lat="34.9303153" lon="33.6226098"><ele>36.9</ele><time>2015-05-02T14:52:07.0000000+00:00</time></trkpt><trkpt lat="34.9303198" lon="33.6226794"><ele>36.9</ele><time>2015-05-02T14:52:08.0000000+00:00</time></trkpt><trkpt lat="34.9303167" lon="33.6227378"><ele>37.0</ele><time>2015-05-02T14:52:09.0000000+00:00</time></trkpt><trkpt lat="34.9303267" lon="33.6227959"><ele>37.0</ele><time>2015-05-02T14:52:10.0000000+00:00</time></trkpt><trkpt lat="34.9303323" lon="33.6228542"><ele>37.0</ele><time>2015-05-02T14:52:11.0000000+00:00</time></trkpt><trkpt lat="34.9303372" lon="33.6229178"><ele>37.0</ele><time>2015-05-02T14:52:12.0000000+00:00</time></trkpt><trkpt lat="34.9303472" lon="33.6230198"><ele>37.8</ele><time>2015-05-02T14:52:14.0000000+00:00</time></trkpt><trkpt lat="34.9303531" lon="33.6230783"><ele>37.9</ele><time>2015-05-02T14:52:15.0000000+00:00</time></trkpt><trkpt lat="34.9303719" lon="33.6231664"><ele>37.5</ele><time>2015-05-02T14:52:17.0000000+00:00</time></trkpt><trkpt lat="34.9303807" lon="33.623235"><ele>37.1</ele><time>2015-05-02T14:52:19.0000000+00:00</time></trkpt><trkpt lat="34.9303906" lon="33.6233154"><ele>37.1</ele><time>2015-05-02T14:52:21.0000000+00:00</time></trkpt><trkpt lat="34.930406" lon="33.6233818"><ele>37.0</ele><time>2015-05-02T14:52:24.0000000+00:00</time></trkpt><trkpt lat="34.9304097" lon="33.6234384"><ele>37.0</ele><time>2015-05-02T14:52:27.0000000+00:00</time></trkpt><trkpt lat="34.9304207" lon="33.623505"><ele>37.0</ele><time>2015-05-02T14:52:34.0000000+00:00</time></trkpt><trkpt lat="34.930426" lon="33.6235696"><ele>37.0</ele><time>2015-05-02T14:52:36.0000000+00:00</time></trkpt><trkpt lat="34.9304289" lon="33.6236724"><ele>36.3</ele><time>2015-05-02T14:52:38.0000000+00:00</time></trkpt><trkpt lat="34.9304405" lon="33.6237711"><ele>36.1</ele><time>2015-05-02T14:52:39.0000000+00:00</time></trkpt><trkpt lat="34.9304431" lon="33.6238418"><ele>36.6</ele><time>2015-05-02T14:52:40.0000000+00:00</time></trkpt><trkpt lat="34.9304519" lon="33.6239048"><ele>36.3</ele><time>2015-05-02T14:52:41.0000000+00:00</time></trkpt><trkpt lat="34.9304644" lon="33.6239721"><ele>36.2</ele><time>2015-05-02T14:52:42.0000000+00:00</time></trkpt><trkpt lat="34.9304729" lon="33.6240402"><ele>36.1</ele><time>2015-05-02T14:52:43.0000000+00:00</time></trkpt><trkpt lat="34.9304754" lon="33.6241058"><ele>35.6</ele><time>2015-05-02T14:52:44.0000000+00:00</time></trkpt><trkpt lat="34.9304779" lon="33.6241726"><ele>35.8</ele><time>2015-05-02T14:52:45.0000000+00:00</time></trkpt><trkpt lat="34.9304841" lon="33.6242476"><ele>35.9</ele><time>2015-05-02T14:52:46.0000000+00:00</time></trkpt><trkpt lat="34.9304883" lon="33.6243201"><ele>36.0</ele><time>2015-05-02T14:52:47.0000000+00:00</time></trkpt><trkpt lat="34.9304979" lon="33.6244"><ele>36.0</ele><time>2015-05-02T14:52:48.0000000+00:00</time></trkpt><trkpt lat="34.9305022" lon="33.6244713"><ele>36.0</ele><time>2015-05-02T14:52:49.0000000+00:00</time></trkpt><trkpt lat="34.9305055" lon="33.6245277"><ele>35.5</ele><time>2015-05-02T14:52:50.0000000+00:00</time></trkpt><trkpt lat="34.9305131" lon="33.6245945"><ele>35.3</ele><time>2015-05-02T14:52:51.0000000+00:00</time></trkpt><trkpt lat="34.9305165" lon="33.6246718"><ele>35.1</ele><time>2015-05-02T14:52:52.0000000+00:00</time></trkpt><trkpt lat="34.930516" lon="33.6247407"><ele>35.1</ele><time>2015-05-02T14:52:53.0000000+00:00</time></trkpt><trkpt lat="34.9305268" lon="33.6248044"><ele>34.6</ele><time>2015-05-02T14:52:54.0000000+00:00</time></trkpt><trkpt lat="34.9305292" lon="33.6248827"><ele>34.3</ele><time>2015-05-02T14:52:55.0000000+00:00</time></trkpt><trkpt lat="34.9305435" lon="33.6249546"><ele>34.7</ele><time>2015-05-02T14:52:56.0000000+00:00</time></trkpt><trkpt lat="34.9305523" lon="33.6250291"><ele>34.3</ele><time>2015-05-02T14:52:57.0000000+00:00</time></trkpt><trkpt lat="34.9305491" lon="33.6250895"><ele>34.2</ele><time>2015-05-02T14:52:58.0000000+00:00</time></trkpt><trkpt lat="34.9305604" lon="33.6251524"><ele>33.9</ele><time>2015-05-02T14:53:01.0000000+00:00</time></trkpt><trkpt lat="34.9305532" lon="33.6252416"><ele>33.2</ele><time>2015-05-02T14:53:25.0000000+00:00</time></trkpt><trkpt lat="34.9305578" lon="33.6252989"><ele>33.1</ele><time>2015-05-02T14:53:26.0000000+00:00</time></trkpt><trkpt lat="34.9305554" lon="33.6253598"><ele>33.1</ele><time>2015-05-02T14:53:27.0000000+00:00</time></trkpt><trkpt lat="34.9305572" lon="33.6254247"><ele>33.0</ele><time>2015-05-02T14:53:28.0000000+00:00</time></trkpt><trkpt lat="34.9305663" lon="33.6254919"><ele>33.0</ele><time>2015-05-02T14:53:29.0000000+00:00</time></trkpt><trkpt lat="34.9305688" lon="33.6255571"><ele>33.5</ele><time>2015-05-02T14:53:30.0000000+00:00</time></trkpt><trkpt lat="34.9305747" lon="33.6256262"><ele>33.3</ele><time>2015-05-02T14:53:31.0000000+00:00</time></trkpt><trkpt lat="34.9305673" lon="33.6257012"><ele>30.6</ele><time>2015-05-02T14:53:32.0000000+00:00</time></trkpt><trkpt lat="34.9305716" lon="33.6257847"><ele>27.8</ele><time>2015-05-02T14:53:33.0000000+00:00</time></trkpt><trkpt lat="34.9305708" lon="33.6258564"><ele>25.4</ele><time>2015-05-02T14:53:34.0000000+00:00</time></trkpt><trkpt lat="34.9305699" lon="33.6259302"><ele>23.2</ele><time>2015-05-02T14:53:35.0000000+00:00</time></trkpt><trkpt lat="34.9305677" lon="33.6260125"><ele>22.1</ele><time>2015-05-02T14:53:36.0000000+00:00</time></trkpt><trkpt lat="34.9305651" lon="33.6260884"><ele>21.1</ele><time>2015-05-02T14:53:37.0000000+00:00</time></trkpt><trkpt lat="34.9305636" lon="33.6261738"><ele>20.0</ele><time>2015-05-02T14:53:38.0000000+00:00</time></trkpt><trkpt lat="34.9305626" lon="33.626248"><ele>20.0</ele><time>2015-05-02T14:53:39.0000000+00:00</time></trkpt><trkpt lat="34.9305606" lon="33.6263302"><ele>19.5</ele><time>2015-05-02T14:53:40.0000000+00:00</time></trkpt><trkpt lat="34.9305613" lon="33.6264143"><ele>19.3</ele><time>2015-05-02T14:53:41.0000000+00:00</time></trkpt><trkpt lat="34.930562" lon="33.6264947"><ele>18.6</ele><time>2015-05-02T14:53:42.0000000+00:00</time></trkpt><trkpt lat="34.9305625" lon="33.6265793"><ele>18.3</ele><time>2015-05-02T14:53:43.0000000+00:00</time></trkpt><trkpt lat="34.9305588" lon="33.6266652"><ele>18.2</ele><time>2015-05-02T14:53:44.0000000+00:00</time></trkpt><trkpt lat="34.9305598" lon="33.6267351"><ele>18.1</ele><time>2015-05-02T14:53:45.0000000+00:00</time></trkpt><trkpt lat="34.9305655" lon="33.6268219"><ele>17.6</ele><time>2015-05-02T14:53:46.0000000+00:00</time></trkpt><trkpt lat="34.9305697" lon="33.6269035"><ele>17.3</ele><time>2015-05-02T14:53:47.0000000+00:00</time></trkpt><trkpt lat="34.9305693" lon="33.6269912"><ele>16.7</ele><time>2015-05-02T14:53:48.0000000+00:00</time></trkpt><trkpt lat="34.9305679" lon="33.627084"><ele>16.8</ele><time>2015-05-02T14:53:49.0000000+00:00</time></trkpt><trkpt lat="34.930569" lon="33.6271651"><ele>16.4</ele><time>2015-05-02T14:53:50.0000000+00:00</time></trkpt><trkpt lat="34.9305784" lon="33.6272475"><ele>16.2</ele><time>2015-05-02T14:53:51.0000000+00:00</time></trkpt><trkpt lat="34.9305747" lon="33.6273393"><ele>16.1</ele><time>2015-05-02T14:53:52.0000000+00:00</time></trkpt><trkpt lat="34.9305663" lon="33.6274202"><ele>16.1</ele><time>2015-05-02T14:53:53.0000000+00:00</time></trkpt><trkpt lat="34.9305628" lon="33.6275122"><ele>15.0</ele><time>2015-05-02T14:53:54.0000000+00:00</time></trkpt><trkpt lat="34.93056" lon="33.6275869"><ele>15.0</ele><time>2015-05-02T14:53:55.0000000+00:00</time></trkpt><trkpt lat="34.9305597" lon="33.6276718"><ele>15.0</ele><time>2015-05-02T14:53:56.0000000+00:00</time></trkpt><trkpt lat="34.9305602" lon="33.6277605"><ele>15.0</ele><time>2015-05-02T14:53:57.0000000+00:00</time></trkpt><trkpt lat="34.93056" lon="33.6278382"><ele>15.0</ele><time>2015-05-02T14:53:58.0000000+00:00</time></trkpt><trkpt lat="34.9305613" lon="33.6279305"><ele>14.5</ele><time>2015-05-02T14:53:59.0000000+00:00</time></trkpt><trkpt lat="34.9305664" lon="33.6280163"><ele>14.3</ele><time>2015-05-02T14:54:00.0000000+00:00</time></trkpt><trkpt lat="34.930559" lon="33.6281058"><ele>14.1</ele><time>2015-05-02T14:54:01.0000000+00:00</time></trkpt><trkpt lat="34.9305545" lon="33.6282019"><ele>13.6</ele><time>2015-05-02T14:54:02.0000000+00:00</time></trkpt><trkpt lat="34.9305539" lon="33.628287"><ele>13.8</ele><time>2015-05-02T14:54:03.0000000+00:00</time></trkpt><trkpt lat="34.9305562" lon="33.6283713"><ele>13.9</ele><time>2015-05-02T14:54:04.0000000+00:00</time></trkpt><trkpt lat="34.9305571" lon="33.6284579"><ele>13.5</ele><time>2015-05-02T14:54:05.0000000+00:00</time></trkpt><trkpt lat="34.9305531" lon="33.628542"><ele>13.7</ele><time>2015-05-02T14:54:06.0000000+00:00</time></trkpt><trkpt lat="34.930553" lon="33.6286207"><ele>13.9</ele><time>2015-05-02T14:54:07.0000000+00:00</time></trkpt><trkpt lat="34.9305574" lon="33.6287031"><ele>13.5</ele><time>2015-05-02T14:54:08.0000000+00:00</time></trkpt><trkpt lat="34.9305609" lon="33.6287834"><ele>13.7</ele><time>2015-05-02T14:54:09.0000000+00:00</time></trkpt><trkpt lat="34.9305615" lon="33.6288589"><ele>13.9</ele><time>2015-05-02T14:54:10.0000000+00:00</time></trkpt><trkpt lat="34.930555" lon="33.6289357"><ele>13.4</ele><time>2015-05-02T14:54:11.0000000+00:00</time></trkpt><trkpt lat="34.9305535" lon="33.6290173"><ele>13.7</ele><time>2015-05-02T14:54:12.0000000+00:00</time></trkpt><trkpt lat="34.930549" lon="33.6291023"><ele>13.9</ele><time>2015-05-02T14:54:13.0000000+00:00</time></trkpt><trkpt lat="34.9305456" lon="33.6291798"><ele>13.9</ele><time>2015-05-02T14:54:14.0000000+00:00</time></trkpt><trkpt lat="34.9305394" lon="33.6292571"><ele>13.5</ele><time>2015-05-02T14:54:15.0000000+00:00</time></trkpt><trkpt lat="34.9305391" lon="33.6293382"><ele>13.3</ele><time>2015-05-02T14:54:16.0000000+00:00</time></trkpt><trkpt lat="34.9305343" lon="33.6294127"><ele>12.6</ele><time>2015-05-02T14:54:17.0000000+00:00</time></trkpt><trkpt lat="34.9305311" lon="33.6294944"><ele>12.3</ele><time>2015-05-02T14:54:18.0000000+00:00</time></trkpt><trkpt lat="34.9305289" lon="33.6295707"><ele>12.2</ele><time>2015-05-02T14:54:19.0000000+00:00</time></trkpt><trkpt lat="34.9305302" lon="33.6296409"><ele>12.1</ele><time>2015-05-02T14:54:20.0000000+00:00</time></trkpt><trkpt lat="34.9305301" lon="33.6297187"><ele>12.1</ele><time>2015-05-02T14:54:21.0000000+00:00</time></trkpt><trkpt lat="34.9305293" lon="33.6297856"><ele>12.0</ele><time>2015-05-02T14:54:22.0000000+00:00</time></trkpt><trkpt lat="34.9305302" lon="33.6298623"><ele>12.0</ele><time>2015-05-02T14:54:23.0000000+00:00</time></trkpt><trkpt lat="34.9305294" lon="33.6299407"><ele>12.0</ele><time>2015-05-02T14:54:24.0000000+00:00</time></trkpt><trkpt lat="34.9305281" lon="33.6300097"><ele>11.5</ele><time>2015-05-02T14:54:25.0000000+00:00</time></trkpt><trkpt lat="34.9305277" lon="33.6300879"><ele>11.3</ele><time>2015-05-02T14:54:26.0000000+00:00</time></trkpt><trkpt lat="34.9305243" lon="33.6301586"><ele>11.1</ele><time>2015-05-02T14:54:27.0000000+00:00</time></trkpt><trkpt lat="34.930523" lon="33.6302322"><ele>11.1</ele><time>2015-05-02T14:54:28.0000000+00:00</time></trkpt><trkpt lat="34.9305211" lon="33.6303146"><ele>11.1</ele><time>2015-05-02T14:54:29.0000000+00:00</time></trkpt><trkpt lat="34.9305185" lon="33.6303856"><ele>11.5</ele><time>2015-05-02T14:54:30.0000000+00:00</time></trkpt><trkpt lat="34.9305133" lon="33.6304557"><ele>12.3</ele><time>2015-05-02T14:54:31.0000000+00:00</time></trkpt><trkpt lat="34.9304982" lon="33.6305855"><ele>12.8</ele><time>2015-05-02T14:54:33.0000000+00:00</time></trkpt><trkpt lat="34.9304889" lon="33.6306402"><ele>13.4</ele><time>2015-05-02T14:54:34.0000000+00:00</time></trkpt><trkpt lat="34.9305034" lon="33.6307342"><ele>13.7</ele><time>2015-05-02T14:54:35.0000000+00:00</time></trkpt><trkpt lat="34.9305238" lon="33.6308332"><ele>15.2</ele><time>2015-05-02T14:54:37.0000000+00:00</time></trkpt><trkpt lat="34.9305138" lon="33.6309543"><ele>16.6</ele><time>2015-05-02T14:54:39.0000000+00:00</time></trkpt><trkpt lat="34.9305031" lon="33.631033"><ele>16.8</ele><time>2015-05-02T14:54:40.0000000+00:00</time></trkpt><trkpt lat="34.9305004" lon="33.6311027"><ele>16.4</ele><time>2015-05-02T14:54:41.0000000+00:00</time></trkpt><trkpt lat="34.9305163" lon="33.6311967"><ele>16.2</ele><time>2015-05-02T14:54:42.0000000+00:00</time></trkpt><trkpt lat="34.9305231" lon="33.6312614"><ele>16.1</ele><time>2015-05-02T14:54:43.0000000+00:00</time></trkpt><trkpt lat="34.9305208" lon="33.6313283"><ele>16.1</ele><time>2015-05-02T14:54:44.0000000+00:00</time></trkpt><trkpt lat="34.930511" lon="33.6314039"><ele>15.0</ele><time>2015-05-02T14:54:45.0000000+00:00</time></trkpt><trkpt lat="34.930515" lon="33.6314754"><ele>14.5</ele><time>2015-05-02T14:54:46.0000000+00:00</time></trkpt><trkpt lat="34.9305132" lon="33.6315447"><ele>14.3</ele><time>2015-05-02T14:54:47.0000000+00:00</time></trkpt><trkpt lat="34.9305111" lon="33.6316073"><ele>13.6</ele><time>2015-05-02T14:54:48.0000000+00:00</time></trkpt><trkpt lat="34.9305024" lon="33.6316671"><ele>13.3</ele><time>2015-05-02T14:54:49.0000000+00:00</time></trkpt><trkpt lat="34.9304972" lon="33.6317392"><ele>12.7</ele><time>2015-05-02T14:54:50.0000000+00:00</time></trkpt><trkpt lat="34.9304989" lon="33.6318422"><ele>12.4</ele><time>2015-05-02T14:54:52.0000000+00:00</time></trkpt><trkpt lat="34.9304941" lon="33.6319024"><ele>12.2</ele><time>2015-05-02T14:54:53.0000000+00:00</time></trkpt><trkpt lat="34.9304972" lon="33.6320024"><ele>12.1</ele><time>2015-05-02T14:54:55.0000000+00:00</time></trkpt><trkpt lat="34.930496" lon="33.6320601"><ele>12.0</ele><time>2015-05-02T14:54:56.0000000+00:00</time></trkpt><trkpt lat="34.930492" lon="33.6321736"><ele>11.5</ele><time>2015-05-02T14:54:58.0000000+00:00</time></trkpt><trkpt lat="34.9304874" lon="33.6322858"><ele>11.9</ele><time>2015-05-02T14:55:00.0000000+00:00</time></trkpt><trkpt lat="34.9304891" lon="33.6323436"><ele>11.5</ele><time>2015-05-02T14:55:01.0000000+00:00</time></trkpt><trkpt lat="34.9304889" lon="33.6324508"><ele>12.9</ele><time>2015-05-02T14:55:03.0000000+00:00</time></trkpt><trkpt lat="34.9304909" lon="33.6325433"><ele>13.2</ele><time>2015-05-02T14:55:05.0000000+00:00</time></trkpt><trkpt lat="34.9304586" lon="33.6326029"><ele>13.3</ele><time>2015-05-02T14:55:09.0000000+00:00</time></trkpt><trkpt lat="34.9303982" lon="33.6325757"><ele>12.6</ele><time>2015-05-02T14:55:11.0000000+00:00</time></trkpt><trkpt lat="34.9303447" lon="33.6325661"><ele>11.6</ele><time>2015-05-02T14:55:15.0000000+00:00</time></trkpt><trkpt lat="34.9302892" lon="33.6325794"><ele>11.2</ele><time>2015-05-02T14:55:17.0000000+00:00</time></trkpt><trkpt lat="34.9302435" lon="33.6326311"><ele>11.1</ele><time>2015-05-02T14:55:19.0000000+00:00</time></trkpt><trkpt lat="34.9301944" lon="33.6326905"><ele>11.0</ele><time>2015-05-02T14:55:21.0000000+00:00</time></trkpt><trkpt lat="34.9301092" lon="33.6327376"><ele>11.0</ele><time>2015-05-02T14:55:23.0000000+00:00</time></trkpt><trkpt lat="34.9300286" lon="33.6327546"><ele>11.0</ele><time>2015-05-02T14:55:24.0000000+00:00</time></trkpt><trkpt lat="34.9299711" lon="33.632766"><ele>11.0</ele><time>2015-05-02T14:55:25.0000000+00:00</time></trkpt><trkpt lat="34.9299201" lon="33.6327751"><ele>11.0</ele><time>2015-05-02T14:55:26.0000000+00:00</time></trkpt><trkpt lat="34.9298647" lon="33.6327894"><ele>11.0</ele><time>2015-05-02T14:55:27.0000000+00:00</time></trkpt><trkpt lat="34.9298056" lon="33.6328052"><ele>11.0</ele><time>2015-05-02T14:55:28.0000000+00:00</time></trkpt><trkpt lat="34.9297523" lon="33.6328187"><ele>11.0</ele><time>2015-05-02T14:55:29.0000000+00:00</time></trkpt><trkpt lat="34.9296946" lon="33.6328331"><ele>11.0</ele><time>2015-05-02T14:55:30.0000000+00:00</time></trkpt><trkpt lat="34.9296412" lon="33.6328478"><ele>11.0</ele><time>2015-05-02T14:55:31.0000000+00:00</time></trkpt><trkpt lat="34.9295936" lon="33.6328613"><ele>11.5</ele><time>2015-05-02T14:55:32.0000000+00:00</time></trkpt><trkpt lat="34.9295177" lon="33.6328687"><ele>11.8</ele><time>2015-05-02T14:55:33.0000000+00:00</time></trkpt><trkpt lat="34.9294582" lon="33.6328635"><ele>12.2</ele><time>2015-05-02T14:55:35.0000000+00:00</time></trkpt><trkpt lat="34.9294136" lon="33.632884"><ele>11.1</ele><time>2015-05-02T14:55:42.0000000+00:00</time></trkpt><trkpt lat="34.929364" lon="33.6329026"><ele>12.4</ele><time>2015-05-02T14:55:45.0000000+00:00</time></trkpt><trkpt lat="34.9293189" lon="33.6329493"><ele>13.4</ele><time>2015-05-02T14:55:47.0000000+00:00</time></trkpt><trkpt lat="34.9292615" lon="33.6330168"><ele>13.9</ele><time>2015-05-02T14:55:49.0000000+00:00</time></trkpt><trkpt lat="34.929153" lon="33.6330434"><ele>13.2</ele><time>2015-05-02T14:55:51.0000000+00:00</time></trkpt><trkpt lat="34.9291038" lon="33.6330604"><ele>13.1</ele><time>2015-05-02T14:55:52.0000000+00:00</time></trkpt><trkpt lat="34.9290236" lon="33.6330981"><ele>13.5</ele><time>2015-05-02T14:55:54.0000000+00:00</time></trkpt><trkpt lat="34.9289321" lon="33.6331344"><ele>13.4</ele><time>2015-05-02T14:55:56.0000000+00:00</time></trkpt><trkpt lat="34.9288807" lon="33.6331518"><ele>13.2</ele><time>2015-05-02T14:55:57.0000000+00:00</time></trkpt><trkpt lat="34.9288318" lon="33.633159"><ele>13.1</ele><time>2015-05-02T14:55:58.0000000+00:00</time></trkpt><trkpt lat="34.9287786" lon="33.6331667"><ele>12.6</ele><time>2015-05-02T14:55:59.0000000+00:00</time></trkpt><trkpt lat="34.9287211" lon="33.6331814"><ele>12.3</ele><time>2015-05-02T14:56:00.0000000+00:00</time></trkpt><trkpt lat="34.9286752" lon="33.6331944"><ele>12.2</ele><time>2015-05-02T14:56:01.0000000+00:00</time></trkpt><trkpt lat="34.9286261" lon="33.6332065"><ele>12.1</ele><time>2015-05-02T14:56:02.0000000+00:00</time></trkpt><trkpt lat="34.9285756" lon="33.6332201"><ele>12.1</ele><time>2015-05-02T14:56:03.0000000+00:00</time></trkpt><trkpt lat="34.9285191" lon="33.6332314"><ele>11.5</ele><time>2015-05-02T14:56:04.0000000+00:00</time></trkpt><trkpt lat="34.9284622" lon="33.6332476"><ele>11.3</ele><time>2015-05-02T14:56:05.0000000+00:00</time></trkpt><trkpt lat="34.9284137" lon="33.633261"><ele>11.2</ele><time>2015-05-02T14:56:06.0000000+00:00</time></trkpt><trkpt lat="34.9283623" lon="33.6332729"><ele>10.6</ele><time>2015-05-02T14:56:07.0000000+00:00</time></trkpt><trkpt lat="34.9283124" lon="33.633287"><ele>10.3</ele><time>2015-05-02T14:56:08.0000000+00:00</time></trkpt><trkpt lat="34.928226" lon="33.6333096"><ele>10.1</ele><time>2015-05-02T14:56:10.0000000+00:00</time></trkpt><trkpt lat="34.9281821" lon="33.6333225"><ele>10.6</ele><time>2015-05-02T14:56:11.0000000+00:00</time></trkpt><trkpt lat="34.9281316" lon="33.6333327"><ele>10.8</ele><time>2015-05-02T14:56:12.0000000+00:00</time></trkpt><trkpt lat="34.9280121" lon="33.6333128"><ele>11.5</ele><time>2015-05-02T14:56:14.0000000+00:00</time></trkpt><trkpt lat="34.9279724" lon="33.6333515"><ele>11.7</ele><time>2015-05-02T14:56:15.0000000+00:00</time></trkpt><trkpt lat="34.9279064" lon="33.6333692"><ele>11.7</ele><time>2015-05-02T14:56:17.0000000+00:00</time></trkpt><trkpt lat="34.9278429" lon="33.633379"><ele>11.9</ele><time>2015-05-02T14:56:19.0000000+00:00</time></trkpt><trkpt lat="34.9277903" lon="33.6334027"><ele>13.5</ele><time>2015-05-02T14:56:21.0000000+00:00</time></trkpt><trkpt lat="34.9277438" lon="33.6334192"><ele>12.9</ele><time>2015-05-02T14:56:23.0000000+00:00</time></trkpt><trkpt lat="34.9276835" lon="33.6334126"><ele>13.7</ele><time>2015-05-02T14:56:25.0000000+00:00</time></trkpt><trkpt lat="34.9276381" lon="33.6334385"><ele>14.7</ele><time>2015-05-02T14:56:27.0000000+00:00</time></trkpt><trkpt lat="34.9275908" lon="33.6334532"><ele>14.2</ele><time>2015-05-02T14:56:29.0000000+00:00</time></trkpt><trkpt lat="34.9275316" lon="33.6334572"><ele>14.1</ele><time>2015-05-02T14:56:31.0000000+00:00</time></trkpt><trkpt lat="34.9274863" lon="33.6334624"><ele>14.0</ele><time>2015-05-02T14:56:32.0000000+00:00</time></trkpt><trkpt lat="34.927398" lon="33.6334749"><ele>13.5</ele><time>2015-05-02T14:56:34.0000000+00:00</time></trkpt><trkpt lat="34.9273074" lon="33.6334896"><ele>13.1</ele><time>2015-05-02T14:56:36.0000000+00:00</time></trkpt><trkpt lat="34.9272576" lon="33.633499"><ele>13.1</ele><time>2015-05-02T14:56:37.0000000+00:00</time></trkpt><trkpt lat="34.92717" lon="33.6335148"><ele>12.3</ele><time>2015-05-02T14:56:39.0000000+00:00</time></trkpt><trkpt lat="34.9271263" lon="33.6335279"><ele>12.2</ele><time>2015-05-02T14:56:40.0000000+00:00</time></trkpt><trkpt lat="34.9270545" lon="33.6335569"><ele>12.3</ele><time>2015-05-02T14:56:42.0000000+00:00</time></trkpt><trkpt lat="34.9270299" lon="33.6336367"><ele>10.8</ele><time>2015-05-02T14:56:44.0000000+00:00</time></trkpt><trkpt lat="34.9270406" lon="33.6336925"><ele>10.4</ele><time>2015-05-02T14:56:45.0000000+00:00</time></trkpt><trkpt lat="34.927057" lon="33.6337461"><ele>9.7</ele><time>2015-05-02T14:56:46.0000000+00:00</time></trkpt><trkpt lat="34.9270766" lon="33.6338043"><ele>9.4</ele><time>2015-05-02T14:56:47.0000000+00:00</time></trkpt><trkpt lat="34.9271364" lon="33.6339154"><ele>9.7</ele><time>2015-05-02T14:56:48.0000000+00:00</time></trkpt><trkpt lat="34.9271626" lon="33.6340038"><ele>9.4</ele><time>2015-05-02T14:56:50.0000000+00:00</time></trkpt><trkpt lat="34.9272018" lon="33.634077"><ele>10.4</ele><time>2015-05-02T14:56:52.0000000+00:00</time></trkpt><trkpt lat="34.9272329" lon="33.6341373"><ele>9.6</ele><time>2015-05-02T14:56:54.0000000+00:00</time></trkpt><trkpt lat="34.9272876" lon="33.6341931"><ele>8.2</ele><time>2015-05-02T14:56:56.0000000+00:00</time></trkpt><trkpt lat="34.9273532" lon="33.6341842"><ele>9.3</ele><time>2015-05-02T14:56:58.0000000+00:00</time></trkpt><trkpt lat="34.9273906" lon="33.6341448"><ele>9.2</ele><time>2015-05-02T14:56:59.0000000+00:00</time></trkpt><trkpt lat="34.9274491" lon="33.6340706"><ele>9.6</ele><time>2015-05-02T14:57:00.0000000+00:00</time></trkpt><trkpt lat="34.9274946" lon="33.634025"><ele>10.3</ele><time>2015-05-02T14:57:01.0000000+00:00</time></trkpt><trkpt lat="34.9275402" lon="33.6339954"><ele>10.7</ele><time>2015-05-02T14:57:02.0000000+00:00</time></trkpt><trkpt lat="34.9275785" lon="33.6339552"><ele>10.8</ele><time>2015-05-02T14:57:03.0000000+00:00</time></trkpt><trkpt lat="34.9276286" lon="33.6339145"><ele>10.9</ele><time>2015-05-02T14:57:04.0000000+00:00</time></trkpt><trkpt lat="34.9277018" lon="33.6338425"><ele>11.0</ele><time>2015-05-02T14:57:06.0000000+00:00</time></trkpt><trkpt lat="34.9277426" lon="33.6338134"><ele>11.0</ele><time>2015-05-02T14:57:07.0000000+00:00</time></trkpt><trkpt lat="34.9278156" lon="33.633762"><ele>12.3</ele><time>2015-05-02T14:57:09.0000000+00:00</time></trkpt><trkpt lat="34.9278754" lon="33.633714"><ele>12.8</ele><time>2015-05-02T14:57:11.0000000+00:00</time></trkpt><trkpt lat="34.9279237" lon="33.6336782"><ele>13.0</ele><time>2015-05-02T14:57:13.0000000+00:00</time></trkpt><trkpt lat="34.9279709" lon="33.6336612"><ele>13.0</ele><time>2015-05-02T14:57:15.0000000+00:00</time></trkpt><trkpt lat="34.9280263" lon="33.6336788"><ele>13.8</ele><time>2015-05-02T14:57:17.0000000+00:00</time></trkpt><trkpt lat="34.9280857" lon="33.6337205"><ele>13.5</ele><time>2015-05-02T14:57:19.0000000+00:00</time></trkpt><trkpt lat="34.9281259" lon="33.6337488"><ele>13.2</ele><time>2015-05-02T14:57:20.0000000+00:00</time></trkpt><trkpt lat="34.9282006" lon="33.6338034"><ele>12.3</ele><time>2015-05-02T14:57:22.0000000+00:00</time></trkpt><trkpt lat="34.9282638" lon="33.6338719"><ele>12.1</ele><time>2015-05-02T14:57:24.0000000+00:00</time></trkpt><trkpt lat="34.9282868" lon="33.6339287"><ele>11.6</ele><time>2015-05-02T14:57:25.0000000+00:00</time></trkpt><trkpt lat="34.9282899" lon="33.6340738"><ele>11.3</ele><time>2015-05-02T14:57:26.0000000+00:00</time></trkpt><trkpt lat="34.928304" lon="33.63413"><ele>10.2</ele><time>2015-05-02T14:57:27.0000000+00:00</time></trkpt><trkpt lat="34.9283187" lon="33.634196"><ele>10.1</ele><time>2015-05-02T14:57:28.0000000+00:00</time></trkpt><trkpt lat="34.9283228" lon="33.6342519"><ele>9.6</ele><time>2015-05-02T14:57:29.0000000+00:00</time></trkpt><trkpt lat="34.9283271" lon="33.6343181"><ele>9.3</ele><time>2015-05-02T14:57:30.0000000+00:00</time></trkpt><trkpt lat="34.9283153" lon="33.6343717"><ele>9.2</ele><time>2015-05-02T14:57:31.0000000+00:00</time></trkpt><trkpt lat="34.9283116" lon="33.6344338"><ele>9.1</ele><time>2015-05-02T14:57:32.0000000+00:00</time></trkpt><trkpt lat="34.9283041" lon="33.6345043"><ele>9.1</ele><time>2015-05-02T14:57:33.0000000+00:00</time></trkpt><trkpt lat="34.9282936" lon="33.6345605"><ele>9.0</ele><time>2015-05-02T14:57:34.0000000+00:00</time></trkpt><trkpt lat="34.9282861" lon="33.634624"><ele>9.0</ele><time>2015-05-02T14:57:35.0000000+00:00</time></trkpt><trkpt lat="34.9282775" lon="33.6346941"><ele>9.5</ele><time>2015-05-02T14:57:36.0000000+00:00</time></trkpt><trkpt lat="34.9282688" lon="33.6347564"><ele>9.8</ele><time>2015-05-02T14:57:37.0000000+00:00</time></trkpt><trkpt lat="34.9282581" lon="33.6348285"><ele>9.9</ele><time>2015-05-02T14:57:38.0000000+00:00</time></trkpt><trkpt lat="34.9282432" lon="33.6348869"><ele>9.5</ele><time>2015-05-02T14:57:39.0000000+00:00</time></trkpt><trkpt lat="34.9282342" lon="33.6349464"><ele>9.2</ele><time>2015-05-02T14:57:40.0000000+00:00</time></trkpt><trkpt lat="34.9282272" lon="33.6350194"><ele>9.1</ele><time>2015-05-02T14:57:41.0000000+00:00</time></trkpt><trkpt lat="34.928214" lon="33.6350767"><ele>9.6</ele><time>2015-05-02T14:57:42.0000000+00:00</time></trkpt><trkpt lat="34.9282036" lon="33.6351457"><ele>9.8</ele><time>2015-05-02T14:57:43.0000000+00:00</time></trkpt><trkpt lat="34.928194" lon="33.6352077"><ele>9.9</ele><time>2015-05-02T14:57:44.0000000+00:00</time></trkpt><trkpt lat="34.9281955" lon="33.6353146"><ele>8.7</ele><time>2015-05-02T14:57:46.0000000+00:00</time></trkpt><trkpt lat="34.9282219" lon="33.6354041"><ele>8.2</ele><time>2015-05-02T14:57:48.0000000+00:00</time></trkpt><trkpt lat="34.9282318" lon="33.6354814"><ele>7.3</ele><time>2015-05-02T14:57:50.0000000+00:00</time></trkpt><trkpt lat="34.9281878" lon="33.6355053"><ele>14.8</ele><time>2015-05-02T15:03:23.0000000+00:00</time></trkpt><trkpt lat="34.9281391" lon="33.6355372"><ele>14.1</ele><time>2015-05-02T15:03:28.0000000+00:00</time></trkpt><trkpt lat="34.9281456" lon="33.6356078"><ele>14.0</ele><time>2015-05-02T15:03:31.0000000+00:00</time></trkpt><trkpt lat="34.9281404" lon="33.635667"><ele>14.0</ele><time>2015-05-02T15:03:33.0000000+00:00</time></trkpt><trkpt lat="34.9281236" lon="33.6357323"><ele>14.3</ele><time>2015-05-02T15:03:35.0000000+00:00</time></trkpt><trkpt lat="34.9281106" lon="33.6358052"><ele>14.1</ele><time>2015-05-02T15:03:37.0000000+00:00</time></trkpt><trkpt lat="34.9281041" lon="33.6358756"><ele>14.0</ele><time>2015-05-02T15:03:39.0000000+00:00</time></trkpt><trkpt lat="34.9281058" lon="33.6359409"><ele>14.0</ele><time>2015-05-02T15:03:41.0000000+00:00</time></trkpt><trkpt lat="34.9280961" lon="33.6359986"><ele>14.8</ele><time>2015-05-02T15:03:44.0000000+00:00</time></trkpt><trkpt lat="34.9280691" lon="33.6360616"><ele>16.4</ele><time>2015-05-02T15:03:48.0000000+00:00</time></trkpt><trkpt lat="34.9280575" lon="33.6361277"><ele>16.9</ele><time>2015-05-02T15:03:51.0000000+00:00</time></trkpt><trkpt lat="34.9280504" lon="33.6361995"><ele>17.1</ele><time>2015-05-02T15:03:54.0000000+00:00</time></trkpt><trkpt lat="34.9280438" lon="33.6362809"><ele>15.2</ele><time>2015-05-02T15:03:57.0000000+00:00</time></trkpt><trkpt lat="34.9280372" lon="33.6363375"><ele>15.1</ele><time>2015-05-02T15:03:59.0000000+00:00</time></trkpt><trkpt lat="34.928032" lon="33.636395"><ele>17.5</ele><time>2015-05-02T15:04:01.0000000+00:00</time></trkpt><trkpt lat="34.9280301" lon="33.6364551"><ele>19.9</ele><time>2015-05-02T15:04:03.0000000+00:00</time></trkpt><trkpt lat="34.9280163" lon="33.6365164"><ele>20.5</ele><time>2015-05-02T15:04:05.0000000+00:00</time></trkpt><trkpt lat="34.9280024" lon="33.6365831"><ele>19.9</ele><time>2015-05-02T15:04:07.0000000+00:00</time></trkpt><trkpt lat="34.9279984" lon="33.6366522"><ele>18.5</ele><time>2015-05-02T15:04:09.0000000+00:00</time></trkpt><trkpt lat="34.92803" lon="33.6366985"><ele>15.8</ele><time>2015-05-02T15:04:14.0000000+00:00</time></trkpt><trkpt lat="34.927985" lon="33.6366922"><ele>18.2</ele><time>2015-05-02T15:06:26.0000000+00:00</time></trkpt><trkpt lat="34.9279276" lon="33.636705"><ele>15.8</ele><time>2015-05-02T15:06:30.0000000+00:00</time></trkpt><trkpt lat="34.9278721" lon="33.6367075"><ele>13.8</ele><time>2015-05-02T15:06:34.0000000+00:00</time></trkpt><trkpt lat="34.9278136" lon="33.6367093"><ele>10.5</ele><time>2015-05-02T15:06:38.0000000+00:00</time></trkpt><trkpt lat="34.9277571" lon="33.6367092"><ele>7.7</ele><time>2015-05-02T15:06:42.0000000+00:00</time></trkpt><trkpt lat="34.9277055" lon="33.6367066"><ele>6.6</ele><time>2015-05-02T15:06:46.0000000+00:00</time></trkpt><trkpt lat="34.9276571" lon="33.636719"><ele>9.4</ele><time>2015-05-02T15:07:05.0000000+00:00</time></trkpt><trkpt lat="34.9276061" lon="33.6367338"><ele>12.0</ele><time>2015-05-02T15:07:12.0000000+00:00</time></trkpt><trkpt lat="34.9275512" lon="33.636739"><ele>12.0</ele><time>2015-05-02T15:07:16.0000000+00:00</time></trkpt><trkpt lat="34.927491" lon="33.6367445"><ele>14.2</ele><time>2015-05-02T15:07:28.0000000+00:00</time></trkpt><trkpt lat="34.9274428" lon="33.6367392"><ele>15.7</ele><time>2015-05-02T15:07:31.0000000+00:00</time></trkpt><trkpt lat="34.9273878" lon="33.6367559"><ele>14.2</ele><time>2015-05-02T15:07:35.0000000+00:00</time></trkpt><trkpt lat="34.9273756" lon="33.6368138"><ele>14.5</ele><time>2015-05-02T15:07:46.0000000+00:00</time></trkpt><trkpt lat="34.9273563" lon="33.6368689"><ele>12.1</ele><time>2015-05-02T15:07:52.0000000+00:00</time></trkpt><trkpt lat="34.9273437" lon="33.63693"><ele>11.0</ele><time>2015-05-02T15:07:59.0000000+00:00</time></trkpt><trkpt lat="34.927335" lon="33.6369852"><ele>10.5</ele><time>2015-05-02T15:08:01.0000000+00:00</time></trkpt><trkpt lat="34.9273313" lon="33.6370467"><ele>10.1</ele><time>2015-05-02T15:08:03.0000000+00:00</time></trkpt><trkpt lat="34.9273291" lon="33.6371089"><ele>10.1</ele><time>2015-05-02T15:08:05.0000000+00:00</time></trkpt><trkpt lat="34.9273272" lon="33.6371669"><ele>9.5</ele><time>2015-05-02T15:08:07.0000000+00:00</time></trkpt><trkpt lat="34.9273263" lon="33.6372302"><ele>9.1</ele><time>2015-05-02T15:08:09.0000000+00:00</time></trkpt><trkpt lat="34.9273281" lon="33.6373177"><ele>9.1</ele><time>2015-05-02T15:08:11.0000000+00:00</time></trkpt><trkpt lat="34.9273237" lon="33.6374066"><ele>9.5</ele><time>2015-05-02T15:08:13.0000000+00:00</time></trkpt><trkpt lat="34.9273168" lon="33.6374846"><ele>9.6</ele><time>2015-05-02T15:08:15.0000000+00:00</time></trkpt><trkpt lat="34.9273055" lon="33.6375544"><ele>9.9</ele><time>2015-05-02T15:08:17.0000000+00:00</time></trkpt><trkpt lat="34.9272952" lon="33.6376199"><ele>10.0</ele><time>2015-05-02T15:08:19.0000000+00:00</time></trkpt><trkpt lat="34.9272946" lon="33.6376953"><ele>10.0</ele><time>2015-05-02T15:08:21.0000000+00:00</time></trkpt><trkpt lat="34.9272936" lon="33.6377806"><ele>9.3</ele><time>2015-05-02T15:08:23.0000000+00:00</time></trkpt><trkpt lat="34.927288" lon="33.6378702"><ele>9.6</ele><time>2015-05-02T15:08:25.0000000+00:00</time></trkpt><trkpt lat="34.9272814" lon="33.637955"><ele>9.4</ele><time>2015-05-02T15:08:27.0000000+00:00</time></trkpt><trkpt lat="34.9272755" lon="33.6380134"><ele>9.6</ele><time>2015-05-02T15:08:29.0000000+00:00</time></trkpt><trkpt lat="34.9272523" lon="33.6380702"><ele>10.0</ele><time>2015-05-02T15:08:57.0000000+00:00</time></trkpt><trkpt lat="34.927225" lon="33.6381153"><ele>7.5</ele><time>2015-05-02T15:09:21.0000000+00:00</time></trkpt><trkpt lat="34.9271758" lon="33.6381509"><ele>6.7</ele><time>2015-05-02T15:09:45.0000000+00:00</time></trkpt><trkpt lat="34.9271282" lon="33.6381694"><ele>9.0</ele><time>2015-05-02T15:09:55.0000000+00:00</time></trkpt><trkpt lat="34.9270685" lon="33.638158"><ele>8.3</ele><time>2015-05-02T15:09:59.0000000+00:00</time></trkpt><trkpt lat="34.9270139" lon="33.638143"><ele>8.1</ele><time>2015-05-02T15:10:01.0000000+00:00</time></trkpt><trkpt lat="34.9269526" lon="33.638134"><ele>8.0</ele><time>2015-05-02T15:10:03.0000000+00:00</time></trkpt><trkpt lat="34.9268878" lon="33.6381269"><ele>8.0</ele><time>2015-05-02T15:10:05.0000000+00:00</time></trkpt><trkpt lat="34.926824" lon="33.6381204"><ele>8.8</ele><time>2015-05-02T15:10:07.0000000+00:00</time></trkpt><trkpt lat="34.9267556" lon="33.6381183"><ele>7.7</ele><time>2015-05-02T15:10:09.0000000+00:00</time></trkpt><trkpt lat="34.926685" lon="33.6381193"><ele>8.4</ele><time>2015-05-02T15:10:11.0000000+00:00</time></trkpt><trkpt lat="34.9266163" lon="33.638118"><ele>8.9</ele><time>2015-05-02T15:10:13.0000000+00:00</time></trkpt><trkpt lat="34.926554" lon="33.6381199"><ele>9.5</ele><time>2015-05-02T15:10:15.0000000+00:00</time></trkpt><trkpt lat="34.9265053" lon="33.6381132"><ele>9.9</ele><time>2015-05-02T15:10:17.0000000+00:00</time></trkpt><trkpt lat="34.9264354" lon="33.6381005"><ele>10.0</ele><time>2015-05-02T15:10:19.0000000+00:00</time></trkpt><trkpt lat="34.9263649" lon="33.6381036"><ele>10.8</ele><time>2015-05-02T15:10:21.0000000+00:00</time></trkpt><trkpt lat="34.9262948" lon="33.6380972"><ele>9.7</ele><time>2015-05-02T15:10:23.0000000+00:00</time></trkpt><trkpt lat="34.9262099" lon="33.6380826"><ele>9.9</ele><time>2015-05-02T15:10:25.0000000+00:00</time></trkpt><trkpt lat="34.9261645" lon="33.6380761"><ele>10.5</ele><time>2015-05-02T15:10:26.0000000+00:00</time></trkpt><trkpt lat="34.9260748" lon="33.6380596"><ele>10.9</ele><time>2015-05-02T15:10:28.0000000+00:00</time></trkpt><trkpt lat="34.9260203" lon="33.6380468"><ele>11.0</ele><time>2015-05-02T15:10:29.0000000+00:00</time></trkpt><trkpt lat="34.9259632" lon="33.6380505"><ele>11.0</ele><time>2015-05-02T15:10:30.0000000+00:00</time></trkpt><trkpt lat="34.9259011" lon="33.6380304"><ele>11.0</ele><time>2015-05-02T15:10:32.0000000+00:00</time></trkpt><trkpt lat="34.9258325" lon="33.6380185"><ele>11.0</ele><time>2015-05-02T15:10:34.0000000+00:00</time></trkpt><trkpt lat="34.925777" lon="33.6380164"><ele>10.5</ele><time>2015-05-02T15:10:36.0000000+00:00</time></trkpt><trkpt lat="34.9257289" lon="33.6380072"><ele>10.6</ele><time>2015-05-02T15:10:38.0000000+00:00</time></trkpt><trkpt lat="34.9256658" lon="33.6379931"><ele>11.7</ele><time>2015-05-02T15:10:41.0000000+00:00</time></trkpt><trkpt lat="34.9256145" lon="33.6379824"><ele>12.6</ele><time>2015-05-02T15:10:44.0000000+00:00</time></trkpt><trkpt lat="34.9255579" lon="33.6379636"><ele>11.3</ele><time>2015-05-02T15:10:47.0000000+00:00</time></trkpt><trkpt lat="34.9255041" lon="33.6379516"><ele>10.9</ele><time>2015-05-02T15:10:49.0000000+00:00</time></trkpt><trkpt lat="34.9254424" lon="33.6379358"><ele>11.5</ele><time>2015-05-02T15:10:51.0000000+00:00</time></trkpt><trkpt lat="34.9253834" lon="33.6379189"><ele>11.1</ele><time>2015-05-02T15:10:53.0000000+00:00</time></trkpt><trkpt lat="34.9253285" lon="33.637906"><ele>11.0</ele><time>2015-05-02T15:10:55.0000000+00:00</time></trkpt><trkpt lat="34.9252699" lon="33.6378867"><ele>11.0</ele><time>2015-05-02T15:10:57.0000000+00:00</time></trkpt><trkpt lat="34.9252132" lon="33.6378673"><ele>12.3</ele><time>2015-05-02T15:10:59.0000000+00:00</time></trkpt><trkpt lat="34.9251552" lon="33.6378502"><ele>12.8</ele><time>2015-05-02T15:11:01.0000000+00:00</time></trkpt><trkpt lat="34.9251027" lon="33.6378332"><ele>13.5</ele><time>2015-05-02T15:11:03.0000000+00:00</time></trkpt><trkpt lat="34.9250467" lon="33.6378153"><ele>13.9</ele><time>2015-05-02T15:11:05.0000000+00:00</time></trkpt><trkpt lat="34.924991" lon="33.6377929"><ele>14.7</ele><time>2015-05-02T15:11:07.0000000+00:00</time></trkpt><trkpt lat="34.9249349" lon="33.6377682"><ele>15.7</ele><time>2015-05-02T15:11:09.0000000+00:00</time></trkpt><trkpt lat="34.9248812" lon="33.6377483"><ele>15.7</ele><time>2015-05-02T15:11:11.0000000+00:00</time></trkpt><trkpt lat="34.9248198" lon="33.6377267"><ele>15.9</ele><time>2015-05-02T15:11:13.0000000+00:00</time></trkpt><trkpt lat="34.9247531" lon="33.6377108"><ele>16.0</ele><time>2015-05-02T15:11:15.0000000+00:00</time></trkpt><trkpt lat="34.9246873" lon="33.6376965"><ele>16.0</ele><time>2015-05-02T15:11:17.0000000+00:00</time></trkpt><trkpt lat="34.9246282" lon="33.6376832"><ele>14.8</ele><time>2015-05-02T15:11:19.0000000+00:00</time></trkpt><trkpt lat="34.9245676" lon="33.6376713"><ele>14.2</ele><time>2015-05-02T15:11:21.0000000+00:00</time></trkpt><trkpt lat="34.9245051" lon="33.6376643"><ele>14.1</ele><time>2015-05-02T15:11:23.0000000+00:00</time></trkpt><trkpt lat="34.9244395" lon="33.6376526"><ele>12.8</ele><time>2015-05-02T15:11:25.0000000+00:00</time></trkpt><trkpt lat="34.9243876" lon="33.63765"><ele>12.5</ele><time>2015-05-02T15:11:27.0000000+00:00</time></trkpt><trkpt lat="34.9243396" lon="33.6376478"><ele>11.4</ele><time>2015-05-02T15:11:29.0000000+00:00</time></trkpt><trkpt lat="34.9242777" lon="33.6376398"><ele>11.1</ele><time>2015-05-02T15:11:32.0000000+00:00</time></trkpt><trkpt lat="34.9242116" lon="33.6376219"><ele>11.0</ele><time>2015-05-02T15:11:35.0000000+00:00</time></trkpt><trkpt lat="34.9241488" lon="33.6376009"><ele>11.0</ele><time>2015-05-02T15:11:37.0000000+00:00</time></trkpt><trkpt lat="34.9240816" lon="33.6375841"><ele>11.0</ele><time>2015-05-02T15:11:39.0000000+00:00</time></trkpt><trkpt lat="34.9240117" lon="33.6375732"><ele>12.0</ele><time>2015-05-02T15:11:41.0000000+00:00</time></trkpt><trkpt lat="34.9239564" lon="33.6375634"><ele>12.8</ele><time>2015-05-02T15:11:43.0000000+00:00</time></trkpt><trkpt lat="34.9239096" lon="33.6375525"><ele>13.7</ele><time>2015-05-02T15:11:45.0000000+00:00</time></trkpt><trkpt lat="34.9238656" lon="33.637541"><ele>15.2</ele><time>2015-05-02T15:11:47.0000000+00:00</time></trkpt><trkpt lat="34.9238174" lon="33.6375324"><ele>16.3</ele><time>2015-05-02T15:11:49.0000000+00:00</time></trkpt><trkpt lat="34.9237683" lon="33.6375217"><ele>16.8</ele><time>2015-05-02T15:11:51.0000000+00:00</time></trkpt><trkpt lat="34.9237089" lon="33.6375136"><ele>16.5</ele><time>2015-05-02T15:11:53.0000000+00:00</time></trkpt><trkpt lat="34.9236544" lon="33.6375122"><ele>16.1</ele><time>2015-05-02T15:11:55.0000000+00:00</time></trkpt><trkpt lat="34.9235961" lon="33.6375083"><ele>16.0</ele><time>2015-05-02T15:11:57.0000000+00:00</time></trkpt><trkpt lat="34.9235319" lon="33.6375011"><ele>16.0</ele><time>2015-05-02T15:11:59.0000000+00:00</time></trkpt><trkpt lat="34.9234637" lon="33.637495"><ele>16.0</ele><time>2015-05-02T15:12:01.0000000+00:00</time></trkpt><trkpt lat="34.9234083" lon="33.6374935"><ele>14.8</ele><time>2015-05-02T15:12:03.0000000+00:00</time></trkpt><trkpt lat="34.9233616" lon="33.6374837"><ele>15.0</ele><time>2015-05-02T15:12:05.0000000+00:00</time></trkpt><trkpt lat="34.9232969" lon="33.6374726"><ele>14.5</ele><time>2015-05-02T15:12:08.0000000+00:00</time></trkpt><trkpt lat="34.9232488" lon="33.6374689"><ele>13.4</ele><time>2015-05-02T15:12:10.0000000+00:00</time></trkpt><trkpt lat="34.9231842" lon="33.6374542"><ele>11.9</ele><time>2015-05-02T15:12:12.0000000+00:00</time></trkpt><trkpt lat="34.9231082" lon="33.6374576"><ele>10.0</ele><time>2015-05-02T15:12:14.0000000+00:00</time></trkpt><trkpt lat="34.9230436" lon="33.6374655"><ele>10.0</ele><time>2015-05-02T15:12:16.0000000+00:00</time></trkpt><trkpt lat="34.9229893" lon="33.6374612"><ele>10.0</ele><time>2015-05-02T15:12:18.0000000+00:00</time></trkpt><trkpt lat="34.922935" lon="33.6374518"><ele>10.0</ele><time>2015-05-02T15:12:20.0000000+00:00</time></trkpt><trkpt lat="34.9228859" lon="33.6374406"><ele>9.5</ele><time>2015-05-02T15:12:22.0000000+00:00</time></trkpt><trkpt lat="34.9228327" lon="33.6374311"><ele>9.6</ele><time>2015-05-02T15:12:24.0000000+00:00</time></trkpt><trkpt lat="34.9227772" lon="33.6374251"><ele>9.4</ele><time>2015-05-02T15:12:26.0000000+00:00</time></trkpt><trkpt lat="34.922718" lon="33.6374142"><ele>9.1</ele><time>2015-05-02T15:12:28.0000000+00:00</time></trkpt><trkpt lat="34.9226638" lon="33.6374063"><ele>9.0</ele><time>2015-05-02T15:12:30.0000000+00:00</time></trkpt><trkpt lat="34.9226138" lon="33.6374051"><ele>9.0</ele><time>2015-05-02T15:12:32.0000000+00:00</time></trkpt><trkpt lat="34.9225475" lon="33.6373942"><ele>8.3</ele><time>2015-05-02T15:12:35.0000000+00:00</time></trkpt><trkpt lat="34.9224959" lon="33.6373781"><ele>8.1</ele><time>2015-05-02T15:12:37.0000000+00:00</time></trkpt><trkpt lat="34.9224438" lon="33.6373589"><ele>8.5</ele><time>2015-05-02T15:12:39.0000000+00:00</time></trkpt><trkpt lat="34.9223888" lon="33.6373512"><ele>8.4</ele><time>2015-05-02T15:12:41.0000000+00:00</time></trkpt><trkpt lat="34.9223353" lon="33.63735"><ele>8.6</ele><time>2015-05-02T15:12:43.0000000+00:00</time></trkpt><trkpt lat="34.9222797" lon="33.6373487"><ele>9.4</ele><time>2015-05-02T15:12:45.0000000+00:00</time></trkpt><trkpt lat="34.9222286" lon="33.6373518"><ele>9.9</ele><time>2015-05-02T15:12:47.0000000+00:00</time></trkpt><trkpt lat="34.9221762" lon="33.6373513"><ele>9.7</ele><time>2015-05-02T15:12:49.0000000+00:00</time></trkpt><trkpt lat="34.9221195" lon="33.6373422"><ele>9.9</ele><time>2015-05-02T15:12:51.0000000+00:00</time></trkpt><trkpt lat="34.9220531" lon="33.6373311"><ele>10.0</ele><time>2015-05-02T15:12:53.0000000+00:00</time></trkpt><trkpt lat="34.9219915" lon="33.6373348"><ele>10.5</ele><time>2015-05-02T15:12:55.0000000+00:00</time></trkpt><trkpt lat="34.9219317" lon="33.6373417"><ele>10.1</ele><time>2015-05-02T15:12:57.0000000+00:00</time></trkpt><trkpt lat="34.9218737" lon="33.6373374"><ele>9.3</ele><time>2015-05-02T15:12:59.0000000+00:00</time></trkpt><trkpt lat="34.921818" lon="33.6373352"><ele>9.6</ele><time>2015-05-02T15:13:01.0000000+00:00</time></trkpt><trkpt lat="34.9217504" lon="33.6373306"><ele>11.2</ele><time>2015-05-02T15:13:04.0000000+00:00</time></trkpt><trkpt lat="34.9216991" lon="33.6373361"><ele>11.1</ele><time>2015-05-02T15:13:06.0000000+00:00</time></trkpt><trkpt lat="34.9216498" lon="33.6373435"><ele>11.0</ele><time>2015-05-02T15:13:08.0000000+00:00</time></trkpt><trkpt lat="34.9216149" lon="33.6372961"><ele>13.9</ele><time>2015-05-02T15:13:16.0000000+00:00</time></trkpt><trkpt lat="34.9215823" lon="33.6372574"><ele>16.0</ele><time>2015-05-02T15:13:21.0000000+00:00</time></trkpt><trkpt lat="34.9215492" lon="33.6372158"><ele>18.3</ele><time>2015-05-02T15:13:30.0000000+00:00</time></trkpt><trkpt lat="34.9215167" lon="33.6371637"><ele>17.3</ele><time>2015-05-02T15:13:34.0000000+00:00</time></trkpt><trkpt lat="34.9214988" lon="33.6371017"><ele>13.4</ele><time>2015-05-02T15:13:39.0000000+00:00</time></trkpt><trkpt lat="34.9214803" lon="33.6370444"><ele>12.9</ele><time>2015-05-02T15:13:50.0000000+00:00</time></trkpt><trkpt lat="34.9214565" lon="33.6369801"><ele>12.1</ele><time>2015-05-02T15:13:54.0000000+00:00</time></trkpt><trkpt lat="34.9214212" lon="33.6369303"><ele>11.1</ele><time>2015-05-02T15:13:58.0000000+00:00</time></trkpt><trkpt lat="34.921389" lon="33.6368888"><ele>11.3</ele><time>2015-05-02T15:14:01.0000000+00:00</time></trkpt><trkpt lat="34.9213554" lon="33.6368507"><ele>11.2</ele><time>2015-05-02T15:14:04.0000000+00:00</time></trkpt><trkpt lat="34.9213055" lon="33.6368283"><ele>10.8</ele><time>2015-05-02T15:14:08.0000000+00:00</time></trkpt><trkpt lat="34.9212555" lon="33.6368559"><ele>9.3</ele><time>2015-05-02T15:14:12.0000000+00:00</time></trkpt><trkpt lat="34.9212058" lon="33.6368863"><ele>9.2</ele><time>2015-05-02T15:14:16.0000000+00:00</time></trkpt><trkpt lat="34.9211618" lon="33.6369168"><ele>9.1</ele><time>2015-05-02T15:14:20.0000000+00:00</time></trkpt><trkpt lat="34.9211234" lon="33.6369517"><ele>10.5</ele><time>2015-05-02T15:14:24.0000000+00:00</time></trkpt><trkpt lat="34.9210776" lon="33.6369437"><ele>11.9</ele><time>2015-05-02T15:14:30.0000000+00:00</time></trkpt><trkpt lat="34.9210281" lon="33.6369318"><ele>13.7</ele><time>2015-05-02T15:14:34.0000000+00:00</time></trkpt><trkpt lat="34.9209788" lon="33.6369221"><ele>15.4</ele><time>2015-05-02T15:14:38.0000000+00:00</time></trkpt><trkpt lat="34.9209246" lon="33.6369178"><ele>15.5</ele><time>2015-05-02T15:14:45.0000000+00:00</time></trkpt><trkpt lat="34.9208767" lon="33.6369117"><ele>17.2</ele><time>2015-05-02T15:14:48.0000000+00:00</time></trkpt><trkpt lat="34.920825" lon="33.6369087"><ele>16.3</ele><time>2015-05-02T15:14:51.0000000+00:00</time></trkpt><trkpt lat="34.9207673" lon="33.6369116"><ele>16.1</ele><time>2015-05-02T15:14:54.0000000+00:00</time></trkpt><trkpt lat="34.9207144" lon="33.6369178"><ele>15.8</ele><time>2015-05-02T15:14:56.0000000+00:00</time></trkpt><trkpt lat="34.9206673" lon="33.6369151"><ele>14.7</ele><time>2015-05-02T15:14:58.0000000+00:00</time></trkpt><trkpt lat="34.9206178" lon="33.6369154"><ele>14.2</ele><time>2015-05-02T15:15:00.0000000+00:00</time></trkpt><trkpt lat="34.9205676" lon="33.6369092"><ele>15.3</ele><time>2015-05-02T15:15:02.0000000+00:00</time></trkpt><trkpt lat="34.9205029" lon="33.6369044"><ele>14.3</ele><time>2015-05-02T15:15:05.0000000+00:00</time></trkpt><trkpt lat="34.9204535" lon="33.6368952"><ele>13.6</ele><time>2015-05-02T15:15:07.0000000+00:00</time></trkpt><trkpt lat="34.9203904" lon="33.6368814"><ele>13.4</ele><time>2015-05-02T15:15:09.0000000+00:00</time></trkpt><trkpt lat="34.9203339" lon="33.6368654"><ele>13.6</ele><time>2015-05-02T15:15:11.0000000+00:00</time></trkpt><trkpt lat="34.9202809" lon="33.6368613"><ele>13.4</ele><time>2015-05-02T15:15:13.0000000+00:00</time></trkpt><trkpt lat="34.9202296" lon="33.6368555"><ele>13.1</ele><time>2015-05-02T15:15:16.0000000+00:00</time></trkpt><trkpt lat="34.9201743" lon="33.636843"><ele>15.0</ele><time>2015-05-02T15:15:21.0000000+00:00</time></trkpt><trkpt lat="34.9201053" lon="33.6368231"><ele>15.9</ele><time>2015-05-02T15:15:24.0000000+00:00</time></trkpt><trkpt lat="34.9200564" lon="33.6368136"><ele>15.5</ele><time>2015-05-02T15:15:26.0000000+00:00</time></trkpt><trkpt lat="34.9199938" lon="33.6368093"><ele>15.1</ele><time>2015-05-02T15:15:29.0000000+00:00</time></trkpt><trkpt lat="34.9199476" lon="33.6368169"><ele>15.0</ele><time>2015-05-02T15:15:32.0000000+00:00</time></trkpt><trkpt lat="34.9199029" lon="33.6367867"><ele>17.0</ele><time>2015-05-02T15:15:40.0000000+00:00</time></trkpt><trkpt lat="34.9198436" lon="33.6367756"><ele>17.1</ele><time>2015-05-02T15:15:43.0000000+00:00</time></trkpt><trkpt lat="34.9197943" lon="33.6367691"><ele>16.8</ele><time>2015-05-02T15:15:46.0000000+00:00</time></trkpt><trkpt lat="34.9197416" lon="33.6367557"><ele>18.1</ele><time>2015-05-02T15:15:49.0000000+00:00</time></trkpt><trkpt lat="34.9196876" lon="33.6367529"><ele>16.4</ele><time>2015-05-02T15:15:52.0000000+00:00</time></trkpt><trkpt lat="34.9196382" lon="33.6367608"><ele>16.2</ele><time>2015-05-02T15:15:55.0000000+00:00</time></trkpt><trkpt lat="34.919593" lon="33.6367416"><ele>19.2</ele><time>2015-05-02T15:15:59.0000000+00:00</time></trkpt><trkpt lat="34.9195527" lon="33.6367142"><ele>21.1</ele><time>2015-05-02T15:16:07.0000000+00:00</time></trkpt><trkpt lat="34.9195046" lon="33.6366873"><ele>22.1</ele><time>2015-05-02T15:16:12.0000000+00:00</time></trkpt><trkpt lat="34.9194576" lon="33.6367164"><ele>17.8</ele><time>2015-05-02T15:16:15.0000000+00:00</time></trkpt><trkpt lat="34.919396" lon="33.6367205"><ele>17.1</ele><time>2015-05-02T15:16:18.0000000+00:00</time></trkpt><trkpt lat="34.919334" lon="33.6367091"><ele>16.2</ele><time>2015-05-02T15:16:21.0000000+00:00</time></trkpt><trkpt lat="34.919276" lon="33.6366887"><ele>16.8</ele><time>2015-05-02T15:16:24.0000000+00:00</time></trkpt><trkpt lat="34.9192216" lon="33.6366717"><ele>18.9</ele><time>2015-05-02T15:16:27.0000000+00:00</time></trkpt><trkpt lat="34.9191666" lon="33.6366609"><ele>18.6</ele><time>2015-05-02T15:16:30.0000000+00:00</time></trkpt><trkpt lat="34.9191232" lon="33.6366431"><ele>18.2</ele><time>2015-05-02T15:16:32.0000000+00:00</time></trkpt><trkpt lat="34.9190644" lon="33.6366349"><ele>19.5</ele><time>2015-05-02T15:16:35.0000000+00:00</time></trkpt><trkpt lat="34.9190273" lon="33.6366894"><ele>18.8</ele><time>2015-05-02T15:16:38.0000000+00:00</time></trkpt><trkpt lat="34.9190194" lon="33.6367497"><ele>15.6</ele><time>2015-05-02T15:16:41.0000000+00:00</time></trkpt><trkpt lat="34.9190241" lon="33.6368152"><ele>15.1</ele><time>2015-05-02T15:16:48.0000000+00:00</time></trkpt><trkpt lat="34.9190223" lon="33.6369006"><ele>14.2</ele><time>2015-05-02T15:16:51.0000000+00:00</time></trkpt><trkpt lat="34.9190169" lon="33.6369868"><ele>13.6</ele><time>2015-05-02T15:16:53.0000000+00:00</time></trkpt><trkpt lat="34.9190105" lon="33.637075"><ele>13.2</ele><time>2015-05-02T15:16:55.0000000+00:00</time></trkpt><trkpt lat="34.9190018" lon="33.6371629"><ele>13.1</ele><time>2015-05-02T15:16:57.0000000+00:00</time></trkpt><trkpt lat="34.9189939" lon="33.6372444"><ele>13.0</ele><time>2015-05-02T15:16:59.0000000+00:00</time></trkpt><trkpt lat="34.9189896" lon="33.6373279"><ele>12.5</ele><time>2015-05-02T15:17:01.0000000+00:00</time></trkpt><trkpt lat="34.9189855" lon="33.6374039"><ele>12.1</ele><time>2015-05-02T15:17:03.0000000+00:00</time></trkpt><trkpt lat="34.9189845" lon="33.6374838"><ele>12.8</ele><time>2015-05-02T15:17:05.0000000+00:00</time></trkpt><trkpt lat="34.9189817" lon="33.6375652"><ele>12.2</ele><time>2015-05-02T15:17:07.0000000+00:00</time></trkpt><trkpt lat="34.9189778" lon="33.6376484"><ele>12.1</ele><time>2015-05-02T15:17:09.0000000+00:00</time></trkpt><trkpt lat="34.918975" lon="33.6377148"><ele>12.8</ele><time>2015-05-02T15:17:11.0000000+00:00</time></trkpt><trkpt lat="34.9189691" lon="33.6377922"><ele>13.5</ele><time>2015-05-02T15:17:14.0000000+00:00</time></trkpt><trkpt lat="34.9189388" lon="33.6378599"><ele>12.7</ele><time>2015-05-02T15:17:17.0000000+00:00</time></trkpt><trkpt lat="34.9188932" lon="33.6378954"><ele>12.7</ele><time>2015-05-02T15:17:19.0000000+00:00</time></trkpt><trkpt lat="34.918843" lon="33.6379162"><ele>11.7</ele><time>2015-05-02T15:17:21.0000000+00:00</time></trkpt><trkpt lat="34.9187927" lon="33.6379328"><ele>11.2</ele><time>2015-05-02T15:17:23.0000000+00:00</time></trkpt><trkpt lat="34.918745" lon="33.6379537"><ele>10.3</ele><time>2015-05-02T15:17:25.0000000+00:00</time></trkpt><trkpt lat="34.9186998" lon="33.6379687"><ele>10.1</ele><time>2015-05-02T15:17:27.0000000+00:00</time></trkpt><trkpt lat="34.9186511" lon="33.6379765"><ele>9.3</ele><time>2015-05-02T15:17:29.0000000+00:00</time></trkpt><trkpt lat="34.9186037" lon="33.6379822"><ele>9.1</ele><time>2015-05-02T15:17:31.0000000+00:00</time></trkpt><trkpt lat="34.9185546" lon="33.637974"><ele>8.5</ele><time>2015-05-02T15:17:33.0000000+00:00</time></trkpt><trkpt lat="34.9184937" lon="33.6379463"><ele>8.1</ele><time>2015-05-02T15:17:36.0000000+00:00</time></trkpt><trkpt lat="34.918454" lon="33.6379088"><ele>11.0</ele><time>2015-05-02T15:17:53.0000000+00:00</time></trkpt><trkpt lat="34.9184042" lon="33.6379092"><ele>11.1</ele><time>2015-05-02T15:17:56.0000000+00:00</time></trkpt><trkpt lat="34.9183558" lon="33.6379232"><ele>11.1</ele><time>2015-05-02T15:18:00.0000000+00:00</time></trkpt><trkpt lat="34.918303" lon="33.6379348"><ele>9.9</ele><time>2015-05-02T15:18:07.0000000+00:00</time></trkpt><trkpt lat="34.9182549" lon="33.6379375"><ele>12.0</ele><time>2015-05-02T15:18:14.0000000+00:00</time></trkpt><trkpt lat="34.9182033" lon="33.63794"><ele>11.5</ele><time>2015-05-02T15:18:17.0000000+00:00</time></trkpt><trkpt lat="34.9181562" lon="33.6379401"><ele>11.1</ele><time>2015-05-02T15:18:20.0000000+00:00</time></trkpt><trkpt lat="34.9181083" lon="33.6379402"><ele>10.2</ele><time>2015-05-02T15:18:23.0000000+00:00</time></trkpt><trkpt lat="34.9180611" lon="33.637938"><ele>10.8</ele><time>2015-05-02T15:18:26.0000000+00:00</time></trkpt><trkpt lat="34.9180044" lon="33.6379442"><ele>12.7</ele><time>2015-05-02T15:18:30.0000000+00:00</time></trkpt><trkpt lat="34.9179467" lon="33.6379304"><ele>13.0</ele><time>2015-05-02T15:18:34.0000000+00:00</time></trkpt><trkpt lat="34.9178977" lon="33.6379266"><ele>13.5</ele><time>2015-05-02T15:18:37.0000000+00:00</time></trkpt><trkpt lat="34.9178464" lon="33.6379058"><ele>11.8</ele><time>2015-05-02T15:18:41.0000000+00:00</time></trkpt><trkpt lat="34.9178118" lon="33.6378692"><ele>10.9</ele><time>2015-05-02T15:18:44.0000000+00:00</time></trkpt><trkpt lat="34.9177674" lon="33.6378288"><ele>11.0</ele><time>2015-05-02T15:18:47.0000000+00:00</time></trkpt><trkpt lat="34.9177176" lon="33.6378093"><ele>12.4</ele><time>2015-05-02T15:18:51.0000000+00:00</time></trkpt><trkpt lat="34.9176619" lon="33.6378275"><ele>12.8</ele><time>2015-05-02T15:18:56.0000000+00:00</time></trkpt><trkpt lat="34.9176161" lon="33.6378469"><ele>12.9</ele><time>2015-05-02T15:19:00.0000000+00:00</time></trkpt><trkpt lat="34.917568" lon="33.6378416"><ele>12.8</ele><time>2015-05-02T15:19:21.0000000+00:00</time></trkpt><trkpt lat="34.9175174" lon="33.6378685"><ele>12.3</ele><time>2015-05-02T15:19:25.0000000+00:00</time></trkpt><trkpt lat="34.9174725" lon="33.6378943"><ele>11.3</ele><time>2015-05-02T15:19:29.0000000+00:00</time></trkpt><trkpt lat="34.9174194" lon="33.6379206"><ele>11.0</ele><time>2015-05-02T15:19:53.0000000+00:00</time></trkpt><trkpt lat="34.9173664" lon="33.6379521"><ele>11.0</ele><time>2015-05-02T15:19:57.0000000+00:00</time></trkpt><trkpt lat="34.9173235" lon="33.6379704"><ele>11.9</ele><time>2015-05-02T15:20:00.0000000+00:00</time></trkpt><trkpt lat="34.9172787" lon="33.6379821"><ele>12.0</ele><time>2015-05-02T15:20:03.0000000+00:00</time></trkpt><trkpt lat="34.9172311" lon="33.6379858"><ele>12.0</ele><time>2015-05-02T15:20:06.0000000+00:00</time></trkpt><trkpt lat="34.9171838" lon="33.6379911"><ele>11.3</ele><time>2015-05-02T15:20:09.0000000+00:00</time></trkpt><trkpt lat="34.9171375" lon="33.6379932"><ele>11.2</ele><time>2015-05-02T15:20:12.0000000+00:00</time></trkpt><trkpt lat="34.9170774" lon="33.6379982"><ele>10.6</ele><time>2015-05-02T15:20:16.0000000+00:00</time></trkpt><trkpt lat="34.9170184" lon="33.6380003"><ele>11.0</ele><time>2015-05-02T15:20:20.0000000+00:00</time></trkpt><trkpt lat="34.9169586" lon="33.6380007"><ele>11.0</ele><time>2015-05-02T15:20:24.0000000+00:00</time></trkpt><trkpt lat="34.9168999" lon="33.6380069"><ele>11.5</ele><time>2015-05-02T15:20:28.0000000+00:00</time></trkpt><trkpt lat="34.9168533" lon="33.6380097"><ele>11.8</ele><time>2015-05-02T15:20:31.0000000+00:00</time></trkpt><trkpt lat="34.916805" lon="33.6380134"><ele>11.1</ele><time>2015-05-02T15:20:34.0000000+00:00</time></trkpt><trkpt lat="34.9167539" lon="33.6380166"><ele>10.9</ele><time>2015-05-02T15:20:37.0000000+00:00</time></trkpt><trkpt lat="34.916705" lon="33.6380244"><ele>10.4</ele><time>2015-05-02T15:20:40.0000000+00:00</time></trkpt><trkpt lat="34.916646" lon="33.6380365"><ele>10.0</ele><time>2015-05-02T15:20:44.0000000+00:00</time></trkpt><trkpt lat="34.9165866" lon="33.6380444"><ele>10.0</ele><time>2015-05-02T15:20:48.0000000+00:00</time></trkpt><trkpt lat="34.9165319" lon="33.6380559"><ele>10.0</ele><time>2015-05-02T15:20:52.0000000+00:00</time></trkpt><trkpt lat="34.9165085" lon="33.6381144"><ele>10.5</ele><time>2015-05-02T15:20:57.0000000+00:00</time></trkpt><trkpt lat="34.9164863" lon="33.6381738"><ele>11.9</ele><time>2015-05-02T15:21:01.0000000+00:00</time></trkpt><trkpt lat="34.9164425" lon="33.6382074"><ele>12.7</ele><time>2015-05-02T15:21:05.0000000+00:00</time></trkpt><trkpt lat="34.9163904" lon="33.6381966"><ele>12.1</ele><time>2015-05-02T15:21:09.0000000+00:00</time></trkpt><trkpt lat="34.916338" lon="33.6381908"><ele>10.3</ele><time>2015-05-02T15:21:13.0000000+00:00</time></trkpt><trkpt lat="34.9162814" lon="33.6381817"><ele>10.5</ele><time>2015-05-02T15:21:17.0000000+00:00</time></trkpt><trkpt lat="34.9162249" lon="33.6381854"><ele>10.1</ele><time>2015-05-02T15:21:21.0000000+00:00</time></trkpt><trkpt lat="34.9161774" lon="33.638186"><ele>10.0</ele><time>2015-05-02T15:21:24.0000000+00:00</time></trkpt><trkpt lat="34.9161281" lon="33.6381849"><ele>9.5</ele><time>2015-05-02T15:21:27.0000000+00:00</time></trkpt><trkpt lat="34.9160775" lon="33.6381744"><ele>9.6</ele><time>2015-05-02T15:21:30.0000000+00:00</time></trkpt><trkpt lat="34.9160266" lon="33.6381726"><ele>8.7</ele><time>2015-05-02T15:21:33.0000000+00:00</time></trkpt><trkpt lat="34.9159781" lon="33.6381681"><ele>8.9</ele><time>2015-05-02T15:21:36.0000000+00:00</time></trkpt><trkpt lat="34.9159324" lon="33.6381586"><ele>9.0</ele><time>2015-05-02T15:21:39.0000000+00:00</time></trkpt><trkpt lat="34.915874" lon="33.6381574"><ele>9.0</ele><time>2015-05-02T15:21:43.0000000+00:00</time></trkpt><trkpt lat="34.9158292" lon="33.6381532"><ele>9.1</ele><time>2015-05-02T15:21:46.0000000+00:00</time></trkpt><trkpt lat="34.9157716" lon="33.6381502"><ele>8.5</ele><time>2015-05-02T15:21:50.0000000+00:00</time></trkpt><trkpt lat="34.915713" lon="33.6381586"><ele>7.8</ele><time>2015-05-02T15:21:54.0000000+00:00</time></trkpt><trkpt lat="34.9156628" lon="33.6381597"><ele>8.7</ele><time>2015-05-02T15:21:57.0000000+00:00</time></trkpt><trkpt lat="34.9156132" lon="33.638154"><ele>9.0</ele><time>2015-05-02T15:22:00.0000000+00:00</time></trkpt><trkpt lat="34.9155662" lon="33.6381508"><ele>7.6</ele><time>2015-05-02T15:22:03.0000000+00:00</time></trkpt><trkpt lat="34.9155061" lon="33.6381509"><ele>7.8</ele><time>2015-05-02T15:22:07.0000000+00:00</time></trkpt><trkpt lat="34.9154604" lon="33.6381458"><ele>7.6</ele><time>2015-05-02T15:22:10.0000000+00:00</time></trkpt><trkpt lat="34.9154151" lon="33.6381382"><ele>8.9</ele><time>2015-05-02T15:22:14.0000000+00:00</time></trkpt><trkpt lat="34.9153636" lon="33.638151"><ele>7.6</ele><time>2015-05-02T15:22:18.0000000+00:00</time></trkpt><trkpt lat="34.9153077" lon="33.6381412"><ele>6.7</ele><time>2015-05-02T15:22:22.0000000+00:00</time></trkpt><trkpt lat="34.9152522" lon="33.6381177"><ele>8.7</ele><time>2015-05-02T15:22:26.0000000+00:00</time></trkpt><trkpt lat="34.9152042" lon="33.6381174"><ele>9.0</ele><time>2015-05-02T15:22:29.0000000+00:00</time></trkpt><trkpt lat="34.9151571" lon="33.6381169"><ele>9.0</ele><time>2015-05-02T15:22:32.0000000+00:00</time></trkpt><trkpt lat="34.9151123" lon="33.638105"><ele>9.5</ele><time>2015-05-02T15:22:35.0000000+00:00</time></trkpt><trkpt lat="34.915067" lon="33.6380928"><ele>10.7</ele><time>2015-05-02T15:22:38.0000000+00:00</time></trkpt><trkpt lat="34.9150197" lon="33.6380946"><ele>12.4</ele><time>2015-05-02T15:22:41.0000000+00:00</time></trkpt><trkpt lat="34.914975" lon="33.638101"><ele>13.7</ele><time>2015-05-02T15:22:44.0000000+00:00</time></trkpt><trkpt lat="34.9149163" lon="33.6381006"><ele>13.8</ele><time>2015-05-02T15:22:48.0000000+00:00</time></trkpt><trkpt lat="34.9148624" lon="33.6380902"><ele>14.7</ele><time>2015-05-02T15:22:52.0000000+00:00</time></trkpt><trkpt lat="34.9148089" lon="33.6380914"><ele>13.8</ele><time>2015-05-02T15:22:56.0000000+00:00</time></trkpt><trkpt lat="34.9147581" lon="33.6380929"><ele>12.6</ele><time>2015-05-02T15:23:00.0000000+00:00</time></trkpt><trkpt lat="34.9147079" lon="33.6380931"><ele>13.0</ele><time>2015-05-02T15:23:04.0000000+00:00</time></trkpt><trkpt lat="34.9146524" lon="33.6380862"><ele>13.5</ele><time>2015-05-02T15:23:08.0000000+00:00</time></trkpt><trkpt lat="34.9146068" lon="33.6380805"><ele>13.1</ele><time>2015-05-02T15:23:11.0000000+00:00</time></trkpt><trkpt lat="34.9145477" lon="33.6380784"><ele>13.0</ele><time>2015-05-02T15:23:15.0000000+00:00</time></trkpt><trkpt lat="34.9145014" lon="33.6380765"><ele>12.3</ele><time>2015-05-02T15:23:18.0000000+00:00</time></trkpt><trkpt lat="34.9144527" lon="33.6380686"><ele>12.4</ele><time>2015-05-02T15:23:21.0000000+00:00</time></trkpt><trkpt lat="34.9144072" lon="33.6380729"><ele>12.1</ele><time>2015-05-02T15:23:24.0000000+00:00</time></trkpt><trkpt lat="34.9143522" lon="33.6380881"><ele>10.6</ele><time>2015-05-02T15:23:28.0000000+00:00</time></trkpt><trkpt lat="34.9142995" lon="33.6380822"><ele>10.6</ele><time>2015-05-02T15:23:32.0000000+00:00</time></trkpt><trkpt lat="34.9142392" lon="33.6380767"><ele>11.6</ele><time>2015-05-02T15:23:36.0000000+00:00</time></trkpt><trkpt lat="34.9141802" lon="33.6380627"><ele>13.9</ele><time>2015-05-02T15:23:40.0000000+00:00</time></trkpt><trkpt lat="34.9141224" lon="33.6380501"><ele>14.4</ele><time>2015-05-02T15:23:44.0000000+00:00</time></trkpt><trkpt lat="34.9140691" lon="33.6380531"><ele>13.3</ele><time>2015-05-02T15:23:48.0000000+00:00</time></trkpt><trkpt lat="34.9140104" lon="33.6380426"><ele>12.6</ele><time>2015-05-02T15:23:52.0000000+00:00</time></trkpt><trkpt lat="34.9139648" lon="33.638045"><ele>12.8</ele><time>2015-05-02T15:23:55.0000000+00:00</time></trkpt><trkpt lat="34.9139187" lon="33.6380465"><ele>12.7</ele><time>2015-05-02T15:23:58.0000000+00:00</time></trkpt><trkpt lat="34.9138716" lon="33.6380421"><ele>13.0</ele><time>2015-05-02T15:24:01.0000000+00:00</time></trkpt><trkpt lat="34.9138225" lon="33.638033"><ele>12.1</ele><time>2015-05-02T15:24:04.0000000+00:00</time></trkpt><trkpt lat="34.9137729" lon="33.6380346"><ele>12.0</ele><time>2015-05-02T15:24:07.0000000+00:00</time></trkpt><trkpt lat="34.9137229" lon="33.6380336"><ele>12.0</ele><time>2015-05-02T15:24:10.0000000+00:00</time></trkpt><trkpt lat="34.9136724" lon="33.6380251"><ele>12.8</ele><time>2015-05-02T15:24:13.0000000+00:00</time></trkpt><trkpt lat="34.9136217" lon="33.6380206"><ele>13.0</ele><time>2015-05-02T15:24:16.0000000+00:00</time></trkpt><trkpt lat="34.9135735" lon="33.6380169"><ele>13.0</ele><time>2015-05-02T15:24:19.0000000+00:00</time></trkpt><trkpt lat="34.9135284" lon="33.6380145"><ele>13.0</ele><time>2015-05-02T15:24:22.0000000+00:00</time></trkpt><trkpt lat="34.9134716" lon="33.6380002"><ele>14.0</ele><time>2015-05-02T15:24:26.0000000+00:00</time></trkpt><trkpt lat="34.913427" lon="33.6379839"><ele>14.0</ele><time>2015-05-02T15:24:29.0000000+00:00</time></trkpt><trkpt lat="34.9133812" lon="33.6379778"><ele>13.6</ele><time>2015-05-02T15:24:32.0000000+00:00</time></trkpt><trkpt lat="34.9133349" lon="33.6379906"><ele>13.2</ele><time>2015-05-02T15:24:35.0000000+00:00</time></trkpt><trkpt lat="34.9132884" lon="33.6379986"><ele>12.2</ele><time>2015-05-02T15:24:38.0000000+00:00</time></trkpt><trkpt lat="34.9132437" lon="33.637988"><ele>11.5</ele><time>2015-05-02T15:24:41.0000000+00:00</time></trkpt><trkpt lat="34.9131998" lon="33.6379744"><ele>11.1</ele><time>2015-05-02T15:24:44.0000000+00:00</time></trkpt><trkpt lat="34.9131516" lon="33.637985"><ele>10.3</ele><time>2015-05-02T15:24:47.0000000+00:00</time></trkpt><trkpt lat="34.9131002" lon="33.6379832"><ele>10.4</ele><time>2015-05-02T15:24:50.0000000+00:00</time></trkpt><trkpt lat="34.9130529" lon="33.6379768"><ele>11.4</ele><time>2015-05-02T15:24:53.0000000+00:00</time></trkpt><trkpt lat="34.913007" lon="33.6379702"><ele>12.2</ele><time>2015-05-02T15:24:56.0000000+00:00</time></trkpt><trkpt lat="34.9129489" lon="33.6379679"><ele>10.6</ele><time>2015-05-02T15:25:00.0000000+00:00</time></trkpt><trkpt lat="34.9128931" lon="33.6379706"><ele>10.5</ele><time>2015-05-02T15:25:04.0000000+00:00</time></trkpt><trkpt lat="34.9128353" lon="33.6379604"><ele>11.6</ele><time>2015-05-02T15:25:08.0000000+00:00</time></trkpt><trkpt lat="34.9127869" lon="33.6379591"><ele>11.8</ele><time>2015-05-02T15:25:11.0000000+00:00</time></trkpt><trkpt lat="34.9127407" lon="33.6379616"><ele>12.0</ele><time>2015-05-02T15:25:14.0000000+00:00</time></trkpt><trkpt lat="34.9126957" lon="33.6379593"><ele>12.0</ele><time>2015-05-02T15:25:17.0000000+00:00</time></trkpt><trkpt lat="34.9126385" lon="33.6379547"><ele>12.0</ele><time>2015-05-02T15:25:21.0000000+00:00</time></trkpt><trkpt lat="34.9125906" lon="33.6379408"><ele>12.0</ele><time>2015-05-02T15:25:24.0000000+00:00</time></trkpt><trkpt lat="34.9125417" lon="33.6379294"><ele>12.8</ele><time>2015-05-02T15:25:27.0000000+00:00</time></trkpt><trkpt lat="34.9124944" lon="33.6379152"><ele>12.9</ele><time>2015-05-02T15:25:30.0000000+00:00</time></trkpt><trkpt lat="34.9124474" lon="33.6379152"><ele>13.0</ele><time>2015-05-02T15:25:33.0000000+00:00</time></trkpt><trkpt lat="34.9124021" lon="33.6379125"><ele>13.0</ele><time>2015-05-02T15:25:36.0000000+00:00</time></trkpt><trkpt lat="34.9123562" lon="33.6379114"><ele>13.0</ele><time>2015-05-02T15:25:39.0000000+00:00</time></trkpt><trkpt lat="34.9123093" lon="33.637911"><ele>13.0</ele><time>2015-05-02T15:25:42.0000000+00:00</time></trkpt><trkpt lat="34.912264" lon="33.6379095"><ele>13.0</ele><time>2015-05-02T15:25:45.0000000+00:00</time></trkpt><trkpt lat="34.9122166" lon="33.6379086"><ele>13.0</ele><time>2015-05-02T15:25:48.0000000+00:00</time></trkpt><trkpt lat="34.9121676" lon="33.6379095"><ele>13.0</ele><time>2015-05-02T15:25:51.0000000+00:00</time></trkpt><trkpt lat="34.9121187" lon="33.6379098"><ele>13.0</ele><time>2015-05-02T15:25:54.0000000+00:00</time></trkpt><trkpt lat="34.9120699" lon="33.6379114"><ele>13.0</ele><time>2015-05-02T15:25:57.0000000+00:00</time></trkpt><trkpt lat="34.9120226" lon="33.6379116"><ele>12.1</ele><time>2015-05-02T15:26:00.0000000+00:00</time></trkpt><trkpt lat="34.9119758" lon="33.6379124"><ele>12.0</ele><time>2015-05-02T15:26:03.0000000+00:00</time></trkpt><trkpt lat="34.9119288" lon="33.6379128"><ele>12.5</ele><time>2015-05-02T15:26:06.0000000+00:00</time></trkpt><trkpt lat="34.9118813" lon="33.6379126"><ele>13.0</ele><time>2015-05-02T15:26:09.0000000+00:00</time></trkpt><trkpt lat="34.9118339" lon="33.6379164"><ele>13.0</ele><time>2015-05-02T15:26:12.0000000+00:00</time></trkpt><trkpt lat="34.9117871" lon="33.6379145"><ele>13.1</ele><time>2015-05-02T15:26:15.0000000+00:00</time></trkpt><trkpt lat="34.9117397" lon="33.6379087"><ele>13.0</ele><time>2015-05-02T15:26:18.0000000+00:00</time></trkpt><trkpt lat="34.9116926" lon="33.6379064"><ele>12.3</ele><time>2015-05-02T15:26:21.0000000+00:00</time></trkpt><trkpt lat="34.9116469" lon="33.637901"><ele>12.1</ele><time>2015-05-02T15:26:24.0000000+00:00</time></trkpt><trkpt lat="34.9116015" lon="33.6378977"><ele>12.5</ele><time>2015-05-02T15:26:27.0000000+00:00</time></trkpt><trkpt lat="34.9115547" lon="33.6378989"><ele>12.6</ele><time>2015-05-02T15:26:30.0000000+00:00</time></trkpt><trkpt lat="34.9115078" lon="33.6378965"><ele>12.1</ele><time>2015-05-02T15:26:33.0000000+00:00</time></trkpt><trkpt lat="34.9114486" lon="33.6378949"><ele>11.5</ele><time>2015-05-02T15:26:37.0000000+00:00</time></trkpt><trkpt lat="34.9113961" lon="33.6378755"><ele>11.6</ele><time>2015-05-02T15:26:41.0000000+00:00</time></trkpt><trkpt lat="34.9113409" lon="33.6378562"><ele>11.5</ele><time>2015-05-02T15:26:45.0000000+00:00</time></trkpt><trkpt lat="34.9112892" lon="33.6378335"><ele>12.0</ele><time>2015-05-02T15:26:49.0000000+00:00</time></trkpt><trkpt lat="34.9112383" lon="33.6378253"><ele>13.0</ele><time>2015-05-02T15:26:53.0000000+00:00</time></trkpt><trkpt lat="34.9111882" lon="33.6378213"><ele>14.0</ele><time>2015-05-02T15:26:57.0000000+00:00</time></trkpt><trkpt lat="34.911133" lon="33.6378038"><ele>14.8</ele><time>2015-05-02T15:27:01.0000000+00:00</time></trkpt><trkpt lat="34.9110879" lon="33.6378015"><ele>16.4</ele><time>2015-05-02T15:27:04.0000000+00:00</time></trkpt><trkpt lat="34.91103" lon="33.637821"><ele>17.5</ele><time>2015-05-02T15:27:08.0000000+00:00</time></trkpt><trkpt lat="34.9109738" lon="33.6378288"><ele>18.0</ele><time>2015-05-02T15:27:12.0000000+00:00</time></trkpt><trkpt lat="34.9109184" lon="33.6378265"><ele>17.3</ele><time>2015-05-02T15:27:16.0000000+00:00</time></trkpt><trkpt lat="34.9108591" lon="33.6378253"><ele>17.9</ele><time>2015-05-02T15:27:20.0000000+00:00</time></trkpt><trkpt lat="34.9108057" lon="33.637806"><ele>17.8</ele><time>2015-05-02T15:27:24.0000000+00:00</time></trkpt><trkpt lat="34.9107491" lon="33.6377916"><ele>18.5</ele><time>2015-05-02T15:27:28.0000000+00:00</time></trkpt><trkpt lat="34.9106903" lon="33.6377994"><ele>19.7</ele><time>2015-05-02T15:27:32.0000000+00:00</time></trkpt><trkpt lat="34.9106436" lon="33.6378"><ele>20.1</ele><time>2015-05-02T15:27:35.0000000+00:00</time></trkpt><trkpt lat="34.9105878" lon="33.6377868"><ele>19.2</ele><time>2015-05-02T15:27:39.0000000+00:00</time></trkpt><trkpt lat="34.9105415" lon="33.6377724"><ele>18.5</ele><time>2015-05-02T15:27:46.0000000+00:00</time></trkpt><trkpt lat="34.9104901" lon="33.6377949"><ele>16.4</ele><time>2015-05-02T15:27:50.0000000+00:00</time></trkpt><trkpt lat="34.9104448" lon="33.6378066"><ele>14.7</ele><time>2015-05-02T15:27:53.0000000+00:00</time></trkpt><trkpt lat="34.910389" lon="33.6378332"><ele>14.1</ele><time>2015-05-02T15:27:57.0000000+00:00</time></trkpt><trkpt lat="34.9103442" lon="33.6378428"><ele>13.2</ele><time>2015-05-02T15:28:00.0000000+00:00</time></trkpt><trkpt lat="34.9102942" lon="33.6378788"><ele>12.2</ele><time>2015-05-02T15:28:04.0000000+00:00</time></trkpt><trkpt lat="34.91024" lon="33.6378972"><ele>12.0</ele><time>2015-05-02T15:28:08.0000000+00:00</time></trkpt><trkpt lat="34.9101823" lon="33.6379003"><ele>11.1</ele><time>2015-05-02T15:28:12.0000000+00:00</time></trkpt><trkpt lat="34.9101239" lon="33.6379014"><ele>11.0</ele><time>2015-05-02T15:28:16.0000000+00:00</time></trkpt><trkpt lat="34.9100683" lon="33.6378925"><ele>10.1</ele><time>2015-05-02T15:28:20.0000000+00:00</time></trkpt><trkpt lat="34.9100094" lon="33.6378968"><ele>11.7</ele><time>2015-05-02T15:28:24.0000000+00:00</time></trkpt><trkpt lat="34.9099614" lon="33.6378833"><ele>11.3</ele><time>2015-05-02T15:28:28.0000000+00:00</time></trkpt><trkpt lat="34.9099117" lon="33.6378693"><ele>10.5</ele><time>2015-05-02T15:28:40.0000000+00:00</time></trkpt><trkpt lat="34.90986" lon="33.6378652"><ele>10.0</ele><time>2015-05-02T15:28:45.0000000+00:00</time></trkpt><trkpt lat="34.9098089" lon="33.637864"><ele>10.0</ele><time>2015-05-02T15:28:48.0000000+00:00</time></trkpt><trkpt lat="34.9097623" lon="33.6378678"><ele>10.5</ele><time>2015-05-02T15:28:51.0000000+00:00</time></trkpt><trkpt lat="34.9097084" lon="33.637869"><ele>10.3</ele><time>2015-05-02T15:28:54.0000000+00:00</time></trkpt><trkpt lat="34.9096563" lon="33.6378657"><ele>10.1</ele><time>2015-05-02T15:28:57.0000000+00:00</time></trkpt><trkpt lat="34.9096062" lon="33.6378686"><ele>10.0</ele><time>2015-05-02T15:29:00.0000000+00:00</time></trkpt><trkpt lat="34.9095592" lon="33.6378766"><ele>9.6</ele><time>2015-05-02T15:29:03.0000000+00:00</time></trkpt><trkpt lat="34.9095087" lon="33.6378696"><ele>9.2</ele><time>2015-05-02T15:29:06.0000000+00:00</time></trkpt><trkpt lat="34.9094615" lon="33.6378586"><ele>9.0</ele><time>2015-05-02T15:29:09.0000000+00:00</time></trkpt><trkpt lat="34.909416" lon="33.6378549"><ele>9.0</ele><time>2015-05-02T15:29:12.0000000+00:00</time></trkpt><trkpt lat="34.9093661" lon="33.6378541"><ele>8.1</ele><time>2015-05-02T15:29:15.0000000+00:00</time></trkpt><trkpt lat="34.9093207" lon="33.6378581"><ele>8.1</ele><time>2015-05-02T15:29:17.0000000+00:00</time></trkpt><trkpt lat="34.909251" lon="33.637854"><ele>8.0</ele><time>2015-05-02T15:29:20.0000000+00:00</time></trkpt><trkpt lat="34.909204" lon="33.6378488"><ele>8.0</ele><time>2015-05-02T15:29:22.0000000+00:00</time></trkpt><trkpt lat="34.9091535" lon="33.637846"><ele>8.0</ele><time>2015-05-02T15:29:24.0000000+00:00</time></trkpt><trkpt lat="34.9091005" lon="33.6378431"><ele>8.0</ele><time>2015-05-02T15:29:26.0000000+00:00</time></trkpt><trkpt lat="34.9090363" lon="33.6378402"><ele>8.0</ele><time>2015-05-02T15:29:28.0000000+00:00</time></trkpt><trkpt lat="34.9089709" lon="33.6378404"><ele>8.0</ele><time>2015-05-02T15:29:30.0000000+00:00</time></trkpt><trkpt lat="34.9089093" lon="33.6378403"><ele>7.5</ele><time>2015-05-02T15:29:32.0000000+00:00</time></trkpt><trkpt lat="34.9088518" lon="33.6378378"><ele>7.9</ele><time>2015-05-02T15:29:34.0000000+00:00</time></trkpt><trkpt lat="34.9087943" lon="33.6378344"><ele>7.7</ele><time>2015-05-02T15:29:36.0000000+00:00</time></trkpt><trkpt lat="34.9087423" lon="33.6378325"><ele>8.0</ele><time>2015-05-02T15:29:38.0000000+00:00</time></trkpt><trkpt lat="34.9086962" lon="33.6378337"><ele>7.3</ele><time>2015-05-02T15:29:40.0000000+00:00</time></trkpt><trkpt lat="34.9086493" lon="33.637833"><ele>7.8</ele><time>2015-05-02T15:29:42.0000000+00:00</time></trkpt><trkpt lat="34.9085926" lon="33.6378318"><ele>8.0</ele><time>2015-05-02T15:29:44.0000000+00:00</time></trkpt><trkpt lat="34.90854" lon="33.6378349"><ele>8.0</ele><time>2015-05-02T15:29:46.0000000+00:00</time></trkpt><trkpt lat="34.9084913" lon="33.6378378"><ele>8.0</ele><time>2015-05-02T15:29:48.0000000+00:00</time></trkpt><trkpt lat="34.9084414" lon="33.6378423"><ele>8.6</ele><time>2015-05-02T15:29:51.0000000+00:00</time></trkpt><trkpt lat="34.9083834" lon="33.6378412"><ele>9.0</ele><time>2015-05-02T15:29:55.0000000+00:00</time></trkpt><trkpt lat="34.9083361" lon="33.6378423"><ele>8.9</ele><time>2015-05-02T15:30:06.0000000+00:00</time></trkpt><trkpt lat="34.9082844" lon="33.6378386"><ele>9.0</ele><time>2015-05-02T15:30:10.0000000+00:00</time></trkpt><trkpt lat="34.9082302" lon="33.6378315"><ele>8.9</ele><time>2015-05-02T15:30:14.0000000+00:00</time></trkpt><trkpt lat="34.9081711" lon="33.6378215"><ele>9.5</ele><time>2015-05-02T15:30:18.0000000+00:00</time></trkpt><trkpt lat="34.9081206" lon="33.6378212"><ele>10.4</ele><time>2015-05-02T15:30:20.0000000+00:00</time></trkpt><trkpt lat="34.9080664" lon="33.6378224"><ele>10.9</ele><time>2015-05-02T15:30:22.0000000+00:00</time></trkpt><trkpt lat="34.9080099" lon="33.6378223"><ele>11.0</ele><time>2015-05-02T15:30:24.0000000+00:00</time></trkpt><trkpt lat="34.9079548" lon="33.637822"><ele>11.0</ele><time>2015-05-02T15:30:26.0000000+00:00</time></trkpt><trkpt lat="34.9078984" lon="33.6378221"><ele>11.0</ele><time>2015-05-02T15:30:28.0000000+00:00</time></trkpt><trkpt lat="34.9078454" lon="33.6378246"><ele>11.5</ele><time>2015-05-02T15:30:30.0000000+00:00</time></trkpt><trkpt lat="34.9077999" lon="33.6378262"><ele>11.4</ele><time>2015-05-02T15:30:32.0000000+00:00</time></trkpt><trkpt lat="34.9077372" lon="33.6378282"><ele>11.6</ele><time>2015-05-02T15:30:35.0000000+00:00</time></trkpt><trkpt lat="34.9076754" lon="33.6378276"><ele>12.0</ele><time>2015-05-02T15:30:38.0000000+00:00</time></trkpt><trkpt lat="34.9076166" lon="33.6378171"><ele>12.0</ele><time>2015-05-02T15:30:41.0000000+00:00</time></trkpt><trkpt lat="34.9075735" lon="33.6377995"><ele>11.3</ele><time>2015-05-02T15:30:44.0000000+00:00</time></trkpt><trkpt lat="34.9075122" lon="33.6378036"><ele>11.1</ele><time>2015-05-02T15:30:47.0000000+00:00</time></trkpt><trkpt lat="34.9074591" lon="33.6378114"><ele>11.0</ele><time>2015-05-02T15:30:49.0000000+00:00</time></trkpt><trkpt lat="34.9073979" lon="33.6378157"><ele>11.0</ele><time>2015-05-02T15:30:51.0000000+00:00</time></trkpt><trkpt lat="34.9073384" lon="33.637816"><ele>11.3</ele><time>2015-05-02T15:30:53.0000000+00:00</time></trkpt><trkpt lat="34.9072889" lon="33.6378169"><ele>11.1</ele><time>2015-05-02T15:30:55.0000000+00:00</time></trkpt><trkpt lat="34.9072369" lon="33.6378144"><ele>11.0</ele><time>2015-05-02T15:30:57.0000000+00:00</time></trkpt><trkpt lat="34.9071818" lon="33.6378131"><ele>11.5</ele><time>2015-05-02T15:30:59.0000000+00:00</time></trkpt><trkpt lat="34.9071268" lon="33.6378152"><ele>11.9</ele><time>2015-05-02T15:31:01.0000000+00:00</time></trkpt><trkpt lat="34.9070745" lon="33.6378195"><ele>12.0</ele><time>2015-05-02T15:31:03.0000000+00:00</time></trkpt><trkpt lat="34.9070178" lon="33.6378217"><ele>12.0</ele><time>2015-05-02T15:31:05.0000000+00:00</time></trkpt><trkpt lat="34.9069608" lon="33.6378234"><ele>12.0</ele><time>2015-05-02T15:31:07.0000000+00:00</time></trkpt><trkpt lat="34.906903" lon="33.6378231"><ele>12.0</ele><time>2015-05-02T15:31:09.0000000+00:00</time></trkpt><trkpt lat="34.9068471" lon="33.6378236"><ele>12.0</ele><time>2015-05-02T15:31:11.0000000+00:00</time></trkpt><trkpt lat="34.9067792" lon="33.6378197"><ele>11.3</ele><time>2015-05-02T15:31:13.0000000+00:00</time></trkpt><trkpt lat="34.9067149" lon="33.6378194"><ele>11.8</ele><time>2015-05-02T15:31:15.0000000+00:00</time></trkpt><trkpt lat="34.9066539" lon="33.6378204"><ele>11.7</ele><time>2015-05-02T15:31:17.0000000+00:00</time></trkpt><trkpt lat="34.9066035" lon="33.6378196"><ele>11.9</ele><time>2015-05-02T15:31:19.0000000+00:00</time></trkpt><trkpt lat="34.9065444" lon="33.6378203"><ele>12.0</ele><time>2015-05-02T15:31:21.0000000+00:00</time></trkpt><trkpt lat="34.9064831" lon="33.6378225"><ele>12.5</ele><time>2015-05-02T15:31:23.0000000+00:00</time></trkpt><trkpt lat="34.9064201" lon="33.6378243"><ele>12.9</ele><time>2015-05-02T15:31:25.0000000+00:00</time></trkpt><trkpt lat="34.9063598" lon="33.6378249"><ele>13.0</ele><time>2015-05-02T15:31:27.0000000+00:00</time></trkpt><trkpt lat="34.9062987" lon="33.6378229"><ele>12.5</ele><time>2015-05-02T15:31:29.0000000+00:00</time></trkpt><trkpt lat="34.9062372" lon="33.6378218"><ele>12.9</ele><time>2015-05-02T15:31:31.0000000+00:00</time></trkpt><trkpt lat="34.9061726" lon="33.63782"><ele>13.0</ele><time>2015-05-02T15:31:33.0000000+00:00</time></trkpt><trkpt lat="34.906116" lon="33.6378136"><ele>12.3</ele><time>2015-05-02T15:31:35.0000000+00:00</time></trkpt><trkpt lat="34.9060548" lon="33.6378123"><ele>12.1</ele><time>2015-05-02T15:31:37.0000000+00:00</time></trkpt><trkpt lat="34.905994" lon="33.6378154"><ele>11.3</ele><time>2015-05-02T15:31:39.0000000+00:00</time></trkpt><trkpt lat="34.9059402" lon="33.6378193"><ele>11.1</ele><time>2015-05-02T15:31:41.0000000+00:00</time></trkpt><trkpt lat="34.9058943" lon="33.6378191"><ele>11.0</ele><time>2015-05-02T15:31:43.0000000+00:00</time></trkpt><trkpt lat="34.9058487" lon="33.6378205"><ele>11.0</ele><time>2015-05-02T15:31:45.0000000+00:00</time></trkpt><trkpt lat="34.9057996" lon="33.6378248"><ele>11.5</ele><time>2015-05-02T15:31:47.0000000+00:00</time></trkpt><trkpt lat="34.9057466" lon="33.6378273"><ele>11.6</ele><time>2015-05-02T15:31:49.0000000+00:00</time></trkpt><trkpt lat="34.905697" lon="33.6378293"><ele>12.4</ele><time>2015-05-02T15:31:51.0000000+00:00</time></trkpt><trkpt lat="34.9056443" lon="33.6378372"><ele>12.1</ele><time>2015-05-02T15:31:53.0000000+00:00</time></trkpt><trkpt lat="34.9055905" lon="33.6378393"><ele>12.0</ele><time>2015-05-02T15:31:55.0000000+00:00</time></trkpt><trkpt lat="34.9055274" lon="33.6378394"><ele>12.0</ele><time>2015-05-02T15:31:57.0000000+00:00</time></trkpt><trkpt lat="34.9054676" lon="33.6378415"><ele>12.5</ele><time>2015-05-02T15:31:59.0000000+00:00</time></trkpt><trkpt lat="34.9054097" lon="33.6378434"><ele>13.4</ele><time>2015-05-02T15:32:01.0000000+00:00</time></trkpt><trkpt lat="34.905349" lon="33.6378434"><ele>13.9</ele><time>2015-05-02T15:32:03.0000000+00:00</time></trkpt><trkpt lat="34.9052863" lon="33.6378458"><ele>14.0</ele><time>2015-05-02T15:32:05.0000000+00:00</time></trkpt><trkpt lat="34.9052308" lon="33.6378509"><ele>14.0</ele><time>2015-05-02T15:32:07.0000000+00:00</time></trkpt><trkpt lat="34.9051754" lon="33.6378544"><ele>14.0</ele><time>2015-05-02T15:32:09.0000000+00:00</time></trkpt><trkpt lat="34.9051217" lon="33.6378599"><ele>14.0</ele><time>2015-05-02T15:32:11.0000000+00:00</time></trkpt><trkpt lat="34.9050666" lon="33.6378664"><ele>13.3</ele><time>2015-05-02T15:32:13.0000000+00:00</time></trkpt><trkpt lat="34.9050166" lon="33.6378721"><ele>13.8</ele><time>2015-05-02T15:32:15.0000000+00:00</time></trkpt><trkpt lat="34.9049625" lon="33.6378751"><ele>14.0</ele><time>2015-05-02T15:32:17.0000000+00:00</time></trkpt><trkpt lat="34.9049063" lon="33.6378733"><ele>13.3</ele><time>2015-05-02T15:32:19.0000000+00:00</time></trkpt><trkpt lat="34.9048495" lon="33.6378688"><ele>13.1</ele><time>2015-05-02T15:32:21.0000000+00:00</time></trkpt><trkpt lat="34.9047979" lon="33.6378655"><ele>13.0</ele><time>2015-05-02T15:32:23.0000000+00:00</time></trkpt><trkpt lat="34.9047452" lon="33.6378598"><ele>13.0</ele><time>2015-05-02T15:32:25.0000000+00:00</time></trkpt><trkpt lat="34.9046972" lon="33.6378515"><ele>13.0</ele><time>2015-05-02T15:32:27.0000000+00:00</time></trkpt><trkpt lat="34.9046358" lon="33.6378345"><ele>12.9</ele><time>2015-05-02T15:32:30.0000000+00:00</time></trkpt><trkpt lat="34.9045841" lon="33.6378245"><ele>12.7</ele><time>2015-05-02T15:32:32.0000000+00:00</time></trkpt><trkpt lat="34.9045341" lon="33.6378143"><ele>13.0</ele><time>2015-05-02T15:32:34.0000000+00:00</time></trkpt><trkpt lat="34.9044828" lon="33.637806"><ele>13.0</ele><time>2015-05-02T15:32:36.0000000+00:00</time></trkpt><trkpt lat="34.9044305" lon="33.6377973"><ele>13.0</ele><time>2015-05-02T15:32:38.0000000+00:00</time></trkpt><trkpt lat="34.9043739" lon="33.637787"><ele>13.0</ele><time>2015-05-02T15:32:40.0000000+00:00</time></trkpt><trkpt lat="34.9043212" lon="33.6377789"><ele>12.8</ele><time>2015-05-02T15:32:42.0000000+00:00</time></trkpt><trkpt lat="34.9042664" lon="33.6377717"><ele>13.0</ele><time>2015-05-02T15:32:44.0000000+00:00</time></trkpt><trkpt lat="34.904209" lon="33.637766"><ele>13.0</ele><time>2015-05-02T15:32:46.0000000+00:00</time></trkpt><trkpt lat="34.9041511" lon="33.637762"><ele>12.8</ele><time>2015-05-02T15:32:48.0000000+00:00</time></trkpt><trkpt lat="34.904098" lon="33.6377556"><ele>13.0</ele><time>2015-05-02T15:32:50.0000000+00:00</time></trkpt><trkpt lat="34.904047" lon="33.6377515"><ele>13.0</ele><time>2015-05-02T15:32:52.0000000+00:00</time></trkpt><trkpt lat="34.9039962" lon="33.6377449"><ele>13.0</ele><time>2015-05-02T15:32:54.0000000+00:00</time></trkpt><trkpt lat="34.9039394" lon="33.6377414"><ele>13.0</ele><time>2015-05-02T15:32:56.0000000+00:00</time></trkpt><trkpt lat="34.9038846" lon="33.6377369"><ele>13.0</ele><time>2015-05-02T15:32:58.0000000+00:00</time></trkpt><trkpt lat="34.9038261" lon="33.6377341"><ele>13.0</ele><time>2015-05-02T15:33:00.0000000+00:00</time></trkpt><trkpt lat="34.9037651" lon="33.6377355"><ele>13.0</ele><time>2015-05-02T15:33:02.0000000+00:00</time></trkpt><trkpt lat="34.9037024" lon="33.6377364"><ele>13.0</ele><time>2015-05-02T15:33:04.0000000+00:00</time></trkpt><trkpt lat="34.9036422" lon="33.6377373"><ele>13.0</ele><time>2015-05-02T15:33:06.0000000+00:00</time></trkpt><trkpt lat="34.9035774" lon="33.6377393"><ele>13.0</ele><time>2015-05-02T15:33:08.0000000+00:00</time></trkpt><trkpt lat="34.9035027" lon="33.6377393"><ele>13.0</ele><time>2015-05-02T15:33:10.0000000+00:00</time></trkpt><trkpt lat="34.903432" lon="33.6377403"><ele>13.0</ele><time>2015-05-02T15:33:12.0000000+00:00</time></trkpt><trkpt lat="34.9033701" lon="33.6377353"><ele>13.0</ele><time>2015-05-02T15:33:14.0000000+00:00</time></trkpt><trkpt lat="34.9033104" lon="33.6377407"><ele>13.0</ele><time>2015-05-02T15:33:16.0000000+00:00</time></trkpt><trkpt lat="34.9032637" lon="33.6377575"><ele>13.0</ele><time>2015-05-02T15:33:18.0000000+00:00</time></trkpt><trkpt lat="34.9032126" lon="33.6377696"><ele>12.3</ele><time>2015-05-02T15:33:20.0000000+00:00</time></trkpt><trkpt lat="34.903162" lon="33.6377766"><ele>12.1</ele><time>2015-05-02T15:33:22.0000000+00:00</time></trkpt><trkpt lat="34.9031088" lon="33.6377803"><ele>12.0</ele><time>2015-05-02T15:33:24.0000000+00:00</time></trkpt><trkpt lat="34.9030568" lon="33.6377793"><ele>12.5</ele><time>2015-05-02T15:33:26.0000000+00:00</time></trkpt><trkpt lat="34.9030054" lon="33.6377794"><ele>12.9</ele><time>2015-05-02T15:33:28.0000000+00:00</time></trkpt><trkpt lat="34.9029547" lon="33.637781"><ele>12.5</ele><time>2015-05-02T15:33:30.0000000+00:00</time></trkpt><trkpt lat="34.902903" lon="33.6377893"><ele>12.6</ele><time>2015-05-02T15:33:32.0000000+00:00</time></trkpt><trkpt lat="34.9028511" lon="33.6377986"><ele>12.9</ele><time>2015-05-02T15:33:34.0000000+00:00</time></trkpt><trkpt lat="34.902793" lon="33.6378032"><ele>13.0</ele><time>2015-05-02T15:33:36.0000000+00:00</time></trkpt><trkpt lat="34.9027231" lon="33.6378104"><ele>13.0</ele><time>2015-05-02T15:33:38.0000000+00:00</time></trkpt><trkpt lat="34.9026558" lon="33.6378176"><ele>12.5</ele><time>2015-05-02T15:33:40.0000000+00:00</time></trkpt><trkpt lat="34.9025886" lon="33.6378245"><ele>12.1</ele><time>2015-05-02T15:33:42.0000000+00:00</time></trkpt><trkpt lat="34.9025182" lon="33.6378332"><ele>12.8</ele><time>2015-05-02T15:33:44.0000000+00:00</time></trkpt><trkpt lat="34.9024522" lon="33.6378415"><ele>13.0</ele><time>2015-05-02T15:33:46.0000000+00:00</time></trkpt><trkpt lat="34.9023824" lon="33.6378471"><ele>12.5</ele><time>2015-05-02T15:33:48.0000000+00:00</time></trkpt><trkpt lat="34.9023127" lon="33.6378548"><ele>12.1</ele><time>2015-05-02T15:33:50.0000000+00:00</time></trkpt><trkpt lat="34.902239" lon="33.6378648"><ele>12.8</ele><time>2015-05-02T15:33:52.0000000+00:00</time></trkpt><trkpt lat="34.9021676" lon="33.6378707"><ele>13.0</ele><time>2015-05-02T15:33:54.0000000+00:00</time></trkpt><trkpt lat="34.9020968" lon="33.6378769"><ele>13.0</ele><time>2015-05-02T15:33:56.0000000+00:00</time></trkpt><trkpt lat="34.9020287" lon="33.6378819"><ele>13.0</ele><time>2015-05-02T15:33:58.0000000+00:00</time></trkpt><trkpt lat="34.9019584" lon="33.6378874"><ele>13.0</ele><time>2015-05-02T15:34:00.0000000+00:00</time></trkpt><trkpt lat="34.9018938" lon="33.6379012"><ele>13.0</ele><time>2015-05-02T15:34:02.0000000+00:00</time></trkpt><trkpt lat="34.9018272" lon="33.6379137"><ele>13.0</ele><time>2015-05-02T15:34:04.0000000+00:00</time></trkpt><trkpt lat="34.9017635" lon="33.6379204"><ele>13.0</ele><time>2015-05-02T15:34:06.0000000+00:00</time></trkpt><trkpt lat="34.9017106" lon="33.6379289"><ele>13.0</ele><time>2015-05-02T15:34:08.0000000+00:00</time></trkpt><trkpt lat="34.9016633" lon="33.6379391"><ele>13.0</ele><time>2015-05-02T15:34:10.0000000+00:00</time></trkpt><trkpt lat="34.9015999" lon="33.6379482"><ele>13.0</ele><time>2015-05-02T15:34:13.0000000+00:00</time></trkpt><trkpt lat="34.9015429" lon="33.6379467"><ele>12.8</ele><time>2015-05-02T15:34:16.0000000+00:00</time></trkpt><trkpt lat="34.9014879" lon="33.637956"><ele>13.0</ele><time>2015-05-02T15:34:19.0000000+00:00</time></trkpt><trkpt lat="34.9014231" lon="33.6379518"><ele>13.0</ele><time>2015-05-02T15:34:22.0000000+00:00</time></trkpt><trkpt lat="34.9013577" lon="33.6379511"><ele>13.0</ele><time>2015-05-02T15:34:24.0000000+00:00</time></trkpt><trkpt lat="34.901298" lon="33.6379541"><ele>13.0</ele><time>2015-05-02T15:34:26.0000000+00:00</time></trkpt><trkpt lat="34.9012496" lon="33.6379566"><ele>13.0</ele><time>2015-05-02T15:34:28.0000000+00:00</time></trkpt><trkpt lat="34.9011828" lon="33.6379669"><ele>13.0</ele><time>2015-05-02T15:34:31.0000000+00:00</time></trkpt><trkpt lat="34.9011364" lon="33.637971"><ele>12.3</ele><time>2015-05-02T15:34:33.0000000+00:00</time></trkpt><trkpt lat="34.9010703" lon="33.6379725"><ele>12.1</ele><time>2015-05-02T15:34:36.0000000+00:00</time></trkpt><trkpt lat="34.9010092" lon="33.6379779"><ele>12.0</ele><time>2015-05-02T15:34:39.0000000+00:00</time></trkpt><trkpt lat="34.9009457" lon="33.6379964"><ele>12.0</ele><time>2015-05-02T15:34:42.0000000+00:00</time></trkpt><trkpt lat="34.9008945" lon="33.6380162"><ele>12.0</ele><time>2015-05-02T15:34:44.0000000+00:00</time></trkpt><trkpt lat="34.9008414" lon="33.6380313"><ele>12.5</ele><time>2015-05-02T15:34:46.0000000+00:00</time></trkpt><trkpt lat="34.9007845" lon="33.6380442"><ele>12.9</ele><time>2015-05-02T15:34:48.0000000+00:00</time></trkpt><trkpt lat="34.9007308" lon="33.63805"><ele>12.2</ele><time>2015-05-02T15:34:50.0000000+00:00</time></trkpt><trkpt lat="34.9006728" lon="33.6380546"><ele>12.1</ele><time>2015-05-02T15:34:52.0000000+00:00</time></trkpt><trkpt lat="34.9006156" lon="33.6380589"><ele>12.0</ele><time>2015-05-02T15:34:54.0000000+00:00</time></trkpt><trkpt lat="34.9005584" lon="33.6380641"><ele>12.0</ele><time>2015-05-02T15:34:56.0000000+00:00</time></trkpt><trkpt lat="34.9005034" lon="33.638068"><ele>12.0</ele><time>2015-05-02T15:34:58.0000000+00:00</time></trkpt><trkpt lat="34.9004446" lon="33.6380742"><ele>12.0</ele><time>2015-05-02T15:35:00.0000000+00:00</time></trkpt><trkpt lat="34.9003869" lon="33.6380804"><ele>12.0</ele><time>2015-05-02T15:35:02.0000000+00:00</time></trkpt><trkpt lat="34.9003251" lon="33.6380849"><ele>12.0</ele><time>2015-05-02T15:35:04.0000000+00:00</time></trkpt><trkpt lat="34.9002608" lon="33.6380903"><ele>12.0</ele><time>2015-05-02T15:35:06.0000000+00:00</time></trkpt><trkpt lat="34.9001988" lon="33.638096"><ele>12.0</ele><time>2015-05-02T15:35:08.0000000+00:00</time></trkpt><trkpt lat="34.9001375" lon="33.6381005"><ele>12.0</ele><time>2015-05-02T15:35:10.0000000+00:00</time></trkpt><trkpt lat="34.9000774" lon="33.6381059"><ele>12.0</ele><time>2015-05-02T15:35:12.0000000+00:00</time></trkpt><trkpt lat="34.9000115" lon="33.6381124"><ele>12.1</ele><time>2015-05-02T15:35:15.0000000+00:00</time></trkpt><trkpt lat="34.8999637" lon="33.6381164"><ele>12.1</ele><time>2015-05-02T15:35:17.0000000+00:00</time></trkpt><trkpt lat="34.8998978" lon="33.6381256"><ele>11.5</ele><time>2015-05-02T15:35:20.0000000+00:00</time></trkpt><trkpt lat="34.8998458" lon="33.6381426"><ele>11.6</ele><time>2015-05-02T15:35:23.0000000+00:00</time></trkpt><trkpt lat="34.8997918" lon="33.6381363"><ele>10.0</ele><time>2015-05-02T15:35:50.0000000+00:00</time></trkpt><trkpt lat="34.8997403" lon="33.6381393"><ele>10.0</ele><time>2015-05-02T15:35:55.0000000+00:00</time></trkpt><trkpt lat="34.8996878" lon="33.6381341"><ele>10.3</ele><time>2015-05-02T15:36:00.0000000+00:00</time></trkpt><trkpt lat="34.8996347" lon="33.6381397"><ele>10.0</ele><time>2015-05-02T15:36:05.0000000+00:00</time></trkpt><trkpt lat="34.8995871" lon="33.6381468"><ele>10.0</ele><time>2015-05-02T15:36:09.0000000+00:00</time></trkpt><trkpt lat="34.8995405" lon="33.6381485"><ele>10.0</ele><time>2015-05-02T15:36:12.0000000+00:00</time></trkpt><trkpt lat="34.899495" lon="33.6381474"><ele>10.8</ele><time>2015-05-02T15:36:15.0000000+00:00</time></trkpt><trkpt lat="34.89945" lon="33.638141"><ele>11.7</ele><time>2015-05-02T15:36:18.0000000+00:00</time></trkpt><trkpt lat="34.8994034" lon="33.6381435"><ele>12.0</ele><time>2015-05-02T15:36:21.0000000+00:00</time></trkpt><trkpt lat="34.8993483" lon="33.6381468"><ele>12.5</ele><time>2015-05-02T15:36:25.0000000+00:00</time></trkpt><trkpt lat="34.899294" lon="33.6381499"><ele>12.3</ele><time>2015-05-02T15:36:29.0000000+00:00</time></trkpt><trkpt lat="34.899246" lon="33.6381493"><ele>13.0</ele><time>2015-05-02T15:36:36.0000000+00:00</time></trkpt><trkpt lat="34.8991931" lon="33.6381532"><ele>12.5</ele><time>2015-05-02T15:36:40.0000000+00:00</time></trkpt><trkpt lat="34.8991436" lon="33.6381712"><ele>12.1</ele><time>2015-05-02T15:36:44.0000000+00:00</time></trkpt><trkpt lat="34.8990966" lon="33.6381667"><ele>12.0</ele><time>2015-05-02T15:36:48.0000000+00:00</time></trkpt><trkpt lat="34.8990493" lon="33.6381641"><ele>10.6</ele><time>2015-05-02T15:36:52.0000000+00:00</time></trkpt><trkpt lat="34.8989934" lon="33.6381755"><ele>10.1</ele><time>2015-05-02T15:36:57.0000000+00:00</time></trkpt><trkpt lat="34.8989368" lon="33.6381912"><ele>9.5</ele><time>2015-05-02T15:37:01.0000000+00:00</time></trkpt><trkpt lat="34.8988911" lon="33.6382276"><ele>9.1</ele><time>2015-05-02T15:37:05.0000000+00:00</time></trkpt><trkpt lat="34.89884" lon="33.6382298"><ele>9.9</ele><time>2015-05-02T15:37:15.0000000+00:00</time></trkpt><trkpt lat="34.8987856" lon="33.6382304"><ele>10.5</ele><time>2015-05-02T15:37:19.0000000+00:00</time></trkpt><trkpt lat="34.8987267" lon="33.6382335"><ele>11.0</ele><time>2015-05-02T15:37:23.0000000+00:00</time></trkpt><trkpt lat="34.8986815" lon="33.6382357"><ele>11.0</ele><time>2015-05-02T15:37:26.0000000+00:00</time></trkpt><trkpt lat="34.8986365" lon="33.6382413"><ele>11.0</ele><time>2015-05-02T15:37:29.0000000+00:00</time></trkpt><trkpt lat="34.8985774" lon="33.6382464"><ele>11.5</ele><time>2015-05-02T15:37:33.0000000+00:00</time></trkpt><trkpt lat="34.8985217" lon="33.6382525"><ele>11.9</ele><time>2015-05-02T15:37:37.0000000+00:00</time></trkpt><trkpt lat="34.8984756" lon="33.6382554"><ele>11.5</ele><time>2015-05-02T15:37:40.0000000+00:00</time></trkpt><trkpt lat="34.8984182" lon="33.638251"><ele>11.8</ele><time>2015-05-02T15:37:44.0000000+00:00</time></trkpt><trkpt lat="34.8983682" lon="33.638251"><ele>12.9</ele><time>2015-05-02T15:37:48.0000000+00:00</time></trkpt><trkpt lat="34.8983129" lon="33.6382536"><ele>13.4</ele><time>2015-05-02T15:37:52.0000000+00:00</time></trkpt><trkpt lat="34.8982561" lon="33.6382733"><ele>10.2</ele><time>2015-05-02T15:37:56.0000000+00:00</time></trkpt><trkpt lat="34.8982108" lon="33.6382749"><ele>10.0</ele><time>2015-05-02T15:37:59.0000000+00:00</time></trkpt><trkpt lat="34.8981657" lon="33.6382838"><ele>9.3</ele><time>2015-05-02T15:38:02.0000000+00:00</time></trkpt><trkpt lat="34.8981213" lon="33.6382937"><ele>8.7</ele><time>2015-05-02T15:38:05.0000000+00:00</time></trkpt><trkpt lat="34.8980756" lon="33.6382993"><ele>9.0</ele><time>2015-05-02T15:38:08.0000000+00:00</time></trkpt><trkpt lat="34.8980295" lon="33.6383004"><ele>9.9</ele><time>2015-05-02T15:38:11.0000000+00:00</time></trkpt><trkpt lat="34.8979832" lon="33.6383029"><ele>10.0</ele><time>2015-05-02T15:38:14.0000000+00:00</time></trkpt><trkpt lat="34.8979248" lon="33.6383151"><ele>8.3</ele><time>2015-05-02T15:38:18.0000000+00:00</time></trkpt><trkpt lat="34.897869" lon="33.6383281"><ele>8.2</ele><time>2015-05-02T15:38:22.0000000+00:00</time></trkpt><trkpt lat="34.8978106" lon="33.6383324"><ele>9.5</ele><time>2015-05-02T15:38:26.0000000+00:00</time></trkpt><trkpt lat="34.8977538" lon="33.6383415"><ele>9.4</ele><time>2015-05-02T15:38:30.0000000+00:00</time></trkpt><trkpt lat="34.897707" lon="33.6383394"><ele>10.7</ele><time>2015-05-02T15:38:33.0000000+00:00</time></trkpt><trkpt lat="34.8976591" lon="33.6383365"><ele>11.0</ele><time>2015-05-02T15:38:36.0000000+00:00</time></trkpt><trkpt lat="34.8976083" lon="33.6383364"><ele>10.5</ele><time>2015-05-02T15:38:39.0000000+00:00</time></trkpt><trkpt lat="34.8975616" lon="33.6383423"><ele>11.0</ele><time>2015-05-02T15:38:42.0000000+00:00</time></trkpt><trkpt lat="34.897503" lon="33.6383447"><ele>12.4</ele><time>2015-05-02T15:38:46.0000000+00:00</time></trkpt><trkpt lat="34.8974578" lon="33.6383465"><ele>12.2</ele><time>2015-05-02T15:38:49.0000000+00:00</time></trkpt><trkpt lat="34.8974149" lon="33.6383639"><ele>10.8</ele><time>2015-05-02T15:38:52.0000000+00:00</time></trkpt><trkpt lat="34.8973568" lon="33.638369"><ele>11.0</ele><time>2015-05-02T15:38:56.0000000+00:00</time></trkpt><trkpt lat="34.8972989" lon="33.6383687"><ele>11.0</ele><time>2015-05-02T15:39:00.0000000+00:00</time></trkpt><trkpt lat="34.8972397" lon="33.638371"><ele>11.9</ele><time>2015-05-02T15:39:04.0000000+00:00</time></trkpt><trkpt lat="34.8971809" lon="33.638373"><ele>12.3</ele><time>2015-05-02T15:39:08.0000000+00:00</time></trkpt><trkpt lat="34.8971362" lon="33.6383811"><ele>12.1</ele><time>2015-05-02T15:39:11.0000000+00:00</time></trkpt><trkpt lat="34.8970907" lon="33.6383847"><ele>12.0</ele><time>2015-05-02T15:39:14.0000000+00:00</time></trkpt><trkpt lat="34.8970452" lon="33.6383901"><ele>12.0</ele><time>2015-05-02T15:39:17.0000000+00:00</time></trkpt><trkpt lat="34.8969872" lon="33.6383864"><ele>13.6</ele><time>2015-05-02T15:39:21.0000000+00:00</time></trkpt><trkpt lat="34.8969315" lon="33.638391"><ele>13.8</ele><time>2015-05-02T15:39:25.0000000+00:00</time></trkpt><trkpt lat="34.8968761" lon="33.6383969"><ele>13.3</ele><time>2015-05-02T15:39:29.0000000+00:00</time></trkpt><trkpt lat="34.8968182" lon="33.6384125"><ele>13.0</ele><time>2015-05-02T15:39:33.0000000+00:00</time></trkpt><trkpt lat="34.8967592" lon="33.6384149"><ele>13.5</ele><time>2015-05-02T15:39:37.0000000+00:00</time></trkpt><trkpt lat="34.8966998" lon="33.6384195"><ele>13.1</ele><time>2015-05-02T15:39:41.0000000+00:00</time></trkpt><trkpt lat="34.8966548" lon="33.6384264"><ele>13.0</ele><time>2015-05-02T15:39:44.0000000+00:00</time></trkpt><trkpt lat="34.8965959" lon="33.6384295"><ele>13.0</ele><time>2015-05-02T15:39:48.0000000+00:00</time></trkpt><trkpt lat="34.8965508" lon="33.6384311"><ele>13.5</ele><time>2015-05-02T15:39:51.0000000+00:00</time></trkpt><trkpt lat="34.896492" lon="33.6384351"><ele>14.0</ele><time>2015-05-02T15:39:55.0000000+00:00</time></trkpt><trkpt lat="34.8964465" lon="33.6384367"><ele>14.8</ele><time>2015-05-02T15:39:58.0000000+00:00</time></trkpt><trkpt lat="34.8963879" lon="33.6384404"><ele>14.6</ele><time>2015-05-02T15:40:02.0000000+00:00</time></trkpt><trkpt lat="34.8963336" lon="33.6384457"><ele>14.5</ele><time>2015-05-02T15:40:06.0000000+00:00</time></trkpt><trkpt lat="34.8962798" lon="33.6384525"><ele>14.1</ele><time>2015-05-02T15:40:10.0000000+00:00</time></trkpt><trkpt lat="34.8962246" lon="33.638459"><ele>14.0</ele><time>2015-05-02T15:40:14.0000000+00:00</time></trkpt><trkpt lat="34.896179" lon="33.6384626"><ele>14.9</ele><time>2015-05-02T15:40:17.0000000+00:00</time></trkpt><trkpt lat="34.8961188" lon="33.6384704"><ele>15.0</ele><time>2015-05-02T15:40:21.0000000+00:00</time></trkpt><trkpt lat="34.8960643" lon="33.6384736"><ele>15.0</ele><time>2015-05-02T15:40:25.0000000+00:00</time></trkpt><trkpt lat="34.8960098" lon="33.6384811"><ele>15.0</ele><time>2015-05-02T15:40:29.0000000+00:00</time></trkpt><trkpt lat="34.8959559" lon="33.6384911"><ele>14.3</ele><time>2015-05-02T15:40:33.0000000+00:00</time></trkpt><trkpt lat="34.895911" lon="33.6385052"><ele>14.1</ele><time>2015-05-02T15:40:36.0000000+00:00</time></trkpt><trkpt lat="34.8958654" lon="33.6385185"><ele>14.5</ele><time>2015-05-02T15:40:39.0000000+00:00</time></trkpt><trkpt lat="34.8958212" lon="33.6385329"><ele>14.2</ele><time>2015-05-02T15:40:42.0000000+00:00</time></trkpt><trkpt lat="34.8957741" lon="33.638542"><ele>14.0</ele><time>2015-05-02T15:40:45.0000000+00:00</time></trkpt><trkpt lat="34.8957247" lon="33.6385445"><ele>14.5</ele><time>2015-05-02T15:40:48.0000000+00:00</time></trkpt><trkpt lat="34.8956644" lon="33.6385425"><ele>15.0</ele><time>2015-05-02T15:40:52.0000000+00:00</time></trkpt><trkpt lat="34.8956193" lon="33.6385394"><ele>15.0</ele><time>2015-05-02T15:40:55.0000000+00:00</time></trkpt><trkpt lat="34.8955727" lon="33.6385409"><ele>15.3</ele><time>2015-05-02T15:40:58.0000000+00:00</time></trkpt><trkpt lat="34.8955258" lon="33.638536"><ele>14.7</ele><time>2015-05-02T15:41:01.0000000+00:00</time></trkpt><trkpt lat="34.8954662" lon="33.6385392"><ele>15.0</ele><time>2015-05-02T15:41:05.0000000+00:00</time></trkpt><trkpt lat="34.8954196" lon="33.6385374"><ele>15.8</ele><time>2015-05-02T15:41:08.0000000+00:00</time></trkpt><trkpt lat="34.8953729" lon="33.6385376"><ele>16.5</ele><time>2015-05-02T15:41:11.0000000+00:00</time></trkpt><trkpt lat="34.8953188" lon="33.6385426"><ele>16.4</ele><time>2015-05-02T15:41:15.0000000+00:00</time></trkpt><trkpt lat="34.89528" lon="33.6385026"><ele>14.1</ele><time>2015-05-02T15:41:32.0000000+00:00</time></trkpt><trkpt lat="34.8952454" lon="33.6384507"><ele>12.7</ele><time>2015-05-02T15:41:36.0000000+00:00</time></trkpt><trkpt lat="34.8951876" lon="33.6384415"><ele>10.4</ele><time>2015-05-02T15:41:40.0000000+00:00</time></trkpt><trkpt lat="34.8951399" lon="33.6384235"><ele>11.4</ele><time>2015-05-02T15:41:44.0000000+00:00</time></trkpt><trkpt lat="34.8950876" lon="33.6384178"><ele>11.5</ele><time>2015-05-02T15:41:48.0000000+00:00</time></trkpt><trkpt lat="34.8950418" lon="33.6384235"><ele>11.8</ele><time>2015-05-02T15:41:53.0000000+00:00</time></trkpt><trkpt lat="34.8949924" lon="33.6384215"><ele>11.0</ele><time>2015-05-02T15:41:58.0000000+00:00</time></trkpt><trkpt lat="34.8949478" lon="33.6384571"><ele>10.7</ele><time>2015-05-02T15:42:05.0000000+00:00</time></trkpt><trkpt lat="34.8948986" lon="33.6384683"><ele>10.9</ele><time>2015-05-02T15:42:09.0000000+00:00</time></trkpt><trkpt lat="34.8948437" lon="33.6384695"><ele>11.1</ele><time>2015-05-02T15:42:13.0000000+00:00</time></trkpt><trkpt lat="34.8947881" lon="33.6384683"><ele>11.0</ele><time>2015-05-02T15:42:17.0000000+00:00</time></trkpt><trkpt lat="34.8947425" lon="33.6384646"><ele>11.0</ele><time>2015-05-02T15:42:20.0000000+00:00</time></trkpt><trkpt lat="34.8946954" lon="33.6384608"><ele>11.8</ele><time>2015-05-02T15:42:23.0000000+00:00</time></trkpt><trkpt lat="34.8946473" lon="33.6384608"><ele>12.0</ele><time>2015-05-02T15:42:26.0000000+00:00</time></trkpt><trkpt lat="34.8946122" lon="33.6384951"><ele>9.0</ele><time>2015-05-02T15:42:39.0000000+00:00</time></trkpt><trkpt lat="34.8945624" lon="33.6385048"><ele>8.3</ele><time>2015-05-02T15:42:42.0000000+00:00</time></trkpt><trkpt lat="34.8945179" lon="33.6385226"><ele>7.4</ele><time>2015-05-02T15:42:45.0000000+00:00</time></trkpt><trkpt lat="34.8944715" lon="33.6385304"><ele>8.4</ele><time>2015-05-02T15:42:48.0000000+00:00</time></trkpt><trkpt lat="34.8944251" lon="33.6385329"><ele>8.4</ele><time>2015-05-02T15:42:51.0000000+00:00</time></trkpt><trkpt lat="34.8943818" lon="33.6385486"><ele>7.3</ele><time>2015-05-02T15:42:54.0000000+00:00</time></trkpt><trkpt lat="34.8943242" lon="33.6385479"><ele>7.5</ele><time>2015-05-02T15:42:58.0000000+00:00</time></trkpt><trkpt lat="34.8942656" lon="33.6385456"><ele>8.0</ele><time>2015-05-02T15:43:02.0000000+00:00</time></trkpt><trkpt lat="34.8942064" lon="33.6385429"><ele>9.0</ele><time>2015-05-02T15:43:06.0000000+00:00</time></trkpt><trkpt lat="34.894156" lon="33.638551"><ele>9.0</ele><time>2015-05-02T15:43:10.0000000+00:00</time></trkpt><trkpt lat="34.8941075" lon="33.6385514"><ele>10.0</ele><time>2015-05-02T15:43:14.0000000+00:00</time></trkpt><trkpt lat="34.8940558" lon="33.638555"><ele>11.1</ele><time>2015-05-02T15:43:25.0000000+00:00</time></trkpt><trkpt lat="34.8940105" lon="33.6385629"><ele>11.8</ele><time>2015-05-02T15:43:29.0000000+00:00</time></trkpt><trkpt lat="34.8939597" lon="33.6385689"><ele>12.1</ele><time>2015-05-02T15:43:33.0000000+00:00</time></trkpt><trkpt lat="34.8939092" lon="33.6385734"><ele>12.8</ele><time>2015-05-02T15:43:37.0000000+00:00</time></trkpt><trkpt lat="34.8938563" lon="33.6385844"><ele>13.0</ele><time>2015-05-02T15:43:41.0000000+00:00</time></trkpt><trkpt lat="34.8938087" lon="33.6385931"><ele>13.0</ele><time>2015-05-02T15:43:45.0000000+00:00</time></trkpt><trkpt lat="34.8937601" lon="33.6385747"><ele>13.0</ele><time>2015-05-02T15:43:49.0000000+00:00</time></trkpt><trkpt lat="34.8937236" lon="33.6385232"><ele>11.6</ele><time>2015-05-02T15:43:53.0000000+00:00</time></trkpt><trkpt lat="34.8936659" lon="33.6385338"><ele>12.9</ele><time>2015-05-02T15:43:57.0000000+00:00</time></trkpt><trkpt lat="34.8936188" lon="33.6385516"><ele>13.1</ele><time>2015-05-02T15:44:00.0000000+00:00</time></trkpt><trkpt lat="34.8935744" lon="33.6385648"><ele>13.9</ele><time>2015-05-02T15:44:03.0000000+00:00</time></trkpt><trkpt lat="34.8935304" lon="33.638578"><ele>14.0</ele><time>2015-05-02T15:44:06.0000000+00:00</time></trkpt><trkpt lat="34.8934744" lon="33.6385898"><ele>14.0</ele><time>2015-05-02T15:44:10.0000000+00:00</time></trkpt><trkpt lat="34.8934189" lon="33.6385918"><ele>15.0</ele><time>2015-05-02T15:44:14.0000000+00:00</time></trkpt><trkpt lat="34.8933617" lon="33.638593"><ele>15.0</ele><time>2015-05-02T15:44:18.0000000+00:00</time></trkpt><trkpt lat="34.8933095" lon="33.6385898"><ele>14.6</ele><time>2015-05-02T15:44:22.0000000+00:00</time></trkpt><trkpt lat="34.8932611" lon="33.6385873"><ele>15.0</ele><time>2015-05-02T15:44:28.0000000+00:00</time></trkpt><trkpt lat="34.8932141" lon="33.6385762"><ele>14.6</ele><time>2015-05-02T15:44:32.0000000+00:00</time></trkpt><trkpt lat="34.8931565" lon="33.6385642"><ele>15.0</ele><time>2015-05-02T15:44:36.0000000+00:00</time></trkpt><trkpt lat="34.8931033" lon="33.638551"><ele>16.7</ele><time>2015-05-02T15:44:40.0000000+00:00</time></trkpt><trkpt lat="34.8930527" lon="33.6385299"><ele>15.3</ele><time>2015-05-02T15:44:44.0000000+00:00</time></trkpt><trkpt lat="34.8929966" lon="33.6385225"><ele>15.9</ele><time>2015-05-02T15:44:48.0000000+00:00</time></trkpt><trkpt lat="34.8929468" lon="33.6385123"><ele>15.9</ele><time>2015-05-02T15:44:52.0000000+00:00</time></trkpt><trkpt lat="34.8928965" lon="33.638507"><ele>15.7</ele><time>2015-05-02T15:44:56.0000000+00:00</time></trkpt><trkpt lat="34.8928448" lon="33.6384818"><ele>15.4</ele><time>2015-05-02T15:45:00.0000000+00:00</time></trkpt><trkpt lat="34.892814" lon="33.6384405"><ele>13.8</ele><time>2015-05-02T15:45:03.0000000+00:00</time></trkpt><trkpt lat="34.8927806" lon="33.6384034"><ele>13.7</ele><time>2015-05-02T15:45:06.0000000+00:00</time></trkpt><trkpt lat="34.8927278" lon="33.6383745"><ele>14.2</ele><time>2015-05-02T15:45:10.0000000+00:00</time></trkpt><trkpt lat="34.8926772" lon="33.6383421"><ele>14.2</ele><time>2015-05-02T15:45:14.0000000+00:00</time></trkpt><trkpt lat="34.892621" lon="33.6383266"><ele>15.4</ele><time>2015-05-02T15:45:18.0000000+00:00</time></trkpt><trkpt lat="34.8925708" lon="33.6383169"><ele>16.9</ele><time>2015-05-02T15:45:22.0000000+00:00</time></trkpt><trkpt lat="34.8925243" lon="33.6383017"><ele>17.5</ele><time>2015-05-02T15:45:26.0000000+00:00</time></trkpt><trkpt lat="34.8924702" lon="33.6382819"><ele>17.6</ele><time>2015-05-02T15:45:30.0000000+00:00</time></trkpt><trkpt lat="34.8924208" lon="33.6382522"><ele>17.8</ele><time>2015-05-02T15:45:34.0000000+00:00</time></trkpt><trkpt lat="34.8923694" lon="33.6382228"><ele>17.5</ele><time>2015-05-02T15:45:38.0000000+00:00</time></trkpt><trkpt lat="34.8923267" lon="33.6381812"><ele>18.0</ele><time>2015-05-02T15:45:42.0000000+00:00</time></trkpt><trkpt lat="34.8922756" lon="33.6381429"><ele>18.0</ele><time>2015-05-02T15:45:46.0000000+00:00</time></trkpt><trkpt lat="34.8922244" lon="33.6381054"><ele>17.3</ele><time>2015-05-02T15:45:50.0000000+00:00</time></trkpt><trkpt lat="34.8921884" lon="33.6380641"><ele>16.8</ele><time>2015-05-02T15:45:57.0000000+00:00</time></trkpt><trkpt lat="34.892149" lon="33.6380142"><ele>15.4</ele><time>2015-05-02T15:46:01.0000000+00:00</time></trkpt><trkpt lat="34.8921245" lon="33.6379508"><ele>13.7</ele><time>2015-05-02T15:46:05.0000000+00:00</time></trkpt><trkpt lat="34.8920971" lon="33.6378896"><ele>12.9</ele><time>2015-05-02T15:46:09.0000000+00:00</time></trkpt><trkpt lat="34.8920704" lon="33.6378384"><ele>13.9</ele><time>2015-05-02T15:46:13.0000000+00:00</time></trkpt><trkpt lat="34.8920454" lon="33.6377761"><ele>13.1</ele><time>2015-05-02T15:46:17.0000000+00:00</time></trkpt><trkpt lat="34.8920129" lon="33.6377213"><ele>13.1</ele><time>2015-05-02T15:46:21.0000000+00:00</time></trkpt><trkpt lat="34.8919761" lon="33.637674"><ele>12.5</ele><time>2015-05-02T15:46:25.0000000+00:00</time></trkpt><trkpt lat="34.891952" lon="33.6376094"><ele>11.7</ele><time>2015-05-02T15:46:29.0000000+00:00</time></trkpt><trkpt lat="34.8919248" lon="33.637544"><ele>12.4</ele><time>2015-05-02T15:46:33.0000000+00:00</time></trkpt><trkpt lat="34.8919025" lon="33.6374784"><ele>11.9</ele><time>2015-05-02T15:46:37.0000000+00:00</time></trkpt><trkpt lat="34.8918838" lon="33.6374184"><ele>13.0</ele><time>2015-05-02T15:46:47.0000000+00:00</time></trkpt><trkpt lat="34.8918723" lon="33.6373582"><ele>13.9</ele><time>2015-05-02T15:46:50.0000000+00:00</time></trkpt><trkpt lat="34.8918631" lon="33.6372971"><ele>14.0</ele><time>2015-05-02T15:46:52.0000000+00:00</time></trkpt><trkpt lat="34.8918575" lon="33.6372326"><ele>14.5</ele><time>2015-05-02T15:46:54.0000000+00:00</time></trkpt><trkpt lat="34.8918582" lon="33.637174"><ele>14.9</ele><time>2015-05-02T15:46:56.0000000+00:00</time></trkpt><trkpt lat="34.8918642" lon="33.6371122"><ele>14.5</ele><time>2015-05-02T15:46:58.0000000+00:00</time></trkpt><trkpt lat="34.891874" lon="33.6370537"><ele>14.6</ele><time>2015-05-02T15:47:00.0000000+00:00</time></trkpt><trkpt lat="34.8918759" lon="33.6369731"><ele>14.6</ele><time>2015-05-02T15:47:03.0000000+00:00</time></trkpt><trkpt lat="34.8918653" lon="33.6368943"><ele>15.0</ele><time>2015-05-02T15:47:06.0000000+00:00</time></trkpt><trkpt lat="34.891834" lon="33.6368274"><ele>15.3</ele><time>2015-05-02T15:47:09.0000000+00:00</time></trkpt><trkpt lat="34.8917912" lon="33.6367843"><ele>14.6</ele><time>2015-05-02T15:47:12.0000000+00:00</time></trkpt><trkpt lat="34.8917515" lon="33.6367553"><ele>13.3</ele><time>2015-05-02T15:47:15.0000000+00:00</time></trkpt><trkpt lat="34.8917199" lon="33.6367066"><ele>12.2</ele><time>2015-05-02T15:47:18.0000000+00:00</time></trkpt><trkpt lat="34.8916959" lon="33.6366351"><ele>11.8</ele><time>2015-05-02T15:47:21.0000000+00:00</time></trkpt><trkpt lat="34.8916744" lon="33.6365599"><ele>11.1</ele><time>2015-05-02T15:47:24.0000000+00:00</time></trkpt><trkpt lat="34.8916572" lon="33.6364828"><ele>11.0</ele><time>2015-05-02T15:47:27.0000000+00:00</time></trkpt><trkpt lat="34.8916475" lon="33.6364244"><ele>10.5</ele><time>2015-05-02T15:47:29.0000000+00:00</time></trkpt><trkpt lat="34.8916393" lon="33.6363641"><ele>10.1</ele><time>2015-05-02T15:47:31.0000000+00:00</time></trkpt><trkpt lat="34.8916335" lon="33.636302"><ele>9.3</ele><time>2015-05-02T15:47:33.0000000+00:00</time></trkpt><trkpt lat="34.8916243" lon="33.6362456"><ele>9.3</ele><time>2015-05-02T15:47:35.0000000+00:00</time></trkpt><trkpt lat="34.8915997" lon="33.6361854"><ele>8.6</ele><time>2015-05-02T15:47:38.0000000+00:00</time></trkpt><trkpt lat="34.8915853" lon="33.6361264"><ele>10.7</ele><time>2015-05-02T15:47:48.0000000+00:00</time></trkpt><trkpt lat="34.8915711" lon="33.6360728"><ele>10.5</ele><time>2015-05-02T15:47:51.0000000+00:00</time></trkpt><trkpt lat="34.8915508" lon="33.6360134"><ele>9.3</ele><time>2015-05-02T15:47:59.0000000+00:00</time></trkpt><trkpt lat="34.8915279" lon="33.6359598"><ele>9.2</ele><time>2015-05-02T15:48:04.0000000+00:00</time></trkpt><trkpt lat="34.8915099" lon="33.6358978"><ele>12.0</ele><time>2015-05-02T15:48:13.0000000+00:00</time></trkpt><trkpt lat="34.8914965" lon="33.6358388"><ele>9.9</ele><time>2015-05-02T15:48:22.0000000+00:00</time></trkpt><trkpt lat="34.8914802" lon="33.6357837"><ele>9.6</ele><time>2015-05-02T15:48:25.0000000+00:00</time></trkpt><trkpt lat="34.8914694" lon="33.6357195"><ele>8.7</ele><time>2015-05-02T15:48:28.0000000+00:00</time></trkpt><trkpt lat="34.8914586" lon="33.6356482"><ele>6.4</ele><time>2015-05-02T15:48:32.0000000+00:00</time></trkpt><trkpt lat="34.8914561" lon="33.6355818"><ele>6.6</ele><time>2015-05-02T15:48:35.0000000+00:00</time></trkpt><trkpt lat="34.8914573" lon="33.6355053"><ele>7.5</ele><time>2015-05-02T15:48:38.0000000+00:00</time></trkpt><trkpt lat="34.8914633" lon="33.6354276"><ele>8.7</ele><time>2015-05-02T15:48:41.0000000+00:00</time></trkpt><trkpt lat="34.8914749" lon="33.6353494"><ele>9.9</ele><time>2015-05-02T15:48:44.0000000+00:00</time></trkpt><trkpt lat="34.8914876" lon="33.6352915"><ele>9.7</ele><time>2015-05-02T15:48:46.0000000+00:00</time></trkpt><trkpt lat="34.8915051" lon="33.6352302"><ele>9.9</ele><time>2015-05-02T15:48:48.0000000+00:00</time></trkpt><trkpt lat="34.8915321" lon="33.6351628"><ele>10.8</ele><time>2015-05-02T15:48:50.0000000+00:00</time></trkpt><trkpt lat="34.8915627" lon="33.6351004"><ele>11.7</ele><time>2015-05-02T15:48:52.0000000+00:00</time></trkpt><trkpt lat="34.8915945" lon="33.635047"><ele>12.4</ele><time>2015-05-02T15:48:54.0000000+00:00</time></trkpt><trkpt lat="34.8916271" lon="33.6349994"><ele>12.9</ele><time>2015-05-02T15:48:56.0000000+00:00</time></trkpt><trkpt lat="34.891675" lon="33.6349674"><ele>14.4</ele><time>2015-05-02T15:48:59.0000000+00:00</time></trkpt><trkpt lat="34.891719" lon="33.6349374"><ele>14.9</ele><time>2015-05-02T15:49:02.0000000+00:00</time></trkpt><trkpt lat="34.8917764" lon="33.6349091"><ele>15.9</ele><time>2015-05-02T15:49:05.0000000+00:00</time></trkpt><trkpt lat="34.8918234" lon="33.6348838"><ele>16.9</ele><time>2015-05-02T15:49:08.0000000+00:00</time></trkpt><trkpt lat="34.8918745" lon="33.6348626"><ele>18.0</ele><time>2015-05-02T15:49:32.0000000+00:00</time></trkpt><trkpt lat="34.8919261" lon="33.6348361"><ele>19.0</ele><time>2015-05-02T15:49:36.0000000+00:00</time></trkpt><trkpt lat="34.891974" lon="33.634808"><ele>19.0</ele><time>2015-05-02T15:49:40.0000000+00:00</time></trkpt><trkpt lat="34.8920204" lon="33.6347749"><ele>20.0</ele><time>2015-05-02T15:49:44.0000000+00:00</time></trkpt><trkpt lat="34.8920726" lon="33.6347625"><ele>20.0</ele><time>2015-05-02T15:49:48.0000000+00:00</time></trkpt><trkpt lat="34.8921211" lon="33.6347451"><ele>21.1</ele><time>2015-05-02T15:49:52.0000000+00:00</time></trkpt><trkpt lat="34.8921667" lon="33.6347275"><ele>24.0</ele><time>2015-05-02T15:49:56.0000000+00:00</time></trkpt><trkpt lat="34.8922145" lon="33.6347118"><ele>23.7</ele><time>2015-05-02T15:50:00.0000000+00:00</time></trkpt><trkpt lat="34.8922522" lon="33.6346648"><ele>24.8</ele><time>2015-05-02T15:50:04.0000000+00:00</time></trkpt><trkpt lat="34.8922956" lon="33.6346236"><ele>26.3</ele><time>2015-05-02T15:50:08.0000000+00:00</time></trkpt><trkpt lat="34.8923439" lon="33.634593"><ele>27.7</ele><time>2015-05-02T15:50:12.0000000+00:00</time></trkpt><trkpt lat="34.8923854" lon="33.63456"><ele>27.1</ele><time>2015-05-02T15:50:16.0000000+00:00</time></trkpt><trkpt lat="34.8924414" lon="33.6345533"><ele>25.5</ele><time>2015-05-02T15:50:21.0000000+00:00</time></trkpt><trkpt lat="34.8924883" lon="33.6345487"><ele>23.2</ele><time>2015-05-02T15:50:25.0000000+00:00</time></trkpt><trkpt lat="34.8925336" lon="33.6345265"><ele>23.0</ele><time>2015-05-02T15:50:29.0000000+00:00</time></trkpt><trkpt lat="34.8925806" lon="33.6345001"><ele>23.4</ele><time>2015-05-02T15:50:33.0000000+00:00</time></trkpt><trkpt lat="34.8926215" lon="33.6344648"><ele>23.0</ele><time>2015-05-02T15:50:37.0000000+00:00</time></trkpt><trkpt lat="34.8926664" lon="33.6344326"><ele>21.7</ele><time>2015-05-02T15:50:42.0000000+00:00</time></trkpt><trkpt lat="34.8927109" lon="33.63441"><ele>23.7</ele><time>2015-05-02T15:50:46.0000000+00:00</time></trkpt><trkpt lat="34.8927591" lon="33.634388"><ele>24.0</ele><time>2015-05-02T15:50:50.0000000+00:00</time></trkpt><trkpt lat="34.8928094" lon="33.6343912"><ele>25.0</ele><time>2015-05-02T15:50:54.0000000+00:00</time></trkpt><trkpt lat="34.8928432" lon="33.6344287"><ele>23.6</ele><time>2015-05-02T15:50:57.0000000+00:00</time></trkpt><trkpt lat="34.8928757" lon="33.6344884"><ele>21.6</ele><time>2015-05-02T15:51:01.0000000+00:00</time></trkpt><trkpt lat="34.8928955" lon="33.6345509"><ele>20.8</ele><time>2015-05-02T15:51:05.0000000+00:00</time></trkpt><trkpt lat="34.8929139" lon="33.6346122"><ele>19.2</ele><time>2015-05-02T15:51:09.0000000+00:00</time></trkpt><trkpt lat="34.8929371" lon="33.6346749"><ele>18.2</ele><time>2015-05-02T15:51:13.0000000+00:00</time></trkpt><trkpt lat="34.8929548" lon="33.6347377"><ele>17.2</ele><time>2015-05-02T15:51:17.0000000+00:00</time></trkpt><trkpt lat="34.8929718" lon="33.6347988"><ele>17.0</ele><time>2015-05-02T15:51:21.0000000+00:00</time></trkpt><trkpt lat="34.89298" lon="33.6348638"><ele>16.5</ele><time>2015-05-02T15:51:25.0000000+00:00</time></trkpt><trkpt lat="34.8929682" lon="33.6349293"><ele>16.3</ele><time>2015-05-02T15:51:29.0000000+00:00</time></trkpt><trkpt lat="34.8929369" lon="33.6349761"><ele>17.5</ele><time>2015-05-02T15:51:33.0000000+00:00</time></trkpt><trkpt lat="34.8928908" lon="33.635015"><ele>18.7</ele><time>2015-05-02T15:51:38.0000000+00:00</time></trkpt><trkpt lat="34.8928467" lon="33.6350362"><ele>20.4</ele><time>2015-05-02T15:51:42.0000000+00:00</time></trkpt><trkpt lat="34.892801" lon="33.6350589"><ele>24.7</ele><time>2015-05-02T15:51:46.0000000+00:00</time></trkpt><trkpt lat="34.892794" lon="33.6351249"><ele>22.9</ele><time>2015-05-02T15:51:51.0000000+00:00</time></trkpt><trkpt lat="34.8928083" lon="33.6351882"><ele>21.2</ele><time>2015-05-02T15:51:55.0000000+00:00</time></trkpt><trkpt lat="34.8928074" lon="33.6352445"><ele>21.5</ele><time>2015-05-02T15:53:28.0000000+00:00</time></trkpt><trkpt lat="34.8928424" lon="33.6352056"><ele>22.0</ele><time>2015-05-02T15:53:51.0000000+00:00</time></trkpt></trkseg></trk></gpx>